<?xml version="1.0" encoding="UTF-8" standalone="no" ?>
<gpx xmlns="http://www.topografix.com/GPX/1/1" xmlns:xsi="http://www.w3.org/2001/XMLSchema-instance" xsi:schemaLocation="http://www.topografix.com/GPX/1/1 http://www.topografix.com/GPX/1/1/gpx.xsd" version="1.1" creator="VisuGPX - https://www.visugpx.com">
  <metadata>
    <name>UTMB UTB PSB</name>
  </metadata>
  <trk>
    <name><![CDATA[💥 UTMB 2022 💥]]></name>
    <extensions>
      <line xmlns="http://www.topografix.com/GPX/gpx_style/0/2">
        <color>00FF00</color>
        <width>4</width>
      </line>
    </extensions>
    <trkseg>
      <trkpt lat="45.92362" lon="6.86911">
        <ele>1388</ele>
        <time>2022-08-26T16:01:31Z</time>
      </trkpt>
      <trkpt lat="45.92361" lon="6.86915">
        <ele>1388</ele>
        <time>2022-08-26T16:01:32Z</time>
      </trkpt>
      <trkpt lat="45.9236" lon="6.86918">
        <ele>1388</ele>
        <time>2022-08-26T16:01:34Z</time>
      </trkpt>
      <trkpt lat="45.92359" lon="6.86921">
        <ele>1388</ele>
        <time>2022-08-26T16:01:36Z</time>
      </trkpt>
      <trkpt lat="45.92357" lon="6.86923">
        <ele>1388</ele>
        <time>2022-08-26T16:01:38Z</time>
      </trkpt>
      <trkpt lat="45.92357" lon="6.86924">
        <ele>1388</ele>
        <time>2022-08-26T16:01:40Z</time>
      </trkpt>
      <trkpt lat="45.92357" lon="6.86926">
        <ele>1388</ele>
        <time>2022-08-26T16:01:42Z</time>
      </trkpt>
      <trkpt lat="45.92357" lon="6.86927">
        <ele>1388</ele>
        <time>2022-08-26T16:01:43Z</time>
      </trkpt>
      <trkpt lat="45.92357" lon="6.86928">
        <ele>1388</ele>
        <time>2022-08-26T16:01:44Z</time>
      </trkpt>
      <trkpt lat="45.92357" lon="6.8693">
        <ele>1388</ele>
        <time>2022-08-26T16:01:45Z</time>
      </trkpt>
      <trkpt lat="45.92357" lon="6.86931">
        <ele>1388</ele>
        <time>2022-08-26T16:01:46Z</time>
      </trkpt>
      <trkpt lat="45.92357" lon="6.86933">
        <ele>1388</ele>
        <time>2022-08-26T16:01:47Z</time>
      </trkpt>
      <trkpt lat="45.92358" lon="6.86936">
        <ele>1384</ele>
        <time>2022-08-26T16:01:48Z</time>
      </trkpt>
      <trkpt lat="45.92357" lon="6.86949">
        <ele>1384</ele>
        <time>2022-08-26T16:02:04Z</time>
      </trkpt>
      <trkpt lat="45.92357" lon="6.86949">
        <ele>1384</ele>
        <time>2022-08-26T16:02:11Z</time>
      </trkpt>
      <trkpt lat="45.92353" lon="6.8696">
        <ele>1384</ele>
        <time>2022-08-26T16:02:22Z</time>
      </trkpt>
      <trkpt lat="45.92351" lon="6.86963">
        <ele>1384</ele>
        <time>2022-08-26T16:02:26Z</time>
      </trkpt>
      <trkpt lat="45.92349" lon="6.86964">
        <ele>1384</ele>
        <time>2022-08-26T16:02:28Z</time>
      </trkpt>
      <trkpt lat="45.92346" lon="6.86964">
        <ele>1384</ele>
        <time>2022-08-26T16:02:30Z</time>
      </trkpt>
      <trkpt lat="45.92344" lon="6.86965">
        <ele>1384</ele>
        <time>2022-08-26T16:02:32Z</time>
      </trkpt>
      <trkpt lat="45.92342" lon="6.86965">
        <ele>1384</ele>
        <time>2022-08-26T16:02:34Z</time>
      </trkpt>
      <trkpt lat="45.9234" lon="6.86966">
        <ele>1384</ele>
        <time>2022-08-26T16:02:35Z</time>
      </trkpt>
      <trkpt lat="45.92339" lon="6.86966">
        <ele>1384</ele>
        <time>2022-08-26T16:02:36Z</time>
      </trkpt>
      <trkpt lat="45.92337" lon="6.86967">
        <ele>1384</ele>
        <time>2022-08-26T16:02:37Z</time>
      </trkpt>
      <trkpt lat="45.92334" lon="6.86967">
        <ele>1383</ele>
        <time>2022-08-26T16:02:39Z</time>
      </trkpt>
      <trkpt lat="45.92332" lon="6.86968">
        <ele>1383</ele>
        <time>2022-08-26T16:02:40Z</time>
      </trkpt>
      <trkpt lat="45.92329" lon="6.86969">
        <ele>1383</ele>
        <time>2022-08-26T16:02:41Z</time>
      </trkpt>
      <trkpt lat="45.92327" lon="6.86969">
        <ele>1383</ele>
        <time>2022-08-26T16:02:42Z</time>
      </trkpt>
      <trkpt lat="45.92325" lon="6.86969">
        <ele>1383</ele>
        <time>2022-08-26T16:02:44Z</time>
      </trkpt>
      <trkpt lat="45.92324" lon="6.8697">
        <ele>1383</ele>
        <time>2022-08-26T16:02:45Z</time>
      </trkpt>
      <trkpt lat="45.92322" lon="6.8697">
        <ele>1383</ele>
        <time>2022-08-26T16:02:46Z</time>
      </trkpt>
      <trkpt lat="45.9232" lon="6.86969">
        <ele>1383</ele>
        <time>2022-08-26T16:02:47Z</time>
      </trkpt>
      <trkpt lat="45.92318" lon="6.86967">
        <ele>1383</ele>
        <time>2022-08-26T16:02:50Z</time>
      </trkpt>
      <trkpt lat="45.92316" lon="6.86965">
        <ele>1383</ele>
        <time>2022-08-26T16:02:52Z</time>
      </trkpt>
      <trkpt lat="45.92314" lon="6.86963">
        <ele>1383</ele>
        <time>2022-08-26T16:02:54Z</time>
      </trkpt>
      <trkpt lat="45.92312" lon="6.86961">
        <ele>1383</ele>
        <time>2022-08-26T16:02:55Z</time>
      </trkpt>
      <trkpt lat="45.9231" lon="6.8696">
        <ele>1383</ele>
        <time>2022-08-26T16:02:56Z</time>
      </trkpt>
      <trkpt lat="45.92307" lon="6.86958">
        <ele>1383</ele>
        <time>2022-08-26T16:02:57Z</time>
      </trkpt>
      <trkpt lat="45.92306" lon="6.86957">
        <ele>1383</ele>
        <time>2022-08-26T16:02:58Z</time>
      </trkpt>
      <trkpt lat="45.92304" lon="6.86956">
        <ele>1383</ele>
        <time>2022-08-26T16:02:59Z</time>
      </trkpt>
      <trkpt lat="45.92302" lon="6.86954">
        <ele>1383</ele>
        <time>2022-08-26T16:03:00Z</time>
      </trkpt>
      <trkpt lat="45.923" lon="6.86953">
        <ele>1383</ele>
        <time>2022-08-26T16:03:01Z</time>
      </trkpt>
      <trkpt lat="45.92297" lon="6.86951">
        <ele>1383</ele>
        <time>2022-08-26T16:03:03Z</time>
      </trkpt>
      <trkpt lat="45.92295" lon="6.86948">
        <ele>1383</ele>
        <time>2022-08-26T16:03:05Z</time>
      </trkpt>
      <trkpt lat="45.92294" lon="6.86945">
        <ele>1383</ele>
        <time>2022-08-26T16:03:07Z</time>
      </trkpt>
      <trkpt lat="45.92293" lon="6.86942">
        <ele>1383</ele>
        <time>2022-08-26T16:03:10Z</time>
      </trkpt>
      <trkpt lat="45.92292" lon="6.86939">
        <ele>1383</ele>
        <time>2022-08-26T16:03:12Z</time>
      </trkpt>
      <trkpt lat="45.92292" lon="6.86936">
        <ele>1382</ele>
        <time>2022-08-26T16:03:15Z</time>
      </trkpt>
      <trkpt lat="45.92292" lon="6.86933">
        <ele>1382</ele>
        <time>2022-08-26T16:03:18Z</time>
      </trkpt>
      <trkpt lat="45.92291" lon="6.8693">
        <ele>1383</ele>
        <time>2022-08-26T16:03:21Z</time>
      </trkpt>
      <trkpt lat="45.9229" lon="6.86928">
        <ele>1383</ele>
        <time>2022-08-26T16:03:24Z</time>
      </trkpt>
      <trkpt lat="45.92289" lon="6.86926">
        <ele>1383</ele>
        <time>2022-08-26T16:03:27Z</time>
      </trkpt>
      <trkpt lat="45.92288" lon="6.86925">
        <ele>1383</ele>
        <time>2022-08-26T16:03:28Z</time>
      </trkpt>
      <trkpt lat="45.92287" lon="6.86924">
        <ele>1383</ele>
        <time>2022-08-26T16:03:30Z</time>
      </trkpt>
      <trkpt lat="45.92286" lon="6.86924">
        <ele>1383</ele>
        <time>2022-08-26T16:03:31Z</time>
      </trkpt>
      <trkpt lat="45.92285" lon="6.86923">
        <ele>1383</ele>
        <time>2022-08-26T16:03:32Z</time>
      </trkpt>
      <trkpt lat="45.92284" lon="6.86923">
        <ele>1383</ele>
        <time>2022-08-26T16:03:34Z</time>
      </trkpt>
      <trkpt lat="45.92283" lon="6.86922">
        <ele>1383</ele>
        <time>2022-08-26T16:03:36Z</time>
      </trkpt>
      <trkpt lat="45.92282" lon="6.86921">
        <ele>1383</ele>
        <time>2022-08-26T16:03:38Z</time>
      </trkpt>
      <trkpt lat="45.92282" lon="6.86921">
        <ele>1383</ele>
        <time>2022-08-26T16:03:39Z</time>
      </trkpt>
      <trkpt lat="45.92281" lon="6.8692">
        <ele>1383</ele>
        <time>2022-08-26T16:03:40Z</time>
      </trkpt>
      <trkpt lat="45.9228" lon="6.8692">
        <ele>1383</ele>
        <time>2022-08-26T16:03:41Z</time>
      </trkpt>
      <trkpt lat="45.92279" lon="6.86919">
        <ele>1383</ele>
        <time>2022-08-26T16:03:42Z</time>
      </trkpt>
      <trkpt lat="45.92278" lon="6.86919">
        <ele>1383</ele>
        <time>2022-08-26T16:03:43Z</time>
      </trkpt>
      <trkpt lat="45.92277" lon="6.86918">
        <ele>1383</ele>
        <time>2022-08-26T16:03:44Z</time>
      </trkpt>
      <trkpt lat="45.92276" lon="6.86917">
        <ele>1383</ele>
        <time>2022-08-26T16:03:45Z</time>
      </trkpt>
      <trkpt lat="45.92274" lon="6.86916">
        <ele>1383</ele>
        <time>2022-08-26T16:03:46Z</time>
      </trkpt>
      <trkpt lat="45.92273" lon="6.86916">
        <ele>1384</ele>
        <time>2022-08-26T16:03:48Z</time>
      </trkpt>
      <trkpt lat="45.92272" lon="6.86915">
        <ele>1384</ele>
        <time>2022-08-26T16:03:49Z</time>
      </trkpt>
      <trkpt lat="45.9227" lon="6.86914">
        <ele>1384</ele>
        <time>2022-08-26T16:03:50Z</time>
      </trkpt>
      <trkpt lat="45.92269" lon="6.86914">
        <ele>1384</ele>
        <time>2022-08-26T16:03:51Z</time>
      </trkpt>
      <trkpt lat="45.92268" lon="6.86913">
        <ele>1384</ele>
        <time>2022-08-26T16:03:53Z</time>
      </trkpt>
      <trkpt lat="45.92266" lon="6.86912">
        <ele>1384</ele>
        <time>2022-08-26T16:03:54Z</time>
      </trkpt>
      <trkpt lat="45.92265" lon="6.86911">
        <ele>1384</ele>
        <time>2022-08-26T16:03:55Z</time>
      </trkpt>
      <trkpt lat="45.92263" lon="6.86908">
        <ele>1384</ele>
        <time>2022-08-26T16:03:56Z</time>
      </trkpt>
      <trkpt lat="45.92261" lon="6.86905">
        <ele>1384</ele>
        <time>2022-08-26T16:03:58Z</time>
      </trkpt>
      <trkpt lat="45.92259" lon="6.86902">
        <ele>1384</ele>
        <time>2022-08-26T16:04:00Z</time>
      </trkpt>
      <trkpt lat="45.92256" lon="6.86899">
        <ele>1383</ele>
        <time>2022-08-26T16:04:02Z</time>
      </trkpt>
      <trkpt lat="45.92254" lon="6.86897">
        <ele>1383</ele>
        <time>2022-08-26T16:04:04Z</time>
      </trkpt>
      <trkpt lat="45.92252" lon="6.86895">
        <ele>1383</ele>
        <time>2022-08-26T16:04:05Z</time>
      </trkpt>
      <trkpt lat="45.92251" lon="6.86894">
        <ele>1383</ele>
        <time>2022-08-26T16:04:06Z</time>
      </trkpt>
      <trkpt lat="45.92249" lon="6.86892">
        <ele>1383</ele>
        <time>2022-08-26T16:04:07Z</time>
      </trkpt>
      <trkpt lat="45.92247" lon="6.86891">
        <ele>1383</ele>
        <time>2022-08-26T16:04:08Z</time>
      </trkpt>
      <trkpt lat="45.92245" lon="6.8689">
        <ele>1384</ele>
        <time>2022-08-26T16:04:09Z</time>
      </trkpt>
      <trkpt lat="45.92243" lon="6.86889">
        <ele>1384</ele>
        <time>2022-08-26T16:04:10Z</time>
      </trkpt>
      <trkpt lat="45.92242" lon="6.86887">
        <ele>1384</ele>
        <time>2022-08-26T16:04:11Z</time>
      </trkpt>
      <trkpt lat="45.92237" lon="6.86884">
        <ele>1384</ele>
        <time>2022-08-26T16:04:13Z</time>
      </trkpt>
      <trkpt lat="45.92235" lon="6.86881">
        <ele>1384</ele>
        <time>2022-08-26T16:04:14Z</time>
      </trkpt>
      <trkpt lat="45.92234" lon="6.86878">
        <ele>1384</ele>
        <time>2022-08-26T16:04:15Z</time>
      </trkpt>
      <trkpt lat="45.92233" lon="6.86875">
        <ele>1384</ele>
        <time>2022-08-26T16:04:16Z</time>
      </trkpt>
      <trkpt lat="45.92231" lon="6.86874">
        <ele>1384</ele>
        <time>2022-08-26T16:04:17Z</time>
      </trkpt>
      <trkpt lat="45.92229" lon="6.86873">
        <ele>1384</ele>
        <time>2022-08-26T16:04:18Z</time>
      </trkpt>
      <trkpt lat="45.92227" lon="6.86871">
        <ele>1384</ele>
        <time>2022-08-26T16:04:19Z</time>
      </trkpt>
      <trkpt lat="45.92225" lon="6.8687">
        <ele>1384</ele>
        <time>2022-08-26T16:04:20Z</time>
      </trkpt>
      <trkpt lat="45.92223" lon="6.86868">
        <ele>1384</ele>
        <time>2022-08-26T16:04:21Z</time>
      </trkpt>
      <trkpt lat="45.92221" lon="6.86866">
        <ele>1384</ele>
        <time>2022-08-26T16:04:22Z</time>
      </trkpt>
      <trkpt lat="45.9222" lon="6.86864">
        <ele>1383</ele>
        <time>2022-08-26T16:04:23Z</time>
      </trkpt>
      <trkpt lat="45.92218" lon="6.86861">
        <ele>1383</ele>
        <time>2022-08-26T16:04:24Z</time>
      </trkpt>
      <trkpt lat="45.92216" lon="6.86858">
        <ele>1383</ele>
        <time>2022-08-26T16:04:25Z</time>
      </trkpt>
      <trkpt lat="45.92216" lon="6.86856">
        <ele>1383</ele>
        <time>2022-08-26T16:04:26Z</time>
      </trkpt>
      <trkpt lat="45.92215" lon="6.86854">
        <ele>1383</ele>
        <time>2022-08-26T16:04:27Z</time>
      </trkpt>
      <trkpt lat="45.92213" lon="6.86851">
        <ele>1383</ele>
        <time>2022-08-26T16:04:28Z</time>
      </trkpt>
      <trkpt lat="45.92212" lon="6.86849">
        <ele>1383</ele>
        <time>2022-08-26T16:04:29Z</time>
      </trkpt>
      <trkpt lat="45.9221" lon="6.86847">
        <ele>1383</ele>
        <time>2022-08-26T16:04:30Z</time>
      </trkpt>
      <trkpt lat="45.92209" lon="6.86845">
        <ele>1383</ele>
        <time>2022-08-26T16:04:31Z</time>
      </trkpt>
      <trkpt lat="45.92207" lon="6.86844">
        <ele>1383</ele>
        <time>2022-08-26T16:04:32Z</time>
      </trkpt>
      <trkpt lat="45.92205" lon="6.86842">
        <ele>1383</ele>
        <time>2022-08-26T16:04:33Z</time>
      </trkpt>
      <trkpt lat="45.92203" lon="6.8684">
        <ele>1383</ele>
        <time>2022-08-26T16:04:34Z</time>
      </trkpt>
      <trkpt lat="45.92201" lon="6.86838">
        <ele>1383</ele>
        <time>2022-08-26T16:04:35Z</time>
      </trkpt>
      <trkpt lat="45.922" lon="6.86836">
        <ele>1383</ele>
        <time>2022-08-26T16:04:36Z</time>
      </trkpt>
      <trkpt lat="45.92199" lon="6.86835">
        <ele>1383</ele>
        <time>2022-08-26T16:04:37Z</time>
      </trkpt>
      <trkpt lat="45.92197" lon="6.86833">
        <ele>1383</ele>
        <time>2022-08-26T16:04:38Z</time>
      </trkpt>
      <trkpt lat="45.92195" lon="6.8683">
        <ele>1384</ele>
        <time>2022-08-26T16:04:39Z</time>
      </trkpt>
      <trkpt lat="45.92193" lon="6.86828">
        <ele>1384</ele>
        <time>2022-08-26T16:04:40Z</time>
      </trkpt>
      <trkpt lat="45.9219" lon="6.86825">
        <ele>1384</ele>
        <time>2022-08-26T16:04:41Z</time>
      </trkpt>
      <trkpt lat="45.9219" lon="6.86823">
        <ele>1384</ele>
        <time>2022-08-26T16:04:42Z</time>
      </trkpt>
      <trkpt lat="45.92187" lon="6.86821">
        <ele>1384</ele>
        <time>2022-08-26T16:04:43Z</time>
      </trkpt>
      <trkpt lat="45.92186" lon="6.8682">
        <ele>1384</ele>
        <time>2022-08-26T16:04:44Z</time>
      </trkpt>
      <trkpt lat="45.92184" lon="6.86818">
        <ele>1384</ele>
        <time>2022-08-26T16:04:45Z</time>
      </trkpt>
      <trkpt lat="45.92182" lon="6.86814">
        <ele>1384</ele>
        <time>2022-08-26T16:04:46Z</time>
      </trkpt>
      <trkpt lat="45.92181" lon="6.86813">
        <ele>1384</ele>
        <time>2022-08-26T16:04:47Z</time>
      </trkpt>
      <trkpt lat="45.92179" lon="6.86811">
        <ele>1384</ele>
        <time>2022-08-26T16:04:48Z</time>
      </trkpt>
      <trkpt lat="45.92177" lon="6.8681">
        <ele>1384</ele>
        <time>2022-08-26T16:04:49Z</time>
      </trkpt>
      <trkpt lat="45.92176" lon="6.86808">
        <ele>1384</ele>
        <time>2022-08-26T16:04:50Z</time>
      </trkpt>
      <trkpt lat="45.92174" lon="6.86807">
        <ele>1384</ele>
        <time>2022-08-26T16:04:51Z</time>
      </trkpt>
      <trkpt lat="45.92172" lon="6.86804">
        <ele>1384</ele>
        <time>2022-08-26T16:04:52Z</time>
      </trkpt>
      <trkpt lat="45.9217" lon="6.86801">
        <ele>1384</ele>
        <time>2022-08-26T16:04:53Z</time>
      </trkpt>
      <trkpt lat="45.92169" lon="6.868">
        <ele>1384</ele>
        <time>2022-08-26T16:04:54Z</time>
      </trkpt>
      <trkpt lat="45.92167" lon="6.86798">
        <ele>1384</ele>
        <time>2022-08-26T16:04:55Z</time>
      </trkpt>
      <trkpt lat="45.92165" lon="6.86796">
        <ele>1384</ele>
        <time>2022-08-26T16:04:56Z</time>
      </trkpt>
      <trkpt lat="45.92163" lon="6.86794">
        <ele>1384</ele>
        <time>2022-08-26T16:04:57Z</time>
      </trkpt>
      <trkpt lat="45.92161" lon="6.86793">
        <ele>1384</ele>
        <time>2022-08-26T16:04:58Z</time>
      </trkpt>
      <trkpt lat="45.9216" lon="6.86791">
        <ele>1384</ele>
        <time>2022-08-26T16:04:59Z</time>
      </trkpt>
      <trkpt lat="45.92158" lon="6.86789">
        <ele>1384</ele>
        <time>2022-08-26T16:05:00Z</time>
      </trkpt>
      <trkpt lat="45.92157" lon="6.86787">
        <ele>1384</ele>
        <time>2022-08-26T16:05:01Z</time>
      </trkpt>
      <trkpt lat="45.92155" lon="6.86786">
        <ele>1384</ele>
        <time>2022-08-26T16:05:02Z</time>
      </trkpt>
      <trkpt lat="45.92153" lon="6.86784">
        <ele>1384</ele>
        <time>2022-08-26T16:05:03Z</time>
      </trkpt>
      <trkpt lat="45.9215" lon="6.86782">
        <ele>1384</ele>
        <time>2022-08-26T16:05:05Z</time>
      </trkpt>
      <trkpt lat="45.92148" lon="6.86779">
        <ele>1384</ele>
        <time>2022-08-26T16:05:07Z</time>
      </trkpt>
      <trkpt lat="45.92146" lon="6.86777">
        <ele>1384</ele>
        <time>2022-08-26T16:05:09Z</time>
      </trkpt>
      <trkpt lat="45.92143" lon="6.86773">
        <ele>1384</ele>
        <time>2022-08-26T16:05:11Z</time>
      </trkpt>
      <trkpt lat="45.9214" lon="6.8677">
        <ele>1384</ele>
        <time>2022-08-26T16:05:12Z</time>
      </trkpt>
      <trkpt lat="45.92139" lon="6.86769">
        <ele>1384</ele>
        <time>2022-08-26T16:05:13Z</time>
      </trkpt>
      <trkpt lat="45.92137" lon="6.86767">
        <ele>1384</ele>
        <time>2022-08-26T16:05:14Z</time>
      </trkpt>
      <trkpt lat="45.92135" lon="6.86765">
        <ele>1385</ele>
        <time>2022-08-26T16:05:15Z</time>
      </trkpt>
      <trkpt lat="45.92133" lon="6.86764">
        <ele>1385</ele>
        <time>2022-08-26T16:05:16Z</time>
      </trkpt>
      <trkpt lat="45.92131" lon="6.86763">
        <ele>1385</ele>
        <time>2022-08-26T16:05:17Z</time>
      </trkpt>
      <trkpt lat="45.92128" lon="6.86761">
        <ele>1385</ele>
        <time>2022-08-26T16:05:18Z</time>
      </trkpt>
      <trkpt lat="45.92127" lon="6.8676">
        <ele>1385</ele>
        <time>2022-08-26T16:05:19Z</time>
      </trkpt>
      <trkpt lat="45.92125" lon="6.86759">
        <ele>1385</ele>
        <time>2022-08-26T16:05:20Z</time>
      </trkpt>
      <trkpt lat="45.92122" lon="6.86758">
        <ele>1385</ele>
        <time>2022-08-26T16:05:21Z</time>
      </trkpt>
      <trkpt lat="45.92121" lon="6.86757">
        <ele>1385</ele>
        <time>2022-08-26T16:05:22Z</time>
      </trkpt>
      <trkpt lat="45.92118" lon="6.86756">
        <ele>1385</ele>
        <time>2022-08-26T16:05:23Z</time>
      </trkpt>
      <trkpt lat="45.92116" lon="6.86755">
        <ele>1385</ele>
        <time>2022-08-26T16:05:24Z</time>
      </trkpt>
      <trkpt lat="45.92114" lon="6.86753">
        <ele>1385</ele>
        <time>2022-08-26T16:05:25Z</time>
      </trkpt>
      <trkpt lat="45.92113" lon="6.86752">
        <ele>1385</ele>
        <time>2022-08-26T16:05:26Z</time>
      </trkpt>
      <trkpt lat="45.9211" lon="6.8675">
        <ele>1385</ele>
        <time>2022-08-26T16:05:27Z</time>
      </trkpt>
      <trkpt lat="45.92109" lon="6.86749">
        <ele>1385</ele>
        <time>2022-08-26T16:05:28Z</time>
      </trkpt>
      <trkpt lat="45.92106" lon="6.86747">
        <ele>1385</ele>
        <time>2022-08-26T16:05:29Z</time>
      </trkpt>
      <trkpt lat="45.92104" lon="6.86745">
        <ele>1385</ele>
        <time>2022-08-26T16:05:30Z</time>
      </trkpt>
      <trkpt lat="45.92102" lon="6.86744">
        <ele>1385</ele>
        <time>2022-08-26T16:05:31Z</time>
      </trkpt>
      <trkpt lat="45.921" lon="6.86742">
        <ele>1385</ele>
        <time>2022-08-26T16:05:32Z</time>
      </trkpt>
      <trkpt lat="45.92098" lon="6.8674">
        <ele>1385</ele>
        <time>2022-08-26T16:05:33Z</time>
      </trkpt>
      <trkpt lat="45.92096" lon="6.86738">
        <ele>1385</ele>
        <time>2022-08-26T16:05:34Z</time>
      </trkpt>
      <trkpt lat="45.92095" lon="6.86736">
        <ele>1385</ele>
        <time>2022-08-26T16:05:35Z</time>
      </trkpt>
      <trkpt lat="45.92092" lon="6.86733">
        <ele>1385</ele>
        <time>2022-08-26T16:05:36Z</time>
      </trkpt>
      <trkpt lat="45.92092" lon="6.86732">
        <ele>1385</ele>
        <time>2022-08-26T16:05:37Z</time>
      </trkpt>
      <trkpt lat="45.9209" lon="6.8673">
        <ele>1385</ele>
        <time>2022-08-26T16:05:38Z</time>
      </trkpt>
      <trkpt lat="45.92089" lon="6.86728">
        <ele>1385</ele>
        <time>2022-08-26T16:05:39Z</time>
      </trkpt>
      <trkpt lat="45.92087" lon="6.86725">
        <ele>1385</ele>
        <time>2022-08-26T16:05:40Z</time>
      </trkpt>
      <trkpt lat="45.92085" lon="6.86723">
        <ele>1385</ele>
        <time>2022-08-26T16:05:41Z</time>
      </trkpt>
      <trkpt lat="45.92084" lon="6.86722">
        <ele>1385</ele>
        <time>2022-08-26T16:05:42Z</time>
      </trkpt>
      <trkpt lat="45.92082" lon="6.8672">
        <ele>1385</ele>
        <time>2022-08-26T16:05:43Z</time>
      </trkpt>
      <trkpt lat="45.9208" lon="6.86718">
        <ele>1385</ele>
        <time>2022-08-26T16:05:44Z</time>
      </trkpt>
      <trkpt lat="45.92078" lon="6.86717">
        <ele>1385</ele>
        <time>2022-08-26T16:05:45Z</time>
      </trkpt>
      <trkpt lat="45.92076" lon="6.86715">
        <ele>1385</ele>
        <time>2022-08-26T16:05:46Z</time>
      </trkpt>
      <trkpt lat="45.92074" lon="6.86714">
        <ele>1385</ele>
        <time>2022-08-26T16:05:47Z</time>
      </trkpt>
      <trkpt lat="45.92072" lon="6.86712">
        <ele>1385</ele>
        <time>2022-08-26T16:05:48Z</time>
      </trkpt>
      <trkpt lat="45.9207" lon="6.86711">
        <ele>1385</ele>
        <time>2022-08-26T16:05:49Z</time>
      </trkpt>
      <trkpt lat="45.92067" lon="6.86708">
        <ele>1385</ele>
        <time>2022-08-26T16:05:50Z</time>
      </trkpt>
      <trkpt lat="45.92066" lon="6.86707">
        <ele>1385</ele>
        <time>2022-08-26T16:05:51Z</time>
      </trkpt>
      <trkpt lat="45.92064" lon="6.86705">
        <ele>1385</ele>
        <time>2022-08-26T16:05:52Z</time>
      </trkpt>
      <trkpt lat="45.92063" lon="6.86703">
        <ele>1385</ele>
        <time>2022-08-26T16:05:53Z</time>
      </trkpt>
      <trkpt lat="45.92061" lon="6.86701">
        <ele>1385</ele>
        <time>2022-08-26T16:05:54Z</time>
      </trkpt>
      <trkpt lat="45.92059" lon="6.86698">
        <ele>1385</ele>
        <time>2022-08-26T16:05:55Z</time>
      </trkpt>
      <trkpt lat="45.92058" lon="6.86697">
        <ele>1385</ele>
        <time>2022-08-26T16:05:56Z</time>
      </trkpt>
      <trkpt lat="45.92056" lon="6.86695">
        <ele>1385</ele>
        <time>2022-08-26T16:05:57Z</time>
      </trkpt>
      <trkpt lat="45.92055" lon="6.86693">
        <ele>1385</ele>
        <time>2022-08-26T16:05:58Z</time>
      </trkpt>
      <trkpt lat="45.92053" lon="6.86692">
        <ele>1385</ele>
        <time>2022-08-26T16:05:59Z</time>
      </trkpt>
      <trkpt lat="45.92051" lon="6.8669">
        <ele>1385</ele>
        <time>2022-08-26T16:06:00Z</time>
      </trkpt>
      <trkpt lat="45.92049" lon="6.86688">
        <ele>1385</ele>
        <time>2022-08-26T16:06:01Z</time>
      </trkpt>
      <trkpt lat="45.92048" lon="6.86687">
        <ele>1385</ele>
        <time>2022-08-26T16:06:02Z</time>
      </trkpt>
      <trkpt lat="45.92046" lon="6.86685">
        <ele>1385</ele>
        <time>2022-08-26T16:06:03Z</time>
      </trkpt>
      <trkpt lat="45.92045" lon="6.86683">
        <ele>1384</ele>
        <time>2022-08-26T16:06:04Z</time>
      </trkpt>
      <trkpt lat="45.92042" lon="6.8668">
        <ele>1384</ele>
        <time>2022-08-26T16:06:05Z</time>
      </trkpt>
      <trkpt lat="45.92041" lon="6.86679">
        <ele>1384</ele>
        <time>2022-08-26T16:06:06Z</time>
      </trkpt>
      <trkpt lat="45.92038" lon="6.86675">
        <ele>1384</ele>
        <time>2022-08-26T16:06:07Z</time>
      </trkpt>
      <trkpt lat="45.92038" lon="6.86674">
        <ele>1384</ele>
        <time>2022-08-26T16:06:08Z</time>
      </trkpt>
      <trkpt lat="45.92036" lon="6.86672">
        <ele>1384</ele>
        <time>2022-08-26T16:06:09Z</time>
      </trkpt>
      <trkpt lat="45.92034" lon="6.8667">
        <ele>1384</ele>
        <time>2022-08-26T16:06:10Z</time>
      </trkpt>
      <trkpt lat="45.92033" lon="6.86668">
        <ele>1385</ele>
        <time>2022-08-26T16:06:11Z</time>
      </trkpt>
      <trkpt lat="45.92031" lon="6.86666">
        <ele>1385</ele>
        <time>2022-08-26T16:06:12Z</time>
      </trkpt>
      <trkpt lat="45.92029" lon="6.86665">
        <ele>1385</ele>
        <time>2022-08-26T16:06:13Z</time>
      </trkpt>
      <trkpt lat="45.92027" lon="6.86663">
        <ele>1385</ele>
        <time>2022-08-26T16:06:14Z</time>
      </trkpt>
      <trkpt lat="45.92026" lon="6.86662">
        <ele>1385</ele>
        <time>2022-08-26T16:06:15Z</time>
      </trkpt>
      <trkpt lat="45.92024" lon="6.8666">
        <ele>1385</ele>
        <time>2022-08-26T16:06:16Z</time>
      </trkpt>
      <trkpt lat="45.92022" lon="6.86658">
        <ele>1385</ele>
        <time>2022-08-26T16:06:17Z</time>
      </trkpt>
      <trkpt lat="45.9202" lon="6.86656">
        <ele>1385</ele>
        <time>2022-08-26T16:06:18Z</time>
      </trkpt>
      <trkpt lat="45.92018" lon="6.86654">
        <ele>1385</ele>
        <time>2022-08-26T16:06:19Z</time>
      </trkpt>
      <trkpt lat="45.92017" lon="6.86653">
        <ele>1385</ele>
        <time>2022-08-26T16:06:20Z</time>
      </trkpt>
      <trkpt lat="45.92015" lon="6.86651">
        <ele>1385</ele>
        <time>2022-08-26T16:06:21Z</time>
      </trkpt>
      <trkpt lat="45.92013" lon="6.86649">
        <ele>1384</ele>
        <time>2022-08-26T16:06:22Z</time>
      </trkpt>
      <trkpt lat="45.92012" lon="6.86647">
        <ele>1384</ele>
        <time>2022-08-26T16:06:23Z</time>
      </trkpt>
      <trkpt lat="45.9201" lon="6.86644">
        <ele>1384</ele>
        <time>2022-08-26T16:06:24Z</time>
      </trkpt>
      <trkpt lat="45.92009" lon="6.86643">
        <ele>1384</ele>
        <time>2022-08-26T16:06:25Z</time>
      </trkpt>
      <trkpt lat="45.92006" lon="6.8664">
        <ele>1384</ele>
        <time>2022-08-26T16:06:26Z</time>
      </trkpt>
      <trkpt lat="45.92005" lon="6.86639">
        <ele>1385</ele>
        <time>2022-08-26T16:06:27Z</time>
      </trkpt>
      <trkpt lat="45.92004" lon="6.86637">
        <ele>1385</ele>
        <time>2022-08-26T16:06:28Z</time>
      </trkpt>
      <trkpt lat="45.92002" lon="6.86634">
        <ele>1385</ele>
        <time>2022-08-26T16:06:29Z</time>
      </trkpt>
      <trkpt lat="45.92" lon="6.86632">
        <ele>1385</ele>
        <time>2022-08-26T16:06:30Z</time>
      </trkpt>
      <trkpt lat="45.91998" lon="6.8663">
        <ele>1385</ele>
        <time>2022-08-26T16:06:31Z</time>
      </trkpt>
      <trkpt lat="45.91997" lon="6.86629">
        <ele>1384</ele>
        <time>2022-08-26T16:06:32Z</time>
      </trkpt>
      <trkpt lat="45.91995" lon="6.86628">
        <ele>1384</ele>
        <time>2022-08-26T16:06:33Z</time>
      </trkpt>
      <trkpt lat="45.91992" lon="6.86625">
        <ele>1384</ele>
        <time>2022-08-26T16:06:34Z</time>
      </trkpt>
      <trkpt lat="45.91991" lon="6.86625">
        <ele>1384</ele>
        <time>2022-08-26T16:06:35Z</time>
      </trkpt>
      <trkpt lat="45.91988" lon="6.86622">
        <ele>1384</ele>
        <time>2022-08-26T16:06:36Z</time>
      </trkpt>
      <trkpt lat="45.91987" lon="6.86622">
        <ele>1384</ele>
        <time>2022-08-26T16:06:37Z</time>
      </trkpt>
      <trkpt lat="45.91985" lon="6.8662">
        <ele>1384</ele>
        <time>2022-08-26T16:06:38Z</time>
      </trkpt>
      <trkpt lat="45.91983" lon="6.86618">
        <ele>1384</ele>
        <time>2022-08-26T16:06:39Z</time>
      </trkpt>
      <trkpt lat="45.91981" lon="6.86616">
        <ele>1384</ele>
        <time>2022-08-26T16:06:40Z</time>
      </trkpt>
      <trkpt lat="45.91979" lon="6.86614">
        <ele>1384</ele>
        <time>2022-08-26T16:06:41Z</time>
      </trkpt>
      <trkpt lat="45.91978" lon="6.86613">
        <ele>1384</ele>
        <time>2022-08-26T16:06:42Z</time>
      </trkpt>
      <trkpt lat="45.91975" lon="6.86611">
        <ele>1384</ele>
        <time>2022-08-26T16:06:43Z</time>
      </trkpt>
      <trkpt lat="45.91974" lon="6.8661">
        <ele>1384</ele>
        <time>2022-08-26T16:06:44Z</time>
      </trkpt>
      <trkpt lat="45.91972" lon="6.86608">
        <ele>1384</ele>
        <time>2022-08-26T16:06:45Z</time>
      </trkpt>
      <trkpt lat="45.9197" lon="6.86606">
        <ele>1384</ele>
        <time>2022-08-26T16:06:46Z</time>
      </trkpt>
      <trkpt lat="45.91968" lon="6.86603">
        <ele>1384</ele>
        <time>2022-08-26T16:06:47Z</time>
      </trkpt>
      <trkpt lat="45.91967" lon="6.86602">
        <ele>1384</ele>
        <time>2022-08-26T16:06:48Z</time>
      </trkpt>
      <trkpt lat="45.91964" lon="6.86599">
        <ele>1384</ele>
        <time>2022-08-26T16:06:49Z</time>
      </trkpt>
      <trkpt lat="45.91963" lon="6.86598">
        <ele>1384</ele>
        <time>2022-08-26T16:06:50Z</time>
      </trkpt>
      <trkpt lat="45.91961" lon="6.86597">
        <ele>1384</ele>
        <time>2022-08-26T16:06:51Z</time>
      </trkpt>
      <trkpt lat="45.91959" lon="6.86595">
        <ele>1384</ele>
        <time>2022-08-26T16:06:52Z</time>
      </trkpt>
      <trkpt lat="45.91957" lon="6.86593">
        <ele>1384</ele>
        <time>2022-08-26T16:06:53Z</time>
      </trkpt>
      <trkpt lat="45.91955" lon="6.86592">
        <ele>1384</ele>
        <time>2022-08-26T16:06:54Z</time>
      </trkpt>
      <trkpt lat="45.91954" lon="6.86589">
        <ele>1384</ele>
        <time>2022-08-26T16:06:55Z</time>
      </trkpt>
      <trkpt lat="45.91951" lon="6.86586">
        <ele>1384</ele>
        <time>2022-08-26T16:06:56Z</time>
      </trkpt>
      <trkpt lat="45.9195" lon="6.86585">
        <ele>1384</ele>
        <time>2022-08-26T16:06:57Z</time>
      </trkpt>
      <trkpt lat="45.91949" lon="6.86583">
        <ele>1384</ele>
        <time>2022-08-26T16:06:58Z</time>
      </trkpt>
      <trkpt lat="45.91947" lon="6.8658">
        <ele>1384</ele>
        <time>2022-08-26T16:06:59Z</time>
      </trkpt>
      <trkpt lat="45.91946" lon="6.86578">
        <ele>1384</ele>
        <time>2022-08-26T16:07:00Z</time>
      </trkpt>
      <trkpt lat="45.91944" lon="6.86576">
        <ele>1384</ele>
        <time>2022-08-26T16:07:01Z</time>
      </trkpt>
      <trkpt lat="45.91942" lon="6.86574">
        <ele>1384</ele>
        <time>2022-08-26T16:07:02Z</time>
      </trkpt>
      <trkpt lat="45.91941" lon="6.86572">
        <ele>1384</ele>
        <time>2022-08-26T16:07:03Z</time>
      </trkpt>
      <trkpt lat="45.91939" lon="6.8657">
        <ele>1384</ele>
        <time>2022-08-26T16:07:04Z</time>
      </trkpt>
      <trkpt lat="45.91937" lon="6.86568">
        <ele>1384</ele>
        <time>2022-08-26T16:07:05Z</time>
      </trkpt>
      <trkpt lat="45.91936" lon="6.86566">
        <ele>1384</ele>
        <time>2022-08-26T16:07:06Z</time>
      </trkpt>
      <trkpt lat="45.91934" lon="6.86564">
        <ele>1384</ele>
        <time>2022-08-26T16:07:07Z</time>
      </trkpt>
      <trkpt lat="45.91933" lon="6.86562">
        <ele>1383</ele>
        <time>2022-08-26T16:07:08Z</time>
      </trkpt>
      <trkpt lat="45.91931" lon="6.8656">
        <ele>1383</ele>
        <time>2022-08-26T16:07:09Z</time>
      </trkpt>
      <trkpt lat="45.91929" lon="6.86558">
        <ele>1384</ele>
        <time>2022-08-26T16:07:10Z</time>
      </trkpt>
      <trkpt lat="45.91925" lon="6.86555">
        <ele>1384</ele>
        <time>2022-08-26T16:07:11Z</time>
      </trkpt>
      <trkpt lat="45.91924" lon="6.86554">
        <ele>1384</ele>
        <time>2022-08-26T16:07:12Z</time>
      </trkpt>
      <trkpt lat="45.91921" lon="6.86552">
        <ele>1384</ele>
        <time>2022-08-26T16:07:13Z</time>
      </trkpt>
      <trkpt lat="45.91918" lon="6.86547">
        <ele>1384</ele>
        <time>2022-08-26T16:07:14Z</time>
      </trkpt>
      <trkpt lat="45.91918" lon="6.86546">
        <ele>1384</ele>
        <time>2022-08-26T16:07:15Z</time>
      </trkpt>
      <trkpt lat="45.91917" lon="6.86542">
        <ele>1384</ele>
        <time>2022-08-26T16:07:16Z</time>
      </trkpt>
      <trkpt lat="45.91917" lon="6.86538">
        <ele>1384</ele>
        <time>2022-08-26T16:07:17Z</time>
      </trkpt>
      <trkpt lat="45.91916" lon="6.86535">
        <ele>1384</ele>
        <time>2022-08-26T16:07:18Z</time>
      </trkpt>
      <trkpt lat="45.91914" lon="6.8653">
        <ele>1384</ele>
        <time>2022-08-26T16:07:19Z</time>
      </trkpt>
      <trkpt lat="45.91914" lon="6.86528">
        <ele>1384</ele>
        <time>2022-08-26T16:07:20Z</time>
      </trkpt>
      <trkpt lat="45.91912" lon="6.86524">
        <ele>1384</ele>
        <time>2022-08-26T16:07:21Z</time>
      </trkpt>
      <trkpt lat="45.91911" lon="6.86523">
        <ele>1384</ele>
        <time>2022-08-26T16:07:22Z</time>
      </trkpt>
      <trkpt lat="45.91908" lon="6.86519">
        <ele>1384</ele>
        <time>2022-08-26T16:07:23Z</time>
      </trkpt>
      <trkpt lat="45.91907" lon="6.86517">
        <ele>1383</ele>
        <time>2022-08-26T16:07:24Z</time>
      </trkpt>
      <trkpt lat="45.91904" lon="6.86513">
        <ele>1383</ele>
        <time>2022-08-26T16:07:25Z</time>
      </trkpt>
      <trkpt lat="45.91902" lon="6.86512">
        <ele>1383</ele>
        <time>2022-08-26T16:07:26Z</time>
      </trkpt>
      <trkpt lat="45.919" lon="6.8651">
        <ele>1383</ele>
        <time>2022-08-26T16:07:27Z</time>
      </trkpt>
      <trkpt lat="45.91898" lon="6.86508">
        <ele>1383</ele>
        <time>2022-08-26T16:07:28Z</time>
      </trkpt>
      <trkpt lat="45.91895" lon="6.86503">
        <ele>1383</ele>
        <time>2022-08-26T16:07:29Z</time>
      </trkpt>
      <trkpt lat="45.91894" lon="6.86501">
        <ele>1383</ele>
        <time>2022-08-26T16:07:30Z</time>
      </trkpt>
      <trkpt lat="45.91892" lon="6.86498">
        <ele>1383</ele>
        <time>2022-08-26T16:07:31Z</time>
      </trkpt>
      <trkpt lat="45.9189" lon="6.86495">
        <ele>1383</ele>
        <time>2022-08-26T16:07:32Z</time>
      </trkpt>
      <trkpt lat="45.91888" lon="6.86492">
        <ele>1383</ele>
        <time>2022-08-26T16:07:33Z</time>
      </trkpt>
      <trkpt lat="45.91885" lon="6.86488">
        <ele>1383</ele>
        <time>2022-08-26T16:07:34Z</time>
      </trkpt>
      <trkpt lat="45.91884" lon="6.86487">
        <ele>1383</ele>
        <time>2022-08-26T16:07:35Z</time>
      </trkpt>
      <trkpt lat="45.91882" lon="6.86485">
        <ele>1383</ele>
        <time>2022-08-26T16:07:36Z</time>
      </trkpt>
      <trkpt lat="45.91879" lon="6.86482">
        <ele>1383</ele>
        <time>2022-08-26T16:07:37Z</time>
      </trkpt>
      <trkpt lat="45.91877" lon="6.8648">
        <ele>1383</ele>
        <time>2022-08-26T16:07:38Z</time>
      </trkpt>
      <trkpt lat="45.91874" lon="6.86477">
        <ele>1383</ele>
        <time>2022-08-26T16:07:39Z</time>
      </trkpt>
      <trkpt lat="45.91871" lon="6.86473">
        <ele>1383</ele>
        <time>2022-08-26T16:07:40Z</time>
      </trkpt>
      <trkpt lat="45.91869" lon="6.86472">
        <ele>1383</ele>
        <time>2022-08-26T16:07:41Z</time>
      </trkpt>
      <trkpt lat="45.91867" lon="6.8647">
        <ele>1383</ele>
        <time>2022-08-26T16:07:42Z</time>
      </trkpt>
      <trkpt lat="45.91865" lon="6.86467">
        <ele>1383</ele>
        <time>2022-08-26T16:07:43Z</time>
      </trkpt>
      <trkpt lat="45.91861" lon="6.86463">
        <ele>1383</ele>
        <time>2022-08-26T16:07:44Z</time>
      </trkpt>
      <trkpt lat="45.9186" lon="6.86462">
        <ele>1383</ele>
        <time>2022-08-26T16:07:45Z</time>
      </trkpt>
      <trkpt lat="45.91857" lon="6.86459">
        <ele>1383</ele>
        <time>2022-08-26T16:07:46Z</time>
      </trkpt>
      <trkpt lat="45.91856" lon="6.86457">
        <ele>1383</ele>
        <time>2022-08-26T16:07:47Z</time>
      </trkpt>
      <trkpt lat="45.91854" lon="6.86455">
        <ele>1382</ele>
        <time>2022-08-26T16:07:48Z</time>
      </trkpt>
      <trkpt lat="45.91852" lon="6.86453">
        <ele>1382</ele>
        <time>2022-08-26T16:07:49Z</time>
      </trkpt>
      <trkpt lat="45.9185" lon="6.8645">
        <ele>1382</ele>
        <time>2022-08-26T16:07:50Z</time>
      </trkpt>
      <trkpt lat="45.91848" lon="6.86447">
        <ele>1382</ele>
        <time>2022-08-26T16:07:51Z</time>
      </trkpt>
      <trkpt lat="45.91846" lon="6.86445">
        <ele>1382</ele>
        <time>2022-08-26T16:07:52Z</time>
      </trkpt>
      <trkpt lat="45.91844" lon="6.8644">
        <ele>1382</ele>
        <time>2022-08-26T16:07:53Z</time>
      </trkpt>
      <trkpt lat="45.91843" lon="6.86439">
        <ele>1382</ele>
        <time>2022-08-26T16:07:54Z</time>
      </trkpt>
      <trkpt lat="45.91842" lon="6.86436">
        <ele>1382</ele>
        <time>2022-08-26T16:07:55Z</time>
      </trkpt>
      <trkpt lat="45.9184" lon="6.86433">
        <ele>1382</ele>
        <time>2022-08-26T16:07:56Z</time>
      </trkpt>
      <trkpt lat="45.91838" lon="6.8643">
        <ele>1382</ele>
        <time>2022-08-26T16:07:57Z</time>
      </trkpt>
      <trkpt lat="45.91836" lon="6.86427">
        <ele>1382</ele>
        <time>2022-08-26T16:07:58Z</time>
      </trkpt>
      <trkpt lat="45.91835" lon="6.86424">
        <ele>1382</ele>
        <time>2022-08-26T16:07:59Z</time>
      </trkpt>
      <trkpt lat="45.91833" lon="6.86421">
        <ele>1382</ele>
        <time>2022-08-26T16:08:00Z</time>
      </trkpt>
      <trkpt lat="45.9183" lon="6.86417">
        <ele>1382</ele>
        <time>2022-08-26T16:08:01Z</time>
      </trkpt>
      <trkpt lat="45.91829" lon="6.86415">
        <ele>1381</ele>
        <time>2022-08-26T16:08:02Z</time>
      </trkpt>
      <trkpt lat="45.91827" lon="6.86412">
        <ele>1381</ele>
        <time>2022-08-26T16:08:03Z</time>
      </trkpt>
      <trkpt lat="45.91825" lon="6.86409">
        <ele>1381</ele>
        <time>2022-08-26T16:08:04Z</time>
      </trkpt>
      <trkpt lat="45.91822" lon="6.86404">
        <ele>1381</ele>
        <time>2022-08-26T16:08:05Z</time>
      </trkpt>
      <trkpt lat="45.91822" lon="6.86402">
        <ele>1382</ele>
        <time>2022-08-26T16:08:06Z</time>
      </trkpt>
      <trkpt lat="45.9182" lon="6.86399">
        <ele>1382</ele>
        <time>2022-08-26T16:08:07Z</time>
      </trkpt>
      <trkpt lat="45.91818" lon="6.86395">
        <ele>1382</ele>
        <time>2022-08-26T16:08:08Z</time>
      </trkpt>
      <trkpt lat="45.91817" lon="6.86392">
        <ele>1382</ele>
        <time>2022-08-26T16:08:09Z</time>
      </trkpt>
      <trkpt lat="45.91816" lon="6.86389">
        <ele>1382</ele>
        <time>2022-08-26T16:08:10Z</time>
      </trkpt>
      <trkpt lat="45.91814" lon="6.86386">
        <ele>1381</ele>
        <time>2022-08-26T16:08:11Z</time>
      </trkpt>
      <trkpt lat="45.91814" lon="6.86383">
        <ele>1381</ele>
        <time>2022-08-26T16:08:12Z</time>
      </trkpt>
      <trkpt lat="45.91813" lon="6.86379">
        <ele>1381</ele>
        <time>2022-08-26T16:08:13Z</time>
      </trkpt>
      <trkpt lat="45.91811" lon="6.86376">
        <ele>1381</ele>
        <time>2022-08-26T16:08:14Z</time>
      </trkpt>
      <trkpt lat="45.91809" lon="6.86371">
        <ele>1381</ele>
        <time>2022-08-26T16:08:15Z</time>
      </trkpt>
      <trkpt lat="45.91808" lon="6.86369">
        <ele>1381</ele>
        <time>2022-08-26T16:08:16Z</time>
      </trkpt>
      <trkpt lat="45.91807" lon="6.86365">
        <ele>1381</ele>
        <time>2022-08-26T16:08:17Z</time>
      </trkpt>
      <trkpt lat="45.91805" lon="6.86359">
        <ele>1381</ele>
        <time>2022-08-26T16:08:18Z</time>
      </trkpt>
      <trkpt lat="45.91804" lon="6.86358">
        <ele>1381</ele>
        <time>2022-08-26T16:08:19Z</time>
      </trkpt>
      <trkpt lat="45.91802" lon="6.86354">
        <ele>1381</ele>
        <time>2022-08-26T16:08:20Z</time>
      </trkpt>
      <trkpt lat="45.918" lon="6.8635">
        <ele>1381</ele>
        <time>2022-08-26T16:08:21Z</time>
      </trkpt>
      <trkpt lat="45.91798" lon="6.86344">
        <ele>1381</ele>
        <time>2022-08-26T16:08:22Z</time>
      </trkpt>
      <trkpt lat="45.91797" lon="6.86342">
        <ele>1381</ele>
        <time>2022-08-26T16:08:23Z</time>
      </trkpt>
      <trkpt lat="45.91796" lon="6.86338">
        <ele>1381</ele>
        <time>2022-08-26T16:08:24Z</time>
      </trkpt>
      <trkpt lat="45.91794" lon="6.86333">
        <ele>1381</ele>
        <time>2022-08-26T16:08:25Z</time>
      </trkpt>
      <trkpt lat="45.91794" lon="6.86331">
        <ele>1381</ele>
        <time>2022-08-26T16:08:26Z</time>
      </trkpt>
      <trkpt lat="45.91792" lon="6.86327">
        <ele>1381</ele>
        <time>2022-08-26T16:08:27Z</time>
      </trkpt>
      <trkpt lat="45.91791" lon="6.86323">
        <ele>1381</ele>
        <time>2022-08-26T16:08:28Z</time>
      </trkpt>
      <trkpt lat="45.9179" lon="6.86319">
        <ele>1381</ele>
        <time>2022-08-26T16:08:29Z</time>
      </trkpt>
      <trkpt lat="45.91788" lon="6.86314">
        <ele>1381</ele>
        <time>2022-08-26T16:08:30Z</time>
      </trkpt>
      <trkpt lat="45.91788" lon="6.86312">
        <ele>1381</ele>
        <time>2022-08-26T16:08:31Z</time>
      </trkpt>
      <trkpt lat="45.91786" lon="6.86308">
        <ele>1381</ele>
        <time>2022-08-26T16:08:32Z</time>
      </trkpt>
      <trkpt lat="45.91786" lon="6.86304">
        <ele>1381</ele>
        <time>2022-08-26T16:08:33Z</time>
      </trkpt>
      <trkpt lat="45.91785" lon="6.86301">
        <ele>1381</ele>
        <time>2022-08-26T16:08:34Z</time>
      </trkpt>
      <trkpt lat="45.91783" lon="6.86295">
        <ele>1381</ele>
        <time>2022-08-26T16:08:35Z</time>
      </trkpt>
      <trkpt lat="45.91782" lon="6.86294">
        <ele>1381</ele>
        <time>2022-08-26T16:08:36Z</time>
      </trkpt>
      <trkpt lat="45.91781" lon="6.86288">
        <ele>1381</ele>
        <time>2022-08-26T16:08:37Z</time>
      </trkpt>
      <trkpt lat="45.9178" lon="6.86287">
        <ele>1381</ele>
        <time>2022-08-26T16:08:38Z</time>
      </trkpt>
      <trkpt lat="45.91779" lon="6.86283">
        <ele>1380</ele>
        <time>2022-08-26T16:08:39Z</time>
      </trkpt>
      <trkpt lat="45.91777" lon="6.86278">
        <ele>1380</ele>
        <time>2022-08-26T16:08:40Z</time>
      </trkpt>
      <trkpt lat="45.91776" lon="6.86276">
        <ele>1380</ele>
        <time>2022-08-26T16:08:41Z</time>
      </trkpt>
      <trkpt lat="45.91775" lon="6.86272">
        <ele>1381</ele>
        <time>2022-08-26T16:08:42Z</time>
      </trkpt>
      <trkpt lat="45.91773" lon="6.86269">
        <ele>1381</ele>
        <time>2022-08-26T16:08:43Z</time>
      </trkpt>
      <trkpt lat="45.91772" lon="6.86265">
        <ele>1381</ele>
        <time>2022-08-26T16:08:44Z</time>
      </trkpt>
      <trkpt lat="45.9177" lon="6.86259">
        <ele>1381</ele>
        <time>2022-08-26T16:08:45Z</time>
      </trkpt>
      <trkpt lat="45.91769" lon="6.86257">
        <ele>1381</ele>
        <time>2022-08-26T16:08:46Z</time>
      </trkpt>
      <trkpt lat="45.91767" lon="6.86252">
        <ele>1381</ele>
        <time>2022-08-26T16:08:47Z</time>
      </trkpt>
      <trkpt lat="45.91766" lon="6.8625">
        <ele>1381</ele>
        <time>2022-08-26T16:08:48Z</time>
      </trkpt>
      <trkpt lat="45.91764" lon="6.86247">
        <ele>1381</ele>
        <time>2022-08-26T16:08:49Z</time>
      </trkpt>
      <trkpt lat="45.91763" lon="6.86243">
        <ele>1381</ele>
        <time>2022-08-26T16:08:50Z</time>
      </trkpt>
      <trkpt lat="45.91762" lon="6.86239">
        <ele>1381</ele>
        <time>2022-08-26T16:08:51Z</time>
      </trkpt>
      <trkpt lat="45.9176" lon="6.86234">
        <ele>1381</ele>
        <time>2022-08-26T16:08:52Z</time>
      </trkpt>
      <trkpt lat="45.91759" lon="6.86232">
        <ele>1380</ele>
        <time>2022-08-26T16:08:53Z</time>
      </trkpt>
      <trkpt lat="45.91758" lon="6.86229">
        <ele>1380</ele>
        <time>2022-08-26T16:08:54Z</time>
      </trkpt>
      <trkpt lat="45.91757" lon="6.86225">
        <ele>1380</ele>
        <time>2022-08-26T16:08:55Z</time>
      </trkpt>
      <trkpt lat="45.91756" lon="6.86221">
        <ele>1380</ele>
        <time>2022-08-26T16:08:56Z</time>
      </trkpt>
      <trkpt lat="45.91754" lon="6.86217">
        <ele>1380</ele>
        <time>2022-08-26T16:08:57Z</time>
      </trkpt>
      <trkpt lat="45.91753" lon="6.86213">
        <ele>1380</ele>
        <time>2022-08-26T16:08:58Z</time>
      </trkpt>
      <trkpt lat="45.91752" lon="6.86209">
        <ele>1380</ele>
        <time>2022-08-26T16:08:59Z</time>
      </trkpt>
      <trkpt lat="45.91751" lon="6.86205">
        <ele>1380</ele>
        <time>2022-08-26T16:09:00Z</time>
      </trkpt>
      <trkpt lat="45.9175" lon="6.86202">
        <ele>1380</ele>
        <time>2022-08-26T16:09:01Z</time>
      </trkpt>
      <trkpt lat="45.91749" lon="6.86197">
        <ele>1380</ele>
        <time>2022-08-26T16:09:02Z</time>
      </trkpt>
      <trkpt lat="45.91748" lon="6.86193">
        <ele>1380</ele>
        <time>2022-08-26T16:09:03Z</time>
      </trkpt>
      <trkpt lat="45.91747" lon="6.86189">
        <ele>1380</ele>
        <time>2022-08-26T16:09:04Z</time>
      </trkpt>
      <trkpt lat="45.91746" lon="6.86185">
        <ele>1380</ele>
        <time>2022-08-26T16:09:05Z</time>
      </trkpt>
      <trkpt lat="45.91744" lon="6.8618">
        <ele>1380</ele>
        <time>2022-08-26T16:09:06Z</time>
      </trkpt>
      <trkpt lat="45.91743" lon="6.86178">
        <ele>1380</ele>
        <time>2022-08-26T16:09:07Z</time>
      </trkpt>
      <trkpt lat="45.91742" lon="6.86174">
        <ele>1380</ele>
        <time>2022-08-26T16:09:08Z</time>
      </trkpt>
      <trkpt lat="45.9174" lon="6.8617">
        <ele>1380</ele>
        <time>2022-08-26T16:09:09Z</time>
      </trkpt>
      <trkpt lat="45.91739" lon="6.86166">
        <ele>1380</ele>
        <time>2022-08-26T16:09:10Z</time>
      </trkpt>
      <trkpt lat="45.91737" lon="6.8616">
        <ele>1380</ele>
        <time>2022-08-26T16:09:11Z</time>
      </trkpt>
      <trkpt lat="45.91736" lon="6.86158">
        <ele>1380</ele>
        <time>2022-08-26T16:09:12Z</time>
      </trkpt>
      <trkpt lat="45.91735" lon="6.86154">
        <ele>1380</ele>
        <time>2022-08-26T16:09:13Z</time>
      </trkpt>
      <trkpt lat="45.91734" lon="6.86149">
        <ele>1380</ele>
        <time>2022-08-26T16:09:14Z</time>
      </trkpt>
      <trkpt lat="45.91732" lon="6.86146">
        <ele>1380</ele>
        <time>2022-08-26T16:09:15Z</time>
      </trkpt>
      <trkpt lat="45.91731" lon="6.86141">
        <ele>1380</ele>
        <time>2022-08-26T16:09:16Z</time>
      </trkpt>
      <trkpt lat="45.91729" lon="6.86135">
        <ele>1380</ele>
        <time>2022-08-26T16:09:17Z</time>
      </trkpt>
      <trkpt lat="45.91729" lon="6.86133">
        <ele>1380</ele>
        <time>2022-08-26T16:09:18Z</time>
      </trkpt>
      <trkpt lat="45.91727" lon="6.86128">
        <ele>1379</ele>
        <time>2022-08-26T16:09:19Z</time>
      </trkpt>
      <trkpt lat="45.91726" lon="6.86124">
        <ele>1380</ele>
        <time>2022-08-26T16:09:20Z</time>
      </trkpt>
      <trkpt lat="45.91725" lon="6.8612">
        <ele>1380</ele>
        <time>2022-08-26T16:09:21Z</time>
      </trkpt>
      <trkpt lat="45.91724" lon="6.86117">
        <ele>1380</ele>
        <time>2022-08-26T16:09:22Z</time>
      </trkpt>
      <trkpt lat="45.91723" lon="6.86113">
        <ele>1379</ele>
        <time>2022-08-26T16:09:23Z</time>
      </trkpt>
      <trkpt lat="45.91721" lon="6.86109">
        <ele>1379</ele>
        <time>2022-08-26T16:09:24Z</time>
      </trkpt>
      <trkpt lat="45.9172" lon="6.86104">
        <ele>1379</ele>
        <time>2022-08-26T16:09:25Z</time>
      </trkpt>
      <trkpt lat="45.91719" lon="6.86101">
        <ele>1379</ele>
        <time>2022-08-26T16:09:26Z</time>
      </trkpt>
      <trkpt lat="45.91718" lon="6.86097">
        <ele>1379</ele>
        <time>2022-08-26T16:09:27Z</time>
      </trkpt>
      <trkpt lat="45.91717" lon="6.86093">
        <ele>1379</ele>
        <time>2022-08-26T16:09:28Z</time>
      </trkpt>
      <trkpt lat="45.91716" lon="6.86089">
        <ele>1379</ele>
        <time>2022-08-26T16:09:29Z</time>
      </trkpt>
      <trkpt lat="45.91714" lon="6.86083">
        <ele>1379</ele>
        <time>2022-08-26T16:09:30Z</time>
      </trkpt>
      <trkpt lat="45.91714" lon="6.86081">
        <ele>1379</ele>
        <time>2022-08-26T16:09:31Z</time>
      </trkpt>
      <trkpt lat="45.91712" lon="6.86077">
        <ele>1379</ele>
        <time>2022-08-26T16:09:32Z</time>
      </trkpt>
      <trkpt lat="45.91711" lon="6.86073">
        <ele>1379</ele>
        <time>2022-08-26T16:09:33Z</time>
      </trkpt>
      <trkpt lat="45.9171" lon="6.86066">
        <ele>1379</ele>
        <time>2022-08-26T16:09:34Z</time>
      </trkpt>
      <trkpt lat="45.91709" lon="6.86064">
        <ele>1380</ele>
        <time>2022-08-26T16:09:35Z</time>
      </trkpt>
      <trkpt lat="45.91708" lon="6.86058">
        <ele>1380</ele>
        <time>2022-08-26T16:09:36Z</time>
      </trkpt>
      <trkpt lat="45.91707" lon="6.86056">
        <ele>1378</ele>
        <time>2022-08-26T16:09:37Z</time>
      </trkpt>
      <trkpt lat="45.91705" lon="6.86048">
        <ele>1378</ele>
        <time>2022-08-26T16:09:38Z</time>
      </trkpt>
      <trkpt lat="45.91704" lon="6.86044">
        <ele>1378</ele>
        <time>2022-08-26T16:09:40Z</time>
      </trkpt>
      <trkpt lat="45.91703" lon="6.86041">
        <ele>1378</ele>
        <time>2022-08-26T16:09:41Z</time>
      </trkpt>
      <trkpt lat="45.91702" lon="6.86037">
        <ele>1378</ele>
        <time>2022-08-26T16:09:42Z</time>
      </trkpt>
      <trkpt lat="45.917" lon="6.8603">
        <ele>1378</ele>
        <time>2022-08-26T16:09:43Z</time>
      </trkpt>
      <trkpt lat="45.917" lon="6.86028">
        <ele>1378</ele>
        <time>2022-08-26T16:09:44Z</time>
      </trkpt>
      <trkpt lat="45.91699" lon="6.86024">
        <ele>1378</ele>
        <time>2022-08-26T16:09:45Z</time>
      </trkpt>
      <trkpt lat="45.91698" lon="6.8602">
        <ele>1378</ele>
        <time>2022-08-26T16:09:46Z</time>
      </trkpt>
      <trkpt lat="45.91697" lon="6.86013">
        <ele>1378</ele>
        <time>2022-08-26T16:09:47Z</time>
      </trkpt>
      <trkpt lat="45.91696" lon="6.86011">
        <ele>1378</ele>
        <time>2022-08-26T16:09:48Z</time>
      </trkpt>
      <trkpt lat="45.91695" lon="6.86006">
        <ele>1378</ele>
        <time>2022-08-26T16:09:49Z</time>
      </trkpt>
      <trkpt lat="45.91694" lon="6.86002">
        <ele>1378</ele>
        <time>2022-08-26T16:09:50Z</time>
      </trkpt>
      <trkpt lat="45.91693" lon="6.85998">
        <ele>1378</ele>
        <time>2022-08-26T16:09:51Z</time>
      </trkpt>
      <trkpt lat="45.91692" lon="6.85994">
        <ele>1378</ele>
        <time>2022-08-26T16:09:52Z</time>
      </trkpt>
      <trkpt lat="45.91691" lon="6.85988">
        <ele>1378</ele>
        <time>2022-08-26T16:09:53Z</time>
      </trkpt>
      <trkpt lat="45.91691" lon="6.85986">
        <ele>1378</ele>
        <time>2022-08-26T16:09:54Z</time>
      </trkpt>
      <trkpt lat="45.91689" lon="6.8598">
        <ele>1378</ele>
        <time>2022-08-26T16:09:55Z</time>
      </trkpt>
      <trkpt lat="45.91688" lon="6.85978">
        <ele>1378</ele>
        <time>2022-08-26T16:09:56Z</time>
      </trkpt>
      <trkpt lat="45.91687" lon="6.85971">
        <ele>1378</ele>
        <time>2022-08-26T16:09:57Z</time>
      </trkpt>
      <trkpt lat="45.91686" lon="6.85969">
        <ele>1378</ele>
        <time>2022-08-26T16:09:58Z</time>
      </trkpt>
      <trkpt lat="45.91685" lon="6.85965">
        <ele>1378</ele>
        <time>2022-08-26T16:09:59Z</time>
      </trkpt>
      <trkpt lat="45.91685" lon="6.85961">
        <ele>1377</ele>
        <time>2022-08-26T16:10:00Z</time>
      </trkpt>
      <trkpt lat="45.91684" lon="6.85957">
        <ele>1377</ele>
        <time>2022-08-26T16:10:01Z</time>
      </trkpt>
      <trkpt lat="45.91683" lon="6.85953">
        <ele>1377</ele>
        <time>2022-08-26T16:10:02Z</time>
      </trkpt>
      <trkpt lat="45.91682" lon="6.8595">
        <ele>1378</ele>
        <time>2022-08-26T16:10:03Z</time>
      </trkpt>
      <trkpt lat="45.91681" lon="6.85946">
        <ele>1378</ele>
        <time>2022-08-26T16:10:04Z</time>
      </trkpt>
      <trkpt lat="45.9168" lon="6.85942">
        <ele>1378</ele>
        <time>2022-08-26T16:10:05Z</time>
      </trkpt>
      <trkpt lat="45.91679" lon="6.85938">
        <ele>1378</ele>
        <time>2022-08-26T16:10:06Z</time>
      </trkpt>
      <trkpt lat="45.91679" lon="6.85934">
        <ele>1378</ele>
        <time>2022-08-26T16:10:07Z</time>
      </trkpt>
      <trkpt lat="45.91678" lon="6.8593">
        <ele>1378</ele>
        <time>2022-08-26T16:10:08Z</time>
      </trkpt>
      <trkpt lat="45.91677" lon="6.85926">
        <ele>1378</ele>
        <time>2022-08-26T16:10:09Z</time>
      </trkpt>
      <trkpt lat="45.91677" lon="6.85921">
        <ele>1378</ele>
        <time>2022-08-26T16:10:10Z</time>
      </trkpt>
      <trkpt lat="45.91676" lon="6.85917">
        <ele>1378</ele>
        <time>2022-08-26T16:10:11Z</time>
      </trkpt>
      <trkpt lat="45.91675" lon="6.85911">
        <ele>1378</ele>
        <time>2022-08-26T16:10:12Z</time>
      </trkpt>
      <trkpt lat="45.91674" lon="6.85909">
        <ele>1378</ele>
        <time>2022-08-26T16:10:13Z</time>
      </trkpt>
      <trkpt lat="45.91673" lon="6.85905">
        <ele>1378</ele>
        <time>2022-08-26T16:10:14Z</time>
      </trkpt>
      <trkpt lat="45.91672" lon="6.85901">
        <ele>1377</ele>
        <time>2022-08-26T16:10:15Z</time>
      </trkpt>
      <trkpt lat="45.91671" lon="6.85895">
        <ele>1377</ele>
        <time>2022-08-26T16:10:16Z</time>
      </trkpt>
      <trkpt lat="45.91671" lon="6.85893">
        <ele>1377</ele>
        <time>2022-08-26T16:10:17Z</time>
      </trkpt>
      <trkpt lat="45.91669" lon="6.85889">
        <ele>1377</ele>
        <time>2022-08-26T16:10:18Z</time>
      </trkpt>
      <trkpt lat="45.91668" lon="6.85885">
        <ele>1378</ele>
        <time>2022-08-26T16:10:19Z</time>
      </trkpt>
      <trkpt lat="45.91667" lon="6.85878">
        <ele>1378</ele>
        <time>2022-08-26T16:10:20Z</time>
      </trkpt>
      <trkpt lat="45.91666" lon="6.85876">
        <ele>1378</ele>
        <time>2022-08-26T16:10:21Z</time>
      </trkpt>
      <trkpt lat="45.91665" lon="6.85872">
        <ele>1378</ele>
        <time>2022-08-26T16:10:22Z</time>
      </trkpt>
      <trkpt lat="45.91664" lon="6.85868">
        <ele>1377</ele>
        <time>2022-08-26T16:10:23Z</time>
      </trkpt>
      <trkpt lat="45.91663" lon="6.85864">
        <ele>1377</ele>
        <time>2022-08-26T16:10:24Z</time>
      </trkpt>
      <trkpt lat="45.91662" lon="6.8586">
        <ele>1377</ele>
        <time>2022-08-26T16:10:25Z</time>
      </trkpt>
      <trkpt lat="45.91661" lon="6.85856">
        <ele>1377</ele>
        <time>2022-08-26T16:10:26Z</time>
      </trkpt>
      <trkpt lat="45.91659" lon="6.8585">
        <ele>1377</ele>
        <time>2022-08-26T16:10:27Z</time>
      </trkpt>
      <trkpt lat="45.91659" lon="6.85848">
        <ele>1377</ele>
        <time>2022-08-26T16:10:28Z</time>
      </trkpt>
      <trkpt lat="45.91658" lon="6.85844">
        <ele>1377</ele>
        <time>2022-08-26T16:10:29Z</time>
      </trkpt>
      <trkpt lat="45.91657" lon="6.8584">
        <ele>1377</ele>
        <time>2022-08-26T16:10:30Z</time>
      </trkpt>
      <trkpt lat="45.91655" lon="6.85834">
        <ele>1377</ele>
        <time>2022-08-26T16:10:31Z</time>
      </trkpt>
      <trkpt lat="45.91654" lon="6.85832">
        <ele>1377</ele>
        <time>2022-08-26T16:10:32Z</time>
      </trkpt>
      <trkpt lat="45.91652" lon="6.85826">
        <ele>1377</ele>
        <time>2022-08-26T16:10:33Z</time>
      </trkpt>
      <trkpt lat="45.91652" lon="6.85824">
        <ele>1377</ele>
        <time>2022-08-26T16:10:34Z</time>
      </trkpt>
      <trkpt lat="45.91651" lon="6.85818">
        <ele>1377</ele>
        <time>2022-08-26T16:10:35Z</time>
      </trkpt>
      <trkpt lat="45.91651" lon="6.85815">
        <ele>1377</ele>
        <time>2022-08-26T16:10:36Z</time>
      </trkpt>
      <trkpt lat="45.91649" lon="6.85809">
        <ele>1377</ele>
        <time>2022-08-26T16:10:37Z</time>
      </trkpt>
      <trkpt lat="45.91649" lon="6.85807">
        <ele>1377</ele>
        <time>2022-08-26T16:10:38Z</time>
      </trkpt>
      <trkpt lat="45.91648" lon="6.85803">
        <ele>1376</ele>
        <time>2022-08-26T16:10:39Z</time>
      </trkpt>
      <trkpt lat="45.91646" lon="6.85799">
        <ele>1376</ele>
        <time>2022-08-26T16:10:40Z</time>
      </trkpt>
      <trkpt lat="45.91645" lon="6.85796">
        <ele>1376</ele>
        <time>2022-08-26T16:10:41Z</time>
      </trkpt>
      <trkpt lat="45.91643" lon="6.8579">
        <ele>1376</ele>
        <time>2022-08-26T16:10:42Z</time>
      </trkpt>
      <trkpt lat="45.91643" lon="6.85788">
        <ele>1376</ele>
        <time>2022-08-26T16:10:43Z</time>
      </trkpt>
      <trkpt lat="45.91642" lon="6.85784">
        <ele>1376</ele>
        <time>2022-08-26T16:10:44Z</time>
      </trkpt>
      <trkpt lat="45.91641" lon="6.8578">
        <ele>1376</ele>
        <time>2022-08-26T16:10:45Z</time>
      </trkpt>
      <trkpt lat="45.91641" lon="6.85775">
        <ele>1376</ele>
        <time>2022-08-26T16:10:46Z</time>
      </trkpt>
      <trkpt lat="45.91639" lon="6.8577">
        <ele>1376</ele>
        <time>2022-08-26T16:10:47Z</time>
      </trkpt>
      <trkpt lat="45.91639" lon="6.85768">
        <ele>1376</ele>
        <time>2022-08-26T16:10:48Z</time>
      </trkpt>
      <trkpt lat="45.91638" lon="6.85764">
        <ele>1376</ele>
        <time>2022-08-26T16:10:49Z</time>
      </trkpt>
      <trkpt lat="45.91637" lon="6.8576">
        <ele>1376</ele>
        <time>2022-08-26T16:10:50Z</time>
      </trkpt>
      <trkpt lat="45.91636" lon="6.85756">
        <ele>1376</ele>
        <time>2022-08-26T16:10:51Z</time>
      </trkpt>
      <trkpt lat="45.91635" lon="6.8575">
        <ele>1376</ele>
        <time>2022-08-26T16:10:52Z</time>
      </trkpt>
      <trkpt lat="45.91634" lon="6.85748">
        <ele>1376</ele>
        <time>2022-08-26T16:10:53Z</time>
      </trkpt>
      <trkpt lat="45.91633" lon="6.85742">
        <ele>1376</ele>
        <time>2022-08-26T16:10:54Z</time>
      </trkpt>
      <trkpt lat="45.91633" lon="6.8574">
        <ele>1376</ele>
        <time>2022-08-26T16:10:55Z</time>
      </trkpt>
      <trkpt lat="45.91632" lon="6.85736">
        <ele>1376</ele>
        <time>2022-08-26T16:10:56Z</time>
      </trkpt>
      <trkpt lat="45.91632" lon="6.85732">
        <ele>1376</ele>
        <time>2022-08-26T16:10:57Z</time>
      </trkpt>
      <trkpt lat="45.91631" lon="6.85728">
        <ele>1376</ele>
        <time>2022-08-26T16:10:58Z</time>
      </trkpt>
      <trkpt lat="45.9163" lon="6.85724">
        <ele>1376</ele>
        <time>2022-08-26T16:10:59Z</time>
      </trkpt>
      <trkpt lat="45.9163" lon="6.8572">
        <ele>1376</ele>
        <time>2022-08-26T16:11:00Z</time>
      </trkpt>
      <trkpt lat="45.91629" lon="6.85715">
        <ele>1375</ele>
        <time>2022-08-26T16:11:01Z</time>
      </trkpt>
      <trkpt lat="45.91628" lon="6.85711">
        <ele>1375</ele>
        <time>2022-08-26T16:11:02Z</time>
      </trkpt>
      <trkpt lat="45.91627" lon="6.85707">
        <ele>1376</ele>
        <time>2022-08-26T16:11:03Z</time>
      </trkpt>
      <trkpt lat="45.91626" lon="6.85701">
        <ele>1376</ele>
        <time>2022-08-26T16:11:04Z</time>
      </trkpt>
      <trkpt lat="45.91626" lon="6.85699">
        <ele>1376</ele>
        <time>2022-08-26T16:11:05Z</time>
      </trkpt>
      <trkpt lat="45.91625" lon="6.85695">
        <ele>1376</ele>
        <time>2022-08-26T16:11:06Z</time>
      </trkpt>
      <trkpt lat="45.91624" lon="6.85691">
        <ele>1376</ele>
        <time>2022-08-26T16:11:07Z</time>
      </trkpt>
      <trkpt lat="45.91623" lon="6.85686">
        <ele>1376</ele>
        <time>2022-08-26T16:11:08Z</time>
      </trkpt>
      <trkpt lat="45.91622" lon="6.85682">
        <ele>1376</ele>
        <time>2022-08-26T16:11:09Z</time>
      </trkpt>
      <trkpt lat="45.91621" lon="6.85671">
        <ele>1376</ele>
        <time>2022-08-26T16:11:11Z</time>
      </trkpt>
      <trkpt lat="45.9162" lon="6.85669">
        <ele>1375</ele>
        <time>2022-08-26T16:11:12Z</time>
      </trkpt>
      <trkpt lat="45.9162" lon="6.85664">
        <ele>1375</ele>
        <time>2022-08-26T16:11:13Z</time>
      </trkpt>
      <trkpt lat="45.91619" lon="6.8566">
        <ele>1376</ele>
        <time>2022-08-26T16:11:14Z</time>
      </trkpt>
      <trkpt lat="45.91618" lon="6.85655">
        <ele>1376</ele>
        <time>2022-08-26T16:11:15Z</time>
      </trkpt>
      <trkpt lat="45.91618" lon="6.85649">
        <ele>1376</ele>
        <time>2022-08-26T16:11:16Z</time>
      </trkpt>
      <trkpt lat="45.91617" lon="6.85647">
        <ele>1376</ele>
        <time>2022-08-26T16:11:17Z</time>
      </trkpt>
      <trkpt lat="45.91617" lon="6.85642">
        <ele>1376</ele>
        <time>2022-08-26T16:11:18Z</time>
      </trkpt>
      <trkpt lat="45.91616" lon="6.85638">
        <ele>1376</ele>
        <time>2022-08-26T16:11:19Z</time>
      </trkpt>
      <trkpt lat="45.91615" lon="6.85634">
        <ele>1376</ele>
        <time>2022-08-26T16:11:20Z</time>
      </trkpt>
      <trkpt lat="45.91615" lon="6.85629">
        <ele>1376</ele>
        <time>2022-08-26T16:11:21Z</time>
      </trkpt>
      <trkpt lat="45.91614" lon="6.85625">
        <ele>1376</ele>
        <time>2022-08-26T16:11:22Z</time>
      </trkpt>
      <trkpt lat="45.91614" lon="6.8562">
        <ele>1375</ele>
        <time>2022-08-26T16:11:23Z</time>
      </trkpt>
      <trkpt lat="45.91613" lon="6.85616">
        <ele>1375</ele>
        <time>2022-08-26T16:11:24Z</time>
      </trkpt>
      <trkpt lat="45.91613" lon="6.85612">
        <ele>1375</ele>
        <time>2022-08-26T16:11:25Z</time>
      </trkpt>
      <trkpt lat="45.91612" lon="6.85608">
        <ele>1375</ele>
        <time>2022-08-26T16:11:26Z</time>
      </trkpt>
      <trkpt lat="45.91612" lon="6.85603">
        <ele>1375</ele>
        <time>2022-08-26T16:11:27Z</time>
      </trkpt>
      <trkpt lat="45.91612" lon="6.85599">
        <ele>1375</ele>
        <time>2022-08-26T16:11:28Z</time>
      </trkpt>
      <trkpt lat="45.91611" lon="6.85595">
        <ele>1375</ele>
        <time>2022-08-26T16:11:29Z</time>
      </trkpt>
      <trkpt lat="45.91611" lon="6.85591">
        <ele>1375</ele>
        <time>2022-08-26T16:11:30Z</time>
      </trkpt>
      <trkpt lat="45.91611" lon="6.85586">
        <ele>1375</ele>
        <time>2022-08-26T16:11:31Z</time>
      </trkpt>
      <trkpt lat="45.91611" lon="6.85582">
        <ele>1375</ele>
        <time>2022-08-26T16:11:32Z</time>
      </trkpt>
      <trkpt lat="45.91611" lon="6.85578">
        <ele>1375</ele>
        <time>2022-08-26T16:11:33Z</time>
      </trkpt>
      <trkpt lat="45.9161" lon="6.85574">
        <ele>1375</ele>
        <time>2022-08-26T16:11:34Z</time>
      </trkpt>
      <trkpt lat="45.9161" lon="6.8557">
        <ele>1374</ele>
        <time>2022-08-26T16:11:35Z</time>
      </trkpt>
      <trkpt lat="45.9161" lon="6.85565">
        <ele>1374</ele>
        <time>2022-08-26T16:11:36Z</time>
      </trkpt>
      <trkpt lat="45.91609" lon="6.85559">
        <ele>1374</ele>
        <time>2022-08-26T16:11:37Z</time>
      </trkpt>
      <trkpt lat="45.91609" lon="6.85557">
        <ele>1374</ele>
        <time>2022-08-26T16:11:38Z</time>
      </trkpt>
      <trkpt lat="45.91609" lon="6.85552">
        <ele>1374</ele>
        <time>2022-08-26T16:11:39Z</time>
      </trkpt>
      <trkpt lat="45.91608" lon="6.85548">
        <ele>1374</ele>
        <time>2022-08-26T16:11:40Z</time>
      </trkpt>
      <trkpt lat="45.91608" lon="6.85543">
        <ele>1374</ele>
        <time>2022-08-26T16:11:41Z</time>
      </trkpt>
      <trkpt lat="45.91609" lon="6.85539">
        <ele>1374</ele>
        <time>2022-08-26T16:11:42Z</time>
      </trkpt>
      <trkpt lat="45.9161" lon="6.85533">
        <ele>1374</ele>
        <time>2022-08-26T16:11:43Z</time>
      </trkpt>
      <trkpt lat="45.9161" lon="6.85531">
        <ele>1374</ele>
        <time>2022-08-26T16:11:44Z</time>
      </trkpt>
      <trkpt lat="45.9161" lon="6.85527">
        <ele>1374</ele>
        <time>2022-08-26T16:11:45Z</time>
      </trkpt>
      <trkpt lat="45.91611" lon="6.85522">
        <ele>1374</ele>
        <time>2022-08-26T16:11:46Z</time>
      </trkpt>
      <trkpt lat="45.91612" lon="6.85515">
        <ele>1374</ele>
        <time>2022-08-26T16:11:47Z</time>
      </trkpt>
      <trkpt lat="45.91612" lon="6.85513">
        <ele>1374</ele>
        <time>2022-08-26T16:11:48Z</time>
      </trkpt>
      <trkpt lat="45.91613" lon="6.85506">
        <ele>1374</ele>
        <time>2022-08-26T16:11:49Z</time>
      </trkpt>
      <trkpt lat="45.91613" lon="6.85504">
        <ele>1373</ele>
        <time>2022-08-26T16:11:50Z</time>
      </trkpt>
      <trkpt lat="45.91614" lon="6.85497">
        <ele>1373</ele>
        <time>2022-08-26T16:11:51Z</time>
      </trkpt>
      <trkpt lat="45.91614" lon="6.85495">
        <ele>1373</ele>
        <time>2022-08-26T16:11:52Z</time>
      </trkpt>
      <trkpt lat="45.91614" lon="6.8549">
        <ele>1373</ele>
        <time>2022-08-26T16:11:53Z</time>
      </trkpt>
      <trkpt lat="45.91615" lon="6.85486">
        <ele>1373</ele>
        <time>2022-08-26T16:11:54Z</time>
      </trkpt>
      <trkpt lat="45.91615" lon="6.85481">
        <ele>1373</ele>
        <time>2022-08-26T16:11:55Z</time>
      </trkpt>
      <trkpt lat="45.91616" lon="6.85475">
        <ele>1373</ele>
        <time>2022-08-26T16:11:56Z</time>
      </trkpt>
      <trkpt lat="45.91616" lon="6.85472">
        <ele>1373</ele>
        <time>2022-08-26T16:11:57Z</time>
      </trkpt>
      <trkpt lat="45.91616" lon="6.85468">
        <ele>1373</ele>
        <time>2022-08-26T16:11:58Z</time>
      </trkpt>
      <trkpt lat="45.91616" lon="6.85462">
        <ele>1373</ele>
        <time>2022-08-26T16:11:59Z</time>
      </trkpt>
      <trkpt lat="45.91616" lon="6.8546">
        <ele>1373</ele>
        <time>2022-08-26T16:12:00Z</time>
      </trkpt>
      <trkpt lat="45.91617" lon="6.85456">
        <ele>1372</ele>
        <time>2022-08-26T16:12:01Z</time>
      </trkpt>
      <trkpt lat="45.91617" lon="6.85452">
        <ele>1372</ele>
        <time>2022-08-26T16:12:02Z</time>
      </trkpt>
      <trkpt lat="45.91618" lon="6.85447">
        <ele>1373</ele>
        <time>2022-08-26T16:12:03Z</time>
      </trkpt>
      <trkpt lat="45.91618" lon="6.85441">
        <ele>1373</ele>
        <time>2022-08-26T16:12:04Z</time>
      </trkpt>
      <trkpt lat="45.91619" lon="6.85438">
        <ele>1373</ele>
        <time>2022-08-26T16:12:05Z</time>
      </trkpt>
      <trkpt lat="45.91619" lon="6.85432">
        <ele>1373</ele>
        <time>2022-08-26T16:12:06Z</time>
      </trkpt>
      <trkpt lat="45.91619" lon="6.8543">
        <ele>1373</ele>
        <time>2022-08-26T16:12:07Z</time>
      </trkpt>
      <trkpt lat="45.9162" lon="6.85424">
        <ele>1373</ele>
        <time>2022-08-26T16:12:08Z</time>
      </trkpt>
      <trkpt lat="45.9162" lon="6.85422">
        <ele>1372</ele>
        <time>2022-08-26T16:12:09Z</time>
      </trkpt>
      <trkpt lat="45.9162" lon="6.85415">
        <ele>1372</ele>
        <time>2022-08-26T16:12:10Z</time>
      </trkpt>
      <trkpt lat="45.9162" lon="6.85413">
        <ele>1372</ele>
        <time>2022-08-26T16:12:11Z</time>
      </trkpt>
      <trkpt lat="45.9162" lon="6.85409">
        <ele>1372</ele>
        <time>2022-08-26T16:12:12Z</time>
      </trkpt>
      <trkpt lat="45.9162" lon="6.85405">
        <ele>1372</ele>
        <time>2022-08-26T16:12:13Z</time>
      </trkpt>
      <trkpt lat="45.9162" lon="6.85401">
        <ele>1372</ele>
        <time>2022-08-26T16:12:14Z</time>
      </trkpt>
      <trkpt lat="45.9162" lon="6.85396">
        <ele>1372</ele>
        <time>2022-08-26T16:12:15Z</time>
      </trkpt>
      <trkpt lat="45.91619" lon="6.85392">
        <ele>1372</ele>
        <time>2022-08-26T16:12:16Z</time>
      </trkpt>
      <trkpt lat="45.91619" lon="6.85388">
        <ele>1372</ele>
        <time>2022-08-26T16:12:17Z</time>
      </trkpt>
      <trkpt lat="45.91619" lon="6.85382">
        <ele>1372</ele>
        <time>2022-08-26T16:12:18Z</time>
      </trkpt>
      <trkpt lat="45.91619" lon="6.8538">
        <ele>1372</ele>
        <time>2022-08-26T16:12:19Z</time>
      </trkpt>
      <trkpt lat="45.91618" lon="6.85377">
        <ele>1372</ele>
        <time>2022-08-26T16:12:20Z</time>
      </trkpt>
      <trkpt lat="45.91618" lon="6.85373">
        <ele>1372</ele>
        <time>2022-08-26T16:12:21Z</time>
      </trkpt>
      <trkpt lat="45.91617" lon="6.85369">
        <ele>1372</ele>
        <time>2022-08-26T16:12:22Z</time>
      </trkpt>
      <trkpt lat="45.91616" lon="6.85362">
        <ele>1372</ele>
        <time>2022-08-26T16:12:23Z</time>
      </trkpt>
      <trkpt lat="45.91616" lon="6.8536">
        <ele>1372</ele>
        <time>2022-08-26T16:12:24Z</time>
      </trkpt>
      <trkpt lat="45.91616" lon="6.85356">
        <ele>1372</ele>
        <time>2022-08-26T16:12:25Z</time>
      </trkpt>
      <trkpt lat="45.91614" lon="6.85346">
        <ele>1372</ele>
        <time>2022-08-26T16:12:27Z</time>
      </trkpt>
      <trkpt lat="45.91614" lon="6.85342">
        <ele>1371</ele>
        <time>2022-08-26T16:12:28Z</time>
      </trkpt>
      <trkpt lat="45.91614" lon="6.85338">
        <ele>1371</ele>
        <time>2022-08-26T16:12:29Z</time>
      </trkpt>
      <trkpt lat="45.91613" lon="6.85332">
        <ele>1371</ele>
        <time>2022-08-26T16:12:30Z</time>
      </trkpt>
      <trkpt lat="45.91613" lon="6.8533">
        <ele>1371</ele>
        <time>2022-08-26T16:12:31Z</time>
      </trkpt>
      <trkpt lat="45.91613" lon="6.85326">
        <ele>1371</ele>
        <time>2022-08-26T16:12:32Z</time>
      </trkpt>
      <trkpt lat="45.91612" lon="6.85322">
        <ele>1372</ele>
        <time>2022-08-26T16:12:33Z</time>
      </trkpt>
      <trkpt lat="45.91611" lon="6.85317">
        <ele>1372</ele>
        <time>2022-08-26T16:12:34Z</time>
      </trkpt>
      <trkpt lat="45.91611" lon="6.85315">
        <ele>1372</ele>
        <time>2022-08-26T16:12:35Z</time>
      </trkpt>
      <trkpt lat="45.9161" lon="6.85311">
        <ele>1372</ele>
        <time>2022-08-26T16:12:36Z</time>
      </trkpt>
      <trkpt lat="45.91609" lon="6.85307">
        <ele>1372</ele>
        <time>2022-08-26T16:12:37Z</time>
      </trkpt>
      <trkpt lat="45.91609" lon="6.85303">
        <ele>1371</ele>
        <time>2022-08-26T16:12:38Z</time>
      </trkpt>
      <trkpt lat="45.91607" lon="6.85297">
        <ele>1371</ele>
        <time>2022-08-26T16:12:39Z</time>
      </trkpt>
      <trkpt lat="45.91607" lon="6.85295">
        <ele>1371</ele>
        <time>2022-08-26T16:12:40Z</time>
      </trkpt>
      <trkpt lat="45.91606" lon="6.85289">
        <ele>1371</ele>
        <time>2022-08-26T16:12:41Z</time>
      </trkpt>
      <trkpt lat="45.91606" lon="6.85287">
        <ele>1371</ele>
        <time>2022-08-26T16:12:42Z</time>
      </trkpt>
      <trkpt lat="45.91605" lon="6.85283">
        <ele>1371</ele>
        <time>2022-08-26T16:12:43Z</time>
      </trkpt>
      <trkpt lat="45.91605" lon="6.85277">
        <ele>1371</ele>
        <time>2022-08-26T16:12:44Z</time>
      </trkpt>
      <trkpt lat="45.91605" lon="6.85274">
        <ele>1371</ele>
        <time>2022-08-26T16:12:45Z</time>
      </trkpt>
      <trkpt lat="45.91605" lon="6.8527">
        <ele>1371</ele>
        <time>2022-08-26T16:12:46Z</time>
      </trkpt>
      <trkpt lat="45.91605" lon="6.85266">
        <ele>1370</ele>
        <time>2022-08-26T16:12:47Z</time>
      </trkpt>
      <trkpt lat="45.91604" lon="6.85262">
        <ele>1371</ele>
        <time>2022-08-26T16:12:48Z</time>
      </trkpt>
      <trkpt lat="45.91604" lon="6.85256">
        <ele>1371</ele>
        <time>2022-08-26T16:12:49Z</time>
      </trkpt>
      <trkpt lat="45.91604" lon="6.85254">
        <ele>1371</ele>
        <time>2022-08-26T16:12:50Z</time>
      </trkpt>
      <trkpt lat="45.91604" lon="6.85248">
        <ele>1371</ele>
        <time>2022-08-26T16:12:51Z</time>
      </trkpt>
      <trkpt lat="45.91604" lon="6.85246">
        <ele>1371</ele>
        <time>2022-08-26T16:12:52Z</time>
      </trkpt>
      <trkpt lat="45.91604" lon="6.85242">
        <ele>1371</ele>
        <time>2022-08-26T16:12:53Z</time>
      </trkpt>
      <trkpt lat="45.91604" lon="6.85238">
        <ele>1371</ele>
        <time>2022-08-26T16:12:54Z</time>
      </trkpt>
      <trkpt lat="45.91604" lon="6.85234">
        <ele>1371</ele>
        <time>2022-08-26T16:12:55Z</time>
      </trkpt>
      <trkpt lat="45.91604" lon="6.85227">
        <ele>1371</ele>
        <time>2022-08-26T16:12:56Z</time>
      </trkpt>
      <trkpt lat="45.91604" lon="6.85225">
        <ele>1371</ele>
        <time>2022-08-26T16:12:57Z</time>
      </trkpt>
      <trkpt lat="45.91604" lon="6.85221">
        <ele>1371</ele>
        <time>2022-08-26T16:12:58Z</time>
      </trkpt>
      <trkpt lat="45.91604" lon="6.85217">
        <ele>1371</ele>
        <time>2022-08-26T16:12:59Z</time>
      </trkpt>
      <trkpt lat="45.91604" lon="6.85214">
        <ele>1370</ele>
        <time>2022-08-26T16:13:00Z</time>
      </trkpt>
      <trkpt lat="45.91605" lon="6.85207">
        <ele>1370</ele>
        <time>2022-08-26T16:13:01Z</time>
      </trkpt>
      <trkpt lat="45.91605" lon="6.85205">
        <ele>1371</ele>
        <time>2022-08-26T16:13:02Z</time>
      </trkpt>
      <trkpt lat="45.91605" lon="6.85201">
        <ele>1371</ele>
        <time>2022-08-26T16:13:03Z</time>
      </trkpt>
      <trkpt lat="45.91606" lon="6.85196">
        <ele>1371</ele>
        <time>2022-08-26T16:13:04Z</time>
      </trkpt>
      <trkpt lat="45.91606" lon="6.85192">
        <ele>1370</ele>
        <time>2022-08-26T16:13:05Z</time>
      </trkpt>
      <trkpt lat="45.91606" lon="6.85187">
        <ele>1369</ele>
        <time>2022-08-26T16:13:06Z</time>
      </trkpt>
      <trkpt lat="45.91606" lon="6.85183">
        <ele>1369</ele>
        <time>2022-08-26T16:13:07Z</time>
      </trkpt>
      <trkpt lat="45.91607" lon="6.85177">
        <ele>1369</ele>
        <time>2022-08-26T16:13:08Z</time>
      </trkpt>
      <trkpt lat="45.91607" lon="6.85175">
        <ele>1369</ele>
        <time>2022-08-26T16:13:09Z</time>
      </trkpt>
      <trkpt lat="45.91607" lon="6.8517">
        <ele>1369</ele>
        <time>2022-08-26T16:13:10Z</time>
      </trkpt>
      <trkpt lat="45.91607" lon="6.85164">
        <ele>1369</ele>
        <time>2022-08-26T16:13:11Z</time>
      </trkpt>
      <trkpt lat="45.91607" lon="6.85162">
        <ele>1369</ele>
        <time>2022-08-26T16:13:12Z</time>
      </trkpt>
      <trkpt lat="45.91607" lon="6.85158">
        <ele>1369</ele>
        <time>2022-08-26T16:13:13Z</time>
      </trkpt>
      <trkpt lat="45.91607" lon="6.85154">
        <ele>1369</ele>
        <time>2022-08-26T16:13:14Z</time>
      </trkpt>
      <trkpt lat="45.91607" lon="6.8515">
        <ele>1369</ele>
        <time>2022-08-26T16:13:15Z</time>
      </trkpt>
      <trkpt lat="45.91607" lon="6.85145">
        <ele>1369</ele>
        <time>2022-08-26T16:13:16Z</time>
      </trkpt>
      <trkpt lat="45.91607" lon="6.85141">
        <ele>1369</ele>
        <time>2022-08-26T16:13:17Z</time>
      </trkpt>
      <trkpt lat="45.91607" lon="6.85136">
        <ele>1369</ele>
        <time>2022-08-26T16:13:18Z</time>
      </trkpt>
      <trkpt lat="45.91607" lon="6.85132">
        <ele>1369</ele>
        <time>2022-08-26T16:13:19Z</time>
      </trkpt>
      <trkpt lat="45.91606" lon="6.85128">
        <ele>1369</ele>
        <time>2022-08-26T16:13:20Z</time>
      </trkpt>
      <trkpt lat="45.91606" lon="6.85124">
        <ele>1369</ele>
        <time>2022-08-26T16:13:21Z</time>
      </trkpt>
      <trkpt lat="45.91605" lon="6.85121">
        <ele>1369</ele>
        <time>2022-08-26T16:13:22Z</time>
      </trkpt>
      <trkpt lat="45.91604" lon="6.85117">
        <ele>1369</ele>
        <time>2022-08-26T16:13:23Z</time>
      </trkpt>
      <trkpt lat="45.91604" lon="6.85113">
        <ele>1369</ele>
        <time>2022-08-26T16:13:24Z</time>
      </trkpt>
      <trkpt lat="45.91603" lon="6.85109">
        <ele>1369</ele>
        <time>2022-08-26T16:13:25Z</time>
      </trkpt>
      <trkpt lat="45.91603" lon="6.85105">
        <ele>1369</ele>
        <time>2022-08-26T16:13:26Z</time>
      </trkpt>
      <trkpt lat="45.91602" lon="6.85101">
        <ele>1369</ele>
        <time>2022-08-26T16:13:27Z</time>
      </trkpt>
      <trkpt lat="45.91601" lon="6.85098">
        <ele>1368</ele>
        <time>2022-08-26T16:13:28Z</time>
      </trkpt>
      <trkpt lat="45.916" lon="6.85094">
        <ele>1368</ele>
        <time>2022-08-26T16:13:29Z</time>
      </trkpt>
      <trkpt lat="45.91599" lon="6.85088">
        <ele>1368</ele>
        <time>2022-08-26T16:13:30Z</time>
      </trkpt>
      <trkpt lat="45.91598" lon="6.85086">
        <ele>1368</ele>
        <time>2022-08-26T16:13:31Z</time>
      </trkpt>
      <trkpt lat="45.91598" lon="6.85082">
        <ele>1368</ele>
        <time>2022-08-26T16:13:32Z</time>
      </trkpt>
      <trkpt lat="45.91597" lon="6.85078">
        <ele>1368</ele>
        <time>2022-08-26T16:13:33Z</time>
      </trkpt>
      <trkpt lat="45.91596" lon="6.85073">
        <ele>1368</ele>
        <time>2022-08-26T16:13:34Z</time>
      </trkpt>
      <trkpt lat="45.91595" lon="6.85068">
        <ele>1368</ele>
        <time>2022-08-26T16:13:35Z</time>
      </trkpt>
      <trkpt lat="45.91595" lon="6.85066">
        <ele>1368</ele>
        <time>2022-08-26T16:13:36Z</time>
      </trkpt>
      <trkpt lat="45.91594" lon="6.85062">
        <ele>1368</ele>
        <time>2022-08-26T16:13:37Z</time>
      </trkpt>
      <trkpt lat="45.91593" lon="6.85058">
        <ele>1368</ele>
        <time>2022-08-26T16:13:38Z</time>
      </trkpt>
      <trkpt lat="45.91593" lon="6.85054">
        <ele>1368</ele>
        <time>2022-08-26T16:13:39Z</time>
      </trkpt>
      <trkpt lat="45.91592" lon="6.8505">
        <ele>1368</ele>
        <time>2022-08-26T16:13:40Z</time>
      </trkpt>
      <trkpt lat="45.91591" lon="6.85044">
        <ele>1368</ele>
        <time>2022-08-26T16:13:41Z</time>
      </trkpt>
      <trkpt lat="45.91591" lon="6.85042">
        <ele>1368</ele>
        <time>2022-08-26T16:13:42Z</time>
      </trkpt>
      <trkpt lat="45.9159" lon="6.85035">
        <ele>1368</ele>
        <time>2022-08-26T16:13:43Z</time>
      </trkpt>
      <trkpt lat="45.9159" lon="6.85033">
        <ele>1367</ele>
        <time>2022-08-26T16:13:44Z</time>
      </trkpt>
      <trkpt lat="45.91589" lon="6.85029">
        <ele>1367</ele>
        <time>2022-08-26T16:13:45Z</time>
      </trkpt>
      <trkpt lat="45.91589" lon="6.85025">
        <ele>1367</ele>
        <time>2022-08-26T16:13:46Z</time>
      </trkpt>
      <trkpt lat="45.91588" lon="6.85021">
        <ele>1368</ele>
        <time>2022-08-26T16:13:47Z</time>
      </trkpt>
      <trkpt lat="45.91587" lon="6.85017">
        <ele>1368</ele>
        <time>2022-08-26T16:13:48Z</time>
      </trkpt>
      <trkpt lat="45.91586" lon="6.85013">
        <ele>1367</ele>
        <time>2022-08-26T16:13:49Z</time>
      </trkpt>
      <trkpt lat="45.91586" lon="6.85009">
        <ele>1367</ele>
        <time>2022-08-26T16:13:50Z</time>
      </trkpt>
      <trkpt lat="45.91585" lon="6.85005">
        <ele>1367</ele>
        <time>2022-08-26T16:13:51Z</time>
      </trkpt>
      <trkpt lat="45.91584" lon="6.85002">
        <ele>1367</ele>
        <time>2022-08-26T16:13:52Z</time>
      </trkpt>
      <trkpt lat="45.91584" lon="6.84998">
        <ele>1367</ele>
        <time>2022-08-26T16:13:53Z</time>
      </trkpt>
      <trkpt lat="45.91583" lon="6.84994">
        <ele>1367</ele>
        <time>2022-08-26T16:13:54Z</time>
      </trkpt>
      <trkpt lat="45.91582" lon="6.8499">
        <ele>1367</ele>
        <time>2022-08-26T16:13:55Z</time>
      </trkpt>
      <trkpt lat="45.91581" lon="6.84987">
        <ele>1367</ele>
        <time>2022-08-26T16:13:56Z</time>
      </trkpt>
      <trkpt lat="45.91579" lon="6.84983">
        <ele>1367</ele>
        <time>2022-08-26T16:13:57Z</time>
      </trkpt>
      <trkpt lat="45.91578" lon="6.84977">
        <ele>1367</ele>
        <time>2022-08-26T16:13:58Z</time>
      </trkpt>
      <trkpt lat="45.91577" lon="6.84975">
        <ele>1367</ele>
        <time>2022-08-26T16:13:59Z</time>
      </trkpt>
      <trkpt lat="45.91575" lon="6.8497">
        <ele>1367</ele>
        <time>2022-08-26T16:14:00Z</time>
      </trkpt>
      <trkpt lat="45.91574" lon="6.84968">
        <ele>1367</ele>
        <time>2022-08-26T16:14:01Z</time>
      </trkpt>
      <trkpt lat="45.91572" lon="6.84963">
        <ele>1367</ele>
        <time>2022-08-26T16:14:02Z</time>
      </trkpt>
      <trkpt lat="45.91571" lon="6.84961">
        <ele>1366</ele>
        <time>2022-08-26T16:14:03Z</time>
      </trkpt>
      <trkpt lat="45.9157" lon="6.84958">
        <ele>1366</ele>
        <time>2022-08-26T16:14:04Z</time>
      </trkpt>
      <trkpt lat="45.91568" lon="6.84954">
        <ele>1366</ele>
        <time>2022-08-26T16:14:05Z</time>
      </trkpt>
      <trkpt lat="45.91566" lon="6.84951">
        <ele>1366</ele>
        <time>2022-08-26T16:14:06Z</time>
      </trkpt>
      <trkpt lat="45.91564" lon="6.84946">
        <ele>1366</ele>
        <time>2022-08-26T16:14:07Z</time>
      </trkpt>
      <trkpt lat="45.91563" lon="6.84945">
        <ele>1366</ele>
        <time>2022-08-26T16:14:08Z</time>
      </trkpt>
      <trkpt lat="45.91562" lon="6.84941">
        <ele>1366</ele>
        <time>2022-08-26T16:14:09Z</time>
      </trkpt>
      <trkpt lat="45.9156" lon="6.84939">
        <ele>1366</ele>
        <time>2022-08-26T16:14:10Z</time>
      </trkpt>
      <trkpt lat="45.91559" lon="6.84935">
        <ele>1366</ele>
        <time>2022-08-26T16:14:11Z</time>
      </trkpt>
      <trkpt lat="45.91557" lon="6.84932">
        <ele>1366</ele>
        <time>2022-08-26T16:14:12Z</time>
      </trkpt>
      <trkpt lat="45.91555" lon="6.84929">
        <ele>1366</ele>
        <time>2022-08-26T16:14:13Z</time>
      </trkpt>
      <trkpt lat="45.91554" lon="6.84926">
        <ele>1366</ele>
        <time>2022-08-26T16:14:14Z</time>
      </trkpt>
      <trkpt lat="45.91551" lon="6.84922">
        <ele>1366</ele>
        <time>2022-08-26T16:14:15Z</time>
      </trkpt>
      <trkpt lat="45.9155" lon="6.84921">
        <ele>1366</ele>
        <time>2022-08-26T16:14:16Z</time>
      </trkpt>
      <trkpt lat="45.91548" lon="6.84918">
        <ele>1366</ele>
        <time>2022-08-26T16:14:17Z</time>
      </trkpt>
      <trkpt lat="45.91547" lon="6.84915">
        <ele>1366</ele>
        <time>2022-08-26T16:14:18Z</time>
      </trkpt>
      <trkpt lat="45.91544" lon="6.84911">
        <ele>1366</ele>
        <time>2022-08-26T16:14:19Z</time>
      </trkpt>
      <trkpt lat="45.91543" lon="6.84909">
        <ele>1366</ele>
        <time>2022-08-26T16:14:20Z</time>
      </trkpt>
      <trkpt lat="45.91541" lon="6.84904">
        <ele>1366</ele>
        <time>2022-08-26T16:14:21Z</time>
      </trkpt>
      <trkpt lat="45.9154" lon="6.84903">
        <ele>1365</ele>
        <time>2022-08-26T16:14:22Z</time>
      </trkpt>
      <trkpt lat="45.91539" lon="6.84899">
        <ele>1366</ele>
        <time>2022-08-26T16:14:23Z</time>
      </trkpt>
      <trkpt lat="45.91538" lon="6.84896">
        <ele>1366</ele>
        <time>2022-08-26T16:14:24Z</time>
      </trkpt>
      <trkpt lat="45.91537" lon="6.84893">
        <ele>1366</ele>
        <time>2022-08-26T16:14:25Z</time>
      </trkpt>
      <trkpt lat="45.91535" lon="6.84888">
        <ele>1366</ele>
        <time>2022-08-26T16:14:26Z</time>
      </trkpt>
      <trkpt lat="45.91534" lon="6.84887">
        <ele>1366</ele>
        <time>2022-08-26T16:14:27Z</time>
      </trkpt>
      <trkpt lat="45.91533" lon="6.84885">
        <ele>1366</ele>
        <time>2022-08-26T16:14:28Z</time>
      </trkpt>
      <trkpt lat="45.91531" lon="6.84882">
        <ele>1366</ele>
        <time>2022-08-26T16:14:29Z</time>
      </trkpt>
      <trkpt lat="45.9153" lon="6.84879">
        <ele>1366</ele>
        <time>2022-08-26T16:14:30Z</time>
      </trkpt>
      <trkpt lat="45.91528" lon="6.84875">
        <ele>1366</ele>
        <time>2022-08-26T16:14:31Z</time>
      </trkpt>
      <trkpt lat="45.91527" lon="6.84874">
        <ele>1366</ele>
        <time>2022-08-26T16:14:32Z</time>
      </trkpt>
      <trkpt lat="45.91524" lon="6.8487">
        <ele>1366</ele>
        <time>2022-08-26T16:14:33Z</time>
      </trkpt>
      <trkpt lat="45.91523" lon="6.84868">
        <ele>1366</ele>
        <time>2022-08-26T16:14:34Z</time>
      </trkpt>
      <trkpt lat="45.91521" lon="6.84865">
        <ele>1367</ele>
        <time>2022-08-26T16:14:35Z</time>
      </trkpt>
      <trkpt lat="45.9152" lon="6.84863">
        <ele>1367</ele>
        <time>2022-08-26T16:14:36Z</time>
      </trkpt>
      <trkpt lat="45.91519" lon="6.8486">
        <ele>1367</ele>
        <time>2022-08-26T16:14:37Z</time>
      </trkpt>
      <trkpt lat="45.91518" lon="6.84857">
        <ele>1367</ele>
        <time>2022-08-26T16:14:38Z</time>
      </trkpt>
      <trkpt lat="45.91517" lon="6.84855">
        <ele>1367</ele>
        <time>2022-08-26T16:14:39Z</time>
      </trkpt>
      <trkpt lat="45.91516" lon="6.8485">
        <ele>1367</ele>
        <time>2022-08-26T16:14:41Z</time>
      </trkpt>
      <trkpt lat="45.91517" lon="6.84846">
        <ele>1367</ele>
        <time>2022-08-26T16:14:43Z</time>
      </trkpt>
      <trkpt lat="45.91517" lon="6.84841">
        <ele>1368</ele>
        <time>2022-08-26T16:14:45Z</time>
      </trkpt>
      <trkpt lat="45.91517" lon="6.84836">
        <ele>1368</ele>
        <time>2022-08-26T16:14:47Z</time>
      </trkpt>
      <trkpt lat="45.91516" lon="6.84832">
        <ele>1368</ele>
        <time>2022-08-26T16:14:48Z</time>
      </trkpt>
      <trkpt lat="45.91515" lon="6.84828">
        <ele>1368</ele>
        <time>2022-08-26T16:14:49Z</time>
      </trkpt>
      <trkpt lat="45.91514" lon="6.84824">
        <ele>1368</ele>
        <time>2022-08-26T16:14:50Z</time>
      </trkpt>
      <trkpt lat="45.91514" lon="6.84821">
        <ele>1368</ele>
        <time>2022-08-26T16:14:51Z</time>
      </trkpt>
      <trkpt lat="45.91513" lon="6.84818">
        <ele>1368</ele>
        <time>2022-08-26T16:14:52Z</time>
      </trkpt>
      <trkpt lat="45.91511" lon="6.84815">
        <ele>1368</ele>
        <time>2022-08-26T16:14:53Z</time>
      </trkpt>
      <trkpt lat="45.9151" lon="6.84812">
        <ele>1368</ele>
        <time>2022-08-26T16:14:54Z</time>
      </trkpt>
      <trkpt lat="45.91509" lon="6.84809">
        <ele>1369</ele>
        <time>2022-08-26T16:14:55Z</time>
      </trkpt>
      <trkpt lat="45.91507" lon="6.84806">
        <ele>1369</ele>
        <time>2022-08-26T16:14:56Z</time>
      </trkpt>
      <trkpt lat="45.91506" lon="6.84803">
        <ele>1369</ele>
        <time>2022-08-26T16:14:57Z</time>
      </trkpt>
      <trkpt lat="45.91503" lon="6.84797">
        <ele>1369</ele>
        <time>2022-08-26T16:14:59Z</time>
      </trkpt>
      <trkpt lat="45.91502" lon="6.84794">
        <ele>1369</ele>
        <time>2022-08-26T16:15:00Z</time>
      </trkpt>
      <trkpt lat="45.91501" lon="6.84791">
        <ele>1368</ele>
        <time>2022-08-26T16:15:01Z</time>
      </trkpt>
      <trkpt lat="45.91499" lon="6.84787">
        <ele>1368</ele>
        <time>2022-08-26T16:15:02Z</time>
      </trkpt>
      <trkpt lat="45.91498" lon="6.84785">
        <ele>1368</ele>
        <time>2022-08-26T16:15:03Z</time>
      </trkpt>
      <trkpt lat="45.91498" lon="6.84782">
        <ele>1368</ele>
        <time>2022-08-26T16:15:04Z</time>
      </trkpt>
      <trkpt lat="45.91497" lon="6.84778">
        <ele>1368</ele>
        <time>2022-08-26T16:15:05Z</time>
      </trkpt>
      <trkpt lat="45.91496" lon="6.84777">
        <ele>1368</ele>
        <time>2022-08-26T16:15:06Z</time>
      </trkpt>
      <trkpt lat="45.91495" lon="6.84774">
        <ele>1368</ele>
        <time>2022-08-26T16:15:07Z</time>
      </trkpt>
      <trkpt lat="45.91494" lon="6.8477">
        <ele>1368</ele>
        <time>2022-08-26T16:15:08Z</time>
      </trkpt>
      <trkpt lat="45.91494" lon="6.84767">
        <ele>1368</ele>
        <time>2022-08-26T16:15:09Z</time>
      </trkpt>
      <trkpt lat="45.91493" lon="6.84762">
        <ele>1368</ele>
        <time>2022-08-26T16:15:10Z</time>
      </trkpt>
      <trkpt lat="45.91493" lon="6.8476">
        <ele>1368</ele>
        <time>2022-08-26T16:15:11Z</time>
      </trkpt>
      <trkpt lat="45.91492" lon="6.84756">
        <ele>1368</ele>
        <time>2022-08-26T16:15:12Z</time>
      </trkpt>
      <trkpt lat="45.91491" lon="6.84752">
        <ele>1368</ele>
        <time>2022-08-26T16:15:13Z</time>
      </trkpt>
      <trkpt lat="45.9149" lon="6.84747">
        <ele>1368</ele>
        <time>2022-08-26T16:15:14Z</time>
      </trkpt>
      <trkpt lat="45.91489" lon="6.84743">
        <ele>1368</ele>
        <time>2022-08-26T16:15:15Z</time>
      </trkpt>
      <trkpt lat="45.91487" lon="6.84735">
        <ele>1368</ele>
        <time>2022-08-26T16:15:17Z</time>
      </trkpt>
      <trkpt lat="45.91486" lon="6.84728">
        <ele>1368</ele>
        <time>2022-08-26T16:15:18Z</time>
      </trkpt>
      <trkpt lat="45.91486" lon="6.84726">
        <ele>1367</ele>
        <time>2022-08-26T16:15:19Z</time>
      </trkpt>
      <trkpt lat="45.91485" lon="6.84721">
        <ele>1367</ele>
        <time>2022-08-26T16:15:20Z</time>
      </trkpt>
      <trkpt lat="45.91485" lon="6.84717">
        <ele>1367</ele>
        <time>2022-08-26T16:15:21Z</time>
      </trkpt>
      <trkpt lat="45.91484" lon="6.84713">
        <ele>1367</ele>
        <time>2022-08-26T16:15:22Z</time>
      </trkpt>
      <trkpt lat="45.91483" lon="6.84709">
        <ele>1367</ele>
        <time>2022-08-26T16:15:23Z</time>
      </trkpt>
      <trkpt lat="45.91482" lon="6.84706">
        <ele>1367</ele>
        <time>2022-08-26T16:15:24Z</time>
      </trkpt>
      <trkpt lat="45.91481" lon="6.84703">
        <ele>1367</ele>
        <time>2022-08-26T16:15:25Z</time>
      </trkpt>
      <trkpt lat="45.91479" lon="6.847">
        <ele>1366</ele>
        <time>2022-08-26T16:15:26Z</time>
      </trkpt>
      <trkpt lat="45.91477" lon="6.84696">
        <ele>1366</ele>
        <time>2022-08-26T16:15:27Z</time>
      </trkpt>
      <trkpt lat="45.91476" lon="6.84694">
        <ele>1366</ele>
        <time>2022-08-26T16:15:29Z</time>
      </trkpt>
      <trkpt lat="45.91475" lon="6.84692">
        <ele>1366</ele>
        <time>2022-08-26T16:15:30Z</time>
      </trkpt>
      <trkpt lat="45.91474" lon="6.8469">
        <ele>1366</ele>
        <time>2022-08-26T16:15:31Z</time>
      </trkpt>
      <trkpt lat="45.91469" lon="6.84682">
        <ele>1366</ele>
        <time>2022-08-26T16:15:32Z</time>
      </trkpt>
      <trkpt lat="45.91468" lon="6.84679">
        <ele>1366</ele>
        <time>2022-08-26T16:15:34Z</time>
      </trkpt>
      <trkpt lat="45.91466" lon="6.84676">
        <ele>1366</ele>
        <time>2022-08-26T16:15:35Z</time>
      </trkpt>
      <trkpt lat="45.91464" lon="6.84673">
        <ele>1366</ele>
        <time>2022-08-26T16:15:36Z</time>
      </trkpt>
      <trkpt lat="45.91462" lon="6.84671">
        <ele>1366</ele>
        <time>2022-08-26T16:15:37Z</time>
      </trkpt>
      <trkpt lat="45.9146" lon="6.84669">
        <ele>1366</ele>
        <time>2022-08-26T16:15:38Z</time>
      </trkpt>
      <trkpt lat="45.91458" lon="6.84666">
        <ele>1366</ele>
        <time>2022-08-26T16:15:39Z</time>
      </trkpt>
      <trkpt lat="45.91456" lon="6.84664">
        <ele>1366</ele>
        <time>2022-08-26T16:15:40Z</time>
      </trkpt>
      <trkpt lat="45.91451" lon="6.84662">
        <ele>1366</ele>
        <time>2022-08-26T16:15:41Z</time>
      </trkpt>
      <trkpt lat="45.91447" lon="6.8466">
        <ele>1366</ele>
        <time>2022-08-26T16:15:42Z</time>
      </trkpt>
      <trkpt lat="45.91445" lon="6.84659">
        <ele>1366</ele>
        <time>2022-08-26T16:15:43Z</time>
      </trkpt>
      <trkpt lat="45.91443" lon="6.84658">
        <ele>1366</ele>
        <time>2022-08-26T16:15:45Z</time>
      </trkpt>
      <trkpt lat="45.91442" lon="6.84657">
        <ele>1366</ele>
        <time>2022-08-26T16:15:46Z</time>
      </trkpt>
      <trkpt lat="45.91434" lon="6.84654">
        <ele>1366</ele>
        <time>2022-08-26T16:15:47Z</time>
      </trkpt>
      <trkpt lat="45.91431" lon="6.84654">
        <ele>1366</ele>
        <time>2022-08-26T16:15:48Z</time>
      </trkpt>
      <trkpt lat="45.91429" lon="6.84653">
        <ele>1366</ele>
        <time>2022-08-26T16:15:49Z</time>
      </trkpt>
      <trkpt lat="45.91427" lon="6.84653">
        <ele>1366</ele>
        <time>2022-08-26T16:15:50Z</time>
      </trkpt>
      <trkpt lat="45.91426" lon="6.84652">
        <ele>1366</ele>
        <time>2022-08-26T16:15:51Z</time>
      </trkpt>
      <trkpt lat="45.91425" lon="6.84651">
        <ele>1367</ele>
        <time>2022-08-26T16:15:52Z</time>
      </trkpt>
      <trkpt lat="45.91424" lon="6.8465">
        <ele>1367</ele>
        <time>2022-08-26T16:15:53Z</time>
      </trkpt>
      <trkpt lat="45.91415" lon="6.84643">
        <ele>1367</ele>
        <time>2022-08-26T16:15:55Z</time>
      </trkpt>
      <trkpt lat="45.91412" lon="6.84641">
        <ele>1367</ele>
        <time>2022-08-26T16:15:57Z</time>
      </trkpt>
      <trkpt lat="45.9141" lon="6.8464">
        <ele>1367</ele>
        <time>2022-08-26T16:15:58Z</time>
      </trkpt>
      <trkpt lat="45.91408" lon="6.84638">
        <ele>1367</ele>
        <time>2022-08-26T16:15:59Z</time>
      </trkpt>
      <trkpt lat="45.91405" lon="6.84636">
        <ele>1367</ele>
        <time>2022-08-26T16:16:00Z</time>
      </trkpt>
      <trkpt lat="45.91402" lon="6.84633">
        <ele>1368</ele>
        <time>2022-08-26T16:16:01Z</time>
      </trkpt>
      <trkpt lat="45.914" lon="6.84631">
        <ele>1368</ele>
        <time>2022-08-26T16:16:02Z</time>
      </trkpt>
      <trkpt lat="45.9139" lon="6.84624">
        <ele>1368</ele>
        <time>2022-08-26T16:16:06Z</time>
      </trkpt>
      <trkpt lat="45.91388" lon="6.84623">
        <ele>1368</ele>
        <time>2022-08-26T16:16:07Z</time>
      </trkpt>
      <trkpt lat="45.91386" lon="6.84621">
        <ele>1369</ele>
        <time>2022-08-26T16:16:08Z</time>
      </trkpt>
      <trkpt lat="45.91385" lon="6.8462">
        <ele>1369</ele>
        <time>2022-08-26T16:16:09Z</time>
      </trkpt>
      <trkpt lat="45.91383" lon="6.84619">
        <ele>1369</ele>
        <time>2022-08-26T16:16:10Z</time>
      </trkpt>
      <trkpt lat="45.91381" lon="6.84618">
        <ele>1369</ele>
        <time>2022-08-26T16:16:11Z</time>
      </trkpt>
      <trkpt lat="45.91371" lon="6.84611">
        <ele>1369</ele>
        <time>2022-08-26T16:16:14Z</time>
      </trkpt>
      <trkpt lat="45.91369" lon="6.8461">
        <ele>1370</ele>
        <time>2022-08-26T16:16:15Z</time>
      </trkpt>
      <trkpt lat="45.91367" lon="6.84609">
        <ele>1370</ele>
        <time>2022-08-26T16:16:16Z</time>
      </trkpt>
      <trkpt lat="45.91365" lon="6.84608">
        <ele>1370</ele>
        <time>2022-08-26T16:16:17Z</time>
      </trkpt>
      <trkpt lat="45.91362" lon="6.84607">
        <ele>1370</ele>
        <time>2022-08-26T16:16:18Z</time>
      </trkpt>
      <trkpt lat="45.9136" lon="6.84606">
        <ele>1370</ele>
        <time>2022-08-26T16:16:19Z</time>
      </trkpt>
      <trkpt lat="45.91359" lon="6.84606">
        <ele>1370</ele>
        <time>2022-08-26T16:16:20Z</time>
      </trkpt>
      <trkpt lat="45.91358" lon="6.84605">
        <ele>1370</ele>
        <time>2022-08-26T16:16:21Z</time>
      </trkpt>
      <trkpt lat="45.91357" lon="6.84604">
        <ele>1370</ele>
        <time>2022-08-26T16:16:22Z</time>
      </trkpt>
      <trkpt lat="45.9135" lon="6.846">
        <ele>1370</ele>
        <time>2022-08-26T16:16:24Z</time>
      </trkpt>
      <trkpt lat="45.9134" lon="6.84594">
        <ele>1369</ele>
        <time>2022-08-26T16:16:26Z</time>
      </trkpt>
      <trkpt lat="45.91338" lon="6.84593">
        <ele>1369</ele>
        <time>2022-08-26T16:16:27Z</time>
      </trkpt>
      <trkpt lat="45.91335" lon="6.84592">
        <ele>1369</ele>
        <time>2022-08-26T16:16:28Z</time>
      </trkpt>
      <trkpt lat="45.91333" lon="6.84591">
        <ele>1369</ele>
        <time>2022-08-26T16:16:29Z</time>
      </trkpt>
      <trkpt lat="45.91331" lon="6.8459">
        <ele>1369</ele>
        <time>2022-08-26T16:16:30Z</time>
      </trkpt>
      <trkpt lat="45.91329" lon="6.84589">
        <ele>1369</ele>
        <time>2022-08-26T16:16:31Z</time>
      </trkpt>
      <trkpt lat="45.91325" lon="6.84587">
        <ele>1369</ele>
        <time>2022-08-26T16:16:33Z</time>
      </trkpt>
      <trkpt lat="45.91322" lon="6.84586">
        <ele>1369</ele>
        <time>2022-08-26T16:16:34Z</time>
      </trkpt>
      <trkpt lat="45.91318" lon="6.84585">
        <ele>1369</ele>
        <time>2022-08-26T16:16:35Z</time>
      </trkpt>
      <trkpt lat="45.91316" lon="6.84584">
        <ele>1369</ele>
        <time>2022-08-26T16:16:36Z</time>
      </trkpt>
      <trkpt lat="45.91313" lon="6.84584">
        <ele>1369</ele>
        <time>2022-08-26T16:16:37Z</time>
      </trkpt>
      <trkpt lat="45.91311" lon="6.84583">
        <ele>1369</ele>
        <time>2022-08-26T16:16:38Z</time>
      </trkpt>
      <trkpt lat="45.91307" lon="6.84583">
        <ele>1369</ele>
        <time>2022-08-26T16:16:39Z</time>
      </trkpt>
      <trkpt lat="45.91306" lon="6.84583">
        <ele>1369</ele>
        <time>2022-08-26T16:16:40Z</time>
      </trkpt>
      <trkpt lat="45.91302" lon="6.84582">
        <ele>1369</ele>
        <time>2022-08-26T16:16:41Z</time>
      </trkpt>
      <trkpt lat="45.913" lon="6.84582">
        <ele>1369</ele>
        <time>2022-08-26T16:16:42Z</time>
      </trkpt>
      <trkpt lat="45.91297" lon="6.84582">
        <ele>1368</ele>
        <time>2022-08-26T16:16:43Z</time>
      </trkpt>
      <trkpt lat="45.91295" lon="6.84581">
        <ele>1368</ele>
        <time>2022-08-26T16:16:44Z</time>
      </trkpt>
      <trkpt lat="45.91292" lon="6.84581">
        <ele>1368</ele>
        <time>2022-08-26T16:16:45Z</time>
      </trkpt>
      <trkpt lat="45.91289" lon="6.84579">
        <ele>1368</ele>
        <time>2022-08-26T16:16:47Z</time>
      </trkpt>
      <trkpt lat="45.91285" lon="6.84578">
        <ele>1368</ele>
        <time>2022-08-26T16:16:48Z</time>
      </trkpt>
      <trkpt lat="45.91282" lon="6.84577">
        <ele>1368</ele>
        <time>2022-08-26T16:16:49Z</time>
      </trkpt>
      <trkpt lat="45.91272" lon="6.84571">
        <ele>1366</ele>
        <time>2022-08-26T16:16:54Z</time>
      </trkpt>
      <trkpt lat="45.9127" lon="6.8457">
        <ele>1366</ele>
        <time>2022-08-26T16:16:55Z</time>
      </trkpt>
      <trkpt lat="45.91269" lon="6.8457">
        <ele>1366</ele>
        <time>2022-08-26T16:16:56Z</time>
      </trkpt>
      <trkpt lat="45.91267" lon="6.8457">
        <ele>1366</ele>
        <time>2022-08-26T16:16:57Z</time>
      </trkpt>
      <trkpt lat="45.91265" lon="6.84569">
        <ele>1366</ele>
        <time>2022-08-26T16:16:58Z</time>
      </trkpt>
      <trkpt lat="45.91262" lon="6.84568">
        <ele>1366</ele>
        <time>2022-08-26T16:16:59Z</time>
      </trkpt>
      <trkpt lat="45.91258" lon="6.84566">
        <ele>1366</ele>
        <time>2022-08-26T16:17:00Z</time>
      </trkpt>
      <trkpt lat="45.91257" lon="6.84566">
        <ele>1366</ele>
        <time>2022-08-26T16:17:01Z</time>
      </trkpt>
      <trkpt lat="45.91253" lon="6.84565">
        <ele>1366</ele>
        <time>2022-08-26T16:17:02Z</time>
      </trkpt>
      <trkpt lat="45.91251" lon="6.84565">
        <ele>1366</ele>
        <time>2022-08-26T16:17:03Z</time>
      </trkpt>
      <trkpt lat="45.91249" lon="6.84565">
        <ele>1366</ele>
        <time>2022-08-26T16:17:04Z</time>
      </trkpt>
      <trkpt lat="45.91246" lon="6.84564">
        <ele>1365</ele>
        <time>2022-08-26T16:17:05Z</time>
      </trkpt>
      <trkpt lat="45.91244" lon="6.84563">
        <ele>1365</ele>
        <time>2022-08-26T16:17:06Z</time>
      </trkpt>
      <trkpt lat="45.91235" lon="6.84556">
        <ele>1366</ele>
        <time>2022-08-26T16:17:11Z</time>
      </trkpt>
      <trkpt lat="45.91232" lon="6.84553">
        <ele>1366</ele>
        <time>2022-08-26T16:17:12Z</time>
      </trkpt>
      <trkpt lat="45.91231" lon="6.84552">
        <ele>1366</ele>
        <time>2022-08-26T16:17:13Z</time>
      </trkpt>
      <trkpt lat="45.91227" lon="6.8455">
        <ele>1366</ele>
        <time>2022-08-26T16:17:14Z</time>
      </trkpt>
      <trkpt lat="45.91226" lon="6.8455">
        <ele>1366</ele>
        <time>2022-08-26T16:17:15Z</time>
      </trkpt>
      <trkpt lat="45.91222" lon="6.84548">
        <ele>1366</ele>
        <time>2022-08-26T16:17:16Z</time>
      </trkpt>
      <trkpt lat="45.91221" lon="6.84548">
        <ele>1366</ele>
        <time>2022-08-26T16:17:17Z</time>
      </trkpt>
      <trkpt lat="45.91218" lon="6.84547">
        <ele>1366</ele>
        <time>2022-08-26T16:17:18Z</time>
      </trkpt>
      <trkpt lat="45.91215" lon="6.84546">
        <ele>1366</ele>
        <time>2022-08-26T16:17:19Z</time>
      </trkpt>
      <trkpt lat="45.91212" lon="6.84545">
        <ele>1366</ele>
        <time>2022-08-26T16:17:20Z</time>
      </trkpt>
      <trkpt lat="45.91209" lon="6.84544">
        <ele>1366</ele>
        <time>2022-08-26T16:17:21Z</time>
      </trkpt>
      <trkpt lat="45.91208" lon="6.84544">
        <ele>1366</ele>
        <time>2022-08-26T16:17:22Z</time>
      </trkpt>
      <trkpt lat="45.91204" lon="6.84544">
        <ele>1366</ele>
        <time>2022-08-26T16:17:23Z</time>
      </trkpt>
      <trkpt lat="45.91203" lon="6.84544">
        <ele>1366</ele>
        <time>2022-08-26T16:17:24Z</time>
      </trkpt>
      <trkpt lat="45.91201" lon="6.84543">
        <ele>1366</ele>
        <time>2022-08-26T16:17:25Z</time>
      </trkpt>
      <trkpt lat="45.91199" lon="6.84542">
        <ele>1366</ele>
        <time>2022-08-26T16:17:26Z</time>
      </trkpt>
      <trkpt lat="45.91197" lon="6.84541">
        <ele>1365</ele>
        <time>2022-08-26T16:17:27Z</time>
      </trkpt>
      <trkpt lat="45.91195" lon="6.8454">
        <ele>1365</ele>
        <time>2022-08-26T16:17:28Z</time>
      </trkpt>
      <trkpt lat="45.91192" lon="6.84539">
        <ele>1365</ele>
        <time>2022-08-26T16:17:29Z</time>
      </trkpt>
      <trkpt lat="45.9119" lon="6.84537">
        <ele>1365</ele>
        <time>2022-08-26T16:17:30Z</time>
      </trkpt>
      <trkpt lat="45.91186" lon="6.84536">
        <ele>1365</ele>
        <time>2022-08-26T16:17:31Z</time>
      </trkpt>
      <trkpt lat="45.91184" lon="6.84535">
        <ele>1366</ele>
        <time>2022-08-26T16:17:32Z</time>
      </trkpt>
      <trkpt lat="45.9118" lon="6.84532">
        <ele>1366</ele>
        <time>2022-08-26T16:17:33Z</time>
      </trkpt>
      <trkpt lat="45.91179" lon="6.84531">
        <ele>1366</ele>
        <time>2022-08-26T16:17:34Z</time>
      </trkpt>
      <trkpt lat="45.91177" lon="6.84529">
        <ele>1366</ele>
        <time>2022-08-26T16:17:35Z</time>
      </trkpt>
      <trkpt lat="45.91173" lon="6.84526">
        <ele>1366</ele>
        <time>2022-08-26T16:17:36Z</time>
      </trkpt>
      <trkpt lat="45.91171" lon="6.84526">
        <ele>1366</ele>
        <time>2022-08-26T16:17:37Z</time>
      </trkpt>
      <trkpt lat="45.91169" lon="6.84524">
        <ele>1366</ele>
        <time>2022-08-26T16:17:38Z</time>
      </trkpt>
      <trkpt lat="45.91167" lon="6.84521">
        <ele>1366</ele>
        <time>2022-08-26T16:17:39Z</time>
      </trkpt>
      <trkpt lat="45.91166" lon="6.84519">
        <ele>1367</ele>
        <time>2022-08-26T16:17:40Z</time>
      </trkpt>
      <trkpt lat="45.91164" lon="6.84514">
        <ele>1367</ele>
        <time>2022-08-26T16:17:41Z</time>
      </trkpt>
      <trkpt lat="45.91163" lon="6.84513">
        <ele>1367</ele>
        <time>2022-08-26T16:17:42Z</time>
      </trkpt>
      <trkpt lat="45.91161" lon="6.8451">
        <ele>1367</ele>
        <time>2022-08-26T16:17:43Z</time>
      </trkpt>
      <trkpt lat="45.91159" lon="6.84508">
        <ele>1367</ele>
        <time>2022-08-26T16:17:44Z</time>
      </trkpt>
      <trkpt lat="45.91157" lon="6.84506">
        <ele>1367</ele>
        <time>2022-08-26T16:17:45Z</time>
      </trkpt>
      <trkpt lat="45.91155" lon="6.84504">
        <ele>1367</ele>
        <time>2022-08-26T16:17:46Z</time>
      </trkpt>
      <trkpt lat="45.91152" lon="6.84502">
        <ele>1367</ele>
        <time>2022-08-26T16:17:47Z</time>
      </trkpt>
      <trkpt lat="45.9115" lon="6.84501">
        <ele>1367</ele>
        <time>2022-08-26T16:17:48Z</time>
      </trkpt>
      <trkpt lat="45.91148" lon="6.84499">
        <ele>1367</ele>
        <time>2022-08-26T16:17:49Z</time>
      </trkpt>
      <trkpt lat="45.91145" lon="6.84497">
        <ele>1367</ele>
        <time>2022-08-26T16:17:50Z</time>
      </trkpt>
      <trkpt lat="45.91143" lon="6.84496">
        <ele>1368</ele>
        <time>2022-08-26T16:17:51Z</time>
      </trkpt>
      <trkpt lat="45.91142" lon="6.84494">
        <ele>1368</ele>
        <time>2022-08-26T16:17:52Z</time>
      </trkpt>
      <trkpt lat="45.9114" lon="6.84493">
        <ele>1368</ele>
        <time>2022-08-26T16:17:53Z</time>
      </trkpt>
      <trkpt lat="45.91138" lon="6.84491">
        <ele>1368</ele>
        <time>2022-08-26T16:17:54Z</time>
      </trkpt>
      <trkpt lat="45.91137" lon="6.84489">
        <ele>1368</ele>
        <time>2022-08-26T16:17:55Z</time>
      </trkpt>
      <trkpt lat="45.91134" lon="6.84485">
        <ele>1368</ele>
        <time>2022-08-26T16:17:56Z</time>
      </trkpt>
      <trkpt lat="45.91133" lon="6.84484">
        <ele>1369</ele>
        <time>2022-08-26T16:17:57Z</time>
      </trkpt>
      <trkpt lat="45.91131" lon="6.84482">
        <ele>1370</ele>
        <time>2022-08-26T16:17:58Z</time>
      </trkpt>
      <trkpt lat="45.9113" lon="6.84479">
        <ele>1370</ele>
        <time>2022-08-26T16:17:59Z</time>
      </trkpt>
      <trkpt lat="45.91128" lon="6.84476">
        <ele>1370</ele>
        <time>2022-08-26T16:18:00Z</time>
      </trkpt>
      <trkpt lat="45.91126" lon="6.84472">
        <ele>1370</ele>
        <time>2022-08-26T16:18:01Z</time>
      </trkpt>
      <trkpt lat="45.91126" lon="6.84471">
        <ele>1370</ele>
        <time>2022-08-26T16:18:02Z</time>
      </trkpt>
      <trkpt lat="45.91123" lon="6.84468">
        <ele>1370</ele>
        <time>2022-08-26T16:18:03Z</time>
      </trkpt>
      <trkpt lat="45.91122" lon="6.84467">
        <ele>1370</ele>
        <time>2022-08-26T16:18:04Z</time>
      </trkpt>
      <trkpt lat="45.9112" lon="6.84466">
        <ele>1370</ele>
        <time>2022-08-26T16:18:05Z</time>
      </trkpt>
      <trkpt lat="45.91118" lon="6.84464">
        <ele>1371</ele>
        <time>2022-08-26T16:18:06Z</time>
      </trkpt>
      <trkpt lat="45.91116" lon="6.84461">
        <ele>1371</ele>
        <time>2022-08-26T16:18:07Z</time>
      </trkpt>
      <trkpt lat="45.91115" lon="6.8446">
        <ele>1371</ele>
        <time>2022-08-26T16:18:08Z</time>
      </trkpt>
      <trkpt lat="45.91113" lon="6.84457">
        <ele>1371</ele>
        <time>2022-08-26T16:18:09Z</time>
      </trkpt>
      <trkpt lat="45.91112" lon="6.84456">
        <ele>1371</ele>
        <time>2022-08-26T16:18:10Z</time>
      </trkpt>
      <trkpt lat="45.9111" lon="6.84453">
        <ele>1371</ele>
        <time>2022-08-26T16:18:11Z</time>
      </trkpt>
      <trkpt lat="45.91108" lon="6.84451">
        <ele>1371</ele>
        <time>2022-08-26T16:18:12Z</time>
      </trkpt>
      <trkpt lat="45.91107" lon="6.84448">
        <ele>1371</ele>
        <time>2022-08-26T16:18:13Z</time>
      </trkpt>
      <trkpt lat="45.91104" lon="6.84444">
        <ele>1371</ele>
        <time>2022-08-26T16:18:14Z</time>
      </trkpt>
      <trkpt lat="45.91103" lon="6.84443">
        <ele>1371</ele>
        <time>2022-08-26T16:18:15Z</time>
      </trkpt>
      <trkpt lat="45.91101" lon="6.84441">
        <ele>1371</ele>
        <time>2022-08-26T16:18:16Z</time>
      </trkpt>
      <trkpt lat="45.91098" lon="6.84437">
        <ele>1371</ele>
        <time>2022-08-26T16:18:17Z</time>
      </trkpt>
      <trkpt lat="45.91096" lon="6.84436">
        <ele>1371</ele>
        <time>2022-08-26T16:18:18Z</time>
      </trkpt>
      <trkpt lat="45.91094" lon="6.84433">
        <ele>1371</ele>
        <time>2022-08-26T16:18:19Z</time>
      </trkpt>
      <trkpt lat="45.91092" lon="6.8443">
        <ele>1371</ele>
        <time>2022-08-26T16:18:20Z</time>
      </trkpt>
      <trkpt lat="45.9109" lon="6.84428">
        <ele>1370</ele>
        <time>2022-08-26T16:18:21Z</time>
      </trkpt>
      <trkpt lat="45.91086" lon="6.84424">
        <ele>1370</ele>
        <time>2022-08-26T16:18:22Z</time>
      </trkpt>
      <trkpt lat="45.91085" lon="6.84423">
        <ele>1370</ele>
        <time>2022-08-26T16:18:23Z</time>
      </trkpt>
      <trkpt lat="45.91083" lon="6.84421">
        <ele>1370</ele>
        <time>2022-08-26T16:18:24Z</time>
      </trkpt>
      <trkpt lat="45.91081" lon="6.84419">
        <ele>1370</ele>
        <time>2022-08-26T16:18:25Z</time>
      </trkpt>
      <trkpt lat="45.91078" lon="6.84415">
        <ele>1370</ele>
        <time>2022-08-26T16:18:26Z</time>
      </trkpt>
      <trkpt lat="45.91077" lon="6.84414">
        <ele>1370</ele>
        <time>2022-08-26T16:18:27Z</time>
      </trkpt>
      <trkpt lat="45.91075" lon="6.84413">
        <ele>1371</ele>
        <time>2022-08-26T16:18:28Z</time>
      </trkpt>
      <trkpt lat="45.91073" lon="6.8441">
        <ele>1371</ele>
        <time>2022-08-26T16:18:29Z</time>
      </trkpt>
      <trkpt lat="45.9107" lon="6.84407">
        <ele>1371</ele>
        <time>2022-08-26T16:18:30Z</time>
      </trkpt>
      <trkpt lat="45.91069" lon="6.84406">
        <ele>1371</ele>
        <time>2022-08-26T16:18:31Z</time>
      </trkpt>
      <trkpt lat="45.91067" lon="6.84404">
        <ele>1371</ele>
        <time>2022-08-26T16:18:32Z</time>
      </trkpt>
      <trkpt lat="45.91065" lon="6.84401">
        <ele>1371</ele>
        <time>2022-08-26T16:18:33Z</time>
      </trkpt>
      <trkpt lat="45.91064" lon="6.84399">
        <ele>1371</ele>
        <time>2022-08-26T16:18:34Z</time>
      </trkpt>
      <trkpt lat="45.91063" lon="6.84396">
        <ele>1371</ele>
        <time>2022-08-26T16:18:35Z</time>
      </trkpt>
      <trkpt lat="45.91062" lon="6.84393">
        <ele>1371</ele>
        <time>2022-08-26T16:18:36Z</time>
      </trkpt>
      <trkpt lat="45.9106" lon="6.8439">
        <ele>1372</ele>
        <time>2022-08-26T16:18:37Z</time>
      </trkpt>
      <trkpt lat="45.91059" lon="6.84388">
        <ele>1372</ele>
        <time>2022-08-26T16:18:38Z</time>
      </trkpt>
      <trkpt lat="45.91057" lon="6.84386">
        <ele>1372</ele>
        <time>2022-08-26T16:18:39Z</time>
      </trkpt>
      <trkpt lat="45.91056" lon="6.84384">
        <ele>1372</ele>
        <time>2022-08-26T16:18:40Z</time>
      </trkpt>
      <trkpt lat="45.91053" lon="6.8438">
        <ele>1372</ele>
        <time>2022-08-26T16:18:41Z</time>
      </trkpt>
      <trkpt lat="45.91052" lon="6.84379">
        <ele>1372</ele>
        <time>2022-08-26T16:18:42Z</time>
      </trkpt>
      <trkpt lat="45.9105" lon="6.84375">
        <ele>1372</ele>
        <time>2022-08-26T16:18:43Z</time>
      </trkpt>
      <trkpt lat="45.9105" lon="6.84373">
        <ele>1374</ele>
        <time>2022-08-26T16:18:44Z</time>
      </trkpt>
      <trkpt lat="45.91047" lon="6.84369">
        <ele>1374</ele>
        <time>2022-08-26T16:18:45Z</time>
      </trkpt>
      <trkpt lat="45.91047" lon="6.84368">
        <ele>1374</ele>
        <time>2022-08-26T16:18:46Z</time>
      </trkpt>
      <trkpt lat="45.91045" lon="6.84363">
        <ele>1374</ele>
        <time>2022-08-26T16:18:47Z</time>
      </trkpt>
      <trkpt lat="45.91044" lon="6.84362">
        <ele>1373</ele>
        <time>2022-08-26T16:18:48Z</time>
      </trkpt>
      <trkpt lat="45.91042" lon="6.84358">
        <ele>1373</ele>
        <time>2022-08-26T16:18:49Z</time>
      </trkpt>
      <trkpt lat="45.91041" lon="6.84356">
        <ele>1373</ele>
        <time>2022-08-26T16:18:50Z</time>
      </trkpt>
      <trkpt lat="45.91039" lon="6.84353">
        <ele>1374</ele>
        <time>2022-08-26T16:18:51Z</time>
      </trkpt>
      <trkpt lat="45.91037" lon="6.84349">
        <ele>1374</ele>
        <time>2022-08-26T16:18:52Z</time>
      </trkpt>
      <trkpt lat="45.91036" lon="6.84348">
        <ele>1374</ele>
        <time>2022-08-26T16:18:53Z</time>
      </trkpt>
      <trkpt lat="45.91035" lon="6.84345">
        <ele>1374</ele>
        <time>2022-08-26T16:18:54Z</time>
      </trkpt>
      <trkpt lat="45.91033" lon="6.84342">
        <ele>1374</ele>
        <time>2022-08-26T16:18:55Z</time>
      </trkpt>
      <trkpt lat="45.91031" lon="6.8434">
        <ele>1374</ele>
        <time>2022-08-26T16:18:56Z</time>
      </trkpt>
      <trkpt lat="45.91029" lon="6.84336">
        <ele>1374</ele>
        <time>2022-08-26T16:18:57Z</time>
      </trkpt>
      <trkpt lat="45.91028" lon="6.84334">
        <ele>1374</ele>
        <time>2022-08-26T16:18:58Z</time>
      </trkpt>
      <trkpt lat="45.91026" lon="6.84332">
        <ele>1374</ele>
        <time>2022-08-26T16:18:59Z</time>
      </trkpt>
      <trkpt lat="45.91024" lon="6.84328">
        <ele>1374</ele>
        <time>2022-08-26T16:19:00Z</time>
      </trkpt>
      <trkpt lat="45.91023" lon="6.84326">
        <ele>1373</ele>
        <time>2022-08-26T16:19:01Z</time>
      </trkpt>
      <trkpt lat="45.91021" lon="6.84323">
        <ele>1373</ele>
        <time>2022-08-26T16:19:02Z</time>
      </trkpt>
      <trkpt lat="45.91019" lon="6.8432">
        <ele>1372</ele>
        <time>2022-08-26T16:19:03Z</time>
      </trkpt>
      <trkpt lat="45.91016" lon="6.84316">
        <ele>1372</ele>
        <time>2022-08-26T16:19:04Z</time>
      </trkpt>
      <trkpt lat="45.91015" lon="6.84315">
        <ele>1372</ele>
        <time>2022-08-26T16:19:05Z</time>
      </trkpt>
      <trkpt lat="45.91013" lon="6.8431">
        <ele>1372</ele>
        <time>2022-08-26T16:19:06Z</time>
      </trkpt>
      <trkpt lat="45.91012" lon="6.84309">
        <ele>1372</ele>
        <time>2022-08-26T16:19:07Z</time>
      </trkpt>
      <trkpt lat="45.91009" lon="6.84305">
        <ele>1372</ele>
        <time>2022-08-26T16:19:08Z</time>
      </trkpt>
      <trkpt lat="45.91008" lon="6.84304">
        <ele>1372</ele>
        <time>2022-08-26T16:19:09Z</time>
      </trkpt>
      <trkpt lat="45.91005" lon="6.84303">
        <ele>1372</ele>
        <time>2022-08-26T16:19:10Z</time>
      </trkpt>
      <trkpt lat="45.91002" lon="6.84301">
        <ele>1372</ele>
        <time>2022-08-26T16:19:11Z</time>
      </trkpt>
      <trkpt lat="45.91" lon="6.843">
        <ele>1372</ele>
        <time>2022-08-26T16:19:12Z</time>
      </trkpt>
      <trkpt lat="45.90997" lon="6.84298">
        <ele>1372</ele>
        <time>2022-08-26T16:19:13Z</time>
      </trkpt>
      <trkpt lat="45.90996" lon="6.84297">
        <ele>1372</ele>
        <time>2022-08-26T16:19:14Z</time>
      </trkpt>
      <trkpt lat="45.90994" lon="6.84295">
        <ele>1372</ele>
        <time>2022-08-26T16:19:15Z</time>
      </trkpt>
      <trkpt lat="45.90992" lon="6.84292">
        <ele>1372</ele>
        <time>2022-08-26T16:19:16Z</time>
      </trkpt>
      <trkpt lat="45.90991" lon="6.84291">
        <ele>1371</ele>
        <time>2022-08-26T16:19:17Z</time>
      </trkpt>
      <trkpt lat="45.90988" lon="6.84287">
        <ele>1371</ele>
        <time>2022-08-26T16:19:18Z</time>
      </trkpt>
      <trkpt lat="45.90987" lon="6.84286">
        <ele>1371</ele>
        <time>2022-08-26T16:19:19Z</time>
      </trkpt>
      <trkpt lat="45.90985" lon="6.84283">
        <ele>1371</ele>
        <time>2022-08-26T16:19:20Z</time>
      </trkpt>
      <trkpt lat="45.90984" lon="6.8428">
        <ele>1371</ele>
        <time>2022-08-26T16:19:21Z</time>
      </trkpt>
      <trkpt lat="45.90982" lon="6.84277">
        <ele>1371</ele>
        <time>2022-08-26T16:19:22Z</time>
      </trkpt>
      <trkpt lat="45.90981" lon="6.84274">
        <ele>1371</ele>
        <time>2022-08-26T16:19:23Z</time>
      </trkpt>
      <trkpt lat="45.90979" lon="6.84272">
        <ele>1371</ele>
        <time>2022-08-26T16:19:24Z</time>
      </trkpt>
      <trkpt lat="45.90976" lon="6.84265">
        <ele>1370</ele>
        <time>2022-08-26T16:19:26Z</time>
      </trkpt>
      <trkpt lat="45.90974" lon="6.84262">
        <ele>1370</ele>
        <time>2022-08-26T16:19:27Z</time>
      </trkpt>
      <trkpt lat="45.90973" lon="6.84261">
        <ele>1370</ele>
        <time>2022-08-26T16:19:28Z</time>
      </trkpt>
      <trkpt lat="45.90972" lon="6.84259">
        <ele>1370</ele>
        <time>2022-08-26T16:19:29Z</time>
      </trkpt>
      <trkpt lat="45.90972" lon="6.84258">
        <ele>1370</ele>
        <time>2022-08-26T16:19:31Z</time>
      </trkpt>
      <trkpt lat="45.90971" lon="6.84256">
        <ele>1370</ele>
        <time>2022-08-26T16:19:32Z</time>
      </trkpt>
      <trkpt lat="45.90966" lon="6.84246">
        <ele>1370</ele>
        <time>2022-08-26T16:19:33Z</time>
      </trkpt>
      <trkpt lat="45.90964" lon="6.84243">
        <ele>1370</ele>
        <time>2022-08-26T16:19:34Z</time>
      </trkpt>
      <trkpt lat="45.90963" lon="6.8424">
        <ele>1370</ele>
        <time>2022-08-26T16:19:35Z</time>
      </trkpt>
      <trkpt lat="45.90961" lon="6.84237">
        <ele>1370</ele>
        <time>2022-08-26T16:19:36Z</time>
      </trkpt>
      <trkpt lat="45.90959" lon="6.84233">
        <ele>1370</ele>
        <time>2022-08-26T16:19:37Z</time>
      </trkpt>
      <trkpt lat="45.90957" lon="6.84229">
        <ele>1370</ele>
        <time>2022-08-26T16:19:38Z</time>
      </trkpt>
      <trkpt lat="45.90955" lon="6.84225">
        <ele>1370</ele>
        <time>2022-08-26T16:19:39Z</time>
      </trkpt>
      <trkpt lat="45.90953" lon="6.8422">
        <ele>1369</ele>
        <time>2022-08-26T16:19:40Z</time>
      </trkpt>
      <trkpt lat="45.90951" lon="6.84216">
        <ele>1369</ele>
        <time>2022-08-26T16:19:41Z</time>
      </trkpt>
      <trkpt lat="45.90949" lon="6.84212">
        <ele>1369</ele>
        <time>2022-08-26T16:19:42Z</time>
      </trkpt>
      <trkpt lat="45.90946" lon="6.84207">
        <ele>1369</ele>
        <time>2022-08-26T16:19:43Z</time>
      </trkpt>
      <trkpt lat="45.90942" lon="6.842">
        <ele>1369</ele>
        <time>2022-08-26T16:19:45Z</time>
      </trkpt>
      <trkpt lat="45.90936" lon="6.84188">
        <ele>1369</ele>
        <time>2022-08-26T16:19:49Z</time>
      </trkpt>
      <trkpt lat="45.90935" lon="6.84184">
        <ele>1369</ele>
        <time>2022-08-26T16:19:50Z</time>
      </trkpt>
      <trkpt lat="45.90934" lon="6.84181">
        <ele>1370</ele>
        <time>2022-08-26T16:19:51Z</time>
      </trkpt>
      <trkpt lat="45.90934" lon="6.84178">
        <ele>1370</ele>
        <time>2022-08-26T16:19:52Z</time>
      </trkpt>
      <trkpt lat="45.90932" lon="6.84176">
        <ele>1370</ele>
        <time>2022-08-26T16:19:53Z</time>
      </trkpt>
      <trkpt lat="45.90931" lon="6.84173">
        <ele>1370</ele>
        <time>2022-08-26T16:19:54Z</time>
      </trkpt>
      <trkpt lat="45.9093" lon="6.8417">
        <ele>1370</ele>
        <time>2022-08-26T16:19:55Z</time>
      </trkpt>
      <trkpt lat="45.90929" lon="6.84167">
        <ele>1370</ele>
        <time>2022-08-26T16:19:56Z</time>
      </trkpt>
      <trkpt lat="45.90927" lon="6.84162">
        <ele>1370</ele>
        <time>2022-08-26T16:19:57Z</time>
      </trkpt>
      <trkpt lat="45.90927" lon="6.8416">
        <ele>1370</ele>
        <time>2022-08-26T16:19:58Z</time>
      </trkpt>
      <trkpt lat="45.90925" lon="6.84155">
        <ele>1370</ele>
        <time>2022-08-26T16:19:59Z</time>
      </trkpt>
      <trkpt lat="45.90924" lon="6.84154">
        <ele>1370</ele>
        <time>2022-08-26T16:20:00Z</time>
      </trkpt>
      <trkpt lat="45.90922" lon="6.84149">
        <ele>1370</ele>
        <time>2022-08-26T16:20:01Z</time>
      </trkpt>
      <trkpt lat="45.90921" lon="6.84147">
        <ele>1370</ele>
        <time>2022-08-26T16:20:02Z</time>
      </trkpt>
      <trkpt lat="45.90919" lon="6.84142">
        <ele>1370</ele>
        <time>2022-08-26T16:20:03Z</time>
      </trkpt>
      <trkpt lat="45.90918" lon="6.84141">
        <ele>1370</ele>
        <time>2022-08-26T16:20:04Z</time>
      </trkpt>
      <trkpt lat="45.90915" lon="6.84136">
        <ele>1370</ele>
        <time>2022-08-26T16:20:05Z</time>
      </trkpt>
      <trkpt lat="45.90915" lon="6.84134">
        <ele>1370</ele>
        <time>2022-08-26T16:20:06Z</time>
      </trkpt>
      <trkpt lat="45.90913" lon="6.84131">
        <ele>1370</ele>
        <time>2022-08-26T16:20:07Z</time>
      </trkpt>
      <trkpt lat="45.90912" lon="6.84128">
        <ele>1370</ele>
        <time>2022-08-26T16:20:08Z</time>
      </trkpt>
      <trkpt lat="45.90911" lon="6.84124">
        <ele>1370</ele>
        <time>2022-08-26T16:20:09Z</time>
      </trkpt>
      <trkpt lat="45.9091" lon="6.84119">
        <ele>1370</ele>
        <time>2022-08-26T16:20:10Z</time>
      </trkpt>
      <trkpt lat="45.90909" lon="6.84117">
        <ele>1371</ele>
        <time>2022-08-26T16:20:11Z</time>
      </trkpt>
      <trkpt lat="45.90908" lon="6.84111">
        <ele>1371</ele>
        <time>2022-08-26T16:20:12Z</time>
      </trkpt>
      <trkpt lat="45.90908" lon="6.8411">
        <ele>1372</ele>
        <time>2022-08-26T16:20:13Z</time>
      </trkpt>
      <trkpt lat="45.90908" lon="6.84106">
        <ele>1372</ele>
        <time>2022-08-26T16:20:14Z</time>
      </trkpt>
      <trkpt lat="45.90907" lon="6.84103">
        <ele>1372</ele>
        <time>2022-08-26T16:20:15Z</time>
      </trkpt>
      <trkpt lat="45.90907" lon="6.84099">
        <ele>1372</ele>
        <time>2022-08-26T16:20:16Z</time>
      </trkpt>
      <trkpt lat="45.90907" lon="6.84093">
        <ele>1372</ele>
        <time>2022-08-26T16:20:17Z</time>
      </trkpt>
      <trkpt lat="45.90907" lon="6.84091">
        <ele>1372</ele>
        <time>2022-08-26T16:20:18Z</time>
      </trkpt>
      <trkpt lat="45.90907" lon="6.84087">
        <ele>1372</ele>
        <time>2022-08-26T16:20:19Z</time>
      </trkpt>
      <trkpt lat="45.90907" lon="6.84083">
        <ele>1372</ele>
        <time>2022-08-26T16:20:20Z</time>
      </trkpt>
      <trkpt lat="45.90906" lon="6.8408">
        <ele>1372</ele>
        <time>2022-08-26T16:20:21Z</time>
      </trkpt>
      <trkpt lat="45.90905" lon="6.84077">
        <ele>1372</ele>
        <time>2022-08-26T16:20:22Z</time>
      </trkpt>
      <trkpt lat="45.90903" lon="6.84074">
        <ele>1372</ele>
        <time>2022-08-26T16:20:23Z</time>
      </trkpt>
      <trkpt lat="45.90901" lon="6.84069">
        <ele>1372</ele>
        <time>2022-08-26T16:20:24Z</time>
      </trkpt>
      <trkpt lat="45.909" lon="6.84067">
        <ele>1372</ele>
        <time>2022-08-26T16:20:25Z</time>
      </trkpt>
      <trkpt lat="45.90899" lon="6.84063">
        <ele>1372</ele>
        <time>2022-08-26T16:20:26Z</time>
      </trkpt>
      <trkpt lat="45.90897" lon="6.8406">
        <ele>1372</ele>
        <time>2022-08-26T16:20:27Z</time>
      </trkpt>
      <trkpt lat="45.90896" lon="6.84056">
        <ele>1372</ele>
        <time>2022-08-26T16:20:28Z</time>
      </trkpt>
      <trkpt lat="45.90895" lon="6.84052">
        <ele>1372</ele>
        <time>2022-08-26T16:20:29Z</time>
      </trkpt>
      <trkpt lat="45.90894" lon="6.84049">
        <ele>1372</ele>
        <time>2022-08-26T16:20:30Z</time>
      </trkpt>
      <trkpt lat="45.90893" lon="6.84044">
        <ele>1372</ele>
        <time>2022-08-26T16:20:31Z</time>
      </trkpt>
      <trkpt lat="45.90891" lon="6.84041">
        <ele>1372</ele>
        <time>2022-08-26T16:20:32Z</time>
      </trkpt>
      <trkpt lat="45.90889" lon="6.84038">
        <ele>1371</ele>
        <time>2022-08-26T16:20:33Z</time>
      </trkpt>
      <trkpt lat="45.90888" lon="6.84035">
        <ele>1371</ele>
        <time>2022-08-26T16:20:34Z</time>
      </trkpt>
      <trkpt lat="45.90886" lon="6.84032">
        <ele>1371</ele>
        <time>2022-08-26T16:20:35Z</time>
      </trkpt>
      <trkpt lat="45.90885" lon="6.84029">
        <ele>1371</ele>
        <time>2022-08-26T16:20:36Z</time>
      </trkpt>
      <trkpt lat="45.90883" lon="6.84024">
        <ele>1371</ele>
        <time>2022-08-26T16:20:37Z</time>
      </trkpt>
      <trkpt lat="45.90883" lon="6.84023">
        <ele>1371</ele>
        <time>2022-08-26T16:20:38Z</time>
      </trkpt>
      <trkpt lat="45.90881" lon="6.84017">
        <ele>1371</ele>
        <time>2022-08-26T16:20:39Z</time>
      </trkpt>
      <trkpt lat="45.90881" lon="6.84015">
        <ele>1371</ele>
        <time>2022-08-26T16:20:40Z</time>
      </trkpt>
      <trkpt lat="45.90879" lon="6.84009">
        <ele>1371</ele>
        <time>2022-08-26T16:20:41Z</time>
      </trkpt>
      <trkpt lat="45.90879" lon="6.84008">
        <ele>1370</ele>
        <time>2022-08-26T16:20:42Z</time>
      </trkpt>
      <trkpt lat="45.90878" lon="6.84004">
        <ele>1370</ele>
        <time>2022-08-26T16:20:43Z</time>
      </trkpt>
      <trkpt lat="45.90878" lon="6.84">
        <ele>1370</ele>
        <time>2022-08-26T16:20:44Z</time>
      </trkpt>
      <trkpt lat="45.90877" lon="6.83996">
        <ele>1370</ele>
        <time>2022-08-26T16:20:45Z</time>
      </trkpt>
      <trkpt lat="45.90876" lon="6.8399">
        <ele>1370</ele>
        <time>2022-08-26T16:20:46Z</time>
      </trkpt>
      <trkpt lat="45.90876" lon="6.83988">
        <ele>1370</ele>
        <time>2022-08-26T16:20:47Z</time>
      </trkpt>
      <trkpt lat="45.90876" lon="6.83982">
        <ele>1370</ele>
        <time>2022-08-26T16:20:48Z</time>
      </trkpt>
      <trkpt lat="45.90876" lon="6.8398">
        <ele>1370</ele>
        <time>2022-08-26T16:20:49Z</time>
      </trkpt>
      <trkpt lat="45.90876" lon="6.83977">
        <ele>1370</ele>
        <time>2022-08-26T16:20:50Z</time>
      </trkpt>
      <trkpt lat="45.90875" lon="6.83974">
        <ele>1370</ele>
        <time>2022-08-26T16:20:51Z</time>
      </trkpt>
      <trkpt lat="45.90875" lon="6.83971">
        <ele>1370</ele>
        <time>2022-08-26T16:20:52Z</time>
      </trkpt>
      <trkpt lat="45.90873" lon="6.83967">
        <ele>1370</ele>
        <time>2022-08-26T16:20:53Z</time>
      </trkpt>
      <trkpt lat="45.90872" lon="6.83966">
        <ele>1369</ele>
        <time>2022-08-26T16:20:54Z</time>
      </trkpt>
      <trkpt lat="45.9087" lon="6.83961">
        <ele>1369</ele>
        <time>2022-08-26T16:20:55Z</time>
      </trkpt>
      <trkpt lat="45.90869" lon="6.8396">
        <ele>1369</ele>
        <time>2022-08-26T16:20:56Z</time>
      </trkpt>
      <trkpt lat="45.90867" lon="6.83957">
        <ele>1369</ele>
        <time>2022-08-26T16:20:57Z</time>
      </trkpt>
      <trkpt lat="45.90866" lon="6.83954">
        <ele>1369</ele>
        <time>2022-08-26T16:20:58Z</time>
      </trkpt>
      <trkpt lat="45.90865" lon="6.83951">
        <ele>1369</ele>
        <time>2022-08-26T16:20:59Z</time>
      </trkpt>
      <trkpt lat="45.90863" lon="6.83948">
        <ele>1369</ele>
        <time>2022-08-26T16:21:00Z</time>
      </trkpt>
      <trkpt lat="45.90861" lon="6.83945">
        <ele>1369</ele>
        <time>2022-08-26T16:21:01Z</time>
      </trkpt>
      <trkpt lat="45.90859" lon="6.8394">
        <ele>1369</ele>
        <time>2022-08-26T16:21:02Z</time>
      </trkpt>
      <trkpt lat="45.90858" lon="6.83938">
        <ele>1369</ele>
        <time>2022-08-26T16:21:03Z</time>
      </trkpt>
      <trkpt lat="45.90857" lon="6.83934">
        <ele>1369</ele>
        <time>2022-08-26T16:21:04Z</time>
      </trkpt>
      <trkpt lat="45.90855" lon="6.8393">
        <ele>1369</ele>
        <time>2022-08-26T16:21:05Z</time>
      </trkpt>
      <trkpt lat="45.90854" lon="6.83927">
        <ele>1369</ele>
        <time>2022-08-26T16:21:06Z</time>
      </trkpt>
      <trkpt lat="45.90853" lon="6.83922">
        <ele>1368</ele>
        <time>2022-08-26T16:21:08Z</time>
      </trkpt>
      <trkpt lat="45.90851" lon="6.83918">
        <ele>1368</ele>
        <time>2022-08-26T16:21:09Z</time>
      </trkpt>
      <trkpt lat="45.9085" lon="6.83913">
        <ele>1367</ele>
        <time>2022-08-26T16:21:10Z</time>
      </trkpt>
      <trkpt lat="45.90849" lon="6.8391">
        <ele>1367</ele>
        <time>2022-08-26T16:21:11Z</time>
      </trkpt>
      <trkpt lat="45.90847" lon="6.83907">
        <ele>1368</ele>
        <time>2022-08-26T16:21:12Z</time>
      </trkpt>
      <trkpt lat="45.90846" lon="6.83905">
        <ele>1368</ele>
        <time>2022-08-26T16:21:13Z</time>
      </trkpt>
      <trkpt lat="45.90843" lon="6.83899">
        <ele>1368</ele>
        <time>2022-08-26T16:21:14Z</time>
      </trkpt>
      <trkpt lat="45.90842" lon="6.83897">
        <ele>1367</ele>
        <time>2022-08-26T16:21:15Z</time>
      </trkpt>
      <trkpt lat="45.90841" lon="6.83894">
        <ele>1367</ele>
        <time>2022-08-26T16:21:16Z</time>
      </trkpt>
      <trkpt lat="45.90839" lon="6.83889">
        <ele>1367</ele>
        <time>2022-08-26T16:21:17Z</time>
      </trkpt>
      <trkpt lat="45.90839" lon="6.83887">
        <ele>1367</ele>
        <time>2022-08-26T16:21:18Z</time>
      </trkpt>
      <trkpt lat="45.90837" lon="6.83882">
        <ele>1367</ele>
        <time>2022-08-26T16:21:19Z</time>
      </trkpt>
      <trkpt lat="45.90837" lon="6.8388">
        <ele>1367</ele>
        <time>2022-08-26T16:21:20Z</time>
      </trkpt>
      <trkpt lat="45.90835" lon="6.83876">
        <ele>1367</ele>
        <time>2022-08-26T16:21:21Z</time>
      </trkpt>
      <trkpt lat="45.90834" lon="6.83873">
        <ele>1367</ele>
        <time>2022-08-26T16:21:22Z</time>
      </trkpt>
      <trkpt lat="45.90833" lon="6.83869">
        <ele>1367</ele>
        <time>2022-08-26T16:21:23Z</time>
      </trkpt>
      <trkpt lat="45.90831" lon="6.83865">
        <ele>1367</ele>
        <time>2022-08-26T16:21:24Z</time>
      </trkpt>
      <trkpt lat="45.90831" lon="6.83863">
        <ele>1366</ele>
        <time>2022-08-26T16:21:25Z</time>
      </trkpt>
      <trkpt lat="45.90829" lon="6.8386">
        <ele>1366</ele>
        <time>2022-08-26T16:21:26Z</time>
      </trkpt>
      <trkpt lat="45.90828" lon="6.83857">
        <ele>1366</ele>
        <time>2022-08-26T16:21:27Z</time>
      </trkpt>
      <trkpt lat="45.90827" lon="6.83854">
        <ele>1366</ele>
        <time>2022-08-26T16:21:28Z</time>
      </trkpt>
      <trkpt lat="45.90825" lon="6.83852">
        <ele>1366</ele>
        <time>2022-08-26T16:21:29Z</time>
      </trkpt>
      <trkpt lat="45.90824" lon="6.8385">
        <ele>1366</ele>
        <time>2022-08-26T16:21:30Z</time>
      </trkpt>
      <trkpt lat="45.90823" lon="6.83848">
        <ele>1366</ele>
        <time>2022-08-26T16:21:31Z</time>
      </trkpt>
      <trkpt lat="45.90821" lon="6.83846">
        <ele>1365</ele>
        <time>2022-08-26T16:21:33Z</time>
      </trkpt>
      <trkpt lat="45.9082" lon="6.83845">
        <ele>1365</ele>
        <time>2022-08-26T16:21:34Z</time>
      </trkpt>
      <trkpt lat="45.90814" lon="6.83839">
        <ele>1365</ele>
        <time>2022-08-26T16:21:35Z</time>
      </trkpt>
      <trkpt lat="45.90813" lon="6.83837">
        <ele>1364</ele>
        <time>2022-08-26T16:21:37Z</time>
      </trkpt>
      <trkpt lat="45.90811" lon="6.83835">
        <ele>1364</ele>
        <time>2022-08-26T16:21:38Z</time>
      </trkpt>
      <trkpt lat="45.90806" lon="6.83831">
        <ele>1363</ele>
        <time>2022-08-26T16:21:39Z</time>
      </trkpt>
      <trkpt lat="45.90799" lon="6.83822">
        <ele>1362</ele>
        <time>2022-08-26T16:21:41Z</time>
      </trkpt>
      <trkpt lat="45.90797" lon="6.83819">
        <ele>1362</ele>
        <time>2022-08-26T16:21:42Z</time>
      </trkpt>
      <trkpt lat="45.90795" lon="6.83816">
        <ele>1362</ele>
        <time>2022-08-26T16:21:43Z</time>
      </trkpt>
      <trkpt lat="45.90794" lon="6.83813">
        <ele>1361</ele>
        <time>2022-08-26T16:21:44Z</time>
      </trkpt>
      <trkpt lat="45.90792" lon="6.8381">
        <ele>1361</ele>
        <time>2022-08-26T16:21:45Z</time>
      </trkpt>
      <trkpt lat="45.9079" lon="6.83807">
        <ele>1361</ele>
        <time>2022-08-26T16:21:46Z</time>
      </trkpt>
      <trkpt lat="45.90788" lon="6.83801">
        <ele>1361</ele>
        <time>2022-08-26T16:21:47Z</time>
      </trkpt>
      <trkpt lat="45.90787" lon="6.83797">
        <ele>1361</ele>
        <time>2022-08-26T16:21:48Z</time>
      </trkpt>
      <trkpt lat="45.90786" lon="6.83793">
        <ele>1360</ele>
        <time>2022-08-26T16:21:49Z</time>
      </trkpt>
      <trkpt lat="45.90784" lon="6.83789">
        <ele>1359</ele>
        <time>2022-08-26T16:21:50Z</time>
      </trkpt>
      <trkpt lat="45.90782" lon="6.83785">
        <ele>1359</ele>
        <time>2022-08-26T16:21:51Z</time>
      </trkpt>
      <trkpt lat="45.9078" lon="6.83782">
        <ele>1358</ele>
        <time>2022-08-26T16:21:52Z</time>
      </trkpt>
      <trkpt lat="45.90778" lon="6.83776">
        <ele>1358</ele>
        <time>2022-08-26T16:21:53Z</time>
      </trkpt>
      <trkpt lat="45.90777" lon="6.83774">
        <ele>1358</ele>
        <time>2022-08-26T16:21:54Z</time>
      </trkpt>
      <trkpt lat="45.90776" lon="6.8377">
        <ele>1358</ele>
        <time>2022-08-26T16:21:55Z</time>
      </trkpt>
      <trkpt lat="45.90773" lon="6.83761">
        <ele>1357</ele>
        <time>2022-08-26T16:21:57Z</time>
      </trkpt>
      <trkpt lat="45.90772" lon="6.83756">
        <ele>1356</ele>
        <time>2022-08-26T16:21:58Z</time>
      </trkpt>
      <trkpt lat="45.90772" lon="6.83751">
        <ele>1356</ele>
        <time>2022-08-26T16:21:59Z</time>
      </trkpt>
      <trkpt lat="45.90771" lon="6.83744">
        <ele>1356</ele>
        <time>2022-08-26T16:22:00Z</time>
      </trkpt>
      <trkpt lat="45.90771" lon="6.83741">
        <ele>1356</ele>
        <time>2022-08-26T16:22:01Z</time>
      </trkpt>
      <trkpt lat="45.9077" lon="6.83737">
        <ele>1356</ele>
        <time>2022-08-26T16:22:02Z</time>
      </trkpt>
      <trkpt lat="45.90768" lon="6.83731">
        <ele>1356</ele>
        <time>2022-08-26T16:22:03Z</time>
      </trkpt>
      <trkpt lat="45.90767" lon="6.83729">
        <ele>1356</ele>
        <time>2022-08-26T16:22:04Z</time>
      </trkpt>
      <trkpt lat="45.90767" lon="6.83725">
        <ele>1356</ele>
        <time>2022-08-26T16:22:05Z</time>
      </trkpt>
      <trkpt lat="45.90766" lon="6.8372">
        <ele>1356</ele>
        <time>2022-08-26T16:22:06Z</time>
      </trkpt>
      <trkpt lat="45.90766" lon="6.83716">
        <ele>1356</ele>
        <time>2022-08-26T16:22:07Z</time>
      </trkpt>
      <trkpt lat="45.90767" lon="6.83711">
        <ele>1356</ele>
        <time>2022-08-26T16:22:08Z</time>
      </trkpt>
      <trkpt lat="45.90767" lon="6.83709">
        <ele>1356</ele>
        <time>2022-08-26T16:22:09Z</time>
      </trkpt>
      <trkpt lat="45.90768" lon="6.83705">
        <ele>1356</ele>
        <time>2022-08-26T16:22:10Z</time>
      </trkpt>
      <trkpt lat="45.90768" lon="6.83702">
        <ele>1356</ele>
        <time>2022-08-26T16:22:11Z</time>
      </trkpt>
      <trkpt lat="45.90768" lon="6.83699">
        <ele>1356</ele>
        <time>2022-08-26T16:22:12Z</time>
      </trkpt>
      <trkpt lat="45.90769" lon="6.83696">
        <ele>1356</ele>
        <time>2022-08-26T16:22:13Z</time>
      </trkpt>
      <trkpt lat="45.90769" lon="6.83693">
        <ele>1356</ele>
        <time>2022-08-26T16:22:14Z</time>
      </trkpt>
      <trkpt lat="45.90769" lon="6.83689">
        <ele>1356</ele>
        <time>2022-08-26T16:22:15Z</time>
      </trkpt>
      <trkpt lat="45.9077" lon="6.83684">
        <ele>1356</ele>
        <time>2022-08-26T16:22:16Z</time>
      </trkpt>
      <trkpt lat="45.9077" lon="6.83682">
        <ele>1356</ele>
        <time>2022-08-26T16:22:17Z</time>
      </trkpt>
      <trkpt lat="45.90771" lon="6.83678">
        <ele>1356</ele>
        <time>2022-08-26T16:22:18Z</time>
      </trkpt>
      <trkpt lat="45.90771" lon="6.83675">
        <ele>1356</ele>
        <time>2022-08-26T16:22:19Z</time>
      </trkpt>
      <trkpt lat="45.90772" lon="6.83671">
        <ele>1356</ele>
        <time>2022-08-26T16:22:20Z</time>
      </trkpt>
      <trkpt lat="45.90772" lon="6.83668">
        <ele>1356</ele>
        <time>2022-08-26T16:22:21Z</time>
      </trkpt>
      <trkpt lat="45.90773" lon="6.83664">
        <ele>1356</ele>
        <time>2022-08-26T16:22:22Z</time>
      </trkpt>
      <trkpt lat="45.90774" lon="6.83659">
        <ele>1356</ele>
        <time>2022-08-26T16:22:23Z</time>
      </trkpt>
      <trkpt lat="45.90774" lon="6.83654">
        <ele>1356</ele>
        <time>2022-08-26T16:22:24Z</time>
      </trkpt>
      <trkpt lat="45.90774" lon="6.83653">
        <ele>1356</ele>
        <time>2022-08-26T16:22:25Z</time>
      </trkpt>
      <trkpt lat="45.90773" lon="6.83649">
        <ele>1356</ele>
        <time>2022-08-26T16:22:26Z</time>
      </trkpt>
      <trkpt lat="45.90773" lon="6.83646">
        <ele>1356</ele>
        <time>2022-08-26T16:22:27Z</time>
      </trkpt>
      <trkpt lat="45.90773" lon="6.83642">
        <ele>1356</ele>
        <time>2022-08-26T16:22:28Z</time>
      </trkpt>
      <trkpt lat="45.90773" lon="6.83637">
        <ele>1356</ele>
        <time>2022-08-26T16:22:29Z</time>
      </trkpt>
      <trkpt lat="45.90773" lon="6.83635">
        <ele>1356</ele>
        <time>2022-08-26T16:22:30Z</time>
      </trkpt>
      <trkpt lat="45.90772" lon="6.83632">
        <ele>1356</ele>
        <time>2022-08-26T16:22:31Z</time>
      </trkpt>
      <trkpt lat="45.90769" lon="6.83622">
        <ele>1356</ele>
        <time>2022-08-26T16:22:34Z</time>
      </trkpt>
      <trkpt lat="45.90767" lon="6.8362">
        <ele>1356</ele>
        <time>2022-08-26T16:22:35Z</time>
      </trkpt>
      <trkpt lat="45.90766" lon="6.83617">
        <ele>1356</ele>
        <time>2022-08-26T16:22:36Z</time>
      </trkpt>
      <trkpt lat="45.90764" lon="6.83615">
        <ele>1356</ele>
        <time>2022-08-26T16:22:38Z</time>
      </trkpt>
      <trkpt lat="45.90762" lon="6.83613">
        <ele>1356</ele>
        <time>2022-08-26T16:22:39Z</time>
      </trkpt>
      <trkpt lat="45.90761" lon="6.83611">
        <ele>1356</ele>
        <time>2022-08-26T16:22:40Z</time>
      </trkpt>
      <trkpt lat="45.90759" lon="6.83608">
        <ele>1356</ele>
        <time>2022-08-26T16:22:41Z</time>
      </trkpt>
      <trkpt lat="45.90756" lon="6.83606">
        <ele>1356</ele>
        <time>2022-08-26T16:22:42Z</time>
      </trkpt>
      <trkpt lat="45.90753" lon="6.83603">
        <ele>1356</ele>
        <time>2022-08-26T16:22:43Z</time>
      </trkpt>
      <trkpt lat="45.90751" lon="6.836">
        <ele>1356</ele>
        <time>2022-08-26T16:22:44Z</time>
      </trkpt>
      <trkpt lat="45.90746" lon="6.83598">
        <ele>1356</ele>
        <time>2022-08-26T16:22:46Z</time>
      </trkpt>
      <trkpt lat="45.90742" lon="6.83596">
        <ele>1356</ele>
        <time>2022-08-26T16:22:47Z</time>
      </trkpt>
      <trkpt lat="45.90733" lon="6.83589">
        <ele>1356</ele>
        <time>2022-08-26T16:22:51Z</time>
      </trkpt>
      <trkpt lat="45.90732" lon="6.83588">
        <ele>1356</ele>
        <time>2022-08-26T16:22:53Z</time>
      </trkpt>
      <trkpt lat="45.9073" lon="6.83587">
        <ele>1356</ele>
        <time>2022-08-26T16:22:54Z</time>
      </trkpt>
      <trkpt lat="45.90729" lon="6.83587">
        <ele>1356</ele>
        <time>2022-08-26T16:22:55Z</time>
      </trkpt>
      <trkpt lat="45.9072" lon="6.83581">
        <ele>1356</ele>
        <time>2022-08-26T16:22:57Z</time>
      </trkpt>
      <trkpt lat="45.90717" lon="6.83579">
        <ele>1356</ele>
        <time>2022-08-26T16:22:58Z</time>
      </trkpt>
      <trkpt lat="45.90714" lon="6.83577">
        <ele>1356</ele>
        <time>2022-08-26T16:22:59Z</time>
      </trkpt>
      <trkpt lat="45.90712" lon="6.83576">
        <ele>1356</ele>
        <time>2022-08-26T16:23:00Z</time>
      </trkpt>
      <trkpt lat="45.90711" lon="6.83575">
        <ele>1356</ele>
        <time>2022-08-26T16:23:01Z</time>
      </trkpt>
      <trkpt lat="45.9071" lon="6.83573">
        <ele>1356</ele>
        <time>2022-08-26T16:23:02Z</time>
      </trkpt>
      <trkpt lat="45.90709" lon="6.83572">
        <ele>1356</ele>
        <time>2022-08-26T16:23:03Z</time>
      </trkpt>
      <trkpt lat="45.90703" lon="6.83563">
        <ele>1356</ele>
        <time>2022-08-26T16:23:05Z</time>
      </trkpt>
      <trkpt lat="45.90702" lon="6.83561">
        <ele>1356</ele>
        <time>2022-08-26T16:23:06Z</time>
      </trkpt>
      <trkpt lat="45.90701" lon="6.83559">
        <ele>1356</ele>
        <time>2022-08-26T16:23:07Z</time>
      </trkpt>
      <trkpt lat="45.90696" lon="6.8355">
        <ele>1356</ele>
        <time>2022-08-26T16:23:08Z</time>
      </trkpt>
      <trkpt lat="45.90694" lon="6.83547">
        <ele>1356</ele>
        <time>2022-08-26T16:23:10Z</time>
      </trkpt>
      <trkpt lat="45.90691" lon="6.83545">
        <ele>1356</ele>
        <time>2022-08-26T16:23:11Z</time>
      </trkpt>
      <trkpt lat="45.90689" lon="6.83543">
        <ele>1356</ele>
        <time>2022-08-26T16:23:12Z</time>
      </trkpt>
      <trkpt lat="45.90687" lon="6.83541">
        <ele>1355</ele>
        <time>2022-08-26T16:23:14Z</time>
      </trkpt>
      <trkpt lat="45.90685" lon="6.83539">
        <ele>1355</ele>
        <time>2022-08-26T16:23:15Z</time>
      </trkpt>
      <trkpt lat="45.90678" lon="6.83532">
        <ele>1355</ele>
        <time>2022-08-26T16:23:16Z</time>
      </trkpt>
      <trkpt lat="45.90676" lon="6.8353">
        <ele>1355</ele>
        <time>2022-08-26T16:23:17Z</time>
      </trkpt>
      <trkpt lat="45.90674" lon="6.83528">
        <ele>1355</ele>
        <time>2022-08-26T16:23:19Z</time>
      </trkpt>
      <trkpt lat="45.90672" lon="6.83526">
        <ele>1355</ele>
        <time>2022-08-26T16:23:20Z</time>
      </trkpt>
      <trkpt lat="45.9067" lon="6.83522">
        <ele>1355</ele>
        <time>2022-08-26T16:23:21Z</time>
      </trkpt>
      <trkpt lat="45.90668" lon="6.83518">
        <ele>1355</ele>
        <time>2022-08-26T16:23:22Z</time>
      </trkpt>
      <trkpt lat="45.90666" lon="6.83514">
        <ele>1355</ele>
        <time>2022-08-26T16:23:23Z</time>
      </trkpt>
      <trkpt lat="45.90659" lon="6.83504">
        <ele>1356</ele>
        <time>2022-08-26T16:23:27Z</time>
      </trkpt>
      <trkpt lat="45.90654" lon="6.83489">
        <ele>1356</ele>
        <time>2022-08-26T16:23:31Z</time>
      </trkpt>
      <trkpt lat="45.90653" lon="6.83486">
        <ele>1356</ele>
        <time>2022-08-26T16:23:32Z</time>
      </trkpt>
      <trkpt lat="45.90653" lon="6.83482">
        <ele>1356</ele>
        <time>2022-08-26T16:23:33Z</time>
      </trkpt>
      <trkpt lat="45.90653" lon="6.83479">
        <ele>1356</ele>
        <time>2022-08-26T16:23:34Z</time>
      </trkpt>
      <trkpt lat="45.90652" lon="6.83475">
        <ele>1356</ele>
        <time>2022-08-26T16:23:35Z</time>
      </trkpt>
      <trkpt lat="45.90651" lon="6.83471">
        <ele>1356</ele>
        <time>2022-08-26T16:23:36Z</time>
      </trkpt>
      <trkpt lat="45.90651" lon="6.83467">
        <ele>1356</ele>
        <time>2022-08-26T16:23:37Z</time>
      </trkpt>
      <trkpt lat="45.9065" lon="6.83463">
        <ele>1356</ele>
        <time>2022-08-26T16:23:38Z</time>
      </trkpt>
      <trkpt lat="45.90649" lon="6.8346">
        <ele>1356</ele>
        <time>2022-08-26T16:23:39Z</time>
      </trkpt>
      <trkpt lat="45.90649" lon="6.83458">
        <ele>1356</ele>
        <time>2022-08-26T16:23:40Z</time>
      </trkpt>
      <trkpt lat="45.90649" lon="6.83455">
        <ele>1356</ele>
        <time>2022-08-26T16:23:41Z</time>
      </trkpt>
      <trkpt lat="45.90648" lon="6.83446">
        <ele>1356</ele>
        <time>2022-08-26T16:23:42Z</time>
      </trkpt>
      <trkpt lat="45.90648" lon="6.83445">
        <ele>1357</ele>
        <time>2022-08-26T16:23:43Z</time>
      </trkpt>
      <trkpt lat="45.90648" lon="6.83443">
        <ele>1357</ele>
        <time>2022-08-26T16:23:44Z</time>
      </trkpt>
      <trkpt lat="45.90648" lon="6.83441">
        <ele>1357</ele>
        <time>2022-08-26T16:23:45Z</time>
      </trkpt>
      <trkpt lat="45.90648" lon="6.8344">
        <ele>1357</ele>
        <time>2022-08-26T16:23:46Z</time>
      </trkpt>
      <trkpt lat="45.90648" lon="6.83432">
        <ele>1357</ele>
        <time>2022-08-26T16:23:47Z</time>
      </trkpt>
      <trkpt lat="45.90648" lon="6.83418">
        <ele>1358</ele>
        <time>2022-08-26T16:23:50Z</time>
      </trkpt>
      <trkpt lat="45.90649" lon="6.83415">
        <ele>1359</ele>
        <time>2022-08-26T16:23:51Z</time>
      </trkpt>
      <trkpt lat="45.90649" lon="6.83412">
        <ele>1359</ele>
        <time>2022-08-26T16:23:52Z</time>
      </trkpt>
      <trkpt lat="45.90649" lon="6.8341">
        <ele>1359</ele>
        <time>2022-08-26T16:23:54Z</time>
      </trkpt>
      <trkpt lat="45.90649" lon="6.83407">
        <ele>1359</ele>
        <time>2022-08-26T16:23:55Z</time>
      </trkpt>
      <trkpt lat="45.90649" lon="6.83404">
        <ele>1359</ele>
        <time>2022-08-26T16:23:56Z</time>
      </trkpt>
      <trkpt lat="45.90649" lon="6.83401">
        <ele>1360</ele>
        <time>2022-08-26T16:23:57Z</time>
      </trkpt>
      <trkpt lat="45.9065" lon="6.83398">
        <ele>1361</ele>
        <time>2022-08-26T16:23:58Z</time>
      </trkpt>
      <trkpt lat="45.9065" lon="6.83396">
        <ele>1361</ele>
        <time>2022-08-26T16:23:59Z</time>
      </trkpt>
      <trkpt lat="45.9065" lon="6.83393">
        <ele>1361</ele>
        <time>2022-08-26T16:24:00Z</time>
      </trkpt>
      <trkpt lat="45.90651" lon="6.8339">
        <ele>1361</ele>
        <time>2022-08-26T16:24:01Z</time>
      </trkpt>
      <trkpt lat="45.90651" lon="6.83387">
        <ele>1361</ele>
        <time>2022-08-26T16:24:02Z</time>
      </trkpt>
      <trkpt lat="45.90651" lon="6.83385">
        <ele>1361</ele>
        <time>2022-08-26T16:24:03Z</time>
      </trkpt>
      <trkpt lat="45.90652" lon="6.83382">
        <ele>1361</ele>
        <time>2022-08-26T16:24:04Z</time>
      </trkpt>
      <trkpt lat="45.90652" lon="6.83379">
        <ele>1362</ele>
        <time>2022-08-26T16:24:06Z</time>
      </trkpt>
      <trkpt lat="45.90652" lon="6.83377">
        <ele>1362</ele>
        <time>2022-08-26T16:24:07Z</time>
      </trkpt>
      <trkpt lat="45.90651" lon="6.83375">
        <ele>1363</ele>
        <time>2022-08-26T16:24:09Z</time>
      </trkpt>
      <trkpt lat="45.9065" lon="6.83373">
        <ele>1363</ele>
        <time>2022-08-26T16:24:11Z</time>
      </trkpt>
      <trkpt lat="45.9065" lon="6.83371">
        <ele>1364</ele>
        <time>2022-08-26T16:24:13Z</time>
      </trkpt>
      <trkpt lat="45.90649" lon="6.83369">
        <ele>1364</ele>
        <time>2022-08-26T16:24:14Z</time>
      </trkpt>
      <trkpt lat="45.90648" lon="6.83368">
        <ele>1364</ele>
        <time>2022-08-26T16:24:15Z</time>
      </trkpt>
      <trkpt lat="45.90647" lon="6.83366">
        <ele>1365</ele>
        <time>2022-08-26T16:24:16Z</time>
      </trkpt>
      <trkpt lat="45.90645" lon="6.83365">
        <ele>1365</ele>
        <time>2022-08-26T16:24:18Z</time>
      </trkpt>
      <trkpt lat="45.90644" lon="6.83364">
        <ele>1365</ele>
        <time>2022-08-26T16:24:19Z</time>
      </trkpt>
      <trkpt lat="45.90642" lon="6.83364">
        <ele>1365</ele>
        <time>2022-08-26T16:24:20Z</time>
      </trkpt>
      <trkpt lat="45.90641" lon="6.83363">
        <ele>1366</ele>
        <time>2022-08-26T16:24:21Z</time>
      </trkpt>
      <trkpt lat="45.90639" lon="6.83362">
        <ele>1366</ele>
        <time>2022-08-26T16:24:22Z</time>
      </trkpt>
      <trkpt lat="45.90638" lon="6.83361">
        <ele>1366</ele>
        <time>2022-08-26T16:24:23Z</time>
      </trkpt>
      <trkpt lat="45.90629" lon="6.83357">
        <ele>1367</ele>
        <time>2022-08-26T16:24:30Z</time>
      </trkpt>
      <trkpt lat="45.90628" lon="6.83356">
        <ele>1367</ele>
        <time>2022-08-26T16:24:31Z</time>
      </trkpt>
      <trkpt lat="45.90626" lon="6.83356">
        <ele>1367</ele>
        <time>2022-08-26T16:24:32Z</time>
      </trkpt>
      <trkpt lat="45.90625" lon="6.83355">
        <ele>1367</ele>
        <time>2022-08-26T16:24:33Z</time>
      </trkpt>
      <trkpt lat="45.90624" lon="6.83354">
        <ele>1368</ele>
        <time>2022-08-26T16:24:35Z</time>
      </trkpt>
      <trkpt lat="45.90623" lon="6.83353">
        <ele>1368</ele>
        <time>2022-08-26T16:24:36Z</time>
      </trkpt>
      <trkpt lat="45.90621" lon="6.83351">
        <ele>1368</ele>
        <time>2022-08-26T16:24:37Z</time>
      </trkpt>
      <trkpt lat="45.9062" lon="6.83349">
        <ele>1369</ele>
        <time>2022-08-26T16:24:38Z</time>
      </trkpt>
      <trkpt lat="45.90618" lon="6.83347">
        <ele>1369</ele>
        <time>2022-08-26T16:24:39Z</time>
      </trkpt>
      <trkpt lat="45.90617" lon="6.83345">
        <ele>1369</ele>
        <time>2022-08-26T16:24:40Z</time>
      </trkpt>
      <trkpt lat="45.90615" lon="6.83343">
        <ele>1369</ele>
        <time>2022-08-26T16:24:41Z</time>
      </trkpt>
      <trkpt lat="45.90614" lon="6.8334">
        <ele>1369</ele>
        <time>2022-08-26T16:24:42Z</time>
      </trkpt>
      <trkpt lat="45.90613" lon="6.83338">
        <ele>1369</ele>
        <time>2022-08-26T16:24:43Z</time>
      </trkpt>
      <trkpt lat="45.90612" lon="6.83335">
        <ele>1369</ele>
        <time>2022-08-26T16:24:44Z</time>
      </trkpt>
      <trkpt lat="45.9061" lon="6.83332">
        <ele>1369</ele>
        <time>2022-08-26T16:24:45Z</time>
      </trkpt>
      <trkpt lat="45.90608" lon="6.8333">
        <ele>1369</ele>
        <time>2022-08-26T16:24:47Z</time>
      </trkpt>
      <trkpt lat="45.90606" lon="6.83328">
        <ele>1369</ele>
        <time>2022-08-26T16:24:48Z</time>
      </trkpt>
      <trkpt lat="45.90602" lon="6.83323">
        <ele>1368</ele>
        <time>2022-08-26T16:24:49Z</time>
      </trkpt>
      <trkpt lat="45.90593" lon="6.83319">
        <ele>1367</ele>
        <time>2022-08-26T16:24:51Z</time>
      </trkpt>
      <trkpt lat="45.90591" lon="6.83317">
        <ele>1367</ele>
        <time>2022-08-26T16:24:52Z</time>
      </trkpt>
      <trkpt lat="45.90589" lon="6.83315">
        <ele>1367</ele>
        <time>2022-08-26T16:24:53Z</time>
      </trkpt>
      <trkpt lat="45.90586" lon="6.83314">
        <ele>1367</ele>
        <time>2022-08-26T16:24:54Z</time>
      </trkpt>
      <trkpt lat="45.90584" lon="6.83312">
        <ele>1367</ele>
        <time>2022-08-26T16:24:55Z</time>
      </trkpt>
      <trkpt lat="45.90582" lon="6.8331">
        <ele>1366</ele>
        <time>2022-08-26T16:24:56Z</time>
      </trkpt>
      <trkpt lat="45.90579" lon="6.83309">
        <ele>1366</ele>
        <time>2022-08-26T16:24:57Z</time>
      </trkpt>
      <trkpt lat="45.90576" lon="6.83307">
        <ele>1366</ele>
        <time>2022-08-26T16:24:58Z</time>
      </trkpt>
      <trkpt lat="45.90574" lon="6.83306">
        <ele>1364</ele>
        <time>2022-08-26T16:24:59Z</time>
      </trkpt>
      <trkpt lat="45.90572" lon="6.83304">
        <ele>1363</ele>
        <time>2022-08-26T16:25:00Z</time>
      </trkpt>
      <trkpt lat="45.9057" lon="6.83303">
        <ele>1363</ele>
        <time>2022-08-26T16:25:01Z</time>
      </trkpt>
      <trkpt lat="45.90567" lon="6.83302">
        <ele>1363</ele>
        <time>2022-08-26T16:25:02Z</time>
      </trkpt>
      <trkpt lat="45.90566" lon="6.83301">
        <ele>1363</ele>
        <time>2022-08-26T16:25:03Z</time>
      </trkpt>
      <trkpt lat="45.90562" lon="6.83298">
        <ele>1362</ele>
        <time>2022-08-26T16:25:05Z</time>
      </trkpt>
      <trkpt lat="45.90559" lon="6.83296">
        <ele>1360</ele>
        <time>2022-08-26T16:25:07Z</time>
      </trkpt>
      <trkpt lat="45.90557" lon="6.83295">
        <ele>1359</ele>
        <time>2022-08-26T16:25:08Z</time>
      </trkpt>
      <trkpt lat="45.90555" lon="6.83293">
        <ele>1359</ele>
        <time>2022-08-26T16:25:09Z</time>
      </trkpt>
      <trkpt lat="45.90551" lon="6.83291">
        <ele>1359</ele>
        <time>2022-08-26T16:25:10Z</time>
      </trkpt>
      <trkpt lat="45.9055" lon="6.8329">
        <ele>1358</ele>
        <time>2022-08-26T16:25:11Z</time>
      </trkpt>
      <trkpt lat="45.90548" lon="6.83289">
        <ele>1357</ele>
        <time>2022-08-26T16:25:12Z</time>
      </trkpt>
      <trkpt lat="45.90547" lon="6.83287">
        <ele>1356</ele>
        <time>2022-08-26T16:25:13Z</time>
      </trkpt>
      <trkpt lat="45.90545" lon="6.83285">
        <ele>1356</ele>
        <time>2022-08-26T16:25:14Z</time>
      </trkpt>
      <trkpt lat="45.90543" lon="6.83282">
        <ele>1356</ele>
        <time>2022-08-26T16:25:15Z</time>
      </trkpt>
      <trkpt lat="45.90542" lon="6.83281">
        <ele>1356</ele>
        <time>2022-08-26T16:25:16Z</time>
      </trkpt>
      <trkpt lat="45.9054" lon="6.83279">
        <ele>1356</ele>
        <time>2022-08-26T16:25:17Z</time>
      </trkpt>
      <trkpt lat="45.90537" lon="6.83275">
        <ele>1355</ele>
        <time>2022-08-26T16:25:19Z</time>
      </trkpt>
      <trkpt lat="45.90535" lon="6.83274">
        <ele>1355</ele>
        <time>2022-08-26T16:25:20Z</time>
      </trkpt>
      <trkpt lat="45.90534" lon="6.83273">
        <ele>1355</ele>
        <time>2022-08-26T16:25:21Z</time>
      </trkpt>
      <trkpt lat="45.90533" lon="6.8327">
        <ele>1355</ele>
        <time>2022-08-26T16:25:22Z</time>
      </trkpt>
      <trkpt lat="45.90532" lon="6.83266">
        <ele>1355</ele>
        <time>2022-08-26T16:25:24Z</time>
      </trkpt>
      <trkpt lat="45.90531" lon="6.83263">
        <ele>1355</ele>
        <time>2022-08-26T16:25:25Z</time>
      </trkpt>
      <trkpt lat="45.90531" lon="6.8326">
        <ele>1354</ele>
        <time>2022-08-26T16:25:26Z</time>
      </trkpt>
      <trkpt lat="45.90529" lon="6.83258">
        <ele>1354</ele>
        <time>2022-08-26T16:25:28Z</time>
      </trkpt>
      <trkpt lat="45.90528" lon="6.83256">
        <ele>1353</ele>
        <time>2022-08-26T16:25:30Z</time>
      </trkpt>
      <trkpt lat="45.90526" lon="6.83254">
        <ele>1354</ele>
        <time>2022-08-26T16:25:33Z</time>
      </trkpt>
      <trkpt lat="45.90524" lon="6.83251">
        <ele>1354</ele>
        <time>2022-08-26T16:25:36Z</time>
      </trkpt>
      <trkpt lat="45.90523" lon="6.83247">
        <ele>1354</ele>
        <time>2022-08-26T16:25:38Z</time>
      </trkpt>
      <trkpt lat="45.90522" lon="6.83245">
        <ele>1355</ele>
        <time>2022-08-26T16:25:40Z</time>
      </trkpt>
      <trkpt lat="45.90521" lon="6.83242">
        <ele>1356</ele>
        <time>2022-08-26T16:25:42Z</time>
      </trkpt>
      <trkpt lat="45.9052" lon="6.83239">
        <ele>1356</ele>
        <time>2022-08-26T16:25:44Z</time>
      </trkpt>
      <trkpt lat="45.90519" lon="6.83237">
        <ele>1356</ele>
        <time>2022-08-26T16:25:46Z</time>
      </trkpt>
      <trkpt lat="45.90518" lon="6.83234">
        <ele>1356</ele>
        <time>2022-08-26T16:25:48Z</time>
      </trkpt>
      <trkpt lat="45.90517" lon="6.83231">
        <ele>1357</ele>
        <time>2022-08-26T16:25:50Z</time>
      </trkpt>
      <trkpt lat="45.90516" lon="6.83226">
        <ele>1357</ele>
        <time>2022-08-26T16:25:52Z</time>
      </trkpt>
      <trkpt lat="45.90516" lon="6.83225">
        <ele>1358</ele>
        <time>2022-08-26T16:25:53Z</time>
      </trkpt>
      <trkpt lat="45.90515" lon="6.83222">
        <ele>1358</ele>
        <time>2022-08-26T16:25:54Z</time>
      </trkpt>
      <trkpt lat="45.90514" lon="6.83217">
        <ele>1359</ele>
        <time>2022-08-26T16:25:57Z</time>
      </trkpt>
      <trkpt lat="45.90512" lon="6.83214">
        <ele>1359</ele>
        <time>2022-08-26T16:25:59Z</time>
      </trkpt>
      <trkpt lat="45.90511" lon="6.83211">
        <ele>1359</ele>
        <time>2022-08-26T16:26:01Z</time>
      </trkpt>
      <trkpt lat="45.90509" lon="6.83209">
        <ele>1360</ele>
        <time>2022-08-26T16:26:03Z</time>
      </trkpt>
      <trkpt lat="45.90508" lon="6.83206">
        <ele>1360</ele>
        <time>2022-08-26T16:26:05Z</time>
      </trkpt>
      <trkpt lat="45.90506" lon="6.83202">
        <ele>1360</ele>
        <time>2022-08-26T16:26:07Z</time>
      </trkpt>
      <trkpt lat="45.90505" lon="6.83199">
        <ele>1360</ele>
        <time>2022-08-26T16:26:09Z</time>
      </trkpt>
      <trkpt lat="45.90504" lon="6.83195">
        <ele>1361</ele>
        <time>2022-08-26T16:26:11Z</time>
      </trkpt>
      <trkpt lat="45.90503" lon="6.8319">
        <ele>1361</ele>
        <time>2022-08-26T16:26:13Z</time>
      </trkpt>
      <trkpt lat="45.90502" lon="6.83184">
        <ele>1362</ele>
        <time>2022-08-26T16:26:15Z</time>
      </trkpt>
      <trkpt lat="45.90501" lon="6.83182">
        <ele>1362</ele>
        <time>2022-08-26T16:26:16Z</time>
      </trkpt>
      <trkpt lat="45.90501" lon="6.8318">
        <ele>1363</ele>
        <time>2022-08-26T16:26:17Z</time>
      </trkpt>
      <trkpt lat="45.905" lon="6.83179">
        <ele>1363</ele>
        <time>2022-08-26T16:26:18Z</time>
      </trkpt>
      <trkpt lat="45.905" lon="6.83177">
        <ele>1363</ele>
        <time>2022-08-26T16:26:20Z</time>
      </trkpt>
      <trkpt lat="45.905" lon="6.83175">
        <ele>1364</ele>
        <time>2022-08-26T16:26:22Z</time>
      </trkpt>
      <trkpt lat="45.90499" lon="6.83173">
        <ele>1365</ele>
        <time>2022-08-26T16:26:23Z</time>
      </trkpt>
      <trkpt lat="45.90497" lon="6.83164">
        <ele>1365</ele>
        <time>2022-08-26T16:26:27Z</time>
      </trkpt>
      <trkpt lat="45.90496" lon="6.8316">
        <ele>1365</ele>
        <time>2022-08-26T16:26:28Z</time>
      </trkpt>
      <trkpt lat="45.90494" lon="6.83156">
        <ele>1365</ele>
        <time>2022-08-26T16:26:30Z</time>
      </trkpt>
      <trkpt lat="45.90492" lon="6.83152">
        <ele>1365</ele>
        <time>2022-08-26T16:26:31Z</time>
      </trkpt>
      <trkpt lat="45.90491" lon="6.83148">
        <ele>1364</ele>
        <time>2022-08-26T16:26:32Z</time>
      </trkpt>
      <trkpt lat="45.90489" lon="6.83144">
        <ele>1363</ele>
        <time>2022-08-26T16:26:34Z</time>
      </trkpt>
      <trkpt lat="45.90487" lon="6.8314">
        <ele>1363</ele>
        <time>2022-08-26T16:26:35Z</time>
      </trkpt>
      <trkpt lat="45.90486" lon="6.83139">
        <ele>1362</ele>
        <time>2022-08-26T16:26:37Z</time>
      </trkpt>
      <trkpt lat="45.90485" lon="6.83138">
        <ele>1362</ele>
        <time>2022-08-26T16:26:38Z</time>
      </trkpt>
      <trkpt lat="45.90484" lon="6.83136">
        <ele>1361</ele>
        <time>2022-08-26T16:26:39Z</time>
      </trkpt>
      <trkpt lat="45.90478" lon="6.83127">
        <ele>1361</ele>
        <time>2022-08-26T16:26:41Z</time>
      </trkpt>
      <trkpt lat="45.90477" lon="6.83126">
        <ele>1361</ele>
        <time>2022-08-26T16:26:42Z</time>
      </trkpt>
      <trkpt lat="45.90476" lon="6.83125">
        <ele>1360</ele>
        <time>2022-08-26T16:26:43Z</time>
      </trkpt>
      <trkpt lat="45.90469" lon="6.83113">
        <ele>1359</ele>
        <time>2022-08-26T16:26:45Z</time>
      </trkpt>
      <trkpt lat="45.90467" lon="6.83109">
        <ele>1359</ele>
        <time>2022-08-26T16:26:46Z</time>
      </trkpt>
      <trkpt lat="45.90465" lon="6.83106">
        <ele>1359</ele>
        <time>2022-08-26T16:26:47Z</time>
      </trkpt>
      <trkpt lat="45.90464" lon="6.83105">
        <ele>1359</ele>
        <time>2022-08-26T16:26:48Z</time>
      </trkpt>
      <trkpt lat="45.90463" lon="6.83103">
        <ele>1359</ele>
        <time>2022-08-26T16:26:49Z</time>
      </trkpt>
      <trkpt lat="45.90463" lon="6.83102">
        <ele>1358</ele>
        <time>2022-08-26T16:26:50Z</time>
      </trkpt>
      <trkpt lat="45.90458" lon="6.83094">
        <ele>1358</ele>
        <time>2022-08-26T16:26:52Z</time>
      </trkpt>
      <trkpt lat="45.90451" lon="6.8308">
        <ele>1358</ele>
        <time>2022-08-26T16:26:54Z</time>
      </trkpt>
      <trkpt lat="45.9045" lon="6.83077">
        <ele>1357</ele>
        <time>2022-08-26T16:26:55Z</time>
      </trkpt>
      <trkpt lat="45.90449" lon="6.83074">
        <ele>1357</ele>
        <time>2022-08-26T16:26:56Z</time>
      </trkpt>
      <trkpt lat="45.90447" lon="6.83071">
        <ele>1357</ele>
        <time>2022-08-26T16:26:57Z</time>
      </trkpt>
      <trkpt lat="45.90446" lon="6.83069">
        <ele>1357</ele>
        <time>2022-08-26T16:26:58Z</time>
      </trkpt>
      <trkpt lat="45.90445" lon="6.83066">
        <ele>1357</ele>
        <time>2022-08-26T16:26:59Z</time>
      </trkpt>
      <trkpt lat="45.90444" lon="6.83064">
        <ele>1357</ele>
        <time>2022-08-26T16:27:00Z</time>
      </trkpt>
      <trkpt lat="45.90443" lon="6.83063">
        <ele>1357</ele>
        <time>2022-08-26T16:27:01Z</time>
      </trkpt>
      <trkpt lat="45.90442" lon="6.83062">
        <ele>1357</ele>
        <time>2022-08-26T16:27:02Z</time>
      </trkpt>
      <trkpt lat="45.90434" lon="6.83052">
        <ele>1356</ele>
        <time>2022-08-26T16:27:04Z</time>
      </trkpt>
      <trkpt lat="45.90431" lon="6.83049">
        <ele>1356</ele>
        <time>2022-08-26T16:27:05Z</time>
      </trkpt>
      <trkpt lat="45.90428" lon="6.83047">
        <ele>1356</ele>
        <time>2022-08-26T16:27:06Z</time>
      </trkpt>
      <trkpt lat="45.90427" lon="6.83046">
        <ele>1356</ele>
        <time>2022-08-26T16:27:07Z</time>
      </trkpt>
      <trkpt lat="45.90426" lon="6.83045">
        <ele>1356</ele>
        <time>2022-08-26T16:27:08Z</time>
      </trkpt>
      <trkpt lat="45.90425" lon="6.83044">
        <ele>1356</ele>
        <time>2022-08-26T16:27:09Z</time>
      </trkpt>
      <trkpt lat="45.90418" lon="6.83037">
        <ele>1356</ele>
        <time>2022-08-26T16:27:11Z</time>
      </trkpt>
      <trkpt lat="45.90417" lon="6.83035">
        <ele>1356</ele>
        <time>2022-08-26T16:27:12Z</time>
      </trkpt>
      <trkpt lat="45.90415" lon="6.83033">
        <ele>1356</ele>
        <time>2022-08-26T16:27:13Z</time>
      </trkpt>
      <trkpt lat="45.9041" lon="6.83024">
        <ele>1356</ele>
        <time>2022-08-26T16:27:14Z</time>
      </trkpt>
      <trkpt lat="45.90408" lon="6.83021">
        <ele>1355</ele>
        <time>2022-08-26T16:27:16Z</time>
      </trkpt>
      <trkpt lat="45.90406" lon="6.83017">
        <ele>1355</ele>
        <time>2022-08-26T16:27:17Z</time>
      </trkpt>
      <trkpt lat="45.904" lon="6.83005">
        <ele>1355</ele>
        <time>2022-08-26T16:27:21Z</time>
      </trkpt>
      <trkpt lat="45.90398" lon="6.83004">
        <ele>1355</ele>
        <time>2022-08-26T16:27:23Z</time>
      </trkpt>
      <trkpt lat="45.90396" lon="6.83002">
        <ele>1356</ele>
        <time>2022-08-26T16:27:24Z</time>
      </trkpt>
      <trkpt lat="45.90393" lon="6.83">
        <ele>1356</ele>
        <time>2022-08-26T16:27:25Z</time>
      </trkpt>
      <trkpt lat="45.90391" lon="6.82999">
        <ele>1356</ele>
        <time>2022-08-26T16:27:26Z</time>
      </trkpt>
      <trkpt lat="45.90389" lon="6.82996">
        <ele>1356</ele>
        <time>2022-08-26T16:27:27Z</time>
      </trkpt>
      <trkpt lat="45.90386" lon="6.82994">
        <ele>1356</ele>
        <time>2022-08-26T16:27:28Z</time>
      </trkpt>
      <trkpt lat="45.90384" lon="6.82991">
        <ele>1356</ele>
        <time>2022-08-26T16:27:29Z</time>
      </trkpt>
      <trkpt lat="45.90381" lon="6.82988">
        <ele>1356</ele>
        <time>2022-08-26T16:27:31Z</time>
      </trkpt>
      <trkpt lat="45.90379" lon="6.82984">
        <ele>1356</ele>
        <time>2022-08-26T16:27:32Z</time>
      </trkpt>
      <trkpt lat="45.90377" lon="6.82981">
        <ele>1356</ele>
        <time>2022-08-26T16:27:33Z</time>
      </trkpt>
      <trkpt lat="45.90374" lon="6.82978">
        <ele>1356</ele>
        <time>2022-08-26T16:27:34Z</time>
      </trkpt>
      <trkpt lat="45.90371" lon="6.82976">
        <ele>1356</ele>
        <time>2022-08-26T16:27:36Z</time>
      </trkpt>
      <trkpt lat="45.90368" lon="6.82973">
        <ele>1356</ele>
        <time>2022-08-26T16:27:37Z</time>
      </trkpt>
      <trkpt lat="45.90365" lon="6.8297">
        <ele>1356</ele>
        <time>2022-08-26T16:27:38Z</time>
      </trkpt>
      <trkpt lat="45.90358" lon="6.82969">
        <ele>1356</ele>
        <time>2022-08-26T16:27:40Z</time>
      </trkpt>
      <trkpt lat="45.90356" lon="6.82966">
        <ele>1356</ele>
        <time>2022-08-26T16:27:42Z</time>
      </trkpt>
      <trkpt lat="45.90354" lon="6.82964">
        <ele>1356</ele>
        <time>2022-08-26T16:27:43Z</time>
      </trkpt>
      <trkpt lat="45.90352" lon="6.82962">
        <ele>1356</ele>
        <time>2022-08-26T16:27:44Z</time>
      </trkpt>
      <trkpt lat="45.9035" lon="6.8296">
        <ele>1355</ele>
        <time>2022-08-26T16:27:45Z</time>
      </trkpt>
      <trkpt lat="45.90349" lon="6.82958">
        <ele>1355</ele>
        <time>2022-08-26T16:27:46Z</time>
      </trkpt>
      <trkpt lat="45.90348" lon="6.82955">
        <ele>1355</ele>
        <time>2022-08-26T16:27:47Z</time>
      </trkpt>
      <trkpt lat="45.90347" lon="6.82953">
        <ele>1355</ele>
        <time>2022-08-26T16:27:48Z</time>
      </trkpt>
      <trkpt lat="45.90342" lon="6.82946">
        <ele>1355</ele>
        <time>2022-08-26T16:27:49Z</time>
      </trkpt>
      <trkpt lat="45.9034" lon="6.82944">
        <ele>1355</ele>
        <time>2022-08-26T16:27:50Z</time>
      </trkpt>
      <trkpt lat="45.90339" lon="6.82943">
        <ele>1355</ele>
        <time>2022-08-26T16:27:51Z</time>
      </trkpt>
      <trkpt lat="45.90337" lon="6.82941">
        <ele>1355</ele>
        <time>2022-08-26T16:27:52Z</time>
      </trkpt>
      <trkpt lat="45.90335" lon="6.8294">
        <ele>1355</ele>
        <time>2022-08-26T16:27:53Z</time>
      </trkpt>
      <trkpt lat="45.90328" lon="6.82933">
        <ele>1355</ele>
        <time>2022-08-26T16:27:57Z</time>
      </trkpt>
      <trkpt lat="45.90326" lon="6.82933">
        <ele>1353</ele>
        <time>2022-08-26T16:27:58Z</time>
      </trkpt>
      <trkpt lat="45.90325" lon="6.82932">
        <ele>1353</ele>
        <time>2022-08-26T16:27:59Z</time>
      </trkpt>
      <trkpt lat="45.90324" lon="6.82931">
        <ele>1353</ele>
        <time>2022-08-26T16:28:01Z</time>
      </trkpt>
      <trkpt lat="45.90323" lon="6.8293">
        <ele>1353</ele>
        <time>2022-08-26T16:28:02Z</time>
      </trkpt>
      <trkpt lat="45.90315" lon="6.82924">
        <ele>1353</ele>
        <time>2022-08-26T16:28:03Z</time>
      </trkpt>
      <trkpt lat="45.90313" lon="6.82922">
        <ele>1352</ele>
        <time>2022-08-26T16:28:04Z</time>
      </trkpt>
      <trkpt lat="45.9031" lon="6.8292">
        <ele>1352</ele>
        <time>2022-08-26T16:28:06Z</time>
      </trkpt>
      <trkpt lat="45.90307" lon="6.82918">
        <ele>1351</ele>
        <time>2022-08-26T16:28:07Z</time>
      </trkpt>
      <trkpt lat="45.90305" lon="6.82917">
        <ele>1350</ele>
        <time>2022-08-26T16:28:08Z</time>
      </trkpt>
      <trkpt lat="45.90302" lon="6.82915">
        <ele>1350</ele>
        <time>2022-08-26T16:28:09Z</time>
      </trkpt>
      <trkpt lat="45.90297" lon="6.82912">
        <ele>1350</ele>
        <time>2022-08-26T16:28:10Z</time>
      </trkpt>
      <trkpt lat="45.9029" lon="6.82904">
        <ele>1350</ele>
        <time>2022-08-26T16:28:12Z</time>
      </trkpt>
      <trkpt lat="45.90281" lon="6.82894">
        <ele>1349</ele>
        <time>2022-08-26T16:28:16Z</time>
      </trkpt>
      <trkpt lat="45.90279" lon="6.82892">
        <ele>1349</ele>
        <time>2022-08-26T16:28:17Z</time>
      </trkpt>
      <trkpt lat="45.90276" lon="6.8289">
        <ele>1348</ele>
        <time>2022-08-26T16:28:18Z</time>
      </trkpt>
      <trkpt lat="45.90274" lon="6.82887">
        <ele>1348</ele>
        <time>2022-08-26T16:28:20Z</time>
      </trkpt>
      <trkpt lat="45.90272" lon="6.82885">
        <ele>1348</ele>
        <time>2022-08-26T16:28:21Z</time>
      </trkpt>
      <trkpt lat="45.9027" lon="6.82883">
        <ele>1348</ele>
        <time>2022-08-26T16:28:22Z</time>
      </trkpt>
      <trkpt lat="45.90269" lon="6.82882">
        <ele>1347</ele>
        <time>2022-08-26T16:28:23Z</time>
      </trkpt>
      <trkpt lat="45.90267" lon="6.8288">
        <ele>1347</ele>
        <time>2022-08-26T16:28:24Z</time>
      </trkpt>
      <trkpt lat="45.90262" lon="6.82876">
        <ele>1347</ele>
        <time>2022-08-26T16:28:25Z</time>
      </trkpt>
      <trkpt lat="45.90256" lon="6.82863">
        <ele>1347</ele>
        <time>2022-08-26T16:28:28Z</time>
      </trkpt>
      <trkpt lat="45.90256" lon="6.82858">
        <ele>1347</ele>
        <time>2022-08-26T16:28:29Z</time>
      </trkpt>
      <trkpt lat="45.90255" lon="6.82853">
        <ele>1346</ele>
        <time>2022-08-26T16:28:30Z</time>
      </trkpt>
      <trkpt lat="45.90255" lon="6.82849">
        <ele>1346</ele>
        <time>2022-08-26T16:28:31Z</time>
      </trkpt>
      <trkpt lat="45.90253" lon="6.82832">
        <ele>1345</ele>
        <time>2022-08-26T16:28:35Z</time>
      </trkpt>
      <trkpt lat="45.90253" lon="6.82829">
        <ele>1345</ele>
        <time>2022-08-26T16:28:36Z</time>
      </trkpt>
      <trkpt lat="45.90252" lon="6.82826">
        <ele>1344</ele>
        <time>2022-08-26T16:28:37Z</time>
      </trkpt>
      <trkpt lat="45.90252" lon="6.82823">
        <ele>1344</ele>
        <time>2022-08-26T16:28:38Z</time>
      </trkpt>
      <trkpt lat="45.90252" lon="6.82819">
        <ele>1344</ele>
        <time>2022-08-26T16:28:39Z</time>
      </trkpt>
      <trkpt lat="45.90254" lon="6.82805">
        <ele>1344</ele>
        <time>2022-08-26T16:28:40Z</time>
      </trkpt>
      <trkpt lat="45.90255" lon="6.828">
        <ele>1344</ele>
        <time>2022-08-26T16:28:42Z</time>
      </trkpt>
      <trkpt lat="45.90256" lon="6.82796">
        <ele>1344</ele>
        <time>2022-08-26T16:28:43Z</time>
      </trkpt>
      <trkpt lat="45.90257" lon="6.82792">
        <ele>1344</ele>
        <time>2022-08-26T16:28:44Z</time>
      </trkpt>
      <trkpt lat="45.90258" lon="6.8279">
        <ele>1345</ele>
        <time>2022-08-26T16:28:46Z</time>
      </trkpt>
      <trkpt lat="45.90259" lon="6.82787">
        <ele>1345</ele>
        <time>2022-08-26T16:28:47Z</time>
      </trkpt>
      <trkpt lat="45.9026" lon="6.82784">
        <ele>1345</ele>
        <time>2022-08-26T16:28:48Z</time>
      </trkpt>
      <trkpt lat="45.90263" lon="6.82776">
        <ele>1346</ele>
        <time>2022-08-26T16:28:49Z</time>
      </trkpt>
      <trkpt lat="45.90264" lon="6.82772">
        <ele>1346</ele>
        <time>2022-08-26T16:28:51Z</time>
      </trkpt>
      <trkpt lat="45.90265" lon="6.82769">
        <ele>1347</ele>
        <time>2022-08-26T16:28:52Z</time>
      </trkpt>
      <trkpt lat="45.90266" lon="6.82765">
        <ele>1347</ele>
        <time>2022-08-26T16:28:54Z</time>
      </trkpt>
      <trkpt lat="45.90267" lon="6.82762">
        <ele>1347</ele>
        <time>2022-08-26T16:28:55Z</time>
      </trkpt>
      <trkpt lat="45.90267" lon="6.8276">
        <ele>1347</ele>
        <time>2022-08-26T16:28:56Z</time>
      </trkpt>
      <trkpt lat="45.90267" lon="6.82758">
        <ele>1347</ele>
        <time>2022-08-26T16:28:57Z</time>
      </trkpt>
      <trkpt lat="45.90266" lon="6.82756">
        <ele>1347</ele>
        <time>2022-08-26T16:28:58Z</time>
      </trkpt>
      <trkpt lat="45.90266" lon="6.82754">
        <ele>1347</ele>
        <time>2022-08-26T16:28:59Z</time>
      </trkpt>
      <trkpt lat="45.90264" lon="6.82747">
        <ele>1347</ele>
        <time>2022-08-26T16:29:00Z</time>
      </trkpt>
      <trkpt lat="45.90261" lon="6.82734">
        <ele>1346</ele>
        <time>2022-08-26T16:29:03Z</time>
      </trkpt>
      <trkpt lat="45.9026" lon="6.82732">
        <ele>1346</ele>
        <time>2022-08-26T16:29:04Z</time>
      </trkpt>
      <trkpt lat="45.90259" lon="6.82729">
        <ele>1346</ele>
        <time>2022-08-26T16:29:05Z</time>
      </trkpt>
      <trkpt lat="45.90258" lon="6.82727">
        <ele>1346</ele>
        <time>2022-08-26T16:29:06Z</time>
      </trkpt>
      <trkpt lat="45.90257" lon="6.82725">
        <ele>1346</ele>
        <time>2022-08-26T16:29:07Z</time>
      </trkpt>
      <trkpt lat="45.90257" lon="6.82723">
        <ele>1346</ele>
        <time>2022-08-26T16:29:08Z</time>
      </trkpt>
      <trkpt lat="45.90254" lon="6.8272">
        <ele>1346</ele>
        <time>2022-08-26T16:29:09Z</time>
      </trkpt>
      <trkpt lat="45.90252" lon="6.82716">
        <ele>1345</ele>
        <time>2022-08-26T16:29:10Z</time>
      </trkpt>
      <trkpt lat="45.90249" lon="6.82713">
        <ele>1345</ele>
        <time>2022-08-26T16:29:11Z</time>
      </trkpt>
      <trkpt lat="45.90247" lon="6.82711">
        <ele>1345</ele>
        <time>2022-08-26T16:29:13Z</time>
      </trkpt>
      <trkpt lat="45.90244" lon="6.82708">
        <ele>1345</ele>
        <time>2022-08-26T16:29:14Z</time>
      </trkpt>
      <trkpt lat="45.90241" lon="6.82705">
        <ele>1344</ele>
        <time>2022-08-26T16:29:15Z</time>
      </trkpt>
      <trkpt lat="45.9024" lon="6.82704">
        <ele>1344</ele>
        <time>2022-08-26T16:29:17Z</time>
      </trkpt>
      <trkpt lat="45.90238" lon="6.82702">
        <ele>1344</ele>
        <time>2022-08-26T16:29:18Z</time>
      </trkpt>
      <trkpt lat="45.90236" lon="6.82701">
        <ele>1344</ele>
        <time>2022-08-26T16:29:19Z</time>
      </trkpt>
      <trkpt lat="45.90234" lon="6.827">
        <ele>1344</ele>
        <time>2022-08-26T16:29:20Z</time>
      </trkpt>
      <trkpt lat="45.90232" lon="6.82698">
        <ele>1344</ele>
        <time>2022-08-26T16:29:21Z</time>
      </trkpt>
      <trkpt lat="45.90228" lon="6.82697">
        <ele>1344</ele>
        <time>2022-08-26T16:29:22Z</time>
      </trkpt>
      <trkpt lat="45.90225" lon="6.82695">
        <ele>1344</ele>
        <time>2022-08-26T16:29:23Z</time>
      </trkpt>
      <trkpt lat="45.90222" lon="6.82693">
        <ele>1344</ele>
        <time>2022-08-26T16:29:24Z</time>
      </trkpt>
      <trkpt lat="45.90221" lon="6.82692">
        <ele>1344</ele>
        <time>2022-08-26T16:29:25Z</time>
      </trkpt>
      <trkpt lat="45.9022" lon="6.82691">
        <ele>1344</ele>
        <time>2022-08-26T16:29:26Z</time>
      </trkpt>
      <trkpt lat="45.90219" lon="6.8269">
        <ele>1344</ele>
        <time>2022-08-26T16:29:27Z</time>
      </trkpt>
      <trkpt lat="45.90218" lon="6.82688">
        <ele>1344</ele>
        <time>2022-08-26T16:29:28Z</time>
      </trkpt>
      <trkpt lat="45.90211" lon="6.82683">
        <ele>1344</ele>
        <time>2022-08-26T16:29:29Z</time>
      </trkpt>
      <trkpt lat="45.90209" lon="6.82682">
        <ele>1344</ele>
        <time>2022-08-26T16:29:30Z</time>
      </trkpt>
      <trkpt lat="45.90206" lon="6.82681">
        <ele>1344</ele>
        <time>2022-08-26T16:29:31Z</time>
      </trkpt>
      <trkpt lat="45.90204" lon="6.8268">
        <ele>1344</ele>
        <time>2022-08-26T16:29:32Z</time>
      </trkpt>
      <trkpt lat="45.902" lon="6.82679">
        <ele>1344</ele>
        <time>2022-08-26T16:29:34Z</time>
      </trkpt>
      <trkpt lat="45.90197" lon="6.82677">
        <ele>1344</ele>
        <time>2022-08-26T16:29:35Z</time>
      </trkpt>
      <trkpt lat="45.90194" lon="6.82675">
        <ele>1344</ele>
        <time>2022-08-26T16:29:36Z</time>
      </trkpt>
      <trkpt lat="45.90192" lon="6.82674">
        <ele>1344</ele>
        <time>2022-08-26T16:29:37Z</time>
      </trkpt>
      <trkpt lat="45.90191" lon="6.82674">
        <ele>1344</ele>
        <time>2022-08-26T16:29:38Z</time>
      </trkpt>
      <trkpt lat="45.9019" lon="6.82673">
        <ele>1344</ele>
        <time>2022-08-26T16:29:39Z</time>
      </trkpt>
      <trkpt lat="45.90181" lon="6.82667">
        <ele>1344</ele>
        <time>2022-08-26T16:29:41Z</time>
      </trkpt>
      <trkpt lat="45.90178" lon="6.82665">
        <ele>1344</ele>
        <time>2022-08-26T16:29:42Z</time>
      </trkpt>
      <trkpt lat="45.90175" lon="6.82663">
        <ele>1344</ele>
        <time>2022-08-26T16:29:43Z</time>
      </trkpt>
      <trkpt lat="45.90173" lon="6.82661">
        <ele>1344</ele>
        <time>2022-08-26T16:29:44Z</time>
      </trkpt>
      <trkpt lat="45.90171" lon="6.82659">
        <ele>1344</ele>
        <time>2022-08-26T16:29:45Z</time>
      </trkpt>
      <trkpt lat="45.90169" lon="6.82658">
        <ele>1344</ele>
        <time>2022-08-26T16:29:46Z</time>
      </trkpt>
      <trkpt lat="45.90167" lon="6.82656">
        <ele>1344</ele>
        <time>2022-08-26T16:29:47Z</time>
      </trkpt>
      <trkpt lat="45.90165" lon="6.82654">
        <ele>1344</ele>
        <time>2022-08-26T16:29:48Z</time>
      </trkpt>
      <trkpt lat="45.90157" lon="6.82645">
        <ele>1344</ele>
        <time>2022-08-26T16:29:51Z</time>
      </trkpt>
      <trkpt lat="45.90156" lon="6.82642">
        <ele>1344</ele>
        <time>2022-08-26T16:29:52Z</time>
      </trkpt>
      <trkpt lat="45.90154" lon="6.82639">
        <ele>1344</ele>
        <time>2022-08-26T16:29:53Z</time>
      </trkpt>
      <trkpt lat="45.90152" lon="6.82637">
        <ele>1344</ele>
        <time>2022-08-26T16:29:55Z</time>
      </trkpt>
      <trkpt lat="45.90151" lon="6.82634">
        <ele>1343</ele>
        <time>2022-08-26T16:29:56Z</time>
      </trkpt>
      <trkpt lat="45.9015" lon="6.82629">
        <ele>1343</ele>
        <time>2022-08-26T16:29:57Z</time>
      </trkpt>
      <trkpt lat="45.9015" lon="6.82624">
        <ele>1343</ele>
        <time>2022-08-26T16:29:58Z</time>
      </trkpt>
      <trkpt lat="45.90149" lon="6.82619">
        <ele>1343</ele>
        <time>2022-08-26T16:29:59Z</time>
      </trkpt>
      <trkpt lat="45.9015" lon="6.82614">
        <ele>1343</ele>
        <time>2022-08-26T16:30:00Z</time>
      </trkpt>
      <trkpt lat="45.90151" lon="6.82609">
        <ele>1343</ele>
        <time>2022-08-26T16:30:01Z</time>
      </trkpt>
      <trkpt lat="45.90152" lon="6.82604">
        <ele>1343</ele>
        <time>2022-08-26T16:30:02Z</time>
      </trkpt>
      <trkpt lat="45.90154" lon="6.82588">
        <ele>1343</ele>
        <time>2022-08-26T16:30:06Z</time>
      </trkpt>
      <trkpt lat="45.90152" lon="6.82574">
        <ele>1343</ele>
        <time>2022-08-26T16:30:10Z</time>
      </trkpt>
      <trkpt lat="45.90151" lon="6.8257">
        <ele>1344</ele>
        <time>2022-08-26T16:30:12Z</time>
      </trkpt>
      <trkpt lat="45.90149" lon="6.82565">
        <ele>1344</ele>
        <time>2022-08-26T16:30:14Z</time>
      </trkpt>
      <trkpt lat="45.90147" lon="6.82561">
        <ele>1344</ele>
        <time>2022-08-26T16:30:15Z</time>
      </trkpt>
      <trkpt lat="45.90145" lon="6.82555">
        <ele>1344</ele>
        <time>2022-08-26T16:30:17Z</time>
      </trkpt>
      <trkpt lat="45.90142" lon="6.82549">
        <ele>1344</ele>
        <time>2022-08-26T16:30:18Z</time>
      </trkpt>
      <trkpt lat="45.90141" lon="6.82548">
        <ele>1344</ele>
        <time>2022-08-26T16:30:19Z</time>
      </trkpt>
      <trkpt lat="45.9014" lon="6.82546">
        <ele>1344</ele>
        <time>2022-08-26T16:30:20Z</time>
      </trkpt>
      <trkpt lat="45.90139" lon="6.82545">
        <ele>1344</ele>
        <time>2022-08-26T16:30:22Z</time>
      </trkpt>
      <trkpt lat="45.90138" lon="6.82544">
        <ele>1343</ele>
        <time>2022-08-26T16:30:23Z</time>
      </trkpt>
      <trkpt lat="45.90134" lon="6.82538">
        <ele>1343</ele>
        <time>2022-08-26T16:30:24Z</time>
      </trkpt>
      <trkpt lat="45.90125" lon="6.82529">
        <ele>1343</ele>
        <time>2022-08-26T16:30:27Z</time>
      </trkpt>
      <trkpt lat="45.9012" lon="6.82524">
        <ele>1343</ele>
        <time>2022-08-26T16:30:29Z</time>
      </trkpt>
      <trkpt lat="45.90118" lon="6.82521">
        <ele>1342</ele>
        <time>2022-08-26T16:30:30Z</time>
      </trkpt>
      <trkpt lat="45.90117" lon="6.82517">
        <ele>1341</ele>
        <time>2022-08-26T16:30:31Z</time>
      </trkpt>
      <trkpt lat="45.90116" lon="6.82514">
        <ele>1342</ele>
        <time>2022-08-26T16:30:33Z</time>
      </trkpt>
      <trkpt lat="45.90114" lon="6.82511">
        <ele>1342</ele>
        <time>2022-08-26T16:30:34Z</time>
      </trkpt>
      <trkpt lat="45.90114" lon="6.82509">
        <ele>1342</ele>
        <time>2022-08-26T16:30:35Z</time>
      </trkpt>
      <trkpt lat="45.90113" lon="6.82508">
        <ele>1342</ele>
        <time>2022-08-26T16:30:36Z</time>
      </trkpt>
      <trkpt lat="45.90113" lon="6.82506">
        <ele>1342</ele>
        <time>2022-08-26T16:30:37Z</time>
      </trkpt>
      <trkpt lat="45.90111" lon="6.82497">
        <ele>1342</ele>
        <time>2022-08-26T16:30:39Z</time>
      </trkpt>
      <trkpt lat="45.90108" lon="6.82483">
        <ele>1342</ele>
        <time>2022-08-26T16:30:41Z</time>
      </trkpt>
      <trkpt lat="45.90108" lon="6.8248">
        <ele>1342</ele>
        <time>2022-08-26T16:30:42Z</time>
      </trkpt>
      <trkpt lat="45.90108" lon="6.82477">
        <ele>1342</ele>
        <time>2022-08-26T16:30:43Z</time>
      </trkpt>
      <trkpt lat="45.90108" lon="6.82474">
        <ele>1342</ele>
        <time>2022-08-26T16:30:44Z</time>
      </trkpt>
      <trkpt lat="45.90108" lon="6.82471">
        <ele>1342</ele>
        <time>2022-08-26T16:30:45Z</time>
      </trkpt>
      <trkpt lat="45.90108" lon="6.82468">
        <ele>1342</ele>
        <time>2022-08-26T16:30:46Z</time>
      </trkpt>
      <trkpt lat="45.90106" lon="6.82462">
        <ele>1342</ele>
        <time>2022-08-26T16:30:48Z</time>
      </trkpt>
      <trkpt lat="45.90105" lon="6.82457">
        <ele>1342</ele>
        <time>2022-08-26T16:30:49Z</time>
      </trkpt>
      <trkpt lat="45.90103" lon="6.82452">
        <ele>1342</ele>
        <time>2022-08-26T16:30:50Z</time>
      </trkpt>
      <trkpt lat="45.90103" lon="6.82447">
        <ele>1342</ele>
        <time>2022-08-26T16:30:52Z</time>
      </trkpt>
      <trkpt lat="45.90102" lon="6.82442">
        <ele>1342</ele>
        <time>2022-08-26T16:30:53Z</time>
      </trkpt>
      <trkpt lat="45.90102" lon="6.82437">
        <ele>1342</ele>
        <time>2022-08-26T16:30:54Z</time>
      </trkpt>
      <trkpt lat="45.90101" lon="6.82432">
        <ele>1342</ele>
        <time>2022-08-26T16:30:55Z</time>
      </trkpt>
      <trkpt lat="45.901" lon="6.82429">
        <ele>1343</ele>
        <time>2022-08-26T16:30:56Z</time>
      </trkpt>
      <trkpt lat="45.901" lon="6.82425">
        <ele>1343</ele>
        <time>2022-08-26T16:30:57Z</time>
      </trkpt>
      <trkpt lat="45.90099" lon="6.8242">
        <ele>1343</ele>
        <time>2022-08-26T16:30:58Z</time>
      </trkpt>
      <trkpt lat="45.90099" lon="6.82418">
        <ele>1343</ele>
        <time>2022-08-26T16:30:59Z</time>
      </trkpt>
      <trkpt lat="45.90098" lon="6.82415">
        <ele>1343</ele>
        <time>2022-08-26T16:31:00Z</time>
      </trkpt>
      <trkpt lat="45.90097" lon="6.82413">
        <ele>1343</ele>
        <time>2022-08-26T16:31:01Z</time>
      </trkpt>
      <trkpt lat="45.90096" lon="6.8241">
        <ele>1343</ele>
        <time>2022-08-26T16:31:02Z</time>
      </trkpt>
      <trkpt lat="45.90095" lon="6.82405">
        <ele>1343</ele>
        <time>2022-08-26T16:31:03Z</time>
      </trkpt>
      <trkpt lat="45.90095" lon="6.82403">
        <ele>1344</ele>
        <time>2022-08-26T16:31:04Z</time>
      </trkpt>
      <trkpt lat="45.90095" lon="6.824">
        <ele>1344</ele>
        <time>2022-08-26T16:31:05Z</time>
      </trkpt>
      <trkpt lat="45.90094" lon="6.82394">
        <ele>1344</ele>
        <time>2022-08-26T16:31:06Z</time>
      </trkpt>
      <trkpt lat="45.90094" lon="6.82393">
        <ele>1344</ele>
        <time>2022-08-26T16:31:07Z</time>
      </trkpt>
      <trkpt lat="45.90093" lon="6.8239">
        <ele>1344</ele>
        <time>2022-08-26T16:31:08Z</time>
      </trkpt>
      <trkpt lat="45.90093" lon="6.82383">
        <ele>1344</ele>
        <time>2022-08-26T16:31:10Z</time>
      </trkpt>
      <trkpt lat="45.90092" lon="6.82379">
        <ele>1344</ele>
        <time>2022-08-26T16:31:11Z</time>
      </trkpt>
      <trkpt lat="45.90091" lon="6.82375">
        <ele>1344</ele>
        <time>2022-08-26T16:31:12Z</time>
      </trkpt>
      <trkpt lat="45.9009" lon="6.82371">
        <ele>1344</ele>
        <time>2022-08-26T16:31:14Z</time>
      </trkpt>
      <trkpt lat="45.90089" lon="6.82367">
        <ele>1344</ele>
        <time>2022-08-26T16:31:15Z</time>
      </trkpt>
      <trkpt lat="45.90089" lon="6.82364">
        <ele>1344</ele>
        <time>2022-08-26T16:31:16Z</time>
      </trkpt>
      <trkpt lat="45.90088" lon="6.82362">
        <ele>1344</ele>
        <time>2022-08-26T16:31:17Z</time>
      </trkpt>
      <trkpt lat="45.90088" lon="6.82359">
        <ele>1344</ele>
        <time>2022-08-26T16:31:18Z</time>
      </trkpt>
      <trkpt lat="45.90087" lon="6.82357">
        <ele>1344</ele>
        <time>2022-08-26T16:31:20Z</time>
      </trkpt>
      <trkpt lat="45.90087" lon="6.82355">
        <ele>1344</ele>
        <time>2022-08-26T16:31:21Z</time>
      </trkpt>
      <trkpt lat="45.90086" lon="6.82354">
        <ele>1344</ele>
        <time>2022-08-26T16:31:22Z</time>
      </trkpt>
      <trkpt lat="45.90086" lon="6.82352">
        <ele>1344</ele>
        <time>2022-08-26T16:31:23Z</time>
      </trkpt>
      <trkpt lat="45.90083" lon="6.82342">
        <ele>1343</ele>
        <time>2022-08-26T16:31:24Z</time>
      </trkpt>
      <trkpt lat="45.90083" lon="6.82338">
        <ele>1343</ele>
        <time>2022-08-26T16:31:26Z</time>
      </trkpt>
      <trkpt lat="45.90082" lon="6.82335">
        <ele>1343</ele>
        <time>2022-08-26T16:31:27Z</time>
      </trkpt>
      <trkpt lat="45.90081" lon="6.82332">
        <ele>1343</ele>
        <time>2022-08-26T16:31:28Z</time>
      </trkpt>
      <trkpt lat="45.9008" lon="6.82326">
        <ele>1343</ele>
        <time>2022-08-26T16:31:29Z</time>
      </trkpt>
      <trkpt lat="45.90078" lon="6.82321">
        <ele>1343</ele>
        <time>2022-08-26T16:31:30Z</time>
      </trkpt>
      <trkpt lat="45.90077" lon="6.82317">
        <ele>1343</ele>
        <time>2022-08-26T16:31:31Z</time>
      </trkpt>
      <trkpt lat="45.90075" lon="6.82313">
        <ele>1343</ele>
        <time>2022-08-26T16:31:32Z</time>
      </trkpt>
      <trkpt lat="45.90075" lon="6.82311">
        <ele>1342</ele>
        <time>2022-08-26T16:31:34Z</time>
      </trkpt>
      <trkpt lat="45.90074" lon="6.8231">
        <ele>1342</ele>
        <time>2022-08-26T16:31:35Z</time>
      </trkpt>
      <trkpt lat="45.90074" lon="6.82308">
        <ele>1342</ele>
        <time>2022-08-26T16:31:36Z</time>
      </trkpt>
      <trkpt lat="45.9007" lon="6.82294">
        <ele>1342</ele>
        <time>2022-08-26T16:31:38Z</time>
      </trkpt>
      <trkpt lat="45.9007" lon="6.82289">
        <ele>1342</ele>
        <time>2022-08-26T16:31:39Z</time>
      </trkpt>
      <trkpt lat="45.9007" lon="6.82285">
        <ele>1342</ele>
        <time>2022-08-26T16:31:40Z</time>
      </trkpt>
      <trkpt lat="45.9007" lon="6.8228">
        <ele>1342</ele>
        <time>2022-08-26T16:31:41Z</time>
      </trkpt>
      <trkpt lat="45.90071" lon="6.82275">
        <ele>1343</ele>
        <time>2022-08-26T16:31:43Z</time>
      </trkpt>
      <trkpt lat="45.90071" lon="6.8227">
        <ele>1343</ele>
        <time>2022-08-26T16:31:44Z</time>
      </trkpt>
      <trkpt lat="45.90072" lon="6.82265">
        <ele>1343</ele>
        <time>2022-08-26T16:31:45Z</time>
      </trkpt>
      <trkpt lat="45.90072" lon="6.82261">
        <ele>1343</ele>
        <time>2022-08-26T16:31:46Z</time>
      </trkpt>
      <trkpt lat="45.90072" lon="6.82257">
        <ele>1343</ele>
        <time>2022-08-26T16:31:47Z</time>
      </trkpt>
      <trkpt lat="45.90071" lon="6.8225">
        <ele>1343</ele>
        <time>2022-08-26T16:31:48Z</time>
      </trkpt>
      <trkpt lat="45.90071" lon="6.82248">
        <ele>1343</ele>
        <time>2022-08-26T16:31:49Z</time>
      </trkpt>
      <trkpt lat="45.9007" lon="6.82243">
        <ele>1343</ele>
        <time>2022-08-26T16:31:50Z</time>
      </trkpt>
      <trkpt lat="45.9007" lon="6.82239">
        <ele>1343</ele>
        <time>2022-08-26T16:31:51Z</time>
      </trkpt>
      <trkpt lat="45.90069" lon="6.82234">
        <ele>1344</ele>
        <time>2022-08-26T16:31:52Z</time>
      </trkpt>
      <trkpt lat="45.90069" lon="6.82231">
        <ele>1344</ele>
        <time>2022-08-26T16:31:53Z</time>
      </trkpt>
      <trkpt lat="45.90068" lon="6.82227">
        <ele>1343</ele>
        <time>2022-08-26T16:31:54Z</time>
      </trkpt>
      <trkpt lat="45.90067" lon="6.82225">
        <ele>1343</ele>
        <time>2022-08-26T16:31:55Z</time>
      </trkpt>
      <trkpt lat="45.90065" lon="6.82221">
        <ele>1343</ele>
        <time>2022-08-26T16:31:56Z</time>
      </trkpt>
      <trkpt lat="45.90064" lon="6.82219">
        <ele>1343</ele>
        <time>2022-08-26T16:31:57Z</time>
      </trkpt>
      <trkpt lat="45.90064" lon="6.82216">
        <ele>1343</ele>
        <time>2022-08-26T16:31:58Z</time>
      </trkpt>
      <trkpt lat="45.90063" lon="6.82214">
        <ele>1343</ele>
        <time>2022-08-26T16:31:59Z</time>
      </trkpt>
      <trkpt lat="45.90063" lon="6.82211">
        <ele>1343</ele>
        <time>2022-08-26T16:32:00Z</time>
      </trkpt>
      <trkpt lat="45.90062" lon="6.82208">
        <ele>1343</ele>
        <time>2022-08-26T16:32:01Z</time>
      </trkpt>
      <trkpt lat="45.90062" lon="6.82206">
        <ele>1343</ele>
        <time>2022-08-26T16:32:02Z</time>
      </trkpt>
      <trkpt lat="45.9006" lon="6.82201">
        <ele>1343</ele>
        <time>2022-08-26T16:32:04Z</time>
      </trkpt>
      <trkpt lat="45.90058" lon="6.82196">
        <ele>1343</ele>
        <time>2022-08-26T16:32:05Z</time>
      </trkpt>
      <trkpt lat="45.90056" lon="6.82191">
        <ele>1343</ele>
        <time>2022-08-26T16:32:06Z</time>
      </trkpt>
      <trkpt lat="45.90055" lon="6.82187">
        <ele>1342</ele>
        <time>2022-08-26T16:32:08Z</time>
      </trkpt>
      <trkpt lat="45.90053" lon="6.82182">
        <ele>1342</ele>
        <time>2022-08-26T16:32:09Z</time>
      </trkpt>
      <trkpt lat="45.90052" lon="6.82178">
        <ele>1342</ele>
        <time>2022-08-26T16:32:10Z</time>
      </trkpt>
      <trkpt lat="45.90051" lon="6.82176">
        <ele>1342</ele>
        <time>2022-08-26T16:32:11Z</time>
      </trkpt>
      <trkpt lat="45.90051" lon="6.82175">
        <ele>1341</ele>
        <time>2022-08-26T16:32:12Z</time>
      </trkpt>
      <trkpt lat="45.90051" lon="6.82173">
        <ele>1341</ele>
        <time>2022-08-26T16:32:13Z</time>
      </trkpt>
      <trkpt lat="45.90048" lon="6.82158">
        <ele>1341</ele>
        <time>2022-08-26T16:32:15Z</time>
      </trkpt>
      <trkpt lat="45.90048" lon="6.82154">
        <ele>1341</ele>
        <time>2022-08-26T16:32:16Z</time>
      </trkpt>
      <trkpt lat="45.90049" lon="6.82149">
        <ele>1341</ele>
        <time>2022-08-26T16:32:17Z</time>
      </trkpt>
      <trkpt lat="45.9005" lon="6.82143">
        <ele>1341</ele>
        <time>2022-08-26T16:32:18Z</time>
      </trkpt>
      <trkpt lat="45.90051" lon="6.82137">
        <ele>1341</ele>
        <time>2022-08-26T16:32:19Z</time>
      </trkpt>
      <trkpt lat="45.90052" lon="6.82132">
        <ele>1341</ele>
        <time>2022-08-26T16:32:20Z</time>
      </trkpt>
      <trkpt lat="45.90053" lon="6.82128">
        <ele>1341</ele>
        <time>2022-08-26T16:32:22Z</time>
      </trkpt>
      <trkpt lat="45.90053" lon="6.82123">
        <ele>1341</ele>
        <time>2022-08-26T16:32:23Z</time>
      </trkpt>
      <trkpt lat="45.90058" lon="6.82111">
        <ele>1343</ele>
        <time>2022-08-26T16:32:27Z</time>
      </trkpt>
      <trkpt lat="45.90058" lon="6.82108">
        <ele>1343</ele>
        <time>2022-08-26T16:32:28Z</time>
      </trkpt>
      <trkpt lat="45.90059" lon="6.82106">
        <ele>1343</ele>
        <time>2022-08-26T16:32:29Z</time>
      </trkpt>
      <trkpt lat="45.9006" lon="6.82103">
        <ele>1344</ele>
        <time>2022-08-26T16:32:30Z</time>
      </trkpt>
      <trkpt lat="45.90061" lon="6.82098">
        <ele>1345</ele>
        <time>2022-08-26T16:32:32Z</time>
      </trkpt>
      <trkpt lat="45.90062" lon="6.82094">
        <ele>1345</ele>
        <time>2022-08-26T16:32:34Z</time>
      </trkpt>
      <trkpt lat="45.90063" lon="6.8209">
        <ele>1346</ele>
        <time>2022-08-26T16:32:36Z</time>
      </trkpt>
      <trkpt lat="45.90064" lon="6.82086">
        <ele>1347</ele>
        <time>2022-08-26T16:32:38Z</time>
      </trkpt>
      <trkpt lat="45.90065" lon="6.82082">
        <ele>1347</ele>
        <time>2022-08-26T16:32:40Z</time>
      </trkpt>
      <trkpt lat="45.90066" lon="6.82078">
        <ele>1347</ele>
        <time>2022-08-26T16:32:42Z</time>
      </trkpt>
      <trkpt lat="45.90067" lon="6.82075">
        <ele>1348</ele>
        <time>2022-08-26T16:32:44Z</time>
      </trkpt>
      <trkpt lat="45.90068" lon="6.82071">
        <ele>1348</ele>
        <time>2022-08-26T16:32:46Z</time>
      </trkpt>
      <trkpt lat="45.90069" lon="6.82067">
        <ele>1349</ele>
        <time>2022-08-26T16:32:48Z</time>
      </trkpt>
      <trkpt lat="45.9007" lon="6.82064">
        <ele>1349</ele>
        <time>2022-08-26T16:32:50Z</time>
      </trkpt>
      <trkpt lat="45.90071" lon="6.8206">
        <ele>1349</ele>
        <time>2022-08-26T16:32:52Z</time>
      </trkpt>
      <trkpt lat="45.90073" lon="6.82057">
        <ele>1349</ele>
        <time>2022-08-26T16:32:54Z</time>
      </trkpt>
      <trkpt lat="45.90074" lon="6.82053">
        <ele>1350</ele>
        <time>2022-08-26T16:32:56Z</time>
      </trkpt>
      <trkpt lat="45.90075" lon="6.82049">
        <ele>1351</ele>
        <time>2022-08-26T16:32:58Z</time>
      </trkpt>
      <trkpt lat="45.90076" lon="6.82045">
        <ele>1351</ele>
        <time>2022-08-26T16:33:00Z</time>
      </trkpt>
      <trkpt lat="45.90077" lon="6.82041">
        <ele>1351</ele>
        <time>2022-08-26T16:33:02Z</time>
      </trkpt>
      <trkpt lat="45.90079" lon="6.82037">
        <ele>1352</ele>
        <time>2022-08-26T16:33:04Z</time>
      </trkpt>
      <trkpt lat="45.9008" lon="6.82034">
        <ele>1352</ele>
        <time>2022-08-26T16:33:06Z</time>
      </trkpt>
      <trkpt lat="45.90082" lon="6.8203">
        <ele>1352</ele>
        <time>2022-08-26T16:33:08Z</time>
      </trkpt>
      <trkpt lat="45.90083" lon="6.82027">
        <ele>1353</ele>
        <time>2022-08-26T16:33:10Z</time>
      </trkpt>
      <trkpt lat="45.90083" lon="6.82024">
        <ele>1354</ele>
        <time>2022-08-26T16:33:12Z</time>
      </trkpt>
      <trkpt lat="45.90083" lon="6.82021">
        <ele>1354</ele>
        <time>2022-08-26T16:33:14Z</time>
      </trkpt>
      <trkpt lat="45.90084" lon="6.82017">
        <ele>1355</ele>
        <time>2022-08-26T16:33:16Z</time>
      </trkpt>
      <trkpt lat="45.90085" lon="6.82014">
        <ele>1356</ele>
        <time>2022-08-26T16:33:18Z</time>
      </trkpt>
      <trkpt lat="45.90085" lon="6.8201">
        <ele>1356</ele>
        <time>2022-08-26T16:33:20Z</time>
      </trkpt>
      <trkpt lat="45.90084" lon="6.82007">
        <ele>1356</ele>
        <time>2022-08-26T16:33:22Z</time>
      </trkpt>
      <trkpt lat="45.90084" lon="6.82003">
        <ele>1356</ele>
        <time>2022-08-26T16:33:24Z</time>
      </trkpt>
      <trkpt lat="45.90083" lon="6.82002">
        <ele>1356</ele>
        <time>2022-08-26T16:33:25Z</time>
      </trkpt>
      <trkpt lat="45.90083" lon="6.82">
        <ele>1357</ele>
        <time>2022-08-26T16:33:27Z</time>
      </trkpt>
      <trkpt lat="45.90083" lon="6.81998">
        <ele>1357</ele>
        <time>2022-08-26T16:33:28Z</time>
      </trkpt>
      <trkpt lat="45.90082" lon="6.81996">
        <ele>1357</ele>
        <time>2022-08-26T16:33:29Z</time>
      </trkpt>
      <trkpt lat="45.90082" lon="6.81994">
        <ele>1358</ele>
        <time>2022-08-26T16:33:31Z</time>
      </trkpt>
      <trkpt lat="45.90081" lon="6.81991">
        <ele>1358</ele>
        <time>2022-08-26T16:33:33Z</time>
      </trkpt>
      <trkpt lat="45.90078" lon="6.81984">
        <ele>1359</ele>
        <time>2022-08-26T16:33:39Z</time>
      </trkpt>
      <trkpt lat="45.90077" lon="6.81982">
        <ele>1360</ele>
        <time>2022-08-26T16:33:40Z</time>
      </trkpt>
      <trkpt lat="45.90077" lon="6.8198">
        <ele>1360</ele>
        <time>2022-08-26T16:33:41Z</time>
      </trkpt>
      <trkpt lat="45.90077" lon="6.81978">
        <ele>1361</ele>
        <time>2022-08-26T16:33:42Z</time>
      </trkpt>
      <trkpt lat="45.90077" lon="6.81977">
        <ele>1361</ele>
        <time>2022-08-26T16:33:44Z</time>
      </trkpt>
      <trkpt lat="45.90076" lon="6.81975">
        <ele>1362</ele>
        <time>2022-08-26T16:33:46Z</time>
      </trkpt>
      <trkpt lat="45.90076" lon="6.81973">
        <ele>1362</ele>
        <time>2022-08-26T16:33:47Z</time>
      </trkpt>
      <trkpt lat="45.90076" lon="6.81971">
        <ele>1362</ele>
        <time>2022-08-26T16:33:48Z</time>
      </trkpt>
      <trkpt lat="45.90076" lon="6.81969">
        <ele>1363</ele>
        <time>2022-08-26T16:33:49Z</time>
      </trkpt>
      <trkpt lat="45.90075" lon="6.81968">
        <ele>1363</ele>
        <time>2022-08-26T16:33:50Z</time>
      </trkpt>
      <trkpt lat="45.90075" lon="6.81966">
        <ele>1363</ele>
        <time>2022-08-26T16:33:51Z</time>
      </trkpt>
      <trkpt lat="45.90075" lon="6.81964">
        <ele>1363</ele>
        <time>2022-08-26T16:33:52Z</time>
      </trkpt>
      <trkpt lat="45.90074" lon="6.81962">
        <ele>1364</ele>
        <time>2022-08-26T16:33:53Z</time>
      </trkpt>
      <trkpt lat="45.90074" lon="6.81949">
        <ele>1366</ele>
        <time>2022-08-26T16:34:00Z</time>
      </trkpt>
      <trkpt lat="45.90074" lon="6.81946">
        <ele>1366</ele>
        <time>2022-08-26T16:34:02Z</time>
      </trkpt>
      <trkpt lat="45.90074" lon="6.81943">
        <ele>1366</ele>
        <time>2022-08-26T16:34:04Z</time>
      </trkpt>
      <trkpt lat="45.90074" lon="6.81939">
        <ele>1367</ele>
        <time>2022-08-26T16:34:07Z</time>
      </trkpt>
      <trkpt lat="45.90075" lon="6.81936">
        <ele>1367</ele>
        <time>2022-08-26T16:34:09Z</time>
      </trkpt>
      <trkpt lat="45.90075" lon="6.81933">
        <ele>1368</ele>
        <time>2022-08-26T16:34:11Z</time>
      </trkpt>
      <trkpt lat="45.90076" lon="6.8193">
        <ele>1368</ele>
        <time>2022-08-26T16:34:13Z</time>
      </trkpt>
      <trkpt lat="45.90076" lon="6.81926">
        <ele>1369</ele>
        <time>2022-08-26T16:34:15Z</time>
      </trkpt>
      <trkpt lat="45.90077" lon="6.81923">
        <ele>1369</ele>
        <time>2022-08-26T16:34:17Z</time>
      </trkpt>
      <trkpt lat="45.90078" lon="6.81919">
        <ele>1369</ele>
        <time>2022-08-26T16:34:19Z</time>
      </trkpt>
      <trkpt lat="45.90079" lon="6.81916">
        <ele>1370</ele>
        <time>2022-08-26T16:34:21Z</time>
      </trkpt>
      <trkpt lat="45.9008" lon="6.81912">
        <ele>1370</ele>
        <time>2022-08-26T16:34:23Z</time>
      </trkpt>
      <trkpt lat="45.90081" lon="6.81909">
        <ele>1371</ele>
        <time>2022-08-26T16:34:25Z</time>
      </trkpt>
      <trkpt lat="45.90082" lon="6.81905">
        <ele>1371</ele>
        <time>2022-08-26T16:34:27Z</time>
      </trkpt>
      <trkpt lat="45.90084" lon="6.81901">
        <ele>1372</ele>
        <time>2022-08-26T16:34:29Z</time>
      </trkpt>
      <trkpt lat="45.90085" lon="6.81898">
        <ele>1372</ele>
        <time>2022-08-26T16:34:31Z</time>
      </trkpt>
      <trkpt lat="45.90085" lon="6.81894">
        <ele>1372</ele>
        <time>2022-08-26T16:34:34Z</time>
      </trkpt>
      <trkpt lat="45.90085" lon="6.81892">
        <ele>1372</ele>
        <time>2022-08-26T16:34:37Z</time>
      </trkpt>
      <trkpt lat="45.90086" lon="6.81888">
        <ele>1373</ele>
        <time>2022-08-26T16:34:38Z</time>
      </trkpt>
      <trkpt lat="45.90087" lon="6.81885">
        <ele>1373</ele>
        <time>2022-08-26T16:34:40Z</time>
      </trkpt>
      <trkpt lat="45.90087" lon="6.81881">
        <ele>1373</ele>
        <time>2022-08-26T16:34:42Z</time>
      </trkpt>
      <trkpt lat="45.90088" lon="6.81878">
        <ele>1374</ele>
        <time>2022-08-26T16:34:44Z</time>
      </trkpt>
      <trkpt lat="45.90088" lon="6.81874">
        <ele>1374</ele>
        <time>2022-08-26T16:34:46Z</time>
      </trkpt>
      <trkpt lat="45.90088" lon="6.8187">
        <ele>1374</ele>
        <time>2022-08-26T16:34:48Z</time>
      </trkpt>
      <trkpt lat="45.90088" lon="6.81866">
        <ele>1375</ele>
        <time>2022-08-26T16:34:50Z</time>
      </trkpt>
      <trkpt lat="45.90087" lon="6.81862">
        <ele>1376</ele>
        <time>2022-08-26T16:34:52Z</time>
      </trkpt>
      <trkpt lat="45.90087" lon="6.81859">
        <ele>1377</ele>
        <time>2022-08-26T16:34:54Z</time>
      </trkpt>
      <trkpt lat="45.90086" lon="6.81854">
        <ele>1378</ele>
        <time>2022-08-26T16:34:56Z</time>
      </trkpt>
      <trkpt lat="45.90085" lon="6.81851">
        <ele>1378</ele>
        <time>2022-08-26T16:34:58Z</time>
      </trkpt>
      <trkpt lat="45.90084" lon="6.81846">
        <ele>1378</ele>
        <time>2022-08-26T16:35:00Z</time>
      </trkpt>
      <trkpt lat="45.90084" lon="6.81843">
        <ele>1378</ele>
        <time>2022-08-26T16:35:01Z</time>
      </trkpt>
      <trkpt lat="45.90084" lon="6.8184">
        <ele>1378</ele>
        <time>2022-08-26T16:35:02Z</time>
      </trkpt>
      <trkpt lat="45.90085" lon="6.81836">
        <ele>1378</ele>
        <time>2022-08-26T16:35:03Z</time>
      </trkpt>
      <trkpt lat="45.90085" lon="6.81835">
        <ele>1378</ele>
        <time>2022-08-26T16:35:04Z</time>
      </trkpt>
      <trkpt lat="45.90087" lon="6.81832">
        <ele>1378</ele>
        <time>2022-08-26T16:35:05Z</time>
      </trkpt>
      <trkpt lat="45.90089" lon="6.81829">
        <ele>1378</ele>
        <time>2022-08-26T16:35:06Z</time>
      </trkpt>
      <trkpt lat="45.90091" lon="6.81827">
        <ele>1377</ele>
        <time>2022-08-26T16:35:07Z</time>
      </trkpt>
      <trkpt lat="45.90093" lon="6.81823">
        <ele>1377</ele>
        <time>2022-08-26T16:35:08Z</time>
      </trkpt>
      <trkpt lat="45.90094" lon="6.81821">
        <ele>1377</ele>
        <time>2022-08-26T16:35:09Z</time>
      </trkpt>
      <trkpt lat="45.90096" lon="6.81819">
        <ele>1377</ele>
        <time>2022-08-26T16:35:10Z</time>
      </trkpt>
      <trkpt lat="45.90097" lon="6.81817">
        <ele>1377</ele>
        <time>2022-08-26T16:35:11Z</time>
      </trkpt>
      <trkpt lat="45.90099" lon="6.81814">
        <ele>1377</ele>
        <time>2022-08-26T16:35:12Z</time>
      </trkpt>
      <trkpt lat="45.90101" lon="6.8181">
        <ele>1377</ele>
        <time>2022-08-26T16:35:13Z</time>
      </trkpt>
      <trkpt lat="45.90101" lon="6.81808">
        <ele>1377</ele>
        <time>2022-08-26T16:35:14Z</time>
      </trkpt>
      <trkpt lat="45.90102" lon="6.81804">
        <ele>1377</ele>
        <time>2022-08-26T16:35:15Z</time>
      </trkpt>
      <trkpt lat="45.90103" lon="6.81803">
        <ele>1376</ele>
        <time>2022-08-26T16:35:16Z</time>
      </trkpt>
      <trkpt lat="45.90105" lon="6.81799">
        <ele>1377</ele>
        <time>2022-08-26T16:35:18Z</time>
      </trkpt>
      <trkpt lat="45.90105" lon="6.81795">
        <ele>1377</ele>
        <time>2022-08-26T16:35:19Z</time>
      </trkpt>
      <trkpt lat="45.90107" lon="6.8179">
        <ele>1377</ele>
        <time>2022-08-26T16:35:20Z</time>
      </trkpt>
      <trkpt lat="45.90108" lon="6.81788">
        <ele>1377</ele>
        <time>2022-08-26T16:35:21Z</time>
      </trkpt>
      <trkpt lat="45.90109" lon="6.81785">
        <ele>1377</ele>
        <time>2022-08-26T16:35:22Z</time>
      </trkpt>
      <trkpt lat="45.9011" lon="6.81781">
        <ele>1378</ele>
        <time>2022-08-26T16:35:23Z</time>
      </trkpt>
      <trkpt lat="45.90111" lon="6.81776">
        <ele>1378</ele>
        <time>2022-08-26T16:35:24Z</time>
      </trkpt>
      <trkpt lat="45.90111" lon="6.81774">
        <ele>1378</ele>
        <time>2022-08-26T16:35:25Z</time>
      </trkpt>
      <trkpt lat="45.90112" lon="6.81771">
        <ele>1378</ele>
        <time>2022-08-26T16:35:26Z</time>
      </trkpt>
      <trkpt lat="45.90113" lon="6.81767">
        <ele>1379</ele>
        <time>2022-08-26T16:35:27Z</time>
      </trkpt>
      <trkpt lat="45.90114" lon="6.81763">
        <ele>1379</ele>
        <time>2022-08-26T16:35:28Z</time>
      </trkpt>
      <trkpt lat="45.90115" lon="6.81762">
        <ele>1379</ele>
        <time>2022-08-26T16:35:29Z</time>
      </trkpt>
      <trkpt lat="45.90116" lon="6.81758">
        <ele>1379</ele>
        <time>2022-08-26T16:35:30Z</time>
      </trkpt>
      <trkpt lat="45.90117" lon="6.81755">
        <ele>1379</ele>
        <time>2022-08-26T16:35:31Z</time>
      </trkpt>
      <trkpt lat="45.90118" lon="6.8175">
        <ele>1379</ele>
        <time>2022-08-26T16:35:32Z</time>
      </trkpt>
      <trkpt lat="45.90118" lon="6.81748">
        <ele>1379</ele>
        <time>2022-08-26T16:35:33Z</time>
      </trkpt>
      <trkpt lat="45.90119" lon="6.81742">
        <ele>1379</ele>
        <time>2022-08-26T16:35:34Z</time>
      </trkpt>
      <trkpt lat="45.9012" lon="6.8174">
        <ele>1379</ele>
        <time>2022-08-26T16:35:35Z</time>
      </trkpt>
      <trkpt lat="45.9012" lon="6.81735">
        <ele>1379</ele>
        <time>2022-08-26T16:35:36Z</time>
      </trkpt>
      <trkpt lat="45.90121" lon="6.81733">
        <ele>1380</ele>
        <time>2022-08-26T16:35:37Z</time>
      </trkpt>
      <trkpt lat="45.90121" lon="6.8173">
        <ele>1380</ele>
        <time>2022-08-26T16:35:38Z</time>
      </trkpt>
      <trkpt lat="45.90122" lon="6.81727">
        <ele>1380</ele>
        <time>2022-08-26T16:35:39Z</time>
      </trkpt>
      <trkpt lat="45.90123" lon="6.81724">
        <ele>1380</ele>
        <time>2022-08-26T16:35:40Z</time>
      </trkpt>
      <trkpt lat="45.90124" lon="6.81719">
        <ele>1380</ele>
        <time>2022-08-26T16:35:41Z</time>
      </trkpt>
      <trkpt lat="45.90125" lon="6.81718">
        <ele>1380</ele>
        <time>2022-08-26T16:35:42Z</time>
      </trkpt>
      <trkpt lat="45.90126" lon="6.81715">
        <ele>1380</ele>
        <time>2022-08-26T16:35:43Z</time>
      </trkpt>
      <trkpt lat="45.90126" lon="6.81713">
        <ele>1381</ele>
        <time>2022-08-26T16:35:44Z</time>
      </trkpt>
      <trkpt lat="45.90128" lon="6.81708">
        <ele>1381</ele>
        <time>2022-08-26T16:35:45Z</time>
      </trkpt>
      <trkpt lat="45.90128" lon="6.81707">
        <ele>1381</ele>
        <time>2022-08-26T16:35:46Z</time>
      </trkpt>
      <trkpt lat="45.90129" lon="6.81704">
        <ele>1381</ele>
        <time>2022-08-26T16:35:47Z</time>
      </trkpt>
      <trkpt lat="45.90129" lon="6.81701">
        <ele>1381</ele>
        <time>2022-08-26T16:35:48Z</time>
      </trkpt>
      <trkpt lat="45.9013" lon="6.81698">
        <ele>1381</ele>
        <time>2022-08-26T16:35:49Z</time>
      </trkpt>
      <trkpt lat="45.90131" lon="6.81695">
        <ele>1381</ele>
        <time>2022-08-26T16:35:50Z</time>
      </trkpt>
      <trkpt lat="45.90132" lon="6.81692">
        <ele>1381</ele>
        <time>2022-08-26T16:35:51Z</time>
      </trkpt>
      <trkpt lat="45.90133" lon="6.81688">
        <ele>1381</ele>
        <time>2022-08-26T16:35:52Z</time>
      </trkpt>
      <trkpt lat="45.90134" lon="6.81685">
        <ele>1381</ele>
        <time>2022-08-26T16:35:53Z</time>
      </trkpt>
      <trkpt lat="45.90135" lon="6.81682">
        <ele>1381</ele>
        <time>2022-08-26T16:35:54Z</time>
      </trkpt>
      <trkpt lat="45.90136" lon="6.8168">
        <ele>1381</ele>
        <time>2022-08-26T16:35:55Z</time>
      </trkpt>
      <trkpt lat="45.90137" lon="6.81675">
        <ele>1381</ele>
        <time>2022-08-26T16:35:56Z</time>
      </trkpt>
      <trkpt lat="45.90137" lon="6.81673">
        <ele>1381</ele>
        <time>2022-08-26T16:35:57Z</time>
      </trkpt>
      <trkpt lat="45.90138" lon="6.8167">
        <ele>1381</ele>
        <time>2022-08-26T16:35:58Z</time>
      </trkpt>
      <trkpt lat="45.90139" lon="6.81667">
        <ele>1381</ele>
        <time>2022-08-26T16:35:59Z</time>
      </trkpt>
      <trkpt lat="45.9014" lon="6.81663">
        <ele>1381</ele>
        <time>2022-08-26T16:36:00Z</time>
      </trkpt>
      <trkpt lat="45.90141" lon="6.81658">
        <ele>1381</ele>
        <time>2022-08-26T16:36:01Z</time>
      </trkpt>
      <trkpt lat="45.90142" lon="6.81656">
        <ele>1382</ele>
        <time>2022-08-26T16:36:02Z</time>
      </trkpt>
      <trkpt lat="45.90143" lon="6.8165">
        <ele>1382</ele>
        <time>2022-08-26T16:36:03Z</time>
      </trkpt>
      <trkpt lat="45.90143" lon="6.81649">
        <ele>1382</ele>
        <time>2022-08-26T16:36:04Z</time>
      </trkpt>
      <trkpt lat="45.90144" lon="6.81645">
        <ele>1382</ele>
        <time>2022-08-26T16:36:05Z</time>
      </trkpt>
      <trkpt lat="45.90145" lon="6.8164">
        <ele>1382</ele>
        <time>2022-08-26T16:36:06Z</time>
      </trkpt>
      <trkpt lat="45.90146" lon="6.81639">
        <ele>1382</ele>
        <time>2022-08-26T16:36:07Z</time>
      </trkpt>
      <trkpt lat="45.90146" lon="6.81636">
        <ele>1382</ele>
        <time>2022-08-26T16:36:08Z</time>
      </trkpt>
      <trkpt lat="45.90147" lon="6.81633">
        <ele>1382</ele>
        <time>2022-08-26T16:36:09Z</time>
      </trkpt>
      <trkpt lat="45.90147" lon="6.81628">
        <ele>1382</ele>
        <time>2022-08-26T16:36:10Z</time>
      </trkpt>
      <trkpt lat="45.90148" lon="6.81626">
        <ele>1381</ele>
        <time>2022-08-26T16:36:11Z</time>
      </trkpt>
      <trkpt lat="45.90148" lon="6.81623">
        <ele>1381</ele>
        <time>2022-08-26T16:36:12Z</time>
      </trkpt>
      <trkpt lat="45.90149" lon="6.8162">
        <ele>1381</ele>
        <time>2022-08-26T16:36:13Z</time>
      </trkpt>
      <trkpt lat="45.90149" lon="6.81617">
        <ele>1381</ele>
        <time>2022-08-26T16:36:14Z</time>
      </trkpt>
      <trkpt lat="45.9015" lon="6.81614">
        <ele>1381</ele>
        <time>2022-08-26T16:36:15Z</time>
      </trkpt>
      <trkpt lat="45.90151" lon="6.81609">
        <ele>1381</ele>
        <time>2022-08-26T16:36:16Z</time>
      </trkpt>
      <trkpt lat="45.90151" lon="6.81608">
        <ele>1381</ele>
        <time>2022-08-26T16:36:17Z</time>
      </trkpt>
      <trkpt lat="45.90153" lon="6.81604">
        <ele>1381</ele>
        <time>2022-08-26T16:36:18Z</time>
      </trkpt>
      <trkpt lat="45.90154" lon="6.81602">
        <ele>1381</ele>
        <time>2022-08-26T16:36:19Z</time>
      </trkpt>
      <trkpt lat="45.90155" lon="6.81599">
        <ele>1381</ele>
        <time>2022-08-26T16:36:20Z</time>
      </trkpt>
      <trkpt lat="45.90157" lon="6.81596">
        <ele>1381</ele>
        <time>2022-08-26T16:36:21Z</time>
      </trkpt>
      <trkpt lat="45.90158" lon="6.81593">
        <ele>1381</ele>
        <time>2022-08-26T16:36:22Z</time>
      </trkpt>
      <trkpt lat="45.9016" lon="6.81589">
        <ele>1381</ele>
        <time>2022-08-26T16:36:23Z</time>
      </trkpt>
      <trkpt lat="45.90161" lon="6.81587">
        <ele>1381</ele>
        <time>2022-08-26T16:36:24Z</time>
      </trkpt>
      <trkpt lat="45.90162" lon="6.81584">
        <ele>1381</ele>
        <time>2022-08-26T16:36:25Z</time>
      </trkpt>
      <trkpt lat="45.90164" lon="6.81581">
        <ele>1381</ele>
        <time>2022-08-26T16:36:26Z</time>
      </trkpt>
      <trkpt lat="45.90166" lon="6.81574">
        <ele>1381</ele>
        <time>2022-08-26T16:36:27Z</time>
      </trkpt>
      <trkpt lat="45.90167" lon="6.81572">
        <ele>1381</ele>
        <time>2022-08-26T16:36:28Z</time>
      </trkpt>
      <trkpt lat="45.90168" lon="6.81566">
        <ele>1381</ele>
        <time>2022-08-26T16:36:29Z</time>
      </trkpt>
      <trkpt lat="45.90169" lon="6.81565">
        <ele>1380</ele>
        <time>2022-08-26T16:36:30Z</time>
      </trkpt>
      <trkpt lat="45.9017" lon="6.8156">
        <ele>1380</ele>
        <time>2022-08-26T16:36:31Z</time>
      </trkpt>
      <trkpt lat="45.9017" lon="6.81558">
        <ele>1380</ele>
        <time>2022-08-26T16:36:32Z</time>
      </trkpt>
      <trkpt lat="45.90171" lon="6.81554">
        <ele>1380</ele>
        <time>2022-08-26T16:36:33Z</time>
      </trkpt>
      <trkpt lat="45.90172" lon="6.8155">
        <ele>1380</ele>
        <time>2022-08-26T16:36:34Z</time>
      </trkpt>
      <trkpt lat="45.90173" lon="6.81546">
        <ele>1380</ele>
        <time>2022-08-26T16:36:35Z</time>
      </trkpt>
      <trkpt lat="45.90173" lon="6.81541">
        <ele>1380</ele>
        <time>2022-08-26T16:36:36Z</time>
      </trkpt>
      <trkpt lat="45.90173" lon="6.81539">
        <ele>1380</ele>
        <time>2022-08-26T16:36:37Z</time>
      </trkpt>
      <trkpt lat="45.90174" lon="6.81536">
        <ele>1380</ele>
        <time>2022-08-26T16:36:38Z</time>
      </trkpt>
      <trkpt lat="45.90174" lon="6.81532">
        <ele>1380</ele>
        <time>2022-08-26T16:36:39Z</time>
      </trkpt>
      <trkpt lat="45.90174" lon="6.81528">
        <ele>1381</ele>
        <time>2022-08-26T16:36:40Z</time>
      </trkpt>
      <trkpt lat="45.90175" lon="6.81523">
        <ele>1381</ele>
        <time>2022-08-26T16:36:41Z</time>
      </trkpt>
      <trkpt lat="45.90175" lon="6.81521">
        <ele>1381</ele>
        <time>2022-08-26T16:36:42Z</time>
      </trkpt>
      <trkpt lat="45.90176" lon="6.81516">
        <ele>1381</ele>
        <time>2022-08-26T16:36:43Z</time>
      </trkpt>
      <trkpt lat="45.90176" lon="6.81514">
        <ele>1381</ele>
        <time>2022-08-26T16:36:44Z</time>
      </trkpt>
      <trkpt lat="45.90176" lon="6.81508">
        <ele>1381</ele>
        <time>2022-08-26T16:36:45Z</time>
      </trkpt>
      <trkpt lat="45.90176" lon="6.81507">
        <ele>1381</ele>
        <time>2022-08-26T16:36:46Z</time>
      </trkpt>
      <trkpt lat="45.90176" lon="6.81503">
        <ele>1381</ele>
        <time>2022-08-26T16:36:47Z</time>
      </trkpt>
      <trkpt lat="45.90176" lon="6.81498">
        <ele>1381</ele>
        <time>2022-08-26T16:36:48Z</time>
      </trkpt>
      <trkpt lat="45.90176" lon="6.81497">
        <ele>1381</ele>
        <time>2022-08-26T16:36:49Z</time>
      </trkpt>
      <trkpt lat="45.90176" lon="6.81494">
        <ele>1381</ele>
        <time>2022-08-26T16:36:50Z</time>
      </trkpt>
      <trkpt lat="45.90176" lon="6.81491">
        <ele>1382</ele>
        <time>2022-08-26T16:36:51Z</time>
      </trkpt>
      <trkpt lat="45.90176" lon="6.81488">
        <ele>1382</ele>
        <time>2022-08-26T16:36:52Z</time>
      </trkpt>
      <trkpt lat="45.90175" lon="6.81485">
        <ele>1382</ele>
        <time>2022-08-26T16:36:53Z</time>
      </trkpt>
      <trkpt lat="45.90175" lon="6.81482">
        <ele>1382</ele>
        <time>2022-08-26T16:36:54Z</time>
      </trkpt>
      <trkpt lat="45.90174" lon="6.81478">
        <ele>1382</ele>
        <time>2022-08-26T16:36:56Z</time>
      </trkpt>
      <trkpt lat="45.90174" lon="6.81475">
        <ele>1382</ele>
        <time>2022-08-26T16:36:57Z</time>
      </trkpt>
      <trkpt lat="45.90174" lon="6.81472">
        <ele>1382</ele>
        <time>2022-08-26T16:36:58Z</time>
      </trkpt>
      <trkpt lat="45.90174" lon="6.81469">
        <ele>1382</ele>
        <time>2022-08-26T16:36:59Z</time>
      </trkpt>
      <trkpt lat="45.90174" lon="6.81464">
        <ele>1382</ele>
        <time>2022-08-26T16:37:01Z</time>
      </trkpt>
      <trkpt lat="45.90174" lon="6.8146">
        <ele>1382</ele>
        <time>2022-08-26T16:37:02Z</time>
      </trkpt>
      <trkpt lat="45.90174" lon="6.81457">
        <ele>1382</ele>
        <time>2022-08-26T16:37:03Z</time>
      </trkpt>
      <trkpt lat="45.90173" lon="6.81454">
        <ele>1382</ele>
        <time>2022-08-26T16:37:04Z</time>
      </trkpt>
      <trkpt lat="45.90173" lon="6.81449">
        <ele>1382</ele>
        <time>2022-08-26T16:37:05Z</time>
      </trkpt>
      <trkpt lat="45.90173" lon="6.81447">
        <ele>1383</ele>
        <time>2022-08-26T16:37:06Z</time>
      </trkpt>
      <trkpt lat="45.90173" lon="6.81442">
        <ele>1383</ele>
        <time>2022-08-26T16:37:07Z</time>
      </trkpt>
      <trkpt lat="45.90173" lon="6.81441">
        <ele>1383</ele>
        <time>2022-08-26T16:37:08Z</time>
      </trkpt>
      <trkpt lat="45.90173" lon="6.81435">
        <ele>1383</ele>
        <time>2022-08-26T16:37:09Z</time>
      </trkpt>
      <trkpt lat="45.90173" lon="6.81434">
        <ele>1383</ele>
        <time>2022-08-26T16:37:10Z</time>
      </trkpt>
      <trkpt lat="45.90173" lon="6.8143">
        <ele>1383</ele>
        <time>2022-08-26T16:37:11Z</time>
      </trkpt>
      <trkpt lat="45.90173" lon="6.81425">
        <ele>1383</ele>
        <time>2022-08-26T16:37:12Z</time>
      </trkpt>
      <trkpt lat="45.90173" lon="6.81423">
        <ele>1383</ele>
        <time>2022-08-26T16:37:13Z</time>
      </trkpt>
      <trkpt lat="45.90172" lon="6.81418">
        <ele>1383</ele>
        <time>2022-08-26T16:37:14Z</time>
      </trkpt>
      <trkpt lat="45.90172" lon="6.81417">
        <ele>1384</ele>
        <time>2022-08-26T16:37:15Z</time>
      </trkpt>
      <trkpt lat="45.90172" lon="6.81414">
        <ele>1384</ele>
        <time>2022-08-26T16:37:16Z</time>
      </trkpt>
      <trkpt lat="45.90173" lon="6.81411">
        <ele>1384</ele>
        <time>2022-08-26T16:37:17Z</time>
      </trkpt>
      <trkpt lat="45.90173" lon="6.81408">
        <ele>1384</ele>
        <time>2022-08-26T16:37:18Z</time>
      </trkpt>
      <trkpt lat="45.90174" lon="6.81402">
        <ele>1384</ele>
        <time>2022-08-26T16:37:19Z</time>
      </trkpt>
      <trkpt lat="45.90174" lon="6.814">
        <ele>1384</ele>
        <time>2022-08-26T16:37:20Z</time>
      </trkpt>
      <trkpt lat="45.90174" lon="6.81397">
        <ele>1384</ele>
        <time>2022-08-26T16:37:21Z</time>
      </trkpt>
      <trkpt lat="45.90174" lon="6.81393">
        <ele>1384</ele>
        <time>2022-08-26T16:37:22Z</time>
      </trkpt>
      <trkpt lat="45.90175" lon="6.81389">
        <ele>1384</ele>
        <time>2022-08-26T16:37:23Z</time>
      </trkpt>
      <trkpt lat="45.90175" lon="6.81384">
        <ele>1384</ele>
        <time>2022-08-26T16:37:24Z</time>
      </trkpt>
      <trkpt lat="45.90175" lon="6.81382">
        <ele>1384</ele>
        <time>2022-08-26T16:37:25Z</time>
      </trkpt>
      <trkpt lat="45.90175" lon="6.81376">
        <ele>1384</ele>
        <time>2022-08-26T16:37:26Z</time>
      </trkpt>
      <trkpt lat="45.90176" lon="6.81374">
        <ele>1384</ele>
        <time>2022-08-26T16:37:27Z</time>
      </trkpt>
      <trkpt lat="45.90176" lon="6.8137">
        <ele>1384</ele>
        <time>2022-08-26T16:37:28Z</time>
      </trkpt>
      <trkpt lat="45.90176" lon="6.81365">
        <ele>1384</ele>
        <time>2022-08-26T16:37:29Z</time>
      </trkpt>
      <trkpt lat="45.90176" lon="6.81363">
        <ele>1384</ele>
        <time>2022-08-26T16:37:30Z</time>
      </trkpt>
      <trkpt lat="45.90176" lon="6.8136">
        <ele>1384</ele>
        <time>2022-08-26T16:37:31Z</time>
      </trkpt>
      <trkpt lat="45.90176" lon="6.81356">
        <ele>1384</ele>
        <time>2022-08-26T16:37:32Z</time>
      </trkpt>
      <trkpt lat="45.90176" lon="6.81353">
        <ele>1384</ele>
        <time>2022-08-26T16:37:33Z</time>
      </trkpt>
      <trkpt lat="45.90176" lon="6.81348">
        <ele>1384</ele>
        <time>2022-08-26T16:37:34Z</time>
      </trkpt>
      <trkpt lat="45.90176" lon="6.81347">
        <ele>1385</ele>
        <time>2022-08-26T16:37:35Z</time>
      </trkpt>
      <trkpt lat="45.90175" lon="6.81344">
        <ele>1385</ele>
        <time>2022-08-26T16:37:36Z</time>
      </trkpt>
      <trkpt lat="45.90175" lon="6.8134">
        <ele>1385</ele>
        <time>2022-08-26T16:37:37Z</time>
      </trkpt>
      <trkpt lat="45.90175" lon="6.81337">
        <ele>1385</ele>
        <time>2022-08-26T16:37:38Z</time>
      </trkpt>
      <trkpt lat="45.90175" lon="6.81332">
        <ele>1385</ele>
        <time>2022-08-26T16:37:39Z</time>
      </trkpt>
      <trkpt lat="45.90175" lon="6.81331">
        <ele>1385</ele>
        <time>2022-08-26T16:37:40Z</time>
      </trkpt>
      <trkpt lat="45.90175" lon="6.81326">
        <ele>1385</ele>
        <time>2022-08-26T16:37:41Z</time>
      </trkpt>
      <trkpt lat="45.90175" lon="6.81324">
        <ele>1385</ele>
        <time>2022-08-26T16:37:42Z</time>
      </trkpt>
      <trkpt lat="45.90174" lon="6.81321">
        <ele>1385</ele>
        <time>2022-08-26T16:37:43Z</time>
      </trkpt>
      <trkpt lat="45.90173" lon="6.81318">
        <ele>1385</ele>
        <time>2022-08-26T16:37:44Z</time>
      </trkpt>
      <trkpt lat="45.90173" lon="6.81314">
        <ele>1385</ele>
        <time>2022-08-26T16:37:46Z</time>
      </trkpt>
      <trkpt lat="45.90173" lon="6.81311">
        <ele>1385</ele>
        <time>2022-08-26T16:37:47Z</time>
      </trkpt>
      <trkpt lat="45.90172" lon="6.81308">
        <ele>1385</ele>
        <time>2022-08-26T16:37:48Z</time>
      </trkpt>
      <trkpt lat="45.90172" lon="6.81305">
        <ele>1385</ele>
        <time>2022-08-26T16:37:49Z</time>
      </trkpt>
      <trkpt lat="45.90171" lon="6.813">
        <ele>1385</ele>
        <time>2022-08-26T16:37:50Z</time>
      </trkpt>
      <trkpt lat="45.9017" lon="6.81296">
        <ele>1385</ele>
        <time>2022-08-26T16:37:51Z</time>
      </trkpt>
      <trkpt lat="45.90169" lon="6.81292">
        <ele>1385</ele>
        <time>2022-08-26T16:37:52Z</time>
      </trkpt>
      <trkpt lat="45.90168" lon="6.81288">
        <ele>1385</ele>
        <time>2022-08-26T16:37:53Z</time>
      </trkpt>
      <trkpt lat="45.90167" lon="6.81285">
        <ele>1385</ele>
        <time>2022-08-26T16:37:54Z</time>
      </trkpt>
      <trkpt lat="45.90167" lon="6.8128">
        <ele>1385</ele>
        <time>2022-08-26T16:37:55Z</time>
      </trkpt>
      <trkpt lat="45.90167" lon="6.81273">
        <ele>1385</ele>
        <time>2022-08-26T16:37:57Z</time>
      </trkpt>
      <trkpt lat="45.90167" lon="6.81269">
        <ele>1384</ele>
        <time>2022-08-26T16:37:58Z</time>
      </trkpt>
      <trkpt lat="45.90166" lon="6.81266">
        <ele>1384</ele>
        <time>2022-08-26T16:37:59Z</time>
      </trkpt>
      <trkpt lat="45.90166" lon="6.81262">
        <ele>1385</ele>
        <time>2022-08-26T16:38:00Z</time>
      </trkpt>
      <trkpt lat="45.90166" lon="6.81257">
        <ele>1385</ele>
        <time>2022-08-26T16:38:01Z</time>
      </trkpt>
      <trkpt lat="45.90165" lon="6.81256">
        <ele>1385</ele>
        <time>2022-08-26T16:38:02Z</time>
      </trkpt>
      <trkpt lat="45.90165" lon="6.81253">
        <ele>1385</ele>
        <time>2022-08-26T16:38:03Z</time>
      </trkpt>
      <trkpt lat="45.90165" lon="6.81248">
        <ele>1385</ele>
        <time>2022-08-26T16:38:04Z</time>
      </trkpt>
      <trkpt lat="45.90165" lon="6.81246">
        <ele>1385</ele>
        <time>2022-08-26T16:38:05Z</time>
      </trkpt>
      <trkpt lat="45.90164" lon="6.81241">
        <ele>1385</ele>
        <time>2022-08-26T16:38:06Z</time>
      </trkpt>
      <trkpt lat="45.90164" lon="6.81239">
        <ele>1385</ele>
        <time>2022-08-26T16:38:07Z</time>
      </trkpt>
      <trkpt lat="45.90163" lon="6.81235">
        <ele>1385</ele>
        <time>2022-08-26T16:38:08Z</time>
      </trkpt>
      <trkpt lat="45.90163" lon="6.81233">
        <ele>1385</ele>
        <time>2022-08-26T16:38:09Z</time>
      </trkpt>
      <trkpt lat="45.90163" lon="6.8123">
        <ele>1385</ele>
        <time>2022-08-26T16:38:10Z</time>
      </trkpt>
      <trkpt lat="45.90162" lon="6.81227">
        <ele>1385</ele>
        <time>2022-08-26T16:38:11Z</time>
      </trkpt>
      <trkpt lat="45.90162" lon="6.81222">
        <ele>1385</ele>
        <time>2022-08-26T16:38:12Z</time>
      </trkpt>
      <trkpt lat="45.90161" lon="6.81221">
        <ele>1386</ele>
        <time>2022-08-26T16:38:13Z</time>
      </trkpt>
      <trkpt lat="45.9016" lon="6.81216">
        <ele>1387</ele>
        <time>2022-08-26T16:38:15Z</time>
      </trkpt>
      <trkpt lat="45.9016" lon="6.81213">
        <ele>1387</ele>
        <time>2022-08-26T16:38:16Z</time>
      </trkpt>
      <trkpt lat="45.9016" lon="6.81209">
        <ele>1387</ele>
        <time>2022-08-26T16:38:17Z</time>
      </trkpt>
      <trkpt lat="45.9016" lon="6.81207">
        <ele>1388</ele>
        <time>2022-08-26T16:38:18Z</time>
      </trkpt>
      <trkpt lat="45.9016" lon="6.81205">
        <ele>1388</ele>
        <time>2022-08-26T16:38:19Z</time>
      </trkpt>
      <trkpt lat="45.90161" lon="6.81201">
        <ele>1388</ele>
        <time>2022-08-26T16:38:20Z</time>
      </trkpt>
      <trkpt lat="45.90161" lon="6.81199">
        <ele>1388</ele>
        <time>2022-08-26T16:38:21Z</time>
      </trkpt>
      <trkpt lat="45.90162" lon="6.81193">
        <ele>1388</ele>
        <time>2022-08-26T16:38:23Z</time>
      </trkpt>
      <trkpt lat="45.90163" lon="6.81191">
        <ele>1388</ele>
        <time>2022-08-26T16:38:24Z</time>
      </trkpt>
      <trkpt lat="45.90162" lon="6.81187">
        <ele>1388</ele>
        <time>2022-08-26T16:38:25Z</time>
      </trkpt>
      <trkpt lat="45.90162" lon="6.81185">
        <ele>1388</ele>
        <time>2022-08-26T16:38:26Z</time>
      </trkpt>
      <trkpt lat="45.90162" lon="6.81182">
        <ele>1388</ele>
        <time>2022-08-26T16:38:27Z</time>
      </trkpt>
      <trkpt lat="45.90162" lon="6.81178">
        <ele>1388</ele>
        <time>2022-08-26T16:38:28Z</time>
      </trkpt>
      <trkpt lat="45.90161" lon="6.81175">
        <ele>1388</ele>
        <time>2022-08-26T16:38:29Z</time>
      </trkpt>
      <trkpt lat="45.9016" lon="6.8117">
        <ele>1388</ele>
        <time>2022-08-26T16:38:30Z</time>
      </trkpt>
      <trkpt lat="45.90159" lon="6.81169">
        <ele>1388</ele>
        <time>2022-08-26T16:38:31Z</time>
      </trkpt>
      <trkpt lat="45.90158" lon="6.81166">
        <ele>1388</ele>
        <time>2022-08-26T16:38:32Z</time>
      </trkpt>
      <trkpt lat="45.90158" lon="6.81163">
        <ele>1388</ele>
        <time>2022-08-26T16:38:33Z</time>
      </trkpt>
      <trkpt lat="45.90157" lon="6.8116">
        <ele>1388</ele>
        <time>2022-08-26T16:38:34Z</time>
      </trkpt>
      <trkpt lat="45.90157" lon="6.81157">
        <ele>1388</ele>
        <time>2022-08-26T16:38:35Z</time>
      </trkpt>
      <trkpt lat="45.90156" lon="6.81154">
        <ele>1388</ele>
        <time>2022-08-26T16:38:36Z</time>
      </trkpt>
      <trkpt lat="45.90155" lon="6.81151">
        <ele>1388</ele>
        <time>2022-08-26T16:38:37Z</time>
      </trkpt>
      <trkpt lat="45.90155" lon="6.81148">
        <ele>1388</ele>
        <time>2022-08-26T16:38:38Z</time>
      </trkpt>
      <trkpt lat="45.90155" lon="6.81145">
        <ele>1388</ele>
        <time>2022-08-26T16:38:39Z</time>
      </trkpt>
      <trkpt lat="45.90154" lon="6.81142">
        <ele>1388</ele>
        <time>2022-08-26T16:38:40Z</time>
      </trkpt>
      <trkpt lat="45.90153" lon="6.81138">
        <ele>1388</ele>
        <time>2022-08-26T16:38:41Z</time>
      </trkpt>
      <trkpt lat="45.90153" lon="6.81134">
        <ele>1387</ele>
        <time>2022-08-26T16:38:42Z</time>
      </trkpt>
      <trkpt lat="45.90153" lon="6.81131">
        <ele>1387</ele>
        <time>2022-08-26T16:38:43Z</time>
      </trkpt>
      <trkpt lat="45.90152" lon="6.81128">
        <ele>1387</ele>
        <time>2022-08-26T16:38:44Z</time>
      </trkpt>
      <trkpt lat="45.90152" lon="6.81125">
        <ele>1387</ele>
        <time>2022-08-26T16:38:45Z</time>
      </trkpt>
      <trkpt lat="45.90152" lon="6.81122">
        <ele>1386</ele>
        <time>2022-08-26T16:38:46Z</time>
      </trkpt>
      <trkpt lat="45.90151" lon="6.81119">
        <ele>1386</ele>
        <time>2022-08-26T16:38:47Z</time>
      </trkpt>
      <trkpt lat="45.9015" lon="6.81115">
        <ele>1386</ele>
        <time>2022-08-26T16:38:48Z</time>
      </trkpt>
      <trkpt lat="45.9015" lon="6.81111">
        <ele>1385</ele>
        <time>2022-08-26T16:38:50Z</time>
      </trkpt>
      <trkpt lat="45.9015" lon="6.81107">
        <ele>1385</ele>
        <time>2022-08-26T16:38:51Z</time>
      </trkpt>
      <trkpt lat="45.90149" lon="6.81103">
        <ele>1385</ele>
        <time>2022-08-26T16:38:52Z</time>
      </trkpt>
      <trkpt lat="45.90147" lon="6.81098">
        <ele>1384</ele>
        <time>2022-08-26T16:38:53Z</time>
      </trkpt>
      <trkpt lat="45.90145" lon="6.81092">
        <ele>1384</ele>
        <time>2022-08-26T16:38:54Z</time>
      </trkpt>
      <trkpt lat="45.90143" lon="6.81089">
        <ele>1384</ele>
        <time>2022-08-26T16:38:55Z</time>
      </trkpt>
      <trkpt lat="45.90142" lon="6.81086">
        <ele>1384</ele>
        <time>2022-08-26T16:38:57Z</time>
      </trkpt>
      <trkpt lat="45.9014" lon="6.81082">
        <ele>1384</ele>
        <time>2022-08-26T16:38:58Z</time>
      </trkpt>
      <trkpt lat="45.90138" lon="6.81079">
        <ele>1383</ele>
        <time>2022-08-26T16:38:59Z</time>
      </trkpt>
      <trkpt lat="45.90134" lon="6.81065">
        <ele>1383</ele>
        <time>2022-08-26T16:39:02Z</time>
      </trkpt>
      <trkpt lat="45.90134" lon="6.81064">
        <ele>1382</ele>
        <time>2022-08-26T16:39:04Z</time>
      </trkpt>
      <trkpt lat="45.90134" lon="6.81062">
        <ele>1382</ele>
        <time>2022-08-26T16:39:05Z</time>
      </trkpt>
      <trkpt lat="45.90134" lon="6.81061">
        <ele>1382</ele>
        <time>2022-08-26T16:39:06Z</time>
      </trkpt>
      <trkpt lat="45.90133" lon="6.8106">
        <ele>1381</ele>
        <time>2022-08-26T16:39:07Z</time>
      </trkpt>
      <trkpt lat="45.90131" lon="6.81049">
        <ele>1381</ele>
        <time>2022-08-26T16:39:09Z</time>
      </trkpt>
      <trkpt lat="45.90129" lon="6.81035">
        <ele>1381</ele>
        <time>2022-08-26T16:39:11Z</time>
      </trkpt>
      <trkpt lat="45.90128" lon="6.81031">
        <ele>1381</ele>
        <time>2022-08-26T16:39:12Z</time>
      </trkpt>
      <trkpt lat="45.90128" lon="6.81028">
        <ele>1380</ele>
        <time>2022-08-26T16:39:13Z</time>
      </trkpt>
      <trkpt lat="45.90128" lon="6.81024">
        <ele>1380</ele>
        <time>2022-08-26T16:39:14Z</time>
      </trkpt>
      <trkpt lat="45.90127" lon="6.81021">
        <ele>1379</ele>
        <time>2022-08-26T16:39:15Z</time>
      </trkpt>
      <trkpt lat="45.90127" lon="6.81018">
        <ele>1379</ele>
        <time>2022-08-26T16:39:16Z</time>
      </trkpt>
      <trkpt lat="45.90126" lon="6.81015">
        <ele>1379</ele>
        <time>2022-08-26T16:39:17Z</time>
      </trkpt>
      <trkpt lat="45.90125" lon="6.81013">
        <ele>1378</ele>
        <time>2022-08-26T16:39:18Z</time>
      </trkpt>
      <trkpt lat="45.90121" lon="6.80995">
        <ele>1378</ele>
        <time>2022-08-26T16:39:20Z</time>
      </trkpt>
      <trkpt lat="45.9012" lon="6.80992">
        <ele>1377</ele>
        <time>2022-08-26T16:39:21Z</time>
      </trkpt>
      <trkpt lat="45.90119" lon="6.80988">
        <ele>1377</ele>
        <time>2022-08-26T16:39:22Z</time>
      </trkpt>
      <trkpt lat="45.90118" lon="6.80985">
        <ele>1376</ele>
        <time>2022-08-26T16:39:23Z</time>
      </trkpt>
      <trkpt lat="45.90117" lon="6.80981">
        <ele>1376</ele>
        <time>2022-08-26T16:39:24Z</time>
      </trkpt>
      <trkpt lat="45.90115" lon="6.80976">
        <ele>1376</ele>
        <time>2022-08-26T16:39:25Z</time>
      </trkpt>
      <trkpt lat="45.90114" lon="6.80974">
        <ele>1376</ele>
        <time>2022-08-26T16:39:26Z</time>
      </trkpt>
      <trkpt lat="45.90112" lon="6.80971">
        <ele>1375</ele>
        <time>2022-08-26T16:39:27Z</time>
      </trkpt>
      <trkpt lat="45.90111" lon="6.80968">
        <ele>1375</ele>
        <time>2022-08-26T16:39:28Z</time>
      </trkpt>
      <trkpt lat="45.9011" lon="6.80964">
        <ele>1375</ele>
        <time>2022-08-26T16:39:29Z</time>
      </trkpt>
      <trkpt lat="45.90109" lon="6.80958">
        <ele>1375</ele>
        <time>2022-08-26T16:39:30Z</time>
      </trkpt>
      <trkpt lat="45.90108" lon="6.80956">
        <ele>1374</ele>
        <time>2022-08-26T16:39:31Z</time>
      </trkpt>
      <trkpt lat="45.90106" lon="6.80951">
        <ele>1374</ele>
        <time>2022-08-26T16:39:32Z</time>
      </trkpt>
      <trkpt lat="45.90105" lon="6.80949">
        <ele>1374</ele>
        <time>2022-08-26T16:39:33Z</time>
      </trkpt>
      <trkpt lat="45.90103" lon="6.80945">
        <ele>1372</ele>
        <time>2022-08-26T16:39:34Z</time>
      </trkpt>
      <trkpt lat="45.90103" lon="6.80944">
        <ele>1372</ele>
        <time>2022-08-26T16:39:35Z</time>
      </trkpt>
      <trkpt lat="45.90102" lon="6.80942">
        <ele>1372</ele>
        <time>2022-08-26T16:39:37Z</time>
      </trkpt>
      <trkpt lat="45.90101" lon="6.80941">
        <ele>1372</ele>
        <time>2022-08-26T16:39:38Z</time>
      </trkpt>
      <trkpt lat="45.90097" lon="6.80932">
        <ele>1372</ele>
        <time>2022-08-26T16:39:40Z</time>
      </trkpt>
      <trkpt lat="45.9009" lon="6.80921">
        <ele>1371</ele>
        <time>2022-08-26T16:39:42Z</time>
      </trkpt>
      <trkpt lat="45.9009" lon="6.80917">
        <ele>1371</ele>
        <time>2022-08-26T16:39:43Z</time>
      </trkpt>
      <trkpt lat="45.90089" lon="6.80913">
        <ele>1371</ele>
        <time>2022-08-26T16:39:44Z</time>
      </trkpt>
      <trkpt lat="45.90089" lon="6.80909">
        <ele>1371</ele>
        <time>2022-08-26T16:39:45Z</time>
      </trkpt>
      <trkpt lat="45.90088" lon="6.80905">
        <ele>1371</ele>
        <time>2022-08-26T16:39:46Z</time>
      </trkpt>
      <trkpt lat="45.90087" lon="6.80901">
        <ele>1371</ele>
        <time>2022-08-26T16:39:47Z</time>
      </trkpt>
      <trkpt lat="45.90088" lon="6.80894">
        <ele>1371</ele>
        <time>2022-08-26T16:39:48Z</time>
      </trkpt>
      <trkpt lat="45.90088" lon="6.80892">
        <ele>1370</ele>
        <time>2022-08-26T16:39:49Z</time>
      </trkpt>
      <trkpt lat="45.90089" lon="6.80887">
        <ele>1369</ele>
        <time>2022-08-26T16:39:50Z</time>
      </trkpt>
      <trkpt lat="45.9009" lon="6.80883">
        <ele>1369</ele>
        <time>2022-08-26T16:39:51Z</time>
      </trkpt>
      <trkpt lat="45.90091" lon="6.80878">
        <ele>1369</ele>
        <time>2022-08-26T16:39:52Z</time>
      </trkpt>
      <trkpt lat="45.90091" lon="6.80874">
        <ele>1368</ele>
        <time>2022-08-26T16:39:53Z</time>
      </trkpt>
      <trkpt lat="45.90091" lon="6.8087">
        <ele>1368</ele>
        <time>2022-08-26T16:39:54Z</time>
      </trkpt>
      <trkpt lat="45.90091" lon="6.80866">
        <ele>1368</ele>
        <time>2022-08-26T16:39:55Z</time>
      </trkpt>
      <trkpt lat="45.90091" lon="6.8086">
        <ele>1368</ele>
        <time>2022-08-26T16:39:56Z</time>
      </trkpt>
      <trkpt lat="45.90091" lon="6.80858">
        <ele>1367</ele>
        <time>2022-08-26T16:39:57Z</time>
      </trkpt>
      <trkpt lat="45.9009" lon="6.80853">
        <ele>1367</ele>
        <time>2022-08-26T16:39:58Z</time>
      </trkpt>
      <trkpt lat="45.9009" lon="6.80852">
        <ele>1366</ele>
        <time>2022-08-26T16:39:59Z</time>
      </trkpt>
      <trkpt lat="45.90089" lon="6.80847">
        <ele>1366</ele>
        <time>2022-08-26T16:40:00Z</time>
      </trkpt>
      <trkpt lat="45.90088" lon="6.80845">
        <ele>1365</ele>
        <time>2022-08-26T16:40:01Z</time>
      </trkpt>
      <trkpt lat="45.90086" lon="6.8084">
        <ele>1365</ele>
        <time>2022-08-26T16:40:02Z</time>
      </trkpt>
      <trkpt lat="45.90086" lon="6.80838">
        <ele>1365</ele>
        <time>2022-08-26T16:40:03Z</time>
      </trkpt>
      <trkpt lat="45.90084" lon="6.80833">
        <ele>1364</ele>
        <time>2022-08-26T16:40:04Z</time>
      </trkpt>
      <trkpt lat="45.90083" lon="6.80829">
        <ele>1364</ele>
        <time>2022-08-26T16:40:05Z</time>
      </trkpt>
      <trkpt lat="45.90082" lon="6.80825">
        <ele>1363</ele>
        <time>2022-08-26T16:40:06Z</time>
      </trkpt>
      <trkpt lat="45.90081" lon="6.80821">
        <ele>1363</ele>
        <time>2022-08-26T16:40:07Z</time>
      </trkpt>
      <trkpt lat="45.90075" lon="6.80808">
        <ele>1362</ele>
        <time>2022-08-26T16:40:11Z</time>
      </trkpt>
      <trkpt lat="45.90073" lon="6.80805">
        <ele>1362</ele>
        <time>2022-08-26T16:40:12Z</time>
      </trkpt>
      <trkpt lat="45.90071" lon="6.80802">
        <ele>1361</ele>
        <time>2022-08-26T16:40:13Z</time>
      </trkpt>
      <trkpt lat="45.90069" lon="6.80799">
        <ele>1361</ele>
        <time>2022-08-26T16:40:14Z</time>
      </trkpt>
      <trkpt lat="45.90067" lon="6.80796">
        <ele>1361</ele>
        <time>2022-08-26T16:40:15Z</time>
      </trkpt>
      <trkpt lat="45.90065" lon="6.80793">
        <ele>1361</ele>
        <time>2022-08-26T16:40:16Z</time>
      </trkpt>
      <trkpt lat="45.90062" lon="6.80788">
        <ele>1361</ele>
        <time>2022-08-26T16:40:17Z</time>
      </trkpt>
      <trkpt lat="45.90061" lon="6.80786">
        <ele>1361</ele>
        <time>2022-08-26T16:40:18Z</time>
      </trkpt>
      <trkpt lat="45.90059" lon="6.80782">
        <ele>1361</ele>
        <time>2022-08-26T16:40:19Z</time>
      </trkpt>
      <trkpt lat="45.90058" lon="6.80779">
        <ele>1360</ele>
        <time>2022-08-26T16:40:20Z</time>
      </trkpt>
      <trkpt lat="45.90057" lon="6.80775">
        <ele>1360</ele>
        <time>2022-08-26T16:40:21Z</time>
      </trkpt>
      <trkpt lat="45.90055" lon="6.80769">
        <ele>1360</ele>
        <time>2022-08-26T16:40:22Z</time>
      </trkpt>
      <trkpt lat="45.90055" lon="6.80767">
        <ele>1360</ele>
        <time>2022-08-26T16:40:23Z</time>
      </trkpt>
      <trkpt lat="45.90053" lon="6.80762">
        <ele>1360</ele>
        <time>2022-08-26T16:40:24Z</time>
      </trkpt>
      <trkpt lat="45.90052" lon="6.8076">
        <ele>1359</ele>
        <time>2022-08-26T16:40:25Z</time>
      </trkpt>
      <trkpt lat="45.90052" lon="6.80756">
        <ele>1359</ele>
        <time>2022-08-26T16:40:26Z</time>
      </trkpt>
      <trkpt lat="45.90051" lon="6.8075">
        <ele>1359</ele>
        <time>2022-08-26T16:40:27Z</time>
      </trkpt>
      <trkpt lat="45.9005" lon="6.80748">
        <ele>1359</ele>
        <time>2022-08-26T16:40:28Z</time>
      </trkpt>
      <trkpt lat="45.90049" lon="6.80744">
        <ele>1359</ele>
        <time>2022-08-26T16:40:29Z</time>
      </trkpt>
      <trkpt lat="45.90041" lon="6.80735">
        <ele>1357</ele>
        <time>2022-08-26T16:40:33Z</time>
      </trkpt>
      <trkpt lat="45.90033" lon="6.80723">
        <ele>1357</ele>
        <time>2022-08-26T16:40:37Z</time>
      </trkpt>
      <trkpt lat="45.90031" lon="6.80719">
        <ele>1357</ele>
        <time>2022-08-26T16:40:38Z</time>
      </trkpt>
      <trkpt lat="45.90029" lon="6.80715">
        <ele>1356</ele>
        <time>2022-08-26T16:40:39Z</time>
      </trkpt>
      <trkpt lat="45.90027" lon="6.80711">
        <ele>1356</ele>
        <time>2022-08-26T16:40:40Z</time>
      </trkpt>
      <trkpt lat="45.90025" lon="6.80707">
        <ele>1356</ele>
        <time>2022-08-26T16:40:42Z</time>
      </trkpt>
      <trkpt lat="45.90023" lon="6.80703">
        <ele>1356</ele>
        <time>2022-08-26T16:40:44Z</time>
      </trkpt>
      <trkpt lat="45.90021" lon="6.80698">
        <ele>1355</ele>
        <time>2022-08-26T16:40:45Z</time>
      </trkpt>
      <trkpt lat="45.90021" lon="6.80697">
        <ele>1355</ele>
        <time>2022-08-26T16:40:46Z</time>
      </trkpt>
      <trkpt lat="45.9002" lon="6.80695">
        <ele>1354</ele>
        <time>2022-08-26T16:40:47Z</time>
      </trkpt>
      <trkpt lat="45.9002" lon="6.80693">
        <ele>1354</ele>
        <time>2022-08-26T16:40:48Z</time>
      </trkpt>
      <trkpt lat="45.90014" lon="6.80679">
        <ele>1353</ele>
        <time>2022-08-26T16:40:50Z</time>
      </trkpt>
      <trkpt lat="45.90013" lon="6.80674">
        <ele>1353</ele>
        <time>2022-08-26T16:40:51Z</time>
      </trkpt>
      <trkpt lat="45.90011" lon="6.80669">
        <ele>1353</ele>
        <time>2022-08-26T16:40:52Z</time>
      </trkpt>
      <trkpt lat="45.9001" lon="6.80662">
        <ele>1353</ele>
        <time>2022-08-26T16:40:53Z</time>
      </trkpt>
      <trkpt lat="45.90009" lon="6.80655">
        <ele>1352</ele>
        <time>2022-08-26T16:40:54Z</time>
      </trkpt>
      <trkpt lat="45.90008" lon="6.80651">
        <ele>1352</ele>
        <time>2022-08-26T16:40:56Z</time>
      </trkpt>
      <trkpt lat="45.90007" lon="6.80646">
        <ele>1352</ele>
        <time>2022-08-26T16:40:57Z</time>
      </trkpt>
      <trkpt lat="45.90007" lon="6.80642">
        <ele>1351</ele>
        <time>2022-08-26T16:40:58Z</time>
      </trkpt>
      <trkpt lat="45.90006" lon="6.80641">
        <ele>1351</ele>
        <time>2022-08-26T16:40:59Z</time>
      </trkpt>
      <trkpt lat="45.90006" lon="6.80639">
        <ele>1351</ele>
        <time>2022-08-26T16:41:00Z</time>
      </trkpt>
      <trkpt lat="45.90006" lon="6.80637">
        <ele>1351</ele>
        <time>2022-08-26T16:41:01Z</time>
      </trkpt>
      <trkpt lat="45.90003" lon="6.80625">
        <ele>1351</ele>
        <time>2022-08-26T16:41:03Z</time>
      </trkpt>
      <trkpt lat="45.90002" lon="6.80623">
        <ele>1350</ele>
        <time>2022-08-26T16:41:04Z</time>
      </trkpt>
      <trkpt lat="45.90002" lon="6.80621">
        <ele>1350</ele>
        <time>2022-08-26T16:41:05Z</time>
      </trkpt>
      <trkpt lat="45.89998" lon="6.80613">
        <ele>1350</ele>
        <time>2022-08-26T16:41:06Z</time>
      </trkpt>
      <trkpt lat="45.89997" lon="6.80611">
        <ele>1350</ele>
        <time>2022-08-26T16:41:08Z</time>
      </trkpt>
      <trkpt lat="45.89995" lon="6.80609">
        <ele>1350</ele>
        <time>2022-08-26T16:41:09Z</time>
      </trkpt>
      <trkpt lat="45.89992" lon="6.80603">
        <ele>1349</ele>
        <time>2022-08-26T16:41:10Z</time>
      </trkpt>
      <trkpt lat="45.89985" lon="6.80591">
        <ele>1349</ele>
        <time>2022-08-26T16:41:13Z</time>
      </trkpt>
      <trkpt lat="45.89983" lon="6.80587">
        <ele>1349</ele>
        <time>2022-08-26T16:41:15Z</time>
      </trkpt>
      <trkpt lat="45.89981" lon="6.80584">
        <ele>1349</ele>
        <time>2022-08-26T16:41:16Z</time>
      </trkpt>
      <trkpt lat="45.8998" lon="6.8058">
        <ele>1347</ele>
        <time>2022-08-26T16:41:17Z</time>
      </trkpt>
      <trkpt lat="45.89977" lon="6.80574">
        <ele>1347</ele>
        <time>2022-08-26T16:41:18Z</time>
      </trkpt>
      <trkpt lat="45.89974" lon="6.80568">
        <ele>1347</ele>
        <time>2022-08-26T16:41:19Z</time>
      </trkpt>
      <trkpt lat="45.89972" lon="6.80564">
        <ele>1347</ele>
        <time>2022-08-26T16:41:20Z</time>
      </trkpt>
      <trkpt lat="45.8997" lon="6.80561">
        <ele>1347</ele>
        <time>2022-08-26T16:41:21Z</time>
      </trkpt>
      <trkpt lat="45.89969" lon="6.80558">
        <ele>1347</ele>
        <time>2022-08-26T16:41:22Z</time>
      </trkpt>
      <trkpt lat="45.89967" lon="6.80555">
        <ele>1347</ele>
        <time>2022-08-26T16:41:23Z</time>
      </trkpt>
      <trkpt lat="45.89965" lon="6.80552">
        <ele>1347</ele>
        <time>2022-08-26T16:41:24Z</time>
      </trkpt>
      <trkpt lat="45.89964" lon="6.80549">
        <ele>1347</ele>
        <time>2022-08-26T16:41:25Z</time>
      </trkpt>
      <trkpt lat="45.89962" lon="6.80546">
        <ele>1347</ele>
        <time>2022-08-26T16:41:26Z</time>
      </trkpt>
      <trkpt lat="45.89959" lon="6.80541">
        <ele>1347</ele>
        <time>2022-08-26T16:41:28Z</time>
      </trkpt>
      <trkpt lat="45.89956" lon="6.80536">
        <ele>1347</ele>
        <time>2022-08-26T16:41:29Z</time>
      </trkpt>
      <trkpt lat="45.89955" lon="6.80533">
        <ele>1347</ele>
        <time>2022-08-26T16:41:30Z</time>
      </trkpt>
      <trkpt lat="45.89953" lon="6.8053">
        <ele>1346</ele>
        <time>2022-08-26T16:41:31Z</time>
      </trkpt>
      <trkpt lat="45.89952" lon="6.80527">
        <ele>1346</ele>
        <time>2022-08-26T16:41:32Z</time>
      </trkpt>
      <trkpt lat="45.89951" lon="6.80524">
        <ele>1346</ele>
        <time>2022-08-26T16:41:33Z</time>
      </trkpt>
      <trkpt lat="45.8995" lon="6.80522">
        <ele>1345</ele>
        <time>2022-08-26T16:41:34Z</time>
      </trkpt>
      <trkpt lat="45.89949" lon="6.80521">
        <ele>1344</ele>
        <time>2022-08-26T16:41:35Z</time>
      </trkpt>
      <trkpt lat="45.89948" lon="6.80519">
        <ele>1344</ele>
        <time>2022-08-26T16:41:36Z</time>
      </trkpt>
      <trkpt lat="45.8994" lon="6.80506">
        <ele>1344</ele>
        <time>2022-08-26T16:41:38Z</time>
      </trkpt>
      <trkpt lat="45.89937" lon="6.80503">
        <ele>1344</ele>
        <time>2022-08-26T16:41:39Z</time>
      </trkpt>
      <trkpt lat="45.89934" lon="6.80501">
        <ele>1344</ele>
        <time>2022-08-26T16:41:40Z</time>
      </trkpt>
      <trkpt lat="45.89932" lon="6.80498">
        <ele>1344</ele>
        <time>2022-08-26T16:41:41Z</time>
      </trkpt>
      <trkpt lat="45.89929" lon="6.80496">
        <ele>1344</ele>
        <time>2022-08-26T16:41:42Z</time>
      </trkpt>
      <trkpt lat="45.89926" lon="6.80494">
        <ele>1344</ele>
        <time>2022-08-26T16:41:44Z</time>
      </trkpt>
      <trkpt lat="45.89923" lon="6.80493">
        <ele>1344</ele>
        <time>2022-08-26T16:41:45Z</time>
      </trkpt>
      <trkpt lat="45.89921" lon="6.80491">
        <ele>1344</ele>
        <time>2022-08-26T16:41:46Z</time>
      </trkpt>
      <trkpt lat="45.89917" lon="6.80489">
        <ele>1344</ele>
        <time>2022-08-26T16:41:47Z</time>
      </trkpt>
      <trkpt lat="45.89917" lon="6.80488">
        <ele>1345</ele>
        <time>2022-08-26T16:41:48Z</time>
      </trkpt>
      <trkpt lat="45.89914" lon="6.80487">
        <ele>1345</ele>
        <time>2022-08-26T16:41:49Z</time>
      </trkpt>
      <trkpt lat="45.89912" lon="6.80486">
        <ele>1346</ele>
        <time>2022-08-26T16:41:50Z</time>
      </trkpt>
      <trkpt lat="45.8991" lon="6.80484">
        <ele>1346</ele>
        <time>2022-08-26T16:41:51Z</time>
      </trkpt>
      <trkpt lat="45.89907" lon="6.80483">
        <ele>1347</ele>
        <time>2022-08-26T16:41:52Z</time>
      </trkpt>
      <trkpt lat="45.89905" lon="6.80481">
        <ele>1347</ele>
        <time>2022-08-26T16:41:53Z</time>
      </trkpt>
      <trkpt lat="45.89903" lon="6.8048">
        <ele>1347</ele>
        <time>2022-08-26T16:41:54Z</time>
      </trkpt>
      <trkpt lat="45.899" lon="6.80478">
        <ele>1347</ele>
        <time>2022-08-26T16:41:55Z</time>
      </trkpt>
      <trkpt lat="45.89899" lon="6.80475">
        <ele>1347</ele>
        <time>2022-08-26T16:41:56Z</time>
      </trkpt>
      <trkpt lat="45.89897" lon="6.80472">
        <ele>1347</ele>
        <time>2022-08-26T16:41:57Z</time>
      </trkpt>
      <trkpt lat="45.89895" lon="6.80469">
        <ele>1347</ele>
        <time>2022-08-26T16:41:58Z</time>
      </trkpt>
      <trkpt lat="45.89893" lon="6.80465">
        <ele>1347</ele>
        <time>2022-08-26T16:41:59Z</time>
      </trkpt>
      <trkpt lat="45.89891" lon="6.80463">
        <ele>1347</ele>
        <time>2022-08-26T16:42:00Z</time>
      </trkpt>
      <trkpt lat="45.89889" lon="6.80457">
        <ele>1347</ele>
        <time>2022-08-26T16:42:01Z</time>
      </trkpt>
      <trkpt lat="45.89888" lon="6.80456">
        <ele>1347</ele>
        <time>2022-08-26T16:42:02Z</time>
      </trkpt>
      <trkpt lat="45.89888" lon="6.80452">
        <ele>1347</ele>
        <time>2022-08-26T16:42:03Z</time>
      </trkpt>
      <trkpt lat="45.89886" lon="6.80449">
        <ele>1347</ele>
        <time>2022-08-26T16:42:04Z</time>
      </trkpt>
      <trkpt lat="45.89884" lon="6.80445">
        <ele>1347</ele>
        <time>2022-08-26T16:42:05Z</time>
      </trkpt>
      <trkpt lat="45.89884" lon="6.80438">
        <ele>1347</ele>
        <time>2022-08-26T16:42:06Z</time>
      </trkpt>
      <trkpt lat="45.89884" lon="6.80436">
        <ele>1347</ele>
        <time>2022-08-26T16:42:07Z</time>
      </trkpt>
      <trkpt lat="45.89884" lon="6.80429">
        <ele>1347</ele>
        <time>2022-08-26T16:42:08Z</time>
      </trkpt>
      <trkpt lat="45.89883" lon="6.80427">
        <ele>1347</ele>
        <time>2022-08-26T16:42:09Z</time>
      </trkpt>
      <trkpt lat="45.89883" lon="6.80423">
        <ele>1347</ele>
        <time>2022-08-26T16:42:10Z</time>
      </trkpt>
      <trkpt lat="45.89882" lon="6.80417">
        <ele>1347</ele>
        <time>2022-08-26T16:42:11Z</time>
      </trkpt>
      <trkpt lat="45.89882" lon="6.80416">
        <ele>1347</ele>
        <time>2022-08-26T16:42:12Z</time>
      </trkpt>
      <trkpt lat="45.89882" lon="6.80412">
        <ele>1347</ele>
        <time>2022-08-26T16:42:13Z</time>
      </trkpt>
      <trkpt lat="45.89881" lon="6.80409">
        <ele>1347</ele>
        <time>2022-08-26T16:42:14Z</time>
      </trkpt>
      <trkpt lat="45.8988" lon="6.80406">
        <ele>1346</ele>
        <time>2022-08-26T16:42:16Z</time>
      </trkpt>
      <trkpt lat="45.89878" lon="6.80403">
        <ele>1346</ele>
        <time>2022-08-26T16:42:17Z</time>
      </trkpt>
      <trkpt lat="45.89872" lon="6.80394">
        <ele>1346</ele>
        <time>2022-08-26T16:42:21Z</time>
      </trkpt>
      <trkpt lat="45.8987" lon="6.80391">
        <ele>1346</ele>
        <time>2022-08-26T16:42:22Z</time>
      </trkpt>
      <trkpt lat="45.89867" lon="6.80389">
        <ele>1346</ele>
        <time>2022-08-26T16:42:23Z</time>
      </trkpt>
      <trkpt lat="45.89866" lon="6.80387">
        <ele>1346</ele>
        <time>2022-08-26T16:42:24Z</time>
      </trkpt>
      <trkpt lat="45.89864" lon="6.80386">
        <ele>1346</ele>
        <time>2022-08-26T16:42:26Z</time>
      </trkpt>
      <trkpt lat="45.89863" lon="6.80384">
        <ele>1346</ele>
        <time>2022-08-26T16:42:27Z</time>
      </trkpt>
      <trkpt lat="45.89858" lon="6.80376">
        <ele>1346</ele>
        <time>2022-08-26T16:42:28Z</time>
      </trkpt>
      <trkpt lat="45.89856" lon="6.80374">
        <ele>1346</ele>
        <time>2022-08-26T16:42:29Z</time>
      </trkpt>
      <trkpt lat="45.89855" lon="6.80371">
        <ele>1346</ele>
        <time>2022-08-26T16:42:30Z</time>
      </trkpt>
      <trkpt lat="45.89853" lon="6.80368">
        <ele>1347</ele>
        <time>2022-08-26T16:42:31Z</time>
      </trkpt>
      <trkpt lat="45.89852" lon="6.80367">
        <ele>1347</ele>
        <time>2022-08-26T16:42:32Z</time>
      </trkpt>
      <trkpt lat="45.89852" lon="6.80365">
        <ele>1347</ele>
        <time>2022-08-26T16:42:33Z</time>
      </trkpt>
      <trkpt lat="45.89851" lon="6.80363">
        <ele>1347</ele>
        <time>2022-08-26T16:42:34Z</time>
      </trkpt>
      <trkpt lat="45.89847" lon="6.80354">
        <ele>1347</ele>
        <time>2022-08-26T16:42:36Z</time>
      </trkpt>
      <trkpt lat="45.8984" lon="6.80342">
        <ele>1347</ele>
        <time>2022-08-26T16:42:38Z</time>
      </trkpt>
      <trkpt lat="45.89839" lon="6.80339">
        <ele>1347</ele>
        <time>2022-08-26T16:42:39Z</time>
      </trkpt>
      <trkpt lat="45.89837" lon="6.80337">
        <ele>1347</ele>
        <time>2022-08-26T16:42:40Z</time>
      </trkpt>
      <trkpt lat="45.89836" lon="6.80335">
        <ele>1347</ele>
        <time>2022-08-26T16:42:41Z</time>
      </trkpt>
      <trkpt lat="45.89835" lon="6.80333">
        <ele>1347</ele>
        <time>2022-08-26T16:42:42Z</time>
      </trkpt>
      <trkpt lat="45.89833" lon="6.8033">
        <ele>1348</ele>
        <time>2022-08-26T16:42:43Z</time>
      </trkpt>
      <trkpt lat="45.89831" lon="6.80328">
        <ele>1348</ele>
        <time>2022-08-26T16:42:44Z</time>
      </trkpt>
      <trkpt lat="45.89828" lon="6.80325">
        <ele>1348</ele>
        <time>2022-08-26T16:42:45Z</time>
      </trkpt>
      <trkpt lat="45.89826" lon="6.80322">
        <ele>1348</ele>
        <time>2022-08-26T16:42:46Z</time>
      </trkpt>
      <trkpt lat="45.89824" lon="6.80319">
        <ele>1348</ele>
        <time>2022-08-26T16:42:47Z</time>
      </trkpt>
      <trkpt lat="45.89821" lon="6.80316">
        <ele>1348</ele>
        <time>2022-08-26T16:42:48Z</time>
      </trkpt>
      <trkpt lat="45.8982" lon="6.80315">
        <ele>1348</ele>
        <time>2022-08-26T16:42:50Z</time>
      </trkpt>
      <trkpt lat="45.89818" lon="6.80313">
        <ele>1348</ele>
        <time>2022-08-26T16:42:51Z</time>
      </trkpt>
      <trkpt lat="45.89811" lon="6.80307">
        <ele>1348</ele>
        <time>2022-08-26T16:42:52Z</time>
      </trkpt>
      <trkpt lat="45.89809" lon="6.80305">
        <ele>1348</ele>
        <time>2022-08-26T16:42:54Z</time>
      </trkpt>
      <trkpt lat="45.89806" lon="6.80302">
        <ele>1348</ele>
        <time>2022-08-26T16:42:55Z</time>
      </trkpt>
      <trkpt lat="45.89803" lon="6.80301">
        <ele>1348</ele>
        <time>2022-08-26T16:42:56Z</time>
      </trkpt>
      <trkpt lat="45.89801" lon="6.80299">
        <ele>1349</ele>
        <time>2022-08-26T16:42:57Z</time>
      </trkpt>
      <trkpt lat="45.89797" lon="6.80295">
        <ele>1349</ele>
        <time>2022-08-26T16:42:59Z</time>
      </trkpt>
      <trkpt lat="45.89796" lon="6.80292">
        <ele>1349</ele>
        <time>2022-08-26T16:43:00Z</time>
      </trkpt>
      <trkpt lat="45.89795" lon="6.80289">
        <ele>1349</ele>
        <time>2022-08-26T16:43:01Z</time>
      </trkpt>
      <trkpt lat="45.89793" lon="6.80286">
        <ele>1349</ele>
        <time>2022-08-26T16:43:02Z</time>
      </trkpt>
      <trkpt lat="45.89791" lon="6.80283">
        <ele>1349</ele>
        <time>2022-08-26T16:43:03Z</time>
      </trkpt>
      <trkpt lat="45.89789" lon="6.80276">
        <ele>1349</ele>
        <time>2022-08-26T16:43:05Z</time>
      </trkpt>
      <trkpt lat="45.89788" lon="6.80272">
        <ele>1349</ele>
        <time>2022-08-26T16:43:06Z</time>
      </trkpt>
      <trkpt lat="45.89787" lon="6.8027">
        <ele>1350</ele>
        <time>2022-08-26T16:43:07Z</time>
      </trkpt>
      <trkpt lat="45.89786" lon="6.80266">
        <ele>1350</ele>
        <time>2022-08-26T16:43:08Z</time>
      </trkpt>
      <trkpt lat="45.89785" lon="6.80264">
        <ele>1350</ele>
        <time>2022-08-26T16:43:09Z</time>
      </trkpt>
      <trkpt lat="45.89783" lon="6.8026">
        <ele>1350</ele>
        <time>2022-08-26T16:43:11Z</time>
      </trkpt>
      <trkpt lat="45.89782" lon="6.80257">
        <ele>1350</ele>
        <time>2022-08-26T16:43:12Z</time>
      </trkpt>
      <trkpt lat="45.8978" lon="6.80254">
        <ele>1350</ele>
        <time>2022-08-26T16:43:13Z</time>
      </trkpt>
      <trkpt lat="45.89775" lon="6.80249">
        <ele>1350</ele>
        <time>2022-08-26T16:43:15Z</time>
      </trkpt>
      <trkpt lat="45.89772" lon="6.80246">
        <ele>1350</ele>
        <time>2022-08-26T16:43:16Z</time>
      </trkpt>
      <trkpt lat="45.89769" lon="6.80243">
        <ele>1351</ele>
        <time>2022-08-26T16:43:17Z</time>
      </trkpt>
      <trkpt lat="45.89767" lon="6.8024">
        <ele>1351</ele>
        <time>2022-08-26T16:43:18Z</time>
      </trkpt>
      <trkpt lat="45.89765" lon="6.80237">
        <ele>1351</ele>
        <time>2022-08-26T16:43:19Z</time>
      </trkpt>
      <trkpt lat="45.89763" lon="6.80234">
        <ele>1351</ele>
        <time>2022-08-26T16:43:20Z</time>
      </trkpt>
      <trkpt lat="45.89762" lon="6.8023">
        <ele>1351</ele>
        <time>2022-08-26T16:43:21Z</time>
      </trkpt>
      <trkpt lat="45.89761" lon="6.80225">
        <ele>1351</ele>
        <time>2022-08-26T16:43:23Z</time>
      </trkpt>
      <trkpt lat="45.89759" lon="6.80219">
        <ele>1351</ele>
        <time>2022-08-26T16:43:24Z</time>
      </trkpt>
      <trkpt lat="45.89758" lon="6.80214">
        <ele>1351</ele>
        <time>2022-08-26T16:43:25Z</time>
      </trkpt>
      <trkpt lat="45.89757" lon="6.8021">
        <ele>1351</ele>
        <time>2022-08-26T16:43:26Z</time>
      </trkpt>
      <trkpt lat="45.89757" lon="6.80203">
        <ele>1351</ele>
        <time>2022-08-26T16:43:27Z</time>
      </trkpt>
      <trkpt lat="45.89757" lon="6.80201">
        <ele>1351</ele>
        <time>2022-08-26T16:43:28Z</time>
      </trkpt>
      <trkpt lat="45.89758" lon="6.80194">
        <ele>1351</ele>
        <time>2022-08-26T16:43:29Z</time>
      </trkpt>
      <trkpt lat="45.89758" lon="6.80192">
        <ele>1351</ele>
        <time>2022-08-26T16:43:30Z</time>
      </trkpt>
      <trkpt lat="45.89758" lon="6.80188">
        <ele>1351</ele>
        <time>2022-08-26T16:43:31Z</time>
      </trkpt>
      <trkpt lat="45.89759" lon="6.80183">
        <ele>1351</ele>
        <time>2022-08-26T16:43:32Z</time>
      </trkpt>
      <trkpt lat="45.89759" lon="6.80179">
        <ele>1351</ele>
        <time>2022-08-26T16:43:33Z</time>
      </trkpt>
      <trkpt lat="45.8976" lon="6.80173">
        <ele>1351</ele>
        <time>2022-08-26T16:43:34Z</time>
      </trkpt>
      <trkpt lat="45.89759" lon="6.8017">
        <ele>1351</ele>
        <time>2022-08-26T16:43:35Z</time>
      </trkpt>
      <trkpt lat="45.89759" lon="6.80166">
        <ele>1351</ele>
        <time>2022-08-26T16:43:36Z</time>
      </trkpt>
      <trkpt lat="45.89759" lon="6.80162">
        <ele>1351</ele>
        <time>2022-08-26T16:43:37Z</time>
      </trkpt>
      <trkpt lat="45.89759" lon="6.80158">
        <ele>1351</ele>
        <time>2022-08-26T16:43:38Z</time>
      </trkpt>
      <trkpt lat="45.89758" lon="6.80151">
        <ele>1351</ele>
        <time>2022-08-26T16:43:39Z</time>
      </trkpt>
      <trkpt lat="45.89758" lon="6.80149">
        <ele>1351</ele>
        <time>2022-08-26T16:43:40Z</time>
      </trkpt>
      <trkpt lat="45.89757" lon="6.80143">
        <ele>1351</ele>
        <time>2022-08-26T16:43:41Z</time>
      </trkpt>
      <trkpt lat="45.89757" lon="6.80141">
        <ele>1351</ele>
        <time>2022-08-26T16:43:42Z</time>
      </trkpt>
      <trkpt lat="45.89757" lon="6.80137">
        <ele>1351</ele>
        <time>2022-08-26T16:43:43Z</time>
      </trkpt>
      <trkpt lat="45.89756" lon="6.8013">
        <ele>1351</ele>
        <time>2022-08-26T16:43:44Z</time>
      </trkpt>
      <trkpt lat="45.89756" lon="6.80128">
        <ele>1351</ele>
        <time>2022-08-26T16:43:45Z</time>
      </trkpt>
      <trkpt lat="45.89754" lon="6.80123">
        <ele>1351</ele>
        <time>2022-08-26T16:43:46Z</time>
      </trkpt>
      <trkpt lat="45.89754" lon="6.80121">
        <ele>1351</ele>
        <time>2022-08-26T16:43:47Z</time>
      </trkpt>
      <trkpt lat="45.89753" lon="6.80115">
        <ele>1351</ele>
        <time>2022-08-26T16:43:48Z</time>
      </trkpt>
      <trkpt lat="45.89752" lon="6.80113">
        <ele>1351</ele>
        <time>2022-08-26T16:43:49Z</time>
      </trkpt>
      <trkpt lat="45.89751" lon="6.80108">
        <ele>1351</ele>
        <time>2022-08-26T16:43:50Z</time>
      </trkpt>
      <trkpt lat="45.8975" lon="6.80106">
        <ele>1351</ele>
        <time>2022-08-26T16:43:51Z</time>
      </trkpt>
      <trkpt lat="45.89749" lon="6.80102">
        <ele>1351</ele>
        <time>2022-08-26T16:43:52Z</time>
      </trkpt>
      <trkpt lat="45.89748" lon="6.80098">
        <ele>1351</ele>
        <time>2022-08-26T16:43:53Z</time>
      </trkpt>
      <trkpt lat="45.89746" lon="6.80094">
        <ele>1351</ele>
        <time>2022-08-26T16:43:54Z</time>
      </trkpt>
      <trkpt lat="45.89745" lon="6.80089">
        <ele>1351</ele>
        <time>2022-08-26T16:43:55Z</time>
      </trkpt>
      <trkpt lat="45.89744" lon="6.80087">
        <ele>1350</ele>
        <time>2022-08-26T16:43:56Z</time>
      </trkpt>
      <trkpt lat="45.89743" lon="6.80084">
        <ele>1350</ele>
        <time>2022-08-26T16:43:57Z</time>
      </trkpt>
      <trkpt lat="45.89741" lon="6.80079">
        <ele>1350</ele>
        <time>2022-08-26T16:43:58Z</time>
      </trkpt>
      <trkpt lat="45.8974" lon="6.80077">
        <ele>1349</ele>
        <time>2022-08-26T16:43:59Z</time>
      </trkpt>
      <trkpt lat="45.89739" lon="6.80073">
        <ele>1349</ele>
        <time>2022-08-26T16:44:00Z</time>
      </trkpt>
      <trkpt lat="45.89737" lon="6.8007">
        <ele>1349</ele>
        <time>2022-08-26T16:44:01Z</time>
      </trkpt>
      <trkpt lat="45.89735" lon="6.80067">
        <ele>1349</ele>
        <time>2022-08-26T16:44:02Z</time>
      </trkpt>
      <trkpt lat="45.89734" lon="6.80064">
        <ele>1349</ele>
        <time>2022-08-26T16:44:03Z</time>
      </trkpt>
      <trkpt lat="45.89733" lon="6.8006">
        <ele>1349</ele>
        <time>2022-08-26T16:44:04Z</time>
      </trkpt>
      <trkpt lat="45.89731" lon="6.80056">
        <ele>1349</ele>
        <time>2022-08-26T16:44:05Z</time>
      </trkpt>
      <trkpt lat="45.8973" lon="6.80054">
        <ele>1349</ele>
        <time>2022-08-26T16:44:06Z</time>
      </trkpt>
      <trkpt lat="45.89727" lon="6.8005">
        <ele>1349</ele>
        <time>2022-08-26T16:44:07Z</time>
      </trkpt>
      <trkpt lat="45.89726" lon="6.80049">
        <ele>1348</ele>
        <time>2022-08-26T16:44:08Z</time>
      </trkpt>
      <trkpt lat="45.89723" lon="6.80045">
        <ele>1348</ele>
        <time>2022-08-26T16:44:09Z</time>
      </trkpt>
      <trkpt lat="45.89722" lon="6.80044">
        <ele>1348</ele>
        <time>2022-08-26T16:44:10Z</time>
      </trkpt>
      <trkpt lat="45.8972" lon="6.80041">
        <ele>1348</ele>
        <time>2022-08-26T16:44:11Z</time>
      </trkpt>
      <trkpt lat="45.89718" lon="6.80039">
        <ele>1348</ele>
        <time>2022-08-26T16:44:12Z</time>
      </trkpt>
      <trkpt lat="45.89715" lon="6.80038">
        <ele>1348</ele>
        <time>2022-08-26T16:44:13Z</time>
      </trkpt>
      <trkpt lat="45.89713" lon="6.80036">
        <ele>1348</ele>
        <time>2022-08-26T16:44:14Z</time>
      </trkpt>
      <trkpt lat="45.89711" lon="6.80034">
        <ele>1348</ele>
        <time>2022-08-26T16:44:15Z</time>
      </trkpt>
      <trkpt lat="45.89709" lon="6.80032">
        <ele>1348</ele>
        <time>2022-08-26T16:44:16Z</time>
      </trkpt>
      <trkpt lat="45.89708" lon="6.80031">
        <ele>1349</ele>
        <time>2022-08-26T16:44:17Z</time>
      </trkpt>
      <trkpt lat="45.89706" lon="6.8003">
        <ele>1349</ele>
        <time>2022-08-26T16:44:18Z</time>
      </trkpt>
      <trkpt lat="45.89704" lon="6.80028">
        <ele>1349</ele>
        <time>2022-08-26T16:44:19Z</time>
      </trkpt>
      <trkpt lat="45.89702" lon="6.80027">
        <ele>1349</ele>
        <time>2022-08-26T16:44:20Z</time>
      </trkpt>
      <trkpt lat="45.89691" lon="6.80021">
        <ele>1349</ele>
        <time>2022-08-26T16:44:23Z</time>
      </trkpt>
      <trkpt lat="45.89687" lon="6.80018">
        <ele>1349</ele>
        <time>2022-08-26T16:44:25Z</time>
      </trkpt>
      <trkpt lat="45.89683" lon="6.80015">
        <ele>1348</ele>
        <time>2022-08-26T16:44:26Z</time>
      </trkpt>
      <trkpt lat="45.89681" lon="6.80014">
        <ele>1347</ele>
        <time>2022-08-26T16:44:27Z</time>
      </trkpt>
      <trkpt lat="45.89679" lon="6.80013">
        <ele>1347</ele>
        <time>2022-08-26T16:44:29Z</time>
      </trkpt>
      <trkpt lat="45.89677" lon="6.80012">
        <ele>1347</ele>
        <time>2022-08-26T16:44:30Z</time>
      </trkpt>
      <trkpt lat="45.89672" lon="6.80009">
        <ele>1347</ele>
        <time>2022-08-26T16:44:31Z</time>
      </trkpt>
      <trkpt lat="45.89662" lon="6.80003">
        <ele>1347</ele>
        <time>2022-08-26T16:44:34Z</time>
      </trkpt>
      <trkpt lat="45.8966" lon="6.80002">
        <ele>1347</ele>
        <time>2022-08-26T16:44:35Z</time>
      </trkpt>
      <trkpt lat="45.89658" lon="6.80001">
        <ele>1347</ele>
        <time>2022-08-26T16:44:36Z</time>
      </trkpt>
      <trkpt lat="45.89656" lon="6.8">
        <ele>1347</ele>
        <time>2022-08-26T16:44:37Z</time>
      </trkpt>
      <trkpt lat="45.89655" lon="6.8">
        <ele>1347</ele>
        <time>2022-08-26T16:44:38Z</time>
      </trkpt>
      <trkpt lat="45.89653" lon="6.79999">
        <ele>1347</ele>
        <time>2022-08-26T16:44:39Z</time>
      </trkpt>
      <trkpt lat="45.89642" lon="6.79993">
        <ele>1346</ele>
        <time>2022-08-26T16:44:42Z</time>
      </trkpt>
      <trkpt lat="45.8964" lon="6.79992">
        <ele>1346</ele>
        <time>2022-08-26T16:44:44Z</time>
      </trkpt>
      <trkpt lat="45.89639" lon="6.79991">
        <ele>1346</ele>
        <time>2022-08-26T16:44:45Z</time>
      </trkpt>
      <trkpt lat="45.89637" lon="6.79989">
        <ele>1345</ele>
        <time>2022-08-26T16:44:46Z</time>
      </trkpt>
      <trkpt lat="45.89631" lon="6.79985">
        <ele>1345</ele>
        <time>2022-08-26T16:44:47Z</time>
      </trkpt>
      <trkpt lat="45.89622" lon="6.7998">
        <ele>1344</ele>
        <time>2022-08-26T16:44:49Z</time>
      </trkpt>
      <trkpt lat="45.89619" lon="6.79979">
        <ele>1344</ele>
        <time>2022-08-26T16:44:50Z</time>
      </trkpt>
      <trkpt lat="45.89617" lon="6.79977">
        <ele>1344</ele>
        <time>2022-08-26T16:44:51Z</time>
      </trkpt>
      <trkpt lat="45.89614" lon="6.79976">
        <ele>1344</ele>
        <time>2022-08-26T16:44:52Z</time>
      </trkpt>
      <trkpt lat="45.89611" lon="6.79975">
        <ele>1344</ele>
        <time>2022-08-26T16:44:53Z</time>
      </trkpt>
      <trkpt lat="45.89609" lon="6.79973">
        <ele>1343</ele>
        <time>2022-08-26T16:44:54Z</time>
      </trkpt>
      <trkpt lat="45.89607" lon="6.79971">
        <ele>1342</ele>
        <time>2022-08-26T16:44:55Z</time>
      </trkpt>
      <trkpt lat="45.89604" lon="6.79969">
        <ele>1342</ele>
        <time>2022-08-26T16:44:56Z</time>
      </trkpt>
      <trkpt lat="45.89602" lon="6.79967">
        <ele>1342</ele>
        <time>2022-08-26T16:44:57Z</time>
      </trkpt>
      <trkpt lat="45.896" lon="6.79967">
        <ele>1342</ele>
        <time>2022-08-26T16:44:58Z</time>
      </trkpt>
      <trkpt lat="45.89598" lon="6.79966">
        <ele>1342</ele>
        <time>2022-08-26T16:44:59Z</time>
      </trkpt>
      <trkpt lat="45.89597" lon="6.79965">
        <ele>1341</ele>
        <time>2022-08-26T16:45:00Z</time>
      </trkpt>
      <trkpt lat="45.89591" lon="6.79962">
        <ele>1341</ele>
        <time>2022-08-26T16:45:01Z</time>
      </trkpt>
      <trkpt lat="45.89582" lon="6.79959">
        <ele>1341</ele>
        <time>2022-08-26T16:45:03Z</time>
      </trkpt>
      <trkpt lat="45.89571" lon="6.79953">
        <ele>1341</ele>
        <time>2022-08-26T16:45:07Z</time>
      </trkpt>
      <trkpt lat="45.89569" lon="6.79952">
        <ele>1340</ele>
        <time>2022-08-26T16:45:08Z</time>
      </trkpt>
      <trkpt lat="45.89566" lon="6.79951">
        <ele>1340</ele>
        <time>2022-08-26T16:45:09Z</time>
      </trkpt>
      <trkpt lat="45.89564" lon="6.7995">
        <ele>1340</ele>
        <time>2022-08-26T16:45:10Z</time>
      </trkpt>
      <trkpt lat="45.89562" lon="6.79949">
        <ele>1339</ele>
        <time>2022-08-26T16:45:11Z</time>
      </trkpt>
      <trkpt lat="45.89557" lon="6.79947">
        <ele>1339</ele>
        <time>2022-08-26T16:45:12Z</time>
      </trkpt>
      <trkpt lat="45.89553" lon="6.79945">
        <ele>1339</ele>
        <time>2022-08-26T16:45:13Z</time>
      </trkpt>
      <trkpt lat="45.89543" lon="6.79941">
        <ele>1338</ele>
        <time>2022-08-26T16:45:16Z</time>
      </trkpt>
      <trkpt lat="45.8954" lon="6.79939">
        <ele>1338</ele>
        <time>2022-08-26T16:45:18Z</time>
      </trkpt>
      <trkpt lat="45.89537" lon="6.79938">
        <ele>1338</ele>
        <time>2022-08-26T16:45:19Z</time>
      </trkpt>
      <trkpt lat="45.8953" lon="6.79931">
        <ele>1338</ele>
        <time>2022-08-26T16:45:20Z</time>
      </trkpt>
      <trkpt lat="45.89528" lon="6.79928">
        <ele>1338</ele>
        <time>2022-08-26T16:45:22Z</time>
      </trkpt>
      <trkpt lat="45.89526" lon="6.79925">
        <ele>1338</ele>
        <time>2022-08-26T16:45:23Z</time>
      </trkpt>
      <trkpt lat="45.89524" lon="6.79922">
        <ele>1338</ele>
        <time>2022-08-26T16:45:24Z</time>
      </trkpt>
      <trkpt lat="45.89521" lon="6.7992">
        <ele>1337</ele>
        <time>2022-08-26T16:45:26Z</time>
      </trkpt>
      <trkpt lat="45.89518" lon="6.79917">
        <ele>1337</ele>
        <time>2022-08-26T16:45:27Z</time>
      </trkpt>
      <trkpt lat="45.89515" lon="6.79914">
        <ele>1337</ele>
        <time>2022-08-26T16:45:28Z</time>
      </trkpt>
      <trkpt lat="45.89514" lon="6.79914">
        <ele>1337</ele>
        <time>2022-08-26T16:45:29Z</time>
      </trkpt>
      <trkpt lat="45.89513" lon="6.79913">
        <ele>1337</ele>
        <time>2022-08-26T16:45:30Z</time>
      </trkpt>
      <trkpt lat="45.89511" lon="6.79913">
        <ele>1337</ele>
        <time>2022-08-26T16:45:31Z</time>
      </trkpt>
      <trkpt lat="45.89502" lon="6.79908">
        <ele>1337</ele>
        <time>2022-08-26T16:45:33Z</time>
      </trkpt>
      <trkpt lat="45.895" lon="6.79907">
        <ele>1337</ele>
        <time>2022-08-26T16:45:34Z</time>
      </trkpt>
      <trkpt lat="45.89498" lon="6.79906">
        <ele>1338</ele>
        <time>2022-08-26T16:45:35Z</time>
      </trkpt>
      <trkpt lat="45.8949" lon="6.79901">
        <ele>1338</ele>
        <time>2022-08-26T16:45:36Z</time>
      </trkpt>
      <trkpt lat="45.89488" lon="6.799">
        <ele>1338</ele>
        <time>2022-08-26T16:45:38Z</time>
      </trkpt>
      <trkpt lat="45.89486" lon="6.79898">
        <ele>1338</ele>
        <time>2022-08-26T16:45:39Z</time>
      </trkpt>
      <trkpt lat="45.89484" lon="6.79896">
        <ele>1338</ele>
        <time>2022-08-26T16:45:40Z</time>
      </trkpt>
      <trkpt lat="45.89481" lon="6.79894">
        <ele>1338</ele>
        <time>2022-08-26T16:45:41Z</time>
      </trkpt>
      <trkpt lat="45.89479" lon="6.79892">
        <ele>1338</ele>
        <time>2022-08-26T16:45:42Z</time>
      </trkpt>
      <trkpt lat="45.89477" lon="6.79889">
        <ele>1338</ele>
        <time>2022-08-26T16:45:43Z</time>
      </trkpt>
      <trkpt lat="45.89475" lon="6.79887">
        <ele>1339</ele>
        <time>2022-08-26T16:45:44Z</time>
      </trkpt>
      <trkpt lat="45.89472" lon="6.79888">
        <ele>1339</ele>
        <time>2022-08-26T16:45:45Z</time>
      </trkpt>
      <trkpt lat="45.89468" lon="6.79889">
        <ele>1339</ele>
        <time>2022-08-26T16:45:46Z</time>
      </trkpt>
      <trkpt lat="45.89465" lon="6.7989">
        <ele>1339</ele>
        <time>2022-08-26T16:45:47Z</time>
      </trkpt>
      <trkpt lat="45.89456" lon="6.79895">
        <ele>1337</ele>
        <time>2022-08-26T16:45:51Z</time>
      </trkpt>
      <trkpt lat="45.89454" lon="6.79894">
        <ele>1336</ele>
        <time>2022-08-26T16:45:52Z</time>
      </trkpt>
      <trkpt lat="45.89451" lon="6.79893">
        <ele>1336</ele>
        <time>2022-08-26T16:45:53Z</time>
      </trkpt>
      <trkpt lat="45.89449" lon="6.79892">
        <ele>1336</ele>
        <time>2022-08-26T16:45:54Z</time>
      </trkpt>
      <trkpt lat="45.89446" lon="6.79891">
        <ele>1336</ele>
        <time>2022-08-26T16:45:55Z</time>
      </trkpt>
      <trkpt lat="45.89444" lon="6.7989">
        <ele>1335</ele>
        <time>2022-08-26T16:45:56Z</time>
      </trkpt>
      <trkpt lat="45.8944" lon="6.79886">
        <ele>1334</ele>
        <time>2022-08-26T16:45:57Z</time>
      </trkpt>
      <trkpt lat="45.89436" lon="6.79882">
        <ele>1333</ele>
        <time>2022-08-26T16:45:58Z</time>
      </trkpt>
      <trkpt lat="45.89434" lon="6.79879">
        <ele>1333</ele>
        <time>2022-08-26T16:46:00Z</time>
      </trkpt>
      <trkpt lat="45.89432" lon="6.79875">
        <ele>1333</ele>
        <time>2022-08-26T16:46:01Z</time>
      </trkpt>
      <trkpt lat="45.8943" lon="6.79871">
        <ele>1333</ele>
        <time>2022-08-26T16:46:02Z</time>
      </trkpt>
      <trkpt lat="45.89429" lon="6.7987">
        <ele>1333</ele>
        <time>2022-08-26T16:46:03Z</time>
      </trkpt>
      <trkpt lat="45.89429" lon="6.79868">
        <ele>1333</ele>
        <time>2022-08-26T16:46:04Z</time>
      </trkpt>
      <trkpt lat="45.89428" lon="6.79867">
        <ele>1332</ele>
        <time>2022-08-26T16:46:05Z</time>
      </trkpt>
      <trkpt lat="45.89422" lon="6.79856">
        <ele>1332</ele>
        <time>2022-08-26T16:46:07Z</time>
      </trkpt>
      <trkpt lat="45.89421" lon="6.79854">
        <ele>1332</ele>
        <time>2022-08-26T16:46:08Z</time>
      </trkpt>
      <trkpt lat="45.8942" lon="6.79852">
        <ele>1332</ele>
        <time>2022-08-26T16:46:09Z</time>
      </trkpt>
      <trkpt lat="45.89416" lon="6.79842">
        <ele>1331</ele>
        <time>2022-08-26T16:46:10Z</time>
      </trkpt>
      <trkpt lat="45.89415" lon="6.7984">
        <ele>1331</ele>
        <time>2022-08-26T16:46:12Z</time>
      </trkpt>
      <trkpt lat="45.89414" lon="6.79837">
        <ele>1330</ele>
        <time>2022-08-26T16:46:13Z</time>
      </trkpt>
      <trkpt lat="45.8941" lon="6.79825">
        <ele>1330</ele>
        <time>2022-08-26T16:46:14Z</time>
      </trkpt>
      <trkpt lat="45.89409" lon="6.79822">
        <ele>1330</ele>
        <time>2022-08-26T16:46:15Z</time>
      </trkpt>
      <trkpt lat="45.89408" lon="6.79818">
        <ele>1330</ele>
        <time>2022-08-26T16:46:16Z</time>
      </trkpt>
      <trkpt lat="45.89403" lon="6.79808">
        <ele>1328</ele>
        <time>2022-08-26T16:46:19Z</time>
      </trkpt>
      <trkpt lat="45.89401" lon="6.79803">
        <ele>1328</ele>
        <time>2022-08-26T16:46:20Z</time>
      </trkpt>
      <trkpt lat="45.894" lon="6.79802">
        <ele>1326</ele>
        <time>2022-08-26T16:46:21Z</time>
      </trkpt>
      <trkpt lat="45.89398" lon="6.798">
        <ele>1326</ele>
        <time>2022-08-26T16:46:22Z</time>
      </trkpt>
      <trkpt lat="45.89397" lon="6.79802">
        <ele>1326</ele>
        <time>2022-08-26T16:46:24Z</time>
      </trkpt>
      <trkpt lat="45.89396" lon="6.79803">
        <ele>1326</ele>
        <time>2022-08-26T16:46:25Z</time>
      </trkpt>
      <trkpt lat="45.89395" lon="6.79804">
        <ele>1326</ele>
        <time>2022-08-26T16:46:26Z</time>
      </trkpt>
      <trkpt lat="45.89388" lon="6.79815">
        <ele>1326</ele>
        <time>2022-08-26T16:46:28Z</time>
      </trkpt>
      <trkpt lat="45.89388" lon="6.79819">
        <ele>1326</ele>
        <time>2022-08-26T16:46:29Z</time>
      </trkpt>
      <trkpt lat="45.89387" lon="6.79824">
        <ele>1326</ele>
        <time>2022-08-26T16:46:30Z</time>
      </trkpt>
      <trkpt lat="45.89386" lon="6.79828">
        <ele>1326</ele>
        <time>2022-08-26T16:46:31Z</time>
      </trkpt>
      <trkpt lat="45.89386" lon="6.79833">
        <ele>1326</ele>
        <time>2022-08-26T16:46:33Z</time>
      </trkpt>
      <trkpt lat="45.89385" lon="6.79837">
        <ele>1325</ele>
        <time>2022-08-26T16:46:34Z</time>
      </trkpt>
      <trkpt lat="45.89384" lon="6.79841">
        <ele>1325</ele>
        <time>2022-08-26T16:46:35Z</time>
      </trkpt>
      <trkpt lat="45.89383" lon="6.79845">
        <ele>1325</ele>
        <time>2022-08-26T16:46:36Z</time>
      </trkpt>
      <trkpt lat="45.89382" lon="6.79849">
        <ele>1325</ele>
        <time>2022-08-26T16:46:38Z</time>
      </trkpt>
      <trkpt lat="45.89381" lon="6.79852">
        <ele>1325</ele>
        <time>2022-08-26T16:46:39Z</time>
      </trkpt>
      <trkpt lat="45.89381" lon="6.79854">
        <ele>1325</ele>
        <time>2022-08-26T16:46:40Z</time>
      </trkpt>
      <trkpt lat="45.8938" lon="6.79856">
        <ele>1325</ele>
        <time>2022-08-26T16:46:41Z</time>
      </trkpt>
      <trkpt lat="45.8938" lon="6.79857">
        <ele>1325</ele>
        <time>2022-08-26T16:46:42Z</time>
      </trkpt>
      <trkpt lat="45.89378" lon="6.79867">
        <ele>1326</ele>
        <time>2022-08-26T16:46:44Z</time>
      </trkpt>
      <trkpt lat="45.89375" lon="6.79881">
        <ele>1327</ele>
        <time>2022-08-26T16:46:46Z</time>
      </trkpt>
      <trkpt lat="45.89374" lon="6.79885">
        <ele>1327</ele>
        <time>2022-08-26T16:46:47Z</time>
      </trkpt>
      <trkpt lat="45.89374" lon="6.79888">
        <ele>1328</ele>
        <time>2022-08-26T16:46:48Z</time>
      </trkpt>
      <trkpt lat="45.89373" lon="6.79891">
        <ele>1328</ele>
        <time>2022-08-26T16:46:49Z</time>
      </trkpt>
      <trkpt lat="45.89372" lon="6.79896">
        <ele>1328</ele>
        <time>2022-08-26T16:46:50Z</time>
      </trkpt>
      <trkpt lat="45.89371" lon="6.79897">
        <ele>1328</ele>
        <time>2022-08-26T16:46:51Z</time>
      </trkpt>
      <trkpt lat="45.89371" lon="6.79901">
        <ele>1328</ele>
        <time>2022-08-26T16:46:52Z</time>
      </trkpt>
      <trkpt lat="45.8937" lon="6.79903">
        <ele>1329</ele>
        <time>2022-08-26T16:46:53Z</time>
      </trkpt>
      <trkpt lat="45.8937" lon="6.79906">
        <ele>1329</ele>
        <time>2022-08-26T16:46:54Z</time>
      </trkpt>
      <trkpt lat="45.89369" lon="6.79909">
        <ele>1329</ele>
        <time>2022-08-26T16:46:55Z</time>
      </trkpt>
      <trkpt lat="45.89368" lon="6.79911">
        <ele>1329</ele>
        <time>2022-08-26T16:46:56Z</time>
      </trkpt>
      <trkpt lat="45.89366" lon="6.79916">
        <ele>1330</ele>
        <time>2022-08-26T16:46:58Z</time>
      </trkpt>
      <trkpt lat="45.89365" lon="6.79918">
        <ele>1330</ele>
        <time>2022-08-26T16:46:59Z</time>
      </trkpt>
      <trkpt lat="45.89364" lon="6.7992">
        <ele>1330</ele>
        <time>2022-08-26T16:47:00Z</time>
      </trkpt>
      <trkpt lat="45.89363" lon="6.79922">
        <ele>1331</ele>
        <time>2022-08-26T16:47:01Z</time>
      </trkpt>
      <trkpt lat="45.89362" lon="6.79924">
        <ele>1331</ele>
        <time>2022-08-26T16:47:02Z</time>
      </trkpt>
      <trkpt lat="45.89361" lon="6.79926">
        <ele>1331</ele>
        <time>2022-08-26T16:47:03Z</time>
      </trkpt>
      <trkpt lat="45.89359" lon="6.79928">
        <ele>1331</ele>
        <time>2022-08-26T16:47:04Z</time>
      </trkpt>
      <trkpt lat="45.89358" lon="6.7993">
        <ele>1331</ele>
        <time>2022-08-26T16:47:05Z</time>
      </trkpt>
      <trkpt lat="45.89357" lon="6.79932">
        <ele>1332</ele>
        <time>2022-08-26T16:47:06Z</time>
      </trkpt>
      <trkpt lat="45.89355" lon="6.79934">
        <ele>1332</ele>
        <time>2022-08-26T16:47:07Z</time>
      </trkpt>
      <trkpt lat="45.89354" lon="6.79936">
        <ele>1333</ele>
        <time>2022-08-26T16:47:08Z</time>
      </trkpt>
      <trkpt lat="45.89352" lon="6.79939">
        <ele>1333</ele>
        <time>2022-08-26T16:47:09Z</time>
      </trkpt>
      <trkpt lat="45.89349" lon="6.79942">
        <ele>1333</ele>
        <time>2022-08-26T16:47:10Z</time>
      </trkpt>
      <trkpt lat="45.89347" lon="6.79944">
        <ele>1333</ele>
        <time>2022-08-26T16:47:11Z</time>
      </trkpt>
      <trkpt lat="45.89339" lon="6.79954">
        <ele>1334</ele>
        <time>2022-08-26T16:47:16Z</time>
      </trkpt>
      <trkpt lat="45.89338" lon="6.79956">
        <ele>1334</ele>
        <time>2022-08-26T16:47:17Z</time>
      </trkpt>
      <trkpt lat="45.89336" lon="6.79957">
        <ele>1334</ele>
        <time>2022-08-26T16:47:18Z</time>
      </trkpt>
      <trkpt lat="45.89334" lon="6.79959">
        <ele>1335</ele>
        <time>2022-08-26T16:47:20Z</time>
      </trkpt>
      <trkpt lat="45.89333" lon="6.7996">
        <ele>1335</ele>
        <time>2022-08-26T16:47:21Z</time>
      </trkpt>
      <trkpt lat="45.89331" lon="6.79961">
        <ele>1335</ele>
        <time>2022-08-26T16:47:22Z</time>
      </trkpt>
      <trkpt lat="45.89328" lon="6.79963">
        <ele>1335</ele>
        <time>2022-08-26T16:47:23Z</time>
      </trkpt>
      <trkpt lat="45.89325" lon="6.79964">
        <ele>1335</ele>
        <time>2022-08-26T16:47:24Z</time>
      </trkpt>
      <trkpt lat="45.89322" lon="6.79965">
        <ele>1336</ele>
        <time>2022-08-26T16:47:25Z</time>
      </trkpt>
      <trkpt lat="45.8932" lon="6.79966">
        <ele>1336</ele>
        <time>2022-08-26T16:47:26Z</time>
      </trkpt>
      <trkpt lat="45.89318" lon="6.79965">
        <ele>1336</ele>
        <time>2022-08-26T16:47:27Z</time>
      </trkpt>
      <trkpt lat="45.89316" lon="6.79964">
        <ele>1336</ele>
        <time>2022-08-26T16:47:28Z</time>
      </trkpt>
      <trkpt lat="45.89314" lon="6.79964">
        <ele>1336</ele>
        <time>2022-08-26T16:47:29Z</time>
      </trkpt>
      <trkpt lat="45.89312" lon="6.79962">
        <ele>1336</ele>
        <time>2022-08-26T16:47:30Z</time>
      </trkpt>
      <trkpt lat="45.8931" lon="6.79961">
        <ele>1336</ele>
        <time>2022-08-26T16:47:31Z</time>
      </trkpt>
      <trkpt lat="45.89308" lon="6.7996">
        <ele>1337</ele>
        <time>2022-08-26T16:47:32Z</time>
      </trkpt>
      <trkpt lat="45.89303" lon="6.79956">
        <ele>1338</ele>
        <time>2022-08-26T16:47:34Z</time>
      </trkpt>
      <trkpt lat="45.89302" lon="6.79956">
        <ele>1338</ele>
        <time>2022-08-26T16:47:35Z</time>
      </trkpt>
      <trkpt lat="45.893" lon="6.79955">
        <ele>1338</ele>
        <time>2022-08-26T16:47:36Z</time>
      </trkpt>
      <trkpt lat="45.89299" lon="6.79954">
        <ele>1338</ele>
        <time>2022-08-26T16:47:37Z</time>
      </trkpt>
      <trkpt lat="45.89297" lon="6.79953">
        <ele>1338</ele>
        <time>2022-08-26T16:47:38Z</time>
      </trkpt>
      <trkpt lat="45.89296" lon="6.79952">
        <ele>1339</ele>
        <time>2022-08-26T16:47:39Z</time>
      </trkpt>
      <trkpt lat="45.89294" lon="6.7995">
        <ele>1339</ele>
        <time>2022-08-26T16:47:40Z</time>
      </trkpt>
      <trkpt lat="45.89292" lon="6.79948">
        <ele>1339</ele>
        <time>2022-08-26T16:47:41Z</time>
      </trkpt>
      <trkpt lat="45.8929" lon="6.79946">
        <ele>1339</ele>
        <time>2022-08-26T16:47:42Z</time>
      </trkpt>
      <trkpt lat="45.89288" lon="6.79945">
        <ele>1340</ele>
        <time>2022-08-26T16:47:43Z</time>
      </trkpt>
      <trkpt lat="45.89286" lon="6.79942">
        <ele>1341</ele>
        <time>2022-08-26T16:47:45Z</time>
      </trkpt>
      <trkpt lat="45.89283" lon="6.7994">
        <ele>1341</ele>
        <time>2022-08-26T16:47:46Z</time>
      </trkpt>
      <trkpt lat="45.8928" lon="6.79938">
        <ele>1341</ele>
        <time>2022-08-26T16:47:47Z</time>
      </trkpt>
      <trkpt lat="45.89278" lon="6.79936">
        <ele>1341</ele>
        <time>2022-08-26T16:47:48Z</time>
      </trkpt>
      <trkpt lat="45.89276" lon="6.79934">
        <ele>1341</ele>
        <time>2022-08-26T16:47:50Z</time>
      </trkpt>
      <trkpt lat="45.89273" lon="6.79933">
        <ele>1341</ele>
        <time>2022-08-26T16:47:51Z</time>
      </trkpt>
      <trkpt lat="45.89271" lon="6.79931">
        <ele>1341</ele>
        <time>2022-08-26T16:47:52Z</time>
      </trkpt>
      <trkpt lat="45.89269" lon="6.79932">
        <ele>1341</ele>
        <time>2022-08-26T16:47:54Z</time>
      </trkpt>
      <trkpt lat="45.89266" lon="6.79933">
        <ele>1341</ele>
        <time>2022-08-26T16:47:56Z</time>
      </trkpt>
      <trkpt lat="45.89264" lon="6.79933">
        <ele>1341</ele>
        <time>2022-08-26T16:47:57Z</time>
      </trkpt>
      <trkpt lat="45.89262" lon="6.79933">
        <ele>1342</ele>
        <time>2022-08-26T16:47:59Z</time>
      </trkpt>
      <trkpt lat="45.89259" lon="6.79935">
        <ele>1342</ele>
        <time>2022-08-26T16:48:02Z</time>
      </trkpt>
      <trkpt lat="45.89256" lon="6.79936">
        <ele>1344</ele>
        <time>2022-08-26T16:48:08Z</time>
      </trkpt>
      <trkpt lat="45.89254" lon="6.79937">
        <ele>1346</ele>
        <time>2022-08-26T16:48:10Z</time>
      </trkpt>
      <trkpt lat="45.89252" lon="6.79939">
        <ele>1346</ele>
        <time>2022-08-26T16:48:12Z</time>
      </trkpt>
      <trkpt lat="45.8925" lon="6.79941">
        <ele>1347</ele>
        <time>2022-08-26T16:48:14Z</time>
      </trkpt>
      <trkpt lat="45.89248" lon="6.79944">
        <ele>1348</ele>
        <time>2022-08-26T16:48:16Z</time>
      </trkpt>
      <trkpt lat="45.89248" lon="6.79949">
        <ele>1348</ele>
        <time>2022-08-26T16:48:18Z</time>
      </trkpt>
      <trkpt lat="45.89249" lon="6.79953">
        <ele>1348</ele>
        <time>2022-08-26T16:48:19Z</time>
      </trkpt>
      <trkpt lat="45.89248" lon="6.79955">
        <ele>1348</ele>
        <time>2022-08-26T16:48:20Z</time>
      </trkpt>
      <trkpt lat="45.89248" lon="6.79958">
        <ele>1348</ele>
        <time>2022-08-26T16:48:21Z</time>
      </trkpt>
      <trkpt lat="45.89248" lon="6.79961">
        <ele>1349</ele>
        <time>2022-08-26T16:48:22Z</time>
      </trkpt>
      <trkpt lat="45.89248" lon="6.79963">
        <ele>1350</ele>
        <time>2022-08-26T16:48:23Z</time>
      </trkpt>
      <trkpt lat="45.89247" lon="6.79967">
        <ele>1350</ele>
        <time>2022-08-26T16:48:24Z</time>
      </trkpt>
      <trkpt lat="45.89247" lon="6.79969">
        <ele>1350</ele>
        <time>2022-08-26T16:48:25Z</time>
      </trkpt>
      <trkpt lat="45.89246" lon="6.79972">
        <ele>1350</ele>
        <time>2022-08-26T16:48:26Z</time>
      </trkpt>
      <trkpt lat="45.89245" lon="6.79976">
        <ele>1351</ele>
        <time>2022-08-26T16:48:28Z</time>
      </trkpt>
      <trkpt lat="45.89243" lon="6.79978">
        <ele>1351</ele>
        <time>2022-08-26T16:48:29Z</time>
      </trkpt>
      <trkpt lat="45.89242" lon="6.79979">
        <ele>1351</ele>
        <time>2022-08-26T16:48:30Z</time>
      </trkpt>
      <trkpt lat="45.89239" lon="6.7998">
        <ele>1351</ele>
        <time>2022-08-26T16:48:32Z</time>
      </trkpt>
      <trkpt lat="45.89237" lon="6.7998">
        <ele>1351</ele>
        <time>2022-08-26T16:48:33Z</time>
      </trkpt>
      <trkpt lat="45.89235" lon="6.79979">
        <ele>1352</ele>
        <time>2022-08-26T16:48:34Z</time>
      </trkpt>
      <trkpt lat="45.89232" lon="6.79978">
        <ele>1352</ele>
        <time>2022-08-26T16:48:35Z</time>
      </trkpt>
      <trkpt lat="45.89229" lon="6.79976">
        <ele>1352</ele>
        <time>2022-08-26T16:48:36Z</time>
      </trkpt>
      <trkpt lat="45.89228" lon="6.79976">
        <ele>1352</ele>
        <time>2022-08-26T16:48:37Z</time>
      </trkpt>
      <trkpt lat="45.89226" lon="6.79974">
        <ele>1352</ele>
        <time>2022-08-26T16:48:38Z</time>
      </trkpt>
      <trkpt lat="45.89224" lon="6.79973">
        <ele>1352</ele>
        <time>2022-08-26T16:48:39Z</time>
      </trkpt>
      <trkpt lat="45.89222" lon="6.79971">
        <ele>1352</ele>
        <time>2022-08-26T16:48:40Z</time>
      </trkpt>
      <trkpt lat="45.8922" lon="6.79967">
        <ele>1352</ele>
        <time>2022-08-26T16:48:41Z</time>
      </trkpt>
      <trkpt lat="45.89219" lon="6.79966">
        <ele>1352</ele>
        <time>2022-08-26T16:48:42Z</time>
      </trkpt>
      <trkpt lat="45.89217" lon="6.79963">
        <ele>1353</ele>
        <time>2022-08-26T16:48:43Z</time>
      </trkpt>
      <trkpt lat="45.89214" lon="6.79959">
        <ele>1353</ele>
        <time>2022-08-26T16:48:44Z</time>
      </trkpt>
      <trkpt lat="45.89214" lon="6.79958">
        <ele>1353</ele>
        <time>2022-08-26T16:48:45Z</time>
      </trkpt>
      <trkpt lat="45.89212" lon="6.79955">
        <ele>1353</ele>
        <time>2022-08-26T16:48:46Z</time>
      </trkpt>
      <trkpt lat="45.8921" lon="6.79953">
        <ele>1353</ele>
        <time>2022-08-26T16:48:47Z</time>
      </trkpt>
      <trkpt lat="45.89207" lon="6.79949">
        <ele>1353</ele>
        <time>2022-08-26T16:48:48Z</time>
      </trkpt>
      <trkpt lat="45.89206" lon="6.79948">
        <ele>1354</ele>
        <time>2022-08-26T16:48:49Z</time>
      </trkpt>
      <trkpt lat="45.89203" lon="6.79944">
        <ele>1354</ele>
        <time>2022-08-26T16:48:50Z</time>
      </trkpt>
      <trkpt lat="45.89202" lon="6.79943">
        <ele>1354</ele>
        <time>2022-08-26T16:48:51Z</time>
      </trkpt>
      <trkpt lat="45.892" lon="6.79938">
        <ele>1354</ele>
        <time>2022-08-26T16:48:52Z</time>
      </trkpt>
      <trkpt lat="45.89199" lon="6.79937">
        <ele>1354</ele>
        <time>2022-08-26T16:48:53Z</time>
      </trkpt>
      <trkpt lat="45.89197" lon="6.79934">
        <ele>1354</ele>
        <time>2022-08-26T16:48:54Z</time>
      </trkpt>
      <trkpt lat="45.89195" lon="6.79931">
        <ele>1354</ele>
        <time>2022-08-26T16:48:55Z</time>
      </trkpt>
      <trkpt lat="45.89194" lon="6.79929">
        <ele>1354</ele>
        <time>2022-08-26T16:48:56Z</time>
      </trkpt>
      <trkpt lat="45.8919" lon="6.79925">
        <ele>1354</ele>
        <time>2022-08-26T16:48:57Z</time>
      </trkpt>
      <trkpt lat="45.89189" lon="6.79924">
        <ele>1353</ele>
        <time>2022-08-26T16:48:58Z</time>
      </trkpt>
      <trkpt lat="45.89187" lon="6.79921">
        <ele>1353</ele>
        <time>2022-08-26T16:48:59Z</time>
      </trkpt>
      <trkpt lat="45.89185" lon="6.79919">
        <ele>1353</ele>
        <time>2022-08-26T16:49:00Z</time>
      </trkpt>
      <trkpt lat="45.89183" lon="6.79917">
        <ele>1353</ele>
        <time>2022-08-26T16:49:01Z</time>
      </trkpt>
      <trkpt lat="45.89179" lon="6.79915">
        <ele>1353</ele>
        <time>2022-08-26T16:49:02Z</time>
      </trkpt>
      <trkpt lat="45.89178" lon="6.79914">
        <ele>1353</ele>
        <time>2022-08-26T16:49:03Z</time>
      </trkpt>
      <trkpt lat="45.89176" lon="6.79913">
        <ele>1353</ele>
        <time>2022-08-26T16:49:04Z</time>
      </trkpt>
      <trkpt lat="45.89173" lon="6.79911">
        <ele>1353</ele>
        <time>2022-08-26T16:49:05Z</time>
      </trkpt>
      <trkpt lat="45.89171" lon="6.7991">
        <ele>1353</ele>
        <time>2022-08-26T16:49:06Z</time>
      </trkpt>
      <trkpt lat="45.89167" lon="6.79908">
        <ele>1353</ele>
        <time>2022-08-26T16:49:07Z</time>
      </trkpt>
      <trkpt lat="45.89166" lon="6.79908">
        <ele>1353</ele>
        <time>2022-08-26T16:49:08Z</time>
      </trkpt>
      <trkpt lat="45.89162" lon="6.79906">
        <ele>1353</ele>
        <time>2022-08-26T16:49:09Z</time>
      </trkpt>
      <trkpt lat="45.89161" lon="6.79906">
        <ele>1353</ele>
        <time>2022-08-26T16:49:10Z</time>
      </trkpt>
      <trkpt lat="45.89157" lon="6.79904">
        <ele>1353</ele>
        <time>2022-08-26T16:49:11Z</time>
      </trkpt>
      <trkpt lat="45.89156" lon="6.79903">
        <ele>1353</ele>
        <time>2022-08-26T16:49:12Z</time>
      </trkpt>
      <trkpt lat="45.89154" lon="6.79902">
        <ele>1353</ele>
        <time>2022-08-26T16:49:13Z</time>
      </trkpt>
      <trkpt lat="45.89152" lon="6.79901">
        <ele>1353</ele>
        <time>2022-08-26T16:49:14Z</time>
      </trkpt>
      <trkpt lat="45.89149" lon="6.799">
        <ele>1353</ele>
        <time>2022-08-26T16:49:15Z</time>
      </trkpt>
      <trkpt lat="45.89147" lon="6.79899">
        <ele>1353</ele>
        <time>2022-08-26T16:49:16Z</time>
      </trkpt>
      <trkpt lat="45.89142" lon="6.79897">
        <ele>1354</ele>
        <time>2022-08-26T16:49:18Z</time>
      </trkpt>
      <trkpt lat="45.89139" lon="6.79896">
        <ele>1354</ele>
        <time>2022-08-26T16:49:19Z</time>
      </trkpt>
      <trkpt lat="45.89136" lon="6.79896">
        <ele>1354</ele>
        <time>2022-08-26T16:49:20Z</time>
      </trkpt>
      <trkpt lat="45.89134" lon="6.79895">
        <ele>1354</ele>
        <time>2022-08-26T16:49:21Z</time>
      </trkpt>
      <trkpt lat="45.89132" lon="6.79895">
        <ele>1354</ele>
        <time>2022-08-26T16:49:22Z</time>
      </trkpt>
      <trkpt lat="45.8913" lon="6.79894">
        <ele>1354</ele>
        <time>2022-08-26T16:49:23Z</time>
      </trkpt>
      <trkpt lat="45.89128" lon="6.79894">
        <ele>1354</ele>
        <time>2022-08-26T16:49:24Z</time>
      </trkpt>
      <trkpt lat="45.89126" lon="6.79893">
        <ele>1355</ele>
        <time>2022-08-26T16:49:25Z</time>
      </trkpt>
      <trkpt lat="45.89123" lon="6.79892">
        <ele>1355</ele>
        <time>2022-08-26T16:49:26Z</time>
      </trkpt>
      <trkpt lat="45.8912" lon="6.79891">
        <ele>1354</ele>
        <time>2022-08-26T16:49:27Z</time>
      </trkpt>
      <trkpt lat="45.89117" lon="6.7989">
        <ele>1354</ele>
        <time>2022-08-26T16:49:28Z</time>
      </trkpt>
      <trkpt lat="45.89114" lon="6.79888">
        <ele>1354</ele>
        <time>2022-08-26T16:49:29Z</time>
      </trkpt>
      <trkpt lat="45.89112" lon="6.79887">
        <ele>1355</ele>
        <time>2022-08-26T16:49:30Z</time>
      </trkpt>
      <trkpt lat="45.89109" lon="6.79886">
        <ele>1355</ele>
        <time>2022-08-26T16:49:31Z</time>
      </trkpt>
      <trkpt lat="45.89105" lon="6.79885">
        <ele>1355</ele>
        <time>2022-08-26T16:49:32Z</time>
      </trkpt>
      <trkpt lat="45.89103" lon="6.79885">
        <ele>1355</ele>
        <time>2022-08-26T16:49:33Z</time>
      </trkpt>
      <trkpt lat="45.89101" lon="6.79884">
        <ele>1355</ele>
        <time>2022-08-26T16:49:34Z</time>
      </trkpt>
      <trkpt lat="45.89098" lon="6.79884">
        <ele>1355</ele>
        <time>2022-08-26T16:49:35Z</time>
      </trkpt>
      <trkpt lat="45.89096" lon="6.79883">
        <ele>1355</ele>
        <time>2022-08-26T16:49:36Z</time>
      </trkpt>
      <trkpt lat="45.89094" lon="6.79883">
        <ele>1355</ele>
        <time>2022-08-26T16:49:37Z</time>
      </trkpt>
      <trkpt lat="45.89091" lon="6.79883">
        <ele>1355</ele>
        <time>2022-08-26T16:49:38Z</time>
      </trkpt>
      <trkpt lat="45.89088" lon="6.79881">
        <ele>1355</ele>
        <time>2022-08-26T16:49:39Z</time>
      </trkpt>
      <trkpt lat="45.89086" lon="6.7988">
        <ele>1355</ele>
        <time>2022-08-26T16:49:40Z</time>
      </trkpt>
      <trkpt lat="45.89083" lon="6.79878">
        <ele>1355</ele>
        <time>2022-08-26T16:49:41Z</time>
      </trkpt>
      <trkpt lat="45.89074" lon="6.79875">
        <ele>1355</ele>
        <time>2022-08-26T16:49:43Z</time>
      </trkpt>
      <trkpt lat="45.89072" lon="6.79874">
        <ele>1356</ele>
        <time>2022-08-26T16:49:44Z</time>
      </trkpt>
      <trkpt lat="45.89069" lon="6.79873">
        <ele>1356</ele>
        <time>2022-08-26T16:49:45Z</time>
      </trkpt>
      <trkpt lat="45.89067" lon="6.79872">
        <ele>1356</ele>
        <time>2022-08-26T16:49:46Z</time>
      </trkpt>
      <trkpt lat="45.89065" lon="6.79872">
        <ele>1356</ele>
        <time>2022-08-26T16:49:47Z</time>
      </trkpt>
      <trkpt lat="45.89064" lon="6.79871">
        <ele>1356</ele>
        <time>2022-08-26T16:49:48Z</time>
      </trkpt>
      <trkpt lat="45.89063" lon="6.7987">
        <ele>1356</ele>
        <time>2022-08-26T16:49:49Z</time>
      </trkpt>
      <trkpt lat="45.89062" lon="6.7987">
        <ele>1356</ele>
        <time>2022-08-26T16:49:50Z</time>
      </trkpt>
      <trkpt lat="45.89052" lon="6.79863">
        <ele>1356</ele>
        <time>2022-08-26T16:49:52Z</time>
      </trkpt>
      <trkpt lat="45.89049" lon="6.79861">
        <ele>1356</ele>
        <time>2022-08-26T16:49:53Z</time>
      </trkpt>
      <trkpt lat="45.89046" lon="6.79859">
        <ele>1356</ele>
        <time>2022-08-26T16:49:54Z</time>
      </trkpt>
      <trkpt lat="45.89044" lon="6.79858">
        <ele>1356</ele>
        <time>2022-08-26T16:49:55Z</time>
      </trkpt>
      <trkpt lat="45.89042" lon="6.79856">
        <ele>1356</ele>
        <time>2022-08-26T16:49:56Z</time>
      </trkpt>
      <trkpt lat="45.8904" lon="6.79855">
        <ele>1356</ele>
        <time>2022-08-26T16:49:57Z</time>
      </trkpt>
      <trkpt lat="45.89038" lon="6.79853">
        <ele>1356</ele>
        <time>2022-08-26T16:49:58Z</time>
      </trkpt>
      <trkpt lat="45.89036" lon="6.79851">
        <ele>1356</ele>
        <time>2022-08-26T16:49:59Z</time>
      </trkpt>
      <trkpt lat="45.89032" lon="6.79847">
        <ele>1356</ele>
        <time>2022-08-26T16:50:01Z</time>
      </trkpt>
      <trkpt lat="45.89028" lon="6.79843">
        <ele>1356</ele>
        <time>2022-08-26T16:50:02Z</time>
      </trkpt>
      <trkpt lat="45.89026" lon="6.79841">
        <ele>1356</ele>
        <time>2022-08-26T16:50:03Z</time>
      </trkpt>
      <trkpt lat="45.89024" lon="6.79839">
        <ele>1356</ele>
        <time>2022-08-26T16:50:04Z</time>
      </trkpt>
      <trkpt lat="45.89022" lon="6.79838">
        <ele>1356</ele>
        <time>2022-08-26T16:50:05Z</time>
      </trkpt>
      <trkpt lat="45.8902" lon="6.79836">
        <ele>1356</ele>
        <time>2022-08-26T16:50:06Z</time>
      </trkpt>
      <trkpt lat="45.89018" lon="6.79834">
        <ele>1356</ele>
        <time>2022-08-26T16:50:07Z</time>
      </trkpt>
      <trkpt lat="45.89016" lon="6.79833">
        <ele>1356</ele>
        <time>2022-08-26T16:50:08Z</time>
      </trkpt>
      <trkpt lat="45.89013" lon="6.79832">
        <ele>1355</ele>
        <time>2022-08-26T16:50:09Z</time>
      </trkpt>
      <trkpt lat="45.89006" lon="6.79828">
        <ele>1355</ele>
        <time>2022-08-26T16:50:10Z</time>
      </trkpt>
      <trkpt lat="45.89005" lon="6.79827">
        <ele>1356</ele>
        <time>2022-08-26T16:50:11Z</time>
      </trkpt>
      <trkpt lat="45.89004" lon="6.79825">
        <ele>1356</ele>
        <time>2022-08-26T16:50:12Z</time>
      </trkpt>
      <trkpt lat="45.89002" lon="6.79824">
        <ele>1356</ele>
        <time>2022-08-26T16:50:13Z</time>
      </trkpt>
      <trkpt lat="45.88997" lon="6.79818">
        <ele>1356</ele>
        <time>2022-08-26T16:50:14Z</time>
      </trkpt>
      <trkpt lat="45.88994" lon="6.79814">
        <ele>1356</ele>
        <time>2022-08-26T16:50:15Z</time>
      </trkpt>
      <trkpt lat="45.88993" lon="6.79813">
        <ele>1356</ele>
        <time>2022-08-26T16:50:16Z</time>
      </trkpt>
      <trkpt lat="45.88991" lon="6.79809">
        <ele>1356</ele>
        <time>2022-08-26T16:50:17Z</time>
      </trkpt>
      <trkpt lat="45.88989" lon="6.79807">
        <ele>1356</ele>
        <time>2022-08-26T16:50:18Z</time>
      </trkpt>
      <trkpt lat="45.88987" lon="6.79804">
        <ele>1356</ele>
        <time>2022-08-26T16:50:19Z</time>
      </trkpt>
      <trkpt lat="45.88983" lon="6.798">
        <ele>1356</ele>
        <time>2022-08-26T16:50:21Z</time>
      </trkpt>
      <trkpt lat="45.88981" lon="6.79798">
        <ele>1355</ele>
        <time>2022-08-26T16:50:22Z</time>
      </trkpt>
      <trkpt lat="45.88978" lon="6.79792">
        <ele>1355</ele>
        <time>2022-08-26T16:50:26Z</time>
      </trkpt>
      <trkpt lat="45.8898" lon="6.79789">
        <ele>1355</ele>
        <time>2022-08-26T16:50:28Z</time>
      </trkpt>
      <trkpt lat="45.88981" lon="6.79787">
        <ele>1356</ele>
        <time>2022-08-26T16:50:33Z</time>
      </trkpt>
      <trkpt lat="45.88979" lon="6.79787">
        <ele>1356</ele>
        <time>2022-08-26T16:50:38Z</time>
      </trkpt>
      <trkpt lat="45.88977" lon="6.79786">
        <ele>1356</ele>
        <time>2022-08-26T16:50:40Z</time>
      </trkpt>
      <trkpt lat="45.88975" lon="6.79783">
        <ele>1356</ele>
        <time>2022-08-26T16:50:42Z</time>
      </trkpt>
      <trkpt lat="45.88974" lon="6.79781">
        <ele>1355</ele>
        <time>2022-08-26T16:50:44Z</time>
      </trkpt>
      <trkpt lat="45.88973" lon="6.79779">
        <ele>1355</ele>
        <time>2022-08-26T16:50:46Z</time>
      </trkpt>
      <trkpt lat="45.88971" lon="6.79776">
        <ele>1355</ele>
        <time>2022-08-26T16:50:49Z</time>
      </trkpt>
      <trkpt lat="45.88969" lon="6.79772">
        <ele>1355</ele>
        <time>2022-08-26T16:50:51Z</time>
      </trkpt>
      <trkpt lat="45.88968" lon="6.79771">
        <ele>1355</ele>
        <time>2022-08-26T16:50:52Z</time>
      </trkpt>
      <trkpt lat="45.88967" lon="6.79769">
        <ele>1355</ele>
        <time>2022-08-26T16:50:53Z</time>
      </trkpt>
      <trkpt lat="45.88964" lon="6.79766">
        <ele>1355</ele>
        <time>2022-08-26T16:50:54Z</time>
      </trkpt>
      <trkpt lat="45.88963" lon="6.79764">
        <ele>1355</ele>
        <time>2022-08-26T16:50:55Z</time>
      </trkpt>
      <trkpt lat="45.88961" lon="6.79762">
        <ele>1355</ele>
        <time>2022-08-26T16:50:56Z</time>
      </trkpt>
      <trkpt lat="45.8896" lon="6.79759">
        <ele>1356</ele>
        <time>2022-08-26T16:50:57Z</time>
      </trkpt>
      <trkpt lat="45.88958" lon="6.79756">
        <ele>1356</ele>
        <time>2022-08-26T16:50:58Z</time>
      </trkpt>
      <trkpt lat="45.88955" lon="6.79751">
        <ele>1356</ele>
        <time>2022-08-26T16:50:59Z</time>
      </trkpt>
      <trkpt lat="45.88954" lon="6.7975">
        <ele>1356</ele>
        <time>2022-08-26T16:51:00Z</time>
      </trkpt>
      <trkpt lat="45.88953" lon="6.79746">
        <ele>1356</ele>
        <time>2022-08-26T16:51:01Z</time>
      </trkpt>
      <trkpt lat="45.88951" lon="6.79743">
        <ele>1356</ele>
        <time>2022-08-26T16:51:02Z</time>
      </trkpt>
      <trkpt lat="45.88949" lon="6.79737">
        <ele>1356</ele>
        <time>2022-08-26T16:51:03Z</time>
      </trkpt>
      <trkpt lat="45.88949" lon="6.79735">
        <ele>1356</ele>
        <time>2022-08-26T16:51:04Z</time>
      </trkpt>
      <trkpt lat="45.88948" lon="6.79732">
        <ele>1356</ele>
        <time>2022-08-26T16:51:05Z</time>
      </trkpt>
      <trkpt lat="45.88947" lon="6.79728">
        <ele>1356</ele>
        <time>2022-08-26T16:51:06Z</time>
      </trkpt>
      <trkpt lat="45.88946" lon="6.79724">
        <ele>1356</ele>
        <time>2022-08-26T16:51:07Z</time>
      </trkpt>
      <trkpt lat="45.88945" lon="6.79719">
        <ele>1356</ele>
        <time>2022-08-26T16:51:08Z</time>
      </trkpt>
      <trkpt lat="45.88945" lon="6.79717">
        <ele>1356</ele>
        <time>2022-08-26T16:51:09Z</time>
      </trkpt>
      <trkpt lat="45.88944" lon="6.79713">
        <ele>1356</ele>
        <time>2022-08-26T16:51:10Z</time>
      </trkpt>
      <trkpt lat="45.88943" lon="6.7971">
        <ele>1356</ele>
        <time>2022-08-26T16:51:11Z</time>
      </trkpt>
      <trkpt lat="45.88941" lon="6.79704">
        <ele>1356</ele>
        <time>2022-08-26T16:51:12Z</time>
      </trkpt>
      <trkpt lat="45.88941" lon="6.79702">
        <ele>1356</ele>
        <time>2022-08-26T16:51:13Z</time>
      </trkpt>
      <trkpt lat="45.88941" lon="6.79698">
        <ele>1356</ele>
        <time>2022-08-26T16:51:14Z</time>
      </trkpt>
      <trkpt lat="45.8894" lon="6.79695">
        <ele>1356</ele>
        <time>2022-08-26T16:51:15Z</time>
      </trkpt>
      <trkpt lat="45.8894" lon="6.79689">
        <ele>1356</ele>
        <time>2022-08-26T16:51:16Z</time>
      </trkpt>
      <trkpt lat="45.8894" lon="6.79687">
        <ele>1356</ele>
        <time>2022-08-26T16:51:17Z</time>
      </trkpt>
      <trkpt lat="45.88939" lon="6.79683">
        <ele>1356</ele>
        <time>2022-08-26T16:51:18Z</time>
      </trkpt>
      <trkpt lat="45.88939" lon="6.79679">
        <ele>1356</ele>
        <time>2022-08-26T16:51:19Z</time>
      </trkpt>
      <trkpt lat="45.88938" lon="6.79675">
        <ele>1356</ele>
        <time>2022-08-26T16:51:20Z</time>
      </trkpt>
      <trkpt lat="45.88938" lon="6.79672">
        <ele>1356</ele>
        <time>2022-08-26T16:51:21Z</time>
      </trkpt>
      <trkpt lat="45.88937" lon="6.79668">
        <ele>1356</ele>
        <time>2022-08-26T16:51:22Z</time>
      </trkpt>
      <trkpt lat="45.88937" lon="6.79665">
        <ele>1356</ele>
        <time>2022-08-26T16:51:23Z</time>
      </trkpt>
      <trkpt lat="45.88936" lon="6.79662">
        <ele>1356</ele>
        <time>2022-08-26T16:51:24Z</time>
      </trkpt>
      <trkpt lat="45.88935" lon="6.79658">
        <ele>1356</ele>
        <time>2022-08-26T16:51:25Z</time>
      </trkpt>
      <trkpt lat="45.88935" lon="6.79655">
        <ele>1356</ele>
        <time>2022-08-26T16:51:26Z</time>
      </trkpt>
      <trkpt lat="45.88934" lon="6.79649">
        <ele>1356</ele>
        <time>2022-08-26T16:51:27Z</time>
      </trkpt>
      <trkpt lat="45.88934" lon="6.79647">
        <ele>1356</ele>
        <time>2022-08-26T16:51:28Z</time>
      </trkpt>
      <trkpt lat="45.88933" lon="6.79641">
        <ele>1356</ele>
        <time>2022-08-26T16:51:29Z</time>
      </trkpt>
      <trkpt lat="45.88933" lon="6.7964">
        <ele>1356</ele>
        <time>2022-08-26T16:51:30Z</time>
      </trkpt>
      <trkpt lat="45.88932" lon="6.79634">
        <ele>1356</ele>
        <time>2022-08-26T16:51:31Z</time>
      </trkpt>
      <trkpt lat="45.88931" lon="6.79633">
        <ele>1356</ele>
        <time>2022-08-26T16:51:32Z</time>
      </trkpt>
      <trkpt lat="45.8893" lon="6.79629">
        <ele>1356</ele>
        <time>2022-08-26T16:51:33Z</time>
      </trkpt>
      <trkpt lat="45.88929" lon="6.79626">
        <ele>1356</ele>
        <time>2022-08-26T16:51:34Z</time>
      </trkpt>
      <trkpt lat="45.88928" lon="6.79622">
        <ele>1356</ele>
        <time>2022-08-26T16:51:35Z</time>
      </trkpt>
      <trkpt lat="45.88927" lon="6.79618">
        <ele>1356</ele>
        <time>2022-08-26T16:51:36Z</time>
      </trkpt>
      <trkpt lat="45.88926" lon="6.79614">
        <ele>1356</ele>
        <time>2022-08-26T16:51:37Z</time>
      </trkpt>
      <trkpt lat="45.88926" lon="6.79609">
        <ele>1356</ele>
        <time>2022-08-26T16:51:38Z</time>
      </trkpt>
      <trkpt lat="45.88926" lon="6.79607">
        <ele>1356</ele>
        <time>2022-08-26T16:51:39Z</time>
      </trkpt>
      <trkpt lat="45.88926" lon="6.79604">
        <ele>1357</ele>
        <time>2022-08-26T16:51:40Z</time>
      </trkpt>
      <trkpt lat="45.88925" lon="6.79598">
        <ele>1357</ele>
        <time>2022-08-26T16:51:41Z</time>
      </trkpt>
      <trkpt lat="45.88925" lon="6.79596">
        <ele>1357</ele>
        <time>2022-08-26T16:51:42Z</time>
      </trkpt>
      <trkpt lat="45.88925" lon="6.79592">
        <ele>1357</ele>
        <time>2022-08-26T16:51:43Z</time>
      </trkpt>
      <trkpt lat="45.88925" lon="6.79588">
        <ele>1357</ele>
        <time>2022-08-26T16:51:44Z</time>
      </trkpt>
      <trkpt lat="45.88924" lon="6.79584">
        <ele>1357</ele>
        <time>2022-08-26T16:51:45Z</time>
      </trkpt>
      <trkpt lat="45.88924" lon="6.79578">
        <ele>1357</ele>
        <time>2022-08-26T16:51:46Z</time>
      </trkpt>
      <trkpt lat="45.88924" lon="6.79576">
        <ele>1358</ele>
        <time>2022-08-26T16:51:47Z</time>
      </trkpt>
      <trkpt lat="45.88924" lon="6.79572">
        <ele>1358</ele>
        <time>2022-08-26T16:51:48Z</time>
      </trkpt>
      <trkpt lat="45.88923" lon="6.79569">
        <ele>1358</ele>
        <time>2022-08-26T16:51:49Z</time>
      </trkpt>
      <trkpt lat="45.88923" lon="6.79562">
        <ele>1358</ele>
        <time>2022-08-26T16:51:50Z</time>
      </trkpt>
      <trkpt lat="45.88923" lon="6.7956">
        <ele>1358</ele>
        <time>2022-08-26T16:51:51Z</time>
      </trkpt>
      <trkpt lat="45.88922" lon="6.79556">
        <ele>1358</ele>
        <time>2022-08-26T16:51:52Z</time>
      </trkpt>
      <trkpt lat="45.88922" lon="6.79552">
        <ele>1358</ele>
        <time>2022-08-26T16:51:53Z</time>
      </trkpt>
      <trkpt lat="45.88921" lon="6.79549">
        <ele>1358</ele>
        <time>2022-08-26T16:51:54Z</time>
      </trkpt>
      <trkpt lat="45.8892" lon="6.79543">
        <ele>1358</ele>
        <time>2022-08-26T16:51:55Z</time>
      </trkpt>
      <trkpt lat="45.8892" lon="6.79541">
        <ele>1358</ele>
        <time>2022-08-26T16:51:56Z</time>
      </trkpt>
      <trkpt lat="45.8892" lon="6.79536">
        <ele>1358</ele>
        <time>2022-08-26T16:51:57Z</time>
      </trkpt>
      <trkpt lat="45.88919" lon="6.79534">
        <ele>1358</ele>
        <time>2022-08-26T16:51:58Z</time>
      </trkpt>
      <trkpt lat="45.8892" lon="6.7953">
        <ele>1358</ele>
        <time>2022-08-26T16:51:59Z</time>
      </trkpt>
      <trkpt lat="45.88919" lon="6.79524">
        <ele>1358</ele>
        <time>2022-08-26T16:52:00Z</time>
      </trkpt>
      <trkpt lat="45.8892" lon="6.79522">
        <ele>1358</ele>
        <time>2022-08-26T16:52:01Z</time>
      </trkpt>
      <trkpt lat="45.8892" lon="6.79519">
        <ele>1358</ele>
        <time>2022-08-26T16:52:02Z</time>
      </trkpt>
      <trkpt lat="45.8892" lon="6.79515">
        <ele>1358</ele>
        <time>2022-08-26T16:52:03Z</time>
      </trkpt>
      <trkpt lat="45.8892" lon="6.79511">
        <ele>1358</ele>
        <time>2022-08-26T16:52:04Z</time>
      </trkpt>
      <trkpt lat="45.88921" lon="6.79505">
        <ele>1358</ele>
        <time>2022-08-26T16:52:05Z</time>
      </trkpt>
      <trkpt lat="45.88921" lon="6.79503">
        <ele>1358</ele>
        <time>2022-08-26T16:52:06Z</time>
      </trkpt>
      <trkpt lat="45.88922" lon="6.795">
        <ele>1358</ele>
        <time>2022-08-26T16:52:07Z</time>
      </trkpt>
      <trkpt lat="45.88922" lon="6.79496">
        <ele>1358</ele>
        <time>2022-08-26T16:52:08Z</time>
      </trkpt>
      <trkpt lat="45.88923" lon="6.79493">
        <ele>1358</ele>
        <time>2022-08-26T16:52:09Z</time>
      </trkpt>
      <trkpt lat="45.88923" lon="6.79489">
        <ele>1358</ele>
        <time>2022-08-26T16:52:10Z</time>
      </trkpt>
      <trkpt lat="45.88924" lon="6.79486">
        <ele>1358</ele>
        <time>2022-08-26T16:52:11Z</time>
      </trkpt>
      <trkpt lat="45.88924" lon="6.79482">
        <ele>1358</ele>
        <time>2022-08-26T16:52:12Z</time>
      </trkpt>
      <trkpt lat="45.88925" lon="6.79478">
        <ele>1358</ele>
        <time>2022-08-26T16:52:13Z</time>
      </trkpt>
      <trkpt lat="45.88926" lon="6.79474">
        <ele>1358</ele>
        <time>2022-08-26T16:52:14Z</time>
      </trkpt>
      <trkpt lat="45.88926" lon="6.79472">
        <ele>1358</ele>
        <time>2022-08-26T16:52:15Z</time>
      </trkpt>
      <trkpt lat="45.88927" lon="6.79471">
        <ele>1357</ele>
        <time>2022-08-26T16:52:17Z</time>
      </trkpt>
      <trkpt lat="45.88927" lon="6.79469">
        <ele>1357</ele>
        <time>2022-08-26T16:52:18Z</time>
      </trkpt>
      <trkpt lat="45.8893" lon="6.79452">
        <ele>1357</ele>
        <time>2022-08-26T16:52:20Z</time>
      </trkpt>
      <trkpt lat="45.88931" lon="6.79445">
        <ele>1357</ele>
        <time>2022-08-26T16:52:21Z</time>
      </trkpt>
      <trkpt lat="45.88932" lon="6.79441">
        <ele>1357</ele>
        <time>2022-08-26T16:52:22Z</time>
      </trkpt>
      <trkpt lat="45.88932" lon="6.79436">
        <ele>1357</ele>
        <time>2022-08-26T16:52:23Z</time>
      </trkpt>
      <trkpt lat="45.88932" lon="6.79432">
        <ele>1357</ele>
        <time>2022-08-26T16:52:24Z</time>
      </trkpt>
      <trkpt lat="45.88933" lon="6.79428">
        <ele>1356</ele>
        <time>2022-08-26T16:52:25Z</time>
      </trkpt>
      <trkpt lat="45.88934" lon="6.79421">
        <ele>1356</ele>
        <time>2022-08-26T16:52:26Z</time>
      </trkpt>
      <trkpt lat="45.88934" lon="6.79419">
        <ele>1356</ele>
        <time>2022-08-26T16:52:27Z</time>
      </trkpt>
      <trkpt lat="45.88934" lon="6.79415">
        <ele>1356</ele>
        <time>2022-08-26T16:52:28Z</time>
      </trkpt>
      <trkpt lat="45.88934" lon="6.79411">
        <ele>1356</ele>
        <time>2022-08-26T16:52:29Z</time>
      </trkpt>
      <trkpt lat="45.88935" lon="6.79407">
        <ele>1356</ele>
        <time>2022-08-26T16:52:30Z</time>
      </trkpt>
      <trkpt lat="45.88935" lon="6.794">
        <ele>1356</ele>
        <time>2022-08-26T16:52:31Z</time>
      </trkpt>
      <trkpt lat="45.88935" lon="6.79398">
        <ele>1356</ele>
        <time>2022-08-26T16:52:32Z</time>
      </trkpt>
      <trkpt lat="45.88936" lon="6.79392">
        <ele>1356</ele>
        <time>2022-08-26T16:52:33Z</time>
      </trkpt>
      <trkpt lat="45.88936" lon="6.7939">
        <ele>1356</ele>
        <time>2022-08-26T16:52:34Z</time>
      </trkpt>
      <trkpt lat="45.88937" lon="6.79385">
        <ele>1356</ele>
        <time>2022-08-26T16:52:35Z</time>
      </trkpt>
      <trkpt lat="45.88937" lon="6.79381">
        <ele>1355</ele>
        <time>2022-08-26T16:52:36Z</time>
      </trkpt>
      <trkpt lat="45.88936" lon="6.79378">
        <ele>1355</ele>
        <time>2022-08-26T16:52:37Z</time>
      </trkpt>
      <trkpt lat="45.88937" lon="6.7936">
        <ele>1353</ele>
        <time>2022-08-26T16:52:41Z</time>
      </trkpt>
      <trkpt lat="45.88936" lon="6.79357">
        <ele>1353</ele>
        <time>2022-08-26T16:52:42Z</time>
      </trkpt>
      <trkpt lat="45.88936" lon="6.79354">
        <ele>1353</ele>
        <time>2022-08-26T16:52:43Z</time>
      </trkpt>
      <trkpt lat="45.88936" lon="6.79351">
        <ele>1353</ele>
        <time>2022-08-26T16:52:44Z</time>
      </trkpt>
      <trkpt lat="45.88935" lon="6.79347">
        <ele>1353</ele>
        <time>2022-08-26T16:52:45Z</time>
      </trkpt>
      <trkpt lat="45.88935" lon="6.79344">
        <ele>1353</ele>
        <time>2022-08-26T16:52:46Z</time>
      </trkpt>
      <trkpt lat="45.88934" lon="6.79331">
        <ele>1352</ele>
        <time>2022-08-26T16:52:49Z</time>
      </trkpt>
      <trkpt lat="45.88934" lon="6.79326">
        <ele>1352</ele>
        <time>2022-08-26T16:52:50Z</time>
      </trkpt>
      <trkpt lat="45.88935" lon="6.79321">
        <ele>1352</ele>
        <time>2022-08-26T16:52:51Z</time>
      </trkpt>
      <trkpt lat="45.88936" lon="6.79317">
        <ele>1352</ele>
        <time>2022-08-26T16:52:52Z</time>
      </trkpt>
      <trkpt lat="45.88934" lon="6.7931">
        <ele>1352</ele>
        <time>2022-08-26T16:52:54Z</time>
      </trkpt>
      <trkpt lat="45.88933" lon="6.79303">
        <ele>1352</ele>
        <time>2022-08-26T16:52:55Z</time>
      </trkpt>
      <trkpt lat="45.88932" lon="6.793">
        <ele>1352</ele>
        <time>2022-08-26T16:52:56Z</time>
      </trkpt>
      <trkpt lat="45.88931" lon="6.79296">
        <ele>1352</ele>
        <time>2022-08-26T16:52:58Z</time>
      </trkpt>
      <trkpt lat="45.8893" lon="6.79293">
        <ele>1352</ele>
        <time>2022-08-26T16:52:59Z</time>
      </trkpt>
      <trkpt lat="45.88929" lon="6.79289">
        <ele>1350</ele>
        <time>2022-08-26T16:53:00Z</time>
      </trkpt>
      <trkpt lat="45.88928" lon="6.79285">
        <ele>1351</ele>
        <time>2022-08-26T16:53:01Z</time>
      </trkpt>
      <trkpt lat="45.88927" lon="6.7928">
        <ele>1351</ele>
        <time>2022-08-26T16:53:02Z</time>
      </trkpt>
      <trkpt lat="45.88926" lon="6.79276">
        <ele>1351</ele>
        <time>2022-08-26T16:53:03Z</time>
      </trkpt>
      <trkpt lat="45.88926" lon="6.79269">
        <ele>1351</ele>
        <time>2022-08-26T16:53:04Z</time>
      </trkpt>
      <trkpt lat="45.88925" lon="6.79262">
        <ele>1351</ele>
        <time>2022-08-26T16:53:05Z</time>
      </trkpt>
      <trkpt lat="45.88925" lon="6.79257">
        <ele>1351</ele>
        <time>2022-08-26T16:53:06Z</time>
      </trkpt>
      <trkpt lat="45.88924" lon="6.7925">
        <ele>1351</ele>
        <time>2022-08-26T16:53:07Z</time>
      </trkpt>
      <trkpt lat="45.88923" lon="6.79248">
        <ele>1351</ele>
        <time>2022-08-26T16:53:08Z</time>
      </trkpt>
      <trkpt lat="45.88922" lon="6.79243">
        <ele>1351</ele>
        <time>2022-08-26T16:53:09Z</time>
      </trkpt>
      <trkpt lat="45.88922" lon="6.79239">
        <ele>1351</ele>
        <time>2022-08-26T16:53:10Z</time>
      </trkpt>
      <trkpt lat="45.88922" lon="6.79235">
        <ele>1351</ele>
        <time>2022-08-26T16:53:11Z</time>
      </trkpt>
      <trkpt lat="45.88921" lon="6.79228">
        <ele>1351</ele>
        <time>2022-08-26T16:53:12Z</time>
      </trkpt>
      <trkpt lat="45.88921" lon="6.79226">
        <ele>1351</ele>
        <time>2022-08-26T16:53:13Z</time>
      </trkpt>
      <trkpt lat="45.88921" lon="6.79221">
        <ele>1350</ele>
        <time>2022-08-26T16:53:14Z</time>
      </trkpt>
      <trkpt lat="45.88922" lon="6.79217">
        <ele>1350</ele>
        <time>2022-08-26T16:53:15Z</time>
      </trkpt>
      <trkpt lat="45.88923" lon="6.7921">
        <ele>1350</ele>
        <time>2022-08-26T16:53:16Z</time>
      </trkpt>
      <trkpt lat="45.88923" lon="6.79208">
        <ele>1350</ele>
        <time>2022-08-26T16:53:17Z</time>
      </trkpt>
      <trkpt lat="45.88923" lon="6.79202">
        <ele>1350</ele>
        <time>2022-08-26T16:53:18Z</time>
      </trkpt>
      <trkpt lat="45.88924" lon="6.792">
        <ele>1350</ele>
        <time>2022-08-26T16:53:19Z</time>
      </trkpt>
      <trkpt lat="45.88923" lon="6.79195">
        <ele>1350</ele>
        <time>2022-08-26T16:53:20Z</time>
      </trkpt>
      <trkpt lat="45.88923" lon="6.79191">
        <ele>1350</ele>
        <time>2022-08-26T16:53:21Z</time>
      </trkpt>
      <trkpt lat="45.88923" lon="6.79187">
        <ele>1350</ele>
        <time>2022-08-26T16:53:22Z</time>
      </trkpt>
      <trkpt lat="45.88924" lon="6.79179">
        <ele>1350</ele>
        <time>2022-08-26T16:53:24Z</time>
      </trkpt>
      <trkpt lat="45.88925" lon="6.79171">
        <ele>1349</ele>
        <time>2022-08-26T16:53:26Z</time>
      </trkpt>
      <trkpt lat="45.88927" lon="6.79166">
        <ele>1349</ele>
        <time>2022-08-26T16:53:27Z</time>
      </trkpt>
      <trkpt lat="45.88927" lon="6.79162">
        <ele>1349</ele>
        <time>2022-08-26T16:53:28Z</time>
      </trkpt>
      <trkpt lat="45.88927" lon="6.79158">
        <ele>1349</ele>
        <time>2022-08-26T16:53:29Z</time>
      </trkpt>
      <trkpt lat="45.88927" lon="6.79152">
        <ele>1349</ele>
        <time>2022-08-26T16:53:30Z</time>
      </trkpt>
      <trkpt lat="45.88927" lon="6.7915">
        <ele>1349</ele>
        <time>2022-08-26T16:53:31Z</time>
      </trkpt>
      <trkpt lat="45.88927" lon="6.79146">
        <ele>1350</ele>
        <time>2022-08-26T16:53:32Z</time>
      </trkpt>
      <trkpt lat="45.88927" lon="6.7914">
        <ele>1350</ele>
        <time>2022-08-26T16:53:33Z</time>
      </trkpt>
      <trkpt lat="45.88927" lon="6.79138">
        <ele>1349</ele>
        <time>2022-08-26T16:53:34Z</time>
      </trkpt>
      <trkpt lat="45.88928" lon="6.79131">
        <ele>1349</ele>
        <time>2022-08-26T16:53:35Z</time>
      </trkpt>
      <trkpt lat="45.88928" lon="6.79129">
        <ele>1349</ele>
        <time>2022-08-26T16:53:36Z</time>
      </trkpt>
      <trkpt lat="45.88928" lon="6.79123">
        <ele>1349</ele>
        <time>2022-08-26T16:53:37Z</time>
      </trkpt>
      <trkpt lat="45.88928" lon="6.79121">
        <ele>1349</ele>
        <time>2022-08-26T16:53:38Z</time>
      </trkpt>
      <trkpt lat="45.88929" lon="6.79117">
        <ele>1349</ele>
        <time>2022-08-26T16:53:39Z</time>
      </trkpt>
      <trkpt lat="45.88929" lon="6.79113">
        <ele>1349</ele>
        <time>2022-08-26T16:53:40Z</time>
      </trkpt>
      <trkpt lat="45.88929" lon="6.79109">
        <ele>1349</ele>
        <time>2022-08-26T16:53:41Z</time>
      </trkpt>
      <trkpt lat="45.8893" lon="6.79103">
        <ele>1349</ele>
        <time>2022-08-26T16:53:42Z</time>
      </trkpt>
      <trkpt lat="45.8893" lon="6.79101">
        <ele>1348</ele>
        <time>2022-08-26T16:53:43Z</time>
      </trkpt>
      <trkpt lat="45.8893" lon="6.79097">
        <ele>1348</ele>
        <time>2022-08-26T16:53:44Z</time>
      </trkpt>
      <trkpt lat="45.8893" lon="6.79093">
        <ele>1349</ele>
        <time>2022-08-26T16:53:45Z</time>
      </trkpt>
      <trkpt lat="45.88931" lon="6.79089">
        <ele>1349</ele>
        <time>2022-08-26T16:53:46Z</time>
      </trkpt>
      <trkpt lat="45.88932" lon="6.79083">
        <ele>1349</ele>
        <time>2022-08-26T16:53:47Z</time>
      </trkpt>
      <trkpt lat="45.88932" lon="6.79081">
        <ele>1349</ele>
        <time>2022-08-26T16:53:48Z</time>
      </trkpt>
      <trkpt lat="45.88933" lon="6.79078">
        <ele>1349</ele>
        <time>2022-08-26T16:53:49Z</time>
      </trkpt>
      <trkpt lat="45.88933" lon="6.79074">
        <ele>1349</ele>
        <time>2022-08-26T16:53:50Z</time>
      </trkpt>
      <trkpt lat="45.88934" lon="6.79069">
        <ele>1349</ele>
        <time>2022-08-26T16:53:51Z</time>
      </trkpt>
      <trkpt lat="45.88935" lon="6.79065">
        <ele>1348</ele>
        <time>2022-08-26T16:53:52Z</time>
      </trkpt>
      <trkpt lat="45.88935" lon="6.79061">
        <ele>1348</ele>
        <time>2022-08-26T16:53:53Z</time>
      </trkpt>
      <trkpt lat="45.88936" lon="6.79057">
        <ele>1348</ele>
        <time>2022-08-26T16:53:54Z</time>
      </trkpt>
      <trkpt lat="45.88937" lon="6.79049">
        <ele>1347</ele>
        <time>2022-08-26T16:53:56Z</time>
      </trkpt>
      <trkpt lat="45.88938" lon="6.79045">
        <ele>1346</ele>
        <time>2022-08-26T16:53:57Z</time>
      </trkpt>
      <trkpt lat="45.88939" lon="6.79041">
        <ele>1346</ele>
        <time>2022-08-26T16:53:58Z</time>
      </trkpt>
      <trkpt lat="45.8894" lon="6.79036">
        <ele>1346</ele>
        <time>2022-08-26T16:53:59Z</time>
      </trkpt>
      <trkpt lat="45.88941" lon="6.7903">
        <ele>1346</ele>
        <time>2022-08-26T16:54:00Z</time>
      </trkpt>
      <trkpt lat="45.88942" lon="6.79028">
        <ele>1346</ele>
        <time>2022-08-26T16:54:01Z</time>
      </trkpt>
      <trkpt lat="45.88943" lon="6.79024">
        <ele>1346</ele>
        <time>2022-08-26T16:54:02Z</time>
      </trkpt>
      <trkpt lat="45.88944" lon="6.7902">
        <ele>1346</ele>
        <time>2022-08-26T16:54:03Z</time>
      </trkpt>
      <trkpt lat="45.88945" lon="6.79017">
        <ele>1346</ele>
        <time>2022-08-26T16:54:04Z</time>
      </trkpt>
      <trkpt lat="45.88947" lon="6.79011">
        <ele>1346</ele>
        <time>2022-08-26T16:54:05Z</time>
      </trkpt>
      <trkpt lat="45.88947" lon="6.79009">
        <ele>1346</ele>
        <time>2022-08-26T16:54:06Z</time>
      </trkpt>
      <trkpt lat="45.88949" lon="6.79004">
        <ele>1346</ele>
        <time>2022-08-26T16:54:07Z</time>
      </trkpt>
      <trkpt lat="45.8895" lon="6.79002">
        <ele>1346</ele>
        <time>2022-08-26T16:54:08Z</time>
      </trkpt>
      <trkpt lat="45.88951" lon="6.78998">
        <ele>1345</ele>
        <time>2022-08-26T16:54:09Z</time>
      </trkpt>
      <trkpt lat="45.88952" lon="6.78995">
        <ele>1345</ele>
        <time>2022-08-26T16:54:10Z</time>
      </trkpt>
      <trkpt lat="45.88953" lon="6.7899">
        <ele>1345</ele>
        <time>2022-08-26T16:54:11Z</time>
      </trkpt>
      <trkpt lat="45.88954" lon="6.78986">
        <ele>1345</ele>
        <time>2022-08-26T16:54:12Z</time>
      </trkpt>
      <trkpt lat="45.88955" lon="6.78982">
        <ele>1344</ele>
        <time>2022-08-26T16:54:13Z</time>
      </trkpt>
      <trkpt lat="45.88956" lon="6.78978">
        <ele>1344</ele>
        <time>2022-08-26T16:54:14Z</time>
      </trkpt>
      <trkpt lat="45.88957" lon="6.78972">
        <ele>1344</ele>
        <time>2022-08-26T16:54:15Z</time>
      </trkpt>
      <trkpt lat="45.88958" lon="6.7897">
        <ele>1344</ele>
        <time>2022-08-26T16:54:16Z</time>
      </trkpt>
      <trkpt lat="45.88959" lon="6.78967">
        <ele>1344</ele>
        <time>2022-08-26T16:54:17Z</time>
      </trkpt>
      <trkpt lat="45.8896" lon="6.78963">
        <ele>1343</ele>
        <time>2022-08-26T16:54:18Z</time>
      </trkpt>
      <trkpt lat="45.88961" lon="6.78959">
        <ele>1343</ele>
        <time>2022-08-26T16:54:19Z</time>
      </trkpt>
      <trkpt lat="45.88963" lon="6.78953">
        <ele>1343</ele>
        <time>2022-08-26T16:54:20Z</time>
      </trkpt>
      <trkpt lat="45.88963" lon="6.78951">
        <ele>1343</ele>
        <time>2022-08-26T16:54:21Z</time>
      </trkpt>
      <trkpt lat="45.88964" lon="6.78948">
        <ele>1343</ele>
        <time>2022-08-26T16:54:22Z</time>
      </trkpt>
      <trkpt lat="45.88964" lon="6.78944">
        <ele>1343</ele>
        <time>2022-08-26T16:54:23Z</time>
      </trkpt>
      <trkpt lat="45.88964" lon="6.78941">
        <ele>1342</ele>
        <time>2022-08-26T16:54:24Z</time>
      </trkpt>
      <trkpt lat="45.88963" lon="6.78936">
        <ele>1342</ele>
        <time>2022-08-26T16:54:25Z</time>
      </trkpt>
      <trkpt lat="45.88962" lon="6.78935">
        <ele>1342</ele>
        <time>2022-08-26T16:54:26Z</time>
      </trkpt>
      <trkpt lat="45.8896" lon="6.78932">
        <ele>1342</ele>
        <time>2022-08-26T16:54:27Z</time>
      </trkpt>
      <trkpt lat="45.88958" lon="6.7893">
        <ele>1342</ele>
        <time>2022-08-26T16:54:28Z</time>
      </trkpt>
      <trkpt lat="45.88957" lon="6.78929">
        <ele>1342</ele>
        <time>2022-08-26T16:54:29Z</time>
      </trkpt>
      <trkpt lat="45.88955" lon="6.78928">
        <ele>1342</ele>
        <time>2022-08-26T16:54:30Z</time>
      </trkpt>
      <trkpt lat="45.88953" lon="6.78927">
        <ele>1342</ele>
        <time>2022-08-26T16:54:31Z</time>
      </trkpt>
      <trkpt lat="45.8895" lon="6.78926">
        <ele>1342</ele>
        <time>2022-08-26T16:54:32Z</time>
      </trkpt>
      <trkpt lat="45.88947" lon="6.78923">
        <ele>1342</ele>
        <time>2022-08-26T16:54:34Z</time>
      </trkpt>
      <trkpt lat="45.88943" lon="6.7892">
        <ele>1344</ele>
        <time>2022-08-26T16:54:36Z</time>
      </trkpt>
      <trkpt lat="45.88942" lon="6.7892">
        <ele>1344</ele>
        <time>2022-08-26T16:54:37Z</time>
      </trkpt>
      <trkpt lat="45.8894" lon="6.78919">
        <ele>1344</ele>
        <time>2022-08-26T16:54:38Z</time>
      </trkpt>
      <trkpt lat="45.88937" lon="6.78918">
        <ele>1344</ele>
        <time>2022-08-26T16:54:39Z</time>
      </trkpt>
      <trkpt lat="45.88935" lon="6.78917">
        <ele>1344</ele>
        <time>2022-08-26T16:54:40Z</time>
      </trkpt>
      <trkpt lat="45.88933" lon="6.78917">
        <ele>1344</ele>
        <time>2022-08-26T16:54:41Z</time>
      </trkpt>
      <trkpt lat="45.88931" lon="6.78917">
        <ele>1345</ele>
        <time>2022-08-26T16:54:42Z</time>
      </trkpt>
      <trkpt lat="45.88929" lon="6.78919">
        <ele>1345</ele>
        <time>2022-08-26T16:54:43Z</time>
      </trkpt>
      <trkpt lat="45.88927" lon="6.78922">
        <ele>1345</ele>
        <time>2022-08-26T16:54:44Z</time>
      </trkpt>
      <trkpt lat="45.88925" lon="6.78925">
        <ele>1345</ele>
        <time>2022-08-26T16:54:45Z</time>
      </trkpt>
      <trkpt lat="45.88923" lon="6.78928">
        <ele>1345</ele>
        <time>2022-08-26T16:54:46Z</time>
      </trkpt>
      <trkpt lat="45.88922" lon="6.78931">
        <ele>1345</ele>
        <time>2022-08-26T16:54:47Z</time>
      </trkpt>
      <trkpt lat="45.8892" lon="6.78933">
        <ele>1345</ele>
        <time>2022-08-26T16:54:48Z</time>
      </trkpt>
      <trkpt lat="45.88917" lon="6.78932">
        <ele>1345</ele>
        <time>2022-08-26T16:54:50Z</time>
      </trkpt>
      <trkpt lat="45.88912" lon="6.78923">
        <ele>1346</ele>
        <time>2022-08-26T16:54:54Z</time>
      </trkpt>
      <trkpt lat="45.88912" lon="6.7892">
        <ele>1347</ele>
        <time>2022-08-26T16:54:55Z</time>
      </trkpt>
      <trkpt lat="45.88912" lon="6.78916">
        <ele>1347</ele>
        <time>2022-08-26T16:54:56Z</time>
      </trkpt>
      <trkpt lat="45.88912" lon="6.78913">
        <ele>1347</ele>
        <time>2022-08-26T16:54:57Z</time>
      </trkpt>
      <trkpt lat="45.88913" lon="6.78909">
        <ele>1347</ele>
        <time>2022-08-26T16:54:58Z</time>
      </trkpt>
      <trkpt lat="45.88913" lon="6.78907">
        <ele>1347</ele>
        <time>2022-08-26T16:54:59Z</time>
      </trkpt>
      <trkpt lat="45.88913" lon="6.78903">
        <ele>1348</ele>
        <time>2022-08-26T16:55:01Z</time>
      </trkpt>
      <trkpt lat="45.88913" lon="6.789">
        <ele>1348</ele>
        <time>2022-08-26T16:55:02Z</time>
      </trkpt>
      <trkpt lat="45.88913" lon="6.78897">
        <ele>1348</ele>
        <time>2022-08-26T16:55:03Z</time>
      </trkpt>
      <trkpt lat="45.88913" lon="6.78894">
        <ele>1348</ele>
        <time>2022-08-26T16:55:04Z</time>
      </trkpt>
      <trkpt lat="45.88912" lon="6.78891">
        <ele>1348</ele>
        <time>2022-08-26T16:55:05Z</time>
      </trkpt>
      <trkpt lat="45.88912" lon="6.78888">
        <ele>1348</ele>
        <time>2022-08-26T16:55:06Z</time>
      </trkpt>
      <trkpt lat="45.88912" lon="6.78884">
        <ele>1348</ele>
        <time>2022-08-26T16:55:07Z</time>
      </trkpt>
      <trkpt lat="45.88912" lon="6.78881">
        <ele>1348</ele>
        <time>2022-08-26T16:55:08Z</time>
      </trkpt>
      <trkpt lat="45.88912" lon="6.78878">
        <ele>1348</ele>
        <time>2022-08-26T16:55:09Z</time>
      </trkpt>
      <trkpt lat="45.88912" lon="6.78875">
        <ele>1348</ele>
        <time>2022-08-26T16:55:10Z</time>
      </trkpt>
      <trkpt lat="45.88912" lon="6.78872">
        <ele>1348</ele>
        <time>2022-08-26T16:55:11Z</time>
      </trkpt>
      <trkpt lat="45.88912" lon="6.78867">
        <ele>1348</ele>
        <time>2022-08-26T16:55:12Z</time>
      </trkpt>
      <trkpt lat="45.88912" lon="6.78866">
        <ele>1348</ele>
        <time>2022-08-26T16:55:13Z</time>
      </trkpt>
      <trkpt lat="45.88912" lon="6.78863">
        <ele>1349</ele>
        <time>2022-08-26T16:55:14Z</time>
      </trkpt>
      <trkpt lat="45.88913" lon="6.7886">
        <ele>1350</ele>
        <time>2022-08-26T16:55:15Z</time>
      </trkpt>
      <trkpt lat="45.88913" lon="6.78857">
        <ele>1350</ele>
        <time>2022-08-26T16:55:16Z</time>
      </trkpt>
      <trkpt lat="45.88913" lon="6.78854">
        <ele>1350</ele>
        <time>2022-08-26T16:55:17Z</time>
      </trkpt>
      <trkpt lat="45.88914" lon="6.78849">
        <ele>1350</ele>
        <time>2022-08-26T16:55:19Z</time>
      </trkpt>
      <trkpt lat="45.88914" lon="6.78846">
        <ele>1351</ele>
        <time>2022-08-26T16:55:20Z</time>
      </trkpt>
      <trkpt lat="45.88915" lon="6.78844">
        <ele>1351</ele>
        <time>2022-08-26T16:55:21Z</time>
      </trkpt>
      <trkpt lat="45.88916" lon="6.78839">
        <ele>1351</ele>
        <time>2022-08-26T16:55:23Z</time>
      </trkpt>
      <trkpt lat="45.88917" lon="6.78837">
        <ele>1351</ele>
        <time>2022-08-26T16:55:24Z</time>
      </trkpt>
      <trkpt lat="45.88919" lon="6.78834">
        <ele>1351</ele>
        <time>2022-08-26T16:55:25Z</time>
      </trkpt>
      <trkpt lat="45.8892" lon="6.78831">
        <ele>1351</ele>
        <time>2022-08-26T16:55:26Z</time>
      </trkpt>
      <trkpt lat="45.88922" lon="6.78826">
        <ele>1351</ele>
        <time>2022-08-26T16:55:27Z</time>
      </trkpt>
      <trkpt lat="45.88923" lon="6.78825">
        <ele>1352</ele>
        <time>2022-08-26T16:55:28Z</time>
      </trkpt>
      <trkpt lat="45.88924" lon="6.78822">
        <ele>1352</ele>
        <time>2022-08-26T16:55:29Z</time>
      </trkpt>
      <trkpt lat="45.88927" lon="6.78816">
        <ele>1352</ele>
        <time>2022-08-26T16:55:31Z</time>
      </trkpt>
      <trkpt lat="45.88928" lon="6.78814">
        <ele>1352</ele>
        <time>2022-08-26T16:55:32Z</time>
      </trkpt>
      <trkpt lat="45.88929" lon="6.78811">
        <ele>1353</ele>
        <time>2022-08-26T16:55:33Z</time>
      </trkpt>
      <trkpt lat="45.88931" lon="6.78808">
        <ele>1353</ele>
        <time>2022-08-26T16:55:34Z</time>
      </trkpt>
      <trkpt lat="45.88933" lon="6.78805">
        <ele>1353</ele>
        <time>2022-08-26T16:55:35Z</time>
      </trkpt>
      <trkpt lat="45.88934" lon="6.78803">
        <ele>1354</ele>
        <time>2022-08-26T16:55:36Z</time>
      </trkpt>
      <trkpt lat="45.88935" lon="6.78801">
        <ele>1354</ele>
        <time>2022-08-26T16:55:37Z</time>
      </trkpt>
      <trkpt lat="45.88937" lon="6.78799">
        <ele>1354</ele>
        <time>2022-08-26T16:55:38Z</time>
      </trkpt>
      <trkpt lat="45.88939" lon="6.78796">
        <ele>1354</ele>
        <time>2022-08-26T16:55:39Z</time>
      </trkpt>
      <trkpt lat="45.88941" lon="6.78792">
        <ele>1354</ele>
        <time>2022-08-26T16:55:40Z</time>
      </trkpt>
      <trkpt lat="45.88942" lon="6.78791">
        <ele>1354</ele>
        <time>2022-08-26T16:55:41Z</time>
      </trkpt>
      <trkpt lat="45.88943" lon="6.78788">
        <ele>1354</ele>
        <time>2022-08-26T16:55:42Z</time>
      </trkpt>
      <trkpt lat="45.88945" lon="6.78786">
        <ele>1354</ele>
        <time>2022-08-26T16:55:43Z</time>
      </trkpt>
      <trkpt lat="45.88946" lon="6.78784">
        <ele>1354</ele>
        <time>2022-08-26T16:55:44Z</time>
      </trkpt>
      <trkpt lat="45.88948" lon="6.7878">
        <ele>1354</ele>
        <time>2022-08-26T16:55:45Z</time>
      </trkpt>
      <trkpt lat="45.88949" lon="6.78779">
        <ele>1354</ele>
        <time>2022-08-26T16:55:46Z</time>
      </trkpt>
      <trkpt lat="45.88951" lon="6.78776">
        <ele>1355</ele>
        <time>2022-08-26T16:55:48Z</time>
      </trkpt>
      <trkpt lat="45.88953" lon="6.78774">
        <ele>1355</ele>
        <time>2022-08-26T16:55:50Z</time>
      </trkpt>
      <trkpt lat="45.88954" lon="6.78772">
        <ele>1355</ele>
        <time>2022-08-26T16:55:52Z</time>
      </trkpt>
      <trkpt lat="45.88955" lon="6.78768">
        <ele>1354</ele>
        <time>2022-08-26T16:55:54Z</time>
      </trkpt>
      <trkpt lat="45.88957" lon="6.78765">
        <ele>1355</ele>
        <time>2022-08-26T16:55:56Z</time>
      </trkpt>
      <trkpt lat="45.88959" lon="6.78761">
        <ele>1355</ele>
        <time>2022-08-26T16:55:58Z</time>
      </trkpt>
      <trkpt lat="45.8896" lon="6.78757">
        <ele>1356</ele>
        <time>2022-08-26T16:56:00Z</time>
      </trkpt>
      <trkpt lat="45.88961" lon="6.78754">
        <ele>1356</ele>
        <time>2022-08-26T16:56:02Z</time>
      </trkpt>
      <trkpt lat="45.88961" lon="6.7875">
        <ele>1356</ele>
        <time>2022-08-26T16:56:04Z</time>
      </trkpt>
      <trkpt lat="45.88961" lon="6.78747">
        <ele>1356</ele>
        <time>2022-08-26T16:56:06Z</time>
      </trkpt>
      <trkpt lat="45.88961" lon="6.78744">
        <ele>1356</ele>
        <time>2022-08-26T16:56:08Z</time>
      </trkpt>
      <trkpt lat="45.88961" lon="6.78739">
        <ele>1356</ele>
        <time>2022-08-26T16:56:10Z</time>
      </trkpt>
      <trkpt lat="45.8896" lon="6.78735">
        <ele>1356</ele>
        <time>2022-08-26T16:56:12Z</time>
      </trkpt>
      <trkpt lat="45.8896" lon="6.78732">
        <ele>1357</ele>
        <time>2022-08-26T16:56:14Z</time>
      </trkpt>
      <trkpt lat="45.88959" lon="6.78728">
        <ele>1359</ele>
        <time>2022-08-26T16:56:16Z</time>
      </trkpt>
      <trkpt lat="45.88957" lon="6.78726">
        <ele>1359</ele>
        <time>2022-08-26T16:56:18Z</time>
      </trkpt>
      <trkpt lat="45.88954" lon="6.78724">
        <ele>1359</ele>
        <time>2022-08-26T16:56:20Z</time>
      </trkpt>
      <trkpt lat="45.88952" lon="6.78723">
        <ele>1359</ele>
        <time>2022-08-26T16:56:22Z</time>
      </trkpt>
      <trkpt lat="45.88949" lon="6.78722">
        <ele>1360</ele>
        <time>2022-08-26T16:56:24Z</time>
      </trkpt>
      <trkpt lat="45.88947" lon="6.7872">
        <ele>1360</ele>
        <time>2022-08-26T16:56:26Z</time>
      </trkpt>
      <trkpt lat="45.88944" lon="6.78719">
        <ele>1361</ele>
        <time>2022-08-26T16:56:28Z</time>
      </trkpt>
      <trkpt lat="45.88941" lon="6.78718">
        <ele>1361</ele>
        <time>2022-08-26T16:56:30Z</time>
      </trkpt>
      <trkpt lat="45.88939" lon="6.78716">
        <ele>1361</ele>
        <time>2022-08-26T16:56:32Z</time>
      </trkpt>
      <trkpt lat="45.88937" lon="6.78715">
        <ele>1362</ele>
        <time>2022-08-26T16:56:34Z</time>
      </trkpt>
      <trkpt lat="45.88934" lon="6.78714">
        <ele>1362</ele>
        <time>2022-08-26T16:56:36Z</time>
      </trkpt>
      <trkpt lat="45.88932" lon="6.78714">
        <ele>1362</ele>
        <time>2022-08-26T16:56:38Z</time>
      </trkpt>
      <trkpt lat="45.88929" lon="6.78713">
        <ele>1363</ele>
        <time>2022-08-26T16:56:40Z</time>
      </trkpt>
      <trkpt lat="45.88927" lon="6.78711">
        <ele>1363</ele>
        <time>2022-08-26T16:56:42Z</time>
      </trkpt>
      <trkpt lat="45.88925" lon="6.7871">
        <ele>1364</ele>
        <time>2022-08-26T16:56:44Z</time>
      </trkpt>
      <trkpt lat="45.88922" lon="6.7871">
        <ele>1365</ele>
        <time>2022-08-26T16:56:46Z</time>
      </trkpt>
      <trkpt lat="45.88921" lon="6.7871">
        <ele>1365</ele>
        <time>2022-08-26T16:56:47Z</time>
      </trkpt>
      <trkpt lat="45.8892" lon="6.7871">
        <ele>1365</ele>
        <time>2022-08-26T16:56:48Z</time>
      </trkpt>
      <trkpt lat="45.8892" lon="6.7871">
        <ele>1365</ele>
        <time>2022-08-26T16:56:49Z</time>
      </trkpt>
      <trkpt lat="45.88919" lon="6.7871">
        <ele>1366</ele>
        <time>2022-08-26T16:56:51Z</time>
      </trkpt>
      <trkpt lat="45.88918" lon="6.7871">
        <ele>1366</ele>
        <time>2022-08-26T16:56:53Z</time>
      </trkpt>
      <trkpt lat="45.88917" lon="6.7871">
        <ele>1366</ele>
        <time>2022-08-26T16:56:54Z</time>
      </trkpt>
      <trkpt lat="45.88917" lon="6.7871">
        <ele>1366</ele>
        <time>2022-08-26T16:56:55Z</time>
      </trkpt>
      <trkpt lat="45.8891" lon="6.78708">
        <ele>1366</ele>
        <time>2022-08-26T16:56:56Z</time>
      </trkpt>
      <trkpt lat="45.88908" lon="6.78706">
        <ele>1367</ele>
        <time>2022-08-26T16:56:58Z</time>
      </trkpt>
      <trkpt lat="45.88906" lon="6.78705">
        <ele>1368</ele>
        <time>2022-08-26T16:56:59Z</time>
      </trkpt>
      <trkpt lat="45.88904" lon="6.78703">
        <ele>1368</ele>
        <time>2022-08-26T16:57:00Z</time>
      </trkpt>
      <trkpt lat="45.88902" lon="6.78701">
        <ele>1367</ele>
        <time>2022-08-26T16:57:01Z</time>
      </trkpt>
      <trkpt lat="45.889" lon="6.787">
        <ele>1368</ele>
        <time>2022-08-26T16:57:03Z</time>
      </trkpt>
      <trkpt lat="45.88897" lon="6.78699">
        <ele>1368</ele>
        <time>2022-08-26T16:57:05Z</time>
      </trkpt>
      <trkpt lat="45.88895" lon="6.78698">
        <ele>1369</ele>
        <time>2022-08-26T16:57:06Z</time>
      </trkpt>
      <trkpt lat="45.88892" lon="6.78697">
        <ele>1369</ele>
        <time>2022-08-26T16:57:08Z</time>
      </trkpt>
      <trkpt lat="45.8889" lon="6.78696">
        <ele>1370</ele>
        <time>2022-08-26T16:57:10Z</time>
      </trkpt>
      <trkpt lat="45.88888" lon="6.78695">
        <ele>1370</ele>
        <time>2022-08-26T16:57:11Z</time>
      </trkpt>
      <trkpt lat="45.88886" lon="6.78694">
        <ele>1370</ele>
        <time>2022-08-26T16:57:12Z</time>
      </trkpt>
      <trkpt lat="45.88884" lon="6.78693">
        <ele>1371</ele>
        <time>2022-08-26T16:57:14Z</time>
      </trkpt>
      <trkpt lat="45.88883" lon="6.78692">
        <ele>1371</ele>
        <time>2022-08-26T16:57:15Z</time>
      </trkpt>
      <trkpt lat="45.88881" lon="6.78691">
        <ele>1372</ele>
        <time>2022-08-26T16:57:17Z</time>
      </trkpt>
      <trkpt lat="45.88879" lon="6.7869">
        <ele>1372</ele>
        <time>2022-08-26T16:57:18Z</time>
      </trkpt>
      <trkpt lat="45.88877" lon="6.78689">
        <ele>1372</ele>
        <time>2022-08-26T16:57:19Z</time>
      </trkpt>
      <trkpt lat="45.88876" lon="6.78687">
        <ele>1372</ele>
        <time>2022-08-26T16:57:21Z</time>
      </trkpt>
      <trkpt lat="45.88874" lon="6.78686">
        <ele>1372</ele>
        <time>2022-08-26T16:57:22Z</time>
      </trkpt>
      <trkpt lat="45.88865" lon="6.78684">
        <ele>1374</ele>
        <time>2022-08-26T16:57:28Z</time>
      </trkpt>
      <trkpt lat="45.88863" lon="6.78682">
        <ele>1374</ele>
        <time>2022-08-26T16:57:29Z</time>
      </trkpt>
      <trkpt lat="45.88862" lon="6.7868">
        <ele>1375</ele>
        <time>2022-08-26T16:57:30Z</time>
      </trkpt>
      <trkpt lat="45.88861" lon="6.78678">
        <ele>1375</ele>
        <time>2022-08-26T16:57:31Z</time>
      </trkpt>
      <trkpt lat="45.8886" lon="6.78676">
        <ele>1375</ele>
        <time>2022-08-26T16:57:33Z</time>
      </trkpt>
      <trkpt lat="45.88858" lon="6.78674">
        <ele>1375</ele>
        <time>2022-08-26T16:57:34Z</time>
      </trkpt>
      <trkpt lat="45.88858" lon="6.78672">
        <ele>1375</ele>
        <time>2022-08-26T16:57:35Z</time>
      </trkpt>
      <trkpt lat="45.88857" lon="6.7867">
        <ele>1376</ele>
        <time>2022-08-26T16:57:36Z</time>
      </trkpt>
      <trkpt lat="45.88856" lon="6.78668">
        <ele>1376</ele>
        <time>2022-08-26T16:57:38Z</time>
      </trkpt>
      <trkpt lat="45.88856" lon="6.78666">
        <ele>1376</ele>
        <time>2022-08-26T16:57:39Z</time>
      </trkpt>
      <trkpt lat="45.88855" lon="6.78664">
        <ele>1376</ele>
        <time>2022-08-26T16:57:40Z</time>
      </trkpt>
      <trkpt lat="45.88854" lon="6.78662">
        <ele>1376</ele>
        <time>2022-08-26T16:57:41Z</time>
      </trkpt>
      <trkpt lat="45.88853" lon="6.78661">
        <ele>1377</ele>
        <time>2022-08-26T16:57:43Z</time>
      </trkpt>
      <trkpt lat="45.88852" lon="6.78659">
        <ele>1378</ele>
        <time>2022-08-26T16:57:45Z</time>
      </trkpt>
      <trkpt lat="45.88851" lon="6.78658">
        <ele>1378</ele>
        <time>2022-08-26T16:57:46Z</time>
      </trkpt>
      <trkpt lat="45.88851" lon="6.78657">
        <ele>1379</ele>
        <time>2022-08-26T16:57:47Z</time>
      </trkpt>
      <trkpt lat="45.8885" lon="6.78655">
        <ele>1379</ele>
        <time>2022-08-26T16:57:48Z</time>
      </trkpt>
      <trkpt lat="45.88849" lon="6.78654">
        <ele>1379</ele>
        <time>2022-08-26T16:57:49Z</time>
      </trkpt>
      <trkpt lat="45.88848" lon="6.78652">
        <ele>1379</ele>
        <time>2022-08-26T16:57:50Z</time>
      </trkpt>
      <trkpt lat="45.88846" lon="6.78651">
        <ele>1380</ele>
        <time>2022-08-26T16:57:51Z</time>
      </trkpt>
      <trkpt lat="45.88845" lon="6.7865">
        <ele>1380</ele>
        <time>2022-08-26T16:57:52Z</time>
      </trkpt>
      <trkpt lat="45.88844" lon="6.78649">
        <ele>1380</ele>
        <time>2022-08-26T16:57:53Z</time>
      </trkpt>
      <trkpt lat="45.88842" lon="6.78648">
        <ele>1380</ele>
        <time>2022-08-26T16:57:55Z</time>
      </trkpt>
      <trkpt lat="45.88841" lon="6.78646">
        <ele>1380</ele>
        <time>2022-08-26T16:57:56Z</time>
      </trkpt>
      <trkpt lat="45.8884" lon="6.78645">
        <ele>1381</ele>
        <time>2022-08-26T16:57:57Z</time>
      </trkpt>
      <trkpt lat="45.88831" lon="6.78638">
        <ele>1383</ele>
        <time>2022-08-26T16:58:06Z</time>
      </trkpt>
      <trkpt lat="45.8883" lon="6.78637">
        <ele>1384</ele>
        <time>2022-08-26T16:58:07Z</time>
      </trkpt>
      <trkpt lat="45.88828" lon="6.78636">
        <ele>1384</ele>
        <time>2022-08-26T16:58:08Z</time>
      </trkpt>
      <trkpt lat="45.88827" lon="6.78635">
        <ele>1385</ele>
        <time>2022-08-26T16:58:09Z</time>
      </trkpt>
      <trkpt lat="45.88825" lon="6.78634">
        <ele>1385</ele>
        <time>2022-08-26T16:58:11Z</time>
      </trkpt>
      <trkpt lat="45.88824" lon="6.78634">
        <ele>1385</ele>
        <time>2022-08-26T16:58:12Z</time>
      </trkpt>
      <trkpt lat="45.88822" lon="6.78633">
        <ele>1385</ele>
        <time>2022-08-26T16:58:13Z</time>
      </trkpt>
      <trkpt lat="45.88821" lon="6.78632">
        <ele>1385</ele>
        <time>2022-08-26T16:58:14Z</time>
      </trkpt>
      <trkpt lat="45.8882" lon="6.78631">
        <ele>1386</ele>
        <time>2022-08-26T16:58:16Z</time>
      </trkpt>
      <trkpt lat="45.88819" lon="6.78631">
        <ele>1386</ele>
        <time>2022-08-26T16:58:17Z</time>
      </trkpt>
      <trkpt lat="45.88818" lon="6.7863">
        <ele>1386</ele>
        <time>2022-08-26T16:58:18Z</time>
      </trkpt>
      <trkpt lat="45.88817" lon="6.7863">
        <ele>1387</ele>
        <time>2022-08-26T16:58:19Z</time>
      </trkpt>
      <trkpt lat="45.88816" lon="6.78629">
        <ele>1387</ele>
        <time>2022-08-26T16:58:21Z</time>
      </trkpt>
      <trkpt lat="45.88815" lon="6.78629">
        <ele>1387</ele>
        <time>2022-08-26T16:58:22Z</time>
      </trkpt>
      <trkpt lat="45.88814" lon="6.78628">
        <ele>1388</ele>
        <time>2022-08-26T16:58:23Z</time>
      </trkpt>
      <trkpt lat="45.88813" lon="6.78626">
        <ele>1388</ele>
        <time>2022-08-26T16:58:24Z</time>
      </trkpt>
      <trkpt lat="45.88812" lon="6.78624">
        <ele>1388</ele>
        <time>2022-08-26T16:58:25Z</time>
      </trkpt>
      <trkpt lat="45.88811" lon="6.78623">
        <ele>1388</ele>
        <time>2022-08-26T16:58:26Z</time>
      </trkpt>
      <trkpt lat="45.8881" lon="6.78621">
        <ele>1389</ele>
        <time>2022-08-26T16:58:28Z</time>
      </trkpt>
      <trkpt lat="45.88809" lon="6.78619">
        <ele>1389</ele>
        <time>2022-08-26T16:58:29Z</time>
      </trkpt>
      <trkpt lat="45.88808" lon="6.78617">
        <ele>1389</ele>
        <time>2022-08-26T16:58:30Z</time>
      </trkpt>
      <trkpt lat="45.88808" lon="6.78615">
        <ele>1389</ele>
        <time>2022-08-26T16:58:31Z</time>
      </trkpt>
      <trkpt lat="45.88808" lon="6.78613">
        <ele>1390</ele>
        <time>2022-08-26T16:58:33Z</time>
      </trkpt>
      <trkpt lat="45.88808" lon="6.78611">
        <ele>1390</ele>
        <time>2022-08-26T16:58:35Z</time>
      </trkpt>
      <trkpt lat="45.88807" lon="6.78608">
        <ele>1391</ele>
        <time>2022-08-26T16:58:36Z</time>
      </trkpt>
      <trkpt lat="45.88807" lon="6.78606">
        <ele>1391</ele>
        <time>2022-08-26T16:58:37Z</time>
      </trkpt>
      <trkpt lat="45.88807" lon="6.78604">
        <ele>1391</ele>
        <time>2022-08-26T16:58:38Z</time>
      </trkpt>
      <trkpt lat="45.88807" lon="6.78602">
        <ele>1391</ele>
        <time>2022-08-26T16:58:39Z</time>
      </trkpt>
      <trkpt lat="45.88807" lon="6.78599">
        <ele>1392</ele>
        <time>2022-08-26T16:58:40Z</time>
      </trkpt>
      <trkpt lat="45.88808" lon="6.78595">
        <ele>1393</ele>
        <time>2022-08-26T16:58:42Z</time>
      </trkpt>
      <trkpt lat="45.88808" lon="6.78592">
        <ele>1393</ele>
        <time>2022-08-26T16:58:43Z</time>
      </trkpt>
      <trkpt lat="45.88809" lon="6.78589">
        <ele>1393</ele>
        <time>2022-08-26T16:58:44Z</time>
      </trkpt>
      <trkpt lat="45.88811" lon="6.78586">
        <ele>1394</ele>
        <time>2022-08-26T16:58:45Z</time>
      </trkpt>
      <trkpt lat="45.88813" lon="6.78583">
        <ele>1394</ele>
        <time>2022-08-26T16:58:47Z</time>
      </trkpt>
      <trkpt lat="45.88815" lon="6.7858">
        <ele>1394</ele>
        <time>2022-08-26T16:58:48Z</time>
      </trkpt>
      <trkpt lat="45.88817" lon="6.78578">
        <ele>1394</ele>
        <time>2022-08-26T16:58:49Z</time>
      </trkpt>
      <trkpt lat="45.88819" lon="6.78576">
        <ele>1395</ele>
        <time>2022-08-26T16:58:50Z</time>
      </trkpt>
      <trkpt lat="45.88821" lon="6.78575">
        <ele>1395</ele>
        <time>2022-08-26T16:58:51Z</time>
      </trkpt>
      <trkpt lat="45.88823" lon="6.78574">
        <ele>1395</ele>
        <time>2022-08-26T16:58:52Z</time>
      </trkpt>
      <trkpt lat="45.88825" lon="6.78573">
        <ele>1395</ele>
        <time>2022-08-26T16:58:53Z</time>
      </trkpt>
      <trkpt lat="45.88827" lon="6.78572">
        <ele>1396</ele>
        <time>2022-08-26T16:58:54Z</time>
      </trkpt>
      <trkpt lat="45.88836" lon="6.78569">
        <ele>1397</ele>
        <time>2022-08-26T16:58:59Z</time>
      </trkpt>
      <trkpt lat="45.88837" lon="6.78569">
        <ele>1399</ele>
        <time>2022-08-26T16:59:01Z</time>
      </trkpt>
      <trkpt lat="45.88837" lon="6.78569">
        <ele>1399</ele>
        <time>2022-08-26T16:59:02Z</time>
      </trkpt>
      <trkpt lat="45.88838" lon="6.78569">
        <ele>1399</ele>
        <time>2022-08-26T16:59:03Z</time>
      </trkpt>
      <trkpt lat="45.88839" lon="6.78569">
        <ele>1399</ele>
        <time>2022-08-26T16:59:04Z</time>
      </trkpt>
      <trkpt lat="45.88839" lon="6.78568">
        <ele>1399</ele>
        <time>2022-08-26T16:59:06Z</time>
      </trkpt>
      <trkpt lat="45.8884" lon="6.78568">
        <ele>1399</ele>
        <time>2022-08-26T16:59:07Z</time>
      </trkpt>
      <trkpt lat="45.88841" lon="6.78568">
        <ele>1399</ele>
        <time>2022-08-26T16:59:08Z</time>
      </trkpt>
      <trkpt lat="45.88841" lon="6.78568">
        <ele>1400</ele>
        <time>2022-08-26T16:59:09Z</time>
      </trkpt>
      <trkpt lat="45.88842" lon="6.78568">
        <ele>1400</ele>
        <time>2022-08-26T16:59:11Z</time>
      </trkpt>
      <trkpt lat="45.88842" lon="6.78568">
        <ele>1401</ele>
        <time>2022-08-26T16:59:12Z</time>
      </trkpt>
      <trkpt lat="45.88843" lon="6.78568">
        <ele>1402</ele>
        <time>2022-08-26T16:59:13Z</time>
      </trkpt>
      <trkpt lat="45.88844" lon="6.78568">
        <ele>1402</ele>
        <time>2022-08-26T16:59:14Z</time>
      </trkpt>
      <trkpt lat="45.88844" lon="6.78567">
        <ele>1402</ele>
        <time>2022-08-26T16:59:15Z</time>
      </trkpt>
      <trkpt lat="45.88845" lon="6.78567">
        <ele>1402</ele>
        <time>2022-08-26T16:59:16Z</time>
      </trkpt>
      <trkpt lat="45.88848" lon="6.78568">
        <ele>1402</ele>
        <time>2022-08-26T16:59:18Z</time>
      </trkpt>
      <trkpt lat="45.8885" lon="6.78569">
        <ele>1403</ele>
        <time>2022-08-26T16:59:20Z</time>
      </trkpt>
      <trkpt lat="45.88852" lon="6.7857">
        <ele>1403</ele>
        <time>2022-08-26T16:59:22Z</time>
      </trkpt>
      <trkpt lat="45.88855" lon="6.7857">
        <ele>1403</ele>
        <time>2022-08-26T16:59:23Z</time>
      </trkpt>
      <trkpt lat="45.88857" lon="6.7857">
        <ele>1404</ele>
        <time>2022-08-26T16:59:24Z</time>
      </trkpt>
      <trkpt lat="45.88858" lon="6.7857">
        <ele>1404</ele>
        <time>2022-08-26T16:59:25Z</time>
      </trkpt>
      <trkpt lat="45.8886" lon="6.78571">
        <ele>1404</ele>
        <time>2022-08-26T16:59:27Z</time>
      </trkpt>
      <trkpt lat="45.88861" lon="6.78571">
        <ele>1404</ele>
        <time>2022-08-26T16:59:28Z</time>
      </trkpt>
      <trkpt lat="45.88863" lon="6.78571">
        <ele>1405</ele>
        <time>2022-08-26T16:59:29Z</time>
      </trkpt>
      <trkpt lat="45.88864" lon="6.78571">
        <ele>1405</ele>
        <time>2022-08-26T16:59:30Z</time>
      </trkpt>
      <trkpt lat="45.88874" lon="6.78571">
        <ele>1408</ele>
        <time>2022-08-26T16:59:41Z</time>
      </trkpt>
      <trkpt lat="45.88875" lon="6.7857">
        <ele>1408</ele>
        <time>2022-08-26T16:59:42Z</time>
      </trkpt>
      <trkpt lat="45.88876" lon="6.78568">
        <ele>1408</ele>
        <time>2022-08-26T16:59:43Z</time>
      </trkpt>
      <trkpt lat="45.88878" lon="6.78567">
        <ele>1409</ele>
        <time>2022-08-26T16:59:44Z</time>
      </trkpt>
      <trkpt lat="45.88879" lon="6.78566">
        <ele>1409</ele>
        <time>2022-08-26T16:59:46Z</time>
      </trkpt>
      <trkpt lat="45.8888" lon="6.78564">
        <ele>1409</ele>
        <time>2022-08-26T16:59:47Z</time>
      </trkpt>
      <trkpt lat="45.88882" lon="6.78563">
        <ele>1409</ele>
        <time>2022-08-26T16:59:48Z</time>
      </trkpt>
      <trkpt lat="45.88883" lon="6.78561">
        <ele>1409</ele>
        <time>2022-08-26T16:59:49Z</time>
      </trkpt>
      <trkpt lat="45.88884" lon="6.78559">
        <ele>1410</ele>
        <time>2022-08-26T16:59:51Z</time>
      </trkpt>
      <trkpt lat="45.88886" lon="6.78557">
        <ele>1410</ele>
        <time>2022-08-26T16:59:53Z</time>
      </trkpt>
      <trkpt lat="45.88887" lon="6.78555">
        <ele>1410</ele>
        <time>2022-08-26T16:59:54Z</time>
      </trkpt>
      <trkpt lat="45.88888" lon="6.78553">
        <ele>1411</ele>
        <time>2022-08-26T16:59:55Z</time>
      </trkpt>
      <trkpt lat="45.88889" lon="6.7855">
        <ele>1411</ele>
        <time>2022-08-26T16:59:56Z</time>
      </trkpt>
      <trkpt lat="45.88889" lon="6.78546">
        <ele>1412</ele>
        <time>2022-08-26T16:59:58Z</time>
      </trkpt>
      <trkpt lat="45.88889" lon="6.78543">
        <ele>1413</ele>
        <time>2022-08-26T17:00:01Z</time>
      </trkpt>
      <trkpt lat="45.88888" lon="6.78542">
        <ele>1413</ele>
        <time>2022-08-26T17:00:03Z</time>
      </trkpt>
      <trkpt lat="45.88887" lon="6.78541">
        <ele>1413</ele>
        <time>2022-08-26T17:00:04Z</time>
      </trkpt>
      <trkpt lat="45.88887" lon="6.7854">
        <ele>1413</ele>
        <time>2022-08-26T17:00:05Z</time>
      </trkpt>
      <trkpt lat="45.88886" lon="6.78539">
        <ele>1413</ele>
        <time>2022-08-26T17:00:06Z</time>
      </trkpt>
      <trkpt lat="45.88885" lon="6.78538">
        <ele>1414</ele>
        <time>2022-08-26T17:00:08Z</time>
      </trkpt>
      <trkpt lat="45.88884" lon="6.78537">
        <ele>1415</ele>
        <time>2022-08-26T17:00:10Z</time>
      </trkpt>
      <trkpt lat="45.88883" lon="6.78536">
        <ele>1415</ele>
        <time>2022-08-26T17:00:11Z</time>
      </trkpt>
      <trkpt lat="45.88882" lon="6.78535">
        <ele>1415</ele>
        <time>2022-08-26T17:00:12Z</time>
      </trkpt>
      <trkpt lat="45.88881" lon="6.78535">
        <ele>1415</ele>
        <time>2022-08-26T17:00:13Z</time>
      </trkpt>
      <trkpt lat="45.8888" lon="6.78536">
        <ele>1415</ele>
        <time>2022-08-26T17:00:15Z</time>
      </trkpt>
      <trkpt lat="45.88879" lon="6.78537">
        <ele>1416</ele>
        <time>2022-08-26T17:00:16Z</time>
      </trkpt>
      <trkpt lat="45.88878" lon="6.78538">
        <ele>1416</ele>
        <time>2022-08-26T17:00:17Z</time>
      </trkpt>
      <trkpt lat="45.88877" lon="6.78539">
        <ele>1416</ele>
        <time>2022-08-26T17:00:18Z</time>
      </trkpt>
      <trkpt lat="45.88876" lon="6.7854">
        <ele>1417</ele>
        <time>2022-08-26T17:00:20Z</time>
      </trkpt>
      <trkpt lat="45.88875" lon="6.78541">
        <ele>1417</ele>
        <time>2022-08-26T17:00:22Z</time>
      </trkpt>
      <trkpt lat="45.88874" lon="6.78542">
        <ele>1417</ele>
        <time>2022-08-26T17:00:23Z</time>
      </trkpt>
      <trkpt lat="45.88872" lon="6.78542">
        <ele>1418</ele>
        <time>2022-08-26T17:00:25Z</time>
      </trkpt>
      <trkpt lat="45.88868" lon="6.78541">
        <ele>1418</ele>
        <time>2022-08-26T17:00:27Z</time>
      </trkpt>
      <trkpt lat="45.88867" lon="6.7854">
        <ele>1418</ele>
        <time>2022-08-26T17:00:28Z</time>
      </trkpt>
      <trkpt lat="45.88866" lon="6.78539">
        <ele>1418</ele>
        <time>2022-08-26T17:00:29Z</time>
      </trkpt>
      <trkpt lat="45.88865" lon="6.78538">
        <ele>1419</ele>
        <time>2022-08-26T17:00:30Z</time>
      </trkpt>
      <trkpt lat="45.88864" lon="6.78537">
        <ele>1419</ele>
        <time>2022-08-26T17:00:32Z</time>
      </trkpt>
      <trkpt lat="45.88863" lon="6.78535">
        <ele>1419</ele>
        <time>2022-08-26T17:00:34Z</time>
      </trkpt>
      <trkpt lat="45.88861" lon="6.78534">
        <ele>1419</ele>
        <time>2022-08-26T17:00:35Z</time>
      </trkpt>
      <trkpt lat="45.88861" lon="6.78533">
        <ele>1419</ele>
        <time>2022-08-26T17:00:36Z</time>
      </trkpt>
      <trkpt lat="45.8886" lon="6.78531">
        <ele>1420</ele>
        <time>2022-08-26T17:00:38Z</time>
      </trkpt>
      <trkpt lat="45.88859" lon="6.7853">
        <ele>1420</ele>
        <time>2022-08-26T17:00:39Z</time>
      </trkpt>
      <trkpt lat="45.88858" lon="6.78528">
        <ele>1420</ele>
        <time>2022-08-26T17:00:40Z</time>
      </trkpt>
      <trkpt lat="45.88857" lon="6.78527">
        <ele>1421</ele>
        <time>2022-08-26T17:00:41Z</time>
      </trkpt>
      <trkpt lat="45.88856" lon="6.78525">
        <ele>1421</ele>
        <time>2022-08-26T17:00:43Z</time>
      </trkpt>
      <trkpt lat="45.88855" lon="6.78524">
        <ele>1422</ele>
        <time>2022-08-26T17:00:44Z</time>
      </trkpt>
      <trkpt lat="45.88847" lon="6.78519">
        <ele>1422</ele>
        <time>2022-08-26T17:00:49Z</time>
      </trkpt>
      <trkpt lat="45.88851" lon="6.78508">
        <ele>1426</ele>
        <time>2022-08-26T17:01:07Z</time>
      </trkpt>
      <trkpt lat="45.88851" lon="6.78508">
        <ele>1427</ele>
        <time>2022-08-26T17:01:09Z</time>
      </trkpt>
      <trkpt lat="45.88856" lon="6.78497">
        <ele>1428</ele>
        <time>2022-08-26T17:01:14Z</time>
      </trkpt>
      <trkpt lat="45.88858" lon="6.78494">
        <ele>1429</ele>
        <time>2022-08-26T17:01:16Z</time>
      </trkpt>
      <trkpt lat="45.88861" lon="6.78491">
        <ele>1429</ele>
        <time>2022-08-26T17:01:17Z</time>
      </trkpt>
      <trkpt lat="45.88863" lon="6.78489">
        <ele>1429</ele>
        <time>2022-08-26T17:01:18Z</time>
      </trkpt>
      <trkpt lat="45.88865" lon="6.78487">
        <ele>1429</ele>
        <time>2022-08-26T17:01:19Z</time>
      </trkpt>
      <trkpt lat="45.88867" lon="6.78486">
        <ele>1429</ele>
        <time>2022-08-26T17:01:21Z</time>
      </trkpt>
      <trkpt lat="45.88868" lon="6.78484">
        <ele>1429</ele>
        <time>2022-08-26T17:01:22Z</time>
      </trkpt>
      <trkpt lat="45.8887" lon="6.78482">
        <ele>1430</ele>
        <time>2022-08-26T17:01:23Z</time>
      </trkpt>
      <trkpt lat="45.88872" lon="6.78481">
        <ele>1430</ele>
        <time>2022-08-26T17:01:24Z</time>
      </trkpt>
      <trkpt lat="45.88874" lon="6.78479">
        <ele>1431</ele>
        <time>2022-08-26T17:01:26Z</time>
      </trkpt>
      <trkpt lat="45.88876" lon="6.78478">
        <ele>1431</ele>
        <time>2022-08-26T17:01:27Z</time>
      </trkpt>
      <trkpt lat="45.88879" lon="6.78476">
        <ele>1431</ele>
        <time>2022-08-26T17:01:28Z</time>
      </trkpt>
      <trkpt lat="45.88881" lon="6.78475">
        <ele>1432</ele>
        <time>2022-08-26T17:01:29Z</time>
      </trkpt>
      <trkpt lat="45.88883" lon="6.78474">
        <ele>1432</ele>
        <time>2022-08-26T17:01:31Z</time>
      </trkpt>
      <trkpt lat="45.88886" lon="6.78473">
        <ele>1433</ele>
        <time>2022-08-26T17:01:32Z</time>
      </trkpt>
      <trkpt lat="45.88888" lon="6.78472">
        <ele>1433</ele>
        <time>2022-08-26T17:01:33Z</time>
      </trkpt>
      <trkpt lat="45.8889" lon="6.78471">
        <ele>1433</ele>
        <time>2022-08-26T17:01:34Z</time>
      </trkpt>
      <trkpt lat="45.88892" lon="6.7847">
        <ele>1433</ele>
        <time>2022-08-26T17:01:36Z</time>
      </trkpt>
      <trkpt lat="45.88893" lon="6.7847">
        <ele>1433</ele>
        <time>2022-08-26T17:01:37Z</time>
      </trkpt>
      <trkpt lat="45.88895" lon="6.7847">
        <ele>1434</ele>
        <time>2022-08-26T17:01:38Z</time>
      </trkpt>
      <trkpt lat="45.88896" lon="6.7847">
        <ele>1434</ele>
        <time>2022-08-26T17:01:39Z</time>
      </trkpt>
      <trkpt lat="45.88898" lon="6.7847">
        <ele>1434</ele>
        <time>2022-08-26T17:01:41Z</time>
      </trkpt>
      <trkpt lat="45.88899" lon="6.78469">
        <ele>1434</ele>
        <time>2022-08-26T17:01:42Z</time>
      </trkpt>
      <trkpt lat="45.88901" lon="6.78469">
        <ele>1435</ele>
        <time>2022-08-26T17:01:43Z</time>
      </trkpt>
      <trkpt lat="45.88904" lon="6.78457">
        <ele>1433</ele>
        <time>2022-08-26T17:01:53Z</time>
      </trkpt>
      <trkpt lat="45.88904" lon="6.78455">
        <ele>1433</ele>
        <time>2022-08-26T17:01:54Z</time>
      </trkpt>
      <trkpt lat="45.88904" lon="6.78454">
        <ele>1434</ele>
        <time>2022-08-26T17:01:55Z</time>
      </trkpt>
      <trkpt lat="45.88904" lon="6.78452">
        <ele>1434</ele>
        <time>2022-08-26T17:01:56Z</time>
      </trkpt>
      <trkpt lat="45.88905" lon="6.7845">
        <ele>1434</ele>
        <time>2022-08-26T17:01:57Z</time>
      </trkpt>
      <trkpt lat="45.88905" lon="6.78449">
        <ele>1434</ele>
        <time>2022-08-26T17:01:58Z</time>
      </trkpt>
      <trkpt lat="45.88905" lon="6.78447">
        <ele>1434</ele>
        <time>2022-08-26T17:01:59Z</time>
      </trkpt>
      <trkpt lat="45.88905" lon="6.78445">
        <ele>1434</ele>
        <time>2022-08-26T17:02:00Z</time>
      </trkpt>
      <trkpt lat="45.88906" lon="6.78444">
        <ele>1435</ele>
        <time>2022-08-26T17:02:01Z</time>
      </trkpt>
      <trkpt lat="45.88905" lon="6.78443">
        <ele>1435</ele>
        <time>2022-08-26T17:02:03Z</time>
      </trkpt>
      <trkpt lat="45.88905" lon="6.78441">
        <ele>1435</ele>
        <time>2022-08-26T17:02:05Z</time>
      </trkpt>
      <trkpt lat="45.88905" lon="6.7844">
        <ele>1435</ele>
        <time>2022-08-26T17:02:06Z</time>
      </trkpt>
      <trkpt lat="45.88905" lon="6.78439">
        <ele>1435</ele>
        <time>2022-08-26T17:02:07Z</time>
      </trkpt>
      <trkpt lat="45.88905" lon="6.78437">
        <ele>1435</ele>
        <time>2022-08-26T17:02:09Z</time>
      </trkpt>
      <trkpt lat="45.88904" lon="6.78436">
        <ele>1435</ele>
        <time>2022-08-26T17:02:10Z</time>
      </trkpt>
      <trkpt lat="45.88904" lon="6.78435">
        <ele>1436</ele>
        <time>2022-08-26T17:02:11Z</time>
      </trkpt>
      <trkpt lat="45.88904" lon="6.78434">
        <ele>1436</ele>
        <time>2022-08-26T17:02:13Z</time>
      </trkpt>
      <trkpt lat="45.88904" lon="6.78432">
        <ele>1436</ele>
        <time>2022-08-26T17:02:14Z</time>
      </trkpt>
      <trkpt lat="45.88904" lon="6.78431">
        <ele>1437</ele>
        <time>2022-08-26T17:02:15Z</time>
      </trkpt>
      <trkpt lat="45.88904" lon="6.78432">
        <ele>1437</ele>
        <time>2022-08-26T17:02:17Z</time>
      </trkpt>
      <trkpt lat="45.88903" lon="6.78433">
        <ele>1437</ele>
        <time>2022-08-26T17:02:18Z</time>
      </trkpt>
      <trkpt lat="45.88903" lon="6.78434">
        <ele>1437</ele>
        <time>2022-08-26T17:02:19Z</time>
      </trkpt>
      <trkpt lat="45.88903" lon="6.78435">
        <ele>1437</ele>
        <time>2022-08-26T17:02:20Z</time>
      </trkpt>
      <trkpt lat="45.88903" lon="6.78436">
        <ele>1438</ele>
        <time>2022-08-26T17:02:22Z</time>
      </trkpt>
      <trkpt lat="45.88903" lon="6.78437">
        <ele>1438</ele>
        <time>2022-08-26T17:02:23Z</time>
      </trkpt>
      <trkpt lat="45.88903" lon="6.78438">
        <ele>1440</ele>
        <time>2022-08-26T17:02:24Z</time>
      </trkpt>
      <trkpt lat="45.88903" lon="6.78438">
        <ele>1442</ele>
        <time>2022-08-26T17:02:25Z</time>
      </trkpt>
      <trkpt lat="45.88903" lon="6.78439">
        <ele>1444</ele>
        <time>2022-08-26T17:02:27Z</time>
      </trkpt>
      <trkpt lat="45.88902" lon="6.7844">
        <ele>1445</ele>
        <time>2022-08-26T17:02:28Z</time>
      </trkpt>
      <trkpt lat="45.88902" lon="6.78441">
        <ele>1446</ele>
        <time>2022-08-26T17:02:29Z</time>
      </trkpt>
      <trkpt lat="45.88902" lon="6.78442">
        <ele>1446</ele>
        <time>2022-08-26T17:02:30Z</time>
      </trkpt>
      <trkpt lat="45.88902" lon="6.78443">
        <ele>1447</ele>
        <time>2022-08-26T17:02:32Z</time>
      </trkpt>
      <trkpt lat="45.88902" lon="6.78444">
        <ele>1447</ele>
        <time>2022-08-26T17:02:33Z</time>
      </trkpt>
      <trkpt lat="45.88893" lon="6.7845">
        <ele>1449</ele>
        <time>2022-08-26T17:02:42Z</time>
      </trkpt>
      <trkpt lat="45.88882" lon="6.78451">
        <ele>1450</ele>
        <time>2022-08-26T17:02:49Z</time>
      </trkpt>
      <trkpt lat="45.88881" lon="6.78451">
        <ele>1450</ele>
        <time>2022-08-26T17:02:50Z</time>
      </trkpt>
      <trkpt lat="45.8888" lon="6.7845">
        <ele>1450</ele>
        <time>2022-08-26T17:02:51Z</time>
      </trkpt>
      <trkpt lat="45.88879" lon="6.7845">
        <ele>1450</ele>
        <time>2022-08-26T17:02:52Z</time>
      </trkpt>
      <trkpt lat="45.88877" lon="6.78449">
        <ele>1450</ele>
        <time>2022-08-26T17:02:54Z</time>
      </trkpt>
      <trkpt lat="45.88876" lon="6.78449">
        <ele>1451</ele>
        <time>2022-08-26T17:02:56Z</time>
      </trkpt>
      <trkpt lat="45.88875" lon="6.78448">
        <ele>1451</ele>
        <time>2022-08-26T17:02:57Z</time>
      </trkpt>
      <trkpt lat="45.88873" lon="6.78448">
        <ele>1452</ele>
        <time>2022-08-26T17:02:58Z</time>
      </trkpt>
      <trkpt lat="45.88873" lon="6.78447">
        <ele>1452</ele>
        <time>2022-08-26T17:02:59Z</time>
      </trkpt>
      <trkpt lat="45.88873" lon="6.78446">
        <ele>1452</ele>
        <time>2022-08-26T17:03:01Z</time>
      </trkpt>
      <trkpt lat="45.88873" lon="6.78445">
        <ele>1452</ele>
        <time>2022-08-26T17:03:02Z</time>
      </trkpt>
      <trkpt lat="45.88873" lon="6.78444">
        <ele>1453</ele>
        <time>2022-08-26T17:03:03Z</time>
      </trkpt>
      <trkpt lat="45.88872" lon="6.78442">
        <ele>1453</ele>
        <time>2022-08-26T17:03:04Z</time>
      </trkpt>
      <trkpt lat="45.88872" lon="6.78441">
        <ele>1453</ele>
        <time>2022-08-26T17:03:06Z</time>
      </trkpt>
      <trkpt lat="45.88872" lon="6.7844">
        <ele>1453</ele>
        <time>2022-08-26T17:03:07Z</time>
      </trkpt>
      <trkpt lat="45.88872" lon="6.78439">
        <ele>1454</ele>
        <time>2022-08-26T17:03:08Z</time>
      </trkpt>
      <trkpt lat="45.88871" lon="6.78438">
        <ele>1454</ele>
        <time>2022-08-26T17:03:10Z</time>
      </trkpt>
      <trkpt lat="45.88871" lon="6.78437">
        <ele>1454</ele>
        <time>2022-08-26T17:03:11Z</time>
      </trkpt>
      <trkpt lat="45.88871" lon="6.78436">
        <ele>1454</ele>
        <time>2022-08-26T17:03:12Z</time>
      </trkpt>
      <trkpt lat="45.88871" lon="6.78435">
        <ele>1455</ele>
        <time>2022-08-26T17:03:13Z</time>
      </trkpt>
      <trkpt lat="45.88872" lon="6.78434">
        <ele>1455</ele>
        <time>2022-08-26T17:03:14Z</time>
      </trkpt>
      <trkpt lat="45.88874" lon="6.78432">
        <ele>1455</ele>
        <time>2022-08-26T17:03:15Z</time>
      </trkpt>
      <trkpt lat="45.88875" lon="6.78431">
        <ele>1455</ele>
        <time>2022-08-26T17:03:16Z</time>
      </trkpt>
      <trkpt lat="45.88877" lon="6.78429">
        <ele>1456</ele>
        <time>2022-08-26T17:03:18Z</time>
      </trkpt>
      <trkpt lat="45.88878" lon="6.78428">
        <ele>1456</ele>
        <time>2022-08-26T17:03:19Z</time>
      </trkpt>
      <trkpt lat="45.8888" lon="6.78426">
        <ele>1457</ele>
        <time>2022-08-26T17:03:20Z</time>
      </trkpt>
      <trkpt lat="45.88881" lon="6.78425">
        <ele>1457</ele>
        <time>2022-08-26T17:03:21Z</time>
      </trkpt>
      <trkpt lat="45.88881" lon="6.78423">
        <ele>1457</ele>
        <time>2022-08-26T17:03:22Z</time>
      </trkpt>
      <trkpt lat="45.88882" lon="6.78422">
        <ele>1457</ele>
        <time>2022-08-26T17:03:23Z</time>
      </trkpt>
      <trkpt lat="45.88883" lon="6.7842">
        <ele>1457</ele>
        <time>2022-08-26T17:03:25Z</time>
      </trkpt>
      <trkpt lat="45.88884" lon="6.78418">
        <ele>1457</ele>
        <time>2022-08-26T17:03:26Z</time>
      </trkpt>
      <trkpt lat="45.88885" lon="6.78417">
        <ele>1458</ele>
        <time>2022-08-26T17:03:27Z</time>
      </trkpt>
      <trkpt lat="45.88886" lon="6.78415">
        <ele>1459</ele>
        <time>2022-08-26T17:03:28Z</time>
      </trkpt>
      <trkpt lat="45.88886" lon="6.78401">
        <ele>1460</ele>
        <time>2022-08-26T17:03:37Z</time>
      </trkpt>
      <trkpt lat="45.88886" lon="6.78399">
        <ele>1460</ele>
        <time>2022-08-26T17:03:38Z</time>
      </trkpt>
      <trkpt lat="45.88885" lon="6.78397">
        <ele>1461</ele>
        <time>2022-08-26T17:03:39Z</time>
      </trkpt>
      <trkpt lat="45.88885" lon="6.78395">
        <ele>1461</ele>
        <time>2022-08-26T17:03:40Z</time>
      </trkpt>
      <trkpt lat="45.88885" lon="6.78393">
        <ele>1462</ele>
        <time>2022-08-26T17:03:42Z</time>
      </trkpt>
      <trkpt lat="45.88884" lon="6.78391">
        <ele>1462</ele>
        <time>2022-08-26T17:03:44Z</time>
      </trkpt>
      <trkpt lat="45.88884" lon="6.78389">
        <ele>1462</ele>
        <time>2022-08-26T17:03:45Z</time>
      </trkpt>
      <trkpt lat="45.88884" lon="6.78387">
        <ele>1463</ele>
        <time>2022-08-26T17:03:46Z</time>
      </trkpt>
      <trkpt lat="45.88884" lon="6.78385">
        <ele>1463</ele>
        <time>2022-08-26T17:03:48Z</time>
      </trkpt>
      <trkpt lat="45.88885" lon="6.78382">
        <ele>1463</ele>
        <time>2022-08-26T17:03:49Z</time>
      </trkpt>
      <trkpt lat="45.88885" lon="6.7838">
        <ele>1463</ele>
        <time>2022-08-26T17:03:50Z</time>
      </trkpt>
      <trkpt lat="45.88885" lon="6.78378">
        <ele>1464</ele>
        <time>2022-08-26T17:03:51Z</time>
      </trkpt>
      <trkpt lat="45.88886" lon="6.78376">
        <ele>1464</ele>
        <time>2022-08-26T17:03:53Z</time>
      </trkpt>
      <trkpt lat="45.88886" lon="6.78374">
        <ele>1465</ele>
        <time>2022-08-26T17:03:54Z</time>
      </trkpt>
      <trkpt lat="45.88887" lon="6.78372">
        <ele>1465</ele>
        <time>2022-08-26T17:03:55Z</time>
      </trkpt>
      <trkpt lat="45.88887" lon="6.7837">
        <ele>1465</ele>
        <time>2022-08-26T17:03:56Z</time>
      </trkpt>
      <trkpt lat="45.88887" lon="6.78368">
        <ele>1465</ele>
        <time>2022-08-26T17:03:57Z</time>
      </trkpt>
      <trkpt lat="45.88888" lon="6.78366">
        <ele>1464</ele>
        <time>2022-08-26T17:03:59Z</time>
      </trkpt>
      <trkpt lat="45.88888" lon="6.78364">
        <ele>1464</ele>
        <time>2022-08-26T17:04:01Z</time>
      </trkpt>
      <trkpt lat="45.88889" lon="6.78362">
        <ele>1464</ele>
        <time>2022-08-26T17:04:02Z</time>
      </trkpt>
      <trkpt lat="45.88889" lon="6.7836">
        <ele>1464</ele>
        <time>2022-08-26T17:04:03Z</time>
      </trkpt>
      <trkpt lat="45.88891" lon="6.78358">
        <ele>1464</ele>
        <time>2022-08-26T17:04:04Z</time>
      </trkpt>
      <trkpt lat="45.88893" lon="6.78355">
        <ele>1464</ele>
        <time>2022-08-26T17:04:06Z</time>
      </trkpt>
      <trkpt lat="45.88895" lon="6.78352">
        <ele>1464</ele>
        <time>2022-08-26T17:04:07Z</time>
      </trkpt>
      <trkpt lat="45.88897" lon="6.78349">
        <ele>1464</ele>
        <time>2022-08-26T17:04:10Z</time>
      </trkpt>
      <trkpt lat="45.88898" lon="6.78345">
        <ele>1465</ele>
        <time>2022-08-26T17:04:12Z</time>
      </trkpt>
      <trkpt lat="45.88899" lon="6.78341">
        <ele>1465</ele>
        <time>2022-08-26T17:04:14Z</time>
      </trkpt>
      <trkpt lat="45.889" lon="6.78338">
        <ele>1465</ele>
        <time>2022-08-26T17:04:16Z</time>
      </trkpt>
      <trkpt lat="45.88902" lon="6.78335">
        <ele>1466</ele>
        <time>2022-08-26T17:04:18Z</time>
      </trkpt>
      <trkpt lat="45.88902" lon="6.78331">
        <ele>1466</ele>
        <time>2022-08-26T17:04:20Z</time>
      </trkpt>
      <trkpt lat="45.88902" lon="6.78328">
        <ele>1466</ele>
        <time>2022-08-26T17:04:22Z</time>
      </trkpt>
      <trkpt lat="45.88902" lon="6.78325">
        <ele>1467</ele>
        <time>2022-08-26T17:04:24Z</time>
      </trkpt>
      <trkpt lat="45.88902" lon="6.78322">
        <ele>1467</ele>
        <time>2022-08-26T17:04:26Z</time>
      </trkpt>
      <trkpt lat="45.889" lon="6.78319">
        <ele>1467</ele>
        <time>2022-08-26T17:04:28Z</time>
      </trkpt>
      <trkpt lat="45.88898" lon="6.78316">
        <ele>1467</ele>
        <time>2022-08-26T17:04:31Z</time>
      </trkpt>
      <trkpt lat="45.88897" lon="6.78315">
        <ele>1467</ele>
        <time>2022-08-26T17:04:33Z</time>
      </trkpt>
      <trkpt lat="45.88894" lon="6.78315">
        <ele>1468</ele>
        <time>2022-08-26T17:04:36Z</time>
      </trkpt>
      <trkpt lat="45.88892" lon="6.78316">
        <ele>1468</ele>
        <time>2022-08-26T17:04:38Z</time>
      </trkpt>
      <trkpt lat="45.8889" lon="6.78317">
        <ele>1468</ele>
        <time>2022-08-26T17:04:40Z</time>
      </trkpt>
      <trkpt lat="45.88888" lon="6.78319">
        <ele>1468</ele>
        <time>2022-08-26T17:04:42Z</time>
      </trkpt>
      <trkpt lat="45.88886" lon="6.7832">
        <ele>1469</ele>
        <time>2022-08-26T17:04:44Z</time>
      </trkpt>
      <trkpt lat="45.88885" lon="6.78321">
        <ele>1469</ele>
        <time>2022-08-26T17:04:46Z</time>
      </trkpt>
      <trkpt lat="45.88883" lon="6.78323">
        <ele>1469</ele>
        <time>2022-08-26T17:04:48Z</time>
      </trkpt>
      <trkpt lat="45.88881" lon="6.78325">
        <ele>1470</ele>
        <time>2022-08-26T17:04:50Z</time>
      </trkpt>
      <trkpt lat="45.88879" lon="6.78326">
        <ele>1471</ele>
        <time>2022-08-26T17:04:52Z</time>
      </trkpt>
      <trkpt lat="45.88876" lon="6.78326">
        <ele>1470</ele>
        <time>2022-08-26T17:04:54Z</time>
      </trkpt>
      <trkpt lat="45.88874" lon="6.78326">
        <ele>1469</ele>
        <time>2022-08-26T17:04:57Z</time>
      </trkpt>
      <trkpt lat="45.88872" lon="6.78325">
        <ele>1469</ele>
        <time>2022-08-26T17:04:58Z</time>
      </trkpt>
      <trkpt lat="45.8887" lon="6.78324">
        <ele>1469</ele>
        <time>2022-08-26T17:05:00Z</time>
      </trkpt>
      <trkpt lat="45.88869" lon="6.78323">
        <ele>1470</ele>
        <time>2022-08-26T17:05:01Z</time>
      </trkpt>
      <trkpt lat="45.88868" lon="6.78319">
        <ele>1471</ele>
        <time>2022-08-26T17:05:03Z</time>
      </trkpt>
      <trkpt lat="45.88868" lon="6.78317">
        <ele>1479</ele>
        <time>2022-08-26T17:05:05Z</time>
      </trkpt>
      <trkpt lat="45.88867" lon="6.78314">
        <ele>1480</ele>
        <time>2022-08-26T17:05:06Z</time>
      </trkpt>
      <trkpt lat="45.88867" lon="6.78312">
        <ele>1480</ele>
        <time>2022-08-26T17:05:07Z</time>
      </trkpt>
      <trkpt lat="45.88867" lon="6.78308">
        <ele>1481</ele>
        <time>2022-08-26T17:05:09Z</time>
      </trkpt>
      <trkpt lat="45.88867" lon="6.78305">
        <ele>1481</ele>
        <time>2022-08-26T17:05:11Z</time>
      </trkpt>
      <trkpt lat="45.88867" lon="6.78301">
        <ele>1481</ele>
        <time>2022-08-26T17:05:13Z</time>
      </trkpt>
      <trkpt lat="45.88867" lon="6.78298">
        <ele>1481</ele>
        <time>2022-08-26T17:05:15Z</time>
      </trkpt>
      <trkpt lat="45.88867" lon="6.78295">
        <ele>1482</ele>
        <time>2022-08-26T17:05:17Z</time>
      </trkpt>
      <trkpt lat="45.88868" lon="6.78292">
        <ele>1482</ele>
        <time>2022-08-26T17:05:19Z</time>
      </trkpt>
      <trkpt lat="45.8887" lon="6.78288">
        <ele>1483</ele>
        <time>2022-08-26T17:05:21Z</time>
      </trkpt>
      <trkpt lat="45.88871" lon="6.78285">
        <ele>1483</ele>
        <time>2022-08-26T17:05:23Z</time>
      </trkpt>
      <trkpt lat="45.88873" lon="6.78282">
        <ele>1483</ele>
        <time>2022-08-26T17:05:25Z</time>
      </trkpt>
      <trkpt lat="45.88874" lon="6.78279">
        <ele>1483</ele>
        <time>2022-08-26T17:05:27Z</time>
      </trkpt>
      <trkpt lat="45.88875" lon="6.78275">
        <ele>1484</ele>
        <time>2022-08-26T17:05:29Z</time>
      </trkpt>
      <trkpt lat="45.88877" lon="6.78272">
        <ele>1484</ele>
        <time>2022-08-26T17:05:31Z</time>
      </trkpt>
      <trkpt lat="45.88878" lon="6.78269">
        <ele>1484</ele>
        <time>2022-08-26T17:05:33Z</time>
      </trkpt>
      <trkpt lat="45.88879" lon="6.78265">
        <ele>1485</ele>
        <time>2022-08-26T17:05:35Z</time>
      </trkpt>
      <trkpt lat="45.8888" lon="6.78261">
        <ele>1485</ele>
        <time>2022-08-26T17:05:37Z</time>
      </trkpt>
      <trkpt lat="45.8888" lon="6.78257">
        <ele>1485</ele>
        <time>2022-08-26T17:05:39Z</time>
      </trkpt>
      <trkpt lat="45.88881" lon="6.78253">
        <ele>1486</ele>
        <time>2022-08-26T17:05:41Z</time>
      </trkpt>
      <trkpt lat="45.88882" lon="6.78249">
        <ele>1486</ele>
        <time>2022-08-26T17:05:43Z</time>
      </trkpt>
      <trkpt lat="45.88883" lon="6.78247">
        <ele>1486</ele>
        <time>2022-08-26T17:05:45Z</time>
      </trkpt>
      <trkpt lat="45.88884" lon="6.78244">
        <ele>1487</ele>
        <time>2022-08-26T17:05:47Z</time>
      </trkpt>
      <trkpt lat="45.88886" lon="6.7824">
        <ele>1488</ele>
        <time>2022-08-26T17:05:49Z</time>
      </trkpt>
      <trkpt lat="45.88888" lon="6.78238">
        <ele>1488</ele>
        <time>2022-08-26T17:05:51Z</time>
      </trkpt>
      <trkpt lat="45.8889" lon="6.78235">
        <ele>1488</ele>
        <time>2022-08-26T17:05:53Z</time>
      </trkpt>
      <trkpt lat="45.88892" lon="6.78232">
        <ele>1489</ele>
        <time>2022-08-26T17:05:55Z</time>
      </trkpt>
      <trkpt lat="45.88894" lon="6.78229">
        <ele>1489</ele>
        <time>2022-08-26T17:05:57Z</time>
      </trkpt>
      <trkpt lat="45.88896" lon="6.78226">
        <ele>1489</ele>
        <time>2022-08-26T17:05:59Z</time>
      </trkpt>
      <trkpt lat="45.88897" lon="6.78223">
        <ele>1490</ele>
        <time>2022-08-26T17:06:01Z</time>
      </trkpt>
      <trkpt lat="45.88899" lon="6.7822">
        <ele>1490</ele>
        <time>2022-08-26T17:06:03Z</time>
      </trkpt>
      <trkpt lat="45.88901" lon="6.78217">
        <ele>1491</ele>
        <time>2022-08-26T17:06:05Z</time>
      </trkpt>
      <trkpt lat="45.88902" lon="6.78214">
        <ele>1492</ele>
        <time>2022-08-26T17:06:07Z</time>
      </trkpt>
      <trkpt lat="45.88904" lon="6.78211">
        <ele>1492</ele>
        <time>2022-08-26T17:06:09Z</time>
      </trkpt>
      <trkpt lat="45.88906" lon="6.78208">
        <ele>1492</ele>
        <time>2022-08-26T17:06:11Z</time>
      </trkpt>
      <trkpt lat="45.88908" lon="6.78205">
        <ele>1493</ele>
        <time>2022-08-26T17:06:13Z</time>
      </trkpt>
      <trkpt lat="45.88909" lon="6.78202">
        <ele>1493</ele>
        <time>2022-08-26T17:06:15Z</time>
      </trkpt>
      <trkpt lat="45.88911" lon="6.78198">
        <ele>1494</ele>
        <time>2022-08-26T17:06:17Z</time>
      </trkpt>
      <trkpt lat="45.88912" lon="6.78194">
        <ele>1494</ele>
        <time>2022-08-26T17:06:19Z</time>
      </trkpt>
      <trkpt lat="45.88912" lon="6.78189">
        <ele>1494</ele>
        <time>2022-08-26T17:06:21Z</time>
      </trkpt>
      <trkpt lat="45.88911" lon="6.78186">
        <ele>1494</ele>
        <time>2022-08-26T17:06:22Z</time>
      </trkpt>
      <trkpt lat="45.8891" lon="6.78183">
        <ele>1495</ele>
        <time>2022-08-26T17:06:23Z</time>
      </trkpt>
      <trkpt lat="45.88907" lon="6.78179">
        <ele>1495</ele>
        <time>2022-08-26T17:06:25Z</time>
      </trkpt>
      <trkpt lat="45.88906" lon="6.78177">
        <ele>1495</ele>
        <time>2022-08-26T17:06:26Z</time>
      </trkpt>
      <trkpt lat="45.88904" lon="6.78174">
        <ele>1496</ele>
        <time>2022-08-26T17:06:29Z</time>
      </trkpt>
      <trkpt lat="45.88901" lon="6.7817">
        <ele>1496</ele>
        <time>2022-08-26T17:06:30Z</time>
      </trkpt>
      <trkpt lat="45.88899" lon="6.78167">
        <ele>1496</ele>
        <time>2022-08-26T17:06:31Z</time>
      </trkpt>
      <trkpt lat="45.88897" lon="6.78164">
        <ele>1496</ele>
        <time>2022-08-26T17:06:32Z</time>
      </trkpt>
      <trkpt lat="45.88894" lon="6.78161">
        <ele>1496</ele>
        <time>2022-08-26T17:06:34Z</time>
      </trkpt>
      <trkpt lat="45.88892" lon="6.78158">
        <ele>1496</ele>
        <time>2022-08-26T17:06:35Z</time>
      </trkpt>
      <trkpt lat="45.88886" lon="6.78148">
        <ele>1495</ele>
        <time>2022-08-26T17:06:39Z</time>
      </trkpt>
      <trkpt lat="45.88885" lon="6.78145">
        <ele>1495</ele>
        <time>2022-08-26T17:06:40Z</time>
      </trkpt>
      <trkpt lat="45.88884" lon="6.78143">
        <ele>1495</ele>
        <time>2022-08-26T17:06:41Z</time>
      </trkpt>
      <trkpt lat="45.88883" lon="6.78141">
        <ele>1495</ele>
        <time>2022-08-26T17:06:42Z</time>
      </trkpt>
      <trkpt lat="45.88882" lon="6.78138">
        <ele>1495</ele>
        <time>2022-08-26T17:06:43Z</time>
      </trkpt>
      <trkpt lat="45.88881" lon="6.78136">
        <ele>1495</ele>
        <time>2022-08-26T17:06:44Z</time>
      </trkpt>
      <trkpt lat="45.8888" lon="6.78132">
        <ele>1496</ele>
        <time>2022-08-26T17:06:45Z</time>
      </trkpt>
      <trkpt lat="45.88879" lon="6.78129">
        <ele>1496</ele>
        <time>2022-08-26T17:06:46Z</time>
      </trkpt>
      <trkpt lat="45.88878" lon="6.78125">
        <ele>1496</ele>
        <time>2022-08-26T17:06:47Z</time>
      </trkpt>
      <trkpt lat="45.88878" lon="6.78122">
        <ele>1496</ele>
        <time>2022-08-26T17:06:48Z</time>
      </trkpt>
      <trkpt lat="45.88877" lon="6.78118">
        <ele>1496</ele>
        <time>2022-08-26T17:06:49Z</time>
      </trkpt>
      <trkpt lat="45.88876" lon="6.78115">
        <ele>1496</ele>
        <time>2022-08-26T17:06:51Z</time>
      </trkpt>
      <trkpt lat="45.88876" lon="6.78111">
        <ele>1496</ele>
        <time>2022-08-26T17:06:52Z</time>
      </trkpt>
      <trkpt lat="45.88875" lon="6.78108">
        <ele>1496</ele>
        <time>2022-08-26T17:06:53Z</time>
      </trkpt>
      <trkpt lat="45.88875" lon="6.78103">
        <ele>1496</ele>
        <time>2022-08-26T17:06:54Z</time>
      </trkpt>
      <trkpt lat="45.88876" lon="6.78099">
        <ele>1496</ele>
        <time>2022-08-26T17:06:55Z</time>
      </trkpt>
      <trkpt lat="45.88876" lon="6.78094">
        <ele>1497</ele>
        <time>2022-08-26T17:06:56Z</time>
      </trkpt>
      <trkpt lat="45.88878" lon="6.7809">
        <ele>1497</ele>
        <time>2022-08-26T17:06:58Z</time>
      </trkpt>
      <trkpt lat="45.8888" lon="6.78086">
        <ele>1498</ele>
        <time>2022-08-26T17:06:59Z</time>
      </trkpt>
      <trkpt lat="45.88881" lon="6.78082">
        <ele>1498</ele>
        <time>2022-08-26T17:07:00Z</time>
      </trkpt>
      <trkpt lat="45.88883" lon="6.78078">
        <ele>1499</ele>
        <time>2022-08-26T17:07:01Z</time>
      </trkpt>
      <trkpt lat="45.88885" lon="6.78075">
        <ele>1499</ele>
        <time>2022-08-26T17:07:03Z</time>
      </trkpt>
      <trkpt lat="45.88887" lon="6.78071">
        <ele>1499</ele>
        <time>2022-08-26T17:07:04Z</time>
      </trkpt>
      <trkpt lat="45.88892" lon="6.78059">
        <ele>1499</ele>
        <time>2022-08-26T17:07:08Z</time>
      </trkpt>
      <trkpt lat="45.88893" lon="6.78055">
        <ele>1500</ele>
        <time>2022-08-26T17:07:10Z</time>
      </trkpt>
      <trkpt lat="45.88894" lon="6.78052">
        <ele>1500</ele>
        <time>2022-08-26T17:07:11Z</time>
      </trkpt>
      <trkpt lat="45.88895" lon="6.78049">
        <ele>1500</ele>
        <time>2022-08-26T17:07:12Z</time>
      </trkpt>
      <trkpt lat="45.88896" lon="6.78045">
        <ele>1500</ele>
        <time>2022-08-26T17:07:13Z</time>
      </trkpt>
      <trkpt lat="45.88895" lon="6.7804">
        <ele>1500</ele>
        <time>2022-08-26T17:07:15Z</time>
      </trkpt>
      <trkpt lat="45.88895" lon="6.78036">
        <ele>1500</ele>
        <time>2022-08-26T17:07:16Z</time>
      </trkpt>
      <trkpt lat="45.88894" lon="6.78031">
        <ele>1500</ele>
        <time>2022-08-26T17:07:17Z</time>
      </trkpt>
      <trkpt lat="45.88892" lon="6.78027">
        <ele>1500</ele>
        <time>2022-08-26T17:07:18Z</time>
      </trkpt>
      <trkpt lat="45.88891" lon="6.78022">
        <ele>1500</ele>
        <time>2022-08-26T17:07:20Z</time>
      </trkpt>
      <trkpt lat="45.88889" lon="6.78018">
        <ele>1500</ele>
        <time>2022-08-26T17:07:21Z</time>
      </trkpt>
      <trkpt lat="45.8889" lon="6.78017">
        <ele>1501</ele>
        <time>2022-08-26T17:07:22Z</time>
      </trkpt>
      <trkpt lat="45.8889" lon="6.78015">
        <ele>1501</ele>
        <time>2022-08-26T17:07:23Z</time>
      </trkpt>
      <trkpt lat="45.8889" lon="6.78014">
        <ele>1501</ele>
        <time>2022-08-26T17:07:25Z</time>
      </trkpt>
      <trkpt lat="45.8889" lon="6.78012">
        <ele>1501</ele>
        <time>2022-08-26T17:07:26Z</time>
      </trkpt>
      <trkpt lat="45.8889" lon="6.78011">
        <ele>1501</ele>
        <time>2022-08-26T17:07:27Z</time>
      </trkpt>
      <trkpt lat="45.88892" lon="6.78002">
        <ele>1501</ele>
        <time>2022-08-26T17:07:28Z</time>
      </trkpt>
      <trkpt lat="45.88894" lon="6.78">
        <ele>1502</ele>
        <time>2022-08-26T17:07:30Z</time>
      </trkpt>
      <trkpt lat="45.88896" lon="6.77998">
        <ele>1502</ele>
        <time>2022-08-26T17:07:31Z</time>
      </trkpt>
      <trkpt lat="45.88898" lon="6.77996">
        <ele>1502</ele>
        <time>2022-08-26T17:07:32Z</time>
      </trkpt>
      <trkpt lat="45.889" lon="6.77995">
        <ele>1502</ele>
        <time>2022-08-26T17:07:33Z</time>
      </trkpt>
      <trkpt lat="45.88901" lon="6.77994">
        <ele>1502</ele>
        <time>2022-08-26T17:07:34Z</time>
      </trkpt>
      <trkpt lat="45.88903" lon="6.77994">
        <ele>1504</ele>
        <time>2022-08-26T17:07:35Z</time>
      </trkpt>
      <trkpt lat="45.88908" lon="6.77993">
        <ele>1504</ele>
        <time>2022-08-26T17:07:36Z</time>
      </trkpt>
      <trkpt lat="45.88909" lon="6.77993">
        <ele>1504</ele>
        <time>2022-08-26T17:07:37Z</time>
      </trkpt>
      <trkpt lat="45.88912" lon="6.77992">
        <ele>1504</ele>
        <time>2022-08-26T17:07:39Z</time>
      </trkpt>
      <trkpt lat="45.88914" lon="6.77991">
        <ele>1504</ele>
        <time>2022-08-26T17:07:41Z</time>
      </trkpt>
      <trkpt lat="45.88916" lon="6.7799">
        <ele>1504</ele>
        <time>2022-08-26T17:07:43Z</time>
      </trkpt>
      <trkpt lat="45.88918" lon="6.7799">
        <ele>1504</ele>
        <time>2022-08-26T17:07:45Z</time>
      </trkpt>
      <trkpt lat="45.88922" lon="6.77988">
        <ele>1505</ele>
        <time>2022-08-26T17:07:47Z</time>
      </trkpt>
      <trkpt lat="45.88924" lon="6.77987">
        <ele>1505</ele>
        <time>2022-08-26T17:07:49Z</time>
      </trkpt>
      <trkpt lat="45.88928" lon="6.77986">
        <ele>1505</ele>
        <time>2022-08-26T17:07:51Z</time>
      </trkpt>
      <trkpt lat="45.88931" lon="6.77986">
        <ele>1506</ele>
        <time>2022-08-26T17:07:53Z</time>
      </trkpt>
      <trkpt lat="45.88934" lon="6.77985">
        <ele>1506</ele>
        <time>2022-08-26T17:07:55Z</time>
      </trkpt>
      <trkpt lat="45.88937" lon="6.77984">
        <ele>1506</ele>
        <time>2022-08-26T17:07:57Z</time>
      </trkpt>
      <trkpt lat="45.88941" lon="6.77983">
        <ele>1506</ele>
        <time>2022-08-26T17:07:59Z</time>
      </trkpt>
      <trkpt lat="45.88943" lon="6.77982">
        <ele>1506</ele>
        <time>2022-08-26T17:08:01Z</time>
      </trkpt>
      <trkpt lat="45.88946" lon="6.77981">
        <ele>1506</ele>
        <time>2022-08-26T17:08:03Z</time>
      </trkpt>
      <trkpt lat="45.88949" lon="6.77979">
        <ele>1506</ele>
        <time>2022-08-26T17:08:05Z</time>
      </trkpt>
      <trkpt lat="45.88951" lon="6.77977">
        <ele>1507</ele>
        <time>2022-08-26T17:08:07Z</time>
      </trkpt>
      <trkpt lat="45.88954" lon="6.77976">
        <ele>1507</ele>
        <time>2022-08-26T17:08:09Z</time>
      </trkpt>
      <trkpt lat="45.88957" lon="6.77973">
        <ele>1507</ele>
        <time>2022-08-26T17:08:11Z</time>
      </trkpt>
      <trkpt lat="45.88959" lon="6.77972">
        <ele>1507</ele>
        <time>2022-08-26T17:08:12Z</time>
      </trkpt>
      <trkpt lat="45.88961" lon="6.77969">
        <ele>1508</ele>
        <time>2022-08-26T17:08:14Z</time>
      </trkpt>
      <trkpt lat="45.88964" lon="6.77966">
        <ele>1508</ele>
        <time>2022-08-26T17:08:16Z</time>
      </trkpt>
      <trkpt lat="45.88965" lon="6.77964">
        <ele>1508</ele>
        <time>2022-08-26T17:08:17Z</time>
      </trkpt>
      <trkpt lat="45.88967" lon="6.7796">
        <ele>1508</ele>
        <time>2022-08-26T17:08:18Z</time>
      </trkpt>
      <trkpt lat="45.88967" lon="6.77959">
        <ele>1508</ele>
        <time>2022-08-26T17:08:19Z</time>
      </trkpt>
      <trkpt lat="45.88968" lon="6.77956">
        <ele>1508</ele>
        <time>2022-08-26T17:08:20Z</time>
      </trkpt>
      <trkpt lat="45.88969" lon="6.77953">
        <ele>1508</ele>
        <time>2022-08-26T17:08:21Z</time>
      </trkpt>
      <trkpt lat="45.88969" lon="6.7795">
        <ele>1508</ele>
        <time>2022-08-26T17:08:22Z</time>
      </trkpt>
      <trkpt lat="45.8897" lon="6.77947">
        <ele>1508</ele>
        <time>2022-08-26T17:08:23Z</time>
      </trkpt>
      <trkpt lat="45.8897" lon="6.77945">
        <ele>1509</ele>
        <time>2022-08-26T17:08:24Z</time>
      </trkpt>
      <trkpt lat="45.88971" lon="6.77942">
        <ele>1509</ele>
        <time>2022-08-26T17:08:25Z</time>
      </trkpt>
      <trkpt lat="45.88972" lon="6.77939">
        <ele>1509</ele>
        <time>2022-08-26T17:08:26Z</time>
      </trkpt>
      <trkpt lat="45.88972" lon="6.77936">
        <ele>1509</ele>
        <time>2022-08-26T17:08:27Z</time>
      </trkpt>
      <trkpt lat="45.88973" lon="6.77932">
        <ele>1509</ele>
        <time>2022-08-26T17:08:28Z</time>
      </trkpt>
      <trkpt lat="45.88973" lon="6.7793">
        <ele>1509</ele>
        <time>2022-08-26T17:08:29Z</time>
      </trkpt>
      <trkpt lat="45.88974" lon="6.77928">
        <ele>1509</ele>
        <time>2022-08-26T17:08:30Z</time>
      </trkpt>
      <trkpt lat="45.88974" lon="6.77925">
        <ele>1510</ele>
        <time>2022-08-26T17:08:31Z</time>
      </trkpt>
      <trkpt lat="45.88975" lon="6.77921">
        <ele>1510</ele>
        <time>2022-08-26T17:08:32Z</time>
      </trkpt>
      <trkpt lat="45.88975" lon="6.77919">
        <ele>1510</ele>
        <time>2022-08-26T17:08:33Z</time>
      </trkpt>
      <trkpt lat="45.88976" lon="6.77915">
        <ele>1510</ele>
        <time>2022-08-26T17:08:34Z</time>
      </trkpt>
      <trkpt lat="45.88976" lon="6.77913">
        <ele>1511</ele>
        <time>2022-08-26T17:08:35Z</time>
      </trkpt>
      <trkpt lat="45.88977" lon="6.7791">
        <ele>1511</ele>
        <time>2022-08-26T17:08:36Z</time>
      </trkpt>
      <trkpt lat="45.88978" lon="6.77907">
        <ele>1511</ele>
        <time>2022-08-26T17:08:37Z</time>
      </trkpt>
      <trkpt lat="45.88978" lon="6.77904">
        <ele>1511</ele>
        <time>2022-08-26T17:08:38Z</time>
      </trkpt>
      <trkpt lat="45.88979" lon="6.779">
        <ele>1511</ele>
        <time>2022-08-26T17:08:39Z</time>
      </trkpt>
      <trkpt lat="45.88979" lon="6.77898">
        <ele>1511</ele>
        <time>2022-08-26T17:08:40Z</time>
      </trkpt>
      <trkpt lat="45.8898" lon="6.77895">
        <ele>1512</ele>
        <time>2022-08-26T17:08:41Z</time>
      </trkpt>
      <trkpt lat="45.88981" lon="6.77892">
        <ele>1512</ele>
        <time>2022-08-26T17:08:42Z</time>
      </trkpt>
      <trkpt lat="45.88981" lon="6.7789">
        <ele>1513</ele>
        <time>2022-08-26T17:08:43Z</time>
      </trkpt>
      <trkpt lat="45.88982" lon="6.77886">
        <ele>1513</ele>
        <time>2022-08-26T17:08:44Z</time>
      </trkpt>
      <trkpt lat="45.88982" lon="6.77885">
        <ele>1513</ele>
        <time>2022-08-26T17:08:45Z</time>
      </trkpt>
      <trkpt lat="45.88983" lon="6.77882">
        <ele>1513</ele>
        <time>2022-08-26T17:08:46Z</time>
      </trkpt>
      <trkpt lat="45.88983" lon="6.77879">
        <ele>1513</ele>
        <time>2022-08-26T17:08:47Z</time>
      </trkpt>
      <trkpt lat="45.88984" lon="6.77877">
        <ele>1513</ele>
        <time>2022-08-26T17:08:48Z</time>
      </trkpt>
      <trkpt lat="45.88985" lon="6.77874">
        <ele>1514</ele>
        <time>2022-08-26T17:08:49Z</time>
      </trkpt>
      <trkpt lat="45.88985" lon="6.77871">
        <ele>1514</ele>
        <time>2022-08-26T17:08:50Z</time>
      </trkpt>
      <trkpt lat="45.88986" lon="6.77868">
        <ele>1514</ele>
        <time>2022-08-26T17:08:51Z</time>
      </trkpt>
      <trkpt lat="45.88986" lon="6.77866">
        <ele>1514</ele>
        <time>2022-08-26T17:08:52Z</time>
      </trkpt>
      <trkpt lat="45.88987" lon="6.77863">
        <ele>1514</ele>
        <time>2022-08-26T17:08:53Z</time>
      </trkpt>
      <trkpt lat="45.88987" lon="6.77859">
        <ele>1514</ele>
        <time>2022-08-26T17:08:55Z</time>
      </trkpt>
      <trkpt lat="45.88987" lon="6.77854">
        <ele>1514</ele>
        <time>2022-08-26T17:08:57Z</time>
      </trkpt>
      <trkpt lat="45.88987" lon="6.7785">
        <ele>1514</ele>
        <time>2022-08-26T17:08:59Z</time>
      </trkpt>
      <trkpt lat="45.88987" lon="6.77846">
        <ele>1515</ele>
        <time>2022-08-26T17:09:01Z</time>
      </trkpt>
      <trkpt lat="45.88986" lon="6.77841">
        <ele>1516</ele>
        <time>2022-08-26T17:09:03Z</time>
      </trkpt>
      <trkpt lat="45.88985" lon="6.77837">
        <ele>1516</ele>
        <time>2022-08-26T17:09:05Z</time>
      </trkpt>
      <trkpt lat="45.88984" lon="6.77834">
        <ele>1516</ele>
        <time>2022-08-26T17:09:07Z</time>
      </trkpt>
      <trkpt lat="45.88981" lon="6.77833">
        <ele>1516</ele>
        <time>2022-08-26T17:09:09Z</time>
      </trkpt>
      <trkpt lat="45.88979" lon="6.77832">
        <ele>1517</ele>
        <time>2022-08-26T17:09:11Z</time>
      </trkpt>
      <trkpt lat="45.88976" lon="6.77832">
        <ele>1517</ele>
        <time>2022-08-26T17:09:13Z</time>
      </trkpt>
      <trkpt lat="45.88975" lon="6.77833">
        <ele>1518</ele>
        <time>2022-08-26T17:09:14Z</time>
      </trkpt>
      <trkpt lat="45.88973" lon="6.77834">
        <ele>1518</ele>
        <time>2022-08-26T17:09:15Z</time>
      </trkpt>
      <trkpt lat="45.88971" lon="6.77834">
        <ele>1519</ele>
        <time>2022-08-26T17:09:16Z</time>
      </trkpt>
      <trkpt lat="45.88968" lon="6.77836">
        <ele>1519</ele>
        <time>2022-08-26T17:09:18Z</time>
      </trkpt>
      <trkpt lat="45.88966" lon="6.77839">
        <ele>1519</ele>
        <time>2022-08-26T17:09:20Z</time>
      </trkpt>
      <trkpt lat="45.88963" lon="6.77843">
        <ele>1519</ele>
        <time>2022-08-26T17:09:22Z</time>
      </trkpt>
      <trkpt lat="45.88962" lon="6.77844">
        <ele>1520</ele>
        <time>2022-08-26T17:09:23Z</time>
      </trkpt>
      <trkpt lat="45.8896" lon="6.77845">
        <ele>1520</ele>
        <time>2022-08-26T17:09:24Z</time>
      </trkpt>
      <trkpt lat="45.88958" lon="6.77848">
        <ele>1520</ele>
        <time>2022-08-26T17:09:25Z</time>
      </trkpt>
      <trkpt lat="45.88957" lon="6.77849">
        <ele>1520</ele>
        <time>2022-08-26T17:09:26Z</time>
      </trkpt>
      <trkpt lat="45.88955" lon="6.77851">
        <ele>1520</ele>
        <time>2022-08-26T17:09:27Z</time>
      </trkpt>
      <trkpt lat="45.88953" lon="6.77853">
        <ele>1520</ele>
        <time>2022-08-26T17:09:28Z</time>
      </trkpt>
      <trkpt lat="45.88952" lon="6.77855">
        <ele>1520</ele>
        <time>2022-08-26T17:09:29Z</time>
      </trkpt>
      <trkpt lat="45.8895" lon="6.77859">
        <ele>1521</ele>
        <time>2022-08-26T17:09:31Z</time>
      </trkpt>
      <trkpt lat="45.88948" lon="6.77862">
        <ele>1521</ele>
        <time>2022-08-26T17:09:33Z</time>
      </trkpt>
      <trkpt lat="45.88946" lon="6.77864">
        <ele>1521</ele>
        <time>2022-08-26T17:09:34Z</time>
      </trkpt>
      <trkpt lat="45.88945" lon="6.77866">
        <ele>1521</ele>
        <time>2022-08-26T17:09:35Z</time>
      </trkpt>
      <trkpt lat="45.88944" lon="6.77868">
        <ele>1521</ele>
        <time>2022-08-26T17:09:36Z</time>
      </trkpt>
      <trkpt lat="45.88942" lon="6.7787">
        <ele>1521</ele>
        <time>2022-08-26T17:09:37Z</time>
      </trkpt>
      <trkpt lat="45.88941" lon="6.77871">
        <ele>1521</ele>
        <time>2022-08-26T17:09:38Z</time>
      </trkpt>
      <trkpt lat="45.8894" lon="6.77873">
        <ele>1521</ele>
        <time>2022-08-26T17:09:39Z</time>
      </trkpt>
      <trkpt lat="45.88939" lon="6.77875">
        <ele>1521</ele>
        <time>2022-08-26T17:09:40Z</time>
      </trkpt>
      <trkpt lat="45.88938" lon="6.77877">
        <ele>1522</ele>
        <time>2022-08-26T17:09:41Z</time>
      </trkpt>
      <trkpt lat="45.88935" lon="6.77879">
        <ele>1523</ele>
        <time>2022-08-26T17:09:42Z</time>
      </trkpt>
      <trkpt lat="45.88932" lon="6.77882">
        <ele>1523</ele>
        <time>2022-08-26T17:09:43Z</time>
      </trkpt>
      <trkpt lat="45.88929" lon="6.77884">
        <ele>1523</ele>
        <time>2022-08-26T17:09:44Z</time>
      </trkpt>
      <trkpt lat="45.88928" lon="6.77884">
        <ele>1522</ele>
        <time>2022-08-26T17:09:45Z</time>
      </trkpt>
      <trkpt lat="45.88926" lon="6.77885">
        <ele>1522</ele>
        <time>2022-08-26T17:09:46Z</time>
      </trkpt>
      <trkpt lat="45.88922" lon="6.77887">
        <ele>1523</ele>
        <time>2022-08-26T17:09:48Z</time>
      </trkpt>
      <trkpt lat="45.88921" lon="6.77885">
        <ele>1523</ele>
        <time>2022-08-26T17:09:50Z</time>
      </trkpt>
      <trkpt lat="45.8892" lon="6.77883">
        <ele>1523</ele>
        <time>2022-08-26T17:09:51Z</time>
      </trkpt>
      <trkpt lat="45.88919" lon="6.77882">
        <ele>1524</ele>
        <time>2022-08-26T17:09:52Z</time>
      </trkpt>
      <trkpt lat="45.88918" lon="6.7788">
        <ele>1524</ele>
        <time>2022-08-26T17:09:54Z</time>
      </trkpt>
      <trkpt lat="45.88917" lon="6.77878">
        <ele>1524</ele>
        <time>2022-08-26T17:09:55Z</time>
      </trkpt>
      <trkpt lat="45.88916" lon="6.77876">
        <ele>1524</ele>
        <time>2022-08-26T17:09:56Z</time>
      </trkpt>
      <trkpt lat="45.88915" lon="6.77875">
        <ele>1524</ele>
        <time>2022-08-26T17:09:57Z</time>
      </trkpt>
      <trkpt lat="45.88914" lon="6.77874">
        <ele>1524</ele>
        <time>2022-08-26T17:09:59Z</time>
      </trkpt>
      <trkpt lat="45.88913" lon="6.77873">
        <ele>1524</ele>
        <time>2022-08-26T17:10:00Z</time>
      </trkpt>
      <trkpt lat="45.88911" lon="6.77872">
        <ele>1525</ele>
        <time>2022-08-26T17:10:01Z</time>
      </trkpt>
      <trkpt lat="45.8891" lon="6.77871">
        <ele>1525</ele>
        <time>2022-08-26T17:10:02Z</time>
      </trkpt>
      <trkpt lat="45.88909" lon="6.77869">
        <ele>1525</ele>
        <time>2022-08-26T17:10:04Z</time>
      </trkpt>
      <trkpt lat="45.88908" lon="6.77868">
        <ele>1526</ele>
        <time>2022-08-26T17:10:05Z</time>
      </trkpt>
      <trkpt lat="45.88905" lon="6.77867">
        <ele>1526</ele>
        <time>2022-08-26T17:10:09Z</time>
      </trkpt>
      <trkpt lat="45.88904" lon="6.77866">
        <ele>1526</ele>
        <time>2022-08-26T17:10:10Z</time>
      </trkpt>
      <trkpt lat="45.88904" lon="6.77865">
        <ele>1526</ele>
        <time>2022-08-26T17:10:12Z</time>
      </trkpt>
      <trkpt lat="45.88903" lon="6.77864">
        <ele>1526</ele>
        <time>2022-08-26T17:10:13Z</time>
      </trkpt>
      <trkpt lat="45.88903" lon="6.77864">
        <ele>1526</ele>
        <time>2022-08-26T17:10:14Z</time>
      </trkpt>
      <trkpt lat="45.88902" lon="6.77863">
        <ele>1526</ele>
        <time>2022-08-26T17:10:15Z</time>
      </trkpt>
      <trkpt lat="45.88902" lon="6.77862">
        <ele>1526</ele>
        <time>2022-08-26T17:10:16Z</time>
      </trkpt>
      <trkpt lat="45.88901" lon="6.77861">
        <ele>1526</ele>
        <time>2022-08-26T17:10:17Z</time>
      </trkpt>
      <trkpt lat="45.88901" lon="6.7786">
        <ele>1526</ele>
        <time>2022-08-26T17:10:18Z</time>
      </trkpt>
      <trkpt lat="45.88901" lon="6.7786">
        <ele>1526</ele>
        <time>2022-08-26T17:10:19Z</time>
      </trkpt>
      <trkpt lat="45.889" lon="6.77859">
        <ele>1526</ele>
        <time>2022-08-26T17:10:20Z</time>
      </trkpt>
      <trkpt lat="45.889" lon="6.77858">
        <ele>1526</ele>
        <time>2022-08-26T17:10:21Z</time>
      </trkpt>
      <trkpt lat="45.88899" lon="6.77857">
        <ele>1526</ele>
        <time>2022-08-26T17:10:22Z</time>
      </trkpt>
      <trkpt lat="45.88898" lon="6.77854">
        <ele>1526</ele>
        <time>2022-08-26T17:10:23Z</time>
      </trkpt>
      <trkpt lat="45.88896" lon="6.77852">
        <ele>1527</ele>
        <time>2022-08-26T17:10:25Z</time>
      </trkpt>
      <trkpt lat="45.88894" lon="6.7785">
        <ele>1527</ele>
        <time>2022-08-26T17:10:27Z</time>
      </trkpt>
      <trkpt lat="45.88894" lon="6.77846">
        <ele>1527</ele>
        <time>2022-08-26T17:10:29Z</time>
      </trkpt>
      <trkpt lat="45.88894" lon="6.77844">
        <ele>1528</ele>
        <time>2022-08-26T17:10:30Z</time>
      </trkpt>
      <trkpt lat="45.88895" lon="6.77841">
        <ele>1529</ele>
        <time>2022-08-26T17:10:32Z</time>
      </trkpt>
      <trkpt lat="45.88896" lon="6.77839">
        <ele>1529</ele>
        <time>2022-08-26T17:10:33Z</time>
      </trkpt>
      <trkpt lat="45.88898" lon="6.77838">
        <ele>1529</ele>
        <time>2022-08-26T17:10:35Z</time>
      </trkpt>
      <trkpt lat="45.88901" lon="6.77836">
        <ele>1530</ele>
        <time>2022-08-26T17:10:38Z</time>
      </trkpt>
      <trkpt lat="45.88903" lon="6.77832">
        <ele>1530</ele>
        <time>2022-08-26T17:10:40Z</time>
      </trkpt>
      <trkpt lat="45.88905" lon="6.7783">
        <ele>1530</ele>
        <time>2022-08-26T17:10:42Z</time>
      </trkpt>
      <trkpt lat="45.88907" lon="6.77828">
        <ele>1530</ele>
        <time>2022-08-26T17:10:44Z</time>
      </trkpt>
      <trkpt lat="45.88909" lon="6.77825">
        <ele>1530</ele>
        <time>2022-08-26T17:10:46Z</time>
      </trkpt>
      <trkpt lat="45.8891" lon="6.77822">
        <ele>1531</ele>
        <time>2022-08-26T17:10:48Z</time>
      </trkpt>
      <trkpt lat="45.88912" lon="6.77819">
        <ele>1531</ele>
        <time>2022-08-26T17:10:50Z</time>
      </trkpt>
      <trkpt lat="45.88913" lon="6.77815">
        <ele>1532</ele>
        <time>2022-08-26T17:10:52Z</time>
      </trkpt>
      <trkpt lat="45.88915" lon="6.77812">
        <ele>1532</ele>
        <time>2022-08-26T17:10:54Z</time>
      </trkpt>
      <trkpt lat="45.88916" lon="6.77809">
        <ele>1532</ele>
        <time>2022-08-26T17:10:56Z</time>
      </trkpt>
      <trkpt lat="45.88918" lon="6.77806">
        <ele>1533</ele>
        <time>2022-08-26T17:10:58Z</time>
      </trkpt>
      <trkpt lat="45.88919" lon="6.77803">
        <ele>1533</ele>
        <time>2022-08-26T17:11:00Z</time>
      </trkpt>
      <trkpt lat="45.8892" lon="6.778">
        <ele>1533</ele>
        <time>2022-08-26T17:11:02Z</time>
      </trkpt>
      <trkpt lat="45.88921" lon="6.77796">
        <ele>1534</ele>
        <time>2022-08-26T17:11:04Z</time>
      </trkpt>
      <trkpt lat="45.88922" lon="6.77793">
        <ele>1535</ele>
        <time>2022-08-26T17:11:06Z</time>
      </trkpt>
      <trkpt lat="45.8892" lon="6.77795">
        <ele>1536</ele>
        <time>2022-08-26T17:11:10Z</time>
      </trkpt>
      <trkpt lat="45.88917" lon="6.77798">
        <ele>1536</ele>
        <time>2022-08-26T17:11:12Z</time>
      </trkpt>
      <trkpt lat="45.88915" lon="6.778">
        <ele>1537</ele>
        <time>2022-08-26T17:11:14Z</time>
      </trkpt>
      <trkpt lat="45.88913" lon="6.778">
        <ele>1537</ele>
        <time>2022-08-26T17:11:16Z</time>
      </trkpt>
      <trkpt lat="45.88911" lon="6.77799">
        <ele>1536</ele>
        <time>2022-08-26T17:11:18Z</time>
      </trkpt>
      <trkpt lat="45.88909" lon="6.77797">
        <ele>1536</ele>
        <time>2022-08-26T17:11:20Z</time>
      </trkpt>
      <trkpt lat="45.88908" lon="6.77795">
        <ele>1536</ele>
        <time>2022-08-26T17:11:23Z</time>
      </trkpt>
      <trkpt lat="45.88906" lon="6.77794">
        <ele>1535</ele>
        <time>2022-08-26T17:11:26Z</time>
      </trkpt>
      <trkpt lat="45.88904" lon="6.77794">
        <ele>1536</ele>
        <time>2022-08-26T17:11:30Z</time>
      </trkpt>
      <trkpt lat="45.88902" lon="6.77795">
        <ele>1536</ele>
        <time>2022-08-26T17:11:35Z</time>
      </trkpt>
      <trkpt lat="45.889" lon="6.77796">
        <ele>1537</ele>
        <time>2022-08-26T17:11:39Z</time>
      </trkpt>
      <trkpt lat="45.88899" lon="6.77797">
        <ele>1538</ele>
        <time>2022-08-26T17:11:46Z</time>
      </trkpt>
      <trkpt lat="45.88897" lon="6.77798">
        <ele>1539</ele>
        <time>2022-08-26T17:11:57Z</time>
      </trkpt>
      <trkpt lat="45.88897" lon="6.77798">
        <ele>1539</ele>
        <time>2022-08-26T17:11:58Z</time>
      </trkpt>
      <trkpt lat="45.88895" lon="6.77798">
        <ele>1540</ele>
        <time>2022-08-26T17:12:00Z</time>
      </trkpt>
      <trkpt lat="45.88892" lon="6.778">
        <ele>1539</ele>
        <time>2022-08-26T17:12:06Z</time>
      </trkpt>
      <trkpt lat="45.88888" lon="6.778">
        <ele>1541</ele>
        <time>2022-08-26T17:12:11Z</time>
      </trkpt>
      <trkpt lat="45.88884" lon="6.77799">
        <ele>1541</ele>
        <time>2022-08-26T17:12:21Z</time>
      </trkpt>
      <trkpt lat="45.88882" lon="6.77798">
        <ele>1541</ele>
        <time>2022-08-26T17:12:27Z</time>
      </trkpt>
      <trkpt lat="45.88881" lon="6.77797">
        <ele>1541</ele>
        <time>2022-08-26T17:12:32Z</time>
      </trkpt>
      <trkpt lat="45.8888" lon="6.77795">
        <ele>1543</ele>
        <time>2022-08-26T17:12:46Z</time>
      </trkpt>
      <trkpt lat="45.8888" lon="6.77795">
        <ele>1543</ele>
        <time>2022-08-26T17:12:50Z</time>
      </trkpt>
      <trkpt lat="45.88877" lon="6.77794">
        <ele>1544</ele>
        <time>2022-08-26T17:12:53Z</time>
      </trkpt>
      <trkpt lat="45.88875" lon="6.77793">
        <ele>1544</ele>
        <time>2022-08-26T17:12:55Z</time>
      </trkpt>
      <trkpt lat="45.88873" lon="6.77791">
        <ele>1544</ele>
        <time>2022-08-26T17:12:58Z</time>
      </trkpt>
      <trkpt lat="45.8887" lon="6.77791">
        <ele>1544</ele>
        <time>2022-08-26T17:13:00Z</time>
      </trkpt>
      <trkpt lat="45.88868" lon="6.77791">
        <ele>1545</ele>
        <time>2022-08-26T17:13:02Z</time>
      </trkpt>
      <trkpt lat="45.88865" lon="6.77791">
        <ele>1545</ele>
        <time>2022-08-26T17:13:04Z</time>
      </trkpt>
      <trkpt lat="45.88862" lon="6.77791">
        <ele>1546</ele>
        <time>2022-08-26T17:13:06Z</time>
      </trkpt>
      <trkpt lat="45.88859" lon="6.77791">
        <ele>1546</ele>
        <time>2022-08-26T17:13:08Z</time>
      </trkpt>
      <trkpt lat="45.88857" lon="6.77792">
        <ele>1546</ele>
        <time>2022-08-26T17:13:09Z</time>
      </trkpt>
      <trkpt lat="45.88856" lon="6.77792">
        <ele>1546</ele>
        <time>2022-08-26T17:13:10Z</time>
      </trkpt>
      <trkpt lat="45.88854" lon="6.77792">
        <ele>1547</ele>
        <time>2022-08-26T17:13:11Z</time>
      </trkpt>
      <trkpt lat="45.88851" lon="6.77791">
        <ele>1547</ele>
        <time>2022-08-26T17:13:13Z</time>
      </trkpt>
      <trkpt lat="45.88842" lon="6.77785">
        <ele>1549</ele>
        <time>2022-08-26T17:13:18Z</time>
      </trkpt>
      <trkpt lat="45.88841" lon="6.77781">
        <ele>1549</ele>
        <time>2022-08-26T17:13:20Z</time>
      </trkpt>
      <trkpt lat="45.88841" lon="6.77778">
        <ele>1549</ele>
        <time>2022-08-26T17:13:21Z</time>
      </trkpt>
      <trkpt lat="45.88841" lon="6.77775">
        <ele>1549</ele>
        <time>2022-08-26T17:13:23Z</time>
      </trkpt>
      <trkpt lat="45.8884" lon="6.77771">
        <ele>1549</ele>
        <time>2022-08-26T17:13:24Z</time>
      </trkpt>
      <trkpt lat="45.88841" lon="6.77769">
        <ele>1550</ele>
        <time>2022-08-26T17:13:25Z</time>
      </trkpt>
      <trkpt lat="45.88841" lon="6.77767">
        <ele>1550</ele>
        <time>2022-08-26T17:13:26Z</time>
      </trkpt>
      <trkpt lat="45.88842" lon="6.77764">
        <ele>1550</ele>
        <time>2022-08-26T17:13:27Z</time>
      </trkpt>
      <trkpt lat="45.88842" lon="6.77762">
        <ele>1550</ele>
        <time>2022-08-26T17:13:28Z</time>
      </trkpt>
      <trkpt lat="45.88843" lon="6.77757">
        <ele>1550</ele>
        <time>2022-08-26T17:13:30Z</time>
      </trkpt>
      <trkpt lat="45.88844" lon="6.77753">
        <ele>1551</ele>
        <time>2022-08-26T17:13:32Z</time>
      </trkpt>
      <trkpt lat="45.88845" lon="6.77748">
        <ele>1551</ele>
        <time>2022-08-26T17:13:34Z</time>
      </trkpt>
      <trkpt lat="45.88846" lon="6.77744">
        <ele>1552</ele>
        <time>2022-08-26T17:13:36Z</time>
      </trkpt>
      <trkpt lat="45.88848" lon="6.77739">
        <ele>1553</ele>
        <time>2022-08-26T17:13:38Z</time>
      </trkpt>
      <trkpt lat="45.88849" lon="6.77735">
        <ele>1553</ele>
        <time>2022-08-26T17:13:40Z</time>
      </trkpt>
      <trkpt lat="45.88851" lon="6.77731">
        <ele>1553</ele>
        <time>2022-08-26T17:13:42Z</time>
      </trkpt>
      <trkpt lat="45.88852" lon="6.77727">
        <ele>1553</ele>
        <time>2022-08-26T17:13:44Z</time>
      </trkpt>
      <trkpt lat="45.88852" lon="6.77723">
        <ele>1553</ele>
        <time>2022-08-26T17:13:46Z</time>
      </trkpt>
      <trkpt lat="45.88851" lon="6.77719">
        <ele>1554</ele>
        <time>2022-08-26T17:13:48Z</time>
      </trkpt>
      <trkpt lat="45.8885" lon="6.77715">
        <ele>1554</ele>
        <time>2022-08-26T17:13:50Z</time>
      </trkpt>
      <trkpt lat="45.88848" lon="6.77712">
        <ele>1555</ele>
        <time>2022-08-26T17:13:52Z</time>
      </trkpt>
      <trkpt lat="45.88845" lon="6.7771">
        <ele>1555</ele>
        <time>2022-08-26T17:13:54Z</time>
      </trkpt>
      <trkpt lat="45.88843" lon="6.7771">
        <ele>1556</ele>
        <time>2022-08-26T17:13:56Z</time>
      </trkpt>
      <trkpt lat="45.8884" lon="6.77709">
        <ele>1556</ele>
        <time>2022-08-26T17:13:58Z</time>
      </trkpt>
      <trkpt lat="45.88837" lon="6.77708">
        <ele>1556</ele>
        <time>2022-08-26T17:13:59Z</time>
      </trkpt>
      <trkpt lat="45.88834" lon="6.77707">
        <ele>1557</ele>
        <time>2022-08-26T17:14:01Z</time>
      </trkpt>
      <trkpt lat="45.88831" lon="6.77706">
        <ele>1557</ele>
        <time>2022-08-26T17:14:02Z</time>
      </trkpt>
      <trkpt lat="45.8883" lon="6.77705">
        <ele>1557</ele>
        <time>2022-08-26T17:14:03Z</time>
      </trkpt>
      <trkpt lat="45.88828" lon="6.77705">
        <ele>1557</ele>
        <time>2022-08-26T17:14:04Z</time>
      </trkpt>
      <trkpt lat="45.88827" lon="6.77704">
        <ele>1557</ele>
        <time>2022-08-26T17:14:06Z</time>
      </trkpt>
      <trkpt lat="45.88826" lon="6.77704">
        <ele>1561</ele>
        <time>2022-08-26T17:14:07Z</time>
      </trkpt>
      <trkpt lat="45.8882" lon="6.77699">
        <ele>1565</ele>
        <time>2022-08-26T17:14:08Z</time>
      </trkpt>
      <trkpt lat="45.88819" lon="6.77696">
        <ele>1567</ele>
        <time>2022-08-26T17:14:09Z</time>
      </trkpt>
      <trkpt lat="45.88818" lon="6.77694">
        <ele>1569</ele>
        <time>2022-08-26T17:14:11Z</time>
      </trkpt>
      <trkpt lat="45.88817" lon="6.77691">
        <ele>1569</ele>
        <time>2022-08-26T17:14:13Z</time>
      </trkpt>
      <trkpt lat="45.88816" lon="6.77689">
        <ele>1571</ele>
        <time>2022-08-26T17:14:14Z</time>
      </trkpt>
      <trkpt lat="45.88816" lon="6.77687">
        <ele>1571</ele>
        <time>2022-08-26T17:14:15Z</time>
      </trkpt>
      <trkpt lat="45.88816" lon="6.77684">
        <ele>1571</ele>
        <time>2022-08-26T17:14:16Z</time>
      </trkpt>
      <trkpt lat="45.88816" lon="6.77682">
        <ele>1571</ele>
        <time>2022-08-26T17:14:17Z</time>
      </trkpt>
      <trkpt lat="45.88818" lon="6.77671">
        <ele>1571</ele>
        <time>2022-08-26T17:14:18Z</time>
      </trkpt>
      <trkpt lat="45.88819" lon="6.77667">
        <ele>1571</ele>
        <time>2022-08-26T17:14:19Z</time>
      </trkpt>
      <trkpt lat="45.8882" lon="6.77664">
        <ele>1571</ele>
        <time>2022-08-26T17:14:21Z</time>
      </trkpt>
      <trkpt lat="45.88822" lon="6.77661">
        <ele>1571</ele>
        <time>2022-08-26T17:14:22Z</time>
      </trkpt>
      <trkpt lat="45.88822" lon="6.77659">
        <ele>1571</ele>
        <time>2022-08-26T17:14:23Z</time>
      </trkpt>
      <trkpt lat="45.88822" lon="6.77657">
        <ele>1572</ele>
        <time>2022-08-26T17:14:24Z</time>
      </trkpt>
      <trkpt lat="45.88823" lon="6.77655">
        <ele>1572</ele>
        <time>2022-08-26T17:14:26Z</time>
      </trkpt>
      <trkpt lat="45.88823" lon="6.77653">
        <ele>1572</ele>
        <time>2022-08-26T17:14:27Z</time>
      </trkpt>
      <trkpt lat="45.88824" lon="6.77646">
        <ele>1573</ele>
        <time>2022-08-26T17:14:28Z</time>
      </trkpt>
      <trkpt lat="45.88825" lon="6.77637">
        <ele>1573</ele>
        <time>2022-08-26T17:14:30Z</time>
      </trkpt>
      <trkpt lat="45.88826" lon="6.77635">
        <ele>1573</ele>
        <time>2022-08-26T17:14:31Z</time>
      </trkpt>
      <trkpt lat="45.88826" lon="6.77632">
        <ele>1573</ele>
        <time>2022-08-26T17:14:32Z</time>
      </trkpt>
      <trkpt lat="45.88826" lon="6.77629">
        <ele>1573</ele>
        <time>2022-08-26T17:14:33Z</time>
      </trkpt>
      <trkpt lat="45.88827" lon="6.77627">
        <ele>1573</ele>
        <time>2022-08-26T17:14:34Z</time>
      </trkpt>
      <trkpt lat="45.88827" lon="6.77624">
        <ele>1573</ele>
        <time>2022-08-26T17:14:35Z</time>
      </trkpt>
      <trkpt lat="45.88826" lon="6.77619">
        <ele>1573</ele>
        <time>2022-08-26T17:14:37Z</time>
      </trkpt>
      <trkpt lat="45.88825" lon="6.77616">
        <ele>1574</ele>
        <time>2022-08-26T17:14:39Z</time>
      </trkpt>
      <trkpt lat="45.88823" lon="6.77613">
        <ele>1574</ele>
        <time>2022-08-26T17:14:41Z</time>
      </trkpt>
      <trkpt lat="45.88821" lon="6.77612">
        <ele>1575</ele>
        <time>2022-08-26T17:14:43Z</time>
      </trkpt>
      <trkpt lat="45.88818" lon="6.77609">
        <ele>1575</ele>
        <time>2022-08-26T17:14:45Z</time>
      </trkpt>
      <trkpt lat="45.88814" lon="6.77608">
        <ele>1576</ele>
        <time>2022-08-26T17:14:47Z</time>
      </trkpt>
      <trkpt lat="45.88812" lon="6.77607">
        <ele>1576</ele>
        <time>2022-08-26T17:14:49Z</time>
      </trkpt>
      <trkpt lat="45.88811" lon="6.77607">
        <ele>1577</ele>
        <time>2022-08-26T17:14:50Z</time>
      </trkpt>
      <trkpt lat="45.88808" lon="6.77605">
        <ele>1577</ele>
        <time>2022-08-26T17:14:52Z</time>
      </trkpt>
      <trkpt lat="45.88806" lon="6.77604">
        <ele>1578</ele>
        <time>2022-08-26T17:14:54Z</time>
      </trkpt>
      <trkpt lat="45.88804" lon="6.77602">
        <ele>1578</ele>
        <time>2022-08-26T17:14:55Z</time>
      </trkpt>
      <trkpt lat="45.88802" lon="6.776">
        <ele>1578</ele>
        <time>2022-08-26T17:14:57Z</time>
      </trkpt>
      <trkpt lat="45.888" lon="6.77598">
        <ele>1578</ele>
        <time>2022-08-26T17:14:59Z</time>
      </trkpt>
      <trkpt lat="45.88798" lon="6.77596">
        <ele>1579</ele>
        <time>2022-08-26T17:15:01Z</time>
      </trkpt>
      <trkpt lat="45.88797" lon="6.77593">
        <ele>1580</ele>
        <time>2022-08-26T17:15:03Z</time>
      </trkpt>
      <trkpt lat="45.88795" lon="6.7759">
        <ele>1580</ele>
        <time>2022-08-26T17:15:05Z</time>
      </trkpt>
      <trkpt lat="45.88794" lon="6.77587">
        <ele>1581</ele>
        <time>2022-08-26T17:15:07Z</time>
      </trkpt>
      <trkpt lat="45.88794" lon="6.77585">
        <ele>1581</ele>
        <time>2022-08-26T17:15:09Z</time>
      </trkpt>
      <trkpt lat="45.88791" lon="6.77582">
        <ele>1581</ele>
        <time>2022-08-26T17:15:11Z</time>
      </trkpt>
      <trkpt lat="45.8879" lon="6.7758">
        <ele>1581</ele>
        <time>2022-08-26T17:15:13Z</time>
      </trkpt>
      <trkpt lat="45.88788" lon="6.77576">
        <ele>1581</ele>
        <time>2022-08-26T17:15:15Z</time>
      </trkpt>
      <trkpt lat="45.88787" lon="6.77573">
        <ele>1582</ele>
        <time>2022-08-26T17:15:17Z</time>
      </trkpt>
      <trkpt lat="45.88786" lon="6.77571">
        <ele>1582</ele>
        <time>2022-08-26T17:15:19Z</time>
      </trkpt>
      <trkpt lat="45.88785" lon="6.77567">
        <ele>1582</ele>
        <time>2022-08-26T17:15:21Z</time>
      </trkpt>
      <trkpt lat="45.88784" lon="6.77563">
        <ele>1583</ele>
        <time>2022-08-26T17:15:23Z</time>
      </trkpt>
      <trkpt lat="45.88784" lon="6.77559">
        <ele>1583</ele>
        <time>2022-08-26T17:15:25Z</time>
      </trkpt>
      <trkpt lat="45.88784" lon="6.77556">
        <ele>1583</ele>
        <time>2022-08-26T17:15:27Z</time>
      </trkpt>
      <trkpt lat="45.88785" lon="6.77553">
        <ele>1583</ele>
        <time>2022-08-26T17:15:29Z</time>
      </trkpt>
      <trkpt lat="45.88786" lon="6.77549">
        <ele>1584</ele>
        <time>2022-08-26T17:15:31Z</time>
      </trkpt>
      <trkpt lat="45.88786" lon="6.77545">
        <ele>1585</ele>
        <time>2022-08-26T17:15:33Z</time>
      </trkpt>
      <trkpt lat="45.88787" lon="6.77541">
        <ele>1585</ele>
        <time>2022-08-26T17:15:35Z</time>
      </trkpt>
      <trkpt lat="45.88787" lon="6.77537">
        <ele>1586</ele>
        <time>2022-08-26T17:15:37Z</time>
      </trkpt>
      <trkpt lat="45.88787" lon="6.77534">
        <ele>1586</ele>
        <time>2022-08-26T17:15:39Z</time>
      </trkpt>
      <trkpt lat="45.88786" lon="6.7753">
        <ele>1586</ele>
        <time>2022-08-26T17:15:41Z</time>
      </trkpt>
      <trkpt lat="45.88785" lon="6.77525">
        <ele>1587</ele>
        <time>2022-08-26T17:15:44Z</time>
      </trkpt>
      <trkpt lat="45.88784" lon="6.77519">
        <ele>1587</ele>
        <time>2022-08-26T17:15:46Z</time>
      </trkpt>
      <trkpt lat="45.88784" lon="6.77518">
        <ele>1588</ele>
        <time>2022-08-26T17:15:47Z</time>
      </trkpt>
      <trkpt lat="45.88784" lon="6.77517">
        <ele>1588</ele>
        <time>2022-08-26T17:15:48Z</time>
      </trkpt>
      <trkpt lat="45.88784" lon="6.77515">
        <ele>1588</ele>
        <time>2022-08-26T17:15:49Z</time>
      </trkpt>
      <trkpt lat="45.88784" lon="6.77514">
        <ele>1588</ele>
        <time>2022-08-26T17:15:50Z</time>
      </trkpt>
      <trkpt lat="45.88784" lon="6.77513">
        <ele>1588</ele>
        <time>2022-08-26T17:15:51Z</time>
      </trkpt>
      <trkpt lat="45.88784" lon="6.77509">
        <ele>1589</ele>
        <time>2022-08-26T17:15:52Z</time>
      </trkpt>
      <trkpt lat="45.88785" lon="6.77504">
        <ele>1589</ele>
        <time>2022-08-26T17:15:55Z</time>
      </trkpt>
      <trkpt lat="45.88786" lon="6.77501">
        <ele>1589</ele>
        <time>2022-08-26T17:15:57Z</time>
      </trkpt>
      <trkpt lat="45.88787" lon="6.77497">
        <ele>1591</ele>
        <time>2022-08-26T17:15:59Z</time>
      </trkpt>
      <trkpt lat="45.88787" lon="6.77494">
        <ele>1592</ele>
        <time>2022-08-26T17:16:01Z</time>
      </trkpt>
      <trkpt lat="45.88788" lon="6.77491">
        <ele>1592</ele>
        <time>2022-08-26T17:16:03Z</time>
      </trkpt>
      <trkpt lat="45.88789" lon="6.77488">
        <ele>1592</ele>
        <time>2022-08-26T17:16:05Z</time>
      </trkpt>
      <trkpt lat="45.88791" lon="6.77484">
        <ele>1593</ele>
        <time>2022-08-26T17:16:07Z</time>
      </trkpt>
      <trkpt lat="45.88792" lon="6.7748">
        <ele>1593</ele>
        <time>2022-08-26T17:16:09Z</time>
      </trkpt>
      <trkpt lat="45.88794" lon="6.77477">
        <ele>1594</ele>
        <time>2022-08-26T17:16:11Z</time>
      </trkpt>
      <trkpt lat="45.88795" lon="6.77473">
        <ele>1594</ele>
        <time>2022-08-26T17:16:13Z</time>
      </trkpt>
      <trkpt lat="45.88797" lon="6.7747">
        <ele>1594</ele>
        <time>2022-08-26T17:16:15Z</time>
      </trkpt>
      <trkpt lat="45.88798" lon="6.77467">
        <ele>1595</ele>
        <time>2022-08-26T17:16:17Z</time>
      </trkpt>
      <trkpt lat="45.88799" lon="6.77463">
        <ele>1595</ele>
        <time>2022-08-26T17:16:19Z</time>
      </trkpt>
      <trkpt lat="45.888" lon="6.7746">
        <ele>1596</ele>
        <time>2022-08-26T17:16:21Z</time>
      </trkpt>
      <trkpt lat="45.88801" lon="6.77458">
        <ele>1596</ele>
        <time>2022-08-26T17:16:23Z</time>
      </trkpt>
      <trkpt lat="45.88802" lon="6.77455">
        <ele>1596</ele>
        <time>2022-08-26T17:16:25Z</time>
      </trkpt>
      <trkpt lat="45.88802" lon="6.77454">
        <ele>1597</ele>
        <time>2022-08-26T17:16:27Z</time>
      </trkpt>
      <trkpt lat="45.88802" lon="6.77453">
        <ele>1597</ele>
        <time>2022-08-26T17:16:28Z</time>
      </trkpt>
      <trkpt lat="45.88802" lon="6.77451">
        <ele>1597</ele>
        <time>2022-08-26T17:16:29Z</time>
      </trkpt>
      <trkpt lat="45.88802" lon="6.7745">
        <ele>1597</ele>
        <time>2022-08-26T17:16:30Z</time>
      </trkpt>
      <trkpt lat="45.88802" lon="6.77448">
        <ele>1597</ele>
        <time>2022-08-26T17:16:31Z</time>
      </trkpt>
      <trkpt lat="45.88802" lon="6.77444">
        <ele>1597</ele>
        <time>2022-08-26T17:16:33Z</time>
      </trkpt>
      <trkpt lat="45.88802" lon="6.7744">
        <ele>1598</ele>
        <time>2022-08-26T17:16:35Z</time>
      </trkpt>
      <trkpt lat="45.88801" lon="6.77437">
        <ele>1599</ele>
        <time>2022-08-26T17:16:37Z</time>
      </trkpt>
      <trkpt lat="45.88801" lon="6.77435">
        <ele>1599</ele>
        <time>2022-08-26T17:16:39Z</time>
      </trkpt>
      <trkpt lat="45.88801" lon="6.77433">
        <ele>1599</ele>
        <time>2022-08-26T17:16:40Z</time>
      </trkpt>
      <trkpt lat="45.888" lon="6.77431">
        <ele>1600</ele>
        <time>2022-08-26T17:16:41Z</time>
      </trkpt>
      <trkpt lat="45.888" lon="6.77429">
        <ele>1600</ele>
        <time>2022-08-26T17:16:43Z</time>
      </trkpt>
      <trkpt lat="45.888" lon="6.77427">
        <ele>1600</ele>
        <time>2022-08-26T17:16:44Z</time>
      </trkpt>
      <trkpt lat="45.888" lon="6.77426">
        <ele>1601</ele>
        <time>2022-08-26T17:16:45Z</time>
      </trkpt>
      <trkpt lat="45.88799" lon="6.77424">
        <ele>1601</ele>
        <time>2022-08-26T17:16:46Z</time>
      </trkpt>
      <trkpt lat="45.88799" lon="6.77422">
        <ele>1601</ele>
        <time>2022-08-26T17:16:47Z</time>
      </trkpt>
      <trkpt lat="45.88798" lon="6.77421">
        <ele>1602</ele>
        <time>2022-08-26T17:16:48Z</time>
      </trkpt>
      <trkpt lat="45.88798" lon="6.77421">
        <ele>1602</ele>
        <time>2022-08-26T17:16:49Z</time>
      </trkpt>
      <trkpt lat="45.88797" lon="6.7742">
        <ele>1602</ele>
        <time>2022-08-26T17:16:50Z</time>
      </trkpt>
      <trkpt lat="45.88796" lon="6.77419">
        <ele>1603</ele>
        <time>2022-08-26T17:16:52Z</time>
      </trkpt>
      <trkpt lat="45.88796" lon="6.77419">
        <ele>1603</ele>
        <time>2022-08-26T17:16:53Z</time>
      </trkpt>
      <trkpt lat="45.88795" lon="6.77418">
        <ele>1604</ele>
        <time>2022-08-26T17:16:54Z</time>
      </trkpt>
      <trkpt lat="45.88795" lon="6.77417">
        <ele>1604</ele>
        <time>2022-08-26T17:16:55Z</time>
      </trkpt>
      <trkpt lat="45.88794" lon="6.77417">
        <ele>1605</ele>
        <time>2022-08-26T17:16:57Z</time>
      </trkpt>
      <trkpt lat="45.88793" lon="6.77416">
        <ele>1605</ele>
        <time>2022-08-26T17:16:59Z</time>
      </trkpt>
      <trkpt lat="45.88793" lon="6.77415">
        <ele>1605</ele>
        <time>2022-08-26T17:17:00Z</time>
      </trkpt>
      <trkpt lat="45.88792" lon="6.77415">
        <ele>1605</ele>
        <time>2022-08-26T17:17:01Z</time>
      </trkpt>
      <trkpt lat="45.88791" lon="6.77414">
        <ele>1606</ele>
        <time>2022-08-26T17:17:02Z</time>
      </trkpt>
      <trkpt lat="45.88788" lon="6.77417">
        <ele>1606</ele>
        <time>2022-08-26T17:17:04Z</time>
      </trkpt>
      <trkpt lat="45.88787" lon="6.77417">
        <ele>1607</ele>
        <time>2022-08-26T17:17:05Z</time>
      </trkpt>
      <trkpt lat="45.88786" lon="6.77418">
        <ele>1607</ele>
        <time>2022-08-26T17:17:06Z</time>
      </trkpt>
      <trkpt lat="45.88785" lon="6.77418">
        <ele>1607</ele>
        <time>2022-08-26T17:17:07Z</time>
      </trkpt>
      <trkpt lat="45.88784" lon="6.77419">
        <ele>1608</ele>
        <time>2022-08-26T17:17:09Z</time>
      </trkpt>
      <trkpt lat="45.88784" lon="6.77419">
        <ele>1608</ele>
        <time>2022-08-26T17:17:11Z</time>
      </trkpt>
      <trkpt lat="45.88783" lon="6.7742">
        <ele>1608</ele>
        <time>2022-08-26T17:17:12Z</time>
      </trkpt>
      <trkpt lat="45.88782" lon="6.7742">
        <ele>1608</ele>
        <time>2022-08-26T17:17:13Z</time>
      </trkpt>
      <trkpt lat="45.88781" lon="6.77421">
        <ele>1608</ele>
        <time>2022-08-26T17:17:14Z</time>
      </trkpt>
      <trkpt lat="45.88779" lon="6.77421">
        <ele>1609</ele>
        <time>2022-08-26T17:17:16Z</time>
      </trkpt>
      <trkpt lat="45.88778" lon="6.77422">
        <ele>1609</ele>
        <time>2022-08-26T17:17:17Z</time>
      </trkpt>
      <trkpt lat="45.88776" lon="6.77422">
        <ele>1609</ele>
        <time>2022-08-26T17:17:18Z</time>
      </trkpt>
      <trkpt lat="45.88775" lon="6.77423">
        <ele>1610</ele>
        <time>2022-08-26T17:17:19Z</time>
      </trkpt>
      <trkpt lat="45.88773" lon="6.77423">
        <ele>1610</ele>
        <time>2022-08-26T17:17:21Z</time>
      </trkpt>
      <trkpt lat="45.88772" lon="6.77424">
        <ele>1610</ele>
        <time>2022-08-26T17:17:22Z</time>
      </trkpt>
      <trkpt lat="45.88771" lon="6.77424">
        <ele>1610</ele>
        <time>2022-08-26T17:17:23Z</time>
      </trkpt>
      <trkpt lat="45.88769" lon="6.77424">
        <ele>1610</ele>
        <time>2022-08-26T17:17:24Z</time>
      </trkpt>
      <trkpt lat="45.88768" lon="6.77425">
        <ele>1611</ele>
        <time>2022-08-26T17:17:25Z</time>
      </trkpt>
      <trkpt lat="45.88767" lon="6.77425">
        <ele>1611</ele>
        <time>2022-08-26T17:17:27Z</time>
      </trkpt>
      <trkpt lat="45.88766" lon="6.77425">
        <ele>1612</ele>
        <time>2022-08-26T17:17:28Z</time>
      </trkpt>
      <trkpt lat="45.88765" lon="6.77425">
        <ele>1612</ele>
        <time>2022-08-26T17:17:29Z</time>
      </trkpt>
      <trkpt lat="45.88764" lon="6.77425">
        <ele>1612</ele>
        <time>2022-08-26T17:17:30Z</time>
      </trkpt>
      <trkpt lat="45.88763" lon="6.77425">
        <ele>1612</ele>
        <time>2022-08-26T17:17:31Z</time>
      </trkpt>
      <trkpt lat="45.88761" lon="6.77426">
        <ele>1613</ele>
        <time>2022-08-26T17:17:32Z</time>
      </trkpt>
      <trkpt lat="45.8876" lon="6.77426">
        <ele>1614</ele>
        <time>2022-08-26T17:17:34Z</time>
      </trkpt>
      <trkpt lat="45.88759" lon="6.77426">
        <ele>1614</ele>
        <time>2022-08-26T17:17:35Z</time>
      </trkpt>
      <trkpt lat="45.88758" lon="6.77426">
        <ele>1614</ele>
        <time>2022-08-26T17:17:36Z</time>
      </trkpt>
      <trkpt lat="45.88756" lon="6.77426">
        <ele>1614</ele>
        <time>2022-08-26T17:17:37Z</time>
      </trkpt>
      <trkpt lat="45.88755" lon="6.77427">
        <ele>1614</ele>
        <time>2022-08-26T17:17:39Z</time>
      </trkpt>
      <trkpt lat="45.88754" lon="6.77427">
        <ele>1614</ele>
        <time>2022-08-26T17:17:40Z</time>
      </trkpt>
      <trkpt lat="45.88753" lon="6.77427">
        <ele>1615</ele>
        <time>2022-08-26T17:17:41Z</time>
      </trkpt>
      <trkpt lat="45.8875" lon="6.77427">
        <ele>1615</ele>
        <time>2022-08-26T17:17:42Z</time>
      </trkpt>
      <trkpt lat="45.88748" lon="6.77426">
        <ele>1616</ele>
        <time>2022-08-26T17:17:44Z</time>
      </trkpt>
      <trkpt lat="45.88745" lon="6.77426">
        <ele>1616</ele>
        <time>2022-08-26T17:17:45Z</time>
      </trkpt>
      <trkpt lat="45.88743" lon="6.77426">
        <ele>1617</ele>
        <time>2022-08-26T17:17:46Z</time>
      </trkpt>
      <trkpt lat="45.88742" lon="6.77426">
        <ele>1617</ele>
        <time>2022-08-26T17:17:47Z</time>
      </trkpt>
      <trkpt lat="45.88742" lon="6.77426">
        <ele>1617</ele>
        <time>2022-08-26T17:17:49Z</time>
      </trkpt>
      <trkpt lat="45.88741" lon="6.77426">
        <ele>1618</ele>
        <time>2022-08-26T17:17:50Z</time>
      </trkpt>
      <trkpt lat="45.8874" lon="6.77426">
        <ele>1618</ele>
        <time>2022-08-26T17:17:51Z</time>
      </trkpt>
      <trkpt lat="45.88739" lon="6.77425">
        <ele>1618</ele>
        <time>2022-08-26T17:17:52Z</time>
      </trkpt>
      <trkpt lat="45.88738" lon="6.77425">
        <ele>1618</ele>
        <time>2022-08-26T17:17:54Z</time>
      </trkpt>
      <trkpt lat="45.88738" lon="6.77425">
        <ele>1618</ele>
        <time>2022-08-26T17:17:55Z</time>
      </trkpt>
      <trkpt lat="45.88737" lon="6.77425">
        <ele>1619</ele>
        <time>2022-08-26T17:17:56Z</time>
      </trkpt>
      <trkpt lat="45.88736" lon="6.77425">
        <ele>1619</ele>
        <time>2022-08-26T17:17:57Z</time>
      </trkpt>
      <trkpt lat="45.88735" lon="6.77425">
        <ele>1619</ele>
        <time>2022-08-26T17:17:59Z</time>
      </trkpt>
      <trkpt lat="45.88735" lon="6.77425">
        <ele>1620</ele>
        <time>2022-08-26T17:18:01Z</time>
      </trkpt>
      <trkpt lat="45.88734" lon="6.77425">
        <ele>1621</ele>
        <time>2022-08-26T17:18:02Z</time>
      </trkpt>
      <trkpt lat="45.88733" lon="6.77426">
        <ele>1621</ele>
        <time>2022-08-26T17:18:03Z</time>
      </trkpt>
      <trkpt lat="45.88732" lon="6.77426">
        <ele>1622</ele>
        <time>2022-08-26T17:18:04Z</time>
      </trkpt>
      <trkpt lat="45.88732" lon="6.77426">
        <ele>1622</ele>
        <time>2022-08-26T17:18:06Z</time>
      </trkpt>
      <trkpt lat="45.88731" lon="6.77426">
        <ele>1622</ele>
        <time>2022-08-26T17:18:08Z</time>
      </trkpt>
      <trkpt lat="45.8873" lon="6.77426">
        <ele>1623</ele>
        <time>2022-08-26T17:18:09Z</time>
      </trkpt>
      <trkpt lat="45.8873" lon="6.77426">
        <ele>1623</ele>
        <time>2022-08-26T17:18:10Z</time>
      </trkpt>
      <trkpt lat="45.88729" lon="6.77426">
        <ele>1623</ele>
        <time>2022-08-26T17:18:11Z</time>
      </trkpt>
      <trkpt lat="45.88728" lon="6.77426">
        <ele>1624</ele>
        <time>2022-08-26T17:18:13Z</time>
      </trkpt>
      <trkpt lat="45.88728" lon="6.77426">
        <ele>1624</ele>
        <time>2022-08-26T17:18:14Z</time>
      </trkpt>
      <trkpt lat="45.88727" lon="6.77427">
        <ele>1624</ele>
        <time>2022-08-26T17:18:15Z</time>
      </trkpt>
      <trkpt lat="45.88726" lon="6.77427">
        <ele>1624</ele>
        <time>2022-08-26T17:18:16Z</time>
      </trkpt>
      <trkpt lat="45.88726" lon="6.77427">
        <ele>1625</ele>
        <time>2022-08-26T17:18:18Z</time>
      </trkpt>
      <trkpt lat="45.88725" lon="6.77427">
        <ele>1625</ele>
        <time>2022-08-26T17:18:19Z</time>
      </trkpt>
      <trkpt lat="45.88724" lon="6.77427">
        <ele>1625</ele>
        <time>2022-08-26T17:18:20Z</time>
      </trkpt>
      <trkpt lat="45.88723" lon="6.77428">
        <ele>1626</ele>
        <time>2022-08-26T17:18:21Z</time>
      </trkpt>
      <trkpt lat="45.88721" lon="6.77428">
        <ele>1627</ele>
        <time>2022-08-26T17:18:23Z</time>
      </trkpt>
      <trkpt lat="45.8872" lon="6.77429">
        <ele>1627</ele>
        <time>2022-08-26T17:18:24Z</time>
      </trkpt>
      <trkpt lat="45.88719" lon="6.77429">
        <ele>1627</ele>
        <time>2022-08-26T17:18:25Z</time>
      </trkpt>
      <trkpt lat="45.88717" lon="6.7743">
        <ele>1627</ele>
        <time>2022-08-26T17:18:26Z</time>
      </trkpt>
      <trkpt lat="45.88716" lon="6.7743">
        <ele>1627</ele>
        <time>2022-08-26T17:18:28Z</time>
      </trkpt>
      <trkpt lat="45.88714" lon="6.77431">
        <ele>1628</ele>
        <time>2022-08-26T17:18:29Z</time>
      </trkpt>
      <trkpt lat="45.88714" lon="6.77431">
        <ele>1628</ele>
        <time>2022-08-26T17:18:30Z</time>
      </trkpt>
      <trkpt lat="45.88713" lon="6.77432">
        <ele>1628</ele>
        <time>2022-08-26T17:18:31Z</time>
      </trkpt>
      <trkpt lat="45.88712" lon="6.77432">
        <ele>1628</ele>
        <time>2022-08-26T17:18:33Z</time>
      </trkpt>
      <trkpt lat="45.88712" lon="6.77433">
        <ele>1628</ele>
        <time>2022-08-26T17:18:34Z</time>
      </trkpt>
      <trkpt lat="45.88711" lon="6.77433">
        <ele>1629</ele>
        <time>2022-08-26T17:18:35Z</time>
      </trkpt>
      <trkpt lat="45.88703" lon="6.77437">
        <ele>1629</ele>
        <time>2022-08-26T17:18:37Z</time>
      </trkpt>
      <trkpt lat="45.88702" lon="6.77437">
        <ele>1629</ele>
        <time>2022-08-26T17:18:38Z</time>
      </trkpt>
      <trkpt lat="45.887" lon="6.77436">
        <ele>1630</ele>
        <time>2022-08-26T17:18:39Z</time>
      </trkpt>
      <trkpt lat="45.88698" lon="6.77436">
        <ele>1630</ele>
        <time>2022-08-26T17:18:41Z</time>
      </trkpt>
      <trkpt lat="45.88697" lon="6.77436">
        <ele>1630</ele>
        <time>2022-08-26T17:18:42Z</time>
      </trkpt>
      <trkpt lat="45.88695" lon="6.77436">
        <ele>1630</ele>
        <time>2022-08-26T17:18:43Z</time>
      </trkpt>
      <trkpt lat="45.88686" lon="6.77434">
        <ele>1632</ele>
        <time>2022-08-26T17:18:53Z</time>
      </trkpt>
      <trkpt lat="45.88685" lon="6.77434">
        <ele>1632</ele>
        <time>2022-08-26T17:18:54Z</time>
      </trkpt>
      <trkpt lat="45.88684" lon="6.77434">
        <ele>1633</ele>
        <time>2022-08-26T17:18:56Z</time>
      </trkpt>
      <trkpt lat="45.88684" lon="6.77435">
        <ele>1633</ele>
        <time>2022-08-26T17:18:57Z</time>
      </trkpt>
      <trkpt lat="45.88683" lon="6.77435">
        <ele>1633</ele>
        <time>2022-08-26T17:18:58Z</time>
      </trkpt>
      <trkpt lat="45.88682" lon="6.77436">
        <ele>1634</ele>
        <time>2022-08-26T17:19:00Z</time>
      </trkpt>
      <trkpt lat="45.88681" lon="6.77436">
        <ele>1634</ele>
        <time>2022-08-26T17:19:01Z</time>
      </trkpt>
      <trkpt lat="45.88681" lon="6.77437">
        <ele>1635</ele>
        <time>2022-08-26T17:19:02Z</time>
      </trkpt>
      <trkpt lat="45.8868" lon="6.77437">
        <ele>1635</ele>
        <time>2022-08-26T17:19:03Z</time>
      </trkpt>
      <trkpt lat="45.88679" lon="6.77438">
        <ele>1635</ele>
        <time>2022-08-26T17:19:05Z</time>
      </trkpt>
      <trkpt lat="45.88679" lon="6.77438">
        <ele>1636</ele>
        <time>2022-08-26T17:19:06Z</time>
      </trkpt>
      <trkpt lat="45.88678" lon="6.77439">
        <ele>1636</ele>
        <time>2022-08-26T17:19:07Z</time>
      </trkpt>
      <trkpt lat="45.88677" lon="6.77439">
        <ele>1636</ele>
        <time>2022-08-26T17:19:08Z</time>
      </trkpt>
      <trkpt lat="45.88666" lon="6.77439">
        <ele>1638</ele>
        <time>2022-08-26T17:19:13Z</time>
      </trkpt>
      <trkpt lat="45.88665" lon="6.77438">
        <ele>1638</ele>
        <time>2022-08-26T17:19:15Z</time>
      </trkpt>
      <trkpt lat="45.88664" lon="6.77438">
        <ele>1639</ele>
        <time>2022-08-26T17:19:16Z</time>
      </trkpt>
      <trkpt lat="45.88663" lon="6.77438">
        <ele>1639</ele>
        <time>2022-08-26T17:19:17Z</time>
      </trkpt>
      <trkpt lat="45.88662" lon="6.77437">
        <ele>1639</ele>
        <time>2022-08-26T17:19:19Z</time>
      </trkpt>
      <trkpt lat="45.88661" lon="6.77437">
        <ele>1640</ele>
        <time>2022-08-26T17:19:20Z</time>
      </trkpt>
      <trkpt lat="45.88656" lon="6.77435">
        <ele>1640</ele>
        <time>2022-08-26T17:19:21Z</time>
      </trkpt>
      <trkpt lat="45.88655" lon="6.77433">
        <ele>1640</ele>
        <time>2022-08-26T17:19:22Z</time>
      </trkpt>
      <trkpt lat="45.88649" lon="6.77426">
        <ele>1643</ele>
        <time>2022-08-26T17:19:31Z</time>
      </trkpt>
      <trkpt lat="45.88648" lon="6.77421">
        <ele>1643</ele>
        <time>2022-08-26T17:19:34Z</time>
      </trkpt>
      <trkpt lat="45.88648" lon="6.77418">
        <ele>1644</ele>
        <time>2022-08-26T17:19:36Z</time>
      </trkpt>
      <trkpt lat="45.88648" lon="6.77416">
        <ele>1645</ele>
        <time>2022-08-26T17:19:38Z</time>
      </trkpt>
      <trkpt lat="45.88648" lon="6.77412">
        <ele>1645</ele>
        <time>2022-08-26T17:19:40Z</time>
      </trkpt>
      <trkpt lat="45.88648" lon="6.77409">
        <ele>1646</ele>
        <time>2022-08-26T17:19:42Z</time>
      </trkpt>
      <trkpt lat="45.88649" lon="6.77407">
        <ele>1646</ele>
        <time>2022-08-26T17:19:44Z</time>
      </trkpt>
      <trkpt lat="45.8865" lon="6.77404">
        <ele>1646</ele>
        <time>2022-08-26T17:19:46Z</time>
      </trkpt>
      <trkpt lat="45.8865" lon="6.77401">
        <ele>1647</ele>
        <time>2022-08-26T17:19:48Z</time>
      </trkpt>
      <trkpt lat="45.88652" lon="6.77398">
        <ele>1647</ele>
        <time>2022-08-26T17:19:51Z</time>
      </trkpt>
      <trkpt lat="45.88653" lon="6.77394">
        <ele>1649</ele>
        <time>2022-08-26T17:19:54Z</time>
      </trkpt>
      <trkpt lat="45.88653" lon="6.77391">
        <ele>1649</ele>
        <time>2022-08-26T17:19:56Z</time>
      </trkpt>
      <trkpt lat="45.88655" lon="6.77388">
        <ele>1650</ele>
        <time>2022-08-26T17:19:59Z</time>
      </trkpt>
      <trkpt lat="45.88657" lon="6.77386">
        <ele>1651</ele>
        <time>2022-08-26T17:20:04Z</time>
      </trkpt>
      <trkpt lat="45.88659" lon="6.77385">
        <ele>1653</ele>
        <time>2022-08-26T17:20:06Z</time>
      </trkpt>
      <trkpt lat="45.8866" lon="6.77384">
        <ele>1653</ele>
        <time>2022-08-26T17:20:08Z</time>
      </trkpt>
      <trkpt lat="45.88661" lon="6.77383">
        <ele>1653</ele>
        <time>2022-08-26T17:20:09Z</time>
      </trkpt>
      <trkpt lat="45.88663" lon="6.77381">
        <ele>1653</ele>
        <time>2022-08-26T17:20:10Z</time>
      </trkpt>
      <trkpt lat="45.88664" lon="6.7738">
        <ele>1653</ele>
        <time>2022-08-26T17:20:12Z</time>
      </trkpt>
      <trkpt lat="45.88665" lon="6.77379">
        <ele>1653</ele>
        <time>2022-08-26T17:20:13Z</time>
      </trkpt>
      <trkpt lat="45.88666" lon="6.77378">
        <ele>1654</ele>
        <time>2022-08-26T17:20:14Z</time>
      </trkpt>
      <trkpt lat="45.88667" lon="6.77377">
        <ele>1655</ele>
        <time>2022-08-26T17:20:16Z</time>
      </trkpt>
      <trkpt lat="45.88668" lon="6.77376">
        <ele>1655</ele>
        <time>2022-08-26T17:20:17Z</time>
      </trkpt>
      <trkpt lat="45.88669" lon="6.77375">
        <ele>1655</ele>
        <time>2022-08-26T17:20:18Z</time>
      </trkpt>
      <trkpt lat="45.8867" lon="6.77374">
        <ele>1655</ele>
        <time>2022-08-26T17:20:19Z</time>
      </trkpt>
      <trkpt lat="45.88671" lon="6.77373">
        <ele>1656</ele>
        <time>2022-08-26T17:20:21Z</time>
      </trkpt>
      <trkpt lat="45.88672" lon="6.77372">
        <ele>1656</ele>
        <time>2022-08-26T17:20:22Z</time>
      </trkpt>
      <trkpt lat="45.88673" lon="6.77371">
        <ele>1656</ele>
        <time>2022-08-26T17:20:23Z</time>
      </trkpt>
      <trkpt lat="45.88677" lon="6.77368">
        <ele>1658</ele>
        <time>2022-08-26T17:20:27Z</time>
      </trkpt>
      <trkpt lat="45.88683" lon="6.77367">
        <ele>1660</ele>
        <time>2022-08-26T17:20:35Z</time>
      </trkpt>
      <trkpt lat="45.88685" lon="6.77366">
        <ele>1660</ele>
        <time>2022-08-26T17:20:37Z</time>
      </trkpt>
      <trkpt lat="45.88687" lon="6.77365">
        <ele>1660</ele>
        <time>2022-08-26T17:20:39Z</time>
      </trkpt>
      <trkpt lat="45.88688" lon="6.77363">
        <ele>1661</ele>
        <time>2022-08-26T17:20:41Z</time>
      </trkpt>
      <trkpt lat="45.8869" lon="6.77361">
        <ele>1662</ele>
        <time>2022-08-26T17:20:43Z</time>
      </trkpt>
      <trkpt lat="45.88692" lon="6.7736">
        <ele>1662</ele>
        <time>2022-08-26T17:20:45Z</time>
      </trkpt>
      <trkpt lat="45.88693" lon="6.77358">
        <ele>1664</ele>
        <time>2022-08-26T17:20:48Z</time>
      </trkpt>
      <trkpt lat="45.88695" lon="6.77356">
        <ele>1664</ele>
        <time>2022-08-26T17:20:50Z</time>
      </trkpt>
      <trkpt lat="45.88694" lon="6.77353">
        <ele>1665</ele>
        <time>2022-08-26T17:20:53Z</time>
      </trkpt>
      <trkpt lat="45.88693" lon="6.77351">
        <ele>1666</ele>
        <time>2022-08-26T17:20:56Z</time>
      </trkpt>
      <trkpt lat="45.88692" lon="6.77349">
        <ele>1667</ele>
        <time>2022-08-26T17:21:00Z</time>
      </trkpt>
      <trkpt lat="45.88688" lon="6.77349">
        <ele>1667</ele>
        <time>2022-08-26T17:21:05Z</time>
      </trkpt>
      <trkpt lat="45.88685" lon="6.77348">
        <ele>1669</ele>
        <time>2022-08-26T17:21:09Z</time>
      </trkpt>
      <trkpt lat="45.88683" lon="6.77348">
        <ele>1669</ele>
        <time>2022-08-26T17:21:11Z</time>
      </trkpt>
      <trkpt lat="45.88681" lon="6.77348">
        <ele>1670</ele>
        <time>2022-08-26T17:21:13Z</time>
      </trkpt>
      <trkpt lat="45.88679" lon="6.77349">
        <ele>1670</ele>
        <time>2022-08-26T17:21:15Z</time>
      </trkpt>
      <trkpt lat="45.88677" lon="6.77347">
        <ele>1672</ele>
        <time>2022-08-26T17:21:19Z</time>
      </trkpt>
      <trkpt lat="45.88676" lon="6.77346">
        <ele>1672</ele>
        <time>2022-08-26T17:21:21Z</time>
      </trkpt>
      <trkpt lat="45.88674" lon="6.77344">
        <ele>1673</ele>
        <time>2022-08-26T17:21:24Z</time>
      </trkpt>
      <trkpt lat="45.88672" lon="6.77342">
        <ele>1674</ele>
        <time>2022-08-26T17:21:27Z</time>
      </trkpt>
      <trkpt lat="45.88671" lon="6.7734">
        <ele>1675</ele>
        <time>2022-08-26T17:21:30Z</time>
      </trkpt>
      <trkpt lat="45.8867" lon="6.77339">
        <ele>1675</ele>
        <time>2022-08-26T17:21:31Z</time>
      </trkpt>
      <trkpt lat="45.88668" lon="6.77337">
        <ele>1675</ele>
        <time>2022-08-26T17:21:32Z</time>
      </trkpt>
      <trkpt lat="45.88667" lon="6.77336">
        <ele>1675</ele>
        <time>2022-08-26T17:21:33Z</time>
      </trkpt>
      <trkpt lat="45.88666" lon="6.77334">
        <ele>1675</ele>
        <time>2022-08-26T17:21:35Z</time>
      </trkpt>
      <trkpt lat="45.88665" lon="6.77333">
        <ele>1676</ele>
        <time>2022-08-26T17:21:36Z</time>
      </trkpt>
      <trkpt lat="45.88664" lon="6.77332">
        <ele>1676</ele>
        <time>2022-08-26T17:21:37Z</time>
      </trkpt>
      <trkpt lat="45.88662" lon="6.77331">
        <ele>1676</ele>
        <time>2022-08-26T17:21:38Z</time>
      </trkpt>
      <trkpt lat="45.88661" lon="6.77331">
        <ele>1676</ele>
        <time>2022-08-26T17:21:40Z</time>
      </trkpt>
      <trkpt lat="45.8866" lon="6.7733">
        <ele>1676</ele>
        <time>2022-08-26T17:21:41Z</time>
      </trkpt>
      <trkpt lat="45.88659" lon="6.7733">
        <ele>1676</ele>
        <time>2022-08-26T17:21:42Z</time>
      </trkpt>
      <trkpt lat="45.88658" lon="6.77329">
        <ele>1676</ele>
        <time>2022-08-26T17:21:43Z</time>
      </trkpt>
      <trkpt lat="45.88656" lon="6.77328">
        <ele>1676</ele>
        <time>2022-08-26T17:21:44Z</time>
      </trkpt>
      <trkpt lat="45.88655" lon="6.77328">
        <ele>1676</ele>
        <time>2022-08-26T17:21:45Z</time>
      </trkpt>
      <trkpt lat="45.88653" lon="6.77326">
        <ele>1677</ele>
        <time>2022-08-26T17:21:47Z</time>
      </trkpt>
      <trkpt lat="45.88651" lon="6.77325">
        <ele>1677</ele>
        <time>2022-08-26T17:21:48Z</time>
      </trkpt>
      <trkpt lat="45.88649" lon="6.77324">
        <ele>1678</ele>
        <time>2022-08-26T17:21:49Z</time>
      </trkpt>
      <trkpt lat="45.88647" lon="6.77321">
        <ele>1679</ele>
        <time>2022-08-26T17:21:51Z</time>
      </trkpt>
      <trkpt lat="45.88645" lon="6.7732">
        <ele>1679</ele>
        <time>2022-08-26T17:21:53Z</time>
      </trkpt>
      <trkpt lat="45.88642" lon="6.77319">
        <ele>1679</ele>
        <time>2022-08-26T17:21:55Z</time>
      </trkpt>
      <trkpt lat="45.8864" lon="6.77318">
        <ele>1679</ele>
        <time>2022-08-26T17:21:57Z</time>
      </trkpt>
      <trkpt lat="45.88638" lon="6.77316">
        <ele>1680</ele>
        <time>2022-08-26T17:21:59Z</time>
      </trkpt>
      <trkpt lat="45.88636" lon="6.77313">
        <ele>1680</ele>
        <time>2022-08-26T17:22:01Z</time>
      </trkpt>
      <trkpt lat="45.88635" lon="6.77311">
        <ele>1680</ele>
        <time>2022-08-26T17:22:02Z</time>
      </trkpt>
      <trkpt lat="45.88634" lon="6.77308">
        <ele>1680</ele>
        <time>2022-08-26T17:22:03Z</time>
      </trkpt>
      <trkpt lat="45.88634" lon="6.77306">
        <ele>1680</ele>
        <time>2022-08-26T17:22:04Z</time>
      </trkpt>
      <trkpt lat="45.88632" lon="6.77303">
        <ele>1680</ele>
        <time>2022-08-26T17:22:05Z</time>
      </trkpt>
      <trkpt lat="45.88631" lon="6.773">
        <ele>1680</ele>
        <time>2022-08-26T17:22:06Z</time>
      </trkpt>
      <trkpt lat="45.88629" lon="6.77296">
        <ele>1680</ele>
        <time>2022-08-26T17:22:07Z</time>
      </trkpt>
      <trkpt lat="45.88629" lon="6.77295">
        <ele>1680</ele>
        <time>2022-08-26T17:22:08Z</time>
      </trkpt>
      <trkpt lat="45.88628" lon="6.77292">
        <ele>1681</ele>
        <time>2022-08-26T17:22:09Z</time>
      </trkpt>
      <trkpt lat="45.88627" lon="6.7729">
        <ele>1681</ele>
        <time>2022-08-26T17:22:10Z</time>
      </trkpt>
      <trkpt lat="45.88625" lon="6.77288">
        <ele>1681</ele>
        <time>2022-08-26T17:22:11Z</time>
      </trkpt>
      <trkpt lat="45.88624" lon="6.77286">
        <ele>1681</ele>
        <time>2022-08-26T17:22:12Z</time>
      </trkpt>
      <trkpt lat="45.88622" lon="6.77284">
        <ele>1681</ele>
        <time>2022-08-26T17:22:13Z</time>
      </trkpt>
      <trkpt lat="45.88621" lon="6.77282">
        <ele>1681</ele>
        <time>2022-08-26T17:22:14Z</time>
      </trkpt>
      <trkpt lat="45.8862" lon="6.7728">
        <ele>1682</ele>
        <time>2022-08-26T17:22:15Z</time>
      </trkpt>
      <trkpt lat="45.88618" lon="6.77276">
        <ele>1682</ele>
        <time>2022-08-26T17:22:17Z</time>
      </trkpt>
      <trkpt lat="45.88616" lon="6.77274">
        <ele>1682</ele>
        <time>2022-08-26T17:22:19Z</time>
      </trkpt>
      <trkpt lat="45.88613" lon="6.77272">
        <ele>1683</ele>
        <time>2022-08-26T17:22:21Z</time>
      </trkpt>
      <trkpt lat="45.88612" lon="6.7727">
        <ele>1683</ele>
        <time>2022-08-26T17:22:23Z</time>
      </trkpt>
      <trkpt lat="45.8861" lon="6.77269">
        <ele>1684</ele>
        <time>2022-08-26T17:22:25Z</time>
      </trkpt>
      <trkpt lat="45.88608" lon="6.77267">
        <ele>1684</ele>
        <time>2022-08-26T17:22:27Z</time>
      </trkpt>
      <trkpt lat="45.88606" lon="6.77265">
        <ele>1684</ele>
        <time>2022-08-26T17:22:29Z</time>
      </trkpt>
      <trkpt lat="45.88603" lon="6.77264">
        <ele>1685</ele>
        <time>2022-08-26T17:22:31Z</time>
      </trkpt>
      <trkpt lat="45.88601" lon="6.77261">
        <ele>1685</ele>
        <time>2022-08-26T17:22:33Z</time>
      </trkpt>
      <trkpt lat="45.88599" lon="6.77259">
        <ele>1685</ele>
        <time>2022-08-26T17:22:35Z</time>
      </trkpt>
      <trkpt lat="45.88597" lon="6.77257">
        <ele>1685</ele>
        <time>2022-08-26T17:22:37Z</time>
      </trkpt>
      <trkpt lat="45.88594" lon="6.77255">
        <ele>1686</ele>
        <time>2022-08-26T17:22:39Z</time>
      </trkpt>
      <trkpt lat="45.88593" lon="6.77252">
        <ele>1686</ele>
        <time>2022-08-26T17:22:41Z</time>
      </trkpt>
      <trkpt lat="45.88593" lon="6.77248">
        <ele>1686</ele>
        <time>2022-08-26T17:22:43Z</time>
      </trkpt>
      <trkpt lat="45.88592" lon="6.77244">
        <ele>1687</ele>
        <time>2022-08-26T17:22:45Z</time>
      </trkpt>
      <trkpt lat="45.88592" lon="6.7724">
        <ele>1688</ele>
        <time>2022-08-26T17:22:47Z</time>
      </trkpt>
      <trkpt lat="45.88592" lon="6.77237">
        <ele>1688</ele>
        <time>2022-08-26T17:22:49Z</time>
      </trkpt>
      <trkpt lat="45.88594" lon="6.77232">
        <ele>1689</ele>
        <time>2022-08-26T17:22:51Z</time>
      </trkpt>
      <trkpt lat="45.88595" lon="6.77228">
        <ele>1689</ele>
        <time>2022-08-26T17:22:53Z</time>
      </trkpt>
      <trkpt lat="45.88596" lon="6.77225">
        <ele>1689</ele>
        <time>2022-08-26T17:22:55Z</time>
      </trkpt>
      <trkpt lat="45.88596" lon="6.77221">
        <ele>1689</ele>
        <time>2022-08-26T17:22:57Z</time>
      </trkpt>
      <trkpt lat="45.88597" lon="6.77218">
        <ele>1690</ele>
        <time>2022-08-26T17:22:59Z</time>
      </trkpt>
      <trkpt lat="45.88599" lon="6.77214">
        <ele>1690</ele>
        <time>2022-08-26T17:23:01Z</time>
      </trkpt>
      <trkpt lat="45.886" lon="6.7721">
        <ele>1690</ele>
        <time>2022-08-26T17:23:03Z</time>
      </trkpt>
      <trkpt lat="45.886" lon="6.77208">
        <ele>1690</ele>
        <time>2022-08-26T17:23:04Z</time>
      </trkpt>
      <trkpt lat="45.886" lon="6.77203">
        <ele>1690</ele>
        <time>2022-08-26T17:23:06Z</time>
      </trkpt>
      <trkpt lat="45.88599" lon="6.772">
        <ele>1691</ele>
        <time>2022-08-26T17:23:08Z</time>
      </trkpt>
      <trkpt lat="45.88599" lon="6.77196">
        <ele>1691</ele>
        <time>2022-08-26T17:23:10Z</time>
      </trkpt>
      <trkpt lat="45.88598" lon="6.77193">
        <ele>1692</ele>
        <time>2022-08-26T17:23:12Z</time>
      </trkpt>
      <trkpt lat="45.88597" lon="6.7719">
        <ele>1692</ele>
        <time>2022-08-26T17:23:14Z</time>
      </trkpt>
      <trkpt lat="45.88597" lon="6.77186">
        <ele>1692</ele>
        <time>2022-08-26T17:23:16Z</time>
      </trkpt>
      <trkpt lat="45.88597" lon="6.77182">
        <ele>1693</ele>
        <time>2022-08-26T17:23:18Z</time>
      </trkpt>
      <trkpt lat="45.88596" lon="6.77178">
        <ele>1694</ele>
        <time>2022-08-26T17:23:20Z</time>
      </trkpt>
      <trkpt lat="45.88595" lon="6.77175">
        <ele>1694</ele>
        <time>2022-08-26T17:23:22Z</time>
      </trkpt>
      <trkpt lat="45.88594" lon="6.77171">
        <ele>1695</ele>
        <time>2022-08-26T17:23:24Z</time>
      </trkpt>
      <trkpt lat="45.88594" lon="6.77168">
        <ele>1695</ele>
        <time>2022-08-26T17:23:26Z</time>
      </trkpt>
      <trkpt lat="45.88592" lon="6.77164">
        <ele>1695</ele>
        <time>2022-08-26T17:23:28Z</time>
      </trkpt>
      <trkpt lat="45.88591" lon="6.77161">
        <ele>1695</ele>
        <time>2022-08-26T17:23:30Z</time>
      </trkpt>
      <trkpt lat="45.88589" lon="6.77159">
        <ele>1696</ele>
        <time>2022-08-26T17:23:32Z</time>
      </trkpt>
      <trkpt lat="45.88587" lon="6.77156">
        <ele>1696</ele>
        <time>2022-08-26T17:23:34Z</time>
      </trkpt>
      <trkpt lat="45.88586" lon="6.77153">
        <ele>1696</ele>
        <time>2022-08-26T17:23:36Z</time>
      </trkpt>
      <trkpt lat="45.88584" lon="6.7715">
        <ele>1696</ele>
        <time>2022-08-26T17:23:38Z</time>
      </trkpt>
      <trkpt lat="45.88582" lon="6.77148">
        <ele>1697</ele>
        <time>2022-08-26T17:23:40Z</time>
      </trkpt>
      <trkpt lat="45.8858" lon="6.77146">
        <ele>1697</ele>
        <time>2022-08-26T17:23:42Z</time>
      </trkpt>
      <trkpt lat="45.88578" lon="6.77142">
        <ele>1697</ele>
        <time>2022-08-26T17:23:44Z</time>
      </trkpt>
      <trkpt lat="45.88577" lon="6.77141">
        <ele>1697</ele>
        <time>2022-08-26T17:23:45Z</time>
      </trkpt>
      <trkpt lat="45.88575" lon="6.77139">
        <ele>1698</ele>
        <time>2022-08-26T17:23:46Z</time>
      </trkpt>
      <trkpt lat="45.88573" lon="6.77136">
        <ele>1699</ele>
        <time>2022-08-26T17:23:48Z</time>
      </trkpt>
      <trkpt lat="45.88573" lon="6.77133">
        <ele>1699</ele>
        <time>2022-08-26T17:23:50Z</time>
      </trkpt>
      <trkpt lat="45.88573" lon="6.77129">
        <ele>1700</ele>
        <time>2022-08-26T17:23:52Z</time>
      </trkpt>
      <trkpt lat="45.88574" lon="6.77126">
        <ele>1701</ele>
        <time>2022-08-26T17:23:54Z</time>
      </trkpt>
      <trkpt lat="45.88576" lon="6.77122">
        <ele>1701</ele>
        <time>2022-08-26T17:23:56Z</time>
      </trkpt>
      <trkpt lat="45.88578" lon="6.77119">
        <ele>1701</ele>
        <time>2022-08-26T17:23:58Z</time>
      </trkpt>
      <trkpt lat="45.88579" lon="6.77116">
        <ele>1701</ele>
        <time>2022-08-26T17:24:00Z</time>
      </trkpt>
      <trkpt lat="45.88581" lon="6.77114">
        <ele>1702</ele>
        <time>2022-08-26T17:24:02Z</time>
      </trkpt>
      <trkpt lat="45.88583" lon="6.77113">
        <ele>1702</ele>
        <time>2022-08-26T17:24:04Z</time>
      </trkpt>
      <trkpt lat="45.88586" lon="6.77112">
        <ele>1703</ele>
        <time>2022-08-26T17:24:06Z</time>
      </trkpt>
      <trkpt lat="45.88588" lon="6.77111">
        <ele>1703</ele>
        <time>2022-08-26T17:24:08Z</time>
      </trkpt>
      <trkpt lat="45.8859" lon="6.7711">
        <ele>1703</ele>
        <time>2022-08-26T17:24:10Z</time>
      </trkpt>
      <trkpt lat="45.88593" lon="6.7711">
        <ele>1705</ele>
        <time>2022-08-26T17:24:12Z</time>
      </trkpt>
      <trkpt lat="45.88595" lon="6.77108">
        <ele>1705</ele>
        <time>2022-08-26T17:24:14Z</time>
      </trkpt>
      <trkpt lat="45.88598" lon="6.77108">
        <ele>1705</ele>
        <time>2022-08-26T17:24:16Z</time>
      </trkpt>
      <trkpt lat="45.88601" lon="6.77107">
        <ele>1706</ele>
        <time>2022-08-26T17:24:18Z</time>
      </trkpt>
      <trkpt lat="45.88603" lon="6.77106">
        <ele>1706</ele>
        <time>2022-08-26T17:24:20Z</time>
      </trkpt>
      <trkpt lat="45.88606" lon="6.77105">
        <ele>1706</ele>
        <time>2022-08-26T17:24:22Z</time>
      </trkpt>
      <trkpt lat="45.88608" lon="6.77105">
        <ele>1707</ele>
        <time>2022-08-26T17:24:24Z</time>
      </trkpt>
      <trkpt lat="45.88611" lon="6.77105">
        <ele>1707</ele>
        <time>2022-08-26T17:24:26Z</time>
      </trkpt>
      <trkpt lat="45.88614" lon="6.77105">
        <ele>1708</ele>
        <time>2022-08-26T17:24:28Z</time>
      </trkpt>
      <trkpt lat="45.88616" lon="6.77105">
        <ele>1708</ele>
        <time>2022-08-26T17:24:30Z</time>
      </trkpt>
      <trkpt lat="45.88618" lon="6.77104">
        <ele>1708</ele>
        <time>2022-08-26T17:24:32Z</time>
      </trkpt>
      <trkpt lat="45.88621" lon="6.77103">
        <ele>1709</ele>
        <time>2022-08-26T17:24:34Z</time>
      </trkpt>
      <trkpt lat="45.88623" lon="6.77102">
        <ele>1709</ele>
        <time>2022-08-26T17:24:36Z</time>
      </trkpt>
      <trkpt lat="45.88626" lon="6.77101">
        <ele>1709</ele>
        <time>2022-08-26T17:24:38Z</time>
      </trkpt>
      <trkpt lat="45.88629" lon="6.77101">
        <ele>1710</ele>
        <time>2022-08-26T17:24:40Z</time>
      </trkpt>
      <trkpt lat="45.88631" lon="6.771">
        <ele>1710</ele>
        <time>2022-08-26T17:24:42Z</time>
      </trkpt>
      <trkpt lat="45.88634" lon="6.771">
        <ele>1710</ele>
        <time>2022-08-26T17:24:44Z</time>
      </trkpt>
      <trkpt lat="45.88636" lon="6.77099">
        <ele>1711</ele>
        <time>2022-08-26T17:24:46Z</time>
      </trkpt>
      <trkpt lat="45.88639" lon="6.77098">
        <ele>1711</ele>
        <time>2022-08-26T17:24:48Z</time>
      </trkpt>
      <trkpt lat="45.88641" lon="6.77097">
        <ele>1711</ele>
        <time>2022-08-26T17:24:50Z</time>
      </trkpt>
      <trkpt lat="45.88643" lon="6.77096">
        <ele>1711</ele>
        <time>2022-08-26T17:24:52Z</time>
      </trkpt>
      <trkpt lat="45.88645" lon="6.77095">
        <ele>1712</ele>
        <time>2022-08-26T17:24:54Z</time>
      </trkpt>
      <trkpt lat="45.88648" lon="6.77095">
        <ele>1712</ele>
        <time>2022-08-26T17:24:56Z</time>
      </trkpt>
      <trkpt lat="45.88651" lon="6.77095">
        <ele>1713</ele>
        <time>2022-08-26T17:24:58Z</time>
      </trkpt>
      <trkpt lat="45.88653" lon="6.77095">
        <ele>1713</ele>
        <time>2022-08-26T17:25:00Z</time>
      </trkpt>
      <trkpt lat="45.88656" lon="6.77095">
        <ele>1714</ele>
        <time>2022-08-26T17:25:02Z</time>
      </trkpt>
      <trkpt lat="45.88658" lon="6.77096">
        <ele>1715</ele>
        <time>2022-08-26T17:25:04Z</time>
      </trkpt>
      <trkpt lat="45.88661" lon="6.77097">
        <ele>1715</ele>
        <time>2022-08-26T17:25:07Z</time>
      </trkpt>
      <trkpt lat="45.88663" lon="6.77097">
        <ele>1716</ele>
        <time>2022-08-26T17:25:09Z</time>
      </trkpt>
      <trkpt lat="45.88665" lon="6.77099">
        <ele>1716</ele>
        <time>2022-08-26T17:25:11Z</time>
      </trkpt>
      <trkpt lat="45.88668" lon="6.77099">
        <ele>1717</ele>
        <time>2022-08-26T17:25:13Z</time>
      </trkpt>
      <trkpt lat="45.88671" lon="6.771">
        <ele>1717</ele>
        <time>2022-08-26T17:25:15Z</time>
      </trkpt>
      <trkpt lat="45.88673" lon="6.771">
        <ele>1717</ele>
        <time>2022-08-26T17:25:17Z</time>
      </trkpt>
      <trkpt lat="45.88675" lon="6.77101">
        <ele>1719</ele>
        <time>2022-08-26T17:25:19Z</time>
      </trkpt>
      <trkpt lat="45.88678" lon="6.77102">
        <ele>1719</ele>
        <time>2022-08-26T17:25:21Z</time>
      </trkpt>
      <trkpt lat="45.8868" lon="6.771">
        <ele>1720</ele>
        <time>2022-08-26T17:25:23Z</time>
      </trkpt>
      <trkpt lat="45.88682" lon="6.77098">
        <ele>1720</ele>
        <time>2022-08-26T17:25:25Z</time>
      </trkpt>
      <trkpt lat="45.88683" lon="6.77097">
        <ele>1720</ele>
        <time>2022-08-26T17:25:27Z</time>
      </trkpt>
      <trkpt lat="45.88684" lon="6.77094">
        <ele>1721</ele>
        <time>2022-08-26T17:25:29Z</time>
      </trkpt>
      <trkpt lat="45.88684" lon="6.77091">
        <ele>1721</ele>
        <time>2022-08-26T17:25:31Z</time>
      </trkpt>
      <trkpt lat="45.88684" lon="6.77089">
        <ele>1722</ele>
        <time>2022-08-26T17:25:33Z</time>
      </trkpt>
      <trkpt lat="45.88684" lon="6.77085">
        <ele>1722</ele>
        <time>2022-08-26T17:25:36Z</time>
      </trkpt>
      <trkpt lat="45.88683" lon="6.77081">
        <ele>1723</ele>
        <time>2022-08-26T17:25:39Z</time>
      </trkpt>
      <trkpt lat="45.88682" lon="6.77078">
        <ele>1724</ele>
        <time>2022-08-26T17:25:42Z</time>
      </trkpt>
      <trkpt lat="45.88681" lon="6.77075">
        <ele>1725</ele>
        <time>2022-08-26T17:25:44Z</time>
      </trkpt>
      <trkpt lat="45.8868" lon="6.77073">
        <ele>1725</ele>
        <time>2022-08-26T17:25:46Z</time>
      </trkpt>
      <trkpt lat="45.88679" lon="6.7707">
        <ele>1725</ele>
        <time>2022-08-26T17:25:48Z</time>
      </trkpt>
      <trkpt lat="45.88679" lon="6.77068">
        <ele>1725</ele>
        <time>2022-08-26T17:25:50Z</time>
      </trkpt>
      <trkpt lat="45.88678" lon="6.77064">
        <ele>1726</ele>
        <time>2022-08-26T17:25:53Z</time>
      </trkpt>
      <trkpt lat="45.88677" lon="6.77061">
        <ele>1727</ele>
        <time>2022-08-26T17:25:56Z</time>
      </trkpt>
      <trkpt lat="45.88677" lon="6.77058">
        <ele>1728</ele>
        <time>2022-08-26T17:25:59Z</time>
      </trkpt>
      <trkpt lat="45.88677" lon="6.77055">
        <ele>1728</ele>
        <time>2022-08-26T17:26:02Z</time>
      </trkpt>
      <trkpt lat="45.88676" lon="6.77051">
        <ele>1729</ele>
        <time>2022-08-26T17:26:05Z</time>
      </trkpt>
      <trkpt lat="45.88676" lon="6.77048">
        <ele>1729</ele>
        <time>2022-08-26T17:26:08Z</time>
      </trkpt>
      <trkpt lat="45.88675" lon="6.77045">
        <ele>1730</ele>
        <time>2022-08-26T17:26:11Z</time>
      </trkpt>
      <trkpt lat="45.88675" lon="6.77042">
        <ele>1731</ele>
        <time>2022-08-26T17:26:13Z</time>
      </trkpt>
      <trkpt lat="45.88674" lon="6.77039">
        <ele>1732</ele>
        <time>2022-08-26T17:26:15Z</time>
      </trkpt>
      <trkpt lat="45.88673" lon="6.77037">
        <ele>1732</ele>
        <time>2022-08-26T17:26:17Z</time>
      </trkpt>
      <trkpt lat="45.88674" lon="6.77033">
        <ele>1733</ele>
        <time>2022-08-26T17:26:19Z</time>
      </trkpt>
      <trkpt lat="45.88675" lon="6.77031">
        <ele>1734</ele>
        <time>2022-08-26T17:26:21Z</time>
      </trkpt>
      <trkpt lat="45.88677" lon="6.77028">
        <ele>1734</ele>
        <time>2022-08-26T17:26:24Z</time>
      </trkpt>
      <trkpt lat="45.88678" lon="6.77026">
        <ele>1735</ele>
        <time>2022-08-26T17:26:27Z</time>
      </trkpt>
      <trkpt lat="45.8868" lon="6.77024">
        <ele>1735</ele>
        <time>2022-08-26T17:26:29Z</time>
      </trkpt>
      <trkpt lat="45.88681" lon="6.77021">
        <ele>1735</ele>
        <time>2022-08-26T17:26:31Z</time>
      </trkpt>
      <trkpt lat="45.88682" lon="6.77018">
        <ele>1736</ele>
        <time>2022-08-26T17:26:33Z</time>
      </trkpt>
      <trkpt lat="45.88684" lon="6.77016">
        <ele>1737</ele>
        <time>2022-08-26T17:26:35Z</time>
      </trkpt>
      <trkpt lat="45.88685" lon="6.77013">
        <ele>1737</ele>
        <time>2022-08-26T17:26:37Z</time>
      </trkpt>
      <trkpt lat="45.88686" lon="6.77011">
        <ele>1738</ele>
        <time>2022-08-26T17:26:40Z</time>
      </trkpt>
      <trkpt lat="45.88686" lon="6.77007">
        <ele>1739</ele>
        <time>2022-08-26T17:26:42Z</time>
      </trkpt>
      <trkpt lat="45.88685" lon="6.77005">
        <ele>1739</ele>
        <time>2022-08-26T17:26:45Z</time>
      </trkpt>
      <trkpt lat="45.88684" lon="6.77003">
        <ele>1740</ele>
        <time>2022-08-26T17:26:48Z</time>
      </trkpt>
      <trkpt lat="45.88682" lon="6.77001">
        <ele>1740</ele>
        <time>2022-08-26T17:26:52Z</time>
      </trkpt>
      <trkpt lat="45.88679" lon="6.77001">
        <ele>1742</ele>
        <time>2022-08-26T17:26:56Z</time>
      </trkpt>
      <trkpt lat="45.88678" lon="6.77002">
        <ele>1742</ele>
        <time>2022-08-26T17:26:58Z</time>
      </trkpt>
      <trkpt lat="45.88676" lon="6.77002">
        <ele>1743</ele>
        <time>2022-08-26T17:27:00Z</time>
      </trkpt>
      <trkpt lat="45.88673" lon="6.77">
        <ele>1744</ele>
        <time>2022-08-26T17:27:02Z</time>
      </trkpt>
      <trkpt lat="45.88671" lon="6.76999">
        <ele>1744</ele>
        <time>2022-08-26T17:27:04Z</time>
      </trkpt>
      <trkpt lat="45.8867" lon="6.76997">
        <ele>1744</ele>
        <time>2022-08-26T17:27:06Z</time>
      </trkpt>
      <trkpt lat="45.88669" lon="6.76995">
        <ele>1745</ele>
        <time>2022-08-26T17:27:08Z</time>
      </trkpt>
      <trkpt lat="45.88668" lon="6.76991">
        <ele>1745</ele>
        <time>2022-08-26T17:27:11Z</time>
      </trkpt>
      <trkpt lat="45.88668" lon="6.76988">
        <ele>1747</ele>
        <time>2022-08-26T17:27:14Z</time>
      </trkpt>
      <trkpt lat="45.88669" lon="6.76985">
        <ele>1747</ele>
        <time>2022-08-26T17:27:17Z</time>
      </trkpt>
      <trkpt lat="45.88669" lon="6.76982">
        <ele>1748</ele>
        <time>2022-08-26T17:27:19Z</time>
      </trkpt>
      <trkpt lat="45.8867" lon="6.7698">
        <ele>1748</ele>
        <time>2022-08-26T17:27:21Z</time>
      </trkpt>
      <trkpt lat="45.88671" lon="6.76977">
        <ele>1750</ele>
        <time>2022-08-26T17:27:24Z</time>
      </trkpt>
      <trkpt lat="45.88673" lon="6.76974">
        <ele>1750</ele>
        <time>2022-08-26T17:27:27Z</time>
      </trkpt>
      <trkpt lat="45.88674" lon="6.76972">
        <ele>1751</ele>
        <time>2022-08-26T17:27:30Z</time>
      </trkpt>
      <trkpt lat="45.88676" lon="6.7697">
        <ele>1752</ele>
        <time>2022-08-26T17:27:33Z</time>
      </trkpt>
      <trkpt lat="45.88677" lon="6.76968">
        <ele>1752</ele>
        <time>2022-08-26T17:27:36Z</time>
      </trkpt>
      <trkpt lat="45.88678" lon="6.76966">
        <ele>1753</ele>
        <time>2022-08-26T17:27:39Z</time>
      </trkpt>
      <trkpt lat="45.88679" lon="6.76963">
        <ele>1754</ele>
        <time>2022-08-26T17:27:42Z</time>
      </trkpt>
      <trkpt lat="45.88681" lon="6.76959">
        <ele>1754</ele>
        <time>2022-08-26T17:27:45Z</time>
      </trkpt>
      <trkpt lat="45.88682" lon="6.76956">
        <ele>1755</ele>
        <time>2022-08-26T17:27:48Z</time>
      </trkpt>
      <trkpt lat="45.88684" lon="6.76954">
        <ele>1756</ele>
        <time>2022-08-26T17:27:51Z</time>
      </trkpt>
      <trkpt lat="45.88684" lon="6.76951">
        <ele>1757</ele>
        <time>2022-08-26T17:27:53Z</time>
      </trkpt>
      <trkpt lat="45.88685" lon="6.76948">
        <ele>1757</ele>
        <time>2022-08-26T17:27:55Z</time>
      </trkpt>
      <trkpt lat="45.88686" lon="6.76945">
        <ele>1758</ele>
        <time>2022-08-26T17:27:58Z</time>
      </trkpt>
      <trkpt lat="45.88686" lon="6.76942">
        <ele>1759</ele>
        <time>2022-08-26T17:28:01Z</time>
      </trkpt>
      <trkpt lat="45.88688" lon="6.7694">
        <ele>1759</ele>
        <time>2022-08-26T17:28:04Z</time>
      </trkpt>
      <trkpt lat="45.8869" lon="6.76939">
        <ele>1759</ele>
        <time>2022-08-26T17:28:07Z</time>
      </trkpt>
      <trkpt lat="45.88691" lon="6.76937">
        <ele>1760</ele>
        <time>2022-08-26T17:28:09Z</time>
      </trkpt>
      <trkpt lat="45.88692" lon="6.76934">
        <ele>1761</ele>
        <time>2022-08-26T17:28:12Z</time>
      </trkpt>
      <trkpt lat="45.88692" lon="6.76931">
        <ele>1761</ele>
        <time>2022-08-26T17:28:14Z</time>
      </trkpt>
      <trkpt lat="45.88692" lon="6.76928">
        <ele>1761</ele>
        <time>2022-08-26T17:28:16Z</time>
      </trkpt>
      <trkpt lat="45.88691" lon="6.76923">
        <ele>1762</ele>
        <time>2022-08-26T17:28:19Z</time>
      </trkpt>
      <trkpt lat="45.8869" lon="6.7692">
        <ele>1763</ele>
        <time>2022-08-26T17:28:21Z</time>
      </trkpt>
      <trkpt lat="45.88689" lon="6.76918">
        <ele>1764</ele>
        <time>2022-08-26T17:28:23Z</time>
      </trkpt>
      <trkpt lat="45.88687" lon="6.76915">
        <ele>1765</ele>
        <time>2022-08-26T17:28:26Z</time>
      </trkpt>
      <trkpt lat="45.88686" lon="6.76913">
        <ele>1765</ele>
        <time>2022-08-26T17:28:29Z</time>
      </trkpt>
      <trkpt lat="45.88684" lon="6.76912">
        <ele>1766</ele>
        <time>2022-08-26T17:28:32Z</time>
      </trkpt>
      <trkpt lat="45.88681" lon="6.76913">
        <ele>1767</ele>
        <time>2022-08-26T17:28:34Z</time>
      </trkpt>
      <trkpt lat="45.88679" lon="6.76912">
        <ele>1768</ele>
        <time>2022-08-26T17:28:36Z</time>
      </trkpt>
      <trkpt lat="45.88677" lon="6.76912">
        <ele>1768</ele>
        <time>2022-08-26T17:28:38Z</time>
      </trkpt>
      <trkpt lat="45.88675" lon="6.76912">
        <ele>1768</ele>
        <time>2022-08-26T17:28:40Z</time>
      </trkpt>
      <trkpt lat="45.88673" lon="6.76911">
        <ele>1769</ele>
        <time>2022-08-26T17:28:42Z</time>
      </trkpt>
      <trkpt lat="45.88671" lon="6.7691">
        <ele>1769</ele>
        <time>2022-08-26T17:28:44Z</time>
      </trkpt>
      <trkpt lat="45.88668" lon="6.76909">
        <ele>1770</ele>
        <time>2022-08-26T17:28:46Z</time>
      </trkpt>
      <trkpt lat="45.88666" lon="6.76908">
        <ele>1770</ele>
        <time>2022-08-26T17:28:48Z</time>
      </trkpt>
      <trkpt lat="45.88664" lon="6.76906">
        <ele>1770</ele>
        <time>2022-08-26T17:28:50Z</time>
      </trkpt>
      <trkpt lat="45.88664" lon="6.76903">
        <ele>1771</ele>
        <time>2022-08-26T17:28:52Z</time>
      </trkpt>
      <trkpt lat="45.88663" lon="6.76899">
        <ele>1771</ele>
        <time>2022-08-26T17:28:54Z</time>
      </trkpt>
      <trkpt lat="45.88663" lon="6.76895">
        <ele>1772</ele>
        <time>2022-08-26T17:28:56Z</time>
      </trkpt>
      <trkpt lat="45.88663" lon="6.76892">
        <ele>1772</ele>
        <time>2022-08-26T17:28:58Z</time>
      </trkpt>
      <trkpt lat="45.88664" lon="6.76888">
        <ele>1772</ele>
        <time>2022-08-26T17:29:00Z</time>
      </trkpt>
      <trkpt lat="45.88664" lon="6.76885">
        <ele>1773</ele>
        <time>2022-08-26T17:29:02Z</time>
      </trkpt>
      <trkpt lat="45.88664" lon="6.76882">
        <ele>1773</ele>
        <time>2022-08-26T17:29:05Z</time>
      </trkpt>
      <trkpt lat="45.88664" lon="6.76878">
        <ele>1774</ele>
        <time>2022-08-26T17:29:07Z</time>
      </trkpt>
      <trkpt lat="45.88663" lon="6.76875">
        <ele>1775</ele>
        <time>2022-08-26T17:29:10Z</time>
      </trkpt>
      <trkpt lat="45.88662" lon="6.76872">
        <ele>1775</ele>
        <time>2022-08-26T17:29:12Z</time>
      </trkpt>
      <trkpt lat="45.88661" lon="6.76869">
        <ele>1776</ele>
        <time>2022-08-26T17:29:14Z</time>
      </trkpt>
      <trkpt lat="45.88661" lon="6.76866">
        <ele>1776</ele>
        <time>2022-08-26T17:29:16Z</time>
      </trkpt>
      <trkpt lat="45.88661" lon="6.76863">
        <ele>1776</ele>
        <time>2022-08-26T17:29:18Z</time>
      </trkpt>
      <trkpt lat="45.88661" lon="6.7686">
        <ele>1777</ele>
        <time>2022-08-26T17:29:20Z</time>
      </trkpt>
      <trkpt lat="45.88661" lon="6.76857">
        <ele>1777</ele>
        <time>2022-08-26T17:29:22Z</time>
      </trkpt>
      <trkpt lat="45.88661" lon="6.76854">
        <ele>1777</ele>
        <time>2022-08-26T17:29:24Z</time>
      </trkpt>
      <trkpt lat="45.88661" lon="6.7685">
        <ele>1777</ele>
        <time>2022-08-26T17:29:27Z</time>
      </trkpt>
      <trkpt lat="45.88661" lon="6.76847">
        <ele>1777</ele>
        <time>2022-08-26T17:29:29Z</time>
      </trkpt>
      <trkpt lat="45.88661" lon="6.76844">
        <ele>1779</ele>
        <time>2022-08-26T17:29:32Z</time>
      </trkpt>
      <trkpt lat="45.88661" lon="6.76841">
        <ele>1779</ele>
        <time>2022-08-26T17:29:34Z</time>
      </trkpt>
      <trkpt lat="45.88661" lon="6.76838">
        <ele>1779</ele>
        <time>2022-08-26T17:29:36Z</time>
      </trkpt>
      <trkpt lat="45.88662" lon="6.76835">
        <ele>1781</ele>
        <time>2022-08-26T17:29:39Z</time>
      </trkpt>
      <trkpt lat="45.88661" lon="6.76831">
        <ele>1782</ele>
        <time>2022-08-26T17:29:42Z</time>
      </trkpt>
      <trkpt lat="45.88662" lon="6.76828">
        <ele>1783</ele>
        <time>2022-08-26T17:29:45Z</time>
      </trkpt>
      <trkpt lat="45.88661" lon="6.76824">
        <ele>1783</ele>
        <time>2022-08-26T17:29:48Z</time>
      </trkpt>
      <trkpt lat="45.88661" lon="6.76821">
        <ele>1784</ele>
        <time>2022-08-26T17:29:51Z</time>
      </trkpt>
      <trkpt lat="45.88661" lon="6.76818">
        <ele>1785</ele>
        <time>2022-08-26T17:29:54Z</time>
      </trkpt>
      <trkpt lat="45.88661" lon="6.76816">
        <ele>1785</ele>
        <time>2022-08-26T17:29:56Z</time>
      </trkpt>
      <trkpt lat="45.88661" lon="6.76813">
        <ele>1786</ele>
        <time>2022-08-26T17:29:58Z</time>
      </trkpt>
      <trkpt lat="45.8866" lon="6.7681">
        <ele>1786</ele>
        <time>2022-08-26T17:30:01Z</time>
      </trkpt>
      <trkpt lat="45.8866" lon="6.76808">
        <ele>1786</ele>
        <time>2022-08-26T17:30:03Z</time>
      </trkpt>
      <trkpt lat="45.8866" lon="6.76805">
        <ele>1788</ele>
        <time>2022-08-26T17:30:06Z</time>
      </trkpt>
      <trkpt lat="45.8866" lon="6.76801">
        <ele>1789</ele>
        <time>2022-08-26T17:30:09Z</time>
      </trkpt>
      <trkpt lat="45.8866" lon="6.76799">
        <ele>1789</ele>
        <time>2022-08-26T17:30:11Z</time>
      </trkpt>
      <trkpt lat="45.88661" lon="6.76796">
        <ele>1790</ele>
        <time>2022-08-26T17:30:13Z</time>
      </trkpt>
      <trkpt lat="45.88661" lon="6.76793">
        <ele>1790</ele>
        <time>2022-08-26T17:30:16Z</time>
      </trkpt>
      <trkpt lat="45.88662" lon="6.7679">
        <ele>1790</ele>
        <time>2022-08-26T17:30:18Z</time>
      </trkpt>
      <trkpt lat="45.88662" lon="6.76787">
        <ele>1791</ele>
        <time>2022-08-26T17:30:21Z</time>
      </trkpt>
      <trkpt lat="45.88662" lon="6.76783">
        <ele>1792</ele>
        <time>2022-08-26T17:30:24Z</time>
      </trkpt>
      <trkpt lat="45.88663" lon="6.7678">
        <ele>1793</ele>
        <time>2022-08-26T17:30:26Z</time>
      </trkpt>
      <trkpt lat="45.88663" lon="6.76777">
        <ele>1793</ele>
        <time>2022-08-26T17:30:28Z</time>
      </trkpt>
      <trkpt lat="45.88662" lon="6.76774">
        <ele>1794</ele>
        <time>2022-08-26T17:30:31Z</time>
      </trkpt>
      <trkpt lat="45.88662" lon="6.76771">
        <ele>1795</ele>
        <time>2022-08-26T17:30:33Z</time>
      </trkpt>
      <trkpt lat="45.88661" lon="6.76769">
        <ele>1795</ele>
        <time>2022-08-26T17:30:35Z</time>
      </trkpt>
      <trkpt lat="45.8866" lon="6.76766">
        <ele>1795</ele>
        <time>2022-08-26T17:30:37Z</time>
      </trkpt>
      <trkpt lat="45.8866" lon="6.76763">
        <ele>1795</ele>
        <time>2022-08-26T17:30:39Z</time>
      </trkpt>
      <trkpt lat="45.88658" lon="6.7676">
        <ele>1796</ele>
        <time>2022-08-26T17:30:42Z</time>
      </trkpt>
      <trkpt lat="45.88657" lon="6.76757">
        <ele>1797</ele>
        <time>2022-08-26T17:30:44Z</time>
      </trkpt>
      <trkpt lat="45.88656" lon="6.76754">
        <ele>1797</ele>
        <time>2022-08-26T17:30:47Z</time>
      </trkpt>
      <trkpt lat="45.88654" lon="6.76753">
        <ele>1798</ele>
        <time>2022-08-26T17:30:49Z</time>
      </trkpt>
      <trkpt lat="45.88652" lon="6.76751">
        <ele>1799</ele>
        <time>2022-08-26T17:30:51Z</time>
      </trkpt>
      <trkpt lat="45.8865" lon="6.7675">
        <ele>1799</ele>
        <time>2022-08-26T17:30:54Z</time>
      </trkpt>
      <trkpt lat="45.88648" lon="6.76748">
        <ele>1800</ele>
        <time>2022-08-26T17:30:57Z</time>
      </trkpt>
      <trkpt lat="45.88647" lon="6.76745">
        <ele>1801</ele>
        <time>2022-08-26T17:31:00Z</time>
      </trkpt>
      <trkpt lat="45.88645" lon="6.76743">
        <ele>1802</ele>
        <time>2022-08-26T17:31:02Z</time>
      </trkpt>
      <trkpt lat="45.88644" lon="6.76741">
        <ele>1802</ele>
        <time>2022-08-26T17:31:04Z</time>
      </trkpt>
      <trkpt lat="45.88644" lon="6.76738">
        <ele>1803</ele>
        <time>2022-08-26T17:31:06Z</time>
      </trkpt>
      <trkpt lat="45.88643" lon="6.76734">
        <ele>1803</ele>
        <time>2022-08-26T17:31:09Z</time>
      </trkpt>
      <trkpt lat="45.88643" lon="6.76731">
        <ele>1804</ele>
        <time>2022-08-26T17:31:12Z</time>
      </trkpt>
      <trkpt lat="45.88644" lon="6.76727">
        <ele>1805</ele>
        <time>2022-08-26T17:31:15Z</time>
      </trkpt>
      <trkpt lat="45.88645" lon="6.76725">
        <ele>1805</ele>
        <time>2022-08-26T17:31:17Z</time>
      </trkpt>
      <trkpt lat="45.88645" lon="6.76722">
        <ele>1807</ele>
        <time>2022-08-26T17:31:19Z</time>
      </trkpt>
      <trkpt lat="45.88647" lon="6.7672">
        <ele>1807</ele>
        <time>2022-08-26T17:31:22Z</time>
      </trkpt>
      <trkpt lat="45.88647" lon="6.76717">
        <ele>1807</ele>
        <time>2022-08-26T17:31:25Z</time>
      </trkpt>
      <trkpt lat="45.88648" lon="6.76713">
        <ele>1808</ele>
        <time>2022-08-26T17:31:28Z</time>
      </trkpt>
      <trkpt lat="45.88649" lon="6.7671">
        <ele>1809</ele>
        <time>2022-08-26T17:31:31Z</time>
      </trkpt>
      <trkpt lat="45.88651" lon="6.76708">
        <ele>1810</ele>
        <time>2022-08-26T17:31:34Z</time>
      </trkpt>
      <trkpt lat="45.88653" lon="6.76706">
        <ele>1810</ele>
        <time>2022-08-26T17:31:37Z</time>
      </trkpt>
      <trkpt lat="45.88655" lon="6.76705">
        <ele>1811</ele>
        <time>2022-08-26T17:31:40Z</time>
      </trkpt>
      <trkpt lat="45.88658" lon="6.76704">
        <ele>1812</ele>
        <time>2022-08-26T17:31:43Z</time>
      </trkpt>
      <trkpt lat="45.88659" lon="6.76704">
        <ele>1813</ele>
        <time>2022-08-26T17:31:45Z</time>
      </trkpt>
      <trkpt lat="45.88661" lon="6.76705">
        <ele>1813</ele>
        <time>2022-08-26T17:31:47Z</time>
      </trkpt>
      <trkpt lat="45.88663" lon="6.76706">
        <ele>1814</ele>
        <time>2022-08-26T17:31:50Z</time>
      </trkpt>
      <trkpt lat="45.88666" lon="6.76706">
        <ele>1814</ele>
        <time>2022-08-26T17:31:54Z</time>
      </trkpt>
      <trkpt lat="45.88669" lon="6.76704">
        <ele>1815</ele>
        <time>2022-08-26T17:31:59Z</time>
      </trkpt>
      <trkpt lat="45.8867" lon="6.76703">
        <ele>1816</ele>
        <time>2022-08-26T17:32:01Z</time>
      </trkpt>
      <trkpt lat="45.88671" lon="6.76702">
        <ele>1816</ele>
        <time>2022-08-26T17:32:02Z</time>
      </trkpt>
      <trkpt lat="45.88672" lon="6.767">
        <ele>1817</ele>
        <time>2022-08-26T17:32:03Z</time>
      </trkpt>
      <trkpt lat="45.88673" lon="6.76697">
        <ele>1817</ele>
        <time>2022-08-26T17:32:05Z</time>
      </trkpt>
      <trkpt lat="45.88673" lon="6.76695">
        <ele>1818</ele>
        <time>2022-08-26T17:32:07Z</time>
      </trkpt>
      <trkpt lat="45.88673" lon="6.76692">
        <ele>1819</ele>
        <time>2022-08-26T17:32:10Z</time>
      </trkpt>
      <trkpt lat="45.88673" lon="6.76689">
        <ele>1820</ele>
        <time>2022-08-26T17:32:12Z</time>
      </trkpt>
      <trkpt lat="45.88671" lon="6.76686">
        <ele>1820</ele>
        <time>2022-08-26T17:32:15Z</time>
      </trkpt>
      <trkpt lat="45.88671" lon="6.76684">
        <ele>1820</ele>
        <time>2022-08-26T17:32:17Z</time>
      </trkpt>
      <trkpt lat="45.8867" lon="6.76681">
        <ele>1821</ele>
        <time>2022-08-26T17:32:19Z</time>
      </trkpt>
      <trkpt lat="45.88669" lon="6.76679">
        <ele>1821</ele>
        <time>2022-08-26T17:32:21Z</time>
      </trkpt>
      <trkpt lat="45.88668" lon="6.76676">
        <ele>1822</ele>
        <time>2022-08-26T17:32:23Z</time>
      </trkpt>
      <trkpt lat="45.88667" lon="6.76672">
        <ele>1822</ele>
        <time>2022-08-26T17:32:26Z</time>
      </trkpt>
      <trkpt lat="45.88666" lon="6.76668">
        <ele>1822</ele>
        <time>2022-08-26T17:32:28Z</time>
      </trkpt>
      <trkpt lat="45.88667" lon="6.76665">
        <ele>1823</ele>
        <time>2022-08-26T17:32:30Z</time>
      </trkpt>
      <trkpt lat="45.88667" lon="6.76661">
        <ele>1823</ele>
        <time>2022-08-26T17:32:32Z</time>
      </trkpt>
      <trkpt lat="45.88667" lon="6.76657">
        <ele>1824</ele>
        <time>2022-08-26T17:32:34Z</time>
      </trkpt>
      <trkpt lat="45.88667" lon="6.76653">
        <ele>1825</ele>
        <time>2022-08-26T17:32:36Z</time>
      </trkpt>
      <trkpt lat="45.88668" lon="6.76649">
        <ele>1825</ele>
        <time>2022-08-26T17:32:38Z</time>
      </trkpt>
      <trkpt lat="45.88668" lon="6.76644">
        <ele>1825</ele>
        <time>2022-08-26T17:32:40Z</time>
      </trkpt>
      <trkpt lat="45.88668" lon="6.76641">
        <ele>1825</ele>
        <time>2022-08-26T17:32:42Z</time>
      </trkpt>
      <trkpt lat="45.88668" lon="6.76637">
        <ele>1826</ele>
        <time>2022-08-26T17:32:45Z</time>
      </trkpt>
      <trkpt lat="45.88667" lon="6.76633">
        <ele>1826</ele>
        <time>2022-08-26T17:32:47Z</time>
      </trkpt>
      <trkpt lat="45.88667" lon="6.7663">
        <ele>1826</ele>
        <time>2022-08-26T17:32:49Z</time>
      </trkpt>
      <trkpt lat="45.88667" lon="6.76627">
        <ele>1826</ele>
        <time>2022-08-26T17:32:51Z</time>
      </trkpt>
      <trkpt lat="45.88666" lon="6.76624">
        <ele>1826</ele>
        <time>2022-08-26T17:32:53Z</time>
      </trkpt>
      <trkpt lat="45.88666" lon="6.7662">
        <ele>1826</ele>
        <time>2022-08-26T17:32:55Z</time>
      </trkpt>
      <trkpt lat="45.88665" lon="6.76617">
        <ele>1827</ele>
        <time>2022-08-26T17:32:57Z</time>
      </trkpt>
      <trkpt lat="45.88664" lon="6.76614">
        <ele>1827</ele>
        <time>2022-08-26T17:32:59Z</time>
      </trkpt>
      <trkpt lat="45.88664" lon="6.76611">
        <ele>1828</ele>
        <time>2022-08-26T17:33:01Z</time>
      </trkpt>
      <trkpt lat="45.88663" lon="6.76608">
        <ele>1828</ele>
        <time>2022-08-26T17:33:03Z</time>
      </trkpt>
      <trkpt lat="45.88662" lon="6.76606">
        <ele>1828</ele>
        <time>2022-08-26T17:33:05Z</time>
      </trkpt>
      <trkpt lat="45.8866" lon="6.76604">
        <ele>1829</ele>
        <time>2022-08-26T17:33:07Z</time>
      </trkpt>
      <trkpt lat="45.88659" lon="6.76602">
        <ele>1829</ele>
        <time>2022-08-26T17:33:09Z</time>
      </trkpt>
      <trkpt lat="45.88657" lon="6.766">
        <ele>1829</ele>
        <time>2022-08-26T17:33:11Z</time>
      </trkpt>
      <trkpt lat="45.88656" lon="6.76597">
        <ele>1831</ele>
        <time>2022-08-26T17:33:13Z</time>
      </trkpt>
      <trkpt lat="45.88655" lon="6.76595">
        <ele>1832</ele>
        <time>2022-08-26T17:33:15Z</time>
      </trkpt>
      <trkpt lat="45.88653" lon="6.76594">
        <ele>1832</ele>
        <time>2022-08-26T17:33:17Z</time>
      </trkpt>
      <trkpt lat="45.88652" lon="6.76591">
        <ele>1832</ele>
        <time>2022-08-26T17:33:19Z</time>
      </trkpt>
      <trkpt lat="45.88651" lon="6.76587">
        <ele>1832</ele>
        <time>2022-08-26T17:33:22Z</time>
      </trkpt>
      <trkpt lat="45.8865" lon="6.76585">
        <ele>1832</ele>
        <time>2022-08-26T17:33:24Z</time>
      </trkpt>
      <trkpt lat="45.88648" lon="6.76582">
        <ele>1833</ele>
        <time>2022-08-26T17:33:26Z</time>
      </trkpt>
      <trkpt lat="45.88647" lon="6.7658">
        <ele>1833</ele>
        <time>2022-08-26T17:33:28Z</time>
      </trkpt>
      <trkpt lat="45.88646" lon="6.76578">
        <ele>1834</ele>
        <time>2022-08-26T17:33:30Z</time>
      </trkpt>
      <trkpt lat="45.88645" lon="6.76575">
        <ele>1835</ele>
        <time>2022-08-26T17:33:32Z</time>
      </trkpt>
      <trkpt lat="45.88643" lon="6.76572">
        <ele>1836</ele>
        <time>2022-08-26T17:33:35Z</time>
      </trkpt>
      <trkpt lat="45.88641" lon="6.7657">
        <ele>1836</ele>
        <time>2022-08-26T17:33:38Z</time>
      </trkpt>
      <trkpt lat="45.8864" lon="6.76567">
        <ele>1837</ele>
        <time>2022-08-26T17:33:41Z</time>
      </trkpt>
      <trkpt lat="45.88639" lon="6.76565">
        <ele>1837</ele>
        <time>2022-08-26T17:33:43Z</time>
      </trkpt>
      <trkpt lat="45.88637" lon="6.76562">
        <ele>1838</ele>
        <time>2022-08-26T17:33:45Z</time>
      </trkpt>
      <trkpt lat="45.88636" lon="6.7656">
        <ele>1839</ele>
        <time>2022-08-26T17:33:47Z</time>
      </trkpt>
      <trkpt lat="45.88634" lon="6.76558">
        <ele>1839</ele>
        <time>2022-08-26T17:33:49Z</time>
      </trkpt>
      <trkpt lat="45.88633" lon="6.76555">
        <ele>1840</ele>
        <time>2022-08-26T17:33:51Z</time>
      </trkpt>
      <trkpt lat="45.88631" lon="6.76553">
        <ele>1840</ele>
        <time>2022-08-26T17:33:53Z</time>
      </trkpt>
      <trkpt lat="45.8863" lon="6.76551">
        <ele>1840</ele>
        <time>2022-08-26T17:33:55Z</time>
      </trkpt>
      <trkpt lat="45.88628" lon="6.76548">
        <ele>1840</ele>
        <time>2022-08-26T17:33:57Z</time>
      </trkpt>
      <trkpt lat="45.88626" lon="6.76546">
        <ele>1841</ele>
        <time>2022-08-26T17:33:59Z</time>
      </trkpt>
      <trkpt lat="45.88625" lon="6.76544">
        <ele>1841</ele>
        <time>2022-08-26T17:34:01Z</time>
      </trkpt>
      <trkpt lat="45.88623" lon="6.76542">
        <ele>1842</ele>
        <time>2022-08-26T17:34:03Z</time>
      </trkpt>
      <trkpt lat="45.88621" lon="6.76541">
        <ele>1843</ele>
        <time>2022-08-26T17:34:05Z</time>
      </trkpt>
      <trkpt lat="45.88619" lon="6.7654">
        <ele>1843</ele>
        <time>2022-08-26T17:34:07Z</time>
      </trkpt>
      <trkpt lat="45.88617" lon="6.7654">
        <ele>1843</ele>
        <time>2022-08-26T17:34:09Z</time>
      </trkpt>
      <trkpt lat="45.88615" lon="6.76539">
        <ele>1844</ele>
        <time>2022-08-26T17:34:11Z</time>
      </trkpt>
      <trkpt lat="45.88613" lon="6.76538">
        <ele>1845</ele>
        <time>2022-08-26T17:34:14Z</time>
      </trkpt>
      <trkpt lat="45.8861" lon="6.76536">
        <ele>1845</ele>
        <time>2022-08-26T17:34:16Z</time>
      </trkpt>
      <trkpt lat="45.88608" lon="6.76535">
        <ele>1846</ele>
        <time>2022-08-26T17:34:18Z</time>
      </trkpt>
      <trkpt lat="45.88606" lon="6.76535">
        <ele>1846</ele>
        <time>2022-08-26T17:34:20Z</time>
      </trkpt>
      <trkpt lat="45.88604" lon="6.76533">
        <ele>1846</ele>
        <time>2022-08-26T17:34:23Z</time>
      </trkpt>
      <trkpt lat="45.88602" lon="6.76531">
        <ele>1847</ele>
        <time>2022-08-26T17:34:25Z</time>
      </trkpt>
      <trkpt lat="45.88601" lon="6.76529">
        <ele>1847</ele>
        <time>2022-08-26T17:34:27Z</time>
      </trkpt>
      <trkpt lat="45.88599" lon="6.76527">
        <ele>1848</ele>
        <time>2022-08-26T17:34:29Z</time>
      </trkpt>
      <trkpt lat="45.88598" lon="6.76525">
        <ele>1848</ele>
        <time>2022-08-26T17:34:31Z</time>
      </trkpt>
      <trkpt lat="45.88596" lon="6.76523">
        <ele>1849</ele>
        <time>2022-08-26T17:34:34Z</time>
      </trkpt>
      <trkpt lat="45.88594" lon="6.7652">
        <ele>1850</ele>
        <time>2022-08-26T17:34:37Z</time>
      </trkpt>
      <trkpt lat="45.88592" lon="6.76518">
        <ele>1850</ele>
        <time>2022-08-26T17:34:40Z</time>
      </trkpt>
      <trkpt lat="45.88591" lon="6.76516">
        <ele>1851</ele>
        <time>2022-08-26T17:34:42Z</time>
      </trkpt>
      <trkpt lat="45.88589" lon="6.76514">
        <ele>1851</ele>
        <time>2022-08-26T17:34:44Z</time>
      </trkpt>
      <trkpt lat="45.88588" lon="6.76512">
        <ele>1851</ele>
        <time>2022-08-26T17:34:46Z</time>
      </trkpt>
      <trkpt lat="45.88586" lon="6.7651">
        <ele>1853</ele>
        <time>2022-08-26T17:34:51Z</time>
      </trkpt>
      <trkpt lat="45.88584" lon="6.76508">
        <ele>1853</ele>
        <time>2022-08-26T17:34:53Z</time>
      </trkpt>
      <trkpt lat="45.88581" lon="6.76507">
        <ele>1853</ele>
        <time>2022-08-26T17:34:55Z</time>
      </trkpt>
      <trkpt lat="45.8858" lon="6.76506">
        <ele>1854</ele>
        <time>2022-08-26T17:34:57Z</time>
      </trkpt>
      <trkpt lat="45.88578" lon="6.76503">
        <ele>1855</ele>
        <time>2022-08-26T17:34:59Z</time>
      </trkpt>
      <trkpt lat="45.88577" lon="6.76501">
        <ele>1855</ele>
        <time>2022-08-26T17:35:01Z</time>
      </trkpt>
      <trkpt lat="45.88575" lon="6.76499">
        <ele>1855</ele>
        <time>2022-08-26T17:35:03Z</time>
      </trkpt>
      <trkpt lat="45.88574" lon="6.76497">
        <ele>1856</ele>
        <time>2022-08-26T17:35:05Z</time>
      </trkpt>
      <trkpt lat="45.88572" lon="6.76494">
        <ele>1856</ele>
        <time>2022-08-26T17:35:07Z</time>
      </trkpt>
      <trkpt lat="45.8857" lon="6.76491">
        <ele>1857</ele>
        <time>2022-08-26T17:35:09Z</time>
      </trkpt>
      <trkpt lat="45.88568" lon="6.76491">
        <ele>1857</ele>
        <time>2022-08-26T17:35:11Z</time>
      </trkpt>
      <trkpt lat="45.88566" lon="6.76489">
        <ele>1858</ele>
        <time>2022-08-26T17:35:14Z</time>
      </trkpt>
      <trkpt lat="45.88565" lon="6.76486">
        <ele>1858</ele>
        <time>2022-08-26T17:35:16Z</time>
      </trkpt>
      <trkpt lat="45.88563" lon="6.76484">
        <ele>1859</ele>
        <time>2022-08-26T17:35:18Z</time>
      </trkpt>
      <trkpt lat="45.88561" lon="6.76482">
        <ele>1860</ele>
        <time>2022-08-26T17:35:21Z</time>
      </trkpt>
      <trkpt lat="45.88559" lon="6.76481">
        <ele>1860</ele>
        <time>2022-08-26T17:35:23Z</time>
      </trkpt>
      <trkpt lat="45.88557" lon="6.76479">
        <ele>1860</ele>
        <time>2022-08-26T17:35:26Z</time>
      </trkpt>
      <trkpt lat="45.88554" lon="6.76478">
        <ele>1862</ele>
        <time>2022-08-26T17:35:30Z</time>
      </trkpt>
      <trkpt lat="45.88546" lon="6.76471">
        <ele>1864</ele>
        <time>2022-08-26T17:35:40Z</time>
      </trkpt>
      <trkpt lat="45.88543" lon="6.76467">
        <ele>1865</ele>
        <time>2022-08-26T17:35:44Z</time>
      </trkpt>
      <trkpt lat="45.88541" lon="6.76466">
        <ele>1867</ele>
        <time>2022-08-26T17:35:47Z</time>
      </trkpt>
      <trkpt lat="45.8854" lon="6.76463">
        <ele>1867</ele>
        <time>2022-08-26T17:35:49Z</time>
      </trkpt>
      <trkpt lat="45.88539" lon="6.76461">
        <ele>1867</ele>
        <time>2022-08-26T17:35:52Z</time>
      </trkpt>
      <trkpt lat="45.88537" lon="6.76458">
        <ele>1868</ele>
        <time>2022-08-26T17:35:55Z</time>
      </trkpt>
      <trkpt lat="45.88535" lon="6.76456">
        <ele>1868</ele>
        <time>2022-08-26T17:35:57Z</time>
      </trkpt>
      <trkpt lat="45.88534" lon="6.76454">
        <ele>1870</ele>
        <time>2022-08-26T17:35:59Z</time>
      </trkpt>
      <trkpt lat="45.88532" lon="6.76452">
        <ele>1870</ele>
        <time>2022-08-26T17:36:01Z</time>
      </trkpt>
      <trkpt lat="45.88531" lon="6.7645">
        <ele>1870</ele>
        <time>2022-08-26T17:36:03Z</time>
      </trkpt>
      <trkpt lat="45.8853" lon="6.76448">
        <ele>1870</ele>
        <time>2022-08-26T17:36:05Z</time>
      </trkpt>
      <trkpt lat="45.88528" lon="6.76445">
        <ele>1872</ele>
        <time>2022-08-26T17:36:08Z</time>
      </trkpt>
      <trkpt lat="45.88527" lon="6.76442">
        <ele>1872</ele>
        <time>2022-08-26T17:36:11Z</time>
      </trkpt>
      <trkpt lat="45.88525" lon="6.7644">
        <ele>1873</ele>
        <time>2022-08-26T17:36:13Z</time>
      </trkpt>
      <trkpt lat="45.88525" lon="6.76438">
        <ele>1873</ele>
        <time>2022-08-26T17:36:15Z</time>
      </trkpt>
      <trkpt lat="45.88524" lon="6.76434">
        <ele>1874</ele>
        <time>2022-08-26T17:36:18Z</time>
      </trkpt>
      <trkpt lat="45.88523" lon="6.76431">
        <ele>1875</ele>
        <time>2022-08-26T17:36:23Z</time>
      </trkpt>
      <trkpt lat="45.88522" lon="6.76429">
        <ele>1875</ele>
        <time>2022-08-26T17:36:25Z</time>
      </trkpt>
      <trkpt lat="45.88521" lon="6.76427">
        <ele>1875</ele>
        <time>2022-08-26T17:36:27Z</time>
      </trkpt>
      <trkpt lat="45.88518" lon="6.76425">
        <ele>1876</ele>
        <time>2022-08-26T17:36:30Z</time>
      </trkpt>
      <trkpt lat="45.88516" lon="6.76422">
        <ele>1877</ele>
        <time>2022-08-26T17:36:33Z</time>
      </trkpt>
      <trkpt lat="45.88515" lon="6.76418">
        <ele>1877</ele>
        <time>2022-08-26T17:36:36Z</time>
      </trkpt>
      <trkpt lat="45.88514" lon="6.76416">
        <ele>1878</ele>
        <time>2022-08-26T17:36:39Z</time>
      </trkpt>
      <trkpt lat="45.88512" lon="6.76413">
        <ele>1879</ele>
        <time>2022-08-26T17:36:42Z</time>
      </trkpt>
      <trkpt lat="45.88509" lon="6.76411">
        <ele>1880</ele>
        <time>2022-08-26T17:36:46Z</time>
      </trkpt>
      <trkpt lat="45.88508" lon="6.7641">
        <ele>1880</ele>
        <time>2022-08-26T17:36:48Z</time>
      </trkpt>
      <trkpt lat="45.88506" lon="6.76409">
        <ele>1881</ele>
        <time>2022-08-26T17:36:50Z</time>
      </trkpt>
      <trkpt lat="45.88504" lon="6.76408">
        <ele>1881</ele>
        <time>2022-08-26T17:36:52Z</time>
      </trkpt>
      <trkpt lat="45.88501" lon="6.76408">
        <ele>1881</ele>
        <time>2022-08-26T17:36:55Z</time>
      </trkpt>
      <trkpt lat="45.88499" lon="6.76407">
        <ele>1882</ele>
        <time>2022-08-26T17:36:57Z</time>
      </trkpt>
      <trkpt lat="45.88497" lon="6.76406">
        <ele>1882</ele>
        <time>2022-08-26T17:36:59Z</time>
      </trkpt>
      <trkpt lat="45.88495" lon="6.76405">
        <ele>1882</ele>
        <time>2022-08-26T17:37:02Z</time>
      </trkpt>
      <trkpt lat="45.88493" lon="6.76405">
        <ele>1883</ele>
        <time>2022-08-26T17:37:04Z</time>
      </trkpt>
      <trkpt lat="45.8849" lon="6.76404">
        <ele>1884</ele>
        <time>2022-08-26T17:37:06Z</time>
      </trkpt>
      <trkpt lat="45.88488" lon="6.76403">
        <ele>1885</ele>
        <time>2022-08-26T17:37:08Z</time>
      </trkpt>
      <trkpt lat="45.88486" lon="6.76402">
        <ele>1886</ele>
        <time>2022-08-26T17:37:10Z</time>
      </trkpt>
      <trkpt lat="45.88485" lon="6.764">
        <ele>1886</ele>
        <time>2022-08-26T17:37:12Z</time>
      </trkpt>
      <trkpt lat="45.88483" lon="6.76398">
        <ele>1886</ele>
        <time>2022-08-26T17:37:15Z</time>
      </trkpt>
      <trkpt lat="45.88481" lon="6.76395">
        <ele>1886</ele>
        <time>2022-08-26T17:37:17Z</time>
      </trkpt>
      <trkpt lat="45.8848" lon="6.76394">
        <ele>1887</ele>
        <time>2022-08-26T17:37:19Z</time>
      </trkpt>
      <trkpt lat="45.88478" lon="6.76393">
        <ele>1887</ele>
        <time>2022-08-26T17:37:21Z</time>
      </trkpt>
      <trkpt lat="45.88476" lon="6.76391">
        <ele>1888</ele>
        <time>2022-08-26T17:37:24Z</time>
      </trkpt>
      <trkpt lat="45.88474" lon="6.7639">
        <ele>1890</ele>
        <time>2022-08-26T17:37:27Z</time>
      </trkpt>
      <trkpt lat="45.88471" lon="6.76388">
        <ele>1890</ele>
        <time>2022-08-26T17:37:30Z</time>
      </trkpt>
      <trkpt lat="45.8847" lon="6.76387">
        <ele>1890</ele>
        <time>2022-08-26T17:37:32Z</time>
      </trkpt>
      <trkpt lat="45.88468" lon="6.76385">
        <ele>1892</ele>
        <time>2022-08-26T17:37:35Z</time>
      </trkpt>
      <trkpt lat="45.88466" lon="6.76383">
        <ele>1892</ele>
        <time>2022-08-26T17:37:38Z</time>
      </trkpt>
      <trkpt lat="45.88464" lon="6.76382">
        <ele>1893</ele>
        <time>2022-08-26T17:37:40Z</time>
      </trkpt>
      <trkpt lat="45.88462" lon="6.7638">
        <ele>1894</ele>
        <time>2022-08-26T17:37:43Z</time>
      </trkpt>
      <trkpt lat="45.8846" lon="6.76379">
        <ele>1895</ele>
        <time>2022-08-26T17:37:46Z</time>
      </trkpt>
      <trkpt lat="45.88458" lon="6.76378">
        <ele>1895</ele>
        <time>2022-08-26T17:37:49Z</time>
      </trkpt>
      <trkpt lat="45.88456" lon="6.76377">
        <ele>1896</ele>
        <time>2022-08-26T17:37:52Z</time>
      </trkpt>
      <trkpt lat="45.88454" lon="6.76376">
        <ele>1897</ele>
        <time>2022-08-26T17:37:54Z</time>
      </trkpt>
      <trkpt lat="45.88451" lon="6.76375">
        <ele>1897</ele>
        <time>2022-08-26T17:37:57Z</time>
      </trkpt>
      <trkpt lat="45.88449" lon="6.76375">
        <ele>1898</ele>
        <time>2022-08-26T17:37:59Z</time>
      </trkpt>
      <trkpt lat="45.88447" lon="6.76375">
        <ele>1898</ele>
        <time>2022-08-26T17:38:01Z</time>
      </trkpt>
      <trkpt lat="45.88444" lon="6.76376">
        <ele>1898</ele>
        <time>2022-08-26T17:38:03Z</time>
      </trkpt>
      <trkpt lat="45.88442" lon="6.76376">
        <ele>1898</ele>
        <time>2022-08-26T17:38:05Z</time>
      </trkpt>
      <trkpt lat="45.88439" lon="6.76376">
        <ele>1898</ele>
        <time>2022-08-26T17:38:07Z</time>
      </trkpt>
      <trkpt lat="45.88437" lon="6.76376">
        <ele>1899</ele>
        <time>2022-08-26T17:38:09Z</time>
      </trkpt>
      <trkpt lat="45.88435" lon="6.76376">
        <ele>1900</ele>
        <time>2022-08-26T17:38:11Z</time>
      </trkpt>
      <trkpt lat="45.88433" lon="6.76376">
        <ele>1900</ele>
        <time>2022-08-26T17:38:13Z</time>
      </trkpt>
      <trkpt lat="45.88431" lon="6.76375">
        <ele>1900</ele>
        <time>2022-08-26T17:38:15Z</time>
      </trkpt>
      <trkpt lat="45.88429" lon="6.76374">
        <ele>1901</ele>
        <time>2022-08-26T17:38:17Z</time>
      </trkpt>
      <trkpt lat="45.88427" lon="6.76373">
        <ele>1901</ele>
        <time>2022-08-26T17:38:19Z</time>
      </trkpt>
      <trkpt lat="45.88425" lon="6.76372">
        <ele>1902</ele>
        <time>2022-08-26T17:38:21Z</time>
      </trkpt>
      <trkpt lat="45.88424" lon="6.7637">
        <ele>1902</ele>
        <time>2022-08-26T17:38:23Z</time>
      </trkpt>
      <trkpt lat="45.88422" lon="6.76368">
        <ele>1903</ele>
        <time>2022-08-26T17:38:25Z</time>
      </trkpt>
      <trkpt lat="45.88421" lon="6.76365">
        <ele>1903</ele>
        <time>2022-08-26T17:38:27Z</time>
      </trkpt>
      <trkpt lat="45.8842" lon="6.76361">
        <ele>1904</ele>
        <time>2022-08-26T17:38:29Z</time>
      </trkpt>
      <trkpt lat="45.88419" lon="6.76358">
        <ele>1904</ele>
        <time>2022-08-26T17:38:31Z</time>
      </trkpt>
      <trkpt lat="45.88419" lon="6.76355">
        <ele>1904</ele>
        <time>2022-08-26T17:38:33Z</time>
      </trkpt>
      <trkpt lat="45.88418" lon="6.76351">
        <ele>1905</ele>
        <time>2022-08-26T17:38:35Z</time>
      </trkpt>
      <trkpt lat="45.88417" lon="6.76348">
        <ele>1905</ele>
        <time>2022-08-26T17:38:37Z</time>
      </trkpt>
      <trkpt lat="45.88416" lon="6.76345">
        <ele>1906</ele>
        <time>2022-08-26T17:38:39Z</time>
      </trkpt>
      <trkpt lat="45.88416" lon="6.76342">
        <ele>1906</ele>
        <time>2022-08-26T17:38:41Z</time>
      </trkpt>
      <trkpt lat="45.88415" lon="6.76339">
        <ele>1907</ele>
        <time>2022-08-26T17:38:43Z</time>
      </trkpt>
      <trkpt lat="45.88415" lon="6.76336">
        <ele>1907</ele>
        <time>2022-08-26T17:38:45Z</time>
      </trkpt>
      <trkpt lat="45.88414" lon="6.76334">
        <ele>1907</ele>
        <time>2022-08-26T17:38:47Z</time>
      </trkpt>
      <trkpt lat="45.88412" lon="6.76331">
        <ele>1908</ele>
        <time>2022-08-26T17:38:50Z</time>
      </trkpt>
      <trkpt lat="45.88411" lon="6.76329">
        <ele>1908</ele>
        <time>2022-08-26T17:38:52Z</time>
      </trkpt>
      <trkpt lat="45.8841" lon="6.76326">
        <ele>1909</ele>
        <time>2022-08-26T17:38:54Z</time>
      </trkpt>
      <trkpt lat="45.88409" lon="6.76324">
        <ele>1909</ele>
        <time>2022-08-26T17:38:56Z</time>
      </trkpt>
      <trkpt lat="45.88408" lon="6.7632">
        <ele>1911</ele>
        <time>2022-08-26T17:38:59Z</time>
      </trkpt>
      <trkpt lat="45.88408" lon="6.76317">
        <ele>1912</ele>
        <time>2022-08-26T17:39:02Z</time>
      </trkpt>
      <trkpt lat="45.88407" lon="6.76314">
        <ele>1913</ele>
        <time>2022-08-26T17:39:04Z</time>
      </trkpt>
      <trkpt lat="45.88407" lon="6.7631">
        <ele>1914</ele>
        <time>2022-08-26T17:39:07Z</time>
      </trkpt>
      <trkpt lat="45.88407" lon="6.76308">
        <ele>1914</ele>
        <time>2022-08-26T17:39:09Z</time>
      </trkpt>
      <trkpt lat="45.88408" lon="6.76305">
        <ele>1914</ele>
        <time>2022-08-26T17:39:11Z</time>
      </trkpt>
      <trkpt lat="45.88409" lon="6.76302">
        <ele>1914</ele>
        <time>2022-08-26T17:39:13Z</time>
      </trkpt>
      <trkpt lat="45.8841" lon="6.76299">
        <ele>1916</ele>
        <time>2022-08-26T17:39:16Z</time>
      </trkpt>
      <trkpt lat="45.88411" lon="6.76296">
        <ele>1916</ele>
        <time>2022-08-26T17:39:19Z</time>
      </trkpt>
      <trkpt lat="45.88412" lon="6.76293">
        <ele>1916</ele>
        <time>2022-08-26T17:39:21Z</time>
      </trkpt>
      <trkpt lat="45.88413" lon="6.7629">
        <ele>1917</ele>
        <time>2022-08-26T17:39:23Z</time>
      </trkpt>
      <trkpt lat="45.88414" lon="6.76287">
        <ele>1917</ele>
        <time>2022-08-26T17:39:25Z</time>
      </trkpt>
      <trkpt lat="45.88414" lon="6.76284">
        <ele>1917</ele>
        <time>2022-08-26T17:39:26Z</time>
      </trkpt>
      <trkpt lat="45.88414" lon="6.76282">
        <ele>1917</ele>
        <time>2022-08-26T17:39:27Z</time>
      </trkpt>
      <trkpt lat="45.88414" lon="6.7628">
        <ele>1917</ele>
        <time>2022-08-26T17:39:28Z</time>
      </trkpt>
      <trkpt lat="45.88414" lon="6.76277">
        <ele>1917</ele>
        <time>2022-08-26T17:39:29Z</time>
      </trkpt>
      <trkpt lat="45.88414" lon="6.76273">
        <ele>1917</ele>
        <time>2022-08-26T17:39:30Z</time>
      </trkpt>
      <trkpt lat="45.88413" lon="6.7627">
        <ele>1917</ele>
        <time>2022-08-26T17:39:31Z</time>
      </trkpt>
      <trkpt lat="45.88413" lon="6.76267">
        <ele>1917</ele>
        <time>2022-08-26T17:39:32Z</time>
      </trkpt>
      <trkpt lat="45.88412" lon="6.76262">
        <ele>1918</ele>
        <time>2022-08-26T17:39:34Z</time>
      </trkpt>
      <trkpt lat="45.88411" lon="6.7626">
        <ele>1918</ele>
        <time>2022-08-26T17:39:35Z</time>
      </trkpt>
      <trkpt lat="45.8841" lon="6.76257">
        <ele>1918</ele>
        <time>2022-08-26T17:39:36Z</time>
      </trkpt>
      <trkpt lat="45.88409" lon="6.76253">
        <ele>1919</ele>
        <time>2022-08-26T17:39:38Z</time>
      </trkpt>
      <trkpt lat="45.88408" lon="6.76248">
        <ele>1919</ele>
        <time>2022-08-26T17:39:39Z</time>
      </trkpt>
      <trkpt lat="45.88408" lon="6.76246">
        <ele>1919</ele>
        <time>2022-08-26T17:39:40Z</time>
      </trkpt>
      <trkpt lat="45.88407" lon="6.76243">
        <ele>1919</ele>
        <time>2022-08-26T17:39:41Z</time>
      </trkpt>
      <trkpt lat="45.88406" lon="6.7624">
        <ele>1919</ele>
        <time>2022-08-26T17:39:42Z</time>
      </trkpt>
      <trkpt lat="45.88406" lon="6.76237">
        <ele>1919</ele>
        <time>2022-08-26T17:39:43Z</time>
      </trkpt>
      <trkpt lat="45.88404" lon="6.76232">
        <ele>1919</ele>
        <time>2022-08-26T17:39:44Z</time>
      </trkpt>
      <trkpt lat="45.88404" lon="6.76231">
        <ele>1919</ele>
        <time>2022-08-26T17:39:45Z</time>
      </trkpt>
      <trkpt lat="45.88403" lon="6.76227">
        <ele>1919</ele>
        <time>2022-08-26T17:39:46Z</time>
      </trkpt>
      <trkpt lat="45.88402" lon="6.76224">
        <ele>1919</ele>
        <time>2022-08-26T17:39:47Z</time>
      </trkpt>
      <trkpt lat="45.88402" lon="6.7622">
        <ele>1919</ele>
        <time>2022-08-26T17:39:48Z</time>
      </trkpt>
      <trkpt lat="45.88402" lon="6.76215">
        <ele>1919</ele>
        <time>2022-08-26T17:39:49Z</time>
      </trkpt>
      <trkpt lat="45.88402" lon="6.76214">
        <ele>1920</ele>
        <time>2022-08-26T17:39:50Z</time>
      </trkpt>
      <trkpt lat="45.88401" lon="6.76209">
        <ele>1920</ele>
        <time>2022-08-26T17:39:51Z</time>
      </trkpt>
      <trkpt lat="45.884" lon="6.76208">
        <ele>1919</ele>
        <time>2022-08-26T17:39:52Z</time>
      </trkpt>
      <trkpt lat="45.884" lon="6.76203">
        <ele>1919</ele>
        <time>2022-08-26T17:39:53Z</time>
      </trkpt>
      <trkpt lat="45.88399" lon="6.76202">
        <ele>1919</ele>
        <time>2022-08-26T17:39:54Z</time>
      </trkpt>
      <trkpt lat="45.88399" lon="6.76198">
        <ele>1920</ele>
        <time>2022-08-26T17:39:55Z</time>
      </trkpt>
      <trkpt lat="45.88398" lon="6.76195">
        <ele>1920</ele>
        <time>2022-08-26T17:39:56Z</time>
      </trkpt>
      <trkpt lat="45.88398" lon="6.76192">
        <ele>1920</ele>
        <time>2022-08-26T17:39:57Z</time>
      </trkpt>
      <trkpt lat="45.88397" lon="6.76187">
        <ele>1920</ele>
        <time>2022-08-26T17:39:58Z</time>
      </trkpt>
      <trkpt lat="45.88397" lon="6.76185">
        <ele>1920</ele>
        <time>2022-08-26T17:39:59Z</time>
      </trkpt>
      <trkpt lat="45.88396" lon="6.76182">
        <ele>1920</ele>
        <time>2022-08-26T17:40:00Z</time>
      </trkpt>
      <trkpt lat="45.88395" lon="6.76178">
        <ele>1920</ele>
        <time>2022-08-26T17:40:01Z</time>
      </trkpt>
      <trkpt lat="45.88395" lon="6.76175">
        <ele>1920</ele>
        <time>2022-08-26T17:40:02Z</time>
      </trkpt>
      <trkpt lat="45.88394" lon="6.76171">
        <ele>1920</ele>
        <time>2022-08-26T17:40:03Z</time>
      </trkpt>
      <trkpt lat="45.88394" lon="6.76169">
        <ele>1920</ele>
        <time>2022-08-26T17:40:04Z</time>
      </trkpt>
      <trkpt lat="45.88393" lon="6.76165">
        <ele>1920</ele>
        <time>2022-08-26T17:40:05Z</time>
      </trkpt>
      <trkpt lat="45.88392" lon="6.76163">
        <ele>1920</ele>
        <time>2022-08-26T17:40:06Z</time>
      </trkpt>
      <trkpt lat="45.88392" lon="6.76161">
        <ele>1920</ele>
        <time>2022-08-26T17:40:07Z</time>
      </trkpt>
      <trkpt lat="45.8839" lon="6.76158">
        <ele>1920</ele>
        <time>2022-08-26T17:40:08Z</time>
      </trkpt>
      <trkpt lat="45.88389" lon="6.76156">
        <ele>1920</ele>
        <time>2022-08-26T17:40:09Z</time>
      </trkpt>
      <trkpt lat="45.88388" lon="6.76153">
        <ele>1920</ele>
        <time>2022-08-26T17:40:10Z</time>
      </trkpt>
      <trkpt lat="45.88387" lon="6.76151">
        <ele>1920</ele>
        <time>2022-08-26T17:40:11Z</time>
      </trkpt>
      <trkpt lat="45.88386" lon="6.76149">
        <ele>1920</ele>
        <time>2022-08-26T17:40:12Z</time>
      </trkpt>
      <trkpt lat="45.88385" lon="6.76146">
        <ele>1920</ele>
        <time>2022-08-26T17:40:13Z</time>
      </trkpt>
      <trkpt lat="45.88384" lon="6.76144">
        <ele>1920</ele>
        <time>2022-08-26T17:40:14Z</time>
      </trkpt>
      <trkpt lat="45.88382" lon="6.76142">
        <ele>1920</ele>
        <time>2022-08-26T17:40:15Z</time>
      </trkpt>
      <trkpt lat="45.88381" lon="6.7614">
        <ele>1920</ele>
        <time>2022-08-26T17:40:16Z</time>
      </trkpt>
      <trkpt lat="45.8838" lon="6.76138">
        <ele>1920</ele>
        <time>2022-08-26T17:40:17Z</time>
      </trkpt>
      <trkpt lat="45.88378" lon="6.76135">
        <ele>1920</ele>
        <time>2022-08-26T17:40:18Z</time>
      </trkpt>
      <trkpt lat="45.88376" lon="6.76133">
        <ele>1921</ele>
        <time>2022-08-26T17:40:20Z</time>
      </trkpt>
      <trkpt lat="45.88373" lon="6.7613">
        <ele>1921</ele>
        <time>2022-08-26T17:40:23Z</time>
      </trkpt>
      <trkpt lat="45.88371" lon="6.76128">
        <ele>1921</ele>
        <time>2022-08-26T17:40:25Z</time>
      </trkpt>
      <trkpt lat="45.88369" lon="6.76125">
        <ele>1921</ele>
        <time>2022-08-26T17:40:27Z</time>
      </trkpt>
      <trkpt lat="45.88367" lon="6.76123">
        <ele>1922</ele>
        <time>2022-08-26T17:40:29Z</time>
      </trkpt>
      <trkpt lat="45.88365" lon="6.76121">
        <ele>1922</ele>
        <time>2022-08-26T17:40:31Z</time>
      </trkpt>
      <trkpt lat="45.88363" lon="6.76119">
        <ele>1923</ele>
        <time>2022-08-26T17:40:33Z</time>
      </trkpt>
      <trkpt lat="45.88362" lon="6.76117">
        <ele>1923</ele>
        <time>2022-08-26T17:40:35Z</time>
      </trkpt>
      <trkpt lat="45.8836" lon="6.76116">
        <ele>1924</ele>
        <time>2022-08-26T17:40:37Z</time>
      </trkpt>
      <trkpt lat="45.88358" lon="6.76114">
        <ele>1924</ele>
        <time>2022-08-26T17:40:39Z</time>
      </trkpt>
      <trkpt lat="45.88356" lon="6.76113">
        <ele>1924</ele>
        <time>2022-08-26T17:40:41Z</time>
      </trkpt>
      <trkpt lat="45.88355" lon="6.76111">
        <ele>1924</ele>
        <time>2022-08-26T17:40:43Z</time>
      </trkpt>
      <trkpt lat="45.88353" lon="6.7611">
        <ele>1924</ele>
        <time>2022-08-26T17:40:45Z</time>
      </trkpt>
      <trkpt lat="45.88351" lon="6.76109">
        <ele>1925</ele>
        <time>2022-08-26T17:40:47Z</time>
      </trkpt>
      <trkpt lat="45.88349" lon="6.76108">
        <ele>1925</ele>
        <time>2022-08-26T17:40:49Z</time>
      </trkpt>
      <trkpt lat="45.88347" lon="6.76108">
        <ele>1925</ele>
        <time>2022-08-26T17:40:51Z</time>
      </trkpt>
      <trkpt lat="45.88346" lon="6.76107">
        <ele>1926</ele>
        <time>2022-08-26T17:40:53Z</time>
      </trkpt>
      <trkpt lat="45.88344" lon="6.76106">
        <ele>1927</ele>
        <time>2022-08-26T17:40:55Z</time>
      </trkpt>
      <trkpt lat="45.88342" lon="6.76105">
        <ele>1927</ele>
        <time>2022-08-26T17:40:57Z</time>
      </trkpt>
      <trkpt lat="45.8834" lon="6.76105">
        <ele>1928</ele>
        <time>2022-08-26T17:40:59Z</time>
      </trkpt>
      <trkpt lat="45.88338" lon="6.76104">
        <ele>1929</ele>
        <time>2022-08-26T17:41:01Z</time>
      </trkpt>
      <trkpt lat="45.88336" lon="6.76103">
        <ele>1929</ele>
        <time>2022-08-26T17:41:03Z</time>
      </trkpt>
      <trkpt lat="45.88334" lon="6.76102">
        <ele>1929</ele>
        <time>2022-08-26T17:41:05Z</time>
      </trkpt>
      <trkpt lat="45.88332" lon="6.761">
        <ele>1930</ele>
        <time>2022-08-26T17:41:07Z</time>
      </trkpt>
      <trkpt lat="45.8833" lon="6.761">
        <ele>1930</ele>
        <time>2022-08-26T17:41:09Z</time>
      </trkpt>
      <trkpt lat="45.88328" lon="6.76099">
        <ele>1931</ele>
        <time>2022-08-26T17:41:11Z</time>
      </trkpt>
      <trkpt lat="45.88326" lon="6.76098">
        <ele>1931</ele>
        <time>2022-08-26T17:41:13Z</time>
      </trkpt>
      <trkpt lat="45.88324" lon="6.76098">
        <ele>1931</ele>
        <time>2022-08-26T17:41:15Z</time>
      </trkpt>
      <trkpt lat="45.88322" lon="6.76097">
        <ele>1932</ele>
        <time>2022-08-26T17:41:17Z</time>
      </trkpt>
      <trkpt lat="45.88319" lon="6.76097">
        <ele>1933</ele>
        <time>2022-08-26T17:41:19Z</time>
      </trkpt>
      <trkpt lat="45.88317" lon="6.76096">
        <ele>1933</ele>
        <time>2022-08-26T17:41:21Z</time>
      </trkpt>
      <trkpt lat="45.88315" lon="6.76096">
        <ele>1933</ele>
        <time>2022-08-26T17:41:23Z</time>
      </trkpt>
      <trkpt lat="45.88313" lon="6.76096">
        <ele>1934</ele>
        <time>2022-08-26T17:41:25Z</time>
      </trkpt>
      <trkpt lat="45.88311" lon="6.76096">
        <ele>1934</ele>
        <time>2022-08-26T17:41:27Z</time>
      </trkpt>
      <trkpt lat="45.88309" lon="6.76095">
        <ele>1934</ele>
        <time>2022-08-26T17:41:29Z</time>
      </trkpt>
      <trkpt lat="45.88307" lon="6.76094">
        <ele>1935</ele>
        <time>2022-08-26T17:41:31Z</time>
      </trkpt>
      <trkpt lat="45.88305" lon="6.76094">
        <ele>1935</ele>
        <time>2022-08-26T17:41:33Z</time>
      </trkpt>
      <trkpt lat="45.88304" lon="6.76093">
        <ele>1935</ele>
        <time>2022-08-26T17:41:35Z</time>
      </trkpt>
      <trkpt lat="45.88301" lon="6.76093">
        <ele>1936</ele>
        <time>2022-08-26T17:41:37Z</time>
      </trkpt>
      <trkpt lat="45.88297" lon="6.76094">
        <ele>1936</ele>
        <time>2022-08-26T17:41:40Z</time>
      </trkpt>
      <trkpt lat="45.88295" lon="6.76094">
        <ele>1937</ele>
        <time>2022-08-26T17:41:42Z</time>
      </trkpt>
      <trkpt lat="45.88292" lon="6.76094">
        <ele>1937</ele>
        <time>2022-08-26T17:41:44Z</time>
      </trkpt>
      <trkpt lat="45.88289" lon="6.76093">
        <ele>1937</ele>
        <time>2022-08-26T17:41:46Z</time>
      </trkpt>
      <trkpt lat="45.88287" lon="6.76092">
        <ele>1938</ele>
        <time>2022-08-26T17:41:48Z</time>
      </trkpt>
      <trkpt lat="45.88284" lon="6.76091">
        <ele>1939</ele>
        <time>2022-08-26T17:41:50Z</time>
      </trkpt>
      <trkpt lat="45.88281" lon="6.76091">
        <ele>1939</ele>
        <time>2022-08-26T17:41:52Z</time>
      </trkpt>
      <trkpt lat="45.88277" lon="6.7609">
        <ele>1939</ele>
        <time>2022-08-26T17:41:54Z</time>
      </trkpt>
      <trkpt lat="45.88276" lon="6.76089">
        <ele>1939</ele>
        <time>2022-08-26T17:41:55Z</time>
      </trkpt>
      <trkpt lat="45.88274" lon="6.76089">
        <ele>1939</ele>
        <time>2022-08-26T17:41:56Z</time>
      </trkpt>
      <trkpt lat="45.88273" lon="6.76089">
        <ele>1940</ele>
        <time>2022-08-26T17:41:57Z</time>
      </trkpt>
      <trkpt lat="45.88272" lon="6.76089">
        <ele>1940</ele>
        <time>2022-08-26T17:41:59Z</time>
      </trkpt>
      <trkpt lat="45.8827" lon="6.76088">
        <ele>1940</ele>
        <time>2022-08-26T17:42:00Z</time>
      </trkpt>
      <trkpt lat="45.88269" lon="6.76088">
        <ele>1940</ele>
        <time>2022-08-26T17:42:01Z</time>
      </trkpt>
      <trkpt lat="45.88267" lon="6.76087">
        <ele>1940</ele>
        <time>2022-08-26T17:42:03Z</time>
      </trkpt>
      <trkpt lat="45.88265" lon="6.76087">
        <ele>1940</ele>
        <time>2022-08-26T17:42:04Z</time>
      </trkpt>
      <trkpt lat="45.88263" lon="6.76086">
        <ele>1941</ele>
        <time>2022-08-26T17:42:05Z</time>
      </trkpt>
      <trkpt lat="45.88261" lon="6.76085">
        <ele>1941</ele>
        <time>2022-08-26T17:42:07Z</time>
      </trkpt>
      <trkpt lat="45.88259" lon="6.76084">
        <ele>1942</ele>
        <time>2022-08-26T17:42:08Z</time>
      </trkpt>
      <trkpt lat="45.88258" lon="6.76084">
        <ele>1942</ele>
        <time>2022-08-26T17:42:09Z</time>
      </trkpt>
      <trkpt lat="45.88257" lon="6.76083">
        <ele>1942</ele>
        <time>2022-08-26T17:42:10Z</time>
      </trkpt>
      <trkpt lat="45.88256" lon="6.76082">
        <ele>1942</ele>
        <time>2022-08-26T17:42:11Z</time>
      </trkpt>
      <trkpt lat="45.88255" lon="6.76081">
        <ele>1942</ele>
        <time>2022-08-26T17:42:12Z</time>
      </trkpt>
      <trkpt lat="45.88254" lon="6.76081">
        <ele>1942</ele>
        <time>2022-08-26T17:42:13Z</time>
      </trkpt>
      <trkpt lat="45.88252" lon="6.7608">
        <ele>1943</ele>
        <time>2022-08-26T17:42:14Z</time>
      </trkpt>
      <trkpt lat="45.88251" lon="6.76079">
        <ele>1943</ele>
        <time>2022-08-26T17:42:15Z</time>
      </trkpt>
      <trkpt lat="45.8825" lon="6.76078">
        <ele>1943</ele>
        <time>2022-08-26T17:42:16Z</time>
      </trkpt>
      <trkpt lat="45.88248" lon="6.76078">
        <ele>1943</ele>
        <time>2022-08-26T17:42:17Z</time>
      </trkpt>
      <trkpt lat="45.88245" lon="6.76075">
        <ele>1943</ele>
        <time>2022-08-26T17:42:18Z</time>
      </trkpt>
      <trkpt lat="45.88243" lon="6.76074">
        <ele>1943</ele>
        <time>2022-08-26T17:42:19Z</time>
      </trkpt>
      <trkpt lat="45.88241" lon="6.76072">
        <ele>1943</ele>
        <time>2022-08-26T17:42:20Z</time>
      </trkpt>
      <trkpt lat="45.88238" lon="6.7607">
        <ele>1943</ele>
        <time>2022-08-26T17:42:21Z</time>
      </trkpt>
      <trkpt lat="45.88237" lon="6.76069">
        <ele>1944</ele>
        <time>2022-08-26T17:42:22Z</time>
      </trkpt>
      <trkpt lat="45.88234" lon="6.76066">
        <ele>1944</ele>
        <time>2022-08-26T17:42:23Z</time>
      </trkpt>
      <trkpt lat="45.88233" lon="6.76066">
        <ele>1944</ele>
        <time>2022-08-26T17:42:24Z</time>
      </trkpt>
      <trkpt lat="45.88231" lon="6.76064">
        <ele>1944</ele>
        <time>2022-08-26T17:42:25Z</time>
      </trkpt>
      <trkpt lat="45.88228" lon="6.76062">
        <ele>1944</ele>
        <time>2022-08-26T17:42:27Z</time>
      </trkpt>
      <trkpt lat="45.88224" lon="6.7606">
        <ele>1944</ele>
        <time>2022-08-26T17:42:28Z</time>
      </trkpt>
      <trkpt lat="45.88223" lon="6.76059">
        <ele>1944</ele>
        <time>2022-08-26T17:42:29Z</time>
      </trkpt>
      <trkpt lat="45.88222" lon="6.76058">
        <ele>1944</ele>
        <time>2022-08-26T17:42:31Z</time>
      </trkpt>
      <trkpt lat="45.88221" lon="6.76056">
        <ele>1944</ele>
        <time>2022-08-26T17:42:32Z</time>
      </trkpt>
      <trkpt lat="45.8822" lon="6.76055">
        <ele>1944</ele>
        <time>2022-08-26T17:42:33Z</time>
      </trkpt>
      <trkpt lat="45.88213" lon="6.76048">
        <ele>1944</ele>
        <time>2022-08-26T17:42:34Z</time>
      </trkpt>
      <trkpt lat="45.88211" lon="6.76045">
        <ele>1944</ele>
        <time>2022-08-26T17:42:36Z</time>
      </trkpt>
      <trkpt lat="45.88208" lon="6.76042">
        <ele>1944</ele>
        <time>2022-08-26T17:42:37Z</time>
      </trkpt>
      <trkpt lat="45.88207" lon="6.76041">
        <ele>1945</ele>
        <time>2022-08-26T17:42:38Z</time>
      </trkpt>
      <trkpt lat="45.88205" lon="6.76039">
        <ele>1945</ele>
        <time>2022-08-26T17:42:39Z</time>
      </trkpt>
      <trkpt lat="45.88203" lon="6.76037">
        <ele>1945</ele>
        <time>2022-08-26T17:42:40Z</time>
      </trkpt>
      <trkpt lat="45.88202" lon="6.76035">
        <ele>1945</ele>
        <time>2022-08-26T17:42:41Z</time>
      </trkpt>
      <trkpt lat="45.882" lon="6.76033">
        <ele>1945</ele>
        <time>2022-08-26T17:42:42Z</time>
      </trkpt>
      <trkpt lat="45.88198" lon="6.76029">
        <ele>1945</ele>
        <time>2022-08-26T17:42:44Z</time>
      </trkpt>
      <trkpt lat="45.88195" lon="6.76027">
        <ele>1945</ele>
        <time>2022-08-26T17:42:46Z</time>
      </trkpt>
      <trkpt lat="45.88193" lon="6.76025">
        <ele>1945</ele>
        <time>2022-08-26T17:42:48Z</time>
      </trkpt>
      <trkpt lat="45.88191" lon="6.76022">
        <ele>1946</ele>
        <time>2022-08-26T17:42:50Z</time>
      </trkpt>
      <trkpt lat="45.88189" lon="6.7602">
        <ele>1946</ele>
        <time>2022-08-26T17:42:52Z</time>
      </trkpt>
      <trkpt lat="45.88187" lon="6.76017">
        <ele>1947</ele>
        <time>2022-08-26T17:42:54Z</time>
      </trkpt>
      <trkpt lat="45.88184" lon="6.76014">
        <ele>1947</ele>
        <time>2022-08-26T17:42:56Z</time>
      </trkpt>
      <trkpt lat="45.88182" lon="6.76012">
        <ele>1947</ele>
        <time>2022-08-26T17:42:58Z</time>
      </trkpt>
      <trkpt lat="45.8818" lon="6.7601">
        <ele>1947</ele>
        <time>2022-08-26T17:43:00Z</time>
      </trkpt>
      <trkpt lat="45.88177" lon="6.76009">
        <ele>1948</ele>
        <time>2022-08-26T17:43:02Z</time>
      </trkpt>
      <trkpt lat="45.88175" lon="6.76007">
        <ele>1948</ele>
        <time>2022-08-26T17:43:04Z</time>
      </trkpt>
      <trkpt lat="45.88173" lon="6.76006">
        <ele>1948</ele>
        <time>2022-08-26T17:43:06Z</time>
      </trkpt>
      <trkpt lat="45.8817" lon="6.76005">
        <ele>1948</ele>
        <time>2022-08-26T17:43:08Z</time>
      </trkpt>
      <trkpt lat="45.88167" lon="6.76003">
        <ele>1948</ele>
        <time>2022-08-26T17:43:10Z</time>
      </trkpt>
      <trkpt lat="45.88165" lon="6.76002">
        <ele>1950</ele>
        <time>2022-08-26T17:43:12Z</time>
      </trkpt>
      <trkpt lat="45.88163" lon="6.76">
        <ele>1951</ele>
        <time>2022-08-26T17:43:14Z</time>
      </trkpt>
      <trkpt lat="45.88161" lon="6.75999">
        <ele>1951</ele>
        <time>2022-08-26T17:43:16Z</time>
      </trkpt>
      <trkpt lat="45.88158" lon="6.75998">
        <ele>1951</ele>
        <time>2022-08-26T17:43:18Z</time>
      </trkpt>
      <trkpt lat="45.88156" lon="6.75997">
        <ele>1951</ele>
        <time>2022-08-26T17:43:20Z</time>
      </trkpt>
      <trkpt lat="45.88153" lon="6.75997">
        <ele>1951</ele>
        <time>2022-08-26T17:43:22Z</time>
      </trkpt>
      <trkpt lat="45.88151" lon="6.75998">
        <ele>1951</ele>
        <time>2022-08-26T17:43:24Z</time>
      </trkpt>
      <trkpt lat="45.88148" lon="6.75998">
        <ele>1952</ele>
        <time>2022-08-26T17:43:26Z</time>
      </trkpt>
      <trkpt lat="45.88145" lon="6.76">
        <ele>1953</ele>
        <time>2022-08-26T17:43:28Z</time>
      </trkpt>
      <trkpt lat="45.88142" lon="6.76002">
        <ele>1953</ele>
        <time>2022-08-26T17:43:30Z</time>
      </trkpt>
      <trkpt lat="45.8814" lon="6.76004">
        <ele>1953</ele>
        <time>2022-08-26T17:43:32Z</time>
      </trkpt>
      <trkpt lat="45.88138" lon="6.76006">
        <ele>1953</ele>
        <time>2022-08-26T17:43:34Z</time>
      </trkpt>
      <trkpt lat="45.88136" lon="6.76008">
        <ele>1953</ele>
        <time>2022-08-26T17:43:36Z</time>
      </trkpt>
      <trkpt lat="45.88134" lon="6.7601">
        <ele>1953</ele>
        <time>2022-08-26T17:43:38Z</time>
      </trkpt>
      <trkpt lat="45.88133" lon="6.76012">
        <ele>1953</ele>
        <time>2022-08-26T17:43:40Z</time>
      </trkpt>
      <trkpt lat="45.88132" lon="6.76014">
        <ele>1954</ele>
        <time>2022-08-26T17:43:41Z</time>
      </trkpt>
      <trkpt lat="45.88132" lon="6.76015">
        <ele>1955</ele>
        <time>2022-08-26T17:43:43Z</time>
      </trkpt>
      <trkpt lat="45.88131" lon="6.76016">
        <ele>1955</ele>
        <time>2022-08-26T17:43:45Z</time>
      </trkpt>
      <trkpt lat="45.8813" lon="6.76018">
        <ele>1955</ele>
        <time>2022-08-26T17:43:46Z</time>
      </trkpt>
      <trkpt lat="45.8813" lon="6.76019">
        <ele>1955</ele>
        <time>2022-08-26T17:43:47Z</time>
      </trkpt>
      <trkpt lat="45.88129" lon="6.7602">
        <ele>1956</ele>
        <time>2022-08-26T17:43:48Z</time>
      </trkpt>
      <trkpt lat="45.88128" lon="6.76022">
        <ele>1956</ele>
        <time>2022-08-26T17:43:49Z</time>
      </trkpt>
      <trkpt lat="45.88127" lon="6.76023">
        <ele>1957</ele>
        <time>2022-08-26T17:43:50Z</time>
      </trkpt>
      <trkpt lat="45.88126" lon="6.76026">
        <ele>1957</ele>
        <time>2022-08-26T17:43:51Z</time>
      </trkpt>
      <trkpt lat="45.88125" lon="6.76029">
        <ele>1957</ele>
        <time>2022-08-26T17:43:54Z</time>
      </trkpt>
      <trkpt lat="45.88125" lon="6.76031">
        <ele>1958</ele>
        <time>2022-08-26T17:43:57Z</time>
      </trkpt>
      <trkpt lat="45.88124" lon="6.76034">
        <ele>1960</ele>
        <time>2022-08-26T17:43:59Z</time>
      </trkpt>
      <trkpt lat="45.88123" lon="6.76036">
        <ele>1960</ele>
        <time>2022-08-26T17:44:01Z</time>
      </trkpt>
      <trkpt lat="45.88121" lon="6.76039">
        <ele>1960</ele>
        <time>2022-08-26T17:44:03Z</time>
      </trkpt>
      <trkpt lat="45.8812" lon="6.76041">
        <ele>1960</ele>
        <time>2022-08-26T17:44:05Z</time>
      </trkpt>
      <trkpt lat="45.88119" lon="6.76044">
        <ele>1962</ele>
        <time>2022-08-26T17:44:07Z</time>
      </trkpt>
      <trkpt lat="45.88119" lon="6.76047">
        <ele>1962</ele>
        <time>2022-08-26T17:44:09Z</time>
      </trkpt>
      <trkpt lat="45.88117" lon="6.7605">
        <ele>1963</ele>
        <time>2022-08-26T17:44:12Z</time>
      </trkpt>
      <trkpt lat="45.88116" lon="6.76052">
        <ele>1964</ele>
        <time>2022-08-26T17:44:14Z</time>
      </trkpt>
      <trkpt lat="45.88114" lon="6.76055">
        <ele>1965</ele>
        <time>2022-08-26T17:44:17Z</time>
      </trkpt>
      <trkpt lat="45.88112" lon="6.76058">
        <ele>1965</ele>
        <time>2022-08-26T17:44:19Z</time>
      </trkpt>
      <trkpt lat="45.88111" lon="6.7606">
        <ele>1966</ele>
        <time>2022-08-26T17:44:21Z</time>
      </trkpt>
      <trkpt lat="45.88109" lon="6.76062">
        <ele>1967</ele>
        <time>2022-08-26T17:44:24Z</time>
      </trkpt>
      <trkpt lat="45.88108" lon="6.76064">
        <ele>1967</ele>
        <time>2022-08-26T17:44:26Z</time>
      </trkpt>
      <trkpt lat="45.88106" lon="6.76066">
        <ele>1968</ele>
        <time>2022-08-26T17:44:28Z</time>
      </trkpt>
      <trkpt lat="45.88104" lon="6.76068">
        <ele>1968</ele>
        <time>2022-08-26T17:44:30Z</time>
      </trkpt>
      <trkpt lat="45.88102" lon="6.7607">
        <ele>1968</ele>
        <time>2022-08-26T17:44:32Z</time>
      </trkpt>
      <trkpt lat="45.881" lon="6.76071">
        <ele>1969</ele>
        <time>2022-08-26T17:44:34Z</time>
      </trkpt>
      <trkpt lat="45.88098" lon="6.76072">
        <ele>1969</ele>
        <time>2022-08-26T17:44:36Z</time>
      </trkpt>
      <trkpt lat="45.88096" lon="6.76073">
        <ele>1970</ele>
        <time>2022-08-26T17:44:38Z</time>
      </trkpt>
      <trkpt lat="45.88093" lon="6.76074">
        <ele>1970</ele>
        <time>2022-08-26T17:44:40Z</time>
      </trkpt>
      <trkpt lat="45.88091" lon="6.76074">
        <ele>1971</ele>
        <time>2022-08-26T17:44:42Z</time>
      </trkpt>
      <trkpt lat="45.88089" lon="6.76075">
        <ele>1971</ele>
        <time>2022-08-26T17:44:44Z</time>
      </trkpt>
      <trkpt lat="45.88086" lon="6.76076">
        <ele>1971</ele>
        <time>2022-08-26T17:44:46Z</time>
      </trkpt>
      <trkpt lat="45.88084" lon="6.76077">
        <ele>1971</ele>
        <time>2022-08-26T17:44:48Z</time>
      </trkpt>
      <trkpt lat="45.88081" lon="6.76078">
        <ele>1972</ele>
        <time>2022-08-26T17:44:50Z</time>
      </trkpt>
      <trkpt lat="45.88079" lon="6.76079">
        <ele>1972</ele>
        <time>2022-08-26T17:44:52Z</time>
      </trkpt>
      <trkpt lat="45.88076" lon="6.7608">
        <ele>1972</ele>
        <time>2022-08-26T17:44:54Z</time>
      </trkpt>
      <trkpt lat="45.88074" lon="6.76081">
        <ele>1973</ele>
        <time>2022-08-26T17:44:56Z</time>
      </trkpt>
      <trkpt lat="45.88072" lon="6.76082">
        <ele>1973</ele>
        <time>2022-08-26T17:44:58Z</time>
      </trkpt>
      <trkpt lat="45.8807" lon="6.76083">
        <ele>1974</ele>
        <time>2022-08-26T17:45:00Z</time>
      </trkpt>
      <trkpt lat="45.88067" lon="6.76084">
        <ele>1974</ele>
        <time>2022-08-26T17:45:02Z</time>
      </trkpt>
      <trkpt lat="45.88065" lon="6.76084">
        <ele>1975</ele>
        <time>2022-08-26T17:45:04Z</time>
      </trkpt>
      <trkpt lat="45.88062" lon="6.76086">
        <ele>1975</ele>
        <time>2022-08-26T17:45:06Z</time>
      </trkpt>
      <trkpt lat="45.8806" lon="6.76087">
        <ele>1975</ele>
        <time>2022-08-26T17:45:08Z</time>
      </trkpt>
      <trkpt lat="45.88057" lon="6.76088">
        <ele>1976</ele>
        <time>2022-08-26T17:45:10Z</time>
      </trkpt>
      <trkpt lat="45.88055" lon="6.76089">
        <ele>1976</ele>
        <time>2022-08-26T17:45:12Z</time>
      </trkpt>
      <trkpt lat="45.88053" lon="6.7609">
        <ele>1976</ele>
        <time>2022-08-26T17:45:14Z</time>
      </trkpt>
      <trkpt lat="45.88051" lon="6.76092">
        <ele>1976</ele>
        <time>2022-08-26T17:45:16Z</time>
      </trkpt>
      <trkpt lat="45.88048" lon="6.76094">
        <ele>1977</ele>
        <time>2022-08-26T17:45:18Z</time>
      </trkpt>
      <trkpt lat="45.88046" lon="6.76096">
        <ele>1977</ele>
        <time>2022-08-26T17:45:20Z</time>
      </trkpt>
      <trkpt lat="45.88044" lon="6.76098">
        <ele>1977</ele>
        <time>2022-08-26T17:45:22Z</time>
      </trkpt>
      <trkpt lat="45.88041" lon="6.761">
        <ele>1978</ele>
        <time>2022-08-26T17:45:24Z</time>
      </trkpt>
      <trkpt lat="45.88038" lon="6.76103">
        <ele>1978</ele>
        <time>2022-08-26T17:45:26Z</time>
      </trkpt>
      <trkpt lat="45.88035" lon="6.76104">
        <ele>1978</ele>
        <time>2022-08-26T17:45:28Z</time>
      </trkpt>
      <trkpt lat="45.88032" lon="6.76106">
        <ele>1978</ele>
        <time>2022-08-26T17:45:30Z</time>
      </trkpt>
      <trkpt lat="45.88029" lon="6.76107">
        <ele>1979</ele>
        <time>2022-08-26T17:45:32Z</time>
      </trkpt>
      <trkpt lat="45.88027" lon="6.76108">
        <ele>1979</ele>
        <time>2022-08-26T17:45:34Z</time>
      </trkpt>
      <trkpt lat="45.88024" lon="6.76109">
        <ele>1979</ele>
        <time>2022-08-26T17:45:36Z</time>
      </trkpt>
      <trkpt lat="45.88021" lon="6.76109">
        <ele>1979</ele>
        <time>2022-08-26T17:45:38Z</time>
      </trkpt>
      <trkpt lat="45.88018" lon="6.76109">
        <ele>1980</ele>
        <time>2022-08-26T17:45:40Z</time>
      </trkpt>
      <trkpt lat="45.88016" lon="6.76108">
        <ele>1980</ele>
        <time>2022-08-26T17:45:42Z</time>
      </trkpt>
      <trkpt lat="45.88013" lon="6.76108">
        <ele>1980</ele>
        <time>2022-08-26T17:45:44Z</time>
      </trkpt>
      <trkpt lat="45.88011" lon="6.76108">
        <ele>1981</ele>
        <time>2022-08-26T17:45:46Z</time>
      </trkpt>
      <trkpt lat="45.88008" lon="6.76107">
        <ele>1981</ele>
        <time>2022-08-26T17:45:48Z</time>
      </trkpt>
      <trkpt lat="45.88006" lon="6.76107">
        <ele>1981</ele>
        <time>2022-08-26T17:45:50Z</time>
      </trkpt>
      <trkpt lat="45.88004" lon="6.76104">
        <ele>1982</ele>
        <time>2022-08-26T17:45:52Z</time>
      </trkpt>
      <trkpt lat="45.88002" lon="6.76104">
        <ele>1982</ele>
        <time>2022-08-26T17:45:54Z</time>
      </trkpt>
      <trkpt lat="45.87999" lon="6.76104">
        <ele>1983</ele>
        <time>2022-08-26T17:45:56Z</time>
      </trkpt>
      <trkpt lat="45.87997" lon="6.76104">
        <ele>1984</ele>
        <time>2022-08-26T17:45:58Z</time>
      </trkpt>
      <trkpt lat="45.87995" lon="6.76103">
        <ele>1984</ele>
        <time>2022-08-26T17:46:00Z</time>
      </trkpt>
      <trkpt lat="45.87993" lon="6.76102">
        <ele>1985</ele>
        <time>2022-08-26T17:46:02Z</time>
      </trkpt>
      <trkpt lat="45.87991" lon="6.76102">
        <ele>1985</ele>
        <time>2022-08-26T17:46:04Z</time>
      </trkpt>
      <trkpt lat="45.87989" lon="6.76101">
        <ele>1985</ele>
        <time>2022-08-26T17:46:06Z</time>
      </trkpt>
      <trkpt lat="45.87987" lon="6.761">
        <ele>1986</ele>
        <time>2022-08-26T17:46:08Z</time>
      </trkpt>
      <trkpt lat="45.87985" lon="6.761">
        <ele>1986</ele>
        <time>2022-08-26T17:46:10Z</time>
      </trkpt>
      <trkpt lat="45.87983" lon="6.76099">
        <ele>1988</ele>
        <time>2022-08-26T17:46:12Z</time>
      </trkpt>
      <trkpt lat="45.87981" lon="6.76098">
        <ele>1988</ele>
        <time>2022-08-26T17:46:14Z</time>
      </trkpt>
      <trkpt lat="45.87979" lon="6.76097">
        <ele>1989</ele>
        <time>2022-08-26T17:46:16Z</time>
      </trkpt>
      <trkpt lat="45.87977" lon="6.76096">
        <ele>1989</ele>
        <time>2022-08-26T17:46:18Z</time>
      </trkpt>
      <trkpt lat="45.87975" lon="6.76095">
        <ele>1990</ele>
        <time>2022-08-26T17:46:20Z</time>
      </trkpt>
      <trkpt lat="45.87972" lon="6.76095">
        <ele>1990</ele>
        <time>2022-08-26T17:46:23Z</time>
      </trkpt>
      <trkpt lat="45.87969" lon="6.76094">
        <ele>1990</ele>
        <time>2022-08-26T17:46:25Z</time>
      </trkpt>
      <trkpt lat="45.87966" lon="6.76094">
        <ele>1991</ele>
        <time>2022-08-26T17:46:27Z</time>
      </trkpt>
      <trkpt lat="45.87964" lon="6.76094">
        <ele>1991</ele>
        <time>2022-08-26T17:46:29Z</time>
      </trkpt>
      <trkpt lat="45.87961" lon="6.76093">
        <ele>1992</ele>
        <time>2022-08-26T17:46:31Z</time>
      </trkpt>
      <trkpt lat="45.87959" lon="6.76092">
        <ele>1992</ele>
        <time>2022-08-26T17:46:33Z</time>
      </trkpt>
      <trkpt lat="45.87957" lon="6.76092">
        <ele>1992</ele>
        <time>2022-08-26T17:46:35Z</time>
      </trkpt>
      <trkpt lat="45.87955" lon="6.76091">
        <ele>1993</ele>
        <time>2022-08-26T17:46:37Z</time>
      </trkpt>
      <trkpt lat="45.87953" lon="6.7609">
        <ele>1993</ele>
        <time>2022-08-26T17:46:39Z</time>
      </trkpt>
      <trkpt lat="45.87951" lon="6.76089">
        <ele>1994</ele>
        <time>2022-08-26T17:46:41Z</time>
      </trkpt>
      <trkpt lat="45.87948" lon="6.76089">
        <ele>1994</ele>
        <time>2022-08-26T17:46:43Z</time>
      </trkpt>
      <trkpt lat="45.87946" lon="6.76088">
        <ele>1995</ele>
        <time>2022-08-26T17:46:46Z</time>
      </trkpt>
      <trkpt lat="45.87944" lon="6.76086">
        <ele>1996</ele>
        <time>2022-08-26T17:46:49Z</time>
      </trkpt>
      <trkpt lat="45.87942" lon="6.76085">
        <ele>1996</ele>
        <time>2022-08-26T17:46:51Z</time>
      </trkpt>
      <trkpt lat="45.87941" lon="6.76083">
        <ele>1997</ele>
        <time>2022-08-26T17:46:53Z</time>
      </trkpt>
      <trkpt lat="45.87939" lon="6.76081">
        <ele>1998</ele>
        <time>2022-08-26T17:46:55Z</time>
      </trkpt>
      <trkpt lat="45.87939" lon="6.76077">
        <ele>1998</ele>
        <time>2022-08-26T17:46:57Z</time>
      </trkpt>
      <trkpt lat="45.87939" lon="6.76073">
        <ele>1999</ele>
        <time>2022-08-26T17:46:59Z</time>
      </trkpt>
      <trkpt lat="45.8794" lon="6.7607">
        <ele>2001</ele>
        <time>2022-08-26T17:47:01Z</time>
      </trkpt>
      <trkpt lat="45.87941" lon="6.76067">
        <ele>2001</ele>
        <time>2022-08-26T17:47:03Z</time>
      </trkpt>
      <trkpt lat="45.87942" lon="6.76064">
        <ele>2000</ele>
        <time>2022-08-26T17:47:05Z</time>
      </trkpt>
      <trkpt lat="45.87944" lon="6.76061">
        <ele>2001</ele>
        <time>2022-08-26T17:47:08Z</time>
      </trkpt>
      <trkpt lat="45.87946" lon="6.76059">
        <ele>2001</ele>
        <time>2022-08-26T17:47:10Z</time>
      </trkpt>
      <trkpt lat="45.87948" lon="6.76056">
        <ele>2002</ele>
        <time>2022-08-26T17:47:13Z</time>
      </trkpt>
      <trkpt lat="45.8795" lon="6.76054">
        <ele>2002</ele>
        <time>2022-08-26T17:47:15Z</time>
      </trkpt>
      <trkpt lat="45.87951" lon="6.76052">
        <ele>2002</ele>
        <time>2022-08-26T17:47:17Z</time>
      </trkpt>
      <trkpt lat="45.87953" lon="6.76049">
        <ele>2003</ele>
        <time>2022-08-26T17:47:19Z</time>
      </trkpt>
      <trkpt lat="45.87954" lon="6.76047">
        <ele>2004</ele>
        <time>2022-08-26T17:47:21Z</time>
      </trkpt>
      <trkpt lat="45.87957" lon="6.76045">
        <ele>2004</ele>
        <time>2022-08-26T17:47:23Z</time>
      </trkpt>
      <trkpt lat="45.87958" lon="6.76043">
        <ele>2004</ele>
        <time>2022-08-26T17:47:25Z</time>
      </trkpt>
      <trkpt lat="45.8796" lon="6.7604">
        <ele>2005</ele>
        <time>2022-08-26T17:47:27Z</time>
      </trkpt>
      <trkpt lat="45.87961" lon="6.76038">
        <ele>2006</ele>
        <time>2022-08-26T17:47:29Z</time>
      </trkpt>
      <trkpt lat="45.87962" lon="6.76036">
        <ele>2007</ele>
        <time>2022-08-26T17:47:31Z</time>
      </trkpt>
      <trkpt lat="45.87962" lon="6.76033">
        <ele>2007</ele>
        <time>2022-08-26T17:47:34Z</time>
      </trkpt>
      <trkpt lat="45.87961" lon="6.76031">
        <ele>2007</ele>
        <time>2022-08-26T17:47:37Z</time>
      </trkpt>
      <trkpt lat="45.87959" lon="6.7603">
        <ele>2008</ele>
        <time>2022-08-26T17:47:40Z</time>
      </trkpt>
      <trkpt lat="45.87957" lon="6.7603">
        <ele>2009</ele>
        <time>2022-08-26T17:47:42Z</time>
      </trkpt>
      <trkpt lat="45.87955" lon="6.76029">
        <ele>2009</ele>
        <time>2022-08-26T17:47:44Z</time>
      </trkpt>
      <trkpt lat="45.87953" lon="6.76029">
        <ele>2010</ele>
        <time>2022-08-26T17:47:47Z</time>
      </trkpt>
      <trkpt lat="45.8795" lon="6.76029">
        <ele>2011</ele>
        <time>2022-08-26T17:47:50Z</time>
      </trkpt>
      <trkpt lat="45.87947" lon="6.76028">
        <ele>2011</ele>
        <time>2022-08-26T17:47:52Z</time>
      </trkpt>
      <trkpt lat="45.87946" lon="6.76027">
        <ele>2011</ele>
        <time>2022-08-26T17:47:54Z</time>
      </trkpt>
      <trkpt lat="45.87944" lon="6.76026">
        <ele>2012</ele>
        <time>2022-08-26T17:47:56Z</time>
      </trkpt>
      <trkpt lat="45.87941" lon="6.76026">
        <ele>2012</ele>
        <time>2022-08-26T17:47:58Z</time>
      </trkpt>
      <trkpt lat="45.87939" lon="6.76026">
        <ele>2012</ele>
        <time>2022-08-26T17:48:00Z</time>
      </trkpt>
      <trkpt lat="45.87937" lon="6.76025">
        <ele>2012</ele>
        <time>2022-08-26T17:48:02Z</time>
      </trkpt>
      <trkpt lat="45.87934" lon="6.76025">
        <ele>2012</ele>
        <time>2022-08-26T17:48:04Z</time>
      </trkpt>
      <trkpt lat="45.87931" lon="6.76024">
        <ele>2014</ele>
        <time>2022-08-26T17:48:06Z</time>
      </trkpt>
      <trkpt lat="45.87929" lon="6.76023">
        <ele>2014</ele>
        <time>2022-08-26T17:48:08Z</time>
      </trkpt>
      <trkpt lat="45.87927" lon="6.76023">
        <ele>2014</ele>
        <time>2022-08-26T17:48:09Z</time>
      </trkpt>
      <trkpt lat="45.87925" lon="6.76022">
        <ele>2014</ele>
        <time>2022-08-26T17:48:10Z</time>
      </trkpt>
      <trkpt lat="45.87923" lon="6.76022">
        <ele>2014</ele>
        <time>2022-08-26T17:48:11Z</time>
      </trkpt>
      <trkpt lat="45.8792" lon="6.76021">
        <ele>2014</ele>
        <time>2022-08-26T17:48:12Z</time>
      </trkpt>
      <trkpt lat="45.87919" lon="6.76021">
        <ele>2014</ele>
        <time>2022-08-26T17:48:13Z</time>
      </trkpt>
      <trkpt lat="45.87917" lon="6.76019">
        <ele>2014</ele>
        <time>2022-08-26T17:48:14Z</time>
      </trkpt>
      <trkpt lat="45.87915" lon="6.76019">
        <ele>2014</ele>
        <time>2022-08-26T17:48:15Z</time>
      </trkpt>
      <trkpt lat="45.87913" lon="6.76019">
        <ele>2014</ele>
        <time>2022-08-26T17:48:16Z</time>
      </trkpt>
      <trkpt lat="45.8791" lon="6.76018">
        <ele>2014</ele>
        <time>2022-08-26T17:48:17Z</time>
      </trkpt>
      <trkpt lat="45.87908" lon="6.76018">
        <ele>2015</ele>
        <time>2022-08-26T17:48:18Z</time>
      </trkpt>
      <trkpt lat="45.87906" lon="6.76017">
        <ele>2015</ele>
        <time>2022-08-26T17:48:19Z</time>
      </trkpt>
      <trkpt lat="45.87902" lon="6.76016">
        <ele>2015</ele>
        <time>2022-08-26T17:48:20Z</time>
      </trkpt>
      <trkpt lat="45.87901" lon="6.76015">
        <ele>2015</ele>
        <time>2022-08-26T17:48:21Z</time>
      </trkpt>
      <trkpt lat="45.87898" lon="6.76015">
        <ele>2015</ele>
        <time>2022-08-26T17:48:22Z</time>
      </trkpt>
      <trkpt lat="45.87897" lon="6.76015">
        <ele>2015</ele>
        <time>2022-08-26T17:48:23Z</time>
      </trkpt>
      <trkpt lat="45.87895" lon="6.76014">
        <ele>2015</ele>
        <time>2022-08-26T17:48:24Z</time>
      </trkpt>
      <trkpt lat="45.87892" lon="6.76014">
        <ele>2015</ele>
        <time>2022-08-26T17:48:25Z</time>
      </trkpt>
      <trkpt lat="45.87889" lon="6.76013">
        <ele>2015</ele>
        <time>2022-08-26T17:48:26Z</time>
      </trkpt>
      <trkpt lat="45.87888" lon="6.76013">
        <ele>2015</ele>
        <time>2022-08-26T17:48:27Z</time>
      </trkpt>
      <trkpt lat="45.87886" lon="6.76013">
        <ele>2015</ele>
        <time>2022-08-26T17:48:28Z</time>
      </trkpt>
      <trkpt lat="45.87884" lon="6.76013">
        <ele>2015</ele>
        <time>2022-08-26T17:48:29Z</time>
      </trkpt>
      <trkpt lat="45.87882" lon="6.76013">
        <ele>2015</ele>
        <time>2022-08-26T17:48:30Z</time>
      </trkpt>
      <trkpt lat="45.87878" lon="6.76012">
        <ele>2015</ele>
        <time>2022-08-26T17:48:31Z</time>
      </trkpt>
      <trkpt lat="45.87877" lon="6.76012">
        <ele>2016</ele>
        <time>2022-08-26T17:48:32Z</time>
      </trkpt>
      <trkpt lat="45.87875" lon="6.76012">
        <ele>2016</ele>
        <time>2022-08-26T17:48:33Z</time>
      </trkpt>
      <trkpt lat="45.87873" lon="6.76012">
        <ele>2016</ele>
        <time>2022-08-26T17:48:34Z</time>
      </trkpt>
      <trkpt lat="45.8787" lon="6.76011">
        <ele>2016</ele>
        <time>2022-08-26T17:48:35Z</time>
      </trkpt>
      <trkpt lat="45.87869" lon="6.76011">
        <ele>2016</ele>
        <time>2022-08-26T17:48:36Z</time>
      </trkpt>
      <trkpt lat="45.87866" lon="6.76011">
        <ele>2016</ele>
        <time>2022-08-26T17:48:37Z</time>
      </trkpt>
      <trkpt lat="45.87864" lon="6.7601">
        <ele>2017</ele>
        <time>2022-08-26T17:48:38Z</time>
      </trkpt>
      <trkpt lat="45.8786" lon="6.76009">
        <ele>2017</ele>
        <time>2022-08-26T17:48:39Z</time>
      </trkpt>
      <trkpt lat="45.87859" lon="6.76009">
        <ele>2017</ele>
        <time>2022-08-26T17:48:40Z</time>
      </trkpt>
      <trkpt lat="45.87857" lon="6.76009">
        <ele>2017</ele>
        <time>2022-08-26T17:48:41Z</time>
      </trkpt>
      <trkpt lat="45.87855" lon="6.76008">
        <ele>2017</ele>
        <time>2022-08-26T17:48:42Z</time>
      </trkpt>
      <trkpt lat="45.87851" lon="6.76008">
        <ele>2017</ele>
        <time>2022-08-26T17:48:43Z</time>
      </trkpt>
      <trkpt lat="45.8785" lon="6.76008">
        <ele>2016</ele>
        <time>2022-08-26T17:48:44Z</time>
      </trkpt>
      <trkpt lat="45.87848" lon="6.76007">
        <ele>2016</ele>
        <time>2022-08-26T17:48:45Z</time>
      </trkpt>
      <trkpt lat="45.87846" lon="6.76006">
        <ele>2016</ele>
        <time>2022-08-26T17:48:46Z</time>
      </trkpt>
      <trkpt lat="45.87843" lon="6.76006">
        <ele>2016</ele>
        <time>2022-08-26T17:48:47Z</time>
      </trkpt>
      <trkpt lat="45.8784" lon="6.76005">
        <ele>2016</ele>
        <time>2022-08-26T17:48:48Z</time>
      </trkpt>
      <trkpt lat="45.87839" lon="6.76004">
        <ele>2016</ele>
        <time>2022-08-26T17:48:49Z</time>
      </trkpt>
      <trkpt lat="45.87837" lon="6.76003">
        <ele>2016</ele>
        <time>2022-08-26T17:48:50Z</time>
      </trkpt>
      <trkpt lat="45.87835" lon="6.76002">
        <ele>2016</ele>
        <time>2022-08-26T17:48:51Z</time>
      </trkpt>
      <trkpt lat="45.87833" lon="6.76002">
        <ele>2016</ele>
        <time>2022-08-26T17:48:52Z</time>
      </trkpt>
      <trkpt lat="45.8783" lon="6.76003">
        <ele>2016</ele>
        <time>2022-08-26T17:48:53Z</time>
      </trkpt>
      <trkpt lat="45.87829" lon="6.76003">
        <ele>2016</ele>
        <time>2022-08-26T17:48:54Z</time>
      </trkpt>
      <trkpt lat="45.87826" lon="6.76004">
        <ele>2016</ele>
        <time>2022-08-26T17:48:55Z</time>
      </trkpt>
      <trkpt lat="45.87825" lon="6.76004">
        <ele>2015</ele>
        <time>2022-08-26T17:48:56Z</time>
      </trkpt>
      <trkpt lat="45.87822" lon="6.76004">
        <ele>2015</ele>
        <time>2022-08-26T17:48:57Z</time>
      </trkpt>
      <trkpt lat="45.87819" lon="6.76005">
        <ele>2015</ele>
        <time>2022-08-26T17:48:58Z</time>
      </trkpt>
      <trkpt lat="45.87817" lon="6.76005">
        <ele>2015</ele>
        <time>2022-08-26T17:48:59Z</time>
      </trkpt>
      <trkpt lat="45.87815" lon="6.76005">
        <ele>2015</ele>
        <time>2022-08-26T17:49:00Z</time>
      </trkpt>
      <trkpt lat="45.87812" lon="6.76005">
        <ele>2014</ele>
        <time>2022-08-26T17:49:01Z</time>
      </trkpt>
      <trkpt lat="45.8781" lon="6.76006">
        <ele>2014</ele>
        <time>2022-08-26T17:49:02Z</time>
      </trkpt>
      <trkpt lat="45.87808" lon="6.76006">
        <ele>2012</ele>
        <time>2022-08-26T17:49:03Z</time>
      </trkpt>
      <trkpt lat="45.87806" lon="6.76007">
        <ele>2012</ele>
        <time>2022-08-26T17:49:04Z</time>
      </trkpt>
      <trkpt lat="45.87803" lon="6.76007">
        <ele>2012</ele>
        <time>2022-08-26T17:49:05Z</time>
      </trkpt>
      <trkpt lat="45.878" lon="6.76008">
        <ele>2012</ele>
        <time>2022-08-26T17:49:06Z</time>
      </trkpt>
      <trkpt lat="45.87799" lon="6.76008">
        <ele>2012</ele>
        <time>2022-08-26T17:49:07Z</time>
      </trkpt>
      <trkpt lat="45.87796" lon="6.76008">
        <ele>2012</ele>
        <time>2022-08-26T17:49:08Z</time>
      </trkpt>
      <trkpt lat="45.87794" lon="6.76009">
        <ele>2012</ele>
        <time>2022-08-26T17:49:09Z</time>
      </trkpt>
      <trkpt lat="45.87791" lon="6.7601">
        <ele>2012</ele>
        <time>2022-08-26T17:49:10Z</time>
      </trkpt>
      <trkpt lat="45.87787" lon="6.76011">
        <ele>2012</ele>
        <time>2022-08-26T17:49:11Z</time>
      </trkpt>
      <trkpt lat="45.87786" lon="6.76011">
        <ele>2012</ele>
        <time>2022-08-26T17:49:12Z</time>
      </trkpt>
      <trkpt lat="45.87784" lon="6.76012">
        <ele>2012</ele>
        <time>2022-08-26T17:49:13Z</time>
      </trkpt>
      <trkpt lat="45.87781" lon="6.76012">
        <ele>2012</ele>
        <time>2022-08-26T17:49:14Z</time>
      </trkpt>
      <trkpt lat="45.87779" lon="6.76013">
        <ele>2011</ele>
        <time>2022-08-26T17:49:15Z</time>
      </trkpt>
      <trkpt lat="45.87775" lon="6.76013">
        <ele>2011</ele>
        <time>2022-08-26T17:49:16Z</time>
      </trkpt>
      <trkpt lat="45.87774" lon="6.76013">
        <ele>2011</ele>
        <time>2022-08-26T17:49:17Z</time>
      </trkpt>
      <trkpt lat="45.87772" lon="6.76014">
        <ele>2011</ele>
        <time>2022-08-26T17:49:18Z</time>
      </trkpt>
      <trkpt lat="45.87768" lon="6.76016">
        <ele>2011</ele>
        <time>2022-08-26T17:49:19Z</time>
      </trkpt>
      <trkpt lat="45.87766" lon="6.76016">
        <ele>2010</ele>
        <time>2022-08-26T17:49:20Z</time>
      </trkpt>
      <trkpt lat="45.87764" lon="6.76016">
        <ele>2010</ele>
        <time>2022-08-26T17:49:21Z</time>
      </trkpt>
      <trkpt lat="45.87761" lon="6.76017">
        <ele>2010</ele>
        <time>2022-08-26T17:49:22Z</time>
      </trkpt>
      <trkpt lat="45.87758" lon="6.76018">
        <ele>2010</ele>
        <time>2022-08-26T17:49:23Z</time>
      </trkpt>
      <trkpt lat="45.87754" lon="6.76018">
        <ele>2010</ele>
        <time>2022-08-26T17:49:24Z</time>
      </trkpt>
      <trkpt lat="45.87753" lon="6.76019">
        <ele>2010</ele>
        <time>2022-08-26T17:49:25Z</time>
      </trkpt>
      <trkpt lat="45.8775" lon="6.7602">
        <ele>2009</ele>
        <time>2022-08-26T17:49:26Z</time>
      </trkpt>
      <trkpt lat="45.87748" lon="6.76021">
        <ele>2009</ele>
        <time>2022-08-26T17:49:27Z</time>
      </trkpt>
      <trkpt lat="45.87746" lon="6.76021">
        <ele>2009</ele>
        <time>2022-08-26T17:49:28Z</time>
      </trkpt>
      <trkpt lat="45.87742" lon="6.76021">
        <ele>2009</ele>
        <time>2022-08-26T17:49:29Z</time>
      </trkpt>
      <trkpt lat="45.87741" lon="6.76021">
        <ele>2008</ele>
        <time>2022-08-26T17:49:30Z</time>
      </trkpt>
      <trkpt lat="45.87738" lon="6.76021">
        <ele>2008</ele>
        <time>2022-08-26T17:49:31Z</time>
      </trkpt>
      <trkpt lat="45.87736" lon="6.76021">
        <ele>2008</ele>
        <time>2022-08-26T17:49:32Z</time>
      </trkpt>
      <trkpt lat="45.87733" lon="6.76021">
        <ele>2008</ele>
        <time>2022-08-26T17:49:33Z</time>
      </trkpt>
      <trkpt lat="45.87731" lon="6.76019">
        <ele>2008</ele>
        <time>2022-08-26T17:49:34Z</time>
      </trkpt>
      <trkpt lat="45.8773" lon="6.76018">
        <ele>2008</ele>
        <time>2022-08-26T17:49:35Z</time>
      </trkpt>
      <trkpt lat="45.87728" lon="6.76016">
        <ele>2008</ele>
        <time>2022-08-26T17:49:36Z</time>
      </trkpt>
      <trkpt lat="45.87727" lon="6.76011">
        <ele>2008</ele>
        <time>2022-08-26T17:49:38Z</time>
      </trkpt>
      <trkpt lat="45.87727" lon="6.76008">
        <ele>2008</ele>
        <time>2022-08-26T17:49:40Z</time>
      </trkpt>
      <trkpt lat="45.87728" lon="6.76005">
        <ele>2009</ele>
        <time>2022-08-26T17:49:42Z</time>
      </trkpt>
      <trkpt lat="45.8773" lon="6.76002">
        <ele>2010</ele>
        <time>2022-08-26T17:49:44Z</time>
      </trkpt>
      <trkpt lat="45.87732" lon="6.75999">
        <ele>2010</ele>
        <time>2022-08-26T17:49:46Z</time>
      </trkpt>
      <trkpt lat="45.87733" lon="6.75997">
        <ele>2010</ele>
        <time>2022-08-26T17:49:48Z</time>
      </trkpt>
      <trkpt lat="45.87735" lon="6.75994">
        <ele>2010</ele>
        <time>2022-08-26T17:49:50Z</time>
      </trkpt>
      <trkpt lat="45.87737" lon="6.75991">
        <ele>2011</ele>
        <time>2022-08-26T17:49:52Z</time>
      </trkpt>
      <trkpt lat="45.87739" lon="6.75989">
        <ele>2011</ele>
        <time>2022-08-26T17:49:54Z</time>
      </trkpt>
      <trkpt lat="45.87741" lon="6.75986">
        <ele>2011</ele>
        <time>2022-08-26T17:49:56Z</time>
      </trkpt>
      <trkpt lat="45.87742" lon="6.75984">
        <ele>2011</ele>
        <time>2022-08-26T17:49:58Z</time>
      </trkpt>
      <trkpt lat="45.87744" lon="6.75982">
        <ele>2012</ele>
        <time>2022-08-26T17:50:00Z</time>
      </trkpt>
      <trkpt lat="45.87746" lon="6.75979">
        <ele>2012</ele>
        <time>2022-08-26T17:50:02Z</time>
      </trkpt>
      <trkpt lat="45.87748" lon="6.75977">
        <ele>2014</ele>
        <time>2022-08-26T17:50:04Z</time>
      </trkpt>
      <trkpt lat="45.87751" lon="6.75975">
        <ele>2014</ele>
        <time>2022-08-26T17:50:06Z</time>
      </trkpt>
      <trkpt lat="45.87753" lon="6.75973">
        <ele>2015</ele>
        <time>2022-08-26T17:50:08Z</time>
      </trkpt>
      <trkpt lat="45.87755" lon="6.7597">
        <ele>2015</ele>
        <time>2022-08-26T17:50:10Z</time>
      </trkpt>
      <trkpt lat="45.87758" lon="6.75969">
        <ele>2016</ele>
        <time>2022-08-26T17:50:12Z</time>
      </trkpt>
      <trkpt lat="45.8776" lon="6.75967">
        <ele>2016</ele>
        <time>2022-08-26T17:50:14Z</time>
      </trkpt>
      <trkpt lat="45.87763" lon="6.75965">
        <ele>2016</ele>
        <time>2022-08-26T17:50:16Z</time>
      </trkpt>
      <trkpt lat="45.87766" lon="6.75964">
        <ele>2016</ele>
        <time>2022-08-26T17:50:18Z</time>
      </trkpt>
      <trkpt lat="45.87768" lon="6.75963">
        <ele>2016</ele>
        <time>2022-08-26T17:50:20Z</time>
      </trkpt>
      <trkpt lat="45.87771" lon="6.75962">
        <ele>2017</ele>
        <time>2022-08-26T17:50:22Z</time>
      </trkpt>
      <trkpt lat="45.87774" lon="6.75961">
        <ele>2018</ele>
        <time>2022-08-26T17:50:24Z</time>
      </trkpt>
      <trkpt lat="45.87776" lon="6.7596">
        <ele>2018</ele>
        <time>2022-08-26T17:50:26Z</time>
      </trkpt>
      <trkpt lat="45.87778" lon="6.75959">
        <ele>2018</ele>
        <time>2022-08-26T17:50:28Z</time>
      </trkpt>
      <trkpt lat="45.87781" lon="6.75959">
        <ele>2019</ele>
        <time>2022-08-26T17:50:30Z</time>
      </trkpt>
      <trkpt lat="45.87783" lon="6.75958">
        <ele>2019</ele>
        <time>2022-08-26T17:50:32Z</time>
      </trkpt>
      <trkpt lat="45.87785" lon="6.75958">
        <ele>2019</ele>
        <time>2022-08-26T17:50:34Z</time>
      </trkpt>
      <trkpt lat="45.87787" lon="6.75957">
        <ele>2020</ele>
        <time>2022-08-26T17:50:36Z</time>
      </trkpt>
      <trkpt lat="45.87789" lon="6.75956">
        <ele>2021</ele>
        <time>2022-08-26T17:50:38Z</time>
      </trkpt>
      <trkpt lat="45.87791" lon="6.75956">
        <ele>2021</ele>
        <time>2022-08-26T17:50:40Z</time>
      </trkpt>
      <trkpt lat="45.87794" lon="6.75955">
        <ele>2021</ele>
        <time>2022-08-26T17:50:42Z</time>
      </trkpt>
      <trkpt lat="45.87796" lon="6.75955">
        <ele>2022</ele>
        <time>2022-08-26T17:50:44Z</time>
      </trkpt>
      <trkpt lat="45.87799" lon="6.75954">
        <ele>2023</ele>
        <time>2022-08-26T17:50:46Z</time>
      </trkpt>
      <trkpt lat="45.87801" lon="6.75952">
        <ele>2023</ele>
        <time>2022-08-26T17:50:48Z</time>
      </trkpt>
      <trkpt lat="45.87803" lon="6.75951">
        <ele>2023</ele>
        <time>2022-08-26T17:50:50Z</time>
      </trkpt>
      <trkpt lat="45.87805" lon="6.7595">
        <ele>2024</ele>
        <time>2022-08-26T17:50:52Z</time>
      </trkpt>
      <trkpt lat="45.87807" lon="6.75949">
        <ele>2024</ele>
        <time>2022-08-26T17:50:54Z</time>
      </trkpt>
      <trkpt lat="45.8781" lon="6.75948">
        <ele>2024</ele>
        <time>2022-08-26T17:50:56Z</time>
      </trkpt>
      <trkpt lat="45.87812" lon="6.75947">
        <ele>2024</ele>
        <time>2022-08-26T17:50:58Z</time>
      </trkpt>
      <trkpt lat="45.87814" lon="6.75946">
        <ele>2025</ele>
        <time>2022-08-26T17:51:00Z</time>
      </trkpt>
      <trkpt lat="45.87817" lon="6.75945">
        <ele>2026</ele>
        <time>2022-08-26T17:51:02Z</time>
      </trkpt>
      <trkpt lat="45.87819" lon="6.75944">
        <ele>2027</ele>
        <time>2022-08-26T17:51:04Z</time>
      </trkpt>
      <trkpt lat="45.87822" lon="6.75943">
        <ele>2027</ele>
        <time>2022-08-26T17:51:06Z</time>
      </trkpt>
      <trkpt lat="45.87824" lon="6.75943">
        <ele>2027</ele>
        <time>2022-08-26T17:51:08Z</time>
      </trkpt>
      <trkpt lat="45.87826" lon="6.75942">
        <ele>2027</ele>
        <time>2022-08-26T17:51:10Z</time>
      </trkpt>
      <trkpt lat="45.87828" lon="6.75941">
        <ele>2028</ele>
        <time>2022-08-26T17:51:12Z</time>
      </trkpt>
      <trkpt lat="45.8783" lon="6.7594">
        <ele>2028</ele>
        <time>2022-08-26T17:51:14Z</time>
      </trkpt>
      <trkpt lat="45.87833" lon="6.7594">
        <ele>2029</ele>
        <time>2022-08-26T17:51:16Z</time>
      </trkpt>
      <trkpt lat="45.87835" lon="6.7594">
        <ele>2029</ele>
        <time>2022-08-26T17:51:18Z</time>
      </trkpt>
      <trkpt lat="45.87837" lon="6.7594">
        <ele>2030</ele>
        <time>2022-08-26T17:51:20Z</time>
      </trkpt>
      <trkpt lat="45.8784" lon="6.7594">
        <ele>2030</ele>
        <time>2022-08-26T17:51:22Z</time>
      </trkpt>
      <trkpt lat="45.87842" lon="6.7594">
        <ele>2031</ele>
        <time>2022-08-26T17:51:24Z</time>
      </trkpt>
      <trkpt lat="45.87844" lon="6.75939">
        <ele>2032</ele>
        <time>2022-08-26T17:51:26Z</time>
      </trkpt>
      <trkpt lat="45.87847" lon="6.75938">
        <ele>2032</ele>
        <time>2022-08-26T17:51:28Z</time>
      </trkpt>
      <trkpt lat="45.87849" lon="6.75938">
        <ele>2032</ele>
        <time>2022-08-26T17:51:30Z</time>
      </trkpt>
      <trkpt lat="45.87852" lon="6.75938">
        <ele>2032</ele>
        <time>2022-08-26T17:51:32Z</time>
      </trkpt>
      <trkpt lat="45.87854" lon="6.75938">
        <ele>2032</ele>
        <time>2022-08-26T17:51:34Z</time>
      </trkpt>
      <trkpt lat="45.87856" lon="6.75938">
        <ele>2033</ele>
        <time>2022-08-26T17:51:36Z</time>
      </trkpt>
      <trkpt lat="45.87859" lon="6.75937">
        <ele>2033</ele>
        <time>2022-08-26T17:51:38Z</time>
      </trkpt>
      <trkpt lat="45.87861" lon="6.75937">
        <ele>2034</ele>
        <time>2022-08-26T17:51:40Z</time>
      </trkpt>
      <trkpt lat="45.87863" lon="6.75937">
        <ele>2034</ele>
        <time>2022-08-26T17:51:42Z</time>
      </trkpt>
      <trkpt lat="45.87866" lon="6.75937">
        <ele>2034</ele>
        <time>2022-08-26T17:51:44Z</time>
      </trkpt>
      <trkpt lat="45.87868" lon="6.75937">
        <ele>2034</ele>
        <time>2022-08-26T17:51:46Z</time>
      </trkpt>
      <trkpt lat="45.87871" lon="6.75937">
        <ele>2035</ele>
        <time>2022-08-26T17:51:48Z</time>
      </trkpt>
      <trkpt lat="45.87873" lon="6.75937">
        <ele>2035</ele>
        <time>2022-08-26T17:51:50Z</time>
      </trkpt>
      <trkpt lat="45.87876" lon="6.75936">
        <ele>2035</ele>
        <time>2022-08-26T17:51:52Z</time>
      </trkpt>
      <trkpt lat="45.87878" lon="6.75936">
        <ele>2036</ele>
        <time>2022-08-26T17:51:54Z</time>
      </trkpt>
      <trkpt lat="45.87881" lon="6.75935">
        <ele>2036</ele>
        <time>2022-08-26T17:51:56Z</time>
      </trkpt>
      <trkpt lat="45.87884" lon="6.75935">
        <ele>2036</ele>
        <time>2022-08-26T17:51:58Z</time>
      </trkpt>
      <trkpt lat="45.87886" lon="6.75935">
        <ele>2037</ele>
        <time>2022-08-26T17:52:00Z</time>
      </trkpt>
      <trkpt lat="45.87889" lon="6.75935">
        <ele>2037</ele>
        <time>2022-08-26T17:52:02Z</time>
      </trkpt>
      <trkpt lat="45.87891" lon="6.75934">
        <ele>2037</ele>
        <time>2022-08-26T17:52:04Z</time>
      </trkpt>
      <trkpt lat="45.87894" lon="6.75933">
        <ele>2038</ele>
        <time>2022-08-26T17:52:06Z</time>
      </trkpt>
      <trkpt lat="45.87897" lon="6.75932">
        <ele>2038</ele>
        <time>2022-08-26T17:52:08Z</time>
      </trkpt>
      <trkpt lat="45.87899" lon="6.7593">
        <ele>2040</ele>
        <time>2022-08-26T17:52:10Z</time>
      </trkpt>
      <trkpt lat="45.87902" lon="6.75929">
        <ele>2040</ele>
        <time>2022-08-26T17:52:12Z</time>
      </trkpt>
      <trkpt lat="45.87904" lon="6.75927">
        <ele>2040</ele>
        <time>2022-08-26T17:52:14Z</time>
      </trkpt>
      <trkpt lat="45.87907" lon="6.75925">
        <ele>2041</ele>
        <time>2022-08-26T17:52:16Z</time>
      </trkpt>
      <trkpt lat="45.87909" lon="6.75923">
        <ele>2041</ele>
        <time>2022-08-26T17:52:18Z</time>
      </trkpt>
      <trkpt lat="45.87911" lon="6.7592">
        <ele>2042</ele>
        <time>2022-08-26T17:52:20Z</time>
      </trkpt>
      <trkpt lat="45.87913" lon="6.75918">
        <ele>2042</ele>
        <time>2022-08-26T17:52:22Z</time>
      </trkpt>
      <trkpt lat="45.87915" lon="6.75916">
        <ele>2042</ele>
        <time>2022-08-26T17:52:24Z</time>
      </trkpt>
      <trkpt lat="45.87917" lon="6.75913">
        <ele>2043</ele>
        <time>2022-08-26T17:52:26Z</time>
      </trkpt>
      <trkpt lat="45.87919" lon="6.75911">
        <ele>2043</ele>
        <time>2022-08-26T17:52:28Z</time>
      </trkpt>
      <trkpt lat="45.87921" lon="6.75908">
        <ele>2043</ele>
        <time>2022-08-26T17:52:30Z</time>
      </trkpt>
      <trkpt lat="45.87922" lon="6.75905">
        <ele>2043</ele>
        <time>2022-08-26T17:52:32Z</time>
      </trkpt>
      <trkpt lat="45.87924" lon="6.75903">
        <ele>2044</ele>
        <time>2022-08-26T17:52:34Z</time>
      </trkpt>
      <trkpt lat="45.87926" lon="6.759">
        <ele>2044</ele>
        <time>2022-08-26T17:52:36Z</time>
      </trkpt>
      <trkpt lat="45.87928" lon="6.75898">
        <ele>2044</ele>
        <time>2022-08-26T17:52:38Z</time>
      </trkpt>
      <trkpt lat="45.8793" lon="6.75895">
        <ele>2044</ele>
        <time>2022-08-26T17:52:40Z</time>
      </trkpt>
      <trkpt lat="45.87932" lon="6.75893">
        <ele>2045</ele>
        <time>2022-08-26T17:52:42Z</time>
      </trkpt>
      <trkpt lat="45.87933" lon="6.7589">
        <ele>2045</ele>
        <time>2022-08-26T17:52:44Z</time>
      </trkpt>
      <trkpt lat="45.87934" lon="6.75886">
        <ele>2046</ele>
        <time>2022-08-26T17:52:46Z</time>
      </trkpt>
      <trkpt lat="45.87936" lon="6.75883">
        <ele>2046</ele>
        <time>2022-08-26T17:52:48Z</time>
      </trkpt>
      <trkpt lat="45.87937" lon="6.7588">
        <ele>2046</ele>
        <time>2022-08-26T17:52:50Z</time>
      </trkpt>
      <trkpt lat="45.87939" lon="6.75877">
        <ele>2047</ele>
        <time>2022-08-26T17:52:52Z</time>
      </trkpt>
      <trkpt lat="45.87941" lon="6.75875">
        <ele>2047</ele>
        <time>2022-08-26T17:52:54Z</time>
      </trkpt>
      <trkpt lat="45.87943" lon="6.75873">
        <ele>2048</ele>
        <time>2022-08-26T17:52:56Z</time>
      </trkpt>
      <trkpt lat="45.87945" lon="6.75871">
        <ele>2048</ele>
        <time>2022-08-26T17:52:58Z</time>
      </trkpt>
      <trkpt lat="45.87947" lon="6.75869">
        <ele>2048</ele>
        <time>2022-08-26T17:53:00Z</time>
      </trkpt>
      <trkpt lat="45.87948" lon="6.75866">
        <ele>2049</ele>
        <time>2022-08-26T17:53:02Z</time>
      </trkpt>
      <trkpt lat="45.87949" lon="6.75864">
        <ele>2049</ele>
        <time>2022-08-26T17:53:04Z</time>
      </trkpt>
      <trkpt lat="45.87951" lon="6.75862">
        <ele>2050</ele>
        <time>2022-08-26T17:53:06Z</time>
      </trkpt>
      <trkpt lat="45.87953" lon="6.7586">
        <ele>2050</ele>
        <time>2022-08-26T17:53:08Z</time>
      </trkpt>
      <trkpt lat="45.87954" lon="6.75858">
        <ele>2051</ele>
        <time>2022-08-26T17:53:10Z</time>
      </trkpt>
      <trkpt lat="45.87956" lon="6.75857">
        <ele>2052</ele>
        <time>2022-08-26T17:53:12Z</time>
      </trkpt>
      <trkpt lat="45.87958" lon="6.75855">
        <ele>2052</ele>
        <time>2022-08-26T17:53:14Z</time>
      </trkpt>
      <trkpt lat="45.87959" lon="6.75852">
        <ele>2052</ele>
        <time>2022-08-26T17:53:16Z</time>
      </trkpt>
      <trkpt lat="45.8796" lon="6.7585">
        <ele>2052</ele>
        <time>2022-08-26T17:53:18Z</time>
      </trkpt>
      <trkpt lat="45.87961" lon="6.75846">
        <ele>2052</ele>
        <time>2022-08-26T17:53:20Z</time>
      </trkpt>
      <trkpt lat="45.87961" lon="6.75843">
        <ele>2053</ele>
        <time>2022-08-26T17:53:22Z</time>
      </trkpt>
      <trkpt lat="45.87962" lon="6.7584">
        <ele>2054</ele>
        <time>2022-08-26T17:53:24Z</time>
      </trkpt>
      <trkpt lat="45.87961" lon="6.75836">
        <ele>2054</ele>
        <time>2022-08-26T17:53:27Z</time>
      </trkpt>
      <trkpt lat="45.8796" lon="6.75833">
        <ele>2055</ele>
        <time>2022-08-26T17:53:29Z</time>
      </trkpt>
      <trkpt lat="45.87959" lon="6.7583">
        <ele>2055</ele>
        <time>2022-08-26T17:53:31Z</time>
      </trkpt>
      <trkpt lat="45.87957" lon="6.75828">
        <ele>2055</ele>
        <time>2022-08-26T17:53:33Z</time>
      </trkpt>
      <trkpt lat="45.87955" lon="6.75825">
        <ele>2056</ele>
        <time>2022-08-26T17:53:35Z</time>
      </trkpt>
      <trkpt lat="45.87953" lon="6.75823">
        <ele>2056</ele>
        <time>2022-08-26T17:53:37Z</time>
      </trkpt>
      <trkpt lat="45.87951" lon="6.75822">
        <ele>2057</ele>
        <time>2022-08-26T17:53:39Z</time>
      </trkpt>
      <trkpt lat="45.87949" lon="6.7582">
        <ele>2057</ele>
        <time>2022-08-26T17:53:41Z</time>
      </trkpt>
      <trkpt lat="45.87947" lon="6.75819">
        <ele>2058</ele>
        <time>2022-08-26T17:53:43Z</time>
      </trkpt>
      <trkpt lat="45.87944" lon="6.75818">
        <ele>2059</ele>
        <time>2022-08-26T17:53:45Z</time>
      </trkpt>
      <trkpt lat="45.87943" lon="6.75816">
        <ele>2059</ele>
        <time>2022-08-26T17:53:47Z</time>
      </trkpt>
      <trkpt lat="45.87941" lon="6.75814">
        <ele>2059</ele>
        <time>2022-08-26T17:53:49Z</time>
      </trkpt>
      <trkpt lat="45.87939" lon="6.75812">
        <ele>2060</ele>
        <time>2022-08-26T17:53:51Z</time>
      </trkpt>
      <trkpt lat="45.87939" lon="6.75808">
        <ele>2060</ele>
        <time>2022-08-26T17:53:53Z</time>
      </trkpt>
      <trkpt lat="45.87938" lon="6.75804">
        <ele>2061</ele>
        <time>2022-08-26T17:53:55Z</time>
      </trkpt>
      <trkpt lat="45.87938" lon="6.75801">
        <ele>2061</ele>
        <time>2022-08-26T17:53:57Z</time>
      </trkpt>
      <trkpt lat="45.87939" lon="6.75797">
        <ele>2061</ele>
        <time>2022-08-26T17:53:59Z</time>
      </trkpt>
      <trkpt lat="45.8794" lon="6.75793">
        <ele>2062</ele>
        <time>2022-08-26T17:54:01Z</time>
      </trkpt>
      <trkpt lat="45.87941" lon="6.7579">
        <ele>2063</ele>
        <time>2022-08-26T17:54:03Z</time>
      </trkpt>
      <trkpt lat="45.87942" lon="6.75787">
        <ele>2063</ele>
        <time>2022-08-26T17:54:05Z</time>
      </trkpt>
      <trkpt lat="45.87943" lon="6.75784">
        <ele>2063</ele>
        <time>2022-08-26T17:54:07Z</time>
      </trkpt>
      <trkpt lat="45.87945" lon="6.75781">
        <ele>2064</ele>
        <time>2022-08-26T17:54:09Z</time>
      </trkpt>
      <trkpt lat="45.87946" lon="6.75778">
        <ele>2064</ele>
        <time>2022-08-26T17:54:11Z</time>
      </trkpt>
      <trkpt lat="45.87948" lon="6.75776">
        <ele>2064</ele>
        <time>2022-08-26T17:54:13Z</time>
      </trkpt>
      <trkpt lat="45.87949" lon="6.75773">
        <ele>2064</ele>
        <time>2022-08-26T17:54:15Z</time>
      </trkpt>
      <trkpt lat="45.87951" lon="6.7577">
        <ele>2066</ele>
        <time>2022-08-26T17:54:17Z</time>
      </trkpt>
      <trkpt lat="45.87952" lon="6.75767">
        <ele>2067</ele>
        <time>2022-08-26T17:54:19Z</time>
      </trkpt>
      <trkpt lat="45.87954" lon="6.75764">
        <ele>2067</ele>
        <time>2022-08-26T17:54:21Z</time>
      </trkpt>
      <trkpt lat="45.87955" lon="6.75762">
        <ele>2067</ele>
        <time>2022-08-26T17:54:23Z</time>
      </trkpt>
      <trkpt lat="45.87957" lon="6.75759">
        <ele>2067</ele>
        <time>2022-08-26T17:54:25Z</time>
      </trkpt>
      <trkpt lat="45.87958" lon="6.75756">
        <ele>2067</ele>
        <time>2022-08-26T17:54:27Z</time>
      </trkpt>
      <trkpt lat="45.8796" lon="6.75754">
        <ele>2068</ele>
        <time>2022-08-26T17:54:29Z</time>
      </trkpt>
      <trkpt lat="45.87961" lon="6.75751">
        <ele>2068</ele>
        <time>2022-08-26T17:54:31Z</time>
      </trkpt>
      <trkpt lat="45.87962" lon="6.75749">
        <ele>2068</ele>
        <time>2022-08-26T17:54:33Z</time>
      </trkpt>
      <trkpt lat="45.87964" lon="6.75747">
        <ele>2069</ele>
        <time>2022-08-26T17:54:35Z</time>
      </trkpt>
      <trkpt lat="45.87966" lon="6.75744">
        <ele>2070</ele>
        <time>2022-08-26T17:54:37Z</time>
      </trkpt>
      <trkpt lat="45.87968" lon="6.75743">
        <ele>2070</ele>
        <time>2022-08-26T17:54:39Z</time>
      </trkpt>
      <trkpt lat="45.8797" lon="6.75741">
        <ele>2071</ele>
        <time>2022-08-26T17:54:41Z</time>
      </trkpt>
      <trkpt lat="45.87972" lon="6.75739">
        <ele>2071</ele>
        <time>2022-08-26T17:54:43Z</time>
      </trkpt>
      <trkpt lat="45.87975" lon="6.75738">
        <ele>2072</ele>
        <time>2022-08-26T17:54:45Z</time>
      </trkpt>
      <trkpt lat="45.87977" lon="6.75737">
        <ele>2073</ele>
        <time>2022-08-26T17:54:47Z</time>
      </trkpt>
      <trkpt lat="45.87979" lon="6.75735">
        <ele>2073</ele>
        <time>2022-08-26T17:54:49Z</time>
      </trkpt>
      <trkpt lat="45.87981" lon="6.75733">
        <ele>2074</ele>
        <time>2022-08-26T17:54:51Z</time>
      </trkpt>
      <trkpt lat="45.87982" lon="6.75731">
        <ele>2074</ele>
        <time>2022-08-26T17:54:53Z</time>
      </trkpt>
      <trkpt lat="45.87983" lon="6.75728">
        <ele>2075</ele>
        <time>2022-08-26T17:54:55Z</time>
      </trkpt>
      <trkpt lat="45.87984" lon="6.75725">
        <ele>2075</ele>
        <time>2022-08-26T17:54:57Z</time>
      </trkpt>
      <trkpt lat="45.87985" lon="6.75723">
        <ele>2075</ele>
        <time>2022-08-26T17:54:59Z</time>
      </trkpt>
      <trkpt lat="45.87985" lon="6.7572">
        <ele>2075</ele>
        <time>2022-08-26T17:55:01Z</time>
      </trkpt>
      <trkpt lat="45.87985" lon="6.75716">
        <ele>2075</ele>
        <time>2022-08-26T17:55:04Z</time>
      </trkpt>
      <trkpt lat="45.87983" lon="6.75713">
        <ele>2076</ele>
        <time>2022-08-26T17:55:06Z</time>
      </trkpt>
      <trkpt lat="45.87981" lon="6.75711">
        <ele>2076</ele>
        <time>2022-08-26T17:55:08Z</time>
      </trkpt>
      <trkpt lat="45.87978" lon="6.7571">
        <ele>2077</ele>
        <time>2022-08-26T17:55:10Z</time>
      </trkpt>
      <trkpt lat="45.87975" lon="6.75709">
        <ele>2078</ele>
        <time>2022-08-26T17:55:12Z</time>
      </trkpt>
      <trkpt lat="45.87974" lon="6.75709">
        <ele>2078</ele>
        <time>2022-08-26T17:55:13Z</time>
      </trkpt>
      <trkpt lat="45.87973" lon="6.75709">
        <ele>2078</ele>
        <time>2022-08-26T17:55:14Z</time>
      </trkpt>
      <trkpt lat="45.87972" lon="6.75709">
        <ele>2078</ele>
        <time>2022-08-26T17:55:16Z</time>
      </trkpt>
      <trkpt lat="45.8797" lon="6.75709">
        <ele>2078</ele>
        <time>2022-08-26T17:55:17Z</time>
      </trkpt>
      <trkpt lat="45.87968" lon="6.75708">
        <ele>2079</ele>
        <time>2022-08-26T17:55:18Z</time>
      </trkpt>
      <trkpt lat="45.87966" lon="6.75707">
        <ele>2079</ele>
        <time>2022-08-26T17:55:20Z</time>
      </trkpt>
      <trkpt lat="45.87963" lon="6.75706">
        <ele>2080</ele>
        <time>2022-08-26T17:55:22Z</time>
      </trkpt>
      <trkpt lat="45.87961" lon="6.75706">
        <ele>2080</ele>
        <time>2022-08-26T17:55:24Z</time>
      </trkpt>
      <trkpt lat="45.87958" lon="6.75706">
        <ele>2080</ele>
        <time>2022-08-26T17:55:26Z</time>
      </trkpt>
      <trkpt lat="45.87956" lon="6.75704">
        <ele>2080</ele>
        <time>2022-08-26T17:55:28Z</time>
      </trkpt>
      <trkpt lat="45.87953" lon="6.75704">
        <ele>2081</ele>
        <time>2022-08-26T17:55:30Z</time>
      </trkpt>
      <trkpt lat="45.87951" lon="6.75705">
        <ele>2082</ele>
        <time>2022-08-26T17:55:32Z</time>
      </trkpt>
      <trkpt lat="45.87949" lon="6.75704">
        <ele>2082</ele>
        <time>2022-08-26T17:55:34Z</time>
      </trkpt>
      <trkpt lat="45.87946" lon="6.75704">
        <ele>2082</ele>
        <time>2022-08-26T17:55:36Z</time>
      </trkpt>
      <trkpt lat="45.87943" lon="6.75703">
        <ele>2082</ele>
        <time>2022-08-26T17:55:38Z</time>
      </trkpt>
      <trkpt lat="45.87941" lon="6.75702">
        <ele>2082</ele>
        <time>2022-08-26T17:55:40Z</time>
      </trkpt>
      <trkpt lat="45.87939" lon="6.75701">
        <ele>2084</ele>
        <time>2022-08-26T17:55:42Z</time>
      </trkpt>
      <trkpt lat="45.87937" lon="6.757">
        <ele>2084</ele>
        <time>2022-08-26T17:55:44Z</time>
      </trkpt>
      <trkpt lat="45.87935" lon="6.75699">
        <ele>2084</ele>
        <time>2022-08-26T17:55:46Z</time>
      </trkpt>
      <trkpt lat="45.87933" lon="6.75697">
        <ele>2084</ele>
        <time>2022-08-26T17:55:48Z</time>
      </trkpt>
      <trkpt lat="45.87931" lon="6.75696">
        <ele>2085</ele>
        <time>2022-08-26T17:55:50Z</time>
      </trkpt>
      <trkpt lat="45.87929" lon="6.75695">
        <ele>2085</ele>
        <time>2022-08-26T17:55:52Z</time>
      </trkpt>
      <trkpt lat="45.87927" lon="6.75693">
        <ele>2085</ele>
        <time>2022-08-26T17:55:54Z</time>
      </trkpt>
      <trkpt lat="45.87926" lon="6.75691">
        <ele>2086</ele>
        <time>2022-08-26T17:55:56Z</time>
      </trkpt>
      <trkpt lat="45.87924" lon="6.75689">
        <ele>2086</ele>
        <time>2022-08-26T17:55:58Z</time>
      </trkpt>
      <trkpt lat="45.87922" lon="6.75686">
        <ele>2087</ele>
        <time>2022-08-26T17:56:00Z</time>
      </trkpt>
      <trkpt lat="45.87921" lon="6.75684">
        <ele>2087</ele>
        <time>2022-08-26T17:56:02Z</time>
      </trkpt>
      <trkpt lat="45.8792" lon="6.75681">
        <ele>2088</ele>
        <time>2022-08-26T17:56:04Z</time>
      </trkpt>
      <trkpt lat="45.87919" lon="6.75679">
        <ele>2088</ele>
        <time>2022-08-26T17:56:06Z</time>
      </trkpt>
      <trkpt lat="45.87918" lon="6.75676">
        <ele>2089</ele>
        <time>2022-08-26T17:56:08Z</time>
      </trkpt>
      <trkpt lat="45.87917" lon="6.75673">
        <ele>2089</ele>
        <time>2022-08-26T17:56:10Z</time>
      </trkpt>
      <trkpt lat="45.87916" lon="6.7567">
        <ele>2089</ele>
        <time>2022-08-26T17:56:12Z</time>
      </trkpt>
      <trkpt lat="45.87916" lon="6.75666">
        <ele>2090</ele>
        <time>2022-08-26T17:56:14Z</time>
      </trkpt>
      <trkpt lat="45.87917" lon="6.75663">
        <ele>2092</ele>
        <time>2022-08-26T17:56:16Z</time>
      </trkpt>
      <trkpt lat="45.87916" lon="6.75661">
        <ele>2092</ele>
        <time>2022-08-26T17:56:18Z</time>
      </trkpt>
      <trkpt lat="45.87916" lon="6.75658">
        <ele>2093</ele>
        <time>2022-08-26T17:56:20Z</time>
      </trkpt>
      <trkpt lat="45.87916" lon="6.75655">
        <ele>2093</ele>
        <time>2022-08-26T17:56:22Z</time>
      </trkpt>
      <trkpt lat="45.87916" lon="6.75652">
        <ele>2093</ele>
        <time>2022-08-26T17:56:24Z</time>
      </trkpt>
      <trkpt lat="45.87917" lon="6.75648">
        <ele>2094</ele>
        <time>2022-08-26T17:56:26Z</time>
      </trkpt>
      <trkpt lat="45.87918" lon="6.75645">
        <ele>2094</ele>
        <time>2022-08-26T17:56:28Z</time>
      </trkpt>
      <trkpt lat="45.87919" lon="6.75642">
        <ele>2095</ele>
        <time>2022-08-26T17:56:30Z</time>
      </trkpt>
      <trkpt lat="45.8792" lon="6.75639">
        <ele>2095</ele>
        <time>2022-08-26T17:56:32Z</time>
      </trkpt>
      <trkpt lat="45.87922" lon="6.75636">
        <ele>2096</ele>
        <time>2022-08-26T17:56:34Z</time>
      </trkpt>
      <trkpt lat="45.87923" lon="6.75633">
        <ele>2096</ele>
        <time>2022-08-26T17:56:36Z</time>
      </trkpt>
      <trkpt lat="45.87924" lon="6.75631">
        <ele>2096</ele>
        <time>2022-08-26T17:56:38Z</time>
      </trkpt>
      <trkpt lat="45.87926" lon="6.75628">
        <ele>2096</ele>
        <time>2022-08-26T17:56:40Z</time>
      </trkpt>
      <trkpt lat="45.87927" lon="6.75625">
        <ele>2097</ele>
        <time>2022-08-26T17:56:42Z</time>
      </trkpt>
      <trkpt lat="45.87929" lon="6.75622">
        <ele>2097</ele>
        <time>2022-08-26T17:56:44Z</time>
      </trkpt>
      <trkpt lat="45.8793" lon="6.75619">
        <ele>2097</ele>
        <time>2022-08-26T17:56:46Z</time>
      </trkpt>
      <trkpt lat="45.8793" lon="6.75615">
        <ele>2098</ele>
        <time>2022-08-26T17:56:48Z</time>
      </trkpt>
      <trkpt lat="45.8793" lon="6.75611">
        <ele>2099</ele>
        <time>2022-08-26T17:56:50Z</time>
      </trkpt>
      <trkpt lat="45.8793" lon="6.75608">
        <ele>2099</ele>
        <time>2022-08-26T17:56:52Z</time>
      </trkpt>
      <trkpt lat="45.87929" lon="6.75604">
        <ele>2099</ele>
        <time>2022-08-26T17:56:54Z</time>
      </trkpt>
      <trkpt lat="45.87928" lon="6.75601">
        <ele>2099</ele>
        <time>2022-08-26T17:56:56Z</time>
      </trkpt>
      <trkpt lat="45.87927" lon="6.75597">
        <ele>2100</ele>
        <time>2022-08-26T17:56:58Z</time>
      </trkpt>
      <trkpt lat="45.87925" lon="6.75595">
        <ele>2101</ele>
        <time>2022-08-26T17:57:00Z</time>
      </trkpt>
      <trkpt lat="45.87923" lon="6.75592">
        <ele>2101</ele>
        <time>2022-08-26T17:57:02Z</time>
      </trkpt>
      <trkpt lat="45.87921" lon="6.75589">
        <ele>2101</ele>
        <time>2022-08-26T17:57:04Z</time>
      </trkpt>
      <trkpt lat="45.87919" lon="6.75586">
        <ele>2102</ele>
        <time>2022-08-26T17:57:06Z</time>
      </trkpt>
      <trkpt lat="45.87917" lon="6.75583">
        <ele>2102</ele>
        <time>2022-08-26T17:57:08Z</time>
      </trkpt>
      <trkpt lat="45.87915" lon="6.75579">
        <ele>2102</ele>
        <time>2022-08-26T17:57:10Z</time>
      </trkpt>
      <trkpt lat="45.87913" lon="6.75576">
        <ele>2103</ele>
        <time>2022-08-26T17:57:12Z</time>
      </trkpt>
      <trkpt lat="45.87912" lon="6.75573">
        <ele>2103</ele>
        <time>2022-08-26T17:57:14Z</time>
      </trkpt>
      <trkpt lat="45.8791" lon="6.7557">
        <ele>2103</ele>
        <time>2022-08-26T17:57:16Z</time>
      </trkpt>
      <trkpt lat="45.87909" lon="6.75567">
        <ele>2103</ele>
        <time>2022-08-26T17:57:18Z</time>
      </trkpt>
      <trkpt lat="45.87907" lon="6.75563">
        <ele>2104</ele>
        <time>2022-08-26T17:57:20Z</time>
      </trkpt>
      <trkpt lat="45.87905" lon="6.7556">
        <ele>2104</ele>
        <time>2022-08-26T17:57:22Z</time>
      </trkpt>
      <trkpt lat="45.87904" lon="6.75557">
        <ele>2104</ele>
        <time>2022-08-26T17:57:24Z</time>
      </trkpt>
      <trkpt lat="45.87902" lon="6.75554">
        <ele>2105</ele>
        <time>2022-08-26T17:57:26Z</time>
      </trkpt>
      <trkpt lat="45.879" lon="6.75551">
        <ele>2105</ele>
        <time>2022-08-26T17:57:28Z</time>
      </trkpt>
      <trkpt lat="45.87898" lon="6.75549">
        <ele>2105</ele>
        <time>2022-08-26T17:57:30Z</time>
      </trkpt>
      <trkpt lat="45.87896" lon="6.75546">
        <ele>2106</ele>
        <time>2022-08-26T17:57:32Z</time>
      </trkpt>
      <trkpt lat="45.87894" lon="6.75543">
        <ele>2106</ele>
        <time>2022-08-26T17:57:34Z</time>
      </trkpt>
      <trkpt lat="45.87892" lon="6.75541">
        <ele>2106</ele>
        <time>2022-08-26T17:57:36Z</time>
      </trkpt>
      <trkpt lat="45.87891" lon="6.75538">
        <ele>2106</ele>
        <time>2022-08-26T17:57:38Z</time>
      </trkpt>
      <trkpt lat="45.87889" lon="6.75536">
        <ele>2107</ele>
        <time>2022-08-26T17:57:40Z</time>
      </trkpt>
      <trkpt lat="45.87887" lon="6.75534">
        <ele>2107</ele>
        <time>2022-08-26T17:57:42Z</time>
      </trkpt>
      <trkpt lat="45.87885" lon="6.75531">
        <ele>2107</ele>
        <time>2022-08-26T17:57:44Z</time>
      </trkpt>
      <trkpt lat="45.87883" lon="6.75528">
        <ele>2108</ele>
        <time>2022-08-26T17:57:46Z</time>
      </trkpt>
      <trkpt lat="45.87882" lon="6.75525">
        <ele>2108</ele>
        <time>2022-08-26T17:57:48Z</time>
      </trkpt>
      <trkpt lat="45.8788" lon="6.75522">
        <ele>2108</ele>
        <time>2022-08-26T17:57:50Z</time>
      </trkpt>
      <trkpt lat="45.87879" lon="6.75519">
        <ele>2108</ele>
        <time>2022-08-26T17:57:52Z</time>
      </trkpt>
      <trkpt lat="45.87878" lon="6.75517">
        <ele>2108</ele>
        <time>2022-08-26T17:57:54Z</time>
      </trkpt>
      <trkpt lat="45.87876" lon="6.75514">
        <ele>2109</ele>
        <time>2022-08-26T17:57:56Z</time>
      </trkpt>
      <trkpt lat="45.87875" lon="6.75511">
        <ele>2109</ele>
        <time>2022-08-26T17:57:58Z</time>
      </trkpt>
      <trkpt lat="45.87874" lon="6.75508">
        <ele>2110</ele>
        <time>2022-08-26T17:58:00Z</time>
      </trkpt>
      <trkpt lat="45.87872" lon="6.75506">
        <ele>2111</ele>
        <time>2022-08-26T17:58:02Z</time>
      </trkpt>
      <trkpt lat="45.87871" lon="6.75503">
        <ele>2111</ele>
        <time>2022-08-26T17:58:04Z</time>
      </trkpt>
      <trkpt lat="45.87869" lon="6.75501">
        <ele>2111</ele>
        <time>2022-08-26T17:58:06Z</time>
      </trkpt>
      <trkpt lat="45.87868" lon="6.75499">
        <ele>2111</ele>
        <time>2022-08-26T17:58:08Z</time>
      </trkpt>
      <trkpt lat="45.87866" lon="6.75496">
        <ele>2112</ele>
        <time>2022-08-26T17:58:10Z</time>
      </trkpt>
      <trkpt lat="45.87864" lon="6.75493">
        <ele>2112</ele>
        <time>2022-08-26T17:58:12Z</time>
      </trkpt>
      <trkpt lat="45.87863" lon="6.75491">
        <ele>2112</ele>
        <time>2022-08-26T17:58:14Z</time>
      </trkpt>
      <trkpt lat="45.87861" lon="6.75489">
        <ele>2112</ele>
        <time>2022-08-26T17:58:16Z</time>
      </trkpt>
      <trkpt lat="45.87859" lon="6.75486">
        <ele>2113</ele>
        <time>2022-08-26T17:58:18Z</time>
      </trkpt>
      <trkpt lat="45.87857" lon="6.75484">
        <ele>2113</ele>
        <time>2022-08-26T17:58:20Z</time>
      </trkpt>
      <trkpt lat="45.87855" lon="6.75483">
        <ele>2113</ele>
        <time>2022-08-26T17:58:22Z</time>
      </trkpt>
      <trkpt lat="45.87852" lon="6.75481">
        <ele>2114</ele>
        <time>2022-08-26T17:58:24Z</time>
      </trkpt>
      <trkpt lat="45.87848" lon="6.75478">
        <ele>2114</ele>
        <time>2022-08-26T17:58:26Z</time>
      </trkpt>
      <trkpt lat="45.87847" lon="6.75477">
        <ele>2114</ele>
        <time>2022-08-26T17:58:28Z</time>
      </trkpt>
      <trkpt lat="45.87845" lon="6.75477">
        <ele>2114</ele>
        <time>2022-08-26T17:58:29Z</time>
      </trkpt>
      <trkpt lat="45.87844" lon="6.75476">
        <ele>2114</ele>
        <time>2022-08-26T17:58:31Z</time>
      </trkpt>
      <trkpt lat="45.87842" lon="6.75475">
        <ele>2114</ele>
        <time>2022-08-26T17:58:32Z</time>
      </trkpt>
      <trkpt lat="45.87839" lon="6.75474">
        <ele>2114</ele>
        <time>2022-08-26T17:58:34Z</time>
      </trkpt>
      <trkpt lat="45.87837" lon="6.75472">
        <ele>2115</ele>
        <time>2022-08-26T17:58:36Z</time>
      </trkpt>
      <trkpt lat="45.87835" lon="6.75467">
        <ele>2115</ele>
        <time>2022-08-26T17:58:38Z</time>
      </trkpt>
      <trkpt lat="45.87835" lon="6.75465">
        <ele>2115</ele>
        <time>2022-08-26T17:58:39Z</time>
      </trkpt>
      <trkpt lat="45.87834" lon="6.75461">
        <ele>2116</ele>
        <time>2022-08-26T17:58:41Z</time>
      </trkpt>
      <trkpt lat="45.87832" lon="6.75457">
        <ele>2116</ele>
        <time>2022-08-26T17:58:43Z</time>
      </trkpt>
      <trkpt lat="45.87831" lon="6.75454">
        <ele>2116</ele>
        <time>2022-08-26T17:58:45Z</time>
      </trkpt>
      <trkpt lat="45.8783" lon="6.7545">
        <ele>2116</ele>
        <time>2022-08-26T17:58:47Z</time>
      </trkpt>
      <trkpt lat="45.87829" lon="6.75446">
        <ele>2116</ele>
        <time>2022-08-26T17:58:49Z</time>
      </trkpt>
      <trkpt lat="45.87828" lon="6.75442">
        <ele>2116</ele>
        <time>2022-08-26T17:58:51Z</time>
      </trkpt>
      <trkpt lat="45.87827" lon="6.75438">
        <ele>2118</ele>
        <time>2022-08-26T17:58:53Z</time>
      </trkpt>
      <trkpt lat="45.87826" lon="6.75435">
        <ele>2118</ele>
        <time>2022-08-26T17:58:55Z</time>
      </trkpt>
      <trkpt lat="45.87825" lon="6.7543">
        <ele>2119</ele>
        <time>2022-08-26T17:58:57Z</time>
      </trkpt>
      <trkpt lat="45.87824" lon="6.75426">
        <ele>2119</ele>
        <time>2022-08-26T17:58:59Z</time>
      </trkpt>
      <trkpt lat="45.87823" lon="6.75423">
        <ele>2119</ele>
        <time>2022-08-26T17:59:01Z</time>
      </trkpt>
      <trkpt lat="45.87823" lon="6.75418">
        <ele>2120</ele>
        <time>2022-08-26T17:59:03Z</time>
      </trkpt>
      <trkpt lat="45.87822" lon="6.75414">
        <ele>2120</ele>
        <time>2022-08-26T17:59:05Z</time>
      </trkpt>
      <trkpt lat="45.87821" lon="6.75409">
        <ele>2120</ele>
        <time>2022-08-26T17:59:07Z</time>
      </trkpt>
      <trkpt lat="45.8782" lon="6.75405">
        <ele>2120</ele>
        <time>2022-08-26T17:59:09Z</time>
      </trkpt>
      <trkpt lat="45.8782" lon="6.75401">
        <ele>2120</ele>
        <time>2022-08-26T17:59:11Z</time>
      </trkpt>
      <trkpt lat="45.87819" lon="6.75397">
        <ele>2121</ele>
        <time>2022-08-26T17:59:13Z</time>
      </trkpt>
      <trkpt lat="45.87819" lon="6.75393">
        <ele>2121</ele>
        <time>2022-08-26T17:59:15Z</time>
      </trkpt>
      <trkpt lat="45.87819" lon="6.75389">
        <ele>2121</ele>
        <time>2022-08-26T17:59:17Z</time>
      </trkpt>
      <trkpt lat="45.87818" lon="6.75386">
        <ele>2121</ele>
        <time>2022-08-26T17:59:19Z</time>
      </trkpt>
      <trkpt lat="45.87818" lon="6.75381">
        <ele>2122</ele>
        <time>2022-08-26T17:59:21Z</time>
      </trkpt>
      <trkpt lat="45.87817" lon="6.75377">
        <ele>2122</ele>
        <time>2022-08-26T17:59:23Z</time>
      </trkpt>
      <trkpt lat="45.87817" lon="6.75373">
        <ele>2122</ele>
        <time>2022-08-26T17:59:25Z</time>
      </trkpt>
      <trkpt lat="45.87816" lon="6.75369">
        <ele>2122</ele>
        <time>2022-08-26T17:59:27Z</time>
      </trkpt>
      <trkpt lat="45.87816" lon="6.75365">
        <ele>2122</ele>
        <time>2022-08-26T17:59:29Z</time>
      </trkpt>
      <trkpt lat="45.87816" lon="6.75361">
        <ele>2122</ele>
        <time>2022-08-26T17:59:31Z</time>
      </trkpt>
      <trkpt lat="45.87815" lon="6.75356">
        <ele>2123</ele>
        <time>2022-08-26T17:59:33Z</time>
      </trkpt>
      <trkpt lat="45.87814" lon="6.75352">
        <ele>2124</ele>
        <time>2022-08-26T17:59:35Z</time>
      </trkpt>
      <trkpt lat="45.87814" lon="6.75348">
        <ele>2124</ele>
        <time>2022-08-26T17:59:37Z</time>
      </trkpt>
      <trkpt lat="45.87814" lon="6.75344">
        <ele>2125</ele>
        <time>2022-08-26T17:59:39Z</time>
      </trkpt>
      <trkpt lat="45.87813" lon="6.7534">
        <ele>2125</ele>
        <time>2022-08-26T17:59:41Z</time>
      </trkpt>
      <trkpt lat="45.87812" lon="6.75336">
        <ele>2125</ele>
        <time>2022-08-26T17:59:43Z</time>
      </trkpt>
      <trkpt lat="45.87812" lon="6.75332">
        <ele>2125</ele>
        <time>2022-08-26T17:59:45Z</time>
      </trkpt>
      <trkpt lat="45.87811" lon="6.75329">
        <ele>2125</ele>
        <time>2022-08-26T17:59:47Z</time>
      </trkpt>
      <trkpt lat="45.8781" lon="6.75325">
        <ele>2125</ele>
        <time>2022-08-26T17:59:49Z</time>
      </trkpt>
      <trkpt lat="45.87809" lon="6.75322">
        <ele>2125</ele>
        <time>2022-08-26T17:59:51Z</time>
      </trkpt>
      <trkpt lat="45.87808" lon="6.75319">
        <ele>2125</ele>
        <time>2022-08-26T17:59:53Z</time>
      </trkpt>
      <trkpt lat="45.87807" lon="6.75316">
        <ele>2125</ele>
        <time>2022-08-26T17:59:55Z</time>
      </trkpt>
      <trkpt lat="45.87806" lon="6.75312">
        <ele>2126</ele>
        <time>2022-08-26T17:59:57Z</time>
      </trkpt>
      <trkpt lat="45.87804" lon="6.75309">
        <ele>2126</ele>
        <time>2022-08-26T17:59:59Z</time>
      </trkpt>
      <trkpt lat="45.87802" lon="6.75307">
        <ele>2126</ele>
        <time>2022-08-26T18:00:01Z</time>
      </trkpt>
      <trkpt lat="45.87799" lon="6.75305">
        <ele>2126</ele>
        <time>2022-08-26T18:00:03Z</time>
      </trkpt>
      <trkpt lat="45.87797" lon="6.75303">
        <ele>2127</ele>
        <time>2022-08-26T18:00:05Z</time>
      </trkpt>
      <trkpt lat="45.87795" lon="6.75301">
        <ele>2127</ele>
        <time>2022-08-26T18:00:07Z</time>
      </trkpt>
      <trkpt lat="45.87794" lon="6.75297">
        <ele>2127</ele>
        <time>2022-08-26T18:00:09Z</time>
      </trkpt>
      <trkpt lat="45.87794" lon="6.75293">
        <ele>2127</ele>
        <time>2022-08-26T18:00:11Z</time>
      </trkpt>
      <trkpt lat="45.87794" lon="6.75288">
        <ele>2128</ele>
        <time>2022-08-26T18:00:13Z</time>
      </trkpt>
      <trkpt lat="45.87794" lon="6.75282">
        <ele>2128</ele>
        <time>2022-08-26T18:00:14Z</time>
      </trkpt>
      <trkpt lat="45.87795" lon="6.7528">
        <ele>2128</ele>
        <time>2022-08-26T18:00:15Z</time>
      </trkpt>
      <trkpt lat="45.87795" lon="6.75277">
        <ele>2129</ele>
        <time>2022-08-26T18:00:16Z</time>
      </trkpt>
      <trkpt lat="45.87796" lon="6.75272">
        <ele>2129</ele>
        <time>2022-08-26T18:00:17Z</time>
      </trkpt>
      <trkpt lat="45.87796" lon="6.75271">
        <ele>2129</ele>
        <time>2022-08-26T18:00:18Z</time>
      </trkpt>
      <trkpt lat="45.87797" lon="6.75268">
        <ele>2129</ele>
        <time>2022-08-26T18:00:19Z</time>
      </trkpt>
      <trkpt lat="45.87797" lon="6.75265">
        <ele>2129</ele>
        <time>2022-08-26T18:00:20Z</time>
      </trkpt>
      <trkpt lat="45.87796" lon="6.75262">
        <ele>2129</ele>
        <time>2022-08-26T18:00:21Z</time>
      </trkpt>
      <trkpt lat="45.87797" lon="6.75257">
        <ele>2129</ele>
        <time>2022-08-26T18:00:23Z</time>
      </trkpt>
      <trkpt lat="45.87796" lon="6.75254">
        <ele>2129</ele>
        <time>2022-08-26T18:00:24Z</time>
      </trkpt>
      <trkpt lat="45.87796" lon="6.75251">
        <ele>2129</ele>
        <time>2022-08-26T18:00:25Z</time>
      </trkpt>
      <trkpt lat="45.87797" lon="6.75248">
        <ele>2129</ele>
        <time>2022-08-26T18:00:26Z</time>
      </trkpt>
      <trkpt lat="45.87796" lon="6.75244">
        <ele>2129</ele>
        <time>2022-08-26T18:00:28Z</time>
      </trkpt>
      <trkpt lat="45.87796" lon="6.75239">
        <ele>2130</ele>
        <time>2022-08-26T18:00:30Z</time>
      </trkpt>
      <trkpt lat="45.87797" lon="6.75235">
        <ele>2130</ele>
        <time>2022-08-26T18:00:32Z</time>
      </trkpt>
      <trkpt lat="45.87798" lon="6.7523">
        <ele>2131</ele>
        <time>2022-08-26T18:00:34Z</time>
      </trkpt>
      <trkpt lat="45.87798" lon="6.75227">
        <ele>2131</ele>
        <time>2022-08-26T18:00:35Z</time>
      </trkpt>
      <trkpt lat="45.87798" lon="6.75225">
        <ele>2132</ele>
        <time>2022-08-26T18:00:36Z</time>
      </trkpt>
      <trkpt lat="45.87799" lon="6.75222">
        <ele>2132</ele>
        <time>2022-08-26T18:00:37Z</time>
      </trkpt>
      <trkpt lat="45.87799" lon="6.75218">
        <ele>2132</ele>
        <time>2022-08-26T18:00:38Z</time>
      </trkpt>
      <trkpt lat="45.87799" lon="6.75216">
        <ele>2132</ele>
        <time>2022-08-26T18:00:39Z</time>
      </trkpt>
      <trkpt lat="45.878" lon="6.75212">
        <ele>2132</ele>
        <time>2022-08-26T18:00:41Z</time>
      </trkpt>
      <trkpt lat="45.87801" lon="6.75208">
        <ele>2132</ele>
        <time>2022-08-26T18:00:43Z</time>
      </trkpt>
      <trkpt lat="45.87801" lon="6.75203">
        <ele>2132</ele>
        <time>2022-08-26T18:00:45Z</time>
      </trkpt>
      <trkpt lat="45.87801" lon="6.75199">
        <ele>2132</ele>
        <time>2022-08-26T18:00:47Z</time>
      </trkpt>
      <trkpt lat="45.87801" lon="6.75195">
        <ele>2132</ele>
        <time>2022-08-26T18:00:49Z</time>
      </trkpt>
      <trkpt lat="45.87802" lon="6.75191">
        <ele>2133</ele>
        <time>2022-08-26T18:00:51Z</time>
      </trkpt>
      <trkpt lat="45.87802" lon="6.75187">
        <ele>2133</ele>
        <time>2022-08-26T18:00:53Z</time>
      </trkpt>
      <trkpt lat="45.87801" lon="6.75183">
        <ele>2134</ele>
        <time>2022-08-26T18:00:55Z</time>
      </trkpt>
      <trkpt lat="45.87801" lon="6.7518">
        <ele>2134</ele>
        <time>2022-08-26T18:00:57Z</time>
      </trkpt>
      <trkpt lat="45.87801" lon="6.75177">
        <ele>2134</ele>
        <time>2022-08-26T18:00:59Z</time>
      </trkpt>
      <trkpt lat="45.878" lon="6.75173">
        <ele>2134</ele>
        <time>2022-08-26T18:01:01Z</time>
      </trkpt>
      <trkpt lat="45.878" lon="6.75169">
        <ele>2134</ele>
        <time>2022-08-26T18:01:03Z</time>
      </trkpt>
      <trkpt lat="45.87799" lon="6.75166">
        <ele>2135</ele>
        <time>2022-08-26T18:01:05Z</time>
      </trkpt>
      <trkpt lat="45.87799" lon="6.75162">
        <ele>2136</ele>
        <time>2022-08-26T18:01:07Z</time>
      </trkpt>
      <trkpt lat="45.87798" lon="6.75159">
        <ele>2136</ele>
        <time>2022-08-26T18:01:09Z</time>
      </trkpt>
      <trkpt lat="45.87797" lon="6.75154">
        <ele>2136</ele>
        <time>2022-08-26T18:01:11Z</time>
      </trkpt>
      <trkpt lat="45.87796" lon="6.7515">
        <ele>2136</ele>
        <time>2022-08-26T18:01:13Z</time>
      </trkpt>
      <trkpt lat="45.87795" lon="6.75147">
        <ele>2137</ele>
        <time>2022-08-26T18:01:15Z</time>
      </trkpt>
      <trkpt lat="45.87794" lon="6.75144">
        <ele>2137</ele>
        <time>2022-08-26T18:01:17Z</time>
      </trkpt>
      <trkpt lat="45.87793" lon="6.75141">
        <ele>2137</ele>
        <time>2022-08-26T18:01:19Z</time>
      </trkpt>
      <trkpt lat="45.87793" lon="6.75137">
        <ele>2137</ele>
        <time>2022-08-26T18:01:21Z</time>
      </trkpt>
      <trkpt lat="45.87793" lon="6.75131">
        <ele>2137</ele>
        <time>2022-08-26T18:01:23Z</time>
      </trkpt>
      <trkpt lat="45.87793" lon="6.7513">
        <ele>2137</ele>
        <time>2022-08-26T18:01:24Z</time>
      </trkpt>
      <trkpt lat="45.87793" lon="6.75126">
        <ele>2138</ele>
        <time>2022-08-26T18:01:26Z</time>
      </trkpt>
      <trkpt lat="45.87792" lon="6.75122">
        <ele>2138</ele>
        <time>2022-08-26T18:01:28Z</time>
      </trkpt>
      <trkpt lat="45.87792" lon="6.75119">
        <ele>2138</ele>
        <time>2022-08-26T18:01:29Z</time>
      </trkpt>
      <trkpt lat="45.87791" lon="6.75117">
        <ele>2138</ele>
        <time>2022-08-26T18:01:30Z</time>
      </trkpt>
      <trkpt lat="45.8779" lon="6.75114">
        <ele>2138</ele>
        <time>2022-08-26T18:01:31Z</time>
      </trkpt>
      <trkpt lat="45.87789" lon="6.75112">
        <ele>2139</ele>
        <time>2022-08-26T18:01:32Z</time>
      </trkpt>
      <trkpt lat="45.87789" lon="6.75109">
        <ele>2139</ele>
        <time>2022-08-26T18:01:33Z</time>
      </trkpt>
      <trkpt lat="45.87788" lon="6.75107">
        <ele>2139</ele>
        <time>2022-08-26T18:01:34Z</time>
      </trkpt>
      <trkpt lat="45.87787" lon="6.75104">
        <ele>2139</ele>
        <time>2022-08-26T18:01:35Z</time>
      </trkpt>
      <trkpt lat="45.87787" lon="6.75102">
        <ele>2139</ele>
        <time>2022-08-26T18:01:36Z</time>
      </trkpt>
      <trkpt lat="45.87786" lon="6.75099">
        <ele>2139</ele>
        <time>2022-08-26T18:01:37Z</time>
      </trkpt>
      <trkpt lat="45.87786" lon="6.75096">
        <ele>2139</ele>
        <time>2022-08-26T18:01:38Z</time>
      </trkpt>
      <trkpt lat="45.87785" lon="6.75093">
        <ele>2139</ele>
        <time>2022-08-26T18:01:39Z</time>
      </trkpt>
      <trkpt lat="45.87785" lon="6.75088">
        <ele>2139</ele>
        <time>2022-08-26T18:01:40Z</time>
      </trkpt>
      <trkpt lat="45.87785" lon="6.75087">
        <ele>2139</ele>
        <time>2022-08-26T18:01:41Z</time>
      </trkpt>
      <trkpt lat="45.87784" lon="6.75082">
        <ele>2139</ele>
        <time>2022-08-26T18:01:42Z</time>
      </trkpt>
      <trkpt lat="45.87784" lon="6.7508">
        <ele>2139</ele>
        <time>2022-08-26T18:01:43Z</time>
      </trkpt>
      <trkpt lat="45.87784" lon="6.75078">
        <ele>2139</ele>
        <time>2022-08-26T18:01:44Z</time>
      </trkpt>
      <trkpt lat="45.87784" lon="6.75073">
        <ele>2139</ele>
        <time>2022-08-26T18:01:45Z</time>
      </trkpt>
      <trkpt lat="45.87784" lon="6.75072">
        <ele>2140</ele>
        <time>2022-08-26T18:01:46Z</time>
      </trkpt>
      <trkpt lat="45.87783" lon="6.75069">
        <ele>2140</ele>
        <time>2022-08-26T18:01:47Z</time>
      </trkpt>
      <trkpt lat="45.87782" lon="6.75066">
        <ele>2140</ele>
        <time>2022-08-26T18:01:48Z</time>
      </trkpt>
      <trkpt lat="45.87781" lon="6.75063">
        <ele>2140</ele>
        <time>2022-08-26T18:01:49Z</time>
      </trkpt>
      <trkpt lat="45.8778" lon="6.7506">
        <ele>2140</ele>
        <time>2022-08-26T18:01:50Z</time>
      </trkpt>
      <trkpt lat="45.87779" lon="6.75058">
        <ele>2140</ele>
        <time>2022-08-26T18:01:51Z</time>
      </trkpt>
      <trkpt lat="45.87778" lon="6.75054">
        <ele>2141</ele>
        <time>2022-08-26T18:01:52Z</time>
      </trkpt>
      <trkpt lat="45.87778" lon="6.75049">
        <ele>2141</ele>
        <time>2022-08-26T18:01:53Z</time>
      </trkpt>
      <trkpt lat="45.87777" lon="6.75047">
        <ele>2141</ele>
        <time>2022-08-26T18:01:54Z</time>
      </trkpt>
      <trkpt lat="45.87776" lon="6.75041">
        <ele>2141</ele>
        <time>2022-08-26T18:01:55Z</time>
      </trkpt>
      <trkpt lat="45.87776" lon="6.75039">
        <ele>2141</ele>
        <time>2022-08-26T18:01:56Z</time>
      </trkpt>
      <trkpt lat="45.87775" lon="6.75035">
        <ele>2141</ele>
        <time>2022-08-26T18:01:57Z</time>
      </trkpt>
      <trkpt lat="45.87775" lon="6.75032">
        <ele>2141</ele>
        <time>2022-08-26T18:01:58Z</time>
      </trkpt>
      <trkpt lat="45.87774" lon="6.75027">
        <ele>2141</ele>
        <time>2022-08-26T18:01:59Z</time>
      </trkpt>
      <trkpt lat="45.87774" lon="6.75025">
        <ele>2141</ele>
        <time>2022-08-26T18:02:00Z</time>
      </trkpt>
      <trkpt lat="45.87773" lon="6.75022">
        <ele>2142</ele>
        <time>2022-08-26T18:02:01Z</time>
      </trkpt>
      <trkpt lat="45.87773" lon="6.75019">
        <ele>2142</ele>
        <time>2022-08-26T18:02:02Z</time>
      </trkpt>
      <trkpt lat="45.87773" lon="6.75014">
        <ele>2142</ele>
        <time>2022-08-26T18:02:03Z</time>
      </trkpt>
      <trkpt lat="45.87773" lon="6.75013">
        <ele>2142</ele>
        <time>2022-08-26T18:02:04Z</time>
      </trkpt>
      <trkpt lat="45.87772" lon="6.7501">
        <ele>2142</ele>
        <time>2022-08-26T18:02:05Z</time>
      </trkpt>
      <trkpt lat="45.87771" lon="6.75007">
        <ele>2142</ele>
        <time>2022-08-26T18:02:06Z</time>
      </trkpt>
      <trkpt lat="45.8777" lon="6.75004">
        <ele>2142</ele>
        <time>2022-08-26T18:02:07Z</time>
      </trkpt>
      <trkpt lat="45.8777" lon="6.75">
        <ele>2142</ele>
        <time>2022-08-26T18:02:08Z</time>
      </trkpt>
      <trkpt lat="45.8777" lon="6.74998">
        <ele>2142</ele>
        <time>2022-08-26T18:02:09Z</time>
      </trkpt>
      <trkpt lat="45.8777" lon="6.74995">
        <ele>2142</ele>
        <time>2022-08-26T18:02:10Z</time>
      </trkpt>
      <trkpt lat="45.8777" lon="6.74993">
        <ele>2142</ele>
        <time>2022-08-26T18:02:11Z</time>
      </trkpt>
      <trkpt lat="45.87769" lon="6.74988">
        <ele>2142</ele>
        <time>2022-08-26T18:02:12Z</time>
      </trkpt>
      <trkpt lat="45.87769" lon="6.74986">
        <ele>2142</ele>
        <time>2022-08-26T18:02:13Z</time>
      </trkpt>
      <trkpt lat="45.87768" lon="6.74984">
        <ele>2142</ele>
        <time>2022-08-26T18:02:14Z</time>
      </trkpt>
      <trkpt lat="45.87767" lon="6.74981">
        <ele>2142</ele>
        <time>2022-08-26T18:02:15Z</time>
      </trkpt>
      <trkpt lat="45.87766" lon="6.74979">
        <ele>2142</ele>
        <time>2022-08-26T18:02:16Z</time>
      </trkpt>
      <trkpt lat="45.87765" lon="6.74976">
        <ele>2142</ele>
        <time>2022-08-26T18:02:17Z</time>
      </trkpt>
      <trkpt lat="45.87764" lon="6.74973">
        <ele>2142</ele>
        <time>2022-08-26T18:02:18Z</time>
      </trkpt>
      <trkpt lat="45.87763" lon="6.74971">
        <ele>2142</ele>
        <time>2022-08-26T18:02:19Z</time>
      </trkpt>
      <trkpt lat="45.87762" lon="6.74968">
        <ele>2142</ele>
        <time>2022-08-26T18:02:20Z</time>
      </trkpt>
      <trkpt lat="45.87761" lon="6.74965">
        <ele>2142</ele>
        <time>2022-08-26T18:02:21Z</time>
      </trkpt>
      <trkpt lat="45.8776" lon="6.7496">
        <ele>2142</ele>
        <time>2022-08-26T18:02:22Z</time>
      </trkpt>
      <trkpt lat="45.8776" lon="6.74958">
        <ele>2144</ele>
        <time>2022-08-26T18:02:23Z</time>
      </trkpt>
      <trkpt lat="45.8776" lon="6.74954">
        <ele>2144</ele>
        <time>2022-08-26T18:02:24Z</time>
      </trkpt>
      <trkpt lat="45.87759" lon="6.74951">
        <ele>2144</ele>
        <time>2022-08-26T18:02:25Z</time>
      </trkpt>
      <trkpt lat="45.87759" lon="6.74947">
        <ele>2144</ele>
        <time>2022-08-26T18:02:26Z</time>
      </trkpt>
      <trkpt lat="45.87758" lon="6.74942">
        <ele>2144</ele>
        <time>2022-08-26T18:02:27Z</time>
      </trkpt>
      <trkpt lat="45.87757" lon="6.74941">
        <ele>2144</ele>
        <time>2022-08-26T18:02:28Z</time>
      </trkpt>
      <trkpt lat="45.87756" lon="6.74937">
        <ele>2144</ele>
        <time>2022-08-26T18:02:29Z</time>
      </trkpt>
      <trkpt lat="45.87756" lon="6.74934">
        <ele>2144</ele>
        <time>2022-08-26T18:02:30Z</time>
      </trkpt>
      <trkpt lat="45.87755" lon="6.74931">
        <ele>2144</ele>
        <time>2022-08-26T18:02:31Z</time>
      </trkpt>
      <trkpt lat="45.87753" lon="6.74925">
        <ele>2144</ele>
        <time>2022-08-26T18:02:32Z</time>
      </trkpt>
      <trkpt lat="45.87753" lon="6.74924">
        <ele>2144</ele>
        <time>2022-08-26T18:02:33Z</time>
      </trkpt>
      <trkpt lat="45.87752" lon="6.74921">
        <ele>2144</ele>
        <time>2022-08-26T18:02:34Z</time>
      </trkpt>
      <trkpt lat="45.87751" lon="6.74916">
        <ele>2144</ele>
        <time>2022-08-26T18:02:35Z</time>
      </trkpt>
      <trkpt lat="45.87751" lon="6.74914">
        <ele>2142</ele>
        <time>2022-08-26T18:02:36Z</time>
      </trkpt>
      <trkpt lat="45.8775" lon="6.74909">
        <ele>2142</ele>
        <time>2022-08-26T18:02:37Z</time>
      </trkpt>
      <trkpt lat="45.87749" lon="6.74907">
        <ele>2142</ele>
        <time>2022-08-26T18:02:38Z</time>
      </trkpt>
      <trkpt lat="45.87748" lon="6.74903">
        <ele>2142</ele>
        <time>2022-08-26T18:02:39Z</time>
      </trkpt>
      <trkpt lat="45.87747" lon="6.74901">
        <ele>2141</ele>
        <time>2022-08-26T18:02:40Z</time>
      </trkpt>
      <trkpt lat="45.87745" lon="6.74896">
        <ele>2141</ele>
        <time>2022-08-26T18:02:41Z</time>
      </trkpt>
      <trkpt lat="45.87745" lon="6.74895">
        <ele>2141</ele>
        <time>2022-08-26T18:02:42Z</time>
      </trkpt>
      <trkpt lat="45.87744" lon="6.74892">
        <ele>2141</ele>
        <time>2022-08-26T18:02:43Z</time>
      </trkpt>
      <trkpt lat="45.87744" lon="6.74888">
        <ele>2141</ele>
        <time>2022-08-26T18:02:44Z</time>
      </trkpt>
      <trkpt lat="45.87743" lon="6.74885">
        <ele>2142</ele>
        <time>2022-08-26T18:02:45Z</time>
      </trkpt>
      <trkpt lat="45.87742" lon="6.7488">
        <ele>2142</ele>
        <time>2022-08-26T18:02:46Z</time>
      </trkpt>
      <trkpt lat="45.87742" lon="6.74878">
        <ele>2142</ele>
        <time>2022-08-26T18:02:47Z</time>
      </trkpt>
      <trkpt lat="45.87741" lon="6.74874">
        <ele>2142</ele>
        <time>2022-08-26T18:02:48Z</time>
      </trkpt>
      <trkpt lat="45.8774" lon="6.74871">
        <ele>2142</ele>
        <time>2022-08-26T18:02:49Z</time>
      </trkpt>
      <trkpt lat="45.87739" lon="6.74868">
        <ele>2142</ele>
        <time>2022-08-26T18:02:50Z</time>
      </trkpt>
      <trkpt lat="45.87739" lon="6.74864">
        <ele>2142</ele>
        <time>2022-08-26T18:02:51Z</time>
      </trkpt>
      <trkpt lat="45.87738" lon="6.74861">
        <ele>2142</ele>
        <time>2022-08-26T18:02:52Z</time>
      </trkpt>
      <trkpt lat="45.87737" lon="6.74858">
        <ele>2142</ele>
        <time>2022-08-26T18:02:53Z</time>
      </trkpt>
      <trkpt lat="45.87737" lon="6.74854">
        <ele>2142</ele>
        <time>2022-08-26T18:02:54Z</time>
      </trkpt>
      <trkpt lat="45.87736" lon="6.74851">
        <ele>2142</ele>
        <time>2022-08-26T18:02:55Z</time>
      </trkpt>
      <trkpt lat="45.87736" lon="6.74848">
        <ele>2142</ele>
        <time>2022-08-26T18:02:56Z</time>
      </trkpt>
      <trkpt lat="45.87735" lon="6.74845">
        <ele>2142</ele>
        <time>2022-08-26T18:02:57Z</time>
      </trkpt>
      <trkpt lat="45.87734" lon="6.74842">
        <ele>2141</ele>
        <time>2022-08-26T18:02:58Z</time>
      </trkpt>
      <trkpt lat="45.87733" lon="6.74839">
        <ele>2141</ele>
        <time>2022-08-26T18:02:59Z</time>
      </trkpt>
      <trkpt lat="45.87732" lon="6.74835">
        <ele>2141</ele>
        <time>2022-08-26T18:03:00Z</time>
      </trkpt>
      <trkpt lat="45.87731" lon="6.74832">
        <ele>2142</ele>
        <time>2022-08-26T18:03:01Z</time>
      </trkpt>
      <trkpt lat="45.8773" lon="6.74828">
        <ele>2142</ele>
        <time>2022-08-26T18:03:02Z</time>
      </trkpt>
      <trkpt lat="45.87729" lon="6.74826">
        <ele>2142</ele>
        <time>2022-08-26T18:03:03Z</time>
      </trkpt>
      <trkpt lat="45.87728" lon="6.74824">
        <ele>2142</ele>
        <time>2022-08-26T18:03:04Z</time>
      </trkpt>
      <trkpt lat="45.87728" lon="6.74822">
        <ele>2142</ele>
        <time>2022-08-26T18:03:05Z</time>
      </trkpt>
      <trkpt lat="45.87727" lon="6.74819">
        <ele>2142</ele>
        <time>2022-08-26T18:03:06Z</time>
      </trkpt>
      <trkpt lat="45.87726" lon="6.74817">
        <ele>2142</ele>
        <time>2022-08-26T18:03:07Z</time>
      </trkpt>
      <trkpt lat="45.87726" lon="6.74815">
        <ele>2142</ele>
        <time>2022-08-26T18:03:08Z</time>
      </trkpt>
      <trkpt lat="45.87722" lon="6.74805">
        <ele>2142</ele>
        <time>2022-08-26T18:03:10Z</time>
      </trkpt>
      <trkpt lat="45.87722" lon="6.74804">
        <ele>2142</ele>
        <time>2022-08-26T18:03:11Z</time>
      </trkpt>
      <trkpt lat="45.87721" lon="6.748">
        <ele>2142</ele>
        <time>2022-08-26T18:03:12Z</time>
      </trkpt>
      <trkpt lat="45.87721" lon="6.74797">
        <ele>2142</ele>
        <time>2022-08-26T18:03:13Z</time>
      </trkpt>
      <trkpt lat="45.8772" lon="6.74794">
        <ele>2142</ele>
        <time>2022-08-26T18:03:14Z</time>
      </trkpt>
      <trkpt lat="45.87719" lon="6.7479">
        <ele>2142</ele>
        <time>2022-08-26T18:03:15Z</time>
      </trkpt>
      <trkpt lat="45.87719" lon="6.74787">
        <ele>2142</ele>
        <time>2022-08-26T18:03:16Z</time>
      </trkpt>
      <trkpt lat="45.87718" lon="6.74782">
        <ele>2142</ele>
        <time>2022-08-26T18:03:17Z</time>
      </trkpt>
      <trkpt lat="45.87718" lon="6.74781">
        <ele>2142</ele>
        <time>2022-08-26T18:03:18Z</time>
      </trkpt>
      <trkpt lat="45.87717" lon="6.74777">
        <ele>2142</ele>
        <time>2022-08-26T18:03:19Z</time>
      </trkpt>
      <trkpt lat="45.87716" lon="6.74775">
        <ele>2142</ele>
        <time>2022-08-26T18:03:20Z</time>
      </trkpt>
      <trkpt lat="45.87715" lon="6.74772">
        <ele>2142</ele>
        <time>2022-08-26T18:03:21Z</time>
      </trkpt>
      <trkpt lat="45.87714" lon="6.74769">
        <ele>2142</ele>
        <time>2022-08-26T18:03:22Z</time>
      </trkpt>
      <trkpt lat="45.87713" lon="6.74765">
        <ele>2142</ele>
        <time>2022-08-26T18:03:23Z</time>
      </trkpt>
      <trkpt lat="45.87711" lon="6.7476">
        <ele>2142</ele>
        <time>2022-08-26T18:03:24Z</time>
      </trkpt>
      <trkpt lat="45.87711" lon="6.74759">
        <ele>2142</ele>
        <time>2022-08-26T18:03:25Z</time>
      </trkpt>
      <trkpt lat="45.8771" lon="6.74756">
        <ele>2142</ele>
        <time>2022-08-26T18:03:26Z</time>
      </trkpt>
      <trkpt lat="45.87709" lon="6.74753">
        <ele>2142</ele>
        <time>2022-08-26T18:03:27Z</time>
      </trkpt>
      <trkpt lat="45.87708" lon="6.7475">
        <ele>2142</ele>
        <time>2022-08-26T18:03:28Z</time>
      </trkpt>
      <trkpt lat="45.87707" lon="6.74748">
        <ele>2142</ele>
        <time>2022-08-26T18:03:29Z</time>
      </trkpt>
      <trkpt lat="45.87706" lon="6.74746">
        <ele>2144</ele>
        <time>2022-08-26T18:03:30Z</time>
      </trkpt>
      <trkpt lat="45.87704" lon="6.74743">
        <ele>2144</ele>
        <time>2022-08-26T18:03:31Z</time>
      </trkpt>
      <trkpt lat="45.87703" lon="6.74741">
        <ele>2144</ele>
        <time>2022-08-26T18:03:32Z</time>
      </trkpt>
      <trkpt lat="45.87703" lon="6.74739">
        <ele>2145</ele>
        <time>2022-08-26T18:03:33Z</time>
      </trkpt>
      <trkpt lat="45.87702" lon="6.74735">
        <ele>2145</ele>
        <time>2022-08-26T18:03:35Z</time>
      </trkpt>
      <trkpt lat="45.877" lon="6.74732">
        <ele>2145</ele>
        <time>2022-08-26T18:03:37Z</time>
      </trkpt>
      <trkpt lat="45.87699" lon="6.74728">
        <ele>2146</ele>
        <time>2022-08-26T18:03:39Z</time>
      </trkpt>
      <trkpt lat="45.87697" lon="6.74725">
        <ele>2146</ele>
        <time>2022-08-26T18:03:41Z</time>
      </trkpt>
      <trkpt lat="45.87695" lon="6.74722">
        <ele>2146</ele>
        <time>2022-08-26T18:03:43Z</time>
      </trkpt>
      <trkpt lat="45.87694" lon="6.74718">
        <ele>2146</ele>
        <time>2022-08-26T18:03:45Z</time>
      </trkpt>
      <trkpt lat="45.87694" lon="6.74715">
        <ele>2147</ele>
        <time>2022-08-26T18:03:47Z</time>
      </trkpt>
      <trkpt lat="45.87692" lon="6.74712">
        <ele>2147</ele>
        <time>2022-08-26T18:03:49Z</time>
      </trkpt>
      <trkpt lat="45.87691" lon="6.74709">
        <ele>2148</ele>
        <time>2022-08-26T18:03:51Z</time>
      </trkpt>
      <trkpt lat="45.87689" lon="6.74705">
        <ele>2148</ele>
        <time>2022-08-26T18:03:53Z</time>
      </trkpt>
      <trkpt lat="45.87688" lon="6.74703">
        <ele>2148</ele>
        <time>2022-08-26T18:03:55Z</time>
      </trkpt>
      <trkpt lat="45.87686" lon="6.747">
        <ele>2149</ele>
        <time>2022-08-26T18:03:57Z</time>
      </trkpt>
      <trkpt lat="45.87685" lon="6.74696">
        <ele>2150</ele>
        <time>2022-08-26T18:03:59Z</time>
      </trkpt>
      <trkpt lat="45.87684" lon="6.74692">
        <ele>2150</ele>
        <time>2022-08-26T18:04:01Z</time>
      </trkpt>
      <trkpt lat="45.87682" lon="6.74688">
        <ele>2150</ele>
        <time>2022-08-26T18:04:03Z</time>
      </trkpt>
      <trkpt lat="45.87681" lon="6.74685">
        <ele>2150</ele>
        <time>2022-08-26T18:04:05Z</time>
      </trkpt>
      <trkpt lat="45.8768" lon="6.74681">
        <ele>2150</ele>
        <time>2022-08-26T18:04:07Z</time>
      </trkpt>
      <trkpt lat="45.87678" lon="6.74677">
        <ele>2151</ele>
        <time>2022-08-26T18:04:09Z</time>
      </trkpt>
      <trkpt lat="45.87676" lon="6.74672">
        <ele>2151</ele>
        <time>2022-08-26T18:04:11Z</time>
      </trkpt>
      <trkpt lat="45.87675" lon="6.74669">
        <ele>2151</ele>
        <time>2022-08-26T18:04:12Z</time>
      </trkpt>
      <trkpt lat="45.87674" lon="6.74667">
        <ele>2151</ele>
        <time>2022-08-26T18:04:13Z</time>
      </trkpt>
      <trkpt lat="45.87673" lon="6.74664">
        <ele>2151</ele>
        <time>2022-08-26T18:04:14Z</time>
      </trkpt>
      <trkpt lat="45.87672" lon="6.74661">
        <ele>2150</ele>
        <time>2022-08-26T18:04:15Z</time>
      </trkpt>
      <trkpt lat="45.87671" lon="6.74659">
        <ele>2150</ele>
        <time>2022-08-26T18:04:16Z</time>
      </trkpt>
      <trkpt lat="45.8767" lon="6.74656">
        <ele>2151</ele>
        <time>2022-08-26T18:04:17Z</time>
      </trkpt>
      <trkpt lat="45.87669" lon="6.74653">
        <ele>2151</ele>
        <time>2022-08-26T18:04:18Z</time>
      </trkpt>
      <trkpt lat="45.87668" lon="6.74649">
        <ele>2151</ele>
        <time>2022-08-26T18:04:20Z</time>
      </trkpt>
      <trkpt lat="45.87667" lon="6.74646">
        <ele>2151</ele>
        <time>2022-08-26T18:04:21Z</time>
      </trkpt>
      <trkpt lat="45.87666" lon="6.74644">
        <ele>2151</ele>
        <time>2022-08-26T18:04:22Z</time>
      </trkpt>
      <trkpt lat="45.87664" lon="6.74639">
        <ele>2151</ele>
        <time>2022-08-26T18:04:23Z</time>
      </trkpt>
      <trkpt lat="45.87664" lon="6.74638">
        <ele>2151</ele>
        <time>2022-08-26T18:04:24Z</time>
      </trkpt>
      <trkpt lat="45.87662" lon="6.74634">
        <ele>2152</ele>
        <time>2022-08-26T18:04:26Z</time>
      </trkpt>
      <trkpt lat="45.87662" lon="6.74631">
        <ele>2152</ele>
        <time>2022-08-26T18:04:27Z</time>
      </trkpt>
      <trkpt lat="45.87661" lon="6.74629">
        <ele>2152</ele>
        <time>2022-08-26T18:04:28Z</time>
      </trkpt>
      <trkpt lat="45.87659" lon="6.74626">
        <ele>2152</ele>
        <time>2022-08-26T18:04:29Z</time>
      </trkpt>
      <trkpt lat="45.87658" lon="6.74623">
        <ele>2152</ele>
        <time>2022-08-26T18:04:30Z</time>
      </trkpt>
      <trkpt lat="45.87657" lon="6.74621">
        <ele>2152</ele>
        <time>2022-08-26T18:04:31Z</time>
      </trkpt>
      <trkpt lat="45.87656" lon="6.74618">
        <ele>2152</ele>
        <time>2022-08-26T18:04:32Z</time>
      </trkpt>
      <trkpt lat="45.87654" lon="6.74616">
        <ele>2152</ele>
        <time>2022-08-26T18:04:33Z</time>
      </trkpt>
      <trkpt lat="45.87653" lon="6.74613">
        <ele>2152</ele>
        <time>2022-08-26T18:04:34Z</time>
      </trkpt>
      <trkpt lat="45.87651" lon="6.7461">
        <ele>2152</ele>
        <time>2022-08-26T18:04:35Z</time>
      </trkpt>
      <trkpt lat="45.87651" lon="6.74609">
        <ele>2153</ele>
        <time>2022-08-26T18:04:36Z</time>
      </trkpt>
      <trkpt lat="45.87649" lon="6.74608">
        <ele>2152</ele>
        <time>2022-08-26T18:04:37Z</time>
      </trkpt>
      <trkpt lat="45.87647" lon="6.74607">
        <ele>2152</ele>
        <time>2022-08-26T18:04:38Z</time>
      </trkpt>
      <trkpt lat="45.87646" lon="6.74605">
        <ele>2153</ele>
        <time>2022-08-26T18:04:39Z</time>
      </trkpt>
      <trkpt lat="45.87644" lon="6.74604">
        <ele>2153</ele>
        <time>2022-08-26T18:04:40Z</time>
      </trkpt>
      <trkpt lat="45.87642" lon="6.74601">
        <ele>2153</ele>
        <time>2022-08-26T18:04:41Z</time>
      </trkpt>
      <trkpt lat="45.8764" lon="6.746">
        <ele>2153</ele>
        <time>2022-08-26T18:04:42Z</time>
      </trkpt>
      <trkpt lat="45.87639" lon="6.74598">
        <ele>2153</ele>
        <time>2022-08-26T18:04:43Z</time>
      </trkpt>
      <trkpt lat="45.87637" lon="6.74596">
        <ele>2153</ele>
        <time>2022-08-26T18:04:44Z</time>
      </trkpt>
      <trkpt lat="45.87635" lon="6.74594">
        <ele>2153</ele>
        <time>2022-08-26T18:04:45Z</time>
      </trkpt>
      <trkpt lat="45.87633" lon="6.74592">
        <ele>2153</ele>
        <time>2022-08-26T18:04:46Z</time>
      </trkpt>
      <trkpt lat="45.87631" lon="6.7459">
        <ele>2153</ele>
        <time>2022-08-26T18:04:47Z</time>
      </trkpt>
      <trkpt lat="45.87629" lon="6.74587">
        <ele>2153</ele>
        <time>2022-08-26T18:04:48Z</time>
      </trkpt>
      <trkpt lat="45.87627" lon="6.74586">
        <ele>2152</ele>
        <time>2022-08-26T18:04:49Z</time>
      </trkpt>
      <trkpt lat="45.87624" lon="6.74582">
        <ele>2152</ele>
        <time>2022-08-26T18:04:50Z</time>
      </trkpt>
      <trkpt lat="45.87623" lon="6.7458">
        <ele>2152</ele>
        <time>2022-08-26T18:04:51Z</time>
      </trkpt>
      <trkpt lat="45.87622" lon="6.74577">
        <ele>2153</ele>
        <time>2022-08-26T18:04:52Z</time>
      </trkpt>
      <trkpt lat="45.87621" lon="6.74574">
        <ele>2153</ele>
        <time>2022-08-26T18:04:53Z</time>
      </trkpt>
      <trkpt lat="45.87619" lon="6.74571">
        <ele>2153</ele>
        <time>2022-08-26T18:04:54Z</time>
      </trkpt>
      <trkpt lat="45.87618" lon="6.74568">
        <ele>2153</ele>
        <time>2022-08-26T18:04:55Z</time>
      </trkpt>
      <trkpt lat="45.87618" lon="6.74565">
        <ele>2153</ele>
        <time>2022-08-26T18:04:56Z</time>
      </trkpt>
      <trkpt lat="45.87617" lon="6.74563">
        <ele>2153</ele>
        <time>2022-08-26T18:04:57Z</time>
      </trkpt>
      <trkpt lat="45.87617" lon="6.7456">
        <ele>2153</ele>
        <time>2022-08-26T18:04:58Z</time>
      </trkpt>
      <trkpt lat="45.87616" lon="6.74555">
        <ele>2153</ele>
        <time>2022-08-26T18:04:59Z</time>
      </trkpt>
      <trkpt lat="45.87616" lon="6.74554">
        <ele>2153</ele>
        <time>2022-08-26T18:05:00Z</time>
      </trkpt>
      <trkpt lat="45.87615" lon="6.74551">
        <ele>2153</ele>
        <time>2022-08-26T18:05:01Z</time>
      </trkpt>
      <trkpt lat="45.87614" lon="6.74548">
        <ele>2153</ele>
        <time>2022-08-26T18:05:02Z</time>
      </trkpt>
      <trkpt lat="45.87614" lon="6.74544">
        <ele>2153</ele>
        <time>2022-08-26T18:05:03Z</time>
      </trkpt>
      <trkpt lat="45.87613" lon="6.74539">
        <ele>2153</ele>
        <time>2022-08-26T18:05:04Z</time>
      </trkpt>
      <trkpt lat="45.87612" lon="6.74538">
        <ele>2153</ele>
        <time>2022-08-26T18:05:05Z</time>
      </trkpt>
      <trkpt lat="45.87611" lon="6.74534">
        <ele>2153</ele>
        <time>2022-08-26T18:05:06Z</time>
      </trkpt>
      <trkpt lat="45.87611" lon="6.74531">
        <ele>2153</ele>
        <time>2022-08-26T18:05:07Z</time>
      </trkpt>
      <trkpt lat="45.87611" lon="6.74528">
        <ele>2153</ele>
        <time>2022-08-26T18:05:08Z</time>
      </trkpt>
      <trkpt lat="45.8761" lon="6.74521">
        <ele>2153</ele>
        <time>2022-08-26T18:05:09Z</time>
      </trkpt>
      <trkpt lat="45.87609" lon="6.74518">
        <ele>2153</ele>
        <time>2022-08-26T18:05:10Z</time>
      </trkpt>
      <trkpt lat="45.87608" lon="6.74513">
        <ele>2153</ele>
        <time>2022-08-26T18:05:11Z</time>
      </trkpt>
      <trkpt lat="45.87608" lon="6.74511">
        <ele>2152</ele>
        <time>2022-08-26T18:05:12Z</time>
      </trkpt>
      <trkpt lat="45.87607" lon="6.74507">
        <ele>2152</ele>
        <time>2022-08-26T18:05:13Z</time>
      </trkpt>
      <trkpt lat="45.87606" lon="6.74504">
        <ele>2152</ele>
        <time>2022-08-26T18:05:14Z</time>
      </trkpt>
      <trkpt lat="45.87606" lon="6.74501">
        <ele>2152</ele>
        <time>2022-08-26T18:05:15Z</time>
      </trkpt>
      <trkpt lat="45.87605" lon="6.74496">
        <ele>2152</ele>
        <time>2022-08-26T18:05:16Z</time>
      </trkpt>
      <trkpt lat="45.87604" lon="6.74494">
        <ele>2152</ele>
        <time>2022-08-26T18:05:17Z</time>
      </trkpt>
      <trkpt lat="45.87603" lon="6.74491">
        <ele>2152</ele>
        <time>2022-08-26T18:05:18Z</time>
      </trkpt>
      <trkpt lat="45.876" lon="6.74486">
        <ele>2152</ele>
        <time>2022-08-26T18:05:19Z</time>
      </trkpt>
      <trkpt lat="45.87599" lon="6.74485">
        <ele>2152</ele>
        <time>2022-08-26T18:05:20Z</time>
      </trkpt>
      <trkpt lat="45.87598" lon="6.74482">
        <ele>2152</ele>
        <time>2022-08-26T18:05:21Z</time>
      </trkpt>
      <trkpt lat="45.87596" lon="6.74479">
        <ele>2152</ele>
        <time>2022-08-26T18:05:22Z</time>
      </trkpt>
      <trkpt lat="45.87594" lon="6.74477">
        <ele>2152</ele>
        <time>2022-08-26T18:05:23Z</time>
      </trkpt>
      <trkpt lat="45.87592" lon="6.74472">
        <ele>2152</ele>
        <time>2022-08-26T18:05:24Z</time>
      </trkpt>
      <trkpt lat="45.87592" lon="6.74471">
        <ele>2152</ele>
        <time>2022-08-26T18:05:25Z</time>
      </trkpt>
      <trkpt lat="45.8759" lon="6.74467">
        <ele>2152</ele>
        <time>2022-08-26T18:05:26Z</time>
      </trkpt>
      <trkpt lat="45.87589" lon="6.74465">
        <ele>2153</ele>
        <time>2022-08-26T18:05:27Z</time>
      </trkpt>
      <trkpt lat="45.87587" lon="6.74461">
        <ele>2153</ele>
        <time>2022-08-26T18:05:28Z</time>
      </trkpt>
      <trkpt lat="45.87586" lon="6.74459">
        <ele>2153</ele>
        <time>2022-08-26T18:05:29Z</time>
      </trkpt>
      <trkpt lat="45.87585" lon="6.74456">
        <ele>2153</ele>
        <time>2022-08-26T18:05:30Z</time>
      </trkpt>
      <trkpt lat="45.87584" lon="6.74454">
        <ele>2153</ele>
        <time>2022-08-26T18:05:31Z</time>
      </trkpt>
      <trkpt lat="45.87582" lon="6.7445">
        <ele>2153</ele>
        <time>2022-08-26T18:05:32Z</time>
      </trkpt>
      <trkpt lat="45.87581" lon="6.74448">
        <ele>2153</ele>
        <time>2022-08-26T18:05:33Z</time>
      </trkpt>
      <trkpt lat="45.87579" lon="6.74446">
        <ele>2153</ele>
        <time>2022-08-26T18:05:34Z</time>
      </trkpt>
      <trkpt lat="45.87578" lon="6.74443">
        <ele>2153</ele>
        <time>2022-08-26T18:05:35Z</time>
      </trkpt>
      <trkpt lat="45.87577" lon="6.7444">
        <ele>2153</ele>
        <time>2022-08-26T18:05:36Z</time>
      </trkpt>
      <trkpt lat="45.87575" lon="6.74436">
        <ele>2153</ele>
        <time>2022-08-26T18:05:37Z</time>
      </trkpt>
      <trkpt lat="45.87575" lon="6.74434">
        <ele>2153</ele>
        <time>2022-08-26T18:05:38Z</time>
      </trkpt>
      <trkpt lat="45.87573" lon="6.7443">
        <ele>2153</ele>
        <time>2022-08-26T18:05:39Z</time>
      </trkpt>
      <trkpt lat="45.87572" lon="6.74428">
        <ele>2152</ele>
        <time>2022-08-26T18:05:40Z</time>
      </trkpt>
      <trkpt lat="45.87571" lon="6.74425">
        <ele>2152</ele>
        <time>2022-08-26T18:05:41Z</time>
      </trkpt>
      <trkpt lat="45.87571" lon="6.74422">
        <ele>2152</ele>
        <time>2022-08-26T18:05:42Z</time>
      </trkpt>
      <trkpt lat="45.8757" lon="6.74418">
        <ele>2152</ele>
        <time>2022-08-26T18:05:43Z</time>
      </trkpt>
      <trkpt lat="45.8757" lon="6.74415">
        <ele>2152</ele>
        <time>2022-08-26T18:05:44Z</time>
      </trkpt>
      <trkpt lat="45.87569" lon="6.74411">
        <ele>2152</ele>
        <time>2022-08-26T18:05:45Z</time>
      </trkpt>
      <trkpt lat="45.87569" lon="6.74408">
        <ele>2152</ele>
        <time>2022-08-26T18:05:46Z</time>
      </trkpt>
      <trkpt lat="45.87569" lon="6.74404">
        <ele>2152</ele>
        <time>2022-08-26T18:05:47Z</time>
      </trkpt>
      <trkpt lat="45.87569" lon="6.744">
        <ele>2152</ele>
        <time>2022-08-26T18:05:48Z</time>
      </trkpt>
      <trkpt lat="45.87569" lon="6.74395">
        <ele>2152</ele>
        <time>2022-08-26T18:05:49Z</time>
      </trkpt>
      <trkpt lat="45.87569" lon="6.74393">
        <ele>2153</ele>
        <time>2022-08-26T18:05:50Z</time>
      </trkpt>
      <trkpt lat="45.87569" lon="6.74388">
        <ele>2153</ele>
        <time>2022-08-26T18:05:51Z</time>
      </trkpt>
      <trkpt lat="45.87569" lon="6.74386">
        <ele>2152</ele>
        <time>2022-08-26T18:05:52Z</time>
      </trkpt>
      <trkpt lat="45.87569" lon="6.74382">
        <ele>2152</ele>
        <time>2022-08-26T18:05:53Z</time>
      </trkpt>
      <trkpt lat="45.87569" lon="6.74378">
        <ele>2152</ele>
        <time>2022-08-26T18:05:54Z</time>
      </trkpt>
      <trkpt lat="45.87569" lon="6.74375">
        <ele>2152</ele>
        <time>2022-08-26T18:05:55Z</time>
      </trkpt>
      <trkpt lat="45.87569" lon="6.74369">
        <ele>2152</ele>
        <time>2022-08-26T18:05:56Z</time>
      </trkpt>
      <trkpt lat="45.87569" lon="6.74367">
        <ele>2152</ele>
        <time>2022-08-26T18:05:57Z</time>
      </trkpt>
      <trkpt lat="45.87569" lon="6.74364">
        <ele>2152</ele>
        <time>2022-08-26T18:05:58Z</time>
      </trkpt>
      <trkpt lat="45.8757" lon="6.74358">
        <ele>2152</ele>
        <time>2022-08-26T18:05:59Z</time>
      </trkpt>
      <trkpt lat="45.8757" lon="6.74356">
        <ele>2152</ele>
        <time>2022-08-26T18:06:00Z</time>
      </trkpt>
      <trkpt lat="45.8757" lon="6.74353">
        <ele>2152</ele>
        <time>2022-08-26T18:06:01Z</time>
      </trkpt>
      <trkpt lat="45.87571" lon="6.74349">
        <ele>2152</ele>
        <time>2022-08-26T18:06:02Z</time>
      </trkpt>
      <trkpt lat="45.87571" lon="6.74345">
        <ele>2153</ele>
        <time>2022-08-26T18:06:03Z</time>
      </trkpt>
      <trkpt lat="45.87571" lon="6.7434">
        <ele>2153</ele>
        <time>2022-08-26T18:06:04Z</time>
      </trkpt>
      <trkpt lat="45.87572" lon="6.74338">
        <ele>2153</ele>
        <time>2022-08-26T18:06:05Z</time>
      </trkpt>
      <trkpt lat="45.87572" lon="6.74333">
        <ele>2153</ele>
        <time>2022-08-26T18:06:06Z</time>
      </trkpt>
      <trkpt lat="45.87572" lon="6.74331">
        <ele>2153</ele>
        <time>2022-08-26T18:06:07Z</time>
      </trkpt>
      <trkpt lat="45.87573" lon="6.74328">
        <ele>2153</ele>
        <time>2022-08-26T18:06:08Z</time>
      </trkpt>
      <trkpt lat="45.87574" lon="6.74325">
        <ele>2152</ele>
        <time>2022-08-26T18:06:09Z</time>
      </trkpt>
      <trkpt lat="45.87575" lon="6.7432">
        <ele>2152</ele>
        <time>2022-08-26T18:06:10Z</time>
      </trkpt>
      <trkpt lat="45.87575" lon="6.74318">
        <ele>2152</ele>
        <time>2022-08-26T18:06:11Z</time>
      </trkpt>
      <trkpt lat="45.87576" lon="6.74315">
        <ele>2152</ele>
        <time>2022-08-26T18:06:12Z</time>
      </trkpt>
      <trkpt lat="45.87577" lon="6.74312">
        <ele>2152</ele>
        <time>2022-08-26T18:06:13Z</time>
      </trkpt>
      <trkpt lat="45.87578" lon="6.74309">
        <ele>2152</ele>
        <time>2022-08-26T18:06:14Z</time>
      </trkpt>
      <trkpt lat="45.8758" lon="6.74304">
        <ele>2152</ele>
        <time>2022-08-26T18:06:15Z</time>
      </trkpt>
      <trkpt lat="45.8758" lon="6.74303">
        <ele>2153</ele>
        <time>2022-08-26T18:06:16Z</time>
      </trkpt>
      <trkpt lat="45.87581" lon="6.743">
        <ele>2153</ele>
        <time>2022-08-26T18:06:17Z</time>
      </trkpt>
      <trkpt lat="45.87583" lon="6.74297">
        <ele>2153</ele>
        <time>2022-08-26T18:06:18Z</time>
      </trkpt>
      <trkpt lat="45.87584" lon="6.74295">
        <ele>2153</ele>
        <time>2022-08-26T18:06:19Z</time>
      </trkpt>
      <trkpt lat="45.87586" lon="6.7429">
        <ele>2153</ele>
        <time>2022-08-26T18:06:20Z</time>
      </trkpt>
      <trkpt lat="45.87587" lon="6.74289">
        <ele>2153</ele>
        <time>2022-08-26T18:06:21Z</time>
      </trkpt>
      <trkpt lat="45.87589" lon="6.74287">
        <ele>2153</ele>
        <time>2022-08-26T18:06:22Z</time>
      </trkpt>
      <trkpt lat="45.87591" lon="6.74283">
        <ele>2153</ele>
        <time>2022-08-26T18:06:23Z</time>
      </trkpt>
      <trkpt lat="45.87592" lon="6.74282">
        <ele>2153</ele>
        <time>2022-08-26T18:06:24Z</time>
      </trkpt>
      <trkpt lat="45.87594" lon="6.74279">
        <ele>2153</ele>
        <time>2022-08-26T18:06:25Z</time>
      </trkpt>
      <trkpt lat="45.87595" lon="6.74277">
        <ele>2153</ele>
        <time>2022-08-26T18:06:26Z</time>
      </trkpt>
      <trkpt lat="45.87598" lon="6.74274">
        <ele>2153</ele>
        <time>2022-08-26T18:06:27Z</time>
      </trkpt>
      <trkpt lat="45.87599" lon="6.74273">
        <ele>2153</ele>
        <time>2022-08-26T18:06:28Z</time>
      </trkpt>
      <trkpt lat="45.87602" lon="6.74269">
        <ele>2153</ele>
        <time>2022-08-26T18:06:29Z</time>
      </trkpt>
      <trkpt lat="45.87603" lon="6.74268">
        <ele>2153</ele>
        <time>2022-08-26T18:06:30Z</time>
      </trkpt>
      <trkpt lat="45.87604" lon="6.74266">
        <ele>2153</ele>
        <time>2022-08-26T18:06:31Z</time>
      </trkpt>
      <trkpt lat="45.87606" lon="6.74264">
        <ele>2153</ele>
        <time>2022-08-26T18:06:32Z</time>
      </trkpt>
      <trkpt lat="45.87608" lon="6.74261">
        <ele>2153</ele>
        <time>2022-08-26T18:06:33Z</time>
      </trkpt>
      <trkpt lat="45.87611" lon="6.74258">
        <ele>2153</ele>
        <time>2022-08-26T18:06:34Z</time>
      </trkpt>
      <trkpt lat="45.87612" lon="6.74257">
        <ele>2153</ele>
        <time>2022-08-26T18:06:35Z</time>
      </trkpt>
      <trkpt lat="45.87615" lon="6.74256">
        <ele>2153</ele>
        <time>2022-08-26T18:06:36Z</time>
      </trkpt>
      <trkpt lat="45.87617" lon="6.74254">
        <ele>2153</ele>
        <time>2022-08-26T18:06:37Z</time>
      </trkpt>
      <trkpt lat="45.87619" lon="6.74253">
        <ele>2153</ele>
        <time>2022-08-26T18:06:38Z</time>
      </trkpt>
      <trkpt lat="45.87622" lon="6.74251">
        <ele>2153</ele>
        <time>2022-08-26T18:06:39Z</time>
      </trkpt>
      <trkpt lat="45.87624" lon="6.7425">
        <ele>2153</ele>
        <time>2022-08-26T18:06:40Z</time>
      </trkpt>
      <trkpt lat="45.87626" lon="6.74249">
        <ele>2153</ele>
        <time>2022-08-26T18:06:41Z</time>
      </trkpt>
      <trkpt lat="45.87629" lon="6.74247">
        <ele>2153</ele>
        <time>2022-08-26T18:06:42Z</time>
      </trkpt>
      <trkpt lat="45.87631" lon="6.74246">
        <ele>2153</ele>
        <time>2022-08-26T18:06:43Z</time>
      </trkpt>
      <trkpt lat="45.87635" lon="6.74244">
        <ele>2153</ele>
        <time>2022-08-26T18:06:44Z</time>
      </trkpt>
      <trkpt lat="45.87636" lon="6.74244">
        <ele>2153</ele>
        <time>2022-08-26T18:06:45Z</time>
      </trkpt>
      <trkpt lat="45.87639" lon="6.74243">
        <ele>2153</ele>
        <time>2022-08-26T18:06:46Z</time>
      </trkpt>
      <trkpt lat="45.87641" lon="6.74242">
        <ele>2153</ele>
        <time>2022-08-26T18:06:47Z</time>
      </trkpt>
      <trkpt lat="45.87645" lon="6.7424">
        <ele>2153</ele>
        <time>2022-08-26T18:06:48Z</time>
      </trkpt>
      <trkpt lat="45.87646" lon="6.74239">
        <ele>2153</ele>
        <time>2022-08-26T18:06:49Z</time>
      </trkpt>
      <trkpt lat="45.87648" lon="6.74238">
        <ele>2153</ele>
        <time>2022-08-26T18:06:50Z</time>
      </trkpt>
      <trkpt lat="45.87651" lon="6.74237">
        <ele>2153</ele>
        <time>2022-08-26T18:06:51Z</time>
      </trkpt>
      <trkpt lat="45.87653" lon="6.74237">
        <ele>2153</ele>
        <time>2022-08-26T18:06:52Z</time>
      </trkpt>
      <trkpt lat="45.87657" lon="6.74235">
        <ele>2153</ele>
        <time>2022-08-26T18:06:53Z</time>
      </trkpt>
      <trkpt lat="45.87658" lon="6.74235">
        <ele>2153</ele>
        <time>2022-08-26T18:06:54Z</time>
      </trkpt>
      <trkpt lat="45.8766" lon="6.74234">
        <ele>2153</ele>
        <time>2022-08-26T18:06:55Z</time>
      </trkpt>
      <trkpt lat="45.87662" lon="6.74233">
        <ele>2153</ele>
        <time>2022-08-26T18:06:56Z</time>
      </trkpt>
      <trkpt lat="45.87665" lon="6.74232">
        <ele>2153</ele>
        <time>2022-08-26T18:06:57Z</time>
      </trkpt>
      <trkpt lat="45.87668" lon="6.74232">
        <ele>2153</ele>
        <time>2022-08-26T18:06:58Z</time>
      </trkpt>
      <trkpt lat="45.87669" lon="6.74231">
        <ele>2153</ele>
        <time>2022-08-26T18:06:59Z</time>
      </trkpt>
      <trkpt lat="45.87672" lon="6.74231">
        <ele>2153</ele>
        <time>2022-08-26T18:07:00Z</time>
      </trkpt>
      <trkpt lat="45.87674" lon="6.74231">
        <ele>2153</ele>
        <time>2022-08-26T18:07:01Z</time>
      </trkpt>
      <trkpt lat="45.87676" lon="6.7423">
        <ele>2153</ele>
        <time>2022-08-26T18:07:02Z</time>
      </trkpt>
      <trkpt lat="45.87679" lon="6.74229">
        <ele>2153</ele>
        <time>2022-08-26T18:07:03Z</time>
      </trkpt>
      <trkpt lat="45.8768" lon="6.74229">
        <ele>2153</ele>
        <time>2022-08-26T18:07:04Z</time>
      </trkpt>
      <trkpt lat="45.87684" lon="6.74229">
        <ele>2153</ele>
        <time>2022-08-26T18:07:05Z</time>
      </trkpt>
      <trkpt lat="45.87685" lon="6.74228">
        <ele>2154</ele>
        <time>2022-08-26T18:07:06Z</time>
      </trkpt>
      <trkpt lat="45.87688" lon="6.74227">
        <ele>2154</ele>
        <time>2022-08-26T18:07:07Z</time>
      </trkpt>
      <trkpt lat="45.87689" lon="6.74227">
        <ele>2154</ele>
        <time>2022-08-26T18:07:08Z</time>
      </trkpt>
      <trkpt lat="45.87692" lon="6.74226">
        <ele>2154</ele>
        <time>2022-08-26T18:07:09Z</time>
      </trkpt>
      <trkpt lat="45.87694" lon="6.74225">
        <ele>2154</ele>
        <time>2022-08-26T18:07:10Z</time>
      </trkpt>
      <trkpt lat="45.87696" lon="6.74224">
        <ele>2154</ele>
        <time>2022-08-26T18:07:11Z</time>
      </trkpt>
      <trkpt lat="45.87699" lon="6.74223">
        <ele>2154</ele>
        <time>2022-08-26T18:07:12Z</time>
      </trkpt>
      <trkpt lat="45.877" lon="6.74222">
        <ele>2155</ele>
        <time>2022-08-26T18:07:13Z</time>
      </trkpt>
      <trkpt lat="45.87703" lon="6.74221">
        <ele>2156</ele>
        <time>2022-08-26T18:07:14Z</time>
      </trkpt>
      <trkpt lat="45.87705" lon="6.7422">
        <ele>2156</ele>
        <time>2022-08-26T18:07:15Z</time>
      </trkpt>
      <trkpt lat="45.87707" lon="6.74218">
        <ele>2156</ele>
        <time>2022-08-26T18:07:16Z</time>
      </trkpt>
      <trkpt lat="45.87709" lon="6.74216">
        <ele>2156</ele>
        <time>2022-08-26T18:07:17Z</time>
      </trkpt>
      <trkpt lat="45.8771" lon="6.74215">
        <ele>2156</ele>
        <time>2022-08-26T18:07:18Z</time>
      </trkpt>
      <trkpt lat="45.87712" lon="6.74213">
        <ele>2156</ele>
        <time>2022-08-26T18:07:19Z</time>
      </trkpt>
      <trkpt lat="45.87714" lon="6.7421">
        <ele>2156</ele>
        <time>2022-08-26T18:07:20Z</time>
      </trkpt>
      <trkpt lat="45.87715" lon="6.74207">
        <ele>2155</ele>
        <time>2022-08-26T18:07:21Z</time>
      </trkpt>
      <trkpt lat="45.87717" lon="6.74202">
        <ele>2155</ele>
        <time>2022-08-26T18:07:22Z</time>
      </trkpt>
      <trkpt lat="45.87718" lon="6.74201">
        <ele>2155</ele>
        <time>2022-08-26T18:07:23Z</time>
      </trkpt>
      <trkpt lat="45.87718" lon="6.74198">
        <ele>2155</ele>
        <time>2022-08-26T18:07:24Z</time>
      </trkpt>
      <trkpt lat="45.87719" lon="6.74195">
        <ele>2154</ele>
        <time>2022-08-26T18:07:25Z</time>
      </trkpt>
      <trkpt lat="45.8772" lon="6.74192">
        <ele>2154</ele>
        <time>2022-08-26T18:07:26Z</time>
      </trkpt>
      <trkpt lat="45.87721" lon="6.74188">
        <ele>2155</ele>
        <time>2022-08-26T18:07:27Z</time>
      </trkpt>
      <trkpt lat="45.87722" lon="6.74185">
        <ele>2155</ele>
        <time>2022-08-26T18:07:28Z</time>
      </trkpt>
      <trkpt lat="45.87723" lon="6.74183">
        <ele>2155</ele>
        <time>2022-08-26T18:07:29Z</time>
      </trkpt>
      <trkpt lat="45.87725" lon="6.74181">
        <ele>2155</ele>
        <time>2022-08-26T18:07:30Z</time>
      </trkpt>
      <trkpt lat="45.87726" lon="6.74178">
        <ele>2155</ele>
        <time>2022-08-26T18:07:31Z</time>
      </trkpt>
      <trkpt lat="45.87728" lon="6.74177">
        <ele>2155</ele>
        <time>2022-08-26T18:07:32Z</time>
      </trkpt>
      <trkpt lat="45.87729" lon="6.74176">
        <ele>2155</ele>
        <time>2022-08-26T18:07:33Z</time>
      </trkpt>
      <trkpt lat="45.87731" lon="6.74175">
        <ele>2156</ele>
        <time>2022-08-26T18:07:34Z</time>
      </trkpt>
      <trkpt lat="45.87733" lon="6.74174">
        <ele>2156</ele>
        <time>2022-08-26T18:07:35Z</time>
      </trkpt>
      <trkpt lat="45.87735" lon="6.74174">
        <ele>2156</ele>
        <time>2022-08-26T18:07:36Z</time>
      </trkpt>
      <trkpt lat="45.87737" lon="6.74173">
        <ele>2156</ele>
        <time>2022-08-26T18:07:37Z</time>
      </trkpt>
      <trkpt lat="45.87738" lon="6.74173">
        <ele>2157</ele>
        <time>2022-08-26T18:07:38Z</time>
      </trkpt>
      <trkpt lat="45.87742" lon="6.74171">
        <ele>2157</ele>
        <time>2022-08-26T18:07:39Z</time>
      </trkpt>
      <trkpt lat="45.87743" lon="6.74171">
        <ele>2157</ele>
        <time>2022-08-26T18:07:40Z</time>
      </trkpt>
      <trkpt lat="45.87745" lon="6.7417">
        <ele>2157</ele>
        <time>2022-08-26T18:07:41Z</time>
      </trkpt>
      <trkpt lat="45.87748" lon="6.7417">
        <ele>2157</ele>
        <time>2022-08-26T18:07:42Z</time>
      </trkpt>
      <trkpt lat="45.8775" lon="6.74169">
        <ele>2157</ele>
        <time>2022-08-26T18:07:43Z</time>
      </trkpt>
      <trkpt lat="45.87753" lon="6.74169">
        <ele>2157</ele>
        <time>2022-08-26T18:07:44Z</time>
      </trkpt>
      <trkpt lat="45.87756" lon="6.74168">
        <ele>2157</ele>
        <time>2022-08-26T18:07:45Z</time>
      </trkpt>
      <trkpt lat="45.87758" lon="6.74168">
        <ele>2156</ele>
        <time>2022-08-26T18:07:46Z</time>
      </trkpt>
      <trkpt lat="45.8776" lon="6.74168">
        <ele>2156</ele>
        <time>2022-08-26T18:07:47Z</time>
      </trkpt>
      <trkpt lat="45.87764" lon="6.74169">
        <ele>2156</ele>
        <time>2022-08-26T18:07:48Z</time>
      </trkpt>
      <trkpt lat="45.87765" lon="6.74169">
        <ele>2156</ele>
        <time>2022-08-26T18:07:49Z</time>
      </trkpt>
      <trkpt lat="45.87768" lon="6.7417">
        <ele>2157</ele>
        <time>2022-08-26T18:07:50Z</time>
      </trkpt>
      <trkpt lat="45.8777" lon="6.74171">
        <ele>2157</ele>
        <time>2022-08-26T18:07:51Z</time>
      </trkpt>
      <trkpt lat="45.87772" lon="6.74172">
        <ele>2156</ele>
        <time>2022-08-26T18:07:52Z</time>
      </trkpt>
      <trkpt lat="45.87776" lon="6.74173">
        <ele>2156</ele>
        <time>2022-08-26T18:07:53Z</time>
      </trkpt>
      <trkpt lat="45.87777" lon="6.74174">
        <ele>2156</ele>
        <time>2022-08-26T18:07:54Z</time>
      </trkpt>
      <trkpt lat="45.87781" lon="6.74174">
        <ele>2156</ele>
        <time>2022-08-26T18:07:55Z</time>
      </trkpt>
      <trkpt lat="45.87782" lon="6.74175">
        <ele>2156</ele>
        <time>2022-08-26T18:07:56Z</time>
      </trkpt>
      <trkpt lat="45.87785" lon="6.74176">
        <ele>2156</ele>
        <time>2022-08-26T18:07:57Z</time>
      </trkpt>
      <trkpt lat="45.87787" lon="6.74176">
        <ele>2156</ele>
        <time>2022-08-26T18:07:58Z</time>
      </trkpt>
      <trkpt lat="45.8779" lon="6.74176">
        <ele>2156</ele>
        <time>2022-08-26T18:07:59Z</time>
      </trkpt>
      <trkpt lat="45.87793" lon="6.74176">
        <ele>2156</ele>
        <time>2022-08-26T18:08:00Z</time>
      </trkpt>
      <trkpt lat="45.87794" lon="6.74176">
        <ele>2156</ele>
        <time>2022-08-26T18:08:01Z</time>
      </trkpt>
      <trkpt lat="45.87797" lon="6.74175">
        <ele>2156</ele>
        <time>2022-08-26T18:08:02Z</time>
      </trkpt>
      <trkpt lat="45.87799" lon="6.74175">
        <ele>2156</ele>
        <time>2022-08-26T18:08:03Z</time>
      </trkpt>
      <trkpt lat="45.87801" lon="6.74175">
        <ele>2156</ele>
        <time>2022-08-26T18:08:04Z</time>
      </trkpt>
      <trkpt lat="45.87805" lon="6.74174">
        <ele>2156</ele>
        <time>2022-08-26T18:08:05Z</time>
      </trkpt>
      <trkpt lat="45.87807" lon="6.74174">
        <ele>2156</ele>
        <time>2022-08-26T18:08:06Z</time>
      </trkpt>
      <trkpt lat="45.87809" lon="6.74174">
        <ele>2156</ele>
        <time>2022-08-26T18:08:07Z</time>
      </trkpt>
      <trkpt lat="45.87813" lon="6.74173">
        <ele>2156</ele>
        <time>2022-08-26T18:08:08Z</time>
      </trkpt>
      <trkpt lat="45.87814" lon="6.74173">
        <ele>2155</ele>
        <time>2022-08-26T18:08:09Z</time>
      </trkpt>
      <trkpt lat="45.87817" lon="6.74173">
        <ele>2155</ele>
        <time>2022-08-26T18:08:10Z</time>
      </trkpt>
      <trkpt lat="45.87819" lon="6.74173">
        <ele>2155</ele>
        <time>2022-08-26T18:08:11Z</time>
      </trkpt>
      <trkpt lat="45.87821" lon="6.74172">
        <ele>2155</ele>
        <time>2022-08-26T18:08:12Z</time>
      </trkpt>
      <trkpt lat="45.87824" lon="6.74172">
        <ele>2155</ele>
        <time>2022-08-26T18:08:13Z</time>
      </trkpt>
      <trkpt lat="45.87826" lon="6.74172">
        <ele>2154</ele>
        <time>2022-08-26T18:08:14Z</time>
      </trkpt>
      <trkpt lat="45.8783" lon="6.74172">
        <ele>2154</ele>
        <time>2022-08-26T18:08:15Z</time>
      </trkpt>
      <trkpt lat="45.87831" lon="6.74172">
        <ele>2154</ele>
        <time>2022-08-26T18:08:16Z</time>
      </trkpt>
      <trkpt lat="45.87834" lon="6.74172">
        <ele>2154</ele>
        <time>2022-08-26T18:08:17Z</time>
      </trkpt>
      <trkpt lat="45.87836" lon="6.74171">
        <ele>2154</ele>
        <time>2022-08-26T18:08:18Z</time>
      </trkpt>
      <trkpt lat="45.8784" lon="6.7417">
        <ele>2154</ele>
        <time>2022-08-26T18:08:19Z</time>
      </trkpt>
      <trkpt lat="45.87841" lon="6.7417">
        <ele>2154</ele>
        <time>2022-08-26T18:08:20Z</time>
      </trkpt>
      <trkpt lat="45.87845" lon="6.74169">
        <ele>2154</ele>
        <time>2022-08-26T18:08:21Z</time>
      </trkpt>
      <trkpt lat="45.87846" lon="6.74169">
        <ele>2154</ele>
        <time>2022-08-26T18:08:22Z</time>
      </trkpt>
      <trkpt lat="45.87849" lon="6.74168">
        <ele>2154</ele>
        <time>2022-08-26T18:08:23Z</time>
      </trkpt>
      <trkpt lat="45.87851" lon="6.74168">
        <ele>2154</ele>
        <time>2022-08-26T18:08:24Z</time>
      </trkpt>
      <trkpt lat="45.87855" lon="6.74168">
        <ele>2154</ele>
        <time>2022-08-26T18:08:25Z</time>
      </trkpt>
      <trkpt lat="45.87856" lon="6.74167">
        <ele>2154</ele>
        <time>2022-08-26T18:08:26Z</time>
      </trkpt>
      <trkpt lat="45.87859" lon="6.74167">
        <ele>2154</ele>
        <time>2022-08-26T18:08:27Z</time>
      </trkpt>
      <trkpt lat="45.87861" lon="6.74167">
        <ele>2154</ele>
        <time>2022-08-26T18:08:28Z</time>
      </trkpt>
      <trkpt lat="45.87863" lon="6.74166">
        <ele>2154</ele>
        <time>2022-08-26T18:08:29Z</time>
      </trkpt>
      <trkpt lat="45.87867" lon="6.74166">
        <ele>2154</ele>
        <time>2022-08-26T18:08:30Z</time>
      </trkpt>
      <trkpt lat="45.87868" lon="6.74166">
        <ele>2153</ele>
        <time>2022-08-26T18:08:31Z</time>
      </trkpt>
      <trkpt lat="45.87871" lon="6.74166">
        <ele>2153</ele>
        <time>2022-08-26T18:08:32Z</time>
      </trkpt>
      <trkpt lat="45.87873" lon="6.74166">
        <ele>2153</ele>
        <time>2022-08-26T18:08:33Z</time>
      </trkpt>
      <trkpt lat="45.87876" lon="6.74166">
        <ele>2153</ele>
        <time>2022-08-26T18:08:34Z</time>
      </trkpt>
      <trkpt lat="45.87879" lon="6.74166">
        <ele>2153</ele>
        <time>2022-08-26T18:08:35Z</time>
      </trkpt>
      <trkpt lat="45.87881" lon="6.74166">
        <ele>2153</ele>
        <time>2022-08-26T18:08:36Z</time>
      </trkpt>
      <trkpt lat="45.87883" lon="6.74166">
        <ele>2153</ele>
        <time>2022-08-26T18:08:37Z</time>
      </trkpt>
      <trkpt lat="45.87886" lon="6.74166">
        <ele>2153</ele>
        <time>2022-08-26T18:08:38Z</time>
      </trkpt>
      <trkpt lat="45.87888" lon="6.74166">
        <ele>2152</ele>
        <time>2022-08-26T18:08:39Z</time>
      </trkpt>
      <trkpt lat="45.87891" lon="6.74165">
        <ele>2153</ele>
        <time>2022-08-26T18:08:40Z</time>
      </trkpt>
      <trkpt lat="45.87893" lon="6.74165">
        <ele>2153</ele>
        <time>2022-08-26T18:08:41Z</time>
      </trkpt>
      <trkpt lat="45.87897" lon="6.74164">
        <ele>2153</ele>
        <time>2022-08-26T18:08:42Z</time>
      </trkpt>
      <trkpt lat="45.87898" lon="6.74164">
        <ele>2153</ele>
        <time>2022-08-26T18:08:43Z</time>
      </trkpt>
      <trkpt lat="45.879" lon="6.74164">
        <ele>2153</ele>
        <time>2022-08-26T18:08:44Z</time>
      </trkpt>
      <trkpt lat="45.87904" lon="6.74162">
        <ele>2153</ele>
        <time>2022-08-26T18:08:45Z</time>
      </trkpt>
      <trkpt lat="45.87905" lon="6.74162">
        <ele>2152</ele>
        <time>2022-08-26T18:08:46Z</time>
      </trkpt>
      <trkpt lat="45.87909" lon="6.74161">
        <ele>2152</ele>
        <time>2022-08-26T18:08:47Z</time>
      </trkpt>
      <trkpt lat="45.8791" lon="6.74161">
        <ele>2152</ele>
        <time>2022-08-26T18:08:48Z</time>
      </trkpt>
      <trkpt lat="45.87913" lon="6.74161">
        <ele>2152</ele>
        <time>2022-08-26T18:08:49Z</time>
      </trkpt>
      <trkpt lat="45.87915" lon="6.7416">
        <ele>2152</ele>
        <time>2022-08-26T18:08:50Z</time>
      </trkpt>
      <trkpt lat="45.87917" lon="6.7416">
        <ele>2152</ele>
        <time>2022-08-26T18:08:51Z</time>
      </trkpt>
      <trkpt lat="45.87921" lon="6.74159">
        <ele>2152</ele>
        <time>2022-08-26T18:08:52Z</time>
      </trkpt>
      <trkpt lat="45.87922" lon="6.74158">
        <ele>2152</ele>
        <time>2022-08-26T18:08:53Z</time>
      </trkpt>
      <trkpt lat="45.87925" lon="6.74158">
        <ele>2151</ele>
        <time>2022-08-26T18:08:54Z</time>
      </trkpt>
      <trkpt lat="45.87927" lon="6.74158">
        <ele>2151</ele>
        <time>2022-08-26T18:08:55Z</time>
      </trkpt>
      <trkpt lat="45.8793" lon="6.74157">
        <ele>2150</ele>
        <time>2022-08-26T18:08:56Z</time>
      </trkpt>
      <trkpt lat="45.87932" lon="6.74156">
        <ele>2150</ele>
        <time>2022-08-26T18:08:57Z</time>
      </trkpt>
      <trkpt lat="45.87934" lon="6.74156">
        <ele>2151</ele>
        <time>2022-08-26T18:08:58Z</time>
      </trkpt>
      <trkpt lat="45.87937" lon="6.74156">
        <ele>2151</ele>
        <time>2022-08-26T18:08:59Z</time>
      </trkpt>
      <trkpt lat="45.87939" lon="6.74156">
        <ele>2151</ele>
        <time>2022-08-26T18:09:00Z</time>
      </trkpt>
      <trkpt lat="45.87942" lon="6.74155">
        <ele>2151</ele>
        <time>2022-08-26T18:09:01Z</time>
      </trkpt>
      <trkpt lat="45.87945" lon="6.74155">
        <ele>2150</ele>
        <time>2022-08-26T18:09:02Z</time>
      </trkpt>
      <trkpt lat="45.87948" lon="6.74155">
        <ele>2150</ele>
        <time>2022-08-26T18:09:03Z</time>
      </trkpt>
      <trkpt lat="45.8795" lon="6.74154">
        <ele>2150</ele>
        <time>2022-08-26T18:09:04Z</time>
      </trkpt>
      <trkpt lat="45.87952" lon="6.74154">
        <ele>2149</ele>
        <time>2022-08-26T18:09:05Z</time>
      </trkpt>
      <trkpt lat="45.87956" lon="6.74153">
        <ele>2149</ele>
        <time>2022-08-26T18:09:06Z</time>
      </trkpt>
      <trkpt lat="45.87957" lon="6.74153">
        <ele>2149</ele>
        <time>2022-08-26T18:09:07Z</time>
      </trkpt>
      <trkpt lat="45.8796" lon="6.74152">
        <ele>2149</ele>
        <time>2022-08-26T18:09:08Z</time>
      </trkpt>
      <trkpt lat="45.87962" lon="6.7415">
        <ele>2149</ele>
        <time>2022-08-26T18:09:09Z</time>
      </trkpt>
      <trkpt lat="45.87965" lon="6.74149">
        <ele>2148</ele>
        <time>2022-08-26T18:09:10Z</time>
      </trkpt>
      <trkpt lat="45.87968" lon="6.74147">
        <ele>2148</ele>
        <time>2022-08-26T18:09:11Z</time>
      </trkpt>
      <trkpt lat="45.87969" lon="6.74146">
        <ele>2148</ele>
        <time>2022-08-26T18:09:12Z</time>
      </trkpt>
      <trkpt lat="45.87972" lon="6.74145">
        <ele>2148</ele>
        <time>2022-08-26T18:09:13Z</time>
      </trkpt>
      <trkpt lat="45.87974" lon="6.74144">
        <ele>2148</ele>
        <time>2022-08-26T18:09:14Z</time>
      </trkpt>
      <trkpt lat="45.87977" lon="6.74143">
        <ele>2148</ele>
        <time>2022-08-26T18:09:15Z</time>
      </trkpt>
      <trkpt lat="45.87979" lon="6.74141">
        <ele>2148</ele>
        <time>2022-08-26T18:09:16Z</time>
      </trkpt>
      <trkpt lat="45.87982" lon="6.7414">
        <ele>2147</ele>
        <time>2022-08-26T18:09:17Z</time>
      </trkpt>
      <trkpt lat="45.87984" lon="6.74139">
        <ele>2147</ele>
        <time>2022-08-26T18:09:18Z</time>
      </trkpt>
      <trkpt lat="45.87986" lon="6.74138">
        <ele>2147</ele>
        <time>2022-08-26T18:09:19Z</time>
      </trkpt>
      <trkpt lat="45.87989" lon="6.74135">
        <ele>2147</ele>
        <time>2022-08-26T18:09:20Z</time>
      </trkpt>
      <trkpt lat="45.87991" lon="6.74135">
        <ele>2145</ele>
        <time>2022-08-26T18:09:21Z</time>
      </trkpt>
      <trkpt lat="45.87993" lon="6.74133">
        <ele>2145</ele>
        <time>2022-08-26T18:09:22Z</time>
      </trkpt>
      <trkpt lat="45.87995" lon="6.74132">
        <ele>2144</ele>
        <time>2022-08-26T18:09:23Z</time>
      </trkpt>
      <trkpt lat="45.87997" lon="6.7413">
        <ele>2144</ele>
        <time>2022-08-26T18:09:24Z</time>
      </trkpt>
      <trkpt lat="45.88" lon="6.74128">
        <ele>2144</ele>
        <time>2022-08-26T18:09:25Z</time>
      </trkpt>
      <trkpt lat="45.88001" lon="6.74127">
        <ele>2144</ele>
        <time>2022-08-26T18:09:26Z</time>
      </trkpt>
      <trkpt lat="45.88004" lon="6.74125">
        <ele>2144</ele>
        <time>2022-08-26T18:09:27Z</time>
      </trkpt>
      <trkpt lat="45.88007" lon="6.74123">
        <ele>2144</ele>
        <time>2022-08-26T18:09:28Z</time>
      </trkpt>
      <trkpt lat="45.88008" lon="6.74122">
        <ele>2142</ele>
        <time>2022-08-26T18:09:29Z</time>
      </trkpt>
      <trkpt lat="45.8801" lon="6.74121">
        <ele>2142</ele>
        <time>2022-08-26T18:09:30Z</time>
      </trkpt>
      <trkpt lat="45.88012" lon="6.7412">
        <ele>2141</ele>
        <time>2022-08-26T18:09:31Z</time>
      </trkpt>
      <trkpt lat="45.88015" lon="6.74119">
        <ele>2141</ele>
        <time>2022-08-26T18:09:32Z</time>
      </trkpt>
      <trkpt lat="45.88019" lon="6.74117">
        <ele>2141</ele>
        <time>2022-08-26T18:09:33Z</time>
      </trkpt>
      <trkpt lat="45.8802" lon="6.74117">
        <ele>2140</ele>
        <time>2022-08-26T18:09:34Z</time>
      </trkpt>
      <trkpt lat="45.88024" lon="6.74115">
        <ele>2140</ele>
        <time>2022-08-26T18:09:35Z</time>
      </trkpt>
      <trkpt lat="45.88025" lon="6.74115">
        <ele>2140</ele>
        <time>2022-08-26T18:09:36Z</time>
      </trkpt>
      <trkpt lat="45.88027" lon="6.74114">
        <ele>2138</ele>
        <time>2022-08-26T18:09:37Z</time>
      </trkpt>
      <trkpt lat="45.8803" lon="6.74114">
        <ele>2137</ele>
        <time>2022-08-26T18:09:38Z</time>
      </trkpt>
      <trkpt lat="45.88032" lon="6.74114">
        <ele>2137</ele>
        <time>2022-08-26T18:09:39Z</time>
      </trkpt>
      <trkpt lat="45.88036" lon="6.74114">
        <ele>2137</ele>
        <time>2022-08-26T18:09:40Z</time>
      </trkpt>
      <trkpt lat="45.88037" lon="6.74113">
        <ele>2137</ele>
        <time>2022-08-26T18:09:41Z</time>
      </trkpt>
      <trkpt lat="45.88039" lon="6.74113">
        <ele>2136</ele>
        <time>2022-08-26T18:09:42Z</time>
      </trkpt>
      <trkpt lat="45.88041" lon="6.74112">
        <ele>2136</ele>
        <time>2022-08-26T18:09:43Z</time>
      </trkpt>
      <trkpt lat="45.88044" lon="6.74111">
        <ele>2136</ele>
        <time>2022-08-26T18:09:44Z</time>
      </trkpt>
      <trkpt lat="45.88046" lon="6.74111">
        <ele>2136</ele>
        <time>2022-08-26T18:09:45Z</time>
      </trkpt>
      <trkpt lat="45.88048" lon="6.74111">
        <ele>2135</ele>
        <time>2022-08-26T18:09:46Z</time>
      </trkpt>
      <trkpt lat="45.88051" lon="6.7411">
        <ele>2134</ele>
        <time>2022-08-26T18:09:47Z</time>
      </trkpt>
      <trkpt lat="45.88055" lon="6.74108">
        <ele>2134</ele>
        <time>2022-08-26T18:09:48Z</time>
      </trkpt>
      <trkpt lat="45.88056" lon="6.74107">
        <ele>2133</ele>
        <time>2022-08-26T18:09:49Z</time>
      </trkpt>
      <trkpt lat="45.88058" lon="6.74105">
        <ele>2132</ele>
        <time>2022-08-26T18:09:50Z</time>
      </trkpt>
      <trkpt lat="45.88059" lon="6.74103">
        <ele>2132</ele>
        <time>2022-08-26T18:09:51Z</time>
      </trkpt>
      <trkpt lat="45.8806" lon="6.74101">
        <ele>2132</ele>
        <time>2022-08-26T18:09:52Z</time>
      </trkpt>
      <trkpt lat="45.88061" lon="6.74099">
        <ele>2132</ele>
        <time>2022-08-26T18:09:53Z</time>
      </trkpt>
      <trkpt lat="45.88063" lon="6.74097">
        <ele>2132</ele>
        <time>2022-08-26T18:09:54Z</time>
      </trkpt>
      <trkpt lat="45.88065" lon="6.74096">
        <ele>2131</ele>
        <time>2022-08-26T18:09:55Z</time>
      </trkpt>
      <trkpt lat="45.88067" lon="6.74095">
        <ele>2130</ele>
        <time>2022-08-26T18:09:56Z</time>
      </trkpt>
      <trkpt lat="45.88068" lon="6.74094">
        <ele>2129</ele>
        <time>2022-08-26T18:09:57Z</time>
      </trkpt>
      <trkpt lat="45.8807" lon="6.74093">
        <ele>2129</ele>
        <time>2022-08-26T18:09:58Z</time>
      </trkpt>
      <trkpt lat="45.88071" lon="6.74091">
        <ele>2128</ele>
        <time>2022-08-26T18:09:59Z</time>
      </trkpt>
      <trkpt lat="45.88073" lon="6.7409">
        <ele>2128</ele>
        <time>2022-08-26T18:10:00Z</time>
      </trkpt>
      <trkpt lat="45.88075" lon="6.7409">
        <ele>2127</ele>
        <time>2022-08-26T18:10:01Z</time>
      </trkpt>
      <trkpt lat="45.88077" lon="6.74089">
        <ele>2126</ele>
        <time>2022-08-26T18:10:02Z</time>
      </trkpt>
      <trkpt lat="45.88079" lon="6.74088">
        <ele>2126</ele>
        <time>2022-08-26T18:10:03Z</time>
      </trkpt>
      <trkpt lat="45.8808" lon="6.74087">
        <ele>2125</ele>
        <time>2022-08-26T18:10:04Z</time>
      </trkpt>
      <trkpt lat="45.88082" lon="6.74086">
        <ele>2125</ele>
        <time>2022-08-26T18:10:05Z</time>
      </trkpt>
      <trkpt lat="45.88084" lon="6.74085">
        <ele>2124</ele>
        <time>2022-08-26T18:10:06Z</time>
      </trkpt>
      <trkpt lat="45.88086" lon="6.74083">
        <ele>2124</ele>
        <time>2022-08-26T18:10:07Z</time>
      </trkpt>
      <trkpt lat="45.88087" lon="6.74082">
        <ele>2124</ele>
        <time>2022-08-26T18:10:08Z</time>
      </trkpt>
      <trkpt lat="45.88089" lon="6.74081">
        <ele>2123</ele>
        <time>2022-08-26T18:10:09Z</time>
      </trkpt>
      <trkpt lat="45.8809" lon="6.74079">
        <ele>2123</ele>
        <time>2022-08-26T18:10:10Z</time>
      </trkpt>
      <trkpt lat="45.88092" lon="6.74078">
        <ele>2121</ele>
        <time>2022-08-26T18:10:11Z</time>
      </trkpt>
      <trkpt lat="45.88094" lon="6.74076">
        <ele>2120</ele>
        <time>2022-08-26T18:10:12Z</time>
      </trkpt>
      <trkpt lat="45.88096" lon="6.74073">
        <ele>2120</ele>
        <time>2022-08-26T18:10:14Z</time>
      </trkpt>
      <trkpt lat="45.88098" lon="6.74069">
        <ele>2118</ele>
        <time>2022-08-26T18:10:16Z</time>
      </trkpt>
      <trkpt lat="45.881" lon="6.74067">
        <ele>2118</ele>
        <time>2022-08-26T18:10:17Z</time>
      </trkpt>
      <trkpt lat="45.88101" lon="6.74066">
        <ele>2116</ele>
        <time>2022-08-26T18:10:18Z</time>
      </trkpt>
      <trkpt lat="45.88102" lon="6.74064">
        <ele>2116</ele>
        <time>2022-08-26T18:10:19Z</time>
      </trkpt>
      <trkpt lat="45.88105" lon="6.74061">
        <ele>2115</ele>
        <time>2022-08-26T18:10:21Z</time>
      </trkpt>
      <trkpt lat="45.88107" lon="6.74058">
        <ele>2115</ele>
        <time>2022-08-26T18:10:22Z</time>
      </trkpt>
      <trkpt lat="45.88108" lon="6.74057">
        <ele>2113</ele>
        <time>2022-08-26T18:10:23Z</time>
      </trkpt>
      <trkpt lat="45.8811" lon="6.74056">
        <ele>2113</ele>
        <time>2022-08-26T18:10:24Z</time>
      </trkpt>
      <trkpt lat="45.88111" lon="6.74054">
        <ele>2113</ele>
        <time>2022-08-26T18:10:25Z</time>
      </trkpt>
      <trkpt lat="45.88113" lon="6.74052">
        <ele>2112</ele>
        <time>2022-08-26T18:10:26Z</time>
      </trkpt>
      <trkpt lat="45.88116" lon="6.7405">
        <ele>2112</ele>
        <time>2022-08-26T18:10:27Z</time>
      </trkpt>
      <trkpt lat="45.88117" lon="6.74049">
        <ele>2111</ele>
        <time>2022-08-26T18:10:28Z</time>
      </trkpt>
      <trkpt lat="45.8812" lon="6.74048">
        <ele>2111</ele>
        <time>2022-08-26T18:10:29Z</time>
      </trkpt>
      <trkpt lat="45.88122" lon="6.74047">
        <ele>2110</ele>
        <time>2022-08-26T18:10:30Z</time>
      </trkpt>
      <trkpt lat="45.88124" lon="6.74045">
        <ele>2109</ele>
        <time>2022-08-26T18:10:31Z</time>
      </trkpt>
      <trkpt lat="45.88126" lon="6.74043">
        <ele>2109</ele>
        <time>2022-08-26T18:10:32Z</time>
      </trkpt>
      <trkpt lat="45.88127" lon="6.74042">
        <ele>2109</ele>
        <time>2022-08-26T18:10:33Z</time>
      </trkpt>
      <trkpt lat="45.88129" lon="6.7404">
        <ele>2109</ele>
        <time>2022-08-26T18:10:34Z</time>
      </trkpt>
      <trkpt lat="45.8813" lon="6.74037">
        <ele>2109</ele>
        <time>2022-08-26T18:10:35Z</time>
      </trkpt>
      <trkpt lat="45.88131" lon="6.74032">
        <ele>2109</ele>
        <time>2022-08-26T18:10:36Z</time>
      </trkpt>
      <trkpt lat="45.88131" lon="6.74031">
        <ele>2107</ele>
        <time>2022-08-26T18:10:37Z</time>
      </trkpt>
      <trkpt lat="45.88132" lon="6.74028">
        <ele>2107</ele>
        <time>2022-08-26T18:10:38Z</time>
      </trkpt>
      <trkpt lat="45.88132" lon="6.74023">
        <ele>2105</ele>
        <time>2022-08-26T18:10:40Z</time>
      </trkpt>
      <trkpt lat="45.88131" lon="6.74019">
        <ele>2104</ele>
        <time>2022-08-26T18:10:42Z</time>
      </trkpt>
      <trkpt lat="45.8813" lon="6.74015">
        <ele>2102</ele>
        <time>2022-08-26T18:10:44Z</time>
      </trkpt>
      <trkpt lat="45.88128" lon="6.74012">
        <ele>2101</ele>
        <time>2022-08-26T18:10:46Z</time>
      </trkpt>
      <trkpt lat="45.88125" lon="6.74008">
        <ele>2101</ele>
        <time>2022-08-26T18:10:48Z</time>
      </trkpt>
      <trkpt lat="45.88122" lon="6.74005">
        <ele>2099</ele>
        <time>2022-08-26T18:10:50Z</time>
      </trkpt>
      <trkpt lat="45.88121" lon="6.74003">
        <ele>2099</ele>
        <time>2022-08-26T18:10:51Z</time>
      </trkpt>
      <trkpt lat="45.88119" lon="6.74001">
        <ele>2099</ele>
        <time>2022-08-26T18:10:52Z</time>
      </trkpt>
      <trkpt lat="45.88116" lon="6.73999">
        <ele>2097</ele>
        <time>2022-08-26T18:10:54Z</time>
      </trkpt>
      <trkpt lat="45.88113" lon="6.73996">
        <ele>2096</ele>
        <time>2022-08-26T18:10:56Z</time>
      </trkpt>
      <trkpt lat="45.8811" lon="6.73994">
        <ele>2096</ele>
        <time>2022-08-26T18:10:57Z</time>
      </trkpt>
      <trkpt lat="45.88109" lon="6.73993">
        <ele>2094</ele>
        <time>2022-08-26T18:10:58Z</time>
      </trkpt>
      <trkpt lat="45.88107" lon="6.73992">
        <ele>2094</ele>
        <time>2022-08-26T18:10:59Z</time>
      </trkpt>
      <trkpt lat="45.88104" lon="6.73989">
        <ele>2092</ele>
        <time>2022-08-26T18:11:01Z</time>
      </trkpt>
      <trkpt lat="45.88103" lon="6.73987">
        <ele>2092</ele>
        <time>2022-08-26T18:11:02Z</time>
      </trkpt>
      <trkpt lat="45.88101" lon="6.73986">
        <ele>2092</ele>
        <time>2022-08-26T18:11:03Z</time>
      </trkpt>
      <trkpt lat="45.88099" lon="6.73985">
        <ele>2090</ele>
        <time>2022-08-26T18:11:04Z</time>
      </trkpt>
      <trkpt lat="45.88098" lon="6.73983">
        <ele>2089</ele>
        <time>2022-08-26T18:11:05Z</time>
      </trkpt>
      <trkpt lat="45.88096" lon="6.73982">
        <ele>2089</ele>
        <time>2022-08-26T18:11:06Z</time>
      </trkpt>
      <trkpt lat="45.88094" lon="6.7398">
        <ele>2088</ele>
        <time>2022-08-26T18:11:07Z</time>
      </trkpt>
      <trkpt lat="45.88092" lon="6.73978">
        <ele>2088</ele>
        <time>2022-08-26T18:11:08Z</time>
      </trkpt>
      <trkpt lat="45.88091" lon="6.73977">
        <ele>2087</ele>
        <time>2022-08-26T18:11:09Z</time>
      </trkpt>
      <trkpt lat="45.88089" lon="6.73976">
        <ele>2087</ele>
        <time>2022-08-26T18:11:10Z</time>
      </trkpt>
      <trkpt lat="45.88087" lon="6.73974">
        <ele>2086</ele>
        <time>2022-08-26T18:11:11Z</time>
      </trkpt>
      <trkpt lat="45.88085" lon="6.73973">
        <ele>2086</ele>
        <time>2022-08-26T18:11:12Z</time>
      </trkpt>
      <trkpt lat="45.88083" lon="6.73971">
        <ele>2085</ele>
        <time>2022-08-26T18:11:13Z</time>
      </trkpt>
      <trkpt lat="45.88082" lon="6.73969">
        <ele>2084</ele>
        <time>2022-08-26T18:11:14Z</time>
      </trkpt>
      <trkpt lat="45.88079" lon="6.73967">
        <ele>2084</ele>
        <time>2022-08-26T18:11:15Z</time>
      </trkpt>
      <trkpt lat="45.88078" lon="6.73966">
        <ele>2084</ele>
        <time>2022-08-26T18:11:16Z</time>
      </trkpt>
      <trkpt lat="45.88077" lon="6.73964">
        <ele>2083</ele>
        <time>2022-08-26T18:11:17Z</time>
      </trkpt>
      <trkpt lat="45.88075" lon="6.73963">
        <ele>2082</ele>
        <time>2022-08-26T18:11:18Z</time>
      </trkpt>
      <trkpt lat="45.88073" lon="6.73962">
        <ele>2082</ele>
        <time>2022-08-26T18:11:19Z</time>
      </trkpt>
      <trkpt lat="45.88071" lon="6.7396">
        <ele>2082</ele>
        <time>2022-08-26T18:11:20Z</time>
      </trkpt>
      <trkpt lat="45.8807" lon="6.73958">
        <ele>2081</ele>
        <time>2022-08-26T18:11:21Z</time>
      </trkpt>
      <trkpt lat="45.88068" lon="6.73957">
        <ele>2081</ele>
        <time>2022-08-26T18:11:22Z</time>
      </trkpt>
      <trkpt lat="45.88067" lon="6.73955">
        <ele>2080</ele>
        <time>2022-08-26T18:11:23Z</time>
      </trkpt>
      <trkpt lat="45.88066" lon="6.73953">
        <ele>2079</ele>
        <time>2022-08-26T18:11:24Z</time>
      </trkpt>
      <trkpt lat="45.88064" lon="6.73949">
        <ele>2079</ele>
        <time>2022-08-26T18:11:25Z</time>
      </trkpt>
      <trkpt lat="45.88063" lon="6.73948">
        <ele>2078</ele>
        <time>2022-08-26T18:11:26Z</time>
      </trkpt>
      <trkpt lat="45.88062" lon="6.73946">
        <ele>2078</ele>
        <time>2022-08-26T18:11:27Z</time>
      </trkpt>
      <trkpt lat="45.88061" lon="6.73943">
        <ele>2078</ele>
        <time>2022-08-26T18:11:28Z</time>
      </trkpt>
      <trkpt lat="45.8806" lon="6.73941">
        <ele>2077</ele>
        <time>2022-08-26T18:11:29Z</time>
      </trkpt>
      <trkpt lat="45.88058" lon="6.73939">
        <ele>2076</ele>
        <time>2022-08-26T18:11:30Z</time>
      </trkpt>
      <trkpt lat="45.88057" lon="6.73937">
        <ele>2075</ele>
        <time>2022-08-26T18:11:31Z</time>
      </trkpt>
      <trkpt lat="45.88056" lon="6.73935">
        <ele>2075</ele>
        <time>2022-08-26T18:11:32Z</time>
      </trkpt>
      <trkpt lat="45.88054" lon="6.73931">
        <ele>2075</ele>
        <time>2022-08-26T18:11:33Z</time>
      </trkpt>
      <trkpt lat="45.88053" lon="6.7393">
        <ele>2074</ele>
        <time>2022-08-26T18:11:34Z</time>
      </trkpt>
      <trkpt lat="45.88052" lon="6.73927">
        <ele>2073</ele>
        <time>2022-08-26T18:11:35Z</time>
      </trkpt>
      <trkpt lat="45.88051" lon="6.73925">
        <ele>2072</ele>
        <time>2022-08-26T18:11:36Z</time>
      </trkpt>
      <trkpt lat="45.8805" lon="6.73923">
        <ele>2071</ele>
        <time>2022-08-26T18:11:37Z</time>
      </trkpt>
      <trkpt lat="45.88048" lon="6.73921">
        <ele>2071</ele>
        <time>2022-08-26T18:11:38Z</time>
      </trkpt>
      <trkpt lat="45.88047" lon="6.73919">
        <ele>2069</ele>
        <time>2022-08-26T18:11:39Z</time>
      </trkpt>
      <trkpt lat="45.88044" lon="6.73916">
        <ele>2068</ele>
        <time>2022-08-26T18:11:41Z</time>
      </trkpt>
      <trkpt lat="45.88043" lon="6.73914">
        <ele>2067</ele>
        <time>2022-08-26T18:11:42Z</time>
      </trkpt>
      <trkpt lat="45.88041" lon="6.73912">
        <ele>2067</ele>
        <time>2022-08-26T18:11:43Z</time>
      </trkpt>
      <trkpt lat="45.8804" lon="6.7391">
        <ele>2066</ele>
        <time>2022-08-26T18:11:44Z</time>
      </trkpt>
      <trkpt lat="45.88038" lon="6.73908">
        <ele>2066</ele>
        <time>2022-08-26T18:11:45Z</time>
      </trkpt>
      <trkpt lat="45.88037" lon="6.73907">
        <ele>2066</ele>
        <time>2022-08-26T18:11:46Z</time>
      </trkpt>
      <trkpt lat="45.88035" lon="6.73905">
        <ele>2064</ele>
        <time>2022-08-26T18:11:47Z</time>
      </trkpt>
      <trkpt lat="45.88034" lon="6.73904">
        <ele>2064</ele>
        <time>2022-08-26T18:11:48Z</time>
      </trkpt>
      <trkpt lat="45.88031" lon="6.73901">
        <ele>2064</ele>
        <time>2022-08-26T18:11:50Z</time>
      </trkpt>
      <trkpt lat="45.88029" lon="6.73899">
        <ele>2060</ele>
        <time>2022-08-26T18:11:52Z</time>
      </trkpt>
      <trkpt lat="45.88026" lon="6.73896">
        <ele>2059</ele>
        <time>2022-08-26T18:11:54Z</time>
      </trkpt>
      <trkpt lat="45.88025" lon="6.73895">
        <ele>2059</ele>
        <time>2022-08-26T18:11:55Z</time>
      </trkpt>
      <trkpt lat="45.88023" lon="6.73894">
        <ele>2059</ele>
        <time>2022-08-26T18:11:56Z</time>
      </trkpt>
      <trkpt lat="45.88022" lon="6.73892">
        <ele>2057</ele>
        <time>2022-08-26T18:11:57Z</time>
      </trkpt>
      <trkpt lat="45.88019" lon="6.7389">
        <ele>2056</ele>
        <time>2022-08-26T18:11:59Z</time>
      </trkpt>
      <trkpt lat="45.88016" lon="6.73887">
        <ele>2054</ele>
        <time>2022-08-26T18:12:01Z</time>
      </trkpt>
      <trkpt lat="45.88014" lon="6.73887">
        <ele>2053</ele>
        <time>2022-08-26T18:12:02Z</time>
      </trkpt>
      <trkpt lat="45.88013" lon="6.73887">
        <ele>2053</ele>
        <time>2022-08-26T18:12:03Z</time>
      </trkpt>
      <trkpt lat="45.88011" lon="6.73887">
        <ele>2052</ele>
        <time>2022-08-26T18:12:04Z</time>
      </trkpt>
      <trkpt lat="45.88008" lon="6.73887">
        <ele>2051</ele>
        <time>2022-08-26T18:12:06Z</time>
      </trkpt>
      <trkpt lat="45.88005" lon="6.73886">
        <ele>2051</ele>
        <time>2022-08-26T18:12:08Z</time>
      </trkpt>
      <trkpt lat="45.88002" lon="6.73885">
        <ele>2048</ele>
        <time>2022-08-26T18:12:10Z</time>
      </trkpt>
      <trkpt lat="45.87999" lon="6.73885">
        <ele>2047</ele>
        <time>2022-08-26T18:12:12Z</time>
      </trkpt>
      <trkpt lat="45.87996" lon="6.73884">
        <ele>2045</ele>
        <time>2022-08-26T18:12:14Z</time>
      </trkpt>
      <trkpt lat="45.87993" lon="6.73885">
        <ele>2045</ele>
        <time>2022-08-26T18:12:16Z</time>
      </trkpt>
      <trkpt lat="45.8799" lon="6.73885">
        <ele>2044</ele>
        <time>2022-08-26T18:12:18Z</time>
      </trkpt>
      <trkpt lat="45.87987" lon="6.73885">
        <ele>2043</ele>
        <time>2022-08-26T18:12:20Z</time>
      </trkpt>
      <trkpt lat="45.87984" lon="6.73885">
        <ele>2042</ele>
        <time>2022-08-26T18:12:22Z</time>
      </trkpt>
      <trkpt lat="45.87981" lon="6.73883">
        <ele>2041</ele>
        <time>2022-08-26T18:12:24Z</time>
      </trkpt>
      <trkpt lat="45.87978" lon="6.73882">
        <ele>2041</ele>
        <time>2022-08-26T18:12:26Z</time>
      </trkpt>
      <trkpt lat="45.87975" lon="6.7388">
        <ele>2040</ele>
        <time>2022-08-26T18:12:28Z</time>
      </trkpt>
      <trkpt lat="45.87972" lon="6.7388">
        <ele>2037</ele>
        <time>2022-08-26T18:12:30Z</time>
      </trkpt>
      <trkpt lat="45.87969" lon="6.73878">
        <ele>2036</ele>
        <time>2022-08-26T18:12:32Z</time>
      </trkpt>
      <trkpt lat="45.87967" lon="6.73877">
        <ele>2036</ele>
        <time>2022-08-26T18:12:33Z</time>
      </trkpt>
      <trkpt lat="45.87965" lon="6.73876">
        <ele>2034</ele>
        <time>2022-08-26T18:12:34Z</time>
      </trkpt>
      <trkpt lat="45.87963" lon="6.73875">
        <ele>2034</ele>
        <time>2022-08-26T18:12:35Z</time>
      </trkpt>
      <trkpt lat="45.8796" lon="6.73872">
        <ele>2033</ele>
        <time>2022-08-26T18:12:37Z</time>
      </trkpt>
      <trkpt lat="45.87957" lon="6.73869">
        <ele>2032</ele>
        <time>2022-08-26T18:12:39Z</time>
      </trkpt>
      <trkpt lat="45.87956" lon="6.73868">
        <ele>2031</ele>
        <time>2022-08-26T18:12:40Z</time>
      </trkpt>
      <trkpt lat="45.87954" lon="6.73866">
        <ele>2030</ele>
        <time>2022-08-26T18:12:41Z</time>
      </trkpt>
      <trkpt lat="45.87952" lon="6.73865">
        <ele>2030</ele>
        <time>2022-08-26T18:12:42Z</time>
      </trkpt>
      <trkpt lat="45.87949" lon="6.73862">
        <ele>2029</ele>
        <time>2022-08-26T18:12:44Z</time>
      </trkpt>
      <trkpt lat="45.87946" lon="6.73858">
        <ele>2029</ele>
        <time>2022-08-26T18:12:46Z</time>
      </trkpt>
      <trkpt lat="45.87944" lon="6.73856">
        <ele>2028</ele>
        <time>2022-08-26T18:12:47Z</time>
      </trkpt>
      <trkpt lat="45.87942" lon="6.73854">
        <ele>2028</ele>
        <time>2022-08-26T18:12:48Z</time>
      </trkpt>
      <trkpt lat="45.87939" lon="6.73852">
        <ele>2028</ele>
        <time>2022-08-26T18:12:49Z</time>
      </trkpt>
      <trkpt lat="45.87938" lon="6.73851">
        <ele>2026</ele>
        <time>2022-08-26T18:12:50Z</time>
      </trkpt>
      <trkpt lat="45.87936" lon="6.73849">
        <ele>2025</ele>
        <time>2022-08-26T18:12:51Z</time>
      </trkpt>
      <trkpt lat="45.87935" lon="6.73848">
        <ele>2024</ele>
        <time>2022-08-26T18:12:52Z</time>
      </trkpt>
      <trkpt lat="45.87933" lon="6.73847">
        <ele>2024</ele>
        <time>2022-08-26T18:12:53Z</time>
      </trkpt>
      <trkpt lat="45.8793" lon="6.73845">
        <ele>2022</ele>
        <time>2022-08-26T18:12:55Z</time>
      </trkpt>
      <trkpt lat="45.87928" lon="6.73844">
        <ele>2022</ele>
        <time>2022-08-26T18:12:56Z</time>
      </trkpt>
      <trkpt lat="45.87926" lon="6.73843">
        <ele>2021</ele>
        <time>2022-08-26T18:12:57Z</time>
      </trkpt>
      <trkpt lat="45.87924" lon="6.73842">
        <ele>2021</ele>
        <time>2022-08-26T18:12:58Z</time>
      </trkpt>
      <trkpt lat="45.87923" lon="6.73841">
        <ele>2020</ele>
        <time>2022-08-26T18:12:59Z</time>
      </trkpt>
      <trkpt lat="45.87921" lon="6.7384">
        <ele>2019</ele>
        <time>2022-08-26T18:13:00Z</time>
      </trkpt>
      <trkpt lat="45.87919" lon="6.7384">
        <ele>2018</ele>
        <time>2022-08-26T18:13:01Z</time>
      </trkpt>
      <trkpt lat="45.87917" lon="6.73839">
        <ele>2018</ele>
        <time>2022-08-26T18:13:02Z</time>
      </trkpt>
      <trkpt lat="45.87914" lon="6.73839">
        <ele>2018</ele>
        <time>2022-08-26T18:13:03Z</time>
      </trkpt>
      <trkpt lat="45.87912" lon="6.73838">
        <ele>2017</ele>
        <time>2022-08-26T18:13:04Z</time>
      </trkpt>
      <trkpt lat="45.8791" lon="6.73838">
        <ele>2017</ele>
        <time>2022-08-26T18:13:05Z</time>
      </trkpt>
      <trkpt lat="45.87907" lon="6.73837">
        <ele>2016</ele>
        <time>2022-08-26T18:13:06Z</time>
      </trkpt>
      <trkpt lat="45.87905" lon="6.73837">
        <ele>2015</ele>
        <time>2022-08-26T18:13:07Z</time>
      </trkpt>
      <trkpt lat="45.879" lon="6.73835">
        <ele>2015</ele>
        <time>2022-08-26T18:13:08Z</time>
      </trkpt>
      <trkpt lat="45.87898" lon="6.73834">
        <ele>2012</ele>
        <time>2022-08-26T18:13:09Z</time>
      </trkpt>
      <trkpt lat="45.87894" lon="6.73834">
        <ele>2012</ele>
        <time>2022-08-26T18:13:10Z</time>
      </trkpt>
      <trkpt lat="45.87891" lon="6.73834">
        <ele>2012</ele>
        <time>2022-08-26T18:13:11Z</time>
      </trkpt>
      <trkpt lat="45.87888" lon="6.73834">
        <ele>2012</ele>
        <time>2022-08-26T18:13:12Z</time>
      </trkpt>
      <trkpt lat="45.87884" lon="6.73835">
        <ele>2012</ele>
        <time>2022-08-26T18:13:13Z</time>
      </trkpt>
      <trkpt lat="45.87882" lon="6.73835">
        <ele>2010</ele>
        <time>2022-08-26T18:13:14Z</time>
      </trkpt>
      <trkpt lat="45.8788" lon="6.73835">
        <ele>2010</ele>
        <time>2022-08-26T18:13:15Z</time>
      </trkpt>
      <trkpt lat="45.87877" lon="6.73836">
        <ele>2010</ele>
        <time>2022-08-26T18:13:16Z</time>
      </trkpt>
      <trkpt lat="45.87875" lon="6.73836">
        <ele>2009</ele>
        <time>2022-08-26T18:13:17Z</time>
      </trkpt>
      <trkpt lat="45.87872" lon="6.73836">
        <ele>2009</ele>
        <time>2022-08-26T18:13:18Z</time>
      </trkpt>
      <trkpt lat="45.8787" lon="6.73837">
        <ele>2008</ele>
        <time>2022-08-26T18:13:19Z</time>
      </trkpt>
      <trkpt lat="45.87867" lon="6.73838">
        <ele>2008</ele>
        <time>2022-08-26T18:13:20Z</time>
      </trkpt>
      <trkpt lat="45.87864" lon="6.73838">
        <ele>2008</ele>
        <time>2022-08-26T18:13:21Z</time>
      </trkpt>
      <trkpt lat="45.87862" lon="6.73839">
        <ele>2007</ele>
        <time>2022-08-26T18:13:22Z</time>
      </trkpt>
      <trkpt lat="45.87858" lon="6.7384">
        <ele>2007</ele>
        <time>2022-08-26T18:13:23Z</time>
      </trkpt>
      <trkpt lat="45.87857" lon="6.7384">
        <ele>2007</ele>
        <time>2022-08-26T18:13:24Z</time>
      </trkpt>
      <trkpt lat="45.87853" lon="6.73841">
        <ele>2007</ele>
        <time>2022-08-26T18:13:25Z</time>
      </trkpt>
      <trkpt lat="45.87852" lon="6.73841">
        <ele>2006</ele>
        <time>2022-08-26T18:13:26Z</time>
      </trkpt>
      <trkpt lat="45.8785" lon="6.73841">
        <ele>2005</ele>
        <time>2022-08-26T18:13:27Z</time>
      </trkpt>
      <trkpt lat="45.87848" lon="6.73842">
        <ele>2004</ele>
        <time>2022-08-26T18:13:28Z</time>
      </trkpt>
      <trkpt lat="45.87845" lon="6.73843">
        <ele>2003</ele>
        <time>2022-08-26T18:13:29Z</time>
      </trkpt>
      <trkpt lat="45.87841" lon="6.73843">
        <ele>2003</ele>
        <time>2022-08-26T18:13:30Z</time>
      </trkpt>
      <trkpt lat="45.8784" lon="6.73843">
        <ele>2002</ele>
        <time>2022-08-26T18:13:31Z</time>
      </trkpt>
      <trkpt lat="45.87837" lon="6.73844">
        <ele>2001</ele>
        <time>2022-08-26T18:13:32Z</time>
      </trkpt>
      <trkpt lat="45.87833" lon="6.73845">
        <ele>2001</ele>
        <time>2022-08-26T18:13:33Z</time>
      </trkpt>
      <trkpt lat="45.87832" lon="6.73845">
        <ele>2001</ele>
        <time>2022-08-26T18:13:34Z</time>
      </trkpt>
      <trkpt lat="45.87829" lon="6.73845">
        <ele>2000</ele>
        <time>2022-08-26T18:13:35Z</time>
      </trkpt>
      <trkpt lat="45.87827" lon="6.73845">
        <ele>1999</ele>
        <time>2022-08-26T18:13:36Z</time>
      </trkpt>
      <trkpt lat="45.87825" lon="6.73845">
        <ele>1998</ele>
        <time>2022-08-26T18:13:37Z</time>
      </trkpt>
      <trkpt lat="45.87822" lon="6.73844">
        <ele>1998</ele>
        <time>2022-08-26T18:13:38Z</time>
      </trkpt>
      <trkpt lat="45.87821" lon="6.73844">
        <ele>1997</ele>
        <time>2022-08-26T18:13:39Z</time>
      </trkpt>
      <trkpt lat="45.87818" lon="6.73843">
        <ele>1997</ele>
        <time>2022-08-26T18:13:40Z</time>
      </trkpt>
      <trkpt lat="45.87815" lon="6.73842">
        <ele>1996</ele>
        <time>2022-08-26T18:13:41Z</time>
      </trkpt>
      <trkpt lat="45.87812" lon="6.7384">
        <ele>1996</ele>
        <time>2022-08-26T18:13:42Z</time>
      </trkpt>
      <trkpt lat="45.87811" lon="6.73839">
        <ele>1996</ele>
        <time>2022-08-26T18:13:43Z</time>
      </trkpt>
      <trkpt lat="45.87808" lon="6.73838">
        <ele>1995</ele>
        <time>2022-08-26T18:13:44Z</time>
      </trkpt>
      <trkpt lat="45.87806" lon="6.73837">
        <ele>1995</ele>
        <time>2022-08-26T18:13:45Z</time>
      </trkpt>
      <trkpt lat="45.87802" lon="6.73835">
        <ele>1995</ele>
        <time>2022-08-26T18:13:46Z</time>
      </trkpt>
      <trkpt lat="45.87801" lon="6.73834">
        <ele>1994</ele>
        <time>2022-08-26T18:13:47Z</time>
      </trkpt>
      <trkpt lat="45.87799" lon="6.73833">
        <ele>1993</ele>
        <time>2022-08-26T18:13:48Z</time>
      </trkpt>
      <trkpt lat="45.87796" lon="6.73832">
        <ele>1993</ele>
        <time>2022-08-26T18:13:49Z</time>
      </trkpt>
      <trkpt lat="45.87794" lon="6.73831">
        <ele>1992</ele>
        <time>2022-08-26T18:13:50Z</time>
      </trkpt>
      <trkpt lat="45.87791" lon="6.73829">
        <ele>1992</ele>
        <time>2022-08-26T18:13:51Z</time>
      </trkpt>
      <trkpt lat="45.8779" lon="6.73828">
        <ele>1990</ele>
        <time>2022-08-26T18:13:52Z</time>
      </trkpt>
      <trkpt lat="45.87788" lon="6.73826">
        <ele>1990</ele>
        <time>2022-08-26T18:13:53Z</time>
      </trkpt>
      <trkpt lat="45.87786" lon="6.73824">
        <ele>1989</ele>
        <time>2022-08-26T18:13:55Z</time>
      </trkpt>
      <trkpt lat="45.87785" lon="6.73822">
        <ele>1988</ele>
        <time>2022-08-26T18:13:56Z</time>
      </trkpt>
      <trkpt lat="45.87783" lon="6.7382">
        <ele>1988</ele>
        <time>2022-08-26T18:13:57Z</time>
      </trkpt>
      <trkpt lat="45.87782" lon="6.73818">
        <ele>1986</ele>
        <time>2022-08-26T18:13:58Z</time>
      </trkpt>
      <trkpt lat="45.87781" lon="6.73816">
        <ele>1986</ele>
        <time>2022-08-26T18:13:59Z</time>
      </trkpt>
      <trkpt lat="45.87781" lon="6.73813">
        <ele>1985</ele>
        <time>2022-08-26T18:14:00Z</time>
      </trkpt>
      <trkpt lat="45.87781" lon="6.73808">
        <ele>1985</ele>
        <time>2022-08-26T18:14:01Z</time>
      </trkpt>
      <trkpt lat="45.87781" lon="6.73806">
        <ele>1985</ele>
        <time>2022-08-26T18:14:02Z</time>
      </trkpt>
      <trkpt lat="45.87782" lon="6.73801">
        <ele>1985</ele>
        <time>2022-08-26T18:14:03Z</time>
      </trkpt>
      <trkpt lat="45.87783" lon="6.738">
        <ele>1983</ele>
        <time>2022-08-26T18:14:04Z</time>
      </trkpt>
      <trkpt lat="45.87785" lon="6.73794">
        <ele>1983</ele>
        <time>2022-08-26T18:14:05Z</time>
      </trkpt>
      <trkpt lat="45.87786" lon="6.73792">
        <ele>1982</ele>
        <time>2022-08-26T18:14:06Z</time>
      </trkpt>
      <trkpt lat="45.87787" lon="6.73788">
        <ele>1981</ele>
        <time>2022-08-26T18:14:07Z</time>
      </trkpt>
      <trkpt lat="45.87789" lon="6.73784">
        <ele>1981</ele>
        <time>2022-08-26T18:14:08Z</time>
      </trkpt>
      <trkpt lat="45.87789" lon="6.73783">
        <ele>1980</ele>
        <time>2022-08-26T18:14:09Z</time>
      </trkpt>
      <trkpt lat="45.87791" lon="6.7378">
        <ele>1979</ele>
        <time>2022-08-26T18:14:10Z</time>
      </trkpt>
      <trkpt lat="45.87792" lon="6.73778">
        <ele>1978</ele>
        <time>2022-08-26T18:14:11Z</time>
      </trkpt>
      <trkpt lat="45.87794" lon="6.73775">
        <ele>1977</ele>
        <time>2022-08-26T18:14:12Z</time>
      </trkpt>
      <trkpt lat="45.87796" lon="6.73771">
        <ele>1977</ele>
        <time>2022-08-26T18:14:13Z</time>
      </trkpt>
      <trkpt lat="45.87797" lon="6.7377">
        <ele>1976</ele>
        <time>2022-08-26T18:14:14Z</time>
      </trkpt>
      <trkpt lat="45.878" lon="6.73765">
        <ele>1976</ele>
        <time>2022-08-26T18:14:15Z</time>
      </trkpt>
      <trkpt lat="45.87801" lon="6.73764">
        <ele>1975</ele>
        <time>2022-08-26T18:14:16Z</time>
      </trkpt>
      <trkpt lat="45.87802" lon="6.7376">
        <ele>1975</ele>
        <time>2022-08-26T18:14:17Z</time>
      </trkpt>
      <trkpt lat="45.87803" lon="6.73757">
        <ele>1974</ele>
        <time>2022-08-26T18:14:18Z</time>
      </trkpt>
      <trkpt lat="45.87805" lon="6.73754">
        <ele>1973</ele>
        <time>2022-08-26T18:14:19Z</time>
      </trkpt>
      <trkpt lat="45.87806" lon="6.73749">
        <ele>1973</ele>
        <time>2022-08-26T18:14:20Z</time>
      </trkpt>
      <trkpt lat="45.87807" lon="6.73747">
        <ele>1972</ele>
        <time>2022-08-26T18:14:21Z</time>
      </trkpt>
      <trkpt lat="45.87808" lon="6.73745">
        <ele>1972</ele>
        <time>2022-08-26T18:14:22Z</time>
      </trkpt>
      <trkpt lat="45.87809" lon="6.73742">
        <ele>1970</ele>
        <time>2022-08-26T18:14:24Z</time>
      </trkpt>
      <trkpt lat="45.8781" lon="6.73739">
        <ele>1969</ele>
        <time>2022-08-26T18:14:25Z</time>
      </trkpt>
      <trkpt lat="45.87811" lon="6.73737">
        <ele>1969</ele>
        <time>2022-08-26T18:14:26Z</time>
      </trkpt>
      <trkpt lat="45.87814" lon="6.73734">
        <ele>1969</ele>
        <time>2022-08-26T18:14:27Z</time>
      </trkpt>
      <trkpt lat="45.87816" lon="6.7373">
        <ele>1967</ele>
        <time>2022-08-26T18:14:29Z</time>
      </trkpt>
      <trkpt lat="45.87817" lon="6.73726">
        <ele>1966</ele>
        <time>2022-08-26T18:14:30Z</time>
      </trkpt>
      <trkpt lat="45.87819" lon="6.73722">
        <ele>1965</ele>
        <time>2022-08-26T18:14:31Z</time>
      </trkpt>
      <trkpt lat="45.8782" lon="6.73718">
        <ele>1965</ele>
        <time>2022-08-26T18:14:32Z</time>
      </trkpt>
      <trkpt lat="45.87821" lon="6.73716">
        <ele>1965</ele>
        <time>2022-08-26T18:14:33Z</time>
      </trkpt>
      <trkpt lat="45.87822" lon="6.73713">
        <ele>1964</ele>
        <time>2022-08-26T18:14:34Z</time>
      </trkpt>
      <trkpt lat="45.87822" lon="6.7371">
        <ele>1963</ele>
        <time>2022-08-26T18:14:35Z</time>
      </trkpt>
      <trkpt lat="45.87823" lon="6.73707">
        <ele>1963</ele>
        <time>2022-08-26T18:14:36Z</time>
      </trkpt>
      <trkpt lat="45.87824" lon="6.73704">
        <ele>1963</ele>
        <time>2022-08-26T18:14:37Z</time>
      </trkpt>
      <trkpt lat="45.87825" lon="6.73701">
        <ele>1962</ele>
        <time>2022-08-26T18:14:38Z</time>
      </trkpt>
      <trkpt lat="45.87826" lon="6.73697">
        <ele>1962</ele>
        <time>2022-08-26T18:14:39Z</time>
      </trkpt>
      <trkpt lat="45.87826" lon="6.73695">
        <ele>1960</ele>
        <time>2022-08-26T18:14:40Z</time>
      </trkpt>
      <trkpt lat="45.87828" lon="6.7369">
        <ele>1960</ele>
        <time>2022-08-26T18:14:41Z</time>
      </trkpt>
      <trkpt lat="45.87829" lon="6.73689">
        <ele>1957</ele>
        <time>2022-08-26T18:14:42Z</time>
      </trkpt>
      <trkpt lat="45.8783" lon="6.73686">
        <ele>1957</ele>
        <time>2022-08-26T18:14:43Z</time>
      </trkpt>
      <trkpt lat="45.87832" lon="6.73684">
        <ele>1956</ele>
        <time>2022-08-26T18:14:44Z</time>
      </trkpt>
      <trkpt lat="45.87833" lon="6.73681">
        <ele>1956</ele>
        <time>2022-08-26T18:14:45Z</time>
      </trkpt>
      <trkpt lat="45.87835" lon="6.73678">
        <ele>1956</ele>
        <time>2022-08-26T18:14:46Z</time>
      </trkpt>
      <trkpt lat="45.87836" lon="6.73677">
        <ele>1955</ele>
        <time>2022-08-26T18:14:47Z</time>
      </trkpt>
      <trkpt lat="45.87839" lon="6.73675">
        <ele>1954</ele>
        <time>2022-08-26T18:14:48Z</time>
      </trkpt>
      <trkpt lat="45.8784" lon="6.73673">
        <ele>1954</ele>
        <time>2022-08-26T18:14:49Z</time>
      </trkpt>
      <trkpt lat="45.87842" lon="6.73671">
        <ele>1953</ele>
        <time>2022-08-26T18:14:50Z</time>
      </trkpt>
      <trkpt lat="45.87844" lon="6.73669">
        <ele>1952</ele>
        <time>2022-08-26T18:14:51Z</time>
      </trkpt>
      <trkpt lat="45.87845" lon="6.73667">
        <ele>1951</ele>
        <time>2022-08-26T18:14:52Z</time>
      </trkpt>
      <trkpt lat="45.87848" lon="6.73663">
        <ele>1951</ele>
        <time>2022-08-26T18:14:53Z</time>
      </trkpt>
      <trkpt lat="45.87849" lon="6.73662">
        <ele>1950</ele>
        <time>2022-08-26T18:14:54Z</time>
      </trkpt>
      <trkpt lat="45.8785" lon="6.73659">
        <ele>1949</ele>
        <time>2022-08-26T18:14:55Z</time>
      </trkpt>
      <trkpt lat="45.87852" lon="6.73656">
        <ele>1948</ele>
        <time>2022-08-26T18:14:56Z</time>
      </trkpt>
      <trkpt lat="45.87853" lon="6.73654">
        <ele>1947</ele>
        <time>2022-08-26T18:14:57Z</time>
      </trkpt>
      <trkpt lat="45.87855" lon="6.73651">
        <ele>1947</ele>
        <time>2022-08-26T18:14:58Z</time>
      </trkpt>
      <trkpt lat="45.87857" lon="6.73645">
        <ele>1945</ele>
        <time>2022-08-26T18:15:00Z</time>
      </trkpt>
      <trkpt lat="45.87859" lon="6.73642">
        <ele>1944</ele>
        <time>2022-08-26T18:15:01Z</time>
      </trkpt>
      <trkpt lat="45.87861" lon="6.73639">
        <ele>1944</ele>
        <time>2022-08-26T18:15:02Z</time>
      </trkpt>
      <trkpt lat="45.87863" lon="6.73636">
        <ele>1944</ele>
        <time>2022-08-26T18:15:03Z</time>
      </trkpt>
      <trkpt lat="45.87864" lon="6.73634">
        <ele>1943</ele>
        <time>2022-08-26T18:15:04Z</time>
      </trkpt>
      <trkpt lat="45.87866" lon="6.73631">
        <ele>1942</ele>
        <time>2022-08-26T18:15:05Z</time>
      </trkpt>
      <trkpt lat="45.87868" lon="6.73628">
        <ele>1942</ele>
        <time>2022-08-26T18:15:06Z</time>
      </trkpt>
      <trkpt lat="45.87869" lon="6.73626">
        <ele>1941</ele>
        <time>2022-08-26T18:15:07Z</time>
      </trkpt>
      <trkpt lat="45.87871" lon="6.73624">
        <ele>1941</ele>
        <time>2022-08-26T18:15:08Z</time>
      </trkpt>
      <trkpt lat="45.87873" lon="6.73621">
        <ele>1940</ele>
        <time>2022-08-26T18:15:09Z</time>
      </trkpt>
      <trkpt lat="45.87875" lon="6.73619">
        <ele>1940</ele>
        <time>2022-08-26T18:15:10Z</time>
      </trkpt>
      <trkpt lat="45.87877" lon="6.73615">
        <ele>1940</ele>
        <time>2022-08-26T18:15:11Z</time>
      </trkpt>
      <trkpt lat="45.87878" lon="6.73613">
        <ele>1939</ele>
        <time>2022-08-26T18:15:12Z</time>
      </trkpt>
      <trkpt lat="45.8788" lon="6.73611">
        <ele>1939</ele>
        <time>2022-08-26T18:15:13Z</time>
      </trkpt>
      <trkpt lat="45.87882" lon="6.73608">
        <ele>1939</ele>
        <time>2022-08-26T18:15:14Z</time>
      </trkpt>
      <trkpt lat="45.87884" lon="6.73605">
        <ele>1938</ele>
        <time>2022-08-26T18:15:15Z</time>
      </trkpt>
      <trkpt lat="45.87886" lon="6.73602">
        <ele>1938</ele>
        <time>2022-08-26T18:15:16Z</time>
      </trkpt>
      <trkpt lat="45.87887" lon="6.736">
        <ele>1938</ele>
        <time>2022-08-26T18:15:17Z</time>
      </trkpt>
      <trkpt lat="45.87889" lon="6.73597">
        <ele>1937</ele>
        <time>2022-08-26T18:15:18Z</time>
      </trkpt>
      <trkpt lat="45.87891" lon="6.73595">
        <ele>1936</ele>
        <time>2022-08-26T18:15:19Z</time>
      </trkpt>
      <trkpt lat="45.87893" lon="6.73592">
        <ele>1935</ele>
        <time>2022-08-26T18:15:20Z</time>
      </trkpt>
      <trkpt lat="45.87894" lon="6.73589">
        <ele>1935</ele>
        <time>2022-08-26T18:15:21Z</time>
      </trkpt>
      <trkpt lat="45.87896" lon="6.73587">
        <ele>1935</ele>
        <time>2022-08-26T18:15:22Z</time>
      </trkpt>
      <trkpt lat="45.87899" lon="6.73583">
        <ele>1935</ele>
        <time>2022-08-26T18:15:23Z</time>
      </trkpt>
      <trkpt lat="45.87899" lon="6.73582">
        <ele>1934</ele>
        <time>2022-08-26T18:15:24Z</time>
      </trkpt>
      <trkpt lat="45.87902" lon="6.73578">
        <ele>1934</ele>
        <time>2022-08-26T18:15:25Z</time>
      </trkpt>
      <trkpt lat="45.87903" lon="6.73577">
        <ele>1933</ele>
        <time>2022-08-26T18:15:26Z</time>
      </trkpt>
      <trkpt lat="45.87904" lon="6.73574">
        <ele>1933</ele>
        <time>2022-08-26T18:15:27Z</time>
      </trkpt>
      <trkpt lat="45.87905" lon="6.73571">
        <ele>1932</ele>
        <time>2022-08-26T18:15:28Z</time>
      </trkpt>
      <trkpt lat="45.87907" lon="6.73569">
        <ele>1932</ele>
        <time>2022-08-26T18:15:29Z</time>
      </trkpt>
      <trkpt lat="45.87909" lon="6.73564">
        <ele>1932</ele>
        <time>2022-08-26T18:15:30Z</time>
      </trkpt>
      <trkpt lat="45.87909" lon="6.73563">
        <ele>1931</ele>
        <time>2022-08-26T18:15:31Z</time>
      </trkpt>
      <trkpt lat="45.87911" lon="6.7356">
        <ele>1930</ele>
        <time>2022-08-26T18:15:32Z</time>
      </trkpt>
      <trkpt lat="45.87912" lon="6.73557">
        <ele>1929</ele>
        <time>2022-08-26T18:15:33Z</time>
      </trkpt>
      <trkpt lat="45.87913" lon="6.73554">
        <ele>1929</ele>
        <time>2022-08-26T18:15:34Z</time>
      </trkpt>
      <trkpt lat="45.87914" lon="6.73552">
        <ele>1929</ele>
        <time>2022-08-26T18:15:35Z</time>
      </trkpt>
      <trkpt lat="45.87916" lon="6.73549">
        <ele>1929</ele>
        <time>2022-08-26T18:15:36Z</time>
      </trkpt>
      <trkpt lat="45.87917" lon="6.73547">
        <ele>1928</ele>
        <time>2022-08-26T18:15:37Z</time>
      </trkpt>
      <trkpt lat="45.87919" lon="6.73545">
        <ele>1927</ele>
        <time>2022-08-26T18:15:38Z</time>
      </trkpt>
      <trkpt lat="45.87921" lon="6.73542">
        <ele>1927</ele>
        <time>2022-08-26T18:15:39Z</time>
      </trkpt>
      <trkpt lat="45.87922" lon="6.73541">
        <ele>1927</ele>
        <time>2022-08-26T18:15:40Z</time>
      </trkpt>
      <trkpt lat="45.87924" lon="6.73539">
        <ele>1926</ele>
        <time>2022-08-26T18:15:41Z</time>
      </trkpt>
      <trkpt lat="45.87926" lon="6.73538">
        <ele>1926</ele>
        <time>2022-08-26T18:15:42Z</time>
      </trkpt>
      <trkpt lat="45.87929" lon="6.73536">
        <ele>1926</ele>
        <time>2022-08-26T18:15:43Z</time>
      </trkpt>
      <trkpt lat="45.87931" lon="6.73535">
        <ele>1925</ele>
        <time>2022-08-26T18:15:44Z</time>
      </trkpt>
      <trkpt lat="45.87933" lon="6.73534">
        <ele>1925</ele>
        <time>2022-08-26T18:15:45Z</time>
      </trkpt>
      <trkpt lat="45.87936" lon="6.73533">
        <ele>1924</ele>
        <time>2022-08-26T18:15:46Z</time>
      </trkpt>
      <trkpt lat="45.87938" lon="6.73531">
        <ele>1924</ele>
        <time>2022-08-26T18:15:47Z</time>
      </trkpt>
      <trkpt lat="45.8794" lon="6.7353">
        <ele>1924</ele>
        <time>2022-08-26T18:15:48Z</time>
      </trkpt>
      <trkpt lat="45.87942" lon="6.73528">
        <ele>1924</ele>
        <time>2022-08-26T18:15:49Z</time>
      </trkpt>
      <trkpt lat="45.87944" lon="6.73526">
        <ele>1924</ele>
        <time>2022-08-26T18:15:50Z</time>
      </trkpt>
      <trkpt lat="45.87947" lon="6.73525">
        <ele>1923</ele>
        <time>2022-08-26T18:15:51Z</time>
      </trkpt>
      <trkpt lat="45.87949" lon="6.73524">
        <ele>1922</ele>
        <time>2022-08-26T18:15:52Z</time>
      </trkpt>
      <trkpt lat="45.87952" lon="6.73521">
        <ele>1922</ele>
        <time>2022-08-26T18:15:53Z</time>
      </trkpt>
      <trkpt lat="45.87953" lon="6.7352">
        <ele>1922</ele>
        <time>2022-08-26T18:15:54Z</time>
      </trkpt>
      <trkpt lat="45.87956" lon="6.73518">
        <ele>1922</ele>
        <time>2022-08-26T18:15:55Z</time>
      </trkpt>
      <trkpt lat="45.87958" lon="6.73517">
        <ele>1921</ele>
        <time>2022-08-26T18:15:56Z</time>
      </trkpt>
      <trkpt lat="45.8796" lon="6.73515">
        <ele>1920</ele>
        <time>2022-08-26T18:15:57Z</time>
      </trkpt>
      <trkpt lat="45.87962" lon="6.73513">
        <ele>1918</ele>
        <time>2022-08-26T18:15:58Z</time>
      </trkpt>
      <trkpt lat="45.87964" lon="6.73511">
        <ele>1918</ele>
        <time>2022-08-26T18:15:59Z</time>
      </trkpt>
      <trkpt lat="45.87965" lon="6.7351">
        <ele>1918</ele>
        <time>2022-08-26T18:16:00Z</time>
      </trkpt>
      <trkpt lat="45.87967" lon="6.73508">
        <ele>1918</ele>
        <time>2022-08-26T18:16:01Z</time>
      </trkpt>
      <trkpt lat="45.8797" lon="6.73506">
        <ele>1918</ele>
        <time>2022-08-26T18:16:02Z</time>
      </trkpt>
      <trkpt lat="45.87971" lon="6.73505">
        <ele>1917</ele>
        <time>2022-08-26T18:16:03Z</time>
      </trkpt>
      <trkpt lat="45.87973" lon="6.73503">
        <ele>1916</ele>
        <time>2022-08-26T18:16:04Z</time>
      </trkpt>
      <trkpt lat="45.87975" lon="6.73502">
        <ele>1915</ele>
        <time>2022-08-26T18:16:05Z</time>
      </trkpt>
      <trkpt lat="45.87977" lon="6.735">
        <ele>1915</ele>
        <time>2022-08-26T18:16:06Z</time>
      </trkpt>
      <trkpt lat="45.8798" lon="6.73497">
        <ele>1915</ele>
        <time>2022-08-26T18:16:07Z</time>
      </trkpt>
      <trkpt lat="45.87981" lon="6.73496">
        <ele>1913</ele>
        <time>2022-08-26T18:16:08Z</time>
      </trkpt>
      <trkpt lat="45.87983" lon="6.73495">
        <ele>1913</ele>
        <time>2022-08-26T18:16:09Z</time>
      </trkpt>
      <trkpt lat="45.87985" lon="6.73493">
        <ele>1912</ele>
        <time>2022-08-26T18:16:10Z</time>
      </trkpt>
      <trkpt lat="45.87988" lon="6.73492">
        <ele>1911</ele>
        <time>2022-08-26T18:16:11Z</time>
      </trkpt>
      <trkpt lat="45.87991" lon="6.73489">
        <ele>1911</ele>
        <time>2022-08-26T18:16:12Z</time>
      </trkpt>
      <trkpt lat="45.87992" lon="6.73488">
        <ele>1910</ele>
        <time>2022-08-26T18:16:13Z</time>
      </trkpt>
      <trkpt lat="45.87995" lon="6.73486">
        <ele>1910</ele>
        <time>2022-08-26T18:16:14Z</time>
      </trkpt>
      <trkpt lat="45.87996" lon="6.73485">
        <ele>1909</ele>
        <time>2022-08-26T18:16:15Z</time>
      </trkpt>
      <trkpt lat="45.87998" lon="6.73483">
        <ele>1907</ele>
        <time>2022-08-26T18:16:16Z</time>
      </trkpt>
      <trkpt lat="45.88" lon="6.73481">
        <ele>1906</ele>
        <time>2022-08-26T18:16:17Z</time>
      </trkpt>
      <trkpt lat="45.88002" lon="6.73479">
        <ele>1906</ele>
        <time>2022-08-26T18:16:18Z</time>
      </trkpt>
      <trkpt lat="45.88003" lon="6.73478">
        <ele>1906</ele>
        <time>2022-08-26T18:16:19Z</time>
      </trkpt>
      <trkpt lat="45.88005" lon="6.73477">
        <ele>1905</ele>
        <time>2022-08-26T18:16:20Z</time>
      </trkpt>
      <trkpt lat="45.88009" lon="6.73474">
        <ele>1905</ele>
        <time>2022-08-26T18:16:21Z</time>
      </trkpt>
      <trkpt lat="45.8801" lon="6.73473">
        <ele>1905</ele>
        <time>2022-08-26T18:16:22Z</time>
      </trkpt>
      <trkpt lat="45.88011" lon="6.73472">
        <ele>1904</ele>
        <time>2022-08-26T18:16:23Z</time>
      </trkpt>
      <trkpt lat="45.88013" lon="6.73471">
        <ele>1903</ele>
        <time>2022-08-26T18:16:24Z</time>
      </trkpt>
      <trkpt lat="45.88016" lon="6.7347">
        <ele>1902</ele>
        <time>2022-08-26T18:16:25Z</time>
      </trkpt>
      <trkpt lat="45.88019" lon="6.73469">
        <ele>1902</ele>
        <time>2022-08-26T18:16:26Z</time>
      </trkpt>
      <trkpt lat="45.88021" lon="6.73468">
        <ele>1901</ele>
        <time>2022-08-26T18:16:27Z</time>
      </trkpt>
      <trkpt lat="45.88023" lon="6.73469">
        <ele>1901</ele>
        <time>2022-08-26T18:16:28Z</time>
      </trkpt>
      <trkpt lat="45.88026" lon="6.73468">
        <ele>1900</ele>
        <time>2022-08-26T18:16:29Z</time>
      </trkpt>
      <trkpt lat="45.88028" lon="6.73468">
        <ele>1900</ele>
        <time>2022-08-26T18:16:30Z</time>
      </trkpt>
      <trkpt lat="45.88032" lon="6.73468">
        <ele>1900</ele>
        <time>2022-08-26T18:16:31Z</time>
      </trkpt>
      <trkpt lat="45.88033" lon="6.73468">
        <ele>1899</ele>
        <time>2022-08-26T18:16:32Z</time>
      </trkpt>
      <trkpt lat="45.88037" lon="6.73468">
        <ele>1899</ele>
        <time>2022-08-26T18:16:33Z</time>
      </trkpt>
      <trkpt lat="45.88039" lon="6.73467">
        <ele>1898</ele>
        <time>2022-08-26T18:16:34Z</time>
      </trkpt>
      <trkpt lat="45.88041" lon="6.73467">
        <ele>1897</ele>
        <time>2022-08-26T18:16:35Z</time>
      </trkpt>
      <trkpt lat="45.88043" lon="6.73467">
        <ele>1897</ele>
        <time>2022-08-26T18:16:36Z</time>
      </trkpt>
      <trkpt lat="45.88047" lon="6.73466">
        <ele>1897</ele>
        <time>2022-08-26T18:16:37Z</time>
      </trkpt>
      <trkpt lat="45.88048" lon="6.73466">
        <ele>1895</ele>
        <time>2022-08-26T18:16:38Z</time>
      </trkpt>
      <trkpt lat="45.88051" lon="6.73465">
        <ele>1895</ele>
        <time>2022-08-26T18:16:39Z</time>
      </trkpt>
      <trkpt lat="45.88053" lon="6.73465">
        <ele>1895</ele>
        <time>2022-08-26T18:16:40Z</time>
      </trkpt>
      <trkpt lat="45.88055" lon="6.73464">
        <ele>1894</ele>
        <time>2022-08-26T18:16:41Z</time>
      </trkpt>
      <trkpt lat="45.88057" lon="6.73464">
        <ele>1894</ele>
        <time>2022-08-26T18:16:42Z</time>
      </trkpt>
      <trkpt lat="45.8806" lon="6.73461">
        <ele>1893</ele>
        <time>2022-08-26T18:16:44Z</time>
      </trkpt>
      <trkpt lat="45.88062" lon="6.73459">
        <ele>1893</ele>
        <time>2022-08-26T18:16:45Z</time>
      </trkpt>
      <trkpt lat="45.88063" lon="6.73458">
        <ele>1892</ele>
        <time>2022-08-26T18:16:46Z</time>
      </trkpt>
      <trkpt lat="45.88065" lon="6.73457">
        <ele>1892</ele>
        <time>2022-08-26T18:16:47Z</time>
      </trkpt>
      <trkpt lat="45.88067" lon="6.73456">
        <ele>1891</ele>
        <time>2022-08-26T18:16:48Z</time>
      </trkpt>
      <trkpt lat="45.88069" lon="6.73454">
        <ele>1890</ele>
        <time>2022-08-26T18:16:49Z</time>
      </trkpt>
      <trkpt lat="45.88071" lon="6.73453">
        <ele>1890</ele>
        <time>2022-08-26T18:16:50Z</time>
      </trkpt>
      <trkpt lat="45.88072" lon="6.73451">
        <ele>1888</ele>
        <time>2022-08-26T18:16:51Z</time>
      </trkpt>
      <trkpt lat="45.88075" lon="6.73449">
        <ele>1888</ele>
        <time>2022-08-26T18:16:52Z</time>
      </trkpt>
      <trkpt lat="45.88075" lon="6.73448">
        <ele>1888</ele>
        <time>2022-08-26T18:16:53Z</time>
      </trkpt>
      <trkpt lat="45.88077" lon="6.73446">
        <ele>1887</ele>
        <time>2022-08-26T18:16:54Z</time>
      </trkpt>
      <trkpt lat="45.88078" lon="6.73445">
        <ele>1886</ele>
        <time>2022-08-26T18:16:55Z</time>
      </trkpt>
      <trkpt lat="45.8808" lon="6.73443">
        <ele>1886</ele>
        <time>2022-08-26T18:16:56Z</time>
      </trkpt>
      <trkpt lat="45.88082" lon="6.73441">
        <ele>1884</ele>
        <time>2022-08-26T18:16:57Z</time>
      </trkpt>
      <trkpt lat="45.88083" lon="6.7344">
        <ele>1882</ele>
        <time>2022-08-26T18:16:58Z</time>
      </trkpt>
      <trkpt lat="45.88085" lon="6.73438">
        <ele>1882</ele>
        <time>2022-08-26T18:16:59Z</time>
      </trkpt>
      <trkpt lat="45.88087" lon="6.73437">
        <ele>1881</ele>
        <time>2022-08-26T18:17:00Z</time>
      </trkpt>
      <trkpt lat="45.8809" lon="6.73435">
        <ele>1880</ele>
        <time>2022-08-26T18:17:02Z</time>
      </trkpt>
      <trkpt lat="45.88092" lon="6.73434">
        <ele>1879</ele>
        <time>2022-08-26T18:17:03Z</time>
      </trkpt>
      <trkpt lat="45.88093" lon="6.73433">
        <ele>1878</ele>
        <time>2022-08-26T18:17:04Z</time>
      </trkpt>
      <trkpt lat="45.88095" lon="6.73432">
        <ele>1877</ele>
        <time>2022-08-26T18:17:05Z</time>
      </trkpt>
      <trkpt lat="45.88097" lon="6.73431">
        <ele>1877</ele>
        <time>2022-08-26T18:17:06Z</time>
      </trkpt>
      <trkpt lat="45.88099" lon="6.73429">
        <ele>1876</ele>
        <time>2022-08-26T18:17:07Z</time>
      </trkpt>
      <trkpt lat="45.881" lon="6.73427">
        <ele>1875</ele>
        <time>2022-08-26T18:17:08Z</time>
      </trkpt>
      <trkpt lat="45.88101" lon="6.73425">
        <ele>1874</ele>
        <time>2022-08-26T18:17:09Z</time>
      </trkpt>
      <trkpt lat="45.88103" lon="6.73423">
        <ele>1874</ele>
        <time>2022-08-26T18:17:10Z</time>
      </trkpt>
      <trkpt lat="45.88104" lon="6.73421">
        <ele>1874</ele>
        <time>2022-08-26T18:17:11Z</time>
      </trkpt>
      <trkpt lat="45.88105" lon="6.73419">
        <ele>1873</ele>
        <time>2022-08-26T18:17:12Z</time>
      </trkpt>
      <trkpt lat="45.88107" lon="6.73415">
        <ele>1873</ele>
        <time>2022-08-26T18:17:13Z</time>
      </trkpt>
      <trkpt lat="45.88107" lon="6.73414">
        <ele>1871</ele>
        <time>2022-08-26T18:17:14Z</time>
      </trkpt>
      <trkpt lat="45.88108" lon="6.73411">
        <ele>1871</ele>
        <time>2022-08-26T18:17:15Z</time>
      </trkpt>
      <trkpt lat="45.88108" lon="6.73408">
        <ele>1871</ele>
        <time>2022-08-26T18:17:16Z</time>
      </trkpt>
      <trkpt lat="45.88107" lon="6.73404">
        <ele>1870</ele>
        <time>2022-08-26T18:17:17Z</time>
      </trkpt>
      <trkpt lat="45.88107" lon="6.73401">
        <ele>1870</ele>
        <time>2022-08-26T18:17:18Z</time>
      </trkpt>
      <trkpt lat="45.88107" lon="6.73398">
        <ele>1869</ele>
        <time>2022-08-26T18:17:19Z</time>
      </trkpt>
      <trkpt lat="45.88106" lon="6.73393">
        <ele>1867</ele>
        <time>2022-08-26T18:17:21Z</time>
      </trkpt>
      <trkpt lat="45.88106" lon="6.7339">
        <ele>1867</ele>
        <time>2022-08-26T18:17:23Z</time>
      </trkpt>
      <trkpt lat="45.88106" lon="6.73386">
        <ele>1865</ele>
        <time>2022-08-26T18:17:25Z</time>
      </trkpt>
      <trkpt lat="45.88105" lon="6.73381">
        <ele>1864</ele>
        <time>2022-08-26T18:17:27Z</time>
      </trkpt>
      <trkpt lat="45.88105" lon="6.73378">
        <ele>1863</ele>
        <time>2022-08-26T18:17:28Z</time>
      </trkpt>
      <trkpt lat="45.88105" lon="6.73375">
        <ele>1862</ele>
        <time>2022-08-26T18:17:29Z</time>
      </trkpt>
      <trkpt lat="45.88105" lon="6.73371">
        <ele>1862</ele>
        <time>2022-08-26T18:17:30Z</time>
      </trkpt>
      <trkpt lat="45.88105" lon="6.73369">
        <ele>1862</ele>
        <time>2022-08-26T18:17:31Z</time>
      </trkpt>
      <trkpt lat="45.88105" lon="6.73366">
        <ele>1861</ele>
        <time>2022-08-26T18:17:32Z</time>
      </trkpt>
      <trkpt lat="45.88106" lon="6.73361">
        <ele>1861</ele>
        <time>2022-08-26T18:17:33Z</time>
      </trkpt>
      <trkpt lat="45.88106" lon="6.7336">
        <ele>1860</ele>
        <time>2022-08-26T18:17:34Z</time>
      </trkpt>
      <trkpt lat="45.88107" lon="6.73356">
        <ele>1859</ele>
        <time>2022-08-26T18:17:35Z</time>
      </trkpt>
      <trkpt lat="45.88108" lon="6.73351">
        <ele>1859</ele>
        <time>2022-08-26T18:17:36Z</time>
      </trkpt>
      <trkpt lat="45.88109" lon="6.73349">
        <ele>1857</ele>
        <time>2022-08-26T18:17:37Z</time>
      </trkpt>
      <trkpt lat="45.8811" lon="6.73346">
        <ele>1856</ele>
        <time>2022-08-26T18:17:38Z</time>
      </trkpt>
      <trkpt lat="45.88112" lon="6.73342">
        <ele>1855</ele>
        <time>2022-08-26T18:17:39Z</time>
      </trkpt>
      <trkpt lat="45.88113" lon="6.73338">
        <ele>1854</ele>
        <time>2022-08-26T18:17:40Z</time>
      </trkpt>
      <trkpt lat="45.88114" lon="6.73332">
        <ele>1854</ele>
        <time>2022-08-26T18:17:41Z</time>
      </trkpt>
      <trkpt lat="45.88115" lon="6.7333">
        <ele>1854</ele>
        <time>2022-08-26T18:17:42Z</time>
      </trkpt>
      <trkpt lat="45.88116" lon="6.73327">
        <ele>1853</ele>
        <time>2022-08-26T18:17:43Z</time>
      </trkpt>
      <trkpt lat="45.88117" lon="6.73323">
        <ele>1853</ele>
        <time>2022-08-26T18:17:44Z</time>
      </trkpt>
      <trkpt lat="45.88118" lon="6.73319">
        <ele>1852</ele>
        <time>2022-08-26T18:17:45Z</time>
      </trkpt>
      <trkpt lat="45.8812" lon="6.73314">
        <ele>1852</ele>
        <time>2022-08-26T18:17:46Z</time>
      </trkpt>
      <trkpt lat="45.88121" lon="6.73312">
        <ele>1851</ele>
        <time>2022-08-26T18:17:47Z</time>
      </trkpt>
      <trkpt lat="45.88123" lon="6.73309">
        <ele>1851</ele>
        <time>2022-08-26T18:17:48Z</time>
      </trkpt>
      <trkpt lat="45.88126" lon="6.73306">
        <ele>1851</ele>
        <time>2022-08-26T18:17:49Z</time>
      </trkpt>
      <trkpt lat="45.88127" lon="6.73305">
        <ele>1850</ele>
        <time>2022-08-26T18:17:50Z</time>
      </trkpt>
      <trkpt lat="45.8813" lon="6.73303">
        <ele>1850</ele>
        <time>2022-08-26T18:17:51Z</time>
      </trkpt>
      <trkpt lat="45.88132" lon="6.73302">
        <ele>1850</ele>
        <time>2022-08-26T18:17:52Z</time>
      </trkpt>
      <trkpt lat="45.88135" lon="6.73302">
        <ele>1850</ele>
        <time>2022-08-26T18:17:53Z</time>
      </trkpt>
      <trkpt lat="45.88137" lon="6.73301">
        <ele>1850</ele>
        <time>2022-08-26T18:17:54Z</time>
      </trkpt>
      <trkpt lat="45.88139" lon="6.733">
        <ele>1850</ele>
        <time>2022-08-26T18:17:55Z</time>
      </trkpt>
      <trkpt lat="45.88141" lon="6.73299">
        <ele>1850</ele>
        <time>2022-08-26T18:17:56Z</time>
      </trkpt>
      <trkpt lat="45.88143" lon="6.73299">
        <ele>1850</ele>
        <time>2022-08-26T18:17:57Z</time>
      </trkpt>
      <trkpt lat="45.88145" lon="6.73298">
        <ele>1850</ele>
        <time>2022-08-26T18:17:58Z</time>
      </trkpt>
      <trkpt lat="45.88149" lon="6.73297">
        <ele>1850</ele>
        <time>2022-08-26T18:17:59Z</time>
      </trkpt>
      <trkpt lat="45.8815" lon="6.73297">
        <ele>1850</ele>
        <time>2022-08-26T18:18:00Z</time>
      </trkpt>
      <trkpt lat="45.88152" lon="6.73296">
        <ele>1851</ele>
        <time>2022-08-26T18:18:01Z</time>
      </trkpt>
      <trkpt lat="45.88154" lon="6.73296">
        <ele>1852</ele>
        <time>2022-08-26T18:18:02Z</time>
      </trkpt>
      <trkpt lat="45.88156" lon="6.73295">
        <ele>1852</ele>
        <time>2022-08-26T18:18:03Z</time>
      </trkpt>
      <trkpt lat="45.88159" lon="6.73294">
        <ele>1852</ele>
        <time>2022-08-26T18:18:04Z</time>
      </trkpt>
      <trkpt lat="45.8816" lon="6.73293">
        <ele>1852</ele>
        <time>2022-08-26T18:18:05Z</time>
      </trkpt>
      <trkpt lat="45.88162" lon="6.73292">
        <ele>1852</ele>
        <time>2022-08-26T18:18:06Z</time>
      </trkpt>
      <trkpt lat="45.88164" lon="6.7329">
        <ele>1852</ele>
        <time>2022-08-26T18:18:07Z</time>
      </trkpt>
      <trkpt lat="45.88168" lon="6.73288">
        <ele>1852</ele>
        <time>2022-08-26T18:18:08Z</time>
      </trkpt>
      <trkpt lat="45.88169" lon="6.73288">
        <ele>1852</ele>
        <time>2022-08-26T18:18:09Z</time>
      </trkpt>
      <trkpt lat="45.88171" lon="6.73286">
        <ele>1852</ele>
        <time>2022-08-26T18:18:10Z</time>
      </trkpt>
      <trkpt lat="45.88173" lon="6.73285">
        <ele>1852</ele>
        <time>2022-08-26T18:18:11Z</time>
      </trkpt>
      <trkpt lat="45.88175" lon="6.73282">
        <ele>1852</ele>
        <time>2022-08-26T18:18:12Z</time>
      </trkpt>
      <trkpt lat="45.88176" lon="6.73281">
        <ele>1852</ele>
        <time>2022-08-26T18:18:13Z</time>
      </trkpt>
      <trkpt lat="45.88179" lon="6.73277">
        <ele>1852</ele>
        <time>2022-08-26T18:18:14Z</time>
      </trkpt>
      <trkpt lat="45.8818" lon="6.73276">
        <ele>1852</ele>
        <time>2022-08-26T18:18:15Z</time>
      </trkpt>
      <trkpt lat="45.88182" lon="6.73273">
        <ele>1852</ele>
        <time>2022-08-26T18:18:16Z</time>
      </trkpt>
      <trkpt lat="45.88183" lon="6.73272">
        <ele>1852</ele>
        <time>2022-08-26T18:18:17Z</time>
      </trkpt>
      <trkpt lat="45.88184" lon="6.73269">
        <ele>1852</ele>
        <time>2022-08-26T18:18:18Z</time>
      </trkpt>
      <trkpt lat="45.88186" lon="6.73266">
        <ele>1852</ele>
        <time>2022-08-26T18:18:19Z</time>
      </trkpt>
      <trkpt lat="45.88187" lon="6.73264">
        <ele>1852</ele>
        <time>2022-08-26T18:18:20Z</time>
      </trkpt>
      <trkpt lat="45.8819" lon="6.7326">
        <ele>1852</ele>
        <time>2022-08-26T18:18:21Z</time>
      </trkpt>
      <trkpt lat="45.88191" lon="6.73259">
        <ele>1852</ele>
        <time>2022-08-26T18:18:22Z</time>
      </trkpt>
      <trkpt lat="45.88192" lon="6.73257">
        <ele>1852</ele>
        <time>2022-08-26T18:18:23Z</time>
      </trkpt>
      <trkpt lat="45.88194" lon="6.73255">
        <ele>1852</ele>
        <time>2022-08-26T18:18:24Z</time>
      </trkpt>
      <trkpt lat="45.88195" lon="6.73253">
        <ele>1852</ele>
        <time>2022-08-26T18:18:25Z</time>
      </trkpt>
      <trkpt lat="45.88197" lon="6.73251">
        <ele>1852</ele>
        <time>2022-08-26T18:18:26Z</time>
      </trkpt>
      <trkpt lat="45.88199" lon="6.73249">
        <ele>1852</ele>
        <time>2022-08-26T18:18:27Z</time>
      </trkpt>
      <trkpt lat="45.88201" lon="6.73247">
        <ele>1852</ele>
        <time>2022-08-26T18:18:28Z</time>
      </trkpt>
      <trkpt lat="45.88203" lon="6.73246">
        <ele>1852</ele>
        <time>2022-08-26T18:18:29Z</time>
      </trkpt>
      <trkpt lat="45.88206" lon="6.73244">
        <ele>1852</ele>
        <time>2022-08-26T18:18:30Z</time>
      </trkpt>
      <trkpt lat="45.88209" lon="6.73241">
        <ele>1852</ele>
        <time>2022-08-26T18:18:31Z</time>
      </trkpt>
      <trkpt lat="45.8821" lon="6.73241">
        <ele>1852</ele>
        <time>2022-08-26T18:18:32Z</time>
      </trkpt>
      <trkpt lat="45.88213" lon="6.73239">
        <ele>1852</ele>
        <time>2022-08-26T18:18:33Z</time>
      </trkpt>
      <trkpt lat="45.88216" lon="6.73238">
        <ele>1852</ele>
        <time>2022-08-26T18:18:34Z</time>
      </trkpt>
      <trkpt lat="45.88219" lon="6.73237">
        <ele>1852</ele>
        <time>2022-08-26T18:18:35Z</time>
      </trkpt>
      <trkpt lat="45.8822" lon="6.73237">
        <ele>1852</ele>
        <time>2022-08-26T18:18:36Z</time>
      </trkpt>
      <trkpt lat="45.88223" lon="6.73236">
        <ele>1852</ele>
        <time>2022-08-26T18:18:37Z</time>
      </trkpt>
      <trkpt lat="45.88225" lon="6.73236">
        <ele>1852</ele>
        <time>2022-08-26T18:18:38Z</time>
      </trkpt>
      <trkpt lat="45.88228" lon="6.73235">
        <ele>1852</ele>
        <time>2022-08-26T18:18:39Z</time>
      </trkpt>
      <trkpt lat="45.8823" lon="6.73234">
        <ele>1852</ele>
        <time>2022-08-26T18:18:40Z</time>
      </trkpt>
      <trkpt lat="45.88232" lon="6.73233">
        <ele>1852</ele>
        <time>2022-08-26T18:18:41Z</time>
      </trkpt>
      <trkpt lat="45.88234" lon="6.73232">
        <ele>1852</ele>
        <time>2022-08-26T18:18:42Z</time>
      </trkpt>
      <trkpt lat="45.88236" lon="6.73231">
        <ele>1852</ele>
        <time>2022-08-26T18:18:43Z</time>
      </trkpt>
      <trkpt lat="45.88239" lon="6.7323">
        <ele>1851</ele>
        <time>2022-08-26T18:18:44Z</time>
      </trkpt>
      <trkpt lat="45.88241" lon="6.73229">
        <ele>1851</ele>
        <time>2022-08-26T18:18:45Z</time>
      </trkpt>
      <trkpt lat="45.88243" lon="6.73227">
        <ele>1851</ele>
        <time>2022-08-26T18:18:46Z</time>
      </trkpt>
      <trkpt lat="45.88245" lon="6.73225">
        <ele>1851</ele>
        <time>2022-08-26T18:18:47Z</time>
      </trkpt>
      <trkpt lat="45.88246" lon="6.73223">
        <ele>1851</ele>
        <time>2022-08-26T18:18:48Z</time>
      </trkpt>
      <trkpt lat="45.88248" lon="6.7322">
        <ele>1851</ele>
        <time>2022-08-26T18:18:49Z</time>
      </trkpt>
      <trkpt lat="45.8825" lon="6.73218">
        <ele>1851</ele>
        <time>2022-08-26T18:18:50Z</time>
      </trkpt>
      <trkpt lat="45.88252" lon="6.73217">
        <ele>1851</ele>
        <time>2022-08-26T18:18:51Z</time>
      </trkpt>
      <trkpt lat="45.88255" lon="6.73215">
        <ele>1851</ele>
        <time>2022-08-26T18:18:52Z</time>
      </trkpt>
      <trkpt lat="45.88258" lon="6.73213">
        <ele>1851</ele>
        <time>2022-08-26T18:18:53Z</time>
      </trkpt>
      <trkpt lat="45.88259" lon="6.73212">
        <ele>1851</ele>
        <time>2022-08-26T18:18:54Z</time>
      </trkpt>
      <trkpt lat="45.88261" lon="6.7321">
        <ele>1851</ele>
        <time>2022-08-26T18:18:55Z</time>
      </trkpt>
      <trkpt lat="45.88263" lon="6.73209">
        <ele>1850</ele>
        <time>2022-08-26T18:18:56Z</time>
      </trkpt>
      <trkpt lat="45.88265" lon="6.73208">
        <ele>1849</ele>
        <time>2022-08-26T18:18:57Z</time>
      </trkpt>
      <trkpt lat="45.88269" lon="6.73206">
        <ele>1849</ele>
        <time>2022-08-26T18:18:58Z</time>
      </trkpt>
      <trkpt lat="45.8827" lon="6.73205">
        <ele>1850</ele>
        <time>2022-08-26T18:18:59Z</time>
      </trkpt>
      <trkpt lat="45.88272" lon="6.73204">
        <ele>1850</ele>
        <time>2022-08-26T18:19:00Z</time>
      </trkpt>
      <trkpt lat="45.88275" lon="6.73201">
        <ele>1850</ele>
        <time>2022-08-26T18:19:01Z</time>
      </trkpt>
      <trkpt lat="45.88276" lon="6.732">
        <ele>1849</ele>
        <time>2022-08-26T18:19:02Z</time>
      </trkpt>
      <trkpt lat="45.8828" lon="6.73197">
        <ele>1849</ele>
        <time>2022-08-26T18:19:03Z</time>
      </trkpt>
      <trkpt lat="45.88281" lon="6.73196">
        <ele>1849</ele>
        <time>2022-08-26T18:19:04Z</time>
      </trkpt>
      <trkpt lat="45.88284" lon="6.73195">
        <ele>1849</ele>
        <time>2022-08-26T18:19:05Z</time>
      </trkpt>
      <trkpt lat="45.88285" lon="6.73194">
        <ele>1849</ele>
        <time>2022-08-26T18:19:06Z</time>
      </trkpt>
      <trkpt lat="45.88289" lon="6.73193">
        <ele>1849</ele>
        <time>2022-08-26T18:19:07Z</time>
      </trkpt>
      <trkpt lat="45.8829" lon="6.73193">
        <ele>1847</ele>
        <time>2022-08-26T18:19:08Z</time>
      </trkpt>
      <trkpt lat="45.88293" lon="6.73191">
        <ele>1847</ele>
        <time>2022-08-26T18:19:09Z</time>
      </trkpt>
      <trkpt lat="45.88294" lon="6.7319">
        <ele>1847</ele>
        <time>2022-08-26T18:19:10Z</time>
      </trkpt>
      <trkpt lat="45.88296" lon="6.73188">
        <ele>1847</ele>
        <time>2022-08-26T18:19:11Z</time>
      </trkpt>
      <trkpt lat="45.88298" lon="6.73186">
        <ele>1847</ele>
        <time>2022-08-26T18:19:12Z</time>
      </trkpt>
      <trkpt lat="45.883" lon="6.73185">
        <ele>1846</ele>
        <time>2022-08-26T18:19:13Z</time>
      </trkpt>
      <trkpt lat="45.88303" lon="6.73182">
        <ele>1846</ele>
        <time>2022-08-26T18:19:14Z</time>
      </trkpt>
      <trkpt lat="45.88305" lon="6.73181">
        <ele>1846</ele>
        <time>2022-08-26T18:19:15Z</time>
      </trkpt>
      <trkpt lat="45.88308" lon="6.73179">
        <ele>1846</ele>
        <time>2022-08-26T18:19:16Z</time>
      </trkpt>
      <trkpt lat="45.88309" lon="6.73178">
        <ele>1845</ele>
        <time>2022-08-26T18:19:17Z</time>
      </trkpt>
      <trkpt lat="45.88313" lon="6.73176">
        <ele>1845</ele>
        <time>2022-08-26T18:19:18Z</time>
      </trkpt>
      <trkpt lat="45.88314" lon="6.73176">
        <ele>1844</ele>
        <time>2022-08-26T18:19:19Z</time>
      </trkpt>
      <trkpt lat="45.88317" lon="6.73174">
        <ele>1844</ele>
        <time>2022-08-26T18:19:20Z</time>
      </trkpt>
      <trkpt lat="45.88319" lon="6.73174">
        <ele>1844</ele>
        <time>2022-08-26T18:19:21Z</time>
      </trkpt>
      <trkpt lat="45.88322" lon="6.73173">
        <ele>1843</ele>
        <time>2022-08-26T18:19:22Z</time>
      </trkpt>
      <trkpt lat="45.88325" lon="6.73173">
        <ele>1843</ele>
        <time>2022-08-26T18:19:23Z</time>
      </trkpt>
      <trkpt lat="45.88327" lon="6.73173">
        <ele>1843</ele>
        <time>2022-08-26T18:19:24Z</time>
      </trkpt>
      <trkpt lat="45.8833" lon="6.73172">
        <ele>1843</ele>
        <time>2022-08-26T18:19:25Z</time>
      </trkpt>
      <trkpt lat="45.88332" lon="6.73171">
        <ele>1843</ele>
        <time>2022-08-26T18:19:26Z</time>
      </trkpt>
      <trkpt lat="45.88334" lon="6.7317">
        <ele>1842</ele>
        <time>2022-08-26T18:19:27Z</time>
      </trkpt>
      <trkpt lat="45.88337" lon="6.73168">
        <ele>1842</ele>
        <time>2022-08-26T18:19:28Z</time>
      </trkpt>
      <trkpt lat="45.88338" lon="6.73167">
        <ele>1842</ele>
        <time>2022-08-26T18:19:29Z</time>
      </trkpt>
      <trkpt lat="45.88339" lon="6.73164">
        <ele>1841</ele>
        <time>2022-08-26T18:19:30Z</time>
      </trkpt>
      <trkpt lat="45.88341" lon="6.73161">
        <ele>1840</ele>
        <time>2022-08-26T18:19:31Z</time>
      </trkpt>
      <trkpt lat="45.88343" lon="6.73158">
        <ele>1840</ele>
        <time>2022-08-26T18:19:32Z</time>
      </trkpt>
      <trkpt lat="45.88344" lon="6.73155">
        <ele>1840</ele>
        <time>2022-08-26T18:19:33Z</time>
      </trkpt>
      <trkpt lat="45.88346" lon="6.73153">
        <ele>1839</ele>
        <time>2022-08-26T18:19:34Z</time>
      </trkpt>
      <trkpt lat="45.88349" lon="6.73151">
        <ele>1839</ele>
        <time>2022-08-26T18:19:35Z</time>
      </trkpt>
      <trkpt lat="45.88352" lon="6.73148">
        <ele>1839</ele>
        <time>2022-08-26T18:19:36Z</time>
      </trkpt>
      <trkpt lat="45.88353" lon="6.73146">
        <ele>1838</ele>
        <time>2022-08-26T18:19:37Z</time>
      </trkpt>
      <trkpt lat="45.88355" lon="6.73142">
        <ele>1838</ele>
        <time>2022-08-26T18:19:38Z</time>
      </trkpt>
      <trkpt lat="45.88355" lon="6.73141">
        <ele>1837</ele>
        <time>2022-08-26T18:19:39Z</time>
      </trkpt>
      <trkpt lat="45.88357" lon="6.73139">
        <ele>1837</ele>
        <time>2022-08-26T18:19:40Z</time>
      </trkpt>
      <trkpt lat="45.88359" lon="6.73137">
        <ele>1837</ele>
        <time>2022-08-26T18:19:41Z</time>
      </trkpt>
      <trkpt lat="45.88361" lon="6.73135">
        <ele>1836</ele>
        <time>2022-08-26T18:19:42Z</time>
      </trkpt>
      <trkpt lat="45.88362" lon="6.73133">
        <ele>1836</ele>
        <time>2022-08-26T18:19:43Z</time>
      </trkpt>
      <trkpt lat="45.88361" lon="6.7313">
        <ele>1834</ele>
        <time>2022-08-26T18:19:45Z</time>
      </trkpt>
      <trkpt lat="45.88359" lon="6.73129">
        <ele>1834</ele>
        <time>2022-08-26T18:19:46Z</time>
      </trkpt>
      <trkpt lat="45.88357" lon="6.73129">
        <ele>1833</ele>
        <time>2022-08-26T18:19:47Z</time>
      </trkpt>
      <trkpt lat="45.88355" lon="6.73129">
        <ele>1834</ele>
        <time>2022-08-26T18:19:48Z</time>
      </trkpt>
      <trkpt lat="45.88353" lon="6.73129">
        <ele>1834</ele>
        <time>2022-08-26T18:19:49Z</time>
      </trkpt>
      <trkpt lat="45.88351" lon="6.73129">
        <ele>1834</ele>
        <time>2022-08-26T18:19:50Z</time>
      </trkpt>
      <trkpt lat="45.88347" lon="6.73129">
        <ele>1833</ele>
        <time>2022-08-26T18:19:52Z</time>
      </trkpt>
      <trkpt lat="45.88344" lon="6.73128">
        <ele>1833</ele>
        <time>2022-08-26T18:19:54Z</time>
      </trkpt>
      <trkpt lat="45.88341" lon="6.73126">
        <ele>1831</ele>
        <time>2022-08-26T18:19:56Z</time>
      </trkpt>
      <trkpt lat="45.88339" lon="6.73122">
        <ele>1829</ele>
        <time>2022-08-26T18:19:58Z</time>
      </trkpt>
      <trkpt lat="45.88338" lon="6.73119">
        <ele>1829</ele>
        <time>2022-08-26T18:19:59Z</time>
      </trkpt>
      <trkpt lat="45.88337" lon="6.73117">
        <ele>1828</ele>
        <time>2022-08-26T18:20:00Z</time>
      </trkpt>
      <trkpt lat="45.88336" lon="6.73113">
        <ele>1828</ele>
        <time>2022-08-26T18:20:01Z</time>
      </trkpt>
      <trkpt lat="45.88335" lon="6.7311">
        <ele>1828</ele>
        <time>2022-08-26T18:20:02Z</time>
      </trkpt>
      <trkpt lat="45.88334" lon="6.73108">
        <ele>1827</ele>
        <time>2022-08-26T18:20:03Z</time>
      </trkpt>
      <trkpt lat="45.88332" lon="6.73106">
        <ele>1826</ele>
        <time>2022-08-26T18:20:04Z</time>
      </trkpt>
      <trkpt lat="45.88331" lon="6.73104">
        <ele>1826</ele>
        <time>2022-08-26T18:20:05Z</time>
      </trkpt>
      <trkpt lat="45.88328" lon="6.73103">
        <ele>1824</ele>
        <time>2022-08-26T18:20:07Z</time>
      </trkpt>
      <trkpt lat="45.88325" lon="6.73102">
        <ele>1824</ele>
        <time>2022-08-26T18:20:08Z</time>
      </trkpt>
      <trkpt lat="45.88324" lon="6.73102">
        <ele>1824</ele>
        <time>2022-08-26T18:20:09Z</time>
      </trkpt>
      <trkpt lat="45.88321" lon="6.73102">
        <ele>1823</ele>
        <time>2022-08-26T18:20:10Z</time>
      </trkpt>
      <trkpt lat="45.88319" lon="6.73103">
        <ele>1823</ele>
        <time>2022-08-26T18:20:11Z</time>
      </trkpt>
      <trkpt lat="45.88317" lon="6.73104">
        <ele>1821</ele>
        <time>2022-08-26T18:20:12Z</time>
      </trkpt>
      <trkpt lat="45.88315" lon="6.73105">
        <ele>1821</ele>
        <time>2022-08-26T18:20:13Z</time>
      </trkpt>
      <trkpt lat="45.88313" lon="6.73105">
        <ele>1820</ele>
        <time>2022-08-26T18:20:14Z</time>
      </trkpt>
      <trkpt lat="45.8831" lon="6.73105">
        <ele>1820</ele>
        <time>2022-08-26T18:20:15Z</time>
      </trkpt>
      <trkpt lat="45.88307" lon="6.73104">
        <ele>1820</ele>
        <time>2022-08-26T18:20:16Z</time>
      </trkpt>
      <trkpt lat="45.88306" lon="6.73103">
        <ele>1819</ele>
        <time>2022-08-26T18:20:17Z</time>
      </trkpt>
      <trkpt lat="45.88304" lon="6.73102">
        <ele>1818</ele>
        <time>2022-08-26T18:20:18Z</time>
      </trkpt>
      <trkpt lat="45.88302" lon="6.731">
        <ele>1817</ele>
        <time>2022-08-26T18:20:19Z</time>
      </trkpt>
      <trkpt lat="45.88299" lon="6.73098">
        <ele>1817</ele>
        <time>2022-08-26T18:20:20Z</time>
      </trkpt>
      <trkpt lat="45.88297" lon="6.73097">
        <ele>1817</ele>
        <time>2022-08-26T18:20:21Z</time>
      </trkpt>
      <trkpt lat="45.88292" lon="6.73093">
        <ele>1815</ele>
        <time>2022-08-26T18:20:23Z</time>
      </trkpt>
      <trkpt lat="45.8829" lon="6.73089">
        <ele>1815</ele>
        <time>2022-08-26T18:20:24Z</time>
      </trkpt>
      <trkpt lat="45.88289" lon="6.73088">
        <ele>1814</ele>
        <time>2022-08-26T18:20:25Z</time>
      </trkpt>
      <trkpt lat="45.88287" lon="6.73085">
        <ele>1814</ele>
        <time>2022-08-26T18:20:26Z</time>
      </trkpt>
      <trkpt lat="45.88286" lon="6.73081">
        <ele>1814</ele>
        <time>2022-08-26T18:20:27Z</time>
      </trkpt>
      <trkpt lat="45.88286" lon="6.73076">
        <ele>1814</ele>
        <time>2022-08-26T18:20:28Z</time>
      </trkpt>
      <trkpt lat="45.88286" lon="6.73074">
        <ele>1814</ele>
        <time>2022-08-26T18:20:29Z</time>
      </trkpt>
      <trkpt lat="45.88286" lon="6.7307">
        <ele>1813</ele>
        <time>2022-08-26T18:20:30Z</time>
      </trkpt>
      <trkpt lat="45.88287" lon="6.73067">
        <ele>1813</ele>
        <time>2022-08-26T18:20:31Z</time>
      </trkpt>
      <trkpt lat="45.88287" lon="6.73063">
        <ele>1812</ele>
        <time>2022-08-26T18:20:32Z</time>
      </trkpt>
      <trkpt lat="45.88288" lon="6.73059">
        <ele>1812</ele>
        <time>2022-08-26T18:20:33Z</time>
      </trkpt>
      <trkpt lat="45.88289" lon="6.73057">
        <ele>1811</ele>
        <time>2022-08-26T18:20:34Z</time>
      </trkpt>
      <trkpt lat="45.8829" lon="6.73053">
        <ele>1811</ele>
        <time>2022-08-26T18:20:35Z</time>
      </trkpt>
      <trkpt lat="45.8829" lon="6.73051">
        <ele>1810</ele>
        <time>2022-08-26T18:20:36Z</time>
      </trkpt>
      <trkpt lat="45.8829" lon="6.73048">
        <ele>1810</ele>
        <time>2022-08-26T18:20:37Z</time>
      </trkpt>
      <trkpt lat="45.8829" lon="6.73045">
        <ele>1810</ele>
        <time>2022-08-26T18:20:38Z</time>
      </trkpt>
      <trkpt lat="45.88289" lon="6.73042">
        <ele>1809</ele>
        <time>2022-08-26T18:20:39Z</time>
      </trkpt>
      <trkpt lat="45.88287" lon="6.73039">
        <ele>1809</ele>
        <time>2022-08-26T18:20:40Z</time>
      </trkpt>
      <trkpt lat="45.88286" lon="6.73038">
        <ele>1809</ele>
        <time>2022-08-26T18:20:41Z</time>
      </trkpt>
      <trkpt lat="45.88284" lon="6.73037">
        <ele>1809</ele>
        <time>2022-08-26T18:20:42Z</time>
      </trkpt>
      <trkpt lat="45.88282" lon="6.73036">
        <ele>1808</ele>
        <time>2022-08-26T18:20:43Z</time>
      </trkpt>
      <trkpt lat="45.8828" lon="6.73036">
        <ele>1808</ele>
        <time>2022-08-26T18:20:44Z</time>
      </trkpt>
      <trkpt lat="45.88278" lon="6.73036">
        <ele>1808</ele>
        <time>2022-08-26T18:20:45Z</time>
      </trkpt>
      <trkpt lat="45.88276" lon="6.73036">
        <ele>1808</ele>
        <time>2022-08-26T18:20:46Z</time>
      </trkpt>
      <trkpt lat="45.88274" lon="6.73036">
        <ele>1807</ele>
        <time>2022-08-26T18:20:47Z</time>
      </trkpt>
      <trkpt lat="45.88272" lon="6.73036">
        <ele>1807</ele>
        <time>2022-08-26T18:20:48Z</time>
      </trkpt>
      <trkpt lat="45.8827" lon="6.73036">
        <ele>1805</ele>
        <time>2022-08-26T18:20:49Z</time>
      </trkpt>
      <trkpt lat="45.88268" lon="6.73036">
        <ele>1805</ele>
        <time>2022-08-26T18:20:50Z</time>
      </trkpt>
      <trkpt lat="45.88266" lon="6.73036">
        <ele>1804</ele>
        <time>2022-08-26T18:20:51Z</time>
      </trkpt>
      <trkpt lat="45.88264" lon="6.73035">
        <ele>1803</ele>
        <time>2022-08-26T18:20:52Z</time>
      </trkpt>
      <trkpt lat="45.88262" lon="6.73033">
        <ele>1803</ele>
        <time>2022-08-26T18:20:53Z</time>
      </trkpt>
      <trkpt lat="45.88261" lon="6.73032">
        <ele>1802</ele>
        <time>2022-08-26T18:20:54Z</time>
      </trkpt>
      <trkpt lat="45.88259" lon="6.7303">
        <ele>1802</ele>
        <time>2022-08-26T18:20:55Z</time>
      </trkpt>
      <trkpt lat="45.88258" lon="6.73028">
        <ele>1800</ele>
        <time>2022-08-26T18:20:56Z</time>
      </trkpt>
      <trkpt lat="45.88256" lon="6.73026">
        <ele>1800</ele>
        <time>2022-08-26T18:20:57Z</time>
      </trkpt>
      <trkpt lat="45.88254" lon="6.73025">
        <ele>1798</ele>
        <time>2022-08-26T18:20:58Z</time>
      </trkpt>
      <trkpt lat="45.88251" lon="6.73024">
        <ele>1798</ele>
        <time>2022-08-26T18:20:59Z</time>
      </trkpt>
      <trkpt lat="45.8825" lon="6.73024">
        <ele>1798</ele>
        <time>2022-08-26T18:21:00Z</time>
      </trkpt>
      <trkpt lat="45.88247" lon="6.73023">
        <ele>1797</ele>
        <time>2022-08-26T18:21:02Z</time>
      </trkpt>
      <trkpt lat="45.88245" lon="6.73022">
        <ele>1796</ele>
        <time>2022-08-26T18:21:03Z</time>
      </trkpt>
      <trkpt lat="45.88242" lon="6.73021">
        <ele>1796</ele>
        <time>2022-08-26T18:21:04Z</time>
      </trkpt>
      <trkpt lat="45.8824" lon="6.73021">
        <ele>1794</ele>
        <time>2022-08-26T18:21:05Z</time>
      </trkpt>
      <trkpt lat="45.88238" lon="6.73021">
        <ele>1794</ele>
        <time>2022-08-26T18:21:06Z</time>
      </trkpt>
      <trkpt lat="45.88236" lon="6.7302">
        <ele>1793</ele>
        <time>2022-08-26T18:21:07Z</time>
      </trkpt>
      <trkpt lat="45.88234" lon="6.7302">
        <ele>1792</ele>
        <time>2022-08-26T18:21:08Z</time>
      </trkpt>
      <trkpt lat="45.88232" lon="6.7302">
        <ele>1791</ele>
        <time>2022-08-26T18:21:09Z</time>
      </trkpt>
      <trkpt lat="45.88229" lon="6.7302">
        <ele>1791</ele>
        <time>2022-08-26T18:21:10Z</time>
      </trkpt>
      <trkpt lat="45.88228" lon="6.73019">
        <ele>1790</ele>
        <time>2022-08-26T18:21:11Z</time>
      </trkpt>
      <trkpt lat="45.88224" lon="6.73019">
        <ele>1790</ele>
        <time>2022-08-26T18:21:12Z</time>
      </trkpt>
      <trkpt lat="45.88223" lon="6.73019">
        <ele>1789</ele>
        <time>2022-08-26T18:21:13Z</time>
      </trkpt>
      <trkpt lat="45.8822" lon="6.73018">
        <ele>1789</ele>
        <time>2022-08-26T18:21:14Z</time>
      </trkpt>
      <trkpt lat="45.88218" lon="6.73017">
        <ele>1788</ele>
        <time>2022-08-26T18:21:15Z</time>
      </trkpt>
      <trkpt lat="45.88216" lon="6.73016">
        <ele>1787</ele>
        <time>2022-08-26T18:21:16Z</time>
      </trkpt>
      <trkpt lat="45.88213" lon="6.73016">
        <ele>1787</ele>
        <time>2022-08-26T18:21:18Z</time>
      </trkpt>
      <trkpt lat="45.8821" lon="6.73016">
        <ele>1785</ele>
        <time>2022-08-26T18:21:20Z</time>
      </trkpt>
      <trkpt lat="45.88207" lon="6.73015">
        <ele>1784</ele>
        <time>2022-08-26T18:21:22Z</time>
      </trkpt>
      <trkpt lat="45.88204" lon="6.73015">
        <ele>1782</ele>
        <time>2022-08-26T18:21:24Z</time>
      </trkpt>
      <trkpt lat="45.88201" lon="6.73015">
        <ele>1782</ele>
        <time>2022-08-26T18:21:26Z</time>
      </trkpt>
      <trkpt lat="45.88198" lon="6.73015">
        <ele>1782</ele>
        <time>2022-08-26T18:21:27Z</time>
      </trkpt>
      <trkpt lat="45.88197" lon="6.73016">
        <ele>1780</ele>
        <time>2022-08-26T18:21:28Z</time>
      </trkpt>
      <trkpt lat="45.88194" lon="6.73015">
        <ele>1779</ele>
        <time>2022-08-26T18:21:29Z</time>
      </trkpt>
      <trkpt lat="45.88192" lon="6.73015">
        <ele>1779</ele>
        <time>2022-08-26T18:21:30Z</time>
      </trkpt>
      <trkpt lat="45.8819" lon="6.73014">
        <ele>1778</ele>
        <time>2022-08-26T18:21:31Z</time>
      </trkpt>
      <trkpt lat="45.88186" lon="6.73014">
        <ele>1777</ele>
        <time>2022-08-26T18:21:33Z</time>
      </trkpt>
      <trkpt lat="45.88183" lon="6.73012">
        <ele>1777</ele>
        <time>2022-08-26T18:21:35Z</time>
      </trkpt>
      <trkpt lat="45.88181" lon="6.7301">
        <ele>1777</ele>
        <time>2022-08-26T18:21:36Z</time>
      </trkpt>
      <trkpt lat="45.88179" lon="6.73009">
        <ele>1776</ele>
        <time>2022-08-26T18:21:37Z</time>
      </trkpt>
      <trkpt lat="45.88178" lon="6.73007">
        <ele>1776</ele>
        <time>2022-08-26T18:21:38Z</time>
      </trkpt>
      <trkpt lat="45.88175" lon="6.73004">
        <ele>1776</ele>
        <time>2022-08-26T18:21:39Z</time>
      </trkpt>
      <trkpt lat="45.88174" lon="6.73003">
        <ele>1775</ele>
        <time>2022-08-26T18:21:40Z</time>
      </trkpt>
      <trkpt lat="45.88171" lon="6.73">
        <ele>1775</ele>
        <time>2022-08-26T18:21:41Z</time>
      </trkpt>
      <trkpt lat="45.8817" lon="6.72999">
        <ele>1773</ele>
        <time>2022-08-26T18:21:42Z</time>
      </trkpt>
      <trkpt lat="45.88168" lon="6.72997">
        <ele>1773</ele>
        <time>2022-08-26T18:21:43Z</time>
      </trkpt>
      <trkpt lat="45.88166" lon="6.72995">
        <ele>1772</ele>
        <time>2022-08-26T18:21:44Z</time>
      </trkpt>
      <trkpt lat="45.88165" lon="6.72992">
        <ele>1771</ele>
        <time>2022-08-26T18:21:45Z</time>
      </trkpt>
      <trkpt lat="45.88162" lon="6.72989">
        <ele>1771</ele>
        <time>2022-08-26T18:21:46Z</time>
      </trkpt>
      <trkpt lat="45.8816" lon="6.72988">
        <ele>1770</ele>
        <time>2022-08-26T18:21:47Z</time>
      </trkpt>
      <trkpt lat="45.88159" lon="6.72986">
        <ele>1769</ele>
        <time>2022-08-26T18:21:48Z</time>
      </trkpt>
      <trkpt lat="45.88156" lon="6.72985">
        <ele>1769</ele>
        <time>2022-08-26T18:21:49Z</time>
      </trkpt>
      <trkpt lat="45.88154" lon="6.72983">
        <ele>1768</ele>
        <time>2022-08-26T18:21:50Z</time>
      </trkpt>
      <trkpt lat="45.8815" lon="6.7298">
        <ele>1768</ele>
        <time>2022-08-26T18:21:51Z</time>
      </trkpt>
      <trkpt lat="45.88149" lon="6.72978">
        <ele>1767</ele>
        <time>2022-08-26T18:21:52Z</time>
      </trkpt>
      <trkpt lat="45.88147" lon="6.72977">
        <ele>1767</ele>
        <time>2022-08-26T18:21:53Z</time>
      </trkpt>
      <trkpt lat="45.88144" lon="6.72975">
        <ele>1766</ele>
        <time>2022-08-26T18:21:54Z</time>
      </trkpt>
      <trkpt lat="45.88142" lon="6.72972">
        <ele>1766</ele>
        <time>2022-08-26T18:21:55Z</time>
      </trkpt>
      <trkpt lat="45.88141" lon="6.72969">
        <ele>1766</ele>
        <time>2022-08-26T18:21:56Z</time>
      </trkpt>
      <trkpt lat="45.88141" lon="6.72966">
        <ele>1766</ele>
        <time>2022-08-26T18:21:57Z</time>
      </trkpt>
      <trkpt lat="45.8814" lon="6.72963">
        <ele>1766</ele>
        <time>2022-08-26T18:21:58Z</time>
      </trkpt>
      <trkpt lat="45.88138" lon="6.72959">
        <ele>1764</ele>
        <time>2022-08-26T18:22:00Z</time>
      </trkpt>
      <trkpt lat="45.88137" lon="6.72958">
        <ele>1763</ele>
        <time>2022-08-26T18:22:01Z</time>
      </trkpt>
      <trkpt lat="45.88135" lon="6.72956">
        <ele>1763</ele>
        <time>2022-08-26T18:22:02Z</time>
      </trkpt>
      <trkpt lat="45.88134" lon="6.72955">
        <ele>1762</ele>
        <time>2022-08-26T18:22:03Z</time>
      </trkpt>
      <trkpt lat="45.88132" lon="6.72954">
        <ele>1762</ele>
        <time>2022-08-26T18:22:04Z</time>
      </trkpt>
      <trkpt lat="45.8813" lon="6.72952">
        <ele>1761</ele>
        <time>2022-08-26T18:22:05Z</time>
      </trkpt>
      <trkpt lat="45.88128" lon="6.72952">
        <ele>1760</ele>
        <time>2022-08-26T18:22:06Z</time>
      </trkpt>
      <trkpt lat="45.88126" lon="6.72951">
        <ele>1759</ele>
        <time>2022-08-26T18:22:07Z</time>
      </trkpt>
      <trkpt lat="45.88124" lon="6.7295">
        <ele>1759</ele>
        <time>2022-08-26T18:22:08Z</time>
      </trkpt>
      <trkpt lat="45.88122" lon="6.72949">
        <ele>1759</ele>
        <time>2022-08-26T18:22:09Z</time>
      </trkpt>
      <trkpt lat="45.8812" lon="6.72949">
        <ele>1757</ele>
        <time>2022-08-26T18:22:10Z</time>
      </trkpt>
      <trkpt lat="45.88118" lon="6.72948">
        <ele>1757</ele>
        <time>2022-08-26T18:22:11Z</time>
      </trkpt>
      <trkpt lat="45.88116" lon="6.72948">
        <ele>1757</ele>
        <time>2022-08-26T18:22:12Z</time>
      </trkpt>
      <trkpt lat="45.88114" lon="6.72947">
        <ele>1756</ele>
        <time>2022-08-26T18:22:13Z</time>
      </trkpt>
      <trkpt lat="45.88112" lon="6.72947">
        <ele>1756</ele>
        <time>2022-08-26T18:22:14Z</time>
      </trkpt>
      <trkpt lat="45.8811" lon="6.72946">
        <ele>1755</ele>
        <time>2022-08-26T18:22:15Z</time>
      </trkpt>
      <trkpt lat="45.88108" lon="6.72945">
        <ele>1754</ele>
        <time>2022-08-26T18:22:16Z</time>
      </trkpt>
      <trkpt lat="45.88106" lon="6.72945">
        <ele>1753</ele>
        <time>2022-08-26T18:22:17Z</time>
      </trkpt>
      <trkpt lat="45.88104" lon="6.72944">
        <ele>1752</ele>
        <time>2022-08-26T18:22:18Z</time>
      </trkpt>
      <trkpt lat="45.88101" lon="6.72944">
        <ele>1751</ele>
        <time>2022-08-26T18:22:20Z</time>
      </trkpt>
      <trkpt lat="45.88098" lon="6.72944">
        <ele>1751</ele>
        <time>2022-08-26T18:22:22Z</time>
      </trkpt>
      <trkpt lat="45.88094" lon="6.72944">
        <ele>1749</ele>
        <time>2022-08-26T18:22:24Z</time>
      </trkpt>
      <trkpt lat="45.88091" lon="6.72943">
        <ele>1749</ele>
        <time>2022-08-26T18:22:26Z</time>
      </trkpt>
      <trkpt lat="45.88088" lon="6.72941">
        <ele>1748</ele>
        <time>2022-08-26T18:22:28Z</time>
      </trkpt>
      <trkpt lat="45.88086" lon="6.72941">
        <ele>1747</ele>
        <time>2022-08-26T18:22:29Z</time>
      </trkpt>
      <trkpt lat="45.88084" lon="6.7294">
        <ele>1747</ele>
        <time>2022-08-26T18:22:30Z</time>
      </trkpt>
      <trkpt lat="45.88082" lon="6.72939">
        <ele>1746</ele>
        <time>2022-08-26T18:22:31Z</time>
      </trkpt>
      <trkpt lat="45.88078" lon="6.72937">
        <ele>1746</ele>
        <time>2022-08-26T18:22:33Z</time>
      </trkpt>
      <trkpt lat="45.88075" lon="6.72936">
        <ele>1746</ele>
        <time>2022-08-26T18:22:34Z</time>
      </trkpt>
      <trkpt lat="45.88074" lon="6.72936">
        <ele>1745</ele>
        <time>2022-08-26T18:22:35Z</time>
      </trkpt>
      <trkpt lat="45.88073" lon="6.72935">
        <ele>1745</ele>
        <time>2022-08-26T18:22:36Z</time>
      </trkpt>
      <trkpt lat="45.88069" lon="6.72933">
        <ele>1744</ele>
        <time>2022-08-26T18:22:38Z</time>
      </trkpt>
      <trkpt lat="45.88067" lon="6.72931">
        <ele>1743</ele>
        <time>2022-08-26T18:22:39Z</time>
      </trkpt>
      <trkpt lat="45.88066" lon="6.7293">
        <ele>1743</ele>
        <time>2022-08-26T18:22:40Z</time>
      </trkpt>
      <trkpt lat="45.88063" lon="6.7293">
        <ele>1743</ele>
        <time>2022-08-26T18:22:41Z</time>
      </trkpt>
      <trkpt lat="45.88062" lon="6.7293">
        <ele>1742</ele>
        <time>2022-08-26T18:22:42Z</time>
      </trkpt>
      <trkpt lat="45.8806" lon="6.7293">
        <ele>1742</ele>
        <time>2022-08-26T18:22:43Z</time>
      </trkpt>
      <trkpt lat="45.88058" lon="6.72929">
        <ele>1742</ele>
        <time>2022-08-26T18:22:44Z</time>
      </trkpt>
      <trkpt lat="45.88055" lon="6.72927">
        <ele>1743</ele>
        <time>2022-08-26T18:22:45Z</time>
      </trkpt>
      <trkpt lat="45.88053" lon="6.72926">
        <ele>1743</ele>
        <time>2022-08-26T18:22:46Z</time>
      </trkpt>
      <trkpt lat="45.88052" lon="6.72926">
        <ele>1743</ele>
        <time>2022-08-26T18:22:47Z</time>
      </trkpt>
      <trkpt lat="45.8805" lon="6.72926">
        <ele>1743</ele>
        <time>2022-08-26T18:22:48Z</time>
      </trkpt>
      <trkpt lat="45.88046" lon="6.72927">
        <ele>1741</ele>
        <time>2022-08-26T18:22:50Z</time>
      </trkpt>
      <trkpt lat="45.88044" lon="6.72928">
        <ele>1741</ele>
        <time>2022-08-26T18:22:51Z</time>
      </trkpt>
      <trkpt lat="45.88042" lon="6.72928">
        <ele>1740</ele>
        <time>2022-08-26T18:22:52Z</time>
      </trkpt>
      <trkpt lat="45.88039" lon="6.7293">
        <ele>1740</ele>
        <time>2022-08-26T18:22:53Z</time>
      </trkpt>
      <trkpt lat="45.88038" lon="6.72931">
        <ele>1740</ele>
        <time>2022-08-26T18:22:54Z</time>
      </trkpt>
      <trkpt lat="45.88037" lon="6.72932">
        <ele>1740</ele>
        <time>2022-08-26T18:22:55Z</time>
      </trkpt>
      <trkpt lat="45.88035" lon="6.72934">
        <ele>1739</ele>
        <time>2022-08-26T18:22:56Z</time>
      </trkpt>
      <trkpt lat="45.88034" lon="6.72935">
        <ele>1739</ele>
        <time>2022-08-26T18:22:57Z</time>
      </trkpt>
      <trkpt lat="45.88032" lon="6.72937">
        <ele>1737</ele>
        <time>2022-08-26T18:22:58Z</time>
      </trkpt>
      <trkpt lat="45.88031" lon="6.7294">
        <ele>1737</ele>
        <time>2022-08-26T18:22:59Z</time>
      </trkpt>
      <trkpt lat="45.88029" lon="6.72944">
        <ele>1737</ele>
        <time>2022-08-26T18:23:00Z</time>
      </trkpt>
      <trkpt lat="45.88028" lon="6.72945">
        <ele>1736</ele>
        <time>2022-08-26T18:23:01Z</time>
      </trkpt>
      <trkpt lat="45.88026" lon="6.72947">
        <ele>1736</ele>
        <time>2022-08-26T18:23:02Z</time>
      </trkpt>
      <trkpt lat="45.88025" lon="6.72949">
        <ele>1735</ele>
        <time>2022-08-26T18:23:03Z</time>
      </trkpt>
      <trkpt lat="45.88024" lon="6.72952">
        <ele>1735</ele>
        <time>2022-08-26T18:23:04Z</time>
      </trkpt>
      <trkpt lat="45.88022" lon="6.72955">
        <ele>1735</ele>
        <time>2022-08-26T18:23:05Z</time>
      </trkpt>
      <trkpt lat="45.88021" lon="6.72956">
        <ele>1734</ele>
        <time>2022-08-26T18:23:06Z</time>
      </trkpt>
      <trkpt lat="45.88019" lon="6.72959">
        <ele>1734</ele>
        <time>2022-08-26T18:23:07Z</time>
      </trkpt>
      <trkpt lat="45.88017" lon="6.72962">
        <ele>1734</ele>
        <time>2022-08-26T18:23:08Z</time>
      </trkpt>
      <trkpt lat="45.88015" lon="6.72964">
        <ele>1733</ele>
        <time>2022-08-26T18:23:09Z</time>
      </trkpt>
      <trkpt lat="45.88012" lon="6.72965">
        <ele>1733</ele>
        <time>2022-08-26T18:23:10Z</time>
      </trkpt>
      <trkpt lat="45.8801" lon="6.72965">
        <ele>1732</ele>
        <time>2022-08-26T18:23:11Z</time>
      </trkpt>
      <trkpt lat="45.88007" lon="6.72965">
        <ele>1732</ele>
        <time>2022-08-26T18:23:12Z</time>
      </trkpt>
      <trkpt lat="45.88004" lon="6.72964">
        <ele>1731</ele>
        <time>2022-08-26T18:23:13Z</time>
      </trkpt>
      <trkpt lat="45.88002" lon="6.72963">
        <ele>1730</ele>
        <time>2022-08-26T18:23:14Z</time>
      </trkpt>
      <trkpt lat="45.88" lon="6.72962">
        <ele>1730</ele>
        <time>2022-08-26T18:23:15Z</time>
      </trkpt>
      <trkpt lat="45.87997" lon="6.7296">
        <ele>1730</ele>
        <time>2022-08-26T18:23:16Z</time>
      </trkpt>
      <trkpt lat="45.87996" lon="6.72959">
        <ele>1729</ele>
        <time>2022-08-26T18:23:17Z</time>
      </trkpt>
      <trkpt lat="45.87994" lon="6.72958">
        <ele>1728</ele>
        <time>2022-08-26T18:23:19Z</time>
      </trkpt>
      <trkpt lat="45.87991" lon="6.72956">
        <ele>1728</ele>
        <time>2022-08-26T18:23:21Z</time>
      </trkpt>
      <trkpt lat="45.87987" lon="6.72955">
        <ele>1728</ele>
        <time>2022-08-26T18:23:23Z</time>
      </trkpt>
      <trkpt lat="45.87985" lon="6.72954">
        <ele>1728</ele>
        <time>2022-08-26T18:23:24Z</time>
      </trkpt>
      <trkpt lat="45.87983" lon="6.72953">
        <ele>1728</ele>
        <time>2022-08-26T18:23:25Z</time>
      </trkpt>
      <trkpt lat="45.8798" lon="6.72952">
        <ele>1728</ele>
        <time>2022-08-26T18:23:26Z</time>
      </trkpt>
      <trkpt lat="45.87979" lon="6.72952">
        <ele>1728</ele>
        <time>2022-08-26T18:23:27Z</time>
      </trkpt>
      <trkpt lat="45.87976" lon="6.72952">
        <ele>1727</ele>
        <time>2022-08-26T18:23:28Z</time>
      </trkpt>
      <trkpt lat="45.87975" lon="6.72951">
        <ele>1727</ele>
        <time>2022-08-26T18:23:29Z</time>
      </trkpt>
      <trkpt lat="45.87972" lon="6.7295">
        <ele>1727</ele>
        <time>2022-08-26T18:23:30Z</time>
      </trkpt>
      <trkpt lat="45.87969" lon="6.72948">
        <ele>1727</ele>
        <time>2022-08-26T18:23:31Z</time>
      </trkpt>
      <trkpt lat="45.87967" lon="6.72948">
        <ele>1726</ele>
        <time>2022-08-26T18:23:32Z</time>
      </trkpt>
      <trkpt lat="45.87965" lon="6.72946">
        <ele>1726</ele>
        <time>2022-08-26T18:23:33Z</time>
      </trkpt>
      <trkpt lat="45.87961" lon="6.72944">
        <ele>1726</ele>
        <time>2022-08-26T18:23:34Z</time>
      </trkpt>
      <trkpt lat="45.8796" lon="6.72943">
        <ele>1726</ele>
        <time>2022-08-26T18:23:35Z</time>
      </trkpt>
      <trkpt lat="45.87957" lon="6.72941">
        <ele>1726</ele>
        <time>2022-08-26T18:23:36Z</time>
      </trkpt>
      <trkpt lat="45.87956" lon="6.7294">
        <ele>1726</ele>
        <time>2022-08-26T18:23:37Z</time>
      </trkpt>
      <trkpt lat="45.87954" lon="6.72939">
        <ele>1726</ele>
        <time>2022-08-26T18:23:38Z</time>
      </trkpt>
      <trkpt lat="45.87951" lon="6.72939">
        <ele>1725</ele>
        <time>2022-08-26T18:23:39Z</time>
      </trkpt>
      <trkpt lat="45.87949" lon="6.72938">
        <ele>1725</ele>
        <time>2022-08-26T18:23:40Z</time>
      </trkpt>
      <trkpt lat="45.87945" lon="6.72938">
        <ele>1725</ele>
        <time>2022-08-26T18:23:41Z</time>
      </trkpt>
      <trkpt lat="45.87944" lon="6.72938">
        <ele>1723</ele>
        <time>2022-08-26T18:23:42Z</time>
      </trkpt>
      <trkpt lat="45.87942" lon="6.72938">
        <ele>1722</ele>
        <time>2022-08-26T18:23:43Z</time>
      </trkpt>
      <trkpt lat="45.8794" lon="6.72939">
        <ele>1721</ele>
        <time>2022-08-26T18:23:44Z</time>
      </trkpt>
      <trkpt lat="45.87937" lon="6.72939">
        <ele>1721</ele>
        <time>2022-08-26T18:23:45Z</time>
      </trkpt>
      <trkpt lat="45.87934" lon="6.72938">
        <ele>1721</ele>
        <time>2022-08-26T18:23:46Z</time>
      </trkpt>
      <trkpt lat="45.87933" lon="6.72937">
        <ele>1719</ele>
        <time>2022-08-26T18:23:47Z</time>
      </trkpt>
      <trkpt lat="45.8793" lon="6.72936">
        <ele>1718</ele>
        <time>2022-08-26T18:23:48Z</time>
      </trkpt>
      <trkpt lat="45.87928" lon="6.72934">
        <ele>1718</ele>
        <time>2022-08-26T18:23:49Z</time>
      </trkpt>
      <trkpt lat="45.87925" lon="6.72933">
        <ele>1718</ele>
        <time>2022-08-26T18:23:50Z</time>
      </trkpt>
      <trkpt lat="45.87924" lon="6.72933">
        <ele>1718</ele>
        <time>2022-08-26T18:23:51Z</time>
      </trkpt>
      <trkpt lat="45.87921" lon="6.72933">
        <ele>1716</ele>
        <time>2022-08-26T18:23:53Z</time>
      </trkpt>
      <trkpt lat="45.87918" lon="6.72933">
        <ele>1716</ele>
        <time>2022-08-26T18:23:55Z</time>
      </trkpt>
      <trkpt lat="45.87916" lon="6.72934">
        <ele>1716</ele>
        <time>2022-08-26T18:23:57Z</time>
      </trkpt>
      <trkpt lat="45.87914" lon="6.72933">
        <ele>1714</ele>
        <time>2022-08-26T18:23:59Z</time>
      </trkpt>
      <trkpt lat="45.87912" lon="6.72934">
        <ele>1714</ele>
        <time>2022-08-26T18:24:01Z</time>
      </trkpt>
      <trkpt lat="45.8791" lon="6.72933">
        <ele>1714</ele>
        <time>2022-08-26T18:24:03Z</time>
      </trkpt>
      <trkpt lat="45.87908" lon="6.72932">
        <ele>1713</ele>
        <time>2022-08-26T18:24:06Z</time>
      </trkpt>
      <trkpt lat="45.87908" lon="6.72929">
        <ele>1713</ele>
        <time>2022-08-26T18:24:08Z</time>
      </trkpt>
      <trkpt lat="45.87906" lon="6.72926">
        <ele>1713</ele>
        <time>2022-08-26T18:24:11Z</time>
      </trkpt>
      <trkpt lat="45.87904" lon="6.72925">
        <ele>1712</ele>
        <time>2022-08-26T18:24:13Z</time>
      </trkpt>
      <trkpt lat="45.87902" lon="6.72925">
        <ele>1711</ele>
        <time>2022-08-26T18:24:15Z</time>
      </trkpt>
      <trkpt lat="45.87898" lon="6.72925">
        <ele>1710</ele>
        <time>2022-08-26T18:24:17Z</time>
      </trkpt>
      <trkpt lat="45.87895" lon="6.72925">
        <ele>1709</ele>
        <time>2022-08-26T18:24:19Z</time>
      </trkpt>
      <trkpt lat="45.87892" lon="6.72925">
        <ele>1708</ele>
        <time>2022-08-26T18:24:21Z</time>
      </trkpt>
      <trkpt lat="45.87889" lon="6.72925">
        <ele>1706</ele>
        <time>2022-08-26T18:24:23Z</time>
      </trkpt>
      <trkpt lat="45.87885" lon="6.72926">
        <ele>1705</ele>
        <time>2022-08-26T18:24:25Z</time>
      </trkpt>
      <trkpt lat="45.87882" lon="6.72926">
        <ele>1705</ele>
        <time>2022-08-26T18:24:26Z</time>
      </trkpt>
      <trkpt lat="45.87881" lon="6.72925">
        <ele>1704</ele>
        <time>2022-08-26T18:24:27Z</time>
      </trkpt>
      <trkpt lat="45.87879" lon="6.72926">
        <ele>1704</ele>
        <time>2022-08-26T18:24:28Z</time>
      </trkpt>
      <trkpt lat="45.87877" lon="6.72925">
        <ele>1703</ele>
        <time>2022-08-26T18:24:29Z</time>
      </trkpt>
      <trkpt lat="45.87875" lon="6.72925">
        <ele>1703</ele>
        <time>2022-08-26T18:24:30Z</time>
      </trkpt>
      <trkpt lat="45.87873" lon="6.72925">
        <ele>1702</ele>
        <time>2022-08-26T18:24:31Z</time>
      </trkpt>
      <trkpt lat="45.8787" lon="6.72924">
        <ele>1700</ele>
        <time>2022-08-26T18:24:33Z</time>
      </trkpt>
      <trkpt lat="45.87868" lon="6.72923">
        <ele>1699</ele>
        <time>2022-08-26T18:24:35Z</time>
      </trkpt>
      <trkpt lat="45.87865" lon="6.72922">
        <ele>1697</ele>
        <time>2022-08-26T18:24:37Z</time>
      </trkpt>
      <trkpt lat="45.87861" lon="6.72922">
        <ele>1696</ele>
        <time>2022-08-26T18:24:39Z</time>
      </trkpt>
      <trkpt lat="45.87859" lon="6.72923">
        <ele>1696</ele>
        <time>2022-08-26T18:24:40Z</time>
      </trkpt>
      <trkpt lat="45.87856" lon="6.72923">
        <ele>1693</ele>
        <time>2022-08-26T18:24:42Z</time>
      </trkpt>
      <trkpt lat="45.87852" lon="6.72924">
        <ele>1692</ele>
        <time>2022-08-26T18:24:44Z</time>
      </trkpt>
      <trkpt lat="45.87849" lon="6.72924">
        <ele>1692</ele>
        <time>2022-08-26T18:24:45Z</time>
      </trkpt>
      <trkpt lat="45.87848" lon="6.72924">
        <ele>1691</ele>
        <time>2022-08-26T18:24:46Z</time>
      </trkpt>
      <trkpt lat="45.87846" lon="6.72923">
        <ele>1691</ele>
        <time>2022-08-26T18:24:47Z</time>
      </trkpt>
      <trkpt lat="45.87844" lon="6.72923">
        <ele>1690</ele>
        <time>2022-08-26T18:24:48Z</time>
      </trkpt>
      <trkpt lat="45.87842" lon="6.72922">
        <ele>1688</ele>
        <time>2022-08-26T18:24:49Z</time>
      </trkpt>
      <trkpt lat="45.87838" lon="6.72922">
        <ele>1688</ele>
        <time>2022-08-26T18:24:50Z</time>
      </trkpt>
      <trkpt lat="45.87835" lon="6.72921">
        <ele>1688</ele>
        <time>2022-08-26T18:24:51Z</time>
      </trkpt>
      <trkpt lat="45.87833" lon="6.72921">
        <ele>1687</ele>
        <time>2022-08-26T18:24:52Z</time>
      </trkpt>
      <trkpt lat="45.8783" lon="6.7292">
        <ele>1687</ele>
        <time>2022-08-26T18:24:53Z</time>
      </trkpt>
      <trkpt lat="45.87828" lon="6.7292">
        <ele>1686</ele>
        <time>2022-08-26T18:24:54Z</time>
      </trkpt>
      <trkpt lat="45.87826" lon="6.7292">
        <ele>1686</ele>
        <time>2022-08-26T18:24:55Z</time>
      </trkpt>
      <trkpt lat="45.87824" lon="6.72921">
        <ele>1685</ele>
        <time>2022-08-26T18:24:56Z</time>
      </trkpt>
      <trkpt lat="45.87822" lon="6.72921">
        <ele>1685</ele>
        <time>2022-08-26T18:24:57Z</time>
      </trkpt>
      <trkpt lat="45.8782" lon="6.72921">
        <ele>1684</ele>
        <time>2022-08-26T18:24:58Z</time>
      </trkpt>
      <trkpt lat="45.87817" lon="6.72921">
        <ele>1684</ele>
        <time>2022-08-26T18:25:00Z</time>
      </trkpt>
      <trkpt lat="45.87815" lon="6.72921">
        <ele>1682</ele>
        <time>2022-08-26T18:25:02Z</time>
      </trkpt>
      <trkpt lat="45.87813" lon="6.72921">
        <ele>1681</ele>
        <time>2022-08-26T18:25:03Z</time>
      </trkpt>
      <trkpt lat="45.87811" lon="6.7292">
        <ele>1681</ele>
        <time>2022-08-26T18:25:05Z</time>
      </trkpt>
      <trkpt lat="45.87808" lon="6.72918">
        <ele>1679</ele>
        <time>2022-08-26T18:25:07Z</time>
      </trkpt>
      <trkpt lat="45.87806" lon="6.72917">
        <ele>1679</ele>
        <time>2022-08-26T18:25:08Z</time>
      </trkpt>
      <trkpt lat="45.87804" lon="6.72916">
        <ele>1678</ele>
        <time>2022-08-26T18:25:09Z</time>
      </trkpt>
      <trkpt lat="45.87802" lon="6.72915">
        <ele>1678</ele>
        <time>2022-08-26T18:25:10Z</time>
      </trkpt>
      <trkpt lat="45.87799" lon="6.72914">
        <ele>1677</ele>
        <time>2022-08-26T18:25:12Z</time>
      </trkpt>
      <trkpt lat="45.87797" lon="6.72913">
        <ele>1676</ele>
        <time>2022-08-26T18:25:13Z</time>
      </trkpt>
      <trkpt lat="45.87794" lon="6.72914">
        <ele>1676</ele>
        <time>2022-08-26T18:25:15Z</time>
      </trkpt>
      <trkpt lat="45.8779" lon="6.72914">
        <ele>1675</ele>
        <time>2022-08-26T18:25:17Z</time>
      </trkpt>
      <trkpt lat="45.87789" lon="6.72914">
        <ele>1674</ele>
        <time>2022-08-26T18:25:18Z</time>
      </trkpt>
      <trkpt lat="45.87787" lon="6.72914">
        <ele>1673</ele>
        <time>2022-08-26T18:25:19Z</time>
      </trkpt>
      <trkpt lat="45.87785" lon="6.72915">
        <ele>1673</ele>
        <time>2022-08-26T18:25:20Z</time>
      </trkpt>
      <trkpt lat="45.87783" lon="6.72914">
        <ele>1673</ele>
        <time>2022-08-26T18:25:21Z</time>
      </trkpt>
      <trkpt lat="45.87781" lon="6.72914">
        <ele>1672</ele>
        <time>2022-08-26T18:25:22Z</time>
      </trkpt>
      <trkpt lat="45.87778" lon="6.72915">
        <ele>1671</ele>
        <time>2022-08-26T18:25:23Z</time>
      </trkpt>
      <trkpt lat="45.87776" lon="6.72915">
        <ele>1671</ele>
        <time>2022-08-26T18:25:24Z</time>
      </trkpt>
      <trkpt lat="45.87774" lon="6.72915">
        <ele>1671</ele>
        <time>2022-08-26T18:25:25Z</time>
      </trkpt>
      <trkpt lat="45.87772" lon="6.72915">
        <ele>1670</ele>
        <time>2022-08-26T18:25:26Z</time>
      </trkpt>
      <trkpt lat="45.87769" lon="6.72916">
        <ele>1669</ele>
        <time>2022-08-26T18:25:28Z</time>
      </trkpt>
      <trkpt lat="45.87764" lon="6.72917">
        <ele>1668</ele>
        <time>2022-08-26T18:25:30Z</time>
      </trkpt>
      <trkpt lat="45.87763" lon="6.72917">
        <ele>1667</ele>
        <time>2022-08-26T18:25:31Z</time>
      </trkpt>
      <trkpt lat="45.87761" lon="6.72917">
        <ele>1667</ele>
        <time>2022-08-26T18:25:32Z</time>
      </trkpt>
      <trkpt lat="45.87759" lon="6.72917">
        <ele>1667</ele>
        <time>2022-08-26T18:25:33Z</time>
      </trkpt>
      <trkpt lat="45.87757" lon="6.72915">
        <ele>1666</ele>
        <time>2022-08-26T18:25:34Z</time>
      </trkpt>
      <trkpt lat="45.87755" lon="6.72912">
        <ele>1666</ele>
        <time>2022-08-26T18:25:35Z</time>
      </trkpt>
      <trkpt lat="45.87754" lon="6.72911">
        <ele>1665</ele>
        <time>2022-08-26T18:25:36Z</time>
      </trkpt>
      <trkpt lat="45.87753" lon="6.72909">
        <ele>1665</ele>
        <time>2022-08-26T18:25:37Z</time>
      </trkpt>
      <trkpt lat="45.87751" lon="6.72908">
        <ele>1664</ele>
        <time>2022-08-26T18:25:38Z</time>
      </trkpt>
      <trkpt lat="45.87748" lon="6.72908">
        <ele>1664</ele>
        <time>2022-08-26T18:25:39Z</time>
      </trkpt>
      <trkpt lat="45.87746" lon="6.72908">
        <ele>1664</ele>
        <time>2022-08-26T18:25:40Z</time>
      </trkpt>
      <trkpt lat="45.87745" lon="6.72909">
        <ele>1664</ele>
        <time>2022-08-26T18:25:41Z</time>
      </trkpt>
      <trkpt lat="45.87743" lon="6.7291">
        <ele>1664</ele>
        <time>2022-08-26T18:25:42Z</time>
      </trkpt>
      <trkpt lat="45.87741" lon="6.72911">
        <ele>1664</ele>
        <time>2022-08-26T18:25:43Z</time>
      </trkpt>
      <trkpt lat="45.87739" lon="6.72911">
        <ele>1664</ele>
        <time>2022-08-26T18:25:44Z</time>
      </trkpt>
      <trkpt lat="45.87736" lon="6.72913">
        <ele>1663</ele>
        <time>2022-08-26T18:25:46Z</time>
      </trkpt>
      <trkpt lat="45.87733" lon="6.72916">
        <ele>1663</ele>
        <time>2022-08-26T18:25:48Z</time>
      </trkpt>
      <trkpt lat="45.8773" lon="6.72917">
        <ele>1663</ele>
        <time>2022-08-26T18:25:50Z</time>
      </trkpt>
      <trkpt lat="45.87727" lon="6.72918">
        <ele>1662</ele>
        <time>2022-08-26T18:25:52Z</time>
      </trkpt>
      <trkpt lat="45.87725" lon="6.72918">
        <ele>1662</ele>
        <time>2022-08-26T18:25:53Z</time>
      </trkpt>
      <trkpt lat="45.87723" lon="6.72919">
        <ele>1662</ele>
        <time>2022-08-26T18:25:54Z</time>
      </trkpt>
      <trkpt lat="45.87721" lon="6.72919">
        <ele>1662</ele>
        <time>2022-08-26T18:25:55Z</time>
      </trkpt>
      <trkpt lat="45.87718" lon="6.7292">
        <ele>1662</ele>
        <time>2022-08-26T18:25:57Z</time>
      </trkpt>
      <trkpt lat="45.87715" lon="6.72922">
        <ele>1662</ele>
        <time>2022-08-26T18:25:59Z</time>
      </trkpt>
      <trkpt lat="45.87713" lon="6.72922">
        <ele>1661</ele>
        <time>2022-08-26T18:26:00Z</time>
      </trkpt>
      <trkpt lat="45.87711" lon="6.72922">
        <ele>1661</ele>
        <time>2022-08-26T18:26:01Z</time>
      </trkpt>
      <trkpt lat="45.87708" lon="6.72922">
        <ele>1661</ele>
        <time>2022-08-26T18:26:03Z</time>
      </trkpt>
      <trkpt lat="45.87709" lon="6.72917">
        <ele>1660</ele>
        <time>2022-08-26T18:26:05Z</time>
      </trkpt>
      <trkpt lat="45.8771" lon="6.72915">
        <ele>1660</ele>
        <time>2022-08-26T18:26:06Z</time>
      </trkpt>
      <trkpt lat="45.87713" lon="6.72912">
        <ele>1660</ele>
        <time>2022-08-26T18:26:07Z</time>
      </trkpt>
      <trkpt lat="45.87714" lon="6.72911">
        <ele>1658</ele>
        <time>2022-08-26T18:26:08Z</time>
      </trkpt>
      <trkpt lat="45.87716" lon="6.72909">
        <ele>1657</ele>
        <time>2022-08-26T18:26:09Z</time>
      </trkpt>
      <trkpt lat="45.87718" lon="6.72907">
        <ele>1657</ele>
        <time>2022-08-26T18:26:10Z</time>
      </trkpt>
      <trkpt lat="45.87719" lon="6.72906">
        <ele>1657</ele>
        <time>2022-08-26T18:26:11Z</time>
      </trkpt>
      <trkpt lat="45.87721" lon="6.72904">
        <ele>1657</ele>
        <time>2022-08-26T18:26:12Z</time>
      </trkpt>
      <trkpt lat="45.87722" lon="6.72903">
        <ele>1657</ele>
        <time>2022-08-26T18:26:13Z</time>
      </trkpt>
      <trkpt lat="45.87724" lon="6.72901">
        <ele>1657</ele>
        <time>2022-08-26T18:26:14Z</time>
      </trkpt>
      <trkpt lat="45.87725" lon="6.72898">
        <ele>1656</ele>
        <time>2022-08-26T18:26:15Z</time>
      </trkpt>
      <trkpt lat="45.87727" lon="6.72895">
        <ele>1656</ele>
        <time>2022-08-26T18:26:16Z</time>
      </trkpt>
      <trkpt lat="45.87729" lon="6.72892">
        <ele>1656</ele>
        <time>2022-08-26T18:26:17Z</time>
      </trkpt>
      <trkpt lat="45.8773" lon="6.7289">
        <ele>1656</ele>
        <time>2022-08-26T18:26:18Z</time>
      </trkpt>
      <trkpt lat="45.87733" lon="6.72886">
        <ele>1656</ele>
        <time>2022-08-26T18:26:19Z</time>
      </trkpt>
      <trkpt lat="45.87734" lon="6.72885">
        <ele>1656</ele>
        <time>2022-08-26T18:26:20Z</time>
      </trkpt>
      <trkpt lat="45.87736" lon="6.72884">
        <ele>1656</ele>
        <time>2022-08-26T18:26:21Z</time>
      </trkpt>
      <trkpt lat="45.87739" lon="6.72882">
        <ele>1656</ele>
        <time>2022-08-26T18:26:22Z</time>
      </trkpt>
      <trkpt lat="45.8774" lon="6.72881">
        <ele>1656</ele>
        <time>2022-08-26T18:26:23Z</time>
      </trkpt>
      <trkpt lat="45.87742" lon="6.7288">
        <ele>1656</ele>
        <time>2022-08-26T18:26:24Z</time>
      </trkpt>
      <trkpt lat="45.87744" lon="6.72879">
        <ele>1656</ele>
        <time>2022-08-26T18:26:25Z</time>
      </trkpt>
      <trkpt lat="45.87746" lon="6.72878">
        <ele>1656</ele>
        <time>2022-08-26T18:26:26Z</time>
      </trkpt>
      <trkpt lat="45.87748" lon="6.72876">
        <ele>1656</ele>
        <time>2022-08-26T18:26:27Z</time>
      </trkpt>
      <trkpt lat="45.8775" lon="6.72875">
        <ele>1657</ele>
        <time>2022-08-26T18:26:28Z</time>
      </trkpt>
      <trkpt lat="45.87752" lon="6.72874">
        <ele>1657</ele>
        <time>2022-08-26T18:26:29Z</time>
      </trkpt>
      <trkpt lat="45.87754" lon="6.72873">
        <ele>1657</ele>
        <time>2022-08-26T18:26:30Z</time>
      </trkpt>
      <trkpt lat="45.87757" lon="6.72873">
        <ele>1657</ele>
        <time>2022-08-26T18:26:31Z</time>
      </trkpt>
      <trkpt lat="45.87758" lon="6.72873">
        <ele>1657</ele>
        <time>2022-08-26T18:26:32Z</time>
      </trkpt>
      <trkpt lat="45.8776" lon="6.72873">
        <ele>1657</ele>
        <time>2022-08-26T18:26:33Z</time>
      </trkpt>
      <trkpt lat="45.87763" lon="6.72872">
        <ele>1657</ele>
        <time>2022-08-26T18:26:34Z</time>
      </trkpt>
      <trkpt lat="45.87765" lon="6.72871">
        <ele>1657</ele>
        <time>2022-08-26T18:26:35Z</time>
      </trkpt>
      <trkpt lat="45.87769" lon="6.72869">
        <ele>1657</ele>
        <time>2022-08-26T18:26:36Z</time>
      </trkpt>
      <trkpt lat="45.8777" lon="6.72869">
        <ele>1656</ele>
        <time>2022-08-26T18:26:37Z</time>
      </trkpt>
      <trkpt lat="45.87773" lon="6.72867">
        <ele>1656</ele>
        <time>2022-08-26T18:26:38Z</time>
      </trkpt>
      <trkpt lat="45.87775" lon="6.72866">
        <ele>1656</ele>
        <time>2022-08-26T18:26:39Z</time>
      </trkpt>
      <trkpt lat="45.87778" lon="6.72865">
        <ele>1656</ele>
        <time>2022-08-26T18:26:40Z</time>
      </trkpt>
      <trkpt lat="45.8778" lon="6.72865">
        <ele>1656</ele>
        <time>2022-08-26T18:26:41Z</time>
      </trkpt>
      <trkpt lat="45.87783" lon="6.72863">
        <ele>1655</ele>
        <time>2022-08-26T18:26:42Z</time>
      </trkpt>
      <trkpt lat="45.87786" lon="6.72862">
        <ele>1655</ele>
        <time>2022-08-26T18:26:43Z</time>
      </trkpt>
      <trkpt lat="45.87788" lon="6.72862">
        <ele>1655</ele>
        <time>2022-08-26T18:26:44Z</time>
      </trkpt>
      <trkpt lat="45.87792" lon="6.72862">
        <ele>1655</ele>
        <time>2022-08-26T18:26:45Z</time>
      </trkpt>
      <trkpt lat="45.87793" lon="6.72862">
        <ele>1654</ele>
        <time>2022-08-26T18:26:46Z</time>
      </trkpt>
      <trkpt lat="45.87796" lon="6.72862">
        <ele>1654</ele>
        <time>2022-08-26T18:26:47Z</time>
      </trkpt>
      <trkpt lat="45.87798" lon="6.72862">
        <ele>1654</ele>
        <time>2022-08-26T18:26:48Z</time>
      </trkpt>
      <trkpt lat="45.878" lon="6.72861">
        <ele>1654</ele>
        <time>2022-08-26T18:26:49Z</time>
      </trkpt>
      <trkpt lat="45.87802" lon="6.7286">
        <ele>1654</ele>
        <time>2022-08-26T18:26:50Z</time>
      </trkpt>
      <trkpt lat="45.87804" lon="6.72859">
        <ele>1654</ele>
        <time>2022-08-26T18:26:51Z</time>
      </trkpt>
      <trkpt lat="45.87807" lon="6.72858">
        <ele>1654</ele>
        <time>2022-08-26T18:26:52Z</time>
      </trkpt>
      <trkpt lat="45.87809" lon="6.72856">
        <ele>1654</ele>
        <time>2022-08-26T18:26:53Z</time>
      </trkpt>
      <trkpt lat="45.87811" lon="6.72855">
        <ele>1653</ele>
        <time>2022-08-26T18:26:54Z</time>
      </trkpt>
      <trkpt lat="45.87814" lon="6.72853">
        <ele>1653</ele>
        <time>2022-08-26T18:26:55Z</time>
      </trkpt>
      <trkpt lat="45.87817" lon="6.72851">
        <ele>1653</ele>
        <time>2022-08-26T18:26:56Z</time>
      </trkpt>
      <trkpt lat="45.87818" lon="6.7285">
        <ele>1653</ele>
        <time>2022-08-26T18:26:57Z</time>
      </trkpt>
      <trkpt lat="45.8782" lon="6.72849">
        <ele>1653</ele>
        <time>2022-08-26T18:26:58Z</time>
      </trkpt>
      <trkpt lat="45.87822" lon="6.72847">
        <ele>1653</ele>
        <time>2022-08-26T18:26:59Z</time>
      </trkpt>
      <trkpt lat="45.87825" lon="6.72845">
        <ele>1653</ele>
        <time>2022-08-26T18:27:00Z</time>
      </trkpt>
      <trkpt lat="45.87826" lon="6.72844">
        <ele>1653</ele>
        <time>2022-08-26T18:27:01Z</time>
      </trkpt>
      <trkpt lat="45.87829" lon="6.72841">
        <ele>1653</ele>
        <time>2022-08-26T18:27:02Z</time>
      </trkpt>
      <trkpt lat="45.8783" lon="6.7284">
        <ele>1653</ele>
        <time>2022-08-26T18:27:03Z</time>
      </trkpt>
      <trkpt lat="45.87832" lon="6.72839">
        <ele>1653</ele>
        <time>2022-08-26T18:27:04Z</time>
      </trkpt>
      <trkpt lat="45.87834" lon="6.72837">
        <ele>1653</ele>
        <time>2022-08-26T18:27:05Z</time>
      </trkpt>
      <trkpt lat="45.87836" lon="6.72835">
        <ele>1653</ele>
        <time>2022-08-26T18:27:06Z</time>
      </trkpt>
      <trkpt lat="45.87838" lon="6.72833">
        <ele>1653</ele>
        <time>2022-08-26T18:27:07Z</time>
      </trkpt>
      <trkpt lat="45.8784" lon="6.72832">
        <ele>1653</ele>
        <time>2022-08-26T18:27:08Z</time>
      </trkpt>
      <trkpt lat="45.87841" lon="6.7283">
        <ele>1653</ele>
        <time>2022-08-26T18:27:09Z</time>
      </trkpt>
      <trkpt lat="45.87843" lon="6.72829">
        <ele>1653</ele>
        <time>2022-08-26T18:27:10Z</time>
      </trkpt>
      <trkpt lat="45.87845" lon="6.72827">
        <ele>1653</ele>
        <time>2022-08-26T18:27:11Z</time>
      </trkpt>
      <trkpt lat="45.87847" lon="6.72825">
        <ele>1653</ele>
        <time>2022-08-26T18:27:12Z</time>
      </trkpt>
      <trkpt lat="45.87849" lon="6.72823">
        <ele>1652</ele>
        <time>2022-08-26T18:27:13Z</time>
      </trkpt>
      <trkpt lat="45.87852" lon="6.7282">
        <ele>1652</ele>
        <time>2022-08-26T18:27:14Z</time>
      </trkpt>
      <trkpt lat="45.87853" lon="6.72819">
        <ele>1652</ele>
        <time>2022-08-26T18:27:15Z</time>
      </trkpt>
      <trkpt lat="45.87857" lon="6.72816">
        <ele>1652</ele>
        <time>2022-08-26T18:27:16Z</time>
      </trkpt>
      <trkpt lat="45.87858" lon="6.72815">
        <ele>1652</ele>
        <time>2022-08-26T18:27:17Z</time>
      </trkpt>
      <trkpt lat="45.87861" lon="6.72814">
        <ele>1651</ele>
        <time>2022-08-26T18:27:18Z</time>
      </trkpt>
      <trkpt lat="45.87865" lon="6.72812">
        <ele>1651</ele>
        <time>2022-08-26T18:27:19Z</time>
      </trkpt>
      <trkpt lat="45.87866" lon="6.72811">
        <ele>1651</ele>
        <time>2022-08-26T18:27:20Z</time>
      </trkpt>
      <trkpt lat="45.8787" lon="6.7281">
        <ele>1651</ele>
        <time>2022-08-26T18:27:21Z</time>
      </trkpt>
      <trkpt lat="45.87871" lon="6.7281">
        <ele>1651</ele>
        <time>2022-08-26T18:27:22Z</time>
      </trkpt>
      <trkpt lat="45.87874" lon="6.7281">
        <ele>1651</ele>
        <time>2022-08-26T18:27:23Z</time>
      </trkpt>
      <trkpt lat="45.87876" lon="6.72809">
        <ele>1651</ele>
        <time>2022-08-26T18:27:24Z</time>
      </trkpt>
      <trkpt lat="45.87878" lon="6.72808">
        <ele>1651</ele>
        <time>2022-08-26T18:27:25Z</time>
      </trkpt>
      <trkpt lat="45.87882" lon="6.72807">
        <ele>1651</ele>
        <time>2022-08-26T18:27:26Z</time>
      </trkpt>
      <trkpt lat="45.87883" lon="6.72806">
        <ele>1651</ele>
        <time>2022-08-26T18:27:27Z</time>
      </trkpt>
      <trkpt lat="45.87885" lon="6.72805">
        <ele>1651</ele>
        <time>2022-08-26T18:27:28Z</time>
      </trkpt>
      <trkpt lat="45.87888" lon="6.72804">
        <ele>1651</ele>
        <time>2022-08-26T18:27:29Z</time>
      </trkpt>
      <trkpt lat="45.8789" lon="6.72802">
        <ele>1650</ele>
        <time>2022-08-26T18:27:30Z</time>
      </trkpt>
      <trkpt lat="45.87894" lon="6.728">
        <ele>1650</ele>
        <time>2022-08-26T18:27:31Z</time>
      </trkpt>
      <trkpt lat="45.87895" lon="6.72799">
        <ele>1650</ele>
        <time>2022-08-26T18:27:32Z</time>
      </trkpt>
      <trkpt lat="45.87898" lon="6.72798">
        <ele>1650</ele>
        <time>2022-08-26T18:27:33Z</time>
      </trkpt>
      <trkpt lat="45.879" lon="6.72797">
        <ele>1651</ele>
        <time>2022-08-26T18:27:34Z</time>
      </trkpt>
      <trkpt lat="45.87902" lon="6.72796">
        <ele>1651</ele>
        <time>2022-08-26T18:27:35Z</time>
      </trkpt>
      <trkpt lat="45.87905" lon="6.72795">
        <ele>1651</ele>
        <time>2022-08-26T18:27:36Z</time>
      </trkpt>
      <trkpt lat="45.87907" lon="6.72794">
        <ele>1651</ele>
        <time>2022-08-26T18:27:37Z</time>
      </trkpt>
      <trkpt lat="45.87911" lon="6.72794">
        <ele>1651</ele>
        <time>2022-08-26T18:27:38Z</time>
      </trkpt>
      <trkpt lat="45.87912" lon="6.72793">
        <ele>1650</ele>
        <time>2022-08-26T18:27:39Z</time>
      </trkpt>
      <trkpt lat="45.87915" lon="6.72793">
        <ele>1650</ele>
        <time>2022-08-26T18:27:40Z</time>
      </trkpt>
      <trkpt lat="45.87919" lon="6.72792">
        <ele>1650</ele>
        <time>2022-08-26T18:27:41Z</time>
      </trkpt>
      <trkpt lat="45.8792" lon="6.72792">
        <ele>1650</ele>
        <time>2022-08-26T18:27:42Z</time>
      </trkpt>
      <trkpt lat="45.87922" lon="6.72791">
        <ele>1650</ele>
        <time>2022-08-26T18:27:43Z</time>
      </trkpt>
      <trkpt lat="45.87924" lon="6.7279">
        <ele>1650</ele>
        <time>2022-08-26T18:27:44Z</time>
      </trkpt>
      <trkpt lat="45.87926" lon="6.72789">
        <ele>1650</ele>
        <time>2022-08-26T18:27:45Z</time>
      </trkpt>
      <trkpt lat="45.87929" lon="6.72788">
        <ele>1650</ele>
        <time>2022-08-26T18:27:46Z</time>
      </trkpt>
      <trkpt lat="45.87931" lon="6.72787">
        <ele>1650</ele>
        <time>2022-08-26T18:27:47Z</time>
      </trkpt>
      <trkpt lat="45.87933" lon="6.72785">
        <ele>1650</ele>
        <time>2022-08-26T18:27:48Z</time>
      </trkpt>
      <trkpt lat="45.87935" lon="6.72784">
        <ele>1651</ele>
        <time>2022-08-26T18:27:49Z</time>
      </trkpt>
      <trkpt lat="45.87937" lon="6.72782">
        <ele>1651</ele>
        <time>2022-08-26T18:27:50Z</time>
      </trkpt>
      <trkpt lat="45.87939" lon="6.72781">
        <ele>1651</ele>
        <time>2022-08-26T18:27:51Z</time>
      </trkpt>
      <trkpt lat="45.8794" lon="6.72779">
        <ele>1651</ele>
        <time>2022-08-26T18:27:52Z</time>
      </trkpt>
      <trkpt lat="45.87942" lon="6.72778">
        <ele>1651</ele>
        <time>2022-08-26T18:27:53Z</time>
      </trkpt>
      <trkpt lat="45.87944" lon="6.72776">
        <ele>1651</ele>
        <time>2022-08-26T18:27:54Z</time>
      </trkpt>
      <trkpt lat="45.87946" lon="6.72773">
        <ele>1651</ele>
        <time>2022-08-26T18:27:55Z</time>
      </trkpt>
      <trkpt lat="45.87947" lon="6.72772">
        <ele>1651</ele>
        <time>2022-08-26T18:27:56Z</time>
      </trkpt>
      <trkpt lat="45.8795" lon="6.72769">
        <ele>1651</ele>
        <time>2022-08-26T18:27:57Z</time>
      </trkpt>
      <trkpt lat="45.8795" lon="6.72768">
        <ele>1651</ele>
        <time>2022-08-26T18:27:58Z</time>
      </trkpt>
      <trkpt lat="45.87953" lon="6.72764">
        <ele>1651</ele>
        <time>2022-08-26T18:27:59Z</time>
      </trkpt>
      <trkpt lat="45.87953" lon="6.72763">
        <ele>1651</ele>
        <time>2022-08-26T18:28:00Z</time>
      </trkpt>
      <trkpt lat="45.87956" lon="6.72761">
        <ele>1651</ele>
        <time>2022-08-26T18:28:01Z</time>
      </trkpt>
      <trkpt lat="45.87957" lon="6.7276">
        <ele>1651</ele>
        <time>2022-08-26T18:28:02Z</time>
      </trkpt>
      <trkpt lat="45.8796" lon="6.72757">
        <ele>1651</ele>
        <time>2022-08-26T18:28:03Z</time>
      </trkpt>
      <trkpt lat="45.87961" lon="6.72756">
        <ele>1652</ele>
        <time>2022-08-26T18:28:04Z</time>
      </trkpt>
      <trkpt lat="45.87963" lon="6.72753">
        <ele>1652</ele>
        <time>2022-08-26T18:28:05Z</time>
      </trkpt>
      <trkpt lat="45.87964" lon="6.72752">
        <ele>1652</ele>
        <time>2022-08-26T18:28:06Z</time>
      </trkpt>
      <trkpt lat="45.87966" lon="6.7275">
        <ele>1652</ele>
        <time>2022-08-26T18:28:07Z</time>
      </trkpt>
      <trkpt lat="45.87967" lon="6.72748">
        <ele>1652</ele>
        <time>2022-08-26T18:28:08Z</time>
      </trkpt>
      <trkpt lat="45.87969" lon="6.72746">
        <ele>1652</ele>
        <time>2022-08-26T18:28:09Z</time>
      </trkpt>
      <trkpt lat="45.87972" lon="6.72743">
        <ele>1652</ele>
        <time>2022-08-26T18:28:10Z</time>
      </trkpt>
      <trkpt lat="45.87973" lon="6.72742">
        <ele>1652</ele>
        <time>2022-08-26T18:28:11Z</time>
      </trkpt>
      <trkpt lat="45.87975" lon="6.72739">
        <ele>1652</ele>
        <time>2022-08-26T18:28:13Z</time>
      </trkpt>
      <trkpt lat="45.87978" lon="6.72736">
        <ele>1652</ele>
        <time>2022-08-26T18:28:15Z</time>
      </trkpt>
      <trkpt lat="45.8798" lon="6.72734">
        <ele>1651</ele>
        <time>2022-08-26T18:28:16Z</time>
      </trkpt>
      <trkpt lat="45.87982" lon="6.72733">
        <ele>1651</ele>
        <time>2022-08-26T18:28:17Z</time>
      </trkpt>
      <trkpt lat="45.87984" lon="6.72731">
        <ele>1651</ele>
        <time>2022-08-26T18:28:18Z</time>
      </trkpt>
      <trkpt lat="45.87986" lon="6.72729">
        <ele>1651</ele>
        <time>2022-08-26T18:28:19Z</time>
      </trkpt>
      <trkpt lat="45.87987" lon="6.72727">
        <ele>1650</ele>
        <time>2022-08-26T18:28:21Z</time>
      </trkpt>
      <trkpt lat="45.87989" lon="6.72724">
        <ele>1649</ele>
        <time>2022-08-26T18:28:22Z</time>
      </trkpt>
      <trkpt lat="45.8799" lon="6.72722">
        <ele>1649</ele>
        <time>2022-08-26T18:28:23Z</time>
      </trkpt>
      <trkpt lat="45.87991" lon="6.72719">
        <ele>1649</ele>
        <time>2022-08-26T18:28:24Z</time>
      </trkpt>
      <trkpt lat="45.87992" lon="6.72715">
        <ele>1648</ele>
        <time>2022-08-26T18:28:26Z</time>
      </trkpt>
      <trkpt lat="45.87993" lon="6.72711">
        <ele>1648</ele>
        <time>2022-08-26T18:28:27Z</time>
      </trkpt>
      <trkpt lat="45.87994" lon="6.72706">
        <ele>1648</ele>
        <time>2022-08-26T18:28:28Z</time>
      </trkpt>
      <trkpt lat="45.87995" lon="6.72704">
        <ele>1648</ele>
        <time>2022-08-26T18:28:29Z</time>
      </trkpt>
      <trkpt lat="45.87996" lon="6.727">
        <ele>1647</ele>
        <time>2022-08-26T18:28:30Z</time>
      </trkpt>
      <trkpt lat="45.87997" lon="6.72697">
        <ele>1646</ele>
        <time>2022-08-26T18:28:31Z</time>
      </trkpt>
      <trkpt lat="45.88" lon="6.72692">
        <ele>1646</ele>
        <time>2022-08-26T18:28:32Z</time>
      </trkpt>
      <trkpt lat="45.88" lon="6.72691">
        <ele>1645</ele>
        <time>2022-08-26T18:28:33Z</time>
      </trkpt>
      <trkpt lat="45.88002" lon="6.72688">
        <ele>1645</ele>
        <time>2022-08-26T18:28:34Z</time>
      </trkpt>
      <trkpt lat="45.88004" lon="6.72684">
        <ele>1645</ele>
        <time>2022-08-26T18:28:35Z</time>
      </trkpt>
      <trkpt lat="45.88004" lon="6.72682">
        <ele>1644</ele>
        <time>2022-08-26T18:28:36Z</time>
      </trkpt>
      <trkpt lat="45.88006" lon="6.72677">
        <ele>1644</ele>
        <time>2022-08-26T18:28:37Z</time>
      </trkpt>
      <trkpt lat="45.88006" lon="6.72675">
        <ele>1643</ele>
        <time>2022-08-26T18:28:38Z</time>
      </trkpt>
      <trkpt lat="45.88008" lon="6.7267">
        <ele>1643</ele>
        <time>2022-08-26T18:28:39Z</time>
      </trkpt>
      <trkpt lat="45.88009" lon="6.72669">
        <ele>1642</ele>
        <time>2022-08-26T18:28:40Z</time>
      </trkpt>
      <trkpt lat="45.8801" lon="6.72666">
        <ele>1642</ele>
        <time>2022-08-26T18:28:41Z</time>
      </trkpt>
      <trkpt lat="45.88011" lon="6.72663">
        <ele>1642</ele>
        <time>2022-08-26T18:28:42Z</time>
      </trkpt>
      <trkpt lat="45.88013" lon="6.72661">
        <ele>1641</ele>
        <time>2022-08-26T18:28:43Z</time>
      </trkpt>
      <trkpt lat="45.88015" lon="6.72657">
        <ele>1641</ele>
        <time>2022-08-26T18:28:44Z</time>
      </trkpt>
      <trkpt lat="45.88016" lon="6.72656">
        <ele>1640</ele>
        <time>2022-08-26T18:28:45Z</time>
      </trkpt>
      <trkpt lat="45.88017" lon="6.72654">
        <ele>1640</ele>
        <time>2022-08-26T18:28:46Z</time>
      </trkpt>
      <trkpt lat="45.88019" lon="6.72651">
        <ele>1640</ele>
        <time>2022-08-26T18:28:47Z</time>
      </trkpt>
      <trkpt lat="45.88022" lon="6.72649">
        <ele>1640</ele>
        <time>2022-08-26T18:28:48Z</time>
      </trkpt>
      <trkpt lat="45.88023" lon="6.72648">
        <ele>1638</ele>
        <time>2022-08-26T18:28:49Z</time>
      </trkpt>
      <trkpt lat="45.88025" lon="6.72647">
        <ele>1638</ele>
        <time>2022-08-26T18:28:50Z</time>
      </trkpt>
      <trkpt lat="45.88027" lon="6.72645">
        <ele>1637</ele>
        <time>2022-08-26T18:28:51Z</time>
      </trkpt>
      <trkpt lat="45.88029" lon="6.72642">
        <ele>1637</ele>
        <time>2022-08-26T18:28:52Z</time>
      </trkpt>
      <trkpt lat="45.88031" lon="6.7264">
        <ele>1637</ele>
        <time>2022-08-26T18:28:53Z</time>
      </trkpt>
      <trkpt lat="45.88033" lon="6.72638">
        <ele>1636</ele>
        <time>2022-08-26T18:28:54Z</time>
      </trkpt>
      <trkpt lat="45.88035" lon="6.72637">
        <ele>1636</ele>
        <time>2022-08-26T18:28:55Z</time>
      </trkpt>
      <trkpt lat="45.88038" lon="6.72635">
        <ele>1636</ele>
        <time>2022-08-26T18:28:56Z</time>
      </trkpt>
      <trkpt lat="45.8804" lon="6.72633">
        <ele>1635</ele>
        <time>2022-08-26T18:28:57Z</time>
      </trkpt>
      <trkpt lat="45.88043" lon="6.72632">
        <ele>1635</ele>
        <time>2022-08-26T18:28:58Z</time>
      </trkpt>
      <trkpt lat="45.88045" lon="6.72629">
        <ele>1635</ele>
        <time>2022-08-26T18:28:59Z</time>
      </trkpt>
      <trkpt lat="45.88047" lon="6.72627">
        <ele>1633</ele>
        <time>2022-08-26T18:29:00Z</time>
      </trkpt>
      <trkpt lat="45.88049" lon="6.72626">
        <ele>1632</ele>
        <time>2022-08-26T18:29:01Z</time>
      </trkpt>
      <trkpt lat="45.88052" lon="6.72623">
        <ele>1632</ele>
        <time>2022-08-26T18:29:02Z</time>
      </trkpt>
      <trkpt lat="45.88053" lon="6.72623">
        <ele>1632</ele>
        <time>2022-08-26T18:29:03Z</time>
      </trkpt>
      <trkpt lat="45.88056" lon="6.72621">
        <ele>1632</ele>
        <time>2022-08-26T18:29:04Z</time>
      </trkpt>
      <trkpt lat="45.88058" lon="6.7262">
        <ele>1631</ele>
        <time>2022-08-26T18:29:05Z</time>
      </trkpt>
      <trkpt lat="45.8806" lon="6.7262">
        <ele>1631</ele>
        <time>2022-08-26T18:29:06Z</time>
      </trkpt>
      <trkpt lat="45.88062" lon="6.72618">
        <ele>1631</ele>
        <time>2022-08-26T18:29:07Z</time>
      </trkpt>
      <trkpt lat="45.88064" lon="6.72617">
        <ele>1630</ele>
        <time>2022-08-26T18:29:08Z</time>
      </trkpt>
      <trkpt lat="45.88067" lon="6.72615">
        <ele>1629</ele>
        <time>2022-08-26T18:29:09Z</time>
      </trkpt>
      <trkpt lat="45.88069" lon="6.72612">
        <ele>1629</ele>
        <time>2022-08-26T18:29:10Z</time>
      </trkpt>
      <trkpt lat="45.8807" lon="6.7261">
        <ele>1629</ele>
        <time>2022-08-26T18:29:11Z</time>
      </trkpt>
      <trkpt lat="45.88071" lon="6.72607">
        <ele>1628</ele>
        <time>2022-08-26T18:29:12Z</time>
      </trkpt>
      <trkpt lat="45.88073" lon="6.72604">
        <ele>1628</ele>
        <time>2022-08-26T18:29:13Z</time>
      </trkpt>
      <trkpt lat="45.88074" lon="6.72602">
        <ele>1628</ele>
        <time>2022-08-26T18:29:14Z</time>
      </trkpt>
      <trkpt lat="45.88075" lon="6.726">
        <ele>1627</ele>
        <time>2022-08-26T18:29:15Z</time>
      </trkpt>
      <trkpt lat="45.88077" lon="6.72598">
        <ele>1626</ele>
        <time>2022-08-26T18:29:16Z</time>
      </trkpt>
      <trkpt lat="45.8808" lon="6.72594">
        <ele>1626</ele>
        <time>2022-08-26T18:29:17Z</time>
      </trkpt>
      <trkpt lat="45.88081" lon="6.72593">
        <ele>1626</ele>
        <time>2022-08-26T18:29:18Z</time>
      </trkpt>
      <trkpt lat="45.88082" lon="6.72591">
        <ele>1625</ele>
        <time>2022-08-26T18:29:19Z</time>
      </trkpt>
      <trkpt lat="45.88086" lon="6.72589">
        <ele>1624</ele>
        <time>2022-08-26T18:29:21Z</time>
      </trkpt>
      <trkpt lat="45.88089" lon="6.72587">
        <ele>1623</ele>
        <time>2022-08-26T18:29:23Z</time>
      </trkpt>
      <trkpt lat="45.88091" lon="6.72585">
        <ele>1623</ele>
        <time>2022-08-26T18:29:24Z</time>
      </trkpt>
      <trkpt lat="45.88094" lon="6.72583">
        <ele>1623</ele>
        <time>2022-08-26T18:29:25Z</time>
      </trkpt>
      <trkpt lat="45.88097" lon="6.7258">
        <ele>1622</ele>
        <time>2022-08-26T18:29:26Z</time>
      </trkpt>
      <trkpt lat="45.88099" lon="6.72577">
        <ele>1622</ele>
        <time>2022-08-26T18:29:28Z</time>
      </trkpt>
      <trkpt lat="45.88102" lon="6.72574">
        <ele>1621</ele>
        <time>2022-08-26T18:29:29Z</time>
      </trkpt>
      <trkpt lat="45.88103" lon="6.72573">
        <ele>1620</ele>
        <time>2022-08-26T18:29:30Z</time>
      </trkpt>
      <trkpt lat="45.88105" lon="6.72572">
        <ele>1620</ele>
        <time>2022-08-26T18:29:31Z</time>
      </trkpt>
      <trkpt lat="45.88106" lon="6.72572">
        <ele>1620</ele>
        <time>2022-08-26T18:29:32Z</time>
      </trkpt>
      <trkpt lat="45.88108" lon="6.72569">
        <ele>1620</ele>
        <time>2022-08-26T18:29:33Z</time>
      </trkpt>
      <trkpt lat="45.88111" lon="6.72566">
        <ele>1619</ele>
        <time>2022-08-26T18:29:34Z</time>
      </trkpt>
      <trkpt lat="45.88109" lon="6.72563">
        <ele>1619</ele>
        <time>2022-08-26T18:29:36Z</time>
      </trkpt>
      <trkpt lat="45.88108" lon="6.72564">
        <ele>1617</ele>
        <time>2022-08-26T18:29:38Z</time>
      </trkpt>
      <trkpt lat="45.88106" lon="6.72565">
        <ele>1617</ele>
        <time>2022-08-26T18:29:39Z</time>
      </trkpt>
      <trkpt lat="45.88104" lon="6.72567">
        <ele>1617</ele>
        <time>2022-08-26T18:29:40Z</time>
      </trkpt>
      <trkpt lat="45.88102" lon="6.72568">
        <ele>1617</ele>
        <time>2022-08-26T18:29:41Z</time>
      </trkpt>
      <trkpt lat="45.881" lon="6.72569">
        <ele>1616</ele>
        <time>2022-08-26T18:29:42Z</time>
      </trkpt>
      <trkpt lat="45.88098" lon="6.72571">
        <ele>1616</ele>
        <time>2022-08-26T18:29:43Z</time>
      </trkpt>
      <trkpt lat="45.88095" lon="6.72572">
        <ele>1615</ele>
        <time>2022-08-26T18:29:44Z</time>
      </trkpt>
      <trkpt lat="45.88092" lon="6.72574">
        <ele>1614</ele>
        <time>2022-08-26T18:29:45Z</time>
      </trkpt>
      <trkpt lat="45.8809" lon="6.72575">
        <ele>1614</ele>
        <time>2022-08-26T18:29:46Z</time>
      </trkpt>
      <trkpt lat="45.88087" lon="6.72577">
        <ele>1613</ele>
        <time>2022-08-26T18:29:47Z</time>
      </trkpt>
      <trkpt lat="45.88086" lon="6.72578">
        <ele>1613</ele>
        <time>2022-08-26T18:29:48Z</time>
      </trkpt>
      <trkpt lat="45.88083" lon="6.72579">
        <ele>1613</ele>
        <time>2022-08-26T18:29:50Z</time>
      </trkpt>
      <trkpt lat="45.88081" lon="6.7258">
        <ele>1612</ele>
        <time>2022-08-26T18:29:52Z</time>
      </trkpt>
      <trkpt lat="45.88079" lon="6.72581">
        <ele>1612</ele>
        <time>2022-08-26T18:29:53Z</time>
      </trkpt>
      <trkpt lat="45.88072" lon="6.72585">
        <ele>1612</ele>
        <time>2022-08-26T18:29:54Z</time>
      </trkpt>
      <trkpt lat="45.8807" lon="6.72585">
        <ele>1611</ele>
        <time>2022-08-26T18:29:55Z</time>
      </trkpt>
      <trkpt lat="45.88068" lon="6.72586">
        <ele>1610</ele>
        <time>2022-08-26T18:29:56Z</time>
      </trkpt>
      <trkpt lat="45.88066" lon="6.72586">
        <ele>1609</ele>
        <time>2022-08-26T18:29:57Z</time>
      </trkpt>
      <trkpt lat="45.88064" lon="6.72586">
        <ele>1609</ele>
        <time>2022-08-26T18:29:58Z</time>
      </trkpt>
      <trkpt lat="45.88061" lon="6.72586">
        <ele>1609</ele>
        <time>2022-08-26T18:29:59Z</time>
      </trkpt>
      <trkpt lat="45.88059" lon="6.72586">
        <ele>1608</ele>
        <time>2022-08-26T18:30:00Z</time>
      </trkpt>
      <trkpt lat="45.88055" lon="6.72586">
        <ele>1608</ele>
        <time>2022-08-26T18:30:01Z</time>
      </trkpt>
      <trkpt lat="45.88054" lon="6.72586">
        <ele>1607</ele>
        <time>2022-08-26T18:30:02Z</time>
      </trkpt>
      <trkpt lat="45.88052" lon="6.72587">
        <ele>1606</ele>
        <time>2022-08-26T18:30:03Z</time>
      </trkpt>
      <trkpt lat="45.8805" lon="6.72587">
        <ele>1606</ele>
        <time>2022-08-26T18:30:04Z</time>
      </trkpt>
      <trkpt lat="45.88048" lon="6.72589">
        <ele>1605</ele>
        <time>2022-08-26T18:30:05Z</time>
      </trkpt>
      <trkpt lat="45.88044" lon="6.72589">
        <ele>1605</ele>
        <time>2022-08-26T18:30:06Z</time>
      </trkpt>
      <trkpt lat="45.88043" lon="6.7259">
        <ele>1605</ele>
        <time>2022-08-26T18:30:07Z</time>
      </trkpt>
      <trkpt lat="45.8804" lon="6.72591">
        <ele>1604</ele>
        <time>2022-08-26T18:30:08Z</time>
      </trkpt>
      <trkpt lat="45.88038" lon="6.72592">
        <ele>1603</ele>
        <time>2022-08-26T18:30:09Z</time>
      </trkpt>
      <trkpt lat="45.88035" lon="6.72592">
        <ele>1603</ele>
        <time>2022-08-26T18:30:10Z</time>
      </trkpt>
      <trkpt lat="45.88034" lon="6.72592">
        <ele>1603</ele>
        <time>2022-08-26T18:30:11Z</time>
      </trkpt>
      <trkpt lat="45.88032" lon="6.7259">
        <ele>1602</ele>
        <time>2022-08-26T18:30:12Z</time>
      </trkpt>
      <trkpt lat="45.8803" lon="6.72587">
        <ele>1601</ele>
        <time>2022-08-26T18:30:13Z</time>
      </trkpt>
      <trkpt lat="45.8803" lon="6.72584">
        <ele>1601</ele>
        <time>2022-08-26T18:30:14Z</time>
      </trkpt>
      <trkpt lat="45.88031" lon="6.72579">
        <ele>1601</ele>
        <time>2022-08-26T18:30:15Z</time>
      </trkpt>
      <trkpt lat="45.88031" lon="6.72578">
        <ele>1601</ele>
        <time>2022-08-26T18:30:16Z</time>
      </trkpt>
      <trkpt lat="45.88033" lon="6.72576">
        <ele>1600</ele>
        <time>2022-08-26T18:30:17Z</time>
      </trkpt>
      <trkpt lat="45.88035" lon="6.72574">
        <ele>1600</ele>
        <time>2022-08-26T18:30:18Z</time>
      </trkpt>
      <trkpt lat="45.88036" lon="6.72573">
        <ele>1598</ele>
        <time>2022-08-26T18:30:19Z</time>
      </trkpt>
      <trkpt lat="45.88039" lon="6.72571">
        <ele>1598</ele>
        <time>2022-08-26T18:30:20Z</time>
      </trkpt>
      <trkpt lat="45.88041" lon="6.7257">
        <ele>1598</ele>
        <time>2022-08-26T18:30:21Z</time>
      </trkpt>
      <trkpt lat="45.88043" lon="6.72568">
        <ele>1597</ele>
        <time>2022-08-26T18:30:22Z</time>
      </trkpt>
      <trkpt lat="45.88046" lon="6.72565">
        <ele>1597</ele>
        <time>2022-08-26T18:30:23Z</time>
      </trkpt>
      <trkpt lat="45.88047" lon="6.72564">
        <ele>1596</ele>
        <time>2022-08-26T18:30:24Z</time>
      </trkpt>
      <trkpt lat="45.88049" lon="6.72562">
        <ele>1595</ele>
        <time>2022-08-26T18:30:26Z</time>
      </trkpt>
      <trkpt lat="45.88051" lon="6.7256">
        <ele>1595</ele>
        <time>2022-08-26T18:30:27Z</time>
      </trkpt>
      <trkpt lat="45.88052" lon="6.72559">
        <ele>1594</ele>
        <time>2022-08-26T18:30:28Z</time>
      </trkpt>
      <trkpt lat="45.88054" lon="6.72557">
        <ele>1594</ele>
        <time>2022-08-26T18:30:29Z</time>
      </trkpt>
      <trkpt lat="45.88056" lon="6.72555">
        <ele>1594</ele>
        <time>2022-08-26T18:30:30Z</time>
      </trkpt>
      <trkpt lat="45.88058" lon="6.72553">
        <ele>1591</ele>
        <time>2022-08-26T18:30:32Z</time>
      </trkpt>
      <trkpt lat="45.88061" lon="6.7255">
        <ele>1591</ele>
        <time>2022-08-26T18:30:33Z</time>
      </trkpt>
      <trkpt lat="45.88064" lon="6.72548">
        <ele>1591</ele>
        <time>2022-08-26T18:30:34Z</time>
      </trkpt>
      <trkpt lat="45.88066" lon="6.72545">
        <ele>1591</ele>
        <time>2022-08-26T18:30:35Z</time>
      </trkpt>
      <trkpt lat="45.88068" lon="6.72543">
        <ele>1590</ele>
        <time>2022-08-26T18:30:36Z</time>
      </trkpt>
      <trkpt lat="45.8807" lon="6.72541">
        <ele>1590</ele>
        <time>2022-08-26T18:30:37Z</time>
      </trkpt>
      <trkpt lat="45.88072" lon="6.72538">
        <ele>1590</ele>
        <time>2022-08-26T18:30:38Z</time>
      </trkpt>
      <trkpt lat="45.8808" lon="6.72528">
        <ele>1588</ele>
        <time>2022-08-26T18:30:43Z</time>
      </trkpt>
      <trkpt lat="45.8808" lon="6.72525">
        <ele>1587</ele>
        <time>2022-08-26T18:30:45Z</time>
      </trkpt>
      <trkpt lat="45.8808" lon="6.72522">
        <ele>1586</ele>
        <time>2022-08-26T18:30:46Z</time>
      </trkpt>
      <trkpt lat="45.88081" lon="6.72519">
        <ele>1586</ele>
        <time>2022-08-26T18:30:47Z</time>
      </trkpt>
      <trkpt lat="45.88081" lon="6.72516">
        <ele>1586</ele>
        <time>2022-08-26T18:30:48Z</time>
      </trkpt>
      <trkpt lat="45.88082" lon="6.72513">
        <ele>1585</ele>
        <time>2022-08-26T18:30:49Z</time>
      </trkpt>
      <trkpt lat="45.88083" lon="6.72509">
        <ele>1585</ele>
        <time>2022-08-26T18:30:50Z</time>
      </trkpt>
      <trkpt lat="45.88084" lon="6.72506">
        <ele>1584</ele>
        <time>2022-08-26T18:30:51Z</time>
      </trkpt>
      <trkpt lat="45.88085" lon="6.72503">
        <ele>1584</ele>
        <time>2022-08-26T18:30:52Z</time>
      </trkpt>
      <trkpt lat="45.88086" lon="6.725">
        <ele>1583</ele>
        <time>2022-08-26T18:30:53Z</time>
      </trkpt>
      <trkpt lat="45.88087" lon="6.72499">
        <ele>1582</ele>
        <time>2022-08-26T18:30:54Z</time>
      </trkpt>
      <trkpt lat="45.88088" lon="6.72498">
        <ele>1582</ele>
        <time>2022-08-26T18:30:55Z</time>
      </trkpt>
      <trkpt lat="45.88089" lon="6.72497">
        <ele>1581</ele>
        <time>2022-08-26T18:30:56Z</time>
      </trkpt>
      <trkpt lat="45.88098" lon="6.72491">
        <ele>1580</ele>
        <time>2022-08-26T18:30:58Z</time>
      </trkpt>
      <trkpt lat="45.881" lon="6.72489">
        <ele>1580</ele>
        <time>2022-08-26T18:30:59Z</time>
      </trkpt>
      <trkpt lat="45.88103" lon="6.72487">
        <ele>1580</ele>
        <time>2022-08-26T18:31:00Z</time>
      </trkpt>
      <trkpt lat="45.88105" lon="6.72485">
        <ele>1579</ele>
        <time>2022-08-26T18:31:01Z</time>
      </trkpt>
      <trkpt lat="45.88109" lon="6.72482">
        <ele>1579</ele>
        <time>2022-08-26T18:31:03Z</time>
      </trkpt>
      <trkpt lat="45.88113" lon="6.72479">
        <ele>1578</ele>
        <time>2022-08-26T18:31:04Z</time>
      </trkpt>
      <trkpt lat="45.88122" lon="6.7247">
        <ele>1578</ele>
        <time>2022-08-26T18:31:08Z</time>
      </trkpt>
      <trkpt lat="45.88124" lon="6.72468">
        <ele>1577</ele>
        <time>2022-08-26T18:31:09Z</time>
      </trkpt>
      <trkpt lat="45.88126" lon="6.72467">
        <ele>1577</ele>
        <time>2022-08-26T18:31:10Z</time>
      </trkpt>
      <trkpt lat="45.88128" lon="6.72465">
        <ele>1577</ele>
        <time>2022-08-26T18:31:11Z</time>
      </trkpt>
      <trkpt lat="45.8813" lon="6.72464">
        <ele>1577</ele>
        <time>2022-08-26T18:31:12Z</time>
      </trkpt>
      <trkpt lat="45.88132" lon="6.72462">
        <ele>1576</ele>
        <time>2022-08-26T18:31:13Z</time>
      </trkpt>
      <trkpt lat="45.88134" lon="6.7246">
        <ele>1576</ele>
        <time>2022-08-26T18:31:14Z</time>
      </trkpt>
      <trkpt lat="45.88136" lon="6.72457">
        <ele>1576</ele>
        <time>2022-08-26T18:31:15Z</time>
      </trkpt>
      <trkpt lat="45.88139" lon="6.72455">
        <ele>1576</ele>
        <time>2022-08-26T18:31:16Z</time>
      </trkpt>
      <trkpt lat="45.88141" lon="6.72452">
        <ele>1575</ele>
        <time>2022-08-26T18:31:18Z</time>
      </trkpt>
      <trkpt lat="45.88142" lon="6.7245">
        <ele>1574</ele>
        <time>2022-08-26T18:31:20Z</time>
      </trkpt>
      <trkpt lat="45.88144" lon="6.72448">
        <ele>1574</ele>
        <time>2022-08-26T18:31:21Z</time>
      </trkpt>
      <trkpt lat="45.88146" lon="6.72446">
        <ele>1574</ele>
        <time>2022-08-26T18:31:22Z</time>
      </trkpt>
      <trkpt lat="45.88148" lon="6.72445">
        <ele>1573</ele>
        <time>2022-08-26T18:31:23Z</time>
      </trkpt>
      <trkpt lat="45.8815" lon="6.72443">
        <ele>1573</ele>
        <time>2022-08-26T18:31:24Z</time>
      </trkpt>
      <trkpt lat="45.88152" lon="6.72442">
        <ele>1573</ele>
        <time>2022-08-26T18:31:25Z</time>
      </trkpt>
      <trkpt lat="45.88154" lon="6.72441">
        <ele>1573</ele>
        <time>2022-08-26T18:31:26Z</time>
      </trkpt>
      <trkpt lat="45.88157" lon="6.7244">
        <ele>1573</ele>
        <time>2022-08-26T18:31:27Z</time>
      </trkpt>
      <trkpt lat="45.88158" lon="6.72438">
        <ele>1572</ele>
        <time>2022-08-26T18:31:29Z</time>
      </trkpt>
      <trkpt lat="45.8816" lon="6.72437">
        <ele>1572</ele>
        <time>2022-08-26T18:31:30Z</time>
      </trkpt>
      <trkpt lat="45.88161" lon="6.72436">
        <ele>1572</ele>
        <time>2022-08-26T18:31:31Z</time>
      </trkpt>
      <trkpt lat="45.88167" lon="6.7243">
        <ele>1571</ele>
        <time>2022-08-26T18:31:32Z</time>
      </trkpt>
      <trkpt lat="45.88169" lon="6.72428">
        <ele>1570</ele>
        <time>2022-08-26T18:31:34Z</time>
      </trkpt>
      <trkpt lat="45.8817" lon="6.72426">
        <ele>1570</ele>
        <time>2022-08-26T18:31:35Z</time>
      </trkpt>
      <trkpt lat="45.88174" lon="6.72421">
        <ele>1569</ele>
        <time>2022-08-26T18:31:36Z</time>
      </trkpt>
      <trkpt lat="45.88183" lon="6.72415">
        <ele>1568</ele>
        <time>2022-08-26T18:31:39Z</time>
      </trkpt>
      <trkpt lat="45.88184" lon="6.72413">
        <ele>1567</ele>
        <time>2022-08-26T18:31:40Z</time>
      </trkpt>
      <trkpt lat="45.88186" lon="6.72411">
        <ele>1566</ele>
        <time>2022-08-26T18:31:41Z</time>
      </trkpt>
      <trkpt lat="45.88187" lon="6.72409">
        <ele>1566</ele>
        <time>2022-08-26T18:31:42Z</time>
      </trkpt>
      <trkpt lat="45.88189" lon="6.72408">
        <ele>1566</ele>
        <time>2022-08-26T18:31:43Z</time>
      </trkpt>
      <trkpt lat="45.8819" lon="6.72406">
        <ele>1564</ele>
        <time>2022-08-26T18:31:44Z</time>
      </trkpt>
      <trkpt lat="45.88192" lon="6.72404">
        <ele>1564</ele>
        <time>2022-08-26T18:31:46Z</time>
      </trkpt>
      <trkpt lat="45.88193" lon="6.72402">
        <ele>1564</ele>
        <time>2022-08-26T18:31:47Z</time>
      </trkpt>
      <trkpt lat="45.88195" lon="6.724">
        <ele>1563</ele>
        <time>2022-08-26T18:31:48Z</time>
      </trkpt>
      <trkpt lat="45.88196" lon="6.72398">
        <ele>1563</ele>
        <time>2022-08-26T18:31:49Z</time>
      </trkpt>
      <trkpt lat="45.88198" lon="6.72396">
        <ele>1562</ele>
        <time>2022-08-26T18:31:50Z</time>
      </trkpt>
      <trkpt lat="45.882" lon="6.72395">
        <ele>1562</ele>
        <time>2022-08-26T18:31:51Z</time>
      </trkpt>
      <trkpt lat="45.88201" lon="6.72394">
        <ele>1561</ele>
        <time>2022-08-26T18:31:52Z</time>
      </trkpt>
      <trkpt lat="45.88203" lon="6.72392">
        <ele>1561</ele>
        <time>2022-08-26T18:31:53Z</time>
      </trkpt>
      <trkpt lat="45.88205" lon="6.72391">
        <ele>1561</ele>
        <time>2022-08-26T18:31:54Z</time>
      </trkpt>
      <trkpt lat="45.88207" lon="6.7239">
        <ele>1559</ele>
        <time>2022-08-26T18:31:55Z</time>
      </trkpt>
      <trkpt lat="45.88208" lon="6.72389">
        <ele>1559</ele>
        <time>2022-08-26T18:31:56Z</time>
      </trkpt>
      <trkpt lat="45.88209" lon="6.72388">
        <ele>1559</ele>
        <time>2022-08-26T18:31:57Z</time>
      </trkpt>
      <trkpt lat="45.8821" lon="6.72387">
        <ele>1558</ele>
        <time>2022-08-26T18:31:58Z</time>
      </trkpt>
      <trkpt lat="45.88217" lon="6.72379">
        <ele>1557</ele>
        <time>2022-08-26T18:32:00Z</time>
      </trkpt>
      <trkpt lat="45.88219" lon="6.72377">
        <ele>1557</ele>
        <time>2022-08-26T18:32:01Z</time>
      </trkpt>
      <trkpt lat="45.88221" lon="6.72375">
        <ele>1556</ele>
        <time>2022-08-26T18:32:02Z</time>
      </trkpt>
      <trkpt lat="45.88223" lon="6.72374">
        <ele>1556</ele>
        <time>2022-08-26T18:32:03Z</time>
      </trkpt>
      <trkpt lat="45.88224" lon="6.72372">
        <ele>1555</ele>
        <time>2022-08-26T18:32:04Z</time>
      </trkpt>
      <trkpt lat="45.88227" lon="6.72369">
        <ele>1554</ele>
        <time>2022-08-26T18:32:05Z</time>
      </trkpt>
      <trkpt lat="45.8823" lon="6.72367">
        <ele>1554</ele>
        <time>2022-08-26T18:32:06Z</time>
      </trkpt>
      <trkpt lat="45.88232" lon="6.72364">
        <ele>1553</ele>
        <time>2022-08-26T18:32:07Z</time>
      </trkpt>
      <trkpt lat="45.88234" lon="6.72363">
        <ele>1552</ele>
        <time>2022-08-26T18:32:08Z</time>
      </trkpt>
      <trkpt lat="45.88236" lon="6.72362">
        <ele>1552</ele>
        <time>2022-08-26T18:32:09Z</time>
      </trkpt>
      <trkpt lat="45.88238" lon="6.72361">
        <ele>1551</ele>
        <time>2022-08-26T18:32:10Z</time>
      </trkpt>
      <trkpt lat="45.88239" lon="6.7236">
        <ele>1551</ele>
        <time>2022-08-26T18:32:11Z</time>
      </trkpt>
      <trkpt lat="45.88241" lon="6.72359">
        <ele>1550</ele>
        <time>2022-08-26T18:32:12Z</time>
      </trkpt>
      <trkpt lat="45.88244" lon="6.72356">
        <ele>1549</ele>
        <time>2022-08-26T18:32:13Z</time>
      </trkpt>
      <trkpt lat="45.88247" lon="6.72353">
        <ele>1549</ele>
        <time>2022-08-26T18:32:15Z</time>
      </trkpt>
      <trkpt lat="45.88249" lon="6.7235">
        <ele>1549</ele>
        <time>2022-08-26T18:32:16Z</time>
      </trkpt>
      <trkpt lat="45.88251" lon="6.72349">
        <ele>1549</ele>
        <time>2022-08-26T18:32:17Z</time>
      </trkpt>
      <trkpt lat="45.88253" lon="6.72348">
        <ele>1548</ele>
        <time>2022-08-26T18:32:18Z</time>
      </trkpt>
      <trkpt lat="45.88255" lon="6.72347">
        <ele>1547</ele>
        <time>2022-08-26T18:32:20Z</time>
      </trkpt>
      <trkpt lat="45.88256" lon="6.72346">
        <ele>1547</ele>
        <time>2022-08-26T18:32:21Z</time>
      </trkpt>
      <trkpt lat="45.88258" lon="6.72345">
        <ele>1546</ele>
        <time>2022-08-26T18:32:22Z</time>
      </trkpt>
      <trkpt lat="45.88263" lon="6.72344">
        <ele>1545</ele>
        <time>2022-08-26T18:32:24Z</time>
      </trkpt>
      <trkpt lat="45.88268" lon="6.72343">
        <ele>1545</ele>
        <time>2022-08-26T18:32:25Z</time>
      </trkpt>
      <trkpt lat="45.8827" lon="6.7234">
        <ele>1544</ele>
        <time>2022-08-26T18:32:26Z</time>
      </trkpt>
      <trkpt lat="45.88272" lon="6.72338">
        <ele>1543</ele>
        <time>2022-08-26T18:32:28Z</time>
      </trkpt>
      <trkpt lat="45.88274" lon="6.72336">
        <ele>1543</ele>
        <time>2022-08-26T18:32:29Z</time>
      </trkpt>
      <trkpt lat="45.88276" lon="6.72334">
        <ele>1542</ele>
        <time>2022-08-26T18:32:30Z</time>
      </trkpt>
      <trkpt lat="45.88279" lon="6.72332">
        <ele>1542</ele>
        <time>2022-08-26T18:32:31Z</time>
      </trkpt>
      <trkpt lat="45.88282" lon="6.7233">
        <ele>1541</ele>
        <time>2022-08-26T18:32:32Z</time>
      </trkpt>
      <trkpt lat="45.88284" lon="6.72328">
        <ele>1540</ele>
        <time>2022-08-26T18:32:33Z</time>
      </trkpt>
      <trkpt lat="45.88286" lon="6.72328">
        <ele>1539</ele>
        <time>2022-08-26T18:32:35Z</time>
      </trkpt>
      <trkpt lat="45.88287" lon="6.72328">
        <ele>1538</ele>
        <time>2022-08-26T18:32:37Z</time>
      </trkpt>
      <trkpt lat="45.88288" lon="6.72327">
        <ele>1538</ele>
        <time>2022-08-26T18:32:38Z</time>
      </trkpt>
      <trkpt lat="45.88296" lon="6.72324">
        <ele>1536</ele>
        <time>2022-08-26T18:32:40Z</time>
      </trkpt>
      <trkpt lat="45.88297" lon="6.72323">
        <ele>1536</ele>
        <time>2022-08-26T18:32:42Z</time>
      </trkpt>
      <trkpt lat="45.88298" lon="6.72321">
        <ele>1535</ele>
        <time>2022-08-26T18:32:43Z</time>
      </trkpt>
      <trkpt lat="45.883" lon="6.7232">
        <ele>1535</ele>
        <time>2022-08-26T18:32:44Z</time>
      </trkpt>
      <trkpt lat="45.88305" lon="6.72315">
        <ele>1534</ele>
        <time>2022-08-26T18:32:45Z</time>
      </trkpt>
      <trkpt lat="45.88308" lon="6.72313">
        <ele>1534</ele>
        <time>2022-08-26T18:32:46Z</time>
      </trkpt>
      <trkpt lat="45.88309" lon="6.72312">
        <ele>1532</ele>
        <time>2022-08-26T18:32:47Z</time>
      </trkpt>
      <trkpt lat="45.88311" lon="6.72311">
        <ele>1532</ele>
        <time>2022-08-26T18:32:48Z</time>
      </trkpt>
      <trkpt lat="45.88315" lon="6.72308">
        <ele>1532</ele>
        <time>2022-08-26T18:32:49Z</time>
      </trkpt>
      <trkpt lat="45.88316" lon="6.72307">
        <ele>1531</ele>
        <time>2022-08-26T18:32:50Z</time>
      </trkpt>
      <trkpt lat="45.88318" lon="6.72306">
        <ele>1531</ele>
        <time>2022-08-26T18:32:51Z</time>
      </trkpt>
      <trkpt lat="45.8832" lon="6.72304">
        <ele>1531</ele>
        <time>2022-08-26T18:32:52Z</time>
      </trkpt>
      <trkpt lat="45.88321" lon="6.72301">
        <ele>1530</ele>
        <time>2022-08-26T18:32:53Z</time>
      </trkpt>
      <trkpt lat="45.88324" lon="6.72298">
        <ele>1530</ele>
        <time>2022-08-26T18:32:54Z</time>
      </trkpt>
      <trkpt lat="45.88325" lon="6.72296">
        <ele>1529</ele>
        <time>2022-08-26T18:32:55Z</time>
      </trkpt>
      <trkpt lat="45.88327" lon="6.72295">
        <ele>1529</ele>
        <time>2022-08-26T18:32:56Z</time>
      </trkpt>
      <trkpt lat="45.88329" lon="6.72293">
        <ele>1529</ele>
        <time>2022-08-26T18:32:57Z</time>
      </trkpt>
      <trkpt lat="45.8833" lon="6.72292">
        <ele>1528</ele>
        <time>2022-08-26T18:32:58Z</time>
      </trkpt>
      <trkpt lat="45.88339" lon="6.72286">
        <ele>1527</ele>
        <time>2022-08-26T18:33:02Z</time>
      </trkpt>
      <trkpt lat="45.8834" lon="6.72286">
        <ele>1526</ele>
        <time>2022-08-26T18:33:03Z</time>
      </trkpt>
      <trkpt lat="45.88341" lon="6.72285">
        <ele>1525</ele>
        <time>2022-08-26T18:33:04Z</time>
      </trkpt>
      <trkpt lat="45.88343" lon="6.72284">
        <ele>1525</ele>
        <time>2022-08-26T18:33:05Z</time>
      </trkpt>
      <trkpt lat="45.88344" lon="6.72283">
        <ele>1524</ele>
        <time>2022-08-26T18:33:06Z</time>
      </trkpt>
      <trkpt lat="45.88345" lon="6.72283">
        <ele>1524</ele>
        <time>2022-08-26T18:33:07Z</time>
      </trkpt>
      <trkpt lat="45.88351" lon="6.72279">
        <ele>1523</ele>
        <time>2022-08-26T18:33:08Z</time>
      </trkpt>
      <trkpt lat="45.88353" lon="6.72277">
        <ele>1523</ele>
        <time>2022-08-26T18:33:09Z</time>
      </trkpt>
      <trkpt lat="45.88355" lon="6.72275">
        <ele>1523</ele>
        <time>2022-08-26T18:33:10Z</time>
      </trkpt>
      <trkpt lat="45.88358" lon="6.72273">
        <ele>1522</ele>
        <time>2022-08-26T18:33:12Z</time>
      </trkpt>
      <trkpt lat="45.8836" lon="6.72271">
        <ele>1520</ele>
        <time>2022-08-26T18:33:13Z</time>
      </trkpt>
      <trkpt lat="45.88363" lon="6.72269">
        <ele>1519</ele>
        <time>2022-08-26T18:33:15Z</time>
      </trkpt>
      <trkpt lat="45.88367" lon="6.72266">
        <ele>1518</ele>
        <time>2022-08-26T18:33:16Z</time>
      </trkpt>
      <trkpt lat="45.88369" lon="6.72265">
        <ele>1518</ele>
        <time>2022-08-26T18:33:17Z</time>
      </trkpt>
      <trkpt lat="45.88371" lon="6.72263">
        <ele>1517</ele>
        <time>2022-08-26T18:33:18Z</time>
      </trkpt>
      <trkpt lat="45.88374" lon="6.7226">
        <ele>1516</ele>
        <time>2022-08-26T18:33:20Z</time>
      </trkpt>
      <trkpt lat="45.88377" lon="6.72257">
        <ele>1515</ele>
        <time>2022-08-26T18:33:22Z</time>
      </trkpt>
      <trkpt lat="45.88379" lon="6.72254">
        <ele>1514</ele>
        <time>2022-08-26T18:33:23Z</time>
      </trkpt>
      <trkpt lat="45.8838" lon="6.72253">
        <ele>1513</ele>
        <time>2022-08-26T18:33:24Z</time>
      </trkpt>
      <trkpt lat="45.88381" lon="6.72252">
        <ele>1513</ele>
        <time>2022-08-26T18:33:25Z</time>
      </trkpt>
      <trkpt lat="45.88383" lon="6.7225">
        <ele>1513</ele>
        <time>2022-08-26T18:33:26Z</time>
      </trkpt>
      <trkpt lat="45.88384" lon="6.72249">
        <ele>1513</ele>
        <time>2022-08-26T18:33:27Z</time>
      </trkpt>
      <trkpt lat="45.88385" lon="6.72248">
        <ele>1512</ele>
        <time>2022-08-26T18:33:28Z</time>
      </trkpt>
      <trkpt lat="45.88386" lon="6.72246">
        <ele>1512</ele>
        <time>2022-08-26T18:33:29Z</time>
      </trkpt>
      <trkpt lat="45.88388" lon="6.72245">
        <ele>1511</ele>
        <time>2022-08-26T18:33:30Z</time>
      </trkpt>
      <trkpt lat="45.8839" lon="6.72242">
        <ele>1510</ele>
        <time>2022-08-26T18:33:31Z</time>
      </trkpt>
      <trkpt lat="45.88392" lon="6.72239">
        <ele>1509</ele>
        <time>2022-08-26T18:33:32Z</time>
      </trkpt>
      <trkpt lat="45.88394" lon="6.72236">
        <ele>1508</ele>
        <time>2022-08-26T18:33:33Z</time>
      </trkpt>
      <trkpt lat="45.88396" lon="6.72235">
        <ele>1508</ele>
        <time>2022-08-26T18:33:35Z</time>
      </trkpt>
      <trkpt lat="45.88398" lon="6.72234">
        <ele>1507</ele>
        <time>2022-08-26T18:33:36Z</time>
      </trkpt>
      <trkpt lat="45.884" lon="6.72232">
        <ele>1506</ele>
        <time>2022-08-26T18:33:37Z</time>
      </trkpt>
      <trkpt lat="45.88401" lon="6.72231">
        <ele>1506</ele>
        <time>2022-08-26T18:33:38Z</time>
      </trkpt>
      <trkpt lat="45.88403" lon="6.7223">
        <ele>1505</ele>
        <time>2022-08-26T18:33:39Z</time>
      </trkpt>
      <trkpt lat="45.88405" lon="6.72228">
        <ele>1505</ele>
        <time>2022-08-26T18:33:40Z</time>
      </trkpt>
      <trkpt lat="45.88406" lon="6.72227">
        <ele>1505</ele>
        <time>2022-08-26T18:33:41Z</time>
      </trkpt>
      <trkpt lat="45.88408" lon="6.72225">
        <ele>1504</ele>
        <time>2022-08-26T18:33:42Z</time>
      </trkpt>
      <trkpt lat="45.8841" lon="6.72223">
        <ele>1504</ele>
        <time>2022-08-26T18:33:43Z</time>
      </trkpt>
      <trkpt lat="45.88411" lon="6.72222">
        <ele>1502</ele>
        <time>2022-08-26T18:33:44Z</time>
      </trkpt>
      <trkpt lat="45.88413" lon="6.7222">
        <ele>1501</ele>
        <time>2022-08-26T18:33:45Z</time>
      </trkpt>
      <trkpt lat="45.88414" lon="6.72219">
        <ele>1500</ele>
        <time>2022-08-26T18:33:46Z</time>
      </trkpt>
      <trkpt lat="45.88416" lon="6.72218">
        <ele>1500</ele>
        <time>2022-08-26T18:33:47Z</time>
      </trkpt>
      <trkpt lat="45.88418" lon="6.72216">
        <ele>1500</ele>
        <time>2022-08-26T18:33:48Z</time>
      </trkpt>
      <trkpt lat="45.88419" lon="6.72215">
        <ele>1500</ele>
        <time>2022-08-26T18:33:49Z</time>
      </trkpt>
      <trkpt lat="45.88422" lon="6.72212">
        <ele>1499</ele>
        <time>2022-08-26T18:33:50Z</time>
      </trkpt>
      <trkpt lat="45.88424" lon="6.72209">
        <ele>1498</ele>
        <time>2022-08-26T18:33:51Z</time>
      </trkpt>
      <trkpt lat="45.88427" lon="6.72206">
        <ele>1497</ele>
        <time>2022-08-26T18:33:52Z</time>
      </trkpt>
      <trkpt lat="45.8843" lon="6.72204">
        <ele>1496</ele>
        <time>2022-08-26T18:33:54Z</time>
      </trkpt>
      <trkpt lat="45.88433" lon="6.72202">
        <ele>1496</ele>
        <time>2022-08-26T18:33:55Z</time>
      </trkpt>
      <trkpt lat="45.88436" lon="6.72199">
        <ele>1495</ele>
        <time>2022-08-26T18:33:56Z</time>
      </trkpt>
      <trkpt lat="45.88438" lon="6.72197">
        <ele>1495</ele>
        <time>2022-08-26T18:33:57Z</time>
      </trkpt>
      <trkpt lat="45.8844" lon="6.72195">
        <ele>1494</ele>
        <time>2022-08-26T18:33:59Z</time>
      </trkpt>
      <trkpt lat="45.88443" lon="6.72193">
        <ele>1494</ele>
        <time>2022-08-26T18:34:00Z</time>
      </trkpt>
      <trkpt lat="45.88445" lon="6.72191">
        <ele>1494</ele>
        <time>2022-08-26T18:34:01Z</time>
      </trkpt>
      <trkpt lat="45.88448" lon="6.72189">
        <ele>1493</ele>
        <time>2022-08-26T18:34:02Z</time>
      </trkpt>
      <trkpt lat="45.88451" lon="6.72187">
        <ele>1492</ele>
        <time>2022-08-26T18:34:03Z</time>
      </trkpt>
      <trkpt lat="45.88453" lon="6.72185">
        <ele>1492</ele>
        <time>2022-08-26T18:34:04Z</time>
      </trkpt>
      <trkpt lat="45.88458" lon="6.72183">
        <ele>1491</ele>
        <time>2022-08-26T18:34:06Z</time>
      </trkpt>
      <trkpt lat="45.88463" lon="6.72181">
        <ele>1490</ele>
        <time>2022-08-26T18:34:07Z</time>
      </trkpt>
      <trkpt lat="45.88465" lon="6.72181">
        <ele>1490</ele>
        <time>2022-08-26T18:34:08Z</time>
      </trkpt>
      <trkpt lat="45.88467" lon="6.7218">
        <ele>1490</ele>
        <time>2022-08-26T18:34:09Z</time>
      </trkpt>
      <trkpt lat="45.8847" lon="6.7218">
        <ele>1490</ele>
        <time>2022-08-26T18:34:10Z</time>
      </trkpt>
      <trkpt lat="45.88472" lon="6.72179">
        <ele>1490</ele>
        <time>2022-08-26T18:34:11Z</time>
      </trkpt>
      <trkpt lat="45.88474" lon="6.7218">
        <ele>1489</ele>
        <time>2022-08-26T18:34:12Z</time>
      </trkpt>
      <trkpt lat="45.88476" lon="6.72182">
        <ele>1488</ele>
        <time>2022-08-26T18:34:13Z</time>
      </trkpt>
      <trkpt lat="45.88478" lon="6.72183">
        <ele>1487</ele>
        <time>2022-08-26T18:34:14Z</time>
      </trkpt>
      <trkpt lat="45.88486" lon="6.72188">
        <ele>1487</ele>
        <time>2022-08-26T18:34:15Z</time>
      </trkpt>
      <trkpt lat="45.88487" lon="6.72188">
        <ele>1486</ele>
        <time>2022-08-26T18:34:16Z</time>
      </trkpt>
      <trkpt lat="45.88492" lon="6.72188">
        <ele>1486</ele>
        <time>2022-08-26T18:34:17Z</time>
      </trkpt>
      <trkpt lat="45.88493" lon="6.72188">
        <ele>1486</ele>
        <time>2022-08-26T18:34:18Z</time>
      </trkpt>
      <trkpt lat="45.88496" lon="6.72188">
        <ele>1483</ele>
        <time>2022-08-26T18:34:19Z</time>
      </trkpt>
      <trkpt lat="45.88498" lon="6.72187">
        <ele>1483</ele>
        <time>2022-08-26T18:34:20Z</time>
      </trkpt>
      <trkpt lat="45.88501" lon="6.72187">
        <ele>1483</ele>
        <time>2022-08-26T18:34:21Z</time>
      </trkpt>
      <trkpt lat="45.88503" lon="6.72187">
        <ele>1483</ele>
        <time>2022-08-26T18:34:22Z</time>
      </trkpt>
      <trkpt lat="45.88505" lon="6.72186">
        <ele>1483</ele>
        <time>2022-08-26T18:34:23Z</time>
      </trkpt>
      <trkpt lat="45.88507" lon="6.72185">
        <ele>1482</ele>
        <time>2022-08-26T18:34:24Z</time>
      </trkpt>
      <trkpt lat="45.88509" lon="6.72183">
        <ele>1482</ele>
        <time>2022-08-26T18:34:25Z</time>
      </trkpt>
      <trkpt lat="45.88512" lon="6.72182">
        <ele>1481</ele>
        <time>2022-08-26T18:34:26Z</time>
      </trkpt>
      <trkpt lat="45.88514" lon="6.72182">
        <ele>1481</ele>
        <time>2022-08-26T18:34:27Z</time>
      </trkpt>
      <trkpt lat="45.88518" lon="6.7218">
        <ele>1479</ele>
        <time>2022-08-26T18:34:29Z</time>
      </trkpt>
      <trkpt lat="45.8852" lon="6.72179">
        <ele>1479</ele>
        <time>2022-08-26T18:34:30Z</time>
      </trkpt>
      <trkpt lat="45.88523" lon="6.72178">
        <ele>1479</ele>
        <time>2022-08-26T18:34:31Z</time>
      </trkpt>
      <trkpt lat="45.88524" lon="6.72178">
        <ele>1477</ele>
        <time>2022-08-26T18:34:32Z</time>
      </trkpt>
      <trkpt lat="45.88527" lon="6.72177">
        <ele>1477</ele>
        <time>2022-08-26T18:34:33Z</time>
      </trkpt>
      <trkpt lat="45.88528" lon="6.72176">
        <ele>1477</ele>
        <time>2022-08-26T18:34:34Z</time>
      </trkpt>
      <trkpt lat="45.88531" lon="6.72176">
        <ele>1476</ele>
        <time>2022-08-26T18:34:35Z</time>
      </trkpt>
      <trkpt lat="45.88533" lon="6.72176">
        <ele>1476</ele>
        <time>2022-08-26T18:34:36Z</time>
      </trkpt>
      <trkpt lat="45.88535" lon="6.72175">
        <ele>1475</ele>
        <time>2022-08-26T18:34:37Z</time>
      </trkpt>
      <trkpt lat="45.88537" lon="6.72174">
        <ele>1474</ele>
        <time>2022-08-26T18:34:38Z</time>
      </trkpt>
      <trkpt lat="45.88539" lon="6.72174">
        <ele>1473</ele>
        <time>2022-08-26T18:34:39Z</time>
      </trkpt>
      <trkpt lat="45.88541" lon="6.72173">
        <ele>1472</ele>
        <time>2022-08-26T18:34:40Z</time>
      </trkpt>
      <trkpt lat="45.88543" lon="6.72173">
        <ele>1472</ele>
        <time>2022-08-26T18:34:41Z</time>
      </trkpt>
      <trkpt lat="45.88546" lon="6.72172">
        <ele>1472</ele>
        <time>2022-08-26T18:34:42Z</time>
      </trkpt>
      <trkpt lat="45.88547" lon="6.72172">
        <ele>1471</ele>
        <time>2022-08-26T18:34:43Z</time>
      </trkpt>
      <trkpt lat="45.88549" lon="6.72171">
        <ele>1471</ele>
        <time>2022-08-26T18:34:44Z</time>
      </trkpt>
      <trkpt lat="45.88554" lon="6.72164">
        <ele>1470</ele>
        <time>2022-08-26T18:34:47Z</time>
      </trkpt>
      <trkpt lat="45.88556" lon="6.72163">
        <ele>1469</ele>
        <time>2022-08-26T18:34:48Z</time>
      </trkpt>
      <trkpt lat="45.88558" lon="6.72161">
        <ele>1468</ele>
        <time>2022-08-26T18:34:49Z</time>
      </trkpt>
      <trkpt lat="45.8856" lon="6.7216">
        <ele>1467</ele>
        <time>2022-08-26T18:34:51Z</time>
      </trkpt>
      <trkpt lat="45.88562" lon="6.72158">
        <ele>1467</ele>
        <time>2022-08-26T18:34:52Z</time>
      </trkpt>
      <trkpt lat="45.88571" lon="6.72151">
        <ele>1465</ele>
        <time>2022-08-26T18:34:56Z</time>
      </trkpt>
      <trkpt lat="45.88573" lon="6.7215">
        <ele>1462</ele>
        <time>2022-08-26T18:34:58Z</time>
      </trkpt>
      <trkpt lat="45.88576" lon="6.72149">
        <ele>1462</ele>
        <time>2022-08-26T18:34:59Z</time>
      </trkpt>
      <trkpt lat="45.88578" lon="6.72148">
        <ele>1462</ele>
        <time>2022-08-26T18:35:00Z</time>
      </trkpt>
      <trkpt lat="45.8858" lon="6.72148">
        <ele>1461</ele>
        <time>2022-08-26T18:35:01Z</time>
      </trkpt>
      <trkpt lat="45.88584" lon="6.72147">
        <ele>1461</ele>
        <time>2022-08-26T18:35:02Z</time>
      </trkpt>
      <trkpt lat="45.88587" lon="6.72147">
        <ele>1461</ele>
        <time>2022-08-26T18:35:03Z</time>
      </trkpt>
      <trkpt lat="45.8859" lon="6.72146">
        <ele>1460</ele>
        <time>2022-08-26T18:35:04Z</time>
      </trkpt>
      <trkpt lat="45.88593" lon="6.72145">
        <ele>1459</ele>
        <time>2022-08-26T18:35:06Z</time>
      </trkpt>
      <trkpt lat="45.88596" lon="6.72143">
        <ele>1458</ele>
        <time>2022-08-26T18:35:08Z</time>
      </trkpt>
      <trkpt lat="45.886" lon="6.72142">
        <ele>1457</ele>
        <time>2022-08-26T18:35:09Z</time>
      </trkpt>
      <trkpt lat="45.88602" lon="6.72142">
        <ele>1456</ele>
        <time>2022-08-26T18:35:10Z</time>
      </trkpt>
      <trkpt lat="45.88604" lon="6.72142">
        <ele>1456</ele>
        <time>2022-08-26T18:35:11Z</time>
      </trkpt>
      <trkpt lat="45.88606" lon="6.72141">
        <ele>1456</ele>
        <time>2022-08-26T18:35:12Z</time>
      </trkpt>
      <trkpt lat="45.88609" lon="6.72141">
        <ele>1455</ele>
        <time>2022-08-26T18:35:13Z</time>
      </trkpt>
      <trkpt lat="45.8861" lon="6.7214">
        <ele>1454</ele>
        <time>2022-08-26T18:35:15Z</time>
      </trkpt>
      <trkpt lat="45.88612" lon="6.72139">
        <ele>1452</ele>
        <time>2022-08-26T18:35:16Z</time>
      </trkpt>
      <trkpt lat="45.88614" lon="6.72139">
        <ele>1451</ele>
        <time>2022-08-26T18:35:17Z</time>
      </trkpt>
      <trkpt lat="45.88616" lon="6.72138">
        <ele>1451</ele>
        <time>2022-08-26T18:35:18Z</time>
      </trkpt>
      <trkpt lat="45.88618" lon="6.72137">
        <ele>1451</ele>
        <time>2022-08-26T18:35:19Z</time>
      </trkpt>
      <trkpt lat="45.8862" lon="6.72136">
        <ele>1451</ele>
        <time>2022-08-26T18:35:20Z</time>
      </trkpt>
      <trkpt lat="45.88621" lon="6.72136">
        <ele>1451</ele>
        <time>2022-08-26T18:35:21Z</time>
      </trkpt>
      <trkpt lat="45.88623" lon="6.72135">
        <ele>1451</ele>
        <time>2022-08-26T18:35:22Z</time>
      </trkpt>
      <trkpt lat="45.88625" lon="6.72135">
        <ele>1451</ele>
        <time>2022-08-26T18:35:23Z</time>
      </trkpt>
      <trkpt lat="45.88627" lon="6.72134">
        <ele>1450</ele>
        <time>2022-08-26T18:35:24Z</time>
      </trkpt>
      <trkpt lat="45.88626" lon="6.72133">
        <ele>1450</ele>
        <time>2022-08-26T18:35:25Z</time>
      </trkpt>
      <trkpt lat="45.88626" lon="6.72132">
        <ele>1449</ele>
        <time>2022-08-26T18:35:27Z</time>
      </trkpt>
      <trkpt lat="45.88625" lon="6.72131">
        <ele>1448</ele>
        <time>2022-08-26T18:35:28Z</time>
      </trkpt>
      <trkpt lat="45.88625" lon="6.7213">
        <ele>1447</ele>
        <time>2022-08-26T18:35:29Z</time>
      </trkpt>
      <trkpt lat="45.88624" lon="6.72129">
        <ele>1447</ele>
        <time>2022-08-26T18:35:30Z</time>
      </trkpt>
      <trkpt lat="45.88624" lon="6.72128">
        <ele>1447</ele>
        <time>2022-08-26T18:35:31Z</time>
      </trkpt>
      <trkpt lat="45.88623" lon="6.72127">
        <ele>1446</ele>
        <time>2022-08-26T18:35:32Z</time>
      </trkpt>
      <trkpt lat="45.8862" lon="6.72125">
        <ele>1446</ele>
        <time>2022-08-26T18:35:33Z</time>
      </trkpt>
      <trkpt lat="45.88619" lon="6.72124">
        <ele>1446</ele>
        <time>2022-08-26T18:35:34Z</time>
      </trkpt>
      <trkpt lat="45.88617" lon="6.72123">
        <ele>1444</ele>
        <time>2022-08-26T18:35:35Z</time>
      </trkpt>
      <trkpt lat="45.88615" lon="6.72122">
        <ele>1443</ele>
        <time>2022-08-26T18:35:36Z</time>
      </trkpt>
      <trkpt lat="45.88613" lon="6.72121">
        <ele>1442</ele>
        <time>2022-08-26T18:35:37Z</time>
      </trkpt>
      <trkpt lat="45.88609" lon="6.72119">
        <ele>1442</ele>
        <time>2022-08-26T18:35:38Z</time>
      </trkpt>
      <trkpt lat="45.88608" lon="6.72119">
        <ele>1442</ele>
        <time>2022-08-26T18:35:39Z</time>
      </trkpt>
      <trkpt lat="45.88606" lon="6.72119">
        <ele>1441</ele>
        <time>2022-08-26T18:35:40Z</time>
      </trkpt>
      <trkpt lat="45.88604" lon="6.72119">
        <ele>1441</ele>
        <time>2022-08-26T18:35:41Z</time>
      </trkpt>
      <trkpt lat="45.88602" lon="6.72118">
        <ele>1441</ele>
        <time>2022-08-26T18:35:42Z</time>
      </trkpt>
      <trkpt lat="45.88597" lon="6.72117">
        <ele>1439</ele>
        <time>2022-08-26T18:35:44Z</time>
      </trkpt>
      <trkpt lat="45.88595" lon="6.72116">
        <ele>1439</ele>
        <time>2022-08-26T18:35:45Z</time>
      </trkpt>
      <trkpt lat="45.88593" lon="6.72115">
        <ele>1439</ele>
        <time>2022-08-26T18:35:46Z</time>
      </trkpt>
      <trkpt lat="45.88591" lon="6.72115">
        <ele>1439</ele>
        <time>2022-08-26T18:35:47Z</time>
      </trkpt>
      <trkpt lat="45.88587" lon="6.72113">
        <ele>1437</ele>
        <time>2022-08-26T18:35:49Z</time>
      </trkpt>
      <trkpt lat="45.88587" lon="6.7211">
        <ele>1437</ele>
        <time>2022-08-26T18:35:50Z</time>
      </trkpt>
      <trkpt lat="45.88586" lon="6.72107">
        <ele>1437</ele>
        <time>2022-08-26T18:35:51Z</time>
      </trkpt>
      <trkpt lat="45.88586" lon="6.72105">
        <ele>1437</ele>
        <time>2022-08-26T18:35:52Z</time>
      </trkpt>
      <trkpt lat="45.88586" lon="6.72102">
        <ele>1436</ele>
        <time>2022-08-26T18:35:53Z</time>
      </trkpt>
      <trkpt lat="45.88589" lon="6.72097">
        <ele>1435</ele>
        <time>2022-08-26T18:35:55Z</time>
      </trkpt>
      <trkpt lat="45.88592" lon="6.72095">
        <ele>1435</ele>
        <time>2022-08-26T18:35:56Z</time>
      </trkpt>
      <trkpt lat="45.88593" lon="6.72094">
        <ele>1435</ele>
        <time>2022-08-26T18:35:57Z</time>
      </trkpt>
      <trkpt lat="45.88596" lon="6.72093">
        <ele>1434</ele>
        <time>2022-08-26T18:35:58Z</time>
      </trkpt>
      <trkpt lat="45.88598" lon="6.72092">
        <ele>1434</ele>
        <time>2022-08-26T18:35:59Z</time>
      </trkpt>
      <trkpt lat="45.88602" lon="6.72092">
        <ele>1434</ele>
        <time>2022-08-26T18:36:00Z</time>
      </trkpt>
      <trkpt lat="45.88603" lon="6.72092">
        <ele>1432</ele>
        <time>2022-08-26T18:36:01Z</time>
      </trkpt>
      <trkpt lat="45.88606" lon="6.72092">
        <ele>1432</ele>
        <time>2022-08-26T18:36:02Z</time>
      </trkpt>
      <trkpt lat="45.88608" lon="6.72092">
        <ele>1432</ele>
        <time>2022-08-26T18:36:03Z</time>
      </trkpt>
      <trkpt lat="45.8861" lon="6.72092">
        <ele>1432</ele>
        <time>2022-08-26T18:36:04Z</time>
      </trkpt>
      <trkpt lat="45.88612" lon="6.72092">
        <ele>1432</ele>
        <time>2022-08-26T18:36:05Z</time>
      </trkpt>
      <trkpt lat="45.88614" lon="6.72091">
        <ele>1431</ele>
        <time>2022-08-26T18:36:06Z</time>
      </trkpt>
      <trkpt lat="45.88616" lon="6.7209">
        <ele>1430</ele>
        <time>2022-08-26T18:36:07Z</time>
      </trkpt>
      <trkpt lat="45.88618" lon="6.72089">
        <ele>1429</ele>
        <time>2022-08-26T18:36:08Z</time>
      </trkpt>
      <trkpt lat="45.88621" lon="6.72088">
        <ele>1429</ele>
        <time>2022-08-26T18:36:09Z</time>
      </trkpt>
      <trkpt lat="45.88623" lon="6.72087">
        <ele>1429</ele>
        <time>2022-08-26T18:36:10Z</time>
      </trkpt>
      <trkpt lat="45.88625" lon="6.72087">
        <ele>1429</ele>
        <time>2022-08-26T18:36:11Z</time>
      </trkpt>
      <trkpt lat="45.88628" lon="6.72087">
        <ele>1428</ele>
        <time>2022-08-26T18:36:12Z</time>
      </trkpt>
      <trkpt lat="45.8863" lon="6.72087">
        <ele>1428</ele>
        <time>2022-08-26T18:36:13Z</time>
      </trkpt>
      <trkpt lat="45.88632" lon="6.72087">
        <ele>1428</ele>
        <time>2022-08-26T18:36:14Z</time>
      </trkpt>
      <trkpt lat="45.88635" lon="6.72086">
        <ele>1426</ele>
        <time>2022-08-26T18:36:15Z</time>
      </trkpt>
      <trkpt lat="45.88638" lon="6.72085">
        <ele>1426</ele>
        <time>2022-08-26T18:36:16Z</time>
      </trkpt>
      <trkpt lat="45.88639" lon="6.72084">
        <ele>1424</ele>
        <time>2022-08-26T18:36:17Z</time>
      </trkpt>
      <trkpt lat="45.88641" lon="6.72084">
        <ele>1424</ele>
        <time>2022-08-26T18:36:18Z</time>
      </trkpt>
      <trkpt lat="45.88643" lon="6.72084">
        <ele>1424</ele>
        <time>2022-08-26T18:36:19Z</time>
      </trkpt>
      <trkpt lat="45.88645" lon="6.72084">
        <ele>1423</ele>
        <time>2022-08-26T18:36:20Z</time>
      </trkpt>
      <trkpt lat="45.88649" lon="6.72085">
        <ele>1423</ele>
        <time>2022-08-26T18:36:21Z</time>
      </trkpt>
      <trkpt lat="45.8865" lon="6.72086">
        <ele>1422</ele>
        <time>2022-08-26T18:36:22Z</time>
      </trkpt>
      <trkpt lat="45.88652" lon="6.72086">
        <ele>1422</ele>
        <time>2022-08-26T18:36:23Z</time>
      </trkpt>
      <trkpt lat="45.88654" lon="6.72086">
        <ele>1421</ele>
        <time>2022-08-26T18:36:24Z</time>
      </trkpt>
      <trkpt lat="45.88656" lon="6.72087">
        <ele>1420</ele>
        <time>2022-08-26T18:36:25Z</time>
      </trkpt>
      <trkpt lat="45.88659" lon="6.72087">
        <ele>1420</ele>
        <time>2022-08-26T18:36:26Z</time>
      </trkpt>
      <trkpt lat="45.8866" lon="6.72087">
        <ele>1420</ele>
        <time>2022-08-26T18:36:27Z</time>
      </trkpt>
      <trkpt lat="45.88669" lon="6.72089">
        <ele>1419</ele>
        <time>2022-08-26T18:36:31Z</time>
      </trkpt>
      <trkpt lat="45.88671" lon="6.72089">
        <ele>1419</ele>
        <time>2022-08-26T18:36:32Z</time>
      </trkpt>
      <trkpt lat="45.88674" lon="6.72089">
        <ele>1418</ele>
        <time>2022-08-26T18:36:33Z</time>
      </trkpt>
      <trkpt lat="45.88676" lon="6.7209">
        <ele>1418</ele>
        <time>2022-08-26T18:36:34Z</time>
      </trkpt>
      <trkpt lat="45.88678" lon="6.72089">
        <ele>1417</ele>
        <time>2022-08-26T18:36:35Z</time>
      </trkpt>
      <trkpt lat="45.8868" lon="6.72089">
        <ele>1416</ele>
        <time>2022-08-26T18:36:36Z</time>
      </trkpt>
      <trkpt lat="45.88682" lon="6.72089">
        <ele>1416</ele>
        <time>2022-08-26T18:36:37Z</time>
      </trkpt>
      <trkpt lat="45.88684" lon="6.72089">
        <ele>1416</ele>
        <time>2022-08-26T18:36:38Z</time>
      </trkpt>
      <trkpt lat="45.88687" lon="6.72089">
        <ele>1415</ele>
        <time>2022-08-26T18:36:39Z</time>
      </trkpt>
      <trkpt lat="45.88691" lon="6.72087">
        <ele>1414</ele>
        <time>2022-08-26T18:36:41Z</time>
      </trkpt>
      <trkpt lat="45.88694" lon="6.72085">
        <ele>1414</ele>
        <time>2022-08-26T18:36:42Z</time>
      </trkpt>
      <trkpt lat="45.88697" lon="6.72084">
        <ele>1413</ele>
        <time>2022-08-26T18:36:43Z</time>
      </trkpt>
      <trkpt lat="45.88699" lon="6.72083">
        <ele>1413</ele>
        <time>2022-08-26T18:36:44Z</time>
      </trkpt>
      <trkpt lat="45.88701" lon="6.72081">
        <ele>1413</ele>
        <time>2022-08-26T18:36:46Z</time>
      </trkpt>
      <trkpt lat="45.88702" lon="6.7208">
        <ele>1412</ele>
        <time>2022-08-26T18:36:47Z</time>
      </trkpt>
      <trkpt lat="45.88708" lon="6.72076">
        <ele>1412</ele>
        <time>2022-08-26T18:36:48Z</time>
      </trkpt>
      <trkpt lat="45.88709" lon="6.72075">
        <ele>1411</ele>
        <time>2022-08-26T18:36:50Z</time>
      </trkpt>
      <trkpt lat="45.88709" lon="6.72075">
        <ele>1411</ele>
        <time>2022-08-26T18:36:51Z</time>
      </trkpt>
      <trkpt lat="45.8871" lon="6.72075">
        <ele>1411</ele>
        <time>2022-08-26T18:36:52Z</time>
      </trkpt>
      <trkpt lat="45.8872" lon="6.72071">
        <ele>1410</ele>
        <time>2022-08-26T18:36:54Z</time>
      </trkpt>
      <trkpt lat="45.88722" lon="6.72071">
        <ele>1410</ele>
        <time>2022-08-26T18:36:55Z</time>
      </trkpt>
      <trkpt lat="45.88725" lon="6.7207">
        <ele>1409</ele>
        <time>2022-08-26T18:36:56Z</time>
      </trkpt>
      <trkpt lat="45.88727" lon="6.72069">
        <ele>1409</ele>
        <time>2022-08-26T18:36:57Z</time>
      </trkpt>
      <trkpt lat="45.8873" lon="6.72069">
        <ele>1408</ele>
        <time>2022-08-26T18:36:58Z</time>
      </trkpt>
      <trkpt lat="45.88732" lon="6.72068">
        <ele>1408</ele>
        <time>2022-08-26T18:36:59Z</time>
      </trkpt>
      <trkpt lat="45.88734" lon="6.72068">
        <ele>1407</ele>
        <time>2022-08-26T18:37:00Z</time>
      </trkpt>
      <trkpt lat="45.88736" lon="6.72068">
        <ele>1407</ele>
        <time>2022-08-26T18:37:01Z</time>
      </trkpt>
      <trkpt lat="45.88737" lon="6.72069">
        <ele>1407</ele>
        <time>2022-08-26T18:37:02Z</time>
      </trkpt>
      <trkpt lat="45.88738" lon="6.72069">
        <ele>1406</ele>
        <time>2022-08-26T18:37:03Z</time>
      </trkpt>
      <trkpt lat="45.88741" lon="6.72069">
        <ele>1405</ele>
        <time>2022-08-26T18:37:04Z</time>
      </trkpt>
      <trkpt lat="45.88745" lon="6.72069">
        <ele>1405</ele>
        <time>2022-08-26T18:37:05Z</time>
      </trkpt>
      <trkpt lat="45.88748" lon="6.72068">
        <ele>1405</ele>
        <time>2022-08-26T18:37:06Z</time>
      </trkpt>
      <trkpt lat="45.8875" lon="6.72067">
        <ele>1404</ele>
        <time>2022-08-26T18:37:08Z</time>
      </trkpt>
      <trkpt lat="45.88752" lon="6.72066">
        <ele>1403</ele>
        <time>2022-08-26T18:37:09Z</time>
      </trkpt>
      <trkpt lat="45.88754" lon="6.72065">
        <ele>1403</ele>
        <time>2022-08-26T18:37:10Z</time>
      </trkpt>
      <trkpt lat="45.8876" lon="6.72062">
        <ele>1403</ele>
        <time>2022-08-26T18:37:11Z</time>
      </trkpt>
      <trkpt lat="45.88764" lon="6.7206">
        <ele>1402</ele>
        <time>2022-08-26T18:37:13Z</time>
      </trkpt>
      <trkpt lat="45.88767" lon="6.72059">
        <ele>1402</ele>
        <time>2022-08-26T18:37:14Z</time>
      </trkpt>
      <trkpt lat="45.88769" lon="6.72058">
        <ele>1402</ele>
        <time>2022-08-26T18:37:15Z</time>
      </trkpt>
      <trkpt lat="45.88771" lon="6.72057">
        <ele>1401</ele>
        <time>2022-08-26T18:37:16Z</time>
      </trkpt>
      <trkpt lat="45.88773" lon="6.72056">
        <ele>1401</ele>
        <time>2022-08-26T18:37:17Z</time>
      </trkpt>
      <trkpt lat="45.88777" lon="6.72056">
        <ele>1401</ele>
        <time>2022-08-26T18:37:18Z</time>
      </trkpt>
      <trkpt lat="45.88778" lon="6.72056">
        <ele>1400</ele>
        <time>2022-08-26T18:37:19Z</time>
      </trkpt>
      <trkpt lat="45.8878" lon="6.72056">
        <ele>1400</ele>
        <time>2022-08-26T18:37:20Z</time>
      </trkpt>
      <trkpt lat="45.88782" lon="6.72056">
        <ele>1399</ele>
        <time>2022-08-26T18:37:21Z</time>
      </trkpt>
      <trkpt lat="45.88784" lon="6.72055">
        <ele>1398</ele>
        <time>2022-08-26T18:37:22Z</time>
      </trkpt>
      <trkpt lat="45.88786" lon="6.72055">
        <ele>1398</ele>
        <time>2022-08-26T18:37:24Z</time>
      </trkpt>
      <trkpt lat="45.88788" lon="6.72054">
        <ele>1398</ele>
        <time>2022-08-26T18:37:25Z</time>
      </trkpt>
      <trkpt lat="45.8879" lon="6.72054">
        <ele>1396</ele>
        <time>2022-08-26T18:37:26Z</time>
      </trkpt>
      <trkpt lat="45.88788" lon="6.72051">
        <ele>1393</ele>
        <time>2022-08-26T18:37:31Z</time>
      </trkpt>
      <trkpt lat="45.88786" lon="6.72049">
        <ele>1392</ele>
        <time>2022-08-26T18:37:33Z</time>
      </trkpt>
      <trkpt lat="45.88785" lon="6.72046">
        <ele>1390</ele>
        <time>2022-08-26T18:37:35Z</time>
      </trkpt>
      <trkpt lat="45.88783" lon="6.72044">
        <ele>1390</ele>
        <time>2022-08-26T18:37:37Z</time>
      </trkpt>
      <trkpt lat="45.8878" lon="6.72041">
        <ele>1389</ele>
        <time>2022-08-26T18:37:38Z</time>
      </trkpt>
      <trkpt lat="45.88778" lon="6.72039">
        <ele>1389</ele>
        <time>2022-08-26T18:37:39Z</time>
      </trkpt>
      <trkpt lat="45.88776" lon="6.72038">
        <ele>1388</ele>
        <time>2022-08-26T18:37:40Z</time>
      </trkpt>
      <trkpt lat="45.88774" lon="6.72037">
        <ele>1388</ele>
        <time>2022-08-26T18:37:42Z</time>
      </trkpt>
      <trkpt lat="45.88772" lon="6.72036">
        <ele>1388</ele>
        <time>2022-08-26T18:37:43Z</time>
      </trkpt>
      <trkpt lat="45.88765" lon="6.72033">
        <ele>1387</ele>
        <time>2022-08-26T18:37:44Z</time>
      </trkpt>
      <trkpt lat="45.88763" lon="6.72032">
        <ele>1387</ele>
        <time>2022-08-26T18:37:45Z</time>
      </trkpt>
      <trkpt lat="45.88759" lon="6.72032">
        <ele>1387</ele>
        <time>2022-08-26T18:37:47Z</time>
      </trkpt>
      <trkpt lat="45.88755" lon="6.72031">
        <ele>1387</ele>
        <time>2022-08-26T18:37:49Z</time>
      </trkpt>
      <trkpt lat="45.88753" lon="6.72031">
        <ele>1385</ele>
        <time>2022-08-26T18:37:51Z</time>
      </trkpt>
      <trkpt lat="45.88752" lon="6.72031">
        <ele>1385</ele>
        <time>2022-08-26T18:37:52Z</time>
      </trkpt>
      <trkpt lat="45.8875" lon="6.72031">
        <ele>1384</ele>
        <time>2022-08-26T18:37:53Z</time>
      </trkpt>
      <trkpt lat="45.88748" lon="6.72031">
        <ele>1384</ele>
        <time>2022-08-26T18:37:54Z</time>
      </trkpt>
      <trkpt lat="45.88747" lon="6.72031">
        <ele>1384</ele>
        <time>2022-08-26T18:37:55Z</time>
      </trkpt>
      <trkpt lat="45.88745" lon="6.72031">
        <ele>1383</ele>
        <time>2022-08-26T18:37:56Z</time>
      </trkpt>
      <trkpt lat="45.88743" lon="6.72031">
        <ele>1382</ele>
        <time>2022-08-26T18:37:57Z</time>
      </trkpt>
      <trkpt lat="45.88741" lon="6.7203">
        <ele>1381</ele>
        <time>2022-08-26T18:37:58Z</time>
      </trkpt>
      <trkpt lat="45.88739" lon="6.7203">
        <ele>1381</ele>
        <time>2022-08-26T18:37:59Z</time>
      </trkpt>
      <trkpt lat="45.88737" lon="6.72029">
        <ele>1381</ele>
        <time>2022-08-26T18:38:00Z</time>
      </trkpt>
      <trkpt lat="45.88735" lon="6.72029">
        <ele>1380</ele>
        <time>2022-08-26T18:38:01Z</time>
      </trkpt>
      <trkpt lat="45.88743" lon="6.72018">
        <ele>1380</ele>
        <time>2022-08-26T18:38:06Z</time>
      </trkpt>
      <trkpt lat="45.88745" lon="6.72016">
        <ele>1379</ele>
        <time>2022-08-26T18:38:08Z</time>
      </trkpt>
      <trkpt lat="45.88746" lon="6.72015">
        <ele>1378</ele>
        <time>2022-08-26T18:38:10Z</time>
      </trkpt>
      <trkpt lat="45.88748" lon="6.72014">
        <ele>1377</ele>
        <time>2022-08-26T18:38:11Z</time>
      </trkpt>
      <trkpt lat="45.88749" lon="6.72013">
        <ele>1376</ele>
        <time>2022-08-26T18:38:12Z</time>
      </trkpt>
      <trkpt lat="45.8875" lon="6.72011">
        <ele>1376</ele>
        <time>2022-08-26T18:38:13Z</time>
      </trkpt>
      <trkpt lat="45.88752" lon="6.7201">
        <ele>1376</ele>
        <time>2022-08-26T18:38:14Z</time>
      </trkpt>
      <trkpt lat="45.88753" lon="6.72009">
        <ele>1375</ele>
        <time>2022-08-26T18:38:15Z</time>
      </trkpt>
      <trkpt lat="45.88755" lon="6.72007">
        <ele>1375</ele>
        <time>2022-08-26T18:38:16Z</time>
      </trkpt>
      <trkpt lat="45.88757" lon="6.72006">
        <ele>1375</ele>
        <time>2022-08-26T18:38:17Z</time>
      </trkpt>
      <trkpt lat="45.88759" lon="6.72004">
        <ele>1375</ele>
        <time>2022-08-26T18:38:18Z</time>
      </trkpt>
      <trkpt lat="45.88761" lon="6.72002">
        <ele>1374</ele>
        <time>2022-08-26T18:38:19Z</time>
      </trkpt>
      <trkpt lat="45.88769" lon="6.71995">
        <ele>1372</ele>
        <time>2022-08-26T18:38:25Z</time>
      </trkpt>
      <trkpt lat="45.88771" lon="6.71994">
        <ele>1372</ele>
        <time>2022-08-26T18:38:26Z</time>
      </trkpt>
      <trkpt lat="45.88773" lon="6.71993">
        <ele>1372</ele>
        <time>2022-08-26T18:38:27Z</time>
      </trkpt>
      <trkpt lat="45.88775" lon="6.71993">
        <ele>1372</ele>
        <time>2022-08-26T18:38:29Z</time>
      </trkpt>
      <trkpt lat="45.88777" lon="6.71992">
        <ele>1372</ele>
        <time>2022-08-26T18:38:30Z</time>
      </trkpt>
      <trkpt lat="45.88779" lon="6.71991">
        <ele>1372</ele>
        <time>2022-08-26T18:38:31Z</time>
      </trkpt>
      <trkpt lat="45.88781" lon="6.7199">
        <ele>1372</ele>
        <time>2022-08-26T18:38:32Z</time>
      </trkpt>
      <trkpt lat="45.88782" lon="6.7199">
        <ele>1371</ele>
        <time>2022-08-26T18:38:34Z</time>
      </trkpt>
      <trkpt lat="45.88784" lon="6.71989">
        <ele>1371</ele>
        <time>2022-08-26T18:38:35Z</time>
      </trkpt>
      <trkpt lat="45.88785" lon="6.71988">
        <ele>1371</ele>
        <time>2022-08-26T18:38:36Z</time>
      </trkpt>
      <trkpt lat="45.88787" lon="6.71988">
        <ele>1370</ele>
        <time>2022-08-26T18:38:37Z</time>
      </trkpt>
      <trkpt lat="45.88788" lon="6.71987">
        <ele>1370</ele>
        <time>2022-08-26T18:38:38Z</time>
      </trkpt>
      <trkpt lat="45.8879" lon="6.71986">
        <ele>1369</ele>
        <time>2022-08-26T18:38:39Z</time>
      </trkpt>
      <trkpt lat="45.88792" lon="6.71988">
        <ele>1368</ele>
        <time>2022-08-26T18:38:41Z</time>
      </trkpt>
      <trkpt lat="45.88795" lon="6.7199">
        <ele>1368</ele>
        <time>2022-08-26T18:38:42Z</time>
      </trkpt>
      <trkpt lat="45.88797" lon="6.71991">
        <ele>1368</ele>
        <time>2022-08-26T18:38:43Z</time>
      </trkpt>
      <trkpt lat="45.888" lon="6.71993">
        <ele>1367</ele>
        <time>2022-08-26T18:38:44Z</time>
      </trkpt>
      <trkpt lat="45.88802" lon="6.71995">
        <ele>1366</ele>
        <time>2022-08-26T18:38:46Z</time>
      </trkpt>
      <trkpt lat="45.88805" lon="6.71997">
        <ele>1366</ele>
        <time>2022-08-26T18:38:47Z</time>
      </trkpt>
      <trkpt lat="45.88808" lon="6.71999">
        <ele>1365</ele>
        <time>2022-08-26T18:38:48Z</time>
      </trkpt>
      <trkpt lat="45.88811" lon="6.71999">
        <ele>1364</ele>
        <time>2022-08-26T18:38:49Z</time>
      </trkpt>
      <trkpt lat="45.88813" lon="6.71999">
        <ele>1364</ele>
        <time>2022-08-26T18:38:51Z</time>
      </trkpt>
      <trkpt lat="45.88816" lon="6.71999">
        <ele>1364</ele>
        <time>2022-08-26T18:38:52Z</time>
      </trkpt>
      <trkpt lat="45.88818" lon="6.71999">
        <ele>1363</ele>
        <time>2022-08-26T18:38:53Z</time>
      </trkpt>
      <trkpt lat="45.88819" lon="6.71998">
        <ele>1363</ele>
        <time>2022-08-26T18:38:54Z</time>
      </trkpt>
      <trkpt lat="45.88821" lon="6.71996">
        <ele>1362</ele>
        <time>2022-08-26T18:38:56Z</time>
      </trkpt>
      <trkpt lat="45.88822" lon="6.71995">
        <ele>1362</ele>
        <time>2022-08-26T18:38:57Z</time>
      </trkpt>
      <trkpt lat="45.88823" lon="6.71994">
        <ele>1362</ele>
        <time>2022-08-26T18:38:58Z</time>
      </trkpt>
      <trkpt lat="45.88824" lon="6.71992">
        <ele>1362</ele>
        <time>2022-08-26T18:38:59Z</time>
      </trkpt>
      <trkpt lat="45.88826" lon="6.71991">
        <ele>1361</ele>
        <time>2022-08-26T18:39:00Z</time>
      </trkpt>
      <trkpt lat="45.88827" lon="6.7199">
        <ele>1360</ele>
        <time>2022-08-26T18:39:01Z</time>
      </trkpt>
      <trkpt lat="45.88828" lon="6.71988">
        <ele>1359</ele>
        <time>2022-08-26T18:39:03Z</time>
      </trkpt>
      <trkpt lat="45.88829" lon="6.71987">
        <ele>1357</ele>
        <time>2022-08-26T18:39:04Z</time>
      </trkpt>
      <trkpt lat="45.88831" lon="6.71986">
        <ele>1356</ele>
        <time>2022-08-26T18:39:05Z</time>
      </trkpt>
      <trkpt lat="45.88832" lon="6.71984">
        <ele>1356</ele>
        <time>2022-08-26T18:39:06Z</time>
      </trkpt>
      <trkpt lat="45.88833" lon="6.71983">
        <ele>1356</ele>
        <time>2022-08-26T18:39:07Z</time>
      </trkpt>
      <trkpt lat="45.88835" lon="6.71981">
        <ele>1356</ele>
        <time>2022-08-26T18:39:08Z</time>
      </trkpt>
      <trkpt lat="45.88836" lon="6.71979">
        <ele>1356</ele>
        <time>2022-08-26T18:39:09Z</time>
      </trkpt>
      <trkpt lat="45.88838" lon="6.71977">
        <ele>1356</ele>
        <time>2022-08-26T18:39:10Z</time>
      </trkpt>
      <trkpt lat="45.88839" lon="6.71975">
        <ele>1356</ele>
        <time>2022-08-26T18:39:11Z</time>
      </trkpt>
      <trkpt lat="45.8884" lon="6.71973">
        <ele>1356</ele>
        <time>2022-08-26T18:39:12Z</time>
      </trkpt>
      <trkpt lat="45.88842" lon="6.71971">
        <ele>1356</ele>
        <time>2022-08-26T18:39:13Z</time>
      </trkpt>
      <trkpt lat="45.88844" lon="6.71969">
        <ele>1356</ele>
        <time>2022-08-26T18:39:14Z</time>
      </trkpt>
      <trkpt lat="45.88846" lon="6.71967">
        <ele>1355</ele>
        <time>2022-08-26T18:39:15Z</time>
      </trkpt>
      <trkpt lat="45.88848" lon="6.71964">
        <ele>1355</ele>
        <time>2022-08-26T18:39:16Z</time>
      </trkpt>
      <trkpt lat="45.8885" lon="6.71962">
        <ele>1354</ele>
        <time>2022-08-26T18:39:17Z</time>
      </trkpt>
      <trkpt lat="45.88851" lon="6.71961">
        <ele>1353</ele>
        <time>2022-08-26T18:39:18Z</time>
      </trkpt>
      <trkpt lat="45.88849" lon="6.71961">
        <ele>1352</ele>
        <time>2022-08-26T18:39:19Z</time>
      </trkpt>
      <trkpt lat="45.88848" lon="6.71961">
        <ele>1352</ele>
        <time>2022-08-26T18:39:20Z</time>
      </trkpt>
      <trkpt lat="45.88847" lon="6.71961">
        <ele>1352</ele>
        <time>2022-08-26T18:39:22Z</time>
      </trkpt>
      <trkpt lat="45.88845" lon="6.71961">
        <ele>1350</ele>
        <time>2022-08-26T18:39:24Z</time>
      </trkpt>
      <trkpt lat="45.88844" lon="6.71961">
        <ele>1349</ele>
        <time>2022-08-26T18:39:25Z</time>
      </trkpt>
      <trkpt lat="45.88843" lon="6.71962">
        <ele>1348</ele>
        <time>2022-08-26T18:39:26Z</time>
      </trkpt>
      <trkpt lat="45.88841" lon="6.71962">
        <ele>1348</ele>
        <time>2022-08-26T18:39:27Z</time>
      </trkpt>
      <trkpt lat="45.88839" lon="6.71961">
        <ele>1346</ele>
        <time>2022-08-26T18:39:29Z</time>
      </trkpt>
      <trkpt lat="45.88837" lon="6.7196">
        <ele>1346</ele>
        <time>2022-08-26T18:39:30Z</time>
      </trkpt>
      <trkpt lat="45.88835" lon="6.71959">
        <ele>1345</ele>
        <time>2022-08-26T18:39:31Z</time>
      </trkpt>
      <trkpt lat="45.88835" lon="6.71955">
        <ele>1344</ele>
        <time>2022-08-26T18:39:33Z</time>
      </trkpt>
      <trkpt lat="45.88842" lon="6.71946">
        <ele>1341</ele>
        <time>2022-08-26T18:39:39Z</time>
      </trkpt>
      <trkpt lat="45.88842" lon="6.71946">
        <ele>1341</ele>
        <time>2022-08-26T18:39:41Z</time>
      </trkpt>
      <trkpt lat="45.88841" lon="6.71945">
        <ele>1341</ele>
        <time>2022-08-26T18:39:42Z</time>
      </trkpt>
      <trkpt lat="45.88841" lon="6.71945">
        <ele>1340</ele>
        <time>2022-08-26T18:39:43Z</time>
      </trkpt>
      <trkpt lat="45.8884" lon="6.71944">
        <ele>1340</ele>
        <time>2022-08-26T18:39:45Z</time>
      </trkpt>
      <trkpt lat="45.8884" lon="6.71943">
        <ele>1339</ele>
        <time>2022-08-26T18:39:46Z</time>
      </trkpt>
      <trkpt lat="45.88839" lon="6.71943">
        <ele>1339</ele>
        <time>2022-08-26T18:39:47Z</time>
      </trkpt>
      <trkpt lat="45.88839" lon="6.71942">
        <ele>1339</ele>
        <time>2022-08-26T18:39:48Z</time>
      </trkpt>
      <trkpt lat="45.88839" lon="6.71942">
        <ele>1337</ele>
        <time>2022-08-26T18:39:50Z</time>
      </trkpt>
      <trkpt lat="45.88838" lon="6.71941">
        <ele>1336</ele>
        <time>2022-08-26T18:39:51Z</time>
      </trkpt>
      <trkpt lat="45.88838" lon="6.7194">
        <ele>1336</ele>
        <time>2022-08-26T18:39:52Z</time>
      </trkpt>
      <trkpt lat="45.88837" lon="6.7194">
        <ele>1336</ele>
        <time>2022-08-26T18:39:53Z</time>
      </trkpt>
      <trkpt lat="45.88837" lon="6.71939">
        <ele>1336</ele>
        <time>2022-08-26T18:39:54Z</time>
      </trkpt>
      <trkpt lat="45.88837" lon="6.71939">
        <ele>1335</ele>
        <time>2022-08-26T18:39:55Z</time>
      </trkpt>
      <trkpt lat="45.88837" lon="6.71936">
        <ele>1334</ele>
        <time>2022-08-26T18:39:57Z</time>
      </trkpt>
      <trkpt lat="45.88838" lon="6.71932">
        <ele>1333</ele>
        <time>2022-08-26T18:39:58Z</time>
      </trkpt>
      <trkpt lat="45.88838" lon="6.71929">
        <ele>1333</ele>
        <time>2022-08-26T18:40:00Z</time>
      </trkpt>
      <trkpt lat="45.88839" lon="6.71926">
        <ele>1331</ele>
        <time>2022-08-26T18:40:01Z</time>
      </trkpt>
      <trkpt lat="45.88841" lon="6.71922">
        <ele>1330</ele>
        <time>2022-08-26T18:40:03Z</time>
      </trkpt>
      <trkpt lat="45.88843" lon="6.71918">
        <ele>1329</ele>
        <time>2022-08-26T18:40:05Z</time>
      </trkpt>
      <trkpt lat="45.88844" lon="6.71916">
        <ele>1329</ele>
        <time>2022-08-26T18:40:06Z</time>
      </trkpt>
      <trkpt lat="45.88844" lon="6.71914">
        <ele>1329</ele>
        <time>2022-08-26T18:40:07Z</time>
      </trkpt>
      <trkpt lat="45.88845" lon="6.71911">
        <ele>1328</ele>
        <time>2022-08-26T18:40:08Z</time>
      </trkpt>
      <trkpt lat="45.88845" lon="6.71906">
        <ele>1326</ele>
        <time>2022-08-26T18:40:11Z</time>
      </trkpt>
      <trkpt lat="45.88843" lon="6.71905">
        <ele>1325</ele>
        <time>2022-08-26T18:40:13Z</time>
      </trkpt>
      <trkpt lat="45.88841" lon="6.71906">
        <ele>1324</ele>
        <time>2022-08-26T18:40:18Z</time>
      </trkpt>
      <trkpt lat="45.88839" lon="6.71906">
        <ele>1323</ele>
        <time>2022-08-26T18:40:22Z</time>
      </trkpt>
      <trkpt lat="45.88838" lon="6.71907">
        <ele>1322</ele>
        <time>2022-08-26T18:40:24Z</time>
      </trkpt>
      <trkpt lat="45.88837" lon="6.71907">
        <ele>1321</ele>
        <time>2022-08-26T18:40:25Z</time>
      </trkpt>
      <trkpt lat="45.88836" lon="6.71908">
        <ele>1321</ele>
        <time>2022-08-26T18:40:26Z</time>
      </trkpt>
      <trkpt lat="45.88835" lon="6.71908">
        <ele>1321</ele>
        <time>2022-08-26T18:40:28Z</time>
      </trkpt>
      <trkpt lat="45.88834" lon="6.71909">
        <ele>1320</ele>
        <time>2022-08-26T18:40:29Z</time>
      </trkpt>
      <trkpt lat="45.88833" lon="6.7191">
        <ele>1319</ele>
        <time>2022-08-26T18:40:30Z</time>
      </trkpt>
      <trkpt lat="45.88832" lon="6.7191">
        <ele>1318</ele>
        <time>2022-08-26T18:40:31Z</time>
      </trkpt>
      <trkpt lat="45.88831" lon="6.71911">
        <ele>1318</ele>
        <time>2022-08-26T18:40:32Z</time>
      </trkpt>
      <trkpt lat="45.8883" lon="6.71911">
        <ele>1318</ele>
        <time>2022-08-26T18:40:33Z</time>
      </trkpt>
      <trkpt lat="45.88829" lon="6.71898">
        <ele>1314</ele>
        <time>2022-08-26T18:40:40Z</time>
      </trkpt>
      <trkpt lat="45.88828" lon="6.71894">
        <ele>1312</ele>
        <time>2022-08-26T18:40:42Z</time>
      </trkpt>
      <trkpt lat="45.88829" lon="6.71892">
        <ele>1311</ele>
        <time>2022-08-26T18:40:43Z</time>
      </trkpt>
      <trkpt lat="45.88829" lon="6.71889">
        <ele>1310</ele>
        <time>2022-08-26T18:40:45Z</time>
      </trkpt>
      <trkpt lat="45.8883" lon="6.71887">
        <ele>1310</ele>
        <time>2022-08-26T18:40:46Z</time>
      </trkpt>
      <trkpt lat="45.8883" lon="6.71884">
        <ele>1310</ele>
        <time>2022-08-26T18:40:47Z</time>
      </trkpt>
      <trkpt lat="45.88831" lon="6.71882">
        <ele>1309</ele>
        <time>2022-08-26T18:40:48Z</time>
      </trkpt>
      <trkpt lat="45.88831" lon="6.71879">
        <ele>1309</ele>
        <time>2022-08-26T18:40:49Z</time>
      </trkpt>
      <trkpt lat="45.88832" lon="6.71877">
        <ele>1309</ele>
        <time>2022-08-26T18:40:50Z</time>
      </trkpt>
      <trkpt lat="45.88832" lon="6.71874">
        <ele>1308</ele>
        <time>2022-08-26T18:40:51Z</time>
      </trkpt>
      <trkpt lat="45.88832" lon="6.71871">
        <ele>1308</ele>
        <time>2022-08-26T18:40:53Z</time>
      </trkpt>
      <trkpt lat="45.88833" lon="6.71869">
        <ele>1308</ele>
        <time>2022-08-26T18:40:54Z</time>
      </trkpt>
      <trkpt lat="45.88833" lon="6.71866">
        <ele>1306</ele>
        <time>2022-08-26T18:40:55Z</time>
      </trkpt>
      <trkpt lat="45.88833" lon="6.71865">
        <ele>1306</ele>
        <time>2022-08-26T18:40:57Z</time>
      </trkpt>
      <trkpt lat="45.88838" lon="6.71849">
        <ele>1303</ele>
        <time>2022-08-26T18:41:01Z</time>
      </trkpt>
      <trkpt lat="45.8883" lon="6.71841">
        <ele>1297</ele>
        <time>2022-08-26T18:41:13Z</time>
      </trkpt>
      <trkpt lat="45.88824" lon="6.71835">
        <ele>1294</ele>
        <time>2022-08-26T18:41:18Z</time>
      </trkpt>
      <trkpt lat="45.88824" lon="6.71832">
        <ele>1294</ele>
        <time>2022-08-26T18:41:19Z</time>
      </trkpt>
      <trkpt lat="45.88823" lon="6.7183">
        <ele>1294</ele>
        <time>2022-08-26T18:41:20Z</time>
      </trkpt>
      <trkpt lat="45.88823" lon="6.71827">
        <ele>1293</ele>
        <time>2022-08-26T18:41:21Z</time>
      </trkpt>
      <trkpt lat="45.88822" lon="6.71821">
        <ele>1291</ele>
        <time>2022-08-26T18:41:23Z</time>
      </trkpt>
      <trkpt lat="45.88823" lon="6.71817">
        <ele>1291</ele>
        <time>2022-08-26T18:41:24Z</time>
      </trkpt>
      <trkpt lat="45.88825" lon="6.71812">
        <ele>1290</ele>
        <time>2022-08-26T18:41:26Z</time>
      </trkpt>
      <trkpt lat="45.88826" lon="6.71808">
        <ele>1290</ele>
        <time>2022-08-26T18:41:27Z</time>
      </trkpt>
      <trkpt lat="45.88828" lon="6.71803">
        <ele>1289</ele>
        <time>2022-08-26T18:41:28Z</time>
      </trkpt>
      <trkpt lat="45.8883" lon="6.718">
        <ele>1289</ele>
        <time>2022-08-26T18:41:29Z</time>
      </trkpt>
      <trkpt lat="45.88832" lon="6.71798">
        <ele>1289</ele>
        <time>2022-08-26T18:41:30Z</time>
      </trkpt>
      <trkpt lat="45.88834" lon="6.71796">
        <ele>1289</ele>
        <time>2022-08-26T18:41:31Z</time>
      </trkpt>
      <trkpt lat="45.88836" lon="6.71794">
        <ele>1289</ele>
        <time>2022-08-26T18:41:32Z</time>
      </trkpt>
      <trkpt lat="45.88841" lon="6.7179">
        <ele>1289</ele>
        <time>2022-08-26T18:41:34Z</time>
      </trkpt>
      <trkpt lat="45.88843" lon="6.71789">
        <ele>1289</ele>
        <time>2022-08-26T18:41:35Z</time>
      </trkpt>
      <trkpt lat="45.88845" lon="6.71788">
        <ele>1288</ele>
        <time>2022-08-26T18:41:36Z</time>
      </trkpt>
      <trkpt lat="45.88848" lon="6.71788">
        <ele>1288</ele>
        <time>2022-08-26T18:41:37Z</time>
      </trkpt>
      <trkpt lat="45.88852" lon="6.71788">
        <ele>1288</ele>
        <time>2022-08-26T18:41:38Z</time>
      </trkpt>
      <trkpt lat="45.88853" lon="6.71788">
        <ele>1288</ele>
        <time>2022-08-26T18:41:39Z</time>
      </trkpt>
      <trkpt lat="45.88857" lon="6.71789">
        <ele>1288</ele>
        <time>2022-08-26T18:41:40Z</time>
      </trkpt>
      <trkpt lat="45.88858" lon="6.7179">
        <ele>1288</ele>
        <time>2022-08-26T18:41:41Z</time>
      </trkpt>
      <trkpt lat="45.88861" lon="6.71791">
        <ele>1288</ele>
        <time>2022-08-26T18:41:42Z</time>
      </trkpt>
      <trkpt lat="45.88863" lon="6.71792">
        <ele>1287</ele>
        <time>2022-08-26T18:41:43Z</time>
      </trkpt>
      <trkpt lat="45.88865" lon="6.71792">
        <ele>1287</ele>
        <time>2022-08-26T18:41:44Z</time>
      </trkpt>
      <trkpt lat="45.88869" lon="6.71792">
        <ele>1287</ele>
        <time>2022-08-26T18:41:45Z</time>
      </trkpt>
      <trkpt lat="45.8887" lon="6.71792">
        <ele>1287</ele>
        <time>2022-08-26T18:41:46Z</time>
      </trkpt>
      <trkpt lat="45.88874" lon="6.71792">
        <ele>1287</ele>
        <time>2022-08-26T18:41:47Z</time>
      </trkpt>
      <trkpt lat="45.88875" lon="6.71792">
        <ele>1286</ele>
        <time>2022-08-26T18:41:48Z</time>
      </trkpt>
      <trkpt lat="45.88878" lon="6.71792">
        <ele>1285</ele>
        <time>2022-08-26T18:41:49Z</time>
      </trkpt>
      <trkpt lat="45.8888" lon="6.71792">
        <ele>1285</ele>
        <time>2022-08-26T18:41:50Z</time>
      </trkpt>
      <trkpt lat="45.88883" lon="6.71793">
        <ele>1285</ele>
        <time>2022-08-26T18:41:51Z</time>
      </trkpt>
      <trkpt lat="45.88886" lon="6.71793">
        <ele>1285</ele>
        <time>2022-08-26T18:41:52Z</time>
      </trkpt>
      <trkpt lat="45.88888" lon="6.71793">
        <ele>1285</ele>
        <time>2022-08-26T18:41:53Z</time>
      </trkpt>
      <trkpt lat="45.88891" lon="6.71794">
        <ele>1285</ele>
        <time>2022-08-26T18:41:54Z</time>
      </trkpt>
      <trkpt lat="45.88893" lon="6.71794">
        <ele>1284</ele>
        <time>2022-08-26T18:41:55Z</time>
      </trkpt>
      <trkpt lat="45.88895" lon="6.71795">
        <ele>1283</ele>
        <time>2022-08-26T18:41:56Z</time>
      </trkpt>
      <trkpt lat="45.88898" lon="6.71796">
        <ele>1283</ele>
        <time>2022-08-26T18:41:57Z</time>
      </trkpt>
      <trkpt lat="45.88901" lon="6.71797">
        <ele>1283</ele>
        <time>2022-08-26T18:41:58Z</time>
      </trkpt>
      <trkpt lat="45.88903" lon="6.71798">
        <ele>1281</ele>
        <time>2022-08-26T18:41:59Z</time>
      </trkpt>
      <trkpt lat="45.88906" lon="6.71799">
        <ele>1281</ele>
        <time>2022-08-26T18:42:00Z</time>
      </trkpt>
      <trkpt lat="45.88909" lon="6.71801">
        <ele>1280</ele>
        <time>2022-08-26T18:42:01Z</time>
      </trkpt>
      <trkpt lat="45.88911" lon="6.71802">
        <ele>1279</ele>
        <time>2022-08-26T18:42:02Z</time>
      </trkpt>
      <trkpt lat="45.88914" lon="6.71803">
        <ele>1279</ele>
        <time>2022-08-26T18:42:03Z</time>
      </trkpt>
      <trkpt lat="45.88918" lon="6.71805">
        <ele>1279</ele>
        <time>2022-08-26T18:42:04Z</time>
      </trkpt>
      <trkpt lat="45.88919" lon="6.71805">
        <ele>1279</ele>
        <time>2022-08-26T18:42:05Z</time>
      </trkpt>
      <trkpt lat="45.88922" lon="6.71806">
        <ele>1278</ele>
        <time>2022-08-26T18:42:06Z</time>
      </trkpt>
      <trkpt lat="45.88924" lon="6.71807">
        <ele>1278</ele>
        <time>2022-08-26T18:42:07Z</time>
      </trkpt>
      <trkpt lat="45.88926" lon="6.71808">
        <ele>1278</ele>
        <time>2022-08-26T18:42:08Z</time>
      </trkpt>
      <trkpt lat="45.8893" lon="6.71807">
        <ele>1278</ele>
        <time>2022-08-26T18:42:09Z</time>
      </trkpt>
      <trkpt lat="45.88931" lon="6.71806">
        <ele>1277</ele>
        <time>2022-08-26T18:42:10Z</time>
      </trkpt>
      <trkpt lat="45.88934" lon="6.71805">
        <ele>1277</ele>
        <time>2022-08-26T18:42:11Z</time>
      </trkpt>
      <trkpt lat="45.88937" lon="6.71801">
        <ele>1277</ele>
        <time>2022-08-26T18:42:12Z</time>
      </trkpt>
      <trkpt lat="45.88938" lon="6.718">
        <ele>1277</ele>
        <time>2022-08-26T18:42:13Z</time>
      </trkpt>
      <trkpt lat="45.88939" lon="6.71797">
        <ele>1277</ele>
        <time>2022-08-26T18:42:14Z</time>
      </trkpt>
      <trkpt lat="45.88941" lon="6.71794">
        <ele>1277</ele>
        <time>2022-08-26T18:42:15Z</time>
      </trkpt>
      <trkpt lat="45.88944" lon="6.71791">
        <ele>1277</ele>
        <time>2022-08-26T18:42:16Z</time>
      </trkpt>
      <trkpt lat="45.88945" lon="6.7179">
        <ele>1276</ele>
        <time>2022-08-26T18:42:17Z</time>
      </trkpt>
      <trkpt lat="45.88948" lon="6.71787">
        <ele>1276</ele>
        <time>2022-08-26T18:42:18Z</time>
      </trkpt>
      <trkpt lat="45.88949" lon="6.71786">
        <ele>1276</ele>
        <time>2022-08-26T18:42:19Z</time>
      </trkpt>
      <trkpt lat="45.88951" lon="6.71785">
        <ele>1275</ele>
        <time>2022-08-26T18:42:20Z</time>
      </trkpt>
      <trkpt lat="45.88953" lon="6.71783">
        <ele>1275</ele>
        <time>2022-08-26T18:42:21Z</time>
      </trkpt>
      <trkpt lat="45.88957" lon="6.71782">
        <ele>1275</ele>
        <time>2022-08-26T18:42:22Z</time>
      </trkpt>
      <trkpt lat="45.88958" lon="6.71782">
        <ele>1274</ele>
        <time>2022-08-26T18:42:23Z</time>
      </trkpt>
      <trkpt lat="45.8896" lon="6.71781">
        <ele>1274</ele>
        <time>2022-08-26T18:42:24Z</time>
      </trkpt>
      <trkpt lat="45.88963" lon="6.71781">
        <ele>1273</ele>
        <time>2022-08-26T18:42:25Z</time>
      </trkpt>
      <trkpt lat="45.88966" lon="6.71781">
        <ele>1273</ele>
        <time>2022-08-26T18:42:26Z</time>
      </trkpt>
      <trkpt lat="45.8897" lon="6.71782">
        <ele>1273</ele>
        <time>2022-08-26T18:42:27Z</time>
      </trkpt>
      <trkpt lat="45.88971" lon="6.71782">
        <ele>1273</ele>
        <time>2022-08-26T18:42:28Z</time>
      </trkpt>
      <trkpt lat="45.88975" lon="6.71782">
        <ele>1273</ele>
        <time>2022-08-26T18:42:29Z</time>
      </trkpt>
      <trkpt lat="45.88976" lon="6.71782">
        <ele>1273</ele>
        <time>2022-08-26T18:42:30Z</time>
      </trkpt>
      <trkpt lat="45.8898" lon="6.71781">
        <ele>1273</ele>
        <time>2022-08-26T18:42:31Z</time>
      </trkpt>
      <trkpt lat="45.88981" lon="6.71781">
        <ele>1272</ele>
        <time>2022-08-26T18:42:32Z</time>
      </trkpt>
      <trkpt lat="45.88985" lon="6.71781">
        <ele>1272</ele>
        <time>2022-08-26T18:42:33Z</time>
      </trkpt>
      <trkpt lat="45.88986" lon="6.71781">
        <ele>1271</ele>
        <time>2022-08-26T18:42:34Z</time>
      </trkpt>
      <trkpt lat="45.88988" lon="6.71781">
        <ele>1271</ele>
        <time>2022-08-26T18:42:35Z</time>
      </trkpt>
      <trkpt lat="45.88991" lon="6.7178">
        <ele>1271</ele>
        <time>2022-08-26T18:42:36Z</time>
      </trkpt>
      <trkpt lat="45.88993" lon="6.7178">
        <ele>1271</ele>
        <time>2022-08-26T18:42:37Z</time>
      </trkpt>
      <trkpt lat="45.88997" lon="6.71779">
        <ele>1271</ele>
        <time>2022-08-26T18:42:38Z</time>
      </trkpt>
      <trkpt lat="45.88998" lon="6.71778">
        <ele>1271</ele>
        <time>2022-08-26T18:42:39Z</time>
      </trkpt>
      <trkpt lat="45.89" lon="6.71777">
        <ele>1270</ele>
        <time>2022-08-26T18:42:40Z</time>
      </trkpt>
      <trkpt lat="45.89002" lon="6.71775">
        <ele>1270</ele>
        <time>2022-08-26T18:42:41Z</time>
      </trkpt>
      <trkpt lat="45.89005" lon="6.71773">
        <ele>1270</ele>
        <time>2022-08-26T18:42:42Z</time>
      </trkpt>
      <trkpt lat="45.89007" lon="6.71769">
        <ele>1270</ele>
        <time>2022-08-26T18:42:43Z</time>
      </trkpt>
      <trkpt lat="45.89008" lon="6.71768">
        <ele>1269</ele>
        <time>2022-08-26T18:42:44Z</time>
      </trkpt>
      <trkpt lat="45.8901" lon="6.71765">
        <ele>1269</ele>
        <time>2022-08-26T18:42:45Z</time>
      </trkpt>
      <trkpt lat="45.89011" lon="6.71762">
        <ele>1269</ele>
        <time>2022-08-26T18:42:46Z</time>
      </trkpt>
      <trkpt lat="45.89012" lon="6.71759">
        <ele>1269</ele>
        <time>2022-08-26T18:42:47Z</time>
      </trkpt>
      <trkpt lat="45.89014" lon="6.71754">
        <ele>1269</ele>
        <time>2022-08-26T18:42:48Z</time>
      </trkpt>
      <trkpt lat="45.89014" lon="6.71752">
        <ele>1268</ele>
        <time>2022-08-26T18:42:49Z</time>
      </trkpt>
      <trkpt lat="45.89016" lon="6.71747">
        <ele>1268</ele>
        <time>2022-08-26T18:42:50Z</time>
      </trkpt>
      <trkpt lat="45.89017" lon="6.71745">
        <ele>1268</ele>
        <time>2022-08-26T18:42:51Z</time>
      </trkpt>
      <trkpt lat="45.89018" lon="6.71742">
        <ele>1267</ele>
        <time>2022-08-26T18:42:52Z</time>
      </trkpt>
      <trkpt lat="45.89019" lon="6.71738">
        <ele>1267</ele>
        <time>2022-08-26T18:42:53Z</time>
      </trkpt>
      <trkpt lat="45.89021" lon="6.71734">
        <ele>1267</ele>
        <time>2022-08-26T18:42:54Z</time>
      </trkpt>
      <trkpt lat="45.89022" lon="6.71733">
        <ele>1267</ele>
        <time>2022-08-26T18:42:55Z</time>
      </trkpt>
      <trkpt lat="45.89024" lon="6.71731">
        <ele>1267</ele>
        <time>2022-08-26T18:42:56Z</time>
      </trkpt>
      <trkpt lat="45.89026" lon="6.71729">
        <ele>1267</ele>
        <time>2022-08-26T18:42:57Z</time>
      </trkpt>
      <trkpt lat="45.89029" lon="6.71726">
        <ele>1267</ele>
        <time>2022-08-26T18:42:58Z</time>
      </trkpt>
      <trkpt lat="45.8903" lon="6.71725">
        <ele>1266</ele>
        <time>2022-08-26T18:42:59Z</time>
      </trkpt>
      <trkpt lat="45.89034" lon="6.71723">
        <ele>1266</ele>
        <time>2022-08-26T18:43:00Z</time>
      </trkpt>
      <trkpt lat="45.89035" lon="6.71722">
        <ele>1266</ele>
        <time>2022-08-26T18:43:01Z</time>
      </trkpt>
      <trkpt lat="45.89038" lon="6.71722">
        <ele>1266</ele>
        <time>2022-08-26T18:43:02Z</time>
      </trkpt>
      <trkpt lat="45.89041" lon="6.71721">
        <ele>1266</ele>
        <time>2022-08-26T18:43:03Z</time>
      </trkpt>
      <trkpt lat="45.89044" lon="6.71721">
        <ele>1266</ele>
        <time>2022-08-26T18:43:04Z</time>
      </trkpt>
      <trkpt lat="45.89047" lon="6.71719">
        <ele>1266</ele>
        <time>2022-08-26T18:43:05Z</time>
      </trkpt>
      <trkpt lat="45.89049" lon="6.71719">
        <ele>1265</ele>
        <time>2022-08-26T18:43:06Z</time>
      </trkpt>
      <trkpt lat="45.89051" lon="6.71718">
        <ele>1265</ele>
        <time>2022-08-26T18:43:07Z</time>
      </trkpt>
      <trkpt lat="45.89054" lon="6.71718">
        <ele>1265</ele>
        <time>2022-08-26T18:43:08Z</time>
      </trkpt>
      <trkpt lat="45.89058" lon="6.71717">
        <ele>1265</ele>
        <time>2022-08-26T18:43:09Z</time>
      </trkpt>
      <trkpt lat="45.89059" lon="6.71717">
        <ele>1265</ele>
        <time>2022-08-26T18:43:10Z</time>
      </trkpt>
      <trkpt lat="45.89061" lon="6.71716">
        <ele>1264</ele>
        <time>2022-08-26T18:43:11Z</time>
      </trkpt>
      <trkpt lat="45.89064" lon="6.71716">
        <ele>1263</ele>
        <time>2022-08-26T18:43:12Z</time>
      </trkpt>
      <trkpt lat="45.89068" lon="6.71715">
        <ele>1263</ele>
        <time>2022-08-26T18:43:13Z</time>
      </trkpt>
      <trkpt lat="45.89069" lon="6.71715">
        <ele>1262</ele>
        <time>2022-08-26T18:43:14Z</time>
      </trkpt>
      <trkpt lat="45.89071" lon="6.71714">
        <ele>1262</ele>
        <time>2022-08-26T18:43:15Z</time>
      </trkpt>
      <trkpt lat="45.89074" lon="6.71714">
        <ele>1262</ele>
        <time>2022-08-26T18:43:16Z</time>
      </trkpt>
      <trkpt lat="45.89076" lon="6.71713">
        <ele>1262</ele>
        <time>2022-08-26T18:43:17Z</time>
      </trkpt>
      <trkpt lat="45.89079" lon="6.71713">
        <ele>1262</ele>
        <time>2022-08-26T18:43:18Z</time>
      </trkpt>
      <trkpt lat="45.8908" lon="6.71713">
        <ele>1262</ele>
        <time>2022-08-26T18:43:19Z</time>
      </trkpt>
      <trkpt lat="45.89083" lon="6.71712">
        <ele>1261</ele>
        <time>2022-08-26T18:43:20Z</time>
      </trkpt>
      <trkpt lat="45.89087" lon="6.71712">
        <ele>1261</ele>
        <time>2022-08-26T18:43:21Z</time>
      </trkpt>
      <trkpt lat="45.89088" lon="6.71711">
        <ele>1260</ele>
        <time>2022-08-26T18:43:22Z</time>
      </trkpt>
      <trkpt lat="45.89092" lon="6.71712">
        <ele>1260</ele>
        <time>2022-08-26T18:43:23Z</time>
      </trkpt>
      <trkpt lat="45.89093" lon="6.71712">
        <ele>1260</ele>
        <time>2022-08-26T18:43:24Z</time>
      </trkpt>
      <trkpt lat="45.89095" lon="6.71711">
        <ele>1260</ele>
        <time>2022-08-26T18:43:25Z</time>
      </trkpt>
      <trkpt lat="45.89098" lon="6.71711">
        <ele>1260</ele>
        <time>2022-08-26T18:43:26Z</time>
      </trkpt>
      <trkpt lat="45.891" lon="6.71711">
        <ele>1260</ele>
        <time>2022-08-26T18:43:27Z</time>
      </trkpt>
      <trkpt lat="45.89103" lon="6.7171">
        <ele>1260</ele>
        <time>2022-08-26T18:43:28Z</time>
      </trkpt>
      <trkpt lat="45.89105" lon="6.7171">
        <ele>1259</ele>
        <time>2022-08-26T18:43:29Z</time>
      </trkpt>
      <trkpt lat="45.89107" lon="6.7171">
        <ele>1259</ele>
        <time>2022-08-26T18:43:30Z</time>
      </trkpt>
      <trkpt lat="45.89111" lon="6.71709">
        <ele>1259</ele>
        <time>2022-08-26T18:43:31Z</time>
      </trkpt>
      <trkpt lat="45.89112" lon="6.71709">
        <ele>1258</ele>
        <time>2022-08-26T18:43:32Z</time>
      </trkpt>
      <trkpt lat="45.89115" lon="6.71709">
        <ele>1258</ele>
        <time>2022-08-26T18:43:33Z</time>
      </trkpt>
      <trkpt lat="45.89117" lon="6.71709">
        <ele>1257</ele>
        <time>2022-08-26T18:43:34Z</time>
      </trkpt>
      <trkpt lat="45.89119" lon="6.71708">
        <ele>1257</ele>
        <time>2022-08-26T18:43:35Z</time>
      </trkpt>
      <trkpt lat="45.89123" lon="6.71708">
        <ele>1257</ele>
        <time>2022-08-26T18:43:36Z</time>
      </trkpt>
      <trkpt lat="45.89125" lon="6.71708">
        <ele>1257</ele>
        <time>2022-08-26T18:43:37Z</time>
      </trkpt>
      <trkpt lat="45.89128" lon="6.71707">
        <ele>1257</ele>
        <time>2022-08-26T18:43:38Z</time>
      </trkpt>
      <trkpt lat="45.8913" lon="6.71707">
        <ele>1256</ele>
        <time>2022-08-26T18:43:39Z</time>
      </trkpt>
      <trkpt lat="45.89132" lon="6.71707">
        <ele>1255</ele>
        <time>2022-08-26T18:43:40Z</time>
      </trkpt>
      <trkpt lat="45.89135" lon="6.71706">
        <ele>1255</ele>
        <time>2022-08-26T18:43:41Z</time>
      </trkpt>
      <trkpt lat="45.89137" lon="6.71706">
        <ele>1255</ele>
        <time>2022-08-26T18:43:42Z</time>
      </trkpt>
      <trkpt lat="45.89141" lon="6.71705">
        <ele>1255</ele>
        <time>2022-08-26T18:43:43Z</time>
      </trkpt>
      <trkpt lat="45.89143" lon="6.71705">
        <ele>1255</ele>
        <time>2022-08-26T18:43:44Z</time>
      </trkpt>
      <trkpt lat="45.89146" lon="6.71704">
        <ele>1255</ele>
        <time>2022-08-26T18:43:45Z</time>
      </trkpt>
      <trkpt lat="45.89147" lon="6.71704">
        <ele>1255</ele>
        <time>2022-08-26T18:43:46Z</time>
      </trkpt>
      <trkpt lat="45.89151" lon="6.71703">
        <ele>1255</ele>
        <time>2022-08-26T18:43:47Z</time>
      </trkpt>
      <trkpt lat="45.89152" lon="6.71703">
        <ele>1255</ele>
        <time>2022-08-26T18:43:48Z</time>
      </trkpt>
      <trkpt lat="45.89156" lon="6.71702">
        <ele>1255</ele>
        <time>2022-08-26T18:43:49Z</time>
      </trkpt>
      <trkpt lat="45.89157" lon="6.71702">
        <ele>1254</ele>
        <time>2022-08-26T18:43:50Z</time>
      </trkpt>
      <trkpt lat="45.89161" lon="6.71702">
        <ele>1254</ele>
        <time>2022-08-26T18:43:51Z</time>
      </trkpt>
      <trkpt lat="45.89162" lon="6.71702">
        <ele>1254</ele>
        <time>2022-08-26T18:43:52Z</time>
      </trkpt>
      <trkpt lat="45.89164" lon="6.71701">
        <ele>1253</ele>
        <time>2022-08-26T18:43:53Z</time>
      </trkpt>
      <trkpt lat="45.89167" lon="6.71701">
        <ele>1253</ele>
        <time>2022-08-26T18:43:54Z</time>
      </trkpt>
      <trkpt lat="45.89169" lon="6.717">
        <ele>1253</ele>
        <time>2022-08-26T18:43:55Z</time>
      </trkpt>
      <trkpt lat="45.89172" lon="6.71697">
        <ele>1253</ele>
        <time>2022-08-26T18:43:56Z</time>
      </trkpt>
      <trkpt lat="45.89173" lon="6.71696">
        <ele>1253</ele>
        <time>2022-08-26T18:43:57Z</time>
      </trkpt>
      <trkpt lat="45.89174" lon="6.71691">
        <ele>1253</ele>
        <time>2022-08-26T18:43:58Z</time>
      </trkpt>
      <trkpt lat="45.89174" lon="6.71689">
        <ele>1251</ele>
        <time>2022-08-26T18:43:59Z</time>
      </trkpt>
      <trkpt lat="45.89174" lon="6.71686">
        <ele>1251</ele>
        <time>2022-08-26T18:44:00Z</time>
      </trkpt>
      <trkpt lat="45.89173" lon="6.71681">
        <ele>1250</ele>
        <time>2022-08-26T18:44:02Z</time>
      </trkpt>
      <trkpt lat="45.89172" lon="6.71679">
        <ele>1250</ele>
        <time>2022-08-26T18:44:03Z</time>
      </trkpt>
      <trkpt lat="45.8917" lon="6.71676">
        <ele>1250</ele>
        <time>2022-08-26T18:44:04Z</time>
      </trkpt>
      <trkpt lat="45.89168" lon="6.71675">
        <ele>1250</ele>
        <time>2022-08-26T18:44:05Z</time>
      </trkpt>
      <trkpt lat="45.89165" lon="6.71673">
        <ele>1249</ele>
        <time>2022-08-26T18:44:06Z</time>
      </trkpt>
      <trkpt lat="45.89163" lon="6.71672">
        <ele>1249</ele>
        <time>2022-08-26T18:44:07Z</time>
      </trkpt>
      <trkpt lat="45.89161" lon="6.71671">
        <ele>1249</ele>
        <time>2022-08-26T18:44:08Z</time>
      </trkpt>
      <trkpt lat="45.89159" lon="6.7167">
        <ele>1248</ele>
        <time>2022-08-26T18:44:09Z</time>
      </trkpt>
      <trkpt lat="45.89155" lon="6.71668">
        <ele>1248</ele>
        <time>2022-08-26T18:44:10Z</time>
      </trkpt>
      <trkpt lat="45.89154" lon="6.71667">
        <ele>1248</ele>
        <time>2022-08-26T18:44:11Z</time>
      </trkpt>
      <trkpt lat="45.89151" lon="6.71666">
        <ele>1248</ele>
        <time>2022-08-26T18:44:12Z</time>
      </trkpt>
      <trkpt lat="45.89149" lon="6.71664">
        <ele>1247</ele>
        <time>2022-08-26T18:44:13Z</time>
      </trkpt>
      <trkpt lat="45.89146" lon="6.71663">
        <ele>1247</ele>
        <time>2022-08-26T18:44:14Z</time>
      </trkpt>
      <trkpt lat="45.89143" lon="6.71661">
        <ele>1247</ele>
        <time>2022-08-26T18:44:15Z</time>
      </trkpt>
      <trkpt lat="45.89142" lon="6.7166">
        <ele>1247</ele>
        <time>2022-08-26T18:44:16Z</time>
      </trkpt>
      <trkpt lat="45.89139" lon="6.71659">
        <ele>1247</ele>
        <time>2022-08-26T18:44:17Z</time>
      </trkpt>
      <trkpt lat="45.89137" lon="6.71658">
        <ele>1247</ele>
        <time>2022-08-26T18:44:18Z</time>
      </trkpt>
      <trkpt lat="45.89133" lon="6.71656">
        <ele>1247</ele>
        <time>2022-08-26T18:44:19Z</time>
      </trkpt>
      <trkpt lat="45.89132" lon="6.71656">
        <ele>1246</ele>
        <time>2022-08-26T18:44:20Z</time>
      </trkpt>
      <trkpt lat="45.89129" lon="6.71655">
        <ele>1246</ele>
        <time>2022-08-26T18:44:21Z</time>
      </trkpt>
      <trkpt lat="45.89128" lon="6.71655">
        <ele>1245</ele>
        <time>2022-08-26T18:44:22Z</time>
      </trkpt>
      <trkpt lat="45.89125" lon="6.71654">
        <ele>1245</ele>
        <time>2022-08-26T18:44:23Z</time>
      </trkpt>
      <trkpt lat="45.89122" lon="6.71654">
        <ele>1245</ele>
        <time>2022-08-26T18:44:24Z</time>
      </trkpt>
      <trkpt lat="45.8912" lon="6.71653">
        <ele>1245</ele>
        <time>2022-08-26T18:44:25Z</time>
      </trkpt>
      <trkpt lat="45.89118" lon="6.71652">
        <ele>1245</ele>
        <time>2022-08-26T18:44:26Z</time>
      </trkpt>
      <trkpt lat="45.89114" lon="6.71651">
        <ele>1245</ele>
        <time>2022-08-26T18:44:27Z</time>
      </trkpt>
      <trkpt lat="45.89112" lon="6.7165">
        <ele>1244</ele>
        <time>2022-08-26T18:44:28Z</time>
      </trkpt>
      <trkpt lat="45.8911" lon="6.71649">
        <ele>1244</ele>
        <time>2022-08-26T18:44:29Z</time>
      </trkpt>
      <trkpt lat="45.89107" lon="6.71647">
        <ele>1243</ele>
        <time>2022-08-26T18:44:30Z</time>
      </trkpt>
      <trkpt lat="45.89105" lon="6.71645">
        <ele>1243</ele>
        <time>2022-08-26T18:44:31Z</time>
      </trkpt>
      <trkpt lat="45.89101" lon="6.71642">
        <ele>1243</ele>
        <time>2022-08-26T18:44:32Z</time>
      </trkpt>
      <trkpt lat="45.891" lon="6.71641">
        <ele>1243</ele>
        <time>2022-08-26T18:44:33Z</time>
      </trkpt>
      <trkpt lat="45.89098" lon="6.71639">
        <ele>1242</ele>
        <time>2022-08-26T18:44:34Z</time>
      </trkpt>
      <trkpt lat="45.89096" lon="6.71636">
        <ele>1241</ele>
        <time>2022-08-26T18:44:35Z</time>
      </trkpt>
      <trkpt lat="45.89094" lon="6.71634">
        <ele>1241</ele>
        <time>2022-08-26T18:44:36Z</time>
      </trkpt>
      <trkpt lat="45.89093" lon="6.71631">
        <ele>1241</ele>
        <time>2022-08-26T18:44:37Z</time>
      </trkpt>
      <trkpt lat="45.89092" lon="6.71628">
        <ele>1240</ele>
        <time>2022-08-26T18:44:38Z</time>
      </trkpt>
      <trkpt lat="45.89091" lon="6.71625">
        <ele>1240</ele>
        <time>2022-08-26T18:44:39Z</time>
      </trkpt>
      <trkpt lat="45.8909" lon="6.71622">
        <ele>1240</ele>
        <time>2022-08-26T18:44:40Z</time>
      </trkpt>
      <trkpt lat="45.8909" lon="6.71619">
        <ele>1239</ele>
        <time>2022-08-26T18:44:41Z</time>
      </trkpt>
      <trkpt lat="45.89089" lon="6.71616">
        <ele>1238</ele>
        <time>2022-08-26T18:44:42Z</time>
      </trkpt>
      <trkpt lat="45.89088" lon="6.71613">
        <ele>1238</ele>
        <time>2022-08-26T18:44:43Z</time>
      </trkpt>
      <trkpt lat="45.89086" lon="6.71608">
        <ele>1238</ele>
        <time>2022-08-26T18:44:44Z</time>
      </trkpt>
      <trkpt lat="45.89085" lon="6.71606">
        <ele>1238</ele>
        <time>2022-08-26T18:44:45Z</time>
      </trkpt>
      <trkpt lat="45.89085" lon="6.71603">
        <ele>1238</ele>
        <time>2022-08-26T18:44:46Z</time>
      </trkpt>
      <trkpt lat="45.89083" lon="6.71601">
        <ele>1237</ele>
        <time>2022-08-26T18:44:47Z</time>
      </trkpt>
      <trkpt lat="45.89081" lon="6.71597">
        <ele>1237</ele>
        <time>2022-08-26T18:44:48Z</time>
      </trkpt>
      <trkpt lat="45.8908" lon="6.71596">
        <ele>1236</ele>
        <time>2022-08-26T18:44:49Z</time>
      </trkpt>
      <trkpt lat="45.89078" lon="6.71594">
        <ele>1235</ele>
        <time>2022-08-26T18:44:50Z</time>
      </trkpt>
      <trkpt lat="45.89076" lon="6.71592">
        <ele>1234</ele>
        <time>2022-08-26T18:44:51Z</time>
      </trkpt>
      <trkpt lat="45.89074" lon="6.71589">
        <ele>1234</ele>
        <time>2022-08-26T18:44:52Z</time>
      </trkpt>
      <trkpt lat="45.89072" lon="6.71587">
        <ele>1234</ele>
        <time>2022-08-26T18:44:53Z</time>
      </trkpt>
      <trkpt lat="45.8907" lon="6.71585">
        <ele>1233</ele>
        <time>2022-08-26T18:44:54Z</time>
      </trkpt>
      <trkpt lat="45.89067" lon="6.71583">
        <ele>1233</ele>
        <time>2022-08-26T18:44:55Z</time>
      </trkpt>
      <trkpt lat="45.89065" lon="6.71581">
        <ele>1232</ele>
        <time>2022-08-26T18:44:56Z</time>
      </trkpt>
      <trkpt lat="45.89062" lon="6.71579">
        <ele>1232</ele>
        <time>2022-08-26T18:44:57Z</time>
      </trkpt>
      <trkpt lat="45.89058" lon="6.71577">
        <ele>1232</ele>
        <time>2022-08-26T18:44:58Z</time>
      </trkpt>
      <trkpt lat="45.89057" lon="6.71577">
        <ele>1232</ele>
        <time>2022-08-26T18:44:59Z</time>
      </trkpt>
      <trkpt lat="45.89055" lon="6.71576">
        <ele>1231</ele>
        <time>2022-08-26T18:45:00Z</time>
      </trkpt>
      <trkpt lat="45.89051" lon="6.71575">
        <ele>1231</ele>
        <time>2022-08-26T18:45:01Z</time>
      </trkpt>
      <trkpt lat="45.89049" lon="6.71574">
        <ele>1231</ele>
        <time>2022-08-26T18:45:02Z</time>
      </trkpt>
      <trkpt lat="45.89045" lon="6.71572">
        <ele>1231</ele>
        <time>2022-08-26T18:45:03Z</time>
      </trkpt>
      <trkpt lat="45.89044" lon="6.71572">
        <ele>1231</ele>
        <time>2022-08-26T18:45:04Z</time>
      </trkpt>
      <trkpt lat="45.89041" lon="6.71571">
        <ele>1231</ele>
        <time>2022-08-26T18:45:05Z</time>
      </trkpt>
      <trkpt lat="45.89038" lon="6.71569">
        <ele>1231</ele>
        <time>2022-08-26T18:45:06Z</time>
      </trkpt>
      <trkpt lat="45.89035" lon="6.71568">
        <ele>1231</ele>
        <time>2022-08-26T18:45:07Z</time>
      </trkpt>
      <trkpt lat="45.89033" lon="6.71567">
        <ele>1230</ele>
        <time>2022-08-26T18:45:08Z</time>
      </trkpt>
      <trkpt lat="45.8903" lon="6.71567">
        <ele>1230</ele>
        <time>2022-08-26T18:45:09Z</time>
      </trkpt>
      <trkpt lat="45.89028" lon="6.71566">
        <ele>1230</ele>
        <time>2022-08-26T18:45:10Z</time>
      </trkpt>
      <trkpt lat="45.89025" lon="6.71565">
        <ele>1230</ele>
        <time>2022-08-26T18:45:11Z</time>
      </trkpt>
      <trkpt lat="45.89022" lon="6.71565">
        <ele>1230</ele>
        <time>2022-08-26T18:45:12Z</time>
      </trkpt>
      <trkpt lat="45.8902" lon="6.71565">
        <ele>1229</ele>
        <time>2022-08-26T18:45:13Z</time>
      </trkpt>
      <trkpt lat="45.89018" lon="6.71565">
        <ele>1228</ele>
        <time>2022-08-26T18:45:14Z</time>
      </trkpt>
      <trkpt lat="45.89015" lon="6.71564">
        <ele>1228</ele>
        <time>2022-08-26T18:45:15Z</time>
      </trkpt>
      <trkpt lat="45.89012" lon="6.71564">
        <ele>1227</ele>
        <time>2022-08-26T18:45:16Z</time>
      </trkpt>
      <trkpt lat="45.89009" lon="6.71563">
        <ele>1227</ele>
        <time>2022-08-26T18:45:17Z</time>
      </trkpt>
      <trkpt lat="45.89007" lon="6.71563">
        <ele>1227</ele>
        <time>2022-08-26T18:45:18Z</time>
      </trkpt>
      <trkpt lat="45.89005" lon="6.71564">
        <ele>1227</ele>
        <time>2022-08-26T18:45:19Z</time>
      </trkpt>
      <trkpt lat="45.89002" lon="6.71564">
        <ele>1226</ele>
        <time>2022-08-26T18:45:20Z</time>
      </trkpt>
      <trkpt lat="45.89" lon="6.71565">
        <ele>1226</ele>
        <time>2022-08-26T18:45:21Z</time>
      </trkpt>
      <trkpt lat="45.88996" lon="6.71567">
        <ele>1226</ele>
        <time>2022-08-26T18:45:22Z</time>
      </trkpt>
      <trkpt lat="45.88994" lon="6.71567">
        <ele>1226</ele>
        <time>2022-08-26T18:45:23Z</time>
      </trkpt>
      <trkpt lat="45.88992" lon="6.71569">
        <ele>1225</ele>
        <time>2022-08-26T18:45:24Z</time>
      </trkpt>
      <trkpt lat="45.88989" lon="6.7157">
        <ele>1225</ele>
        <time>2022-08-26T18:45:25Z</time>
      </trkpt>
      <trkpt lat="45.88987" lon="6.71572">
        <ele>1225</ele>
        <time>2022-08-26T18:45:26Z</time>
      </trkpt>
      <trkpt lat="45.88984" lon="6.71574">
        <ele>1225</ele>
        <time>2022-08-26T18:45:27Z</time>
      </trkpt>
      <trkpt lat="45.88983" lon="6.71574">
        <ele>1225</ele>
        <time>2022-08-26T18:45:28Z</time>
      </trkpt>
      <trkpt lat="45.88979" lon="6.71576">
        <ele>1225</ele>
        <time>2022-08-26T18:45:29Z</time>
      </trkpt>
      <trkpt lat="45.88978" lon="6.71577">
        <ele>1224</ele>
        <time>2022-08-26T18:45:30Z</time>
      </trkpt>
      <trkpt lat="45.88976" lon="6.71577">
        <ele>1224</ele>
        <time>2022-08-26T18:45:31Z</time>
      </trkpt>
      <trkpt lat="45.88972" lon="6.71577">
        <ele>1224</ele>
        <time>2022-08-26T18:45:32Z</time>
      </trkpt>
      <trkpt lat="45.88971" lon="6.71577">
        <ele>1222</ele>
        <time>2022-08-26T18:45:33Z</time>
      </trkpt>
      <trkpt lat="45.88969" lon="6.71576">
        <ele>1222</ele>
        <time>2022-08-26T18:45:34Z</time>
      </trkpt>
      <trkpt lat="45.88968" lon="6.7157">
        <ele>1220</ele>
        <time>2022-08-26T18:45:36Z</time>
      </trkpt>
      <trkpt lat="45.88971" lon="6.71567">
        <ele>1220</ele>
        <time>2022-08-26T18:45:37Z</time>
      </trkpt>
      <trkpt lat="45.88972" lon="6.71566">
        <ele>1220</ele>
        <time>2022-08-26T18:45:38Z</time>
      </trkpt>
      <trkpt lat="45.88974" lon="6.71564">
        <ele>1219</ele>
        <time>2022-08-26T18:45:39Z</time>
      </trkpt>
      <trkpt lat="45.88976" lon="6.71562">
        <ele>1218</ele>
        <time>2022-08-26T18:45:40Z</time>
      </trkpt>
      <trkpt lat="45.88981" lon="6.71559">
        <ele>1218</ele>
        <time>2022-08-26T18:45:42Z</time>
      </trkpt>
      <trkpt lat="45.88985" lon="6.71555">
        <ele>1218</ele>
        <time>2022-08-26T18:45:43Z</time>
      </trkpt>
      <trkpt lat="45.88988" lon="6.71553">
        <ele>1217</ele>
        <time>2022-08-26T18:45:44Z</time>
      </trkpt>
      <trkpt lat="45.88991" lon="6.71551">
        <ele>1217</ele>
        <time>2022-08-26T18:45:45Z</time>
      </trkpt>
      <trkpt lat="45.88993" lon="6.7155">
        <ele>1216</ele>
        <time>2022-08-26T18:45:46Z</time>
      </trkpt>
      <trkpt lat="45.88995" lon="6.71548">
        <ele>1216</ele>
        <time>2022-08-26T18:45:47Z</time>
      </trkpt>
      <trkpt lat="45.88997" lon="6.71546">
        <ele>1216</ele>
        <time>2022-08-26T18:45:48Z</time>
      </trkpt>
      <trkpt lat="45.88999" lon="6.71545">
        <ele>1215</ele>
        <time>2022-08-26T18:45:49Z</time>
      </trkpt>
      <trkpt lat="45.89003" lon="6.71542">
        <ele>1215</ele>
        <time>2022-08-26T18:45:50Z</time>
      </trkpt>
      <trkpt lat="45.89004" lon="6.71542">
        <ele>1215</ele>
        <time>2022-08-26T18:45:51Z</time>
      </trkpt>
      <trkpt lat="45.89007" lon="6.7154">
        <ele>1215</ele>
        <time>2022-08-26T18:45:52Z</time>
      </trkpt>
      <trkpt lat="45.89009" lon="6.71538">
        <ele>1215</ele>
        <time>2022-08-26T18:45:53Z</time>
      </trkpt>
      <trkpt lat="45.89011" lon="6.71536">
        <ele>1215</ele>
        <time>2022-08-26T18:45:54Z</time>
      </trkpt>
      <trkpt lat="45.89013" lon="6.71535">
        <ele>1215</ele>
        <time>2022-08-26T18:45:55Z</time>
      </trkpt>
      <trkpt lat="45.89016" lon="6.71534">
        <ele>1215</ele>
        <time>2022-08-26T18:45:56Z</time>
      </trkpt>
      <trkpt lat="45.89018" lon="6.71533">
        <ele>1214</ele>
        <time>2022-08-26T18:45:57Z</time>
      </trkpt>
      <trkpt lat="45.89021" lon="6.71531">
        <ele>1214</ele>
        <time>2022-08-26T18:45:58Z</time>
      </trkpt>
      <trkpt lat="45.89022" lon="6.7153">
        <ele>1213</ele>
        <time>2022-08-26T18:45:59Z</time>
      </trkpt>
      <trkpt lat="45.89026" lon="6.71529">
        <ele>1213</ele>
        <time>2022-08-26T18:46:00Z</time>
      </trkpt>
      <trkpt lat="45.89027" lon="6.71528">
        <ele>1213</ele>
        <time>2022-08-26T18:46:01Z</time>
      </trkpt>
      <trkpt lat="45.89029" lon="6.71527">
        <ele>1212</ele>
        <time>2022-08-26T18:46:02Z</time>
      </trkpt>
      <trkpt lat="45.89032" lon="6.71527">
        <ele>1212</ele>
        <time>2022-08-26T18:46:03Z</time>
      </trkpt>
      <trkpt lat="45.89035" lon="6.71525">
        <ele>1212</ele>
        <time>2022-08-26T18:46:04Z</time>
      </trkpt>
      <trkpt lat="45.89036" lon="6.71524">
        <ele>1210</ele>
        <time>2022-08-26T18:46:05Z</time>
      </trkpt>
      <trkpt lat="45.89039" lon="6.71523">
        <ele>1210</ele>
        <time>2022-08-26T18:46:06Z</time>
      </trkpt>
      <trkpt lat="45.89042" lon="6.71522">
        <ele>1210</ele>
        <time>2022-08-26T18:46:07Z</time>
      </trkpt>
      <trkpt lat="45.89044" lon="6.71523">
        <ele>1209</ele>
        <time>2022-08-26T18:46:08Z</time>
      </trkpt>
      <trkpt lat="45.89047" lon="6.71524">
        <ele>1209</ele>
        <time>2022-08-26T18:46:09Z</time>
      </trkpt>
      <trkpt lat="45.89049" lon="6.71524">
        <ele>1209</ele>
        <time>2022-08-26T18:46:10Z</time>
      </trkpt>
      <trkpt lat="45.89051" lon="6.71523">
        <ele>1209</ele>
        <time>2022-08-26T18:46:11Z</time>
      </trkpt>
      <trkpt lat="45.89053" lon="6.71524">
        <ele>1209</ele>
        <time>2022-08-26T18:46:12Z</time>
      </trkpt>
      <trkpt lat="45.89056" lon="6.71523">
        <ele>1209</ele>
        <time>2022-08-26T18:46:13Z</time>
      </trkpt>
      <trkpt lat="45.89059" lon="6.71522">
        <ele>1209</ele>
        <time>2022-08-26T18:46:14Z</time>
      </trkpt>
      <trkpt lat="45.89061" lon="6.71522">
        <ele>1208</ele>
        <time>2022-08-26T18:46:15Z</time>
      </trkpt>
      <trkpt lat="45.89065" lon="6.71521">
        <ele>1208</ele>
        <time>2022-08-26T18:46:16Z</time>
      </trkpt>
      <trkpt lat="45.89066" lon="6.71521">
        <ele>1208</ele>
        <time>2022-08-26T18:46:17Z</time>
      </trkpt>
      <trkpt lat="45.89068" lon="6.71521">
        <ele>1208</ele>
        <time>2022-08-26T18:46:18Z</time>
      </trkpt>
      <trkpt lat="45.89073" lon="6.71521">
        <ele>1208</ele>
        <time>2022-08-26T18:46:19Z</time>
      </trkpt>
      <trkpt lat="45.89074" lon="6.71521">
        <ele>1207</ele>
        <time>2022-08-26T18:46:20Z</time>
      </trkpt>
      <trkpt lat="45.89078" lon="6.71521">
        <ele>1207</ele>
        <time>2022-08-26T18:46:21Z</time>
      </trkpt>
      <trkpt lat="45.89079" lon="6.71521">
        <ele>1206</ele>
        <time>2022-08-26T18:46:22Z</time>
      </trkpt>
      <trkpt lat="45.89083" lon="6.71521">
        <ele>1206</ele>
        <time>2022-08-26T18:46:23Z</time>
      </trkpt>
      <trkpt lat="45.89084" lon="6.71521">
        <ele>1206</ele>
        <time>2022-08-26T18:46:24Z</time>
      </trkpt>
      <trkpt lat="45.89087" lon="6.71521">
        <ele>1206</ele>
        <time>2022-08-26T18:46:25Z</time>
      </trkpt>
      <trkpt lat="45.89089" lon="6.71521">
        <ele>1206</ele>
        <time>2022-08-26T18:46:26Z</time>
      </trkpt>
      <trkpt lat="45.89092" lon="6.71521">
        <ele>1206</ele>
        <time>2022-08-26T18:46:27Z</time>
      </trkpt>
      <trkpt lat="45.89095" lon="6.7152">
        <ele>1206</ele>
        <time>2022-08-26T18:46:28Z</time>
      </trkpt>
      <trkpt lat="45.89096" lon="6.7152">
        <ele>1205</ele>
        <time>2022-08-26T18:46:29Z</time>
      </trkpt>
      <trkpt lat="45.89099" lon="6.7152">
        <ele>1205</ele>
        <time>2022-08-26T18:46:30Z</time>
      </trkpt>
      <trkpt lat="45.89101" lon="6.71521">
        <ele>1205</ele>
        <time>2022-08-26T18:46:31Z</time>
      </trkpt>
      <trkpt lat="45.89104" lon="6.7152">
        <ele>1204</ele>
        <time>2022-08-26T18:46:32Z</time>
      </trkpt>
      <trkpt lat="45.89108" lon="6.71522">
        <ele>1204</ele>
        <time>2022-08-26T18:46:33Z</time>
      </trkpt>
      <trkpt lat="45.8911" lon="6.71523">
        <ele>1204</ele>
        <time>2022-08-26T18:46:34Z</time>
      </trkpt>
      <trkpt lat="45.89114" lon="6.71524">
        <ele>1204</ele>
        <time>2022-08-26T18:46:35Z</time>
      </trkpt>
      <trkpt lat="45.89115" lon="6.71524">
        <ele>1204</ele>
        <time>2022-08-26T18:46:36Z</time>
      </trkpt>
      <trkpt lat="45.89118" lon="6.71526">
        <ele>1203</ele>
        <time>2022-08-26T18:46:37Z</time>
      </trkpt>
      <trkpt lat="45.89122" lon="6.71526">
        <ele>1203</ele>
        <time>2022-08-26T18:46:38Z</time>
      </trkpt>
      <trkpt lat="45.89123" lon="6.71526">
        <ele>1202</ele>
        <time>2022-08-26T18:46:39Z</time>
      </trkpt>
      <trkpt lat="45.89126" lon="6.71526">
        <ele>1202</ele>
        <time>2022-08-26T18:46:40Z</time>
      </trkpt>
      <trkpt lat="45.89129" lon="6.71527">
        <ele>1202</ele>
        <time>2022-08-26T18:46:41Z</time>
      </trkpt>
      <trkpt lat="45.89133" lon="6.71527">
        <ele>1202</ele>
        <time>2022-08-26T18:46:42Z</time>
      </trkpt>
      <trkpt lat="45.89134" lon="6.71527">
        <ele>1202</ele>
        <time>2022-08-26T18:46:43Z</time>
      </trkpt>
      <trkpt lat="45.89136" lon="6.71526">
        <ele>1202</ele>
        <time>2022-08-26T18:46:44Z</time>
      </trkpt>
      <trkpt lat="45.89138" lon="6.71525">
        <ele>1202</ele>
        <time>2022-08-26T18:46:45Z</time>
      </trkpt>
      <trkpt lat="45.8914" lon="6.71524">
        <ele>1202</ele>
        <time>2022-08-26T18:46:46Z</time>
      </trkpt>
      <trkpt lat="45.8914" lon="6.71521">
        <ele>1202</ele>
        <time>2022-08-26T18:46:47Z</time>
      </trkpt>
      <trkpt lat="45.8914" lon="6.71518">
        <ele>1201</ele>
        <time>2022-08-26T18:46:48Z</time>
      </trkpt>
      <trkpt lat="45.89138" lon="6.71516">
        <ele>1201</ele>
        <time>2022-08-26T18:46:49Z</time>
      </trkpt>
      <trkpt lat="45.89136" lon="6.71514">
        <ele>1200</ele>
        <time>2022-08-26T18:46:50Z</time>
      </trkpt>
      <trkpt lat="45.89134" lon="6.71513">
        <ele>1200</ele>
        <time>2022-08-26T18:46:51Z</time>
      </trkpt>
      <trkpt lat="45.89132" lon="6.71513">
        <ele>1200</ele>
        <time>2022-08-26T18:46:52Z</time>
      </trkpt>
      <trkpt lat="45.8913" lon="6.71513">
        <ele>1199</ele>
        <time>2022-08-26T18:46:53Z</time>
      </trkpt>
      <trkpt lat="45.89128" lon="6.71513">
        <ele>1199</ele>
        <time>2022-08-26T18:46:54Z</time>
      </trkpt>
      <trkpt lat="45.89125" lon="6.71512">
        <ele>1198</ele>
        <time>2022-08-26T18:46:55Z</time>
      </trkpt>
      <trkpt lat="45.89123" lon="6.71512">
        <ele>1198</ele>
        <time>2022-08-26T18:46:56Z</time>
      </trkpt>
      <trkpt lat="45.8912" lon="6.71512">
        <ele>1198</ele>
        <time>2022-08-26T18:46:57Z</time>
      </trkpt>
      <trkpt lat="45.89117" lon="6.71512">
        <ele>1198</ele>
        <time>2022-08-26T18:46:58Z</time>
      </trkpt>
      <trkpt lat="45.89114" lon="6.7151">
        <ele>1198</ele>
        <time>2022-08-26T18:46:59Z</time>
      </trkpt>
      <trkpt lat="45.89112" lon="6.7151">
        <ele>1198</ele>
        <time>2022-08-26T18:47:00Z</time>
      </trkpt>
      <trkpt lat="45.89111" lon="6.71507">
        <ele>1198</ele>
        <time>2022-08-26T18:47:01Z</time>
      </trkpt>
      <trkpt lat="45.89111" lon="6.71505">
        <ele>1197</ele>
        <time>2022-08-26T18:47:02Z</time>
      </trkpt>
      <trkpt lat="45.89112" lon="6.71502">
        <ele>1197</ele>
        <time>2022-08-26T18:47:03Z</time>
      </trkpt>
      <trkpt lat="45.89115" lon="6.71498">
        <ele>1197</ele>
        <time>2022-08-26T18:47:04Z</time>
      </trkpt>
      <trkpt lat="45.89116" lon="6.71497">
        <ele>1196</ele>
        <time>2022-08-26T18:47:05Z</time>
      </trkpt>
      <trkpt lat="45.89118" lon="6.71494">
        <ele>1196</ele>
        <time>2022-08-26T18:47:06Z</time>
      </trkpt>
      <trkpt lat="45.8912" lon="6.71492">
        <ele>1195</ele>
        <time>2022-08-26T18:47:07Z</time>
      </trkpt>
      <trkpt lat="45.89122" lon="6.7149">
        <ele>1194</ele>
        <time>2022-08-26T18:47:08Z</time>
      </trkpt>
      <trkpt lat="45.89125" lon="6.71486">
        <ele>1194</ele>
        <time>2022-08-26T18:47:09Z</time>
      </trkpt>
      <trkpt lat="45.89127" lon="6.71485">
        <ele>1194</ele>
        <time>2022-08-26T18:47:10Z</time>
      </trkpt>
      <trkpt lat="45.89129" lon="6.71481">
        <ele>1194</ele>
        <time>2022-08-26T18:47:11Z</time>
      </trkpt>
      <trkpt lat="45.8913" lon="6.7148">
        <ele>1193</ele>
        <time>2022-08-26T18:47:12Z</time>
      </trkpt>
      <trkpt lat="45.89131" lon="6.71477">
        <ele>1193</ele>
        <time>2022-08-26T18:47:13Z</time>
      </trkpt>
      <trkpt lat="45.89132" lon="6.71474">
        <ele>1192</ele>
        <time>2022-08-26T18:47:14Z</time>
      </trkpt>
      <trkpt lat="45.89131" lon="6.71471">
        <ele>1191</ele>
        <time>2022-08-26T18:47:15Z</time>
      </trkpt>
      <trkpt lat="45.8913" lon="6.71467">
        <ele>1191</ele>
        <time>2022-08-26T18:47:16Z</time>
      </trkpt>
      <trkpt lat="45.89129" lon="6.71464">
        <ele>1191</ele>
        <time>2022-08-26T18:47:17Z</time>
      </trkpt>
      <trkpt lat="45.89128" lon="6.7146">
        <ele>1189</ele>
        <time>2022-08-26T18:47:18Z</time>
      </trkpt>
      <trkpt lat="45.89127" lon="6.71457">
        <ele>1188</ele>
        <time>2022-08-26T18:47:19Z</time>
      </trkpt>
      <trkpt lat="45.89126" lon="6.71453">
        <ele>1188</ele>
        <time>2022-08-26T18:47:20Z</time>
      </trkpt>
      <trkpt lat="45.89125" lon="6.71448">
        <ele>1188</ele>
        <time>2022-08-26T18:47:21Z</time>
      </trkpt>
      <trkpt lat="45.89125" lon="6.71447">
        <ele>1188</ele>
        <time>2022-08-26T18:47:22Z</time>
      </trkpt>
      <trkpt lat="45.89124" lon="6.71443">
        <ele>1187</ele>
        <time>2022-08-26T18:47:23Z</time>
      </trkpt>
      <trkpt lat="45.89124" lon="6.7144">
        <ele>1187</ele>
        <time>2022-08-26T18:47:24Z</time>
      </trkpt>
      <trkpt lat="45.89124" lon="6.71436">
        <ele>1187</ele>
        <time>2022-08-26T18:47:25Z</time>
      </trkpt>
      <trkpt lat="45.89124" lon="6.7143">
        <ele>1187</ele>
        <time>2022-08-26T18:47:26Z</time>
      </trkpt>
      <trkpt lat="45.89124" lon="6.71429">
        <ele>1187</ele>
        <time>2022-08-26T18:47:27Z</time>
      </trkpt>
      <trkpt lat="45.89123" lon="6.71425">
        <ele>1186</ele>
        <time>2022-08-26T18:47:28Z</time>
      </trkpt>
      <trkpt lat="45.89122" lon="6.71422">
        <ele>1185</ele>
        <time>2022-08-26T18:47:29Z</time>
      </trkpt>
      <trkpt lat="45.89121" lon="6.71418">
        <ele>1184</ele>
        <time>2022-08-26T18:47:30Z</time>
      </trkpt>
      <trkpt lat="45.8912" lon="6.71413">
        <ele>1184</ele>
        <time>2022-08-26T18:47:31Z</time>
      </trkpt>
      <trkpt lat="45.8912" lon="6.71412">
        <ele>1184</ele>
        <time>2022-08-26T18:47:32Z</time>
      </trkpt>
      <trkpt lat="45.89119" lon="6.71408">
        <ele>1184</ele>
        <time>2022-08-26T18:47:33Z</time>
      </trkpt>
      <trkpt lat="45.89119" lon="6.71405">
        <ele>1183</ele>
        <time>2022-08-26T18:47:34Z</time>
      </trkpt>
      <trkpt lat="45.89119" lon="6.71402">
        <ele>1183</ele>
        <time>2022-08-26T18:47:35Z</time>
      </trkpt>
      <trkpt lat="45.89118" lon="6.71399">
        <ele>1183</ele>
        <time>2022-08-26T18:47:36Z</time>
      </trkpt>
      <trkpt lat="45.89118" lon="6.71396">
        <ele>1182</ele>
        <time>2022-08-26T18:47:37Z</time>
      </trkpt>
      <trkpt lat="45.89117" lon="6.71393">
        <ele>1182</ele>
        <time>2022-08-26T18:47:38Z</time>
      </trkpt>
      <trkpt lat="45.89117" lon="6.7139">
        <ele>1181</ele>
        <time>2022-08-26T18:47:39Z</time>
      </trkpt>
      <trkpt lat="45.89115" lon="6.71386">
        <ele>1181</ele>
        <time>2022-08-26T18:47:41Z</time>
      </trkpt>
      <trkpt lat="45.89114" lon="6.71384">
        <ele>1180</ele>
        <time>2022-08-26T18:47:43Z</time>
      </trkpt>
      <trkpt lat="45.89114" lon="6.71381">
        <ele>1179</ele>
        <time>2022-08-26T18:47:45Z</time>
      </trkpt>
      <trkpt lat="45.89113" lon="6.71378">
        <ele>1177</ele>
        <time>2022-08-26T18:47:48Z</time>
      </trkpt>
      <trkpt lat="45.89113" lon="6.71374">
        <ele>1176</ele>
        <time>2022-08-26T18:47:51Z</time>
      </trkpt>
      <trkpt lat="45.89113" lon="6.71372">
        <ele>1175</ele>
        <time>2022-08-26T18:47:53Z</time>
      </trkpt>
      <trkpt lat="45.89113" lon="6.71369">
        <ele>1174</ele>
        <time>2022-08-26T18:47:54Z</time>
      </trkpt>
      <trkpt lat="45.89114" lon="6.71365">
        <ele>1174</ele>
        <time>2022-08-26T18:47:55Z</time>
      </trkpt>
      <trkpt lat="45.89115" lon="6.71362">
        <ele>1174</ele>
        <time>2022-08-26T18:47:56Z</time>
      </trkpt>
      <trkpt lat="45.89115" lon="6.71358">
        <ele>1174</ele>
        <time>2022-08-26T18:47:57Z</time>
      </trkpt>
      <trkpt lat="45.89115" lon="6.71353">
        <ele>1174</ele>
        <time>2022-08-26T18:47:58Z</time>
      </trkpt>
      <trkpt lat="45.89115" lon="6.71351">
        <ele>1174</ele>
        <time>2022-08-26T18:47:59Z</time>
      </trkpt>
      <trkpt lat="45.89115" lon="6.71348">
        <ele>1174</ele>
        <time>2022-08-26T18:48:00Z</time>
      </trkpt>
      <trkpt lat="45.89114" lon="6.71344">
        <ele>1174</ele>
        <time>2022-08-26T18:48:01Z</time>
      </trkpt>
      <trkpt lat="45.89113" lon="6.7134">
        <ele>1174</ele>
        <time>2022-08-26T18:48:02Z</time>
      </trkpt>
      <trkpt lat="45.89114" lon="6.71335">
        <ele>1174</ele>
        <time>2022-08-26T18:48:03Z</time>
      </trkpt>
      <trkpt lat="45.89114" lon="6.71334">
        <ele>1173</ele>
        <time>2022-08-26T18:48:04Z</time>
      </trkpt>
      <trkpt lat="45.89117" lon="6.7133">
        <ele>1173</ele>
        <time>2022-08-26T18:48:05Z</time>
      </trkpt>
      <trkpt lat="45.89118" lon="6.71329">
        <ele>1173</ele>
        <time>2022-08-26T18:48:06Z</time>
      </trkpt>
      <trkpt lat="45.8912" lon="6.71327">
        <ele>1173</ele>
        <time>2022-08-26T18:48:07Z</time>
      </trkpt>
      <trkpt lat="45.89122" lon="6.71326">
        <ele>1172</ele>
        <time>2022-08-26T18:48:08Z</time>
      </trkpt>
      <trkpt lat="45.89125" lon="6.71325">
        <ele>1172</ele>
        <time>2022-08-26T18:48:09Z</time>
      </trkpt>
      <trkpt lat="45.89127" lon="6.71325">
        <ele>1172</ele>
        <time>2022-08-26T18:48:10Z</time>
      </trkpt>
      <trkpt lat="45.8913" lon="6.71324">
        <ele>1172</ele>
        <time>2022-08-26T18:48:11Z</time>
      </trkpt>
      <trkpt lat="45.89133" lon="6.71325">
        <ele>1171</ele>
        <time>2022-08-26T18:48:12Z</time>
      </trkpt>
      <trkpt lat="45.89136" lon="6.71327">
        <ele>1171</ele>
        <time>2022-08-26T18:48:13Z</time>
      </trkpt>
      <trkpt lat="45.89138" lon="6.71328">
        <ele>1171</ele>
        <time>2022-08-26T18:48:14Z</time>
      </trkpt>
      <trkpt lat="45.89141" lon="6.7133">
        <ele>1171</ele>
        <time>2022-08-26T18:48:15Z</time>
      </trkpt>
      <trkpt lat="45.89142" lon="6.71331">
        <ele>1171</ele>
        <time>2022-08-26T18:48:16Z</time>
      </trkpt>
      <trkpt lat="45.89145" lon="6.71335">
        <ele>1171</ele>
        <time>2022-08-26T18:48:17Z</time>
      </trkpt>
      <trkpt lat="45.89145" lon="6.71336">
        <ele>1171</ele>
        <time>2022-08-26T18:48:18Z</time>
      </trkpt>
      <trkpt lat="45.89147" lon="6.71338">
        <ele>1170</ele>
        <time>2022-08-26T18:48:19Z</time>
      </trkpt>
      <trkpt lat="45.89149" lon="6.7134">
        <ele>1170</ele>
        <time>2022-08-26T18:48:20Z</time>
      </trkpt>
      <trkpt lat="45.89151" lon="6.71342">
        <ele>1170</ele>
        <time>2022-08-26T18:48:21Z</time>
      </trkpt>
      <trkpt lat="45.89153" lon="6.71345">
        <ele>1170</ele>
        <time>2022-08-26T18:48:22Z</time>
      </trkpt>
      <trkpt lat="45.89154" lon="6.71346">
        <ele>1169</ele>
        <time>2022-08-26T18:48:23Z</time>
      </trkpt>
      <trkpt lat="45.89156" lon="6.71347">
        <ele>1169</ele>
        <time>2022-08-26T18:48:24Z</time>
      </trkpt>
      <trkpt lat="45.89159" lon="6.7135">
        <ele>1169</ele>
        <time>2022-08-26T18:48:25Z</time>
      </trkpt>
      <trkpt lat="45.89161" lon="6.7135">
        <ele>1169</ele>
        <time>2022-08-26T18:48:26Z</time>
      </trkpt>
      <trkpt lat="45.89163" lon="6.71352">
        <ele>1169</ele>
        <time>2022-08-26T18:48:27Z</time>
      </trkpt>
      <trkpt lat="45.89166" lon="6.71352">
        <ele>1169</ele>
        <time>2022-08-26T18:48:28Z</time>
      </trkpt>
      <trkpt lat="45.89168" lon="6.71353">
        <ele>1168</ele>
        <time>2022-08-26T18:48:29Z</time>
      </trkpt>
      <trkpt lat="45.89171" lon="6.71353">
        <ele>1168</ele>
        <time>2022-08-26T18:48:30Z</time>
      </trkpt>
      <trkpt lat="45.89174" lon="6.71353">
        <ele>1168</ele>
        <time>2022-08-26T18:48:31Z</time>
      </trkpt>
      <trkpt lat="45.89178" lon="6.71353">
        <ele>1168</ele>
        <time>2022-08-26T18:48:32Z</time>
      </trkpt>
      <trkpt lat="45.89179" lon="6.71353">
        <ele>1168</ele>
        <time>2022-08-26T18:48:33Z</time>
      </trkpt>
      <trkpt lat="45.89181" lon="6.71352">
        <ele>1168</ele>
        <time>2022-08-26T18:48:34Z</time>
      </trkpt>
      <trkpt lat="45.89183" lon="6.71351">
        <ele>1168</ele>
        <time>2022-08-26T18:48:35Z</time>
      </trkpt>
      <trkpt lat="45.89186" lon="6.71349">
        <ele>1168</ele>
        <time>2022-08-26T18:48:36Z</time>
      </trkpt>
      <trkpt lat="45.89187" lon="6.71348">
        <ele>1168</ele>
        <time>2022-08-26T18:48:37Z</time>
      </trkpt>
      <trkpt lat="45.89188" lon="6.71347">
        <ele>1168</ele>
        <time>2022-08-26T18:48:38Z</time>
      </trkpt>
      <trkpt lat="45.8919" lon="6.71345">
        <ele>1168</ele>
        <time>2022-08-26T18:48:39Z</time>
      </trkpt>
      <trkpt lat="45.89192" lon="6.71343">
        <ele>1168</ele>
        <time>2022-08-26T18:48:40Z</time>
      </trkpt>
      <trkpt lat="45.89193" lon="6.71341">
        <ele>1168</ele>
        <time>2022-08-26T18:48:41Z</time>
      </trkpt>
      <trkpt lat="45.89194" lon="6.71339">
        <ele>1167</ele>
        <time>2022-08-26T18:48:42Z</time>
      </trkpt>
      <trkpt lat="45.89196" lon="6.71336">
        <ele>1167</ele>
        <time>2022-08-26T18:48:43Z</time>
      </trkpt>
      <trkpt lat="45.89196" lon="6.71334">
        <ele>1167</ele>
        <time>2022-08-26T18:48:44Z</time>
      </trkpt>
      <trkpt lat="45.89197" lon="6.7133">
        <ele>1167</ele>
        <time>2022-08-26T18:48:45Z</time>
      </trkpt>
      <trkpt lat="45.89197" lon="6.71327">
        <ele>1167</ele>
        <time>2022-08-26T18:48:46Z</time>
      </trkpt>
      <trkpt lat="45.89197" lon="6.71324">
        <ele>1167</ele>
        <time>2022-08-26T18:48:47Z</time>
      </trkpt>
      <trkpt lat="45.89197" lon="6.7132">
        <ele>1166</ele>
        <time>2022-08-26T18:48:48Z</time>
      </trkpt>
      <trkpt lat="45.89197" lon="6.71317">
        <ele>1166</ele>
        <time>2022-08-26T18:48:49Z</time>
      </trkpt>
      <trkpt lat="45.89197" lon="6.71314">
        <ele>1166</ele>
        <time>2022-08-26T18:48:50Z</time>
      </trkpt>
      <trkpt lat="45.89198" lon="6.71309">
        <ele>1166</ele>
        <time>2022-08-26T18:48:51Z</time>
      </trkpt>
      <trkpt lat="45.89198" lon="6.71307">
        <ele>1166</ele>
        <time>2022-08-26T18:48:52Z</time>
      </trkpt>
      <trkpt lat="45.89198" lon="6.71303">
        <ele>1166</ele>
        <time>2022-08-26T18:48:53Z</time>
      </trkpt>
      <trkpt lat="45.89199" lon="6.713">
        <ele>1166</ele>
        <time>2022-08-26T18:48:54Z</time>
      </trkpt>
      <trkpt lat="45.892" lon="6.71295">
        <ele>1166</ele>
        <time>2022-08-26T18:48:55Z</time>
      </trkpt>
      <trkpt lat="45.892" lon="6.71293">
        <ele>1166</ele>
        <time>2022-08-26T18:48:56Z</time>
      </trkpt>
      <trkpt lat="45.89201" lon="6.7129">
        <ele>1166</ele>
        <time>2022-08-26T18:48:57Z</time>
      </trkpt>
      <trkpt lat="45.89202" lon="6.71286">
        <ele>1166</ele>
        <time>2022-08-26T18:48:58Z</time>
      </trkpt>
      <trkpt lat="45.89203" lon="6.71282">
        <ele>1166</ele>
        <time>2022-08-26T18:48:59Z</time>
      </trkpt>
      <trkpt lat="45.89203" lon="6.71278">
        <ele>1166</ele>
        <time>2022-08-26T18:49:00Z</time>
      </trkpt>
      <trkpt lat="45.89204" lon="6.71274">
        <ele>1166</ele>
        <time>2022-08-26T18:49:01Z</time>
      </trkpt>
      <trkpt lat="45.89205" lon="6.71271">
        <ele>1166</ele>
        <time>2022-08-26T18:49:02Z</time>
      </trkpt>
      <trkpt lat="45.89206" lon="6.71267">
        <ele>1165</ele>
        <time>2022-08-26T18:49:03Z</time>
      </trkpt>
      <trkpt lat="45.89207" lon="6.71264">
        <ele>1165</ele>
        <time>2022-08-26T18:49:04Z</time>
      </trkpt>
      <trkpt lat="45.89208" lon="6.71259">
        <ele>1165</ele>
        <time>2022-08-26T18:49:05Z</time>
      </trkpt>
      <trkpt lat="45.89208" lon="6.71257">
        <ele>1165</ele>
        <time>2022-08-26T18:49:06Z</time>
      </trkpt>
      <trkpt lat="45.89209" lon="6.71252">
        <ele>1165</ele>
        <time>2022-08-26T18:49:07Z</time>
      </trkpt>
      <trkpt lat="45.89209" lon="6.7125">
        <ele>1165</ele>
        <time>2022-08-26T18:49:08Z</time>
      </trkpt>
      <trkpt lat="45.8921" lon="6.71247">
        <ele>1165</ele>
        <time>2022-08-26T18:49:09Z</time>
      </trkpt>
      <trkpt lat="45.89211" lon="6.71242">
        <ele>1165</ele>
        <time>2022-08-26T18:49:10Z</time>
      </trkpt>
      <trkpt lat="45.89211" lon="6.7124">
        <ele>1165</ele>
        <time>2022-08-26T18:49:11Z</time>
      </trkpt>
      <trkpt lat="45.89212" lon="6.71235">
        <ele>1165</ele>
        <time>2022-08-26T18:49:12Z</time>
      </trkpt>
      <trkpt lat="45.89213" lon="6.71233">
        <ele>1163</ele>
        <time>2022-08-26T18:49:13Z</time>
      </trkpt>
      <trkpt lat="45.89213" lon="6.7123">
        <ele>1163</ele>
        <time>2022-08-26T18:49:14Z</time>
      </trkpt>
      <trkpt lat="45.89214" lon="6.71227">
        <ele>1163</ele>
        <time>2022-08-26T18:49:15Z</time>
      </trkpt>
      <trkpt lat="45.89215" lon="6.71224">
        <ele>1163</ele>
        <time>2022-08-26T18:49:16Z</time>
      </trkpt>
      <trkpt lat="45.89216" lon="6.71219">
        <ele>1163</ele>
        <time>2022-08-26T18:49:17Z</time>
      </trkpt>
      <trkpt lat="45.89216" lon="6.71217">
        <ele>1163</ele>
        <time>2022-08-26T18:49:18Z</time>
      </trkpt>
      <trkpt lat="45.89217" lon="6.71214">
        <ele>1163</ele>
        <time>2022-08-26T18:49:19Z</time>
      </trkpt>
      <trkpt lat="45.89219" lon="6.71212">
        <ele>1163</ele>
        <time>2022-08-26T18:49:20Z</time>
      </trkpt>
      <trkpt lat="45.89221" lon="6.7121">
        <ele>1163</ele>
        <time>2022-08-26T18:49:21Z</time>
      </trkpt>
      <trkpt lat="45.89223" lon="6.71206">
        <ele>1163</ele>
        <time>2022-08-26T18:49:22Z</time>
      </trkpt>
      <trkpt lat="45.89224" lon="6.71205">
        <ele>1163</ele>
        <time>2022-08-26T18:49:23Z</time>
      </trkpt>
      <trkpt lat="45.89226" lon="6.71203">
        <ele>1163</ele>
        <time>2022-08-26T18:49:24Z</time>
      </trkpt>
      <trkpt lat="45.89227" lon="6.71202">
        <ele>1163</ele>
        <time>2022-08-26T18:49:25Z</time>
      </trkpt>
      <trkpt lat="45.89229" lon="6.71199">
        <ele>1164</ele>
        <time>2022-08-26T18:49:26Z</time>
      </trkpt>
      <trkpt lat="45.89232" lon="6.71198">
        <ele>1164</ele>
        <time>2022-08-26T18:49:27Z</time>
      </trkpt>
      <trkpt lat="45.89234" lon="6.71195">
        <ele>1164</ele>
        <time>2022-08-26T18:49:28Z</time>
      </trkpt>
      <trkpt lat="45.89236" lon="6.71193">
        <ele>1164</ele>
        <time>2022-08-26T18:49:29Z</time>
      </trkpt>
      <trkpt lat="45.89238" lon="6.71191">
        <ele>1164</ele>
        <time>2022-08-26T18:49:30Z</time>
      </trkpt>
      <trkpt lat="45.89246" lon="6.71185">
        <ele>1164</ele>
        <time>2022-08-26T18:49:34Z</time>
      </trkpt>
      <trkpt lat="45.89249" lon="6.71183">
        <ele>1164</ele>
        <time>2022-08-26T18:49:35Z</time>
      </trkpt>
      <trkpt lat="45.89252" lon="6.7118">
        <ele>1164</ele>
        <time>2022-08-26T18:49:36Z</time>
      </trkpt>
      <trkpt lat="45.89254" lon="6.71176">
        <ele>1164</ele>
        <time>2022-08-26T18:49:37Z</time>
      </trkpt>
      <trkpt lat="45.89256" lon="6.71173">
        <ele>1164</ele>
        <time>2022-08-26T18:49:38Z</time>
      </trkpt>
      <trkpt lat="45.89259" lon="6.71169">
        <ele>1164</ele>
        <time>2022-08-26T18:49:39Z</time>
      </trkpt>
      <trkpt lat="45.89262" lon="6.71167">
        <ele>1164</ele>
        <time>2022-08-26T18:49:40Z</time>
      </trkpt>
      <trkpt lat="45.89264" lon="6.71166">
        <ele>1164</ele>
        <time>2022-08-26T18:49:41Z</time>
      </trkpt>
      <trkpt lat="45.89267" lon="6.71164">
        <ele>1164</ele>
        <time>2022-08-26T18:49:42Z</time>
      </trkpt>
      <trkpt lat="45.89269" lon="6.71163">
        <ele>1164</ele>
        <time>2022-08-26T18:49:43Z</time>
      </trkpt>
      <trkpt lat="45.89272" lon="6.71161">
        <ele>1164</ele>
        <time>2022-08-26T18:49:44Z</time>
      </trkpt>
      <trkpt lat="45.89274" lon="6.7116">
        <ele>1164</ele>
        <time>2022-08-26T18:49:45Z</time>
      </trkpt>
      <trkpt lat="45.89277" lon="6.71159">
        <ele>1164</ele>
        <time>2022-08-26T18:49:46Z</time>
      </trkpt>
      <trkpt lat="45.89279" lon="6.71157">
        <ele>1164</ele>
        <time>2022-08-26T18:49:47Z</time>
      </trkpt>
      <trkpt lat="45.89282" lon="6.71154">
        <ele>1164</ele>
        <time>2022-08-26T18:49:48Z</time>
      </trkpt>
      <trkpt lat="45.89284" lon="6.71153">
        <ele>1164</ele>
        <time>2022-08-26T18:49:49Z</time>
      </trkpt>
      <trkpt lat="45.89287" lon="6.7115">
        <ele>1164</ele>
        <time>2022-08-26T18:49:50Z</time>
      </trkpt>
      <trkpt lat="45.89288" lon="6.7115">
        <ele>1163</ele>
        <time>2022-08-26T18:49:51Z</time>
      </trkpt>
      <trkpt lat="45.89291" lon="6.71149">
        <ele>1163</ele>
        <time>2022-08-26T18:49:52Z</time>
      </trkpt>
      <trkpt lat="45.89294" lon="6.71148">
        <ele>1163</ele>
        <time>2022-08-26T18:49:53Z</time>
      </trkpt>
      <trkpt lat="45.89296" lon="6.71146">
        <ele>1164</ele>
        <time>2022-08-26T18:49:54Z</time>
      </trkpt>
      <trkpt lat="45.89299" lon="6.71145">
        <ele>1164</ele>
        <time>2022-08-26T18:49:55Z</time>
      </trkpt>
      <trkpt lat="45.89302" lon="6.71144">
        <ele>1164</ele>
        <time>2022-08-26T18:49:56Z</time>
      </trkpt>
      <trkpt lat="45.89304" lon="6.71144">
        <ele>1164</ele>
        <time>2022-08-26T18:49:57Z</time>
      </trkpt>
      <trkpt lat="45.89307" lon="6.71143">
        <ele>1164</ele>
        <time>2022-08-26T18:49:58Z</time>
      </trkpt>
      <trkpt lat="45.8931" lon="6.71141">
        <ele>1164</ele>
        <time>2022-08-26T18:49:59Z</time>
      </trkpt>
      <trkpt lat="45.89312" lon="6.7114">
        <ele>1163</ele>
        <time>2022-08-26T18:50:00Z</time>
      </trkpt>
      <trkpt lat="45.89315" lon="6.7114">
        <ele>1163</ele>
        <time>2022-08-26T18:50:01Z</time>
      </trkpt>
      <trkpt lat="45.89318" lon="6.71139">
        <ele>1163</ele>
        <time>2022-08-26T18:50:02Z</time>
      </trkpt>
      <trkpt lat="45.8932" lon="6.71139">
        <ele>1163</ele>
        <time>2022-08-26T18:50:03Z</time>
      </trkpt>
      <trkpt lat="45.89324" lon="6.7114">
        <ele>1163</ele>
        <time>2022-08-26T18:50:04Z</time>
      </trkpt>
      <trkpt lat="45.89326" lon="6.71141">
        <ele>1162</ele>
        <time>2022-08-26T18:50:05Z</time>
      </trkpt>
      <trkpt lat="45.89329" lon="6.71143">
        <ele>1162</ele>
        <time>2022-08-26T18:50:06Z</time>
      </trkpt>
      <trkpt lat="45.89332" lon="6.71145">
        <ele>1162</ele>
        <time>2022-08-26T18:50:08Z</time>
      </trkpt>
      <trkpt lat="45.89335" lon="6.71147">
        <ele>1162</ele>
        <time>2022-08-26T18:50:09Z</time>
      </trkpt>
      <trkpt lat="45.89338" lon="6.71149">
        <ele>1162</ele>
        <time>2022-08-26T18:50:10Z</time>
      </trkpt>
      <trkpt lat="45.8934" lon="6.71149">
        <ele>1161</ele>
        <time>2022-08-26T18:50:12Z</time>
      </trkpt>
      <trkpt lat="45.89342" lon="6.7115">
        <ele>1161</ele>
        <time>2022-08-26T18:50:13Z</time>
      </trkpt>
      <trkpt lat="45.89344" lon="6.7115">
        <ele>1161</ele>
        <time>2022-08-26T18:50:14Z</time>
      </trkpt>
      <trkpt lat="45.89345" lon="6.71151">
        <ele>1161</ele>
        <time>2022-08-26T18:50:15Z</time>
      </trkpt>
      <trkpt lat="45.89353" lon="6.71151">
        <ele>1161</ele>
        <time>2022-08-26T18:50:16Z</time>
      </trkpt>
      <trkpt lat="45.89355" lon="6.7115">
        <ele>1161</ele>
        <time>2022-08-26T18:50:17Z</time>
      </trkpt>
      <trkpt lat="45.89356" lon="6.71148">
        <ele>1160</ele>
        <time>2022-08-26T18:50:18Z</time>
      </trkpt>
      <trkpt lat="45.89357" lon="6.71146">
        <ele>1160</ele>
        <time>2022-08-26T18:50:19Z</time>
      </trkpt>
      <trkpt lat="45.89358" lon="6.71143">
        <ele>1160</ele>
        <time>2022-08-26T18:50:20Z</time>
      </trkpt>
      <trkpt lat="45.89358" lon="6.71141">
        <ele>1160</ele>
        <time>2022-08-26T18:50:21Z</time>
      </trkpt>
      <trkpt lat="45.89356" lon="6.71135">
        <ele>1159</ele>
        <time>2022-08-26T18:50:23Z</time>
      </trkpt>
      <trkpt lat="45.89355" lon="6.71131">
        <ele>1159</ele>
        <time>2022-08-26T18:50:24Z</time>
      </trkpt>
      <trkpt lat="45.89354" lon="6.71129">
        <ele>1158</ele>
        <time>2022-08-26T18:50:25Z</time>
      </trkpt>
      <trkpt lat="45.89351" lon="6.71126">
        <ele>1158</ele>
        <time>2022-08-26T18:50:26Z</time>
      </trkpt>
      <trkpt lat="45.89349" lon="6.71125">
        <ele>1158</ele>
        <time>2022-08-26T18:50:27Z</time>
      </trkpt>
      <trkpt lat="45.89347" lon="6.71124">
        <ele>1158</ele>
        <time>2022-08-26T18:50:28Z</time>
      </trkpt>
      <trkpt lat="45.89345" lon="6.71123">
        <ele>1158</ele>
        <time>2022-08-26T18:50:29Z</time>
      </trkpt>
      <trkpt lat="45.89342" lon="6.71123">
        <ele>1158</ele>
        <time>2022-08-26T18:50:30Z</time>
      </trkpt>
      <trkpt lat="45.89341" lon="6.71123">
        <ele>1158</ele>
        <time>2022-08-26T18:50:31Z</time>
      </trkpt>
      <trkpt lat="45.89339" lon="6.71124">
        <ele>1158</ele>
        <time>2022-08-26T18:50:32Z</time>
      </trkpt>
      <trkpt lat="45.89335" lon="6.71124">
        <ele>1158</ele>
        <time>2022-08-26T18:50:34Z</time>
      </trkpt>
      <trkpt lat="45.89333" lon="6.71124">
        <ele>1158</ele>
        <time>2022-08-26T18:50:35Z</time>
      </trkpt>
      <trkpt lat="45.89331" lon="6.71124">
        <ele>1158</ele>
        <time>2022-08-26T18:50:36Z</time>
      </trkpt>
      <trkpt lat="45.89328" lon="6.71125">
        <ele>1158</ele>
        <time>2022-08-26T18:50:38Z</time>
      </trkpt>
      <trkpt lat="45.89326" lon="6.71126">
        <ele>1158</ele>
        <time>2022-08-26T18:50:39Z</time>
      </trkpt>
      <trkpt lat="45.89323" lon="6.71127">
        <ele>1158</ele>
        <time>2022-08-26T18:50:40Z</time>
      </trkpt>
      <trkpt lat="45.89321" lon="6.71128">
        <ele>1158</ele>
        <time>2022-08-26T18:50:41Z</time>
      </trkpt>
      <trkpt lat="45.89319" lon="6.71129">
        <ele>1158</ele>
        <time>2022-08-26T18:50:42Z</time>
      </trkpt>
      <trkpt lat="45.89317" lon="6.71129">
        <ele>1158</ele>
        <time>2022-08-26T18:50:43Z</time>
      </trkpt>
      <trkpt lat="45.89315" lon="6.7113">
        <ele>1158</ele>
        <time>2022-08-26T18:50:44Z</time>
      </trkpt>
      <trkpt lat="45.89313" lon="6.71131">
        <ele>1158</ele>
        <time>2022-08-26T18:50:45Z</time>
      </trkpt>
      <trkpt lat="45.8931" lon="6.71132">
        <ele>1158</ele>
        <time>2022-08-26T18:50:47Z</time>
      </trkpt>
      <trkpt lat="45.89307" lon="6.71134">
        <ele>1157</ele>
        <time>2022-08-26T18:50:49Z</time>
      </trkpt>
      <trkpt lat="45.89305" lon="6.71137">
        <ele>1158</ele>
        <time>2022-08-26T18:50:51Z</time>
      </trkpt>
      <trkpt lat="45.89302" lon="6.71138">
        <ele>1158</ele>
        <time>2022-08-26T18:50:54Z</time>
      </trkpt>
      <trkpt lat="45.89301" lon="6.7114">
        <ele>1158</ele>
        <time>2022-08-26T18:50:59Z</time>
      </trkpt>
      <trkpt lat="45.89301" lon="6.7114">
        <ele>1159</ele>
        <time>2022-08-26T18:51:11Z</time>
      </trkpt>
      <trkpt lat="45.89301" lon="6.7114">
        <ele>1159</ele>
        <time>2022-08-26T18:51:31Z</time>
      </trkpt>
      <trkpt lat="45.89301" lon="6.7114">
        <ele>1159</ele>
        <time>2022-08-26T18:51:49Z</time>
      </trkpt>
      <trkpt lat="45.893" lon="6.71141">
        <ele>1159</ele>
        <time>2022-08-26T18:51:50Z</time>
      </trkpt>
      <trkpt lat="45.89297" lon="6.7114">
        <ele>1159</ele>
        <time>2022-08-26T18:51:53Z</time>
      </trkpt>
      <trkpt lat="45.89296" lon="6.7114">
        <ele>1158</ele>
        <time>2022-08-26T18:51:56Z</time>
      </trkpt>
      <trkpt lat="45.89294" lon="6.71141">
        <ele>1159</ele>
        <time>2022-08-26T18:52:04Z</time>
      </trkpt>
      <trkpt lat="45.89294" lon="6.71141">
        <ele>1159</ele>
        <time>2022-08-26T18:52:15Z</time>
      </trkpt>
      <trkpt lat="45.89294" lon="6.71141">
        <ele>1159</ele>
        <time>2022-08-26T18:52:36Z</time>
      </trkpt>
      <trkpt lat="45.89294" lon="6.71138">
        <ele>1159</ele>
        <time>2022-08-26T18:52:37Z</time>
      </trkpt>
      <trkpt lat="45.89294" lon="6.71138">
        <ele>1159</ele>
        <time>2022-08-26T18:52:55Z</time>
      </trkpt>
      <trkpt lat="45.89292" lon="6.7114">
        <ele>1159</ele>
        <time>2022-08-26T18:52:58Z</time>
      </trkpt>
      <trkpt lat="45.8929" lon="6.7114">
        <ele>1159</ele>
        <time>2022-08-26T18:53:03Z</time>
      </trkpt>
      <trkpt lat="45.8929" lon="6.71135">
        <ele>1158</ele>
        <time>2022-08-26T18:53:11Z</time>
      </trkpt>
      <trkpt lat="45.89288" lon="6.71137">
        <ele>1158</ele>
        <time>2022-08-26T18:53:16Z</time>
      </trkpt>
      <trkpt lat="45.89288" lon="6.71137">
        <ele>1159</ele>
        <time>2022-08-26T18:53:29Z</time>
      </trkpt>
      <trkpt lat="45.89286" lon="6.71138">
        <ele>1159</ele>
        <time>2022-08-26T18:53:41Z</time>
      </trkpt>
      <trkpt lat="45.89287" lon="6.71141">
        <ele>1159</ele>
        <time>2022-08-26T18:53:45Z</time>
      </trkpt>
      <trkpt lat="45.89286" lon="6.71144">
        <ele>1159</ele>
        <time>2022-08-26T18:53:49Z</time>
      </trkpt>
      <trkpt lat="45.89286" lon="6.71147">
        <ele>1159</ele>
        <time>2022-08-26T18:53:51Z</time>
      </trkpt>
      <trkpt lat="45.89287" lon="6.71149">
        <ele>1158</ele>
        <time>2022-08-26T18:53:58Z</time>
      </trkpt>
      <trkpt lat="45.89289" lon="6.7115">
        <ele>1159</ele>
        <time>2022-08-26T18:54:03Z</time>
      </trkpt>
      <trkpt lat="45.89289" lon="6.7115">
        <ele>1159</ele>
        <time>2022-08-26T18:54:11Z</time>
      </trkpt>
      <trkpt lat="45.89289" lon="6.7115">
        <ele>1159</ele>
        <time>2022-08-26T18:54:28Z</time>
      </trkpt>
      <trkpt lat="45.89288" lon="6.7115">
        <ele>1159</ele>
        <time>2022-08-26T18:54:35Z</time>
      </trkpt>
      <trkpt lat="45.89286" lon="6.71147">
        <ele>1159</ele>
        <time>2022-08-26T18:54:44Z</time>
      </trkpt>
      <trkpt lat="45.89285" lon="6.71145">
        <ele>1159</ele>
        <time>2022-08-26T18:54:47Z</time>
      </trkpt>
      <trkpt lat="45.89284" lon="6.71142">
        <ele>1159</ele>
        <time>2022-08-26T18:54:52Z</time>
      </trkpt>
      <trkpt lat="45.89282" lon="6.71143">
        <ele>1159</ele>
        <time>2022-08-26T18:54:56Z</time>
      </trkpt>
      <trkpt lat="45.8928" lon="6.71141">
        <ele>1159</ele>
        <time>2022-08-26T18:55:00Z</time>
      </trkpt>
      <trkpt lat="45.8928" lon="6.71141">
        <ele>1159</ele>
        <time>2022-08-26T18:55:13Z</time>
      </trkpt>
      <trkpt lat="45.89279" lon="6.71144">
        <ele>1159</ele>
        <time>2022-08-26T18:55:15Z</time>
      </trkpt>
      <trkpt lat="45.89278" lon="6.71145">
        <ele>1159</ele>
        <time>2022-08-26T18:55:18Z</time>
      </trkpt>
      <trkpt lat="45.89276" lon="6.71145">
        <ele>1159</ele>
        <time>2022-08-26T18:55:21Z</time>
      </trkpt>
      <trkpt lat="45.89274" lon="6.71147">
        <ele>1159</ele>
        <time>2022-08-26T18:55:25Z</time>
      </trkpt>
      <trkpt lat="45.89273" lon="6.71149">
        <ele>1159</ele>
        <time>2022-08-26T18:55:28Z</time>
      </trkpt>
      <trkpt lat="45.89271" lon="6.71147">
        <ele>1159</ele>
        <time>2022-08-26T18:55:30Z</time>
      </trkpt>
      <trkpt lat="45.89271" lon="6.71145">
        <ele>1159</ele>
        <time>2022-08-26T18:55:33Z</time>
      </trkpt>
      <trkpt lat="45.89272" lon="6.71142">
        <ele>1159</ele>
        <time>2022-08-26T18:55:42Z</time>
      </trkpt>
      <trkpt lat="45.89272" lon="6.71142">
        <ele>1159</ele>
        <time>2022-08-26T18:55:51Z</time>
      </trkpt>
      <trkpt lat="45.89271" lon="6.71139">
        <ele>1159</ele>
        <time>2022-08-26T18:55:56Z</time>
      </trkpt>
      <trkpt lat="45.89271" lon="6.71139">
        <ele>1159</ele>
        <time>2022-08-26T18:56:12Z</time>
      </trkpt>
      <trkpt lat="45.89269" lon="6.71141">
        <ele>1159</ele>
        <time>2022-08-26T18:56:14Z</time>
      </trkpt>
      <trkpt lat="45.89267" lon="6.71142">
        <ele>1159</ele>
        <time>2022-08-26T18:56:16Z</time>
      </trkpt>
      <trkpt lat="45.89265" lon="6.71141">
        <ele>1159</ele>
        <time>2022-08-26T18:56:18Z</time>
      </trkpt>
      <trkpt lat="45.89263" lon="6.7114">
        <ele>1159</ele>
        <time>2022-08-26T18:56:20Z</time>
      </trkpt>
      <trkpt lat="45.8926" lon="6.71138">
        <ele>1159</ele>
        <time>2022-08-26T18:56:22Z</time>
      </trkpt>
      <trkpt lat="45.89258" lon="6.71136">
        <ele>1159</ele>
        <time>2022-08-26T18:56:24Z</time>
      </trkpt>
      <trkpt lat="45.89256" lon="6.71133">
        <ele>1159</ele>
        <time>2022-08-26T18:56:26Z</time>
      </trkpt>
      <trkpt lat="45.89255" lon="6.71132">
        <ele>1159</ele>
        <time>2022-08-26T18:56:28Z</time>
      </trkpt>
      <trkpt lat="45.89252" lon="6.71131">
        <ele>1159</ele>
        <time>2022-08-26T18:56:30Z</time>
      </trkpt>
      <trkpt lat="45.8925" lon="6.71131">
        <ele>1159</ele>
        <time>2022-08-26T18:56:32Z</time>
      </trkpt>
      <trkpt lat="45.89247" lon="6.71132">
        <ele>1159</ele>
        <time>2022-08-26T18:56:34Z</time>
      </trkpt>
      <trkpt lat="45.89245" lon="6.71132">
        <ele>1159</ele>
        <time>2022-08-26T18:56:36Z</time>
      </trkpt>
      <trkpt lat="45.89244" lon="6.71134">
        <ele>1159</ele>
        <time>2022-08-26T18:56:38Z</time>
      </trkpt>
      <trkpt lat="45.89243" lon="6.71135">
        <ele>1159</ele>
        <time>2022-08-26T18:56:40Z</time>
      </trkpt>
      <trkpt lat="45.89242" lon="6.71136">
        <ele>1159</ele>
        <time>2022-08-26T18:56:41Z</time>
      </trkpt>
      <trkpt lat="45.8924" lon="6.71139">
        <ele>1159</ele>
        <time>2022-08-26T18:56:44Z</time>
      </trkpt>
      <trkpt lat="45.89237" lon="6.7114">
        <ele>1159</ele>
        <time>2022-08-26T18:56:46Z</time>
      </trkpt>
      <trkpt lat="45.89235" lon="6.71141">
        <ele>1159</ele>
        <time>2022-08-26T18:56:48Z</time>
      </trkpt>
      <trkpt lat="45.89233" lon="6.71141">
        <ele>1159</ele>
        <time>2022-08-26T18:56:50Z</time>
      </trkpt>
      <trkpt lat="45.8923" lon="6.71141">
        <ele>1159</ele>
        <time>2022-08-26T18:56:52Z</time>
      </trkpt>
      <trkpt lat="45.89228" lon="6.71141">
        <ele>1159</ele>
        <time>2022-08-26T18:56:54Z</time>
      </trkpt>
      <trkpt lat="45.89227" lon="6.71141">
        <ele>1159</ele>
        <time>2022-08-26T18:56:56Z</time>
      </trkpt>
      <trkpt lat="45.89226" lon="6.71141">
        <ele>1159</ele>
        <time>2022-08-26T18:56:57Z</time>
      </trkpt>
      <trkpt lat="45.89225" lon="6.71141">
        <ele>1159</ele>
        <time>2022-08-26T18:56:58Z</time>
      </trkpt>
      <trkpt lat="45.89224" lon="6.7114">
        <ele>1159</ele>
        <time>2022-08-26T18:56:59Z</time>
      </trkpt>
      <trkpt lat="45.89222" lon="6.7114">
        <ele>1159</ele>
        <time>2022-08-26T18:57:00Z</time>
      </trkpt>
      <trkpt lat="45.89221" lon="6.71141">
        <ele>1159</ele>
        <time>2022-08-26T18:57:01Z</time>
      </trkpt>
      <trkpt lat="45.8922" lon="6.71141">
        <ele>1159</ele>
        <time>2022-08-26T18:57:02Z</time>
      </trkpt>
      <trkpt lat="45.89218" lon="6.71142">
        <ele>1159</ele>
        <time>2022-08-26T18:57:03Z</time>
      </trkpt>
      <trkpt lat="45.89217" lon="6.71143">
        <ele>1159</ele>
        <time>2022-08-26T18:57:05Z</time>
      </trkpt>
      <trkpt lat="45.89215" lon="6.71143">
        <ele>1159</ele>
        <time>2022-08-26T18:57:06Z</time>
      </trkpt>
      <trkpt lat="45.89214" lon="6.71144">
        <ele>1159</ele>
        <time>2022-08-26T18:57:07Z</time>
      </trkpt>
      <trkpt lat="45.89212" lon="6.71146">
        <ele>1160</ele>
        <time>2022-08-26T18:57:12Z</time>
      </trkpt>
      <trkpt lat="45.89211" lon="6.71149">
        <ele>1160</ele>
        <time>2022-08-26T18:57:15Z</time>
      </trkpt>
      <trkpt lat="45.89211" lon="6.71152">
        <ele>1160</ele>
        <time>2022-08-26T18:57:18Z</time>
      </trkpt>
      <trkpt lat="45.89211" lon="6.71155">
        <ele>1159</ele>
        <time>2022-08-26T18:57:20Z</time>
      </trkpt>
      <trkpt lat="45.89212" lon="6.71158">
        <ele>1160</ele>
        <time>2022-08-26T18:57:22Z</time>
      </trkpt>
      <trkpt lat="45.89212" lon="6.71162">
        <ele>1160</ele>
        <time>2022-08-26T18:57:24Z</time>
      </trkpt>
      <trkpt lat="45.89212" lon="6.71165">
        <ele>1160</ele>
        <time>2022-08-26T18:57:26Z</time>
      </trkpt>
      <trkpt lat="45.89213" lon="6.71169">
        <ele>1161</ele>
        <time>2022-08-26T18:57:28Z</time>
      </trkpt>
      <trkpt lat="45.89212" lon="6.71172">
        <ele>1161</ele>
        <time>2022-08-26T18:57:30Z</time>
      </trkpt>
      <trkpt lat="45.89213" lon="6.71176">
        <ele>1160</ele>
        <time>2022-08-26T18:57:32Z</time>
      </trkpt>
      <trkpt lat="45.89214" lon="6.71179">
        <ele>1160</ele>
        <time>2022-08-26T18:57:34Z</time>
      </trkpt>
      <trkpt lat="45.89214" lon="6.71183">
        <ele>1161</ele>
        <time>2022-08-26T18:57:36Z</time>
      </trkpt>
      <trkpt lat="45.89215" lon="6.71187">
        <ele>1161</ele>
        <time>2022-08-26T18:57:38Z</time>
      </trkpt>
      <trkpt lat="45.89215" lon="6.71191">
        <ele>1162</ele>
        <time>2022-08-26T18:57:40Z</time>
      </trkpt>
      <trkpt lat="45.89216" lon="6.71194">
        <ele>1162</ele>
        <time>2022-08-26T18:57:42Z</time>
      </trkpt>
      <trkpt lat="45.89216" lon="6.71198">
        <ele>1162</ele>
        <time>2022-08-26T18:57:44Z</time>
      </trkpt>
      <trkpt lat="45.89217" lon="6.71203">
        <ele>1162</ele>
        <time>2022-08-26T18:57:46Z</time>
      </trkpt>
      <trkpt lat="45.89217" lon="6.71206">
        <ele>1162</ele>
        <time>2022-08-26T18:57:47Z</time>
      </trkpt>
      <trkpt lat="45.89218" lon="6.7121">
        <ele>1162</ele>
        <time>2022-08-26T18:57:49Z</time>
      </trkpt>
      <trkpt lat="45.89219" lon="6.71213">
        <ele>1162</ele>
        <time>2022-08-26T18:57:50Z</time>
      </trkpt>
      <trkpt lat="45.8922" lon="6.71217">
        <ele>1163</ele>
        <time>2022-08-26T18:57:52Z</time>
      </trkpt>
      <trkpt lat="45.8922" lon="6.71221">
        <ele>1163</ele>
        <time>2022-08-26T18:57:54Z</time>
      </trkpt>
      <trkpt lat="45.8922" lon="6.71224">
        <ele>1163</ele>
        <time>2022-08-26T18:57:56Z</time>
      </trkpt>
      <trkpt lat="45.8922" lon="6.71228">
        <ele>1163</ele>
        <time>2022-08-26T18:57:58Z</time>
      </trkpt>
      <trkpt lat="45.8922" lon="6.71232">
        <ele>1163</ele>
        <time>2022-08-26T18:58:00Z</time>
      </trkpt>
      <trkpt lat="45.8922" lon="6.71236">
        <ele>1163</ele>
        <time>2022-08-26T18:58:02Z</time>
      </trkpt>
      <trkpt lat="45.89219" lon="6.71239">
        <ele>1163</ele>
        <time>2022-08-26T18:58:04Z</time>
      </trkpt>
      <trkpt lat="45.89218" lon="6.71243">
        <ele>1163</ele>
        <time>2022-08-26T18:58:06Z</time>
      </trkpt>
      <trkpt lat="45.89217" lon="6.71247">
        <ele>1163</ele>
        <time>2022-08-26T18:58:08Z</time>
      </trkpt>
      <trkpt lat="45.89216" lon="6.71251">
        <ele>1163</ele>
        <time>2022-08-26T18:58:10Z</time>
      </trkpt>
      <trkpt lat="45.89215" lon="6.71255">
        <ele>1163</ele>
        <time>2022-08-26T18:58:12Z</time>
      </trkpt>
      <trkpt lat="45.89215" lon="6.71259">
        <ele>1164</ele>
        <time>2022-08-26T18:58:14Z</time>
      </trkpt>
      <trkpt lat="45.89213" lon="6.71263">
        <ele>1164</ele>
        <time>2022-08-26T18:58:16Z</time>
      </trkpt>
      <trkpt lat="45.89213" lon="6.71267">
        <ele>1164</ele>
        <time>2022-08-26T18:58:18Z</time>
      </trkpt>
      <trkpt lat="45.89212" lon="6.7127">
        <ele>1164</ele>
        <time>2022-08-26T18:58:20Z</time>
      </trkpt>
      <trkpt lat="45.89211" lon="6.71274">
        <ele>1164</ele>
        <time>2022-08-26T18:58:22Z</time>
      </trkpt>
      <trkpt lat="45.8921" lon="6.71278">
        <ele>1165</ele>
        <time>2022-08-26T18:58:24Z</time>
      </trkpt>
      <trkpt lat="45.8921" lon="6.71283">
        <ele>1165</ele>
        <time>2022-08-26T18:58:26Z</time>
      </trkpt>
      <trkpt lat="45.89208" lon="6.71287">
        <ele>1165</ele>
        <time>2022-08-26T18:58:28Z</time>
      </trkpt>
      <trkpt lat="45.89209" lon="6.71291">
        <ele>1165</ele>
        <time>2022-08-26T18:58:30Z</time>
      </trkpt>
      <trkpt lat="45.89209" lon="6.71295">
        <ele>1165</ele>
        <time>2022-08-26T18:58:32Z</time>
      </trkpt>
      <trkpt lat="45.89207" lon="6.71299">
        <ele>1165</ele>
        <time>2022-08-26T18:58:34Z</time>
      </trkpt>
      <trkpt lat="45.89206" lon="6.71303">
        <ele>1165</ele>
        <time>2022-08-26T18:58:36Z</time>
      </trkpt>
      <trkpt lat="45.89205" lon="6.71308">
        <ele>1165</ele>
        <time>2022-08-26T18:58:38Z</time>
      </trkpt>
      <trkpt lat="45.89205" lon="6.71312">
        <ele>1166</ele>
        <time>2022-08-26T18:58:40Z</time>
      </trkpt>
      <trkpt lat="45.89202" lon="6.71314">
        <ele>1166</ele>
        <time>2022-08-26T18:58:42Z</time>
      </trkpt>
      <trkpt lat="45.89202" lon="6.71315">
        <ele>1166</ele>
        <time>2022-08-26T18:58:43Z</time>
      </trkpt>
      <trkpt lat="45.89202" lon="6.71316">
        <ele>1165</ele>
        <time>2022-08-26T18:58:45Z</time>
      </trkpt>
      <trkpt lat="45.89202" lon="6.71318">
        <ele>1165</ele>
        <time>2022-08-26T18:58:46Z</time>
      </trkpt>
      <trkpt lat="45.89201" lon="6.71319">
        <ele>1166</ele>
        <time>2022-08-26T18:58:47Z</time>
      </trkpt>
      <trkpt lat="45.89201" lon="6.71323">
        <ele>1166</ele>
        <time>2022-08-26T18:58:48Z</time>
      </trkpt>
      <trkpt lat="45.892" lon="6.71327">
        <ele>1166</ele>
        <time>2022-08-26T18:58:49Z</time>
      </trkpt>
      <trkpt lat="45.892" lon="6.71329">
        <ele>1166</ele>
        <time>2022-08-26T18:58:50Z</time>
      </trkpt>
      <trkpt lat="45.892" lon="6.71333">
        <ele>1166</ele>
        <time>2022-08-26T18:58:51Z</time>
      </trkpt>
      <trkpt lat="45.89199" lon="6.71336">
        <ele>1166</ele>
        <time>2022-08-26T18:58:52Z</time>
      </trkpt>
      <trkpt lat="45.89197" lon="6.71345">
        <ele>1167</ele>
        <time>2022-08-26T18:58:55Z</time>
      </trkpt>
      <trkpt lat="45.89194" lon="6.71348">
        <ele>1167</ele>
        <time>2022-08-26T18:58:57Z</time>
      </trkpt>
      <trkpt lat="45.89192" lon="6.7135">
        <ele>1167</ele>
        <time>2022-08-26T18:58:58Z</time>
      </trkpt>
      <trkpt lat="45.89188" lon="6.71353">
        <ele>1167</ele>
        <time>2022-08-26T18:58:59Z</time>
      </trkpt>
      <trkpt lat="45.89187" lon="6.71354">
        <ele>1167</ele>
        <time>2022-08-26T18:59:00Z</time>
      </trkpt>
      <trkpt lat="45.89184" lon="6.71355">
        <ele>1167</ele>
        <time>2022-08-26T18:59:01Z</time>
      </trkpt>
      <trkpt lat="45.89183" lon="6.71356">
        <ele>1167</ele>
        <time>2022-08-26T18:59:02Z</time>
      </trkpt>
      <trkpt lat="45.89179" lon="6.71357">
        <ele>1167</ele>
        <time>2022-08-26T18:59:03Z</time>
      </trkpt>
      <trkpt lat="45.89178" lon="6.71358">
        <ele>1168</ele>
        <time>2022-08-26T18:59:04Z</time>
      </trkpt>
      <trkpt lat="45.89175" lon="6.71359">
        <ele>1168</ele>
        <time>2022-08-26T18:59:05Z</time>
      </trkpt>
      <trkpt lat="45.89166" lon="6.71361">
        <ele>1168</ele>
        <time>2022-08-26T18:59:09Z</time>
      </trkpt>
      <trkpt lat="45.89163" lon="6.71361">
        <ele>1168</ele>
        <time>2022-08-26T18:59:10Z</time>
      </trkpt>
      <trkpt lat="45.89161" lon="6.71359">
        <ele>1168</ele>
        <time>2022-08-26T18:59:11Z</time>
      </trkpt>
      <trkpt lat="45.89159" lon="6.71357">
        <ele>1168</ele>
        <time>2022-08-26T18:59:12Z</time>
      </trkpt>
      <trkpt lat="45.89157" lon="6.71355">
        <ele>1168</ele>
        <time>2022-08-26T18:59:13Z</time>
      </trkpt>
      <trkpt lat="45.89156" lon="6.71355">
        <ele>1168</ele>
        <time>2022-08-26T18:59:14Z</time>
      </trkpt>
      <trkpt lat="45.89152" lon="6.71353">
        <ele>1168</ele>
        <time>2022-08-26T18:59:16Z</time>
      </trkpt>
      <trkpt lat="45.89151" lon="6.71352">
        <ele>1168</ele>
        <time>2022-08-26T18:59:17Z</time>
      </trkpt>
      <trkpt lat="45.89148" lon="6.71349">
        <ele>1168</ele>
        <time>2022-08-26T18:59:18Z</time>
      </trkpt>
      <trkpt lat="45.89147" lon="6.71348">
        <ele>1168</ele>
        <time>2022-08-26T18:59:19Z</time>
      </trkpt>
      <trkpt lat="45.89145" lon="6.71346">
        <ele>1168</ele>
        <time>2022-08-26T18:59:20Z</time>
      </trkpt>
      <trkpt lat="45.89143" lon="6.71344">
        <ele>1168</ele>
        <time>2022-08-26T18:59:21Z</time>
      </trkpt>
      <trkpt lat="45.89141" lon="6.71341">
        <ele>1168</ele>
        <time>2022-08-26T18:59:22Z</time>
      </trkpt>
      <trkpt lat="45.8914" lon="6.7134">
        <ele>1168</ele>
        <time>2022-08-26T18:59:23Z</time>
      </trkpt>
      <trkpt lat="45.89138" lon="6.71338">
        <ele>1169</ele>
        <time>2022-08-26T18:59:24Z</time>
      </trkpt>
      <trkpt lat="45.89136" lon="6.71334">
        <ele>1169</ele>
        <time>2022-08-26T18:59:25Z</time>
      </trkpt>
      <trkpt lat="45.89135" lon="6.71333">
        <ele>1169</ele>
        <time>2022-08-26T18:59:26Z</time>
      </trkpt>
      <trkpt lat="45.89133" lon="6.71331">
        <ele>1169</ele>
        <time>2022-08-26T18:59:27Z</time>
      </trkpt>
      <trkpt lat="45.89132" lon="6.71329">
        <ele>1170</ele>
        <time>2022-08-26T18:59:28Z</time>
      </trkpt>
      <trkpt lat="45.8913" lon="6.71328">
        <ele>1170</ele>
        <time>2022-08-26T18:59:29Z</time>
      </trkpt>
      <trkpt lat="45.89127" lon="6.71324">
        <ele>1170</ele>
        <time>2022-08-26T18:59:31Z</time>
      </trkpt>
      <trkpt lat="45.89126" lon="6.71323">
        <ele>1171</ele>
        <time>2022-08-26T18:59:32Z</time>
      </trkpt>
      <trkpt lat="45.89124" lon="6.71322">
        <ele>1171</ele>
        <time>2022-08-26T18:59:33Z</time>
      </trkpt>
      <trkpt lat="45.89122" lon="6.7132">
        <ele>1171</ele>
        <time>2022-08-26T18:59:34Z</time>
      </trkpt>
      <trkpt lat="45.8912" lon="6.71319">
        <ele>1171</ele>
        <time>2022-08-26T18:59:35Z</time>
      </trkpt>
      <trkpt lat="45.89119" lon="6.71318">
        <ele>1171</ele>
        <time>2022-08-26T18:59:38Z</time>
      </trkpt>
      <trkpt lat="45.89117" lon="6.71317">
        <ele>1171</ele>
        <time>2022-08-26T18:59:39Z</time>
      </trkpt>
      <trkpt lat="45.89115" lon="6.71315">
        <ele>1171</ele>
        <time>2022-08-26T18:59:40Z</time>
      </trkpt>
      <trkpt lat="45.89107" lon="6.7131">
        <ele>1171</ele>
        <time>2022-08-26T18:59:41Z</time>
      </trkpt>
      <trkpt lat="45.89104" lon="6.71309">
        <ele>1171</ele>
        <time>2022-08-26T18:59:43Z</time>
      </trkpt>
      <trkpt lat="45.89101" lon="6.71308">
        <ele>1171</ele>
        <time>2022-08-26T18:59:44Z</time>
      </trkpt>
      <trkpt lat="45.89098" lon="6.71307">
        <ele>1171</ele>
        <time>2022-08-26T18:59:45Z</time>
      </trkpt>
      <trkpt lat="45.89096" lon="6.71307">
        <ele>1171</ele>
        <time>2022-08-26T18:59:46Z</time>
      </trkpt>
      <trkpt lat="45.89093" lon="6.71306">
        <ele>1171</ele>
        <time>2022-08-26T18:59:47Z</time>
      </trkpt>
      <trkpt lat="45.89091" lon="6.71309">
        <ele>1170</ele>
        <time>2022-08-26T18:59:50Z</time>
      </trkpt>
      <trkpt lat="45.89088" lon="6.71312">
        <ele>1170</ele>
        <time>2022-08-26T18:59:51Z</time>
      </trkpt>
      <trkpt lat="45.89086" lon="6.71314">
        <ele>1170</ele>
        <time>2022-08-26T18:59:52Z</time>
      </trkpt>
      <trkpt lat="45.89083" lon="6.71317">
        <ele>1171</ele>
        <time>2022-08-26T18:59:53Z</time>
      </trkpt>
      <trkpt lat="45.8908" lon="6.71318">
        <ele>1171</ele>
        <time>2022-08-26T18:59:54Z</time>
      </trkpt>
      <trkpt lat="45.89078" lon="6.71318">
        <ele>1171</ele>
        <time>2022-08-26T18:59:55Z</time>
      </trkpt>
      <trkpt lat="45.89074" lon="6.71317">
        <ele>1171</ele>
        <time>2022-08-26T18:59:56Z</time>
      </trkpt>
      <trkpt lat="45.89073" lon="6.71317">
        <ele>1171</ele>
        <time>2022-08-26T18:59:57Z</time>
      </trkpt>
      <trkpt lat="45.89067" lon="6.71317">
        <ele>1171</ele>
        <time>2022-08-26T18:59:59Z</time>
      </trkpt>
      <trkpt lat="45.89065" lon="6.71317">
        <ele>1170</ele>
        <time>2022-08-26T19:00:00Z</time>
      </trkpt>
      <trkpt lat="45.89062" lon="6.71317">
        <ele>1170</ele>
        <time>2022-08-26T19:00:01Z</time>
      </trkpt>
      <trkpt lat="45.8906" lon="6.71316">
        <ele>1169</ele>
        <time>2022-08-26T19:00:02Z</time>
      </trkpt>
      <trkpt lat="45.89058" lon="6.71316">
        <ele>1169</ele>
        <time>2022-08-26T19:00:03Z</time>
      </trkpt>
      <trkpt lat="45.89054" lon="6.71315">
        <ele>1169</ele>
        <time>2022-08-26T19:00:05Z</time>
      </trkpt>
      <trkpt lat="45.89051" lon="6.71315">
        <ele>1169</ele>
        <time>2022-08-26T19:00:06Z</time>
      </trkpt>
      <trkpt lat="45.89048" lon="6.71314">
        <ele>1169</ele>
        <time>2022-08-26T19:00:07Z</time>
      </trkpt>
      <trkpt lat="45.89045" lon="6.71313">
        <ele>1169</ele>
        <time>2022-08-26T19:00:08Z</time>
      </trkpt>
      <trkpt lat="45.89042" lon="6.71313">
        <ele>1169</ele>
        <time>2022-08-26T19:00:09Z</time>
      </trkpt>
      <trkpt lat="45.89039" lon="6.71312">
        <ele>1169</ele>
        <time>2022-08-26T19:00:10Z</time>
      </trkpt>
      <trkpt lat="45.89036" lon="6.71311">
        <ele>1169</ele>
        <time>2022-08-26T19:00:11Z</time>
      </trkpt>
      <trkpt lat="45.89033" lon="6.71311">
        <ele>1169</ele>
        <time>2022-08-26T19:00:12Z</time>
      </trkpt>
      <trkpt lat="45.8903" lon="6.71311">
        <ele>1169</ele>
        <time>2022-08-26T19:00:13Z</time>
      </trkpt>
      <trkpt lat="45.89028" lon="6.71311">
        <ele>1169</ele>
        <time>2022-08-26T19:00:16Z</time>
      </trkpt>
      <trkpt lat="45.89025" lon="6.71311">
        <ele>1168</ele>
        <time>2022-08-26T19:00:17Z</time>
      </trkpt>
      <trkpt lat="45.89017" lon="6.71312">
        <ele>1168</ele>
        <time>2022-08-26T19:00:18Z</time>
      </trkpt>
      <trkpt lat="45.89015" lon="6.71312">
        <ele>1168</ele>
        <time>2022-08-26T19:00:20Z</time>
      </trkpt>
      <trkpt lat="45.89013" lon="6.71312">
        <ele>1168</ele>
        <time>2022-08-26T19:00:21Z</time>
      </trkpt>
      <trkpt lat="45.89006" lon="6.71312">
        <ele>1168</ele>
        <time>2022-08-26T19:00:22Z</time>
      </trkpt>
      <trkpt lat="45.89004" lon="6.71312">
        <ele>1168</ele>
        <time>2022-08-26T19:00:23Z</time>
      </trkpt>
      <trkpt lat="45.89003" lon="6.71312">
        <ele>1168</ele>
        <time>2022-08-26T19:00:24Z</time>
      </trkpt>
      <trkpt lat="45.89001" lon="6.71312">
        <ele>1168</ele>
        <time>2022-08-26T19:00:25Z</time>
      </trkpt>
      <trkpt lat="45.88998" lon="6.71312">
        <ele>1168</ele>
        <time>2022-08-26T19:00:26Z</time>
      </trkpt>
      <trkpt lat="45.88994" lon="6.71312">
        <ele>1168</ele>
        <time>2022-08-26T19:00:27Z</time>
      </trkpt>
      <trkpt lat="45.88991" lon="6.71312">
        <ele>1168</ele>
        <time>2022-08-26T19:00:28Z</time>
      </trkpt>
      <trkpt lat="45.88988" lon="6.71311">
        <ele>1167</ele>
        <time>2022-08-26T19:00:29Z</time>
      </trkpt>
      <trkpt lat="45.88985" lon="6.71311">
        <ele>1167</ele>
        <time>2022-08-26T19:00:30Z</time>
      </trkpt>
      <trkpt lat="45.88983" lon="6.71312">
        <ele>1167</ele>
        <time>2022-08-26T19:00:31Z</time>
      </trkpt>
      <trkpt lat="45.88979" lon="6.71312">
        <ele>1167</ele>
        <time>2022-08-26T19:00:32Z</time>
      </trkpt>
      <trkpt lat="45.88978" lon="6.71312">
        <ele>1167</ele>
        <time>2022-08-26T19:00:33Z</time>
      </trkpt>
      <trkpt lat="45.88974" lon="6.71313">
        <ele>1167</ele>
        <time>2022-08-26T19:00:34Z</time>
      </trkpt>
      <trkpt lat="45.88973" lon="6.71313">
        <ele>1167</ele>
        <time>2022-08-26T19:00:35Z</time>
      </trkpt>
      <trkpt lat="45.8897" lon="6.71313">
        <ele>1167</ele>
        <time>2022-08-26T19:00:36Z</time>
      </trkpt>
      <trkpt lat="45.88967" lon="6.71313">
        <ele>1167</ele>
        <time>2022-08-26T19:00:37Z</time>
      </trkpt>
      <trkpt lat="45.88964" lon="6.71313">
        <ele>1167</ele>
        <time>2022-08-26T19:00:38Z</time>
      </trkpt>
      <trkpt lat="45.88962" lon="6.71313">
        <ele>1167</ele>
        <time>2022-08-26T19:00:39Z</time>
      </trkpt>
      <trkpt lat="45.88959" lon="6.71313">
        <ele>1167</ele>
        <time>2022-08-26T19:00:40Z</time>
      </trkpt>
      <trkpt lat="45.88957" lon="6.71314">
        <ele>1167</ele>
        <time>2022-08-26T19:00:41Z</time>
      </trkpt>
      <trkpt lat="45.88954" lon="6.71315">
        <ele>1166</ele>
        <time>2022-08-26T19:00:42Z</time>
      </trkpt>
      <trkpt lat="45.8895" lon="6.71316">
        <ele>1166</ele>
        <time>2022-08-26T19:00:43Z</time>
      </trkpt>
      <trkpt lat="45.88947" lon="6.71316">
        <ele>1166</ele>
        <time>2022-08-26T19:00:44Z</time>
      </trkpt>
      <trkpt lat="45.88944" lon="6.71316">
        <ele>1166</ele>
        <time>2022-08-26T19:00:45Z</time>
      </trkpt>
      <trkpt lat="45.8894" lon="6.71316">
        <ele>1166</ele>
        <time>2022-08-26T19:00:47Z</time>
      </trkpt>
      <trkpt lat="45.88937" lon="6.71316">
        <ele>1166</ele>
        <time>2022-08-26T19:00:48Z</time>
      </trkpt>
      <trkpt lat="45.88935" lon="6.71315">
        <ele>1166</ele>
        <time>2022-08-26T19:00:49Z</time>
      </trkpt>
      <trkpt lat="45.88932" lon="6.71315">
        <ele>1166</ele>
        <time>2022-08-26T19:00:50Z</time>
      </trkpt>
      <trkpt lat="45.88926" lon="6.71317">
        <ele>1166</ele>
        <time>2022-08-26T19:00:52Z</time>
      </trkpt>
      <trkpt lat="45.88921" lon="6.71318">
        <ele>1166</ele>
        <time>2022-08-26T19:00:53Z</time>
      </trkpt>
      <trkpt lat="45.8892" lon="6.71318">
        <ele>1166</ele>
        <time>2022-08-26T19:00:54Z</time>
      </trkpt>
      <trkpt lat="45.88916" lon="6.71317">
        <ele>1166</ele>
        <time>2022-08-26T19:00:55Z</time>
      </trkpt>
      <trkpt lat="45.88914" lon="6.71316">
        <ele>1164</ele>
        <time>2022-08-26T19:00:56Z</time>
      </trkpt>
      <trkpt lat="45.8891" lon="6.71315">
        <ele>1164</ele>
        <time>2022-08-26T19:00:57Z</time>
      </trkpt>
      <trkpt lat="45.88909" lon="6.71314">
        <ele>1164</ele>
        <time>2022-08-26T19:00:58Z</time>
      </trkpt>
      <trkpt lat="45.88907" lon="6.71313">
        <ele>1164</ele>
        <time>2022-08-26T19:00:59Z</time>
      </trkpt>
      <trkpt lat="45.88905" lon="6.71311">
        <ele>1164</ele>
        <time>2022-08-26T19:01:00Z</time>
      </trkpt>
      <trkpt lat="45.88903" lon="6.7131">
        <ele>1164</ele>
        <time>2022-08-26T19:01:01Z</time>
      </trkpt>
      <trkpt lat="45.88901" lon="6.71308">
        <ele>1164</ele>
        <time>2022-08-26T19:01:02Z</time>
      </trkpt>
      <trkpt lat="45.88899" lon="6.71307">
        <ele>1164</ele>
        <time>2022-08-26T19:01:03Z</time>
      </trkpt>
      <trkpt lat="45.88896" lon="6.71304">
        <ele>1164</ele>
        <time>2022-08-26T19:01:04Z</time>
      </trkpt>
      <trkpt lat="45.88895" lon="6.71303">
        <ele>1164</ele>
        <time>2022-08-26T19:01:05Z</time>
      </trkpt>
      <trkpt lat="45.88892" lon="6.71303">
        <ele>1164</ele>
        <time>2022-08-26T19:01:06Z</time>
      </trkpt>
      <trkpt lat="45.88891" lon="6.71303">
        <ele>1164</ele>
        <time>2022-08-26T19:01:07Z</time>
      </trkpt>
      <trkpt lat="45.88889" lon="6.71304">
        <ele>1164</ele>
        <time>2022-08-26T19:01:08Z</time>
      </trkpt>
      <trkpt lat="45.88886" lon="6.71305">
        <ele>1163</ele>
        <time>2022-08-26T19:01:09Z</time>
      </trkpt>
      <trkpt lat="45.88884" lon="6.71306">
        <ele>1164</ele>
        <time>2022-08-26T19:01:10Z</time>
      </trkpt>
      <trkpt lat="45.88881" lon="6.71307">
        <ele>1164</ele>
        <time>2022-08-26T19:01:11Z</time>
      </trkpt>
      <trkpt lat="45.88878" lon="6.71307">
        <ele>1164</ele>
        <time>2022-08-26T19:01:12Z</time>
      </trkpt>
      <trkpt lat="45.88876" lon="6.71307">
        <ele>1164</ele>
        <time>2022-08-26T19:01:13Z</time>
      </trkpt>
      <trkpt lat="45.88873" lon="6.71307">
        <ele>1164</ele>
        <time>2022-08-26T19:01:14Z</time>
      </trkpt>
      <trkpt lat="45.8887" lon="6.71306">
        <ele>1163</ele>
        <time>2022-08-26T19:01:15Z</time>
      </trkpt>
      <trkpt lat="45.88866" lon="6.71305">
        <ele>1163</ele>
        <time>2022-08-26T19:01:16Z</time>
      </trkpt>
      <trkpt lat="45.88865" lon="6.71305">
        <ele>1163</ele>
        <time>2022-08-26T19:01:17Z</time>
      </trkpt>
      <trkpt lat="45.88863" lon="6.71304">
        <ele>1163</ele>
        <time>2022-08-26T19:01:18Z</time>
      </trkpt>
      <trkpt lat="45.8886" lon="6.71304">
        <ele>1163</ele>
        <time>2022-08-26T19:01:19Z</time>
      </trkpt>
      <trkpt lat="45.88857" lon="6.71304">
        <ele>1163</ele>
        <time>2022-08-26T19:01:20Z</time>
      </trkpt>
      <trkpt lat="45.88853" lon="6.71303">
        <ele>1163</ele>
        <time>2022-08-26T19:01:21Z</time>
      </trkpt>
      <trkpt lat="45.88852" lon="6.71303">
        <ele>1163</ele>
        <time>2022-08-26T19:01:22Z</time>
      </trkpt>
      <trkpt lat="45.88848" lon="6.71302">
        <ele>1163</ele>
        <time>2022-08-26T19:01:23Z</time>
      </trkpt>
      <trkpt lat="45.88846" lon="6.71301">
        <ele>1163</ele>
        <time>2022-08-26T19:01:24Z</time>
      </trkpt>
      <trkpt lat="45.88843" lon="6.713">
        <ele>1163</ele>
        <time>2022-08-26T19:01:25Z</time>
      </trkpt>
      <trkpt lat="45.88841" lon="6.71299">
        <ele>1163</ele>
        <time>2022-08-26T19:01:26Z</time>
      </trkpt>
      <trkpt lat="45.88839" lon="6.71298">
        <ele>1163</ele>
        <time>2022-08-26T19:01:27Z</time>
      </trkpt>
      <trkpt lat="45.88837" lon="6.71297">
        <ele>1163</ele>
        <time>2022-08-26T19:01:28Z</time>
      </trkpt>
      <trkpt lat="45.88834" lon="6.71297">
        <ele>1163</ele>
        <time>2022-08-26T19:01:29Z</time>
      </trkpt>
      <trkpt lat="45.88832" lon="6.71297">
        <ele>1163</ele>
        <time>2022-08-26T19:01:30Z</time>
      </trkpt>
      <trkpt lat="45.88829" lon="6.71297">
        <ele>1163</ele>
        <time>2022-08-26T19:01:31Z</time>
      </trkpt>
      <trkpt lat="45.88826" lon="6.71297">
        <ele>1163</ele>
        <time>2022-08-26T19:01:32Z</time>
      </trkpt>
      <trkpt lat="45.88824" lon="6.71297">
        <ele>1162</ele>
        <time>2022-08-26T19:01:33Z</time>
      </trkpt>
      <trkpt lat="45.88821" lon="6.71297">
        <ele>1162</ele>
        <time>2022-08-26T19:01:34Z</time>
      </trkpt>
      <trkpt lat="45.88817" lon="6.71297">
        <ele>1162</ele>
        <time>2022-08-26T19:01:35Z</time>
      </trkpt>
      <trkpt lat="45.88816" lon="6.71297">
        <ele>1162</ele>
        <time>2022-08-26T19:01:36Z</time>
      </trkpt>
      <trkpt lat="45.88814" lon="6.71296">
        <ele>1162</ele>
        <time>2022-08-26T19:01:37Z</time>
      </trkpt>
      <trkpt lat="45.88811" lon="6.71296">
        <ele>1162</ele>
        <time>2022-08-26T19:01:38Z</time>
      </trkpt>
      <trkpt lat="45.88809" lon="6.71296">
        <ele>1162</ele>
        <time>2022-08-26T19:01:39Z</time>
      </trkpt>
      <trkpt lat="45.88805" lon="6.71297">
        <ele>1162</ele>
        <time>2022-08-26T19:01:40Z</time>
      </trkpt>
      <trkpt lat="45.88803" lon="6.71297">
        <ele>1162</ele>
        <time>2022-08-26T19:01:41Z</time>
      </trkpt>
      <trkpt lat="45.88801" lon="6.71298">
        <ele>1162</ele>
        <time>2022-08-26T19:01:42Z</time>
      </trkpt>
      <trkpt lat="45.88797" lon="6.71299">
        <ele>1162</ele>
        <time>2022-08-26T19:01:43Z</time>
      </trkpt>
      <trkpt lat="45.88796" lon="6.71299">
        <ele>1163</ele>
        <time>2022-08-26T19:01:44Z</time>
      </trkpt>
      <trkpt lat="45.88794" lon="6.713">
        <ele>1163</ele>
        <time>2022-08-26T19:01:45Z</time>
      </trkpt>
      <trkpt lat="45.88792" lon="6.71301">
        <ele>1163</ele>
        <time>2022-08-26T19:01:46Z</time>
      </trkpt>
      <trkpt lat="45.8879" lon="6.71301">
        <ele>1163</ele>
        <time>2022-08-26T19:01:47Z</time>
      </trkpt>
      <trkpt lat="45.88788" lon="6.71302">
        <ele>1163</ele>
        <time>2022-08-26T19:01:48Z</time>
      </trkpt>
      <trkpt lat="45.88786" lon="6.71302">
        <ele>1163</ele>
        <time>2022-08-26T19:01:49Z</time>
      </trkpt>
      <trkpt lat="45.88784" lon="6.71303">
        <ele>1163</ele>
        <time>2022-08-26T19:01:50Z</time>
      </trkpt>
      <trkpt lat="45.8878" lon="6.71306">
        <ele>1162</ele>
        <time>2022-08-26T19:01:52Z</time>
      </trkpt>
      <trkpt lat="45.88777" lon="6.71308">
        <ele>1163</ele>
        <time>2022-08-26T19:01:54Z</time>
      </trkpt>
      <trkpt lat="45.88775" lon="6.7131">
        <ele>1164</ele>
        <time>2022-08-26T19:01:56Z</time>
      </trkpt>
      <trkpt lat="45.88772" lon="6.71312">
        <ele>1164</ele>
        <time>2022-08-26T19:01:58Z</time>
      </trkpt>
      <trkpt lat="45.8877" lon="6.71314">
        <ele>1164</ele>
        <time>2022-08-26T19:02:00Z</time>
      </trkpt>
      <trkpt lat="45.88768" lon="6.71316">
        <ele>1165</ele>
        <time>2022-08-26T19:02:02Z</time>
      </trkpt>
      <trkpt lat="45.88766" lon="6.71318">
        <ele>1165</ele>
        <time>2022-08-26T19:02:04Z</time>
      </trkpt>
      <trkpt lat="45.88763" lon="6.7132">
        <ele>1165</ele>
        <time>2022-08-26T19:02:06Z</time>
      </trkpt>
      <trkpt lat="45.88761" lon="6.71321">
        <ele>1165</ele>
        <time>2022-08-26T19:02:08Z</time>
      </trkpt>
      <trkpt lat="45.88757" lon="6.71324">
        <ele>1165</ele>
        <time>2022-08-26T19:02:10Z</time>
      </trkpt>
      <trkpt lat="45.88756" lon="6.71325">
        <ele>1165</ele>
        <time>2022-08-26T19:02:12Z</time>
      </trkpt>
      <trkpt lat="45.88755" lon="6.71326">
        <ele>1165</ele>
        <time>2022-08-26T19:02:14Z</time>
      </trkpt>
      <trkpt lat="45.88754" lon="6.71327">
        <ele>1166</ele>
        <time>2022-08-26T19:02:15Z</time>
      </trkpt>
      <trkpt lat="45.88753" lon="6.71328">
        <ele>1166</ele>
        <time>2022-08-26T19:02:16Z</time>
      </trkpt>
      <trkpt lat="45.88751" lon="6.71329">
        <ele>1166</ele>
        <time>2022-08-26T19:02:17Z</time>
      </trkpt>
      <trkpt lat="45.8875" lon="6.7133">
        <ele>1166</ele>
        <time>2022-08-26T19:02:18Z</time>
      </trkpt>
      <trkpt lat="45.88749" lon="6.71331">
        <ele>1167</ele>
        <time>2022-08-26T19:02:19Z</time>
      </trkpt>
      <trkpt lat="45.88741" lon="6.71333">
        <ele>1168</ele>
        <time>2022-08-26T19:02:22Z</time>
      </trkpt>
      <trkpt lat="45.88738" lon="6.71332">
        <ele>1168</ele>
        <time>2022-08-26T19:02:24Z</time>
      </trkpt>
      <trkpt lat="45.88736" lon="6.71332">
        <ele>1168</ele>
        <time>2022-08-26T19:02:25Z</time>
      </trkpt>
      <trkpt lat="45.88733" lon="6.71333">
        <ele>1168</ele>
        <time>2022-08-26T19:02:27Z</time>
      </trkpt>
      <trkpt lat="45.8873" lon="6.71334">
        <ele>1168</ele>
        <time>2022-08-26T19:02:29Z</time>
      </trkpt>
      <trkpt lat="45.88727" lon="6.71333">
        <ele>1168</ele>
        <time>2022-08-26T19:02:31Z</time>
      </trkpt>
      <trkpt lat="45.88725" lon="6.71334">
        <ele>1168</ele>
        <time>2022-08-26T19:02:33Z</time>
      </trkpt>
      <trkpt lat="45.88721" lon="6.71334">
        <ele>1168</ele>
        <time>2022-08-26T19:02:35Z</time>
      </trkpt>
      <trkpt lat="45.88718" lon="6.71335">
        <ele>1168</ele>
        <time>2022-08-26T19:02:37Z</time>
      </trkpt>
      <trkpt lat="45.88716" lon="6.71336">
        <ele>1169</ele>
        <time>2022-08-26T19:02:39Z</time>
      </trkpt>
      <trkpt lat="45.88713" lon="6.71336">
        <ele>1169</ele>
        <time>2022-08-26T19:02:41Z</time>
      </trkpt>
      <trkpt lat="45.88711" lon="6.71337">
        <ele>1169</ele>
        <time>2022-08-26T19:02:43Z</time>
      </trkpt>
      <trkpt lat="45.88709" lon="6.71338">
        <ele>1169</ele>
        <time>2022-08-26T19:02:45Z</time>
      </trkpt>
      <trkpt lat="45.88706" lon="6.71338">
        <ele>1169</ele>
        <time>2022-08-26T19:02:47Z</time>
      </trkpt>
      <trkpt lat="45.88704" lon="6.71339">
        <ele>1169</ele>
        <time>2022-08-26T19:02:49Z</time>
      </trkpt>
      <trkpt lat="45.88701" lon="6.71341">
        <ele>1169</ele>
        <time>2022-08-26T19:02:51Z</time>
      </trkpt>
      <trkpt lat="45.88699" lon="6.71342">
        <ele>1170</ele>
        <time>2022-08-26T19:02:53Z</time>
      </trkpt>
      <trkpt lat="45.88696" lon="6.71344">
        <ele>1170</ele>
        <time>2022-08-26T19:02:55Z</time>
      </trkpt>
      <trkpt lat="45.88694" lon="6.71345">
        <ele>1170</ele>
        <time>2022-08-26T19:02:56Z</time>
      </trkpt>
      <trkpt lat="45.88692" lon="6.71346">
        <ele>1171</ele>
        <time>2022-08-26T19:02:57Z</time>
      </trkpt>
      <trkpt lat="45.8869" lon="6.71349">
        <ele>1171</ele>
        <time>2022-08-26T19:02:59Z</time>
      </trkpt>
      <trkpt lat="45.88687" lon="6.7135">
        <ele>1171</ele>
        <time>2022-08-26T19:03:01Z</time>
      </trkpt>
      <trkpt lat="45.88685" lon="6.71352">
        <ele>1171</ele>
        <time>2022-08-26T19:03:03Z</time>
      </trkpt>
      <trkpt lat="45.88683" lon="6.71355">
        <ele>1171</ele>
        <time>2022-08-26T19:03:05Z</time>
      </trkpt>
      <trkpt lat="45.88681" lon="6.71359">
        <ele>1171</ele>
        <time>2022-08-26T19:03:07Z</time>
      </trkpt>
      <trkpt lat="45.8868" lon="6.7136">
        <ele>1171</ele>
        <time>2022-08-26T19:03:08Z</time>
      </trkpt>
      <trkpt lat="45.88679" lon="6.71361">
        <ele>1172</ele>
        <time>2022-08-26T19:03:09Z</time>
      </trkpt>
      <trkpt lat="45.88676" lon="6.71363">
        <ele>1172</ele>
        <time>2022-08-26T19:03:11Z</time>
      </trkpt>
      <trkpt lat="45.88674" lon="6.71365">
        <ele>1173</ele>
        <time>2022-08-26T19:03:13Z</time>
      </trkpt>
      <trkpt lat="45.88672" lon="6.71366">
        <ele>1174</ele>
        <time>2022-08-26T19:03:15Z</time>
      </trkpt>
      <trkpt lat="45.8867" lon="6.71367">
        <ele>1175</ele>
        <time>2022-08-26T19:03:17Z</time>
      </trkpt>
      <trkpt lat="45.88668" lon="6.71369">
        <ele>1176</ele>
        <time>2022-08-26T19:03:19Z</time>
      </trkpt>
      <trkpt lat="45.88667" lon="6.71372">
        <ele>1175</ele>
        <time>2022-08-26T19:03:22Z</time>
      </trkpt>
      <trkpt lat="45.88665" lon="6.71375">
        <ele>1175</ele>
        <time>2022-08-26T19:03:24Z</time>
      </trkpt>
      <trkpt lat="45.88665" lon="6.71378">
        <ele>1176</ele>
        <time>2022-08-26T19:03:26Z</time>
      </trkpt>
      <trkpt lat="45.88663" lon="6.7138">
        <ele>1177</ele>
        <time>2022-08-26T19:03:28Z</time>
      </trkpt>
      <trkpt lat="45.88662" lon="6.71384">
        <ele>1177</ele>
        <time>2022-08-26T19:03:30Z</time>
      </trkpt>
      <trkpt lat="45.88661" lon="6.71387">
        <ele>1177</ele>
        <time>2022-08-26T19:03:32Z</time>
      </trkpt>
      <trkpt lat="45.88659" lon="6.71389">
        <ele>1177</ele>
        <time>2022-08-26T19:03:34Z</time>
      </trkpt>
      <trkpt lat="45.88658" lon="6.71392">
        <ele>1179</ele>
        <time>2022-08-26T19:03:36Z</time>
      </trkpt>
      <trkpt lat="45.88657" lon="6.71394">
        <ele>1179</ele>
        <time>2022-08-26T19:03:38Z</time>
      </trkpt>
      <trkpt lat="45.88655" lon="6.71397">
        <ele>1180</ele>
        <time>2022-08-26T19:03:41Z</time>
      </trkpt>
      <trkpt lat="45.88653" lon="6.71396">
        <ele>1180</ele>
        <time>2022-08-26T19:03:43Z</time>
      </trkpt>
      <trkpt lat="45.88651" lon="6.71393">
        <ele>1180</ele>
        <time>2022-08-26T19:03:45Z</time>
      </trkpt>
      <trkpt lat="45.88649" lon="6.7139">
        <ele>1181</ele>
        <time>2022-08-26T19:03:47Z</time>
      </trkpt>
      <trkpt lat="45.88647" lon="6.71389">
        <ele>1181</ele>
        <time>2022-08-26T19:03:49Z</time>
      </trkpt>
      <trkpt lat="45.88643" lon="6.71388">
        <ele>1181</ele>
        <time>2022-08-26T19:03:51Z</time>
      </trkpt>
      <trkpt lat="45.88641" lon="6.71388">
        <ele>1182</ele>
        <time>2022-08-26T19:03:53Z</time>
      </trkpt>
      <trkpt lat="45.88639" lon="6.71389">
        <ele>1182</ele>
        <time>2022-08-26T19:03:55Z</time>
      </trkpt>
      <trkpt lat="45.88636" lon="6.71389">
        <ele>1182</ele>
        <time>2022-08-26T19:03:57Z</time>
      </trkpt>
      <trkpt lat="45.88634" lon="6.71391">
        <ele>1183</ele>
        <time>2022-08-26T19:03:59Z</time>
      </trkpt>
      <trkpt lat="45.88631" lon="6.71391">
        <ele>1183</ele>
        <time>2022-08-26T19:04:01Z</time>
      </trkpt>
      <trkpt lat="45.88629" lon="6.71392">
        <ele>1184</ele>
        <time>2022-08-26T19:04:03Z</time>
      </trkpt>
      <trkpt lat="45.88626" lon="6.71393">
        <ele>1184</ele>
        <time>2022-08-26T19:04:05Z</time>
      </trkpt>
      <trkpt lat="45.88623" lon="6.71394">
        <ele>1184</ele>
        <time>2022-08-26T19:04:07Z</time>
      </trkpt>
      <trkpt lat="45.88621" lon="6.71396">
        <ele>1184</ele>
        <time>2022-08-26T19:04:09Z</time>
      </trkpt>
      <trkpt lat="45.88618" lon="6.71397">
        <ele>1184</ele>
        <time>2022-08-26T19:04:11Z</time>
      </trkpt>
      <trkpt lat="45.88615" lon="6.71397">
        <ele>1184</ele>
        <time>2022-08-26T19:04:13Z</time>
      </trkpt>
      <trkpt lat="45.88613" lon="6.71396">
        <ele>1184</ele>
        <time>2022-08-26T19:04:14Z</time>
      </trkpt>
      <trkpt lat="45.88611" lon="6.71396">
        <ele>1184</ele>
        <time>2022-08-26T19:04:15Z</time>
      </trkpt>
      <trkpt lat="45.88608" lon="6.71397">
        <ele>1184</ele>
        <time>2022-08-26T19:04:17Z</time>
      </trkpt>
      <trkpt lat="45.88606" lon="6.714">
        <ele>1184</ele>
        <time>2022-08-26T19:04:19Z</time>
      </trkpt>
      <trkpt lat="45.88604" lon="6.71403">
        <ele>1184</ele>
        <time>2022-08-26T19:04:21Z</time>
      </trkpt>
      <trkpt lat="45.88601" lon="6.71406">
        <ele>1184</ele>
        <time>2022-08-26T19:04:23Z</time>
      </trkpt>
      <trkpt lat="45.88598" lon="6.71408">
        <ele>1184</ele>
        <time>2022-08-26T19:04:25Z</time>
      </trkpt>
      <trkpt lat="45.88596" lon="6.71409">
        <ele>1184</ele>
        <time>2022-08-26T19:04:26Z</time>
      </trkpt>
      <trkpt lat="45.88593" lon="6.71411">
        <ele>1184</ele>
        <time>2022-08-26T19:04:27Z</time>
      </trkpt>
      <trkpt lat="45.88591" lon="6.71412">
        <ele>1184</ele>
        <time>2022-08-26T19:04:28Z</time>
      </trkpt>
      <trkpt lat="45.88588" lon="6.71415">
        <ele>1184</ele>
        <time>2022-08-26T19:04:29Z</time>
      </trkpt>
      <trkpt lat="45.88587" lon="6.71415">
        <ele>1185</ele>
        <time>2022-08-26T19:04:30Z</time>
      </trkpt>
      <trkpt lat="45.88585" lon="6.71417">
        <ele>1184</ele>
        <time>2022-08-26T19:04:31Z</time>
      </trkpt>
      <trkpt lat="45.88583" lon="6.71418">
        <ele>1185</ele>
        <time>2022-08-26T19:04:32Z</time>
      </trkpt>
      <trkpt lat="45.8858" lon="6.71419">
        <ele>1185</ele>
        <time>2022-08-26T19:04:33Z</time>
      </trkpt>
      <trkpt lat="45.88579" lon="6.71419">
        <ele>1185</ele>
        <time>2022-08-26T19:04:34Z</time>
      </trkpt>
      <trkpt lat="45.88576" lon="6.71419">
        <ele>1184</ele>
        <time>2022-08-26T19:04:35Z</time>
      </trkpt>
      <trkpt lat="45.88574" lon="6.71417">
        <ele>1184</ele>
        <time>2022-08-26T19:04:36Z</time>
      </trkpt>
      <trkpt lat="45.88572" lon="6.71416">
        <ele>1184</ele>
        <time>2022-08-26T19:04:37Z</time>
      </trkpt>
      <trkpt lat="45.88568" lon="6.71413">
        <ele>1184</ele>
        <time>2022-08-26T19:04:38Z</time>
      </trkpt>
      <trkpt lat="45.88567" lon="6.71412">
        <ele>1184</ele>
        <time>2022-08-26T19:04:39Z</time>
      </trkpt>
      <trkpt lat="45.88564" lon="6.7141">
        <ele>1184</ele>
        <time>2022-08-26T19:04:40Z</time>
      </trkpt>
      <trkpt lat="45.88561" lon="6.71406">
        <ele>1184</ele>
        <time>2022-08-26T19:04:41Z</time>
      </trkpt>
      <trkpt lat="45.8856" lon="6.71405">
        <ele>1184</ele>
        <time>2022-08-26T19:04:42Z</time>
      </trkpt>
      <trkpt lat="45.88558" lon="6.71402">
        <ele>1184</ele>
        <time>2022-08-26T19:04:43Z</time>
      </trkpt>
      <trkpt lat="45.88556" lon="6.71399">
        <ele>1184</ele>
        <time>2022-08-26T19:04:44Z</time>
      </trkpt>
      <trkpt lat="45.88554" lon="6.71397">
        <ele>1184</ele>
        <time>2022-08-26T19:04:45Z</time>
      </trkpt>
      <trkpt lat="45.88552" lon="6.71394">
        <ele>1184</ele>
        <time>2022-08-26T19:04:46Z</time>
      </trkpt>
      <trkpt lat="45.8855" lon="6.71391">
        <ele>1184</ele>
        <time>2022-08-26T19:04:47Z</time>
      </trkpt>
      <trkpt lat="45.88549" lon="6.71388">
        <ele>1184</ele>
        <time>2022-08-26T19:04:48Z</time>
      </trkpt>
      <trkpt lat="45.88547" lon="6.71386">
        <ele>1184</ele>
        <time>2022-08-26T19:04:49Z</time>
      </trkpt>
      <trkpt lat="45.88544" lon="6.71382">
        <ele>1184</ele>
        <time>2022-08-26T19:04:50Z</time>
      </trkpt>
      <trkpt lat="45.88543" lon="6.71381">
        <ele>1183</ele>
        <time>2022-08-26T19:04:51Z</time>
      </trkpt>
      <trkpt lat="45.88539" lon="6.71378">
        <ele>1183</ele>
        <time>2022-08-26T19:04:52Z</time>
      </trkpt>
      <trkpt lat="45.88538" lon="6.71377">
        <ele>1183</ele>
        <time>2022-08-26T19:04:53Z</time>
      </trkpt>
      <trkpt lat="45.88534" lon="6.71373">
        <ele>1183</ele>
        <time>2022-08-26T19:04:54Z</time>
      </trkpt>
      <trkpt lat="45.88533" lon="6.71372">
        <ele>1183</ele>
        <time>2022-08-26T19:04:55Z</time>
      </trkpt>
      <trkpt lat="45.88531" lon="6.71371">
        <ele>1183</ele>
        <time>2022-08-26T19:04:56Z</time>
      </trkpt>
      <trkpt lat="45.88528" lon="6.71369">
        <ele>1183</ele>
        <time>2022-08-26T19:04:57Z</time>
      </trkpt>
      <trkpt lat="45.88526" lon="6.71367">
        <ele>1183</ele>
        <time>2022-08-26T19:04:58Z</time>
      </trkpt>
      <trkpt lat="45.88524" lon="6.71364">
        <ele>1183</ele>
        <time>2022-08-26T19:04:59Z</time>
      </trkpt>
      <trkpt lat="45.88522" lon="6.71362">
        <ele>1183</ele>
        <time>2022-08-26T19:05:00Z</time>
      </trkpt>
      <trkpt lat="45.8852" lon="6.71358">
        <ele>1184</ele>
        <time>2022-08-26T19:05:01Z</time>
      </trkpt>
      <trkpt lat="45.88519" lon="6.71355">
        <ele>1184</ele>
        <time>2022-08-26T19:05:02Z</time>
      </trkpt>
      <trkpt lat="45.88516" lon="6.71351">
        <ele>1184</ele>
        <time>2022-08-26T19:05:03Z</time>
      </trkpt>
      <trkpt lat="45.88515" lon="6.71349">
        <ele>1184</ele>
        <time>2022-08-26T19:05:04Z</time>
      </trkpt>
      <trkpt lat="45.88514" lon="6.71346">
        <ele>1184</ele>
        <time>2022-08-26T19:05:05Z</time>
      </trkpt>
      <trkpt lat="45.88512" lon="6.71343">
        <ele>1184</ele>
        <time>2022-08-26T19:05:06Z</time>
      </trkpt>
      <trkpt lat="45.88511" lon="6.71339">
        <ele>1184</ele>
        <time>2022-08-26T19:05:07Z</time>
      </trkpt>
      <trkpt lat="45.88509" lon="6.71334">
        <ele>1184</ele>
        <time>2022-08-26T19:05:08Z</time>
      </trkpt>
      <trkpt lat="45.88509" lon="6.71333">
        <ele>1184</ele>
        <time>2022-08-26T19:05:09Z</time>
      </trkpt>
      <trkpt lat="45.88507" lon="6.71328">
        <ele>1184</ele>
        <time>2022-08-26T19:05:10Z</time>
      </trkpt>
      <trkpt lat="45.88506" lon="6.71327">
        <ele>1184</ele>
        <time>2022-08-26T19:05:11Z</time>
      </trkpt>
      <trkpt lat="45.88504" lon="6.71322">
        <ele>1184</ele>
        <time>2022-08-26T19:05:12Z</time>
      </trkpt>
      <trkpt lat="45.88504" lon="6.7132">
        <ele>1184</ele>
        <time>2022-08-26T19:05:13Z</time>
      </trkpt>
      <trkpt lat="45.88502" lon="6.71317">
        <ele>1184</ele>
        <time>2022-08-26T19:05:14Z</time>
      </trkpt>
      <trkpt lat="45.88501" lon="6.71315">
        <ele>1184</ele>
        <time>2022-08-26T19:05:15Z</time>
      </trkpt>
      <trkpt lat="45.88499" lon="6.71313">
        <ele>1184</ele>
        <time>2022-08-26T19:05:16Z</time>
      </trkpt>
      <trkpt lat="45.88496" lon="6.71309">
        <ele>1184</ele>
        <time>2022-08-26T19:05:17Z</time>
      </trkpt>
      <trkpt lat="45.88495" lon="6.71308">
        <ele>1184</ele>
        <time>2022-08-26T19:05:18Z</time>
      </trkpt>
      <trkpt lat="45.88491" lon="6.71305">
        <ele>1184</ele>
        <time>2022-08-26T19:05:19Z</time>
      </trkpt>
      <trkpt lat="45.8849" lon="6.71304">
        <ele>1184</ele>
        <time>2022-08-26T19:05:20Z</time>
      </trkpt>
      <trkpt lat="45.88488" lon="6.71302">
        <ele>1184</ele>
        <time>2022-08-26T19:05:21Z</time>
      </trkpt>
      <trkpt lat="45.88486" lon="6.71301">
        <ele>1184</ele>
        <time>2022-08-26T19:05:22Z</time>
      </trkpt>
      <trkpt lat="45.88482" lon="6.71299">
        <ele>1184</ele>
        <time>2022-08-26T19:05:23Z</time>
      </trkpt>
      <trkpt lat="45.88481" lon="6.71298">
        <ele>1184</ele>
        <time>2022-08-26T19:05:24Z</time>
      </trkpt>
      <trkpt lat="45.88479" lon="6.71296">
        <ele>1184</ele>
        <time>2022-08-26T19:05:25Z</time>
      </trkpt>
      <trkpt lat="45.88477" lon="6.71294">
        <ele>1184</ele>
        <time>2022-08-26T19:05:26Z</time>
      </trkpt>
      <trkpt lat="45.88475" lon="6.71292">
        <ele>1184</ele>
        <time>2022-08-26T19:05:27Z</time>
      </trkpt>
      <trkpt lat="45.88474" lon="6.71291">
        <ele>1184</ele>
        <time>2022-08-26T19:05:28Z</time>
      </trkpt>
      <trkpt lat="45.88472" lon="6.7129">
        <ele>1184</ele>
        <time>2022-08-26T19:05:29Z</time>
      </trkpt>
      <trkpt lat="45.8847" lon="6.7129">
        <ele>1184</ele>
        <time>2022-08-26T19:05:30Z</time>
      </trkpt>
      <trkpt lat="45.88468" lon="6.71291">
        <ele>1184</ele>
        <time>2022-08-26T19:05:31Z</time>
      </trkpt>
      <trkpt lat="45.88466" lon="6.71291">
        <ele>1184</ele>
        <time>2022-08-26T19:05:32Z</time>
      </trkpt>
      <trkpt lat="45.88462" lon="6.71291">
        <ele>1184</ele>
        <time>2022-08-26T19:05:34Z</time>
      </trkpt>
      <trkpt lat="45.8846" lon="6.71292">
        <ele>1184</ele>
        <time>2022-08-26T19:05:35Z</time>
      </trkpt>
      <trkpt lat="45.88456" lon="6.71292">
        <ele>1184</ele>
        <time>2022-08-26T19:05:36Z</time>
      </trkpt>
      <trkpt lat="45.88455" lon="6.71292">
        <ele>1184</ele>
        <time>2022-08-26T19:05:37Z</time>
      </trkpt>
      <trkpt lat="45.88451" lon="6.7129">
        <ele>1184</ele>
        <time>2022-08-26T19:05:38Z</time>
      </trkpt>
      <trkpt lat="45.8845" lon="6.7129">
        <ele>1184</ele>
        <time>2022-08-26T19:05:39Z</time>
      </trkpt>
      <trkpt lat="45.88447" lon="6.71289">
        <ele>1184</ele>
        <time>2022-08-26T19:05:40Z</time>
      </trkpt>
      <trkpt lat="45.88444" lon="6.71287">
        <ele>1185</ele>
        <time>2022-08-26T19:05:41Z</time>
      </trkpt>
      <trkpt lat="45.8844" lon="6.71285">
        <ele>1185</ele>
        <time>2022-08-26T19:05:42Z</time>
      </trkpt>
      <trkpt lat="45.88439" lon="6.71284">
        <ele>1185</ele>
        <time>2022-08-26T19:05:43Z</time>
      </trkpt>
      <trkpt lat="45.88437" lon="6.71282">
        <ele>1185</ele>
        <time>2022-08-26T19:05:44Z</time>
      </trkpt>
      <trkpt lat="45.88435" lon="6.7128">
        <ele>1185</ele>
        <time>2022-08-26T19:05:45Z</time>
      </trkpt>
      <trkpt lat="45.88433" lon="6.71278">
        <ele>1185</ele>
        <time>2022-08-26T19:05:46Z</time>
      </trkpt>
      <trkpt lat="45.8843" lon="6.71275">
        <ele>1185</ele>
        <time>2022-08-26T19:05:47Z</time>
      </trkpt>
      <trkpt lat="45.88429" lon="6.71274">
        <ele>1185</ele>
        <time>2022-08-26T19:05:48Z</time>
      </trkpt>
      <trkpt lat="45.88427" lon="6.71271">
        <ele>1185</ele>
        <time>2022-08-26T19:05:49Z</time>
      </trkpt>
      <trkpt lat="45.88425" lon="6.7127">
        <ele>1185</ele>
        <time>2022-08-26T19:05:50Z</time>
      </trkpt>
      <trkpt lat="45.88421" lon="6.71267">
        <ele>1185</ele>
        <time>2022-08-26T19:05:51Z</time>
      </trkpt>
      <trkpt lat="45.8842" lon="6.71266">
        <ele>1185</ele>
        <time>2022-08-26T19:05:52Z</time>
      </trkpt>
      <trkpt lat="45.88418" lon="6.71265">
        <ele>1185</ele>
        <time>2022-08-26T19:05:53Z</time>
      </trkpt>
      <trkpt lat="45.88416" lon="6.71263">
        <ele>1185</ele>
        <time>2022-08-26T19:05:54Z</time>
      </trkpt>
      <trkpt lat="45.88414" lon="6.71261">
        <ele>1185</ele>
        <time>2022-08-26T19:05:55Z</time>
      </trkpt>
      <trkpt lat="45.88411" lon="6.7126">
        <ele>1185</ele>
        <time>2022-08-26T19:05:56Z</time>
      </trkpt>
      <trkpt lat="45.88409" lon="6.71259">
        <ele>1185</ele>
        <time>2022-08-26T19:05:57Z</time>
      </trkpt>
      <trkpt lat="45.88406" lon="6.71258">
        <ele>1185</ele>
        <time>2022-08-26T19:05:58Z</time>
      </trkpt>
      <trkpt lat="45.88404" lon="6.71257">
        <ele>1185</ele>
        <time>2022-08-26T19:05:59Z</time>
      </trkpt>
      <trkpt lat="45.88401" lon="6.71256">
        <ele>1185</ele>
        <time>2022-08-26T19:06:00Z</time>
      </trkpt>
      <trkpt lat="45.88399" lon="6.71255">
        <ele>1185</ele>
        <time>2022-08-26T19:06:01Z</time>
      </trkpt>
      <trkpt lat="45.88396" lon="6.71253">
        <ele>1185</ele>
        <time>2022-08-26T19:06:02Z</time>
      </trkpt>
      <trkpt lat="45.88394" lon="6.71253">
        <ele>1185</ele>
        <time>2022-08-26T19:06:03Z</time>
      </trkpt>
      <trkpt lat="45.88392" lon="6.71251">
        <ele>1186</ele>
        <time>2022-08-26T19:06:04Z</time>
      </trkpt>
      <trkpt lat="45.8839" lon="6.71249">
        <ele>1186</ele>
        <time>2022-08-26T19:06:05Z</time>
      </trkpt>
      <trkpt lat="45.88388" lon="6.71248">
        <ele>1186</ele>
        <time>2022-08-26T19:06:06Z</time>
      </trkpt>
      <trkpt lat="45.88385" lon="6.71245">
        <ele>1186</ele>
        <time>2022-08-26T19:06:07Z</time>
      </trkpt>
      <trkpt lat="45.88384" lon="6.71244">
        <ele>1186</ele>
        <time>2022-08-26T19:06:08Z</time>
      </trkpt>
      <trkpt lat="45.88381" lon="6.71242">
        <ele>1186</ele>
        <time>2022-08-26T19:06:09Z</time>
      </trkpt>
      <trkpt lat="45.88379" lon="6.71241">
        <ele>1186</ele>
        <time>2022-08-26T19:06:10Z</time>
      </trkpt>
      <trkpt lat="45.88377" lon="6.7124">
        <ele>1186</ele>
        <time>2022-08-26T19:06:11Z</time>
      </trkpt>
      <trkpt lat="45.88374" lon="6.71239">
        <ele>1186</ele>
        <time>2022-08-26T19:06:12Z</time>
      </trkpt>
      <trkpt lat="45.88373" lon="6.71239">
        <ele>1186</ele>
        <time>2022-08-26T19:06:13Z</time>
      </trkpt>
      <trkpt lat="45.88371" lon="6.71239">
        <ele>1186</ele>
        <time>2022-08-26T19:06:14Z</time>
      </trkpt>
      <trkpt lat="45.88369" lon="6.71239">
        <ele>1187</ele>
        <time>2022-08-26T19:06:15Z</time>
      </trkpt>
      <trkpt lat="45.88365" lon="6.71239">
        <ele>1187</ele>
        <time>2022-08-26T19:06:16Z</time>
      </trkpt>
      <trkpt lat="45.88364" lon="6.71239">
        <ele>1187</ele>
        <time>2022-08-26T19:06:17Z</time>
      </trkpt>
      <trkpt lat="45.88362" lon="6.71239">
        <ele>1187</ele>
        <time>2022-08-26T19:06:18Z</time>
      </trkpt>
      <trkpt lat="45.8836" lon="6.71239">
        <ele>1187</ele>
        <time>2022-08-26T19:06:19Z</time>
      </trkpt>
      <trkpt lat="45.88357" lon="6.7124">
        <ele>1187</ele>
        <time>2022-08-26T19:06:20Z</time>
      </trkpt>
      <trkpt lat="45.88356" lon="6.7124">
        <ele>1187</ele>
        <time>2022-08-26T19:06:21Z</time>
      </trkpt>
      <trkpt lat="45.88353" lon="6.71241">
        <ele>1187</ele>
        <time>2022-08-26T19:06:22Z</time>
      </trkpt>
      <trkpt lat="45.88351" lon="6.71241">
        <ele>1187</ele>
        <time>2022-08-26T19:06:23Z</time>
      </trkpt>
      <trkpt lat="45.88349" lon="6.71242">
        <ele>1187</ele>
        <time>2022-08-26T19:06:24Z</time>
      </trkpt>
      <trkpt lat="45.88347" lon="6.71243">
        <ele>1187</ele>
        <time>2022-08-26T19:06:25Z</time>
      </trkpt>
      <trkpt lat="45.88345" lon="6.71244">
        <ele>1187</ele>
        <time>2022-08-26T19:06:26Z</time>
      </trkpt>
      <trkpt lat="45.88343" lon="6.71245">
        <ele>1187</ele>
        <time>2022-08-26T19:06:27Z</time>
      </trkpt>
      <trkpt lat="45.88341" lon="6.71246">
        <ele>1187</ele>
        <time>2022-08-26T19:06:28Z</time>
      </trkpt>
      <trkpt lat="45.88339" lon="6.71247">
        <ele>1187</ele>
        <time>2022-08-26T19:06:29Z</time>
      </trkpt>
      <trkpt lat="45.88335" lon="6.71247">
        <ele>1187</ele>
        <time>2022-08-26T19:06:30Z</time>
      </trkpt>
      <trkpt lat="45.88334" lon="6.71248">
        <ele>1187</ele>
        <time>2022-08-26T19:06:31Z</time>
      </trkpt>
      <trkpt lat="45.8833" lon="6.71248">
        <ele>1187</ele>
        <time>2022-08-26T19:06:32Z</time>
      </trkpt>
      <trkpt lat="45.88329" lon="6.71248">
        <ele>1187</ele>
        <time>2022-08-26T19:06:33Z</time>
      </trkpt>
      <trkpt lat="45.88326" lon="6.71248">
        <ele>1187</ele>
        <time>2022-08-26T19:06:34Z</time>
      </trkpt>
      <trkpt lat="45.88323" lon="6.71247">
        <ele>1187</ele>
        <time>2022-08-26T19:06:35Z</time>
      </trkpt>
      <trkpt lat="45.88317" lon="6.71244">
        <ele>1187</ele>
        <time>2022-08-26T19:06:37Z</time>
      </trkpt>
      <trkpt lat="45.88315" lon="6.71242">
        <ele>1187</ele>
        <time>2022-08-26T19:06:38Z</time>
      </trkpt>
      <trkpt lat="45.88313" lon="6.71241">
        <ele>1187</ele>
        <time>2022-08-26T19:06:39Z</time>
      </trkpt>
      <trkpt lat="45.8831" lon="6.7124">
        <ele>1187</ele>
        <time>2022-08-26T19:06:40Z</time>
      </trkpt>
      <trkpt lat="45.88307" lon="6.71236">
        <ele>1187</ele>
        <time>2022-08-26T19:06:41Z</time>
      </trkpt>
      <trkpt lat="45.88306" lon="6.71235">
        <ele>1187</ele>
        <time>2022-08-26T19:06:42Z</time>
      </trkpt>
      <trkpt lat="45.88304" lon="6.71232">
        <ele>1187</ele>
        <time>2022-08-26T19:06:43Z</time>
      </trkpt>
      <trkpt lat="45.88303" lon="6.71229">
        <ele>1187</ele>
        <time>2022-08-26T19:06:44Z</time>
      </trkpt>
      <trkpt lat="45.88302" lon="6.71226">
        <ele>1187</ele>
        <time>2022-08-26T19:06:45Z</time>
      </trkpt>
      <trkpt lat="45.88301" lon="6.71222">
        <ele>1187</ele>
        <time>2022-08-26T19:06:46Z</time>
      </trkpt>
      <trkpt lat="45.883" lon="6.71221">
        <ele>1187</ele>
        <time>2022-08-26T19:06:47Z</time>
      </trkpt>
      <trkpt lat="45.88299" lon="6.71218">
        <ele>1187</ele>
        <time>2022-08-26T19:06:48Z</time>
      </trkpt>
      <trkpt lat="45.88298" lon="6.71215">
        <ele>1187</ele>
        <time>2022-08-26T19:06:49Z</time>
      </trkpt>
      <trkpt lat="45.88297" lon="6.71213">
        <ele>1187</ele>
        <time>2022-08-26T19:06:50Z</time>
      </trkpt>
      <trkpt lat="45.88294" lon="6.71209">
        <ele>1187</ele>
        <time>2022-08-26T19:06:51Z</time>
      </trkpt>
      <trkpt lat="45.88294" lon="6.71208">
        <ele>1187</ele>
        <time>2022-08-26T19:06:52Z</time>
      </trkpt>
      <trkpt lat="45.88292" lon="6.71206">
        <ele>1187</ele>
        <time>2022-08-26T19:06:53Z</time>
      </trkpt>
      <trkpt lat="45.88289" lon="6.71205">
        <ele>1187</ele>
        <time>2022-08-26T19:06:54Z</time>
      </trkpt>
      <trkpt lat="45.88287" lon="6.71202">
        <ele>1187</ele>
        <time>2022-08-26T19:06:55Z</time>
      </trkpt>
      <trkpt lat="45.88286" lon="6.71201">
        <ele>1187</ele>
        <time>2022-08-26T19:06:56Z</time>
      </trkpt>
      <trkpt lat="45.88284" lon="6.71198">
        <ele>1187</ele>
        <time>2022-08-26T19:06:57Z</time>
      </trkpt>
      <trkpt lat="45.88282" lon="6.71194">
        <ele>1187</ele>
        <time>2022-08-26T19:06:58Z</time>
      </trkpt>
      <trkpt lat="45.88281" lon="6.71193">
        <ele>1187</ele>
        <time>2022-08-26T19:06:59Z</time>
      </trkpt>
      <trkpt lat="45.8828" lon="6.71191">
        <ele>1187</ele>
        <time>2022-08-26T19:07:00Z</time>
      </trkpt>
      <trkpt lat="45.88278" lon="6.71188">
        <ele>1187</ele>
        <time>2022-08-26T19:07:01Z</time>
      </trkpt>
      <trkpt lat="45.88276" lon="6.71187">
        <ele>1187</ele>
        <time>2022-08-26T19:07:02Z</time>
      </trkpt>
      <trkpt lat="45.88273" lon="6.71184">
        <ele>1187</ele>
        <time>2022-08-26T19:07:03Z</time>
      </trkpt>
      <trkpt lat="45.88272" lon="6.71183">
        <ele>1187</ele>
        <time>2022-08-26T19:07:04Z</time>
      </trkpt>
      <trkpt lat="45.88271" lon="6.71181">
        <ele>1187</ele>
        <time>2022-08-26T19:07:05Z</time>
      </trkpt>
      <trkpt lat="45.88268" lon="6.71178">
        <ele>1188</ele>
        <time>2022-08-26T19:07:07Z</time>
      </trkpt>
      <trkpt lat="45.88266" lon="6.71177">
        <ele>1188</ele>
        <time>2022-08-26T19:07:08Z</time>
      </trkpt>
      <trkpt lat="45.88264" lon="6.71176">
        <ele>1188</ele>
        <time>2022-08-26T19:07:09Z</time>
      </trkpt>
      <trkpt lat="45.88262" lon="6.71175">
        <ele>1188</ele>
        <time>2022-08-26T19:07:10Z</time>
      </trkpt>
      <trkpt lat="45.88261" lon="6.71173">
        <ele>1189</ele>
        <time>2022-08-26T19:07:11Z</time>
      </trkpt>
      <trkpt lat="45.88259" lon="6.71171">
        <ele>1189</ele>
        <time>2022-08-26T19:07:12Z</time>
      </trkpt>
      <trkpt lat="45.88257" lon="6.7117">
        <ele>1189</ele>
        <time>2022-08-26T19:07:13Z</time>
      </trkpt>
      <trkpt lat="45.88255" lon="6.71169">
        <ele>1189</ele>
        <time>2022-08-26T19:07:14Z</time>
      </trkpt>
      <trkpt lat="45.88253" lon="6.71168">
        <ele>1189</ele>
        <time>2022-08-26T19:07:15Z</time>
      </trkpt>
      <trkpt lat="45.8825" lon="6.71167">
        <ele>1189</ele>
        <time>2022-08-26T19:07:16Z</time>
      </trkpt>
      <trkpt lat="45.88248" lon="6.71166">
        <ele>1189</ele>
        <time>2022-08-26T19:07:17Z</time>
      </trkpt>
      <trkpt lat="45.88245" lon="6.71164">
        <ele>1189</ele>
        <time>2022-08-26T19:07:18Z</time>
      </trkpt>
      <trkpt lat="45.88244" lon="6.71164">
        <ele>1190</ele>
        <time>2022-08-26T19:07:19Z</time>
      </trkpt>
      <trkpt lat="45.88243" lon="6.71163">
        <ele>1190</ele>
        <time>2022-08-26T19:07:20Z</time>
      </trkpt>
      <trkpt lat="45.88239" lon="6.71163">
        <ele>1190</ele>
        <time>2022-08-26T19:07:22Z</time>
      </trkpt>
      <trkpt lat="45.88237" lon="6.71163">
        <ele>1190</ele>
        <time>2022-08-26T19:07:23Z</time>
      </trkpt>
      <trkpt lat="45.88234" lon="6.71163">
        <ele>1190</ele>
        <time>2022-08-26T19:07:25Z</time>
      </trkpt>
      <trkpt lat="45.88231" lon="6.71164">
        <ele>1190</ele>
        <time>2022-08-26T19:07:26Z</time>
      </trkpt>
      <trkpt lat="45.88229" lon="6.71165">
        <ele>1190</ele>
        <time>2022-08-26T19:07:27Z</time>
      </trkpt>
      <trkpt lat="45.88227" lon="6.71165">
        <ele>1190</ele>
        <time>2022-08-26T19:07:29Z</time>
      </trkpt>
      <trkpt lat="45.88225" lon="6.71166">
        <ele>1190</ele>
        <time>2022-08-26T19:07:30Z</time>
      </trkpt>
      <trkpt lat="45.88223" lon="6.71167">
        <ele>1190</ele>
        <time>2022-08-26T19:07:31Z</time>
      </trkpt>
      <trkpt lat="45.88221" lon="6.71167">
        <ele>1190</ele>
        <time>2022-08-26T19:07:32Z</time>
      </trkpt>
      <trkpt lat="45.88219" lon="6.71168">
        <ele>1190</ele>
        <time>2022-08-26T19:07:33Z</time>
      </trkpt>
      <trkpt lat="45.88217" lon="6.71169">
        <ele>1190</ele>
        <time>2022-08-26T19:07:34Z</time>
      </trkpt>
      <trkpt lat="45.88214" lon="6.7117">
        <ele>1190</ele>
        <time>2022-08-26T19:07:35Z</time>
      </trkpt>
      <trkpt lat="45.88211" lon="6.7117">
        <ele>1190</ele>
        <time>2022-08-26T19:07:36Z</time>
      </trkpt>
      <trkpt lat="45.88209" lon="6.71171">
        <ele>1190</ele>
        <time>2022-08-26T19:07:37Z</time>
      </trkpt>
      <trkpt lat="45.88207" lon="6.71172">
        <ele>1190</ele>
        <time>2022-08-26T19:07:38Z</time>
      </trkpt>
      <trkpt lat="45.88205" lon="6.71173">
        <ele>1190</ele>
        <time>2022-08-26T19:07:39Z</time>
      </trkpt>
      <trkpt lat="45.882" lon="6.71175">
        <ele>1190</ele>
        <time>2022-08-26T19:07:40Z</time>
      </trkpt>
      <trkpt lat="45.88198" lon="6.71175">
        <ele>1190</ele>
        <time>2022-08-26T19:07:41Z</time>
      </trkpt>
      <trkpt lat="45.88194" lon="6.71177">
        <ele>1190</ele>
        <time>2022-08-26T19:07:42Z</time>
      </trkpt>
      <trkpt lat="45.88193" lon="6.71178">
        <ele>1189</ele>
        <time>2022-08-26T19:07:43Z</time>
      </trkpt>
      <trkpt lat="45.8819" lon="6.71181">
        <ele>1188</ele>
        <time>2022-08-26T19:07:44Z</time>
      </trkpt>
      <trkpt lat="45.88187" lon="6.71183">
        <ele>1188</ele>
        <time>2022-08-26T19:07:45Z</time>
      </trkpt>
      <trkpt lat="45.88185" lon="6.71186">
        <ele>1188</ele>
        <time>2022-08-26T19:07:46Z</time>
      </trkpt>
      <trkpt lat="45.88183" lon="6.71189">
        <ele>1188</ele>
        <time>2022-08-26T19:07:47Z</time>
      </trkpt>
      <trkpt lat="45.88182" lon="6.7119">
        <ele>1186</ele>
        <time>2022-08-26T19:07:48Z</time>
      </trkpt>
      <trkpt lat="45.8818" lon="6.71192">
        <ele>1186</ele>
        <time>2022-08-26T19:07:49Z</time>
      </trkpt>
      <trkpt lat="45.88178" lon="6.71194">
        <ele>1186</ele>
        <time>2022-08-26T19:07:50Z</time>
      </trkpt>
      <trkpt lat="45.88176" lon="6.71197">
        <ele>1186</ele>
        <time>2022-08-26T19:07:51Z</time>
      </trkpt>
      <trkpt lat="45.88175" lon="6.71198">
        <ele>1186</ele>
        <time>2022-08-26T19:07:52Z</time>
      </trkpt>
      <trkpt lat="45.88174" lon="6.71199">
        <ele>1185</ele>
        <time>2022-08-26T19:07:53Z</time>
      </trkpt>
      <trkpt lat="45.88172" lon="6.71201">
        <ele>1184</ele>
        <time>2022-08-26T19:07:54Z</time>
      </trkpt>
      <trkpt lat="45.88169" lon="6.71204">
        <ele>1184</ele>
        <time>2022-08-26T19:07:55Z</time>
      </trkpt>
      <trkpt lat="45.88168" lon="6.71205">
        <ele>1184</ele>
        <time>2022-08-26T19:07:56Z</time>
      </trkpt>
      <trkpt lat="45.88166" lon="6.71207">
        <ele>1183</ele>
        <time>2022-08-26T19:07:57Z</time>
      </trkpt>
      <trkpt lat="45.88164" lon="6.71208">
        <ele>1182</ele>
        <time>2022-08-26T19:07:58Z</time>
      </trkpt>
      <trkpt lat="45.88162" lon="6.7121">
        <ele>1182</ele>
        <time>2022-08-26T19:07:59Z</time>
      </trkpt>
      <trkpt lat="45.8816" lon="6.71212">
        <ele>1182</ele>
        <time>2022-08-26T19:08:01Z</time>
      </trkpt>
      <trkpt lat="45.88158" lon="6.71213">
        <ele>1181</ele>
        <time>2022-08-26T19:08:02Z</time>
      </trkpt>
      <trkpt lat="45.88155" lon="6.71215">
        <ele>1181</ele>
        <time>2022-08-26T19:08:03Z</time>
      </trkpt>
      <trkpt lat="45.88153" lon="6.71216">
        <ele>1180</ele>
        <time>2022-08-26T19:08:04Z</time>
      </trkpt>
      <trkpt lat="45.88151" lon="6.71218">
        <ele>1180</ele>
        <time>2022-08-26T19:08:05Z</time>
      </trkpt>
      <trkpt lat="45.88149" lon="6.71219">
        <ele>1179</ele>
        <time>2022-08-26T19:08:06Z</time>
      </trkpt>
      <trkpt lat="45.88146" lon="6.71221">
        <ele>1178</ele>
        <time>2022-08-26T19:08:07Z</time>
      </trkpt>
      <trkpt lat="45.88144" lon="6.71222">
        <ele>1178</ele>
        <time>2022-08-26T19:08:08Z</time>
      </trkpt>
      <trkpt lat="45.88141" lon="6.71224">
        <ele>1178</ele>
        <time>2022-08-26T19:08:09Z</time>
      </trkpt>
      <trkpt lat="45.88139" lon="6.71226">
        <ele>1178</ele>
        <time>2022-08-26T19:08:10Z</time>
      </trkpt>
      <trkpt lat="45.88136" lon="6.71228">
        <ele>1177</ele>
        <time>2022-08-26T19:08:11Z</time>
      </trkpt>
      <trkpt lat="45.88132" lon="6.7123">
        <ele>1176</ele>
        <time>2022-08-26T19:08:13Z</time>
      </trkpt>
      <trkpt lat="45.88122" lon="6.71237">
        <ele>1174</ele>
        <time>2022-08-26T19:08:18Z</time>
      </trkpt>
      <trkpt lat="45.8812" lon="6.71239">
        <ele>1174</ele>
        <time>2022-08-26T19:08:19Z</time>
      </trkpt>
      <trkpt lat="45.88119" lon="6.7124">
        <ele>1174</ele>
        <time>2022-08-26T19:08:20Z</time>
      </trkpt>
      <trkpt lat="45.88117" lon="6.71242">
        <ele>1174</ele>
        <time>2022-08-26T19:08:21Z</time>
      </trkpt>
      <trkpt lat="45.88115" lon="6.71244">
        <ele>1174</ele>
        <time>2022-08-26T19:08:22Z</time>
      </trkpt>
      <trkpt lat="45.88113" lon="6.71246">
        <ele>1173</ele>
        <time>2022-08-26T19:08:23Z</time>
      </trkpt>
      <trkpt lat="45.8811" lon="6.71247">
        <ele>1173</ele>
        <time>2022-08-26T19:08:24Z</time>
      </trkpt>
      <trkpt lat="45.88107" lon="6.71249">
        <ele>1173</ele>
        <time>2022-08-26T19:08:25Z</time>
      </trkpt>
      <trkpt lat="45.88104" lon="6.7125">
        <ele>1172</ele>
        <time>2022-08-26T19:08:26Z</time>
      </trkpt>
      <trkpt lat="45.88096" lon="6.71256">
        <ele>1170</ele>
        <time>2022-08-26T19:08:28Z</time>
      </trkpt>
      <trkpt lat="45.88095" lon="6.71256">
        <ele>1170</ele>
        <time>2022-08-26T19:08:30Z</time>
      </trkpt>
      <trkpt lat="45.88094" lon="6.71257">
        <ele>1170</ele>
        <time>2022-08-26T19:08:31Z</time>
      </trkpt>
      <trkpt lat="45.88092" lon="6.71258">
        <ele>1170</ele>
        <time>2022-08-26T19:08:32Z</time>
      </trkpt>
      <trkpt lat="45.88083" lon="6.71264">
        <ele>1169</ele>
        <time>2022-08-26T19:08:34Z</time>
      </trkpt>
      <trkpt lat="45.8808" lon="6.71267">
        <ele>1169</ele>
        <time>2022-08-26T19:08:35Z</time>
      </trkpt>
      <trkpt lat="45.88078" lon="6.71269">
        <ele>1169</ele>
        <time>2022-08-26T19:08:36Z</time>
      </trkpt>
      <trkpt lat="45.88075" lon="6.71271">
        <ele>1169</ele>
        <time>2022-08-26T19:08:37Z</time>
      </trkpt>
      <trkpt lat="45.88071" lon="6.71272">
        <ele>1169</ele>
        <time>2022-08-26T19:08:39Z</time>
      </trkpt>
      <trkpt lat="45.88068" lon="6.71273">
        <ele>1169</ele>
        <time>2022-08-26T19:08:40Z</time>
      </trkpt>
      <trkpt lat="45.88065" lon="6.71275">
        <ele>1169</ele>
        <time>2022-08-26T19:08:41Z</time>
      </trkpt>
      <trkpt lat="45.88061" lon="6.71275">
        <ele>1169</ele>
        <time>2022-08-26T19:08:42Z</time>
      </trkpt>
      <trkpt lat="45.8806" lon="6.71276">
        <ele>1168</ele>
        <time>2022-08-26T19:08:43Z</time>
      </trkpt>
      <trkpt lat="45.88057" lon="6.71275">
        <ele>1168</ele>
        <time>2022-08-26T19:08:44Z</time>
      </trkpt>
      <trkpt lat="45.88055" lon="6.71274">
        <ele>1168</ele>
        <time>2022-08-26T19:08:45Z</time>
      </trkpt>
      <trkpt lat="45.88052" lon="6.71272">
        <ele>1168</ele>
        <time>2022-08-26T19:08:46Z</time>
      </trkpt>
      <trkpt lat="45.8805" lon="6.71269">
        <ele>1168</ele>
        <time>2022-08-26T19:08:48Z</time>
      </trkpt>
      <trkpt lat="45.88048" lon="6.71265">
        <ele>1168</ele>
        <time>2022-08-26T19:08:49Z</time>
      </trkpt>
      <trkpt lat="45.88046" lon="6.71261">
        <ele>1168</ele>
        <time>2022-08-26T19:08:50Z</time>
      </trkpt>
      <trkpt lat="45.88045" lon="6.71259">
        <ele>1168</ele>
        <time>2022-08-26T19:08:51Z</time>
      </trkpt>
      <trkpt lat="45.88044" lon="6.71256">
        <ele>1168</ele>
        <time>2022-08-26T19:08:52Z</time>
      </trkpt>
      <trkpt lat="45.88043" lon="6.71253">
        <ele>1168</ele>
        <time>2022-08-26T19:08:53Z</time>
      </trkpt>
      <trkpt lat="45.88042" lon="6.7125">
        <ele>1168</ele>
        <time>2022-08-26T19:08:54Z</time>
      </trkpt>
      <trkpt lat="45.8804" lon="6.71246">
        <ele>1168</ele>
        <time>2022-08-26T19:08:56Z</time>
      </trkpt>
      <trkpt lat="45.88039" lon="6.71243">
        <ele>1168</ele>
        <time>2022-08-26T19:08:58Z</time>
      </trkpt>
      <trkpt lat="45.88038" lon="6.71239">
        <ele>1168</ele>
        <time>2022-08-26T19:09:00Z</time>
      </trkpt>
      <trkpt lat="45.88038" lon="6.71234">
        <ele>1169</ele>
        <time>2022-08-26T19:09:02Z</time>
      </trkpt>
      <trkpt lat="45.88038" lon="6.71229">
        <ele>1169</ele>
        <time>2022-08-26T19:09:04Z</time>
      </trkpt>
      <trkpt lat="45.88036" lon="6.71225">
        <ele>1169</ele>
        <time>2022-08-26T19:09:06Z</time>
      </trkpt>
      <trkpt lat="45.88036" lon="6.71221">
        <ele>1169</ele>
        <time>2022-08-26T19:09:08Z</time>
      </trkpt>
      <trkpt lat="45.88034" lon="6.71218">
        <ele>1170</ele>
        <time>2022-08-26T19:09:10Z</time>
      </trkpt>
      <trkpt lat="45.88033" lon="6.71215">
        <ele>1170</ele>
        <time>2022-08-26T19:09:12Z</time>
      </trkpt>
      <trkpt lat="45.88031" lon="6.71212">
        <ele>1171</ele>
        <time>2022-08-26T19:09:14Z</time>
      </trkpt>
      <trkpt lat="45.88029" lon="6.7121">
        <ele>1171</ele>
        <time>2022-08-26T19:09:16Z</time>
      </trkpt>
      <trkpt lat="45.88027" lon="6.71208">
        <ele>1172</ele>
        <time>2022-08-26T19:09:18Z</time>
      </trkpt>
      <trkpt lat="45.88025" lon="6.71207">
        <ele>1172</ele>
        <time>2022-08-26T19:09:20Z</time>
      </trkpt>
      <trkpt lat="45.88022" lon="6.71205">
        <ele>1172</ele>
        <time>2022-08-26T19:09:22Z</time>
      </trkpt>
      <trkpt lat="45.8802" lon="6.71204">
        <ele>1172</ele>
        <time>2022-08-26T19:09:24Z</time>
      </trkpt>
      <trkpt lat="45.88017" lon="6.71203">
        <ele>1172</ele>
        <time>2022-08-26T19:09:26Z</time>
      </trkpt>
      <trkpt lat="45.88015" lon="6.71202">
        <ele>1173</ele>
        <time>2022-08-26T19:09:28Z</time>
      </trkpt>
      <trkpt lat="45.88012" lon="6.71202">
        <ele>1174</ele>
        <time>2022-08-26T19:09:30Z</time>
      </trkpt>
      <trkpt lat="45.88009" lon="6.71201">
        <ele>1174</ele>
        <time>2022-08-26T19:09:32Z</time>
      </trkpt>
      <trkpt lat="45.88006" lon="6.71201">
        <ele>1174</ele>
        <time>2022-08-26T19:09:34Z</time>
      </trkpt>
      <trkpt lat="45.88003" lon="6.71201">
        <ele>1174</ele>
        <time>2022-08-26T19:09:36Z</time>
      </trkpt>
      <trkpt lat="45.88001" lon="6.71201">
        <ele>1175</ele>
        <time>2022-08-26T19:09:37Z</time>
      </trkpt>
      <trkpt lat="45.87998" lon="6.71201">
        <ele>1175</ele>
        <time>2022-08-26T19:09:39Z</time>
      </trkpt>
      <trkpt lat="45.87995" lon="6.71201">
        <ele>1176</ele>
        <time>2022-08-26T19:09:41Z</time>
      </trkpt>
      <trkpt lat="45.87994" lon="6.712">
        <ele>1176</ele>
        <time>2022-08-26T19:09:42Z</time>
      </trkpt>
      <trkpt lat="45.87993" lon="6.712">
        <ele>1176</ele>
        <time>2022-08-26T19:09:43Z</time>
      </trkpt>
      <trkpt lat="45.87991" lon="6.712">
        <ele>1176</ele>
        <time>2022-08-26T19:09:44Z</time>
      </trkpt>
      <trkpt lat="45.8799" lon="6.712">
        <ele>1176</ele>
        <time>2022-08-26T19:09:45Z</time>
      </trkpt>
      <trkpt lat="45.87988" lon="6.71199">
        <ele>1176</ele>
        <time>2022-08-26T19:09:46Z</time>
      </trkpt>
      <trkpt lat="45.87986" lon="6.71199">
        <ele>1176</ele>
        <time>2022-08-26T19:09:48Z</time>
      </trkpt>
      <trkpt lat="45.87983" lon="6.71199">
        <ele>1177</ele>
        <time>2022-08-26T19:09:50Z</time>
      </trkpt>
      <trkpt lat="45.87981" lon="6.712">
        <ele>1177</ele>
        <time>2022-08-26T19:09:52Z</time>
      </trkpt>
      <trkpt lat="45.87978" lon="6.712">
        <ele>1178</ele>
        <time>2022-08-26T19:09:55Z</time>
      </trkpt>
      <trkpt lat="45.87975" lon="6.71201">
        <ele>1178</ele>
        <time>2022-08-26T19:09:57Z</time>
      </trkpt>
      <trkpt lat="45.87971" lon="6.71202">
        <ele>1179</ele>
        <time>2022-08-26T19:10:00Z</time>
      </trkpt>
      <trkpt lat="45.87969" lon="6.71201">
        <ele>1179</ele>
        <time>2022-08-26T19:10:02Z</time>
      </trkpt>
      <trkpt lat="45.87962" lon="6.712">
        <ele>1180</ele>
        <time>2022-08-26T19:10:09Z</time>
      </trkpt>
      <trkpt lat="45.87959" lon="6.712">
        <ele>1180</ele>
        <time>2022-08-26T19:10:11Z</time>
      </trkpt>
      <trkpt lat="45.87957" lon="6.71202">
        <ele>1181</ele>
        <time>2022-08-26T19:10:13Z</time>
      </trkpt>
      <trkpt lat="45.87956" lon="6.71204">
        <ele>1181</ele>
        <time>2022-08-26T19:10:15Z</time>
      </trkpt>
      <trkpt lat="45.87955" lon="6.7121">
        <ele>1181</ele>
        <time>2022-08-26T19:10:17Z</time>
      </trkpt>
      <trkpt lat="45.87954" lon="6.71213">
        <ele>1181</ele>
        <time>2022-08-26T19:10:18Z</time>
      </trkpt>
      <trkpt lat="45.87954" lon="6.71215">
        <ele>1181</ele>
        <time>2022-08-26T19:10:19Z</time>
      </trkpt>
      <trkpt lat="45.87954" lon="6.71217">
        <ele>1181</ele>
        <time>2022-08-26T19:10:20Z</time>
      </trkpt>
      <trkpt lat="45.87954" lon="6.71219">
        <ele>1181</ele>
        <time>2022-08-26T19:10:22Z</time>
      </trkpt>
      <trkpt lat="45.87953" lon="6.71221">
        <ele>1181</ele>
        <time>2022-08-26T19:10:23Z</time>
      </trkpt>
      <trkpt lat="45.87953" lon="6.71224">
        <ele>1181</ele>
        <time>2022-08-26T19:10:24Z</time>
      </trkpt>
      <trkpt lat="45.87953" lon="6.71227">
        <ele>1181</ele>
        <time>2022-08-26T19:10:25Z</time>
      </trkpt>
      <trkpt lat="45.87953" lon="6.7123">
        <ele>1181</ele>
        <time>2022-08-26T19:10:26Z</time>
      </trkpt>
      <trkpt lat="45.87953" lon="6.71233">
        <ele>1181</ele>
        <time>2022-08-26T19:10:27Z</time>
      </trkpt>
      <trkpt lat="45.87953" lon="6.71236">
        <ele>1181</ele>
        <time>2022-08-26T19:10:28Z</time>
      </trkpt>
      <trkpt lat="45.87953" lon="6.71239">
        <ele>1181</ele>
        <time>2022-08-26T19:10:29Z</time>
      </trkpt>
      <trkpt lat="45.87952" lon="6.71241">
        <ele>1181</ele>
        <time>2022-08-26T19:10:30Z</time>
      </trkpt>
      <trkpt lat="45.87952" lon="6.71244">
        <ele>1182</ele>
        <time>2022-08-26T19:10:31Z</time>
      </trkpt>
      <trkpt lat="45.87951" lon="6.71247">
        <ele>1182</ele>
        <time>2022-08-26T19:10:32Z</time>
      </trkpt>
      <trkpt lat="45.87951" lon="6.71249">
        <ele>1182</ele>
        <time>2022-08-26T19:10:33Z</time>
      </trkpt>
      <trkpt lat="45.8795" lon="6.71251">
        <ele>1182</ele>
        <time>2022-08-26T19:10:34Z</time>
      </trkpt>
      <trkpt lat="45.87949" lon="6.71253">
        <ele>1182</ele>
        <time>2022-08-26T19:10:35Z</time>
      </trkpt>
      <trkpt lat="45.87948" lon="6.71255">
        <ele>1182</ele>
        <time>2022-08-26T19:10:36Z</time>
      </trkpt>
      <trkpt lat="45.87947" lon="6.71257">
        <ele>1182</ele>
        <time>2022-08-26T19:10:38Z</time>
      </trkpt>
      <trkpt lat="45.87946" lon="6.71259">
        <ele>1182</ele>
        <time>2022-08-26T19:10:39Z</time>
      </trkpt>
      <trkpt lat="45.87946" lon="6.71261">
        <ele>1183</ele>
        <time>2022-08-26T19:10:40Z</time>
      </trkpt>
      <trkpt lat="45.87938" lon="6.71269">
        <ele>1183</ele>
        <time>2022-08-26T19:10:47Z</time>
      </trkpt>
      <trkpt lat="45.87937" lon="6.7127">
        <ele>1184</ele>
        <time>2022-08-26T19:10:48Z</time>
      </trkpt>
      <trkpt lat="45.87936" lon="6.71271">
        <ele>1184</ele>
        <time>2022-08-26T19:10:49Z</time>
      </trkpt>
      <trkpt lat="45.87935" lon="6.71273">
        <ele>1184</ele>
        <time>2022-08-26T19:10:50Z</time>
      </trkpt>
      <trkpt lat="45.87934" lon="6.71274">
        <ele>1184</ele>
        <time>2022-08-26T19:10:52Z</time>
      </trkpt>
      <trkpt lat="45.87933" lon="6.71275">
        <ele>1184</ele>
        <time>2022-08-26T19:10:53Z</time>
      </trkpt>
      <trkpt lat="45.87932" lon="6.71276">
        <ele>1184</ele>
        <time>2022-08-26T19:10:54Z</time>
      </trkpt>
      <trkpt lat="45.87931" lon="6.71278">
        <ele>1185</ele>
        <time>2022-08-26T19:10:55Z</time>
      </trkpt>
      <trkpt lat="45.8793" lon="6.71279">
        <ele>1185</ele>
        <time>2022-08-26T19:10:57Z</time>
      </trkpt>
      <trkpt lat="45.87929" lon="6.7128">
        <ele>1185</ele>
        <time>2022-08-26T19:10:58Z</time>
      </trkpt>
      <trkpt lat="45.87927" lon="6.71282">
        <ele>1185</ele>
        <time>2022-08-26T19:10:59Z</time>
      </trkpt>
      <trkpt lat="45.87926" lon="6.71283">
        <ele>1186</ele>
        <time>2022-08-26T19:11:00Z</time>
      </trkpt>
      <trkpt lat="45.87924" lon="6.71285">
        <ele>1186</ele>
        <time>2022-08-26T19:11:02Z</time>
      </trkpt>
      <trkpt lat="45.87922" lon="6.71286">
        <ele>1186</ele>
        <time>2022-08-26T19:11:03Z</time>
      </trkpt>
      <trkpt lat="45.87919" lon="6.71287">
        <ele>1185</ele>
        <time>2022-08-26T19:11:04Z</time>
      </trkpt>
      <trkpt lat="45.87917" lon="6.71287">
        <ele>1185</ele>
        <time>2022-08-26T19:11:05Z</time>
      </trkpt>
      <trkpt lat="45.87913" lon="6.7129">
        <ele>1185</ele>
        <time>2022-08-26T19:11:07Z</time>
      </trkpt>
      <trkpt lat="45.87911" lon="6.71291">
        <ele>1186</ele>
        <time>2022-08-26T19:11:08Z</time>
      </trkpt>
      <trkpt lat="45.87909" lon="6.71292">
        <ele>1186</ele>
        <time>2022-08-26T19:11:09Z</time>
      </trkpt>
      <trkpt lat="45.87907" lon="6.71293">
        <ele>1186</ele>
        <time>2022-08-26T19:11:10Z</time>
      </trkpt>
      <trkpt lat="45.87904" lon="6.71295">
        <ele>1186</ele>
        <time>2022-08-26T19:11:12Z</time>
      </trkpt>
      <trkpt lat="45.87902" lon="6.71298">
        <ele>1187</ele>
        <time>2022-08-26T19:11:14Z</time>
      </trkpt>
      <trkpt lat="45.87899" lon="6.713">
        <ele>1187</ele>
        <time>2022-08-26T19:11:15Z</time>
      </trkpt>
      <trkpt lat="45.87897" lon="6.71302">
        <ele>1187</ele>
        <time>2022-08-26T19:11:17Z</time>
      </trkpt>
      <trkpt lat="45.87895" lon="6.71304">
        <ele>1187</ele>
        <time>2022-08-26T19:11:19Z</time>
      </trkpt>
      <trkpt lat="45.87894" lon="6.71306">
        <ele>1187</ele>
        <time>2022-08-26T19:11:21Z</time>
      </trkpt>
      <trkpt lat="45.87893" lon="6.71307">
        <ele>1187</ele>
        <time>2022-08-26T19:11:22Z</time>
      </trkpt>
      <trkpt lat="45.87891" lon="6.71309">
        <ele>1188</ele>
        <time>2022-08-26T19:11:23Z</time>
      </trkpt>
      <trkpt lat="45.8789" lon="6.7131">
        <ele>1188</ele>
        <time>2022-08-26T19:11:24Z</time>
      </trkpt>
      <trkpt lat="45.87889" lon="6.71312">
        <ele>1188</ele>
        <time>2022-08-26T19:11:25Z</time>
      </trkpt>
      <trkpt lat="45.87878" lon="6.71319">
        <ele>1189</ele>
        <time>2022-08-26T19:11:28Z</time>
      </trkpt>
      <trkpt lat="45.87877" lon="6.7132">
        <ele>1189</ele>
        <time>2022-08-26T19:11:29Z</time>
      </trkpt>
      <trkpt lat="45.87875" lon="6.71322">
        <ele>1189</ele>
        <time>2022-08-26T19:11:30Z</time>
      </trkpt>
      <trkpt lat="45.87873" lon="6.71323">
        <ele>1189</ele>
        <time>2022-08-26T19:11:31Z</time>
      </trkpt>
      <trkpt lat="45.87872" lon="6.71325">
        <ele>1189</ele>
        <time>2022-08-26T19:11:32Z</time>
      </trkpt>
      <trkpt lat="45.8787" lon="6.71326">
        <ele>1189</ele>
        <time>2022-08-26T19:11:33Z</time>
      </trkpt>
      <trkpt lat="45.87866" lon="6.71331">
        <ele>1189</ele>
        <time>2022-08-26T19:11:35Z</time>
      </trkpt>
      <trkpt lat="45.87863" lon="6.71335">
        <ele>1189</ele>
        <time>2022-08-26T19:11:36Z</time>
      </trkpt>
      <trkpt lat="45.87861" lon="6.71337">
        <ele>1189</ele>
        <time>2022-08-26T19:11:37Z</time>
      </trkpt>
      <trkpt lat="45.87859" lon="6.71339">
        <ele>1189</ele>
        <time>2022-08-26T19:11:38Z</time>
      </trkpt>
      <trkpt lat="45.87857" lon="6.71341">
        <ele>1189</ele>
        <time>2022-08-26T19:11:39Z</time>
      </trkpt>
      <trkpt lat="45.87856" lon="6.71344">
        <ele>1189</ele>
        <time>2022-08-26T19:11:40Z</time>
      </trkpt>
      <trkpt lat="45.87853" lon="6.71344">
        <ele>1188</ele>
        <time>2022-08-26T19:11:41Z</time>
      </trkpt>
      <trkpt lat="45.87851" lon="6.71345">
        <ele>1187</ele>
        <time>2022-08-26T19:11:42Z</time>
      </trkpt>
      <trkpt lat="45.87849" lon="6.71345">
        <ele>1187</ele>
        <time>2022-08-26T19:11:43Z</time>
      </trkpt>
      <trkpt lat="45.87847" lon="6.71346">
        <ele>1187</ele>
        <time>2022-08-26T19:11:44Z</time>
      </trkpt>
      <trkpt lat="45.87844" lon="6.71346">
        <ele>1187</ele>
        <time>2022-08-26T19:11:45Z</time>
      </trkpt>
      <trkpt lat="45.87842" lon="6.71349">
        <ele>1188</ele>
        <time>2022-08-26T19:11:46Z</time>
      </trkpt>
      <trkpt lat="45.8784" lon="6.71351">
        <ele>1188</ele>
        <time>2022-08-26T19:11:48Z</time>
      </trkpt>
      <trkpt lat="45.87839" lon="6.71353">
        <ele>1188</ele>
        <time>2022-08-26T19:11:49Z</time>
      </trkpt>
      <trkpt lat="45.87837" lon="6.71356">
        <ele>1188</ele>
        <time>2022-08-26T19:11:50Z</time>
      </trkpt>
      <trkpt lat="45.87834" lon="6.71359">
        <ele>1188</ele>
        <time>2022-08-26T19:11:51Z</time>
      </trkpt>
      <trkpt lat="45.87831" lon="6.71362">
        <ele>1188</ele>
        <time>2022-08-26T19:11:52Z</time>
      </trkpt>
      <trkpt lat="45.87829" lon="6.71365">
        <ele>1188</ele>
        <time>2022-08-26T19:11:53Z</time>
      </trkpt>
      <trkpt lat="45.87827" lon="6.71366">
        <ele>1187</ele>
        <time>2022-08-26T19:11:55Z</time>
      </trkpt>
      <trkpt lat="45.87826" lon="6.71368">
        <ele>1187</ele>
        <time>2022-08-26T19:11:56Z</time>
      </trkpt>
      <trkpt lat="45.87824" lon="6.71369">
        <ele>1187</ele>
        <time>2022-08-26T19:11:57Z</time>
      </trkpt>
      <trkpt lat="45.87823" lon="6.71371">
        <ele>1187</ele>
        <time>2022-08-26T19:11:58Z</time>
      </trkpt>
      <trkpt lat="45.87821" lon="6.71372">
        <ele>1187</ele>
        <time>2022-08-26T19:11:59Z</time>
      </trkpt>
      <trkpt lat="45.87816" lon="6.71383">
        <ele>1186</ele>
        <time>2022-08-26T19:12:03Z</time>
      </trkpt>
      <trkpt lat="45.87814" lon="6.71385">
        <ele>1186</ele>
        <time>2022-08-26T19:12:04Z</time>
      </trkpt>
      <trkpt lat="45.87812" lon="6.71387">
        <ele>1186</ele>
        <time>2022-08-26T19:12:05Z</time>
      </trkpt>
      <trkpt lat="45.8781" lon="6.71388">
        <ele>1186</ele>
        <time>2022-08-26T19:12:06Z</time>
      </trkpt>
      <trkpt lat="45.87808" lon="6.7139">
        <ele>1186</ele>
        <time>2022-08-26T19:12:07Z</time>
      </trkpt>
      <trkpt lat="45.87806" lon="6.71391">
        <ele>1186</ele>
        <time>2022-08-26T19:12:08Z</time>
      </trkpt>
      <trkpt lat="45.87804" lon="6.71393">
        <ele>1186</ele>
        <time>2022-08-26T19:12:09Z</time>
      </trkpt>
      <trkpt lat="45.87802" lon="6.71395">
        <ele>1186</ele>
        <time>2022-08-26T19:12:11Z</time>
      </trkpt>
      <trkpt lat="45.878" lon="6.71397">
        <ele>1186</ele>
        <time>2022-08-26T19:12:12Z</time>
      </trkpt>
      <trkpt lat="45.87797" lon="6.71399">
        <ele>1186</ele>
        <time>2022-08-26T19:12:13Z</time>
      </trkpt>
      <trkpt lat="45.87796" lon="6.714">
        <ele>1186</ele>
        <time>2022-08-26T19:12:14Z</time>
      </trkpt>
      <trkpt lat="45.87795" lon="6.71401">
        <ele>1186</ele>
        <time>2022-08-26T19:12:15Z</time>
      </trkpt>
      <trkpt lat="45.87795" lon="6.71402">
        <ele>1186</ele>
        <time>2022-08-26T19:12:17Z</time>
      </trkpt>
      <trkpt lat="45.87794" lon="6.71403">
        <ele>1186</ele>
        <time>2022-08-26T19:12:18Z</time>
      </trkpt>
      <trkpt lat="45.87793" lon="6.71403">
        <ele>1186</ele>
        <time>2022-08-26T19:12:19Z</time>
      </trkpt>
      <trkpt lat="45.87788" lon="6.71407">
        <ele>1187</ele>
        <time>2022-08-26T19:12:20Z</time>
      </trkpt>
      <trkpt lat="45.87785" lon="6.7142">
        <ele>1187</ele>
        <time>2022-08-26T19:12:27Z</time>
      </trkpt>
      <trkpt lat="45.87784" lon="6.71421">
        <ele>1187</ele>
        <time>2022-08-26T19:12:28Z</time>
      </trkpt>
      <trkpt lat="45.87783" lon="6.71422">
        <ele>1187</ele>
        <time>2022-08-26T19:12:29Z</time>
      </trkpt>
      <trkpt lat="45.87782" lon="6.71423">
        <ele>1187</ele>
        <time>2022-08-26T19:12:30Z</time>
      </trkpt>
      <trkpt lat="45.87781" lon="6.71424">
        <ele>1187</ele>
        <time>2022-08-26T19:12:31Z</time>
      </trkpt>
      <trkpt lat="45.8778" lon="6.71425">
        <ele>1187</ele>
        <time>2022-08-26T19:12:32Z</time>
      </trkpt>
      <trkpt lat="45.87779" lon="6.71427">
        <ele>1188</ele>
        <time>2022-08-26T19:12:34Z</time>
      </trkpt>
      <trkpt lat="45.87777" lon="6.71429">
        <ele>1189</ele>
        <time>2022-08-26T19:12:35Z</time>
      </trkpt>
      <trkpt lat="45.87775" lon="6.71432">
        <ele>1189</ele>
        <time>2022-08-26T19:12:37Z</time>
      </trkpt>
      <trkpt lat="45.87774" lon="6.71434">
        <ele>1189</ele>
        <time>2022-08-26T19:12:39Z</time>
      </trkpt>
      <trkpt lat="45.87774" lon="6.71437">
        <ele>1188</ele>
        <time>2022-08-26T19:12:42Z</time>
      </trkpt>
      <trkpt lat="45.87773" lon="6.71441">
        <ele>1187</ele>
        <time>2022-08-26T19:12:43Z</time>
      </trkpt>
      <trkpt lat="45.87773" lon="6.71444">
        <ele>1186</ele>
        <time>2022-08-26T19:12:45Z</time>
      </trkpt>
      <trkpt lat="45.87773" lon="6.71448">
        <ele>1186</ele>
        <time>2022-08-26T19:12:47Z</time>
      </trkpt>
      <trkpt lat="45.87772" lon="6.71452">
        <ele>1185</ele>
        <time>2022-08-26T19:12:48Z</time>
      </trkpt>
      <trkpt lat="45.87771" lon="6.71455">
        <ele>1185</ele>
        <time>2022-08-26T19:12:49Z</time>
      </trkpt>
      <trkpt lat="45.8777" lon="6.71457">
        <ele>1185</ele>
        <time>2022-08-26T19:12:50Z</time>
      </trkpt>
      <trkpt lat="45.8777" lon="6.71462">
        <ele>1184</ele>
        <time>2022-08-26T19:12:52Z</time>
      </trkpt>
      <trkpt lat="45.87769" lon="6.71465">
        <ele>1184</ele>
        <time>2022-08-26T19:12:53Z</time>
      </trkpt>
      <trkpt lat="45.87769" lon="6.71467">
        <ele>1184</ele>
        <time>2022-08-26T19:12:54Z</time>
      </trkpt>
      <trkpt lat="45.87769" lon="6.71469">
        <ele>1184</ele>
        <time>2022-08-26T19:12:55Z</time>
      </trkpt>
      <trkpt lat="45.87768" lon="6.71471">
        <ele>1184</ele>
        <time>2022-08-26T19:12:56Z</time>
      </trkpt>
      <trkpt lat="45.87768" lon="6.71475">
        <ele>1183</ele>
        <time>2022-08-26T19:12:57Z</time>
      </trkpt>
      <trkpt lat="45.87767" lon="6.71479">
        <ele>1182</ele>
        <time>2022-08-26T19:12:58Z</time>
      </trkpt>
      <trkpt lat="45.87766" lon="6.71482">
        <ele>1181</ele>
        <time>2022-08-26T19:13:00Z</time>
      </trkpt>
      <trkpt lat="45.87765" lon="6.71485">
        <ele>1181</ele>
        <time>2022-08-26T19:13:01Z</time>
      </trkpt>
      <trkpt lat="45.87764" lon="6.71488">
        <ele>1181</ele>
        <time>2022-08-26T19:13:02Z</time>
      </trkpt>
      <trkpt lat="45.87763" lon="6.71491">
        <ele>1181</ele>
        <time>2022-08-26T19:13:03Z</time>
      </trkpt>
      <trkpt lat="45.87762" lon="6.71493">
        <ele>1181</ele>
        <time>2022-08-26T19:13:05Z</time>
      </trkpt>
      <trkpt lat="45.87761" lon="6.71495">
        <ele>1182</ele>
        <time>2022-08-26T19:13:06Z</time>
      </trkpt>
      <trkpt lat="45.8776" lon="6.71498">
        <ele>1182</ele>
        <time>2022-08-26T19:13:07Z</time>
      </trkpt>
      <trkpt lat="45.87758" lon="6.715">
        <ele>1182</ele>
        <time>2022-08-26T19:13:08Z</time>
      </trkpt>
      <trkpt lat="45.87757" lon="6.71502">
        <ele>1181</ele>
        <time>2022-08-26T19:13:09Z</time>
      </trkpt>
      <trkpt lat="45.87754" lon="6.71504">
        <ele>1181</ele>
        <time>2022-08-26T19:13:10Z</time>
      </trkpt>
      <trkpt lat="45.87751" lon="6.71506">
        <ele>1181</ele>
        <time>2022-08-26T19:13:11Z</time>
      </trkpt>
      <trkpt lat="45.87748" lon="6.71508">
        <ele>1182</ele>
        <time>2022-08-26T19:13:12Z</time>
      </trkpt>
      <trkpt lat="45.87745" lon="6.71509">
        <ele>1182</ele>
        <time>2022-08-26T19:13:14Z</time>
      </trkpt>
      <trkpt lat="45.87742" lon="6.71511">
        <ele>1182</ele>
        <time>2022-08-26T19:13:15Z</time>
      </trkpt>
      <trkpt lat="45.87739" lon="6.71513">
        <ele>1182</ele>
        <time>2022-08-26T19:13:16Z</time>
      </trkpt>
      <trkpt lat="45.87737" lon="6.71513">
        <ele>1182</ele>
        <time>2022-08-26T19:13:17Z</time>
      </trkpt>
      <trkpt lat="45.87735" lon="6.71514">
        <ele>1183</ele>
        <time>2022-08-26T19:13:18Z</time>
      </trkpt>
      <trkpt lat="45.87732" lon="6.71515">
        <ele>1183</ele>
        <time>2022-08-26T19:13:19Z</time>
      </trkpt>
      <trkpt lat="45.8773" lon="6.71516">
        <ele>1183</ele>
        <time>2022-08-26T19:13:20Z</time>
      </trkpt>
      <trkpt lat="45.8772" lon="6.71519">
        <ele>1183</ele>
        <time>2022-08-26T19:13:24Z</time>
      </trkpt>
      <trkpt lat="45.87718" lon="6.71519">
        <ele>1184</ele>
        <time>2022-08-26T19:13:25Z</time>
      </trkpt>
      <trkpt lat="45.87716" lon="6.71519">
        <ele>1184</ele>
        <time>2022-08-26T19:13:26Z</time>
      </trkpt>
      <trkpt lat="45.87713" lon="6.71519">
        <ele>1184</ele>
        <time>2022-08-26T19:13:27Z</time>
      </trkpt>
      <trkpt lat="45.87711" lon="6.71519">
        <ele>1184</ele>
        <time>2022-08-26T19:13:28Z</time>
      </trkpt>
      <trkpt lat="45.87709" lon="6.71519">
        <ele>1184</ele>
        <time>2022-08-26T19:13:29Z</time>
      </trkpt>
      <trkpt lat="45.87704" lon="6.7152">
        <ele>1184</ele>
        <time>2022-08-26T19:13:30Z</time>
      </trkpt>
      <trkpt lat="45.877" lon="6.71521">
        <ele>1184</ele>
        <time>2022-08-26T19:13:31Z</time>
      </trkpt>
      <trkpt lat="45.8769" lon="6.71524">
        <ele>1184</ele>
        <time>2022-08-26T19:13:34Z</time>
      </trkpt>
      <trkpt lat="45.87678" lon="6.71524">
        <ele>1184</ele>
        <time>2022-08-26T19:13:39Z</time>
      </trkpt>
      <trkpt lat="45.87675" lon="6.71524">
        <ele>1184</ele>
        <time>2022-08-26T19:13:41Z</time>
      </trkpt>
      <trkpt lat="45.87672" lon="6.71525">
        <ele>1184</ele>
        <time>2022-08-26T19:13:42Z</time>
      </trkpt>
      <trkpt lat="45.87669" lon="6.71526">
        <ele>1184</ele>
        <time>2022-08-26T19:13:43Z</time>
      </trkpt>
      <trkpt lat="45.87666" lon="6.71525">
        <ele>1184</ele>
        <time>2022-08-26T19:13:44Z</time>
      </trkpt>
      <trkpt lat="45.87664" lon="6.71525">
        <ele>1184</ele>
        <time>2022-08-26T19:13:46Z</time>
      </trkpt>
      <trkpt lat="45.87661" lon="6.71525">
        <ele>1184</ele>
        <time>2022-08-26T19:13:47Z</time>
      </trkpt>
      <trkpt lat="45.87659" lon="6.71525">
        <ele>1184</ele>
        <time>2022-08-26T19:13:48Z</time>
      </trkpt>
      <trkpt lat="45.87655" lon="6.71525">
        <ele>1185</ele>
        <time>2022-08-26T19:13:49Z</time>
      </trkpt>
      <trkpt lat="45.87652" lon="6.71526">
        <ele>1185</ele>
        <time>2022-08-26T19:13:50Z</time>
      </trkpt>
      <trkpt lat="45.87648" lon="6.71527">
        <ele>1185</ele>
        <time>2022-08-26T19:13:51Z</time>
      </trkpt>
      <trkpt lat="45.87639" lon="6.71526">
        <ele>1185</ele>
        <time>2022-08-26T19:13:55Z</time>
      </trkpt>
      <trkpt lat="45.87637" lon="6.71526">
        <ele>1185</ele>
        <time>2022-08-26T19:13:56Z</time>
      </trkpt>
      <trkpt lat="45.87635" lon="6.71526">
        <ele>1185</ele>
        <time>2022-08-26T19:13:57Z</time>
      </trkpt>
      <trkpt lat="45.87634" lon="6.71526">
        <ele>1185</ele>
        <time>2022-08-26T19:13:58Z</time>
      </trkpt>
      <trkpt lat="45.87632" lon="6.71526">
        <ele>1185</ele>
        <time>2022-08-26T19:13:59Z</time>
      </trkpt>
      <trkpt lat="45.8763" lon="6.71526">
        <ele>1185</ele>
        <time>2022-08-26T19:14:00Z</time>
      </trkpt>
      <trkpt lat="45.87621" lon="6.71522">
        <ele>1185</ele>
        <time>2022-08-26T19:14:05Z</time>
      </trkpt>
      <trkpt lat="45.87618" lon="6.71521">
        <ele>1185</ele>
        <time>2022-08-26T19:14:08Z</time>
      </trkpt>
      <trkpt lat="45.87615" lon="6.71519">
        <ele>1185</ele>
        <time>2022-08-26T19:14:10Z</time>
      </trkpt>
      <trkpt lat="45.87612" lon="6.71518">
        <ele>1185</ele>
        <time>2022-08-26T19:14:11Z</time>
      </trkpt>
      <trkpt lat="45.87611" lon="6.71518">
        <ele>1186</ele>
        <time>2022-08-26T19:14:12Z</time>
      </trkpt>
      <trkpt lat="45.87609" lon="6.71517">
        <ele>1186</ele>
        <time>2022-08-26T19:14:13Z</time>
      </trkpt>
      <trkpt lat="45.87606" lon="6.71517">
        <ele>1186</ele>
        <time>2022-08-26T19:14:14Z</time>
      </trkpt>
      <trkpt lat="45.87605" lon="6.71517">
        <ele>1187</ele>
        <time>2022-08-26T19:14:15Z</time>
      </trkpt>
      <trkpt lat="45.87602" lon="6.71515">
        <ele>1187</ele>
        <time>2022-08-26T19:14:17Z</time>
      </trkpt>
      <trkpt lat="45.876" lon="6.71513">
        <ele>1187</ele>
        <time>2022-08-26T19:14:20Z</time>
      </trkpt>
      <trkpt lat="45.87598" lon="6.71511">
        <ele>1188</ele>
        <time>2022-08-26T19:14:22Z</time>
      </trkpt>
      <trkpt lat="45.87595" lon="6.7151">
        <ele>1189</ele>
        <time>2022-08-26T19:14:24Z</time>
      </trkpt>
      <trkpt lat="45.87593" lon="6.7151">
        <ele>1189</ele>
        <time>2022-08-26T19:14:26Z</time>
      </trkpt>
      <trkpt lat="45.87591" lon="6.71509">
        <ele>1190</ele>
        <time>2022-08-26T19:14:28Z</time>
      </trkpt>
      <trkpt lat="45.87589" lon="6.71509">
        <ele>1190</ele>
        <time>2022-08-26T19:14:30Z</time>
      </trkpt>
      <trkpt lat="45.87585" lon="6.71508">
        <ele>1191</ele>
        <time>2022-08-26T19:14:32Z</time>
      </trkpt>
      <trkpt lat="45.87584" lon="6.71508">
        <ele>1191</ele>
        <time>2022-08-26T19:14:33Z</time>
      </trkpt>
      <trkpt lat="45.87581" lon="6.71508">
        <ele>1191</ele>
        <time>2022-08-26T19:14:34Z</time>
      </trkpt>
      <trkpt lat="45.87579" lon="6.71507">
        <ele>1192</ele>
        <time>2022-08-26T19:14:35Z</time>
      </trkpt>
      <trkpt lat="45.87577" lon="6.71505">
        <ele>1192</ele>
        <time>2022-08-26T19:14:37Z</time>
      </trkpt>
      <trkpt lat="45.87577" lon="6.71505">
        <ele>1193</ele>
        <time>2022-08-26T19:14:39Z</time>
      </trkpt>
      <trkpt lat="45.87576" lon="6.71504">
        <ele>1193</ele>
        <time>2022-08-26T19:14:40Z</time>
      </trkpt>
      <trkpt lat="45.87575" lon="6.71504">
        <ele>1193</ele>
        <time>2022-08-26T19:14:41Z</time>
      </trkpt>
      <trkpt lat="45.87574" lon="6.71504">
        <ele>1194</ele>
        <time>2022-08-26T19:14:43Z</time>
      </trkpt>
      <trkpt lat="45.87574" lon="6.71504">
        <ele>1194</ele>
        <time>2022-08-26T19:14:44Z</time>
      </trkpt>
      <trkpt lat="45.87573" lon="6.71504">
        <ele>1194</ele>
        <time>2022-08-26T19:14:45Z</time>
      </trkpt>
      <trkpt lat="45.87572" lon="6.71503">
        <ele>1194</ele>
        <time>2022-08-26T19:14:46Z</time>
      </trkpt>
      <trkpt lat="45.87572" lon="6.71503">
        <ele>1194</ele>
        <time>2022-08-26T19:14:48Z</time>
      </trkpt>
      <trkpt lat="45.87571" lon="6.71503">
        <ele>1194</ele>
        <time>2022-08-26T19:14:50Z</time>
      </trkpt>
      <trkpt lat="45.8757" lon="6.71503">
        <ele>1194</ele>
        <time>2022-08-26T19:14:51Z</time>
      </trkpt>
      <trkpt lat="45.8757" lon="6.71503">
        <ele>1194</ele>
        <time>2022-08-26T19:14:52Z</time>
      </trkpt>
      <trkpt lat="45.87569" lon="6.71503">
        <ele>1194</ele>
        <time>2022-08-26T19:14:54Z</time>
      </trkpt>
      <trkpt lat="45.87568" lon="6.71502">
        <ele>1194</ele>
        <time>2022-08-26T19:14:55Z</time>
      </trkpt>
      <trkpt lat="45.87567" lon="6.71503">
        <ele>1195</ele>
        <time>2022-08-26T19:14:56Z</time>
      </trkpt>
      <trkpt lat="45.87565" lon="6.71504">
        <ele>1195</ele>
        <time>2022-08-26T19:14:57Z</time>
      </trkpt>
      <trkpt lat="45.87564" lon="6.71505">
        <ele>1195</ele>
        <time>2022-08-26T19:14:58Z</time>
      </trkpt>
      <trkpt lat="45.87563" lon="6.71507">
        <ele>1195</ele>
        <time>2022-08-26T19:14:59Z</time>
      </trkpt>
      <trkpt lat="45.87561" lon="6.71508">
        <ele>1195</ele>
        <time>2022-08-26T19:15:01Z</time>
      </trkpt>
      <trkpt lat="45.8756" lon="6.71509">
        <ele>1196</ele>
        <time>2022-08-26T19:15:02Z</time>
      </trkpt>
      <trkpt lat="45.87558" lon="6.7151">
        <ele>1196</ele>
        <time>2022-08-26T19:15:03Z</time>
      </trkpt>
      <trkpt lat="45.87556" lon="6.71511">
        <ele>1196</ele>
        <time>2022-08-26T19:15:04Z</time>
      </trkpt>
      <trkpt lat="45.87555" lon="6.71513">
        <ele>1196</ele>
        <time>2022-08-26T19:15:05Z</time>
      </trkpt>
      <trkpt lat="45.87553" lon="6.71514">
        <ele>1196</ele>
        <time>2022-08-26T19:15:06Z</time>
      </trkpt>
      <trkpt lat="45.87551" lon="6.71516">
        <ele>1197</ele>
        <time>2022-08-26T19:15:07Z</time>
      </trkpt>
      <trkpt lat="45.87547" lon="6.71518">
        <ele>1197</ele>
        <time>2022-08-26T19:15:09Z</time>
      </trkpt>
      <trkpt lat="45.87543" lon="6.7152">
        <ele>1197</ele>
        <time>2022-08-26T19:15:10Z</time>
      </trkpt>
      <trkpt lat="45.87541" lon="6.71522">
        <ele>1197</ele>
        <time>2022-08-26T19:15:11Z</time>
      </trkpt>
      <trkpt lat="45.8754" lon="6.71524">
        <ele>1197</ele>
        <time>2022-08-26T19:15:12Z</time>
      </trkpt>
      <trkpt lat="45.87539" lon="6.71526">
        <ele>1197</ele>
        <time>2022-08-26T19:15:14Z</time>
      </trkpt>
      <trkpt lat="45.87537" lon="6.71528">
        <ele>1198</ele>
        <time>2022-08-26T19:15:15Z</time>
      </trkpt>
      <trkpt lat="45.87536" lon="6.7153">
        <ele>1198</ele>
        <time>2022-08-26T19:15:16Z</time>
      </trkpt>
      <trkpt lat="45.87525" lon="6.71532">
        <ele>1199</ele>
        <time>2022-08-26T19:15:21Z</time>
      </trkpt>
      <trkpt lat="45.87524" lon="6.71533">
        <ele>1199</ele>
        <time>2022-08-26T19:15:22Z</time>
      </trkpt>
      <trkpt lat="45.87523" lon="6.71534">
        <ele>1199</ele>
        <time>2022-08-26T19:15:23Z</time>
      </trkpt>
      <trkpt lat="45.87521" lon="6.71535">
        <ele>1199</ele>
        <time>2022-08-26T19:15:24Z</time>
      </trkpt>
      <trkpt lat="45.8752" lon="6.71536">
        <ele>1199</ele>
        <time>2022-08-26T19:15:25Z</time>
      </trkpt>
      <trkpt lat="45.87517" lon="6.71541">
        <ele>1199</ele>
        <time>2022-08-26T19:15:27Z</time>
      </trkpt>
      <trkpt lat="45.87514" lon="6.71543">
        <ele>1200</ele>
        <time>2022-08-26T19:15:29Z</time>
      </trkpt>
      <trkpt lat="45.87512" lon="6.71545">
        <ele>1200</ele>
        <time>2022-08-26T19:15:30Z</time>
      </trkpt>
      <trkpt lat="45.87511" lon="6.71546">
        <ele>1200</ele>
        <time>2022-08-26T19:15:32Z</time>
      </trkpt>
      <trkpt lat="45.87509" lon="6.71547">
        <ele>1200</ele>
        <time>2022-08-26T19:15:33Z</time>
      </trkpt>
      <trkpt lat="45.87507" lon="6.7155">
        <ele>1200</ele>
        <time>2022-08-26T19:15:35Z</time>
      </trkpt>
      <trkpt lat="45.87505" lon="6.71553">
        <ele>1200</ele>
        <time>2022-08-26T19:15:37Z</time>
      </trkpt>
      <trkpt lat="45.87503" lon="6.71557">
        <ele>1201</ele>
        <time>2022-08-26T19:15:39Z</time>
      </trkpt>
      <trkpt lat="45.87502" lon="6.71559">
        <ele>1201</ele>
        <time>2022-08-26T19:15:40Z</time>
      </trkpt>
      <trkpt lat="45.87501" lon="6.71561">
        <ele>1201</ele>
        <time>2022-08-26T19:15:41Z</time>
      </trkpt>
      <trkpt lat="45.87501" lon="6.71564">
        <ele>1201</ele>
        <time>2022-08-26T19:15:42Z</time>
      </trkpt>
      <trkpt lat="45.87501" lon="6.71567">
        <ele>1201</ele>
        <time>2022-08-26T19:15:43Z</time>
      </trkpt>
      <trkpt lat="45.875" lon="6.71569">
        <ele>1201</ele>
        <time>2022-08-26T19:15:44Z</time>
      </trkpt>
      <trkpt lat="45.875" lon="6.7157">
        <ele>1201</ele>
        <time>2022-08-26T19:15:45Z</time>
      </trkpt>
      <trkpt lat="45.87499" lon="6.71572">
        <ele>1201</ele>
        <time>2022-08-26T19:15:47Z</time>
      </trkpt>
      <trkpt lat="45.87498" lon="6.71574">
        <ele>1201</ele>
        <time>2022-08-26T19:15:48Z</time>
      </trkpt>
      <trkpt lat="45.87495" lon="6.71584">
        <ele>1201</ele>
        <time>2022-08-26T19:15:49Z</time>
      </trkpt>
      <trkpt lat="45.87494" lon="6.71587">
        <ele>1201</ele>
        <time>2022-08-26T19:15:51Z</time>
      </trkpt>
      <trkpt lat="45.87493" lon="6.7159">
        <ele>1201</ele>
        <time>2022-08-26T19:15:52Z</time>
      </trkpt>
      <trkpt lat="45.87491" lon="6.71593">
        <ele>1201</ele>
        <time>2022-08-26T19:15:53Z</time>
      </trkpt>
      <trkpt lat="45.8749" lon="6.71597">
        <ele>1201</ele>
        <time>2022-08-26T19:15:54Z</time>
      </trkpt>
      <trkpt lat="45.87489" lon="6.71598">
        <ele>1201</ele>
        <time>2022-08-26T19:15:55Z</time>
      </trkpt>
      <trkpt lat="45.87488" lon="6.71602">
        <ele>1201</ele>
        <time>2022-08-26T19:15:57Z</time>
      </trkpt>
      <trkpt lat="45.87487" lon="6.71606">
        <ele>1201</ele>
        <time>2022-08-26T19:15:59Z</time>
      </trkpt>
      <trkpt lat="45.87485" lon="6.71609">
        <ele>1202</ele>
        <time>2022-08-26T19:16:01Z</time>
      </trkpt>
      <trkpt lat="45.87484" lon="6.71612">
        <ele>1202</ele>
        <time>2022-08-26T19:16:03Z</time>
      </trkpt>
      <trkpt lat="45.87482" lon="6.71613">
        <ele>1202</ele>
        <time>2022-08-26T19:16:05Z</time>
      </trkpt>
      <trkpt lat="45.8748" lon="6.71615">
        <ele>1204</ele>
        <time>2022-08-26T19:16:07Z</time>
      </trkpt>
      <trkpt lat="45.87477" lon="6.71616">
        <ele>1204</ele>
        <time>2022-08-26T19:16:08Z</time>
      </trkpt>
      <trkpt lat="45.87475" lon="6.71618">
        <ele>1204</ele>
        <time>2022-08-26T19:16:10Z</time>
      </trkpt>
      <trkpt lat="45.87473" lon="6.71619">
        <ele>1204</ele>
        <time>2022-08-26T19:16:11Z</time>
      </trkpt>
      <trkpt lat="45.87471" lon="6.7162">
        <ele>1205</ele>
        <time>2022-08-26T19:16:12Z</time>
      </trkpt>
      <trkpt lat="45.8747" lon="6.71621">
        <ele>1205</ele>
        <time>2022-08-26T19:16:13Z</time>
      </trkpt>
      <trkpt lat="45.87468" lon="6.71622">
        <ele>1206</ele>
        <time>2022-08-26T19:16:15Z</time>
      </trkpt>
      <trkpt lat="45.87466" lon="6.71623">
        <ele>1206</ele>
        <time>2022-08-26T19:16:16Z</time>
      </trkpt>
      <trkpt lat="45.87465" lon="6.71624">
        <ele>1206</ele>
        <time>2022-08-26T19:16:17Z</time>
      </trkpt>
      <trkpt lat="45.87463" lon="6.71625">
        <ele>1206</ele>
        <time>2022-08-26T19:16:18Z</time>
      </trkpt>
      <trkpt lat="45.87461" lon="6.71627">
        <ele>1206</ele>
        <time>2022-08-26T19:16:19Z</time>
      </trkpt>
      <trkpt lat="45.87459" lon="6.71628">
        <ele>1206</ele>
        <time>2022-08-26T19:16:21Z</time>
      </trkpt>
      <trkpt lat="45.87457" lon="6.71629">
        <ele>1206</ele>
        <time>2022-08-26T19:16:22Z</time>
      </trkpt>
      <trkpt lat="45.87456" lon="6.7163">
        <ele>1207</ele>
        <time>2022-08-26T19:16:23Z</time>
      </trkpt>
      <trkpt lat="45.87454" lon="6.71631">
        <ele>1207</ele>
        <time>2022-08-26T19:16:25Z</time>
      </trkpt>
      <trkpt lat="45.87453" lon="6.71633">
        <ele>1207</ele>
        <time>2022-08-26T19:16:26Z</time>
      </trkpt>
      <trkpt lat="45.87451" lon="6.71634">
        <ele>1207</ele>
        <time>2022-08-26T19:16:27Z</time>
      </trkpt>
      <trkpt lat="45.87449" lon="6.71635">
        <ele>1207</ele>
        <time>2022-08-26T19:16:28Z</time>
      </trkpt>
      <trkpt lat="45.87448" lon="6.71637">
        <ele>1207</ele>
        <time>2022-08-26T19:16:29Z</time>
      </trkpt>
      <trkpt lat="45.8744" lon="6.71645">
        <ele>1209</ele>
        <time>2022-08-26T19:16:36Z</time>
      </trkpt>
      <trkpt lat="45.87438" lon="6.71646">
        <ele>1209</ele>
        <time>2022-08-26T19:16:37Z</time>
      </trkpt>
      <trkpt lat="45.87437" lon="6.71647">
        <ele>1209</ele>
        <time>2022-08-26T19:16:38Z</time>
      </trkpt>
      <trkpt lat="45.87435" lon="6.71648">
        <ele>1210</ele>
        <time>2022-08-26T19:16:39Z</time>
      </trkpt>
      <trkpt lat="45.87433" lon="6.71649">
        <ele>1210</ele>
        <time>2022-08-26T19:16:41Z</time>
      </trkpt>
      <trkpt lat="45.87431" lon="6.71651">
        <ele>1210</ele>
        <time>2022-08-26T19:16:42Z</time>
      </trkpt>
      <trkpt lat="45.8743" lon="6.71652">
        <ele>1210</ele>
        <time>2022-08-26T19:16:43Z</time>
      </trkpt>
      <trkpt lat="45.87421" lon="6.71658">
        <ele>1210</ele>
        <time>2022-08-26T19:16:46Z</time>
      </trkpt>
      <trkpt lat="45.8742" lon="6.71659">
        <ele>1210</ele>
        <time>2022-08-26T19:16:47Z</time>
      </trkpt>
      <trkpt lat="45.87418" lon="6.7166">
        <ele>1210</ele>
        <time>2022-08-26T19:16:48Z</time>
      </trkpt>
      <trkpt lat="45.87416" lon="6.71661">
        <ele>1210</ele>
        <time>2022-08-26T19:16:49Z</time>
      </trkpt>
      <trkpt lat="45.87414" lon="6.71662">
        <ele>1210</ele>
        <time>2022-08-26T19:16:50Z</time>
      </trkpt>
      <trkpt lat="45.87412" lon="6.71663">
        <ele>1210</ele>
        <time>2022-08-26T19:16:51Z</time>
      </trkpt>
      <trkpt lat="45.87409" lon="6.71664">
        <ele>1210</ele>
        <time>2022-08-26T19:16:52Z</time>
      </trkpt>
      <trkpt lat="45.87407" lon="6.71665">
        <ele>1210</ele>
        <time>2022-08-26T19:16:53Z</time>
      </trkpt>
      <trkpt lat="45.87404" lon="6.71666">
        <ele>1210</ele>
        <time>2022-08-26T19:16:54Z</time>
      </trkpt>
      <trkpt lat="45.87401" lon="6.71667">
        <ele>1210</ele>
        <time>2022-08-26T19:16:55Z</time>
      </trkpt>
      <trkpt lat="45.87397" lon="6.7167">
        <ele>1210</ele>
        <time>2022-08-26T19:16:57Z</time>
      </trkpt>
      <trkpt lat="45.87393" lon="6.71673">
        <ele>1210</ele>
        <time>2022-08-26T19:16:58Z</time>
      </trkpt>
      <trkpt lat="45.87391" lon="6.71675">
        <ele>1210</ele>
        <time>2022-08-26T19:16:59Z</time>
      </trkpt>
      <trkpt lat="45.87389" lon="6.71676">
        <ele>1210</ele>
        <time>2022-08-26T19:17:00Z</time>
      </trkpt>
      <trkpt lat="45.87386" lon="6.71678">
        <ele>1210</ele>
        <time>2022-08-26T19:17:02Z</time>
      </trkpt>
      <trkpt lat="45.87384" lon="6.71679">
        <ele>1210</ele>
        <time>2022-08-26T19:17:03Z</time>
      </trkpt>
      <trkpt lat="45.87378" lon="6.71689">
        <ele>1211</ele>
        <time>2022-08-26T19:17:07Z</time>
      </trkpt>
      <trkpt lat="45.87377" lon="6.71691">
        <ele>1211</ele>
        <time>2022-08-26T19:17:08Z</time>
      </trkpt>
      <trkpt lat="45.87377" lon="6.71693">
        <ele>1211</ele>
        <time>2022-08-26T19:17:09Z</time>
      </trkpt>
      <trkpt lat="45.87376" lon="6.71695">
        <ele>1211</ele>
        <time>2022-08-26T19:17:10Z</time>
      </trkpt>
      <trkpt lat="45.87375" lon="6.71697">
        <ele>1211</ele>
        <time>2022-08-26T19:17:12Z</time>
      </trkpt>
      <trkpt lat="45.87374" lon="6.71699">
        <ele>1211</ele>
        <time>2022-08-26T19:17:14Z</time>
      </trkpt>
      <trkpt lat="45.87373" lon="6.71702">
        <ele>1211</ele>
        <time>2022-08-26T19:17:15Z</time>
      </trkpt>
      <trkpt lat="45.87372" lon="6.71702">
        <ele>1212</ele>
        <time>2022-08-26T19:17:16Z</time>
      </trkpt>
      <trkpt lat="45.87371" lon="6.71703">
        <ele>1212</ele>
        <time>2022-08-26T19:17:17Z</time>
      </trkpt>
      <trkpt lat="45.8737" lon="6.71704">
        <ele>1212</ele>
        <time>2022-08-26T19:17:19Z</time>
      </trkpt>
      <trkpt lat="45.87369" lon="6.71704">
        <ele>1213</ele>
        <time>2022-08-26T19:17:20Z</time>
      </trkpt>
      <trkpt lat="45.87369" lon="6.71705">
        <ele>1213</ele>
        <time>2022-08-26T19:17:22Z</time>
      </trkpt>
      <trkpt lat="45.87368" lon="6.71706">
        <ele>1213</ele>
        <time>2022-08-26T19:17:23Z</time>
      </trkpt>
      <trkpt lat="45.87367" lon="6.71706">
        <ele>1213</ele>
        <time>2022-08-26T19:17:24Z</time>
      </trkpt>
      <trkpt lat="45.87366" lon="6.71707">
        <ele>1213</ele>
        <time>2022-08-26T19:17:25Z</time>
      </trkpt>
      <trkpt lat="45.87365" lon="6.71708">
        <ele>1213</ele>
        <time>2022-08-26T19:17:26Z</time>
      </trkpt>
      <trkpt lat="45.87358" lon="6.71718">
        <ele>1215</ele>
        <time>2022-08-26T19:17:34Z</time>
      </trkpt>
      <trkpt lat="45.87357" lon="6.71719">
        <ele>1215</ele>
        <time>2022-08-26T19:17:35Z</time>
      </trkpt>
      <trkpt lat="45.87356" lon="6.71721">
        <ele>1215</ele>
        <time>2022-08-26T19:17:36Z</time>
      </trkpt>
      <trkpt lat="45.87355" lon="6.71723">
        <ele>1215</ele>
        <time>2022-08-26T19:17:37Z</time>
      </trkpt>
      <trkpt lat="45.87353" lon="6.71724">
        <ele>1215</ele>
        <time>2022-08-26T19:17:39Z</time>
      </trkpt>
      <trkpt lat="45.87352" lon="6.71726">
        <ele>1215</ele>
        <time>2022-08-26T19:17:41Z</time>
      </trkpt>
      <trkpt lat="45.87351" lon="6.71727">
        <ele>1216</ele>
        <time>2022-08-26T19:17:42Z</time>
      </trkpt>
      <trkpt lat="45.8735" lon="6.71729">
        <ele>1216</ele>
        <time>2022-08-26T19:17:43Z</time>
      </trkpt>
      <trkpt lat="45.87349" lon="6.7173">
        <ele>1217</ele>
        <time>2022-08-26T19:17:45Z</time>
      </trkpt>
      <trkpt lat="45.87348" lon="6.71731">
        <ele>1217</ele>
        <time>2022-08-26T19:17:46Z</time>
      </trkpt>
      <trkpt lat="45.87347" lon="6.71733">
        <ele>1217</ele>
        <time>2022-08-26T19:17:47Z</time>
      </trkpt>
      <trkpt lat="45.87346" lon="6.71734">
        <ele>1217</ele>
        <time>2022-08-26T19:17:48Z</time>
      </trkpt>
      <trkpt lat="45.87345" lon="6.71735">
        <ele>1217</ele>
        <time>2022-08-26T19:17:49Z</time>
      </trkpt>
      <trkpt lat="45.87344" lon="6.71736">
        <ele>1218</ele>
        <time>2022-08-26T19:17:50Z</time>
      </trkpt>
      <trkpt lat="45.87342" lon="6.71739">
        <ele>1218</ele>
        <time>2022-08-26T19:17:52Z</time>
      </trkpt>
      <trkpt lat="45.8734" lon="6.71741">
        <ele>1219</ele>
        <time>2022-08-26T19:17:53Z</time>
      </trkpt>
      <trkpt lat="45.87338" lon="6.71743">
        <ele>1219</ele>
        <time>2022-08-26T19:17:54Z</time>
      </trkpt>
      <trkpt lat="45.87336" lon="6.71745">
        <ele>1219</ele>
        <time>2022-08-26T19:17:55Z</time>
      </trkpt>
      <trkpt lat="45.87335" lon="6.71747">
        <ele>1219</ele>
        <time>2022-08-26T19:17:57Z</time>
      </trkpt>
      <trkpt lat="45.87334" lon="6.71748">
        <ele>1220</ele>
        <time>2022-08-26T19:17:58Z</time>
      </trkpt>
      <trkpt lat="45.87332" lon="6.71749">
        <ele>1220</ele>
        <time>2022-08-26T19:18:00Z</time>
      </trkpt>
      <trkpt lat="45.87331" lon="6.7175">
        <ele>1220</ele>
        <time>2022-08-26T19:18:01Z</time>
      </trkpt>
      <trkpt lat="45.87329" lon="6.71752">
        <ele>1220</ele>
        <time>2022-08-26T19:18:02Z</time>
      </trkpt>
      <trkpt lat="45.87328" lon="6.71753">
        <ele>1221</ele>
        <time>2022-08-26T19:18:03Z</time>
      </trkpt>
      <trkpt lat="45.87327" lon="6.71754">
        <ele>1221</ele>
        <time>2022-08-26T19:18:04Z</time>
      </trkpt>
      <trkpt lat="45.87325" lon="6.71756">
        <ele>1221</ele>
        <time>2022-08-26T19:18:05Z</time>
      </trkpt>
      <trkpt lat="45.87324" lon="6.71757">
        <ele>1221</ele>
        <time>2022-08-26T19:18:06Z</time>
      </trkpt>
      <trkpt lat="45.87323" lon="6.71759">
        <ele>1222</ele>
        <time>2022-08-26T19:18:08Z</time>
      </trkpt>
      <trkpt lat="45.87321" lon="6.7176">
        <ele>1222</ele>
        <time>2022-08-26T19:18:09Z</time>
      </trkpt>
      <trkpt lat="45.8732" lon="6.71761">
        <ele>1223</ele>
        <time>2022-08-26T19:18:10Z</time>
      </trkpt>
      <trkpt lat="45.87319" lon="6.71763">
        <ele>1223</ele>
        <time>2022-08-26T19:18:11Z</time>
      </trkpt>
      <trkpt lat="45.87317" lon="6.71765">
        <ele>1223</ele>
        <time>2022-08-26T19:18:12Z</time>
      </trkpt>
      <trkpt lat="45.87316" lon="6.71766">
        <ele>1223</ele>
        <time>2022-08-26T19:18:13Z</time>
      </trkpt>
      <trkpt lat="45.87315" lon="6.71768">
        <ele>1224</ele>
        <time>2022-08-26T19:18:15Z</time>
      </trkpt>
      <trkpt lat="45.87314" lon="6.7177">
        <ele>1224</ele>
        <time>2022-08-26T19:18:16Z</time>
      </trkpt>
      <trkpt lat="45.87312" lon="6.71774">
        <ele>1225</ele>
        <time>2022-08-26T19:18:19Z</time>
      </trkpt>
      <trkpt lat="45.87311" lon="6.71776">
        <ele>1225</ele>
        <time>2022-08-26T19:18:21Z</time>
      </trkpt>
      <trkpt lat="45.8731" lon="6.71778">
        <ele>1226</ele>
        <time>2022-08-26T19:18:23Z</time>
      </trkpt>
      <trkpt lat="45.8731" lon="6.7178">
        <ele>1226</ele>
        <time>2022-08-26T19:18:24Z</time>
      </trkpt>
      <trkpt lat="45.87309" lon="6.71782">
        <ele>1226</ele>
        <time>2022-08-26T19:18:25Z</time>
      </trkpt>
      <trkpt lat="45.87309" lon="6.71784">
        <ele>1227</ele>
        <time>2022-08-26T19:18:26Z</time>
      </trkpt>
      <trkpt lat="45.87308" lon="6.71786">
        <ele>1227</ele>
        <time>2022-08-26T19:18:28Z</time>
      </trkpt>
      <trkpt lat="45.87308" lon="6.71788">
        <ele>1227</ele>
        <time>2022-08-26T19:18:29Z</time>
      </trkpt>
      <trkpt lat="45.87308" lon="6.7179">
        <ele>1228</ele>
        <time>2022-08-26T19:18:30Z</time>
      </trkpt>
      <trkpt lat="45.87305" lon="6.71804">
        <ele>1230</ele>
        <time>2022-08-26T19:18:38Z</time>
      </trkpt>
      <trkpt lat="45.87305" lon="6.71805">
        <ele>1230</ele>
        <time>2022-08-26T19:18:40Z</time>
      </trkpt>
      <trkpt lat="45.87304" lon="6.71807">
        <ele>1230</ele>
        <time>2022-08-26T19:18:41Z</time>
      </trkpt>
      <trkpt lat="45.87303" lon="6.71809">
        <ele>1230</ele>
        <time>2022-08-26T19:18:42Z</time>
      </trkpt>
      <trkpt lat="45.87302" lon="6.7181">
        <ele>1230</ele>
        <time>2022-08-26T19:18:43Z</time>
      </trkpt>
      <trkpt lat="45.87301" lon="6.71812">
        <ele>1231</ele>
        <time>2022-08-26T19:18:45Z</time>
      </trkpt>
      <trkpt lat="45.87301" lon="6.71813">
        <ele>1231</ele>
        <time>2022-08-26T19:18:46Z</time>
      </trkpt>
      <trkpt lat="45.873" lon="6.71815">
        <ele>1231</ele>
        <time>2022-08-26T19:18:47Z</time>
      </trkpt>
      <trkpt lat="45.87299" lon="6.71816">
        <ele>1231</ele>
        <time>2022-08-26T19:18:48Z</time>
      </trkpt>
      <trkpt lat="45.87298" lon="6.71817">
        <ele>1232</ele>
        <time>2022-08-26T19:18:49Z</time>
      </trkpt>
      <trkpt lat="45.87297" lon="6.71818">
        <ele>1232</ele>
        <time>2022-08-26T19:18:50Z</time>
      </trkpt>
      <trkpt lat="45.87296" lon="6.7182">
        <ele>1232</ele>
        <time>2022-08-26T19:18:51Z</time>
      </trkpt>
      <trkpt lat="45.87295" lon="6.71821">
        <ele>1232</ele>
        <time>2022-08-26T19:18:52Z</time>
      </trkpt>
      <trkpt lat="45.87294" lon="6.71822">
        <ele>1232</ele>
        <time>2022-08-26T19:18:53Z</time>
      </trkpt>
      <trkpt lat="45.87293" lon="6.71823">
        <ele>1233</ele>
        <time>2022-08-26T19:18:54Z</time>
      </trkpt>
      <trkpt lat="45.87292" lon="6.71825">
        <ele>1233</ele>
        <time>2022-08-26T19:18:55Z</time>
      </trkpt>
      <trkpt lat="45.8729" lon="6.71826">
        <ele>1233</ele>
        <time>2022-08-26T19:18:57Z</time>
      </trkpt>
      <trkpt lat="45.87289" lon="6.71827">
        <ele>1233</ele>
        <time>2022-08-26T19:18:58Z</time>
      </trkpt>
      <trkpt lat="45.87288" lon="6.71828">
        <ele>1234</ele>
        <time>2022-08-26T19:18:59Z</time>
      </trkpt>
      <trkpt lat="45.87287" lon="6.7183">
        <ele>1234</ele>
        <time>2022-08-26T19:19:00Z</time>
      </trkpt>
      <trkpt lat="45.87286" lon="6.71831">
        <ele>1234</ele>
        <time>2022-08-26T19:19:01Z</time>
      </trkpt>
      <trkpt lat="45.87285" lon="6.71832">
        <ele>1234</ele>
        <time>2022-08-26T19:19:02Z</time>
      </trkpt>
      <trkpt lat="45.87284" lon="6.71833">
        <ele>1234</ele>
        <time>2022-08-26T19:19:03Z</time>
      </trkpt>
      <trkpt lat="45.87283" lon="6.71835">
        <ele>1234</ele>
        <time>2022-08-26T19:19:04Z</time>
      </trkpt>
      <trkpt lat="45.87282" lon="6.71836">
        <ele>1235</ele>
        <time>2022-08-26T19:19:06Z</time>
      </trkpt>
      <trkpt lat="45.87281" lon="6.71837">
        <ele>1235</ele>
        <time>2022-08-26T19:19:07Z</time>
      </trkpt>
      <trkpt lat="45.8728" lon="6.71838">
        <ele>1235</ele>
        <time>2022-08-26T19:19:08Z</time>
      </trkpt>
      <trkpt lat="45.87279" lon="6.7184">
        <ele>1236</ele>
        <time>2022-08-26T19:19:09Z</time>
      </trkpt>
      <trkpt lat="45.87277" lon="6.7184">
        <ele>1237</ele>
        <time>2022-08-26T19:19:11Z</time>
      </trkpt>
      <trkpt lat="45.87276" lon="6.71841">
        <ele>1237</ele>
        <time>2022-08-26T19:19:12Z</time>
      </trkpt>
      <trkpt lat="45.87275" lon="6.71842">
        <ele>1237</ele>
        <time>2022-08-26T19:19:13Z</time>
      </trkpt>
      <trkpt lat="45.87273" lon="6.71843">
        <ele>1237</ele>
        <time>2022-08-26T19:19:14Z</time>
      </trkpt>
      <trkpt lat="45.87272" lon="6.71844">
        <ele>1237</ele>
        <time>2022-08-26T19:19:16Z</time>
      </trkpt>
      <trkpt lat="45.87271" lon="6.71845">
        <ele>1237</ele>
        <time>2022-08-26T19:19:17Z</time>
      </trkpt>
      <trkpt lat="45.8727" lon="6.71846">
        <ele>1238</ele>
        <time>2022-08-26T19:19:18Z</time>
      </trkpt>
      <trkpt lat="45.87268" lon="6.71846">
        <ele>1239</ele>
        <time>2022-08-26T19:19:20Z</time>
      </trkpt>
      <trkpt lat="45.87266" lon="6.71847">
        <ele>1239</ele>
        <time>2022-08-26T19:19:21Z</time>
      </trkpt>
      <trkpt lat="45.87264" lon="6.71847">
        <ele>1239</ele>
        <time>2022-08-26T19:19:22Z</time>
      </trkpt>
      <trkpt lat="45.87263" lon="6.71848">
        <ele>1239</ele>
        <time>2022-08-26T19:19:23Z</time>
      </trkpt>
      <trkpt lat="45.87261" lon="6.71848">
        <ele>1239</ele>
        <time>2022-08-26T19:19:25Z</time>
      </trkpt>
      <trkpt lat="45.87259" lon="6.71849">
        <ele>1241</ele>
        <time>2022-08-26T19:19:26Z</time>
      </trkpt>
      <trkpt lat="45.8725" lon="6.71853">
        <ele>1242</ele>
        <time>2022-08-26T19:19:33Z</time>
      </trkpt>
      <trkpt lat="45.87249" lon="6.71854">
        <ele>1242</ele>
        <time>2022-08-26T19:19:35Z</time>
      </trkpt>
      <trkpt lat="45.87247" lon="6.71855">
        <ele>1243</ele>
        <time>2022-08-26T19:19:36Z</time>
      </trkpt>
      <trkpt lat="45.87246" lon="6.71856">
        <ele>1243</ele>
        <time>2022-08-26T19:19:37Z</time>
      </trkpt>
      <trkpt lat="45.87245" lon="6.71857">
        <ele>1244</ele>
        <time>2022-08-26T19:19:39Z</time>
      </trkpt>
      <trkpt lat="45.87244" lon="6.71858">
        <ele>1244</ele>
        <time>2022-08-26T19:19:40Z</time>
      </trkpt>
      <trkpt lat="45.87243" lon="6.71859">
        <ele>1244</ele>
        <time>2022-08-26T19:19:41Z</time>
      </trkpt>
      <trkpt lat="45.87242" lon="6.7186">
        <ele>1244</ele>
        <time>2022-08-26T19:19:42Z</time>
      </trkpt>
      <trkpt lat="45.87235" lon="6.71869">
        <ele>1246</ele>
        <time>2022-08-26T19:19:51Z</time>
      </trkpt>
      <trkpt lat="45.87234" lon="6.7187">
        <ele>1246</ele>
        <time>2022-08-26T19:19:52Z</time>
      </trkpt>
      <trkpt lat="45.87233" lon="6.71872">
        <ele>1246</ele>
        <time>2022-08-26T19:19:54Z</time>
      </trkpt>
      <trkpt lat="45.87232" lon="6.71873">
        <ele>1247</ele>
        <time>2022-08-26T19:19:55Z</time>
      </trkpt>
      <trkpt lat="45.8723" lon="6.71875">
        <ele>1247</ele>
        <time>2022-08-26T19:19:56Z</time>
      </trkpt>
      <trkpt lat="45.87229" lon="6.71877">
        <ele>1247</ele>
        <time>2022-08-26T19:19:58Z</time>
      </trkpt>
      <trkpt lat="45.87228" lon="6.71878">
        <ele>1247</ele>
        <time>2022-08-26T19:19:59Z</time>
      </trkpt>
      <trkpt lat="45.87228" lon="6.71878">
        <ele>1247</ele>
        <time>2022-08-26T19:20:00Z</time>
      </trkpt>
      <trkpt lat="45.87227" lon="6.71877">
        <ele>1247</ele>
        <time>2022-08-26T19:20:01Z</time>
      </trkpt>
      <trkpt lat="45.87226" lon="6.71876">
        <ele>1248</ele>
        <time>2022-08-26T19:20:03Z</time>
      </trkpt>
      <trkpt lat="45.87225" lon="6.71875">
        <ele>1248</ele>
        <time>2022-08-26T19:20:04Z</time>
      </trkpt>
      <trkpt lat="45.87224" lon="6.71874">
        <ele>1248</ele>
        <time>2022-08-26T19:20:05Z</time>
      </trkpt>
      <trkpt lat="45.87223" lon="6.71873">
        <ele>1248</ele>
        <time>2022-08-26T19:20:06Z</time>
      </trkpt>
      <trkpt lat="45.87223" lon="6.71872">
        <ele>1248</ele>
        <time>2022-08-26T19:20:08Z</time>
      </trkpt>
      <trkpt lat="45.87222" lon="6.71872">
        <ele>1248</ele>
        <time>2022-08-26T19:20:10Z</time>
      </trkpt>
      <trkpt lat="45.87221" lon="6.71871">
        <ele>1249</ele>
        <time>2022-08-26T19:20:11Z</time>
      </trkpt>
      <trkpt lat="45.87222" lon="6.71857">
        <ele>1251</ele>
        <time>2022-08-26T19:20:18Z</time>
      </trkpt>
      <trkpt lat="45.87221" lon="6.71857">
        <ele>1251</ele>
        <time>2022-08-26T19:20:20Z</time>
      </trkpt>
      <trkpt lat="45.87221" lon="6.71858">
        <ele>1251</ele>
        <time>2022-08-26T19:20:21Z</time>
      </trkpt>
      <trkpt lat="45.87221" lon="6.71858">
        <ele>1252</ele>
        <time>2022-08-26T19:20:22Z</time>
      </trkpt>
      <trkpt lat="45.87221" lon="6.71858">
        <ele>1252</ele>
        <time>2022-08-26T19:20:23Z</time>
      </trkpt>
      <trkpt lat="45.87221" lon="6.71858">
        <ele>1252</ele>
        <time>2022-08-26T19:20:25Z</time>
      </trkpt>
      <trkpt lat="45.8722" lon="6.71858">
        <ele>1252</ele>
        <time>2022-08-26T19:20:26Z</time>
      </trkpt>
      <trkpt lat="45.8722" lon="6.71858">
        <ele>1252</ele>
        <time>2022-08-26T19:20:27Z</time>
      </trkpt>
      <trkpt lat="45.8722" lon="6.71858">
        <ele>1252</ele>
        <time>2022-08-26T19:20:28Z</time>
      </trkpt>
      <trkpt lat="45.8722" lon="6.71858">
        <ele>1252</ele>
        <time>2022-08-26T19:20:29Z</time>
      </trkpt>
      <trkpt lat="45.8722" lon="6.71858">
        <ele>1252</ele>
        <time>2022-08-26T19:20:30Z</time>
      </trkpt>
      <trkpt lat="45.87219" lon="6.71858">
        <ele>1252</ele>
        <time>2022-08-26T19:20:32Z</time>
      </trkpt>
      <trkpt lat="45.87219" lon="6.71859">
        <ele>1252</ele>
        <time>2022-08-26T19:20:33Z</time>
      </trkpt>
      <trkpt lat="45.87219" lon="6.71859">
        <ele>1252</ele>
        <time>2022-08-26T19:20:34Z</time>
      </trkpt>
      <trkpt lat="45.87219" lon="6.71859">
        <ele>1253</ele>
        <time>2022-08-26T19:20:36Z</time>
      </trkpt>
      <trkpt lat="45.87219" lon="6.71859">
        <ele>1253</ele>
        <time>2022-08-26T19:20:37Z</time>
      </trkpt>
      <trkpt lat="45.87218" lon="6.71859">
        <ele>1253</ele>
        <time>2022-08-26T19:20:38Z</time>
      </trkpt>
      <trkpt lat="45.87218" lon="6.71859">
        <ele>1254</ele>
        <time>2022-08-26T19:20:39Z</time>
      </trkpt>
      <trkpt lat="45.87218" lon="6.71859">
        <ele>1254</ele>
        <time>2022-08-26T19:20:41Z</time>
      </trkpt>
      <trkpt lat="45.87218" lon="6.71859">
        <ele>1254</ele>
        <time>2022-08-26T19:20:42Z</time>
      </trkpt>
      <trkpt lat="45.87218" lon="6.71859">
        <ele>1254</ele>
        <time>2022-08-26T19:20:43Z</time>
      </trkpt>
      <trkpt lat="45.87217" lon="6.71859">
        <ele>1255</ele>
        <time>2022-08-26T19:20:44Z</time>
      </trkpt>
      <trkpt lat="45.87217" lon="6.7186">
        <ele>1255</ele>
        <time>2022-08-26T19:20:46Z</time>
      </trkpt>
      <trkpt lat="45.87217" lon="6.7186">
        <ele>1255</ele>
        <time>2022-08-26T19:20:47Z</time>
      </trkpt>
      <trkpt lat="45.87217" lon="6.7186">
        <ele>1256</ele>
        <time>2022-08-26T19:20:48Z</time>
      </trkpt>
      <trkpt lat="45.87217" lon="6.7186">
        <ele>1256</ele>
        <time>2022-08-26T19:20:49Z</time>
      </trkpt>
      <trkpt lat="45.87216" lon="6.7186">
        <ele>1256</ele>
        <time>2022-08-26T19:20:51Z</time>
      </trkpt>
      <trkpt lat="45.87216" lon="6.7186">
        <ele>1258</ele>
        <time>2022-08-26T19:20:53Z</time>
      </trkpt>
      <trkpt lat="45.87216" lon="6.7186">
        <ele>1258</ele>
        <time>2022-08-26T19:20:55Z</time>
      </trkpt>
      <trkpt lat="45.87216" lon="6.7186">
        <ele>1258</ele>
        <time>2022-08-26T19:20:56Z</time>
      </trkpt>
      <trkpt lat="45.87216" lon="6.7186">
        <ele>1258</ele>
        <time>2022-08-26T19:20:57Z</time>
      </trkpt>
      <trkpt lat="45.87215" lon="6.7186">
        <ele>1258</ele>
        <time>2022-08-26T19:20:58Z</time>
      </trkpt>
      <trkpt lat="45.87215" lon="6.71861">
        <ele>1258</ele>
        <time>2022-08-26T19:21:00Z</time>
      </trkpt>
      <trkpt lat="45.87215" lon="6.71861">
        <ele>1258</ele>
        <time>2022-08-26T19:21:01Z</time>
      </trkpt>
      <trkpt lat="45.87215" lon="6.71861">
        <ele>1259</ele>
        <time>2022-08-26T19:21:02Z</time>
      </trkpt>
      <trkpt lat="45.87214" lon="6.71861">
        <ele>1259</ele>
        <time>2022-08-26T19:21:03Z</time>
      </trkpt>
      <trkpt lat="45.87214" lon="6.71861">
        <ele>1260</ele>
        <time>2022-08-26T19:21:05Z</time>
      </trkpt>
      <trkpt lat="45.87214" lon="6.71861">
        <ele>1260</ele>
        <time>2022-08-26T19:21:06Z</time>
      </trkpt>
      <trkpt lat="45.87214" lon="6.71861">
        <ele>1260</ele>
        <time>2022-08-26T19:21:07Z</time>
      </trkpt>
      <trkpt lat="45.87214" lon="6.71861">
        <ele>1260</ele>
        <time>2022-08-26T19:21:08Z</time>
      </trkpt>
      <trkpt lat="45.87213" lon="6.71861">
        <ele>1261</ele>
        <time>2022-08-26T19:21:10Z</time>
      </trkpt>
      <trkpt lat="45.87213" lon="6.71861">
        <ele>1261</ele>
        <time>2022-08-26T19:21:12Z</time>
      </trkpt>
      <trkpt lat="45.87213" lon="6.71862">
        <ele>1261</ele>
        <time>2022-08-26T19:21:13Z</time>
      </trkpt>
      <trkpt lat="45.87212" lon="6.71862">
        <ele>1262</ele>
        <time>2022-08-26T19:21:14Z</time>
      </trkpt>
      <trkpt lat="45.87211" lon="6.71863">
        <ele>1262</ele>
        <time>2022-08-26T19:21:15Z</time>
      </trkpt>
      <trkpt lat="45.87211" lon="6.71864">
        <ele>1262</ele>
        <time>2022-08-26T19:21:16Z</time>
      </trkpt>
      <trkpt lat="45.8721" lon="6.71865">
        <ele>1262</ele>
        <time>2022-08-26T19:21:17Z</time>
      </trkpt>
      <trkpt lat="45.87209" lon="6.71866">
        <ele>1262</ele>
        <time>2022-08-26T19:21:18Z</time>
      </trkpt>
      <trkpt lat="45.87208" lon="6.71866">
        <ele>1262</ele>
        <time>2022-08-26T19:21:19Z</time>
      </trkpt>
      <trkpt lat="45.87207" lon="6.71867">
        <ele>1262</ele>
        <time>2022-08-26T19:21:20Z</time>
      </trkpt>
      <trkpt lat="45.87206" lon="6.71868">
        <ele>1262</ele>
        <time>2022-08-26T19:21:22Z</time>
      </trkpt>
      <trkpt lat="45.87205" lon="6.71869">
        <ele>1263</ele>
        <time>2022-08-26T19:21:23Z</time>
      </trkpt>
      <trkpt lat="45.87204" lon="6.7187">
        <ele>1263</ele>
        <time>2022-08-26T19:21:24Z</time>
      </trkpt>
      <trkpt lat="45.87202" lon="6.71871">
        <ele>1263</ele>
        <time>2022-08-26T19:21:25Z</time>
      </trkpt>
      <trkpt lat="45.87201" lon="6.71872">
        <ele>1263</ele>
        <time>2022-08-26T19:21:27Z</time>
      </trkpt>
      <trkpt lat="45.87199" lon="6.71872">
        <ele>1263</ele>
        <time>2022-08-26T19:21:29Z</time>
      </trkpt>
      <trkpt lat="45.87198" lon="6.71873">
        <ele>1263</ele>
        <time>2022-08-26T19:21:30Z</time>
      </trkpt>
      <trkpt lat="45.87196" lon="6.71874">
        <ele>1264</ele>
        <time>2022-08-26T19:21:31Z</time>
      </trkpt>
      <trkpt lat="45.87195" lon="6.71875">
        <ele>1265</ele>
        <time>2022-08-26T19:21:33Z</time>
      </trkpt>
      <trkpt lat="45.87194" lon="6.71875">
        <ele>1265</ele>
        <time>2022-08-26T19:21:34Z</time>
      </trkpt>
      <trkpt lat="45.87193" lon="6.71876">
        <ele>1266</ele>
        <time>2022-08-26T19:21:35Z</time>
      </trkpt>
      <trkpt lat="45.87192" lon="6.71876">
        <ele>1266</ele>
        <time>2022-08-26T19:21:36Z</time>
      </trkpt>
      <trkpt lat="45.8719" lon="6.71877">
        <ele>1265</ele>
        <time>2022-08-26T19:21:38Z</time>
      </trkpt>
      <trkpt lat="45.87189" lon="6.71877">
        <ele>1265</ele>
        <time>2022-08-26T19:21:40Z</time>
      </trkpt>
      <trkpt lat="45.87188" lon="6.71877">
        <ele>1265</ele>
        <time>2022-08-26T19:21:41Z</time>
      </trkpt>
      <trkpt lat="45.87187" lon="6.71878">
        <ele>1266</ele>
        <time>2022-08-26T19:21:42Z</time>
      </trkpt>
      <trkpt lat="45.87186" lon="6.71878">
        <ele>1266</ele>
        <time>2022-08-26T19:21:43Z</time>
      </trkpt>
      <trkpt lat="45.87185" lon="6.71878">
        <ele>1266</ele>
        <time>2022-08-26T19:21:44Z</time>
      </trkpt>
      <trkpt lat="45.87184" lon="6.71878">
        <ele>1266</ele>
        <time>2022-08-26T19:21:45Z</time>
      </trkpt>
      <trkpt lat="45.87183" lon="6.71878">
        <ele>1266</ele>
        <time>2022-08-26T19:21:47Z</time>
      </trkpt>
      <trkpt lat="45.87182" lon="6.71878">
        <ele>1267</ele>
        <time>2022-08-26T19:21:48Z</time>
      </trkpt>
      <trkpt lat="45.87181" lon="6.71878">
        <ele>1267</ele>
        <time>2022-08-26T19:21:49Z</time>
      </trkpt>
      <trkpt lat="45.8718" lon="6.71878">
        <ele>1267</ele>
        <time>2022-08-26T19:21:50Z</time>
      </trkpt>
      <trkpt lat="45.87179" lon="6.71878">
        <ele>1267</ele>
        <time>2022-08-26T19:21:52Z</time>
      </trkpt>
      <trkpt lat="45.87178" lon="6.71878">
        <ele>1267</ele>
        <time>2022-08-26T19:21:53Z</time>
      </trkpt>
      <trkpt lat="45.87177" lon="6.71878">
        <ele>1267</ele>
        <time>2022-08-26T19:21:54Z</time>
      </trkpt>
      <trkpt lat="45.87177" lon="6.71877">
        <ele>1268</ele>
        <time>2022-08-26T19:21:55Z</time>
      </trkpt>
      <trkpt lat="45.87177" lon="6.71877">
        <ele>1269</ele>
        <time>2022-08-26T19:21:57Z</time>
      </trkpt>
      <trkpt lat="45.87177" lon="6.71876">
        <ele>1269</ele>
        <time>2022-08-26T19:21:58Z</time>
      </trkpt>
      <trkpt lat="45.87177" lon="6.71876">
        <ele>1270</ele>
        <time>2022-08-26T19:21:59Z</time>
      </trkpt>
      <trkpt lat="45.87176" lon="6.71875">
        <ele>1270</ele>
        <time>2022-08-26T19:22:00Z</time>
      </trkpt>
      <trkpt lat="45.87176" lon="6.71875">
        <ele>1270</ele>
        <time>2022-08-26T19:22:02Z</time>
      </trkpt>
      <trkpt lat="45.87176" lon="6.71874">
        <ele>1271</ele>
        <time>2022-08-26T19:22:04Z</time>
      </trkpt>
      <trkpt lat="45.87176" lon="6.71874">
        <ele>1271</ele>
        <time>2022-08-26T19:22:05Z</time>
      </trkpt>
      <trkpt lat="45.87173" lon="6.71863">
        <ele>1271</ele>
        <time>2022-08-26T19:22:07Z</time>
      </trkpt>
      <trkpt lat="45.87174" lon="6.7186">
        <ele>1272</ele>
        <time>2022-08-26T19:22:09Z</time>
      </trkpt>
      <trkpt lat="45.87174" lon="6.71858">
        <ele>1272</ele>
        <time>2022-08-26T19:22:11Z</time>
      </trkpt>
      <trkpt lat="45.87175" lon="6.71855">
        <ele>1272</ele>
        <time>2022-08-26T19:22:12Z</time>
      </trkpt>
      <trkpt lat="45.87175" lon="6.71853">
        <ele>1272</ele>
        <time>2022-08-26T19:22:13Z</time>
      </trkpt>
      <trkpt lat="45.87175" lon="6.71851">
        <ele>1272</ele>
        <time>2022-08-26T19:22:14Z</time>
      </trkpt>
      <trkpt lat="45.87176" lon="6.7185">
        <ele>1273</ele>
        <time>2022-08-26T19:22:16Z</time>
      </trkpt>
      <trkpt lat="45.87176" lon="6.71849">
        <ele>1273</ele>
        <time>2022-08-26T19:22:17Z</time>
      </trkpt>
      <trkpt lat="45.87176" lon="6.71848">
        <ele>1274</ele>
        <time>2022-08-26T19:22:18Z</time>
      </trkpt>
      <trkpt lat="45.87177" lon="6.71847">
        <ele>1274</ele>
        <time>2022-08-26T19:22:19Z</time>
      </trkpt>
      <trkpt lat="45.87177" lon="6.71846">
        <ele>1274</ele>
        <time>2022-08-26T19:22:21Z</time>
      </trkpt>
      <trkpt lat="45.87177" lon="6.71845">
        <ele>1274</ele>
        <time>2022-08-26T19:22:22Z</time>
      </trkpt>
      <trkpt lat="45.87177" lon="6.71843">
        <ele>1275</ele>
        <time>2022-08-26T19:22:23Z</time>
      </trkpt>
      <trkpt lat="45.87178" lon="6.71842">
        <ele>1275</ele>
        <time>2022-08-26T19:22:24Z</time>
      </trkpt>
      <trkpt lat="45.87178" lon="6.71841">
        <ele>1275</ele>
        <time>2022-08-26T19:22:25Z</time>
      </trkpt>
      <trkpt lat="45.87178" lon="6.7184">
        <ele>1275</ele>
        <time>2022-08-26T19:22:26Z</time>
      </trkpt>
      <trkpt lat="45.87178" lon="6.71839">
        <ele>1275</ele>
        <time>2022-08-26T19:22:28Z</time>
      </trkpt>
      <trkpt lat="45.87178" lon="6.71838">
        <ele>1275</ele>
        <time>2022-08-26T19:22:29Z</time>
      </trkpt>
      <trkpt lat="45.87178" lon="6.71837">
        <ele>1276</ele>
        <time>2022-08-26T19:22:30Z</time>
      </trkpt>
      <trkpt lat="45.87178" lon="6.71836">
        <ele>1276</ele>
        <time>2022-08-26T19:22:31Z</time>
      </trkpt>
      <trkpt lat="45.87178" lon="6.71835">
        <ele>1276</ele>
        <time>2022-08-26T19:22:33Z</time>
      </trkpt>
      <trkpt lat="45.87178" lon="6.71834">
        <ele>1277</ele>
        <time>2022-08-26T19:22:34Z</time>
      </trkpt>
      <trkpt lat="45.87178" lon="6.71833">
        <ele>1277</ele>
        <time>2022-08-26T19:22:35Z</time>
      </trkpt>
      <trkpt lat="45.87178" lon="6.71832">
        <ele>1277</ele>
        <time>2022-08-26T19:22:36Z</time>
      </trkpt>
      <trkpt lat="45.87178" lon="6.71831">
        <ele>1277</ele>
        <time>2022-08-26T19:22:38Z</time>
      </trkpt>
      <trkpt lat="45.87177" lon="6.71831">
        <ele>1278</ele>
        <time>2022-08-26T19:22:39Z</time>
      </trkpt>
      <trkpt lat="45.87177" lon="6.7183">
        <ele>1278</ele>
        <time>2022-08-26T19:22:40Z</time>
      </trkpt>
      <trkpt lat="45.87177" lon="6.71829">
        <ele>1278</ele>
        <time>2022-08-26T19:22:41Z</time>
      </trkpt>
      <trkpt lat="45.87177" lon="6.71828">
        <ele>1278</ele>
        <time>2022-08-26T19:22:42Z</time>
      </trkpt>
      <trkpt lat="45.87177" lon="6.71827">
        <ele>1278</ele>
        <time>2022-08-26T19:22:43Z</time>
      </trkpt>
      <trkpt lat="45.87177" lon="6.71825">
        <ele>1278</ele>
        <time>2022-08-26T19:22:45Z</time>
      </trkpt>
      <trkpt lat="45.87178" lon="6.71823">
        <ele>1278</ele>
        <time>2022-08-26T19:22:46Z</time>
      </trkpt>
      <trkpt lat="45.87178" lon="6.71821">
        <ele>1277</ele>
        <time>2022-08-26T19:22:47Z</time>
      </trkpt>
      <trkpt lat="45.87178" lon="6.71819">
        <ele>1278</ele>
        <time>2022-08-26T19:22:49Z</time>
      </trkpt>
      <trkpt lat="45.87178" lon="6.71817">
        <ele>1278</ele>
        <time>2022-08-26T19:22:50Z</time>
      </trkpt>
      <trkpt lat="45.87178" lon="6.71816">
        <ele>1278</ele>
        <time>2022-08-26T19:22:51Z</time>
      </trkpt>
      <trkpt lat="45.87178" lon="6.71814">
        <ele>1278</ele>
        <time>2022-08-26T19:22:52Z</time>
      </trkpt>
      <trkpt lat="45.8718" lon="6.718">
        <ele>1279</ele>
        <time>2022-08-26T19:22:59Z</time>
      </trkpt>
      <trkpt lat="45.8718" lon="6.71798">
        <ele>1280</ele>
        <time>2022-08-26T19:23:00Z</time>
      </trkpt>
      <trkpt lat="45.8718" lon="6.71796">
        <ele>1280</ele>
        <time>2022-08-26T19:23:01Z</time>
      </trkpt>
      <trkpt lat="45.8718" lon="6.71795">
        <ele>1280</ele>
        <time>2022-08-26T19:23:02Z</time>
      </trkpt>
      <trkpt lat="45.8718" lon="6.71793">
        <ele>1280</ele>
        <time>2022-08-26T19:23:04Z</time>
      </trkpt>
      <trkpt lat="45.87181" lon="6.71791">
        <ele>1280</ele>
        <time>2022-08-26T19:23:05Z</time>
      </trkpt>
      <trkpt lat="45.87181" lon="6.71789">
        <ele>1280</ele>
        <time>2022-08-26T19:23:06Z</time>
      </trkpt>
      <trkpt lat="45.87181" lon="6.71788">
        <ele>1280</ele>
        <time>2022-08-26T19:23:07Z</time>
      </trkpt>
      <trkpt lat="45.87181" lon="6.71786">
        <ele>1281</ele>
        <time>2022-08-26T19:23:08Z</time>
      </trkpt>
      <trkpt lat="45.87181" lon="6.71787">
        <ele>1281</ele>
        <time>2022-08-26T19:23:09Z</time>
      </trkpt>
      <trkpt lat="45.87181" lon="6.71788">
        <ele>1281</ele>
        <time>2022-08-26T19:23:10Z</time>
      </trkpt>
      <trkpt lat="45.8718" lon="6.71788">
        <ele>1282</ele>
        <time>2022-08-26T19:23:11Z</time>
      </trkpt>
      <trkpt lat="45.8718" lon="6.71789">
        <ele>1283</ele>
        <time>2022-08-26T19:23:13Z</time>
      </trkpt>
      <trkpt lat="45.8718" lon="6.7179">
        <ele>1283</ele>
        <time>2022-08-26T19:23:14Z</time>
      </trkpt>
      <trkpt lat="45.8718" lon="6.71791">
        <ele>1283</ele>
        <time>2022-08-26T19:23:15Z</time>
      </trkpt>
      <trkpt lat="45.87179" lon="6.71791">
        <ele>1283</ele>
        <time>2022-08-26T19:23:16Z</time>
      </trkpt>
      <trkpt lat="45.87179" lon="6.71792">
        <ele>1283</ele>
        <time>2022-08-26T19:23:18Z</time>
      </trkpt>
      <trkpt lat="45.87179" lon="6.71793">
        <ele>1284</ele>
        <time>2022-08-26T19:23:19Z</time>
      </trkpt>
      <trkpt lat="45.87178" lon="6.71794">
        <ele>1284</ele>
        <time>2022-08-26T19:23:20Z</time>
      </trkpt>
      <trkpt lat="45.87178" lon="6.71795">
        <ele>1284</ele>
        <time>2022-08-26T19:23:21Z</time>
      </trkpt>
      <trkpt lat="45.87178" lon="6.71795">
        <ele>1285</ele>
        <time>2022-08-26T19:23:23Z</time>
      </trkpt>
      <trkpt lat="45.87178" lon="6.71796">
        <ele>1285</ele>
        <time>2022-08-26T19:23:25Z</time>
      </trkpt>
      <trkpt lat="45.87177" lon="6.71797">
        <ele>1285</ele>
        <time>2022-08-26T19:23:26Z</time>
      </trkpt>
      <trkpt lat="45.87177" lon="6.71798">
        <ele>1285</ele>
        <time>2022-08-26T19:23:27Z</time>
      </trkpt>
      <trkpt lat="45.87177" lon="6.71798">
        <ele>1285</ele>
        <time>2022-08-26T19:23:28Z</time>
      </trkpt>
      <trkpt lat="45.87177" lon="6.71799">
        <ele>1285</ele>
        <time>2022-08-26T19:23:29Z</time>
      </trkpt>
      <trkpt lat="45.87177" lon="6.718">
        <ele>1285</ele>
        <time>2022-08-26T19:23:30Z</time>
      </trkpt>
      <trkpt lat="45.87177" lon="6.71801">
        <ele>1285</ele>
        <time>2022-08-26T19:23:32Z</time>
      </trkpt>
      <trkpt lat="45.87176" lon="6.71802">
        <ele>1285</ele>
        <time>2022-08-26T19:23:33Z</time>
      </trkpt>
      <trkpt lat="45.87176" lon="6.71803">
        <ele>1285</ele>
        <time>2022-08-26T19:23:34Z</time>
      </trkpt>
      <trkpt lat="45.87176" lon="6.71804">
        <ele>1285</ele>
        <time>2022-08-26T19:23:35Z</time>
      </trkpt>
      <trkpt lat="45.87174" lon="6.71817">
        <ele>1284</ele>
        <time>2022-08-26T19:23:37Z</time>
      </trkpt>
      <trkpt lat="45.87174" lon="6.7182">
        <ele>1284</ele>
        <time>2022-08-26T19:23:38Z</time>
      </trkpt>
      <trkpt lat="45.87174" lon="6.71822">
        <ele>1284</ele>
        <time>2022-08-26T19:23:39Z</time>
      </trkpt>
      <trkpt lat="45.87173" lon="6.71825">
        <ele>1284</ele>
        <time>2022-08-26T19:23:40Z</time>
      </trkpt>
      <trkpt lat="45.87173" lon="6.71828">
        <ele>1284</ele>
        <time>2022-08-26T19:23:41Z</time>
      </trkpt>
      <trkpt lat="45.87172" lon="6.7183">
        <ele>1284</ele>
        <time>2022-08-26T19:23:42Z</time>
      </trkpt>
      <trkpt lat="45.87171" lon="6.71833">
        <ele>1284</ele>
        <time>2022-08-26T19:23:43Z</time>
      </trkpt>
      <trkpt lat="45.87171" lon="6.71836">
        <ele>1285</ele>
        <time>2022-08-26T19:23:44Z</time>
      </trkpt>
      <trkpt lat="45.8717" lon="6.71838">
        <ele>1285</ele>
        <time>2022-08-26T19:23:46Z</time>
      </trkpt>
      <trkpt lat="45.87169" lon="6.71841">
        <ele>1285</ele>
        <time>2022-08-26T19:23:47Z</time>
      </trkpt>
      <trkpt lat="45.87168" lon="6.71842">
        <ele>1285</ele>
        <time>2022-08-26T19:23:48Z</time>
      </trkpt>
      <trkpt lat="45.87168" lon="6.71843">
        <ele>1285</ele>
        <time>2022-08-26T19:23:49Z</time>
      </trkpt>
      <trkpt lat="45.87167" lon="6.71844">
        <ele>1286</ele>
        <time>2022-08-26T19:23:51Z</time>
      </trkpt>
      <trkpt lat="45.87166" lon="6.71844">
        <ele>1287</ele>
        <time>2022-08-26T19:23:52Z</time>
      </trkpt>
      <trkpt lat="45.87166" lon="6.71845">
        <ele>1287</ele>
        <time>2022-08-26T19:23:53Z</time>
      </trkpt>
      <trkpt lat="45.87165" lon="6.71846">
        <ele>1287</ele>
        <time>2022-08-26T19:23:54Z</time>
      </trkpt>
      <trkpt lat="45.87164" lon="6.71847">
        <ele>1287</ele>
        <time>2022-08-26T19:23:56Z</time>
      </trkpt>
      <trkpt lat="45.87163" lon="6.71848">
        <ele>1287</ele>
        <time>2022-08-26T19:23:57Z</time>
      </trkpt>
      <trkpt lat="45.87163" lon="6.71848">
        <ele>1287</ele>
        <time>2022-08-26T19:23:58Z</time>
      </trkpt>
      <trkpt lat="45.87162" lon="6.71849">
        <ele>1288</ele>
        <time>2022-08-26T19:23:59Z</time>
      </trkpt>
      <trkpt lat="45.87161" lon="6.7185">
        <ele>1288</ele>
        <time>2022-08-26T19:24:01Z</time>
      </trkpt>
      <trkpt lat="45.8716" lon="6.71852">
        <ele>1289</ele>
        <time>2022-08-26T19:24:03Z</time>
      </trkpt>
      <trkpt lat="45.8716" lon="6.71853">
        <ele>1289</ele>
        <time>2022-08-26T19:24:04Z</time>
      </trkpt>
      <trkpt lat="45.87159" lon="6.71854">
        <ele>1289</ele>
        <time>2022-08-26T19:24:05Z</time>
      </trkpt>
      <trkpt lat="45.87158" lon="6.71856">
        <ele>1289</ele>
        <time>2022-08-26T19:24:06Z</time>
      </trkpt>
      <trkpt lat="45.87157" lon="6.71857">
        <ele>1289</ele>
        <time>2022-08-26T19:24:08Z</time>
      </trkpt>
      <trkpt lat="45.87157" lon="6.71858">
        <ele>1289</ele>
        <time>2022-08-26T19:24:09Z</time>
      </trkpt>
      <trkpt lat="45.87156" lon="6.71859">
        <ele>1289</ele>
        <time>2022-08-26T19:24:10Z</time>
      </trkpt>
      <trkpt lat="45.87155" lon="6.71861">
        <ele>1289</ele>
        <time>2022-08-26T19:24:11Z</time>
      </trkpt>
      <trkpt lat="45.87154" lon="6.71862">
        <ele>1289</ele>
        <time>2022-08-26T19:24:13Z</time>
      </trkpt>
      <trkpt lat="45.87153" lon="6.71863">
        <ele>1289</ele>
        <time>2022-08-26T19:24:15Z</time>
      </trkpt>
      <trkpt lat="45.87153" lon="6.71864">
        <ele>1289</ele>
        <time>2022-08-26T19:24:16Z</time>
      </trkpt>
      <trkpt lat="45.87152" lon="6.71866">
        <ele>1289</ele>
        <time>2022-08-26T19:24:17Z</time>
      </trkpt>
      <trkpt lat="45.87151" lon="6.71867">
        <ele>1290</ele>
        <time>2022-08-26T19:24:18Z</time>
      </trkpt>
      <trkpt lat="45.8715" lon="6.71868">
        <ele>1290</ele>
        <time>2022-08-26T19:24:19Z</time>
      </trkpt>
      <trkpt lat="45.87149" lon="6.71869">
        <ele>1290</ele>
        <time>2022-08-26T19:24:20Z</time>
      </trkpt>
      <trkpt lat="45.87148" lon="6.7187">
        <ele>1290</ele>
        <time>2022-08-26T19:24:21Z</time>
      </trkpt>
      <trkpt lat="45.87147" lon="6.71871">
        <ele>1290</ele>
        <time>2022-08-26T19:24:22Z</time>
      </trkpt>
      <trkpt lat="45.87145" lon="6.71872">
        <ele>1290</ele>
        <time>2022-08-26T19:24:23Z</time>
      </trkpt>
      <trkpt lat="45.87144" lon="6.71873">
        <ele>1291</ele>
        <time>2022-08-26T19:24:25Z</time>
      </trkpt>
      <trkpt lat="45.87142" lon="6.71875">
        <ele>1291</ele>
        <time>2022-08-26T19:24:26Z</time>
      </trkpt>
      <trkpt lat="45.87141" lon="6.71876">
        <ele>1292</ele>
        <time>2022-08-26T19:24:27Z</time>
      </trkpt>
      <trkpt lat="45.8714" lon="6.71876">
        <ele>1292</ele>
        <time>2022-08-26T19:24:28Z</time>
      </trkpt>
      <trkpt lat="45.8714" lon="6.71877">
        <ele>1292</ele>
        <time>2022-08-26T19:24:29Z</time>
      </trkpt>
      <trkpt lat="45.87139" lon="6.71878">
        <ele>1292</ele>
        <time>2022-08-26T19:24:30Z</time>
      </trkpt>
      <trkpt lat="45.87138" lon="6.71879">
        <ele>1293</ele>
        <time>2022-08-26T19:24:32Z</time>
      </trkpt>
      <trkpt lat="45.87138" lon="6.71879">
        <ele>1294</ele>
        <time>2022-08-26T19:24:34Z</time>
      </trkpt>
      <trkpt lat="45.87137" lon="6.7188">
        <ele>1294</ele>
        <time>2022-08-26T19:24:35Z</time>
      </trkpt>
      <trkpt lat="45.87136" lon="6.71881">
        <ele>1294</ele>
        <time>2022-08-26T19:24:36Z</time>
      </trkpt>
      <trkpt lat="45.87135" lon="6.71882">
        <ele>1294</ele>
        <time>2022-08-26T19:24:37Z</time>
      </trkpt>
      <trkpt lat="45.87135" lon="6.71882">
        <ele>1294</ele>
        <time>2022-08-26T19:24:39Z</time>
      </trkpt>
      <trkpt lat="45.87134" lon="6.71883">
        <ele>1294</ele>
        <time>2022-08-26T19:24:40Z</time>
      </trkpt>
      <trkpt lat="45.87133" lon="6.71884">
        <ele>1295</ele>
        <time>2022-08-26T19:24:41Z</time>
      </trkpt>
      <trkpt lat="45.87133" lon="6.71885">
        <ele>1295</ele>
        <time>2022-08-26T19:24:42Z</time>
      </trkpt>
      <trkpt lat="45.87132" lon="6.71886">
        <ele>1295</ele>
        <time>2022-08-26T19:24:44Z</time>
      </trkpt>
      <trkpt lat="45.87131" lon="6.71887">
        <ele>1295</ele>
        <time>2022-08-26T19:24:46Z</time>
      </trkpt>
      <trkpt lat="45.8713" lon="6.71888">
        <ele>1296</ele>
        <time>2022-08-26T19:24:47Z</time>
      </trkpt>
      <trkpt lat="45.87129" lon="6.71889">
        <ele>1296</ele>
        <time>2022-08-26T19:24:48Z</time>
      </trkpt>
      <trkpt lat="45.87129" lon="6.7189">
        <ele>1296</ele>
        <time>2022-08-26T19:24:49Z</time>
      </trkpt>
      <trkpt lat="45.87128" lon="6.71891">
        <ele>1297</ele>
        <time>2022-08-26T19:24:51Z</time>
      </trkpt>
      <trkpt lat="45.87127" lon="6.71892">
        <ele>1298</ele>
        <time>2022-08-26T19:24:52Z</time>
      </trkpt>
      <trkpt lat="45.87126" lon="6.71893">
        <ele>1298</ele>
        <time>2022-08-26T19:24:53Z</time>
      </trkpt>
      <trkpt lat="45.87125" lon="6.71894">
        <ele>1298</ele>
        <time>2022-08-26T19:24:54Z</time>
      </trkpt>
      <trkpt lat="45.87124" lon="6.71896">
        <ele>1298</ele>
        <time>2022-08-26T19:24:56Z</time>
      </trkpt>
      <trkpt lat="45.87123" lon="6.71898">
        <ele>1298</ele>
        <time>2022-08-26T19:24:58Z</time>
      </trkpt>
      <trkpt lat="45.87121" lon="6.719">
        <ele>1298</ele>
        <time>2022-08-26T19:25:00Z</time>
      </trkpt>
      <trkpt lat="45.8712" lon="6.71902">
        <ele>1299</ele>
        <time>2022-08-26T19:25:02Z</time>
      </trkpt>
      <trkpt lat="45.87119" lon="6.71904">
        <ele>1299</ele>
        <time>2022-08-26T19:25:03Z</time>
      </trkpt>
      <trkpt lat="45.87118" lon="6.71906">
        <ele>1299</ele>
        <time>2022-08-26T19:25:04Z</time>
      </trkpt>
      <trkpt lat="45.87116" lon="6.71907">
        <ele>1299</ele>
        <time>2022-08-26T19:25:05Z</time>
      </trkpt>
      <trkpt lat="45.87115" lon="6.71909">
        <ele>1299</ele>
        <time>2022-08-26T19:25:07Z</time>
      </trkpt>
      <trkpt lat="45.87114" lon="6.71911">
        <ele>1300</ele>
        <time>2022-08-26T19:25:08Z</time>
      </trkpt>
      <trkpt lat="45.87113" lon="6.71912">
        <ele>1300</ele>
        <time>2022-08-26T19:25:09Z</time>
      </trkpt>
      <trkpt lat="45.87112" lon="6.71914">
        <ele>1300</ele>
        <time>2022-08-26T19:25:10Z</time>
      </trkpt>
      <trkpt lat="45.8711" lon="6.71916">
        <ele>1300</ele>
        <time>2022-08-26T19:25:12Z</time>
      </trkpt>
      <trkpt lat="45.87108" lon="6.71917">
        <ele>1300</ele>
        <time>2022-08-26T19:25:13Z</time>
      </trkpt>
      <trkpt lat="45.87106" lon="6.71918">
        <ele>1300</ele>
        <time>2022-08-26T19:25:14Z</time>
      </trkpt>
      <trkpt lat="45.87104" lon="6.7192">
        <ele>1300</ele>
        <time>2022-08-26T19:25:15Z</time>
      </trkpt>
      <trkpt lat="45.87103" lon="6.71921">
        <ele>1300</ele>
        <time>2022-08-26T19:25:16Z</time>
      </trkpt>
      <trkpt lat="45.87101" lon="6.71922">
        <ele>1300</ele>
        <time>2022-08-26T19:25:17Z</time>
      </trkpt>
      <trkpt lat="45.87099" lon="6.71923">
        <ele>1300</ele>
        <time>2022-08-26T19:25:18Z</time>
      </trkpt>
      <trkpt lat="45.87098" lon="6.71923">
        <ele>1300</ele>
        <time>2022-08-26T19:25:19Z</time>
      </trkpt>
      <trkpt lat="45.87096" lon="6.71924">
        <ele>1300</ele>
        <time>2022-08-26T19:25:20Z</time>
      </trkpt>
      <trkpt lat="45.87094" lon="6.71925">
        <ele>1300</ele>
        <time>2022-08-26T19:25:21Z</time>
      </trkpt>
      <trkpt lat="45.87093" lon="6.71925">
        <ele>1300</ele>
        <time>2022-08-26T19:25:22Z</time>
      </trkpt>
      <trkpt lat="45.87083" lon="6.71931">
        <ele>1302</ele>
        <time>2022-08-26T19:25:27Z</time>
      </trkpt>
      <trkpt lat="45.87074" lon="6.71936">
        <ele>1302</ele>
        <time>2022-08-26T19:25:32Z</time>
      </trkpt>
      <trkpt lat="45.87072" lon="6.71937">
        <ele>1302</ele>
        <time>2022-08-26T19:25:33Z</time>
      </trkpt>
      <trkpt lat="45.8707" lon="6.71938">
        <ele>1302</ele>
        <time>2022-08-26T19:25:34Z</time>
      </trkpt>
      <trkpt lat="45.87069" lon="6.71939">
        <ele>1302</ele>
        <time>2022-08-26T19:25:36Z</time>
      </trkpt>
      <trkpt lat="45.87067" lon="6.7194">
        <ele>1302</ele>
        <time>2022-08-26T19:25:37Z</time>
      </trkpt>
      <trkpt lat="45.87065" lon="6.71941">
        <ele>1301</ele>
        <time>2022-08-26T19:25:38Z</time>
      </trkpt>
      <trkpt lat="45.87063" lon="6.71941">
        <ele>1301</ele>
        <time>2022-08-26T19:25:40Z</time>
      </trkpt>
      <trkpt lat="45.87061" lon="6.71942">
        <ele>1301</ele>
        <time>2022-08-26T19:25:41Z</time>
      </trkpt>
      <trkpt lat="45.87059" lon="6.71942">
        <ele>1301</ele>
        <time>2022-08-26T19:25:42Z</time>
      </trkpt>
      <trkpt lat="45.87057" lon="6.71942">
        <ele>1301</ele>
        <time>2022-08-26T19:25:43Z</time>
      </trkpt>
      <trkpt lat="45.87055" lon="6.71943">
        <ele>1301</ele>
        <time>2022-08-26T19:25:44Z</time>
      </trkpt>
      <trkpt lat="45.87053" lon="6.71944">
        <ele>1301</ele>
        <time>2022-08-26T19:25:45Z</time>
      </trkpt>
      <trkpt lat="45.87052" lon="6.71946">
        <ele>1301</ele>
        <time>2022-08-26T19:25:46Z</time>
      </trkpt>
      <trkpt lat="45.8705" lon="6.71948">
        <ele>1301</ele>
        <time>2022-08-26T19:25:47Z</time>
      </trkpt>
      <trkpt lat="45.87049" lon="6.71949">
        <ele>1301</ele>
        <time>2022-08-26T19:25:49Z</time>
      </trkpt>
      <trkpt lat="45.87047" lon="6.71951">
        <ele>1301</ele>
        <time>2022-08-26T19:25:50Z</time>
      </trkpt>
      <trkpt lat="45.87046" lon="6.71952">
        <ele>1301</ele>
        <time>2022-08-26T19:25:51Z</time>
      </trkpt>
      <trkpt lat="45.87042" lon="6.71958">
        <ele>1301</ele>
        <time>2022-08-26T19:25:52Z</time>
      </trkpt>
      <trkpt lat="45.87039" lon="6.71963">
        <ele>1301</ele>
        <time>2022-08-26T19:25:53Z</time>
      </trkpt>
      <trkpt lat="45.87035" lon="6.71968">
        <ele>1301</ele>
        <time>2022-08-26T19:25:55Z</time>
      </trkpt>
      <trkpt lat="45.87032" lon="6.71973">
        <ele>1301</ele>
        <time>2022-08-26T19:25:56Z</time>
      </trkpt>
      <trkpt lat="45.87031" lon="6.71977">
        <ele>1300</ele>
        <time>2022-08-26T19:25:57Z</time>
      </trkpt>
      <trkpt lat="45.87029" lon="6.71981">
        <ele>1300</ele>
        <time>2022-08-26T19:25:59Z</time>
      </trkpt>
      <trkpt lat="45.87028" lon="6.71986">
        <ele>1300</ele>
        <time>2022-08-26T19:26:00Z</time>
      </trkpt>
      <trkpt lat="45.87027" lon="6.71987">
        <ele>1300</ele>
        <time>2022-08-26T19:26:01Z</time>
      </trkpt>
      <trkpt lat="45.87026" lon="6.71989">
        <ele>1300</ele>
        <time>2022-08-26T19:26:02Z</time>
      </trkpt>
      <trkpt lat="45.87025" lon="6.71991">
        <ele>1301</ele>
        <time>2022-08-26T19:26:04Z</time>
      </trkpt>
      <trkpt lat="45.87024" lon="6.71992">
        <ele>1301</ele>
        <time>2022-08-26T19:26:06Z</time>
      </trkpt>
      <trkpt lat="45.87023" lon="6.71994">
        <ele>1301</ele>
        <time>2022-08-26T19:26:07Z</time>
      </trkpt>
      <trkpt lat="45.87022" lon="6.71996">
        <ele>1301</ele>
        <time>2022-08-26T19:26:08Z</time>
      </trkpt>
      <trkpt lat="45.8702" lon="6.71998">
        <ele>1301</ele>
        <time>2022-08-26T19:26:09Z</time>
      </trkpt>
      <trkpt lat="45.87019" lon="6.72">
        <ele>1301</ele>
        <time>2022-08-26T19:26:10Z</time>
      </trkpt>
      <trkpt lat="45.87018" lon="6.72002">
        <ele>1301</ele>
        <time>2022-08-26T19:26:11Z</time>
      </trkpt>
      <trkpt lat="45.87016" lon="6.72004">
        <ele>1301</ele>
        <time>2022-08-26T19:26:12Z</time>
      </trkpt>
      <trkpt lat="45.87015" lon="6.72007">
        <ele>1301</ele>
        <time>2022-08-26T19:26:13Z</time>
      </trkpt>
      <trkpt lat="45.87014" lon="6.72008">
        <ele>1301</ele>
        <time>2022-08-26T19:26:14Z</time>
      </trkpt>
      <trkpt lat="45.87012" lon="6.7201">
        <ele>1301</ele>
        <time>2022-08-26T19:26:15Z</time>
      </trkpt>
      <trkpt lat="45.8701" lon="6.72012">
        <ele>1301</ele>
        <time>2022-08-26T19:26:16Z</time>
      </trkpt>
      <trkpt lat="45.87009" lon="6.72014">
        <ele>1301</ele>
        <time>2022-08-26T19:26:17Z</time>
      </trkpt>
      <trkpt lat="45.87007" lon="6.72016">
        <ele>1300</ele>
        <time>2022-08-26T19:26:18Z</time>
      </trkpt>
      <trkpt lat="45.87006" lon="6.72017">
        <ele>1299</ele>
        <time>2022-08-26T19:26:19Z</time>
      </trkpt>
      <trkpt lat="45.87004" lon="6.72019">
        <ele>1299</ele>
        <time>2022-08-26T19:26:20Z</time>
      </trkpt>
      <trkpt lat="45.87002" lon="6.7202">
        <ele>1299</ele>
        <time>2022-08-26T19:26:21Z</time>
      </trkpt>
      <trkpt lat="45.87001" lon="6.72022">
        <ele>1297</ele>
        <time>2022-08-26T19:26:23Z</time>
      </trkpt>
      <trkpt lat="45.86999" lon="6.72023">
        <ele>1296</ele>
        <time>2022-08-26T19:26:24Z</time>
      </trkpt>
      <trkpt lat="45.86997" lon="6.72025">
        <ele>1296</ele>
        <time>2022-08-26T19:26:25Z</time>
      </trkpt>
      <trkpt lat="45.86995" lon="6.72027">
        <ele>1296</ele>
        <time>2022-08-26T19:26:26Z</time>
      </trkpt>
      <trkpt lat="45.86994" lon="6.72029">
        <ele>1294</ele>
        <time>2022-08-26T19:26:28Z</time>
      </trkpt>
      <trkpt lat="45.86992" lon="6.7203">
        <ele>1294</ele>
        <time>2022-08-26T19:26:29Z</time>
      </trkpt>
      <trkpt lat="45.8699" lon="6.72032">
        <ele>1294</ele>
        <time>2022-08-26T19:26:30Z</time>
      </trkpt>
      <trkpt lat="45.86989" lon="6.72035">
        <ele>1294</ele>
        <time>2022-08-26T19:26:31Z</time>
      </trkpt>
      <trkpt lat="45.86987" lon="6.72038">
        <ele>1293</ele>
        <time>2022-08-26T19:26:33Z</time>
      </trkpt>
      <trkpt lat="45.86985" lon="6.72041">
        <ele>1293</ele>
        <time>2022-08-26T19:26:34Z</time>
      </trkpt>
      <trkpt lat="45.86984" lon="6.72044">
        <ele>1291</ele>
        <time>2022-08-26T19:26:35Z</time>
      </trkpt>
      <trkpt lat="45.86982" lon="6.72047">
        <ele>1290</ele>
        <time>2022-08-26T19:26:36Z</time>
      </trkpt>
      <trkpt lat="45.86979" lon="6.7205">
        <ele>1290</ele>
        <time>2022-08-26T19:26:37Z</time>
      </trkpt>
      <trkpt lat="45.86977" lon="6.72053">
        <ele>1290</ele>
        <time>2022-08-26T19:26:38Z</time>
      </trkpt>
      <trkpt lat="45.86976" lon="6.72054">
        <ele>1289</ele>
        <time>2022-08-26T19:26:39Z</time>
      </trkpt>
      <trkpt lat="45.86975" lon="6.72055">
        <ele>1288</ele>
        <time>2022-08-26T19:26:40Z</time>
      </trkpt>
      <trkpt lat="45.86974" lon="6.72057">
        <ele>1287</ele>
        <time>2022-08-26T19:26:41Z</time>
      </trkpt>
      <trkpt lat="45.86974" lon="6.72058">
        <ele>1287</ele>
        <time>2022-08-26T19:26:42Z</time>
      </trkpt>
      <trkpt lat="45.86968" lon="6.72064">
        <ele>1287</ele>
        <time>2022-08-26T19:26:43Z</time>
      </trkpt>
      <trkpt lat="45.86966" lon="6.72066">
        <ele>1286</ele>
        <time>2022-08-26T19:26:44Z</time>
      </trkpt>
      <trkpt lat="45.86964" lon="6.72067">
        <ele>1285</ele>
        <time>2022-08-26T19:26:45Z</time>
      </trkpt>
      <trkpt lat="45.86962" lon="6.72068">
        <ele>1285</ele>
        <time>2022-08-26T19:26:46Z</time>
      </trkpt>
      <trkpt lat="45.8696" lon="6.7207">
        <ele>1285</ele>
        <time>2022-08-26T19:26:47Z</time>
      </trkpt>
      <trkpt lat="45.86959" lon="6.72071">
        <ele>1284</ele>
        <time>2022-08-26T19:26:48Z</time>
      </trkpt>
      <trkpt lat="45.86958" lon="6.72072">
        <ele>1283</ele>
        <time>2022-08-26T19:26:49Z</time>
      </trkpt>
      <trkpt lat="45.86957" lon="6.72073">
        <ele>1282</ele>
        <time>2022-08-26T19:26:50Z</time>
      </trkpt>
      <trkpt lat="45.86949" lon="6.7208">
        <ele>1282</ele>
        <time>2022-08-26T19:26:52Z</time>
      </trkpt>
      <trkpt lat="45.86948" lon="6.72083">
        <ele>1282</ele>
        <time>2022-08-26T19:26:53Z</time>
      </trkpt>
      <trkpt lat="45.86946" lon="6.72085">
        <ele>1282</ele>
        <time>2022-08-26T19:26:54Z</time>
      </trkpt>
      <trkpt lat="45.86944" lon="6.72087">
        <ele>1281</ele>
        <time>2022-08-26T19:26:55Z</time>
      </trkpt>
      <trkpt lat="45.86942" lon="6.72088">
        <ele>1281</ele>
        <time>2022-08-26T19:26:56Z</time>
      </trkpt>
      <trkpt lat="45.86939" lon="6.72088">
        <ele>1281</ele>
        <time>2022-08-26T19:26:57Z</time>
      </trkpt>
      <trkpt lat="45.86937" lon="6.72089">
        <ele>1280</ele>
        <time>2022-08-26T19:26:58Z</time>
      </trkpt>
      <trkpt lat="45.8693" lon="6.72091">
        <ele>1280</ele>
        <time>2022-08-26T19:26:59Z</time>
      </trkpt>
      <trkpt lat="45.86921" lon="6.72096">
        <ele>1280</ele>
        <time>2022-08-26T19:27:02Z</time>
      </trkpt>
      <trkpt lat="45.8692" lon="6.72097">
        <ele>1280</ele>
        <time>2022-08-26T19:27:03Z</time>
      </trkpt>
      <trkpt lat="45.86919" lon="6.72097">
        <ele>1280</ele>
        <time>2022-08-26T19:27:04Z</time>
      </trkpt>
      <trkpt lat="45.86918" lon="6.72098">
        <ele>1280</ele>
        <time>2022-08-26T19:27:05Z</time>
      </trkpt>
      <trkpt lat="45.86917" lon="6.72098">
        <ele>1281</ele>
        <time>2022-08-26T19:27:07Z</time>
      </trkpt>
      <trkpt lat="45.86916" lon="6.72099">
        <ele>1281</ele>
        <time>2022-08-26T19:27:08Z</time>
      </trkpt>
      <trkpt lat="45.86915" lon="6.72099">
        <ele>1281</ele>
        <time>2022-08-26T19:27:09Z</time>
      </trkpt>
      <trkpt lat="45.86914" lon="6.721">
        <ele>1281</ele>
        <time>2022-08-26T19:27:10Z</time>
      </trkpt>
      <trkpt lat="45.86913" lon="6.721">
        <ele>1281</ele>
        <time>2022-08-26T19:27:11Z</time>
      </trkpt>
      <trkpt lat="45.86911" lon="6.72101">
        <ele>1281</ele>
        <time>2022-08-26T19:27:12Z</time>
      </trkpt>
      <trkpt lat="45.86909" lon="6.72101">
        <ele>1282</ele>
        <time>2022-08-26T19:27:13Z</time>
      </trkpt>
      <trkpt lat="45.86907" lon="6.72101">
        <ele>1282</ele>
        <time>2022-08-26T19:27:15Z</time>
      </trkpt>
      <trkpt lat="45.86905" lon="6.72101">
        <ele>1282</ele>
        <time>2022-08-26T19:27:16Z</time>
      </trkpt>
      <trkpt lat="45.86903" lon="6.72102">
        <ele>1283</ele>
        <time>2022-08-26T19:27:17Z</time>
      </trkpt>
      <trkpt lat="45.86901" lon="6.72103">
        <ele>1283</ele>
        <time>2022-08-26T19:27:19Z</time>
      </trkpt>
      <trkpt lat="45.86899" lon="6.72105">
        <ele>1284</ele>
        <time>2022-08-26T19:27:21Z</time>
      </trkpt>
      <trkpt lat="45.86898" lon="6.72106">
        <ele>1284</ele>
        <time>2022-08-26T19:27:22Z</time>
      </trkpt>
      <trkpt lat="45.86896" lon="6.72108">
        <ele>1284</ele>
        <time>2022-08-26T19:27:23Z</time>
      </trkpt>
      <trkpt lat="45.86894" lon="6.72109">
        <ele>1284</ele>
        <time>2022-08-26T19:27:24Z</time>
      </trkpt>
      <trkpt lat="45.86892" lon="6.7211">
        <ele>1285</ele>
        <time>2022-08-26T19:27:26Z</time>
      </trkpt>
      <trkpt lat="45.86891" lon="6.72111">
        <ele>1285</ele>
        <time>2022-08-26T19:27:27Z</time>
      </trkpt>
      <trkpt lat="45.86889" lon="6.72112">
        <ele>1285</ele>
        <time>2022-08-26T19:27:28Z</time>
      </trkpt>
      <trkpt lat="45.86887" lon="6.72112">
        <ele>1285</ele>
        <time>2022-08-26T19:27:30Z</time>
      </trkpt>
      <trkpt lat="45.86885" lon="6.72113">
        <ele>1286</ele>
        <time>2022-08-26T19:27:31Z</time>
      </trkpt>
      <trkpt lat="45.86884" lon="6.72113">
        <ele>1286</ele>
        <time>2022-08-26T19:27:32Z</time>
      </trkpt>
      <trkpt lat="45.86883" lon="6.72114">
        <ele>1286</ele>
        <time>2022-08-26T19:27:33Z</time>
      </trkpt>
      <trkpt lat="45.86882" lon="6.72114">
        <ele>1286</ele>
        <time>2022-08-26T19:27:34Z</time>
      </trkpt>
      <trkpt lat="45.86881" lon="6.72115">
        <ele>1286</ele>
        <time>2022-08-26T19:27:36Z</time>
      </trkpt>
      <trkpt lat="45.8688" lon="6.72115">
        <ele>1287</ele>
        <time>2022-08-26T19:27:38Z</time>
      </trkpt>
      <trkpt lat="45.86879" lon="6.72115">
        <ele>1287</ele>
        <time>2022-08-26T19:27:39Z</time>
      </trkpt>
      <trkpt lat="45.86878" lon="6.72116">
        <ele>1287</ele>
        <time>2022-08-26T19:27:40Z</time>
      </trkpt>
      <trkpt lat="45.86878" lon="6.72116">
        <ele>1287</ele>
        <time>2022-08-26T19:27:41Z</time>
      </trkpt>
      <trkpt lat="45.86877" lon="6.72117">
        <ele>1288</ele>
        <time>2022-08-26T19:27:43Z</time>
      </trkpt>
      <trkpt lat="45.86876" lon="6.72117">
        <ele>1288</ele>
        <time>2022-08-26T19:27:44Z</time>
      </trkpt>
      <trkpt lat="45.86875" lon="6.72118">
        <ele>1289</ele>
        <time>2022-08-26T19:27:45Z</time>
      </trkpt>
      <trkpt lat="45.86873" lon="6.72118">
        <ele>1289</ele>
        <time>2022-08-26T19:27:46Z</time>
      </trkpt>
      <trkpt lat="45.86872" lon="6.72118">
        <ele>1290</ele>
        <time>2022-08-26T19:27:48Z</time>
      </trkpt>
      <trkpt lat="45.86871" lon="6.72119">
        <ele>1290</ele>
        <time>2022-08-26T19:27:49Z</time>
      </trkpt>
      <trkpt lat="45.8687" lon="6.72119">
        <ele>1290</ele>
        <time>2022-08-26T19:27:50Z</time>
      </trkpt>
      <trkpt lat="45.86869" lon="6.7212">
        <ele>1290</ele>
        <time>2022-08-26T19:27:51Z</time>
      </trkpt>
      <trkpt lat="45.86868" lon="6.7212">
        <ele>1290</ele>
        <time>2022-08-26T19:27:53Z</time>
      </trkpt>
      <trkpt lat="45.86867" lon="6.72121">
        <ele>1290</ele>
        <time>2022-08-26T19:27:54Z</time>
      </trkpt>
      <trkpt lat="45.86866" lon="6.72121">
        <ele>1290</ele>
        <time>2022-08-26T19:27:55Z</time>
      </trkpt>
      <trkpt lat="45.86864" lon="6.72121">
        <ele>1291</ele>
        <time>2022-08-26T19:27:56Z</time>
      </trkpt>
      <trkpt lat="45.86863" lon="6.72121">
        <ele>1291</ele>
        <time>2022-08-26T19:27:58Z</time>
      </trkpt>
      <trkpt lat="45.86862" lon="6.72121">
        <ele>1291</ele>
        <time>2022-08-26T19:28:00Z</time>
      </trkpt>
      <trkpt lat="45.86861" lon="6.72122">
        <ele>1291</ele>
        <time>2022-08-26T19:28:01Z</time>
      </trkpt>
      <trkpt lat="45.86859" lon="6.72122">
        <ele>1291</ele>
        <time>2022-08-26T19:28:02Z</time>
      </trkpt>
      <trkpt lat="45.86858" lon="6.72122">
        <ele>1292</ele>
        <time>2022-08-26T19:28:03Z</time>
      </trkpt>
      <trkpt lat="45.86857" lon="6.72122">
        <ele>1292</ele>
        <time>2022-08-26T19:28:05Z</time>
      </trkpt>
      <trkpt lat="45.86856" lon="6.72122">
        <ele>1292</ele>
        <time>2022-08-26T19:28:06Z</time>
      </trkpt>
      <trkpt lat="45.86853" lon="6.72122">
        <ele>1292</ele>
        <time>2022-08-26T19:28:08Z</time>
      </trkpt>
      <trkpt lat="45.86851" lon="6.72122">
        <ele>1293</ele>
        <time>2022-08-26T19:28:09Z</time>
      </trkpt>
      <trkpt lat="45.86845" lon="6.72121">
        <ele>1293</ele>
        <time>2022-08-26T19:28:10Z</time>
      </trkpt>
      <trkpt lat="45.86844" lon="6.72121">
        <ele>1293</ele>
        <time>2022-08-26T19:28:12Z</time>
      </trkpt>
      <trkpt lat="45.86843" lon="6.72121">
        <ele>1293</ele>
        <time>2022-08-26T19:28:13Z</time>
      </trkpt>
      <trkpt lat="45.86842" lon="6.72121">
        <ele>1293</ele>
        <time>2022-08-26T19:28:14Z</time>
      </trkpt>
      <trkpt lat="45.86841" lon="6.72121">
        <ele>1293</ele>
        <time>2022-08-26T19:28:15Z</time>
      </trkpt>
      <trkpt lat="45.8684" lon="6.72121">
        <ele>1293</ele>
        <time>2022-08-26T19:28:17Z</time>
      </trkpt>
      <trkpt lat="45.86839" lon="6.72122">
        <ele>1292</ele>
        <time>2022-08-26T19:28:18Z</time>
      </trkpt>
      <trkpt lat="45.86838" lon="6.72122">
        <ele>1292</ele>
        <time>2022-08-26T19:28:19Z</time>
      </trkpt>
      <trkpt lat="45.86837" lon="6.72122">
        <ele>1292</ele>
        <time>2022-08-26T19:28:20Z</time>
      </trkpt>
      <trkpt lat="45.86836" lon="6.72122">
        <ele>1292</ele>
        <time>2022-08-26T19:28:21Z</time>
      </trkpt>
      <trkpt lat="45.86835" lon="6.72122">
        <ele>1292</ele>
        <time>2022-08-26T19:28:22Z</time>
      </trkpt>
      <trkpt lat="45.86833" lon="6.72122">
        <ele>1292</ele>
        <time>2022-08-26T19:28:23Z</time>
      </trkpt>
      <trkpt lat="45.86832" lon="6.72122">
        <ele>1292</ele>
        <time>2022-08-26T19:28:24Z</time>
      </trkpt>
      <trkpt lat="45.8683" lon="6.72122">
        <ele>1292</ele>
        <time>2022-08-26T19:28:25Z</time>
      </trkpt>
      <trkpt lat="45.86829" lon="6.72121">
        <ele>1292</ele>
        <time>2022-08-26T19:28:27Z</time>
      </trkpt>
      <trkpt lat="45.86827" lon="6.72121">
        <ele>1292</ele>
        <time>2022-08-26T19:28:28Z</time>
      </trkpt>
      <trkpt lat="45.86826" lon="6.72121">
        <ele>1292</ele>
        <time>2022-08-26T19:28:29Z</time>
      </trkpt>
      <trkpt lat="45.86824" lon="6.72121">
        <ele>1293</ele>
        <time>2022-08-26T19:28:30Z</time>
      </trkpt>
      <trkpt lat="45.86822" lon="6.72121">
        <ele>1293</ele>
        <time>2022-08-26T19:28:31Z</time>
      </trkpt>
      <trkpt lat="45.86819" lon="6.72121">
        <ele>1293</ele>
        <time>2022-08-26T19:28:32Z</time>
      </trkpt>
      <trkpt lat="45.86817" lon="6.72121">
        <ele>1293</ele>
        <time>2022-08-26T19:28:33Z</time>
      </trkpt>
      <trkpt lat="45.86815" lon="6.72121">
        <ele>1293</ele>
        <time>2022-08-26T19:28:34Z</time>
      </trkpt>
      <trkpt lat="45.86814" lon="6.72121">
        <ele>1293</ele>
        <time>2022-08-26T19:28:36Z</time>
      </trkpt>
      <trkpt lat="45.86812" lon="6.72121">
        <ele>1294</ele>
        <time>2022-08-26T19:28:37Z</time>
      </trkpt>
      <trkpt lat="45.86811" lon="6.72121">
        <ele>1294</ele>
        <time>2022-08-26T19:28:38Z</time>
      </trkpt>
      <trkpt lat="45.86809" lon="6.7212">
        <ele>1294</ele>
        <time>2022-08-26T19:28:39Z</time>
      </trkpt>
      <trkpt lat="45.86807" lon="6.7212">
        <ele>1294</ele>
        <time>2022-08-26T19:28:41Z</time>
      </trkpt>
      <trkpt lat="45.86806" lon="6.7212">
        <ele>1295</ele>
        <time>2022-08-26T19:28:42Z</time>
      </trkpt>
      <trkpt lat="45.86803" lon="6.72121">
        <ele>1295</ele>
        <time>2022-08-26T19:28:43Z</time>
      </trkpt>
      <trkpt lat="45.86801" lon="6.72122">
        <ele>1295</ele>
        <time>2022-08-26T19:28:44Z</time>
      </trkpt>
      <trkpt lat="45.86799" lon="6.72122">
        <ele>1295</ele>
        <time>2022-08-26T19:28:46Z</time>
      </trkpt>
      <trkpt lat="45.86797" lon="6.72123">
        <ele>1295</ele>
        <time>2022-08-26T19:28:47Z</time>
      </trkpt>
      <trkpt lat="45.86796" lon="6.72123">
        <ele>1296</ele>
        <time>2022-08-26T19:28:48Z</time>
      </trkpt>
      <trkpt lat="45.86795" lon="6.72123">
        <ele>1296</ele>
        <time>2022-08-26T19:28:49Z</time>
      </trkpt>
      <trkpt lat="45.86795" lon="6.72123">
        <ele>1296</ele>
        <time>2022-08-26T19:28:50Z</time>
      </trkpt>
      <trkpt lat="45.86794" lon="6.72123">
        <ele>1297</ele>
        <time>2022-08-26T19:28:51Z</time>
      </trkpt>
      <trkpt lat="45.86793" lon="6.72123">
        <ele>1297</ele>
        <time>2022-08-26T19:28:52Z</time>
      </trkpt>
      <trkpt lat="45.86792" lon="6.72123">
        <ele>1297</ele>
        <time>2022-08-26T19:28:53Z</time>
      </trkpt>
      <trkpt lat="45.86792" lon="6.72123">
        <ele>1297</ele>
        <time>2022-08-26T19:28:54Z</time>
      </trkpt>
      <trkpt lat="45.86791" lon="6.72123">
        <ele>1297</ele>
        <time>2022-08-26T19:28:56Z</time>
      </trkpt>
      <trkpt lat="45.8679" lon="6.72123">
        <ele>1297</ele>
        <time>2022-08-26T19:28:57Z</time>
      </trkpt>
      <trkpt lat="45.86789" lon="6.72123">
        <ele>1297</ele>
        <time>2022-08-26T19:28:59Z</time>
      </trkpt>
      <trkpt lat="45.86788" lon="6.72123">
        <ele>1297</ele>
        <time>2022-08-26T19:29:00Z</time>
      </trkpt>
      <trkpt lat="45.86788" lon="6.72123">
        <ele>1297</ele>
        <time>2022-08-26T19:29:01Z</time>
      </trkpt>
      <trkpt lat="45.86779" lon="6.72123">
        <ele>1299</ele>
        <time>2022-08-26T19:29:10Z</time>
      </trkpt>
      <trkpt lat="45.86777" lon="6.72124">
        <ele>1299</ele>
        <time>2022-08-26T19:29:11Z</time>
      </trkpt>
      <trkpt lat="45.86776" lon="6.72124">
        <ele>1299</ele>
        <time>2022-08-26T19:29:12Z</time>
      </trkpt>
      <trkpt lat="45.86775" lon="6.72124">
        <ele>1299</ele>
        <time>2022-08-26T19:29:13Z</time>
      </trkpt>
      <trkpt lat="45.86773" lon="6.72124">
        <ele>1300</ele>
        <time>2022-08-26T19:29:15Z</time>
      </trkpt>
      <trkpt lat="45.86772" lon="6.72125">
        <ele>1300</ele>
        <time>2022-08-26T19:29:17Z</time>
      </trkpt>
      <trkpt lat="45.86771" lon="6.72125">
        <ele>1301</ele>
        <time>2022-08-26T19:29:18Z</time>
      </trkpt>
      <trkpt lat="45.86769" lon="6.72125">
        <ele>1301</ele>
        <time>2022-08-26T19:29:19Z</time>
      </trkpt>
      <trkpt lat="45.86768" lon="6.72125">
        <ele>1301</ele>
        <time>2022-08-26T19:29:20Z</time>
      </trkpt>
      <trkpt lat="45.86767" lon="6.72125">
        <ele>1301</ele>
        <time>2022-08-26T19:29:22Z</time>
      </trkpt>
      <trkpt lat="45.86766" lon="6.72125">
        <ele>1302</ele>
        <time>2022-08-26T19:29:24Z</time>
      </trkpt>
      <trkpt lat="45.86765" lon="6.72125">
        <ele>1302</ele>
        <time>2022-08-26T19:29:25Z</time>
      </trkpt>
      <trkpt lat="45.86764" lon="6.72125">
        <ele>1302</ele>
        <time>2022-08-26T19:29:26Z</time>
      </trkpt>
      <trkpt lat="45.86763" lon="6.72125">
        <ele>1302</ele>
        <time>2022-08-26T19:29:27Z</time>
      </trkpt>
      <trkpt lat="45.86763" lon="6.72125">
        <ele>1302</ele>
        <time>2022-08-26T19:29:28Z</time>
      </trkpt>
      <trkpt lat="45.86762" lon="6.72125">
        <ele>1303</ele>
        <time>2022-08-26T19:29:29Z</time>
      </trkpt>
      <trkpt lat="45.86761" lon="6.72125">
        <ele>1303</ele>
        <time>2022-08-26T19:29:30Z</time>
      </trkpt>
      <trkpt lat="45.8676" lon="6.72125">
        <ele>1303</ele>
        <time>2022-08-26T19:29:31Z</time>
      </trkpt>
      <trkpt lat="45.86759" lon="6.72124">
        <ele>1304</ele>
        <time>2022-08-26T19:29:33Z</time>
      </trkpt>
      <trkpt lat="45.86758" lon="6.72124">
        <ele>1304</ele>
        <time>2022-08-26T19:29:34Z</time>
      </trkpt>
      <trkpt lat="45.86757" lon="6.72123">
        <ele>1304</ele>
        <time>2022-08-26T19:29:35Z</time>
      </trkpt>
      <trkpt lat="45.86757" lon="6.72123">
        <ele>1304</ele>
        <time>2022-08-26T19:29:36Z</time>
      </trkpt>
      <trkpt lat="45.86756" lon="6.72123">
        <ele>1305</ele>
        <time>2022-08-26T19:29:38Z</time>
      </trkpt>
      <trkpt lat="45.86755" lon="6.72122">
        <ele>1305</ele>
        <time>2022-08-26T19:29:39Z</time>
      </trkpt>
      <trkpt lat="45.86754" lon="6.72122">
        <ele>1305</ele>
        <time>2022-08-26T19:29:40Z</time>
      </trkpt>
      <trkpt lat="45.86754" lon="6.72121">
        <ele>1305</ele>
        <time>2022-08-26T19:29:41Z</time>
      </trkpt>
      <trkpt lat="45.86753" lon="6.72121">
        <ele>1305</ele>
        <time>2022-08-26T19:29:43Z</time>
      </trkpt>
      <trkpt lat="45.86752" lon="6.72121">
        <ele>1306</ele>
        <time>2022-08-26T19:29:45Z</time>
      </trkpt>
      <trkpt lat="45.86751" lon="6.7212">
        <ele>1306</ele>
        <time>2022-08-26T19:29:47Z</time>
      </trkpt>
      <trkpt lat="45.86751" lon="6.7212">
        <ele>1306</ele>
        <time>2022-08-26T19:29:48Z</time>
      </trkpt>
      <trkpt lat="45.8675" lon="6.72119">
        <ele>1306</ele>
        <time>2022-08-26T19:29:49Z</time>
      </trkpt>
      <trkpt lat="45.86749" lon="6.7212">
        <ele>1306</ele>
        <time>2022-08-26T19:29:51Z</time>
      </trkpt>
      <trkpt lat="45.86748" lon="6.7212">
        <ele>1307</ele>
        <time>2022-08-26T19:29:52Z</time>
      </trkpt>
      <trkpt lat="45.86747" lon="6.7212">
        <ele>1307</ele>
        <time>2022-08-26T19:29:53Z</time>
      </trkpt>
      <trkpt lat="45.86746" lon="6.7212">
        <ele>1307</ele>
        <time>2022-08-26T19:29:54Z</time>
      </trkpt>
      <trkpt lat="45.86745" lon="6.72121">
        <ele>1308</ele>
        <time>2022-08-26T19:29:56Z</time>
      </trkpt>
      <trkpt lat="45.86744" lon="6.72121">
        <ele>1308</ele>
        <time>2022-08-26T19:29:57Z</time>
      </trkpt>
      <trkpt lat="45.86743" lon="6.72121">
        <ele>1308</ele>
        <time>2022-08-26T19:29:58Z</time>
      </trkpt>
      <trkpt lat="45.86742" lon="6.72121">
        <ele>1309</ele>
        <time>2022-08-26T19:29:59Z</time>
      </trkpt>
      <trkpt lat="45.86741" lon="6.72122">
        <ele>1309</ele>
        <time>2022-08-26T19:30:00Z</time>
      </trkpt>
      <trkpt lat="45.8674" lon="6.72122">
        <ele>1309</ele>
        <time>2022-08-26T19:30:01Z</time>
      </trkpt>
      <trkpt lat="45.8674" lon="6.72122">
        <ele>1309</ele>
        <time>2022-08-26T19:30:02Z</time>
      </trkpt>
      <trkpt lat="45.86739" lon="6.72122">
        <ele>1309</ele>
        <time>2022-08-26T19:30:03Z</time>
      </trkpt>
      <trkpt lat="45.86738" lon="6.72122">
        <ele>1309</ele>
        <time>2022-08-26T19:30:04Z</time>
      </trkpt>
      <trkpt lat="45.86738" lon="6.72122">
        <ele>1310</ele>
        <time>2022-08-26T19:30:06Z</time>
      </trkpt>
      <trkpt lat="45.86737" lon="6.72122">
        <ele>1310</ele>
        <time>2022-08-26T19:30:07Z</time>
      </trkpt>
      <trkpt lat="45.86736" lon="6.72122">
        <ele>1310</ele>
        <time>2022-08-26T19:30:08Z</time>
      </trkpt>
      <trkpt lat="45.86735" lon="6.72122">
        <ele>1310</ele>
        <time>2022-08-26T19:30:09Z</time>
      </trkpt>
      <trkpt lat="45.86735" lon="6.72122">
        <ele>1310</ele>
        <time>2022-08-26T19:30:11Z</time>
      </trkpt>
      <trkpt lat="45.86734" lon="6.72123">
        <ele>1310</ele>
        <time>2022-08-26T19:30:12Z</time>
      </trkpt>
      <trkpt lat="45.86733" lon="6.72123">
        <ele>1311</ele>
        <time>2022-08-26T19:30:13Z</time>
      </trkpt>
      <trkpt lat="45.86732" lon="6.72123">
        <ele>1311</ele>
        <time>2022-08-26T19:30:14Z</time>
      </trkpt>
      <trkpt lat="45.86732" lon="6.72123">
        <ele>1311</ele>
        <time>2022-08-26T19:30:15Z</time>
      </trkpt>
      <trkpt lat="45.86731" lon="6.72123">
        <ele>1312</ele>
        <time>2022-08-26T19:30:16Z</time>
      </trkpt>
      <trkpt lat="45.8673" lon="6.72124">
        <ele>1312</ele>
        <time>2022-08-26T19:30:17Z</time>
      </trkpt>
      <trkpt lat="45.86729" lon="6.72125">
        <ele>1312</ele>
        <time>2022-08-26T19:30:18Z</time>
      </trkpt>
      <trkpt lat="45.86727" lon="6.72126">
        <ele>1312</ele>
        <time>2022-08-26T19:30:19Z</time>
      </trkpt>
      <trkpt lat="45.86726" lon="6.72127">
        <ele>1312</ele>
        <time>2022-08-26T19:30:21Z</time>
      </trkpt>
      <trkpt lat="45.86725" lon="6.72128">
        <ele>1313</ele>
        <time>2022-08-26T19:30:23Z</time>
      </trkpt>
      <trkpt lat="45.86724" lon="6.72129">
        <ele>1314</ele>
        <time>2022-08-26T19:30:24Z</time>
      </trkpt>
      <trkpt lat="45.86723" lon="6.72131">
        <ele>1314</ele>
        <time>2022-08-26T19:30:25Z</time>
      </trkpt>
      <trkpt lat="45.86722" lon="6.72131">
        <ele>1314</ele>
        <time>2022-08-26T19:30:26Z</time>
      </trkpt>
      <trkpt lat="45.8672" lon="6.72132">
        <ele>1314</ele>
        <time>2022-08-26T19:30:28Z</time>
      </trkpt>
      <trkpt lat="45.86719" lon="6.72132">
        <ele>1315</ele>
        <time>2022-08-26T19:30:29Z</time>
      </trkpt>
      <trkpt lat="45.86718" lon="6.72133">
        <ele>1315</ele>
        <time>2022-08-26T19:30:30Z</time>
      </trkpt>
      <trkpt lat="45.86717" lon="6.72133">
        <ele>1316</ele>
        <time>2022-08-26T19:30:31Z</time>
      </trkpt>
      <trkpt lat="45.86716" lon="6.72134">
        <ele>1316</ele>
        <time>2022-08-26T19:30:33Z</time>
      </trkpt>
      <trkpt lat="45.86714" lon="6.72134">
        <ele>1316</ele>
        <time>2022-08-26T19:30:34Z</time>
      </trkpt>
      <trkpt lat="45.86713" lon="6.72135">
        <ele>1316</ele>
        <time>2022-08-26T19:30:35Z</time>
      </trkpt>
      <trkpt lat="45.86712" lon="6.72136">
        <ele>1316</ele>
        <time>2022-08-26T19:30:36Z</time>
      </trkpt>
      <trkpt lat="45.8671" lon="6.72136">
        <ele>1316</ele>
        <time>2022-08-26T19:30:37Z</time>
      </trkpt>
      <trkpt lat="45.86709" lon="6.72137">
        <ele>1316</ele>
        <time>2022-08-26T19:30:38Z</time>
      </trkpt>
      <trkpt lat="45.86707" lon="6.72138">
        <ele>1316</ele>
        <time>2022-08-26T19:30:40Z</time>
      </trkpt>
      <trkpt lat="45.86706" lon="6.72139">
        <ele>1316</ele>
        <time>2022-08-26T19:30:41Z</time>
      </trkpt>
      <trkpt lat="45.86704" lon="6.7214">
        <ele>1316</ele>
        <time>2022-08-26T19:30:42Z</time>
      </trkpt>
      <trkpt lat="45.86704" lon="6.72141">
        <ele>1316</ele>
        <time>2022-08-26T19:30:43Z</time>
      </trkpt>
      <trkpt lat="45.86703" lon="6.72142">
        <ele>1316</ele>
        <time>2022-08-26T19:30:44Z</time>
      </trkpt>
      <trkpt lat="45.86703" lon="6.72143">
        <ele>1316</ele>
        <time>2022-08-26T19:30:45Z</time>
      </trkpt>
      <trkpt lat="45.86703" lon="6.72144">
        <ele>1315</ele>
        <time>2022-08-26T19:30:47Z</time>
      </trkpt>
      <trkpt lat="45.86702" lon="6.72146">
        <ele>1315</ele>
        <time>2022-08-26T19:30:48Z</time>
      </trkpt>
      <trkpt lat="45.86702" lon="6.72147">
        <ele>1315</ele>
        <time>2022-08-26T19:30:49Z</time>
      </trkpt>
      <trkpt lat="45.86699" lon="6.72153">
        <ele>1315</ele>
        <time>2022-08-26T19:30:50Z</time>
      </trkpt>
      <trkpt lat="45.86687" lon="6.72159">
        <ele>1315</ele>
        <time>2022-08-26T19:30:52Z</time>
      </trkpt>
      <trkpt lat="45.86685" lon="6.7216">
        <ele>1314</ele>
        <time>2022-08-26T19:30:54Z</time>
      </trkpt>
      <trkpt lat="45.86683" lon="6.72161">
        <ele>1314</ele>
        <time>2022-08-26T19:30:55Z</time>
      </trkpt>
      <trkpt lat="45.86675" lon="6.72166">
        <ele>1314</ele>
        <time>2022-08-26T19:30:56Z</time>
      </trkpt>
      <trkpt lat="45.86672" lon="6.72167">
        <ele>1314</ele>
        <time>2022-08-26T19:30:57Z</time>
      </trkpt>
      <trkpt lat="45.86669" lon="6.72168">
        <ele>1313</ele>
        <time>2022-08-26T19:30:59Z</time>
      </trkpt>
      <trkpt lat="45.86667" lon="6.7217">
        <ele>1313</ele>
        <time>2022-08-26T19:31:00Z</time>
      </trkpt>
      <trkpt lat="45.86664" lon="6.72171">
        <ele>1313</ele>
        <time>2022-08-26T19:31:01Z</time>
      </trkpt>
      <trkpt lat="45.86662" lon="6.72173">
        <ele>1313</ele>
        <time>2022-08-26T19:31:02Z</time>
      </trkpt>
      <trkpt lat="45.86654" lon="6.72177">
        <ele>1313</ele>
        <time>2022-08-26T19:31:03Z</time>
      </trkpt>
      <trkpt lat="45.86652" lon="6.72178">
        <ele>1313</ele>
        <time>2022-08-26T19:31:05Z</time>
      </trkpt>
      <trkpt lat="45.86649" lon="6.7218">
        <ele>1313</ele>
        <time>2022-08-26T19:31:06Z</time>
      </trkpt>
      <trkpt lat="45.86647" lon="6.72181">
        <ele>1313</ele>
        <time>2022-08-26T19:31:07Z</time>
      </trkpt>
      <trkpt lat="45.86645" lon="6.72182">
        <ele>1313</ele>
        <time>2022-08-26T19:31:08Z</time>
      </trkpt>
      <trkpt lat="45.86643" lon="6.72184">
        <ele>1314</ele>
        <time>2022-08-26T19:31:09Z</time>
      </trkpt>
      <trkpt lat="45.86641" lon="6.72185">
        <ele>1314</ele>
        <time>2022-08-26T19:31:10Z</time>
      </trkpt>
      <trkpt lat="45.86639" lon="6.72186">
        <ele>1315</ele>
        <time>2022-08-26T19:31:12Z</time>
      </trkpt>
      <trkpt lat="45.86638" lon="6.72187">
        <ele>1315</ele>
        <time>2022-08-26T19:31:13Z</time>
      </trkpt>
      <trkpt lat="45.86636" lon="6.72189">
        <ele>1315</ele>
        <time>2022-08-26T19:31:14Z</time>
      </trkpt>
      <trkpt lat="45.86634" lon="6.72191">
        <ele>1315</ele>
        <time>2022-08-26T19:31:15Z</time>
      </trkpt>
      <trkpt lat="45.86632" lon="6.72194">
        <ele>1315</ele>
        <time>2022-08-26T19:31:17Z</time>
      </trkpt>
      <trkpt lat="45.8663" lon="6.72198">
        <ele>1314</ele>
        <time>2022-08-26T19:31:18Z</time>
      </trkpt>
      <trkpt lat="45.86628" lon="6.72202">
        <ele>1314</ele>
        <time>2022-08-26T19:31:19Z</time>
      </trkpt>
      <trkpt lat="45.86626" lon="6.72204">
        <ele>1314</ele>
        <time>2022-08-26T19:31:20Z</time>
      </trkpt>
      <trkpt lat="45.86624" lon="6.72207">
        <ele>1313</ele>
        <time>2022-08-26T19:31:22Z</time>
      </trkpt>
      <trkpt lat="45.86622" lon="6.72209">
        <ele>1313</ele>
        <time>2022-08-26T19:31:23Z</time>
      </trkpt>
      <trkpt lat="45.8662" lon="6.72211">
        <ele>1313</ele>
        <time>2022-08-26T19:31:24Z</time>
      </trkpt>
      <trkpt lat="45.86618" lon="6.72212">
        <ele>1312</ele>
        <time>2022-08-26T19:31:25Z</time>
      </trkpt>
      <trkpt lat="45.86617" lon="6.72212">
        <ele>1311</ele>
        <time>2022-08-26T19:31:26Z</time>
      </trkpt>
      <trkpt lat="45.86616" lon="6.72213">
        <ele>1311</ele>
        <time>2022-08-26T19:31:27Z</time>
      </trkpt>
      <trkpt lat="45.86607" lon="6.72217">
        <ele>1310</ele>
        <time>2022-08-26T19:31:29Z</time>
      </trkpt>
      <trkpt lat="45.86606" lon="6.72218">
        <ele>1309</ele>
        <time>2022-08-26T19:31:30Z</time>
      </trkpt>
      <trkpt lat="45.86604" lon="6.72219">
        <ele>1309</ele>
        <time>2022-08-26T19:31:31Z</time>
      </trkpt>
      <trkpt lat="45.86598" lon="6.72223">
        <ele>1309</ele>
        <time>2022-08-26T19:31:32Z</time>
      </trkpt>
      <trkpt lat="45.86597" lon="6.72224">
        <ele>1309</ele>
        <time>2022-08-26T19:31:34Z</time>
      </trkpt>
      <trkpt lat="45.86596" lon="6.72226">
        <ele>1309</ele>
        <time>2022-08-26T19:31:36Z</time>
      </trkpt>
      <trkpt lat="45.86594" lon="6.72228">
        <ele>1308</ele>
        <time>2022-08-26T19:31:37Z</time>
      </trkpt>
      <trkpt lat="45.86593" lon="6.72229">
        <ele>1307</ele>
        <time>2022-08-26T19:31:38Z</time>
      </trkpt>
      <trkpt lat="45.86592" lon="6.72231">
        <ele>1306</ele>
        <time>2022-08-26T19:31:39Z</time>
      </trkpt>
      <trkpt lat="45.8659" lon="6.72235">
        <ele>1305</ele>
        <time>2022-08-26T19:31:41Z</time>
      </trkpt>
      <trkpt lat="45.86588" lon="6.72239">
        <ele>1305</ele>
        <time>2022-08-26T19:31:42Z</time>
      </trkpt>
      <trkpt lat="45.86587" lon="6.72243">
        <ele>1304</ele>
        <time>2022-08-26T19:31:43Z</time>
      </trkpt>
      <trkpt lat="45.86586" lon="6.72245">
        <ele>1303</ele>
        <time>2022-08-26T19:31:44Z</time>
      </trkpt>
      <trkpt lat="45.86585" lon="6.72247">
        <ele>1302</ele>
        <time>2022-08-26T19:31:46Z</time>
      </trkpt>
      <trkpt lat="45.86584" lon="6.7225">
        <ele>1301</ele>
        <time>2022-08-26T19:31:47Z</time>
      </trkpt>
      <trkpt lat="45.86583" lon="6.72252">
        <ele>1301</ele>
        <time>2022-08-26T19:31:48Z</time>
      </trkpt>
      <trkpt lat="45.86582" lon="6.72255">
        <ele>1301</ele>
        <time>2022-08-26T19:31:49Z</time>
      </trkpt>
      <trkpt lat="45.86581" lon="6.72258">
        <ele>1300</ele>
        <time>2022-08-26T19:31:50Z</time>
      </trkpt>
      <trkpt lat="45.8658" lon="6.72261">
        <ele>1299</ele>
        <time>2022-08-26T19:31:51Z</time>
      </trkpt>
      <trkpt lat="45.86578" lon="6.72265">
        <ele>1299</ele>
        <time>2022-08-26T19:31:52Z</time>
      </trkpt>
      <trkpt lat="45.86577" lon="6.72268">
        <ele>1298</ele>
        <time>2022-08-26T19:31:53Z</time>
      </trkpt>
      <trkpt lat="45.86575" lon="6.72271">
        <ele>1298</ele>
        <time>2022-08-26T19:31:54Z</time>
      </trkpt>
      <trkpt lat="45.86572" lon="6.72273">
        <ele>1298</ele>
        <time>2022-08-26T19:31:56Z</time>
      </trkpt>
      <trkpt lat="45.8657" lon="6.72276">
        <ele>1296</ele>
        <time>2022-08-26T19:31:57Z</time>
      </trkpt>
      <trkpt lat="45.86568" lon="6.72277">
        <ele>1296</ele>
        <time>2022-08-26T19:31:58Z</time>
      </trkpt>
      <trkpt lat="45.86567" lon="6.72278">
        <ele>1295</ele>
        <time>2022-08-26T19:31:59Z</time>
      </trkpt>
      <trkpt lat="45.86565" lon="6.72278">
        <ele>1295</ele>
        <time>2022-08-26T19:32:00Z</time>
      </trkpt>
      <trkpt lat="45.86564" lon="6.72279">
        <ele>1295</ele>
        <time>2022-08-26T19:32:01Z</time>
      </trkpt>
      <trkpt lat="45.86562" lon="6.7228">
        <ele>1295</ele>
        <time>2022-08-26T19:32:02Z</time>
      </trkpt>
      <trkpt lat="45.86561" lon="6.72281">
        <ele>1294</ele>
        <time>2022-08-26T19:32:03Z</time>
      </trkpt>
      <trkpt lat="45.86558" lon="6.72283">
        <ele>1294</ele>
        <time>2022-08-26T19:32:04Z</time>
      </trkpt>
      <trkpt lat="45.86555" lon="6.72285">
        <ele>1294</ele>
        <time>2022-08-26T19:32:05Z</time>
      </trkpt>
      <trkpt lat="45.86552" lon="6.72286">
        <ele>1294</ele>
        <time>2022-08-26T19:32:06Z</time>
      </trkpt>
      <trkpt lat="45.86549" lon="6.72289">
        <ele>1293</ele>
        <time>2022-08-26T19:32:08Z</time>
      </trkpt>
      <trkpt lat="45.86545" lon="6.72291">
        <ele>1293</ele>
        <time>2022-08-26T19:32:10Z</time>
      </trkpt>
      <trkpt lat="45.86542" lon="6.72293">
        <ele>1291</ele>
        <time>2022-08-26T19:32:11Z</time>
      </trkpt>
      <trkpt lat="45.8654" lon="6.72296">
        <ele>1291</ele>
        <time>2022-08-26T19:32:12Z</time>
      </trkpt>
      <trkpt lat="45.86539" lon="6.72299">
        <ele>1291</ele>
        <time>2022-08-26T19:32:13Z</time>
      </trkpt>
      <trkpt lat="45.86538" lon="6.72303">
        <ele>1291</ele>
        <time>2022-08-26T19:32:14Z</time>
      </trkpt>
      <trkpt lat="45.86536" lon="6.72306">
        <ele>1290</ele>
        <time>2022-08-26T19:32:15Z</time>
      </trkpt>
      <trkpt lat="45.86535" lon="6.7231">
        <ele>1290</ele>
        <time>2022-08-26T19:32:16Z</time>
      </trkpt>
      <trkpt lat="45.86535" lon="6.72313">
        <ele>1289</ele>
        <time>2022-08-26T19:32:17Z</time>
      </trkpt>
      <trkpt lat="45.86534" lon="6.72317">
        <ele>1289</ele>
        <time>2022-08-26T19:32:18Z</time>
      </trkpt>
      <trkpt lat="45.86533" lon="6.72321">
        <ele>1288</ele>
        <time>2022-08-26T19:32:19Z</time>
      </trkpt>
      <trkpt lat="45.86532" lon="6.72325">
        <ele>1287</ele>
        <time>2022-08-26T19:32:20Z</time>
      </trkpt>
      <trkpt lat="45.86531" lon="6.7233">
        <ele>1287</ele>
        <time>2022-08-26T19:32:21Z</time>
      </trkpt>
      <trkpt lat="45.86531" lon="6.72334">
        <ele>1287</ele>
        <time>2022-08-26T19:32:22Z</time>
      </trkpt>
      <trkpt lat="45.86528" lon="6.72337">
        <ele>1286</ele>
        <time>2022-08-26T19:32:23Z</time>
      </trkpt>
      <trkpt lat="45.86526" lon="6.72339">
        <ele>1286</ele>
        <time>2022-08-26T19:32:24Z</time>
      </trkpt>
      <trkpt lat="45.86524" lon="6.72341">
        <ele>1286</ele>
        <time>2022-08-26T19:32:25Z</time>
      </trkpt>
      <trkpt lat="45.86521" lon="6.72343">
        <ele>1286</ele>
        <time>2022-08-26T19:32:26Z</time>
      </trkpt>
      <trkpt lat="45.86517" lon="6.72347">
        <ele>1285</ele>
        <time>2022-08-26T19:32:27Z</time>
      </trkpt>
      <trkpt lat="45.86514" lon="6.72351">
        <ele>1285</ele>
        <time>2022-08-26T19:32:28Z</time>
      </trkpt>
      <trkpt lat="45.86513" lon="6.72352">
        <ele>1285</ele>
        <time>2022-08-26T19:32:29Z</time>
      </trkpt>
      <trkpt lat="45.86512" lon="6.72353">
        <ele>1285</ele>
        <time>2022-08-26T19:32:30Z</time>
      </trkpt>
      <trkpt lat="45.86512" lon="6.72354">
        <ele>1285</ele>
        <time>2022-08-26T19:32:31Z</time>
      </trkpt>
      <trkpt lat="45.86511" lon="6.72355">
        <ele>1285</ele>
        <time>2022-08-26T19:32:32Z</time>
      </trkpt>
      <trkpt lat="45.86504" lon="6.72362">
        <ele>1285</ele>
        <time>2022-08-26T19:32:34Z</time>
      </trkpt>
      <trkpt lat="45.86503" lon="6.72363">
        <ele>1285</ele>
        <time>2022-08-26T19:32:35Z</time>
      </trkpt>
      <trkpt lat="45.86502" lon="6.72364">
        <ele>1285</ele>
        <time>2022-08-26T19:32:36Z</time>
      </trkpt>
      <trkpt lat="45.86493" lon="6.72374">
        <ele>1285</ele>
        <time>2022-08-26T19:32:38Z</time>
      </trkpt>
      <trkpt lat="45.8649" lon="6.72377">
        <ele>1285</ele>
        <time>2022-08-26T19:32:39Z</time>
      </trkpt>
      <trkpt lat="45.86488" lon="6.72378">
        <ele>1285</ele>
        <time>2022-08-26T19:32:40Z</time>
      </trkpt>
      <trkpt lat="45.86487" lon="6.72381">
        <ele>1284</ele>
        <time>2022-08-26T19:32:41Z</time>
      </trkpt>
      <trkpt lat="45.86485" lon="6.72383">
        <ele>1284</ele>
        <time>2022-08-26T19:32:43Z</time>
      </trkpt>
      <trkpt lat="45.86483" lon="6.72384">
        <ele>1284</ele>
        <time>2022-08-26T19:32:44Z</time>
      </trkpt>
      <trkpt lat="45.86481" lon="6.72386">
        <ele>1284</ele>
        <time>2022-08-26T19:32:45Z</time>
      </trkpt>
      <trkpt lat="45.86479" lon="6.72388">
        <ele>1284</ele>
        <time>2022-08-26T19:32:46Z</time>
      </trkpt>
      <trkpt lat="45.86476" lon="6.72391">
        <ele>1284</ele>
        <time>2022-08-26T19:32:47Z</time>
      </trkpt>
      <trkpt lat="45.86474" lon="6.72394">
        <ele>1284</ele>
        <time>2022-08-26T19:32:48Z</time>
      </trkpt>
      <trkpt lat="45.86471" lon="6.72397">
        <ele>1283</ele>
        <time>2022-08-26T19:32:49Z</time>
      </trkpt>
      <trkpt lat="45.86462" lon="6.72403">
        <ele>1282</ele>
        <time>2022-08-26T19:32:53Z</time>
      </trkpt>
      <trkpt lat="45.8646" lon="6.72404">
        <ele>1282</ele>
        <time>2022-08-26T19:32:54Z</time>
      </trkpt>
      <trkpt lat="45.86453" lon="6.72409">
        <ele>1280</ele>
        <time>2022-08-26T19:32:57Z</time>
      </trkpt>
      <trkpt lat="45.8645" lon="6.7241">
        <ele>1280</ele>
        <time>2022-08-26T19:32:58Z</time>
      </trkpt>
      <trkpt lat="45.86448" lon="6.7241">
        <ele>1280</ele>
        <time>2022-08-26T19:32:59Z</time>
      </trkpt>
      <trkpt lat="45.86446" lon="6.72411">
        <ele>1280</ele>
        <time>2022-08-26T19:33:00Z</time>
      </trkpt>
      <trkpt lat="45.86444" lon="6.72411">
        <ele>1279</ele>
        <time>2022-08-26T19:33:02Z</time>
      </trkpt>
      <trkpt lat="45.86441" lon="6.72412">
        <ele>1278</ele>
        <time>2022-08-26T19:33:03Z</time>
      </trkpt>
      <trkpt lat="45.86438" lon="6.72412">
        <ele>1278</ele>
        <time>2022-08-26T19:33:04Z</time>
      </trkpt>
      <trkpt lat="45.86435" lon="6.72412">
        <ele>1278</ele>
        <time>2022-08-26T19:33:05Z</time>
      </trkpt>
      <trkpt lat="45.86432" lon="6.72412">
        <ele>1278</ele>
        <time>2022-08-26T19:33:06Z</time>
      </trkpt>
      <trkpt lat="45.8643" lon="6.72412">
        <ele>1278</ele>
        <time>2022-08-26T19:33:07Z</time>
      </trkpt>
      <trkpt lat="45.86428" lon="6.72413">
        <ele>1278</ele>
        <time>2022-08-26T19:33:08Z</time>
      </trkpt>
      <trkpt lat="45.86427" lon="6.72413">
        <ele>1278</ele>
        <time>2022-08-26T19:33:09Z</time>
      </trkpt>
      <trkpt lat="45.86426" lon="6.72413">
        <ele>1277</ele>
        <time>2022-08-26T19:33:10Z</time>
      </trkpt>
      <trkpt lat="45.86418" lon="6.72417">
        <ele>1277</ele>
        <time>2022-08-26T19:33:12Z</time>
      </trkpt>
      <trkpt lat="45.86416" lon="6.72419">
        <ele>1277</ele>
        <time>2022-08-26T19:33:13Z</time>
      </trkpt>
      <trkpt lat="45.86415" lon="6.72421">
        <ele>1276</ele>
        <time>2022-08-26T19:33:14Z</time>
      </trkpt>
      <trkpt lat="45.86413" lon="6.72423">
        <ele>1276</ele>
        <time>2022-08-26T19:33:15Z</time>
      </trkpt>
      <trkpt lat="45.86411" lon="6.72425">
        <ele>1277</ele>
        <time>2022-08-26T19:33:16Z</time>
      </trkpt>
      <trkpt lat="45.86409" lon="6.72428">
        <ele>1277</ele>
        <time>2022-08-26T19:33:17Z</time>
      </trkpt>
      <trkpt lat="45.86407" lon="6.72431">
        <ele>1277</ele>
        <time>2022-08-26T19:33:18Z</time>
      </trkpt>
      <trkpt lat="45.86404" lon="6.72434">
        <ele>1277</ele>
        <time>2022-08-26T19:33:19Z</time>
      </trkpt>
      <trkpt lat="45.86402" lon="6.72436">
        <ele>1277</ele>
        <time>2022-08-26T19:33:21Z</time>
      </trkpt>
      <trkpt lat="45.864" lon="6.72439">
        <ele>1277</ele>
        <time>2022-08-26T19:33:22Z</time>
      </trkpt>
      <trkpt lat="45.86398" lon="6.72441">
        <ele>1277</ele>
        <time>2022-08-26T19:33:23Z</time>
      </trkpt>
      <trkpt lat="45.86396" lon="6.72443">
        <ele>1277</ele>
        <time>2022-08-26T19:33:24Z</time>
      </trkpt>
      <trkpt lat="45.86394" lon="6.72444">
        <ele>1277</ele>
        <time>2022-08-26T19:33:25Z</time>
      </trkpt>
      <trkpt lat="45.86392" lon="6.72446">
        <ele>1277</ele>
        <time>2022-08-26T19:33:26Z</time>
      </trkpt>
      <trkpt lat="45.8639" lon="6.72448">
        <ele>1277</ele>
        <time>2022-08-26T19:33:28Z</time>
      </trkpt>
      <trkpt lat="45.86388" lon="6.72449">
        <ele>1277</ele>
        <time>2022-08-26T19:33:29Z</time>
      </trkpt>
      <trkpt lat="45.86387" lon="6.7245">
        <ele>1277</ele>
        <time>2022-08-26T19:33:31Z</time>
      </trkpt>
      <trkpt lat="45.86386" lon="6.72451">
        <ele>1277</ele>
        <time>2022-08-26T19:33:32Z</time>
      </trkpt>
      <trkpt lat="45.86385" lon="6.72452">
        <ele>1278</ele>
        <time>2022-08-26T19:33:33Z</time>
      </trkpt>
      <trkpt lat="45.86377" lon="6.72458">
        <ele>1278</ele>
        <time>2022-08-26T19:33:35Z</time>
      </trkpt>
      <trkpt lat="45.86375" lon="6.7246">
        <ele>1278</ele>
        <time>2022-08-26T19:33:36Z</time>
      </trkpt>
      <trkpt lat="45.86373" lon="6.72461">
        <ele>1278</ele>
        <time>2022-08-26T19:33:37Z</time>
      </trkpt>
      <trkpt lat="45.86372" lon="6.72463">
        <ele>1278</ele>
        <time>2022-08-26T19:33:38Z</time>
      </trkpt>
      <trkpt lat="45.8637" lon="6.72465">
        <ele>1278</ele>
        <time>2022-08-26T19:33:39Z</time>
      </trkpt>
      <trkpt lat="45.86368" lon="6.72466">
        <ele>1278</ele>
        <time>2022-08-26T19:33:40Z</time>
      </trkpt>
      <trkpt lat="45.86366" lon="6.72468">
        <ele>1278</ele>
        <time>2022-08-26T19:33:42Z</time>
      </trkpt>
      <trkpt lat="45.86363" lon="6.72471">
        <ele>1278</ele>
        <time>2022-08-26T19:33:44Z</time>
      </trkpt>
      <trkpt lat="45.86361" lon="6.72473">
        <ele>1278</ele>
        <time>2022-08-26T19:33:46Z</time>
      </trkpt>
      <trkpt lat="45.86358" lon="6.72475">
        <ele>1279</ele>
        <time>2022-08-26T19:33:48Z</time>
      </trkpt>
      <trkpt lat="45.86356" lon="6.72478">
        <ele>1279</ele>
        <time>2022-08-26T19:33:50Z</time>
      </trkpt>
      <trkpt lat="45.86353" lon="6.72481">
        <ele>1279</ele>
        <time>2022-08-26T19:33:52Z</time>
      </trkpt>
      <trkpt lat="45.8635" lon="6.72483">
        <ele>1279</ele>
        <time>2022-08-26T19:33:54Z</time>
      </trkpt>
      <trkpt lat="45.86348" lon="6.72487">
        <ele>1279</ele>
        <time>2022-08-26T19:33:56Z</time>
      </trkpt>
      <trkpt lat="45.86345" lon="6.72489">
        <ele>1279</ele>
        <time>2022-08-26T19:33:58Z</time>
      </trkpt>
      <trkpt lat="45.86342" lon="6.72493">
        <ele>1279</ele>
        <time>2022-08-26T19:34:00Z</time>
      </trkpt>
      <trkpt lat="45.8634" lon="6.72495">
        <ele>1279</ele>
        <time>2022-08-26T19:34:02Z</time>
      </trkpt>
      <trkpt lat="45.86336" lon="6.725">
        <ele>1279</ele>
        <time>2022-08-26T19:34:05Z</time>
      </trkpt>
      <trkpt lat="45.86334" lon="6.72503">
        <ele>1280</ele>
        <time>2022-08-26T19:34:07Z</time>
      </trkpt>
      <trkpt lat="45.86332" lon="6.72506">
        <ele>1280</ele>
        <time>2022-08-26T19:34:09Z</time>
      </trkpt>
      <trkpt lat="45.8633" lon="6.72508">
        <ele>1280</ele>
        <time>2022-08-26T19:34:11Z</time>
      </trkpt>
      <trkpt lat="45.86327" lon="6.72511">
        <ele>1281</ele>
        <time>2022-08-26T19:34:13Z</time>
      </trkpt>
      <trkpt lat="45.86325" lon="6.72513">
        <ele>1281</ele>
        <time>2022-08-26T19:34:15Z</time>
      </trkpt>
      <trkpt lat="45.86324" lon="6.72515">
        <ele>1281</ele>
        <time>2022-08-26T19:34:17Z</time>
      </trkpt>
      <trkpt lat="45.86322" lon="6.72517">
        <ele>1281</ele>
        <time>2022-08-26T19:34:19Z</time>
      </trkpt>
      <trkpt lat="45.86319" lon="6.72519">
        <ele>1282</ele>
        <time>2022-08-26T19:34:21Z</time>
      </trkpt>
      <trkpt lat="45.86317" lon="6.72521">
        <ele>1282</ele>
        <time>2022-08-26T19:34:23Z</time>
      </trkpt>
      <trkpt lat="45.86314" lon="6.72522">
        <ele>1282</ele>
        <time>2022-08-26T19:34:25Z</time>
      </trkpt>
      <trkpt lat="45.86312" lon="6.72522">
        <ele>1282</ele>
        <time>2022-08-26T19:34:26Z</time>
      </trkpt>
      <trkpt lat="45.86311" lon="6.72522">
        <ele>1282</ele>
        <time>2022-08-26T19:34:27Z</time>
      </trkpt>
      <trkpt lat="45.86309" lon="6.72522">
        <ele>1283</ele>
        <time>2022-08-26T19:34:28Z</time>
      </trkpt>
      <trkpt lat="45.86306" lon="6.72521">
        <ele>1283</ele>
        <time>2022-08-26T19:34:30Z</time>
      </trkpt>
      <trkpt lat="45.86302" lon="6.7252">
        <ele>1284</ele>
        <time>2022-08-26T19:34:32Z</time>
      </trkpt>
      <trkpt lat="45.86301" lon="6.72519">
        <ele>1284</ele>
        <time>2022-08-26T19:34:33Z</time>
      </trkpt>
      <trkpt lat="45.86299" lon="6.72518">
        <ele>1284</ele>
        <time>2022-08-26T19:34:35Z</time>
      </trkpt>
      <trkpt lat="45.86297" lon="6.72517">
        <ele>1284</ele>
        <time>2022-08-26T19:34:36Z</time>
      </trkpt>
      <trkpt lat="45.86295" lon="6.72516">
        <ele>1284</ele>
        <time>2022-08-26T19:34:37Z</time>
      </trkpt>
      <trkpt lat="45.86293" lon="6.72516">
        <ele>1284</ele>
        <time>2022-08-26T19:34:38Z</time>
      </trkpt>
      <trkpt lat="45.8629" lon="6.72514">
        <ele>1284</ele>
        <time>2022-08-26T19:34:40Z</time>
      </trkpt>
      <trkpt lat="45.86287" lon="6.72513">
        <ele>1285</ele>
        <time>2022-08-26T19:34:42Z</time>
      </trkpt>
      <trkpt lat="45.86286" lon="6.72512">
        <ele>1285</ele>
        <time>2022-08-26T19:34:43Z</time>
      </trkpt>
      <trkpt lat="45.86284" lon="6.72511">
        <ele>1285</ele>
        <time>2022-08-26T19:34:44Z</time>
      </trkpt>
      <trkpt lat="45.86282" lon="6.7251">
        <ele>1284</ele>
        <time>2022-08-26T19:34:45Z</time>
      </trkpt>
      <trkpt lat="45.86278" lon="6.7251">
        <ele>1284</ele>
        <time>2022-08-26T19:34:47Z</time>
      </trkpt>
      <trkpt lat="45.86276" lon="6.7251">
        <ele>1284</ele>
        <time>2022-08-26T19:34:48Z</time>
      </trkpt>
      <trkpt lat="45.86274" lon="6.72511">
        <ele>1285</ele>
        <time>2022-08-26T19:34:49Z</time>
      </trkpt>
      <trkpt lat="45.86271" lon="6.72511">
        <ele>1285</ele>
        <time>2022-08-26T19:34:50Z</time>
      </trkpt>
      <trkpt lat="45.86267" lon="6.72512">
        <ele>1285</ele>
        <time>2022-08-26T19:34:51Z</time>
      </trkpt>
      <trkpt lat="45.86266" lon="6.72512">
        <ele>1286</ele>
        <time>2022-08-26T19:34:52Z</time>
      </trkpt>
      <trkpt lat="45.86263" lon="6.72512">
        <ele>1286</ele>
        <time>2022-08-26T19:34:53Z</time>
      </trkpt>
      <trkpt lat="45.86261" lon="6.72511">
        <ele>1285</ele>
        <time>2022-08-26T19:34:54Z</time>
      </trkpt>
      <trkpt lat="45.86259" lon="6.72511">
        <ele>1285</ele>
        <time>2022-08-26T19:34:55Z</time>
      </trkpt>
      <trkpt lat="45.86255" lon="6.7251">
        <ele>1285</ele>
        <time>2022-08-26T19:34:56Z</time>
      </trkpt>
      <trkpt lat="45.86254" lon="6.7251">
        <ele>1285</ele>
        <time>2022-08-26T19:34:57Z</time>
      </trkpt>
      <trkpt lat="45.86252" lon="6.72509">
        <ele>1285</ele>
        <time>2022-08-26T19:34:58Z</time>
      </trkpt>
      <trkpt lat="45.8625" lon="6.72509">
        <ele>1285</ele>
        <time>2022-08-26T19:34:59Z</time>
      </trkpt>
      <trkpt lat="45.86247" lon="6.72508">
        <ele>1285</ele>
        <time>2022-08-26T19:35:00Z</time>
      </trkpt>
      <trkpt lat="45.86245" lon="6.72508">
        <ele>1285</ele>
        <time>2022-08-26T19:35:01Z</time>
      </trkpt>
      <trkpt lat="45.86243" lon="6.72509">
        <ele>1285</ele>
        <time>2022-08-26T19:35:02Z</time>
      </trkpt>
      <trkpt lat="45.8624" lon="6.72509">
        <ele>1285</ele>
        <time>2022-08-26T19:35:03Z</time>
      </trkpt>
      <trkpt lat="45.86238" lon="6.72509">
        <ele>1285</ele>
        <time>2022-08-26T19:35:04Z</time>
      </trkpt>
      <trkpt lat="45.86236" lon="6.72509">
        <ele>1285</ele>
        <time>2022-08-26T19:35:05Z</time>
      </trkpt>
      <trkpt lat="45.86234" lon="6.72509">
        <ele>1285</ele>
        <time>2022-08-26T19:35:06Z</time>
      </trkpt>
      <trkpt lat="45.86231" lon="6.72509">
        <ele>1285</ele>
        <time>2022-08-26T19:35:07Z</time>
      </trkpt>
      <trkpt lat="45.8623" lon="6.72509">
        <ele>1285</ele>
        <time>2022-08-26T19:35:08Z</time>
      </trkpt>
      <trkpt lat="45.86227" lon="6.7251">
        <ele>1285</ele>
        <time>2022-08-26T19:35:10Z</time>
      </trkpt>
      <trkpt lat="45.86225" lon="6.72509">
        <ele>1285</ele>
        <time>2022-08-26T19:35:11Z</time>
      </trkpt>
      <trkpt lat="45.86223" lon="6.7251">
        <ele>1285</ele>
        <time>2022-08-26T19:35:12Z</time>
      </trkpt>
      <trkpt lat="45.86221" lon="6.7251">
        <ele>1285</ele>
        <time>2022-08-26T19:35:13Z</time>
      </trkpt>
      <trkpt lat="45.86219" lon="6.7251">
        <ele>1285</ele>
        <time>2022-08-26T19:35:14Z</time>
      </trkpt>
      <trkpt lat="45.86217" lon="6.72511">
        <ele>1285</ele>
        <time>2022-08-26T19:35:15Z</time>
      </trkpt>
      <trkpt lat="45.86214" lon="6.72511">
        <ele>1285</ele>
        <time>2022-08-26T19:35:16Z</time>
      </trkpt>
      <trkpt lat="45.86213" lon="6.72512">
        <ele>1285</ele>
        <time>2022-08-26T19:35:17Z</time>
      </trkpt>
      <trkpt lat="45.8621" lon="6.72512">
        <ele>1285</ele>
        <time>2022-08-26T19:35:18Z</time>
      </trkpt>
      <trkpt lat="45.86208" lon="6.72513">
        <ele>1285</ele>
        <time>2022-08-26T19:35:19Z</time>
      </trkpt>
      <trkpt lat="45.86206" lon="6.72513">
        <ele>1285</ele>
        <time>2022-08-26T19:35:20Z</time>
      </trkpt>
      <trkpt lat="45.86204" lon="6.72514">
        <ele>1285</ele>
        <time>2022-08-26T19:35:21Z</time>
      </trkpt>
      <trkpt lat="45.86202" lon="6.72514">
        <ele>1285</ele>
        <time>2022-08-26T19:35:22Z</time>
      </trkpt>
      <trkpt lat="45.86197" lon="6.72515">
        <ele>1285</ele>
        <time>2022-08-26T19:35:24Z</time>
      </trkpt>
      <trkpt lat="45.86192" lon="6.72515">
        <ele>1285</ele>
        <time>2022-08-26T19:35:26Z</time>
      </trkpt>
      <trkpt lat="45.8619" lon="6.72515">
        <ele>1285</ele>
        <time>2022-08-26T19:35:27Z</time>
      </trkpt>
      <trkpt lat="45.86187" lon="6.72515">
        <ele>1285</ele>
        <time>2022-08-26T19:35:28Z</time>
      </trkpt>
      <trkpt lat="45.86186" lon="6.72515">
        <ele>1285</ele>
        <time>2022-08-26T19:35:29Z</time>
      </trkpt>
      <trkpt lat="45.86184" lon="6.72515">
        <ele>1285</ele>
        <time>2022-08-26T19:35:30Z</time>
      </trkpt>
      <trkpt lat="45.86181" lon="6.72515">
        <ele>1285</ele>
        <time>2022-08-26T19:35:31Z</time>
      </trkpt>
      <trkpt lat="45.86179" lon="6.72515">
        <ele>1285</ele>
        <time>2022-08-26T19:35:32Z</time>
      </trkpt>
      <trkpt lat="45.86176" lon="6.72515">
        <ele>1285</ele>
        <time>2022-08-26T19:35:33Z</time>
      </trkpt>
      <trkpt lat="45.86175" lon="6.72515">
        <ele>1285</ele>
        <time>2022-08-26T19:35:34Z</time>
      </trkpt>
      <trkpt lat="45.86173" lon="6.72516">
        <ele>1285</ele>
        <time>2022-08-26T19:35:35Z</time>
      </trkpt>
      <trkpt lat="45.8617" lon="6.72516">
        <ele>1285</ele>
        <time>2022-08-26T19:35:36Z</time>
      </trkpt>
      <trkpt lat="45.86168" lon="6.72516">
        <ele>1285</ele>
        <time>2022-08-26T19:35:37Z</time>
      </trkpt>
      <trkpt lat="45.86165" lon="6.72516">
        <ele>1285</ele>
        <time>2022-08-26T19:35:38Z</time>
      </trkpt>
      <trkpt lat="45.86163" lon="6.72516">
        <ele>1285</ele>
        <time>2022-08-26T19:35:39Z</time>
      </trkpt>
      <trkpt lat="45.86161" lon="6.72517">
        <ele>1285</ele>
        <time>2022-08-26T19:35:40Z</time>
      </trkpt>
      <trkpt lat="45.86159" lon="6.72517">
        <ele>1286</ele>
        <time>2022-08-26T19:35:41Z</time>
      </trkpt>
      <trkpt lat="45.86156" lon="6.72518">
        <ele>1286</ele>
        <time>2022-08-26T19:35:42Z</time>
      </trkpt>
      <trkpt lat="45.86153" lon="6.72518">
        <ele>1286</ele>
        <time>2022-08-26T19:35:43Z</time>
      </trkpt>
      <trkpt lat="45.86152" lon="6.72518">
        <ele>1286</ele>
        <time>2022-08-26T19:35:44Z</time>
      </trkpt>
      <trkpt lat="45.8615" lon="6.72519">
        <ele>1286</ele>
        <time>2022-08-26T19:35:45Z</time>
      </trkpt>
      <trkpt lat="45.86148" lon="6.72519">
        <ele>1286</ele>
        <time>2022-08-26T19:35:46Z</time>
      </trkpt>
      <trkpt lat="45.86146" lon="6.72519">
        <ele>1286</ele>
        <time>2022-08-26T19:35:47Z</time>
      </trkpt>
      <trkpt lat="45.86143" lon="6.72519">
        <ele>1286</ele>
        <time>2022-08-26T19:35:48Z</time>
      </trkpt>
      <trkpt lat="45.86141" lon="6.7252">
        <ele>1286</ele>
        <time>2022-08-26T19:35:49Z</time>
      </trkpt>
      <trkpt lat="45.86138" lon="6.72521">
        <ele>1286</ele>
        <time>2022-08-26T19:35:50Z</time>
      </trkpt>
      <trkpt lat="45.86136" lon="6.72521">
        <ele>1286</ele>
        <time>2022-08-26T19:35:51Z</time>
      </trkpt>
      <trkpt lat="45.86134" lon="6.72521">
        <ele>1286</ele>
        <time>2022-08-26T19:35:52Z</time>
      </trkpt>
      <trkpt lat="45.86132" lon="6.72522">
        <ele>1286</ele>
        <time>2022-08-26T19:35:53Z</time>
      </trkpt>
      <trkpt lat="45.86129" lon="6.72522">
        <ele>1286</ele>
        <time>2022-08-26T19:35:54Z</time>
      </trkpt>
      <trkpt lat="45.86126" lon="6.72522">
        <ele>1286</ele>
        <time>2022-08-26T19:35:55Z</time>
      </trkpt>
      <trkpt lat="45.86125" lon="6.72522">
        <ele>1286</ele>
        <time>2022-08-26T19:35:56Z</time>
      </trkpt>
      <trkpt lat="45.86123" lon="6.72523">
        <ele>1286</ele>
        <time>2022-08-26T19:35:57Z</time>
      </trkpt>
      <trkpt lat="45.8612" lon="6.72524">
        <ele>1286</ele>
        <time>2022-08-26T19:35:58Z</time>
      </trkpt>
      <trkpt lat="45.86118" lon="6.72524">
        <ele>1286</ele>
        <time>2022-08-26T19:35:59Z</time>
      </trkpt>
      <trkpt lat="45.86116" lon="6.72524">
        <ele>1286</ele>
        <time>2022-08-26T19:36:00Z</time>
      </trkpt>
      <trkpt lat="45.86114" lon="6.72525">
        <ele>1286</ele>
        <time>2022-08-26T19:36:01Z</time>
      </trkpt>
      <trkpt lat="45.86111" lon="6.72526">
        <ele>1286</ele>
        <time>2022-08-26T19:36:02Z</time>
      </trkpt>
      <trkpt lat="45.86109" lon="6.72526">
        <ele>1286</ele>
        <time>2022-08-26T19:36:03Z</time>
      </trkpt>
      <trkpt lat="45.86107" lon="6.72526">
        <ele>1286</ele>
        <time>2022-08-26T19:36:04Z</time>
      </trkpt>
      <trkpt lat="45.86103" lon="6.72528">
        <ele>1286</ele>
        <time>2022-08-26T19:36:06Z</time>
      </trkpt>
      <trkpt lat="45.86101" lon="6.72529">
        <ele>1286</ele>
        <time>2022-08-26T19:36:08Z</time>
      </trkpt>
      <trkpt lat="45.86099" lon="6.72532">
        <ele>1287</ele>
        <time>2022-08-26T19:36:09Z</time>
      </trkpt>
      <trkpt lat="45.86098" lon="6.72535">
        <ele>1287</ele>
        <time>2022-08-26T19:36:10Z</time>
      </trkpt>
      <trkpt lat="45.86096" lon="6.72537">
        <ele>1287</ele>
        <time>2022-08-26T19:36:12Z</time>
      </trkpt>
      <trkpt lat="45.86094" lon="6.7254">
        <ele>1287</ele>
        <time>2022-08-26T19:36:13Z</time>
      </trkpt>
      <trkpt lat="45.86093" lon="6.72543">
        <ele>1287</ele>
        <time>2022-08-26T19:36:14Z</time>
      </trkpt>
      <trkpt lat="45.86093" lon="6.72546">
        <ele>1287</ele>
        <time>2022-08-26T19:36:15Z</time>
      </trkpt>
      <trkpt lat="45.86093" lon="6.72551">
        <ele>1287</ele>
        <time>2022-08-26T19:36:16Z</time>
      </trkpt>
      <trkpt lat="45.86092" lon="6.72553">
        <ele>1287</ele>
        <time>2022-08-26T19:36:17Z</time>
      </trkpt>
      <trkpt lat="45.86092" lon="6.72556">
        <ele>1287</ele>
        <time>2022-08-26T19:36:18Z</time>
      </trkpt>
      <trkpt lat="45.86092" lon="6.7256">
        <ele>1287</ele>
        <time>2022-08-26T19:36:19Z</time>
      </trkpt>
      <trkpt lat="45.86092" lon="6.72564">
        <ele>1287</ele>
        <time>2022-08-26T19:36:20Z</time>
      </trkpt>
      <trkpt lat="45.86093" lon="6.72569">
        <ele>1287</ele>
        <time>2022-08-26T19:36:21Z</time>
      </trkpt>
      <trkpt lat="45.86093" lon="6.72571">
        <ele>1286</ele>
        <time>2022-08-26T19:36:22Z</time>
      </trkpt>
      <trkpt lat="45.86093" lon="6.72575">
        <ele>1286</ele>
        <time>2022-08-26T19:36:23Z</time>
      </trkpt>
      <trkpt lat="45.86093" lon="6.72579">
        <ele>1286</ele>
        <time>2022-08-26T19:36:24Z</time>
      </trkpt>
      <trkpt lat="45.86093" lon="6.72582">
        <ele>1286</ele>
        <time>2022-08-26T19:36:25Z</time>
      </trkpt>
      <trkpt lat="45.86093" lon="6.72587">
        <ele>1286</ele>
        <time>2022-08-26T19:36:26Z</time>
      </trkpt>
      <trkpt lat="45.86093" lon="6.72589">
        <ele>1286</ele>
        <time>2022-08-26T19:36:27Z</time>
      </trkpt>
      <trkpt lat="45.86093" lon="6.72592">
        <ele>1286</ele>
        <time>2022-08-26T19:36:28Z</time>
      </trkpt>
      <trkpt lat="45.86094" lon="6.72595">
        <ele>1286</ele>
        <time>2022-08-26T19:36:29Z</time>
      </trkpt>
      <trkpt lat="45.86094" lon="6.72599">
        <ele>1286</ele>
        <time>2022-08-26T19:36:30Z</time>
      </trkpt>
      <trkpt lat="45.86095" lon="6.72603">
        <ele>1286</ele>
        <time>2022-08-26T19:36:31Z</time>
      </trkpt>
      <trkpt lat="45.86095" lon="6.72605">
        <ele>1286</ele>
        <time>2022-08-26T19:36:32Z</time>
      </trkpt>
      <trkpt lat="45.86095" lon="6.72608">
        <ele>1286</ele>
        <time>2022-08-26T19:36:33Z</time>
      </trkpt>
      <trkpt lat="45.86095" lon="6.72611">
        <ele>1286</ele>
        <time>2022-08-26T19:36:34Z</time>
      </trkpt>
      <trkpt lat="45.86095" lon="6.7262">
        <ele>1286</ele>
        <time>2022-08-26T19:36:37Z</time>
      </trkpt>
      <trkpt lat="45.86095" lon="6.72623">
        <ele>1286</ele>
        <time>2022-08-26T19:36:38Z</time>
      </trkpt>
      <trkpt lat="45.86094" lon="6.72626">
        <ele>1286</ele>
        <time>2022-08-26T19:36:39Z</time>
      </trkpt>
      <trkpt lat="45.86093" lon="6.72631">
        <ele>1286</ele>
        <time>2022-08-26T19:36:40Z</time>
      </trkpt>
      <trkpt lat="45.86093" lon="6.72632">
        <ele>1286</ele>
        <time>2022-08-26T19:36:41Z</time>
      </trkpt>
      <trkpt lat="45.86091" lon="6.72635">
        <ele>1286</ele>
        <time>2022-08-26T19:36:42Z</time>
      </trkpt>
      <trkpt lat="45.8609" lon="6.72637">
        <ele>1285</ele>
        <time>2022-08-26T19:36:43Z</time>
      </trkpt>
      <trkpt lat="45.86088" lon="6.7264">
        <ele>1285</ele>
        <time>2022-08-26T19:36:44Z</time>
      </trkpt>
      <trkpt lat="45.86088" lon="6.72643">
        <ele>1285</ele>
        <time>2022-08-26T19:36:46Z</time>
      </trkpt>
      <trkpt lat="45.86087" lon="6.72646">
        <ele>1286</ele>
        <time>2022-08-26T19:36:47Z</time>
      </trkpt>
      <trkpt lat="45.86086" lon="6.72649">
        <ele>1286</ele>
        <time>2022-08-26T19:36:48Z</time>
      </trkpt>
      <trkpt lat="45.86085" lon="6.72652">
        <ele>1286</ele>
        <time>2022-08-26T19:36:49Z</time>
      </trkpt>
      <trkpt lat="45.86084" lon="6.72655">
        <ele>1286</ele>
        <time>2022-08-26T19:36:50Z</time>
      </trkpt>
      <trkpt lat="45.86084" lon="6.72661">
        <ele>1286</ele>
        <time>2022-08-26T19:36:52Z</time>
      </trkpt>
      <trkpt lat="45.86084" lon="6.72668">
        <ele>1286</ele>
        <time>2022-08-26T19:36:53Z</time>
      </trkpt>
      <trkpt lat="45.86082" lon="6.72681">
        <ele>1286</ele>
        <time>2022-08-26T19:36:57Z</time>
      </trkpt>
      <trkpt lat="45.86081" lon="6.72695">
        <ele>1287</ele>
        <time>2022-08-26T19:37:02Z</time>
      </trkpt>
      <trkpt lat="45.8608" lon="6.72698">
        <ele>1287</ele>
        <time>2022-08-26T19:37:04Z</time>
      </trkpt>
      <trkpt lat="45.8608" lon="6.72701">
        <ele>1287</ele>
        <time>2022-08-26T19:37:05Z</time>
      </trkpt>
      <trkpt lat="45.86079" lon="6.72705">
        <ele>1287</ele>
        <time>2022-08-26T19:37:06Z</time>
      </trkpt>
      <trkpt lat="45.86078" lon="6.72708">
        <ele>1287</ele>
        <time>2022-08-26T19:37:07Z</time>
      </trkpt>
      <trkpt lat="45.86076" lon="6.7271">
        <ele>1287</ele>
        <time>2022-08-26T19:37:09Z</time>
      </trkpt>
      <trkpt lat="45.86075" lon="6.72712">
        <ele>1287</ele>
        <time>2022-08-26T19:37:10Z</time>
      </trkpt>
      <trkpt lat="45.86073" lon="6.72714">
        <ele>1287</ele>
        <time>2022-08-26T19:37:11Z</time>
      </trkpt>
      <trkpt lat="45.86071" lon="6.72716">
        <ele>1287</ele>
        <time>2022-08-26T19:37:12Z</time>
      </trkpt>
      <trkpt lat="45.8607" lon="6.72718">
        <ele>1287</ele>
        <time>2022-08-26T19:37:13Z</time>
      </trkpt>
      <trkpt lat="45.86068" lon="6.7272">
        <ele>1287</ele>
        <time>2022-08-26T19:37:14Z</time>
      </trkpt>
      <trkpt lat="45.86067" lon="6.72722">
        <ele>1288</ele>
        <time>2022-08-26T19:37:15Z</time>
      </trkpt>
      <trkpt lat="45.86065" lon="6.72724">
        <ele>1288</ele>
        <time>2022-08-26T19:37:16Z</time>
      </trkpt>
      <trkpt lat="45.86064" lon="6.72725">
        <ele>1288</ele>
        <time>2022-08-26T19:37:17Z</time>
      </trkpt>
      <trkpt lat="45.86061" lon="6.72727">
        <ele>1288</ele>
        <time>2022-08-26T19:37:19Z</time>
      </trkpt>
      <trkpt lat="45.86059" lon="6.72728">
        <ele>1288</ele>
        <time>2022-08-26T19:37:20Z</time>
      </trkpt>
      <trkpt lat="45.86054" lon="6.72731">
        <ele>1288</ele>
        <time>2022-08-26T19:37:21Z</time>
      </trkpt>
      <trkpt lat="45.86049" lon="6.72735">
        <ele>1288</ele>
        <time>2022-08-26T19:37:23Z</time>
      </trkpt>
      <trkpt lat="45.86048" lon="6.72737">
        <ele>1288</ele>
        <time>2022-08-26T19:37:24Z</time>
      </trkpt>
      <trkpt lat="45.86046" lon="6.72739">
        <ele>1288</ele>
        <time>2022-08-26T19:37:25Z</time>
      </trkpt>
      <trkpt lat="45.86045" lon="6.72741">
        <ele>1288</ele>
        <time>2022-08-26T19:37:26Z</time>
      </trkpt>
      <trkpt lat="45.86043" lon="6.72743">
        <ele>1288</ele>
        <time>2022-08-26T19:37:27Z</time>
      </trkpt>
      <trkpt lat="45.8604" lon="6.72747">
        <ele>1288</ele>
        <time>2022-08-26T19:37:29Z</time>
      </trkpt>
      <trkpt lat="45.86039" lon="6.72748">
        <ele>1288</ele>
        <time>2022-08-26T19:37:30Z</time>
      </trkpt>
      <trkpt lat="45.86036" lon="6.72748">
        <ele>1288</ele>
        <time>2022-08-26T19:37:31Z</time>
      </trkpt>
      <trkpt lat="45.86034" lon="6.72749">
        <ele>1288</ele>
        <time>2022-08-26T19:37:32Z</time>
      </trkpt>
      <trkpt lat="45.86031" lon="6.72749">
        <ele>1288</ele>
        <time>2022-08-26T19:37:34Z</time>
      </trkpt>
      <trkpt lat="45.86029" lon="6.72749">
        <ele>1289</ele>
        <time>2022-08-26T19:37:35Z</time>
      </trkpt>
      <trkpt lat="45.86027" lon="6.7275">
        <ele>1289</ele>
        <time>2022-08-26T19:37:37Z</time>
      </trkpt>
      <trkpt lat="45.86026" lon="6.7275">
        <ele>1288</ele>
        <time>2022-08-26T19:37:38Z</time>
      </trkpt>
      <trkpt lat="45.86024" lon="6.72751">
        <ele>1289</ele>
        <time>2022-08-26T19:37:39Z</time>
      </trkpt>
      <trkpt lat="45.86016" lon="6.72754">
        <ele>1289</ele>
        <time>2022-08-26T19:37:40Z</time>
      </trkpt>
      <trkpt lat="45.86013" lon="6.72755">
        <ele>1289</ele>
        <time>2022-08-26T19:37:42Z</time>
      </trkpt>
      <trkpt lat="45.8601" lon="6.72757">
        <ele>1289</ele>
        <time>2022-08-26T19:37:43Z</time>
      </trkpt>
      <trkpt lat="45.86009" lon="6.72759">
        <ele>1289</ele>
        <time>2022-08-26T19:37:44Z</time>
      </trkpt>
      <trkpt lat="45.86007" lon="6.72761">
        <ele>1289</ele>
        <time>2022-08-26T19:37:45Z</time>
      </trkpt>
      <trkpt lat="45.86005" lon="6.72764">
        <ele>1289</ele>
        <time>2022-08-26T19:37:47Z</time>
      </trkpt>
      <trkpt lat="45.86004" lon="6.72766">
        <ele>1289</ele>
        <time>2022-08-26T19:37:48Z</time>
      </trkpt>
      <trkpt lat="45.86002" lon="6.72768">
        <ele>1289</ele>
        <time>2022-08-26T19:37:49Z</time>
      </trkpt>
      <trkpt lat="45.86001" lon="6.7277">
        <ele>1289</ele>
        <time>2022-08-26T19:37:50Z</time>
      </trkpt>
      <trkpt lat="45.85998" lon="6.72774">
        <ele>1289</ele>
        <time>2022-08-26T19:37:51Z</time>
      </trkpt>
      <trkpt lat="45.85997" lon="6.72775">
        <ele>1289</ele>
        <time>2022-08-26T19:37:52Z</time>
      </trkpt>
      <trkpt lat="45.85994" lon="6.72778">
        <ele>1290</ele>
        <time>2022-08-26T19:37:54Z</time>
      </trkpt>
      <trkpt lat="45.85992" lon="6.7278">
        <ele>1290</ele>
        <time>2022-08-26T19:37:55Z</time>
      </trkpt>
      <trkpt lat="45.85991" lon="6.72782">
        <ele>1290</ele>
        <time>2022-08-26T19:37:56Z</time>
      </trkpt>
      <trkpt lat="45.85986" lon="6.72787">
        <ele>1290</ele>
        <time>2022-08-26T19:37:58Z</time>
      </trkpt>
      <trkpt lat="45.85985" lon="6.72788">
        <ele>1290</ele>
        <time>2022-08-26T19:37:59Z</time>
      </trkpt>
      <trkpt lat="45.85983" lon="6.7279">
        <ele>1290</ele>
        <time>2022-08-26T19:38:00Z</time>
      </trkpt>
      <trkpt lat="45.85982" lon="6.72791">
        <ele>1290</ele>
        <time>2022-08-26T19:38:01Z</time>
      </trkpt>
      <trkpt lat="45.8598" lon="6.72793">
        <ele>1290</ele>
        <time>2022-08-26T19:38:02Z</time>
      </trkpt>
      <trkpt lat="45.85977" lon="6.72795">
        <ele>1290</ele>
        <time>2022-08-26T19:38:03Z</time>
      </trkpt>
      <trkpt lat="45.85976" lon="6.72796">
        <ele>1290</ele>
        <time>2022-08-26T19:38:04Z</time>
      </trkpt>
      <trkpt lat="45.85974" lon="6.72798">
        <ele>1290</ele>
        <time>2022-08-26T19:38:05Z</time>
      </trkpt>
      <trkpt lat="45.85972" lon="6.728">
        <ele>1290</ele>
        <time>2022-08-26T19:38:06Z</time>
      </trkpt>
      <trkpt lat="45.8597" lon="6.72802">
        <ele>1290</ele>
        <time>2022-08-26T19:38:07Z</time>
      </trkpt>
      <trkpt lat="45.85968" lon="6.72805">
        <ele>1290</ele>
        <time>2022-08-26T19:38:08Z</time>
      </trkpt>
      <trkpt lat="45.85967" lon="6.72806">
        <ele>1290</ele>
        <time>2022-08-26T19:38:09Z</time>
      </trkpt>
      <trkpt lat="45.85965" lon="6.72807">
        <ele>1290</ele>
        <time>2022-08-26T19:38:10Z</time>
      </trkpt>
      <trkpt lat="45.85964" lon="6.72809">
        <ele>1290</ele>
        <time>2022-08-26T19:38:11Z</time>
      </trkpt>
      <trkpt lat="45.85962" lon="6.72811">
        <ele>1291</ele>
        <time>2022-08-26T19:38:12Z</time>
      </trkpt>
      <trkpt lat="45.8596" lon="6.72814">
        <ele>1291</ele>
        <time>2022-08-26T19:38:13Z</time>
      </trkpt>
      <trkpt lat="45.85959" lon="6.72815">
        <ele>1291</ele>
        <time>2022-08-26T19:38:14Z</time>
      </trkpt>
      <trkpt lat="45.85957" lon="6.72817">
        <ele>1291</ele>
        <time>2022-08-26T19:38:15Z</time>
      </trkpt>
      <trkpt lat="45.85956" lon="6.72819">
        <ele>1291</ele>
        <time>2022-08-26T19:38:16Z</time>
      </trkpt>
      <trkpt lat="45.85954" lon="6.72821">
        <ele>1291</ele>
        <time>2022-08-26T19:38:17Z</time>
      </trkpt>
      <trkpt lat="45.85953" lon="6.72823">
        <ele>1291</ele>
        <time>2022-08-26T19:38:18Z</time>
      </trkpt>
      <trkpt lat="45.85951" lon="6.72825">
        <ele>1291</ele>
        <time>2022-08-26T19:38:19Z</time>
      </trkpt>
      <trkpt lat="45.8595" lon="6.72827">
        <ele>1291</ele>
        <time>2022-08-26T19:38:20Z</time>
      </trkpt>
      <trkpt lat="45.85949" lon="6.72831">
        <ele>1291</ele>
        <time>2022-08-26T19:38:22Z</time>
      </trkpt>
      <trkpt lat="45.85948" lon="6.72834">
        <ele>1291</ele>
        <time>2022-08-26T19:38:23Z</time>
      </trkpt>
      <trkpt lat="45.85947" lon="6.72838">
        <ele>1291</ele>
        <time>2022-08-26T19:38:24Z</time>
      </trkpt>
      <trkpt lat="45.85946" lon="6.7284">
        <ele>1291</ele>
        <time>2022-08-26T19:38:25Z</time>
      </trkpt>
      <trkpt lat="45.85946" lon="6.72843">
        <ele>1291</ele>
        <time>2022-08-26T19:38:26Z</time>
      </trkpt>
      <trkpt lat="45.85945" lon="6.72846">
        <ele>1291</ele>
        <time>2022-08-26T19:38:27Z</time>
      </trkpt>
      <trkpt lat="45.85945" lon="6.72849">
        <ele>1291</ele>
        <time>2022-08-26T19:38:28Z</time>
      </trkpt>
      <trkpt lat="45.85944" lon="6.72854">
        <ele>1291</ele>
        <time>2022-08-26T19:38:30Z</time>
      </trkpt>
      <trkpt lat="45.85943" lon="6.72856">
        <ele>1291</ele>
        <time>2022-08-26T19:38:31Z</time>
      </trkpt>
      <trkpt lat="45.85942" lon="6.7286">
        <ele>1291</ele>
        <time>2022-08-26T19:38:32Z</time>
      </trkpt>
      <trkpt lat="45.85941" lon="6.72861">
        <ele>1292</ele>
        <time>2022-08-26T19:38:33Z</time>
      </trkpt>
      <trkpt lat="45.8594" lon="6.72864">
        <ele>1292</ele>
        <time>2022-08-26T19:38:34Z</time>
      </trkpt>
      <trkpt lat="45.8594" lon="6.72867">
        <ele>1292</ele>
        <time>2022-08-26T19:38:35Z</time>
      </trkpt>
      <trkpt lat="45.8594" lon="6.7287">
        <ele>1292</ele>
        <time>2022-08-26T19:38:36Z</time>
      </trkpt>
      <trkpt lat="45.85939" lon="6.72873">
        <ele>1292</ele>
        <time>2022-08-26T19:38:37Z</time>
      </trkpt>
      <trkpt lat="45.85939" lon="6.72878">
        <ele>1292</ele>
        <time>2022-08-26T19:38:38Z</time>
      </trkpt>
      <trkpt lat="45.85939" lon="6.72879">
        <ele>1292</ele>
        <time>2022-08-26T19:38:39Z</time>
      </trkpt>
      <trkpt lat="45.85939" lon="6.72882">
        <ele>1292</ele>
        <time>2022-08-26T19:38:40Z</time>
      </trkpt>
      <trkpt lat="45.85939" lon="6.72886">
        <ele>1292</ele>
        <time>2022-08-26T19:38:41Z</time>
      </trkpt>
      <trkpt lat="45.85939" lon="6.72889">
        <ele>1292</ele>
        <time>2022-08-26T19:38:42Z</time>
      </trkpt>
      <trkpt lat="45.85938" lon="6.72891">
        <ele>1292</ele>
        <time>2022-08-26T19:38:43Z</time>
      </trkpt>
      <trkpt lat="45.85938" lon="6.72894">
        <ele>1292</ele>
        <time>2022-08-26T19:38:44Z</time>
      </trkpt>
      <trkpt lat="45.85937" lon="6.72897">
        <ele>1292</ele>
        <time>2022-08-26T19:38:45Z</time>
      </trkpt>
      <trkpt lat="45.85937" lon="6.729">
        <ele>1292</ele>
        <time>2022-08-26T19:38:46Z</time>
      </trkpt>
      <trkpt lat="45.85936" lon="6.72903">
        <ele>1292</ele>
        <time>2022-08-26T19:38:47Z</time>
      </trkpt>
      <trkpt lat="45.85936" lon="6.72906">
        <ele>1292</ele>
        <time>2022-08-26T19:38:48Z</time>
      </trkpt>
      <trkpt lat="45.85935" lon="6.7291">
        <ele>1292</ele>
        <time>2022-08-26T19:38:50Z</time>
      </trkpt>
      <trkpt lat="45.85934" lon="6.72913">
        <ele>1292</ele>
        <time>2022-08-26T19:38:51Z</time>
      </trkpt>
      <trkpt lat="45.85934" lon="6.72916">
        <ele>1292</ele>
        <time>2022-08-26T19:38:54Z</time>
      </trkpt>
      <trkpt lat="45.85933" lon="6.72919">
        <ele>1292</ele>
        <time>2022-08-26T19:38:55Z</time>
      </trkpt>
      <trkpt lat="45.85933" lon="6.72922">
        <ele>1292</ele>
        <time>2022-08-26T19:38:56Z</time>
      </trkpt>
      <trkpt lat="45.85933" lon="6.72925">
        <ele>1292</ele>
        <time>2022-08-26T19:38:57Z</time>
      </trkpt>
      <trkpt lat="45.85932" lon="6.72928">
        <ele>1292</ele>
        <time>2022-08-26T19:38:58Z</time>
      </trkpt>
      <trkpt lat="45.85926" lon="6.72941">
        <ele>1292</ele>
        <time>2022-08-26T19:39:03Z</time>
      </trkpt>
      <trkpt lat="45.85917" lon="6.72948">
        <ele>1292</ele>
        <time>2022-08-26T19:39:08Z</time>
      </trkpt>
      <trkpt lat="45.85914" lon="6.7295">
        <ele>1292</ele>
        <time>2022-08-26T19:39:10Z</time>
      </trkpt>
      <trkpt lat="45.85912" lon="6.72952">
        <ele>1292</ele>
        <time>2022-08-26T19:39:11Z</time>
      </trkpt>
      <trkpt lat="45.85909" lon="6.72954">
        <ele>1292</ele>
        <time>2022-08-26T19:39:13Z</time>
      </trkpt>
      <trkpt lat="45.85907" lon="6.72956">
        <ele>1292</ele>
        <time>2022-08-26T19:39:14Z</time>
      </trkpt>
      <trkpt lat="45.85903" lon="6.7296">
        <ele>1292</ele>
        <time>2022-08-26T19:39:16Z</time>
      </trkpt>
      <trkpt lat="45.85899" lon="6.72963">
        <ele>1292</ele>
        <time>2022-08-26T19:39:17Z</time>
      </trkpt>
      <trkpt lat="45.8589" lon="6.72971">
        <ele>1294</ele>
        <time>2022-08-26T19:39:21Z</time>
      </trkpt>
      <trkpt lat="45.85887" lon="6.72973">
        <ele>1293</ele>
        <time>2022-08-26T19:39:22Z</time>
      </trkpt>
      <trkpt lat="45.85884" lon="6.72974">
        <ele>1293</ele>
        <time>2022-08-26T19:39:23Z</time>
      </trkpt>
      <trkpt lat="45.85882" lon="6.72975">
        <ele>1293</ele>
        <time>2022-08-26T19:39:24Z</time>
      </trkpt>
      <trkpt lat="45.8588" lon="6.72976">
        <ele>1293</ele>
        <time>2022-08-26T19:39:25Z</time>
      </trkpt>
      <trkpt lat="45.85879" lon="6.72978">
        <ele>1293</ele>
        <time>2022-08-26T19:39:26Z</time>
      </trkpt>
      <trkpt lat="45.85877" lon="6.7298">
        <ele>1293</ele>
        <time>2022-08-26T19:39:28Z</time>
      </trkpt>
      <trkpt lat="45.85876" lon="6.72982">
        <ele>1293</ele>
        <time>2022-08-26T19:39:29Z</time>
      </trkpt>
      <trkpt lat="45.85875" lon="6.72985">
        <ele>1293</ele>
        <time>2022-08-26T19:39:30Z</time>
      </trkpt>
      <trkpt lat="45.85874" lon="6.72987">
        <ele>1293</ele>
        <time>2022-08-26T19:39:31Z</time>
      </trkpt>
      <trkpt lat="45.85873" lon="6.72989">
        <ele>1293</ele>
        <time>2022-08-26T19:39:32Z</time>
      </trkpt>
      <trkpt lat="45.85872" lon="6.72992">
        <ele>1293</ele>
        <time>2022-08-26T19:39:33Z</time>
      </trkpt>
      <trkpt lat="45.85871" lon="6.72996">
        <ele>1293</ele>
        <time>2022-08-26T19:39:34Z</time>
      </trkpt>
      <trkpt lat="45.8587" lon="6.72999">
        <ele>1293</ele>
        <time>2022-08-26T19:39:36Z</time>
      </trkpt>
      <trkpt lat="45.85869" lon="6.73002">
        <ele>1293</ele>
        <time>2022-08-26T19:39:37Z</time>
      </trkpt>
      <trkpt lat="45.85861" lon="6.73012">
        <ele>1293</ele>
        <time>2022-08-26T19:39:42Z</time>
      </trkpt>
      <trkpt lat="45.8586" lon="6.73014">
        <ele>1293</ele>
        <time>2022-08-26T19:39:44Z</time>
      </trkpt>
      <trkpt lat="45.8586" lon="6.73016">
        <ele>1293</ele>
        <time>2022-08-26T19:39:45Z</time>
      </trkpt>
      <trkpt lat="45.85859" lon="6.73017">
        <ele>1293</ele>
        <time>2022-08-26T19:39:46Z</time>
      </trkpt>
      <trkpt lat="45.85858" lon="6.73019">
        <ele>1293</ele>
        <time>2022-08-26T19:39:47Z</time>
      </trkpt>
      <trkpt lat="45.85857" lon="6.73021">
        <ele>1293</ele>
        <time>2022-08-26T19:39:48Z</time>
      </trkpt>
      <trkpt lat="45.85856" lon="6.73023">
        <ele>1293</ele>
        <time>2022-08-26T19:39:49Z</time>
      </trkpt>
      <trkpt lat="45.85855" lon="6.73027">
        <ele>1293</ele>
        <time>2022-08-26T19:39:51Z</time>
      </trkpt>
      <trkpt lat="45.85853" lon="6.73031">
        <ele>1293</ele>
        <time>2022-08-26T19:39:52Z</time>
      </trkpt>
      <trkpt lat="45.85852" lon="6.73035">
        <ele>1293</ele>
        <time>2022-08-26T19:39:53Z</time>
      </trkpt>
      <trkpt lat="45.85849" lon="6.73035">
        <ele>1293</ele>
        <time>2022-08-26T19:39:55Z</time>
      </trkpt>
      <trkpt lat="45.85847" lon="6.73036">
        <ele>1293</ele>
        <time>2022-08-26T19:39:56Z</time>
      </trkpt>
      <trkpt lat="45.85845" lon="6.73036">
        <ele>1293</ele>
        <time>2022-08-26T19:39:57Z</time>
      </trkpt>
      <trkpt lat="45.85843" lon="6.73036">
        <ele>1293</ele>
        <time>2022-08-26T19:39:58Z</time>
      </trkpt>
      <trkpt lat="45.85841" lon="6.73035">
        <ele>1294</ele>
        <time>2022-08-26T19:40:00Z</time>
      </trkpt>
      <trkpt lat="45.8584" lon="6.73035">
        <ele>1294</ele>
        <time>2022-08-26T19:40:01Z</time>
      </trkpt>
      <trkpt lat="45.85839" lon="6.73034">
        <ele>1294</ele>
        <time>2022-08-26T19:40:02Z</time>
      </trkpt>
      <trkpt lat="45.85838" lon="6.73033">
        <ele>1294</ele>
        <time>2022-08-26T19:40:03Z</time>
      </trkpt>
      <trkpt lat="45.85837" lon="6.73032">
        <ele>1294</ele>
        <time>2022-08-26T19:40:04Z</time>
      </trkpt>
      <trkpt lat="45.85835" lon="6.73032">
        <ele>1294</ele>
        <time>2022-08-26T19:40:05Z</time>
      </trkpt>
      <trkpt lat="45.85834" lon="6.73031">
        <ele>1294</ele>
        <time>2022-08-26T19:40:06Z</time>
      </trkpt>
      <trkpt lat="45.85834" lon="6.73032">
        <ele>1294</ele>
        <time>2022-08-26T19:40:07Z</time>
      </trkpt>
      <trkpt lat="45.85834" lon="6.73032">
        <ele>1294</ele>
        <time>2022-08-26T19:40:08Z</time>
      </trkpt>
      <trkpt lat="45.85833" lon="6.73033">
        <ele>1294</ele>
        <time>2022-08-26T19:40:10Z</time>
      </trkpt>
      <trkpt lat="45.85833" lon="6.73034">
        <ele>1294</ele>
        <time>2022-08-26T19:40:11Z</time>
      </trkpt>
      <trkpt lat="45.85833" lon="6.73034">
        <ele>1295</ele>
        <time>2022-08-26T19:40:12Z</time>
      </trkpt>
      <trkpt lat="45.85833" lon="6.73035">
        <ele>1295</ele>
        <time>2022-08-26T19:40:14Z</time>
      </trkpt>
      <trkpt lat="45.85832" lon="6.73036">
        <ele>1295</ele>
        <time>2022-08-26T19:40:15Z</time>
      </trkpt>
      <trkpt lat="45.85832" lon="6.73036">
        <ele>1295</ele>
        <time>2022-08-26T19:40:16Z</time>
      </trkpt>
      <trkpt lat="45.85832" lon="6.73037">
        <ele>1295</ele>
        <time>2022-08-26T19:40:17Z</time>
      </trkpt>
      <trkpt lat="45.85831" lon="6.73038">
        <ele>1295</ele>
        <time>2022-08-26T19:40:19Z</time>
      </trkpt>
      <trkpt lat="45.85831" lon="6.73038">
        <ele>1296</ele>
        <time>2022-08-26T19:40:20Z</time>
      </trkpt>
      <trkpt lat="45.85831" lon="6.73039">
        <ele>1296</ele>
        <time>2022-08-26T19:40:21Z</time>
      </trkpt>
      <trkpt lat="45.85831" lon="6.7304">
        <ele>1296</ele>
        <time>2022-08-26T19:40:22Z</time>
      </trkpt>
      <trkpt lat="45.8583" lon="6.7304">
        <ele>1296</ele>
        <time>2022-08-26T19:40:24Z</time>
      </trkpt>
      <trkpt lat="45.8583" lon="6.73041">
        <ele>1297</ele>
        <time>2022-08-26T19:40:25Z</time>
      </trkpt>
      <trkpt lat="45.8583" lon="6.73042">
        <ele>1297</ele>
        <time>2022-08-26T19:40:26Z</time>
      </trkpt>
      <trkpt lat="45.85829" lon="6.73042">
        <ele>1297</ele>
        <time>2022-08-26T19:40:27Z</time>
      </trkpt>
      <trkpt lat="45.85829" lon="6.73043">
        <ele>1297</ele>
        <time>2022-08-26T19:40:28Z</time>
      </trkpt>
      <trkpt lat="45.85829" lon="6.73044">
        <ele>1297</ele>
        <time>2022-08-26T19:40:29Z</time>
      </trkpt>
      <trkpt lat="45.85827" lon="6.73044">
        <ele>1297</ele>
        <time>2022-08-26T19:40:31Z</time>
      </trkpt>
      <trkpt lat="45.85826" lon="6.73044">
        <ele>1297</ele>
        <time>2022-08-26T19:40:32Z</time>
      </trkpt>
      <trkpt lat="45.85824" lon="6.73045">
        <ele>1297</ele>
        <time>2022-08-26T19:40:33Z</time>
      </trkpt>
      <trkpt lat="45.85823" lon="6.73045">
        <ele>1297</ele>
        <time>2022-08-26T19:40:34Z</time>
      </trkpt>
      <trkpt lat="45.85821" lon="6.73045">
        <ele>1297</ele>
        <time>2022-08-26T19:40:35Z</time>
      </trkpt>
      <trkpt lat="45.8582" lon="6.73046">
        <ele>1298</ele>
        <time>2022-08-26T19:40:36Z</time>
      </trkpt>
      <trkpt lat="45.85808" lon="6.73049">
        <ele>1298</ele>
        <time>2022-08-26T19:40:41Z</time>
      </trkpt>
      <trkpt lat="45.85799" lon="6.73047">
        <ele>1300</ele>
        <time>2022-08-26T19:40:48Z</time>
      </trkpt>
      <trkpt lat="45.85797" lon="6.73047">
        <ele>1300</ele>
        <time>2022-08-26T19:40:49Z</time>
      </trkpt>
      <trkpt lat="45.85795" lon="6.73048">
        <ele>1300</ele>
        <time>2022-08-26T19:40:50Z</time>
      </trkpt>
      <trkpt lat="45.85793" lon="6.73048">
        <ele>1301</ele>
        <time>2022-08-26T19:40:51Z</time>
      </trkpt>
      <trkpt lat="45.85792" lon="6.73048">
        <ele>1301</ele>
        <time>2022-08-26T19:40:53Z</time>
      </trkpt>
      <trkpt lat="45.8579" lon="6.73048">
        <ele>1301</ele>
        <time>2022-08-26T19:40:54Z</time>
      </trkpt>
      <trkpt lat="45.85788" lon="6.73048">
        <ele>1301</ele>
        <time>2022-08-26T19:40:55Z</time>
      </trkpt>
      <trkpt lat="45.85785" lon="6.73048">
        <ele>1302</ele>
        <time>2022-08-26T19:40:56Z</time>
      </trkpt>
      <trkpt lat="45.85782" lon="6.73048">
        <ele>1302</ele>
        <time>2022-08-26T19:40:57Z</time>
      </trkpt>
      <trkpt lat="45.85779" lon="6.73047">
        <ele>1302</ele>
        <time>2022-08-26T19:40:58Z</time>
      </trkpt>
      <trkpt lat="45.85774" lon="6.73048">
        <ele>1302</ele>
        <time>2022-08-26T19:40:59Z</time>
      </trkpt>
      <trkpt lat="45.85769" lon="6.73048">
        <ele>1302</ele>
        <time>2022-08-26T19:41:00Z</time>
      </trkpt>
      <trkpt lat="45.85768" lon="6.73048">
        <ele>1303</ele>
        <time>2022-08-26T19:41:01Z</time>
      </trkpt>
      <trkpt lat="45.85767" lon="6.73048">
        <ele>1304</ele>
        <time>2022-08-26T19:41:03Z</time>
      </trkpt>
      <trkpt lat="45.85766" lon="6.73048">
        <ele>1304</ele>
        <time>2022-08-26T19:41:04Z</time>
      </trkpt>
      <trkpt lat="45.85765" lon="6.73048">
        <ele>1304</ele>
        <time>2022-08-26T19:41:05Z</time>
      </trkpt>
      <trkpt lat="45.85755" lon="6.73046">
        <ele>1304</ele>
        <time>2022-08-26T19:41:07Z</time>
      </trkpt>
      <trkpt lat="45.85752" lon="6.73046">
        <ele>1304</ele>
        <time>2022-08-26T19:41:08Z</time>
      </trkpt>
      <trkpt lat="45.85749" lon="6.73046">
        <ele>1304</ele>
        <time>2022-08-26T19:41:09Z</time>
      </trkpt>
      <trkpt lat="45.85747" lon="6.73046">
        <ele>1305</ele>
        <time>2022-08-26T19:41:11Z</time>
      </trkpt>
      <trkpt lat="45.85745" lon="6.73046">
        <ele>1306</ele>
        <time>2022-08-26T19:41:12Z</time>
      </trkpt>
      <trkpt lat="45.85743" lon="6.73046">
        <ele>1306</ele>
        <time>2022-08-26T19:41:13Z</time>
      </trkpt>
      <trkpt lat="45.85741" lon="6.73047">
        <ele>1306</ele>
        <time>2022-08-26T19:41:14Z</time>
      </trkpt>
      <trkpt lat="45.85739" lon="6.73047">
        <ele>1306</ele>
        <time>2022-08-26T19:41:15Z</time>
      </trkpt>
      <trkpt lat="45.85736" lon="6.73047">
        <ele>1306</ele>
        <time>2022-08-26T19:41:17Z</time>
      </trkpt>
      <trkpt lat="45.85732" lon="6.73047">
        <ele>1306</ele>
        <time>2022-08-26T19:41:18Z</time>
      </trkpt>
      <trkpt lat="45.85722" lon="6.73051">
        <ele>1306</ele>
        <time>2022-08-26T19:41:19Z</time>
      </trkpt>
      <trkpt lat="45.85717" lon="6.73054">
        <ele>1307</ele>
        <time>2022-08-26T19:41:20Z</time>
      </trkpt>
      <trkpt lat="45.85715" lon="6.73055">
        <ele>1308</ele>
        <time>2022-08-26T19:41:22Z</time>
      </trkpt>
      <trkpt lat="45.85712" lon="6.73056">
        <ele>1308</ele>
        <time>2022-08-26T19:41:23Z</time>
      </trkpt>
      <trkpt lat="45.8571" lon="6.73058">
        <ele>1308</ele>
        <time>2022-08-26T19:41:24Z</time>
      </trkpt>
      <trkpt lat="45.85707" lon="6.73059">
        <ele>1308</ele>
        <time>2022-08-26T19:41:25Z</time>
      </trkpt>
      <trkpt lat="45.85706" lon="6.73058">
        <ele>1308</ele>
        <time>2022-08-26T19:41:26Z</time>
      </trkpt>
      <trkpt lat="45.85706" lon="6.73057">
        <ele>1308</ele>
        <time>2022-08-26T19:41:28Z</time>
      </trkpt>
      <trkpt lat="45.85705" lon="6.73057">
        <ele>1309</ele>
        <time>2022-08-26T19:41:30Z</time>
      </trkpt>
      <trkpt lat="45.85704" lon="6.73056">
        <ele>1309</ele>
        <time>2022-08-26T19:41:31Z</time>
      </trkpt>
      <trkpt lat="45.85703" lon="6.73056">
        <ele>1309</ele>
        <time>2022-08-26T19:41:32Z</time>
      </trkpt>
      <trkpt lat="45.85702" lon="6.73055">
        <ele>1309</ele>
        <time>2022-08-26T19:41:33Z</time>
      </trkpt>
      <trkpt lat="45.85701" lon="6.73054">
        <ele>1309</ele>
        <time>2022-08-26T19:41:35Z</time>
      </trkpt>
      <trkpt lat="45.857" lon="6.73054">
        <ele>1309</ele>
        <time>2022-08-26T19:41:36Z</time>
      </trkpt>
      <trkpt lat="45.85699" lon="6.73053">
        <ele>1309</ele>
        <time>2022-08-26T19:41:37Z</time>
      </trkpt>
      <trkpt lat="45.85698" lon="6.73053">
        <ele>1310</ele>
        <time>2022-08-26T19:41:38Z</time>
      </trkpt>
      <trkpt lat="45.85689" lon="6.73049">
        <ele>1311</ele>
        <time>2022-08-26T19:41:43Z</time>
      </trkpt>
      <trkpt lat="45.85687" lon="6.73049">
        <ele>1311</ele>
        <time>2022-08-26T19:41:45Z</time>
      </trkpt>
      <trkpt lat="45.85685" lon="6.73049">
        <ele>1311</ele>
        <time>2022-08-26T19:41:46Z</time>
      </trkpt>
      <trkpt lat="45.85684" lon="6.73049">
        <ele>1311</ele>
        <time>2022-08-26T19:41:47Z</time>
      </trkpt>
      <trkpt lat="45.85682" lon="6.73049">
        <ele>1312</ele>
        <time>2022-08-26T19:41:48Z</time>
      </trkpt>
      <trkpt lat="45.8568" lon="6.73049">
        <ele>1312</ele>
        <time>2022-08-26T19:41:49Z</time>
      </trkpt>
      <trkpt lat="45.85679" lon="6.73049">
        <ele>1312</ele>
        <time>2022-08-26T19:41:50Z</time>
      </trkpt>
      <trkpt lat="45.85677" lon="6.73048">
        <ele>1313</ele>
        <time>2022-08-26T19:41:52Z</time>
      </trkpt>
      <trkpt lat="45.85676" lon="6.73048">
        <ele>1313</ele>
        <time>2022-08-26T19:41:53Z</time>
      </trkpt>
      <trkpt lat="45.85674" lon="6.73048">
        <ele>1313</ele>
        <time>2022-08-26T19:41:54Z</time>
      </trkpt>
      <trkpt lat="45.85673" lon="6.73047">
        <ele>1314</ele>
        <time>2022-08-26T19:41:55Z</time>
      </trkpt>
      <trkpt lat="45.85671" lon="6.73047">
        <ele>1314</ele>
        <time>2022-08-26T19:41:56Z</time>
      </trkpt>
      <trkpt lat="45.8567" lon="6.73047">
        <ele>1314</ele>
        <time>2022-08-26T19:41:57Z</time>
      </trkpt>
      <trkpt lat="45.8566" lon="6.73045">
        <ele>1315</ele>
        <time>2022-08-26T19:42:02Z</time>
      </trkpt>
      <trkpt lat="45.85659" lon="6.73045">
        <ele>1315</ele>
        <time>2022-08-26T19:42:04Z</time>
      </trkpt>
      <trkpt lat="45.85658" lon="6.73044">
        <ele>1316</ele>
        <time>2022-08-26T19:42:05Z</time>
      </trkpt>
      <trkpt lat="45.85657" lon="6.73044">
        <ele>1316</ele>
        <time>2022-08-26T19:42:06Z</time>
      </trkpt>
      <trkpt lat="45.85656" lon="6.73044">
        <ele>1317</ele>
        <time>2022-08-26T19:42:08Z</time>
      </trkpt>
      <trkpt lat="45.85655" lon="6.73043">
        <ele>1317</ele>
        <time>2022-08-26T19:42:09Z</time>
      </trkpt>
      <trkpt lat="45.85654" lon="6.73043">
        <ele>1317</ele>
        <time>2022-08-26T19:42:10Z</time>
      </trkpt>
      <trkpt lat="45.85653" lon="6.73042">
        <ele>1317</ele>
        <time>2022-08-26T19:42:11Z</time>
      </trkpt>
      <trkpt lat="45.85652" lon="6.73042">
        <ele>1317</ele>
        <time>2022-08-26T19:42:12Z</time>
      </trkpt>
      <trkpt lat="45.85651" lon="6.73041">
        <ele>1317</ele>
        <time>2022-08-26T19:42:13Z</time>
      </trkpt>
      <trkpt lat="45.8565" lon="6.73041">
        <ele>1318</ele>
        <time>2022-08-26T19:42:14Z</time>
      </trkpt>
      <trkpt lat="45.85649" lon="6.73041">
        <ele>1318</ele>
        <time>2022-08-26T19:42:15Z</time>
      </trkpt>
      <trkpt lat="45.85648" lon="6.7304">
        <ele>1318</ele>
        <time>2022-08-26T19:42:17Z</time>
      </trkpt>
      <trkpt lat="45.85647" lon="6.7304">
        <ele>1318</ele>
        <time>2022-08-26T19:42:18Z</time>
      </trkpt>
      <trkpt lat="45.85646" lon="6.7304">
        <ele>1319</ele>
        <time>2022-08-26T19:42:19Z</time>
      </trkpt>
      <trkpt lat="45.85645" lon="6.73039">
        <ele>1319</ele>
        <time>2022-08-26T19:42:21Z</time>
      </trkpt>
      <trkpt lat="45.85644" lon="6.73039">
        <ele>1319</ele>
        <time>2022-08-26T19:42:23Z</time>
      </trkpt>
      <trkpt lat="45.85643" lon="6.73039">
        <ele>1319</ele>
        <time>2022-08-26T19:42:24Z</time>
      </trkpt>
      <trkpt lat="45.85642" lon="6.73038">
        <ele>1320</ele>
        <time>2022-08-26T19:42:25Z</time>
      </trkpt>
      <trkpt lat="45.8564" lon="6.73038">
        <ele>1320</ele>
        <time>2022-08-26T19:42:26Z</time>
      </trkpt>
      <trkpt lat="45.85639" lon="6.73037">
        <ele>1320</ele>
        <time>2022-08-26T19:42:27Z</time>
      </trkpt>
      <trkpt lat="45.85637" lon="6.73037">
        <ele>1320</ele>
        <time>2022-08-26T19:42:28Z</time>
      </trkpt>
      <trkpt lat="45.85636" lon="6.73036">
        <ele>1321</ele>
        <time>2022-08-26T19:42:30Z</time>
      </trkpt>
      <trkpt lat="45.85634" lon="6.73036">
        <ele>1321</ele>
        <time>2022-08-26T19:42:32Z</time>
      </trkpt>
      <trkpt lat="45.85633" lon="6.73035">
        <ele>1321</ele>
        <time>2022-08-26T19:42:33Z</time>
      </trkpt>
      <trkpt lat="45.85623" lon="6.73035">
        <ele>1323</ele>
        <time>2022-08-26T19:42:37Z</time>
      </trkpt>
      <trkpt lat="45.85613" lon="6.73034">
        <ele>1324</ele>
        <time>2022-08-26T19:42:42Z</time>
      </trkpt>
      <trkpt lat="45.85603" lon="6.73034">
        <ele>1325</ele>
        <time>2022-08-26T19:42:49Z</time>
      </trkpt>
      <trkpt lat="45.85602" lon="6.73033">
        <ele>1325</ele>
        <time>2022-08-26T19:42:50Z</time>
      </trkpt>
      <trkpt lat="45.85601" lon="6.73032">
        <ele>1325</ele>
        <time>2022-08-26T19:42:51Z</time>
      </trkpt>
      <trkpt lat="45.856" lon="6.73032">
        <ele>1325</ele>
        <time>2022-08-26T19:42:52Z</time>
      </trkpt>
      <trkpt lat="45.85599" lon="6.73031">
        <ele>1325</ele>
        <time>2022-08-26T19:42:54Z</time>
      </trkpt>
      <trkpt lat="45.85598" lon="6.7303">
        <ele>1325</ele>
        <time>2022-08-26T19:42:55Z</time>
      </trkpt>
      <trkpt lat="45.85597" lon="6.73029">
        <ele>1325</ele>
        <time>2022-08-26T19:42:56Z</time>
      </trkpt>
      <trkpt lat="45.85596" lon="6.73028">
        <ele>1325</ele>
        <time>2022-08-26T19:42:57Z</time>
      </trkpt>
      <trkpt lat="45.85595" lon="6.73027">
        <ele>1325</ele>
        <time>2022-08-26T19:42:58Z</time>
      </trkpt>
      <trkpt lat="45.85593" lon="6.73026">
        <ele>1325</ele>
        <time>2022-08-26T19:42:59Z</time>
      </trkpt>
      <trkpt lat="45.85591" lon="6.73024">
        <ele>1326</ele>
        <time>2022-08-26T19:43:01Z</time>
      </trkpt>
      <trkpt lat="45.85589" lon="6.73023">
        <ele>1327</ele>
        <time>2022-08-26T19:43:02Z</time>
      </trkpt>
      <trkpt lat="45.85587" lon="6.73021">
        <ele>1327</ele>
        <time>2022-08-26T19:43:03Z</time>
      </trkpt>
      <trkpt lat="45.85585" lon="6.73021">
        <ele>1327</ele>
        <time>2022-08-26T19:43:05Z</time>
      </trkpt>
      <trkpt lat="45.85583" lon="6.7302">
        <ele>1327</ele>
        <time>2022-08-26T19:43:06Z</time>
      </trkpt>
      <trkpt lat="45.8558" lon="6.7302">
        <ele>1327</ele>
        <time>2022-08-26T19:43:07Z</time>
      </trkpt>
      <trkpt lat="45.85578" lon="6.73019">
        <ele>1328</ele>
        <time>2022-08-26T19:43:08Z</time>
      </trkpt>
      <trkpt lat="45.85576" lon="6.73019">
        <ele>1329</ele>
        <time>2022-08-26T19:43:10Z</time>
      </trkpt>
      <trkpt lat="45.85575" lon="6.73019">
        <ele>1329</ele>
        <time>2022-08-26T19:43:11Z</time>
      </trkpt>
      <trkpt lat="45.85573" lon="6.73019">
        <ele>1329</ele>
        <time>2022-08-26T19:43:12Z</time>
      </trkpt>
      <trkpt lat="45.85572" lon="6.73019">
        <ele>1329</ele>
        <time>2022-08-26T19:43:13Z</time>
      </trkpt>
      <trkpt lat="45.8557" lon="6.73019">
        <ele>1329</ele>
        <time>2022-08-26T19:43:14Z</time>
      </trkpt>
      <trkpt lat="45.85569" lon="6.73019">
        <ele>1329</ele>
        <time>2022-08-26T19:43:15Z</time>
      </trkpt>
      <trkpt lat="45.8556" lon="6.73016">
        <ele>1330</ele>
        <time>2022-08-26T19:43:20Z</time>
      </trkpt>
      <trkpt lat="45.85559" lon="6.73016">
        <ele>1331</ele>
        <time>2022-08-26T19:43:22Z</time>
      </trkpt>
      <trkpt lat="45.85557" lon="6.73015">
        <ele>1331</ele>
        <time>2022-08-26T19:43:23Z</time>
      </trkpt>
      <trkpt lat="45.85556" lon="6.73015">
        <ele>1332</ele>
        <time>2022-08-26T19:43:24Z</time>
      </trkpt>
      <trkpt lat="45.85555" lon="6.73014">
        <ele>1332</ele>
        <time>2022-08-26T19:43:25Z</time>
      </trkpt>
      <trkpt lat="45.85553" lon="6.73013">
        <ele>1332</ele>
        <time>2022-08-26T19:43:27Z</time>
      </trkpt>
      <trkpt lat="45.85552" lon="6.73013">
        <ele>1332</ele>
        <time>2022-08-26T19:43:28Z</time>
      </trkpt>
      <trkpt lat="45.85551" lon="6.73012">
        <ele>1332</ele>
        <time>2022-08-26T19:43:29Z</time>
      </trkpt>
      <trkpt lat="45.85549" lon="6.73012">
        <ele>1332</ele>
        <time>2022-08-26T19:43:30Z</time>
      </trkpt>
      <trkpt lat="45.85548" lon="6.73011">
        <ele>1333</ele>
        <time>2022-08-26T19:43:32Z</time>
      </trkpt>
      <trkpt lat="45.85547" lon="6.7301">
        <ele>1333</ele>
        <time>2022-08-26T19:43:33Z</time>
      </trkpt>
      <trkpt lat="45.85545" lon="6.7301">
        <ele>1333</ele>
        <time>2022-08-26T19:43:34Z</time>
      </trkpt>
      <trkpt lat="45.85544" lon="6.73009">
        <ele>1333</ele>
        <time>2022-08-26T19:43:35Z</time>
      </trkpt>
      <trkpt lat="45.85543" lon="6.73008">
        <ele>1333</ele>
        <time>2022-08-26T19:43:36Z</time>
      </trkpt>
      <trkpt lat="45.85542" lon="6.73007">
        <ele>1333</ele>
        <time>2022-08-26T19:43:37Z</time>
      </trkpt>
      <trkpt lat="45.85533" lon="6.73002">
        <ele>1335</ele>
        <time>2022-08-26T19:43:43Z</time>
      </trkpt>
      <trkpt lat="45.85532" lon="6.73001">
        <ele>1335</ele>
        <time>2022-08-26T19:43:44Z</time>
      </trkpt>
      <trkpt lat="45.85531" lon="6.73">
        <ele>1335</ele>
        <time>2022-08-26T19:43:45Z</time>
      </trkpt>
      <trkpt lat="45.85531" lon="6.72999">
        <ele>1335</ele>
        <time>2022-08-26T19:43:46Z</time>
      </trkpt>
      <trkpt lat="45.8553" lon="6.72999">
        <ele>1336</ele>
        <time>2022-08-26T19:43:48Z</time>
      </trkpt>
      <trkpt lat="45.85529" lon="6.72998">
        <ele>1336</ele>
        <time>2022-08-26T19:43:49Z</time>
      </trkpt>
      <trkpt lat="45.85528" lon="6.72997">
        <ele>1337</ele>
        <time>2022-08-26T19:43:50Z</time>
      </trkpt>
      <trkpt lat="45.85527" lon="6.72996">
        <ele>1337</ele>
        <time>2022-08-26T19:43:51Z</time>
      </trkpt>
      <trkpt lat="45.85526" lon="6.72996">
        <ele>1337</ele>
        <time>2022-08-26T19:43:52Z</time>
      </trkpt>
      <trkpt lat="45.85525" lon="6.72995">
        <ele>1337</ele>
        <time>2022-08-26T19:43:53Z</time>
      </trkpt>
      <trkpt lat="45.85523" lon="6.72994">
        <ele>1338</ele>
        <time>2022-08-26T19:43:55Z</time>
      </trkpt>
      <trkpt lat="45.85521" lon="6.72993">
        <ele>1338</ele>
        <time>2022-08-26T19:43:56Z</time>
      </trkpt>
      <trkpt lat="45.85519" lon="6.72992">
        <ele>1338</ele>
        <time>2022-08-26T19:43:58Z</time>
      </trkpt>
      <trkpt lat="45.85518" lon="6.72991">
        <ele>1338</ele>
        <time>2022-08-26T19:43:59Z</time>
      </trkpt>
      <trkpt lat="45.85516" lon="6.7299">
        <ele>1338</ele>
        <time>2022-08-26T19:44:00Z</time>
      </trkpt>
      <trkpt lat="45.85515" lon="6.72989">
        <ele>1339</ele>
        <time>2022-08-26T19:44:01Z</time>
      </trkpt>
      <trkpt lat="45.85514" lon="6.72988">
        <ele>1339</ele>
        <time>2022-08-26T19:44:02Z</time>
      </trkpt>
      <trkpt lat="45.85513" lon="6.72987">
        <ele>1339</ele>
        <time>2022-08-26T19:44:03Z</time>
      </trkpt>
      <trkpt lat="45.85512" lon="6.72986">
        <ele>1340</ele>
        <time>2022-08-26T19:44:05Z</time>
      </trkpt>
      <trkpt lat="45.85511" lon="6.72984">
        <ele>1340</ele>
        <time>2022-08-26T19:44:07Z</time>
      </trkpt>
      <trkpt lat="45.8551" lon="6.72983">
        <ele>1340</ele>
        <time>2022-08-26T19:44:08Z</time>
      </trkpt>
      <trkpt lat="45.85509" lon="6.72982">
        <ele>1340</ele>
        <time>2022-08-26T19:44:09Z</time>
      </trkpt>
      <trkpt lat="45.85508" lon="6.72981">
        <ele>1341</ele>
        <time>2022-08-26T19:44:10Z</time>
      </trkpt>
      <trkpt lat="45.85508" lon="6.7298">
        <ele>1341</ele>
        <time>2022-08-26T19:44:11Z</time>
      </trkpt>
      <trkpt lat="45.85507" lon="6.72979">
        <ele>1341</ele>
        <time>2022-08-26T19:44:12Z</time>
      </trkpt>
      <trkpt lat="45.85507" lon="6.72978">
        <ele>1341</ele>
        <time>2022-08-26T19:44:14Z</time>
      </trkpt>
      <trkpt lat="45.85506" lon="6.72977">
        <ele>1341</ele>
        <time>2022-08-26T19:44:16Z</time>
      </trkpt>
      <trkpt lat="45.85506" lon="6.72976">
        <ele>1341</ele>
        <time>2022-08-26T19:44:17Z</time>
      </trkpt>
      <trkpt lat="45.85505" lon="6.72975">
        <ele>1341</ele>
        <time>2022-08-26T19:44:18Z</time>
      </trkpt>
      <trkpt lat="45.85505" lon="6.72974">
        <ele>1342</ele>
        <time>2022-08-26T19:44:19Z</time>
      </trkpt>
      <trkpt lat="45.85504" lon="6.72972">
        <ele>1342</ele>
        <time>2022-08-26T19:44:21Z</time>
      </trkpt>
      <trkpt lat="45.85504" lon="6.72971">
        <ele>1342</ele>
        <time>2022-08-26T19:44:22Z</time>
      </trkpt>
      <trkpt lat="45.85503" lon="6.72971">
        <ele>1342</ele>
        <time>2022-08-26T19:44:23Z</time>
      </trkpt>
      <trkpt lat="45.85502" lon="6.7297">
        <ele>1343</ele>
        <time>2022-08-26T19:44:24Z</time>
      </trkpt>
      <trkpt lat="45.855" lon="6.72969">
        <ele>1343</ele>
        <time>2022-08-26T19:44:26Z</time>
      </trkpt>
      <trkpt lat="45.85499" lon="6.72968">
        <ele>1343</ele>
        <time>2022-08-26T19:44:27Z</time>
      </trkpt>
      <trkpt lat="45.85498" lon="6.72967">
        <ele>1343</ele>
        <time>2022-08-26T19:44:28Z</time>
      </trkpt>
      <trkpt lat="45.85497" lon="6.72966">
        <ele>1343</ele>
        <time>2022-08-26T19:44:29Z</time>
      </trkpt>
      <trkpt lat="45.85496" lon="6.72965">
        <ele>1343</ele>
        <time>2022-08-26T19:44:30Z</time>
      </trkpt>
      <trkpt lat="45.85495" lon="6.72965">
        <ele>1344</ele>
        <time>2022-08-26T19:44:31Z</time>
      </trkpt>
      <trkpt lat="45.85485" lon="6.72961">
        <ele>1345</ele>
        <time>2022-08-26T19:44:36Z</time>
      </trkpt>
      <trkpt lat="45.85484" lon="6.72959">
        <ele>1346</ele>
        <time>2022-08-26T19:44:38Z</time>
      </trkpt>
      <trkpt lat="45.85483" lon="6.72958">
        <ele>1346</ele>
        <time>2022-08-26T19:44:40Z</time>
      </trkpt>
      <trkpt lat="45.85482" lon="6.72957">
        <ele>1346</ele>
        <time>2022-08-26T19:44:41Z</time>
      </trkpt>
      <trkpt lat="45.85481" lon="6.72955">
        <ele>1346</ele>
        <time>2022-08-26T19:44:42Z</time>
      </trkpt>
      <trkpt lat="45.8548" lon="6.72954">
        <ele>1347</ele>
        <time>2022-08-26T19:44:43Z</time>
      </trkpt>
      <trkpt lat="45.85479" lon="6.72953">
        <ele>1347</ele>
        <time>2022-08-26T19:44:44Z</time>
      </trkpt>
      <trkpt lat="45.85479" lon="6.72951">
        <ele>1347</ele>
        <time>2022-08-26T19:44:45Z</time>
      </trkpt>
      <trkpt lat="45.85478" lon="6.7295">
        <ele>1347</ele>
        <time>2022-08-26T19:44:46Z</time>
      </trkpt>
      <trkpt lat="45.85477" lon="6.72948">
        <ele>1347</ele>
        <time>2022-08-26T19:44:47Z</time>
      </trkpt>
      <trkpt lat="45.85476" lon="6.72946">
        <ele>1348</ele>
        <time>2022-08-26T19:44:48Z</time>
      </trkpt>
      <trkpt lat="45.85475" lon="6.72944">
        <ele>1348</ele>
        <time>2022-08-26T19:44:50Z</time>
      </trkpt>
      <trkpt lat="45.85474" lon="6.72943">
        <ele>1348</ele>
        <time>2022-08-26T19:44:51Z</time>
      </trkpt>
      <trkpt lat="45.85473" lon="6.72941">
        <ele>1348</ele>
        <time>2022-08-26T19:44:52Z</time>
      </trkpt>
      <trkpt lat="45.85472" lon="6.7294">
        <ele>1348</ele>
        <time>2022-08-26T19:44:53Z</time>
      </trkpt>
      <trkpt lat="45.8547" lon="6.72939">
        <ele>1349</ele>
        <time>2022-08-26T19:44:55Z</time>
      </trkpt>
      <trkpt lat="45.85469" lon="6.72938">
        <ele>1350</ele>
        <time>2022-08-26T19:44:57Z</time>
      </trkpt>
      <trkpt lat="45.85467" lon="6.72937">
        <ele>1350</ele>
        <time>2022-08-26T19:44:58Z</time>
      </trkpt>
      <trkpt lat="45.85466" lon="6.72936">
        <ele>1350</ele>
        <time>2022-08-26T19:44:59Z</time>
      </trkpt>
      <trkpt lat="45.85464" lon="6.72935">
        <ele>1350</ele>
        <time>2022-08-26T19:45:00Z</time>
      </trkpt>
      <trkpt lat="45.85463" lon="6.72933">
        <ele>1351</ele>
        <time>2022-08-26T19:45:02Z</time>
      </trkpt>
      <trkpt lat="45.85462" lon="6.72931">
        <ele>1351</ele>
        <time>2022-08-26T19:45:03Z</time>
      </trkpt>
      <trkpt lat="45.85461" lon="6.7293">
        <ele>1351</ele>
        <time>2022-08-26T19:45:04Z</time>
      </trkpt>
      <trkpt lat="45.85459" lon="6.72928">
        <ele>1351</ele>
        <time>2022-08-26T19:45:05Z</time>
      </trkpt>
      <trkpt lat="45.85458" lon="6.72927">
        <ele>1351</ele>
        <time>2022-08-26T19:45:07Z</time>
      </trkpt>
      <trkpt lat="45.85457" lon="6.72925">
        <ele>1351</ele>
        <time>2022-08-26T19:45:08Z</time>
      </trkpt>
      <trkpt lat="45.85456" lon="6.72924">
        <ele>1352</ele>
        <time>2022-08-26T19:45:09Z</time>
      </trkpt>
      <trkpt lat="45.85454" lon="6.72923">
        <ele>1352</ele>
        <time>2022-08-26T19:45:10Z</time>
      </trkpt>
      <trkpt lat="45.85453" lon="6.72922">
        <ele>1353</ele>
        <time>2022-08-26T19:45:12Z</time>
      </trkpt>
      <trkpt lat="45.85451" lon="6.72921">
        <ele>1353</ele>
        <time>2022-08-26T19:45:14Z</time>
      </trkpt>
      <trkpt lat="45.8545" lon="6.72919">
        <ele>1353</ele>
        <time>2022-08-26T19:45:15Z</time>
      </trkpt>
      <trkpt lat="45.85449" lon="6.72918">
        <ele>1353</ele>
        <time>2022-08-26T19:45:16Z</time>
      </trkpt>
      <trkpt lat="45.85447" lon="6.72917">
        <ele>1354</ele>
        <time>2022-08-26T19:45:18Z</time>
      </trkpt>
      <trkpt lat="45.85446" lon="6.72916">
        <ele>1354</ele>
        <time>2022-08-26T19:45:19Z</time>
      </trkpt>
      <trkpt lat="45.85445" lon="6.72916">
        <ele>1354</ele>
        <time>2022-08-26T19:45:20Z</time>
      </trkpt>
      <trkpt lat="45.85444" lon="6.72915">
        <ele>1354</ele>
        <time>2022-08-26T19:45:21Z</time>
      </trkpt>
      <trkpt lat="45.85443" lon="6.72914">
        <ele>1355</ele>
        <time>2022-08-26T19:45:23Z</time>
      </trkpt>
      <trkpt lat="45.85442" lon="6.72913">
        <ele>1355</ele>
        <time>2022-08-26T19:45:24Z</time>
      </trkpt>
      <trkpt lat="45.8544" lon="6.72912">
        <ele>1355</ele>
        <time>2022-08-26T19:45:25Z</time>
      </trkpt>
      <trkpt lat="45.85431" lon="6.72907">
        <ele>1356</ele>
        <time>2022-08-26T19:45:33Z</time>
      </trkpt>
      <trkpt lat="45.8543" lon="6.72906">
        <ele>1356</ele>
        <time>2022-08-26T19:45:34Z</time>
      </trkpt>
      <trkpt lat="45.85429" lon="6.72905">
        <ele>1357</ele>
        <time>2022-08-26T19:45:35Z</time>
      </trkpt>
      <trkpt lat="45.85429" lon="6.72903">
        <ele>1357</ele>
        <time>2022-08-26T19:45:37Z</time>
      </trkpt>
      <trkpt lat="45.85428" lon="6.72902">
        <ele>1357</ele>
        <time>2022-08-26T19:45:38Z</time>
      </trkpt>
      <trkpt lat="45.85427" lon="6.72901">
        <ele>1358</ele>
        <time>2022-08-26T19:45:39Z</time>
      </trkpt>
      <trkpt lat="45.85426" lon="6.729">
        <ele>1358</ele>
        <time>2022-08-26T19:45:40Z</time>
      </trkpt>
      <trkpt lat="45.85425" lon="6.72899">
        <ele>1358</ele>
        <time>2022-08-26T19:45:42Z</time>
      </trkpt>
      <trkpt lat="45.85424" lon="6.72898">
        <ele>1359</ele>
        <time>2022-08-26T19:45:43Z</time>
      </trkpt>
      <trkpt lat="45.85416" lon="6.7289">
        <ele>1360</ele>
        <time>2022-08-26T19:45:52Z</time>
      </trkpt>
      <trkpt lat="45.85415" lon="6.72889">
        <ele>1361</ele>
        <time>2022-08-26T19:45:53Z</time>
      </trkpt>
      <trkpt lat="45.85414" lon="6.72888">
        <ele>1361</ele>
        <time>2022-08-26T19:45:54Z</time>
      </trkpt>
      <trkpt lat="45.85413" lon="6.72887">
        <ele>1361</ele>
        <time>2022-08-26T19:45:56Z</time>
      </trkpt>
      <trkpt lat="45.85412" lon="6.72886">
        <ele>1361</ele>
        <time>2022-08-26T19:45:57Z</time>
      </trkpt>
      <trkpt lat="45.85412" lon="6.72885">
        <ele>1361</ele>
        <time>2022-08-26T19:45:58Z</time>
      </trkpt>
      <trkpt lat="45.85411" lon="6.72884">
        <ele>1362</ele>
        <time>2022-08-26T19:45:59Z</time>
      </trkpt>
      <trkpt lat="45.8541" lon="6.72883">
        <ele>1362</ele>
        <time>2022-08-26T19:46:00Z</time>
      </trkpt>
      <trkpt lat="45.85409" lon="6.72882">
        <ele>1362</ele>
        <time>2022-08-26T19:46:01Z</time>
      </trkpt>
      <trkpt lat="45.854" lon="6.7288">
        <ele>1364</ele>
        <time>2022-08-26T19:46:08Z</time>
      </trkpt>
      <trkpt lat="45.85399" lon="6.72879">
        <ele>1364</ele>
        <time>2022-08-26T19:46:09Z</time>
      </trkpt>
      <trkpt lat="45.85399" lon="6.72878">
        <ele>1365</ele>
        <time>2022-08-26T19:46:11Z</time>
      </trkpt>
      <trkpt lat="45.85398" lon="6.72877">
        <ele>1365</ele>
        <time>2022-08-26T19:46:12Z</time>
      </trkpt>
      <trkpt lat="45.85397" lon="6.72876">
        <ele>1365</ele>
        <time>2022-08-26T19:46:13Z</time>
      </trkpt>
      <trkpt lat="45.85397" lon="6.72875">
        <ele>1366</ele>
        <time>2022-08-26T19:46:15Z</time>
      </trkpt>
      <trkpt lat="45.85396" lon="6.72874">
        <ele>1366</ele>
        <time>2022-08-26T19:46:16Z</time>
      </trkpt>
      <trkpt lat="45.85396" lon="6.72873">
        <ele>1366</ele>
        <time>2022-08-26T19:46:17Z</time>
      </trkpt>
      <trkpt lat="45.85395" lon="6.72872">
        <ele>1366</ele>
        <time>2022-08-26T19:46:18Z</time>
      </trkpt>
      <trkpt lat="45.85394" lon="6.72872">
        <ele>1366</ele>
        <time>2022-08-26T19:46:20Z</time>
      </trkpt>
      <trkpt lat="45.85394" lon="6.72871">
        <ele>1365</ele>
        <time>2022-08-26T19:46:21Z</time>
      </trkpt>
      <trkpt lat="45.85393" lon="6.7287">
        <ele>1365</ele>
        <time>2022-08-26T19:46:22Z</time>
      </trkpt>
      <trkpt lat="45.85391" lon="6.72869">
        <ele>1365</ele>
        <time>2022-08-26T19:46:23Z</time>
      </trkpt>
      <trkpt lat="45.8539" lon="6.72869">
        <ele>1364</ele>
        <time>2022-08-26T19:46:25Z</time>
      </trkpt>
      <trkpt lat="45.85388" lon="6.72869">
        <ele>1364</ele>
        <time>2022-08-26T19:46:26Z</time>
      </trkpt>
      <trkpt lat="45.85386" lon="6.72869">
        <ele>1364</ele>
        <time>2022-08-26T19:46:27Z</time>
      </trkpt>
      <trkpt lat="45.85384" lon="6.72868">
        <ele>1364</ele>
        <time>2022-08-26T19:46:28Z</time>
      </trkpt>
      <trkpt lat="45.85382" lon="6.72868">
        <ele>1364</ele>
        <time>2022-08-26T19:46:29Z</time>
      </trkpt>
      <trkpt lat="45.85373" lon="6.72866">
        <ele>1362</ele>
        <time>2022-08-26T19:46:34Z</time>
      </trkpt>
      <trkpt lat="45.85362" lon="6.72865">
        <ele>1361</ele>
        <time>2022-08-26T19:46:39Z</time>
      </trkpt>
      <trkpt lat="45.8536" lon="6.72865">
        <ele>1361</ele>
        <time>2022-08-26T19:46:40Z</time>
      </trkpt>
      <trkpt lat="45.85358" lon="6.72865">
        <ele>1361</ele>
        <time>2022-08-26T19:46:41Z</time>
      </trkpt>
      <trkpt lat="45.85357" lon="6.72865">
        <ele>1360</ele>
        <time>2022-08-26T19:46:42Z</time>
      </trkpt>
      <trkpt lat="45.85355" lon="6.72865">
        <ele>1359</ele>
        <time>2022-08-26T19:46:44Z</time>
      </trkpt>
      <trkpt lat="45.85353" lon="6.72865">
        <ele>1359</ele>
        <time>2022-08-26T19:46:45Z</time>
      </trkpt>
      <trkpt lat="45.85351" lon="6.72865">
        <ele>1358</ele>
        <time>2022-08-26T19:46:46Z</time>
      </trkpt>
      <trkpt lat="45.85346" lon="6.72865">
        <ele>1358</ele>
        <time>2022-08-26T19:46:47Z</time>
      </trkpt>
      <trkpt lat="45.85341" lon="6.72866">
        <ele>1358</ele>
        <time>2022-08-26T19:46:48Z</time>
      </trkpt>
      <trkpt lat="45.85335" lon="6.72867">
        <ele>1357</ele>
        <time>2022-08-26T19:46:49Z</time>
      </trkpt>
      <trkpt lat="45.85327" lon="6.72869">
        <ele>1356</ele>
        <time>2022-08-26T19:46:51Z</time>
      </trkpt>
      <trkpt lat="45.85324" lon="6.72871">
        <ele>1356</ele>
        <time>2022-08-26T19:46:53Z</time>
      </trkpt>
      <trkpt lat="45.85321" lon="6.72872">
        <ele>1356</ele>
        <time>2022-08-26T19:46:54Z</time>
      </trkpt>
      <trkpt lat="45.85317" lon="6.72873">
        <ele>1355</ele>
        <time>2022-08-26T19:46:55Z</time>
      </trkpt>
      <trkpt lat="45.85317" lon="6.72874">
        <ele>1354</ele>
        <time>2022-08-26T19:46:57Z</time>
      </trkpt>
      <trkpt lat="45.85316" lon="6.72874">
        <ele>1353</ele>
        <time>2022-08-26T19:46:58Z</time>
      </trkpt>
      <trkpt lat="45.85315" lon="6.72875">
        <ele>1353</ele>
        <time>2022-08-26T19:46:59Z</time>
      </trkpt>
      <trkpt lat="45.85314" lon="6.72875">
        <ele>1353</ele>
        <time>2022-08-26T19:47:00Z</time>
      </trkpt>
      <trkpt lat="45.85307" lon="6.72879">
        <ele>1351</ele>
        <time>2022-08-26T19:47:02Z</time>
      </trkpt>
      <trkpt lat="45.85296" lon="6.72883">
        <ele>1350</ele>
        <time>2022-08-26T19:47:04Z</time>
      </trkpt>
      <trkpt lat="45.85294" lon="6.72884">
        <ele>1350</ele>
        <time>2022-08-26T19:47:05Z</time>
      </trkpt>
      <trkpt lat="45.85291" lon="6.72884">
        <ele>1349</ele>
        <time>2022-08-26T19:47:06Z</time>
      </trkpt>
      <trkpt lat="45.85288" lon="6.72885">
        <ele>1348</ele>
        <time>2022-08-26T19:47:08Z</time>
      </trkpt>
      <trkpt lat="45.85285" lon="6.72885">
        <ele>1346</ele>
        <time>2022-08-26T19:47:09Z</time>
      </trkpt>
      <trkpt lat="45.85284" lon="6.72886">
        <ele>1345</ele>
        <time>2022-08-26T19:47:10Z</time>
      </trkpt>
      <trkpt lat="45.85282" lon="6.72887">
        <ele>1345</ele>
        <time>2022-08-26T19:47:11Z</time>
      </trkpt>
      <trkpt lat="45.8528" lon="6.72888">
        <ele>1345</ele>
        <time>2022-08-26T19:47:12Z</time>
      </trkpt>
      <trkpt lat="45.85279" lon="6.72889">
        <ele>1345</ele>
        <time>2022-08-26T19:47:13Z</time>
      </trkpt>
      <trkpt lat="45.85277" lon="6.7289">
        <ele>1344</ele>
        <time>2022-08-26T19:47:14Z</time>
      </trkpt>
      <trkpt lat="45.85273" lon="6.72892">
        <ele>1344</ele>
        <time>2022-08-26T19:47:16Z</time>
      </trkpt>
      <trkpt lat="45.85268" lon="6.72893">
        <ele>1344</ele>
        <time>2022-08-26T19:47:17Z</time>
      </trkpt>
      <trkpt lat="45.85257" lon="6.72893">
        <ele>1342</ele>
        <time>2022-08-26T19:47:21Z</time>
      </trkpt>
      <trkpt lat="45.85254" lon="6.72893">
        <ele>1341</ele>
        <time>2022-08-26T19:47:22Z</time>
      </trkpt>
      <trkpt lat="45.85251" lon="6.72893">
        <ele>1341</ele>
        <time>2022-08-26T19:47:23Z</time>
      </trkpt>
      <trkpt lat="45.85248" lon="6.72893">
        <ele>1341</ele>
        <time>2022-08-26T19:47:24Z</time>
      </trkpt>
      <trkpt lat="45.85246" lon="6.72893">
        <ele>1341</ele>
        <time>2022-08-26T19:47:26Z</time>
      </trkpt>
      <trkpt lat="45.85244" lon="6.72893">
        <ele>1341</ele>
        <time>2022-08-26T19:47:27Z</time>
      </trkpt>
      <trkpt lat="45.85242" lon="6.72893">
        <ele>1341</ele>
        <time>2022-08-26T19:47:28Z</time>
      </trkpt>
      <trkpt lat="45.8524" lon="6.72893">
        <ele>1341</ele>
        <time>2022-08-26T19:47:29Z</time>
      </trkpt>
      <trkpt lat="45.85238" lon="6.72893">
        <ele>1341</ele>
        <time>2022-08-26T19:47:30Z</time>
      </trkpt>
      <trkpt lat="45.85235" lon="6.72893">
        <ele>1341</ele>
        <time>2022-08-26T19:47:31Z</time>
      </trkpt>
      <trkpt lat="45.85232" lon="6.72894">
        <ele>1341</ele>
        <time>2022-08-26T19:47:32Z</time>
      </trkpt>
      <trkpt lat="45.85229" lon="6.72895">
        <ele>1341</ele>
        <time>2022-08-26T19:47:33Z</time>
      </trkpt>
      <trkpt lat="45.85228" lon="6.72895">
        <ele>1340</ele>
        <time>2022-08-26T19:47:35Z</time>
      </trkpt>
      <trkpt lat="45.85227" lon="6.72895">
        <ele>1340</ele>
        <time>2022-08-26T19:47:36Z</time>
      </trkpt>
      <trkpt lat="45.85227" lon="6.72895">
        <ele>1339</ele>
        <time>2022-08-26T19:47:37Z</time>
      </trkpt>
      <trkpt lat="45.85226" lon="6.72894">
        <ele>1339</ele>
        <time>2022-08-26T19:47:38Z</time>
      </trkpt>
      <trkpt lat="45.85218" lon="6.72893">
        <ele>1340</ele>
        <time>2022-08-26T19:47:40Z</time>
      </trkpt>
      <trkpt lat="45.85217" lon="6.72893">
        <ele>1340</ele>
        <time>2022-08-26T19:47:42Z</time>
      </trkpt>
      <trkpt lat="45.85216" lon="6.72893">
        <ele>1340</ele>
        <time>2022-08-26T19:47:43Z</time>
      </trkpt>
      <trkpt lat="45.85215" lon="6.72892">
        <ele>1340</ele>
        <time>2022-08-26T19:47:44Z</time>
      </trkpt>
      <trkpt lat="45.85208" lon="6.7289">
        <ele>1340</ele>
        <time>2022-08-26T19:47:46Z</time>
      </trkpt>
      <trkpt lat="45.85199" lon="6.72884">
        <ele>1341</ele>
        <time>2022-08-26T19:47:50Z</time>
      </trkpt>
      <trkpt lat="45.85197" lon="6.72883">
        <ele>1341</ele>
        <time>2022-08-26T19:47:51Z</time>
      </trkpt>
      <trkpt lat="45.85195" lon="6.72883">
        <ele>1341</ele>
        <time>2022-08-26T19:47:52Z</time>
      </trkpt>
      <trkpt lat="45.85193" lon="6.72882">
        <ele>1341</ele>
        <time>2022-08-26T19:47:53Z</time>
      </trkpt>
      <trkpt lat="45.85191" lon="6.72882">
        <ele>1341</ele>
        <time>2022-08-26T19:47:55Z</time>
      </trkpt>
      <trkpt lat="45.8519" lon="6.72881">
        <ele>1341</ele>
        <time>2022-08-26T19:47:56Z</time>
      </trkpt>
      <trkpt lat="45.85188" lon="6.72881">
        <ele>1341</ele>
        <time>2022-08-26T19:47:57Z</time>
      </trkpt>
      <trkpt lat="45.85186" lon="6.72881">
        <ele>1341</ele>
        <time>2022-08-26T19:47:58Z</time>
      </trkpt>
      <trkpt lat="45.85184" lon="6.72881">
        <ele>1341</ele>
        <time>2022-08-26T19:47:59Z</time>
      </trkpt>
      <trkpt lat="45.85182" lon="6.72881">
        <ele>1341</ele>
        <time>2022-08-26T19:48:01Z</time>
      </trkpt>
      <trkpt lat="45.85181" lon="6.7288">
        <ele>1341</ele>
        <time>2022-08-26T19:48:02Z</time>
      </trkpt>
      <trkpt lat="45.85171" lon="6.72882">
        <ele>1342</ele>
        <time>2022-08-26T19:48:07Z</time>
      </trkpt>
      <trkpt lat="45.8517" lon="6.72882">
        <ele>1342</ele>
        <time>2022-08-26T19:48:08Z</time>
      </trkpt>
      <trkpt lat="45.85169" lon="6.72882">
        <ele>1342</ele>
        <time>2022-08-26T19:48:09Z</time>
      </trkpt>
      <trkpt lat="45.85168" lon="6.72882">
        <ele>1342</ele>
        <time>2022-08-26T19:48:10Z</time>
      </trkpt>
      <trkpt lat="45.85167" lon="6.72882">
        <ele>1343</ele>
        <time>2022-08-26T19:48:12Z</time>
      </trkpt>
      <trkpt lat="45.85166" lon="6.72882">
        <ele>1343</ele>
        <time>2022-08-26T19:48:13Z</time>
      </trkpt>
      <trkpt lat="45.85159" lon="6.72883">
        <ele>1343</ele>
        <time>2022-08-26T19:48:14Z</time>
      </trkpt>
      <trkpt lat="45.85158" lon="6.72883">
        <ele>1343</ele>
        <time>2022-08-26T19:48:15Z</time>
      </trkpt>
      <trkpt lat="45.85156" lon="6.72883">
        <ele>1343</ele>
        <time>2022-08-26T19:48:17Z</time>
      </trkpt>
      <trkpt lat="45.85155" lon="6.72883">
        <ele>1343</ele>
        <time>2022-08-26T19:48:18Z</time>
      </trkpt>
      <trkpt lat="45.85153" lon="6.72883">
        <ele>1343</ele>
        <time>2022-08-26T19:48:19Z</time>
      </trkpt>
      <trkpt lat="45.85152" lon="6.72883">
        <ele>1343</ele>
        <time>2022-08-26T19:48:20Z</time>
      </trkpt>
      <trkpt lat="45.85149" lon="6.72884">
        <ele>1343</ele>
        <time>2022-08-26T19:48:22Z</time>
      </trkpt>
      <trkpt lat="45.85147" lon="6.72885">
        <ele>1343</ele>
        <time>2022-08-26T19:48:24Z</time>
      </trkpt>
      <trkpt lat="45.85144" lon="6.72887">
        <ele>1343</ele>
        <time>2022-08-26T19:48:25Z</time>
      </trkpt>
      <trkpt lat="45.85142" lon="6.72888">
        <ele>1343</ele>
        <time>2022-08-26T19:48:26Z</time>
      </trkpt>
      <trkpt lat="45.8514" lon="6.72889">
        <ele>1343</ele>
        <time>2022-08-26T19:48:27Z</time>
      </trkpt>
      <trkpt lat="45.85138" lon="6.7289">
        <ele>1344</ele>
        <time>2022-08-26T19:48:28Z</time>
      </trkpt>
      <trkpt lat="45.85136" lon="6.72891">
        <ele>1344</ele>
        <time>2022-08-26T19:48:29Z</time>
      </trkpt>
      <trkpt lat="45.85134" lon="6.72892">
        <ele>1344</ele>
        <time>2022-08-26T19:48:30Z</time>
      </trkpt>
      <trkpt lat="45.85132" lon="6.72893">
        <ele>1344</ele>
        <time>2022-08-26T19:48:31Z</time>
      </trkpt>
      <trkpt lat="45.8513" lon="6.72893">
        <ele>1344</ele>
        <time>2022-08-26T19:48:33Z</time>
      </trkpt>
      <trkpt lat="45.85128" lon="6.72894">
        <ele>1344</ele>
        <time>2022-08-26T19:48:34Z</time>
      </trkpt>
      <trkpt lat="45.85126" lon="6.72894">
        <ele>1344</ele>
        <time>2022-08-26T19:48:35Z</time>
      </trkpt>
      <trkpt lat="45.85118" lon="6.72894">
        <ele>1344</ele>
        <time>2022-08-26T19:48:36Z</time>
      </trkpt>
      <trkpt lat="45.85115" lon="6.72892">
        <ele>1344</ele>
        <time>2022-08-26T19:48:38Z</time>
      </trkpt>
      <trkpt lat="45.85112" lon="6.7289">
        <ele>1344</ele>
        <time>2022-08-26T19:48:39Z</time>
      </trkpt>
      <trkpt lat="45.85105" lon="6.72881">
        <ele>1346</ele>
        <time>2022-08-26T19:48:45Z</time>
      </trkpt>
      <trkpt lat="45.85104" lon="6.72877">
        <ele>1347</ele>
        <time>2022-08-26T19:48:47Z</time>
      </trkpt>
      <trkpt lat="45.85103" lon="6.72875">
        <ele>1347</ele>
        <time>2022-08-26T19:48:48Z</time>
      </trkpt>
      <trkpt lat="45.85102" lon="6.72872">
        <ele>1347</ele>
        <time>2022-08-26T19:48:50Z</time>
      </trkpt>
      <trkpt lat="45.85102" lon="6.72869">
        <ele>1347</ele>
        <time>2022-08-26T19:48:52Z</time>
      </trkpt>
      <trkpt lat="45.85101" lon="6.72866">
        <ele>1348</ele>
        <time>2022-08-26T19:48:54Z</time>
      </trkpt>
      <trkpt lat="45.851" lon="6.72863">
        <ele>1349</ele>
        <time>2022-08-26T19:48:56Z</time>
      </trkpt>
      <trkpt lat="45.85099" lon="6.7286">
        <ele>1349</ele>
        <time>2022-08-26T19:48:58Z</time>
      </trkpt>
      <trkpt lat="45.85098" lon="6.72858">
        <ele>1349</ele>
        <time>2022-08-26T19:49:01Z</time>
      </trkpt>
      <trkpt lat="45.85097" lon="6.72855">
        <ele>1350</ele>
        <time>2022-08-26T19:49:03Z</time>
      </trkpt>
      <trkpt lat="45.85096" lon="6.72855">
        <ele>1350</ele>
        <time>2022-08-26T19:49:04Z</time>
      </trkpt>
      <trkpt lat="45.85096" lon="6.72854">
        <ele>1351</ele>
        <time>2022-08-26T19:49:06Z</time>
      </trkpt>
      <trkpt lat="45.85095" lon="6.72854">
        <ele>1351</ele>
        <time>2022-08-26T19:49:07Z</time>
      </trkpt>
      <trkpt lat="45.85095" lon="6.72853">
        <ele>1352</ele>
        <time>2022-08-26T19:49:08Z</time>
      </trkpt>
      <trkpt lat="45.85094" lon="6.72853">
        <ele>1352</ele>
        <time>2022-08-26T19:49:09Z</time>
      </trkpt>
      <trkpt lat="45.85094" lon="6.72852">
        <ele>1352</ele>
        <time>2022-08-26T19:49:11Z</time>
      </trkpt>
      <trkpt lat="45.85093" lon="6.72852">
        <ele>1352</ele>
        <time>2022-08-26T19:49:12Z</time>
      </trkpt>
      <trkpt lat="45.85093" lon="6.72851">
        <ele>1353</ele>
        <time>2022-08-26T19:49:13Z</time>
      </trkpt>
      <trkpt lat="45.85092" lon="6.72851">
        <ele>1353</ele>
        <time>2022-08-26T19:49:14Z</time>
      </trkpt>
      <trkpt lat="45.85092" lon="6.7285">
        <ele>1353</ele>
        <time>2022-08-26T19:49:16Z</time>
      </trkpt>
      <trkpt lat="45.85091" lon="6.7285">
        <ele>1354</ele>
        <time>2022-08-26T19:49:17Z</time>
      </trkpt>
      <trkpt lat="45.85091" lon="6.72849">
        <ele>1354</ele>
        <time>2022-08-26T19:49:18Z</time>
      </trkpt>
      <trkpt lat="45.85084" lon="6.72846">
        <ele>1354</ele>
        <time>2022-08-26T19:49:19Z</time>
      </trkpt>
      <trkpt lat="45.85081" lon="6.72845">
        <ele>1355</ele>
        <time>2022-08-26T19:49:21Z</time>
      </trkpt>
      <trkpt lat="45.85079" lon="6.72845">
        <ele>1356</ele>
        <time>2022-08-26T19:49:23Z</time>
      </trkpt>
      <trkpt lat="45.85077" lon="6.72845">
        <ele>1356</ele>
        <time>2022-08-26T19:49:24Z</time>
      </trkpt>
      <trkpt lat="45.85075" lon="6.72845">
        <ele>1356</ele>
        <time>2022-08-26T19:49:25Z</time>
      </trkpt>
      <trkpt lat="45.85073" lon="6.72844">
        <ele>1356</ele>
        <time>2022-08-26T19:49:26Z</time>
      </trkpt>
      <trkpt lat="45.85071" lon="6.72844">
        <ele>1356</ele>
        <time>2022-08-26T19:49:28Z</time>
      </trkpt>
      <trkpt lat="45.85069" lon="6.72844">
        <ele>1356</ele>
        <time>2022-08-26T19:49:30Z</time>
      </trkpt>
      <trkpt lat="45.85068" lon="6.72844">
        <ele>1357</ele>
        <time>2022-08-26T19:49:31Z</time>
      </trkpt>
      <trkpt lat="45.85066" lon="6.72844">
        <ele>1357</ele>
        <time>2022-08-26T19:49:32Z</time>
      </trkpt>
      <trkpt lat="45.85065" lon="6.72844">
        <ele>1357</ele>
        <time>2022-08-26T19:49:33Z</time>
      </trkpt>
      <trkpt lat="45.85063" lon="6.72845">
        <ele>1357</ele>
        <time>2022-08-26T19:49:35Z</time>
      </trkpt>
      <trkpt lat="45.85062" lon="6.72845">
        <ele>1357</ele>
        <time>2022-08-26T19:49:36Z</time>
      </trkpt>
      <trkpt lat="45.85061" lon="6.72846">
        <ele>1357</ele>
        <time>2022-08-26T19:49:37Z</time>
      </trkpt>
      <trkpt lat="45.85059" lon="6.72846">
        <ele>1357</ele>
        <time>2022-08-26T19:49:38Z</time>
      </trkpt>
      <trkpt lat="45.85057" lon="6.72846">
        <ele>1357</ele>
        <time>2022-08-26T19:49:39Z</time>
      </trkpt>
      <trkpt lat="45.85053" lon="6.72846">
        <ele>1357</ele>
        <time>2022-08-26T19:49:41Z</time>
      </trkpt>
      <trkpt lat="45.85052" lon="6.72846">
        <ele>1357</ele>
        <time>2022-08-26T19:49:42Z</time>
      </trkpt>
      <trkpt lat="45.8505" lon="6.72845">
        <ele>1357</ele>
        <time>2022-08-26T19:49:43Z</time>
      </trkpt>
      <trkpt lat="45.85048" lon="6.72845">
        <ele>1358</ele>
        <time>2022-08-26T19:49:44Z</time>
      </trkpt>
      <trkpt lat="45.85046" lon="6.72845">
        <ele>1358</ele>
        <time>2022-08-26T19:49:45Z</time>
      </trkpt>
      <trkpt lat="45.85043" lon="6.72845">
        <ele>1358</ele>
        <time>2022-08-26T19:49:46Z</time>
      </trkpt>
      <trkpt lat="45.85042" lon="6.72845">
        <ele>1358</ele>
        <time>2022-08-26T19:49:47Z</time>
      </trkpt>
      <trkpt lat="45.8504" lon="6.72844">
        <ele>1358</ele>
        <time>2022-08-26T19:49:48Z</time>
      </trkpt>
      <trkpt lat="45.85038" lon="6.72843">
        <ele>1358</ele>
        <time>2022-08-26T19:49:49Z</time>
      </trkpt>
      <trkpt lat="45.85035" lon="6.72842">
        <ele>1358</ele>
        <time>2022-08-26T19:49:50Z</time>
      </trkpt>
      <trkpt lat="45.85032" lon="6.72841">
        <ele>1359</ele>
        <time>2022-08-26T19:49:52Z</time>
      </trkpt>
      <trkpt lat="45.85029" lon="6.72841">
        <ele>1359</ele>
        <time>2022-08-26T19:49:54Z</time>
      </trkpt>
      <trkpt lat="45.85027" lon="6.72842">
        <ele>1359</ele>
        <time>2022-08-26T19:49:55Z</time>
      </trkpt>
      <trkpt lat="45.85023" lon="6.7284">
        <ele>1359</ele>
        <time>2022-08-26T19:49:57Z</time>
      </trkpt>
      <trkpt lat="45.85021" lon="6.7284">
        <ele>1359</ele>
        <time>2022-08-26T19:49:58Z</time>
      </trkpt>
      <trkpt lat="45.85018" lon="6.7284">
        <ele>1359</ele>
        <time>2022-08-26T19:50:00Z</time>
      </trkpt>
      <trkpt lat="45.85015" lon="6.7284">
        <ele>1360</ele>
        <time>2022-08-26T19:50:02Z</time>
      </trkpt>
      <trkpt lat="45.85013" lon="6.7284">
        <ele>1360</ele>
        <time>2022-08-26T19:50:04Z</time>
      </trkpt>
      <trkpt lat="45.85011" lon="6.7284">
        <ele>1360</ele>
        <time>2022-08-26T19:50:06Z</time>
      </trkpt>
      <trkpt lat="45.85009" lon="6.72841">
        <ele>1360</ele>
        <time>2022-08-26T19:50:07Z</time>
      </trkpt>
      <trkpt lat="45.85007" lon="6.72841">
        <ele>1360</ele>
        <time>2022-08-26T19:50:08Z</time>
      </trkpt>
      <trkpt lat="45.85005" lon="6.72841">
        <ele>1360</ele>
        <time>2022-08-26T19:50:09Z</time>
      </trkpt>
      <trkpt lat="45.85002" lon="6.72841">
        <ele>1360</ele>
        <time>2022-08-26T19:50:11Z</time>
      </trkpt>
      <trkpt lat="45.85" lon="6.72842">
        <ele>1360</ele>
        <time>2022-08-26T19:50:12Z</time>
      </trkpt>
      <trkpt lat="45.84998" lon="6.72842">
        <ele>1360</ele>
        <time>2022-08-26T19:50:13Z</time>
      </trkpt>
      <trkpt lat="45.84995" lon="6.72843">
        <ele>1360</ele>
        <time>2022-08-26T19:50:14Z</time>
      </trkpt>
      <trkpt lat="45.84992" lon="6.72841">
        <ele>1360</ele>
        <time>2022-08-26T19:50:16Z</time>
      </trkpt>
      <trkpt lat="45.84989" lon="6.7284">
        <ele>1361</ele>
        <time>2022-08-26T19:50:18Z</time>
      </trkpt>
      <trkpt lat="45.84986" lon="6.72839">
        <ele>1361</ele>
        <time>2022-08-26T19:50:19Z</time>
      </trkpt>
      <trkpt lat="45.84984" lon="6.72839">
        <ele>1361</ele>
        <time>2022-08-26T19:50:20Z</time>
      </trkpt>
      <trkpt lat="45.84982" lon="6.72839">
        <ele>1361</ele>
        <time>2022-08-26T19:50:21Z</time>
      </trkpt>
      <trkpt lat="45.84979" lon="6.72839">
        <ele>1361</ele>
        <time>2022-08-26T19:50:23Z</time>
      </trkpt>
      <trkpt lat="45.84977" lon="6.72838">
        <ele>1361</ele>
        <time>2022-08-26T19:50:24Z</time>
      </trkpt>
      <trkpt lat="45.84976" lon="6.72838">
        <ele>1361</ele>
        <time>2022-08-26T19:50:25Z</time>
      </trkpt>
      <trkpt lat="45.84974" lon="6.72837">
        <ele>1361</ele>
        <time>2022-08-26T19:50:27Z</time>
      </trkpt>
      <trkpt lat="45.84973" lon="6.72837">
        <ele>1361</ele>
        <time>2022-08-26T19:50:28Z</time>
      </trkpt>
      <trkpt lat="45.84972" lon="6.72837">
        <ele>1361</ele>
        <time>2022-08-26T19:50:29Z</time>
      </trkpt>
      <trkpt lat="45.8497" lon="6.72836">
        <ele>1361</ele>
        <time>2022-08-26T19:50:30Z</time>
      </trkpt>
      <trkpt lat="45.84969" lon="6.72836">
        <ele>1361</ele>
        <time>2022-08-26T19:50:31Z</time>
      </trkpt>
      <trkpt lat="45.84968" lon="6.72835">
        <ele>1362</ele>
        <time>2022-08-26T19:50:32Z</time>
      </trkpt>
      <trkpt lat="45.84967" lon="6.72833">
        <ele>1362</ele>
        <time>2022-08-26T19:50:34Z</time>
      </trkpt>
      <trkpt lat="45.84967" lon="6.7283">
        <ele>1362</ele>
        <time>2022-08-26T19:50:35Z</time>
      </trkpt>
      <trkpt lat="45.84967" lon="6.72827">
        <ele>1362</ele>
        <time>2022-08-26T19:50:37Z</time>
      </trkpt>
      <trkpt lat="45.84967" lon="6.72824">
        <ele>1363</ele>
        <time>2022-08-26T19:50:38Z</time>
      </trkpt>
      <trkpt lat="45.84967" lon="6.7282">
        <ele>1363</ele>
        <time>2022-08-26T19:50:39Z</time>
      </trkpt>
      <trkpt lat="45.84967" lon="6.72817">
        <ele>1363</ele>
        <time>2022-08-26T19:50:41Z</time>
      </trkpt>
      <trkpt lat="45.84968" lon="6.72813">
        <ele>1364</ele>
        <time>2022-08-26T19:50:43Z</time>
      </trkpt>
      <trkpt lat="45.84968" lon="6.72809">
        <ele>1364</ele>
        <time>2022-08-26T19:50:45Z</time>
      </trkpt>
      <trkpt lat="45.84967" lon="6.72807">
        <ele>1365</ele>
        <time>2022-08-26T19:50:47Z</time>
      </trkpt>
      <trkpt lat="45.84964" lon="6.72806">
        <ele>1365</ele>
        <time>2022-08-26T19:50:49Z</time>
      </trkpt>
      <trkpt lat="45.84962" lon="6.72805">
        <ele>1366</ele>
        <time>2022-08-26T19:50:51Z</time>
      </trkpt>
      <trkpt lat="45.8496" lon="6.72805">
        <ele>1366</ele>
        <time>2022-08-26T19:50:52Z</time>
      </trkpt>
      <trkpt lat="45.84958" lon="6.72805">
        <ele>1366</ele>
        <time>2022-08-26T19:50:53Z</time>
      </trkpt>
      <trkpt lat="45.84956" lon="6.72805">
        <ele>1366</ele>
        <time>2022-08-26T19:50:55Z</time>
      </trkpt>
      <trkpt lat="45.84954" lon="6.72805">
        <ele>1366</ele>
        <time>2022-08-26T19:50:56Z</time>
      </trkpt>
      <trkpt lat="45.84952" lon="6.72804">
        <ele>1366</ele>
        <time>2022-08-26T19:50:57Z</time>
      </trkpt>
      <trkpt lat="45.8495" lon="6.72805">
        <ele>1366</ele>
        <time>2022-08-26T19:50:58Z</time>
      </trkpt>
      <trkpt lat="45.84948" lon="6.72805">
        <ele>1367</ele>
        <time>2022-08-26T19:51:00Z</time>
      </trkpt>
      <trkpt lat="45.84946" lon="6.72805">
        <ele>1367</ele>
        <time>2022-08-26T19:51:01Z</time>
      </trkpt>
      <trkpt lat="45.84944" lon="6.72805">
        <ele>1367</ele>
        <time>2022-08-26T19:51:02Z</time>
      </trkpt>
      <trkpt lat="45.84942" lon="6.72805">
        <ele>1367</ele>
        <time>2022-08-26T19:51:03Z</time>
      </trkpt>
      <trkpt lat="45.8494" lon="6.72805">
        <ele>1367</ele>
        <time>2022-08-26T19:51:05Z</time>
      </trkpt>
      <trkpt lat="45.84938" lon="6.72805">
        <ele>1367</ele>
        <time>2022-08-26T19:51:06Z</time>
      </trkpt>
      <trkpt lat="45.84935" lon="6.72805">
        <ele>1367</ele>
        <time>2022-08-26T19:51:07Z</time>
      </trkpt>
      <trkpt lat="45.84933" lon="6.72805">
        <ele>1367</ele>
        <time>2022-08-26T19:51:08Z</time>
      </trkpt>
      <trkpt lat="45.84931" lon="6.72806">
        <ele>1367</ele>
        <time>2022-08-26T19:51:09Z</time>
      </trkpt>
      <trkpt lat="45.84926" lon="6.72806">
        <ele>1367</ele>
        <time>2022-08-26T19:51:11Z</time>
      </trkpt>
      <trkpt lat="45.84922" lon="6.72807">
        <ele>1367</ele>
        <time>2022-08-26T19:51:12Z</time>
      </trkpt>
      <trkpt lat="45.8492" lon="6.72807">
        <ele>1367</ele>
        <time>2022-08-26T19:51:13Z</time>
      </trkpt>
      <trkpt lat="45.84918" lon="6.72807">
        <ele>1367</ele>
        <time>2022-08-26T19:51:15Z</time>
      </trkpt>
      <trkpt lat="45.84916" lon="6.72807">
        <ele>1367</ele>
        <time>2022-08-26T19:51:16Z</time>
      </trkpt>
      <trkpt lat="45.8491" lon="6.72808">
        <ele>1367</ele>
        <time>2022-08-26T19:51:17Z</time>
      </trkpt>
      <trkpt lat="45.84909" lon="6.72808">
        <ele>1367</ele>
        <time>2022-08-26T19:51:19Z</time>
      </trkpt>
      <trkpt lat="45.84907" lon="6.72807">
        <ele>1367</ele>
        <time>2022-08-26T19:51:20Z</time>
      </trkpt>
      <trkpt lat="45.84906" lon="6.72807">
        <ele>1367</ele>
        <time>2022-08-26T19:51:21Z</time>
      </trkpt>
      <trkpt lat="45.84899" lon="6.72806">
        <ele>1367</ele>
        <time>2022-08-26T19:51:22Z</time>
      </trkpt>
      <trkpt lat="45.84896" lon="6.72805">
        <ele>1367</ele>
        <time>2022-08-26T19:51:24Z</time>
      </trkpt>
      <trkpt lat="45.84894" lon="6.72805">
        <ele>1367</ele>
        <time>2022-08-26T19:51:25Z</time>
      </trkpt>
      <trkpt lat="45.84891" lon="6.72805">
        <ele>1367</ele>
        <time>2022-08-26T19:51:26Z</time>
      </trkpt>
      <trkpt lat="45.8489" lon="6.72805">
        <ele>1367</ele>
        <time>2022-08-26T19:51:27Z</time>
      </trkpt>
      <trkpt lat="45.84889" lon="6.72805">
        <ele>1367</ele>
        <time>2022-08-26T19:51:29Z</time>
      </trkpt>
      <trkpt lat="45.84887" lon="6.72805">
        <ele>1368</ele>
        <time>2022-08-26T19:51:31Z</time>
      </trkpt>
      <trkpt lat="45.84886" lon="6.72805">
        <ele>1368</ele>
        <time>2022-08-26T19:51:32Z</time>
      </trkpt>
      <trkpt lat="45.84885" lon="6.72806">
        <ele>1368</ele>
        <time>2022-08-26T19:51:34Z</time>
      </trkpt>
      <trkpt lat="45.84883" lon="6.72806">
        <ele>1368</ele>
        <time>2022-08-26T19:51:35Z</time>
      </trkpt>
      <trkpt lat="45.84882" lon="6.72806">
        <ele>1368</ele>
        <time>2022-08-26T19:51:36Z</time>
      </trkpt>
      <trkpt lat="45.84879" lon="6.72806">
        <ele>1368</ele>
        <time>2022-08-26T19:51:37Z</time>
      </trkpt>
      <trkpt lat="45.84875" lon="6.72805">
        <ele>1368</ele>
        <time>2022-08-26T19:51:38Z</time>
      </trkpt>
      <trkpt lat="45.84872" lon="6.72805">
        <ele>1368</ele>
        <time>2022-08-26T19:51:39Z</time>
      </trkpt>
      <trkpt lat="45.84869" lon="6.72805">
        <ele>1369</ele>
        <time>2022-08-26T19:51:41Z</time>
      </trkpt>
      <trkpt lat="45.84867" lon="6.72804">
        <ele>1369</ele>
        <time>2022-08-26T19:51:42Z</time>
      </trkpt>
      <trkpt lat="45.84864" lon="6.72804">
        <ele>1369</ele>
        <time>2022-08-26T19:51:43Z</time>
      </trkpt>
      <trkpt lat="45.84862" lon="6.72803">
        <ele>1369</ele>
        <time>2022-08-26T19:51:44Z</time>
      </trkpt>
      <trkpt lat="45.84861" lon="6.72803">
        <ele>1369</ele>
        <time>2022-08-26T19:51:46Z</time>
      </trkpt>
      <trkpt lat="45.8486" lon="6.72803">
        <ele>1369</ele>
        <time>2022-08-26T19:51:47Z</time>
      </trkpt>
      <trkpt lat="45.84859" lon="6.72803">
        <ele>1369</ele>
        <time>2022-08-26T19:51:48Z</time>
      </trkpt>
      <trkpt lat="45.84858" lon="6.72802">
        <ele>1369</ele>
        <time>2022-08-26T19:51:49Z</time>
      </trkpt>
      <trkpt lat="45.84851" lon="6.728">
        <ele>1369</ele>
        <time>2022-08-26T19:51:51Z</time>
      </trkpt>
      <trkpt lat="45.84839" lon="6.72799">
        <ele>1368</ele>
        <time>2022-08-26T19:51:53Z</time>
      </trkpt>
      <trkpt lat="45.84836" lon="6.72798">
        <ele>1368</ele>
        <time>2022-08-26T19:51:54Z</time>
      </trkpt>
      <trkpt lat="45.84833" lon="6.72797">
        <ele>1368</ele>
        <time>2022-08-26T19:51:55Z</time>
      </trkpt>
      <trkpt lat="45.84831" lon="6.72797">
        <ele>1368</ele>
        <time>2022-08-26T19:51:57Z</time>
      </trkpt>
      <trkpt lat="45.84828" lon="6.72796">
        <ele>1368</ele>
        <time>2022-08-26T19:51:58Z</time>
      </trkpt>
      <trkpt lat="45.84826" lon="6.72796">
        <ele>1367</ele>
        <time>2022-08-26T19:51:59Z</time>
      </trkpt>
      <trkpt lat="45.84824" lon="6.72796">
        <ele>1367</ele>
        <time>2022-08-26T19:52:00Z</time>
      </trkpt>
      <trkpt lat="45.84823" lon="6.72795">
        <ele>1366</ele>
        <time>2022-08-26T19:52:01Z</time>
      </trkpt>
      <trkpt lat="45.84815" lon="6.72794">
        <ele>1366</ele>
        <time>2022-08-26T19:52:02Z</time>
      </trkpt>
      <trkpt lat="45.84812" lon="6.72793">
        <ele>1366</ele>
        <time>2022-08-26T19:52:03Z</time>
      </trkpt>
      <trkpt lat="45.8481" lon="6.72792">
        <ele>1365</ele>
        <time>2022-08-26T19:52:04Z</time>
      </trkpt>
      <trkpt lat="45.84807" lon="6.72791">
        <ele>1365</ele>
        <time>2022-08-26T19:52:05Z</time>
      </trkpt>
      <trkpt lat="45.84804" lon="6.7279">
        <ele>1365</ele>
        <time>2022-08-26T19:52:06Z</time>
      </trkpt>
      <trkpt lat="45.84801" lon="6.72789">
        <ele>1364</ele>
        <time>2022-08-26T19:52:08Z</time>
      </trkpt>
      <trkpt lat="45.84797" lon="6.72789">
        <ele>1364</ele>
        <time>2022-08-26T19:52:09Z</time>
      </trkpt>
      <trkpt lat="45.84796" lon="6.72788">
        <ele>1364</ele>
        <time>2022-08-26T19:52:11Z</time>
      </trkpt>
      <trkpt lat="45.84794" lon="6.72787">
        <ele>1364</ele>
        <time>2022-08-26T19:52:12Z</time>
      </trkpt>
      <trkpt lat="45.84793" lon="6.72786">
        <ele>1364</ele>
        <time>2022-08-26T19:52:13Z</time>
      </trkpt>
      <trkpt lat="45.84785" lon="6.72783">
        <ele>1365</ele>
        <time>2022-08-26T19:52:14Z</time>
      </trkpt>
      <trkpt lat="45.84783" lon="6.72782">
        <ele>1365</ele>
        <time>2022-08-26T19:52:16Z</time>
      </trkpt>
      <trkpt lat="45.84781" lon="6.72781">
        <ele>1365</ele>
        <time>2022-08-26T19:52:17Z</time>
      </trkpt>
      <trkpt lat="45.84779" lon="6.72779">
        <ele>1365</ele>
        <time>2022-08-26T19:52:18Z</time>
      </trkpt>
      <trkpt lat="45.84774" lon="6.72778">
        <ele>1364</ele>
        <time>2022-08-26T19:52:20Z</time>
      </trkpt>
      <trkpt lat="45.8477" lon="6.72776">
        <ele>1364</ele>
        <time>2022-08-26T19:52:21Z</time>
      </trkpt>
      <trkpt lat="45.8476" lon="6.72773">
        <ele>1363</ele>
        <time>2022-08-26T19:52:25Z</time>
      </trkpt>
      <trkpt lat="45.84758" lon="6.72772">
        <ele>1363</ele>
        <time>2022-08-26T19:52:26Z</time>
      </trkpt>
      <trkpt lat="45.84756" lon="6.72771">
        <ele>1363</ele>
        <time>2022-08-26T19:52:27Z</time>
      </trkpt>
      <trkpt lat="45.84753" lon="6.7277">
        <ele>1363</ele>
        <time>2022-08-26T19:52:28Z</time>
      </trkpt>
      <trkpt lat="45.84751" lon="6.72769">
        <ele>1362</ele>
        <time>2022-08-26T19:52:29Z</time>
      </trkpt>
      <trkpt lat="45.84748" lon="6.72768">
        <ele>1362</ele>
        <time>2022-08-26T19:52:31Z</time>
      </trkpt>
      <trkpt lat="45.84744" lon="6.72767">
        <ele>1362</ele>
        <time>2022-08-26T19:52:32Z</time>
      </trkpt>
      <trkpt lat="45.84741" lon="6.72766">
        <ele>1362</ele>
        <time>2022-08-26T19:52:33Z</time>
      </trkpt>
      <trkpt lat="45.84739" lon="6.72765">
        <ele>1361</ele>
        <time>2022-08-26T19:52:35Z</time>
      </trkpt>
      <trkpt lat="45.84738" lon="6.72764">
        <ele>1361</ele>
        <time>2022-08-26T19:52:36Z</time>
      </trkpt>
      <trkpt lat="45.84736" lon="6.72763">
        <ele>1361</ele>
        <time>2022-08-26T19:52:37Z</time>
      </trkpt>
      <trkpt lat="45.84734" lon="6.72763">
        <ele>1361</ele>
        <time>2022-08-26T19:52:38Z</time>
      </trkpt>
      <trkpt lat="45.84732" lon="6.72762">
        <ele>1361</ele>
        <time>2022-08-26T19:52:39Z</time>
      </trkpt>
      <trkpt lat="45.84727" lon="6.72762">
        <ele>1361</ele>
        <time>2022-08-26T19:52:41Z</time>
      </trkpt>
      <trkpt lat="45.84722" lon="6.72761">
        <ele>1361</ele>
        <time>2022-08-26T19:52:42Z</time>
      </trkpt>
      <trkpt lat="45.84711" lon="6.72761">
        <ele>1361</ele>
        <time>2022-08-26T19:52:46Z</time>
      </trkpt>
      <trkpt lat="45.84701" lon="6.72759">
        <ele>1361</ele>
        <time>2022-08-26T19:52:50Z</time>
      </trkpt>
      <trkpt lat="45.84701" lon="6.72759">
        <ele>1361</ele>
        <time>2022-08-26T19:52:51Z</time>
      </trkpt>
      <trkpt lat="45.847" lon="6.72758">
        <ele>1361</ele>
        <time>2022-08-26T19:52:52Z</time>
      </trkpt>
      <trkpt lat="45.84699" lon="6.72758">
        <ele>1362</ele>
        <time>2022-08-26T19:52:54Z</time>
      </trkpt>
      <trkpt lat="45.84699" lon="6.72758">
        <ele>1362</ele>
        <time>2022-08-26T19:52:55Z</time>
      </trkpt>
      <trkpt lat="45.84698" lon="6.72758">
        <ele>1362</ele>
        <time>2022-08-26T19:52:56Z</time>
      </trkpt>
      <trkpt lat="45.84698" lon="6.72758">
        <ele>1362</ele>
        <time>2022-08-26T19:52:57Z</time>
      </trkpt>
      <trkpt lat="45.8469" lon="6.72754">
        <ele>1362</ele>
        <time>2022-08-26T19:52:59Z</time>
      </trkpt>
      <trkpt lat="45.84689" lon="6.72753">
        <ele>1362</ele>
        <time>2022-08-26T19:53:00Z</time>
      </trkpt>
      <trkpt lat="45.84687" lon="6.72752">
        <ele>1362</ele>
        <time>2022-08-26T19:53:01Z</time>
      </trkpt>
      <trkpt lat="45.84686" lon="6.72751">
        <ele>1362</ele>
        <time>2022-08-26T19:53:02Z</time>
      </trkpt>
      <trkpt lat="45.84684" lon="6.7275">
        <ele>1362</ele>
        <time>2022-08-26T19:53:03Z</time>
      </trkpt>
      <trkpt lat="45.84683" lon="6.72749">
        <ele>1362</ele>
        <time>2022-08-26T19:53:04Z</time>
      </trkpt>
      <trkpt lat="45.84681" lon="6.72747">
        <ele>1362</ele>
        <time>2022-08-26T19:53:05Z</time>
      </trkpt>
      <trkpt lat="45.84679" lon="6.72745">
        <ele>1362</ele>
        <time>2022-08-26T19:53:07Z</time>
      </trkpt>
      <trkpt lat="45.84678" lon="6.72743">
        <ele>1362</ele>
        <time>2022-08-26T19:53:08Z</time>
      </trkpt>
      <trkpt lat="45.84676" lon="6.72741">
        <ele>1362</ele>
        <time>2022-08-26T19:53:09Z</time>
      </trkpt>
      <trkpt lat="45.84675" lon="6.72739">
        <ele>1362</ele>
        <time>2022-08-26T19:53:10Z</time>
      </trkpt>
      <trkpt lat="45.84673" lon="6.72737">
        <ele>1363</ele>
        <time>2022-08-26T19:53:11Z</time>
      </trkpt>
      <trkpt lat="45.84672" lon="6.72734">
        <ele>1363</ele>
        <time>2022-08-26T19:53:12Z</time>
      </trkpt>
      <trkpt lat="45.84671" lon="6.72732">
        <ele>1363</ele>
        <time>2022-08-26T19:53:13Z</time>
      </trkpt>
      <trkpt lat="45.8467" lon="6.7273">
        <ele>1363</ele>
        <time>2022-08-26T19:53:14Z</time>
      </trkpt>
      <trkpt lat="45.84669" lon="6.72732">
        <ele>1363</ele>
        <time>2022-08-26T19:53:15Z</time>
      </trkpt>
      <trkpt lat="45.84668" lon="6.72734">
        <ele>1363</ele>
        <time>2022-08-26T19:53:16Z</time>
      </trkpt>
      <trkpt lat="45.84667" lon="6.72736">
        <ele>1362</ele>
        <time>2022-08-26T19:53:17Z</time>
      </trkpt>
      <trkpt lat="45.84666" lon="6.72738">
        <ele>1362</ele>
        <time>2022-08-26T19:53:18Z</time>
      </trkpt>
      <trkpt lat="45.84666" lon="6.72739">
        <ele>1362</ele>
        <time>2022-08-26T19:53:19Z</time>
      </trkpt>
      <trkpt lat="45.84665" lon="6.72741">
        <ele>1362</ele>
        <time>2022-08-26T19:53:20Z</time>
      </trkpt>
      <trkpt lat="45.84664" lon="6.72743">
        <ele>1362</ele>
        <time>2022-08-26T19:53:21Z</time>
      </trkpt>
      <trkpt lat="45.84663" lon="6.72745">
        <ele>1362</ele>
        <time>2022-08-26T19:53:22Z</time>
      </trkpt>
      <trkpt lat="45.84661" lon="6.72748">
        <ele>1362</ele>
        <time>2022-08-26T19:53:23Z</time>
      </trkpt>
      <trkpt lat="45.8466" lon="6.7275">
        <ele>1362</ele>
        <time>2022-08-26T19:53:24Z</time>
      </trkpt>
      <trkpt lat="45.84659" lon="6.72752">
        <ele>1362</ele>
        <time>2022-08-26T19:53:25Z</time>
      </trkpt>
      <trkpt lat="45.84657" lon="6.72755">
        <ele>1362</ele>
        <time>2022-08-26T19:53:26Z</time>
      </trkpt>
      <trkpt lat="45.84654" lon="6.72757">
        <ele>1362</ele>
        <time>2022-08-26T19:53:28Z</time>
      </trkpt>
      <trkpt lat="45.84651" lon="6.72759">
        <ele>1362</ele>
        <time>2022-08-26T19:53:29Z</time>
      </trkpt>
      <trkpt lat="45.84647" lon="6.72762">
        <ele>1360</ele>
        <time>2022-08-26T19:53:30Z</time>
      </trkpt>
      <trkpt lat="45.84642" lon="6.72762">
        <ele>1360</ele>
        <time>2022-08-26T19:53:31Z</time>
      </trkpt>
      <trkpt lat="45.84638" lon="6.72763">
        <ele>1360</ele>
        <time>2022-08-26T19:53:32Z</time>
      </trkpt>
      <trkpt lat="45.84635" lon="6.72762">
        <ele>1360</ele>
        <time>2022-08-26T19:53:33Z</time>
      </trkpt>
      <trkpt lat="45.84632" lon="6.72761">
        <ele>1360</ele>
        <time>2022-08-26T19:53:35Z</time>
      </trkpt>
      <trkpt lat="45.84629" lon="6.7276">
        <ele>1360</ele>
        <time>2022-08-26T19:53:36Z</time>
      </trkpt>
      <trkpt lat="45.84628" lon="6.72759">
        <ele>1360</ele>
        <time>2022-08-26T19:53:37Z</time>
      </trkpt>
      <trkpt lat="45.84626" lon="6.72758">
        <ele>1360</ele>
        <time>2022-08-26T19:53:38Z</time>
      </trkpt>
      <trkpt lat="45.84625" lon="6.72757">
        <ele>1360</ele>
        <time>2022-08-26T19:53:40Z</time>
      </trkpt>
      <trkpt lat="45.84624" lon="6.72755">
        <ele>1360</ele>
        <time>2022-08-26T19:53:41Z</time>
      </trkpt>
      <trkpt lat="45.84623" lon="6.72754">
        <ele>1360</ele>
        <time>2022-08-26T19:53:42Z</time>
      </trkpt>
      <trkpt lat="45.84622" lon="6.72753">
        <ele>1360</ele>
        <time>2022-08-26T19:53:43Z</time>
      </trkpt>
      <trkpt lat="45.84621" lon="6.72752">
        <ele>1360</ele>
        <time>2022-08-26T19:53:44Z</time>
      </trkpt>
      <trkpt lat="45.84619" lon="6.72749">
        <ele>1360</ele>
        <time>2022-08-26T19:53:45Z</time>
      </trkpt>
      <trkpt lat="45.84617" lon="6.72746">
        <ele>1360</ele>
        <time>2022-08-26T19:53:47Z</time>
      </trkpt>
      <trkpt lat="45.84615" lon="6.72744">
        <ele>1362</ele>
        <time>2022-08-26T19:53:49Z</time>
      </trkpt>
      <trkpt lat="45.84613" lon="6.72741">
        <ele>1362</ele>
        <time>2022-08-26T19:53:50Z</time>
      </trkpt>
      <trkpt lat="45.84611" lon="6.7274">
        <ele>1362</ele>
        <time>2022-08-26T19:53:51Z</time>
      </trkpt>
      <trkpt lat="45.84609" lon="6.72739">
        <ele>1362</ele>
        <time>2022-08-26T19:53:52Z</time>
      </trkpt>
      <trkpt lat="45.84607" lon="6.72738">
        <ele>1362</ele>
        <time>2022-08-26T19:53:54Z</time>
      </trkpt>
      <trkpt lat="45.84605" lon="6.72737">
        <ele>1362</ele>
        <time>2022-08-26T19:53:55Z</time>
      </trkpt>
      <trkpt lat="45.84603" lon="6.72736">
        <ele>1362</ele>
        <time>2022-08-26T19:53:56Z</time>
      </trkpt>
      <trkpt lat="45.84594" lon="6.72733">
        <ele>1363</ele>
        <time>2022-08-26T19:54:01Z</time>
      </trkpt>
      <trkpt lat="45.84593" lon="6.72732">
        <ele>1363</ele>
        <time>2022-08-26T19:54:03Z</time>
      </trkpt>
      <trkpt lat="45.84592" lon="6.7273">
        <ele>1363</ele>
        <time>2022-08-26T19:54:04Z</time>
      </trkpt>
      <trkpt lat="45.84592" lon="6.72729">
        <ele>1363</ele>
        <time>2022-08-26T19:54:06Z</time>
      </trkpt>
      <trkpt lat="45.84591" lon="6.72728">
        <ele>1364</ele>
        <time>2022-08-26T19:54:08Z</time>
      </trkpt>
      <trkpt lat="45.8459" lon="6.72727">
        <ele>1364</ele>
        <time>2022-08-26T19:54:10Z</time>
      </trkpt>
      <trkpt lat="45.84589" lon="6.72725">
        <ele>1364</ele>
        <time>2022-08-26T19:54:11Z</time>
      </trkpt>
      <trkpt lat="45.84588" lon="6.72724">
        <ele>1364</ele>
        <time>2022-08-26T19:54:12Z</time>
      </trkpt>
      <trkpt lat="45.84588" lon="6.72723">
        <ele>1365</ele>
        <time>2022-08-26T19:54:13Z</time>
      </trkpt>
      <trkpt lat="45.84586" lon="6.72722">
        <ele>1365</ele>
        <time>2022-08-26T19:54:15Z</time>
      </trkpt>
      <trkpt lat="45.84585" lon="6.72721">
        <ele>1366</ele>
        <time>2022-08-26T19:54:16Z</time>
      </trkpt>
      <trkpt lat="45.84584" lon="6.72721">
        <ele>1366</ele>
        <time>2022-08-26T19:54:17Z</time>
      </trkpt>
      <trkpt lat="45.84583" lon="6.7272">
        <ele>1366</ele>
        <time>2022-08-26T19:54:18Z</time>
      </trkpt>
      <trkpt lat="45.84582" lon="6.72719">
        <ele>1367</ele>
        <time>2022-08-26T19:54:20Z</time>
      </trkpt>
      <trkpt lat="45.84581" lon="6.72718">
        <ele>1367</ele>
        <time>2022-08-26T19:54:21Z</time>
      </trkpt>
      <trkpt lat="45.8458" lon="6.72717">
        <ele>1367</ele>
        <time>2022-08-26T19:54:22Z</time>
      </trkpt>
      <trkpt lat="45.84579" lon="6.72717">
        <ele>1368</ele>
        <time>2022-08-26T19:54:23Z</time>
      </trkpt>
      <trkpt lat="45.84579" lon="6.72715">
        <ele>1368</ele>
        <time>2022-08-26T19:54:25Z</time>
      </trkpt>
      <trkpt lat="45.84578" lon="6.72713">
        <ele>1369</ele>
        <time>2022-08-26T19:54:27Z</time>
      </trkpt>
      <trkpt lat="45.84578" lon="6.72712">
        <ele>1369</ele>
        <time>2022-08-26T19:54:28Z</time>
      </trkpt>
      <trkpt lat="45.84577" lon="6.7271">
        <ele>1370</ele>
        <time>2022-08-26T19:54:29Z</time>
      </trkpt>
      <trkpt lat="45.84577" lon="6.72709">
        <ele>1370</ele>
        <time>2022-08-26T19:54:30Z</time>
      </trkpt>
      <trkpt lat="45.84576" lon="6.72707">
        <ele>1370</ele>
        <time>2022-08-26T19:54:31Z</time>
      </trkpt>
      <trkpt lat="45.84576" lon="6.72705">
        <ele>1371</ele>
        <time>2022-08-26T19:54:32Z</time>
      </trkpt>
      <trkpt lat="45.84575" lon="6.72704">
        <ele>1371</ele>
        <time>2022-08-26T19:54:33Z</time>
      </trkpt>
      <trkpt lat="45.84574" lon="6.72704">
        <ele>1371</ele>
        <time>2022-08-26T19:54:34Z</time>
      </trkpt>
      <trkpt lat="45.84573" lon="6.72703">
        <ele>1371</ele>
        <time>2022-08-26T19:54:35Z</time>
      </trkpt>
      <trkpt lat="45.84573" lon="6.72703">
        <ele>1371</ele>
        <time>2022-08-26T19:54:37Z</time>
      </trkpt>
      <trkpt lat="45.84572" lon="6.72703">
        <ele>1371</ele>
        <time>2022-08-26T19:54:38Z</time>
      </trkpt>
      <trkpt lat="45.84571" lon="6.72703">
        <ele>1372</ele>
        <time>2022-08-26T19:54:39Z</time>
      </trkpt>
      <trkpt lat="45.8457" lon="6.72702">
        <ele>1372</ele>
        <time>2022-08-26T19:54:40Z</time>
      </trkpt>
      <trkpt lat="45.84569" lon="6.72702">
        <ele>1372</ele>
        <time>2022-08-26T19:54:42Z</time>
      </trkpt>
      <trkpt lat="45.84568" lon="6.72702">
        <ele>1372</ele>
        <time>2022-08-26T19:54:44Z</time>
      </trkpt>
      <trkpt lat="45.84567" lon="6.72701">
        <ele>1372</ele>
        <time>2022-08-26T19:54:45Z</time>
      </trkpt>
      <trkpt lat="45.84566" lon="6.72701">
        <ele>1372</ele>
        <time>2022-08-26T19:54:46Z</time>
      </trkpt>
      <trkpt lat="45.84564" lon="6.72701">
        <ele>1373</ele>
        <time>2022-08-26T19:54:48Z</time>
      </trkpt>
      <trkpt lat="45.84561" lon="6.72701">
        <ele>1373</ele>
        <time>2022-08-26T19:54:50Z</time>
      </trkpt>
      <trkpt lat="45.84559" lon="6.72701">
        <ele>1373</ele>
        <time>2022-08-26T19:54:51Z</time>
      </trkpt>
      <trkpt lat="45.84556" lon="6.727">
        <ele>1373</ele>
        <time>2022-08-26T19:54:52Z</time>
      </trkpt>
      <trkpt lat="45.84547" lon="6.72706">
        <ele>1372</ele>
        <time>2022-08-26T19:55:03Z</time>
      </trkpt>
      <trkpt lat="45.84545" lon="6.72706">
        <ele>1372</ele>
        <time>2022-08-26T19:55:04Z</time>
      </trkpt>
      <trkpt lat="45.84542" lon="6.72705">
        <ele>1372</ele>
        <time>2022-08-26T19:55:05Z</time>
      </trkpt>
      <trkpt lat="45.8454" lon="6.72704">
        <ele>1372</ele>
        <time>2022-08-26T19:55:07Z</time>
      </trkpt>
      <trkpt lat="45.84538" lon="6.72704">
        <ele>1372</ele>
        <time>2022-08-26T19:55:08Z</time>
      </trkpt>
      <trkpt lat="45.84529" lon="6.72709">
        <ele>1372</ele>
        <time>2022-08-26T19:55:12Z</time>
      </trkpt>
      <trkpt lat="45.84528" lon="6.7271">
        <ele>1372</ele>
        <time>2022-08-26T19:55:13Z</time>
      </trkpt>
      <trkpt lat="45.84526" lon="6.72711">
        <ele>1372</ele>
        <time>2022-08-26T19:55:14Z</time>
      </trkpt>
      <trkpt lat="45.84524" lon="6.72713">
        <ele>1372</ele>
        <time>2022-08-26T19:55:15Z</time>
      </trkpt>
      <trkpt lat="45.84523" lon="6.72714">
        <ele>1372</ele>
        <time>2022-08-26T19:55:17Z</time>
      </trkpt>
      <trkpt lat="45.84521" lon="6.72715">
        <ele>1372</ele>
        <time>2022-08-26T19:55:18Z</time>
      </trkpt>
      <trkpt lat="45.84516" lon="6.72717">
        <ele>1371</ele>
        <time>2022-08-26T19:55:19Z</time>
      </trkpt>
      <trkpt lat="45.84511" lon="6.72719">
        <ele>1371</ele>
        <time>2022-08-26T19:55:20Z</time>
      </trkpt>
      <trkpt lat="45.8451" lon="6.7272">
        <ele>1370</ele>
        <time>2022-08-26T19:55:22Z</time>
      </trkpt>
      <trkpt lat="45.84509" lon="6.72721">
        <ele>1370</ele>
        <time>2022-08-26T19:55:23Z</time>
      </trkpt>
      <trkpt lat="45.84508" lon="6.72722">
        <ele>1370</ele>
        <time>2022-08-26T19:55:24Z</time>
      </trkpt>
      <trkpt lat="45.84497" lon="6.72729">
        <ele>1370</ele>
        <time>2022-08-26T19:55:26Z</time>
      </trkpt>
      <trkpt lat="45.84492" lon="6.72731">
        <ele>1369</ele>
        <time>2022-08-26T19:55:27Z</time>
      </trkpt>
      <trkpt lat="45.8449" lon="6.72733">
        <ele>1369</ele>
        <time>2022-08-26T19:55:28Z</time>
      </trkpt>
      <trkpt lat="45.84488" lon="6.72734">
        <ele>1369</ele>
        <time>2022-08-26T19:55:29Z</time>
      </trkpt>
      <trkpt lat="45.84485" lon="6.72735">
        <ele>1369</ele>
        <time>2022-08-26T19:55:30Z</time>
      </trkpt>
      <trkpt lat="45.84483" lon="6.72736">
        <ele>1368</ele>
        <time>2022-08-26T19:55:31Z</time>
      </trkpt>
      <trkpt lat="45.84479" lon="6.72736">
        <ele>1368</ele>
        <time>2022-08-26T19:55:32Z</time>
      </trkpt>
      <trkpt lat="45.84476" lon="6.72737">
        <ele>1368</ele>
        <time>2022-08-26T19:55:33Z</time>
      </trkpt>
      <trkpt lat="45.84473" lon="6.72738">
        <ele>1368</ele>
        <time>2022-08-26T19:55:34Z</time>
      </trkpt>
      <trkpt lat="45.84471" lon="6.72738">
        <ele>1367</ele>
        <time>2022-08-26T19:55:35Z</time>
      </trkpt>
      <trkpt lat="45.8447" lon="6.72738">
        <ele>1367</ele>
        <time>2022-08-26T19:55:36Z</time>
      </trkpt>
      <trkpt lat="45.84469" lon="6.72738">
        <ele>1367</ele>
        <time>2022-08-26T19:55:37Z</time>
      </trkpt>
      <trkpt lat="45.84461" lon="6.72738">
        <ele>1367</ele>
        <time>2022-08-26T19:55:39Z</time>
      </trkpt>
      <trkpt lat="45.84452" lon="6.7274">
        <ele>1367</ele>
        <time>2022-08-26T19:55:41Z</time>
      </trkpt>
      <trkpt lat="45.8445" lon="6.7274">
        <ele>1367</ele>
        <time>2022-08-26T19:55:42Z</time>
      </trkpt>
      <trkpt lat="45.84448" lon="6.7274">
        <ele>1367</ele>
        <time>2022-08-26T19:55:43Z</time>
      </trkpt>
      <trkpt lat="45.84446" lon="6.7274">
        <ele>1367</ele>
        <time>2022-08-26T19:55:44Z</time>
      </trkpt>
      <trkpt lat="45.84444" lon="6.72741">
        <ele>1367</ele>
        <time>2022-08-26T19:55:45Z</time>
      </trkpt>
      <trkpt lat="45.84441" lon="6.72741">
        <ele>1367</ele>
        <time>2022-08-26T19:55:46Z</time>
      </trkpt>
      <trkpt lat="45.8444" lon="6.72741">
        <ele>1367</ele>
        <time>2022-08-26T19:55:47Z</time>
      </trkpt>
      <trkpt lat="45.84438" lon="6.72741">
        <ele>1367</ele>
        <time>2022-08-26T19:55:48Z</time>
      </trkpt>
      <trkpt lat="45.84436" lon="6.7274">
        <ele>1367</ele>
        <time>2022-08-26T19:55:49Z</time>
      </trkpt>
      <trkpt lat="45.84434" lon="6.7274">
        <ele>1367</ele>
        <time>2022-08-26T19:55:50Z</time>
      </trkpt>
      <trkpt lat="45.84432" lon="6.7274">
        <ele>1367</ele>
        <time>2022-08-26T19:55:51Z</time>
      </trkpt>
      <trkpt lat="45.84429" lon="6.72741">
        <ele>1367</ele>
        <time>2022-08-26T19:55:53Z</time>
      </trkpt>
      <trkpt lat="45.84426" lon="6.72743">
        <ele>1367</ele>
        <time>2022-08-26T19:55:54Z</time>
      </trkpt>
      <trkpt lat="45.84423" lon="6.72744">
        <ele>1367</ele>
        <time>2022-08-26T19:55:55Z</time>
      </trkpt>
      <trkpt lat="45.84423" lon="6.72743">
        <ele>1367</ele>
        <time>2022-08-26T19:55:57Z</time>
      </trkpt>
      <trkpt lat="45.84423" lon="6.72742">
        <ele>1367</ele>
        <time>2022-08-26T19:55:58Z</time>
      </trkpt>
      <trkpt lat="45.84422" lon="6.72741">
        <ele>1368</ele>
        <time>2022-08-26T19:56:00Z</time>
      </trkpt>
      <trkpt lat="45.84422" lon="6.7274">
        <ele>1368</ele>
        <time>2022-08-26T19:56:01Z</time>
      </trkpt>
      <trkpt lat="45.84422" lon="6.72739">
        <ele>1369</ele>
        <time>2022-08-26T19:56:02Z</time>
      </trkpt>
      <trkpt lat="45.84422" lon="6.72738">
        <ele>1369</ele>
        <time>2022-08-26T19:56:04Z</time>
      </trkpt>
      <trkpt lat="45.84421" lon="6.72737">
        <ele>1369</ele>
        <time>2022-08-26T19:56:05Z</time>
      </trkpt>
      <trkpt lat="45.84421" lon="6.72736">
        <ele>1369</ele>
        <time>2022-08-26T19:56:06Z</time>
      </trkpt>
      <trkpt lat="45.84421" lon="6.72735">
        <ele>1369</ele>
        <time>2022-08-26T19:56:07Z</time>
      </trkpt>
      <trkpt lat="45.8442" lon="6.72734">
        <ele>1370</ele>
        <time>2022-08-26T19:56:09Z</time>
      </trkpt>
      <trkpt lat="45.8442" lon="6.72733">
        <ele>1370</ele>
        <time>2022-08-26T19:56:10Z</time>
      </trkpt>
      <trkpt lat="45.8442" lon="6.72732">
        <ele>1370</ele>
        <time>2022-08-26T19:56:11Z</time>
      </trkpt>
      <trkpt lat="45.8442" lon="6.72731">
        <ele>1370</ele>
        <time>2022-08-26T19:56:12Z</time>
      </trkpt>
      <trkpt lat="45.84423" lon="6.72719">
        <ele>1371</ele>
        <time>2022-08-26T19:56:19Z</time>
      </trkpt>
      <trkpt lat="45.84422" lon="6.72705">
        <ele>1374</ele>
        <time>2022-08-26T19:56:33Z</time>
      </trkpt>
      <trkpt lat="45.84421" lon="6.72703">
        <ele>1374</ele>
        <time>2022-08-26T19:56:34Z</time>
      </trkpt>
      <trkpt lat="45.8442" lon="6.72702">
        <ele>1375</ele>
        <time>2022-08-26T19:56:36Z</time>
      </trkpt>
      <trkpt lat="45.84419" lon="6.72701">
        <ele>1375</ele>
        <time>2022-08-26T19:56:38Z</time>
      </trkpt>
      <trkpt lat="45.84418" lon="6.727">
        <ele>1375</ele>
        <time>2022-08-26T19:56:39Z</time>
      </trkpt>
      <trkpt lat="45.84418" lon="6.72698">
        <ele>1376</ele>
        <time>2022-08-26T19:56:40Z</time>
      </trkpt>
      <trkpt lat="45.84417" lon="6.72697">
        <ele>1376</ele>
        <time>2022-08-26T19:56:41Z</time>
      </trkpt>
      <trkpt lat="45.84416" lon="6.72696">
        <ele>1376</ele>
        <time>2022-08-26T19:56:42Z</time>
      </trkpt>
      <trkpt lat="45.84415" lon="6.72695">
        <ele>1376</ele>
        <time>2022-08-26T19:56:43Z</time>
      </trkpt>
      <trkpt lat="45.84414" lon="6.72693">
        <ele>1376</ele>
        <time>2022-08-26T19:56:45Z</time>
      </trkpt>
      <trkpt lat="45.84413" lon="6.72691">
        <ele>1376</ele>
        <time>2022-08-26T19:56:46Z</time>
      </trkpt>
      <trkpt lat="45.84412" lon="6.7269">
        <ele>1377</ele>
        <time>2022-08-26T19:56:47Z</time>
      </trkpt>
      <trkpt lat="45.84411" lon="6.72688">
        <ele>1377</ele>
        <time>2022-08-26T19:56:48Z</time>
      </trkpt>
      <trkpt lat="45.8441" lon="6.72687">
        <ele>1377</ele>
        <time>2022-08-26T19:56:50Z</time>
      </trkpt>
      <trkpt lat="45.84409" lon="6.72685">
        <ele>1377</ele>
        <time>2022-08-26T19:56:51Z</time>
      </trkpt>
      <trkpt lat="45.84408" lon="6.72684">
        <ele>1378</ele>
        <time>2022-08-26T19:56:52Z</time>
      </trkpt>
      <trkpt lat="45.84407" lon="6.72681">
        <ele>1378</ele>
        <time>2022-08-26T19:56:53Z</time>
      </trkpt>
      <trkpt lat="45.84405" lon="6.72679">
        <ele>1379</ele>
        <time>2022-08-26T19:56:55Z</time>
      </trkpt>
      <trkpt lat="45.84405" lon="6.72678">
        <ele>1379</ele>
        <time>2022-08-26T19:56:57Z</time>
      </trkpt>
      <trkpt lat="45.84404" lon="6.72677">
        <ele>1379</ele>
        <time>2022-08-26T19:56:58Z</time>
      </trkpt>
      <trkpt lat="45.84403" lon="6.72676">
        <ele>1379</ele>
        <time>2022-08-26T19:56:59Z</time>
      </trkpt>
      <trkpt lat="45.84402" lon="6.72674">
        <ele>1380</ele>
        <time>2022-08-26T19:57:01Z</time>
      </trkpt>
      <trkpt lat="45.84402" lon="6.72673">
        <ele>1380</ele>
        <time>2022-08-26T19:57:02Z</time>
      </trkpt>
      <trkpt lat="45.84401" lon="6.72672">
        <ele>1380</ele>
        <time>2022-08-26T19:57:03Z</time>
      </trkpt>
      <trkpt lat="45.844" lon="6.72671">
        <ele>1380</ele>
        <time>2022-08-26T19:57:04Z</time>
      </trkpt>
      <trkpt lat="45.84399" lon="6.7267">
        <ele>1380</ele>
        <time>2022-08-26T19:57:05Z</time>
      </trkpt>
      <trkpt lat="45.84399" lon="6.72669">
        <ele>1380</ele>
        <time>2022-08-26T19:57:06Z</time>
      </trkpt>
      <trkpt lat="45.84397" lon="6.72668">
        <ele>1380</ele>
        <time>2022-08-26T19:57:07Z</time>
      </trkpt>
      <trkpt lat="45.84396" lon="6.72666">
        <ele>1380</ele>
        <time>2022-08-26T19:57:08Z</time>
      </trkpt>
      <trkpt lat="45.84394" lon="6.72665">
        <ele>1381</ele>
        <time>2022-08-26T19:57:09Z</time>
      </trkpt>
      <trkpt lat="45.84393" lon="6.72664">
        <ele>1382</ele>
        <time>2022-08-26T19:57:11Z</time>
      </trkpt>
      <trkpt lat="45.84391" lon="6.72663">
        <ele>1382</ele>
        <time>2022-08-26T19:57:12Z</time>
      </trkpt>
      <trkpt lat="45.8439" lon="6.72662">
        <ele>1382</ele>
        <time>2022-08-26T19:57:13Z</time>
      </trkpt>
      <trkpt lat="45.84389" lon="6.72661">
        <ele>1382</ele>
        <time>2022-08-26T19:57:14Z</time>
      </trkpt>
      <trkpt lat="45.84388" lon="6.7266">
        <ele>1382</ele>
        <time>2022-08-26T19:57:16Z</time>
      </trkpt>
      <trkpt lat="45.84387" lon="6.7266">
        <ele>1382</ele>
        <time>2022-08-26T19:57:17Z</time>
      </trkpt>
      <trkpt lat="45.84386" lon="6.72659">
        <ele>1383</ele>
        <time>2022-08-26T19:57:18Z</time>
      </trkpt>
      <trkpt lat="45.84385" lon="6.72658">
        <ele>1384</ele>
        <time>2022-08-26T19:57:19Z</time>
      </trkpt>
      <trkpt lat="45.84384" lon="6.72657">
        <ele>1384</ele>
        <time>2022-08-26T19:57:21Z</time>
      </trkpt>
      <trkpt lat="45.84383" lon="6.72656">
        <ele>1384</ele>
        <time>2022-08-26T19:57:22Z</time>
      </trkpt>
      <trkpt lat="45.84382" lon="6.72655">
        <ele>1384</ele>
        <time>2022-08-26T19:57:23Z</time>
      </trkpt>
      <trkpt lat="45.8438" lon="6.72655">
        <ele>1384</ele>
        <time>2022-08-26T19:57:24Z</time>
      </trkpt>
      <trkpt lat="45.84378" lon="6.72656">
        <ele>1384</ele>
        <time>2022-08-26T19:57:26Z</time>
      </trkpt>
      <trkpt lat="45.84376" lon="6.72656">
        <ele>1384</ele>
        <time>2022-08-26T19:57:27Z</time>
      </trkpt>
      <trkpt lat="45.84374" lon="6.72656">
        <ele>1385</ele>
        <time>2022-08-26T19:57:28Z</time>
      </trkpt>
      <trkpt lat="45.84372" lon="6.72657">
        <ele>1385</ele>
        <time>2022-08-26T19:57:29Z</time>
      </trkpt>
      <trkpt lat="45.84369" lon="6.72658">
        <ele>1385</ele>
        <time>2022-08-26T19:57:31Z</time>
      </trkpt>
      <trkpt lat="45.84366" lon="6.7266">
        <ele>1385</ele>
        <time>2022-08-26T19:57:32Z</time>
      </trkpt>
      <trkpt lat="45.84363" lon="6.72661">
        <ele>1385</ele>
        <time>2022-08-26T19:57:33Z</time>
      </trkpt>
      <trkpt lat="45.8436" lon="6.72661">
        <ele>1385</ele>
        <time>2022-08-26T19:57:35Z</time>
      </trkpt>
      <trkpt lat="45.84356" lon="6.7266">
        <ele>1385</ele>
        <time>2022-08-26T19:57:36Z</time>
      </trkpt>
      <trkpt lat="45.84353" lon="6.72659">
        <ele>1385</ele>
        <time>2022-08-26T19:57:37Z</time>
      </trkpt>
      <trkpt lat="45.8435" lon="6.72658">
        <ele>1385</ele>
        <time>2022-08-26T19:57:39Z</time>
      </trkpt>
      <trkpt lat="45.84347" lon="6.72657">
        <ele>1385</ele>
        <time>2022-08-26T19:57:40Z</time>
      </trkpt>
      <trkpt lat="45.84344" lon="6.72656">
        <ele>1386</ele>
        <time>2022-08-26T19:57:41Z</time>
      </trkpt>
      <trkpt lat="45.84342" lon="6.72654">
        <ele>1386</ele>
        <time>2022-08-26T19:57:42Z</time>
      </trkpt>
      <trkpt lat="45.8434" lon="6.72652">
        <ele>1386</ele>
        <time>2022-08-26T19:57:44Z</time>
      </trkpt>
      <trkpt lat="45.84338" lon="6.7265">
        <ele>1386</ele>
        <time>2022-08-26T19:57:45Z</time>
      </trkpt>
      <trkpt lat="45.84336" lon="6.72648">
        <ele>1386</ele>
        <time>2022-08-26T19:57:46Z</time>
      </trkpt>
      <trkpt lat="45.84334" lon="6.72644">
        <ele>1386</ele>
        <time>2022-08-26T19:57:47Z</time>
      </trkpt>
      <trkpt lat="45.84332" lon="6.72641">
        <ele>1386</ele>
        <time>2022-08-26T19:57:48Z</time>
      </trkpt>
      <trkpt lat="45.84329" lon="6.72638">
        <ele>1386</ele>
        <time>2022-08-26T19:57:49Z</time>
      </trkpt>
      <trkpt lat="45.84328" lon="6.72635">
        <ele>1386</ele>
        <time>2022-08-26T19:57:51Z</time>
      </trkpt>
      <trkpt lat="45.84326" lon="6.72632">
        <ele>1386</ele>
        <time>2022-08-26T19:57:53Z</time>
      </trkpt>
      <trkpt lat="45.84324" lon="6.72629">
        <ele>1386</ele>
        <time>2022-08-26T19:57:54Z</time>
      </trkpt>
      <trkpt lat="45.84322" lon="6.72626">
        <ele>1386</ele>
        <time>2022-08-26T19:57:55Z</time>
      </trkpt>
      <trkpt lat="45.84321" lon="6.72624">
        <ele>1385</ele>
        <time>2022-08-26T19:57:57Z</time>
      </trkpt>
      <trkpt lat="45.84319" lon="6.72623">
        <ele>1385</ele>
        <time>2022-08-26T19:57:58Z</time>
      </trkpt>
      <trkpt lat="45.84317" lon="6.72622">
        <ele>1385</ele>
        <time>2022-08-26T19:57:59Z</time>
      </trkpt>
      <trkpt lat="45.8431" lon="6.72618">
        <ele>1385</ele>
        <time>2022-08-26T19:58:00Z</time>
      </trkpt>
      <trkpt lat="45.84308" lon="6.72616">
        <ele>1385</ele>
        <time>2022-08-26T19:58:01Z</time>
      </trkpt>
      <trkpt lat="45.84306" lon="6.72615">
        <ele>1385</ele>
        <time>2022-08-26T19:58:02Z</time>
      </trkpt>
      <trkpt lat="45.84296" lon="6.72611">
        <ele>1385</ele>
        <time>2022-08-26T19:58:07Z</time>
      </trkpt>
      <trkpt lat="45.84294" lon="6.7261">
        <ele>1385</ele>
        <time>2022-08-26T19:58:08Z</time>
      </trkpt>
      <trkpt lat="45.84292" lon="6.72609">
        <ele>1385</ele>
        <time>2022-08-26T19:58:09Z</time>
      </trkpt>
      <trkpt lat="45.8429" lon="6.72609">
        <ele>1385</ele>
        <time>2022-08-26T19:58:10Z</time>
      </trkpt>
      <trkpt lat="45.84288" lon="6.72608">
        <ele>1385</ele>
        <time>2022-08-26T19:58:12Z</time>
      </trkpt>
      <trkpt lat="45.84286" lon="6.72607">
        <ele>1385</ele>
        <time>2022-08-26T19:58:13Z</time>
      </trkpt>
      <trkpt lat="45.84284" lon="6.72607">
        <ele>1385</ele>
        <time>2022-08-26T19:58:14Z</time>
      </trkpt>
      <trkpt lat="45.84283" lon="6.72606">
        <ele>1385</ele>
        <time>2022-08-26T19:58:15Z</time>
      </trkpt>
      <trkpt lat="45.84282" lon="6.72606">
        <ele>1386</ele>
        <time>2022-08-26T19:58:17Z</time>
      </trkpt>
      <trkpt lat="45.84281" lon="6.72606">
        <ele>1386</ele>
        <time>2022-08-26T19:58:18Z</time>
      </trkpt>
      <trkpt lat="45.8428" lon="6.72605">
        <ele>1386</ele>
        <time>2022-08-26T19:58:19Z</time>
      </trkpt>
      <trkpt lat="45.84279" lon="6.72605">
        <ele>1386</ele>
        <time>2022-08-26T19:58:20Z</time>
      </trkpt>
      <trkpt lat="45.84278" lon="6.72604">
        <ele>1386</ele>
        <time>2022-08-26T19:58:21Z</time>
      </trkpt>
      <trkpt lat="45.84276" lon="6.72604">
        <ele>1386</ele>
        <time>2022-08-26T19:58:22Z</time>
      </trkpt>
      <trkpt lat="45.84276" lon="6.72603">
        <ele>1387</ele>
        <time>2022-08-26T19:58:23Z</time>
      </trkpt>
      <trkpt lat="45.84275" lon="6.72602">
        <ele>1387</ele>
        <time>2022-08-26T19:58:25Z</time>
      </trkpt>
      <trkpt lat="45.84274" lon="6.72601">
        <ele>1387</ele>
        <time>2022-08-26T19:58:26Z</time>
      </trkpt>
      <trkpt lat="45.84273" lon="6.726">
        <ele>1387</ele>
        <time>2022-08-26T19:58:27Z</time>
      </trkpt>
      <trkpt lat="45.84272" lon="6.726">
        <ele>1387</ele>
        <time>2022-08-26T19:58:28Z</time>
      </trkpt>
      <trkpt lat="45.84271" lon="6.72599">
        <ele>1388</ele>
        <time>2022-08-26T19:58:30Z</time>
      </trkpt>
      <trkpt lat="45.8427" lon="6.72598">
        <ele>1388</ele>
        <time>2022-08-26T19:58:32Z</time>
      </trkpt>
      <trkpt lat="45.84269" lon="6.72597">
        <ele>1388</ele>
        <time>2022-08-26T19:58:33Z</time>
      </trkpt>
      <trkpt lat="45.84268" lon="6.72596">
        <ele>1388</ele>
        <time>2022-08-26T19:58:34Z</time>
      </trkpt>
      <trkpt lat="45.84267" lon="6.72596">
        <ele>1388</ele>
        <time>2022-08-26T19:58:35Z</time>
      </trkpt>
      <trkpt lat="45.84265" lon="6.72596">
        <ele>1388</ele>
        <time>2022-08-26T19:58:37Z</time>
      </trkpt>
      <trkpt lat="45.84263" lon="6.72595">
        <ele>1389</ele>
        <time>2022-08-26T19:58:38Z</time>
      </trkpt>
      <trkpt lat="45.84261" lon="6.72595">
        <ele>1389</ele>
        <time>2022-08-26T19:58:39Z</time>
      </trkpt>
      <trkpt lat="45.84259" lon="6.72595">
        <ele>1389</ele>
        <time>2022-08-26T19:58:40Z</time>
      </trkpt>
      <trkpt lat="45.8425" lon="6.72596">
        <ele>1390</ele>
        <time>2022-08-26T19:58:47Z</time>
      </trkpt>
      <trkpt lat="45.84241" lon="6.7259">
        <ele>1392</ele>
        <time>2022-08-26T19:58:55Z</time>
      </trkpt>
      <trkpt lat="45.84241" lon="6.7259">
        <ele>1392</ele>
        <time>2022-08-26T19:58:56Z</time>
      </trkpt>
      <trkpt lat="45.8424" lon="6.72589">
        <ele>1392</ele>
        <time>2022-08-26T19:58:57Z</time>
      </trkpt>
      <trkpt lat="45.84239" lon="6.72589">
        <ele>1393</ele>
        <time>2022-08-26T19:58:58Z</time>
      </trkpt>
      <trkpt lat="45.84238" lon="6.72588">
        <ele>1393</ele>
        <time>2022-08-26T19:59:00Z</time>
      </trkpt>
      <trkpt lat="45.84238" lon="6.72588">
        <ele>1393</ele>
        <time>2022-08-26T19:59:02Z</time>
      </trkpt>
      <trkpt lat="45.84237" lon="6.72587">
        <ele>1394</ele>
        <time>2022-08-26T19:59:03Z</time>
      </trkpt>
      <trkpt lat="45.84236" lon="6.72587">
        <ele>1394</ele>
        <time>2022-08-26T19:59:05Z</time>
      </trkpt>
      <trkpt lat="45.84235" lon="6.72587">
        <ele>1394</ele>
        <time>2022-08-26T19:59:07Z</time>
      </trkpt>
      <trkpt lat="45.84234" lon="6.72586">
        <ele>1394</ele>
        <time>2022-08-26T19:59:08Z</time>
      </trkpt>
      <trkpt lat="45.84234" lon="6.72586">
        <ele>1394</ele>
        <time>2022-08-26T19:59:09Z</time>
      </trkpt>
      <trkpt lat="45.84233" lon="6.72585">
        <ele>1394</ele>
        <time>2022-08-26T19:59:10Z</time>
      </trkpt>
      <trkpt lat="45.84231" lon="6.72585">
        <ele>1394</ele>
        <time>2022-08-26T19:59:12Z</time>
      </trkpt>
      <trkpt lat="45.84229" lon="6.72585">
        <ele>1395</ele>
        <time>2022-08-26T19:59:13Z</time>
      </trkpt>
      <trkpt lat="45.84227" lon="6.72585">
        <ele>1395</ele>
        <time>2022-08-26T19:59:14Z</time>
      </trkpt>
      <trkpt lat="45.84225" lon="6.72585">
        <ele>1395</ele>
        <time>2022-08-26T19:59:15Z</time>
      </trkpt>
      <trkpt lat="45.84223" lon="6.72585">
        <ele>1395</ele>
        <time>2022-08-26T19:59:16Z</time>
      </trkpt>
      <trkpt lat="45.84222" lon="6.72585">
        <ele>1395</ele>
        <time>2022-08-26T19:59:17Z</time>
      </trkpt>
      <trkpt lat="45.84222" lon="6.72585">
        <ele>1395</ele>
        <time>2022-08-26T19:59:18Z</time>
      </trkpt>
      <trkpt lat="45.84221" lon="6.72585">
        <ele>1396</ele>
        <time>2022-08-26T19:59:19Z</time>
      </trkpt>
      <trkpt lat="45.8422" lon="6.72584">
        <ele>1396</ele>
        <time>2022-08-26T19:59:21Z</time>
      </trkpt>
      <trkpt lat="45.84219" lon="6.72584">
        <ele>1396</ele>
        <time>2022-08-26T19:59:23Z</time>
      </trkpt>
      <trkpt lat="45.84218" lon="6.72584">
        <ele>1396</ele>
        <time>2022-08-26T19:59:24Z</time>
      </trkpt>
      <trkpt lat="45.8421" lon="6.72583">
        <ele>1396</ele>
        <time>2022-08-26T19:59:25Z</time>
      </trkpt>
      <trkpt lat="45.84208" lon="6.72584">
        <ele>1397</ele>
        <time>2022-08-26T19:59:26Z</time>
      </trkpt>
      <trkpt lat="45.84206" lon="6.72584">
        <ele>1397</ele>
        <time>2022-08-26T19:59:28Z</time>
      </trkpt>
      <trkpt lat="45.84204" lon="6.72584">
        <ele>1397</ele>
        <time>2022-08-26T19:59:29Z</time>
      </trkpt>
      <trkpt lat="45.84202" lon="6.72583">
        <ele>1397</ele>
        <time>2022-08-26T19:59:30Z</time>
      </trkpt>
      <trkpt lat="45.842" lon="6.72582">
        <ele>1398</ele>
        <time>2022-08-26T19:59:31Z</time>
      </trkpt>
      <trkpt lat="45.84198" lon="6.72582">
        <ele>1398</ele>
        <time>2022-08-26T19:59:33Z</time>
      </trkpt>
      <trkpt lat="45.84197" lon="6.72581">
        <ele>1398</ele>
        <time>2022-08-26T19:59:34Z</time>
      </trkpt>
      <trkpt lat="45.84195" lon="6.7258">
        <ele>1398</ele>
        <time>2022-08-26T19:59:35Z</time>
      </trkpt>
      <trkpt lat="45.84194" lon="6.72579">
        <ele>1398</ele>
        <time>2022-08-26T19:59:36Z</time>
      </trkpt>
      <trkpt lat="45.84192" lon="6.72577">
        <ele>1399</ele>
        <time>2022-08-26T19:59:38Z</time>
      </trkpt>
      <trkpt lat="45.84191" lon="6.72576">
        <ele>1399</ele>
        <time>2022-08-26T19:59:40Z</time>
      </trkpt>
      <trkpt lat="45.8419" lon="6.72574">
        <ele>1399</ele>
        <time>2022-08-26T19:59:41Z</time>
      </trkpt>
      <trkpt lat="45.84188" lon="6.72573">
        <ele>1399</ele>
        <time>2022-08-26T19:59:42Z</time>
      </trkpt>
      <trkpt lat="45.84187" lon="6.72571">
        <ele>1399</ele>
        <time>2022-08-26T19:59:43Z</time>
      </trkpt>
      <trkpt lat="45.84186" lon="6.7257">
        <ele>1400</ele>
        <time>2022-08-26T19:59:45Z</time>
      </trkpt>
      <trkpt lat="45.84185" lon="6.72569">
        <ele>1400</ele>
        <time>2022-08-26T19:59:46Z</time>
      </trkpt>
      <trkpt lat="45.84184" lon="6.72567">
        <ele>1400</ele>
        <time>2022-08-26T19:59:48Z</time>
      </trkpt>
      <trkpt lat="45.84183" lon="6.72566">
        <ele>1400</ele>
        <time>2022-08-26T19:59:49Z</time>
      </trkpt>
      <trkpt lat="45.84181" lon="6.72565">
        <ele>1400</ele>
        <time>2022-08-26T19:59:50Z</time>
      </trkpt>
      <trkpt lat="45.8418" lon="6.72564">
        <ele>1400</ele>
        <time>2022-08-26T19:59:52Z</time>
      </trkpt>
      <trkpt lat="45.84179" lon="6.72562">
        <ele>1400</ele>
        <time>2022-08-26T19:59:53Z</time>
      </trkpt>
      <trkpt lat="45.8417" lon="6.72559">
        <ele>1402</ele>
        <time>2022-08-26T20:00:02Z</time>
      </trkpt>
      <trkpt lat="45.84169" lon="6.72558">
        <ele>1402</ele>
        <time>2022-08-26T20:00:04Z</time>
      </trkpt>
      <trkpt lat="45.84167" lon="6.72558">
        <ele>1402</ele>
        <time>2022-08-26T20:00:05Z</time>
      </trkpt>
      <trkpt lat="45.84166" lon="6.72557">
        <ele>1403</ele>
        <time>2022-08-26T20:00:07Z</time>
      </trkpt>
      <trkpt lat="45.84165" lon="6.72557">
        <ele>1403</ele>
        <time>2022-08-26T20:00:08Z</time>
      </trkpt>
      <trkpt lat="45.84163" lon="6.72556">
        <ele>1403</ele>
        <time>2022-08-26T20:00:09Z</time>
      </trkpt>
      <trkpt lat="45.84162" lon="6.72556">
        <ele>1403</ele>
        <time>2022-08-26T20:00:10Z</time>
      </trkpt>
      <trkpt lat="45.8416" lon="6.72555">
        <ele>1403</ele>
        <time>2022-08-26T20:00:11Z</time>
      </trkpt>
      <trkpt lat="45.84159" lon="6.72555">
        <ele>1403</ele>
        <time>2022-08-26T20:00:12Z</time>
      </trkpt>
      <trkpt lat="45.84157" lon="6.72555">
        <ele>1403</ele>
        <time>2022-08-26T20:00:13Z</time>
      </trkpt>
      <trkpt lat="45.84156" lon="6.72555">
        <ele>1403</ele>
        <time>2022-08-26T20:00:14Z</time>
      </trkpt>
      <trkpt lat="45.84154" lon="6.72555">
        <ele>1403</ele>
        <time>2022-08-26T20:00:16Z</time>
      </trkpt>
      <trkpt lat="45.84153" lon="6.72554">
        <ele>1403</ele>
        <time>2022-08-26T20:00:17Z</time>
      </trkpt>
      <trkpt lat="45.84151" lon="6.72554">
        <ele>1403</ele>
        <time>2022-08-26T20:00:18Z</time>
      </trkpt>
      <trkpt lat="45.8415" lon="6.72554">
        <ele>1403</ele>
        <time>2022-08-26T20:00:19Z</time>
      </trkpt>
      <trkpt lat="45.84149" lon="6.72555">
        <ele>1403</ele>
        <time>2022-08-26T20:00:21Z</time>
      </trkpt>
      <trkpt lat="45.84147" lon="6.72555">
        <ele>1403</ele>
        <time>2022-08-26T20:00:22Z</time>
      </trkpt>
      <trkpt lat="45.84146" lon="6.72555">
        <ele>1403</ele>
        <time>2022-08-26T20:00:23Z</time>
      </trkpt>
      <trkpt lat="45.84139" lon="6.72556">
        <ele>1403</ele>
        <time>2022-08-26T20:00:24Z</time>
      </trkpt>
      <trkpt lat="45.84137" lon="6.72556">
        <ele>1403</ele>
        <time>2022-08-26T20:00:26Z</time>
      </trkpt>
      <trkpt lat="45.84136" lon="6.72556">
        <ele>1403</ele>
        <time>2022-08-26T20:00:28Z</time>
      </trkpt>
      <trkpt lat="45.84134" lon="6.72556">
        <ele>1403</ele>
        <time>2022-08-26T20:00:29Z</time>
      </trkpt>
      <trkpt lat="45.84132" lon="6.72557">
        <ele>1403</ele>
        <time>2022-08-26T20:00:30Z</time>
      </trkpt>
      <trkpt lat="45.8413" lon="6.72557">
        <ele>1403</ele>
        <time>2022-08-26T20:00:31Z</time>
      </trkpt>
      <trkpt lat="45.84129" lon="6.72557">
        <ele>1403</ele>
        <time>2022-08-26T20:00:33Z</time>
      </trkpt>
      <trkpt lat="45.84129" lon="6.72557">
        <ele>1403</ele>
        <time>2022-08-26T20:00:34Z</time>
      </trkpt>
      <trkpt lat="45.84128" lon="6.72558">
        <ele>1403</ele>
        <time>2022-08-26T20:00:35Z</time>
      </trkpt>
      <trkpt lat="45.84127" lon="6.72558">
        <ele>1403</ele>
        <time>2022-08-26T20:00:36Z</time>
      </trkpt>
      <trkpt lat="45.84119" lon="6.7256">
        <ele>1403</ele>
        <time>2022-08-26T20:00:38Z</time>
      </trkpt>
      <trkpt lat="45.84118" lon="6.7256">
        <ele>1403</ele>
        <time>2022-08-26T20:00:39Z</time>
      </trkpt>
      <trkpt lat="45.84117" lon="6.7256">
        <ele>1404</ele>
        <time>2022-08-26T20:00:40Z</time>
      </trkpt>
      <trkpt lat="45.84116" lon="6.72561">
        <ele>1404</ele>
        <time>2022-08-26T20:00:41Z</time>
      </trkpt>
      <trkpt lat="45.84106" lon="6.72561">
        <ele>1404</ele>
        <time>2022-08-26T20:00:43Z</time>
      </trkpt>
      <trkpt lat="45.84102" lon="6.72561">
        <ele>1404</ele>
        <time>2022-08-26T20:00:45Z</time>
      </trkpt>
      <trkpt lat="45.84098" lon="6.7256">
        <ele>1404</ele>
        <time>2022-08-26T20:00:46Z</time>
      </trkpt>
      <trkpt lat="45.84096" lon="6.7256">
        <ele>1404</ele>
        <time>2022-08-26T20:00:47Z</time>
      </trkpt>
      <trkpt lat="45.84094" lon="6.72561">
        <ele>1404</ele>
        <time>2022-08-26T20:00:49Z</time>
      </trkpt>
      <trkpt lat="45.84091" lon="6.72561">
        <ele>1404</ele>
        <time>2022-08-26T20:00:50Z</time>
      </trkpt>
      <trkpt lat="45.84089" lon="6.72561">
        <ele>1404</ele>
        <time>2022-08-26T20:00:51Z</time>
      </trkpt>
      <trkpt lat="45.84087" lon="6.7256">
        <ele>1405</ele>
        <time>2022-08-26T20:00:52Z</time>
      </trkpt>
      <trkpt lat="45.84084" lon="6.72559">
        <ele>1405</ele>
        <time>2022-08-26T20:00:54Z</time>
      </trkpt>
      <trkpt lat="45.84082" lon="6.72557">
        <ele>1404</ele>
        <time>2022-08-26T20:00:55Z</time>
      </trkpt>
      <trkpt lat="45.8408" lon="6.72556">
        <ele>1404</ele>
        <time>2022-08-26T20:00:56Z</time>
      </trkpt>
      <trkpt lat="45.84078" lon="6.72555">
        <ele>1404</ele>
        <time>2022-08-26T20:00:57Z</time>
      </trkpt>
      <trkpt lat="45.84076" lon="6.72553">
        <ele>1404</ele>
        <time>2022-08-26T20:00:58Z</time>
      </trkpt>
      <trkpt lat="45.84074" lon="6.72552">
        <ele>1405</ele>
        <time>2022-08-26T20:00:59Z</time>
      </trkpt>
      <trkpt lat="45.84071" lon="6.7255">
        <ele>1405</ele>
        <time>2022-08-26T20:01:01Z</time>
      </trkpt>
      <trkpt lat="45.84069" lon="6.72548">
        <ele>1406</ele>
        <time>2022-08-26T20:01:02Z</time>
      </trkpt>
      <trkpt lat="45.84067" lon="6.72547">
        <ele>1406</ele>
        <time>2022-08-26T20:01:04Z</time>
      </trkpt>
      <trkpt lat="45.84066" lon="6.72545">
        <ele>1407</ele>
        <time>2022-08-26T20:01:05Z</time>
      </trkpt>
      <trkpt lat="45.84064" lon="6.72543">
        <ele>1407</ele>
        <time>2022-08-26T20:01:06Z</time>
      </trkpt>
      <trkpt lat="45.84063" lon="6.72542">
        <ele>1407</ele>
        <time>2022-08-26T20:01:07Z</time>
      </trkpt>
      <trkpt lat="45.84061" lon="6.7254">
        <ele>1408</ele>
        <time>2022-08-26T20:01:08Z</time>
      </trkpt>
      <trkpt lat="45.84053" lon="6.72534">
        <ele>1408</ele>
        <time>2022-08-26T20:01:13Z</time>
      </trkpt>
      <trkpt lat="45.84052" lon="6.72533">
        <ele>1408</ele>
        <time>2022-08-26T20:01:14Z</time>
      </trkpt>
      <trkpt lat="45.8405" lon="6.72533">
        <ele>1408</ele>
        <time>2022-08-26T20:01:15Z</time>
      </trkpt>
      <trkpt lat="45.84049" lon="6.72532">
        <ele>1408</ele>
        <time>2022-08-26T20:01:16Z</time>
      </trkpt>
      <trkpt lat="45.84048" lon="6.72531">
        <ele>1409</ele>
        <time>2022-08-26T20:01:18Z</time>
      </trkpt>
      <trkpt lat="45.84046" lon="6.72531">
        <ele>1409</ele>
        <time>2022-08-26T20:01:20Z</time>
      </trkpt>
      <trkpt lat="45.84045" lon="6.7253">
        <ele>1409</ele>
        <time>2022-08-26T20:01:21Z</time>
      </trkpt>
      <trkpt lat="45.84044" lon="6.7253">
        <ele>1409</ele>
        <time>2022-08-26T20:01:22Z</time>
      </trkpt>
      <trkpt lat="45.84043" lon="6.72529">
        <ele>1410</ele>
        <time>2022-08-26T20:01:23Z</time>
      </trkpt>
      <trkpt lat="45.84041" lon="6.72528">
        <ele>1410</ele>
        <time>2022-08-26T20:01:24Z</time>
      </trkpt>
      <trkpt lat="45.8404" lon="6.72527">
        <ele>1410</ele>
        <time>2022-08-26T20:01:25Z</time>
      </trkpt>
      <trkpt lat="45.84039" lon="6.72526">
        <ele>1410</ele>
        <time>2022-08-26T20:01:27Z</time>
      </trkpt>
      <trkpt lat="45.84038" lon="6.72525">
        <ele>1410</ele>
        <time>2022-08-26T20:01:28Z</time>
      </trkpt>
      <trkpt lat="45.84037" lon="6.72524">
        <ele>1411</ele>
        <time>2022-08-26T20:01:29Z</time>
      </trkpt>
      <trkpt lat="45.84036" lon="6.72523">
        <ele>1411</ele>
        <time>2022-08-26T20:01:30Z</time>
      </trkpt>
      <trkpt lat="45.84034" lon="6.7252">
        <ele>1411</ele>
        <time>2022-08-26T20:01:32Z</time>
      </trkpt>
      <trkpt lat="45.84032" lon="6.72518">
        <ele>1411</ele>
        <time>2022-08-26T20:01:33Z</time>
      </trkpt>
      <trkpt lat="45.8403" lon="6.72515">
        <ele>1411</ele>
        <time>2022-08-26T20:01:34Z</time>
      </trkpt>
      <trkpt lat="45.84029" lon="6.72512">
        <ele>1411</ele>
        <time>2022-08-26T20:01:35Z</time>
      </trkpt>
      <trkpt lat="45.84027" lon="6.72511">
        <ele>1411</ele>
        <time>2022-08-26T20:01:37Z</time>
      </trkpt>
      <trkpt lat="45.84025" lon="6.72509">
        <ele>1411</ele>
        <time>2022-08-26T20:01:39Z</time>
      </trkpt>
      <trkpt lat="45.84024" lon="6.72508">
        <ele>1411</ele>
        <time>2022-08-26T20:01:40Z</time>
      </trkpt>
      <trkpt lat="45.84022" lon="6.72506">
        <ele>1411</ele>
        <time>2022-08-26T20:01:41Z</time>
      </trkpt>
      <trkpt lat="45.8402" lon="6.72505">
        <ele>1411</ele>
        <time>2022-08-26T20:01:42Z</time>
      </trkpt>
      <trkpt lat="45.84009" lon="6.72504">
        <ele>1410</ele>
        <time>2022-08-26T20:01:46Z</time>
      </trkpt>
      <trkpt lat="45.84007" lon="6.72504">
        <ele>1410</ele>
        <time>2022-08-26T20:01:47Z</time>
      </trkpt>
      <trkpt lat="45.84004" lon="6.72503">
        <ele>1410</ele>
        <time>2022-08-26T20:01:48Z</time>
      </trkpt>
      <trkpt lat="45.84002" lon="6.72502">
        <ele>1410</ele>
        <time>2022-08-26T20:01:49Z</time>
      </trkpt>
      <trkpt lat="45.84" lon="6.72501">
        <ele>1410</ele>
        <time>2022-08-26T20:01:50Z</time>
      </trkpt>
      <trkpt lat="45.83998" lon="6.72501">
        <ele>1410</ele>
        <time>2022-08-26T20:01:51Z</time>
      </trkpt>
      <trkpt lat="45.83995" lon="6.725">
        <ele>1410</ele>
        <time>2022-08-26T20:01:52Z</time>
      </trkpt>
      <trkpt lat="45.83993" lon="6.725">
        <ele>1410</ele>
        <time>2022-08-26T20:01:53Z</time>
      </trkpt>
      <trkpt lat="45.83985" lon="6.72498">
        <ele>1410</ele>
        <time>2022-08-26T20:01:54Z</time>
      </trkpt>
      <trkpt lat="45.83984" lon="6.72497">
        <ele>1410</ele>
        <time>2022-08-26T20:01:55Z</time>
      </trkpt>
      <trkpt lat="45.83981" lon="6.72497">
        <ele>1410</ele>
        <time>2022-08-26T20:01:56Z</time>
      </trkpt>
      <trkpt lat="45.83979" lon="6.72497">
        <ele>1410</ele>
        <time>2022-08-26T20:01:57Z</time>
      </trkpt>
      <trkpt lat="45.83977" lon="6.72497">
        <ele>1410</ele>
        <time>2022-08-26T20:01:58Z</time>
      </trkpt>
      <trkpt lat="45.83975" lon="6.72497">
        <ele>1410</ele>
        <time>2022-08-26T20:01:59Z</time>
      </trkpt>
      <trkpt lat="45.83971" lon="6.72497">
        <ele>1410</ele>
        <time>2022-08-26T20:02:00Z</time>
      </trkpt>
      <trkpt lat="45.8397" lon="6.72497">
        <ele>1410</ele>
        <time>2022-08-26T20:02:01Z</time>
      </trkpt>
      <trkpt lat="45.83968" lon="6.72497">
        <ele>1410</ele>
        <time>2022-08-26T20:02:02Z</time>
      </trkpt>
      <trkpt lat="45.83966" lon="6.72498">
        <ele>1410</ele>
        <time>2022-08-26T20:02:03Z</time>
      </trkpt>
      <trkpt lat="45.83964" lon="6.72499">
        <ele>1410</ele>
        <time>2022-08-26T20:02:04Z</time>
      </trkpt>
      <trkpt lat="45.83962" lon="6.725">
        <ele>1410</ele>
        <time>2022-08-26T20:02:05Z</time>
      </trkpt>
      <trkpt lat="45.83961" lon="6.72501">
        <ele>1410</ele>
        <time>2022-08-26T20:02:06Z</time>
      </trkpt>
      <trkpt lat="45.83959" lon="6.72502">
        <ele>1411</ele>
        <time>2022-08-26T20:02:07Z</time>
      </trkpt>
      <trkpt lat="45.83958" lon="6.72504">
        <ele>1411</ele>
        <time>2022-08-26T20:02:08Z</time>
      </trkpt>
      <trkpt lat="45.83956" lon="6.72505">
        <ele>1411</ele>
        <time>2022-08-26T20:02:09Z</time>
      </trkpt>
      <trkpt lat="45.83954" lon="6.72506">
        <ele>1412</ele>
        <time>2022-08-26T20:02:10Z</time>
      </trkpt>
      <trkpt lat="45.83953" lon="6.72508">
        <ele>1412</ele>
        <time>2022-08-26T20:02:11Z</time>
      </trkpt>
      <trkpt lat="45.83951" lon="6.7251">
        <ele>1412</ele>
        <time>2022-08-26T20:02:12Z</time>
      </trkpt>
      <trkpt lat="45.83949" lon="6.72511">
        <ele>1412</ele>
        <time>2022-08-26T20:02:13Z</time>
      </trkpt>
      <trkpt lat="45.83947" lon="6.72513">
        <ele>1412</ele>
        <time>2022-08-26T20:02:14Z</time>
      </trkpt>
      <trkpt lat="45.83944" lon="6.72515">
        <ele>1412</ele>
        <time>2022-08-26T20:02:15Z</time>
      </trkpt>
      <trkpt lat="45.83942" lon="6.72517">
        <ele>1413</ele>
        <time>2022-08-26T20:02:16Z</time>
      </trkpt>
      <trkpt lat="45.83937" lon="6.72521">
        <ele>1413</ele>
        <time>2022-08-26T20:02:18Z</time>
      </trkpt>
      <trkpt lat="45.83934" lon="6.72522">
        <ele>1413</ele>
        <time>2022-08-26T20:02:19Z</time>
      </trkpt>
      <trkpt lat="45.83928" lon="6.72525">
        <ele>1413</ele>
        <time>2022-08-26T20:02:21Z</time>
      </trkpt>
      <trkpt lat="45.83925" lon="6.72526">
        <ele>1413</ele>
        <time>2022-08-26T20:02:22Z</time>
      </trkpt>
      <trkpt lat="45.83922" lon="6.72527">
        <ele>1413</ele>
        <time>2022-08-26T20:02:23Z</time>
      </trkpt>
      <trkpt lat="45.83919" lon="6.72527">
        <ele>1413</ele>
        <time>2022-08-26T20:02:24Z</time>
      </trkpt>
      <trkpt lat="45.83917" lon="6.72526">
        <ele>1413</ele>
        <time>2022-08-26T20:02:25Z</time>
      </trkpt>
      <trkpt lat="45.83914" lon="6.72526">
        <ele>1413</ele>
        <time>2022-08-26T20:02:26Z</time>
      </trkpt>
      <trkpt lat="45.83912" lon="6.72524">
        <ele>1413</ele>
        <time>2022-08-26T20:02:27Z</time>
      </trkpt>
      <trkpt lat="45.8391" lon="6.72523">
        <ele>1413</ele>
        <time>2022-08-26T20:02:28Z</time>
      </trkpt>
      <trkpt lat="45.83908" lon="6.72521">
        <ele>1413</ele>
        <time>2022-08-26T20:02:29Z</time>
      </trkpt>
      <trkpt lat="45.83907" lon="6.72519">
        <ele>1413</ele>
        <time>2022-08-26T20:02:31Z</time>
      </trkpt>
      <trkpt lat="45.83906" lon="6.72516">
        <ele>1413</ele>
        <time>2022-08-26T20:02:32Z</time>
      </trkpt>
      <trkpt lat="45.83905" lon="6.72514">
        <ele>1413</ele>
        <time>2022-08-26T20:02:33Z</time>
      </trkpt>
      <trkpt lat="45.83905" lon="6.72512">
        <ele>1413</ele>
        <time>2022-08-26T20:02:34Z</time>
      </trkpt>
      <trkpt lat="45.83904" lon="6.72509">
        <ele>1413</ele>
        <time>2022-08-26T20:02:35Z</time>
      </trkpt>
      <trkpt lat="45.83904" lon="6.72507">
        <ele>1414</ele>
        <time>2022-08-26T20:02:36Z</time>
      </trkpt>
      <trkpt lat="45.83903" lon="6.72505">
        <ele>1414</ele>
        <time>2022-08-26T20:02:37Z</time>
      </trkpt>
      <trkpt lat="45.83903" lon="6.72503">
        <ele>1415</ele>
        <time>2022-08-26T20:02:38Z</time>
      </trkpt>
      <trkpt lat="45.83903" lon="6.72499">
        <ele>1415</ele>
        <time>2022-08-26T20:02:39Z</time>
      </trkpt>
      <trkpt lat="45.83903" lon="6.72495">
        <ele>1416</ele>
        <time>2022-08-26T20:02:41Z</time>
      </trkpt>
      <trkpt lat="45.83903" lon="6.72492">
        <ele>1417</ele>
        <time>2022-08-26T20:02:43Z</time>
      </trkpt>
      <trkpt lat="45.83903" lon="6.72489">
        <ele>1418</ele>
        <time>2022-08-26T20:02:45Z</time>
      </trkpt>
      <trkpt lat="45.83903" lon="6.72487">
        <ele>1418</ele>
        <time>2022-08-26T20:02:46Z</time>
      </trkpt>
      <trkpt lat="45.83903" lon="6.72484">
        <ele>1418</ele>
        <time>2022-08-26T20:02:47Z</time>
      </trkpt>
      <trkpt lat="45.83903" lon="6.72482">
        <ele>1417</ele>
        <time>2022-08-26T20:02:48Z</time>
      </trkpt>
      <trkpt lat="45.83901" lon="6.72478">
        <ele>1417</ele>
        <time>2022-08-26T20:02:49Z</time>
      </trkpt>
      <trkpt lat="45.83901" lon="6.72477">
        <ele>1417</ele>
        <time>2022-08-26T20:02:50Z</time>
      </trkpt>
      <trkpt lat="45.839" lon="6.72475">
        <ele>1417</ele>
        <time>2022-08-26T20:02:51Z</time>
      </trkpt>
      <trkpt lat="45.83899" lon="6.7247">
        <ele>1417</ele>
        <time>2022-08-26T20:02:53Z</time>
      </trkpt>
      <trkpt lat="45.83898" lon="6.72467">
        <ele>1417</ele>
        <time>2022-08-26T20:02:54Z</time>
      </trkpt>
      <trkpt lat="45.83898" lon="6.72465">
        <ele>1415</ele>
        <time>2022-08-26T20:02:55Z</time>
      </trkpt>
      <trkpt lat="45.83897" lon="6.72463">
        <ele>1415</ele>
        <time>2022-08-26T20:02:56Z</time>
      </trkpt>
      <trkpt lat="45.83895" lon="6.72458">
        <ele>1415</ele>
        <time>2022-08-26T20:02:57Z</time>
      </trkpt>
      <trkpt lat="45.83895" lon="6.72457">
        <ele>1415</ele>
        <time>2022-08-26T20:02:58Z</time>
      </trkpt>
      <trkpt lat="45.83893" lon="6.72455">
        <ele>1415</ele>
        <time>2022-08-26T20:02:59Z</time>
      </trkpt>
      <trkpt lat="45.83892" lon="6.72452">
        <ele>1415</ele>
        <time>2022-08-26T20:03:00Z</time>
      </trkpt>
      <trkpt lat="45.83891" lon="6.72451">
        <ele>1413</ele>
        <time>2022-08-26T20:03:01Z</time>
      </trkpt>
      <trkpt lat="45.8389" lon="6.72448">
        <ele>1412</ele>
        <time>2022-08-26T20:03:02Z</time>
      </trkpt>
      <trkpt lat="45.83889" lon="6.72445">
        <ele>1411</ele>
        <time>2022-08-26T20:03:03Z</time>
      </trkpt>
      <trkpt lat="45.83888" lon="6.72442">
        <ele>1411</ele>
        <time>2022-08-26T20:03:04Z</time>
      </trkpt>
      <trkpt lat="45.83887" lon="6.72437">
        <ele>1411</ele>
        <time>2022-08-26T20:03:05Z</time>
      </trkpt>
      <trkpt lat="45.83886" lon="6.72436">
        <ele>1411</ele>
        <time>2022-08-26T20:03:06Z</time>
      </trkpt>
      <trkpt lat="45.83883" lon="6.72432">
        <ele>1411</ele>
        <time>2022-08-26T20:03:07Z</time>
      </trkpt>
      <trkpt lat="45.83882" lon="6.72432">
        <ele>1410</ele>
        <time>2022-08-26T20:03:08Z</time>
      </trkpt>
      <trkpt lat="45.8388" lon="6.72433">
        <ele>1410</ele>
        <time>2022-08-26T20:03:10Z</time>
      </trkpt>
      <trkpt lat="45.83879" lon="6.72435">
        <ele>1409</ele>
        <time>2022-08-26T20:03:11Z</time>
      </trkpt>
      <trkpt lat="45.83877" lon="6.72439">
        <ele>1409</ele>
        <time>2022-08-26T20:03:12Z</time>
      </trkpt>
      <trkpt lat="45.83876" lon="6.72441">
        <ele>1409</ele>
        <time>2022-08-26T20:03:13Z</time>
      </trkpt>
      <trkpt lat="45.83876" lon="6.72444">
        <ele>1408</ele>
        <time>2022-08-26T20:03:14Z</time>
      </trkpt>
      <trkpt lat="45.83875" lon="6.72447">
        <ele>1407</ele>
        <time>2022-08-26T20:03:15Z</time>
      </trkpt>
      <trkpt lat="45.83874" lon="6.72452">
        <ele>1407</ele>
        <time>2022-08-26T20:03:16Z</time>
      </trkpt>
      <trkpt lat="45.83873" lon="6.72454">
        <ele>1407</ele>
        <time>2022-08-26T20:03:17Z</time>
      </trkpt>
      <trkpt lat="45.83873" lon="6.72457">
        <ele>1407</ele>
        <time>2022-08-26T20:03:18Z</time>
      </trkpt>
      <trkpt lat="45.83872" lon="6.7246">
        <ele>1406</ele>
        <time>2022-08-26T20:03:19Z</time>
      </trkpt>
      <trkpt lat="45.83871" lon="6.72465">
        <ele>1406</ele>
        <time>2022-08-26T20:03:20Z</time>
      </trkpt>
      <trkpt lat="45.83871" lon="6.72466">
        <ele>1406</ele>
        <time>2022-08-26T20:03:21Z</time>
      </trkpt>
      <trkpt lat="45.8387" lon="6.72469">
        <ele>1406</ele>
        <time>2022-08-26T20:03:22Z</time>
      </trkpt>
      <trkpt lat="45.83868" lon="6.72473">
        <ele>1406</ele>
        <time>2022-08-26T20:03:23Z</time>
      </trkpt>
      <trkpt lat="45.83868" lon="6.72475">
        <ele>1406</ele>
        <time>2022-08-26T20:03:24Z</time>
      </trkpt>
      <trkpt lat="45.83867" lon="6.72479">
        <ele>1406</ele>
        <time>2022-08-26T20:03:26Z</time>
      </trkpt>
      <trkpt lat="45.83866" lon="6.72484">
        <ele>1406</ele>
        <time>2022-08-26T20:03:27Z</time>
      </trkpt>
      <trkpt lat="45.83866" lon="6.72488">
        <ele>1406</ele>
        <time>2022-08-26T20:03:28Z</time>
      </trkpt>
      <trkpt lat="45.83863" lon="6.72496">
        <ele>1406</ele>
        <time>2022-08-26T20:03:31Z</time>
      </trkpt>
      <trkpt lat="45.83861" lon="6.725">
        <ele>1406</ele>
        <time>2022-08-26T20:03:33Z</time>
      </trkpt>
      <trkpt lat="45.8386" lon="6.72502">
        <ele>1405</ele>
        <time>2022-08-26T20:03:34Z</time>
      </trkpt>
      <trkpt lat="45.83859" lon="6.72504">
        <ele>1405</ele>
        <time>2022-08-26T20:03:36Z</time>
      </trkpt>
      <trkpt lat="45.83858" lon="6.72506">
        <ele>1405</ele>
        <time>2022-08-26T20:03:37Z</time>
      </trkpt>
      <trkpt lat="45.83856" lon="6.72508">
        <ele>1405</ele>
        <time>2022-08-26T20:03:38Z</time>
      </trkpt>
      <trkpt lat="45.83855" lon="6.7251">
        <ele>1405</ele>
        <time>2022-08-26T20:03:39Z</time>
      </trkpt>
      <trkpt lat="45.83853" lon="6.72511">
        <ele>1406</ele>
        <time>2022-08-26T20:03:41Z</time>
      </trkpt>
      <trkpt lat="45.83852" lon="6.72513">
        <ele>1406</ele>
        <time>2022-08-26T20:03:43Z</time>
      </trkpt>
      <trkpt lat="45.8385" lon="6.72514">
        <ele>1407</ele>
        <time>2022-08-26T20:03:44Z</time>
      </trkpt>
      <trkpt lat="45.83843" lon="6.72517">
        <ele>1407</ele>
        <time>2022-08-26T20:03:45Z</time>
      </trkpt>
      <trkpt lat="45.8384" lon="6.72518">
        <ele>1407</ele>
        <time>2022-08-26T20:03:46Z</time>
      </trkpt>
      <trkpt lat="45.83836" lon="6.72517">
        <ele>1407</ele>
        <time>2022-08-26T20:03:47Z</time>
      </trkpt>
      <trkpt lat="45.83835" lon="6.72517">
        <ele>1407</ele>
        <time>2022-08-26T20:03:48Z</time>
      </trkpt>
      <trkpt lat="45.83833" lon="6.72517">
        <ele>1406</ele>
        <time>2022-08-26T20:03:49Z</time>
      </trkpt>
      <trkpt lat="45.8383" lon="6.72517">
        <ele>1405</ele>
        <time>2022-08-26T20:03:50Z</time>
      </trkpt>
      <trkpt lat="45.83827" lon="6.72516">
        <ele>1405</ele>
        <time>2022-08-26T20:03:51Z</time>
      </trkpt>
      <trkpt lat="45.83825" lon="6.72517">
        <ele>1405</ele>
        <time>2022-08-26T20:03:52Z</time>
      </trkpt>
      <trkpt lat="45.83822" lon="6.72517">
        <ele>1404</ele>
        <time>2022-08-26T20:03:53Z</time>
      </trkpt>
      <trkpt lat="45.83819" lon="6.72518">
        <ele>1404</ele>
        <time>2022-08-26T20:03:54Z</time>
      </trkpt>
      <trkpt lat="45.83818" lon="6.72519">
        <ele>1404</ele>
        <time>2022-08-26T20:03:55Z</time>
      </trkpt>
      <trkpt lat="45.83808" lon="6.72524">
        <ele>1404</ele>
        <time>2022-08-26T20:03:59Z</time>
      </trkpt>
      <trkpt lat="45.83806" lon="6.72526">
        <ele>1403</ele>
        <time>2022-08-26T20:04:00Z</time>
      </trkpt>
      <trkpt lat="45.83803" lon="6.72528">
        <ele>1403</ele>
        <time>2022-08-26T20:04:01Z</time>
      </trkpt>
      <trkpt lat="45.838" lon="6.72527">
        <ele>1403</ele>
        <time>2022-08-26T20:04:02Z</time>
      </trkpt>
      <trkpt lat="45.83797" lon="6.72524">
        <ele>1403</ele>
        <time>2022-08-26T20:04:03Z</time>
      </trkpt>
      <trkpt lat="45.83797" lon="6.72522">
        <ele>1403</ele>
        <time>2022-08-26T20:04:04Z</time>
      </trkpt>
      <trkpt lat="45.83795" lon="6.7252">
        <ele>1402</ele>
        <time>2022-08-26T20:04:05Z</time>
      </trkpt>
      <trkpt lat="45.83794" lon="6.72516">
        <ele>1402</ele>
        <time>2022-08-26T20:04:06Z</time>
      </trkpt>
      <trkpt lat="45.83791" lon="6.72511">
        <ele>1402</ele>
        <time>2022-08-26T20:04:07Z</time>
      </trkpt>
      <trkpt lat="45.8379" lon="6.7251">
        <ele>1402</ele>
        <time>2022-08-26T20:04:08Z</time>
      </trkpt>
      <trkpt lat="45.83789" lon="6.72506">
        <ele>1401</ele>
        <time>2022-08-26T20:04:09Z</time>
      </trkpt>
      <trkpt lat="45.83788" lon="6.72503">
        <ele>1401</ele>
        <time>2022-08-26T20:04:10Z</time>
      </trkpt>
      <trkpt lat="45.83787" lon="6.725">
        <ele>1401</ele>
        <time>2022-08-26T20:04:11Z</time>
      </trkpt>
      <trkpt lat="45.83785" lon="6.72497">
        <ele>1401</ele>
        <time>2022-08-26T20:04:12Z</time>
      </trkpt>
      <trkpt lat="45.83783" lon="6.72495">
        <ele>1401</ele>
        <time>2022-08-26T20:04:13Z</time>
      </trkpt>
      <trkpt lat="45.83782" lon="6.72493">
        <ele>1401</ele>
        <time>2022-08-26T20:04:14Z</time>
      </trkpt>
      <trkpt lat="45.8378" lon="6.7249">
        <ele>1401</ele>
        <time>2022-08-26T20:04:15Z</time>
      </trkpt>
      <trkpt lat="45.83779" lon="6.72488">
        <ele>1401</ele>
        <time>2022-08-26T20:04:16Z</time>
      </trkpt>
      <trkpt lat="45.83775" lon="6.72486">
        <ele>1401</ele>
        <time>2022-08-26T20:04:17Z</time>
      </trkpt>
      <trkpt lat="45.83774" lon="6.72486">
        <ele>1401</ele>
        <time>2022-08-26T20:04:18Z</time>
      </trkpt>
      <trkpt lat="45.83772" lon="6.72485">
        <ele>1400</ele>
        <time>2022-08-26T20:04:19Z</time>
      </trkpt>
      <trkpt lat="45.83769" lon="6.72484">
        <ele>1400</ele>
        <time>2022-08-26T20:04:20Z</time>
      </trkpt>
      <trkpt lat="45.83767" lon="6.72483">
        <ele>1400</ele>
        <time>2022-08-26T20:04:21Z</time>
      </trkpt>
      <trkpt lat="45.83763" lon="6.72483">
        <ele>1400</ele>
        <time>2022-08-26T20:04:22Z</time>
      </trkpt>
      <trkpt lat="45.83762" lon="6.72483">
        <ele>1400</ele>
        <time>2022-08-26T20:04:23Z</time>
      </trkpt>
      <trkpt lat="45.8376" lon="6.72482">
        <ele>1400</ele>
        <time>2022-08-26T20:04:24Z</time>
      </trkpt>
      <trkpt lat="45.83757" lon="6.72483">
        <ele>1400</ele>
        <time>2022-08-26T20:04:25Z</time>
      </trkpt>
      <trkpt lat="45.83754" lon="6.72483">
        <ele>1400</ele>
        <time>2022-08-26T20:04:26Z</time>
      </trkpt>
      <trkpt lat="45.83752" lon="6.72483">
        <ele>1400</ele>
        <time>2022-08-26T20:04:27Z</time>
      </trkpt>
      <trkpt lat="45.83748" lon="6.72483">
        <ele>1400</ele>
        <time>2022-08-26T20:04:29Z</time>
      </trkpt>
      <trkpt lat="45.83745" lon="6.72484">
        <ele>1400</ele>
        <time>2022-08-26T20:04:30Z</time>
      </trkpt>
      <trkpt lat="45.83743" lon="6.72484">
        <ele>1400</ele>
        <time>2022-08-26T20:04:31Z</time>
      </trkpt>
      <trkpt lat="45.83741" lon="6.72484">
        <ele>1400</ele>
        <time>2022-08-26T20:04:32Z</time>
      </trkpt>
      <trkpt lat="45.83739" lon="6.72485">
        <ele>1400</ele>
        <time>2022-08-26T20:04:34Z</time>
      </trkpt>
      <trkpt lat="45.83737" lon="6.72486">
        <ele>1399</ele>
        <time>2022-08-26T20:04:35Z</time>
      </trkpt>
      <trkpt lat="45.83736" lon="6.72487">
        <ele>1399</ele>
        <time>2022-08-26T20:04:36Z</time>
      </trkpt>
      <trkpt lat="45.83734" lon="6.72488">
        <ele>1399</ele>
        <time>2022-08-26T20:04:37Z</time>
      </trkpt>
      <trkpt lat="45.83732" lon="6.72489">
        <ele>1399</ele>
        <time>2022-08-26T20:04:38Z</time>
      </trkpt>
      <trkpt lat="45.83729" lon="6.7249">
        <ele>1399</ele>
        <time>2022-08-26T20:04:39Z</time>
      </trkpt>
      <trkpt lat="45.83727" lon="6.72491">
        <ele>1400</ele>
        <time>2022-08-26T20:04:40Z</time>
      </trkpt>
      <trkpt lat="45.83724" lon="6.72492">
        <ele>1400</ele>
        <time>2022-08-26T20:04:41Z</time>
      </trkpt>
      <trkpt lat="45.83721" lon="6.72493">
        <ele>1400</ele>
        <time>2022-08-26T20:04:42Z</time>
      </trkpt>
      <trkpt lat="45.8372" lon="6.72493">
        <ele>1400</ele>
        <time>2022-08-26T20:04:43Z</time>
      </trkpt>
      <trkpt lat="45.83719" lon="6.72494">
        <ele>1400</ele>
        <time>2022-08-26T20:04:44Z</time>
      </trkpt>
      <trkpt lat="45.83717" lon="6.72495">
        <ele>1400</ele>
        <time>2022-08-26T20:04:45Z</time>
      </trkpt>
      <trkpt lat="45.83713" lon="6.72496">
        <ele>1400</ele>
        <time>2022-08-26T20:04:46Z</time>
      </trkpt>
      <trkpt lat="45.83712" lon="6.72496">
        <ele>1400</ele>
        <time>2022-08-26T20:04:47Z</time>
      </trkpt>
      <trkpt lat="45.8371" lon="6.72497">
        <ele>1400</ele>
        <time>2022-08-26T20:04:48Z</time>
      </trkpt>
      <trkpt lat="45.83708" lon="6.72498">
        <ele>1400</ele>
        <time>2022-08-26T20:04:49Z</time>
      </trkpt>
      <trkpt lat="45.83706" lon="6.72498">
        <ele>1400</ele>
        <time>2022-08-26T20:04:50Z</time>
      </trkpt>
      <trkpt lat="45.83704" lon="6.72498">
        <ele>1400</ele>
        <time>2022-08-26T20:04:51Z</time>
      </trkpt>
      <trkpt lat="45.83702" lon="6.72498">
        <ele>1400</ele>
        <time>2022-08-26T20:04:52Z</time>
      </trkpt>
      <trkpt lat="45.83698" lon="6.72499">
        <ele>1400</ele>
        <time>2022-08-26T20:04:54Z</time>
      </trkpt>
      <trkpt lat="45.83696" lon="6.725">
        <ele>1400</ele>
        <time>2022-08-26T20:04:55Z</time>
      </trkpt>
      <trkpt lat="45.83694" lon="6.725">
        <ele>1400</ele>
        <time>2022-08-26T20:04:56Z</time>
      </trkpt>
      <trkpt lat="45.83692" lon="6.72501">
        <ele>1400</ele>
        <time>2022-08-26T20:04:57Z</time>
      </trkpt>
      <trkpt lat="45.83689" lon="6.72501">
        <ele>1400</ele>
        <time>2022-08-26T20:04:58Z</time>
      </trkpt>
      <trkpt lat="45.83688" lon="6.72501">
        <ele>1401</ele>
        <time>2022-08-26T20:04:59Z</time>
      </trkpt>
      <trkpt lat="45.83686" lon="6.72502">
        <ele>1401</ele>
        <time>2022-08-26T20:05:00Z</time>
      </trkpt>
      <trkpt lat="45.83684" lon="6.72502">
        <ele>1401</ele>
        <time>2022-08-26T20:05:01Z</time>
      </trkpt>
      <trkpt lat="45.83681" lon="6.72503">
        <ele>1401</ele>
        <time>2022-08-26T20:05:02Z</time>
      </trkpt>
      <trkpt lat="45.83678" lon="6.72504">
        <ele>1401</ele>
        <time>2022-08-26T20:05:03Z</time>
      </trkpt>
      <trkpt lat="45.83677" lon="6.72504">
        <ele>1401</ele>
        <time>2022-08-26T20:05:04Z</time>
      </trkpt>
      <trkpt lat="45.83675" lon="6.72504">
        <ele>1401</ele>
        <time>2022-08-26T20:05:05Z</time>
      </trkpt>
      <trkpt lat="45.83673" lon="6.72505">
        <ele>1402</ele>
        <time>2022-08-26T20:05:06Z</time>
      </trkpt>
      <trkpt lat="45.83671" lon="6.72505">
        <ele>1401</ele>
        <time>2022-08-26T20:05:07Z</time>
      </trkpt>
      <trkpt lat="45.83669" lon="6.72505">
        <ele>1402</ele>
        <time>2022-08-26T20:05:08Z</time>
      </trkpt>
      <trkpt lat="45.83667" lon="6.72506">
        <ele>1402</ele>
        <time>2022-08-26T20:05:09Z</time>
      </trkpt>
      <trkpt lat="45.83665" lon="6.72506">
        <ele>1402</ele>
        <time>2022-08-26T20:05:10Z</time>
      </trkpt>
      <trkpt lat="45.83664" lon="6.72507">
        <ele>1402</ele>
        <time>2022-08-26T20:05:11Z</time>
      </trkpt>
      <trkpt lat="45.83661" lon="6.72507">
        <ele>1402</ele>
        <time>2022-08-26T20:05:12Z</time>
      </trkpt>
      <trkpt lat="45.83658" lon="6.72508">
        <ele>1402</ele>
        <time>2022-08-26T20:05:14Z</time>
      </trkpt>
      <trkpt lat="45.83654" lon="6.72509">
        <ele>1402</ele>
        <time>2022-08-26T20:05:16Z</time>
      </trkpt>
      <trkpt lat="45.83651" lon="6.7251">
        <ele>1402</ele>
        <time>2022-08-26T20:05:18Z</time>
      </trkpt>
      <trkpt lat="45.83648" lon="6.72511">
        <ele>1403</ele>
        <time>2022-08-26T20:05:20Z</time>
      </trkpt>
      <trkpt lat="45.83644" lon="6.72512">
        <ele>1403</ele>
        <time>2022-08-26T20:05:22Z</time>
      </trkpt>
      <trkpt lat="45.83641" lon="6.72513">
        <ele>1403</ele>
        <time>2022-08-26T20:05:24Z</time>
      </trkpt>
      <trkpt lat="45.83639" lon="6.72514">
        <ele>1403</ele>
        <time>2022-08-26T20:05:25Z</time>
      </trkpt>
      <trkpt lat="45.83637" lon="6.72515">
        <ele>1403</ele>
        <time>2022-08-26T20:05:26Z</time>
      </trkpt>
      <trkpt lat="45.83635" lon="6.72515">
        <ele>1403</ele>
        <time>2022-08-26T20:05:27Z</time>
      </trkpt>
      <trkpt lat="45.83633" lon="6.72516">
        <ele>1403</ele>
        <time>2022-08-26T20:05:28Z</time>
      </trkpt>
      <trkpt lat="45.83632" lon="6.72517">
        <ele>1403</ele>
        <time>2022-08-26T20:05:29Z</time>
      </trkpt>
      <trkpt lat="45.8363" lon="6.72517">
        <ele>1403</ele>
        <time>2022-08-26T20:05:30Z</time>
      </trkpt>
      <trkpt lat="45.83626" lon="6.72519">
        <ele>1403</ele>
        <time>2022-08-26T20:05:31Z</time>
      </trkpt>
      <trkpt lat="45.83625" lon="6.72519">
        <ele>1403</ele>
        <time>2022-08-26T20:05:32Z</time>
      </trkpt>
      <trkpt lat="45.83623" lon="6.7252">
        <ele>1403</ele>
        <time>2022-08-26T20:05:33Z</time>
      </trkpt>
      <trkpt lat="45.83621" lon="6.72521">
        <ele>1403</ele>
        <time>2022-08-26T20:05:34Z</time>
      </trkpt>
      <trkpt lat="45.83619" lon="6.72521">
        <ele>1403</ele>
        <time>2022-08-26T20:05:35Z</time>
      </trkpt>
      <trkpt lat="45.83617" lon="6.72522">
        <ele>1403</ele>
        <time>2022-08-26T20:05:36Z</time>
      </trkpt>
      <trkpt lat="45.83615" lon="6.72523">
        <ele>1403</ele>
        <time>2022-08-26T20:05:37Z</time>
      </trkpt>
      <trkpt lat="45.83612" lon="6.72525">
        <ele>1403</ele>
        <time>2022-08-26T20:05:39Z</time>
      </trkpt>
      <trkpt lat="45.83609" lon="6.72525">
        <ele>1403</ele>
        <time>2022-08-26T20:05:40Z</time>
      </trkpt>
      <trkpt lat="45.83606" lon="6.72526">
        <ele>1403</ele>
        <time>2022-08-26T20:05:41Z</time>
      </trkpt>
      <trkpt lat="45.83605" lon="6.72527">
        <ele>1404</ele>
        <time>2022-08-26T20:05:42Z</time>
      </trkpt>
      <trkpt lat="45.83603" lon="6.72528">
        <ele>1404</ele>
        <time>2022-08-26T20:05:43Z</time>
      </trkpt>
      <trkpt lat="45.83601" lon="6.72528">
        <ele>1404</ele>
        <time>2022-08-26T20:05:44Z</time>
      </trkpt>
      <trkpt lat="45.83599" lon="6.72529">
        <ele>1404</ele>
        <time>2022-08-26T20:05:45Z</time>
      </trkpt>
      <trkpt lat="45.83597" lon="6.7253">
        <ele>1404</ele>
        <time>2022-08-26T20:05:46Z</time>
      </trkpt>
      <trkpt lat="45.83595" lon="6.7253">
        <ele>1404</ele>
        <time>2022-08-26T20:05:47Z</time>
      </trkpt>
      <trkpt lat="45.83592" lon="6.72531">
        <ele>1404</ele>
        <time>2022-08-26T20:05:48Z</time>
      </trkpt>
      <trkpt lat="45.83591" lon="6.72531">
        <ele>1404</ele>
        <time>2022-08-26T20:05:49Z</time>
      </trkpt>
      <trkpt lat="45.8359" lon="6.72532">
        <ele>1404</ele>
        <time>2022-08-26T20:05:50Z</time>
      </trkpt>
      <trkpt lat="45.83588" lon="6.72532">
        <ele>1404</ele>
        <time>2022-08-26T20:05:51Z</time>
      </trkpt>
      <trkpt lat="45.83586" lon="6.72533">
        <ele>1404</ele>
        <time>2022-08-26T20:05:52Z</time>
      </trkpt>
      <trkpt lat="45.83584" lon="6.72533">
        <ele>1404</ele>
        <time>2022-08-26T20:05:53Z</time>
      </trkpt>
      <trkpt lat="45.83582" lon="6.72534">
        <ele>1404</ele>
        <time>2022-08-26T20:05:54Z</time>
      </trkpt>
      <trkpt lat="45.8358" lon="6.72535">
        <ele>1404</ele>
        <time>2022-08-26T20:05:55Z</time>
      </trkpt>
      <trkpt lat="45.83578" lon="6.72536">
        <ele>1404</ele>
        <time>2022-08-26T20:05:56Z</time>
      </trkpt>
      <trkpt lat="45.83575" lon="6.72537">
        <ele>1404</ele>
        <time>2022-08-26T20:05:57Z</time>
      </trkpt>
      <trkpt lat="45.83574" lon="6.72537">
        <ele>1404</ele>
        <time>2022-08-26T20:05:58Z</time>
      </trkpt>
      <trkpt lat="45.83572" lon="6.72538">
        <ele>1404</ele>
        <time>2022-08-26T20:05:59Z</time>
      </trkpt>
      <trkpt lat="45.8357" lon="6.72539">
        <ele>1404</ele>
        <time>2022-08-26T20:06:00Z</time>
      </trkpt>
      <trkpt lat="45.83568" lon="6.7254">
        <ele>1404</ele>
        <time>2022-08-26T20:06:01Z</time>
      </trkpt>
      <trkpt lat="45.83563" lon="6.72541">
        <ele>1404</ele>
        <time>2022-08-26T20:06:03Z</time>
      </trkpt>
      <trkpt lat="45.83561" lon="6.72542">
        <ele>1405</ele>
        <time>2022-08-26T20:06:04Z</time>
      </trkpt>
      <trkpt lat="45.83559" lon="6.72542">
        <ele>1405</ele>
        <time>2022-08-26T20:06:05Z</time>
      </trkpt>
      <trkpt lat="45.83557" lon="6.72543">
        <ele>1405</ele>
        <time>2022-08-26T20:06:06Z</time>
      </trkpt>
      <trkpt lat="45.83554" lon="6.72544">
        <ele>1405</ele>
        <time>2022-08-26T20:06:07Z</time>
      </trkpt>
      <trkpt lat="45.83552" lon="6.72545">
        <ele>1405</ele>
        <time>2022-08-26T20:06:08Z</time>
      </trkpt>
      <trkpt lat="45.83549" lon="6.72546">
        <ele>1405</ele>
        <time>2022-08-26T20:06:09Z</time>
      </trkpt>
      <trkpt lat="45.83548" lon="6.72546">
        <ele>1404</ele>
        <time>2022-08-26T20:06:10Z</time>
      </trkpt>
      <trkpt lat="45.83546" lon="6.72546">
        <ele>1404</ele>
        <time>2022-08-26T20:06:11Z</time>
      </trkpt>
      <trkpt lat="45.83542" lon="6.72548">
        <ele>1404</ele>
        <time>2022-08-26T20:06:13Z</time>
      </trkpt>
      <trkpt lat="45.8354" lon="6.72549">
        <ele>1404</ele>
        <time>2022-08-26T20:06:14Z</time>
      </trkpt>
      <trkpt lat="45.83538" lon="6.72549">
        <ele>1404</ele>
        <time>2022-08-26T20:06:15Z</time>
      </trkpt>
      <trkpt lat="45.83535" lon="6.7255">
        <ele>1404</ele>
        <time>2022-08-26T20:06:16Z</time>
      </trkpt>
      <trkpt lat="45.83534" lon="6.7255">
        <ele>1404</ele>
        <time>2022-08-26T20:06:17Z</time>
      </trkpt>
      <trkpt lat="45.83532" lon="6.72551">
        <ele>1404</ele>
        <time>2022-08-26T20:06:18Z</time>
      </trkpt>
      <trkpt lat="45.8353" lon="6.72552">
        <ele>1405</ele>
        <time>2022-08-26T20:06:19Z</time>
      </trkpt>
      <trkpt lat="45.83528" lon="6.72553">
        <ele>1405</ele>
        <time>2022-08-26T20:06:20Z</time>
      </trkpt>
      <trkpt lat="45.83526" lon="6.72553">
        <ele>1405</ele>
        <time>2022-08-26T20:06:21Z</time>
      </trkpt>
      <trkpt lat="45.83524" lon="6.72554">
        <ele>1405</ele>
        <time>2022-08-26T20:06:22Z</time>
      </trkpt>
      <trkpt lat="45.83522" lon="6.72555">
        <ele>1405</ele>
        <time>2022-08-26T20:06:23Z</time>
      </trkpt>
      <trkpt lat="45.8352" lon="6.72555">
        <ele>1405</ele>
        <time>2022-08-26T20:06:24Z</time>
      </trkpt>
      <trkpt lat="45.83518" lon="6.72555">
        <ele>1405</ele>
        <time>2022-08-26T20:06:25Z</time>
      </trkpt>
      <trkpt lat="45.83515" lon="6.72557">
        <ele>1405</ele>
        <time>2022-08-26T20:06:27Z</time>
      </trkpt>
      <trkpt lat="45.83512" lon="6.72557">
        <ele>1405</ele>
        <time>2022-08-26T20:06:29Z</time>
      </trkpt>
      <trkpt lat="45.83509" lon="6.72557">
        <ele>1405</ele>
        <time>2022-08-26T20:06:31Z</time>
      </trkpt>
      <trkpt lat="45.83506" lon="6.72557">
        <ele>1406</ele>
        <time>2022-08-26T20:06:33Z</time>
      </trkpt>
      <trkpt lat="45.83504" lon="6.72557">
        <ele>1406</ele>
        <time>2022-08-26T20:06:34Z</time>
      </trkpt>
      <trkpt lat="45.83501" lon="6.72557">
        <ele>1406</ele>
        <time>2022-08-26T20:06:35Z</time>
      </trkpt>
      <trkpt lat="45.83497" lon="6.72556">
        <ele>1406</ele>
        <time>2022-08-26T20:06:37Z</time>
      </trkpt>
      <trkpt lat="45.83495" lon="6.72556">
        <ele>1406</ele>
        <time>2022-08-26T20:06:38Z</time>
      </trkpt>
      <trkpt lat="45.83493" lon="6.72555">
        <ele>1406</ele>
        <time>2022-08-26T20:06:39Z</time>
      </trkpt>
      <trkpt lat="45.8349" lon="6.72555">
        <ele>1406</ele>
        <time>2022-08-26T20:06:40Z</time>
      </trkpt>
      <trkpt lat="45.83487" lon="6.72554">
        <ele>1406</ele>
        <time>2022-08-26T20:06:41Z</time>
      </trkpt>
      <trkpt lat="45.83486" lon="6.72553">
        <ele>1406</ele>
        <time>2022-08-26T20:06:42Z</time>
      </trkpt>
      <trkpt lat="45.83484" lon="6.72553">
        <ele>1406</ele>
        <time>2022-08-26T20:06:43Z</time>
      </trkpt>
      <trkpt lat="45.83482" lon="6.72552">
        <ele>1406</ele>
        <time>2022-08-26T20:06:44Z</time>
      </trkpt>
      <trkpt lat="45.83478" lon="6.72551">
        <ele>1406</ele>
        <time>2022-08-26T20:06:45Z</time>
      </trkpt>
      <trkpt lat="45.83477" lon="6.72551">
        <ele>1406</ele>
        <time>2022-08-26T20:06:46Z</time>
      </trkpt>
      <trkpt lat="45.83473" lon="6.72549">
        <ele>1405</ele>
        <time>2022-08-26T20:06:48Z</time>
      </trkpt>
      <trkpt lat="45.8347" lon="6.72549">
        <ele>1405</ele>
        <time>2022-08-26T20:06:49Z</time>
      </trkpt>
      <trkpt lat="45.83468" lon="6.72548">
        <ele>1405</ele>
        <time>2022-08-26T20:06:50Z</time>
      </trkpt>
      <trkpt lat="45.83466" lon="6.72548">
        <ele>1405</ele>
        <time>2022-08-26T20:06:51Z</time>
      </trkpt>
      <trkpt lat="45.83464" lon="6.72547">
        <ele>1405</ele>
        <time>2022-08-26T20:06:52Z</time>
      </trkpt>
      <trkpt lat="45.83461" lon="6.72546">
        <ele>1404</ele>
        <time>2022-08-26T20:06:53Z</time>
      </trkpt>
      <trkpt lat="45.83458" lon="6.72545">
        <ele>1404</ele>
        <time>2022-08-26T20:06:54Z</time>
      </trkpt>
      <trkpt lat="45.83457" lon="6.72544">
        <ele>1405</ele>
        <time>2022-08-26T20:06:55Z</time>
      </trkpt>
      <trkpt lat="45.83455" lon="6.72543">
        <ele>1405</ele>
        <time>2022-08-26T20:06:56Z</time>
      </trkpt>
      <trkpt lat="45.8345" lon="6.72542">
        <ele>1405</ele>
        <time>2022-08-26T20:06:58Z</time>
      </trkpt>
      <trkpt lat="45.83447" lon="6.72542">
        <ele>1405</ele>
        <time>2022-08-26T20:06:59Z</time>
      </trkpt>
      <trkpt lat="45.83445" lon="6.72541">
        <ele>1405</ele>
        <time>2022-08-26T20:07:00Z</time>
      </trkpt>
      <trkpt lat="45.83442" lon="6.72541">
        <ele>1405</ele>
        <time>2022-08-26T20:07:01Z</time>
      </trkpt>
      <trkpt lat="45.83437" lon="6.72542">
        <ele>1405</ele>
        <time>2022-08-26T20:07:03Z</time>
      </trkpt>
      <trkpt lat="45.83433" lon="6.72544">
        <ele>1405</ele>
        <time>2022-08-26T20:07:04Z</time>
      </trkpt>
      <trkpt lat="45.83432" lon="6.72545">
        <ele>1404</ele>
        <time>2022-08-26T20:07:05Z</time>
      </trkpt>
      <trkpt lat="45.83429" lon="6.72546">
        <ele>1404</ele>
        <time>2022-08-26T20:07:06Z</time>
      </trkpt>
      <trkpt lat="45.83427" lon="6.72547">
        <ele>1403</ele>
        <time>2022-08-26T20:07:07Z</time>
      </trkpt>
      <trkpt lat="45.83423" lon="6.72549">
        <ele>1403</ele>
        <time>2022-08-26T20:07:08Z</time>
      </trkpt>
      <trkpt lat="45.83422" lon="6.7255">
        <ele>1403</ele>
        <time>2022-08-26T20:07:09Z</time>
      </trkpt>
      <trkpt lat="45.83419" lon="6.72551">
        <ele>1403</ele>
        <time>2022-08-26T20:07:10Z</time>
      </trkpt>
      <trkpt lat="45.83416" lon="6.72552">
        <ele>1403</ele>
        <time>2022-08-26T20:07:11Z</time>
      </trkpt>
      <trkpt lat="45.83415" lon="6.72552">
        <ele>1403</ele>
        <time>2022-08-26T20:07:12Z</time>
      </trkpt>
      <trkpt lat="45.83412" lon="6.72553">
        <ele>1403</ele>
        <time>2022-08-26T20:07:13Z</time>
      </trkpt>
      <trkpt lat="45.8341" lon="6.72554">
        <ele>1403</ele>
        <time>2022-08-26T20:07:14Z</time>
      </trkpt>
      <trkpt lat="45.83407" lon="6.72555">
        <ele>1403</ele>
        <time>2022-08-26T20:07:15Z</time>
      </trkpt>
      <trkpt lat="45.83404" lon="6.72556">
        <ele>1403</ele>
        <time>2022-08-26T20:07:16Z</time>
      </trkpt>
      <trkpt lat="45.83403" lon="6.72557">
        <ele>1403</ele>
        <time>2022-08-26T20:07:17Z</time>
      </trkpt>
      <trkpt lat="45.834" lon="6.72558">
        <ele>1403</ele>
        <time>2022-08-26T20:07:18Z</time>
      </trkpt>
      <trkpt lat="45.83397" lon="6.72561">
        <ele>1403</ele>
        <time>2022-08-26T20:07:20Z</time>
      </trkpt>
      <trkpt lat="45.83394" lon="6.72564">
        <ele>1403</ele>
        <time>2022-08-26T20:07:21Z</time>
      </trkpt>
      <trkpt lat="45.83393" lon="6.72565">
        <ele>1403</ele>
        <time>2022-08-26T20:07:22Z</time>
      </trkpt>
      <trkpt lat="45.8339" lon="6.72567">
        <ele>1403</ele>
        <time>2022-08-26T20:07:23Z</time>
      </trkpt>
      <trkpt lat="45.83389" lon="6.72568">
        <ele>1402</ele>
        <time>2022-08-26T20:07:24Z</time>
      </trkpt>
      <trkpt lat="45.83387" lon="6.7257">
        <ele>1402</ele>
        <time>2022-08-26T20:07:25Z</time>
      </trkpt>
      <trkpt lat="45.83386" lon="6.72572">
        <ele>1402</ele>
        <time>2022-08-26T20:07:26Z</time>
      </trkpt>
      <trkpt lat="45.83383" lon="6.72575">
        <ele>1402</ele>
        <time>2022-08-26T20:07:27Z</time>
      </trkpt>
      <trkpt lat="45.83381" lon="6.72576">
        <ele>1402</ele>
        <time>2022-08-26T20:07:28Z</time>
      </trkpt>
      <trkpt lat="45.83379" lon="6.72578">
        <ele>1402</ele>
        <time>2022-08-26T20:07:29Z</time>
      </trkpt>
      <trkpt lat="45.83377" lon="6.72579">
        <ele>1402</ele>
        <time>2022-08-26T20:07:30Z</time>
      </trkpt>
      <trkpt lat="45.83375" lon="6.7258">
        <ele>1402</ele>
        <time>2022-08-26T20:07:31Z</time>
      </trkpt>
      <trkpt lat="45.83372" lon="6.72582">
        <ele>1402</ele>
        <time>2022-08-26T20:07:32Z</time>
      </trkpt>
      <trkpt lat="45.83371" lon="6.72582">
        <ele>1402</ele>
        <time>2022-08-26T20:07:33Z</time>
      </trkpt>
      <trkpt lat="45.83368" lon="6.72583">
        <ele>1402</ele>
        <time>2022-08-26T20:07:34Z</time>
      </trkpt>
      <trkpt lat="45.83365" lon="6.72585">
        <ele>1402</ele>
        <time>2022-08-26T20:07:35Z</time>
      </trkpt>
      <trkpt lat="45.83364" lon="6.72585">
        <ele>1402</ele>
        <time>2022-08-26T20:07:36Z</time>
      </trkpt>
      <trkpt lat="45.83361" lon="6.72586">
        <ele>1402</ele>
        <time>2022-08-26T20:07:37Z</time>
      </trkpt>
      <trkpt lat="45.83359" lon="6.72587">
        <ele>1402</ele>
        <time>2022-08-26T20:07:38Z</time>
      </trkpt>
      <trkpt lat="45.83357" lon="6.72587">
        <ele>1401</ele>
        <time>2022-08-26T20:07:39Z</time>
      </trkpt>
      <trkpt lat="45.83352" lon="6.72589">
        <ele>1402</ele>
        <time>2022-08-26T20:07:41Z</time>
      </trkpt>
      <trkpt lat="45.83349" lon="6.72589">
        <ele>1402</ele>
        <time>2022-08-26T20:07:42Z</time>
      </trkpt>
      <trkpt lat="45.83348" lon="6.7259">
        <ele>1402</ele>
        <time>2022-08-26T20:07:43Z</time>
      </trkpt>
      <trkpt lat="45.83345" lon="6.7259">
        <ele>1402</ele>
        <time>2022-08-26T20:07:45Z</time>
      </trkpt>
      <trkpt lat="45.83342" lon="6.72591">
        <ele>1402</ele>
        <time>2022-08-26T20:07:46Z</time>
      </trkpt>
      <trkpt lat="45.83341" lon="6.72591">
        <ele>1402</ele>
        <time>2022-08-26T20:07:47Z</time>
      </trkpt>
      <trkpt lat="45.83339" lon="6.72592">
        <ele>1402</ele>
        <time>2022-08-26T20:07:48Z</time>
      </trkpt>
      <trkpt lat="45.83337" lon="6.72592">
        <ele>1401</ele>
        <time>2022-08-26T20:07:49Z</time>
      </trkpt>
      <trkpt lat="45.83335" lon="6.72593">
        <ele>1401</ele>
        <time>2022-08-26T20:07:50Z</time>
      </trkpt>
      <trkpt lat="45.83331" lon="6.72596">
        <ele>1401</ele>
        <time>2022-08-26T20:07:52Z</time>
      </trkpt>
      <trkpt lat="45.83329" lon="6.72598">
        <ele>1401</ele>
        <time>2022-08-26T20:07:53Z</time>
      </trkpt>
      <trkpt lat="45.83327" lon="6.72599">
        <ele>1401</ele>
        <time>2022-08-26T20:07:54Z</time>
      </trkpt>
      <trkpt lat="45.83326" lon="6.72601">
        <ele>1401</ele>
        <time>2022-08-26T20:07:55Z</time>
      </trkpt>
      <trkpt lat="45.83324" lon="6.72603">
        <ele>1401</ele>
        <time>2022-08-26T20:07:56Z</time>
      </trkpt>
      <trkpt lat="45.83323" lon="6.72606">
        <ele>1401</ele>
        <time>2022-08-26T20:07:57Z</time>
      </trkpt>
      <trkpt lat="45.83321" lon="6.72609">
        <ele>1401</ele>
        <time>2022-08-26T20:07:58Z</time>
      </trkpt>
      <trkpt lat="45.8332" lon="6.7261">
        <ele>1401</ele>
        <time>2022-08-26T20:07:59Z</time>
      </trkpt>
      <trkpt lat="45.83318" lon="6.72612">
        <ele>1401</ele>
        <time>2022-08-26T20:08:00Z</time>
      </trkpt>
      <trkpt lat="45.83317" lon="6.72615">
        <ele>1401</ele>
        <time>2022-08-26T20:08:01Z</time>
      </trkpt>
      <trkpt lat="45.83316" lon="6.72617">
        <ele>1401</ele>
        <time>2022-08-26T20:08:02Z</time>
      </trkpt>
      <trkpt lat="45.83314" lon="6.7262">
        <ele>1401</ele>
        <time>2022-08-26T20:08:03Z</time>
      </trkpt>
      <trkpt lat="45.83313" lon="6.72623">
        <ele>1401</ele>
        <time>2022-08-26T20:08:04Z</time>
      </trkpt>
      <trkpt lat="45.83311" lon="6.72627">
        <ele>1401</ele>
        <time>2022-08-26T20:08:06Z</time>
      </trkpt>
      <trkpt lat="45.8331" lon="6.7263">
        <ele>1401</ele>
        <time>2022-08-26T20:08:07Z</time>
      </trkpt>
      <trkpt lat="45.83309" lon="6.72632">
        <ele>1401</ele>
        <time>2022-08-26T20:08:08Z</time>
      </trkpt>
      <trkpt lat="45.83308" lon="6.72635">
        <ele>1401</ele>
        <time>2022-08-26T20:08:09Z</time>
      </trkpt>
      <trkpt lat="45.83307" lon="6.72637">
        <ele>1401</ele>
        <time>2022-08-26T20:08:11Z</time>
      </trkpt>
      <trkpt lat="45.83305" lon="6.72642">
        <ele>1401</ele>
        <time>2022-08-26T20:08:12Z</time>
      </trkpt>
      <trkpt lat="45.83303" lon="6.72643">
        <ele>1401</ele>
        <time>2022-08-26T20:08:14Z</time>
      </trkpt>
      <trkpt lat="45.83301" lon="6.72646">
        <ele>1400</ele>
        <time>2022-08-26T20:08:16Z</time>
      </trkpt>
      <trkpt lat="45.83301" lon="6.72649">
        <ele>1400</ele>
        <time>2022-08-26T20:08:17Z</time>
      </trkpt>
      <trkpt lat="45.83301" lon="6.72652">
        <ele>1400</ele>
        <time>2022-08-26T20:08:18Z</time>
      </trkpt>
      <trkpt lat="45.83301" lon="6.72655">
        <ele>1400</ele>
        <time>2022-08-26T20:08:19Z</time>
      </trkpt>
      <trkpt lat="45.833" lon="6.7266">
        <ele>1400</ele>
        <time>2022-08-26T20:08:20Z</time>
      </trkpt>
      <trkpt lat="45.833" lon="6.72662">
        <ele>1401</ele>
        <time>2022-08-26T20:08:21Z</time>
      </trkpt>
      <trkpt lat="45.83299" lon="6.72665">
        <ele>1400</ele>
        <time>2022-08-26T20:08:23Z</time>
      </trkpt>
      <trkpt lat="45.83296" lon="6.72666">
        <ele>1400</ele>
        <time>2022-08-26T20:08:24Z</time>
      </trkpt>
      <trkpt lat="45.83294" lon="6.72665">
        <ele>1400</ele>
        <time>2022-08-26T20:08:25Z</time>
      </trkpt>
      <trkpt lat="45.83292" lon="6.72665">
        <ele>1401</ele>
        <time>2022-08-26T20:08:26Z</time>
      </trkpt>
      <trkpt lat="45.83288" lon="6.72664">
        <ele>1401</ele>
        <time>2022-08-26T20:08:27Z</time>
      </trkpt>
      <trkpt lat="45.83287" lon="6.72664">
        <ele>1401</ele>
        <time>2022-08-26T20:08:28Z</time>
      </trkpt>
      <trkpt lat="45.83285" lon="6.72663">
        <ele>1401</ele>
        <time>2022-08-26T20:08:29Z</time>
      </trkpt>
      <trkpt lat="45.83283" lon="6.72663">
        <ele>1401</ele>
        <time>2022-08-26T20:08:30Z</time>
      </trkpt>
      <trkpt lat="45.83281" lon="6.72662">
        <ele>1401</ele>
        <time>2022-08-26T20:08:31Z</time>
      </trkpt>
      <trkpt lat="45.83277" lon="6.72661">
        <ele>1401</ele>
        <time>2022-08-26T20:08:33Z</time>
      </trkpt>
      <trkpt lat="45.83275" lon="6.72661">
        <ele>1401</ele>
        <time>2022-08-26T20:08:34Z</time>
      </trkpt>
      <trkpt lat="45.83273" lon="6.7266">
        <ele>1401</ele>
        <time>2022-08-26T20:08:35Z</time>
      </trkpt>
      <trkpt lat="45.83263" lon="6.72654">
        <ele>1401</ele>
        <time>2022-08-26T20:08:40Z</time>
      </trkpt>
      <trkpt lat="45.83261" lon="6.72653">
        <ele>1401</ele>
        <time>2022-08-26T20:08:41Z</time>
      </trkpt>
      <trkpt lat="45.8326" lon="6.72652">
        <ele>1400</ele>
        <time>2022-08-26T20:08:42Z</time>
      </trkpt>
      <trkpt lat="45.83258" lon="6.72651">
        <ele>1400</ele>
        <time>2022-08-26T20:08:44Z</time>
      </trkpt>
      <trkpt lat="45.83257" lon="6.7265">
        <ele>1400</ele>
        <time>2022-08-26T20:08:45Z</time>
      </trkpt>
      <trkpt lat="45.83249" lon="6.72645">
        <ele>1400</ele>
        <time>2022-08-26T20:08:46Z</time>
      </trkpt>
      <trkpt lat="45.83248" lon="6.72644">
        <ele>1400</ele>
        <time>2022-08-26T20:08:47Z</time>
      </trkpt>
      <trkpt lat="45.83247" lon="6.72643">
        <ele>1400</ele>
        <time>2022-08-26T20:08:48Z</time>
      </trkpt>
      <trkpt lat="45.83246" lon="6.72642">
        <ele>1400</ele>
        <time>2022-08-26T20:08:49Z</time>
      </trkpt>
      <trkpt lat="45.83243" lon="6.72639">
        <ele>1400</ele>
        <time>2022-08-26T20:08:51Z</time>
      </trkpt>
      <trkpt lat="45.8324" lon="6.72638">
        <ele>1401</ele>
        <time>2022-08-26T20:08:53Z</time>
      </trkpt>
      <trkpt lat="45.83238" lon="6.72637">
        <ele>1401</ele>
        <time>2022-08-26T20:08:55Z</time>
      </trkpt>
      <trkpt lat="45.83235" lon="6.72638">
        <ele>1402</ele>
        <time>2022-08-26T20:08:58Z</time>
      </trkpt>
      <trkpt lat="45.83232" lon="6.72638">
        <ele>1402</ele>
        <time>2022-08-26T20:08:59Z</time>
      </trkpt>
      <trkpt lat="45.83229" lon="6.72638">
        <ele>1402</ele>
        <time>2022-08-26T20:09:01Z</time>
      </trkpt>
      <trkpt lat="45.83227" lon="6.72637">
        <ele>1402</ele>
        <time>2022-08-26T20:09:03Z</time>
      </trkpt>
      <trkpt lat="45.83225" lon="6.72638">
        <ele>1402</ele>
        <time>2022-08-26T20:09:05Z</time>
      </trkpt>
      <trkpt lat="45.83222" lon="6.72639">
        <ele>1403</ele>
        <time>2022-08-26T20:09:07Z</time>
      </trkpt>
      <trkpt lat="45.83219" lon="6.7264">
        <ele>1403</ele>
        <time>2022-08-26T20:09:09Z</time>
      </trkpt>
      <trkpt lat="45.83217" lon="6.72642">
        <ele>1403</ele>
        <time>2022-08-26T20:09:11Z</time>
      </trkpt>
      <trkpt lat="45.83214" lon="6.72644">
        <ele>1403</ele>
        <time>2022-08-26T20:09:13Z</time>
      </trkpt>
      <trkpt lat="45.83212" lon="6.72646">
        <ele>1404</ele>
        <time>2022-08-26T20:09:15Z</time>
      </trkpt>
      <trkpt lat="45.83209" lon="6.72648">
        <ele>1404</ele>
        <time>2022-08-26T20:09:17Z</time>
      </trkpt>
      <trkpt lat="45.83207" lon="6.72649">
        <ele>1405</ele>
        <time>2022-08-26T20:09:19Z</time>
      </trkpt>
      <trkpt lat="45.83204" lon="6.72648">
        <ele>1405</ele>
        <time>2022-08-26T20:09:21Z</time>
      </trkpt>
      <trkpt lat="45.83201" lon="6.72648">
        <ele>1405</ele>
        <time>2022-08-26T20:09:23Z</time>
      </trkpt>
      <trkpt lat="45.83199" lon="6.72648">
        <ele>1405</ele>
        <time>2022-08-26T20:09:25Z</time>
      </trkpt>
      <trkpt lat="45.83197" lon="6.72648">
        <ele>1405</ele>
        <time>2022-08-26T20:09:27Z</time>
      </trkpt>
      <trkpt lat="45.83194" lon="6.72648">
        <ele>1405</ele>
        <time>2022-08-26T20:09:29Z</time>
      </trkpt>
      <trkpt lat="45.83192" lon="6.72647">
        <ele>1405</ele>
        <time>2022-08-26T20:09:30Z</time>
      </trkpt>
      <trkpt lat="45.83189" lon="6.72645">
        <ele>1405</ele>
        <time>2022-08-26T20:09:32Z</time>
      </trkpt>
      <trkpt lat="45.83186" lon="6.72643">
        <ele>1405</ele>
        <time>2022-08-26T20:09:33Z</time>
      </trkpt>
      <trkpt lat="45.83185" lon="6.72643">
        <ele>1405</ele>
        <time>2022-08-26T20:09:34Z</time>
      </trkpt>
      <trkpt lat="45.83183" lon="6.72643">
        <ele>1405</ele>
        <time>2022-08-26T20:09:35Z</time>
      </trkpt>
      <trkpt lat="45.83181" lon="6.72642">
        <ele>1405</ele>
        <time>2022-08-26T20:09:36Z</time>
      </trkpt>
      <trkpt lat="45.83174" lon="6.7264">
        <ele>1405</ele>
        <time>2022-08-26T20:09:39Z</time>
      </trkpt>
      <trkpt lat="45.83172" lon="6.7264">
        <ele>1405</ele>
        <time>2022-08-26T20:09:40Z</time>
      </trkpt>
      <trkpt lat="45.83168" lon="6.72637">
        <ele>1405</ele>
        <time>2022-08-26T20:09:42Z</time>
      </trkpt>
      <trkpt lat="45.83165" lon="6.72635">
        <ele>1405</ele>
        <time>2022-08-26T20:09:44Z</time>
      </trkpt>
      <trkpt lat="45.83163" lon="6.72632">
        <ele>1405</ele>
        <time>2022-08-26T20:09:46Z</time>
      </trkpt>
      <trkpt lat="45.8316" lon="6.72631">
        <ele>1405</ele>
        <time>2022-08-26T20:09:48Z</time>
      </trkpt>
      <trkpt lat="45.83157" lon="6.72629">
        <ele>1405</ele>
        <time>2022-08-26T20:09:50Z</time>
      </trkpt>
      <trkpt lat="45.83154" lon="6.72627">
        <ele>1405</ele>
        <time>2022-08-26T20:09:52Z</time>
      </trkpt>
      <trkpt lat="45.83151" lon="6.72625">
        <ele>1405</ele>
        <time>2022-08-26T20:09:54Z</time>
      </trkpt>
      <trkpt lat="45.83148" lon="6.72624">
        <ele>1406</ele>
        <time>2022-08-26T20:09:56Z</time>
      </trkpt>
      <trkpt lat="45.83145" lon="6.72622">
        <ele>1406</ele>
        <time>2022-08-26T20:09:58Z</time>
      </trkpt>
      <trkpt lat="45.83142" lon="6.72621">
        <ele>1406</ele>
        <time>2022-08-26T20:10:00Z</time>
      </trkpt>
      <trkpt lat="45.83139" lon="6.72619">
        <ele>1407</ele>
        <time>2022-08-26T20:10:02Z</time>
      </trkpt>
      <trkpt lat="45.83136" lon="6.72619">
        <ele>1407</ele>
        <time>2022-08-26T20:10:05Z</time>
      </trkpt>
      <trkpt lat="45.83133" lon="6.72618">
        <ele>1407</ele>
        <time>2022-08-26T20:10:06Z</time>
      </trkpt>
      <trkpt lat="45.83129" lon="6.72618">
        <ele>1408</ele>
        <time>2022-08-26T20:10:08Z</time>
      </trkpt>
      <trkpt lat="45.83126" lon="6.72618">
        <ele>1408</ele>
        <time>2022-08-26T20:10:10Z</time>
      </trkpt>
      <trkpt lat="45.83124" lon="6.72618">
        <ele>1408</ele>
        <time>2022-08-26T20:10:12Z</time>
      </trkpt>
      <trkpt lat="45.83122" lon="6.72618">
        <ele>1408</ele>
        <time>2022-08-26T20:10:13Z</time>
      </trkpt>
      <trkpt lat="45.83118" lon="6.72618">
        <ele>1408</ele>
        <time>2022-08-26T20:10:15Z</time>
      </trkpt>
      <trkpt lat="45.83116" lon="6.72617">
        <ele>1409</ele>
        <time>2022-08-26T20:10:17Z</time>
      </trkpt>
      <trkpt lat="45.83113" lon="6.72618">
        <ele>1409</ele>
        <time>2022-08-26T20:10:20Z</time>
      </trkpt>
      <trkpt lat="45.8311" lon="6.72618">
        <ele>1409</ele>
        <time>2022-08-26T20:10:22Z</time>
      </trkpt>
      <trkpt lat="45.83108" lon="6.72618">
        <ele>1409</ele>
        <time>2022-08-26T20:10:23Z</time>
      </trkpt>
      <trkpt lat="45.83105" lon="6.72619">
        <ele>1409</ele>
        <time>2022-08-26T20:10:25Z</time>
      </trkpt>
      <trkpt lat="45.83102" lon="6.72618">
        <ele>1409</ele>
        <time>2022-08-26T20:10:27Z</time>
      </trkpt>
      <trkpt lat="45.83099" lon="6.72617">
        <ele>1410</ele>
        <time>2022-08-26T20:10:29Z</time>
      </trkpt>
      <trkpt lat="45.83096" lon="6.72616">
        <ele>1410</ele>
        <time>2022-08-26T20:10:31Z</time>
      </trkpt>
      <trkpt lat="45.83092" lon="6.72615">
        <ele>1410</ele>
        <time>2022-08-26T20:10:34Z</time>
      </trkpt>
      <trkpt lat="45.83089" lon="6.72614">
        <ele>1410</ele>
        <time>2022-08-26T20:10:35Z</time>
      </trkpt>
      <trkpt lat="45.83086" lon="6.72613">
        <ele>1410</ele>
        <time>2022-08-26T20:10:37Z</time>
      </trkpt>
      <trkpt lat="45.83083" lon="6.72613">
        <ele>1410</ele>
        <time>2022-08-26T20:10:39Z</time>
      </trkpt>
      <trkpt lat="45.8308" lon="6.72614">
        <ele>1411</ele>
        <time>2022-08-26T20:10:41Z</time>
      </trkpt>
      <trkpt lat="45.83077" lon="6.72614">
        <ele>1411</ele>
        <time>2022-08-26T20:10:43Z</time>
      </trkpt>
      <trkpt lat="45.83075" lon="6.72615">
        <ele>1411</ele>
        <time>2022-08-26T20:10:45Z</time>
      </trkpt>
      <trkpt lat="45.83073" lon="6.72617">
        <ele>1412</ele>
        <time>2022-08-26T20:10:48Z</time>
      </trkpt>
      <trkpt lat="45.83071" lon="6.72618">
        <ele>1412</ele>
        <time>2022-08-26T20:10:50Z</time>
      </trkpt>
      <trkpt lat="45.8306" lon="6.72621">
        <ele>1413</ele>
        <time>2022-08-26T20:11:00Z</time>
      </trkpt>
      <trkpt lat="45.83058" lon="6.72621">
        <ele>1413</ele>
        <time>2022-08-26T20:11:01Z</time>
      </trkpt>
      <trkpt lat="45.83056" lon="6.72622">
        <ele>1413</ele>
        <time>2022-08-26T20:11:02Z</time>
      </trkpt>
      <trkpt lat="45.83055" lon="6.72622">
        <ele>1413</ele>
        <time>2022-08-26T20:11:03Z</time>
      </trkpt>
      <trkpt lat="45.83053" lon="6.72622">
        <ele>1413</ele>
        <time>2022-08-26T20:11:05Z</time>
      </trkpt>
      <trkpt lat="45.83051" lon="6.72623">
        <ele>1413</ele>
        <time>2022-08-26T20:11:06Z</time>
      </trkpt>
      <trkpt lat="45.83049" lon="6.72624">
        <ele>1413</ele>
        <time>2022-08-26T20:11:07Z</time>
      </trkpt>
      <trkpt lat="45.83047" lon="6.72625">
        <ele>1414</ele>
        <time>2022-08-26T20:11:08Z</time>
      </trkpt>
      <trkpt lat="45.83046" lon="6.72625">
        <ele>1414</ele>
        <time>2022-08-26T20:11:09Z</time>
      </trkpt>
      <trkpt lat="45.83044" lon="6.72626">
        <ele>1414</ele>
        <time>2022-08-26T20:11:11Z</time>
      </trkpt>
      <trkpt lat="45.83042" lon="6.72627">
        <ele>1414</ele>
        <time>2022-08-26T20:11:12Z</time>
      </trkpt>
      <trkpt lat="45.8304" lon="6.72628">
        <ele>1415</ele>
        <time>2022-08-26T20:11:14Z</time>
      </trkpt>
      <trkpt lat="45.83038" lon="6.72629">
        <ele>1415</ele>
        <time>2022-08-26T20:11:17Z</time>
      </trkpt>
      <trkpt lat="45.83036" lon="6.72629">
        <ele>1416</ele>
        <time>2022-08-26T20:11:18Z</time>
      </trkpt>
      <trkpt lat="45.83034" lon="6.72629">
        <ele>1416</ele>
        <time>2022-08-26T20:11:20Z</time>
      </trkpt>
      <trkpt lat="45.83032" lon="6.72629">
        <ele>1415</ele>
        <time>2022-08-26T20:11:21Z</time>
      </trkpt>
      <trkpt lat="45.8303" lon="6.72629">
        <ele>1416</ele>
        <time>2022-08-26T20:11:22Z</time>
      </trkpt>
      <trkpt lat="45.83028" lon="6.72629">
        <ele>1416</ele>
        <time>2022-08-26T20:11:23Z</time>
      </trkpt>
      <trkpt lat="45.83027" lon="6.72631">
        <ele>1417</ele>
        <time>2022-08-26T20:11:25Z</time>
      </trkpt>
      <trkpt lat="45.83026" lon="6.72632">
        <ele>1417</ele>
        <time>2022-08-26T20:11:26Z</time>
      </trkpt>
      <trkpt lat="45.83024" lon="6.72633">
        <ele>1417</ele>
        <time>2022-08-26T20:11:27Z</time>
      </trkpt>
      <trkpt lat="45.83023" lon="6.72635">
        <ele>1417</ele>
        <time>2022-08-26T20:11:28Z</time>
      </trkpt>
      <trkpt lat="45.8302" lon="6.72635">
        <ele>1418</ele>
        <time>2022-08-26T20:11:30Z</time>
      </trkpt>
      <trkpt lat="45.83018" lon="6.72636">
        <ele>1418</ele>
        <time>2022-08-26T20:11:32Z</time>
      </trkpt>
      <trkpt lat="45.83016" lon="6.72636">
        <ele>1418</ele>
        <time>2022-08-26T20:11:34Z</time>
      </trkpt>
      <trkpt lat="45.83013" lon="6.72636">
        <ele>1418</ele>
        <time>2022-08-26T20:11:37Z</time>
      </trkpt>
      <trkpt lat="45.83011" lon="6.72635">
        <ele>1418</ele>
        <time>2022-08-26T20:11:38Z</time>
      </trkpt>
      <trkpt lat="45.83009" lon="6.72635">
        <ele>1418</ele>
        <time>2022-08-26T20:11:40Z</time>
      </trkpt>
      <trkpt lat="45.83007" lon="6.72634">
        <ele>1418</ele>
        <time>2022-08-26T20:11:41Z</time>
      </trkpt>
      <trkpt lat="45.83004" lon="6.72635">
        <ele>1418</ele>
        <time>2022-08-26T20:11:43Z</time>
      </trkpt>
      <trkpt lat="45.83002" lon="6.72636">
        <ele>1419</ele>
        <time>2022-08-26T20:11:46Z</time>
      </trkpt>
      <trkpt lat="45.83" lon="6.72638">
        <ele>1419</ele>
        <time>2022-08-26T20:11:48Z</time>
      </trkpt>
      <trkpt lat="45.82999" lon="6.72639">
        <ele>1419</ele>
        <time>2022-08-26T20:11:50Z</time>
      </trkpt>
      <trkpt lat="45.82997" lon="6.7264">
        <ele>1419</ele>
        <time>2022-08-26T20:11:52Z</time>
      </trkpt>
      <trkpt lat="45.82995" lon="6.72642">
        <ele>1419</ele>
        <time>2022-08-26T20:11:53Z</time>
      </trkpt>
      <trkpt lat="45.82993" lon="6.72643">
        <ele>1419</ele>
        <time>2022-08-26T20:11:54Z</time>
      </trkpt>
      <trkpt lat="45.82992" lon="6.72644">
        <ele>1419</ele>
        <time>2022-08-26T20:11:55Z</time>
      </trkpt>
      <trkpt lat="45.8299" lon="6.72645">
        <ele>1420</ele>
        <time>2022-08-26T20:11:57Z</time>
      </trkpt>
      <trkpt lat="45.82989" lon="6.72646">
        <ele>1420</ele>
        <time>2022-08-26T20:11:58Z</time>
      </trkpt>
      <trkpt lat="45.82987" lon="6.72647">
        <ele>1420</ele>
        <time>2022-08-26T20:11:59Z</time>
      </trkpt>
      <trkpt lat="45.82986" lon="6.72648">
        <ele>1420</ele>
        <time>2022-08-26T20:12:00Z</time>
      </trkpt>
      <trkpt lat="45.82984" lon="6.7265">
        <ele>1420</ele>
        <time>2022-08-26T20:12:01Z</time>
      </trkpt>
      <trkpt lat="45.82983" lon="6.72651">
        <ele>1420</ele>
        <time>2022-08-26T20:12:02Z</time>
      </trkpt>
      <trkpt lat="45.8298" lon="6.72651">
        <ele>1420</ele>
        <time>2022-08-26T20:12:03Z</time>
      </trkpt>
      <trkpt lat="45.82977" lon="6.7265">
        <ele>1420</ele>
        <time>2022-08-26T20:12:04Z</time>
      </trkpt>
      <trkpt lat="45.82975" lon="6.7265">
        <ele>1420</ele>
        <time>2022-08-26T20:12:05Z</time>
      </trkpt>
      <trkpt lat="45.82973" lon="6.7265">
        <ele>1420</ele>
        <time>2022-08-26T20:12:06Z</time>
      </trkpt>
      <trkpt lat="45.82971" lon="6.7265">
        <ele>1420</ele>
        <time>2022-08-26T20:12:07Z</time>
      </trkpt>
      <trkpt lat="45.82968" lon="6.72648">
        <ele>1420</ele>
        <time>2022-08-26T20:12:09Z</time>
      </trkpt>
      <trkpt lat="45.82965" lon="6.72646">
        <ele>1420</ele>
        <time>2022-08-26T20:12:10Z</time>
      </trkpt>
      <trkpt lat="45.82962" lon="6.72645">
        <ele>1419</ele>
        <time>2022-08-26T20:12:11Z</time>
      </trkpt>
      <trkpt lat="45.8296" lon="6.72643">
        <ele>1419</ele>
        <time>2022-08-26T20:12:12Z</time>
      </trkpt>
      <trkpt lat="45.82959" lon="6.72641">
        <ele>1419</ele>
        <time>2022-08-26T20:12:13Z</time>
      </trkpt>
      <trkpt lat="45.82957" lon="6.7264">
        <ele>1419</ele>
        <time>2022-08-26T20:12:14Z</time>
      </trkpt>
      <trkpt lat="45.82956" lon="6.72638">
        <ele>1419</ele>
        <time>2022-08-26T20:12:16Z</time>
      </trkpt>
      <trkpt lat="45.82954" lon="6.72636">
        <ele>1419</ele>
        <time>2022-08-26T20:12:17Z</time>
      </trkpt>
      <trkpt lat="45.8295" lon="6.72632">
        <ele>1419</ele>
        <time>2022-08-26T20:12:18Z</time>
      </trkpt>
      <trkpt lat="45.82947" lon="6.72628">
        <ele>1419</ele>
        <time>2022-08-26T20:12:19Z</time>
      </trkpt>
      <trkpt lat="45.82944" lon="6.72626">
        <ele>1419</ele>
        <time>2022-08-26T20:12:21Z</time>
      </trkpt>
      <trkpt lat="45.82941" lon="6.72624">
        <ele>1419</ele>
        <time>2022-08-26T20:12:22Z</time>
      </trkpt>
      <trkpt lat="45.82938" lon="6.72622">
        <ele>1419</ele>
        <time>2022-08-26T20:12:23Z</time>
      </trkpt>
      <trkpt lat="45.82937" lon="6.72621">
        <ele>1419</ele>
        <time>2022-08-26T20:12:24Z</time>
      </trkpt>
      <trkpt lat="45.82936" lon="6.72621">
        <ele>1419</ele>
        <time>2022-08-26T20:12:25Z</time>
      </trkpt>
      <trkpt lat="45.82934" lon="6.7262">
        <ele>1419</ele>
        <time>2022-08-26T20:12:26Z</time>
      </trkpt>
      <trkpt lat="45.82933" lon="6.7262">
        <ele>1419</ele>
        <time>2022-08-26T20:12:28Z</time>
      </trkpt>
      <trkpt lat="45.82932" lon="6.72619">
        <ele>1419</ele>
        <time>2022-08-26T20:12:29Z</time>
      </trkpt>
      <trkpt lat="45.8293" lon="6.7262">
        <ele>1419</ele>
        <time>2022-08-26T20:12:30Z</time>
      </trkpt>
      <trkpt lat="45.82928" lon="6.7262">
        <ele>1419</ele>
        <time>2022-08-26T20:12:32Z</time>
      </trkpt>
      <trkpt lat="45.82926" lon="6.7262">
        <ele>1419</ele>
        <time>2022-08-26T20:12:33Z</time>
      </trkpt>
      <trkpt lat="45.82924" lon="6.7262">
        <ele>1419</ele>
        <time>2022-08-26T20:12:34Z</time>
      </trkpt>
      <trkpt lat="45.82922" lon="6.7262">
        <ele>1419</ele>
        <time>2022-08-26T20:12:35Z</time>
      </trkpt>
      <trkpt lat="45.82921" lon="6.7262">
        <ele>1419</ele>
        <time>2022-08-26T20:12:37Z</time>
      </trkpt>
      <trkpt lat="45.8292" lon="6.7262">
        <ele>1419</ele>
        <time>2022-08-26T20:12:38Z</time>
      </trkpt>
      <trkpt lat="45.82919" lon="6.7262">
        <ele>1419</ele>
        <time>2022-08-26T20:12:39Z</time>
      </trkpt>
      <trkpt lat="45.82917" lon="6.7262">
        <ele>1419</ele>
        <time>2022-08-26T20:12:40Z</time>
      </trkpt>
      <trkpt lat="45.82916" lon="6.7262">
        <ele>1420</ele>
        <time>2022-08-26T20:12:41Z</time>
      </trkpt>
      <trkpt lat="45.82915" lon="6.72622">
        <ele>1420</ele>
        <time>2022-08-26T20:12:43Z</time>
      </trkpt>
      <trkpt lat="45.82915" lon="6.72624">
        <ele>1420</ele>
        <time>2022-08-26T20:12:44Z</time>
      </trkpt>
      <trkpt lat="45.82914" lon="6.72626">
        <ele>1420</ele>
        <time>2022-08-26T20:12:45Z</time>
      </trkpt>
      <trkpt lat="45.82913" lon="6.72628">
        <ele>1420</ele>
        <time>2022-08-26T20:12:47Z</time>
      </trkpt>
      <trkpt lat="45.82912" lon="6.7263">
        <ele>1421</ele>
        <time>2022-08-26T20:12:48Z</time>
      </trkpt>
      <trkpt lat="45.82912" lon="6.72632">
        <ele>1421</ele>
        <time>2022-08-26T20:12:49Z</time>
      </trkpt>
      <trkpt lat="45.82911" lon="6.72637">
        <ele>1421</ele>
        <time>2022-08-26T20:12:51Z</time>
      </trkpt>
      <trkpt lat="45.8291" lon="6.72639">
        <ele>1422</ele>
        <time>2022-08-26T20:12:54Z</time>
      </trkpt>
      <trkpt lat="45.82906" lon="6.72643">
        <ele>1424</ele>
        <time>2022-08-26T20:13:01Z</time>
      </trkpt>
      <trkpt lat="45.82903" lon="6.72642">
        <ele>1425</ele>
        <time>2022-08-26T20:13:04Z</time>
      </trkpt>
      <trkpt lat="45.82901" lon="6.72642">
        <ele>1425</ele>
        <time>2022-08-26T20:13:06Z</time>
      </trkpt>
      <trkpt lat="45.82899" lon="6.72643">
        <ele>1425</ele>
        <time>2022-08-26T20:13:07Z</time>
      </trkpt>
      <trkpt lat="45.82898" lon="6.72643">
        <ele>1426</ele>
        <time>2022-08-26T20:13:09Z</time>
      </trkpt>
      <trkpt lat="45.82896" lon="6.72643">
        <ele>1427</ele>
        <time>2022-08-26T20:13:10Z</time>
      </trkpt>
      <trkpt lat="45.82895" lon="6.72643">
        <ele>1427</ele>
        <time>2022-08-26T20:13:11Z</time>
      </trkpt>
      <trkpt lat="45.82894" lon="6.72642">
        <ele>1427</ele>
        <time>2022-08-26T20:13:13Z</time>
      </trkpt>
      <trkpt lat="45.82893" lon="6.72642">
        <ele>1427</ele>
        <time>2022-08-26T20:13:15Z</time>
      </trkpt>
      <trkpt lat="45.82891" lon="6.72642">
        <ele>1427</ele>
        <time>2022-08-26T20:13:16Z</time>
      </trkpt>
      <trkpt lat="45.82893" lon="6.72645">
        <ele>1429</ele>
        <time>2022-08-26T20:13:23Z</time>
      </trkpt>
      <trkpt lat="45.82895" lon="6.72646">
        <ele>1430</ele>
        <time>2022-08-26T20:13:27Z</time>
      </trkpt>
      <trkpt lat="45.82896" lon="6.72647">
        <ele>1430</ele>
        <time>2022-08-26T20:13:29Z</time>
      </trkpt>
      <trkpt lat="45.82897" lon="6.72649">
        <ele>1430</ele>
        <time>2022-08-26T20:13:30Z</time>
      </trkpt>
      <trkpt lat="45.82898" lon="6.7265">
        <ele>1430</ele>
        <time>2022-08-26T20:13:31Z</time>
      </trkpt>
      <trkpt lat="45.82899" lon="6.72652">
        <ele>1430</ele>
        <time>2022-08-26T20:13:32Z</time>
      </trkpt>
      <trkpt lat="45.829" lon="6.72653">
        <ele>1431</ele>
        <time>2022-08-26T20:13:34Z</time>
      </trkpt>
      <trkpt lat="45.82902" lon="6.72655">
        <ele>1431</ele>
        <time>2022-08-26T20:13:35Z</time>
      </trkpt>
      <trkpt lat="45.829" lon="6.72655">
        <ele>1431</ele>
        <time>2022-08-26T20:13:37Z</time>
      </trkpt>
      <trkpt lat="45.82899" lon="6.72656">
        <ele>1432</ele>
        <time>2022-08-26T20:13:38Z</time>
      </trkpt>
      <trkpt lat="45.82898" lon="6.72657">
        <ele>1432</ele>
        <time>2022-08-26T20:13:39Z</time>
      </trkpt>
      <trkpt lat="45.82896" lon="6.72657">
        <ele>1432</ele>
        <time>2022-08-26T20:13:40Z</time>
      </trkpt>
      <trkpt lat="45.82894" lon="6.72657">
        <ele>1432</ele>
        <time>2022-08-26T20:13:42Z</time>
      </trkpt>
      <trkpt lat="45.82892" lon="6.72657">
        <ele>1433</ele>
        <time>2022-08-26T20:13:45Z</time>
      </trkpt>
      <trkpt lat="45.82892" lon="6.72658">
        <ele>1433</ele>
        <time>2022-08-26T20:13:46Z</time>
      </trkpt>
      <trkpt lat="45.82891" lon="6.72658">
        <ele>1434</ele>
        <time>2022-08-26T20:13:48Z</time>
      </trkpt>
      <trkpt lat="45.8289" lon="6.72658">
        <ele>1434</ele>
        <time>2022-08-26T20:13:49Z</time>
      </trkpt>
      <trkpt lat="45.82889" lon="6.72658">
        <ele>1435</ele>
        <time>2022-08-26T20:13:50Z</time>
      </trkpt>
      <trkpt lat="45.82889" lon="6.72658">
        <ele>1435</ele>
        <time>2022-08-26T20:13:51Z</time>
      </trkpt>
      <trkpt lat="45.82888" lon="6.72659">
        <ele>1435</ele>
        <time>2022-08-26T20:13:53Z</time>
      </trkpt>
      <trkpt lat="45.82887" lon="6.72659">
        <ele>1435</ele>
        <time>2022-08-26T20:13:54Z</time>
      </trkpt>
      <trkpt lat="45.82886" lon="6.72659">
        <ele>1435</ele>
        <time>2022-08-26T20:13:55Z</time>
      </trkpt>
      <trkpt lat="45.82883" lon="6.7266">
        <ele>1435</ele>
        <time>2022-08-26T20:13:59Z</time>
      </trkpt>
      <trkpt lat="45.82882" lon="6.7266">
        <ele>1435</ele>
        <time>2022-08-26T20:14:00Z</time>
      </trkpt>
      <trkpt lat="45.82881" lon="6.7266">
        <ele>1435</ele>
        <time>2022-08-26T20:14:01Z</time>
      </trkpt>
      <trkpt lat="45.8288" lon="6.7266">
        <ele>1436</ele>
        <time>2022-08-26T20:14:03Z</time>
      </trkpt>
      <trkpt lat="45.8288" lon="6.7266">
        <ele>1436</ele>
        <time>2022-08-26T20:14:05Z</time>
      </trkpt>
      <trkpt lat="45.82879" lon="6.7266">
        <ele>1436</ele>
        <time>2022-08-26T20:14:06Z</time>
      </trkpt>
      <trkpt lat="45.82878" lon="6.72661">
        <ele>1437</ele>
        <time>2022-08-26T20:14:07Z</time>
      </trkpt>
      <trkpt lat="45.82877" lon="6.72661">
        <ele>1437</ele>
        <time>2022-08-26T20:14:08Z</time>
      </trkpt>
      <trkpt lat="45.82876" lon="6.72661">
        <ele>1438</ele>
        <time>2022-08-26T20:14:10Z</time>
      </trkpt>
      <trkpt lat="45.82876" lon="6.72661">
        <ele>1438</ele>
        <time>2022-08-26T20:14:12Z</time>
      </trkpt>
      <trkpt lat="45.82875" lon="6.72661">
        <ele>1438</ele>
        <time>2022-08-26T20:14:13Z</time>
      </trkpt>
      <trkpt lat="45.82874" lon="6.72662">
        <ele>1439</ele>
        <time>2022-08-26T20:14:14Z</time>
      </trkpt>
      <trkpt lat="45.82873" lon="6.72662">
        <ele>1439</ele>
        <time>2022-08-26T20:14:15Z</time>
      </trkpt>
      <trkpt lat="45.82872" lon="6.72662">
        <ele>1439</ele>
        <time>2022-08-26T20:14:16Z</time>
      </trkpt>
      <trkpt lat="45.82871" lon="6.72662">
        <ele>1439</ele>
        <time>2022-08-26T20:14:17Z</time>
      </trkpt>
      <trkpt lat="45.8287" lon="6.72661">
        <ele>1439</ele>
        <time>2022-08-26T20:14:18Z</time>
      </trkpt>
      <trkpt lat="45.82869" lon="6.7266">
        <ele>1439</ele>
        <time>2022-08-26T20:14:19Z</time>
      </trkpt>
      <trkpt lat="45.82868" lon="6.72658">
        <ele>1439</ele>
        <time>2022-08-26T20:14:20Z</time>
      </trkpt>
      <trkpt lat="45.82866" lon="6.72657">
        <ele>1439</ele>
        <time>2022-08-26T20:14:22Z</time>
      </trkpt>
      <trkpt lat="45.82865" lon="6.72656">
        <ele>1439</ele>
        <time>2022-08-26T20:14:23Z</time>
      </trkpt>
      <trkpt lat="45.82864" lon="6.72655">
        <ele>1440</ele>
        <time>2022-08-26T20:14:24Z</time>
      </trkpt>
      <trkpt lat="45.82862" lon="6.72653">
        <ele>1440</ele>
        <time>2022-08-26T20:14:25Z</time>
      </trkpt>
      <trkpt lat="45.82861" lon="6.72651">
        <ele>1440</ele>
        <time>2022-08-26T20:14:26Z</time>
      </trkpt>
      <trkpt lat="45.8286" lon="6.72649">
        <ele>1440</ele>
        <time>2022-08-26T20:14:27Z</time>
      </trkpt>
      <trkpt lat="45.82859" lon="6.72647">
        <ele>1440</ele>
        <time>2022-08-26T20:14:28Z</time>
      </trkpt>
      <trkpt lat="45.82858" lon="6.72645">
        <ele>1440</ele>
        <time>2022-08-26T20:14:29Z</time>
      </trkpt>
      <trkpt lat="45.82852" lon="6.72634">
        <ele>1439</ele>
        <time>2022-08-26T20:14:32Z</time>
      </trkpt>
      <trkpt lat="45.82851" lon="6.72632">
        <ele>1439</ele>
        <time>2022-08-26T20:14:33Z</time>
      </trkpt>
      <trkpt lat="45.82849" lon="6.72631">
        <ele>1439</ele>
        <time>2022-08-26T20:14:34Z</time>
      </trkpt>
      <trkpt lat="45.82848" lon="6.72629">
        <ele>1439</ele>
        <time>2022-08-26T20:14:35Z</time>
      </trkpt>
      <trkpt lat="45.82846" lon="6.72627">
        <ele>1439</ele>
        <time>2022-08-26T20:14:36Z</time>
      </trkpt>
      <trkpt lat="45.82845" lon="6.72625">
        <ele>1439</ele>
        <time>2022-08-26T20:14:37Z</time>
      </trkpt>
      <trkpt lat="45.82842" lon="6.72622">
        <ele>1439</ele>
        <time>2022-08-26T20:14:39Z</time>
      </trkpt>
      <trkpt lat="45.82839" lon="6.72619">
        <ele>1439</ele>
        <time>2022-08-26T20:14:40Z</time>
      </trkpt>
      <trkpt lat="45.82836" lon="6.72616">
        <ele>1439</ele>
        <time>2022-08-26T20:14:41Z</time>
      </trkpt>
      <trkpt lat="45.82833" lon="6.72614">
        <ele>1439</ele>
        <time>2022-08-26T20:14:42Z</time>
      </trkpt>
      <trkpt lat="45.82832" lon="6.72612">
        <ele>1439</ele>
        <time>2022-08-26T20:14:43Z</time>
      </trkpt>
      <trkpt lat="45.8283" lon="6.72611">
        <ele>1439</ele>
        <time>2022-08-26T20:14:45Z</time>
      </trkpt>
      <trkpt lat="45.82829" lon="6.72609">
        <ele>1439</ele>
        <time>2022-08-26T20:14:46Z</time>
      </trkpt>
      <trkpt lat="45.82828" lon="6.72607">
        <ele>1437</ele>
        <time>2022-08-26T20:14:48Z</time>
      </trkpt>
      <trkpt lat="45.82827" lon="6.72604">
        <ele>1437</ele>
        <time>2022-08-26T20:14:50Z</time>
      </trkpt>
      <trkpt lat="45.82825" lon="6.72601">
        <ele>1435</ele>
        <time>2022-08-26T20:14:52Z</time>
      </trkpt>
      <trkpt lat="45.82823" lon="6.72599">
        <ele>1435</ele>
        <time>2022-08-26T20:14:53Z</time>
      </trkpt>
      <trkpt lat="45.82821" lon="6.72597">
        <ele>1435</ele>
        <time>2022-08-26T20:14:55Z</time>
      </trkpt>
      <trkpt lat="45.82819" lon="6.72596">
        <ele>1435</ele>
        <time>2022-08-26T20:14:56Z</time>
      </trkpt>
      <trkpt lat="45.82817" lon="6.72594">
        <ele>1434</ele>
        <time>2022-08-26T20:14:57Z</time>
      </trkpt>
      <trkpt lat="45.82814" lon="6.72593">
        <ele>1434</ele>
        <time>2022-08-26T20:14:58Z</time>
      </trkpt>
      <trkpt lat="45.82811" lon="6.72592">
        <ele>1434</ele>
        <time>2022-08-26T20:15:00Z</time>
      </trkpt>
      <trkpt lat="45.82809" lon="6.72591">
        <ele>1434</ele>
        <time>2022-08-26T20:15:01Z</time>
      </trkpt>
      <trkpt lat="45.82806" lon="6.7259">
        <ele>1434</ele>
        <time>2022-08-26T20:15:02Z</time>
      </trkpt>
      <trkpt lat="45.82802" lon="6.72587">
        <ele>1434</ele>
        <time>2022-08-26T20:15:04Z</time>
      </trkpt>
      <trkpt lat="45.82798" lon="6.72584">
        <ele>1434</ele>
        <time>2022-08-26T20:15:05Z</time>
      </trkpt>
      <trkpt lat="45.82796" lon="6.72583">
        <ele>1434</ele>
        <time>2022-08-26T20:15:06Z</time>
      </trkpt>
      <trkpt lat="45.82795" lon="6.72582">
        <ele>1434</ele>
        <time>2022-08-26T20:15:07Z</time>
      </trkpt>
      <trkpt lat="45.82793" lon="6.72581">
        <ele>1434</ele>
        <time>2022-08-26T20:15:09Z</time>
      </trkpt>
      <trkpt lat="45.82792" lon="6.7258">
        <ele>1434</ele>
        <time>2022-08-26T20:15:10Z</time>
      </trkpt>
      <trkpt lat="45.82791" lon="6.72579">
        <ele>1434</ele>
        <time>2022-08-26T20:15:11Z</time>
      </trkpt>
      <trkpt lat="45.82789" lon="6.72578">
        <ele>1434</ele>
        <time>2022-08-26T20:15:12Z</time>
      </trkpt>
      <trkpt lat="45.82786" lon="6.72577">
        <ele>1434</ele>
        <time>2022-08-26T20:15:14Z</time>
      </trkpt>
      <trkpt lat="45.82784" lon="6.72577">
        <ele>1434</ele>
        <time>2022-08-26T20:15:15Z</time>
      </trkpt>
      <trkpt lat="45.8278" lon="6.72576">
        <ele>1434</ele>
        <time>2022-08-26T20:15:17Z</time>
      </trkpt>
      <trkpt lat="45.82777" lon="6.72576">
        <ele>1434</ele>
        <time>2022-08-26T20:15:19Z</time>
      </trkpt>
      <trkpt lat="45.82775" lon="6.72577">
        <ele>1434</ele>
        <time>2022-08-26T20:15:21Z</time>
      </trkpt>
      <trkpt lat="45.82772" lon="6.72576">
        <ele>1435</ele>
        <time>2022-08-26T20:15:23Z</time>
      </trkpt>
      <trkpt lat="45.8277" lon="6.72574">
        <ele>1435</ele>
        <time>2022-08-26T20:15:24Z</time>
      </trkpt>
      <trkpt lat="45.82768" lon="6.72573">
        <ele>1435</ele>
        <time>2022-08-26T20:15:25Z</time>
      </trkpt>
      <trkpt lat="45.82765" lon="6.7257">
        <ele>1435</ele>
        <time>2022-08-26T20:15:27Z</time>
      </trkpt>
      <trkpt lat="45.82763" lon="6.72572">
        <ele>1435</ele>
        <time>2022-08-26T20:15:30Z</time>
      </trkpt>
      <trkpt lat="45.82761" lon="6.72573">
        <ele>1435</ele>
        <time>2022-08-26T20:15:31Z</time>
      </trkpt>
      <trkpt lat="45.82762" lon="6.72576">
        <ele>1437</ele>
        <time>2022-08-26T20:15:44Z</time>
      </trkpt>
      <trkpt lat="45.82763" lon="6.72579">
        <ele>1438</ele>
        <time>2022-08-26T20:15:47Z</time>
      </trkpt>
      <trkpt lat="45.82762" lon="6.72582">
        <ele>1438</ele>
        <time>2022-08-26T20:15:49Z</time>
      </trkpt>
      <trkpt lat="45.82759" lon="6.72582">
        <ele>1440</ele>
        <time>2022-08-26T20:15:52Z</time>
      </trkpt>
      <trkpt lat="45.82758" lon="6.72581">
        <ele>1440</ele>
        <time>2022-08-26T20:15:54Z</time>
      </trkpt>
      <trkpt lat="45.82747" lon="6.72578">
        <ele>1442</ele>
        <time>2022-08-26T20:16:06Z</time>
      </trkpt>
      <trkpt lat="45.82746" lon="6.72577">
        <ele>1442</ele>
        <time>2022-08-26T20:16:07Z</time>
      </trkpt>
      <trkpt lat="45.82744" lon="6.72575">
        <ele>1443</ele>
        <time>2022-08-26T20:16:08Z</time>
      </trkpt>
      <trkpt lat="45.82743" lon="6.72574">
        <ele>1443</ele>
        <time>2022-08-26T20:16:09Z</time>
      </trkpt>
      <trkpt lat="45.8274" lon="6.72573">
        <ele>1443</ele>
        <time>2022-08-26T20:16:11Z</time>
      </trkpt>
      <trkpt lat="45.82737" lon="6.72572">
        <ele>1443</ele>
        <time>2022-08-26T20:16:12Z</time>
      </trkpt>
      <trkpt lat="45.82734" lon="6.7257">
        <ele>1443</ele>
        <time>2022-08-26T20:16:14Z</time>
      </trkpt>
      <trkpt lat="45.82731" lon="6.72571">
        <ele>1444</ele>
        <time>2022-08-26T20:16:17Z</time>
      </trkpt>
      <trkpt lat="45.82729" lon="6.72569">
        <ele>1444</ele>
        <time>2022-08-26T20:16:19Z</time>
      </trkpt>
      <trkpt lat="45.82726" lon="6.72569">
        <ele>1446</ele>
        <time>2022-08-26T20:16:21Z</time>
      </trkpt>
      <trkpt lat="45.82724" lon="6.72568">
        <ele>1446</ele>
        <time>2022-08-26T20:16:23Z</time>
      </trkpt>
      <trkpt lat="45.82722" lon="6.72567">
        <ele>1447</ele>
        <time>2022-08-26T20:16:27Z</time>
      </trkpt>
      <trkpt lat="45.8272" lon="6.72567">
        <ele>1448</ele>
        <time>2022-08-26T20:16:30Z</time>
      </trkpt>
      <trkpt lat="45.82718" lon="6.72567">
        <ele>1449</ele>
        <time>2022-08-26T20:16:36Z</time>
      </trkpt>
      <trkpt lat="45.82716" lon="6.7257">
        <ele>1450</ele>
        <time>2022-08-26T20:16:40Z</time>
      </trkpt>
      <trkpt lat="45.82712" lon="6.72571">
        <ele>1450</ele>
        <time>2022-08-26T20:16:42Z</time>
      </trkpt>
      <trkpt lat="45.82711" lon="6.7257">
        <ele>1450</ele>
        <time>2022-08-26T20:16:44Z</time>
      </trkpt>
      <trkpt lat="45.82709" lon="6.7257">
        <ele>1450</ele>
        <time>2022-08-26T20:16:45Z</time>
      </trkpt>
      <trkpt lat="45.82707" lon="6.7257">
        <ele>1451</ele>
        <time>2022-08-26T20:16:46Z</time>
      </trkpt>
      <trkpt lat="45.82705" lon="6.72572">
        <ele>1451</ele>
        <time>2022-08-26T20:16:47Z</time>
      </trkpt>
      <trkpt lat="45.82702" lon="6.72574">
        <ele>1451</ele>
        <time>2022-08-26T20:16:49Z</time>
      </trkpt>
      <trkpt lat="45.827" lon="6.72574">
        <ele>1451</ele>
        <time>2022-08-26T20:16:50Z</time>
      </trkpt>
      <trkpt lat="45.82697" lon="6.72573">
        <ele>1451</ele>
        <time>2022-08-26T20:16:51Z</time>
      </trkpt>
      <trkpt lat="45.82696" lon="6.72573">
        <ele>1451</ele>
        <time>2022-08-26T20:16:52Z</time>
      </trkpt>
      <trkpt lat="45.82695" lon="6.72573">
        <ele>1450</ele>
        <time>2022-08-26T20:16:54Z</time>
      </trkpt>
      <trkpt lat="45.82693" lon="6.72573">
        <ele>1450</ele>
        <time>2022-08-26T20:16:55Z</time>
      </trkpt>
      <trkpt lat="45.82691" lon="6.72573">
        <ele>1450</ele>
        <time>2022-08-26T20:16:56Z</time>
      </trkpt>
      <trkpt lat="45.82689" lon="6.72574">
        <ele>1450</ele>
        <time>2022-08-26T20:16:57Z</time>
      </trkpt>
      <trkpt lat="45.82687" lon="6.72574">
        <ele>1450</ele>
        <time>2022-08-26T20:16:58Z</time>
      </trkpt>
      <trkpt lat="45.82685" lon="6.72575">
        <ele>1450</ele>
        <time>2022-08-26T20:16:59Z</time>
      </trkpt>
      <trkpt lat="45.82683" lon="6.72575">
        <ele>1450</ele>
        <time>2022-08-26T20:17:00Z</time>
      </trkpt>
      <trkpt lat="45.82681" lon="6.72575">
        <ele>1450</ele>
        <time>2022-08-26T20:17:01Z</time>
      </trkpt>
      <trkpt lat="45.82678" lon="6.72578">
        <ele>1449</ele>
        <time>2022-08-26T20:17:02Z</time>
      </trkpt>
      <trkpt lat="45.82676" lon="6.7258">
        <ele>1448</ele>
        <time>2022-08-26T20:17:04Z</time>
      </trkpt>
      <trkpt lat="45.82673" lon="6.72582">
        <ele>1448</ele>
        <time>2022-08-26T20:17:05Z</time>
      </trkpt>
      <trkpt lat="45.82664" lon="6.72587">
        <ele>1448</ele>
        <time>2022-08-26T20:17:09Z</time>
      </trkpt>
      <trkpt lat="45.82662" lon="6.72588">
        <ele>1448</ele>
        <time>2022-08-26T20:17:10Z</time>
      </trkpt>
      <trkpt lat="45.82659" lon="6.72588">
        <ele>1447</ele>
        <time>2022-08-26T20:17:11Z</time>
      </trkpt>
      <trkpt lat="45.82656" lon="6.72588">
        <ele>1447</ele>
        <time>2022-08-26T20:17:13Z</time>
      </trkpt>
      <trkpt lat="45.82654" lon="6.72589">
        <ele>1447</ele>
        <time>2022-08-26T20:17:14Z</time>
      </trkpt>
      <trkpt lat="45.82653" lon="6.72588">
        <ele>1446</ele>
        <time>2022-08-26T20:17:15Z</time>
      </trkpt>
      <trkpt lat="45.82652" lon="6.72588">
        <ele>1446</ele>
        <time>2022-08-26T20:17:17Z</time>
      </trkpt>
      <trkpt lat="45.82652" lon="6.72588">
        <ele>1446</ele>
        <time>2022-08-26T20:17:18Z</time>
      </trkpt>
      <trkpt lat="45.82651" lon="6.72587">
        <ele>1446</ele>
        <time>2022-08-26T20:17:19Z</time>
      </trkpt>
      <trkpt lat="45.8265" lon="6.72587">
        <ele>1445</ele>
        <time>2022-08-26T20:17:20Z</time>
      </trkpt>
      <trkpt lat="45.8264" lon="6.72583">
        <ele>1445</ele>
        <time>2022-08-26T20:17:22Z</time>
      </trkpt>
      <trkpt lat="45.82637" lon="6.72583">
        <ele>1444</ele>
        <time>2022-08-26T20:17:24Z</time>
      </trkpt>
      <trkpt lat="45.82634" lon="6.72582">
        <ele>1444</ele>
        <time>2022-08-26T20:17:25Z</time>
      </trkpt>
      <trkpt lat="45.82631" lon="6.72582">
        <ele>1444</ele>
        <time>2022-08-26T20:17:26Z</time>
      </trkpt>
      <trkpt lat="45.82629" lon="6.72582">
        <ele>1444</ele>
        <time>2022-08-26T20:17:27Z</time>
      </trkpt>
      <trkpt lat="45.82627" lon="6.72583">
        <ele>1444</ele>
        <time>2022-08-26T20:17:28Z</time>
      </trkpt>
      <trkpt lat="45.82625" lon="6.72584">
        <ele>1444</ele>
        <time>2022-08-26T20:17:29Z</time>
      </trkpt>
      <trkpt lat="45.82623" lon="6.72585">
        <ele>1444</ele>
        <time>2022-08-26T20:17:30Z</time>
      </trkpt>
      <trkpt lat="45.82621" lon="6.72585">
        <ele>1444</ele>
        <time>2022-08-26T20:17:31Z</time>
      </trkpt>
      <trkpt lat="45.8262" lon="6.72587">
        <ele>1444</ele>
        <time>2022-08-26T20:17:32Z</time>
      </trkpt>
      <trkpt lat="45.82618" lon="6.72588">
        <ele>1444</ele>
        <time>2022-08-26T20:17:33Z</time>
      </trkpt>
      <trkpt lat="45.82617" lon="6.72589">
        <ele>1444</ele>
        <time>2022-08-26T20:17:35Z</time>
      </trkpt>
      <trkpt lat="45.82616" lon="6.7259">
        <ele>1445</ele>
        <time>2022-08-26T20:17:36Z</time>
      </trkpt>
      <trkpt lat="45.82614" lon="6.72591">
        <ele>1445</ele>
        <time>2022-08-26T20:17:38Z</time>
      </trkpt>
      <trkpt lat="45.82605" lon="6.72593">
        <ele>1446</ele>
        <time>2022-08-26T20:17:45Z</time>
      </trkpt>
      <trkpt lat="45.82603" lon="6.72594">
        <ele>1446</ele>
        <time>2022-08-26T20:17:46Z</time>
      </trkpt>
      <trkpt lat="45.82601" lon="6.72595">
        <ele>1446</ele>
        <time>2022-08-26T20:17:48Z</time>
      </trkpt>
      <trkpt lat="45.826" lon="6.72598">
        <ele>1446</ele>
        <time>2022-08-26T20:17:50Z</time>
      </trkpt>
      <trkpt lat="45.82598" lon="6.72601">
        <ele>1448</ele>
        <time>2022-08-26T20:17:52Z</time>
      </trkpt>
      <trkpt lat="45.82598" lon="6.72604">
        <ele>1448</ele>
        <time>2022-08-26T20:17:54Z</time>
      </trkpt>
      <trkpt lat="45.82596" lon="6.72607">
        <ele>1449</ele>
        <time>2022-08-26T20:17:56Z</time>
      </trkpt>
      <trkpt lat="45.82595" lon="6.72608">
        <ele>1450</ele>
        <time>2022-08-26T20:17:59Z</time>
      </trkpt>
      <trkpt lat="45.82593" lon="6.72608">
        <ele>1450</ele>
        <time>2022-08-26T20:18:00Z</time>
      </trkpt>
      <trkpt lat="45.82591" lon="6.72608">
        <ele>1450</ele>
        <time>2022-08-26T20:18:01Z</time>
      </trkpt>
      <trkpt lat="45.8259" lon="6.72608">
        <ele>1450</ele>
        <time>2022-08-26T20:18:03Z</time>
      </trkpt>
      <trkpt lat="45.82588" lon="6.72608">
        <ele>1450</ele>
        <time>2022-08-26T20:18:04Z</time>
      </trkpt>
      <trkpt lat="45.82586" lon="6.72608">
        <ele>1449</ele>
        <time>2022-08-26T20:18:05Z</time>
      </trkpt>
      <trkpt lat="45.82585" lon="6.72607">
        <ele>1449</ele>
        <time>2022-08-26T20:18:06Z</time>
      </trkpt>
      <trkpt lat="45.82583" lon="6.72608">
        <ele>1449</ele>
        <time>2022-08-26T20:18:08Z</time>
      </trkpt>
      <trkpt lat="45.8258" lon="6.72608">
        <ele>1450</ele>
        <time>2022-08-26T20:18:10Z</time>
      </trkpt>
      <trkpt lat="45.82578" lon="6.72609">
        <ele>1450</ele>
        <time>2022-08-26T20:18:11Z</time>
      </trkpt>
      <trkpt lat="45.82576" lon="6.72609">
        <ele>1450</ele>
        <time>2022-08-26T20:18:12Z</time>
      </trkpt>
      <trkpt lat="45.82573" lon="6.7261">
        <ele>1450</ele>
        <time>2022-08-26T20:18:13Z</time>
      </trkpt>
      <trkpt lat="45.82571" lon="6.7261">
        <ele>1450</ele>
        <time>2022-08-26T20:18:15Z</time>
      </trkpt>
      <trkpt lat="45.82569" lon="6.72611">
        <ele>1450</ele>
        <time>2022-08-26T20:18:16Z</time>
      </trkpt>
      <trkpt lat="45.82567" lon="6.72611">
        <ele>1450</ele>
        <time>2022-08-26T20:18:17Z</time>
      </trkpt>
      <trkpt lat="45.82564" lon="6.72611">
        <ele>1450</ele>
        <time>2022-08-26T20:18:18Z</time>
      </trkpt>
      <trkpt lat="45.82563" lon="6.72612">
        <ele>1450</ele>
        <time>2022-08-26T20:18:20Z</time>
      </trkpt>
      <trkpt lat="45.82561" lon="6.72613">
        <ele>1450</ele>
        <time>2022-08-26T20:18:21Z</time>
      </trkpt>
      <trkpt lat="45.82559" lon="6.72614">
        <ele>1451</ele>
        <time>2022-08-26T20:18:22Z</time>
      </trkpt>
      <trkpt lat="45.82558" lon="6.72615">
        <ele>1451</ele>
        <time>2022-08-26T20:18:23Z</time>
      </trkpt>
      <trkpt lat="45.82556" lon="6.72615">
        <ele>1451</ele>
        <time>2022-08-26T20:18:25Z</time>
      </trkpt>
      <trkpt lat="45.82555" lon="6.72616">
        <ele>1451</ele>
        <time>2022-08-26T20:18:26Z</time>
      </trkpt>
      <trkpt lat="45.82554" lon="6.72617">
        <ele>1451</ele>
        <time>2022-08-26T20:18:27Z</time>
      </trkpt>
      <trkpt lat="45.82552" lon="6.72617">
        <ele>1451</ele>
        <time>2022-08-26T20:18:28Z</time>
      </trkpt>
      <trkpt lat="45.8255" lon="6.72618">
        <ele>1452</ele>
        <time>2022-08-26T20:18:30Z</time>
      </trkpt>
      <trkpt lat="45.82545" lon="6.72617">
        <ele>1452</ele>
        <time>2022-08-26T20:18:32Z</time>
      </trkpt>
      <trkpt lat="45.82544" lon="6.72617">
        <ele>1452</ele>
        <time>2022-08-26T20:18:33Z</time>
      </trkpt>
      <trkpt lat="45.82542" lon="6.72617">
        <ele>1452</ele>
        <time>2022-08-26T20:18:34Z</time>
      </trkpt>
      <trkpt lat="45.82541" lon="6.72617">
        <ele>1451</ele>
        <time>2022-08-26T20:18:35Z</time>
      </trkpt>
      <trkpt lat="45.82539" lon="6.72617">
        <ele>1451</ele>
        <time>2022-08-26T20:18:36Z</time>
      </trkpt>
      <trkpt lat="45.82537" lon="6.72617">
        <ele>1451</ele>
        <time>2022-08-26T20:18:37Z</time>
      </trkpt>
      <trkpt lat="45.82535" lon="6.72617">
        <ele>1452</ele>
        <time>2022-08-26T20:18:39Z</time>
      </trkpt>
      <trkpt lat="45.82534" lon="6.72617">
        <ele>1452</ele>
        <time>2022-08-26T20:18:40Z</time>
      </trkpt>
      <trkpt lat="45.82532" lon="6.72617">
        <ele>1452</ele>
        <time>2022-08-26T20:18:41Z</time>
      </trkpt>
      <trkpt lat="45.82531" lon="6.72617">
        <ele>1452</ele>
        <time>2022-08-26T20:18:43Z</time>
      </trkpt>
      <trkpt lat="45.82529" lon="6.72617">
        <ele>1452</ele>
        <time>2022-08-26T20:18:44Z</time>
      </trkpt>
      <trkpt lat="45.82528" lon="6.72617">
        <ele>1452</ele>
        <time>2022-08-26T20:18:45Z</time>
      </trkpt>
      <trkpt lat="45.82526" lon="6.72617">
        <ele>1452</ele>
        <time>2022-08-26T20:18:46Z</time>
      </trkpt>
      <trkpt lat="45.82524" lon="6.72618">
        <ele>1452</ele>
        <time>2022-08-26T20:18:48Z</time>
      </trkpt>
      <trkpt lat="45.82522" lon="6.72619">
        <ele>1452</ele>
        <time>2022-08-26T20:18:49Z</time>
      </trkpt>
      <trkpt lat="45.8252" lon="6.7262">
        <ele>1452</ele>
        <time>2022-08-26T20:18:50Z</time>
      </trkpt>
      <trkpt lat="45.82518" lon="6.7262">
        <ele>1452</ele>
        <time>2022-08-26T20:18:51Z</time>
      </trkpt>
      <trkpt lat="45.82516" lon="6.72621">
        <ele>1452</ele>
        <time>2022-08-26T20:18:53Z</time>
      </trkpt>
      <trkpt lat="45.82513" lon="6.72622">
        <ele>1452</ele>
        <time>2022-08-26T20:18:55Z</time>
      </trkpt>
      <trkpt lat="45.82511" lon="6.72624">
        <ele>1453</ele>
        <time>2022-08-26T20:18:57Z</time>
      </trkpt>
      <trkpt lat="45.82509" lon="6.72625">
        <ele>1453</ele>
        <time>2022-08-26T20:18:59Z</time>
      </trkpt>
      <trkpt lat="45.82506" lon="6.72625">
        <ele>1454</ele>
        <time>2022-08-26T20:19:01Z</time>
      </trkpt>
      <trkpt lat="45.82503" lon="6.72626">
        <ele>1455</ele>
        <time>2022-08-26T20:19:03Z</time>
      </trkpt>
      <trkpt lat="45.82493" lon="6.7262">
        <ele>1454</ele>
        <time>2022-08-26T20:19:09Z</time>
      </trkpt>
      <trkpt lat="45.82483" lon="6.72619">
        <ele>1455</ele>
        <time>2022-08-26T20:19:16Z</time>
      </trkpt>
      <trkpt lat="45.82481" lon="6.72618">
        <ele>1455</ele>
        <time>2022-08-26T20:19:19Z</time>
      </trkpt>
      <trkpt lat="45.8248" lon="6.72618">
        <ele>1455</ele>
        <time>2022-08-26T20:19:20Z</time>
      </trkpt>
      <trkpt lat="45.82479" lon="6.72617">
        <ele>1455</ele>
        <time>2022-08-26T20:19:21Z</time>
      </trkpt>
      <trkpt lat="45.82478" lon="6.72617">
        <ele>1455</ele>
        <time>2022-08-26T20:19:23Z</time>
      </trkpt>
      <trkpt lat="45.82477" lon="6.72616">
        <ele>1455</ele>
        <time>2022-08-26T20:19:24Z</time>
      </trkpt>
      <trkpt lat="45.82476" lon="6.72616">
        <ele>1455</ele>
        <time>2022-08-26T20:19:25Z</time>
      </trkpt>
      <trkpt lat="45.82475" lon="6.72615">
        <ele>1455</ele>
        <time>2022-08-26T20:19:26Z</time>
      </trkpt>
      <trkpt lat="45.82474" lon="6.72614">
        <ele>1455</ele>
        <time>2022-08-26T20:19:28Z</time>
      </trkpt>
      <trkpt lat="45.82472" lon="6.72613">
        <ele>1455</ele>
        <time>2022-08-26T20:19:30Z</time>
      </trkpt>
      <trkpt lat="45.8247" lon="6.72611">
        <ele>1455</ele>
        <time>2022-08-26T20:19:31Z</time>
      </trkpt>
      <trkpt lat="45.82469" lon="6.7261">
        <ele>1455</ele>
        <time>2022-08-26T20:19:32Z</time>
      </trkpt>
      <trkpt lat="45.82467" lon="6.72609">
        <ele>1456</ele>
        <time>2022-08-26T20:19:33Z</time>
      </trkpt>
      <trkpt lat="45.82464" lon="6.72608">
        <ele>1456</ele>
        <time>2022-08-26T20:19:35Z</time>
      </trkpt>
      <trkpt lat="45.82461" lon="6.72607">
        <ele>1456</ele>
        <time>2022-08-26T20:19:36Z</time>
      </trkpt>
      <trkpt lat="45.82458" lon="6.72605">
        <ele>1456</ele>
        <time>2022-08-26T20:19:37Z</time>
      </trkpt>
      <trkpt lat="45.82457" lon="6.72605">
        <ele>1456</ele>
        <time>2022-08-26T20:19:39Z</time>
      </trkpt>
      <trkpt lat="45.82456" lon="6.72604">
        <ele>1456</ele>
        <time>2022-08-26T20:19:40Z</time>
      </trkpt>
      <trkpt lat="45.82455" lon="6.72604">
        <ele>1456</ele>
        <time>2022-08-26T20:19:41Z</time>
      </trkpt>
      <trkpt lat="45.82453" lon="6.72603">
        <ele>1456</ele>
        <time>2022-08-26T20:19:42Z</time>
      </trkpt>
      <trkpt lat="45.82452" lon="6.72603">
        <ele>1456</ele>
        <time>2022-08-26T20:19:44Z</time>
      </trkpt>
      <trkpt lat="45.82451" lon="6.72602">
        <ele>1456</ele>
        <time>2022-08-26T20:19:45Z</time>
      </trkpt>
      <trkpt lat="45.8245" lon="6.72602">
        <ele>1456</ele>
        <time>2022-08-26T20:19:46Z</time>
      </trkpt>
      <trkpt lat="45.82449" lon="6.72601">
        <ele>1456</ele>
        <time>2022-08-26T20:19:47Z</time>
      </trkpt>
      <trkpt lat="45.82447" lon="6.72601">
        <ele>1457</ele>
        <time>2022-08-26T20:19:49Z</time>
      </trkpt>
      <trkpt lat="45.82446" lon="6.72601">
        <ele>1457</ele>
        <time>2022-08-26T20:19:51Z</time>
      </trkpt>
      <trkpt lat="45.82445" lon="6.726">
        <ele>1457</ele>
        <time>2022-08-26T20:19:52Z</time>
      </trkpt>
      <trkpt lat="45.82436" lon="6.72597">
        <ele>1457</ele>
        <time>2022-08-26T20:19:54Z</time>
      </trkpt>
      <trkpt lat="45.82435" lon="6.72595">
        <ele>1457</ele>
        <time>2022-08-26T20:19:56Z</time>
      </trkpt>
      <trkpt lat="45.82433" lon="6.72594">
        <ele>1457</ele>
        <time>2022-08-26T20:19:57Z</time>
      </trkpt>
      <trkpt lat="45.82427" lon="6.72587">
        <ele>1456</ele>
        <time>2022-08-26T20:19:58Z</time>
      </trkpt>
      <trkpt lat="45.82425" lon="6.72586">
        <ele>1456</ele>
        <time>2022-08-26T20:19:59Z</time>
      </trkpt>
      <trkpt lat="45.82423" lon="6.72584">
        <ele>1456</ele>
        <time>2022-08-26T20:20:00Z</time>
      </trkpt>
      <trkpt lat="45.8242" lon="6.72582">
        <ele>1456</ele>
        <time>2022-08-26T20:20:01Z</time>
      </trkpt>
      <trkpt lat="45.8241" lon="6.72576">
        <ele>1456</ele>
        <time>2022-08-26T20:20:04Z</time>
      </trkpt>
      <trkpt lat="45.82408" lon="6.72576">
        <ele>1457</ele>
        <time>2022-08-26T20:20:05Z</time>
      </trkpt>
      <trkpt lat="45.82406" lon="6.72575">
        <ele>1457</ele>
        <time>2022-08-26T20:20:06Z</time>
      </trkpt>
      <trkpt lat="45.82404" lon="6.72575">
        <ele>1457</ele>
        <time>2022-08-26T20:20:08Z</time>
      </trkpt>
      <trkpt lat="45.82402" lon="6.72575">
        <ele>1457</ele>
        <time>2022-08-26T20:20:09Z</time>
      </trkpt>
      <trkpt lat="45.824" lon="6.72574">
        <ele>1457</ele>
        <time>2022-08-26T20:20:10Z</time>
      </trkpt>
      <trkpt lat="45.82398" lon="6.72574">
        <ele>1457</ele>
        <time>2022-08-26T20:20:11Z</time>
      </trkpt>
      <trkpt lat="45.82396" lon="6.72573">
        <ele>1458</ele>
        <time>2022-08-26T20:20:12Z</time>
      </trkpt>
      <trkpt lat="45.82395" lon="6.72573">
        <ele>1458</ele>
        <time>2022-08-26T20:20:13Z</time>
      </trkpt>
      <trkpt lat="45.82393" lon="6.72572">
        <ele>1458</ele>
        <time>2022-08-26T20:20:15Z</time>
      </trkpt>
      <trkpt lat="45.82391" lon="6.72572">
        <ele>1458</ele>
        <time>2022-08-26T20:20:16Z</time>
      </trkpt>
      <trkpt lat="45.8239" lon="6.72571">
        <ele>1459</ele>
        <time>2022-08-26T20:20:17Z</time>
      </trkpt>
      <trkpt lat="45.82386" lon="6.7257">
        <ele>1459</ele>
        <time>2022-08-26T20:20:18Z</time>
      </trkpt>
      <trkpt lat="45.82382" lon="6.72571">
        <ele>1460</ele>
        <time>2022-08-26T20:20:21Z</time>
      </trkpt>
      <trkpt lat="45.8238" lon="6.7257">
        <ele>1462</ele>
        <time>2022-08-26T20:20:23Z</time>
      </trkpt>
      <trkpt lat="45.82377" lon="6.7257">
        <ele>1462</ele>
        <time>2022-08-26T20:20:24Z</time>
      </trkpt>
      <trkpt lat="45.82375" lon="6.72569">
        <ele>1462</ele>
        <time>2022-08-26T20:20:25Z</time>
      </trkpt>
      <trkpt lat="45.82367" lon="6.72575">
        <ele>1461</ele>
        <time>2022-08-26T20:20:32Z</time>
      </trkpt>
      <trkpt lat="45.82365" lon="6.72576">
        <ele>1461</ele>
        <time>2022-08-26T20:20:34Z</time>
      </trkpt>
      <trkpt lat="45.82363" lon="6.72576">
        <ele>1461</ele>
        <time>2022-08-26T20:20:35Z</time>
      </trkpt>
      <trkpt lat="45.82361" lon="6.72577">
        <ele>1462</ele>
        <time>2022-08-26T20:20:36Z</time>
      </trkpt>
      <trkpt lat="45.82359" lon="6.72578">
        <ele>1462</ele>
        <time>2022-08-26T20:20:37Z</time>
      </trkpt>
      <trkpt lat="45.82357" lon="6.72578">
        <ele>1462</ele>
        <time>2022-08-26T20:20:38Z</time>
      </trkpt>
      <trkpt lat="45.82355" lon="6.72579">
        <ele>1462</ele>
        <time>2022-08-26T20:20:39Z</time>
      </trkpt>
      <trkpt lat="45.82353" lon="6.7258">
        <ele>1462</ele>
        <time>2022-08-26T20:20:40Z</time>
      </trkpt>
      <trkpt lat="45.8235" lon="6.7258">
        <ele>1462</ele>
        <time>2022-08-26T20:20:41Z</time>
      </trkpt>
      <trkpt lat="45.82348" lon="6.72581">
        <ele>1462</ele>
        <time>2022-08-26T20:20:42Z</time>
      </trkpt>
      <trkpt lat="45.82344" lon="6.72581">
        <ele>1462</ele>
        <time>2022-08-26T20:20:44Z</time>
      </trkpt>
      <trkpt lat="45.82341" lon="6.72581">
        <ele>1462</ele>
        <time>2022-08-26T20:20:46Z</time>
      </trkpt>
      <trkpt lat="45.82338" lon="6.72582">
        <ele>1462</ele>
        <time>2022-08-26T20:20:47Z</time>
      </trkpt>
      <trkpt lat="45.82336" lon="6.72582">
        <ele>1462</ele>
        <time>2022-08-26T20:20:48Z</time>
      </trkpt>
      <trkpt lat="45.82334" lon="6.72581">
        <ele>1462</ele>
        <time>2022-08-26T20:20:49Z</time>
      </trkpt>
      <trkpt lat="45.82332" lon="6.72581">
        <ele>1462</ele>
        <time>2022-08-26T20:20:51Z</time>
      </trkpt>
      <trkpt lat="45.8233" lon="6.72581">
        <ele>1462</ele>
        <time>2022-08-26T20:20:52Z</time>
      </trkpt>
      <trkpt lat="45.82328" lon="6.7258">
        <ele>1462</ele>
        <time>2022-08-26T20:20:53Z</time>
      </trkpt>
      <trkpt lat="45.8232" lon="6.72578">
        <ele>1464</ele>
        <time>2022-08-26T20:21:01Z</time>
      </trkpt>
      <trkpt lat="45.82318" lon="6.72577">
        <ele>1464</ele>
        <time>2022-08-26T20:21:03Z</time>
      </trkpt>
      <trkpt lat="45.82317" lon="6.72577">
        <ele>1464</ele>
        <time>2022-08-26T20:21:04Z</time>
      </trkpt>
      <trkpt lat="45.82315" lon="6.72576">
        <ele>1464</ele>
        <time>2022-08-26T20:21:05Z</time>
      </trkpt>
      <trkpt lat="45.82313" lon="6.72577">
        <ele>1465</ele>
        <time>2022-08-26T20:21:08Z</time>
      </trkpt>
      <trkpt lat="45.82311" lon="6.72578">
        <ele>1466</ele>
        <time>2022-08-26T20:21:11Z</time>
      </trkpt>
      <trkpt lat="45.82309" lon="6.72579">
        <ele>1467</ele>
        <time>2022-08-26T20:21:13Z</time>
      </trkpt>
      <trkpt lat="45.82307" lon="6.72579">
        <ele>1467</ele>
        <time>2022-08-26T20:21:15Z</time>
      </trkpt>
      <trkpt lat="45.82305" lon="6.72579">
        <ele>1468</ele>
        <time>2022-08-26T20:21:17Z</time>
      </trkpt>
      <trkpt lat="45.82302" lon="6.7258">
        <ele>1468</ele>
        <time>2022-08-26T20:21:20Z</time>
      </trkpt>
      <trkpt lat="45.823" lon="6.72581">
        <ele>1469</ele>
        <time>2022-08-26T20:21:21Z</time>
      </trkpt>
      <trkpt lat="45.82299" lon="6.72581">
        <ele>1469</ele>
        <time>2022-08-26T20:21:22Z</time>
      </trkpt>
      <trkpt lat="45.82298" lon="6.72581">
        <ele>1469</ele>
        <time>2022-08-26T20:21:24Z</time>
      </trkpt>
      <trkpt lat="45.82297" lon="6.72582">
        <ele>1470</ele>
        <time>2022-08-26T20:21:25Z</time>
      </trkpt>
      <trkpt lat="45.82296" lon="6.72582">
        <ele>1470</ele>
        <time>2022-08-26T20:21:26Z</time>
      </trkpt>
      <trkpt lat="45.82295" lon="6.72582">
        <ele>1470</ele>
        <time>2022-08-26T20:21:27Z</time>
      </trkpt>
      <trkpt lat="45.82294" lon="6.72582">
        <ele>1471</ele>
        <time>2022-08-26T20:21:29Z</time>
      </trkpt>
      <trkpt lat="45.82293" lon="6.72583">
        <ele>1471</ele>
        <time>2022-08-26T20:21:30Z</time>
      </trkpt>
      <trkpt lat="45.82291" lon="6.72583">
        <ele>1472</ele>
        <time>2022-08-26T20:21:31Z</time>
      </trkpt>
      <trkpt lat="45.8229" lon="6.72583">
        <ele>1472</ele>
        <time>2022-08-26T20:21:32Z</time>
      </trkpt>
      <trkpt lat="45.82288" lon="6.72583">
        <ele>1473</ele>
        <time>2022-08-26T20:21:34Z</time>
      </trkpt>
      <trkpt lat="45.82287" lon="6.72583">
        <ele>1473</ele>
        <time>2022-08-26T20:21:35Z</time>
      </trkpt>
      <trkpt lat="45.82286" lon="6.72584">
        <ele>1474</ele>
        <time>2022-08-26T20:21:36Z</time>
      </trkpt>
      <trkpt lat="45.82285" lon="6.72584">
        <ele>1474</ele>
        <time>2022-08-26T20:21:37Z</time>
      </trkpt>
      <trkpt lat="45.82284" lon="6.72584">
        <ele>1474</ele>
        <time>2022-08-26T20:21:39Z</time>
      </trkpt>
      <trkpt lat="45.82283" lon="6.72584">
        <ele>1474</ele>
        <time>2022-08-26T20:21:40Z</time>
      </trkpt>
      <trkpt lat="45.82282" lon="6.72584">
        <ele>1474</ele>
        <time>2022-08-26T20:21:41Z</time>
      </trkpt>
      <trkpt lat="45.82281" lon="6.72585">
        <ele>1474</ele>
        <time>2022-08-26T20:21:43Z</time>
      </trkpt>
      <trkpt lat="45.8228" lon="6.72585">
        <ele>1475</ele>
        <time>2022-08-26T20:21:44Z</time>
      </trkpt>
      <trkpt lat="45.82279" lon="6.72585">
        <ele>1475</ele>
        <time>2022-08-26T20:21:45Z</time>
      </trkpt>
      <trkpt lat="45.82271" lon="6.72587">
        <ele>1477</ele>
        <time>2022-08-26T20:21:52Z</time>
      </trkpt>
      <trkpt lat="45.82269" lon="6.72587">
        <ele>1477</ele>
        <time>2022-08-26T20:21:53Z</time>
      </trkpt>
      <trkpt lat="45.82268" lon="6.72587">
        <ele>1477</ele>
        <time>2022-08-26T20:21:54Z</time>
      </trkpt>
      <trkpt lat="45.82267" lon="6.72588">
        <ele>1477</ele>
        <time>2022-08-26T20:21:55Z</time>
      </trkpt>
      <trkpt lat="45.82265" lon="6.72588">
        <ele>1477</ele>
        <time>2022-08-26T20:21:57Z</time>
      </trkpt>
      <trkpt lat="45.82264" lon="6.72588">
        <ele>1477</ele>
        <time>2022-08-26T20:21:58Z</time>
      </trkpt>
      <trkpt lat="45.82263" lon="6.72589">
        <ele>1478</ele>
        <time>2022-08-26T20:22:00Z</time>
      </trkpt>
      <trkpt lat="45.82261" lon="6.72589">
        <ele>1478</ele>
        <time>2022-08-26T20:22:01Z</time>
      </trkpt>
      <trkpt lat="45.8226" lon="6.72589">
        <ele>1478</ele>
        <time>2022-08-26T20:22:02Z</time>
      </trkpt>
      <trkpt lat="45.82258" lon="6.7259">
        <ele>1479</ele>
        <time>2022-08-26T20:22:04Z</time>
      </trkpt>
      <trkpt lat="45.82256" lon="6.72591">
        <ele>1480</ele>
        <time>2022-08-26T20:22:06Z</time>
      </trkpt>
      <trkpt lat="45.82254" lon="6.72591">
        <ele>1480</ele>
        <time>2022-08-26T20:22:08Z</time>
      </trkpt>
      <trkpt lat="45.82252" lon="6.72591">
        <ele>1480</ele>
        <time>2022-08-26T20:22:10Z</time>
      </trkpt>
      <trkpt lat="45.82249" lon="6.72592">
        <ele>1480</ele>
        <time>2022-08-26T20:22:13Z</time>
      </trkpt>
      <trkpt lat="45.82247" lon="6.72592">
        <ele>1480</ele>
        <time>2022-08-26T20:22:14Z</time>
      </trkpt>
      <trkpt lat="45.82245" lon="6.72593">
        <ele>1482</ele>
        <time>2022-08-26T20:22:16Z</time>
      </trkpt>
      <trkpt lat="45.82243" lon="6.72593">
        <ele>1482</ele>
        <time>2022-08-26T20:22:18Z</time>
      </trkpt>
      <trkpt lat="45.8224" lon="6.72593">
        <ele>1483</ele>
        <time>2022-08-26T20:22:21Z</time>
      </trkpt>
      <trkpt lat="45.82236" lon="6.72593">
        <ele>1483</ele>
        <time>2022-08-26T20:22:24Z</time>
      </trkpt>
      <trkpt lat="45.82234" lon="6.72592">
        <ele>1484</ele>
        <time>2022-08-26T20:22:27Z</time>
      </trkpt>
      <trkpt lat="45.8223" lon="6.72594">
        <ele>1486</ele>
        <time>2022-08-26T20:22:34Z</time>
      </trkpt>
      <trkpt lat="45.82227" lon="6.72593">
        <ele>1486</ele>
        <time>2022-08-26T20:22:35Z</time>
      </trkpt>
      <trkpt lat="45.82225" lon="6.72592">
        <ele>1486</ele>
        <time>2022-08-26T20:22:37Z</time>
      </trkpt>
      <trkpt lat="45.82224" lon="6.72593">
        <ele>1487</ele>
        <time>2022-08-26T20:22:39Z</time>
      </trkpt>
      <trkpt lat="45.82222" lon="6.72593">
        <ele>1487</ele>
        <time>2022-08-26T20:22:40Z</time>
      </trkpt>
      <trkpt lat="45.82221" lon="6.72593">
        <ele>1487</ele>
        <time>2022-08-26T20:22:41Z</time>
      </trkpt>
      <trkpt lat="45.82219" lon="6.72593">
        <ele>1487</ele>
        <time>2022-08-26T20:22:43Z</time>
      </trkpt>
      <trkpt lat="45.82218" lon="6.72593">
        <ele>1488</ele>
        <time>2022-08-26T20:22:44Z</time>
      </trkpt>
      <trkpt lat="45.82217" lon="6.72593">
        <ele>1488</ele>
        <time>2022-08-26T20:22:45Z</time>
      </trkpt>
      <trkpt lat="45.82215" lon="6.72593">
        <ele>1488</ele>
        <time>2022-08-26T20:22:46Z</time>
      </trkpt>
      <trkpt lat="45.82213" lon="6.72594">
        <ele>1488</ele>
        <time>2022-08-26T20:22:48Z</time>
      </trkpt>
      <trkpt lat="45.82212" lon="6.72594">
        <ele>1489</ele>
        <time>2022-08-26T20:22:50Z</time>
      </trkpt>
      <trkpt lat="45.82211" lon="6.72595">
        <ele>1490</ele>
        <time>2022-08-26T20:22:51Z</time>
      </trkpt>
      <trkpt lat="45.8221" lon="6.72595">
        <ele>1491</ele>
        <time>2022-08-26T20:22:53Z</time>
      </trkpt>
      <trkpt lat="45.82209" lon="6.72596">
        <ele>1490</ele>
        <time>2022-08-26T20:22:55Z</time>
      </trkpt>
      <trkpt lat="45.82209" lon="6.72596">
        <ele>1491</ele>
        <time>2022-08-26T20:22:56Z</time>
      </trkpt>
      <trkpt lat="45.82207" lon="6.72597">
        <ele>1491</ele>
        <time>2022-08-26T20:22:57Z</time>
      </trkpt>
      <trkpt lat="45.82206" lon="6.72599">
        <ele>1493</ele>
        <time>2022-08-26T20:22:59Z</time>
      </trkpt>
      <trkpt lat="45.82205" lon="6.726">
        <ele>1493</ele>
        <time>2022-08-26T20:23:00Z</time>
      </trkpt>
      <trkpt lat="45.82204" lon="6.72602">
        <ele>1493</ele>
        <time>2022-08-26T20:23:02Z</time>
      </trkpt>
      <trkpt lat="45.82203" lon="6.72604">
        <ele>1494</ele>
        <time>2022-08-26T20:23:04Z</time>
      </trkpt>
      <trkpt lat="45.82202" lon="6.72608">
        <ele>1495</ele>
        <time>2022-08-26T20:23:07Z</time>
      </trkpt>
      <trkpt lat="45.82202" lon="6.72611">
        <ele>1496</ele>
        <time>2022-08-26T20:23:12Z</time>
      </trkpt>
      <trkpt lat="45.82201" lon="6.72614">
        <ele>1496</ele>
        <time>2022-08-26T20:23:14Z</time>
      </trkpt>
      <trkpt lat="45.822" lon="6.72616">
        <ele>1496</ele>
        <time>2022-08-26T20:23:16Z</time>
      </trkpt>
      <trkpt lat="45.82198" lon="6.72618">
        <ele>1498</ele>
        <time>2022-08-26T20:23:19Z</time>
      </trkpt>
      <trkpt lat="45.82196" lon="6.7262">
        <ele>1498</ele>
        <time>2022-08-26T20:23:21Z</time>
      </trkpt>
      <trkpt lat="45.82194" lon="6.72622">
        <ele>1498</ele>
        <time>2022-08-26T20:23:22Z</time>
      </trkpt>
      <trkpt lat="45.82192" lon="6.72624">
        <ele>1499</ele>
        <time>2022-08-26T20:23:24Z</time>
      </trkpt>
      <trkpt lat="45.82191" lon="6.72627">
        <ele>1499</ele>
        <time>2022-08-26T20:23:26Z</time>
      </trkpt>
      <trkpt lat="45.82191" lon="6.7263">
        <ele>1500</ele>
        <time>2022-08-26T20:23:28Z</time>
      </trkpt>
      <trkpt lat="45.82191" lon="6.72633">
        <ele>1500</ele>
        <time>2022-08-26T20:23:30Z</time>
      </trkpt>
      <trkpt lat="45.82193" lon="6.72634">
        <ele>1500</ele>
        <time>2022-08-26T20:23:32Z</time>
      </trkpt>
      <trkpt lat="45.82196" lon="6.72633">
        <ele>1500</ele>
        <time>2022-08-26T20:23:34Z</time>
      </trkpt>
      <trkpt lat="45.822" lon="6.72631">
        <ele>1500</ele>
        <time>2022-08-26T20:23:36Z</time>
      </trkpt>
      <trkpt lat="45.82201" lon="6.72629">
        <ele>1500</ele>
        <time>2022-08-26T20:23:37Z</time>
      </trkpt>
      <trkpt lat="45.82204" lon="6.72628">
        <ele>1500</ele>
        <time>2022-08-26T20:23:39Z</time>
      </trkpt>
      <trkpt lat="45.82205" lon="6.72625">
        <ele>1500</ele>
        <time>2022-08-26T20:23:41Z</time>
      </trkpt>
      <trkpt lat="45.82207" lon="6.72623">
        <ele>1500</ele>
        <time>2022-08-26T20:23:43Z</time>
      </trkpt>
      <trkpt lat="45.8221" lon="6.72623">
        <ele>1500</ele>
        <time>2022-08-26T20:23:46Z</time>
      </trkpt>
      <trkpt lat="45.82212" lon="6.72622">
        <ele>1500</ele>
        <time>2022-08-26T20:23:51Z</time>
      </trkpt>
      <trkpt lat="45.82214" lon="6.72623">
        <ele>1501</ele>
        <time>2022-08-26T20:23:56Z</time>
      </trkpt>
      <trkpt lat="45.82214" lon="6.72623">
        <ele>1501</ele>
        <time>2022-08-26T20:24:05Z</time>
      </trkpt>
      <trkpt lat="45.82216" lon="6.72625">
        <ele>1501</ele>
        <time>2022-08-26T20:24:13Z</time>
      </trkpt>
      <trkpt lat="45.82216" lon="6.72625">
        <ele>1500</ele>
        <time>2022-08-26T20:24:28Z</time>
      </trkpt>
      <trkpt lat="45.82216" lon="6.72625">
        <ele>1501</ele>
        <time>2022-08-26T20:24:49Z</time>
      </trkpt>
      <trkpt lat="45.82214" lon="6.72625">
        <ele>1501</ele>
        <time>2022-08-26T20:24:59Z</time>
      </trkpt>
      <trkpt lat="45.82214" lon="6.72625">
        <ele>1501</ele>
        <time>2022-08-26T20:25:07Z</time>
      </trkpt>
      <trkpt lat="45.82214" lon="6.72625">
        <ele>1501</ele>
        <time>2022-08-26T20:25:23Z</time>
      </trkpt>
      <trkpt lat="45.82215" lon="6.72623">
        <ele>1501</ele>
        <time>2022-08-26T20:25:29Z</time>
      </trkpt>
      <trkpt lat="45.82217" lon="6.72622">
        <ele>1502</ele>
        <time>2022-08-26T20:25:41Z</time>
      </trkpt>
      <trkpt lat="45.82217" lon="6.72622">
        <ele>1502</ele>
        <time>2022-08-26T20:25:44Z</time>
      </trkpt>
      <trkpt lat="45.82218" lon="6.72622">
        <ele>1501</ele>
        <time>2022-08-26T20:26:00Z</time>
      </trkpt>
      <trkpt lat="45.82218" lon="6.72622">
        <ele>1501</ele>
        <time>2022-08-26T20:26:05Z</time>
      </trkpt>
      <trkpt lat="45.8222" lon="6.72624">
        <ele>1501</ele>
        <time>2022-08-26T20:26:10Z</time>
      </trkpt>
      <trkpt lat="45.82222" lon="6.72623">
        <ele>1501</ele>
        <time>2022-08-26T20:26:13Z</time>
      </trkpt>
      <trkpt lat="45.82224" lon="6.72622">
        <ele>1502</ele>
        <time>2022-08-26T20:26:17Z</time>
      </trkpt>
      <trkpt lat="45.82224" lon="6.72622">
        <ele>1501</ele>
        <time>2022-08-26T20:26:32Z</time>
      </trkpt>
      <trkpt lat="45.82224" lon="6.72622">
        <ele>1502</ele>
        <time>2022-08-26T20:26:49Z</time>
      </trkpt>
      <trkpt lat="45.82224" lon="6.72622">
        <ele>1502</ele>
        <time>2022-08-26T20:27:08Z</time>
      </trkpt>
      <trkpt lat="45.82226" lon="6.72623">
        <ele>1502</ele>
        <time>2022-08-26T20:27:15Z</time>
      </trkpt>
      <trkpt lat="45.82226" lon="6.72623">
        <ele>1501</ele>
        <time>2022-08-26T20:27:27Z</time>
      </trkpt>
      <trkpt lat="45.82228" lon="6.72626">
        <ele>1501</ele>
        <time>2022-08-26T20:27:30Z</time>
      </trkpt>
      <trkpt lat="45.82228" lon="6.72626">
        <ele>1501</ele>
        <time>2022-08-26T20:27:46Z</time>
      </trkpt>
      <trkpt lat="45.82226" lon="6.72625">
        <ele>1502</ele>
        <time>2022-08-26T20:27:51Z</time>
      </trkpt>
      <trkpt lat="45.82224" lon="6.72626">
        <ele>1502</ele>
        <time>2022-08-26T20:28:04Z</time>
      </trkpt>
      <trkpt lat="45.82224" lon="6.72626">
        <ele>1501</ele>
        <time>2022-08-26T20:28:07Z</time>
      </trkpt>
      <trkpt lat="45.82222" lon="6.72627">
        <ele>1502</ele>
        <time>2022-08-26T20:28:23Z</time>
      </trkpt>
      <trkpt lat="45.82222" lon="6.72627">
        <ele>1502</ele>
        <time>2022-08-26T20:28:27Z</time>
      </trkpt>
      <trkpt lat="45.82222" lon="6.72627">
        <ele>1502</ele>
        <time>2022-08-26T20:28:46Z</time>
      </trkpt>
      <trkpt lat="45.82222" lon="6.72627">
        <ele>1502</ele>
        <time>2022-08-26T20:29:04Z</time>
      </trkpt>
      <trkpt lat="45.82222" lon="6.72627">
        <ele>1502</ele>
        <time>2022-08-26T20:29:21Z</time>
      </trkpt>
      <trkpt lat="45.82222" lon="6.72627">
        <ele>1503</ele>
        <time>2022-08-26T20:29:39Z</time>
      </trkpt>
      <trkpt lat="45.82222" lon="6.72627">
        <ele>1502</ele>
        <time>2022-08-26T20:29:56Z</time>
      </trkpt>
      <trkpt lat="45.82221" lon="6.72626">
        <ele>1502</ele>
        <time>2022-08-26T20:29:59Z</time>
      </trkpt>
      <trkpt lat="45.82222" lon="6.72624">
        <ele>1502</ele>
        <time>2022-08-26T20:30:18Z</time>
      </trkpt>
      <trkpt lat="45.82222" lon="6.72624">
        <ele>1502</ele>
        <time>2022-08-26T20:30:19Z</time>
      </trkpt>
      <trkpt lat="45.82223" lon="6.72621">
        <ele>1502</ele>
        <time>2022-08-26T20:30:31Z</time>
      </trkpt>
      <trkpt lat="45.82223" lon="6.72621">
        <ele>1502</ele>
        <time>2022-08-26T20:30:38Z</time>
      </trkpt>
      <trkpt lat="45.82224" lon="6.72623">
        <ele>1502</ele>
        <time>2022-08-26T20:30:52Z</time>
      </trkpt>
      <trkpt lat="45.82225" lon="6.72626">
        <ele>1502</ele>
        <time>2022-08-26T20:30:59Z</time>
      </trkpt>
      <trkpt lat="45.82227" lon="6.72625">
        <ele>1502</ele>
        <time>2022-08-26T20:31:04Z</time>
      </trkpt>
      <trkpt lat="45.82229" lon="6.72625">
        <ele>1502</ele>
        <time>2022-08-26T20:31:06Z</time>
      </trkpt>
      <trkpt lat="45.8223" lon="6.72628">
        <ele>1502</ele>
        <time>2022-08-26T20:31:11Z</time>
      </trkpt>
      <trkpt lat="45.82231" lon="6.72631">
        <ele>1502</ele>
        <time>2022-08-26T20:31:13Z</time>
      </trkpt>
      <trkpt lat="45.82233" lon="6.72634">
        <ele>1502</ele>
        <time>2022-08-26T20:31:15Z</time>
      </trkpt>
      <trkpt lat="45.82234" lon="6.72637">
        <ele>1502</ele>
        <time>2022-08-26T20:31:17Z</time>
      </trkpt>
      <trkpt lat="45.82235" lon="6.72639">
        <ele>1502</ele>
        <time>2022-08-26T20:31:21Z</time>
      </trkpt>
      <trkpt lat="45.82233" lon="6.7264">
        <ele>1503</ele>
        <time>2022-08-26T20:31:26Z</time>
      </trkpt>
      <trkpt lat="45.82232" lon="6.72641">
        <ele>1503</ele>
        <time>2022-08-26T20:31:30Z</time>
      </trkpt>
      <trkpt lat="45.82229" lon="6.72641">
        <ele>1502</ele>
        <time>2022-08-26T20:31:33Z</time>
      </trkpt>
      <trkpt lat="45.82227" lon="6.72641">
        <ele>1502</ele>
        <time>2022-08-26T20:31:35Z</time>
      </trkpt>
      <trkpt lat="45.82225" lon="6.72641">
        <ele>1502</ele>
        <time>2022-08-26T20:31:39Z</time>
      </trkpt>
      <trkpt lat="45.82223" lon="6.72641">
        <ele>1502</ele>
        <time>2022-08-26T20:31:46Z</time>
      </trkpt>
      <trkpt lat="45.82222" lon="6.72643">
        <ele>1502</ele>
        <time>2022-08-26T20:31:51Z</time>
      </trkpt>
      <trkpt lat="45.82222" lon="6.72643">
        <ele>1502</ele>
        <time>2022-08-26T20:31:59Z</time>
      </trkpt>
      <trkpt lat="45.8222" lon="6.72645">
        <ele>1502</ele>
        <time>2022-08-26T20:32:03Z</time>
      </trkpt>
      <trkpt lat="45.82218" lon="6.72644">
        <ele>1501</ele>
        <time>2022-08-26T20:32:07Z</time>
      </trkpt>
      <trkpt lat="45.82215" lon="6.72644">
        <ele>1501</ele>
        <time>2022-08-26T20:32:10Z</time>
      </trkpt>
      <trkpt lat="45.82213" lon="6.72646">
        <ele>1502</ele>
        <time>2022-08-26T20:32:12Z</time>
      </trkpt>
      <trkpt lat="45.82211" lon="6.72648">
        <ele>1502</ele>
        <time>2022-08-26T20:32:14Z</time>
      </trkpt>
      <trkpt lat="45.82209" lon="6.72651">
        <ele>1502</ele>
        <time>2022-08-26T20:32:16Z</time>
      </trkpt>
      <trkpt lat="45.82208" lon="6.72653">
        <ele>1502</ele>
        <time>2022-08-26T20:32:18Z</time>
      </trkpt>
      <trkpt lat="45.82207" lon="6.72656">
        <ele>1503</ele>
        <time>2022-08-26T20:32:20Z</time>
      </trkpt>
      <trkpt lat="45.82206" lon="6.72658">
        <ele>1503</ele>
        <time>2022-08-26T20:32:22Z</time>
      </trkpt>
      <trkpt lat="45.82205" lon="6.72661">
        <ele>1504</ele>
        <time>2022-08-26T20:32:25Z</time>
      </trkpt>
      <trkpt lat="45.82205" lon="6.72664">
        <ele>1505</ele>
        <time>2022-08-26T20:32:31Z</time>
      </trkpt>
      <trkpt lat="45.82206" lon="6.72666">
        <ele>1505</ele>
        <time>2022-08-26T20:32:34Z</time>
      </trkpt>
      <trkpt lat="45.82208" lon="6.72668">
        <ele>1506</ele>
        <time>2022-08-26T20:32:37Z</time>
      </trkpt>
      <trkpt lat="45.8221" lon="6.72669">
        <ele>1506</ele>
        <time>2022-08-26T20:32:39Z</time>
      </trkpt>
      <trkpt lat="45.82212" lon="6.72671">
        <ele>1507</ele>
        <time>2022-08-26T20:32:41Z</time>
      </trkpt>
      <trkpt lat="45.82213" lon="6.72673">
        <ele>1507</ele>
        <time>2022-08-26T20:32:43Z</time>
      </trkpt>
      <trkpt lat="45.82214" lon="6.72676">
        <ele>1508</ele>
        <time>2022-08-26T20:32:46Z</time>
      </trkpt>
      <trkpt lat="45.82215" lon="6.7268">
        <ele>1508</ele>
        <time>2022-08-26T20:32:47Z</time>
      </trkpt>
      <trkpt lat="45.82216" lon="6.72683">
        <ele>1508</ele>
        <time>2022-08-26T20:32:49Z</time>
      </trkpt>
      <trkpt lat="45.82215" lon="6.72686">
        <ele>1508</ele>
        <time>2022-08-26T20:32:51Z</time>
      </trkpt>
      <trkpt lat="45.82213" lon="6.72689">
        <ele>1509</ele>
        <time>2022-08-26T20:32:54Z</time>
      </trkpt>
      <trkpt lat="45.82211" lon="6.7269">
        <ele>1509</ele>
        <time>2022-08-26T20:32:55Z</time>
      </trkpt>
      <trkpt lat="45.82209" lon="6.72692">
        <ele>1509</ele>
        <time>2022-08-26T20:32:57Z</time>
      </trkpt>
      <trkpt lat="45.82207" lon="6.72693">
        <ele>1510</ele>
        <time>2022-08-26T20:32:59Z</time>
      </trkpt>
      <trkpt lat="45.82204" lon="6.72695">
        <ele>1510</ele>
        <time>2022-08-26T20:33:01Z</time>
      </trkpt>
      <trkpt lat="45.822" lon="6.72697">
        <ele>1510</ele>
        <time>2022-08-26T20:33:03Z</time>
      </trkpt>
      <trkpt lat="45.82199" lon="6.72697">
        <ele>1509</ele>
        <time>2022-08-26T20:33:04Z</time>
      </trkpt>
      <trkpt lat="45.82198" lon="6.72697">
        <ele>1508</ele>
        <time>2022-08-26T20:33:05Z</time>
      </trkpt>
      <trkpt lat="45.82196" lon="6.72697">
        <ele>1509</ele>
        <time>2022-08-26T20:33:06Z</time>
      </trkpt>
      <trkpt lat="45.82195" lon="6.72698">
        <ele>1509</ele>
        <time>2022-08-26T20:33:07Z</time>
      </trkpt>
      <trkpt lat="45.82191" lon="6.72699">
        <ele>1509</ele>
        <time>2022-08-26T20:33:09Z</time>
      </trkpt>
      <trkpt lat="45.82189" lon="6.727">
        <ele>1509</ele>
        <time>2022-08-26T20:33:10Z</time>
      </trkpt>
      <trkpt lat="45.82187" lon="6.72701">
        <ele>1509</ele>
        <time>2022-08-26T20:33:11Z</time>
      </trkpt>
      <trkpt lat="45.82184" lon="6.72702">
        <ele>1509</ele>
        <time>2022-08-26T20:33:14Z</time>
      </trkpt>
      <trkpt lat="45.82181" lon="6.72703">
        <ele>1509</ele>
        <time>2022-08-26T20:33:15Z</time>
      </trkpt>
      <trkpt lat="45.82178" lon="6.72704">
        <ele>1509</ele>
        <time>2022-08-26T20:33:16Z</time>
      </trkpt>
      <trkpt lat="45.82175" lon="6.72706">
        <ele>1509</ele>
        <time>2022-08-26T20:33:17Z</time>
      </trkpt>
      <trkpt lat="45.82174" lon="6.72707">
        <ele>1509</ele>
        <time>2022-08-26T20:33:18Z</time>
      </trkpt>
      <trkpt lat="45.82172" lon="6.72708">
        <ele>1509</ele>
        <time>2022-08-26T20:33:19Z</time>
      </trkpt>
      <trkpt lat="45.82169" lon="6.72709">
        <ele>1509</ele>
        <time>2022-08-26T20:33:21Z</time>
      </trkpt>
      <trkpt lat="45.82166" lon="6.72711">
        <ele>1509</ele>
        <time>2022-08-26T20:33:23Z</time>
      </trkpt>
      <trkpt lat="45.82165" lon="6.72713">
        <ele>1509</ele>
        <time>2022-08-26T20:33:24Z</time>
      </trkpt>
      <trkpt lat="45.82164" lon="6.72714">
        <ele>1509</ele>
        <time>2022-08-26T20:33:25Z</time>
      </trkpt>
      <trkpt lat="45.82163" lon="6.72715">
        <ele>1509</ele>
        <time>2022-08-26T20:33:26Z</time>
      </trkpt>
      <trkpt lat="45.82161" lon="6.72717">
        <ele>1510</ele>
        <time>2022-08-26T20:33:27Z</time>
      </trkpt>
      <trkpt lat="45.8216" lon="6.72718">
        <ele>1510</ele>
        <time>2022-08-26T20:33:28Z</time>
      </trkpt>
      <trkpt lat="45.82158" lon="6.7272">
        <ele>1510</ele>
        <time>2022-08-26T20:33:29Z</time>
      </trkpt>
      <trkpt lat="45.82156" lon="6.72723">
        <ele>1510</ele>
        <time>2022-08-26T20:33:31Z</time>
      </trkpt>
      <trkpt lat="45.82154" lon="6.72725">
        <ele>1510</ele>
        <time>2022-08-26T20:33:32Z</time>
      </trkpt>
      <trkpt lat="45.82151" lon="6.72726">
        <ele>1510</ele>
        <time>2022-08-26T20:33:33Z</time>
      </trkpt>
      <trkpt lat="45.82148" lon="6.72726">
        <ele>1510</ele>
        <time>2022-08-26T20:33:34Z</time>
      </trkpt>
      <trkpt lat="45.82141" lon="6.72728">
        <ele>1510</ele>
        <time>2022-08-26T20:33:36Z</time>
      </trkpt>
      <trkpt lat="45.8214" lon="6.72729">
        <ele>1510</ele>
        <time>2022-08-26T20:33:37Z</time>
      </trkpt>
      <trkpt lat="45.82137" lon="6.7273">
        <ele>1510</ele>
        <time>2022-08-26T20:33:38Z</time>
      </trkpt>
      <trkpt lat="45.82134" lon="6.72731">
        <ele>1510</ele>
        <time>2022-08-26T20:33:39Z</time>
      </trkpt>
      <trkpt lat="45.82131" lon="6.72734">
        <ele>1510</ele>
        <time>2022-08-26T20:33:40Z</time>
      </trkpt>
      <trkpt lat="45.8213" lon="6.72734">
        <ele>1510</ele>
        <time>2022-08-26T20:33:41Z</time>
      </trkpt>
      <trkpt lat="45.82128" lon="6.72736">
        <ele>1510</ele>
        <time>2022-08-26T20:33:42Z</time>
      </trkpt>
      <trkpt lat="45.82126" lon="6.72737">
        <ele>1510</ele>
        <time>2022-08-26T20:33:43Z</time>
      </trkpt>
      <trkpt lat="45.82124" lon="6.72739">
        <ele>1510</ele>
        <time>2022-08-26T20:33:44Z</time>
      </trkpt>
      <trkpt lat="45.82122" lon="6.7274">
        <ele>1510</ele>
        <time>2022-08-26T20:33:45Z</time>
      </trkpt>
      <trkpt lat="45.82121" lon="6.72742">
        <ele>1510</ele>
        <time>2022-08-26T20:33:46Z</time>
      </trkpt>
      <trkpt lat="45.82119" lon="6.72744">
        <ele>1510</ele>
        <time>2022-08-26T20:33:47Z</time>
      </trkpt>
      <trkpt lat="45.82117" lon="6.72745">
        <ele>1510</ele>
        <time>2022-08-26T20:33:48Z</time>
      </trkpt>
      <trkpt lat="45.82114" lon="6.72746">
        <ele>1510</ele>
        <time>2022-08-26T20:33:49Z</time>
      </trkpt>
      <trkpt lat="45.82113" lon="6.72746">
        <ele>1510</ele>
        <time>2022-08-26T20:33:50Z</time>
      </trkpt>
      <trkpt lat="45.82111" lon="6.72746">
        <ele>1510</ele>
        <time>2022-08-26T20:33:51Z</time>
      </trkpt>
      <trkpt lat="45.82108" lon="6.72747">
        <ele>1510</ele>
        <time>2022-08-26T20:33:52Z</time>
      </trkpt>
      <trkpt lat="45.82105" lon="6.72748">
        <ele>1510</ele>
        <time>2022-08-26T20:33:53Z</time>
      </trkpt>
      <trkpt lat="45.82102" lon="6.7275">
        <ele>1510</ele>
        <time>2022-08-26T20:33:54Z</time>
      </trkpt>
      <trkpt lat="45.82101" lon="6.72751">
        <ele>1510</ele>
        <time>2022-08-26T20:33:55Z</time>
      </trkpt>
      <trkpt lat="45.82097" lon="6.72752">
        <ele>1510</ele>
        <time>2022-08-26T20:33:56Z</time>
      </trkpt>
      <trkpt lat="45.82096" lon="6.72752">
        <ele>1510</ele>
        <time>2022-08-26T20:33:57Z</time>
      </trkpt>
      <trkpt lat="45.82093" lon="6.72753">
        <ele>1509</ele>
        <time>2022-08-26T20:33:58Z</time>
      </trkpt>
      <trkpt lat="45.82089" lon="6.72753">
        <ele>1509</ele>
        <time>2022-08-26T20:33:59Z</time>
      </trkpt>
      <trkpt lat="45.82088" lon="6.72753">
        <ele>1509</ele>
        <time>2022-08-26T20:34:00Z</time>
      </trkpt>
      <trkpt lat="45.82084" lon="6.72754">
        <ele>1509</ele>
        <time>2022-08-26T20:34:02Z</time>
      </trkpt>
      <trkpt lat="45.82082" lon="6.72755">
        <ele>1509</ele>
        <time>2022-08-26T20:34:03Z</time>
      </trkpt>
      <trkpt lat="45.8208" lon="6.72755">
        <ele>1509</ele>
        <time>2022-08-26T20:34:04Z</time>
      </trkpt>
      <trkpt lat="45.82078" lon="6.72755">
        <ele>1509</ele>
        <time>2022-08-26T20:34:05Z</time>
      </trkpt>
      <trkpt lat="45.82076" lon="6.72755">
        <ele>1508</ele>
        <time>2022-08-26T20:34:06Z</time>
      </trkpt>
      <trkpt lat="45.82071" lon="6.72755">
        <ele>1508</ele>
        <time>2022-08-26T20:34:08Z</time>
      </trkpt>
      <trkpt lat="45.8207" lon="6.72755">
        <ele>1508</ele>
        <time>2022-08-26T20:34:09Z</time>
      </trkpt>
      <trkpt lat="45.82067" lon="6.72755">
        <ele>1508</ele>
        <time>2022-08-26T20:34:11Z</time>
      </trkpt>
      <trkpt lat="45.82065" lon="6.72755">
        <ele>1508</ele>
        <time>2022-08-26T20:34:12Z</time>
      </trkpt>
      <trkpt lat="45.82062" lon="6.72756">
        <ele>1508</ele>
        <time>2022-08-26T20:34:13Z</time>
      </trkpt>
      <trkpt lat="45.8206" lon="6.72756">
        <ele>1507</ele>
        <time>2022-08-26T20:34:14Z</time>
      </trkpt>
      <trkpt lat="45.82058" lon="6.72756">
        <ele>1507</ele>
        <time>2022-08-26T20:34:15Z</time>
      </trkpt>
      <trkpt lat="45.82056" lon="6.72756">
        <ele>1507</ele>
        <time>2022-08-26T20:34:16Z</time>
      </trkpt>
      <trkpt lat="45.82054" lon="6.72757">
        <ele>1507</ele>
        <time>2022-08-26T20:34:17Z</time>
      </trkpt>
      <trkpt lat="45.82052" lon="6.72757">
        <ele>1507</ele>
        <time>2022-08-26T20:34:18Z</time>
      </trkpt>
      <trkpt lat="45.8205" lon="6.72758">
        <ele>1507</ele>
        <time>2022-08-26T20:34:19Z</time>
      </trkpt>
      <trkpt lat="45.82047" lon="6.72758">
        <ele>1507</ele>
        <time>2022-08-26T20:34:20Z</time>
      </trkpt>
      <trkpt lat="45.82045" lon="6.72758">
        <ele>1507</ele>
        <time>2022-08-26T20:34:21Z</time>
      </trkpt>
      <trkpt lat="45.82043" lon="6.72758">
        <ele>1506</ele>
        <time>2022-08-26T20:34:23Z</time>
      </trkpt>
      <trkpt lat="45.8204" lon="6.72758">
        <ele>1506</ele>
        <time>2022-08-26T20:34:25Z</time>
      </trkpt>
      <trkpt lat="45.82035" lon="6.72758">
        <ele>1506</ele>
        <time>2022-08-26T20:34:26Z</time>
      </trkpt>
      <trkpt lat="45.82034" lon="6.72758">
        <ele>1507</ele>
        <time>2022-08-26T20:34:27Z</time>
      </trkpt>
      <trkpt lat="45.82032" lon="6.72758">
        <ele>1507</ele>
        <time>2022-08-26T20:34:28Z</time>
      </trkpt>
      <trkpt lat="45.8203" lon="6.72758">
        <ele>1506</ele>
        <time>2022-08-26T20:34:29Z</time>
      </trkpt>
      <trkpt lat="45.82027" lon="6.72758">
        <ele>1506</ele>
        <time>2022-08-26T20:34:30Z</time>
      </trkpt>
      <trkpt lat="45.82025" lon="6.72758">
        <ele>1506</ele>
        <time>2022-08-26T20:34:31Z</time>
      </trkpt>
      <trkpt lat="45.82021" lon="6.72758">
        <ele>1506</ele>
        <time>2022-08-26T20:34:32Z</time>
      </trkpt>
      <trkpt lat="45.8202" lon="6.72758">
        <ele>1506</ele>
        <time>2022-08-26T20:34:33Z</time>
      </trkpt>
      <trkpt lat="45.82018" lon="6.72759">
        <ele>1506</ele>
        <time>2022-08-26T20:34:34Z</time>
      </trkpt>
      <trkpt lat="45.82013" lon="6.72759">
        <ele>1506</ele>
        <time>2022-08-26T20:34:35Z</time>
      </trkpt>
      <trkpt lat="45.82012" lon="6.72759">
        <ele>1506</ele>
        <time>2022-08-26T20:34:36Z</time>
      </trkpt>
      <trkpt lat="45.82007" lon="6.7276">
        <ele>1505</ele>
        <time>2022-08-26T20:34:38Z</time>
      </trkpt>
      <trkpt lat="45.82004" lon="6.7276">
        <ele>1505</ele>
        <time>2022-08-26T20:34:39Z</time>
      </trkpt>
      <trkpt lat="45.82002" lon="6.7276">
        <ele>1504</ele>
        <time>2022-08-26T20:34:40Z</time>
      </trkpt>
      <trkpt lat="45.82" lon="6.7276">
        <ele>1504</ele>
        <time>2022-08-26T20:34:41Z</time>
      </trkpt>
      <trkpt lat="45.81997" lon="6.72761">
        <ele>1504</ele>
        <time>2022-08-26T20:34:42Z</time>
      </trkpt>
      <trkpt lat="45.81995" lon="6.72761">
        <ele>1504</ele>
        <time>2022-08-26T20:34:43Z</time>
      </trkpt>
      <trkpt lat="45.81989" lon="6.72763">
        <ele>1504</ele>
        <time>2022-08-26T20:34:45Z</time>
      </trkpt>
      <trkpt lat="45.81985" lon="6.72766">
        <ele>1504</ele>
        <time>2022-08-26T20:34:47Z</time>
      </trkpt>
      <trkpt lat="45.81983" lon="6.72767">
        <ele>1504</ele>
        <time>2022-08-26T20:34:48Z</time>
      </trkpt>
      <trkpt lat="45.81982" lon="6.72769">
        <ele>1504</ele>
        <time>2022-08-26T20:34:49Z</time>
      </trkpt>
      <trkpt lat="45.8198" lon="6.7277">
        <ele>1504</ele>
        <time>2022-08-26T20:34:50Z</time>
      </trkpt>
      <trkpt lat="45.81976" lon="6.72772">
        <ele>1504</ele>
        <time>2022-08-26T20:34:52Z</time>
      </trkpt>
      <trkpt lat="45.81974" lon="6.72773">
        <ele>1503</ele>
        <time>2022-08-26T20:34:53Z</time>
      </trkpt>
      <trkpt lat="45.81972" lon="6.72774">
        <ele>1504</ele>
        <time>2022-08-26T20:34:54Z</time>
      </trkpt>
      <trkpt lat="45.8197" lon="6.72776">
        <ele>1504</ele>
        <time>2022-08-26T20:34:55Z</time>
      </trkpt>
      <trkpt lat="45.81968" lon="6.72777">
        <ele>1504</ele>
        <time>2022-08-26T20:34:56Z</time>
      </trkpt>
      <trkpt lat="45.81966" lon="6.72778">
        <ele>1503</ele>
        <time>2022-08-26T20:34:57Z</time>
      </trkpt>
      <trkpt lat="45.81964" lon="6.7278">
        <ele>1503</ele>
        <time>2022-08-26T20:34:58Z</time>
      </trkpt>
      <trkpt lat="45.81962" lon="6.72781">
        <ele>1503</ele>
        <time>2022-08-26T20:34:59Z</time>
      </trkpt>
      <trkpt lat="45.81959" lon="6.72783">
        <ele>1503</ele>
        <time>2022-08-26T20:35:00Z</time>
      </trkpt>
      <trkpt lat="45.81959" lon="6.72784">
        <ele>1503</ele>
        <time>2022-08-26T20:35:01Z</time>
      </trkpt>
      <trkpt lat="45.81957" lon="6.72785">
        <ele>1503</ele>
        <time>2022-08-26T20:35:02Z</time>
      </trkpt>
      <trkpt lat="45.81955" lon="6.72787">
        <ele>1503</ele>
        <time>2022-08-26T20:35:03Z</time>
      </trkpt>
      <trkpt lat="45.81952" lon="6.7279">
        <ele>1503</ele>
        <time>2022-08-26T20:35:04Z</time>
      </trkpt>
      <trkpt lat="45.81952" lon="6.72791">
        <ele>1503</ele>
        <time>2022-08-26T20:35:05Z</time>
      </trkpt>
      <trkpt lat="45.81949" lon="6.72793">
        <ele>1503</ele>
        <time>2022-08-26T20:35:06Z</time>
      </trkpt>
      <trkpt lat="45.81948" lon="6.72794">
        <ele>1502</ele>
        <time>2022-08-26T20:35:07Z</time>
      </trkpt>
      <trkpt lat="45.81946" lon="6.72795">
        <ele>1502</ele>
        <time>2022-08-26T20:35:08Z</time>
      </trkpt>
      <trkpt lat="45.81944" lon="6.72796">
        <ele>1502</ele>
        <time>2022-08-26T20:35:09Z</time>
      </trkpt>
      <trkpt lat="45.81942" lon="6.72798">
        <ele>1502</ele>
        <time>2022-08-26T20:35:10Z</time>
      </trkpt>
      <trkpt lat="45.81939" lon="6.728">
        <ele>1502</ele>
        <time>2022-08-26T20:35:11Z</time>
      </trkpt>
      <trkpt lat="45.81938" lon="6.728">
        <ele>1501</ele>
        <time>2022-08-26T20:35:12Z</time>
      </trkpt>
      <trkpt lat="45.81937" lon="6.72802">
        <ele>1501</ele>
        <time>2022-08-26T20:35:13Z</time>
      </trkpt>
      <trkpt lat="45.81933" lon="6.72804">
        <ele>1501</ele>
        <time>2022-08-26T20:35:14Z</time>
      </trkpt>
      <trkpt lat="45.81932" lon="6.72806">
        <ele>1501</ele>
        <time>2022-08-26T20:35:15Z</time>
      </trkpt>
      <trkpt lat="45.81931" lon="6.72807">
        <ele>1501</ele>
        <time>2022-08-26T20:35:16Z</time>
      </trkpt>
      <trkpt lat="45.81929" lon="6.72808">
        <ele>1501</ele>
        <time>2022-08-26T20:35:17Z</time>
      </trkpt>
      <trkpt lat="45.81927" lon="6.7281">
        <ele>1501</ele>
        <time>2022-08-26T20:35:18Z</time>
      </trkpt>
      <trkpt lat="45.81924" lon="6.72812">
        <ele>1501</ele>
        <time>2022-08-26T20:35:19Z</time>
      </trkpt>
      <trkpt lat="45.81923" lon="6.72813">
        <ele>1501</ele>
        <time>2022-08-26T20:35:20Z</time>
      </trkpt>
      <trkpt lat="45.8192" lon="6.72815">
        <ele>1501</ele>
        <time>2022-08-26T20:35:21Z</time>
      </trkpt>
      <trkpt lat="45.81918" lon="6.72816">
        <ele>1501</ele>
        <time>2022-08-26T20:35:22Z</time>
      </trkpt>
      <trkpt lat="45.81916" lon="6.72818">
        <ele>1500</ele>
        <time>2022-08-26T20:35:23Z</time>
      </trkpt>
      <trkpt lat="45.81915" lon="6.7282">
        <ele>1500</ele>
        <time>2022-08-26T20:35:24Z</time>
      </trkpt>
      <trkpt lat="45.81913" lon="6.72822">
        <ele>1500</ele>
        <time>2022-08-26T20:35:25Z</time>
      </trkpt>
      <trkpt lat="45.8191" lon="6.72825">
        <ele>1500</ele>
        <time>2022-08-26T20:35:26Z</time>
      </trkpt>
      <trkpt lat="45.81909" lon="6.72825">
        <ele>1500</ele>
        <time>2022-08-26T20:35:27Z</time>
      </trkpt>
      <trkpt lat="45.81907" lon="6.72827">
        <ele>1500</ele>
        <time>2022-08-26T20:35:28Z</time>
      </trkpt>
      <trkpt lat="45.81905" lon="6.72829">
        <ele>1500</ele>
        <time>2022-08-26T20:35:29Z</time>
      </trkpt>
      <trkpt lat="45.81903" lon="6.7283">
        <ele>1500</ele>
        <time>2022-08-26T20:35:30Z</time>
      </trkpt>
      <trkpt lat="45.81901" lon="6.72832">
        <ele>1500</ele>
        <time>2022-08-26T20:35:31Z</time>
      </trkpt>
      <trkpt lat="45.819" lon="6.72833">
        <ele>1499</ele>
        <time>2022-08-26T20:35:32Z</time>
      </trkpt>
      <trkpt lat="45.81898" lon="6.72835">
        <ele>1499</ele>
        <time>2022-08-26T20:35:33Z</time>
      </trkpt>
      <trkpt lat="45.81895" lon="6.72839">
        <ele>1499</ele>
        <time>2022-08-26T20:35:35Z</time>
      </trkpt>
      <trkpt lat="45.81893" lon="6.72841">
        <ele>1499</ele>
        <time>2022-08-26T20:35:36Z</time>
      </trkpt>
      <trkpt lat="45.81892" lon="6.72843">
        <ele>1499</ele>
        <time>2022-08-26T20:35:37Z</time>
      </trkpt>
      <trkpt lat="45.81888" lon="6.72846">
        <ele>1499</ele>
        <time>2022-08-26T20:35:39Z</time>
      </trkpt>
      <trkpt lat="45.81887" lon="6.72848">
        <ele>1499</ele>
        <time>2022-08-26T20:35:40Z</time>
      </trkpt>
      <trkpt lat="45.81885" lon="6.7285">
        <ele>1499</ele>
        <time>2022-08-26T20:35:41Z</time>
      </trkpt>
      <trkpt lat="45.81883" lon="6.72851">
        <ele>1499</ele>
        <time>2022-08-26T20:35:42Z</time>
      </trkpt>
      <trkpt lat="45.81878" lon="6.72853">
        <ele>1498</ele>
        <time>2022-08-26T20:35:44Z</time>
      </trkpt>
      <trkpt lat="45.81876" lon="6.72854">
        <ele>1498</ele>
        <time>2022-08-26T20:35:45Z</time>
      </trkpt>
      <trkpt lat="45.81874" lon="6.72856">
        <ele>1498</ele>
        <time>2022-08-26T20:35:46Z</time>
      </trkpt>
      <trkpt lat="45.81871" lon="6.72857">
        <ele>1498</ele>
        <time>2022-08-26T20:35:47Z</time>
      </trkpt>
      <trkpt lat="45.81868" lon="6.72857">
        <ele>1498</ele>
        <time>2022-08-26T20:35:48Z</time>
      </trkpt>
      <trkpt lat="45.81866" lon="6.72858">
        <ele>1498</ele>
        <time>2022-08-26T20:35:49Z</time>
      </trkpt>
      <trkpt lat="45.81863" lon="6.72858">
        <ele>1498</ele>
        <time>2022-08-26T20:35:50Z</time>
      </trkpt>
      <trkpt lat="45.81861" lon="6.72858">
        <ele>1498</ele>
        <time>2022-08-26T20:35:51Z</time>
      </trkpt>
      <trkpt lat="45.81858" lon="6.72858">
        <ele>1498</ele>
        <time>2022-08-26T20:35:52Z</time>
      </trkpt>
      <trkpt lat="45.81854" lon="6.72857">
        <ele>1498</ele>
        <time>2022-08-26T20:35:53Z</time>
      </trkpt>
      <trkpt lat="45.81852" lon="6.72857">
        <ele>1498</ele>
        <time>2022-08-26T20:35:54Z</time>
      </trkpt>
      <trkpt lat="45.81849" lon="6.72857">
        <ele>1498</ele>
        <time>2022-08-26T20:35:55Z</time>
      </trkpt>
      <trkpt lat="45.81847" lon="6.72856">
        <ele>1498</ele>
        <time>2022-08-26T20:35:56Z</time>
      </trkpt>
      <trkpt lat="45.81843" lon="6.72856">
        <ele>1498</ele>
        <time>2022-08-26T20:35:57Z</time>
      </trkpt>
      <trkpt lat="45.81841" lon="6.72855">
        <ele>1497</ele>
        <time>2022-08-26T20:35:58Z</time>
      </trkpt>
      <trkpt lat="45.81839" lon="6.72855">
        <ele>1497</ele>
        <time>2022-08-26T20:35:59Z</time>
      </trkpt>
      <trkpt lat="45.81837" lon="6.72854">
        <ele>1497</ele>
        <time>2022-08-26T20:36:00Z</time>
      </trkpt>
      <trkpt lat="45.81835" lon="6.72854">
        <ele>1497</ele>
        <time>2022-08-26T20:36:01Z</time>
      </trkpt>
      <trkpt lat="45.81833" lon="6.72853">
        <ele>1497</ele>
        <time>2022-08-26T20:36:02Z</time>
      </trkpt>
      <trkpt lat="45.81831" lon="6.72852">
        <ele>1497</ele>
        <time>2022-08-26T20:36:03Z</time>
      </trkpt>
      <trkpt lat="45.81829" lon="6.72852">
        <ele>1498</ele>
        <time>2022-08-26T20:36:04Z</time>
      </trkpt>
      <trkpt lat="45.81826" lon="6.72851">
        <ele>1498</ele>
        <time>2022-08-26T20:36:05Z</time>
      </trkpt>
      <trkpt lat="45.81824" lon="6.7285">
        <ele>1498</ele>
        <time>2022-08-26T20:36:06Z</time>
      </trkpt>
      <trkpt lat="45.81822" lon="6.72849">
        <ele>1498</ele>
        <time>2022-08-26T20:36:07Z</time>
      </trkpt>
      <trkpt lat="45.8182" lon="6.72848">
        <ele>1498</ele>
        <time>2022-08-26T20:36:08Z</time>
      </trkpt>
      <trkpt lat="45.81816" lon="6.72847">
        <ele>1498</ele>
        <time>2022-08-26T20:36:09Z</time>
      </trkpt>
      <trkpt lat="45.81815" lon="6.72847">
        <ele>1498</ele>
        <time>2022-08-26T20:36:10Z</time>
      </trkpt>
      <trkpt lat="45.81813" lon="6.72846">
        <ele>1498</ele>
        <time>2022-08-26T20:36:11Z</time>
      </trkpt>
      <trkpt lat="45.81809" lon="6.72845">
        <ele>1498</ele>
        <time>2022-08-26T20:36:12Z</time>
      </trkpt>
      <trkpt lat="45.81808" lon="6.72844">
        <ele>1498</ele>
        <time>2022-08-26T20:36:13Z</time>
      </trkpt>
      <trkpt lat="45.81806" lon="6.72844">
        <ele>1498</ele>
        <time>2022-08-26T20:36:14Z</time>
      </trkpt>
      <trkpt lat="45.81804" lon="6.72843">
        <ele>1498</ele>
        <time>2022-08-26T20:36:15Z</time>
      </trkpt>
      <trkpt lat="45.818" lon="6.72842">
        <ele>1498</ele>
        <time>2022-08-26T20:36:16Z</time>
      </trkpt>
      <trkpt lat="45.81799" lon="6.72841">
        <ele>1498</ele>
        <time>2022-08-26T20:36:17Z</time>
      </trkpt>
      <trkpt lat="45.81796" lon="6.72841">
        <ele>1498</ele>
        <time>2022-08-26T20:36:18Z</time>
      </trkpt>
      <trkpt lat="45.81794" lon="6.7284">
        <ele>1498</ele>
        <time>2022-08-26T20:36:19Z</time>
      </trkpt>
      <trkpt lat="45.81791" lon="6.7284">
        <ele>1498</ele>
        <time>2022-08-26T20:36:20Z</time>
      </trkpt>
      <trkpt lat="45.81787" lon="6.7284">
        <ele>1498</ele>
        <time>2022-08-26T20:36:21Z</time>
      </trkpt>
      <trkpt lat="45.81786" lon="6.72839">
        <ele>1497</ele>
        <time>2022-08-26T20:36:22Z</time>
      </trkpt>
      <trkpt lat="45.81783" lon="6.72839">
        <ele>1497</ele>
        <time>2022-08-26T20:36:23Z</time>
      </trkpt>
      <trkpt lat="45.81781" lon="6.72838">
        <ele>1498</ele>
        <time>2022-08-26T20:36:24Z</time>
      </trkpt>
      <trkpt lat="45.81779" lon="6.72836">
        <ele>1498</ele>
        <time>2022-08-26T20:36:25Z</time>
      </trkpt>
      <trkpt lat="45.81776" lon="6.72834">
        <ele>1498</ele>
        <time>2022-08-26T20:36:26Z</time>
      </trkpt>
      <trkpt lat="45.81775" lon="6.72834">
        <ele>1498</ele>
        <time>2022-08-26T20:36:27Z</time>
      </trkpt>
      <trkpt lat="45.81773" lon="6.72833">
        <ele>1498</ele>
        <time>2022-08-26T20:36:28Z</time>
      </trkpt>
      <trkpt lat="45.81771" lon="6.72832">
        <ele>1498</ele>
        <time>2022-08-26T20:36:29Z</time>
      </trkpt>
      <trkpt lat="45.81769" lon="6.72831">
        <ele>1498</ele>
        <time>2022-08-26T20:36:30Z</time>
      </trkpt>
      <trkpt lat="45.81767" lon="6.7283">
        <ele>1498</ele>
        <time>2022-08-26T20:36:31Z</time>
      </trkpt>
      <trkpt lat="45.81765" lon="6.7283">
        <ele>1498</ele>
        <time>2022-08-26T20:36:32Z</time>
      </trkpt>
      <trkpt lat="45.81761" lon="6.72829">
        <ele>1498</ele>
        <time>2022-08-26T20:36:34Z</time>
      </trkpt>
      <trkpt lat="45.81758" lon="6.72827">
        <ele>1498</ele>
        <time>2022-08-26T20:36:35Z</time>
      </trkpt>
      <trkpt lat="45.81756" lon="6.72827">
        <ele>1498</ele>
        <time>2022-08-26T20:36:36Z</time>
      </trkpt>
      <trkpt lat="45.81754" lon="6.72826">
        <ele>1498</ele>
        <time>2022-08-26T20:36:37Z</time>
      </trkpt>
      <trkpt lat="45.81752" lon="6.72825">
        <ele>1498</ele>
        <time>2022-08-26T20:36:38Z</time>
      </trkpt>
      <trkpt lat="45.8175" lon="6.72825">
        <ele>1498</ele>
        <time>2022-08-26T20:36:39Z</time>
      </trkpt>
      <trkpt lat="45.81747" lon="6.72824">
        <ele>1498</ele>
        <time>2022-08-26T20:36:40Z</time>
      </trkpt>
      <trkpt lat="45.81746" lon="6.72823">
        <ele>1498</ele>
        <time>2022-08-26T20:36:41Z</time>
      </trkpt>
      <trkpt lat="45.81743" lon="6.72822">
        <ele>1498</ele>
        <time>2022-08-26T20:36:42Z</time>
      </trkpt>
      <trkpt lat="45.81741" lon="6.72821">
        <ele>1498</ele>
        <time>2022-08-26T20:36:43Z</time>
      </trkpt>
      <trkpt lat="45.8174" lon="6.7282">
        <ele>1498</ele>
        <time>2022-08-26T20:36:44Z</time>
      </trkpt>
      <trkpt lat="45.81736" lon="6.72818">
        <ele>1498</ele>
        <time>2022-08-26T20:36:46Z</time>
      </trkpt>
      <trkpt lat="45.81734" lon="6.72817">
        <ele>1499</ele>
        <time>2022-08-26T20:36:47Z</time>
      </trkpt>
      <trkpt lat="45.81731" lon="6.72815">
        <ele>1499</ele>
        <time>2022-08-26T20:36:48Z</time>
      </trkpt>
      <trkpt lat="45.8173" lon="6.72814">
        <ele>1499</ele>
        <time>2022-08-26T20:36:49Z</time>
      </trkpt>
      <trkpt lat="45.81727" lon="6.72812">
        <ele>1499</ele>
        <time>2022-08-26T20:36:50Z</time>
      </trkpt>
      <trkpt lat="45.81726" lon="6.72811">
        <ele>1499</ele>
        <time>2022-08-26T20:36:51Z</time>
      </trkpt>
      <trkpt lat="45.81724" lon="6.72809">
        <ele>1499</ele>
        <time>2022-08-26T20:36:52Z</time>
      </trkpt>
      <trkpt lat="45.81721" lon="6.72807">
        <ele>1499</ele>
        <time>2022-08-26T20:36:53Z</time>
      </trkpt>
      <trkpt lat="45.81721" lon="6.72806">
        <ele>1498</ele>
        <time>2022-08-26T20:36:54Z</time>
      </trkpt>
      <trkpt lat="45.81718" lon="6.72804">
        <ele>1498</ele>
        <time>2022-08-26T20:36:55Z</time>
      </trkpt>
      <trkpt lat="45.81716" lon="6.72802">
        <ele>1498</ele>
        <time>2022-08-26T20:36:56Z</time>
      </trkpt>
      <trkpt lat="45.81714" lon="6.72801">
        <ele>1498</ele>
        <time>2022-08-26T20:36:57Z</time>
      </trkpt>
      <trkpt lat="45.8171" lon="6.72798">
        <ele>1498</ele>
        <time>2022-08-26T20:36:59Z</time>
      </trkpt>
      <trkpt lat="45.81706" lon="6.72796">
        <ele>1498</ele>
        <time>2022-08-26T20:37:00Z</time>
      </trkpt>
      <trkpt lat="45.81705" lon="6.72795">
        <ele>1498</ele>
        <time>2022-08-26T20:37:01Z</time>
      </trkpt>
      <trkpt lat="45.81703" lon="6.72794">
        <ele>1499</ele>
        <time>2022-08-26T20:37:02Z</time>
      </trkpt>
      <trkpt lat="45.817" lon="6.72791">
        <ele>1499</ele>
        <time>2022-08-26T20:37:03Z</time>
      </trkpt>
      <trkpt lat="45.81699" lon="6.7279">
        <ele>1499</ele>
        <time>2022-08-26T20:37:04Z</time>
      </trkpt>
      <trkpt lat="45.81696" lon="6.72787">
        <ele>1499</ele>
        <time>2022-08-26T20:37:05Z</time>
      </trkpt>
      <trkpt lat="45.81695" lon="6.72786">
        <ele>1499</ele>
        <time>2022-08-26T20:37:06Z</time>
      </trkpt>
      <trkpt lat="45.81693" lon="6.72784">
        <ele>1499</ele>
        <time>2022-08-26T20:37:07Z</time>
      </trkpt>
      <trkpt lat="45.81691" lon="6.7278">
        <ele>1498</ele>
        <time>2022-08-26T20:37:08Z</time>
      </trkpt>
      <trkpt lat="45.8169" lon="6.72779">
        <ele>1498</ele>
        <time>2022-08-26T20:37:09Z</time>
      </trkpt>
      <trkpt lat="45.81688" lon="6.72777">
        <ele>1498</ele>
        <time>2022-08-26T20:37:10Z</time>
      </trkpt>
      <trkpt lat="45.81687" lon="6.72775">
        <ele>1498</ele>
        <time>2022-08-26T20:37:11Z</time>
      </trkpt>
      <trkpt lat="45.81685" lon="6.72772">
        <ele>1498</ele>
        <time>2022-08-26T20:37:12Z</time>
      </trkpt>
      <trkpt lat="45.81683" lon="6.7277">
        <ele>1498</ele>
        <time>2022-08-26T20:37:13Z</time>
      </trkpt>
      <trkpt lat="45.81682" lon="6.72767">
        <ele>1498</ele>
        <time>2022-08-26T20:37:14Z</time>
      </trkpt>
      <trkpt lat="45.8168" lon="6.72765">
        <ele>1498</ele>
        <time>2022-08-26T20:37:15Z</time>
      </trkpt>
      <trkpt lat="45.81679" lon="6.72762">
        <ele>1498</ele>
        <time>2022-08-26T20:37:16Z</time>
      </trkpt>
      <trkpt lat="45.81676" lon="6.72756">
        <ele>1498</ele>
        <time>2022-08-26T20:37:18Z</time>
      </trkpt>
      <trkpt lat="45.81676" lon="6.72748">
        <ele>1498</ele>
        <time>2022-08-26T20:37:20Z</time>
      </trkpt>
      <trkpt lat="45.81676" lon="6.72743">
        <ele>1498</ele>
        <time>2022-08-26T20:37:21Z</time>
      </trkpt>
      <trkpt lat="45.81676" lon="6.72741">
        <ele>1497</ele>
        <time>2022-08-26T20:37:22Z</time>
      </trkpt>
      <trkpt lat="45.81677" lon="6.72737">
        <ele>1497</ele>
        <time>2022-08-26T20:37:23Z</time>
      </trkpt>
      <trkpt lat="45.81679" lon="6.72734">
        <ele>1497</ele>
        <time>2022-08-26T20:37:24Z</time>
      </trkpt>
      <trkpt lat="45.81681" lon="6.72732">
        <ele>1497</ele>
        <time>2022-08-26T20:37:25Z</time>
      </trkpt>
      <trkpt lat="45.81683" lon="6.72728">
        <ele>1497</ele>
        <time>2022-08-26T20:37:26Z</time>
      </trkpt>
      <trkpt lat="45.81684" lon="6.72727">
        <ele>1497</ele>
        <time>2022-08-26T20:37:27Z</time>
      </trkpt>
      <trkpt lat="45.81687" lon="6.72723">
        <ele>1497</ele>
        <time>2022-08-26T20:37:28Z</time>
      </trkpt>
      <trkpt lat="45.81688" lon="6.72722">
        <ele>1497</ele>
        <time>2022-08-26T20:37:29Z</time>
      </trkpt>
      <trkpt lat="45.8169" lon="6.72719">
        <ele>1496</ele>
        <time>2022-08-26T20:37:30Z</time>
      </trkpt>
      <trkpt lat="45.81692" lon="6.72716">
        <ele>1496</ele>
        <time>2022-08-26T20:37:31Z</time>
      </trkpt>
      <trkpt lat="45.81694" lon="6.72714">
        <ele>1496</ele>
        <time>2022-08-26T20:37:32Z</time>
      </trkpt>
      <trkpt lat="45.81695" lon="6.72711">
        <ele>1496</ele>
        <time>2022-08-26T20:37:33Z</time>
      </trkpt>
      <trkpt lat="45.81697" lon="6.72708">
        <ele>1496</ele>
        <time>2022-08-26T20:37:34Z</time>
      </trkpt>
      <trkpt lat="45.81699" lon="6.72706">
        <ele>1496</ele>
        <time>2022-08-26T20:37:35Z</time>
      </trkpt>
      <trkpt lat="45.81701" lon="6.72701">
        <ele>1496</ele>
        <time>2022-08-26T20:37:36Z</time>
      </trkpt>
      <trkpt lat="45.81701" lon="6.727">
        <ele>1496</ele>
        <time>2022-08-26T20:37:37Z</time>
      </trkpt>
      <trkpt lat="45.81703" lon="6.72696">
        <ele>1496</ele>
        <time>2022-08-26T20:37:38Z</time>
      </trkpt>
      <trkpt lat="45.81703" lon="6.72694">
        <ele>1496</ele>
        <time>2022-08-26T20:37:39Z</time>
      </trkpt>
      <trkpt lat="45.81704" lon="6.72691">
        <ele>1496</ele>
        <time>2022-08-26T20:37:40Z</time>
      </trkpt>
      <trkpt lat="45.81704" lon="6.72688">
        <ele>1496</ele>
        <time>2022-08-26T20:37:41Z</time>
      </trkpt>
      <trkpt lat="45.81705" lon="6.72685">
        <ele>1496</ele>
        <time>2022-08-26T20:37:42Z</time>
      </trkpt>
      <trkpt lat="45.81705" lon="6.7268">
        <ele>1496</ele>
        <time>2022-08-26T20:37:43Z</time>
      </trkpt>
      <trkpt lat="45.81705" lon="6.72678">
        <ele>1496</ele>
        <time>2022-08-26T20:37:44Z</time>
      </trkpt>
      <trkpt lat="45.81706" lon="6.72675">
        <ele>1496</ele>
        <time>2022-08-26T20:37:45Z</time>
      </trkpt>
      <trkpt lat="45.81707" lon="6.72673">
        <ele>1496</ele>
        <time>2022-08-26T20:37:46Z</time>
      </trkpt>
      <trkpt lat="45.8171" lon="6.72669">
        <ele>1496</ele>
        <time>2022-08-26T20:37:47Z</time>
      </trkpt>
      <trkpt lat="45.81711" lon="6.72668">
        <ele>1496</ele>
        <time>2022-08-26T20:37:48Z</time>
      </trkpt>
      <trkpt lat="45.81713" lon="6.72666">
        <ele>1496</ele>
        <time>2022-08-26T20:37:49Z</time>
      </trkpt>
      <trkpt lat="45.81715" lon="6.72664">
        <ele>1496</ele>
        <time>2022-08-26T20:37:50Z</time>
      </trkpt>
      <trkpt lat="45.81718" lon="6.72661">
        <ele>1496</ele>
        <time>2022-08-26T20:37:51Z</time>
      </trkpt>
      <trkpt lat="45.81719" lon="6.7266">
        <ele>1496</ele>
        <time>2022-08-26T20:37:52Z</time>
      </trkpt>
      <trkpt lat="45.81721" lon="6.72659">
        <ele>1496</ele>
        <time>2022-08-26T20:37:53Z</time>
      </trkpt>
      <trkpt lat="45.81724" lon="6.72656">
        <ele>1496</ele>
        <time>2022-08-26T20:37:54Z</time>
      </trkpt>
      <trkpt lat="45.81725" lon="6.72655">
        <ele>1497</ele>
        <time>2022-08-26T20:37:55Z</time>
      </trkpt>
      <trkpt lat="45.81726" lon="6.72652">
        <ele>1497</ele>
        <time>2022-08-26T20:37:56Z</time>
      </trkpt>
      <trkpt lat="45.81727" lon="6.7265">
        <ele>1497</ele>
        <time>2022-08-26T20:37:57Z</time>
      </trkpt>
      <trkpt lat="45.81729" lon="6.72648">
        <ele>1497</ele>
        <time>2022-08-26T20:37:58Z</time>
      </trkpt>
      <trkpt lat="45.81733" lon="6.72644">
        <ele>1497</ele>
        <time>2022-08-26T20:38:00Z</time>
      </trkpt>
      <trkpt lat="45.81736" lon="6.72643">
        <ele>1497</ele>
        <time>2022-08-26T20:38:01Z</time>
      </trkpt>
      <trkpt lat="45.8174" lon="6.72642">
        <ele>1497</ele>
        <time>2022-08-26T20:38:03Z</time>
      </trkpt>
      <trkpt lat="45.81742" lon="6.72644">
        <ele>1497</ele>
        <time>2022-08-26T20:38:04Z</time>
      </trkpt>
      <trkpt lat="45.81743" lon="6.72646">
        <ele>1497</ele>
        <time>2022-08-26T20:38:05Z</time>
      </trkpt>
      <trkpt lat="45.81744" lon="6.7265">
        <ele>1497</ele>
        <time>2022-08-26T20:38:06Z</time>
      </trkpt>
      <trkpt lat="45.81745" lon="6.72655">
        <ele>1496</ele>
        <time>2022-08-26T20:38:08Z</time>
      </trkpt>
      <trkpt lat="45.81747" lon="6.72659">
        <ele>1495</ele>
        <time>2022-08-26T20:38:10Z</time>
      </trkpt>
      <trkpt lat="45.8175" lon="6.72661">
        <ele>1495</ele>
        <time>2022-08-26T20:38:11Z</time>
      </trkpt>
      <trkpt lat="45.81751" lon="6.72662">
        <ele>1494</ele>
        <time>2022-08-26T20:38:12Z</time>
      </trkpt>
      <trkpt lat="45.81754" lon="6.72662">
        <ele>1494</ele>
        <time>2022-08-26T20:38:13Z</time>
      </trkpt>
      <trkpt lat="45.81759" lon="6.72662">
        <ele>1494</ele>
        <time>2022-08-26T20:38:15Z</time>
      </trkpt>
      <trkpt lat="45.81763" lon="6.72662">
        <ele>1494</ele>
        <time>2022-08-26T20:38:16Z</time>
      </trkpt>
      <trkpt lat="45.81764" lon="6.72662">
        <ele>1493</ele>
        <time>2022-08-26T20:38:17Z</time>
      </trkpt>
      <trkpt lat="45.81767" lon="6.72662">
        <ele>1493</ele>
        <time>2022-08-26T20:38:18Z</time>
      </trkpt>
      <trkpt lat="45.81769" lon="6.72662">
        <ele>1494</ele>
        <time>2022-08-26T20:38:19Z</time>
      </trkpt>
      <trkpt lat="45.81772" lon="6.72662">
        <ele>1494</ele>
        <time>2022-08-26T20:38:20Z</time>
      </trkpt>
      <trkpt lat="45.81773" lon="6.72662">
        <ele>1494</ele>
        <time>2022-08-26T20:38:21Z</time>
      </trkpt>
      <trkpt lat="45.81776" lon="6.72662">
        <ele>1493</ele>
        <time>2022-08-26T20:38:22Z</time>
      </trkpt>
      <trkpt lat="45.81778" lon="6.72663">
        <ele>1493</ele>
        <time>2022-08-26T20:38:23Z</time>
      </trkpt>
      <trkpt lat="45.8178" lon="6.72663">
        <ele>1492</ele>
        <time>2022-08-26T20:38:24Z</time>
      </trkpt>
      <trkpt lat="45.81783" lon="6.72663">
        <ele>1492</ele>
        <time>2022-08-26T20:38:25Z</time>
      </trkpt>
      <trkpt lat="45.81785" lon="6.72663">
        <ele>1492</ele>
        <time>2022-08-26T20:38:26Z</time>
      </trkpt>
      <trkpt lat="45.81787" lon="6.72662">
        <ele>1492</ele>
        <time>2022-08-26T20:38:27Z</time>
      </trkpt>
      <trkpt lat="45.81789" lon="6.72662">
        <ele>1492</ele>
        <time>2022-08-26T20:38:28Z</time>
      </trkpt>
      <trkpt lat="45.81791" lon="6.72662">
        <ele>1492</ele>
        <time>2022-08-26T20:38:29Z</time>
      </trkpt>
      <trkpt lat="45.81794" lon="6.72664">
        <ele>1492</ele>
        <time>2022-08-26T20:38:30Z</time>
      </trkpt>
      <trkpt lat="45.81795" lon="6.72664">
        <ele>1492</ele>
        <time>2022-08-26T20:38:31Z</time>
      </trkpt>
      <trkpt lat="45.81796" lon="6.72667">
        <ele>1492</ele>
        <time>2022-08-26T20:38:32Z</time>
      </trkpt>
      <trkpt lat="45.81796" lon="6.7267">
        <ele>1492</ele>
        <time>2022-08-26T20:38:33Z</time>
      </trkpt>
      <trkpt lat="45.81798" lon="6.72673">
        <ele>1492</ele>
        <time>2022-08-26T20:38:34Z</time>
      </trkpt>
      <trkpt lat="45.818" lon="6.72675">
        <ele>1492</ele>
        <time>2022-08-26T20:38:35Z</time>
      </trkpt>
      <trkpt lat="45.81801" lon="6.72678">
        <ele>1492</ele>
        <time>2022-08-26T20:38:36Z</time>
      </trkpt>
      <trkpt lat="45.81802" lon="6.7268">
        <ele>1492</ele>
        <time>2022-08-26T20:38:37Z</time>
      </trkpt>
      <trkpt lat="45.81803" lon="6.72683">
        <ele>1492</ele>
        <time>2022-08-26T20:38:38Z</time>
      </trkpt>
      <trkpt lat="45.81804" lon="6.72686">
        <ele>1492</ele>
        <time>2022-08-26T20:38:40Z</time>
      </trkpt>
      <trkpt lat="45.81804" lon="6.72689">
        <ele>1492</ele>
        <time>2022-08-26T20:38:42Z</time>
      </trkpt>
      <trkpt lat="45.81801" lon="6.72689">
        <ele>1491</ele>
        <time>2022-08-26T20:38:44Z</time>
      </trkpt>
      <trkpt lat="45.81799" lon="6.7269">
        <ele>1491</ele>
        <time>2022-08-26T20:38:46Z</time>
      </trkpt>
      <trkpt lat="45.81799" lon="6.72693">
        <ele>1489</ele>
        <time>2022-08-26T20:38:51Z</time>
      </trkpt>
      <trkpt lat="45.81797" lon="6.72696">
        <ele>1487</ele>
        <time>2022-08-26T20:38:54Z</time>
      </trkpt>
      <trkpt lat="45.81796" lon="6.72699">
        <ele>1486</ele>
        <time>2022-08-26T20:38:56Z</time>
      </trkpt>
      <trkpt lat="45.81792" lon="6.72707">
        <ele>1486</ele>
        <time>2022-08-26T20:38:59Z</time>
      </trkpt>
      <trkpt lat="45.8179" lon="6.7271">
        <ele>1486</ele>
        <time>2022-08-26T20:39:00Z</time>
      </trkpt>
      <trkpt lat="45.81789" lon="6.72711">
        <ele>1486</ele>
        <time>2022-08-26T20:39:01Z</time>
      </trkpt>
      <trkpt lat="45.81788" lon="6.72713">
        <ele>1485</ele>
        <time>2022-08-26T20:39:02Z</time>
      </trkpt>
      <trkpt lat="45.81784" lon="6.72715">
        <ele>1485</ele>
        <time>2022-08-26T20:39:04Z</time>
      </trkpt>
      <trkpt lat="45.81783" lon="6.72716">
        <ele>1485</ele>
        <time>2022-08-26T20:39:05Z</time>
      </trkpt>
      <trkpt lat="45.81781" lon="6.72718">
        <ele>1486</ele>
        <time>2022-08-26T20:39:06Z</time>
      </trkpt>
      <trkpt lat="45.81778" lon="6.7272">
        <ele>1487</ele>
        <time>2022-08-26T20:39:08Z</time>
      </trkpt>
      <trkpt lat="45.81776" lon="6.72722">
        <ele>1487</ele>
        <time>2022-08-26T20:39:09Z</time>
      </trkpt>
      <trkpt lat="45.81774" lon="6.72724">
        <ele>1487</ele>
        <time>2022-08-26T20:39:10Z</time>
      </trkpt>
      <trkpt lat="45.81772" lon="6.72725">
        <ele>1487</ele>
        <time>2022-08-26T20:39:11Z</time>
      </trkpt>
      <trkpt lat="45.8177" lon="6.72727">
        <ele>1487</ele>
        <time>2022-08-26T20:39:12Z</time>
      </trkpt>
      <trkpt lat="45.81768" lon="6.72728">
        <ele>1487</ele>
        <time>2022-08-26T20:39:13Z</time>
      </trkpt>
      <trkpt lat="45.81767" lon="6.7273">
        <ele>1487</ele>
        <time>2022-08-26T20:39:14Z</time>
      </trkpt>
      <trkpt lat="45.81765" lon="6.72731">
        <ele>1487</ele>
        <time>2022-08-26T20:39:15Z</time>
      </trkpt>
      <trkpt lat="45.81763" lon="6.72732">
        <ele>1487</ele>
        <time>2022-08-26T20:39:16Z</time>
      </trkpt>
      <trkpt lat="45.81761" lon="6.72733">
        <ele>1487</ele>
        <time>2022-08-26T20:39:17Z</time>
      </trkpt>
      <trkpt lat="45.81757" lon="6.72735">
        <ele>1487</ele>
        <time>2022-08-26T20:39:18Z</time>
      </trkpt>
      <trkpt lat="45.81756" lon="6.72736">
        <ele>1487</ele>
        <time>2022-08-26T20:39:19Z</time>
      </trkpt>
      <trkpt lat="45.81754" lon="6.72737">
        <ele>1487</ele>
        <time>2022-08-26T20:39:20Z</time>
      </trkpt>
      <trkpt lat="45.81752" lon="6.72737">
        <ele>1487</ele>
        <time>2022-08-26T20:39:21Z</time>
      </trkpt>
      <trkpt lat="45.81749" lon="6.72738">
        <ele>1487</ele>
        <time>2022-08-26T20:39:22Z</time>
      </trkpt>
      <trkpt lat="45.81748" lon="6.72738">
        <ele>1488</ele>
        <time>2022-08-26T20:39:23Z</time>
      </trkpt>
      <trkpt lat="45.81745" lon="6.72737">
        <ele>1488</ele>
        <time>2022-08-26T20:39:25Z</time>
      </trkpt>
      <trkpt lat="45.81743" lon="6.72738">
        <ele>1488</ele>
        <time>2022-08-26T20:39:26Z</time>
      </trkpt>
      <trkpt lat="45.81741" lon="6.72738">
        <ele>1488</ele>
        <time>2022-08-26T20:39:27Z</time>
      </trkpt>
      <trkpt lat="45.81739" lon="6.72738">
        <ele>1489</ele>
        <time>2022-08-26T20:39:28Z</time>
      </trkpt>
      <trkpt lat="45.81737" lon="6.72739">
        <ele>1489</ele>
        <time>2022-08-26T20:39:29Z</time>
      </trkpt>
      <trkpt lat="45.81735" lon="6.7274">
        <ele>1489</ele>
        <time>2022-08-26T20:39:30Z</time>
      </trkpt>
      <trkpt lat="45.81732" lon="6.72741">
        <ele>1489</ele>
        <time>2022-08-26T20:39:31Z</time>
      </trkpt>
      <trkpt lat="45.8173" lon="6.72741">
        <ele>1489</ele>
        <time>2022-08-26T20:39:32Z</time>
      </trkpt>
      <trkpt lat="45.81728" lon="6.72742">
        <ele>1489</ele>
        <time>2022-08-26T20:39:33Z</time>
      </trkpt>
      <trkpt lat="45.81726" lon="6.72741">
        <ele>1489</ele>
        <time>2022-08-26T20:39:34Z</time>
      </trkpt>
      <trkpt lat="45.81724" lon="6.72741">
        <ele>1489</ele>
        <time>2022-08-26T20:39:35Z</time>
      </trkpt>
      <trkpt lat="45.81722" lon="6.7274">
        <ele>1489</ele>
        <time>2022-08-26T20:39:36Z</time>
      </trkpt>
      <trkpt lat="45.81718" lon="6.72737">
        <ele>1489</ele>
        <time>2022-08-26T20:39:38Z</time>
      </trkpt>
      <trkpt lat="45.81716" lon="6.72736">
        <ele>1489</ele>
        <time>2022-08-26T20:39:39Z</time>
      </trkpt>
      <trkpt lat="45.81714" lon="6.72734">
        <ele>1489</ele>
        <time>2022-08-26T20:39:40Z</time>
      </trkpt>
      <trkpt lat="45.81711" lon="6.72734">
        <ele>1489</ele>
        <time>2022-08-26T20:39:41Z</time>
      </trkpt>
      <trkpt lat="45.8171" lon="6.72733">
        <ele>1489</ele>
        <time>2022-08-26T20:39:42Z</time>
      </trkpt>
      <trkpt lat="45.81708" lon="6.72733">
        <ele>1489</ele>
        <time>2022-08-26T20:39:43Z</time>
      </trkpt>
      <trkpt lat="45.81705" lon="6.72732">
        <ele>1489</ele>
        <time>2022-08-26T20:39:44Z</time>
      </trkpt>
      <trkpt lat="45.81703" lon="6.72732">
        <ele>1489</ele>
        <time>2022-08-26T20:39:45Z</time>
      </trkpt>
      <trkpt lat="45.81701" lon="6.72731">
        <ele>1489</ele>
        <time>2022-08-26T20:39:46Z</time>
      </trkpt>
      <trkpt lat="45.81699" lon="6.72729">
        <ele>1489</ele>
        <time>2022-08-26T20:39:47Z</time>
      </trkpt>
      <trkpt lat="45.81697" lon="6.72728">
        <ele>1489</ele>
        <time>2022-08-26T20:39:48Z</time>
      </trkpt>
      <trkpt lat="45.81695" lon="6.72726">
        <ele>1489</ele>
        <time>2022-08-26T20:39:49Z</time>
      </trkpt>
      <trkpt lat="45.81691" lon="6.72724">
        <ele>1489</ele>
        <time>2022-08-26T20:39:50Z</time>
      </trkpt>
      <trkpt lat="45.81689" lon="6.72723">
        <ele>1489</ele>
        <time>2022-08-26T20:39:51Z</time>
      </trkpt>
      <trkpt lat="45.81687" lon="6.72721">
        <ele>1489</ele>
        <time>2022-08-26T20:39:52Z</time>
      </trkpt>
      <trkpt lat="45.81684" lon="6.72719">
        <ele>1489</ele>
        <time>2022-08-26T20:39:53Z</time>
      </trkpt>
      <trkpt lat="45.81682" lon="6.72718">
        <ele>1490</ele>
        <time>2022-08-26T20:39:54Z</time>
      </trkpt>
      <trkpt lat="45.81681" lon="6.72714">
        <ele>1490</ele>
        <time>2022-08-26T20:39:56Z</time>
      </trkpt>
      <trkpt lat="45.81679" lon="6.72711">
        <ele>1490</ele>
        <time>2022-08-26T20:39:59Z</time>
      </trkpt>
      <trkpt lat="45.81677" lon="6.72708">
        <ele>1490</ele>
        <time>2022-08-26T20:40:00Z</time>
      </trkpt>
      <trkpt lat="45.81676" lon="6.72704">
        <ele>1490</ele>
        <time>2022-08-26T20:40:02Z</time>
      </trkpt>
      <trkpt lat="45.81675" lon="6.72701">
        <ele>1490</ele>
        <time>2022-08-26T20:40:04Z</time>
      </trkpt>
      <trkpt lat="45.81674" lon="6.72698">
        <ele>1490</ele>
        <time>2022-08-26T20:40:06Z</time>
      </trkpt>
      <trkpt lat="45.81673" lon="6.72695">
        <ele>1491</ele>
        <time>2022-08-26T20:40:08Z</time>
      </trkpt>
      <trkpt lat="45.81671" lon="6.72692">
        <ele>1491</ele>
        <time>2022-08-26T20:40:10Z</time>
      </trkpt>
      <trkpt lat="45.81668" lon="6.7269">
        <ele>1491</ele>
        <time>2022-08-26T20:40:12Z</time>
      </trkpt>
      <trkpt lat="45.81666" lon="6.72688">
        <ele>1491</ele>
        <time>2022-08-26T20:40:14Z</time>
      </trkpt>
      <trkpt lat="45.81664" lon="6.72685">
        <ele>1492</ele>
        <time>2022-08-26T20:40:16Z</time>
      </trkpt>
      <trkpt lat="45.81663" lon="6.72683">
        <ele>1492</ele>
        <time>2022-08-26T20:40:18Z</time>
      </trkpt>
      <trkpt lat="45.8166" lon="6.72683">
        <ele>1492</ele>
        <time>2022-08-26T20:40:20Z</time>
      </trkpt>
      <trkpt lat="45.81657" lon="6.72682">
        <ele>1492</ele>
        <time>2022-08-26T20:40:22Z</time>
      </trkpt>
      <trkpt lat="45.81655" lon="6.72679">
        <ele>1492</ele>
        <time>2022-08-26T20:40:24Z</time>
      </trkpt>
      <trkpt lat="45.81653" lon="6.72676">
        <ele>1492</ele>
        <time>2022-08-26T20:40:26Z</time>
      </trkpt>
      <trkpt lat="45.81651" lon="6.72674">
        <ele>1492</ele>
        <time>2022-08-26T20:40:28Z</time>
      </trkpt>
      <trkpt lat="45.8165" lon="6.72673">
        <ele>1492</ele>
        <time>2022-08-26T20:40:30Z</time>
      </trkpt>
      <trkpt lat="45.81647" lon="6.72673">
        <ele>1494</ele>
        <time>2022-08-26T20:40:34Z</time>
      </trkpt>
      <trkpt lat="45.81645" lon="6.72673">
        <ele>1495</ele>
        <time>2022-08-26T20:40:37Z</time>
      </trkpt>
      <trkpt lat="45.81642" lon="6.72672">
        <ele>1495</ele>
        <time>2022-08-26T20:40:38Z</time>
      </trkpt>
      <trkpt lat="45.8164" lon="6.72671">
        <ele>1495</ele>
        <time>2022-08-26T20:40:39Z</time>
      </trkpt>
      <trkpt lat="45.81637" lon="6.7267">
        <ele>1495</ele>
        <time>2022-08-26T20:40:40Z</time>
      </trkpt>
      <trkpt lat="45.81636" lon="6.72668">
        <ele>1495</ele>
        <time>2022-08-26T20:40:41Z</time>
      </trkpt>
      <trkpt lat="45.81633" lon="6.72667">
        <ele>1495</ele>
        <time>2022-08-26T20:40:42Z</time>
      </trkpt>
      <trkpt lat="45.81631" lon="6.72665">
        <ele>1495</ele>
        <time>2022-08-26T20:40:43Z</time>
      </trkpt>
      <trkpt lat="45.81628" lon="6.72663">
        <ele>1495</ele>
        <time>2022-08-26T20:40:44Z</time>
      </trkpt>
      <trkpt lat="45.81627" lon="6.72662">
        <ele>1495</ele>
        <time>2022-08-26T20:40:45Z</time>
      </trkpt>
      <trkpt lat="45.81625" lon="6.7266">
        <ele>1495</ele>
        <time>2022-08-26T20:40:46Z</time>
      </trkpt>
      <trkpt lat="45.81623" lon="6.72659">
        <ele>1495</ele>
        <time>2022-08-26T20:40:47Z</time>
      </trkpt>
      <trkpt lat="45.81621" lon="6.72657">
        <ele>1495</ele>
        <time>2022-08-26T20:40:48Z</time>
      </trkpt>
      <trkpt lat="45.81617" lon="6.72654">
        <ele>1495</ele>
        <time>2022-08-26T20:40:50Z</time>
      </trkpt>
      <trkpt lat="45.81615" lon="6.72652">
        <ele>1495</ele>
        <time>2022-08-26T20:40:51Z</time>
      </trkpt>
      <trkpt lat="45.81612" lon="6.72648">
        <ele>1495</ele>
        <time>2022-08-26T20:40:53Z</time>
      </trkpt>
      <trkpt lat="45.8161" lon="6.72647">
        <ele>1495</ele>
        <time>2022-08-26T20:40:54Z</time>
      </trkpt>
      <trkpt lat="45.81607" lon="6.72644">
        <ele>1495</ele>
        <time>2022-08-26T20:40:55Z</time>
      </trkpt>
      <trkpt lat="45.81606" lon="6.72643">
        <ele>1496</ele>
        <time>2022-08-26T20:40:56Z</time>
      </trkpt>
      <trkpt lat="45.81603" lon="6.72641">
        <ele>1496</ele>
        <time>2022-08-26T20:40:57Z</time>
      </trkpt>
      <trkpt lat="45.81602" lon="6.7264">
        <ele>1496</ele>
        <time>2022-08-26T20:40:58Z</time>
      </trkpt>
      <trkpt lat="45.81599" lon="6.72637">
        <ele>1496</ele>
        <time>2022-08-26T20:40:59Z</time>
      </trkpt>
      <trkpt lat="45.81598" lon="6.72636">
        <ele>1495</ele>
        <time>2022-08-26T20:41:00Z</time>
      </trkpt>
      <trkpt lat="45.81595" lon="6.72634">
        <ele>1495</ele>
        <time>2022-08-26T20:41:01Z</time>
      </trkpt>
      <trkpt lat="45.81594" lon="6.72633">
        <ele>1495</ele>
        <time>2022-08-26T20:41:02Z</time>
      </trkpt>
      <trkpt lat="45.81592" lon="6.72633">
        <ele>1496</ele>
        <time>2022-08-26T20:41:03Z</time>
      </trkpt>
      <trkpt lat="45.8159" lon="6.72631">
        <ele>1496</ele>
        <time>2022-08-26T20:41:04Z</time>
      </trkpt>
      <trkpt lat="45.81588" lon="6.7263">
        <ele>1496</ele>
        <time>2022-08-26T20:41:05Z</time>
      </trkpt>
      <trkpt lat="45.81584" lon="6.72628">
        <ele>1495</ele>
        <time>2022-08-26T20:41:07Z</time>
      </trkpt>
      <trkpt lat="45.81582" lon="6.72627">
        <ele>1495</ele>
        <time>2022-08-26T20:41:08Z</time>
      </trkpt>
      <trkpt lat="45.8158" lon="6.72626">
        <ele>1496</ele>
        <time>2022-08-26T20:41:09Z</time>
      </trkpt>
      <trkpt lat="45.81578" lon="6.72625">
        <ele>1496</ele>
        <time>2022-08-26T20:41:10Z</time>
      </trkpt>
      <trkpt lat="45.81576" lon="6.72625">
        <ele>1496</ele>
        <time>2022-08-26T20:41:11Z</time>
      </trkpt>
      <trkpt lat="45.81574" lon="6.72624">
        <ele>1496</ele>
        <time>2022-08-26T20:41:12Z</time>
      </trkpt>
      <trkpt lat="45.81572" lon="6.72623">
        <ele>1497</ele>
        <time>2022-08-26T20:41:13Z</time>
      </trkpt>
      <trkpt lat="45.8157" lon="6.72622">
        <ele>1497</ele>
        <time>2022-08-26T20:41:14Z</time>
      </trkpt>
      <trkpt lat="45.81568" lon="6.72622">
        <ele>1497</ele>
        <time>2022-08-26T20:41:15Z</time>
      </trkpt>
      <trkpt lat="45.81566" lon="6.72622">
        <ele>1497</ele>
        <time>2022-08-26T20:41:16Z</time>
      </trkpt>
      <trkpt lat="45.81564" lon="6.72622">
        <ele>1497</ele>
        <time>2022-08-26T20:41:17Z</time>
      </trkpt>
      <trkpt lat="45.81562" lon="6.72622">
        <ele>1497</ele>
        <time>2022-08-26T20:41:18Z</time>
      </trkpt>
      <trkpt lat="45.81557" lon="6.72622">
        <ele>1497</ele>
        <time>2022-08-26T20:41:20Z</time>
      </trkpt>
      <trkpt lat="45.81555" lon="6.72622">
        <ele>1497</ele>
        <time>2022-08-26T20:41:21Z</time>
      </trkpt>
      <trkpt lat="45.81553" lon="6.72622">
        <ele>1497</ele>
        <time>2022-08-26T20:41:22Z</time>
      </trkpt>
      <trkpt lat="45.81551" lon="6.72623">
        <ele>1497</ele>
        <time>2022-08-26T20:41:23Z</time>
      </trkpt>
      <trkpt lat="45.81547" lon="6.72623">
        <ele>1498</ele>
        <time>2022-08-26T20:41:26Z</time>
      </trkpt>
      <trkpt lat="45.81544" lon="6.72624">
        <ele>1498</ele>
        <time>2022-08-26T20:41:27Z</time>
      </trkpt>
      <trkpt lat="45.8154" lon="6.72625">
        <ele>1498</ele>
        <time>2022-08-26T20:41:28Z</time>
      </trkpt>
      <trkpt lat="45.81539" lon="6.72625">
        <ele>1498</ele>
        <time>2022-08-26T20:41:29Z</time>
      </trkpt>
      <trkpt lat="45.81536" lon="6.72624">
        <ele>1498</ele>
        <time>2022-08-26T20:41:30Z</time>
      </trkpt>
      <trkpt lat="45.81534" lon="6.72624">
        <ele>1498</ele>
        <time>2022-08-26T20:41:31Z</time>
      </trkpt>
      <trkpt lat="45.81532" lon="6.72624">
        <ele>1498</ele>
        <time>2022-08-26T20:41:32Z</time>
      </trkpt>
      <trkpt lat="45.8153" lon="6.72623">
        <ele>1498</ele>
        <time>2022-08-26T20:41:33Z</time>
      </trkpt>
      <trkpt lat="45.81525" lon="6.72623">
        <ele>1498</ele>
        <time>2022-08-26T20:41:35Z</time>
      </trkpt>
      <trkpt lat="45.81524" lon="6.72623">
        <ele>1498</ele>
        <time>2022-08-26T20:41:36Z</time>
      </trkpt>
      <trkpt lat="45.8152" lon="6.72623">
        <ele>1498</ele>
        <time>2022-08-26T20:41:37Z</time>
      </trkpt>
      <trkpt lat="45.81519" lon="6.72623">
        <ele>1498</ele>
        <time>2022-08-26T20:41:38Z</time>
      </trkpt>
      <trkpt lat="45.81516" lon="6.72623">
        <ele>1498</ele>
        <time>2022-08-26T20:41:39Z</time>
      </trkpt>
      <trkpt lat="45.81514" lon="6.72623">
        <ele>1498</ele>
        <time>2022-08-26T20:41:40Z</time>
      </trkpt>
      <trkpt lat="45.81512" lon="6.72623">
        <ele>1498</ele>
        <time>2022-08-26T20:41:41Z</time>
      </trkpt>
      <trkpt lat="45.8151" lon="6.72623">
        <ele>1499</ele>
        <time>2022-08-26T20:41:42Z</time>
      </trkpt>
      <trkpt lat="45.81508" lon="6.72623">
        <ele>1499</ele>
        <time>2022-08-26T20:41:43Z</time>
      </trkpt>
      <trkpt lat="45.81504" lon="6.72623">
        <ele>1499</ele>
        <time>2022-08-26T20:41:44Z</time>
      </trkpt>
      <trkpt lat="45.81503" lon="6.72623">
        <ele>1500</ele>
        <time>2022-08-26T20:41:45Z</time>
      </trkpt>
      <trkpt lat="45.81501" lon="6.72623">
        <ele>1500</ele>
        <time>2022-08-26T20:41:46Z</time>
      </trkpt>
      <trkpt lat="45.81499" lon="6.72622">
        <ele>1500</ele>
        <time>2022-08-26T20:41:47Z</time>
      </trkpt>
      <trkpt lat="45.81497" lon="6.72622">
        <ele>1500</ele>
        <time>2022-08-26T20:41:48Z</time>
      </trkpt>
      <trkpt lat="45.81496" lon="6.72621">
        <ele>1500</ele>
        <time>2022-08-26T20:41:49Z</time>
      </trkpt>
      <trkpt lat="45.81494" lon="6.72621">
        <ele>1500</ele>
        <time>2022-08-26T20:41:50Z</time>
      </trkpt>
      <trkpt lat="45.81491" lon="6.7262">
        <ele>1500</ele>
        <time>2022-08-26T20:41:52Z</time>
      </trkpt>
      <trkpt lat="45.81489" lon="6.72621">
        <ele>1500</ele>
        <time>2022-08-26T20:41:53Z</time>
      </trkpt>
      <trkpt lat="45.81487" lon="6.72621">
        <ele>1500</ele>
        <time>2022-08-26T20:41:54Z</time>
      </trkpt>
      <trkpt lat="45.81485" lon="6.72621">
        <ele>1500</ele>
        <time>2022-08-26T20:41:55Z</time>
      </trkpt>
      <trkpt lat="45.81481" lon="6.72622">
        <ele>1501</ele>
        <time>2022-08-26T20:41:57Z</time>
      </trkpt>
      <trkpt lat="45.81478" lon="6.72622">
        <ele>1501</ele>
        <time>2022-08-26T20:41:59Z</time>
      </trkpt>
      <trkpt lat="45.81476" lon="6.72622">
        <ele>1501</ele>
        <time>2022-08-26T20:42:00Z</time>
      </trkpt>
      <trkpt lat="45.81474" lon="6.72622">
        <ele>1501</ele>
        <time>2022-08-26T20:42:01Z</time>
      </trkpt>
      <trkpt lat="45.81472" lon="6.72622">
        <ele>1501</ele>
        <time>2022-08-26T20:42:02Z</time>
      </trkpt>
      <trkpt lat="45.81469" lon="6.72622">
        <ele>1501</ele>
        <time>2022-08-26T20:42:03Z</time>
      </trkpt>
      <trkpt lat="45.81468" lon="6.72623">
        <ele>1500</ele>
        <time>2022-08-26T20:42:04Z</time>
      </trkpt>
      <trkpt lat="45.81465" lon="6.72623">
        <ele>1501</ele>
        <time>2022-08-26T20:42:05Z</time>
      </trkpt>
      <trkpt lat="45.81463" lon="6.72624">
        <ele>1501</ele>
        <time>2022-08-26T20:42:06Z</time>
      </trkpt>
      <trkpt lat="45.81461" lon="6.72625">
        <ele>1501</ele>
        <time>2022-08-26T20:42:07Z</time>
      </trkpt>
      <trkpt lat="45.81458" lon="6.72625">
        <ele>1501</ele>
        <time>2022-08-26T20:42:08Z</time>
      </trkpt>
      <trkpt lat="45.81457" lon="6.72625">
        <ele>1501</ele>
        <time>2022-08-26T20:42:09Z</time>
      </trkpt>
      <trkpt lat="45.81454" lon="6.72626">
        <ele>1501</ele>
        <time>2022-08-26T20:42:10Z</time>
      </trkpt>
      <trkpt lat="45.81453" lon="6.72626">
        <ele>1500</ele>
        <time>2022-08-26T20:42:12Z</time>
      </trkpt>
      <trkpt lat="45.81448" lon="6.72629">
        <ele>1500</ele>
        <time>2022-08-26T20:42:14Z</time>
      </trkpt>
      <trkpt lat="45.81446" lon="6.7263">
        <ele>1500</ele>
        <time>2022-08-26T20:42:15Z</time>
      </trkpt>
      <trkpt lat="45.81445" lon="6.72632">
        <ele>1500</ele>
        <time>2022-08-26T20:42:16Z</time>
      </trkpt>
      <trkpt lat="45.81443" lon="6.72634">
        <ele>1501</ele>
        <time>2022-08-26T20:42:17Z</time>
      </trkpt>
      <trkpt lat="45.81441" lon="6.72636">
        <ele>1501</ele>
        <time>2022-08-26T20:42:18Z</time>
      </trkpt>
      <trkpt lat="45.81439" lon="6.72637">
        <ele>1500</ele>
        <time>2022-08-26T20:42:19Z</time>
      </trkpt>
      <trkpt lat="45.81437" lon="6.7264">
        <ele>1500</ele>
        <time>2022-08-26T20:42:20Z</time>
      </trkpt>
      <trkpt lat="45.81435" lon="6.72642">
        <ele>1500</ele>
        <time>2022-08-26T20:42:22Z</time>
      </trkpt>
      <trkpt lat="45.81433" lon="6.72645">
        <ele>1500</ele>
        <time>2022-08-26T20:42:23Z</time>
      </trkpt>
      <trkpt lat="45.81431" lon="6.72648">
        <ele>1500</ele>
        <time>2022-08-26T20:42:24Z</time>
      </trkpt>
      <trkpt lat="45.81429" lon="6.7265">
        <ele>1500</ele>
        <time>2022-08-26T20:42:25Z</time>
      </trkpt>
      <trkpt lat="45.81426" lon="6.72654">
        <ele>1500</ele>
        <time>2022-08-26T20:42:27Z</time>
      </trkpt>
      <trkpt lat="45.81425" lon="6.72656">
        <ele>1500</ele>
        <time>2022-08-26T20:42:28Z</time>
      </trkpt>
      <trkpt lat="45.81423" lon="6.72658">
        <ele>1500</ele>
        <time>2022-08-26T20:42:29Z</time>
      </trkpt>
      <trkpt lat="45.81421" lon="6.72659">
        <ele>1500</ele>
        <time>2022-08-26T20:42:30Z</time>
      </trkpt>
      <trkpt lat="45.8142" lon="6.72661">
        <ele>1500</ele>
        <time>2022-08-26T20:42:32Z</time>
      </trkpt>
      <trkpt lat="45.81415" lon="6.72666">
        <ele>1501</ele>
        <time>2022-08-26T20:42:34Z</time>
      </trkpt>
      <trkpt lat="45.81414" lon="6.72668">
        <ele>1501</ele>
        <time>2022-08-26T20:42:35Z</time>
      </trkpt>
      <trkpt lat="45.81411" lon="6.72672">
        <ele>1502</ele>
        <time>2022-08-26T20:42:37Z</time>
      </trkpt>
      <trkpt lat="45.8141" lon="6.72673">
        <ele>1502</ele>
        <time>2022-08-26T20:42:38Z</time>
      </trkpt>
      <trkpt lat="45.81408" lon="6.72675">
        <ele>1502</ele>
        <time>2022-08-26T20:42:40Z</time>
      </trkpt>
      <trkpt lat="45.81405" lon="6.72677">
        <ele>1502</ele>
        <time>2022-08-26T20:42:41Z</time>
      </trkpt>
      <trkpt lat="45.81403" lon="6.72679">
        <ele>1502</ele>
        <time>2022-08-26T20:42:42Z</time>
      </trkpt>
      <trkpt lat="45.81402" lon="6.7268">
        <ele>1502</ele>
        <time>2022-08-26T20:42:43Z</time>
      </trkpt>
      <trkpt lat="45.814" lon="6.72681">
        <ele>1502</ele>
        <time>2022-08-26T20:42:44Z</time>
      </trkpt>
      <trkpt lat="45.81398" lon="6.72683">
        <ele>1502</ele>
        <time>2022-08-26T20:42:45Z</time>
      </trkpt>
      <trkpt lat="45.81394" lon="6.72684">
        <ele>1502</ele>
        <time>2022-08-26T20:42:46Z</time>
      </trkpt>
      <trkpt lat="45.81393" lon="6.72685">
        <ele>1502</ele>
        <time>2022-08-26T20:42:47Z</time>
      </trkpt>
      <trkpt lat="45.81389" lon="6.72687">
        <ele>1502</ele>
        <time>2022-08-26T20:42:49Z</time>
      </trkpt>
      <trkpt lat="45.81387" lon="6.72688">
        <ele>1502</ele>
        <time>2022-08-26T20:42:50Z</time>
      </trkpt>
      <trkpt lat="45.81384" lon="6.7269">
        <ele>1502</ele>
        <time>2022-08-26T20:42:52Z</time>
      </trkpt>
      <trkpt lat="45.81381" lon="6.72692">
        <ele>1502</ele>
        <time>2022-08-26T20:42:54Z</time>
      </trkpt>
      <trkpt lat="45.81378" lon="6.72694">
        <ele>1502</ele>
        <time>2022-08-26T20:42:56Z</time>
      </trkpt>
      <trkpt lat="45.81375" lon="6.72695">
        <ele>1502</ele>
        <time>2022-08-26T20:42:57Z</time>
      </trkpt>
      <trkpt lat="45.81373" lon="6.72696">
        <ele>1502</ele>
        <time>2022-08-26T20:42:58Z</time>
      </trkpt>
      <trkpt lat="45.81371" lon="6.72696">
        <ele>1502</ele>
        <time>2022-08-26T20:42:59Z</time>
      </trkpt>
      <trkpt lat="45.81369" lon="6.72697">
        <ele>1502</ele>
        <time>2022-08-26T20:43:00Z</time>
      </trkpt>
      <trkpt lat="45.81367" lon="6.72697">
        <ele>1502</ele>
        <time>2022-08-26T20:43:01Z</time>
      </trkpt>
      <trkpt lat="45.81365" lon="6.72697">
        <ele>1502</ele>
        <time>2022-08-26T20:43:02Z</time>
      </trkpt>
      <trkpt lat="45.81362" lon="6.72697">
        <ele>1502</ele>
        <time>2022-08-26T20:43:04Z</time>
      </trkpt>
      <trkpt lat="45.81359" lon="6.72697">
        <ele>1502</ele>
        <time>2022-08-26T20:43:06Z</time>
      </trkpt>
      <trkpt lat="45.81356" lon="6.72696">
        <ele>1502</ele>
        <time>2022-08-26T20:43:08Z</time>
      </trkpt>
      <trkpt lat="45.81353" lon="6.72696">
        <ele>1502</ele>
        <time>2022-08-26T20:43:10Z</time>
      </trkpt>
      <trkpt lat="45.8135" lon="6.72694">
        <ele>1503</ele>
        <time>2022-08-26T20:43:12Z</time>
      </trkpt>
      <trkpt lat="45.81347" lon="6.72694">
        <ele>1503</ele>
        <time>2022-08-26T20:43:15Z</time>
      </trkpt>
      <trkpt lat="45.81344" lon="6.72694">
        <ele>1503</ele>
        <time>2022-08-26T20:43:16Z</time>
      </trkpt>
      <trkpt lat="45.81342" lon="6.72695">
        <ele>1503</ele>
        <time>2022-08-26T20:43:18Z</time>
      </trkpt>
      <trkpt lat="45.81339" lon="6.72695">
        <ele>1503</ele>
        <time>2022-08-26T20:43:20Z</time>
      </trkpt>
      <trkpt lat="45.81336" lon="6.72695">
        <ele>1503</ele>
        <time>2022-08-26T20:43:23Z</time>
      </trkpt>
      <trkpt lat="45.81333" lon="6.72695">
        <ele>1503</ele>
        <time>2022-08-26T20:43:25Z</time>
      </trkpt>
      <trkpt lat="45.81331" lon="6.72694">
        <ele>1503</ele>
        <time>2022-08-26T20:43:26Z</time>
      </trkpt>
      <trkpt lat="45.81327" lon="6.72694">
        <ele>1504</ele>
        <time>2022-08-26T20:43:28Z</time>
      </trkpt>
      <trkpt lat="45.81324" lon="6.72694">
        <ele>1504</ele>
        <time>2022-08-26T20:43:30Z</time>
      </trkpt>
      <trkpt lat="45.81321" lon="6.72693">
        <ele>1504</ele>
        <time>2022-08-26T20:43:32Z</time>
      </trkpt>
      <trkpt lat="45.81317" lon="6.72693">
        <ele>1504</ele>
        <time>2022-08-26T20:43:34Z</time>
      </trkpt>
      <trkpt lat="45.81314" lon="6.72693">
        <ele>1504</ele>
        <time>2022-08-26T20:43:36Z</time>
      </trkpt>
      <trkpt lat="45.81311" lon="6.72693">
        <ele>1504</ele>
        <time>2022-08-26T20:43:38Z</time>
      </trkpt>
      <trkpt lat="45.81309" lon="6.72693">
        <ele>1504</ele>
        <time>2022-08-26T20:43:40Z</time>
      </trkpt>
      <trkpt lat="45.81306" lon="6.72693">
        <ele>1504</ele>
        <time>2022-08-26T20:43:42Z</time>
      </trkpt>
      <trkpt lat="45.81302" lon="6.72692">
        <ele>1504</ele>
        <time>2022-08-26T20:43:44Z</time>
      </trkpt>
      <trkpt lat="45.81299" lon="6.72691">
        <ele>1504</ele>
        <time>2022-08-26T20:43:47Z</time>
      </trkpt>
      <trkpt lat="45.81295" lon="6.72689">
        <ele>1504</ele>
        <time>2022-08-26T20:43:48Z</time>
      </trkpt>
      <trkpt lat="45.81294" lon="6.72689">
        <ele>1504</ele>
        <time>2022-08-26T20:43:49Z</time>
      </trkpt>
      <trkpt lat="45.81292" lon="6.72688">
        <ele>1504</ele>
        <time>2022-08-26T20:43:50Z</time>
      </trkpt>
      <trkpt lat="45.8129" lon="6.72687">
        <ele>1504</ele>
        <time>2022-08-26T20:43:51Z</time>
      </trkpt>
      <trkpt lat="45.81287" lon="6.72687">
        <ele>1504</ele>
        <time>2022-08-26T20:43:54Z</time>
      </trkpt>
      <trkpt lat="45.81283" lon="6.72687">
        <ele>1504</ele>
        <time>2022-08-26T20:43:55Z</time>
      </trkpt>
      <trkpt lat="45.81282" lon="6.72687">
        <ele>1504</ele>
        <time>2022-08-26T20:43:56Z</time>
      </trkpt>
      <trkpt lat="45.8128" lon="6.72687">
        <ele>1504</ele>
        <time>2022-08-26T20:43:57Z</time>
      </trkpt>
      <trkpt lat="45.81277" lon="6.72688">
        <ele>1504</ele>
        <time>2022-08-26T20:43:58Z</time>
      </trkpt>
      <trkpt lat="45.81276" lon="6.72689">
        <ele>1504</ele>
        <time>2022-08-26T20:43:59Z</time>
      </trkpt>
      <trkpt lat="45.81273" lon="6.72689">
        <ele>1504</ele>
        <time>2022-08-26T20:44:00Z</time>
      </trkpt>
      <trkpt lat="45.8127" lon="6.7269">
        <ele>1505</ele>
        <time>2022-08-26T20:44:02Z</time>
      </trkpt>
      <trkpt lat="45.81268" lon="6.7269">
        <ele>1505</ele>
        <time>2022-08-26T20:44:04Z</time>
      </trkpt>
      <trkpt lat="45.81266" lon="6.72691">
        <ele>1505</ele>
        <time>2022-08-26T20:44:05Z</time>
      </trkpt>
      <trkpt lat="45.81264" lon="6.72692">
        <ele>1505</ele>
        <time>2022-08-26T20:44:06Z</time>
      </trkpt>
      <trkpt lat="45.81261" lon="6.72692">
        <ele>1505</ele>
        <time>2022-08-26T20:44:07Z</time>
      </trkpt>
      <trkpt lat="45.81256" lon="6.72692">
        <ele>1506</ele>
        <time>2022-08-26T20:44:10Z</time>
      </trkpt>
      <trkpt lat="45.81255" lon="6.72693">
        <ele>1506</ele>
        <time>2022-08-26T20:44:11Z</time>
      </trkpt>
      <trkpt lat="45.81253" lon="6.72693">
        <ele>1506</ele>
        <time>2022-08-26T20:44:12Z</time>
      </trkpt>
      <trkpt lat="45.8125" lon="6.72694">
        <ele>1507</ele>
        <time>2022-08-26T20:44:13Z</time>
      </trkpt>
      <trkpt lat="45.81247" lon="6.72694">
        <ele>1507</ele>
        <time>2022-08-26T20:44:14Z</time>
      </trkpt>
      <trkpt lat="45.81246" lon="6.72694">
        <ele>1507</ele>
        <time>2022-08-26T20:44:15Z</time>
      </trkpt>
      <trkpt lat="45.81243" lon="6.72694">
        <ele>1507</ele>
        <time>2022-08-26T20:44:17Z</time>
      </trkpt>
      <trkpt lat="45.8124" lon="6.72693">
        <ele>1506</ele>
        <time>2022-08-26T20:44:19Z</time>
      </trkpt>
      <trkpt lat="45.81235" lon="6.72693">
        <ele>1506</ele>
        <time>2022-08-26T20:44:21Z</time>
      </trkpt>
      <trkpt lat="45.81234" lon="6.72693">
        <ele>1506</ele>
        <time>2022-08-26T20:44:22Z</time>
      </trkpt>
      <trkpt lat="45.81232" lon="6.72693">
        <ele>1506</ele>
        <time>2022-08-26T20:44:23Z</time>
      </trkpt>
      <trkpt lat="45.81229" lon="6.72692">
        <ele>1506</ele>
        <time>2022-08-26T20:44:25Z</time>
      </trkpt>
      <trkpt lat="45.81227" lon="6.72691">
        <ele>1506</ele>
        <time>2022-08-26T20:44:26Z</time>
      </trkpt>
      <trkpt lat="45.81225" lon="6.72691">
        <ele>1505</ele>
        <time>2022-08-26T20:44:28Z</time>
      </trkpt>
      <trkpt lat="45.81222" lon="6.72692">
        <ele>1504</ele>
        <time>2022-08-26T20:44:30Z</time>
      </trkpt>
      <trkpt lat="45.8122" lon="6.72692">
        <ele>1504</ele>
        <time>2022-08-26T20:44:32Z</time>
      </trkpt>
      <trkpt lat="45.81216" lon="6.72693">
        <ele>1504</ele>
        <time>2022-08-26T20:44:34Z</time>
      </trkpt>
      <trkpt lat="45.81214" lon="6.72694">
        <ele>1504</ele>
        <time>2022-08-26T20:44:36Z</time>
      </trkpt>
      <trkpt lat="45.8121" lon="6.72696">
        <ele>1504</ele>
        <time>2022-08-26T20:44:38Z</time>
      </trkpt>
      <trkpt lat="45.81208" lon="6.72696">
        <ele>1504</ele>
        <time>2022-08-26T20:44:39Z</time>
      </trkpt>
      <trkpt lat="45.81206" lon="6.72697">
        <ele>1505</ele>
        <time>2022-08-26T20:44:40Z</time>
      </trkpt>
      <trkpt lat="45.81203" lon="6.72697">
        <ele>1505</ele>
        <time>2022-08-26T20:44:41Z</time>
      </trkpt>
      <trkpt lat="45.81201" lon="6.72697">
        <ele>1505</ele>
        <time>2022-08-26T20:44:42Z</time>
      </trkpt>
      <trkpt lat="45.81199" lon="6.72697">
        <ele>1505</ele>
        <time>2022-08-26T20:44:43Z</time>
      </trkpt>
      <trkpt lat="45.81195" lon="6.72698">
        <ele>1505</ele>
        <time>2022-08-26T20:44:44Z</time>
      </trkpt>
      <trkpt lat="45.81193" lon="6.72698">
        <ele>1505</ele>
        <time>2022-08-26T20:44:45Z</time>
      </trkpt>
      <trkpt lat="45.81192" lon="6.72698">
        <ele>1505</ele>
        <time>2022-08-26T20:44:46Z</time>
      </trkpt>
      <trkpt lat="45.81189" lon="6.72698">
        <ele>1505</ele>
        <time>2022-08-26T20:44:47Z</time>
      </trkpt>
      <trkpt lat="45.81187" lon="6.72698">
        <ele>1505</ele>
        <time>2022-08-26T20:44:48Z</time>
      </trkpt>
      <trkpt lat="45.81184" lon="6.72699">
        <ele>1505</ele>
        <time>2022-08-26T20:44:49Z</time>
      </trkpt>
      <trkpt lat="45.81182" lon="6.727">
        <ele>1505</ele>
        <time>2022-08-26T20:44:50Z</time>
      </trkpt>
      <trkpt lat="45.8118" lon="6.727">
        <ele>1505</ele>
        <time>2022-08-26T20:44:51Z</time>
      </trkpt>
      <trkpt lat="45.81178" lon="6.72701">
        <ele>1505</ele>
        <time>2022-08-26T20:44:52Z</time>
      </trkpt>
      <trkpt lat="45.81175" lon="6.72701">
        <ele>1505</ele>
        <time>2022-08-26T20:44:53Z</time>
      </trkpt>
      <trkpt lat="45.81173" lon="6.72701">
        <ele>1505</ele>
        <time>2022-08-26T20:44:54Z</time>
      </trkpt>
      <trkpt lat="45.8117" lon="6.72703">
        <ele>1505</ele>
        <time>2022-08-26T20:44:56Z</time>
      </trkpt>
      <trkpt lat="45.81166" lon="6.72703">
        <ele>1505</ele>
        <time>2022-08-26T20:44:58Z</time>
      </trkpt>
      <trkpt lat="45.81164" lon="6.72703">
        <ele>1505</ele>
        <time>2022-08-26T20:44:59Z</time>
      </trkpt>
      <trkpt lat="45.81161" lon="6.72703">
        <ele>1505</ele>
        <time>2022-08-26T20:45:01Z</time>
      </trkpt>
      <trkpt lat="45.81158" lon="6.72704">
        <ele>1505</ele>
        <time>2022-08-26T20:45:03Z</time>
      </trkpt>
      <trkpt lat="45.81155" lon="6.72705">
        <ele>1505</ele>
        <time>2022-08-26T20:45:05Z</time>
      </trkpt>
      <trkpt lat="45.81153" lon="6.72705">
        <ele>1505</ele>
        <time>2022-08-26T20:45:07Z</time>
      </trkpt>
      <trkpt lat="45.81151" lon="6.72705">
        <ele>1506</ele>
        <time>2022-08-26T20:45:09Z</time>
      </trkpt>
      <trkpt lat="45.81148" lon="6.72705">
        <ele>1506</ele>
        <time>2022-08-26T20:45:11Z</time>
      </trkpt>
      <trkpt lat="45.81145" lon="6.72706">
        <ele>1506</ele>
        <time>2022-08-26T20:45:14Z</time>
      </trkpt>
      <trkpt lat="45.81143" lon="6.72707">
        <ele>1506</ele>
        <time>2022-08-26T20:45:15Z</time>
      </trkpt>
      <trkpt lat="45.81141" lon="6.72709">
        <ele>1507</ele>
        <time>2022-08-26T20:45:17Z</time>
      </trkpt>
      <trkpt lat="45.81138" lon="6.72711">
        <ele>1507</ele>
        <time>2022-08-26T20:45:19Z</time>
      </trkpt>
      <trkpt lat="45.81135" lon="6.72712">
        <ele>1508</ele>
        <time>2022-08-26T20:45:21Z</time>
      </trkpt>
      <trkpt lat="45.81132" lon="6.72713">
        <ele>1508</ele>
        <time>2022-08-26T20:45:24Z</time>
      </trkpt>
      <trkpt lat="45.8113" lon="6.72714">
        <ele>1507</ele>
        <time>2022-08-26T20:45:26Z</time>
      </trkpt>
      <trkpt lat="45.81127" lon="6.72715">
        <ele>1507</ele>
        <time>2022-08-26T20:45:27Z</time>
      </trkpt>
      <trkpt lat="45.81125" lon="6.72716">
        <ele>1507</ele>
        <time>2022-08-26T20:45:29Z</time>
      </trkpt>
      <trkpt lat="45.81122" lon="6.72717">
        <ele>1507</ele>
        <time>2022-08-26T20:45:31Z</time>
      </trkpt>
      <trkpt lat="45.8112" lon="6.72719">
        <ele>1507</ele>
        <time>2022-08-26T20:45:33Z</time>
      </trkpt>
      <trkpt lat="45.81118" lon="6.7272">
        <ele>1507</ele>
        <time>2022-08-26T20:45:34Z</time>
      </trkpt>
      <trkpt lat="45.81116" lon="6.72722">
        <ele>1507</ele>
        <time>2022-08-26T20:45:36Z</time>
      </trkpt>
      <trkpt lat="45.81113" lon="6.72723">
        <ele>1507</ele>
        <time>2022-08-26T20:45:37Z</time>
      </trkpt>
      <trkpt lat="45.81111" lon="6.72724">
        <ele>1507</ele>
        <time>2022-08-26T20:45:38Z</time>
      </trkpt>
      <trkpt lat="45.81109" lon="6.72725">
        <ele>1507</ele>
        <time>2022-08-26T20:45:39Z</time>
      </trkpt>
      <trkpt lat="45.81108" lon="6.72727">
        <ele>1507</ele>
        <time>2022-08-26T20:45:40Z</time>
      </trkpt>
      <trkpt lat="45.81105" lon="6.72734">
        <ele>1507</ele>
        <time>2022-08-26T20:45:42Z</time>
      </trkpt>
      <trkpt lat="45.81105" lon="6.72736">
        <ele>1507</ele>
        <time>2022-08-26T20:45:43Z</time>
      </trkpt>
      <trkpt lat="45.81104" lon="6.7274">
        <ele>1507</ele>
        <time>2022-08-26T20:45:44Z</time>
      </trkpt>
      <trkpt lat="45.81104" lon="6.72742">
        <ele>1507</ele>
        <time>2022-08-26T20:45:45Z</time>
      </trkpt>
      <trkpt lat="45.81103" lon="6.72746">
        <ele>1507</ele>
        <time>2022-08-26T20:45:46Z</time>
      </trkpt>
      <trkpt lat="45.81102" lon="6.72748">
        <ele>1507</ele>
        <time>2022-08-26T20:45:47Z</time>
      </trkpt>
      <trkpt lat="45.81101" lon="6.7275">
        <ele>1507</ele>
        <time>2022-08-26T20:45:48Z</time>
      </trkpt>
      <trkpt lat="45.81098" lon="6.72753">
        <ele>1507</ele>
        <time>2022-08-26T20:45:49Z</time>
      </trkpt>
      <trkpt lat="45.81097" lon="6.72753">
        <ele>1507</ele>
        <time>2022-08-26T20:45:50Z</time>
      </trkpt>
      <trkpt lat="45.81094" lon="6.72754">
        <ele>1507</ele>
        <time>2022-08-26T20:45:51Z</time>
      </trkpt>
      <trkpt lat="45.81093" lon="6.72754">
        <ele>1507</ele>
        <time>2022-08-26T20:45:52Z</time>
      </trkpt>
      <trkpt lat="45.81091" lon="6.72753">
        <ele>1507</ele>
        <time>2022-08-26T20:45:53Z</time>
      </trkpt>
      <trkpt lat="45.81088" lon="6.72753">
        <ele>1507</ele>
        <time>2022-08-26T20:45:54Z</time>
      </trkpt>
      <trkpt lat="45.81086" lon="6.72752">
        <ele>1507</ele>
        <time>2022-08-26T20:45:55Z</time>
      </trkpt>
      <trkpt lat="45.81084" lon="6.72752">
        <ele>1507</ele>
        <time>2022-08-26T20:45:56Z</time>
      </trkpt>
      <trkpt lat="45.81082" lon="6.72752">
        <ele>1507</ele>
        <time>2022-08-26T20:45:57Z</time>
      </trkpt>
      <trkpt lat="45.81079" lon="6.72751">
        <ele>1506</ele>
        <time>2022-08-26T20:45:59Z</time>
      </trkpt>
      <trkpt lat="45.81076" lon="6.72751">
        <ele>1506</ele>
        <time>2022-08-26T20:46:00Z</time>
      </trkpt>
      <trkpt lat="45.81073" lon="6.7275">
        <ele>1506</ele>
        <time>2022-08-26T20:46:01Z</time>
      </trkpt>
      <trkpt lat="45.81071" lon="6.7275">
        <ele>1506</ele>
        <time>2022-08-26T20:46:02Z</time>
      </trkpt>
      <trkpt lat="45.81068" lon="6.7275">
        <ele>1506</ele>
        <time>2022-08-26T20:46:03Z</time>
      </trkpt>
      <trkpt lat="45.81066" lon="6.72749">
        <ele>1506</ele>
        <time>2022-08-26T20:46:04Z</time>
      </trkpt>
      <trkpt lat="45.81062" lon="6.72748">
        <ele>1506</ele>
        <time>2022-08-26T20:46:05Z</time>
      </trkpt>
      <trkpt lat="45.81061" lon="6.72747">
        <ele>1506</ele>
        <time>2022-08-26T20:46:06Z</time>
      </trkpt>
      <trkpt lat="45.81059" lon="6.72746">
        <ele>1506</ele>
        <time>2022-08-26T20:46:07Z</time>
      </trkpt>
      <trkpt lat="45.81056" lon="6.72745">
        <ele>1506</ele>
        <time>2022-08-26T20:46:08Z</time>
      </trkpt>
      <trkpt lat="45.81055" lon="6.72744">
        <ele>1506</ele>
        <time>2022-08-26T20:46:09Z</time>
      </trkpt>
      <trkpt lat="45.81051" lon="6.72743">
        <ele>1506</ele>
        <time>2022-08-26T20:46:10Z</time>
      </trkpt>
      <trkpt lat="45.8105" lon="6.72742">
        <ele>1506</ele>
        <time>2022-08-26T20:46:11Z</time>
      </trkpt>
      <trkpt lat="45.81048" lon="6.72741">
        <ele>1506</ele>
        <time>2022-08-26T20:46:12Z</time>
      </trkpt>
      <trkpt lat="45.81046" lon="6.7274">
        <ele>1506</ele>
        <time>2022-08-26T20:46:13Z</time>
      </trkpt>
      <trkpt lat="45.81044" lon="6.72739">
        <ele>1506</ele>
        <time>2022-08-26T20:46:14Z</time>
      </trkpt>
      <trkpt lat="45.81039" lon="6.72737">
        <ele>1506</ele>
        <time>2022-08-26T20:46:16Z</time>
      </trkpt>
      <trkpt lat="45.81037" lon="6.72737">
        <ele>1506</ele>
        <time>2022-08-26T20:46:17Z</time>
      </trkpt>
      <trkpt lat="45.81035" lon="6.72737">
        <ele>1506</ele>
        <time>2022-08-26T20:46:18Z</time>
      </trkpt>
      <trkpt lat="45.81032" lon="6.72736">
        <ele>1506</ele>
        <time>2022-08-26T20:46:19Z</time>
      </trkpt>
      <trkpt lat="45.8103" lon="6.72736">
        <ele>1506</ele>
        <time>2022-08-26T20:46:20Z</time>
      </trkpt>
      <trkpt lat="45.81028" lon="6.72735">
        <ele>1506</ele>
        <time>2022-08-26T20:46:21Z</time>
      </trkpt>
      <trkpt lat="45.81025" lon="6.72735">
        <ele>1506</ele>
        <time>2022-08-26T20:46:22Z</time>
      </trkpt>
      <trkpt lat="45.81023" lon="6.72735">
        <ele>1506</ele>
        <time>2022-08-26T20:46:23Z</time>
      </trkpt>
      <trkpt lat="45.81019" lon="6.72734">
        <ele>1506</ele>
        <time>2022-08-26T20:46:25Z</time>
      </trkpt>
      <trkpt lat="45.81016" lon="6.72733">
        <ele>1506</ele>
        <time>2022-08-26T20:46:26Z</time>
      </trkpt>
      <trkpt lat="45.81013" lon="6.72732">
        <ele>1506</ele>
        <time>2022-08-26T20:46:27Z</time>
      </trkpt>
      <trkpt lat="45.81012" lon="6.72732">
        <ele>1506</ele>
        <time>2022-08-26T20:46:28Z</time>
      </trkpt>
      <trkpt lat="45.81008" lon="6.7273">
        <ele>1506</ele>
        <time>2022-08-26T20:46:29Z</time>
      </trkpt>
      <trkpt lat="45.81007" lon="6.7273">
        <ele>1506</ele>
        <time>2022-08-26T20:46:30Z</time>
      </trkpt>
      <trkpt lat="45.81006" lon="6.7273">
        <ele>1506</ele>
        <time>2022-08-26T20:46:31Z</time>
      </trkpt>
      <trkpt lat="45.81003" lon="6.72728">
        <ele>1506</ele>
        <time>2022-08-26T20:46:32Z</time>
      </trkpt>
      <trkpt lat="45.81001" lon="6.72727">
        <ele>1506</ele>
        <time>2022-08-26T20:46:33Z</time>
      </trkpt>
      <trkpt lat="45.80999" lon="6.72726">
        <ele>1506</ele>
        <time>2022-08-26T20:46:34Z</time>
      </trkpt>
      <trkpt lat="45.80997" lon="6.72726">
        <ele>1506</ele>
        <time>2022-08-26T20:46:35Z</time>
      </trkpt>
      <trkpt lat="45.80995" lon="6.72725">
        <ele>1507</ele>
        <time>2022-08-26T20:46:36Z</time>
      </trkpt>
      <trkpt lat="45.80993" lon="6.72724">
        <ele>1507</ele>
        <time>2022-08-26T20:46:37Z</time>
      </trkpt>
      <trkpt lat="45.80989" lon="6.72723">
        <ele>1507</ele>
        <time>2022-08-26T20:46:40Z</time>
      </trkpt>
      <trkpt lat="45.80985" lon="6.72723">
        <ele>1507</ele>
        <time>2022-08-26T20:46:41Z</time>
      </trkpt>
      <trkpt lat="45.80984" lon="6.72723">
        <ele>1507</ele>
        <time>2022-08-26T20:46:43Z</time>
      </trkpt>
      <trkpt lat="45.80979" lon="6.72721">
        <ele>1507</ele>
        <time>2022-08-26T20:46:44Z</time>
      </trkpt>
      <trkpt lat="45.80978" lon="6.72721">
        <ele>1507</ele>
        <time>2022-08-26T20:46:45Z</time>
      </trkpt>
      <trkpt lat="45.80976" lon="6.7272">
        <ele>1507</ele>
        <time>2022-08-26T20:46:46Z</time>
      </trkpt>
      <trkpt lat="45.80974" lon="6.7272">
        <ele>1507</ele>
        <time>2022-08-26T20:46:47Z</time>
      </trkpt>
      <trkpt lat="45.80968" lon="6.72717">
        <ele>1507</ele>
        <time>2022-08-26T20:46:50Z</time>
      </trkpt>
      <trkpt lat="45.80966" lon="6.72718">
        <ele>1507</ele>
        <time>2022-08-26T20:46:52Z</time>
      </trkpt>
      <trkpt lat="45.80964" lon="6.72717">
        <ele>1507</ele>
        <time>2022-08-26T20:46:53Z</time>
      </trkpt>
      <trkpt lat="45.8096" lon="6.72715">
        <ele>1507</ele>
        <time>2022-08-26T20:46:54Z</time>
      </trkpt>
      <trkpt lat="45.80958" lon="6.72714">
        <ele>1507</ele>
        <time>2022-08-26T20:46:55Z</time>
      </trkpt>
      <trkpt lat="45.80956" lon="6.72713">
        <ele>1507</ele>
        <time>2022-08-26T20:46:56Z</time>
      </trkpt>
      <trkpt lat="45.80953" lon="6.72712">
        <ele>1507</ele>
        <time>2022-08-26T20:46:57Z</time>
      </trkpt>
      <trkpt lat="45.80951" lon="6.7271">
        <ele>1507</ele>
        <time>2022-08-26T20:46:58Z</time>
      </trkpt>
      <trkpt lat="45.80949" lon="6.72709">
        <ele>1507</ele>
        <time>2022-08-26T20:46:59Z</time>
      </trkpt>
      <trkpt lat="45.80946" lon="6.72707">
        <ele>1507</ele>
        <time>2022-08-26T20:47:01Z</time>
      </trkpt>
      <trkpt lat="45.80941" lon="6.72703">
        <ele>1507</ele>
        <time>2022-08-26T20:47:02Z</time>
      </trkpt>
      <trkpt lat="45.8094" lon="6.72702">
        <ele>1508</ele>
        <time>2022-08-26T20:47:03Z</time>
      </trkpt>
      <trkpt lat="45.80937" lon="6.727">
        <ele>1508</ele>
        <time>2022-08-26T20:47:04Z</time>
      </trkpt>
      <trkpt lat="45.80937" lon="6.72699">
        <ele>1508</ele>
        <time>2022-08-26T20:47:05Z</time>
      </trkpt>
      <trkpt lat="45.80935" lon="6.72698">
        <ele>1508</ele>
        <time>2022-08-26T20:47:06Z</time>
      </trkpt>
      <trkpt lat="45.80931" lon="6.72694">
        <ele>1508</ele>
        <time>2022-08-26T20:47:08Z</time>
      </trkpt>
      <trkpt lat="45.80928" lon="6.72692">
        <ele>1508</ele>
        <time>2022-08-26T20:47:09Z</time>
      </trkpt>
      <trkpt lat="45.80926" lon="6.72691">
        <ele>1508</ele>
        <time>2022-08-26T20:47:10Z</time>
      </trkpt>
      <trkpt lat="45.80922" lon="6.72687">
        <ele>1508</ele>
        <time>2022-08-26T20:47:11Z</time>
      </trkpt>
      <trkpt lat="45.80921" lon="6.72686">
        <ele>1508</ele>
        <time>2022-08-26T20:47:12Z</time>
      </trkpt>
      <trkpt lat="45.80919" lon="6.72684">
        <ele>1508</ele>
        <time>2022-08-26T20:47:14Z</time>
      </trkpt>
      <trkpt lat="45.80917" lon="6.72682">
        <ele>1508</ele>
        <time>2022-08-26T20:47:15Z</time>
      </trkpt>
      <trkpt lat="45.80915" lon="6.72679">
        <ele>1508</ele>
        <time>2022-08-26T20:47:16Z</time>
      </trkpt>
      <trkpt lat="45.80913" lon="6.72674">
        <ele>1508</ele>
        <time>2022-08-26T20:47:17Z</time>
      </trkpt>
      <trkpt lat="45.80911" lon="6.72671">
        <ele>1508</ele>
        <time>2022-08-26T20:47:18Z</time>
      </trkpt>
      <trkpt lat="45.80908" lon="6.72666">
        <ele>1508</ele>
        <time>2022-08-26T20:47:20Z</time>
      </trkpt>
      <trkpt lat="45.80907" lon="6.72663">
        <ele>1508</ele>
        <time>2022-08-26T20:47:21Z</time>
      </trkpt>
      <trkpt lat="45.80905" lon="6.72661">
        <ele>1508</ele>
        <time>2022-08-26T20:47:22Z</time>
      </trkpt>
      <trkpt lat="45.80904" lon="6.72658">
        <ele>1508</ele>
        <time>2022-08-26T20:47:23Z</time>
      </trkpt>
      <trkpt lat="45.80903" lon="6.72655">
        <ele>1508</ele>
        <time>2022-08-26T20:47:24Z</time>
      </trkpt>
      <trkpt lat="45.80903" lon="6.72652">
        <ele>1508</ele>
        <time>2022-08-26T20:47:26Z</time>
      </trkpt>
      <trkpt lat="45.80901" lon="6.72648">
        <ele>1508</ele>
        <time>2022-08-26T20:47:28Z</time>
      </trkpt>
      <trkpt lat="45.80898" lon="6.72644">
        <ele>1508</ele>
        <time>2022-08-26T20:47:29Z</time>
      </trkpt>
      <trkpt lat="45.80897" lon="6.72643">
        <ele>1508</ele>
        <time>2022-08-26T20:47:30Z</time>
      </trkpt>
      <trkpt lat="45.80895" lon="6.7264">
        <ele>1509</ele>
        <time>2022-08-26T20:47:31Z</time>
      </trkpt>
      <trkpt lat="45.80894" lon="6.72639">
        <ele>1509</ele>
        <time>2022-08-26T20:47:32Z</time>
      </trkpt>
      <trkpt lat="45.80892" lon="6.72637">
        <ele>1509</ele>
        <time>2022-08-26T20:47:33Z</time>
      </trkpt>
      <trkpt lat="45.8089" lon="6.72636">
        <ele>1509</ele>
        <time>2022-08-26T20:47:34Z</time>
      </trkpt>
      <trkpt lat="45.80887" lon="6.72635">
        <ele>1509</ele>
        <time>2022-08-26T20:47:36Z</time>
      </trkpt>
      <trkpt lat="45.80882" lon="6.72634">
        <ele>1509</ele>
        <time>2022-08-26T20:47:38Z</time>
      </trkpt>
      <trkpt lat="45.8088" lon="6.72634">
        <ele>1509</ele>
        <time>2022-08-26T20:47:39Z</time>
      </trkpt>
      <trkpt lat="45.80878" lon="6.72634">
        <ele>1509</ele>
        <time>2022-08-26T20:47:40Z</time>
      </trkpt>
      <trkpt lat="45.80876" lon="6.72635">
        <ele>1509</ele>
        <time>2022-08-26T20:47:41Z</time>
      </trkpt>
      <trkpt lat="45.80873" lon="6.72635">
        <ele>1509</ele>
        <time>2022-08-26T20:47:42Z</time>
      </trkpt>
      <trkpt lat="45.80872" lon="6.72636">
        <ele>1509</ele>
        <time>2022-08-26T20:47:43Z</time>
      </trkpt>
      <trkpt lat="45.80869" lon="6.72636">
        <ele>1509</ele>
        <time>2022-08-26T20:47:44Z</time>
      </trkpt>
      <trkpt lat="45.80867" lon="6.72637">
        <ele>1509</ele>
        <time>2022-08-26T20:47:46Z</time>
      </trkpt>
      <trkpt lat="45.80864" lon="6.72638">
        <ele>1509</ele>
        <time>2022-08-26T20:47:47Z</time>
      </trkpt>
      <trkpt lat="45.80863" lon="6.72639">
        <ele>1509</ele>
        <time>2022-08-26T20:47:48Z</time>
      </trkpt>
      <trkpt lat="45.80859" lon="6.72639">
        <ele>1509</ele>
        <time>2022-08-26T20:47:50Z</time>
      </trkpt>
      <trkpt lat="45.80855" lon="6.72638">
        <ele>1509</ele>
        <time>2022-08-26T20:47:51Z</time>
      </trkpt>
      <trkpt lat="45.80851" lon="6.72638">
        <ele>1509</ele>
        <time>2022-08-26T20:47:53Z</time>
      </trkpt>
      <trkpt lat="45.80851" lon="6.72638">
        <ele>1510</ele>
        <time>2022-08-26T20:47:54Z</time>
      </trkpt>
      <trkpt lat="45.80849" lon="6.72638">
        <ele>1510</ele>
        <time>2022-08-26T20:47:56Z</time>
      </trkpt>
      <trkpt lat="45.80845" lon="6.72637">
        <ele>1510</ele>
        <time>2022-08-26T20:47:58Z</time>
      </trkpt>
      <trkpt lat="45.80842" lon="6.72637">
        <ele>1510</ele>
        <time>2022-08-26T20:47:59Z</time>
      </trkpt>
      <trkpt lat="45.80838" lon="6.72638">
        <ele>1510</ele>
        <time>2022-08-26T20:48:00Z</time>
      </trkpt>
      <trkpt lat="45.80836" lon="6.72638">
        <ele>1510</ele>
        <time>2022-08-26T20:48:01Z</time>
      </trkpt>
      <trkpt lat="45.80832" lon="6.72638">
        <ele>1510</ele>
        <time>2022-08-26T20:48:04Z</time>
      </trkpt>
      <trkpt lat="45.8083" lon="6.72638">
        <ele>1510</ele>
        <time>2022-08-26T20:48:06Z</time>
      </trkpt>
      <trkpt lat="45.80819" lon="6.72637">
        <ele>1511</ele>
        <time>2022-08-26T20:48:10Z</time>
      </trkpt>
      <trkpt lat="45.80816" lon="6.72635">
        <ele>1511</ele>
        <time>2022-08-26T20:48:13Z</time>
      </trkpt>
      <trkpt lat="45.80811" lon="6.72632">
        <ele>1511</ele>
        <time>2022-08-26T20:48:15Z</time>
      </trkpt>
      <trkpt lat="45.80809" lon="6.72631">
        <ele>1511</ele>
        <time>2022-08-26T20:48:17Z</time>
      </trkpt>
      <trkpt lat="45.80806" lon="6.72628">
        <ele>1511</ele>
        <time>2022-08-26T20:48:19Z</time>
      </trkpt>
      <trkpt lat="45.80804" lon="6.72626">
        <ele>1511</ele>
        <time>2022-08-26T20:48:20Z</time>
      </trkpt>
      <trkpt lat="45.80802" lon="6.72625">
        <ele>1511</ele>
        <time>2022-08-26T20:48:21Z</time>
      </trkpt>
      <trkpt lat="45.808" lon="6.72623">
        <ele>1511</ele>
        <time>2022-08-26T20:48:22Z</time>
      </trkpt>
      <trkpt lat="45.80798" lon="6.72622">
        <ele>1511</ele>
        <time>2022-08-26T20:48:23Z</time>
      </trkpt>
      <trkpt lat="45.80793" lon="6.7262">
        <ele>1511</ele>
        <time>2022-08-26T20:48:24Z</time>
      </trkpt>
      <trkpt lat="45.80792" lon="6.72619">
        <ele>1511</ele>
        <time>2022-08-26T20:48:25Z</time>
      </trkpt>
      <trkpt lat="45.8079" lon="6.72618">
        <ele>1511</ele>
        <time>2022-08-26T20:48:26Z</time>
      </trkpt>
      <trkpt lat="45.80788" lon="6.72616">
        <ele>1511</ele>
        <time>2022-08-26T20:48:27Z</time>
      </trkpt>
      <trkpt lat="45.80786" lon="6.72615">
        <ele>1511</ele>
        <time>2022-08-26T20:48:28Z</time>
      </trkpt>
      <trkpt lat="45.80784" lon="6.72613">
        <ele>1511</ele>
        <time>2022-08-26T20:48:29Z</time>
      </trkpt>
      <trkpt lat="45.80782" lon="6.72612">
        <ele>1511</ele>
        <time>2022-08-26T20:48:30Z</time>
      </trkpt>
      <trkpt lat="45.8078" lon="6.7261">
        <ele>1510</ele>
        <time>2022-08-26T20:48:31Z</time>
      </trkpt>
      <trkpt lat="45.80777" lon="6.72608">
        <ele>1510</ele>
        <time>2022-08-26T20:48:32Z</time>
      </trkpt>
      <trkpt lat="45.80772" lon="6.72605">
        <ele>1510</ele>
        <time>2022-08-26T20:48:33Z</time>
      </trkpt>
      <trkpt lat="45.8077" lon="6.72604">
        <ele>1510</ele>
        <time>2022-08-26T20:48:34Z</time>
      </trkpt>
      <trkpt lat="45.80764" lon="6.72598">
        <ele>1510</ele>
        <time>2022-08-26T20:48:36Z</time>
      </trkpt>
      <trkpt lat="45.80763" lon="6.72597">
        <ele>1511</ele>
        <time>2022-08-26T20:48:37Z</time>
      </trkpt>
      <trkpt lat="45.8076" lon="6.72593">
        <ele>1511</ele>
        <time>2022-08-26T20:48:38Z</time>
      </trkpt>
      <trkpt lat="45.80758" lon="6.72591">
        <ele>1511</ele>
        <time>2022-08-26T20:48:39Z</time>
      </trkpt>
      <trkpt lat="45.80756" lon="6.72589">
        <ele>1511</ele>
        <time>2022-08-26T20:48:41Z</time>
      </trkpt>
      <trkpt lat="45.80754" lon="6.72588">
        <ele>1511</ele>
        <time>2022-08-26T20:48:42Z</time>
      </trkpt>
      <trkpt lat="45.8075" lon="6.72584">
        <ele>1511</ele>
        <time>2022-08-26T20:48:43Z</time>
      </trkpt>
      <trkpt lat="45.80749" lon="6.72583">
        <ele>1511</ele>
        <time>2022-08-26T20:48:44Z</time>
      </trkpt>
      <trkpt lat="45.80748" lon="6.72581">
        <ele>1511</ele>
        <time>2022-08-26T20:48:45Z</time>
      </trkpt>
      <trkpt lat="45.80747" lon="6.72579">
        <ele>1511</ele>
        <time>2022-08-26T20:48:47Z</time>
      </trkpt>
      <trkpt lat="45.80742" lon="6.72574">
        <ele>1512</ele>
        <time>2022-08-26T20:48:49Z</time>
      </trkpt>
      <trkpt lat="45.80741" lon="6.72572">
        <ele>1512</ele>
        <time>2022-08-26T20:48:50Z</time>
      </trkpt>
      <trkpt lat="45.80738" lon="6.72569">
        <ele>1512</ele>
        <time>2022-08-26T20:48:51Z</time>
      </trkpt>
      <trkpt lat="45.80737" lon="6.72568">
        <ele>1512</ele>
        <time>2022-08-26T20:48:52Z</time>
      </trkpt>
      <trkpt lat="45.80736" lon="6.72567">
        <ele>1512</ele>
        <time>2022-08-26T20:48:53Z</time>
      </trkpt>
      <trkpt lat="45.80734" lon="6.72565">
        <ele>1512</ele>
        <time>2022-08-26T20:48:54Z</time>
      </trkpt>
      <trkpt lat="45.80732" lon="6.72563">
        <ele>1512</ele>
        <time>2022-08-26T20:48:55Z</time>
      </trkpt>
      <trkpt lat="45.8073" lon="6.72561">
        <ele>1512</ele>
        <time>2022-08-26T20:48:57Z</time>
      </trkpt>
      <trkpt lat="45.80728" lon="6.72558">
        <ele>1512</ele>
        <time>2022-08-26T20:48:58Z</time>
      </trkpt>
      <trkpt lat="45.80726" lon="6.72556">
        <ele>1512</ele>
        <time>2022-08-26T20:48:59Z</time>
      </trkpt>
      <trkpt lat="45.80724" lon="6.72555">
        <ele>1512</ele>
        <time>2022-08-26T20:49:00Z</time>
      </trkpt>
      <trkpt lat="45.80722" lon="6.72553">
        <ele>1512</ele>
        <time>2022-08-26T20:49:03Z</time>
      </trkpt>
      <trkpt lat="45.80718" lon="6.72549">
        <ele>1512</ele>
        <time>2022-08-26T20:49:05Z</time>
      </trkpt>
      <trkpt lat="45.80716" lon="6.72548">
        <ele>1513</ele>
        <time>2022-08-26T20:49:07Z</time>
      </trkpt>
      <trkpt lat="45.80713" lon="6.72547">
        <ele>1513</ele>
        <time>2022-08-26T20:49:08Z</time>
      </trkpt>
      <trkpt lat="45.8071" lon="6.72546">
        <ele>1513</ele>
        <time>2022-08-26T20:49:09Z</time>
      </trkpt>
      <trkpt lat="45.80708" lon="6.72544">
        <ele>1514</ele>
        <time>2022-08-26T20:49:10Z</time>
      </trkpt>
      <trkpt lat="45.80704" lon="6.72545">
        <ele>1514</ele>
        <time>2022-08-26T20:49:13Z</time>
      </trkpt>
      <trkpt lat="45.80702" lon="6.72547">
        <ele>1514</ele>
        <time>2022-08-26T20:49:14Z</time>
      </trkpt>
      <trkpt lat="45.80701" lon="6.72549">
        <ele>1514</ele>
        <time>2022-08-26T20:49:15Z</time>
      </trkpt>
      <trkpt lat="45.80699" lon="6.72551">
        <ele>1514</ele>
        <time>2022-08-26T20:49:16Z</time>
      </trkpt>
      <trkpt lat="45.80698" lon="6.72554">
        <ele>1514</ele>
        <time>2022-08-26T20:49:17Z</time>
      </trkpt>
      <trkpt lat="45.80696" lon="6.72559">
        <ele>1514</ele>
        <time>2022-08-26T20:49:18Z</time>
      </trkpt>
      <trkpt lat="45.80695" lon="6.72561">
        <ele>1514</ele>
        <time>2022-08-26T20:49:19Z</time>
      </trkpt>
      <trkpt lat="45.80694" lon="6.72564">
        <ele>1514</ele>
        <time>2022-08-26T20:49:20Z</time>
      </trkpt>
      <trkpt lat="45.80693" lon="6.72567">
        <ele>1514</ele>
        <time>2022-08-26T20:49:22Z</time>
      </trkpt>
      <trkpt lat="45.80692" lon="6.7257">
        <ele>1514</ele>
        <time>2022-08-26T20:49:23Z</time>
      </trkpt>
      <trkpt lat="45.8069" lon="6.72575">
        <ele>1514</ele>
        <time>2022-08-26T20:49:24Z</time>
      </trkpt>
      <trkpt lat="45.8069" lon="6.72578">
        <ele>1514</ele>
        <time>2022-08-26T20:49:25Z</time>
      </trkpt>
      <trkpt lat="45.80688" lon="6.72584">
        <ele>1514</ele>
        <time>2022-08-26T20:49:27Z</time>
      </trkpt>
      <trkpt lat="45.80688" lon="6.72587">
        <ele>1514</ele>
        <time>2022-08-26T20:49:29Z</time>
      </trkpt>
      <trkpt lat="45.80684" lon="6.7259">
        <ele>1514</ele>
        <time>2022-08-26T20:49:30Z</time>
      </trkpt>
      <trkpt lat="45.80682" lon="6.72591">
        <ele>1514</ele>
        <time>2022-08-26T20:49:31Z</time>
      </trkpt>
      <trkpt lat="45.8068" lon="6.7259">
        <ele>1514</ele>
        <time>2022-08-26T20:49:32Z</time>
      </trkpt>
      <trkpt lat="45.80677" lon="6.72589">
        <ele>1514</ele>
        <time>2022-08-26T20:49:33Z</time>
      </trkpt>
      <trkpt lat="45.80674" lon="6.72588">
        <ele>1514</ele>
        <time>2022-08-26T20:49:34Z</time>
      </trkpt>
      <trkpt lat="45.80673" lon="6.72587">
        <ele>1514</ele>
        <time>2022-08-26T20:49:35Z</time>
      </trkpt>
      <trkpt lat="45.8067" lon="6.72584">
        <ele>1514</ele>
        <time>2022-08-26T20:49:37Z</time>
      </trkpt>
      <trkpt lat="45.80668" lon="6.72582">
        <ele>1513</ele>
        <time>2022-08-26T20:49:38Z</time>
      </trkpt>
      <trkpt lat="45.80663" lon="6.7258">
        <ele>1513</ele>
        <time>2022-08-26T20:49:40Z</time>
      </trkpt>
      <trkpt lat="45.80662" lon="6.72579">
        <ele>1514</ele>
        <time>2022-08-26T20:49:42Z</time>
      </trkpt>
      <trkpt lat="45.8066" lon="6.72578">
        <ele>1514</ele>
        <time>2022-08-26T20:49:43Z</time>
      </trkpt>
      <trkpt lat="45.80657" lon="6.72576">
        <ele>1514</ele>
        <time>2022-08-26T20:49:44Z</time>
      </trkpt>
      <trkpt lat="45.80656" lon="6.72575">
        <ele>1514</ele>
        <time>2022-08-26T20:49:45Z</time>
      </trkpt>
      <trkpt lat="45.80652" lon="6.72572">
        <ele>1514</ele>
        <time>2022-08-26T20:49:46Z</time>
      </trkpt>
      <trkpt lat="45.8065" lon="6.72571">
        <ele>1514</ele>
        <time>2022-08-26T20:49:48Z</time>
      </trkpt>
      <trkpt lat="45.80646" lon="6.72569">
        <ele>1514</ele>
        <time>2022-08-26T20:49:49Z</time>
      </trkpt>
      <trkpt lat="45.80644" lon="6.72568">
        <ele>1513</ele>
        <time>2022-08-26T20:49:50Z</time>
      </trkpt>
      <trkpt lat="45.80642" lon="6.72567">
        <ele>1514</ele>
        <time>2022-08-26T20:49:51Z</time>
      </trkpt>
      <trkpt lat="45.8064" lon="6.72566">
        <ele>1514</ele>
        <time>2022-08-26T20:49:52Z</time>
      </trkpt>
      <trkpt lat="45.80636" lon="6.72564">
        <ele>1514</ele>
        <time>2022-08-26T20:49:54Z</time>
      </trkpt>
      <trkpt lat="45.80634" lon="6.72562">
        <ele>1514</ele>
        <time>2022-08-26T20:49:55Z</time>
      </trkpt>
      <trkpt lat="45.80632" lon="6.72561">
        <ele>1514</ele>
        <time>2022-08-26T20:49:57Z</time>
      </trkpt>
      <trkpt lat="45.80629" lon="6.72559">
        <ele>1514</ele>
        <time>2022-08-26T20:49:58Z</time>
      </trkpt>
      <trkpt lat="45.80627" lon="6.72558">
        <ele>1514</ele>
        <time>2022-08-26T20:49:59Z</time>
      </trkpt>
      <trkpt lat="45.80626" lon="6.72556">
        <ele>1514</ele>
        <time>2022-08-26T20:50:00Z</time>
      </trkpt>
      <trkpt lat="45.80623" lon="6.72555">
        <ele>1514</ele>
        <time>2022-08-26T20:50:01Z</time>
      </trkpt>
      <trkpt lat="45.80622" lon="6.72554">
        <ele>1514</ele>
        <time>2022-08-26T20:50:02Z</time>
      </trkpt>
      <trkpt lat="45.80618" lon="6.72552">
        <ele>1514</ele>
        <time>2022-08-26T20:50:04Z</time>
      </trkpt>
      <trkpt lat="45.80616" lon="6.72551">
        <ele>1515</ele>
        <time>2022-08-26T20:50:05Z</time>
      </trkpt>
      <trkpt lat="45.80614" lon="6.72549">
        <ele>1515</ele>
        <time>2022-08-26T20:50:06Z</time>
      </trkpt>
      <trkpt lat="45.80612" lon="6.72548">
        <ele>1515</ele>
        <time>2022-08-26T20:50:07Z</time>
      </trkpt>
      <trkpt lat="45.80608" lon="6.72547">
        <ele>1515</ele>
        <time>2022-08-26T20:50:09Z</time>
      </trkpt>
      <trkpt lat="45.80605" lon="6.72545">
        <ele>1515</ele>
        <time>2022-08-26T20:50:11Z</time>
      </trkpt>
      <trkpt lat="45.80603" lon="6.72544">
        <ele>1515</ele>
        <time>2022-08-26T20:50:12Z</time>
      </trkpt>
      <trkpt lat="45.80601" lon="6.72543">
        <ele>1514</ele>
        <time>2022-08-26T20:50:13Z</time>
      </trkpt>
      <trkpt lat="45.80599" lon="6.72541">
        <ele>1514</ele>
        <time>2022-08-26T20:50:14Z</time>
      </trkpt>
      <trkpt lat="45.80596" lon="6.72541">
        <ele>1514</ele>
        <time>2022-08-26T20:50:16Z</time>
      </trkpt>
      <trkpt lat="45.80591" lon="6.72539">
        <ele>1514</ele>
        <time>2022-08-26T20:50:17Z</time>
      </trkpt>
      <trkpt lat="45.80589" lon="6.72537">
        <ele>1514</ele>
        <time>2022-08-26T20:50:18Z</time>
      </trkpt>
      <trkpt lat="45.80587" lon="6.72536">
        <ele>1514</ele>
        <time>2022-08-26T20:50:19Z</time>
      </trkpt>
      <trkpt lat="45.80583" lon="6.72534">
        <ele>1514</ele>
        <time>2022-08-26T20:50:21Z</time>
      </trkpt>
      <trkpt lat="45.80581" lon="6.72532">
        <ele>1514</ele>
        <time>2022-08-26T20:50:22Z</time>
      </trkpt>
      <trkpt lat="45.8058" lon="6.72531">
        <ele>1514</ele>
        <time>2022-08-26T20:50:23Z</time>
      </trkpt>
      <trkpt lat="45.80576" lon="6.72529">
        <ele>1514</ele>
        <time>2022-08-26T20:50:25Z</time>
      </trkpt>
      <trkpt lat="45.80574" lon="6.72528">
        <ele>1514</ele>
        <time>2022-08-26T20:50:26Z</time>
      </trkpt>
      <trkpt lat="45.80572" lon="6.72526">
        <ele>1514</ele>
        <time>2022-08-26T20:50:27Z</time>
      </trkpt>
      <trkpt lat="45.8057" lon="6.72525">
        <ele>1514</ele>
        <time>2022-08-26T20:50:28Z</time>
      </trkpt>
      <trkpt lat="45.80568" lon="6.72524">
        <ele>1514</ele>
        <time>2022-08-26T20:50:30Z</time>
      </trkpt>
      <trkpt lat="45.80565" lon="6.72522">
        <ele>1514</ele>
        <time>2022-08-26T20:50:32Z</time>
      </trkpt>
      <trkpt lat="45.80561" lon="6.72521">
        <ele>1514</ele>
        <time>2022-08-26T20:50:33Z</time>
      </trkpt>
      <trkpt lat="45.80557" lon="6.7252">
        <ele>1514</ele>
        <time>2022-08-26T20:50:35Z</time>
      </trkpt>
      <trkpt lat="45.80553" lon="6.72519">
        <ele>1514</ele>
        <time>2022-08-26T20:50:37Z</time>
      </trkpt>
      <trkpt lat="45.80551" lon="6.72519">
        <ele>1514</ele>
        <time>2022-08-26T20:50:38Z</time>
      </trkpt>
      <trkpt lat="45.80549" lon="6.72519">
        <ele>1514</ele>
        <time>2022-08-26T20:50:40Z</time>
      </trkpt>
      <trkpt lat="45.80539" lon="6.72517">
        <ele>1515</ele>
        <time>2022-08-26T20:50:45Z</time>
      </trkpt>
      <trkpt lat="45.80537" lon="6.72516">
        <ele>1515</ele>
        <time>2022-08-26T20:50:47Z</time>
      </trkpt>
      <trkpt lat="45.80535" lon="6.72515">
        <ele>1515</ele>
        <time>2022-08-26T20:50:48Z</time>
      </trkpt>
      <trkpt lat="45.80533" lon="6.72514">
        <ele>1515</ele>
        <time>2022-08-26T20:50:49Z</time>
      </trkpt>
      <trkpt lat="45.80532" lon="6.72513">
        <ele>1515</ele>
        <time>2022-08-26T20:50:50Z</time>
      </trkpt>
      <trkpt lat="45.8053" lon="6.72511">
        <ele>1515</ele>
        <time>2022-08-26T20:50:51Z</time>
      </trkpt>
      <trkpt lat="45.80527" lon="6.7251">
        <ele>1515</ele>
        <time>2022-08-26T20:50:52Z</time>
      </trkpt>
      <trkpt lat="45.80524" lon="6.72508">
        <ele>1515</ele>
        <time>2022-08-26T20:50:53Z</time>
      </trkpt>
      <trkpt lat="45.80521" lon="6.72507">
        <ele>1515</ele>
        <time>2022-08-26T20:50:54Z</time>
      </trkpt>
      <trkpt lat="45.80516" lon="6.72506">
        <ele>1515</ele>
        <time>2022-08-26T20:50:56Z</time>
      </trkpt>
      <trkpt lat="45.80515" lon="6.72505">
        <ele>1515</ele>
        <time>2022-08-26T20:50:57Z</time>
      </trkpt>
      <trkpt lat="45.80513" lon="6.72505">
        <ele>1515</ele>
        <time>2022-08-26T20:50:58Z</time>
      </trkpt>
      <trkpt lat="45.80512" lon="6.72504">
        <ele>1515</ele>
        <time>2022-08-26T20:50:59Z</time>
      </trkpt>
      <trkpt lat="45.8051" lon="6.72504">
        <ele>1515</ele>
        <time>2022-08-26T20:51:00Z</time>
      </trkpt>
      <trkpt lat="45.80509" lon="6.72504">
        <ele>1515</ele>
        <time>2022-08-26T20:51:01Z</time>
      </trkpt>
      <trkpt lat="45.80498" lon="6.72502">
        <ele>1515</ele>
        <time>2022-08-26T20:51:04Z</time>
      </trkpt>
      <trkpt lat="45.80496" lon="6.72501">
        <ele>1515</ele>
        <time>2022-08-26T20:51:06Z</time>
      </trkpt>
      <trkpt lat="45.80494" lon="6.725">
        <ele>1515</ele>
        <time>2022-08-26T20:51:07Z</time>
      </trkpt>
      <trkpt lat="45.80485" lon="6.725">
        <ele>1515</ele>
        <time>2022-08-26T20:51:10Z</time>
      </trkpt>
      <trkpt lat="45.8048" lon="6.725">
        <ele>1515</ele>
        <time>2022-08-26T20:51:12Z</time>
      </trkpt>
      <trkpt lat="45.80478" lon="6.725">
        <ele>1515</ele>
        <time>2022-08-26T20:51:13Z</time>
      </trkpt>
      <trkpt lat="45.80476" lon="6.725">
        <ele>1516</ele>
        <time>2022-08-26T20:51:15Z</time>
      </trkpt>
      <trkpt lat="45.80473" lon="6.725">
        <ele>1516</ele>
        <time>2022-08-26T20:51:16Z</time>
      </trkpt>
      <trkpt lat="45.80471" lon="6.725">
        <ele>1516</ele>
        <time>2022-08-26T20:51:17Z</time>
      </trkpt>
      <trkpt lat="45.80469" lon="6.725">
        <ele>1516</ele>
        <time>2022-08-26T20:51:18Z</time>
      </trkpt>
      <trkpt lat="45.80468" lon="6.725">
        <ele>1516</ele>
        <time>2022-08-26T20:51:19Z</time>
      </trkpt>
      <trkpt lat="45.80466" lon="6.725">
        <ele>1516</ele>
        <time>2022-08-26T20:51:20Z</time>
      </trkpt>
      <trkpt lat="45.80462" lon="6.725">
        <ele>1516</ele>
        <time>2022-08-26T20:51:22Z</time>
      </trkpt>
      <trkpt lat="45.80461" lon="6.725">
        <ele>1516</ele>
        <time>2022-08-26T20:51:23Z</time>
      </trkpt>
      <trkpt lat="45.80459" lon="6.72501">
        <ele>1516</ele>
        <time>2022-08-26T20:51:25Z</time>
      </trkpt>
      <trkpt lat="45.80457" lon="6.72501">
        <ele>1516</ele>
        <time>2022-08-26T20:51:26Z</time>
      </trkpt>
      <trkpt lat="45.80455" lon="6.72501">
        <ele>1515</ele>
        <time>2022-08-26T20:51:27Z</time>
      </trkpt>
      <trkpt lat="45.80452" lon="6.72501">
        <ele>1515</ele>
        <time>2022-08-26T20:51:28Z</time>
      </trkpt>
      <trkpt lat="45.80449" lon="6.72501">
        <ele>1516</ele>
        <time>2022-08-26T20:51:29Z</time>
      </trkpt>
      <trkpt lat="45.80445" lon="6.725">
        <ele>1516</ele>
        <time>2022-08-26T20:51:31Z</time>
      </trkpt>
      <trkpt lat="45.80443" lon="6.725">
        <ele>1516</ele>
        <time>2022-08-26T20:51:33Z</time>
      </trkpt>
      <trkpt lat="45.80441" lon="6.725">
        <ele>1516</ele>
        <time>2022-08-26T20:51:34Z</time>
      </trkpt>
      <trkpt lat="45.80438" lon="6.725">
        <ele>1516</ele>
        <time>2022-08-26T20:51:35Z</time>
      </trkpt>
      <trkpt lat="45.80436" lon="6.72499">
        <ele>1516</ele>
        <time>2022-08-26T20:51:36Z</time>
      </trkpt>
      <trkpt lat="45.80432" lon="6.72499">
        <ele>1516</ele>
        <time>2022-08-26T20:51:37Z</time>
      </trkpt>
      <trkpt lat="45.80428" lon="6.72499">
        <ele>1516</ele>
        <time>2022-08-26T20:51:39Z</time>
      </trkpt>
      <trkpt lat="45.80426" lon="6.72499">
        <ele>1516</ele>
        <time>2022-08-26T20:51:40Z</time>
      </trkpt>
      <trkpt lat="45.80424" lon="6.72498">
        <ele>1516</ele>
        <time>2022-08-26T20:51:42Z</time>
      </trkpt>
      <trkpt lat="45.80419" lon="6.72496">
        <ele>1516</ele>
        <time>2022-08-26T20:51:43Z</time>
      </trkpt>
      <trkpt lat="45.80417" lon="6.72495">
        <ele>1516</ele>
        <time>2022-08-26T20:51:44Z</time>
      </trkpt>
      <trkpt lat="45.80415" lon="6.72495">
        <ele>1516</ele>
        <time>2022-08-26T20:51:45Z</time>
      </trkpt>
      <trkpt lat="45.80413" lon="6.72494">
        <ele>1516</ele>
        <time>2022-08-26T20:51:46Z</time>
      </trkpt>
      <trkpt lat="45.80411" lon="6.72493">
        <ele>1516</ele>
        <time>2022-08-26T20:51:47Z</time>
      </trkpt>
      <trkpt lat="45.80409" lon="6.72492">
        <ele>1516</ele>
        <time>2022-08-26T20:51:48Z</time>
      </trkpt>
      <trkpt lat="45.80407" lon="6.72492">
        <ele>1516</ele>
        <time>2022-08-26T20:51:49Z</time>
      </trkpt>
      <trkpt lat="45.80405" lon="6.72491">
        <ele>1516</ele>
        <time>2022-08-26T20:51:50Z</time>
      </trkpt>
      <trkpt lat="45.80401" lon="6.7249">
        <ele>1517</ele>
        <time>2022-08-26T20:51:52Z</time>
      </trkpt>
      <trkpt lat="45.80399" lon="6.72489">
        <ele>1517</ele>
        <time>2022-08-26T20:51:54Z</time>
      </trkpt>
      <trkpt lat="45.80395" lon="6.72485">
        <ele>1517</ele>
        <time>2022-08-26T20:51:55Z</time>
      </trkpt>
      <trkpt lat="45.80394" lon="6.72484">
        <ele>1517</ele>
        <time>2022-08-26T20:51:56Z</time>
      </trkpt>
      <trkpt lat="45.80393" lon="6.72483">
        <ele>1517</ele>
        <time>2022-08-26T20:51:57Z</time>
      </trkpt>
      <trkpt lat="45.80391" lon="6.72483">
        <ele>1517</ele>
        <time>2022-08-26T20:51:58Z</time>
      </trkpt>
      <trkpt lat="45.80389" lon="6.72482">
        <ele>1517</ele>
        <time>2022-08-26T20:51:59Z</time>
      </trkpt>
      <trkpt lat="45.80383" lon="6.72478">
        <ele>1517</ele>
        <time>2022-08-26T20:52:01Z</time>
      </trkpt>
      <trkpt lat="45.80378" lon="6.72476">
        <ele>1518</ele>
        <time>2022-08-26T20:52:03Z</time>
      </trkpt>
      <trkpt lat="45.80376" lon="6.72474">
        <ele>1517</ele>
        <time>2022-08-26T20:52:05Z</time>
      </trkpt>
      <trkpt lat="45.80373" lon="6.72471">
        <ele>1517</ele>
        <time>2022-08-26T20:52:06Z</time>
      </trkpt>
      <trkpt lat="45.80371" lon="6.72469">
        <ele>1517</ele>
        <time>2022-08-26T20:52:07Z</time>
      </trkpt>
      <trkpt lat="45.80368" lon="6.72466">
        <ele>1517</ele>
        <time>2022-08-26T20:52:09Z</time>
      </trkpt>
      <trkpt lat="45.80366" lon="6.72465">
        <ele>1517</ele>
        <time>2022-08-26T20:52:10Z</time>
      </trkpt>
      <trkpt lat="45.80361" lon="6.72463">
        <ele>1517</ele>
        <time>2022-08-26T20:52:12Z</time>
      </trkpt>
      <trkpt lat="45.8036" lon="6.72462">
        <ele>1517</ele>
        <time>2022-08-26T20:52:13Z</time>
      </trkpt>
      <trkpt lat="45.80358" lon="6.72461">
        <ele>1517</ele>
        <time>2022-08-26T20:52:14Z</time>
      </trkpt>
      <trkpt lat="45.80355" lon="6.72458">
        <ele>1517</ele>
        <time>2022-08-26T20:52:16Z</time>
      </trkpt>
      <trkpt lat="45.80353" lon="6.72457">
        <ele>1517</ele>
        <time>2022-08-26T20:52:17Z</time>
      </trkpt>
      <trkpt lat="45.80351" lon="6.72457">
        <ele>1517</ele>
        <time>2022-08-26T20:52:18Z</time>
      </trkpt>
      <trkpt lat="45.80346" lon="6.72456">
        <ele>1517</ele>
        <time>2022-08-26T20:52:20Z</time>
      </trkpt>
      <trkpt lat="45.80344" lon="6.72455">
        <ele>1517</ele>
        <time>2022-08-26T20:52:22Z</time>
      </trkpt>
      <trkpt lat="45.80342" lon="6.72456">
        <ele>1518</ele>
        <time>2022-08-26T20:52:23Z</time>
      </trkpt>
      <trkpt lat="45.8034" lon="6.72456">
        <ele>1518</ele>
        <time>2022-08-26T20:52:24Z</time>
      </trkpt>
      <trkpt lat="45.80337" lon="6.72456">
        <ele>1518</ele>
        <time>2022-08-26T20:52:25Z</time>
      </trkpt>
      <trkpt lat="45.80336" lon="6.72457">
        <ele>1518</ele>
        <time>2022-08-26T20:52:26Z</time>
      </trkpt>
      <trkpt lat="45.80332" lon="6.72457">
        <ele>1518</ele>
        <time>2022-08-26T20:52:28Z</time>
      </trkpt>
      <trkpt lat="45.80329" lon="6.72458">
        <ele>1518</ele>
        <time>2022-08-26T20:52:30Z</time>
      </trkpt>
      <trkpt lat="45.80327" lon="6.72459">
        <ele>1518</ele>
        <time>2022-08-26T20:52:33Z</time>
      </trkpt>
      <trkpt lat="45.80318" lon="6.72464">
        <ele>1518</ele>
        <time>2022-08-26T20:52:38Z</time>
      </trkpt>
      <trkpt lat="45.80314" lon="6.72466">
        <ele>1518</ele>
        <time>2022-08-26T20:52:41Z</time>
      </trkpt>
      <trkpt lat="45.80307" lon="6.72469">
        <ele>1518</ele>
        <time>2022-08-26T20:52:43Z</time>
      </trkpt>
      <trkpt lat="45.80305" lon="6.7247">
        <ele>1518</ele>
        <time>2022-08-26T20:52:44Z</time>
      </trkpt>
      <trkpt lat="45.80303" lon="6.7247">
        <ele>1519</ele>
        <time>2022-08-26T20:52:45Z</time>
      </trkpt>
      <trkpt lat="45.80299" lon="6.72473">
        <ele>1519</ele>
        <time>2022-08-26T20:52:47Z</time>
      </trkpt>
      <trkpt lat="45.80297" lon="6.72473">
        <ele>1519</ele>
        <time>2022-08-26T20:52:48Z</time>
      </trkpt>
      <trkpt lat="45.80296" lon="6.72473">
        <ele>1519</ele>
        <time>2022-08-26T20:52:49Z</time>
      </trkpt>
      <trkpt lat="45.80295" lon="6.72474">
        <ele>1519</ele>
        <time>2022-08-26T20:52:50Z</time>
      </trkpt>
      <trkpt lat="45.8029" lon="6.72474">
        <ele>1519</ele>
        <time>2022-08-26T20:52:51Z</time>
      </trkpt>
      <trkpt lat="45.80288" lon="6.72474">
        <ele>1519</ele>
        <time>2022-08-26T20:52:52Z</time>
      </trkpt>
      <trkpt lat="45.80285" lon="6.72474">
        <ele>1518</ele>
        <time>2022-08-26T20:52:54Z</time>
      </trkpt>
      <trkpt lat="45.80282" lon="6.72474">
        <ele>1518</ele>
        <time>2022-08-26T20:52:55Z</time>
      </trkpt>
      <trkpt lat="45.80277" lon="6.72473">
        <ele>1518</ele>
        <time>2022-08-26T20:52:57Z</time>
      </trkpt>
      <trkpt lat="45.80275" lon="6.72473">
        <ele>1518</ele>
        <time>2022-08-26T20:52:58Z</time>
      </trkpt>
      <trkpt lat="45.80272" lon="6.72472">
        <ele>1518</ele>
        <time>2022-08-26T20:52:59Z</time>
      </trkpt>
      <trkpt lat="45.8027" lon="6.72471">
        <ele>1518</ele>
        <time>2022-08-26T20:53:01Z</time>
      </trkpt>
      <trkpt lat="45.80266" lon="6.7247">
        <ele>1519</ele>
        <time>2022-08-26T20:53:02Z</time>
      </trkpt>
      <trkpt lat="45.80263" lon="6.72469">
        <ele>1519</ele>
        <time>2022-08-26T20:53:05Z</time>
      </trkpt>
      <trkpt lat="45.8026" lon="6.72469">
        <ele>1520</ele>
        <time>2022-08-26T20:53:07Z</time>
      </trkpt>
      <trkpt lat="45.80258" lon="6.72469">
        <ele>1520</ele>
        <time>2022-08-26T20:53:08Z</time>
      </trkpt>
      <trkpt lat="45.80254" lon="6.72469">
        <ele>1520</ele>
        <time>2022-08-26T20:53:09Z</time>
      </trkpt>
      <trkpt lat="45.80252" lon="6.72469">
        <ele>1520</ele>
        <time>2022-08-26T20:53:10Z</time>
      </trkpt>
      <trkpt lat="45.8025" lon="6.72469">
        <ele>1520</ele>
        <time>2022-08-26T20:53:11Z</time>
      </trkpt>
      <trkpt lat="45.80247" lon="6.72468">
        <ele>1520</ele>
        <time>2022-08-26T20:53:12Z</time>
      </trkpt>
      <trkpt lat="45.80245" lon="6.72468">
        <ele>1520</ele>
        <time>2022-08-26T20:53:13Z</time>
      </trkpt>
      <trkpt lat="45.80242" lon="6.72468">
        <ele>1520</ele>
        <time>2022-08-26T20:53:14Z</time>
      </trkpt>
      <trkpt lat="45.80241" lon="6.72468">
        <ele>1520</ele>
        <time>2022-08-26T20:53:15Z</time>
      </trkpt>
      <trkpt lat="45.80238" lon="6.72468">
        <ele>1520</ele>
        <time>2022-08-26T20:53:17Z</time>
      </trkpt>
      <trkpt lat="45.80234" lon="6.72467">
        <ele>1520</ele>
        <time>2022-08-26T20:53:18Z</time>
      </trkpt>
      <trkpt lat="45.80231" lon="6.72467">
        <ele>1520</ele>
        <time>2022-08-26T20:53:19Z</time>
      </trkpt>
      <trkpt lat="45.80227" lon="6.72466">
        <ele>1520</ele>
        <time>2022-08-26T20:53:21Z</time>
      </trkpt>
      <trkpt lat="45.80225" lon="6.72466">
        <ele>1520</ele>
        <time>2022-08-26T20:53:22Z</time>
      </trkpt>
      <trkpt lat="45.8022" lon="6.72464">
        <ele>1520</ele>
        <time>2022-08-26T20:53:25Z</time>
      </trkpt>
      <trkpt lat="45.80217" lon="6.72461">
        <ele>1520</ele>
        <time>2022-08-26T20:53:26Z</time>
      </trkpt>
      <trkpt lat="45.80216" lon="6.72461">
        <ele>1521</ele>
        <time>2022-08-26T20:53:27Z</time>
      </trkpt>
      <trkpt lat="45.80215" lon="6.72459">
        <ele>1521</ele>
        <time>2022-08-26T20:53:28Z</time>
      </trkpt>
      <trkpt lat="45.80213" lon="6.72456">
        <ele>1520</ele>
        <time>2022-08-26T20:53:29Z</time>
      </trkpt>
      <trkpt lat="45.8021" lon="6.72451">
        <ele>1520</ele>
        <time>2022-08-26T20:53:31Z</time>
      </trkpt>
      <trkpt lat="45.80209" lon="6.72448">
        <ele>1520</ele>
        <time>2022-08-26T20:53:33Z</time>
      </trkpt>
      <trkpt lat="45.80209" lon="6.72445">
        <ele>1520</ele>
        <time>2022-08-26T20:53:34Z</time>
      </trkpt>
      <trkpt lat="45.80208" lon="6.72439">
        <ele>1520</ele>
        <time>2022-08-26T20:53:35Z</time>
      </trkpt>
      <trkpt lat="45.80209" lon="6.72435">
        <ele>1520</ele>
        <time>2022-08-26T20:53:36Z</time>
      </trkpt>
      <trkpt lat="45.80209" lon="6.72432">
        <ele>1520</ele>
        <time>2022-08-26T20:53:37Z</time>
      </trkpt>
      <trkpt lat="45.80209" lon="6.72429">
        <ele>1520</ele>
        <time>2022-08-26T20:53:38Z</time>
      </trkpt>
      <trkpt lat="45.80209" lon="6.72426">
        <ele>1520</ele>
        <time>2022-08-26T20:53:39Z</time>
      </trkpt>
      <trkpt lat="45.8021" lon="6.72423">
        <ele>1520</ele>
        <time>2022-08-26T20:53:41Z</time>
      </trkpt>
      <trkpt lat="45.80212" lon="6.72418">
        <ele>1520</ele>
        <time>2022-08-26T20:53:42Z</time>
      </trkpt>
      <trkpt lat="45.80214" lon="6.72415">
        <ele>1521</ele>
        <time>2022-08-26T20:53:43Z</time>
      </trkpt>
      <trkpt lat="45.80215" lon="6.72412">
        <ele>1521</ele>
        <time>2022-08-26T20:53:44Z</time>
      </trkpt>
      <trkpt lat="45.80215" lon="6.72409">
        <ele>1521</ele>
        <time>2022-08-26T20:53:45Z</time>
      </trkpt>
      <trkpt lat="45.80215" lon="6.72406">
        <ele>1521</ele>
        <time>2022-08-26T20:53:46Z</time>
      </trkpt>
      <trkpt lat="45.80216" lon="6.724">
        <ele>1521</ele>
        <time>2022-08-26T20:53:48Z</time>
      </trkpt>
      <trkpt lat="45.80216" lon="6.72398">
        <ele>1521</ele>
        <time>2022-08-26T20:53:49Z</time>
      </trkpt>
      <trkpt lat="45.80216" lon="6.72395">
        <ele>1521</ele>
        <time>2022-08-26T20:53:50Z</time>
      </trkpt>
      <trkpt lat="45.80216" lon="6.72392">
        <ele>1521</ele>
        <time>2022-08-26T20:53:51Z</time>
      </trkpt>
      <trkpt lat="45.80216" lon="6.72389">
        <ele>1521</ele>
        <time>2022-08-26T20:53:52Z</time>
      </trkpt>
      <trkpt lat="45.80217" lon="6.72386">
        <ele>1521</ele>
        <time>2022-08-26T20:53:54Z</time>
      </trkpt>
      <trkpt lat="45.80217" lon="6.72383">
        <ele>1521</ele>
        <time>2022-08-26T20:53:55Z</time>
      </trkpt>
      <trkpt lat="45.80218" lon="6.72378">
        <ele>1521</ele>
        <time>2022-08-26T20:53:56Z</time>
      </trkpt>
      <trkpt lat="45.80218" lon="6.72375">
        <ele>1521</ele>
        <time>2022-08-26T20:53:57Z</time>
      </trkpt>
      <trkpt lat="45.80219" lon="6.72369">
        <ele>1520</ele>
        <time>2022-08-26T20:53:59Z</time>
      </trkpt>
      <trkpt lat="45.80218" lon="6.72363">
        <ele>1520</ele>
        <time>2022-08-26T20:54:01Z</time>
      </trkpt>
      <trkpt lat="45.80218" lon="6.7236">
        <ele>1521</ele>
        <time>2022-08-26T20:54:02Z</time>
      </trkpt>
      <trkpt lat="45.80217" lon="6.72358">
        <ele>1521</ele>
        <time>2022-08-26T20:54:03Z</time>
      </trkpt>
      <trkpt lat="45.80215" lon="6.72354">
        <ele>1521</ele>
        <time>2022-08-26T20:54:05Z</time>
      </trkpt>
      <trkpt lat="45.80213" lon="6.72352">
        <ele>1521</ele>
        <time>2022-08-26T20:54:06Z</time>
      </trkpt>
      <trkpt lat="45.80211" lon="6.72351">
        <ele>1521</ele>
        <time>2022-08-26T20:54:07Z</time>
      </trkpt>
      <trkpt lat="45.80207" lon="6.72349">
        <ele>1521</ele>
        <time>2022-08-26T20:54:09Z</time>
      </trkpt>
      <trkpt lat="45.80205" lon="6.72348">
        <ele>1521</ele>
        <time>2022-08-26T20:54:11Z</time>
      </trkpt>
      <trkpt lat="45.80202" lon="6.72346">
        <ele>1521</ele>
        <time>2022-08-26T20:54:13Z</time>
      </trkpt>
      <trkpt lat="45.80199" lon="6.72343">
        <ele>1521</ele>
        <time>2022-08-26T20:54:14Z</time>
      </trkpt>
      <trkpt lat="45.80197" lon="6.72342">
        <ele>1522</ele>
        <time>2022-08-26T20:54:16Z</time>
      </trkpt>
      <trkpt lat="45.80194" lon="6.7234">
        <ele>1522</ele>
        <time>2022-08-26T20:54:17Z</time>
      </trkpt>
      <trkpt lat="45.80193" lon="6.72339">
        <ele>1522</ele>
        <time>2022-08-26T20:54:18Z</time>
      </trkpt>
      <trkpt lat="45.80191" lon="6.72337">
        <ele>1522</ele>
        <time>2022-08-26T20:54:20Z</time>
      </trkpt>
      <trkpt lat="45.80187" lon="6.72335">
        <ele>1522</ele>
        <time>2022-08-26T20:54:21Z</time>
      </trkpt>
      <trkpt lat="45.80184" lon="6.72335">
        <ele>1522</ele>
        <time>2022-08-26T20:54:22Z</time>
      </trkpt>
      <trkpt lat="45.80182" lon="6.72334">
        <ele>1522</ele>
        <time>2022-08-26T20:54:23Z</time>
      </trkpt>
      <trkpt lat="45.8018" lon="6.72333">
        <ele>1522</ele>
        <time>2022-08-26T20:54:24Z</time>
      </trkpt>
      <trkpt lat="45.80178" lon="6.72332">
        <ele>1523</ele>
        <time>2022-08-26T20:54:25Z</time>
      </trkpt>
      <trkpt lat="45.80176" lon="6.72332">
        <ele>1523</ele>
        <time>2022-08-26T20:54:26Z</time>
      </trkpt>
      <trkpt lat="45.80174" lon="6.72331">
        <ele>1523</ele>
        <time>2022-08-26T20:54:27Z</time>
      </trkpt>
      <trkpt lat="45.80172" lon="6.7233">
        <ele>1523</ele>
        <time>2022-08-26T20:54:28Z</time>
      </trkpt>
      <trkpt lat="45.8017" lon="6.72329">
        <ele>1523</ele>
        <time>2022-08-26T20:54:30Z</time>
      </trkpt>
      <trkpt lat="45.80168" lon="6.72327">
        <ele>1523</ele>
        <time>2022-08-26T20:54:31Z</time>
      </trkpt>
      <trkpt lat="45.80165" lon="6.72325">
        <ele>1523</ele>
        <time>2022-08-26T20:54:32Z</time>
      </trkpt>
      <trkpt lat="45.80162" lon="6.72323">
        <ele>1523</ele>
        <time>2022-08-26T20:54:34Z</time>
      </trkpt>
      <trkpt lat="45.8016" lon="6.72322">
        <ele>1523</ele>
        <time>2022-08-26T20:54:35Z</time>
      </trkpt>
      <trkpt lat="45.80158" lon="6.7232">
        <ele>1523</ele>
        <time>2022-08-26T20:54:36Z</time>
      </trkpt>
      <trkpt lat="45.80157" lon="6.72319">
        <ele>1523</ele>
        <time>2022-08-26T20:54:37Z</time>
      </trkpt>
      <trkpt lat="45.80153" lon="6.72316">
        <ele>1523</ele>
        <time>2022-08-26T20:54:39Z</time>
      </trkpt>
      <trkpt lat="45.8015" lon="6.72313">
        <ele>1523</ele>
        <time>2022-08-26T20:54:41Z</time>
      </trkpt>
      <trkpt lat="45.80148" lon="6.72311">
        <ele>1523</ele>
        <time>2022-08-26T20:54:42Z</time>
      </trkpt>
      <trkpt lat="45.80147" lon="6.72308">
        <ele>1523</ele>
        <time>2022-08-26T20:54:44Z</time>
      </trkpt>
      <trkpt lat="45.80146" lon="6.72305">
        <ele>1524</ele>
        <time>2022-08-26T20:54:45Z</time>
      </trkpt>
      <trkpt lat="45.80145" lon="6.72302">
        <ele>1524</ele>
        <time>2022-08-26T20:54:46Z</time>
      </trkpt>
      <trkpt lat="45.80144" lon="6.72299">
        <ele>1524</ele>
        <time>2022-08-26T20:54:47Z</time>
      </trkpt>
      <trkpt lat="45.80144" lon="6.72296">
        <ele>1524</ele>
        <time>2022-08-26T20:54:48Z</time>
      </trkpt>
      <trkpt lat="45.80144" lon="6.72293">
        <ele>1524</ele>
        <time>2022-08-26T20:54:49Z</time>
      </trkpt>
      <trkpt lat="45.80143" lon="6.72288">
        <ele>1524</ele>
        <time>2022-08-26T20:54:51Z</time>
      </trkpt>
      <trkpt lat="45.80143" lon="6.72286">
        <ele>1524</ele>
        <time>2022-08-26T20:54:52Z</time>
      </trkpt>
      <trkpt lat="45.80141" lon="6.72281">
        <ele>1525</ele>
        <time>2022-08-26T20:54:55Z</time>
      </trkpt>
      <trkpt lat="45.80141" lon="6.72276">
        <ele>1525</ele>
        <time>2022-08-26T20:54:56Z</time>
      </trkpt>
      <trkpt lat="45.80141" lon="6.72273">
        <ele>1525</ele>
        <time>2022-08-26T20:54:58Z</time>
      </trkpt>
      <trkpt lat="45.80141" lon="6.72268">
        <ele>1526</ele>
        <time>2022-08-26T20:55:00Z</time>
      </trkpt>
      <trkpt lat="45.80142" lon="6.72264">
        <ele>1526</ele>
        <time>2022-08-26T20:55:01Z</time>
      </trkpt>
      <trkpt lat="45.80143" lon="6.7226">
        <ele>1525</ele>
        <time>2022-08-26T20:55:03Z</time>
      </trkpt>
      <trkpt lat="45.80143" lon="6.72256">
        <ele>1525</ele>
        <time>2022-08-26T20:55:06Z</time>
      </trkpt>
      <trkpt lat="45.80143" lon="6.72251">
        <ele>1525</ele>
        <time>2022-08-26T20:55:08Z</time>
      </trkpt>
      <trkpt lat="45.80141" lon="6.7225">
        <ele>1525</ele>
        <time>2022-08-26T20:55:09Z</time>
      </trkpt>
      <trkpt lat="45.8014" lon="6.72249">
        <ele>1525</ele>
        <time>2022-08-26T20:55:10Z</time>
      </trkpt>
      <trkpt lat="45.80139" lon="6.72249">
        <ele>1525</ele>
        <time>2022-08-26T20:55:11Z</time>
      </trkpt>
      <trkpt lat="45.80135" lon="6.72248">
        <ele>1525</ele>
        <time>2022-08-26T20:55:13Z</time>
      </trkpt>
      <trkpt lat="45.80131" lon="6.72247">
        <ele>1525</ele>
        <time>2022-08-26T20:55:14Z</time>
      </trkpt>
      <trkpt lat="45.8013" lon="6.72247">
        <ele>1524</ele>
        <time>2022-08-26T20:55:15Z</time>
      </trkpt>
      <trkpt lat="45.80127" lon="6.72247">
        <ele>1524</ele>
        <time>2022-08-26T20:55:17Z</time>
      </trkpt>
      <trkpt lat="45.80125" lon="6.72247">
        <ele>1524</ele>
        <time>2022-08-26T20:55:18Z</time>
      </trkpt>
      <trkpt lat="45.80122" lon="6.72248">
        <ele>1524</ele>
        <time>2022-08-26T20:55:19Z</time>
      </trkpt>
      <trkpt lat="45.8012" lon="6.72248">
        <ele>1524</ele>
        <time>2022-08-26T20:55:20Z</time>
      </trkpt>
      <trkpt lat="45.80115" lon="6.72247">
        <ele>1524</ele>
        <time>2022-08-26T20:55:22Z</time>
      </trkpt>
      <trkpt lat="45.80113" lon="6.72245">
        <ele>1525</ele>
        <time>2022-08-26T20:55:24Z</time>
      </trkpt>
      <trkpt lat="45.8011" lon="6.72242">
        <ele>1525</ele>
        <time>2022-08-26T20:55:25Z</time>
      </trkpt>
      <trkpt lat="45.80109" lon="6.72241">
        <ele>1525</ele>
        <time>2022-08-26T20:55:27Z</time>
      </trkpt>
      <trkpt lat="45.80107" lon="6.72239">
        <ele>1525</ele>
        <time>2022-08-26T20:55:28Z</time>
      </trkpt>
      <trkpt lat="45.80105" lon="6.72238">
        <ele>1525</ele>
        <time>2022-08-26T20:55:29Z</time>
      </trkpt>
      <trkpt lat="45.80101" lon="6.72235">
        <ele>1525</ele>
        <time>2022-08-26T20:55:32Z</time>
      </trkpt>
      <trkpt lat="45.80098" lon="6.72233">
        <ele>1525</ele>
        <time>2022-08-26T20:55:34Z</time>
      </trkpt>
      <trkpt lat="45.80097" lon="6.72232">
        <ele>1525</ele>
        <time>2022-08-26T20:55:35Z</time>
      </trkpt>
      <trkpt lat="45.80095" lon="6.72231">
        <ele>1525</ele>
        <time>2022-08-26T20:55:36Z</time>
      </trkpt>
      <trkpt lat="45.80094" lon="6.7223">
        <ele>1525</ele>
        <time>2022-08-26T20:55:37Z</time>
      </trkpt>
      <trkpt lat="45.80092" lon="6.72228">
        <ele>1525</ele>
        <time>2022-08-26T20:55:38Z</time>
      </trkpt>
      <trkpt lat="45.80089" lon="6.72226">
        <ele>1525</ele>
        <time>2022-08-26T20:55:41Z</time>
      </trkpt>
      <trkpt lat="45.80086" lon="6.72224">
        <ele>1525</ele>
        <time>2022-08-26T20:55:42Z</time>
      </trkpt>
      <trkpt lat="45.80085" lon="6.72223">
        <ele>1525</ele>
        <time>2022-08-26T20:55:43Z</time>
      </trkpt>
      <trkpt lat="45.80082" lon="6.72221">
        <ele>1525</ele>
        <time>2022-08-26T20:55:46Z</time>
      </trkpt>
      <trkpt lat="45.80078" lon="6.72218">
        <ele>1525</ele>
        <time>2022-08-26T20:55:48Z</time>
      </trkpt>
      <trkpt lat="45.80075" lon="6.72217">
        <ele>1525</ele>
        <time>2022-08-26T20:55:51Z</time>
      </trkpt>
      <trkpt lat="45.80072" lon="6.72216">
        <ele>1525</ele>
        <time>2022-08-26T20:55:52Z</time>
      </trkpt>
      <trkpt lat="45.80069" lon="6.72215">
        <ele>1525</ele>
        <time>2022-08-26T20:55:54Z</time>
      </trkpt>
      <trkpt lat="45.80067" lon="6.72214">
        <ele>1525</ele>
        <time>2022-08-26T20:55:57Z</time>
      </trkpt>
      <trkpt lat="45.80064" lon="6.72212">
        <ele>1525</ele>
        <time>2022-08-26T20:55:59Z</time>
      </trkpt>
      <trkpt lat="45.80061" lon="6.72211">
        <ele>1525</ele>
        <time>2022-08-26T20:56:00Z</time>
      </trkpt>
      <trkpt lat="45.80058" lon="6.72209">
        <ele>1526</ele>
        <time>2022-08-26T20:56:02Z</time>
      </trkpt>
      <trkpt lat="45.80053" lon="6.72207">
        <ele>1526</ele>
        <time>2022-08-26T20:56:05Z</time>
      </trkpt>
      <trkpt lat="45.80051" lon="6.72206">
        <ele>1526</ele>
        <time>2022-08-26T20:56:06Z</time>
      </trkpt>
      <trkpt lat="45.8005" lon="6.72204">
        <ele>1526</ele>
        <time>2022-08-26T20:56:07Z</time>
      </trkpt>
      <trkpt lat="45.80048" lon="6.72203">
        <ele>1526</ele>
        <time>2022-08-26T20:56:08Z</time>
      </trkpt>
      <trkpt lat="45.80045" lon="6.72202">
        <ele>1526</ele>
        <time>2022-08-26T20:56:10Z</time>
      </trkpt>
      <trkpt lat="45.80043" lon="6.72201">
        <ele>1526</ele>
        <time>2022-08-26T20:56:11Z</time>
      </trkpt>
      <trkpt lat="45.80042" lon="6.722">
        <ele>1526</ele>
        <time>2022-08-26T20:56:12Z</time>
      </trkpt>
      <trkpt lat="45.80041" lon="6.72199">
        <ele>1526</ele>
        <time>2022-08-26T20:56:13Z</time>
      </trkpt>
      <trkpt lat="45.80039" lon="6.72198">
        <ele>1526</ele>
        <time>2022-08-26T20:56:14Z</time>
      </trkpt>
      <trkpt lat="45.80036" lon="6.72196">
        <ele>1526</ele>
        <time>2022-08-26T20:56:16Z</time>
      </trkpt>
      <trkpt lat="45.80032" lon="6.72192">
        <ele>1526</ele>
        <time>2022-08-26T20:56:19Z</time>
      </trkpt>
      <trkpt lat="45.8003" lon="6.72191">
        <ele>1526</ele>
        <time>2022-08-26T20:56:20Z</time>
      </trkpt>
      <trkpt lat="45.80027" lon="6.72188">
        <ele>1526</ele>
        <time>2022-08-26T20:56:22Z</time>
      </trkpt>
      <trkpt lat="45.80025" lon="6.72185">
        <ele>1527</ele>
        <time>2022-08-26T20:56:24Z</time>
      </trkpt>
      <trkpt lat="45.80022" lon="6.72183">
        <ele>1527</ele>
        <time>2022-08-26T20:56:26Z</time>
      </trkpt>
      <trkpt lat="45.8002" lon="6.7218">
        <ele>1527</ele>
        <time>2022-08-26T20:56:29Z</time>
      </trkpt>
      <trkpt lat="45.80018" lon="6.72177">
        <ele>1527</ele>
        <time>2022-08-26T20:56:31Z</time>
      </trkpt>
      <trkpt lat="45.80016" lon="6.72174">
        <ele>1527</ele>
        <time>2022-08-26T20:56:32Z</time>
      </trkpt>
      <trkpt lat="45.80014" lon="6.72171">
        <ele>1527</ele>
        <time>2022-08-26T20:56:35Z</time>
      </trkpt>
      <trkpt lat="45.80012" lon="6.72167">
        <ele>1527</ele>
        <time>2022-08-26T20:56:36Z</time>
      </trkpt>
      <trkpt lat="45.8001" lon="6.72163">
        <ele>1527</ele>
        <time>2022-08-26T20:56:38Z</time>
      </trkpt>
      <trkpt lat="45.80008" lon="6.7216">
        <ele>1528</ele>
        <time>2022-08-26T20:56:40Z</time>
      </trkpt>
      <trkpt lat="45.80005" lon="6.72157">
        <ele>1528</ele>
        <time>2022-08-26T20:56:43Z</time>
      </trkpt>
      <trkpt lat="45.80004" lon="6.72155">
        <ele>1528</ele>
        <time>2022-08-26T20:56:44Z</time>
      </trkpt>
      <trkpt lat="45.80002" lon="6.72153">
        <ele>1528</ele>
        <time>2022-08-26T20:56:45Z</time>
      </trkpt>
      <trkpt lat="45.8" lon="6.72151">
        <ele>1528</ele>
        <time>2022-08-26T20:56:46Z</time>
      </trkpt>
      <trkpt lat="45.79998" lon="6.72148">
        <ele>1528</ele>
        <time>2022-08-26T20:56:48Z</time>
      </trkpt>
      <trkpt lat="45.79995" lon="6.72145">
        <ele>1528</ele>
        <time>2022-08-26T20:56:50Z</time>
      </trkpt>
      <trkpt lat="45.79994" lon="6.72144">
        <ele>1528</ele>
        <time>2022-08-26T20:56:52Z</time>
      </trkpt>
      <trkpt lat="45.79991" lon="6.72141">
        <ele>1528</ele>
        <time>2022-08-26T20:56:53Z</time>
      </trkpt>
      <trkpt lat="45.7999" lon="6.72139">
        <ele>1528</ele>
        <time>2022-08-26T20:56:54Z</time>
      </trkpt>
      <trkpt lat="45.79989" lon="6.72138">
        <ele>1528</ele>
        <time>2022-08-26T20:56:55Z</time>
      </trkpt>
      <trkpt lat="45.79988" lon="6.72136">
        <ele>1528</ele>
        <time>2022-08-26T20:56:56Z</time>
      </trkpt>
      <trkpt lat="45.79987" lon="6.72135">
        <ele>1528</ele>
        <time>2022-08-26T20:56:57Z</time>
      </trkpt>
      <trkpt lat="45.79984" lon="6.72132">
        <ele>1528</ele>
        <time>2022-08-26T20:57:00Z</time>
      </trkpt>
      <trkpt lat="45.79982" lon="6.72129">
        <ele>1528</ele>
        <time>2022-08-26T20:57:02Z</time>
      </trkpt>
      <trkpt lat="45.79977" lon="6.72124">
        <ele>1528</ele>
        <time>2022-08-26T20:57:04Z</time>
      </trkpt>
      <trkpt lat="45.79975" lon="6.72122">
        <ele>1528</ele>
        <time>2022-08-26T20:57:05Z</time>
      </trkpt>
      <trkpt lat="45.7997" lon="6.7212">
        <ele>1528</ele>
        <time>2022-08-26T20:57:07Z</time>
      </trkpt>
      <trkpt lat="45.79969" lon="6.72119">
        <ele>1528</ele>
        <time>2022-08-26T20:57:08Z</time>
      </trkpt>
      <trkpt lat="45.79967" lon="6.72117">
        <ele>1527</ele>
        <time>2022-08-26T20:57:09Z</time>
      </trkpt>
      <trkpt lat="45.79965" lon="6.72116">
        <ele>1527</ele>
        <time>2022-08-26T20:57:10Z</time>
      </trkpt>
      <trkpt lat="45.79963" lon="6.72114">
        <ele>1528</ele>
        <time>2022-08-26T20:57:11Z</time>
      </trkpt>
      <trkpt lat="45.79959" lon="6.72111">
        <ele>1529</ele>
        <time>2022-08-26T20:57:13Z</time>
      </trkpt>
      <trkpt lat="45.79957" lon="6.72109">
        <ele>1529</ele>
        <time>2022-08-26T20:57:14Z</time>
      </trkpt>
      <trkpt lat="45.79956" lon="6.72108">
        <ele>1529</ele>
        <time>2022-08-26T20:57:15Z</time>
      </trkpt>
      <trkpt lat="45.79955" lon="6.72107">
        <ele>1529</ele>
        <time>2022-08-26T20:57:16Z</time>
      </trkpt>
      <trkpt lat="45.79954" lon="6.72106">
        <ele>1529</ele>
        <time>2022-08-26T20:57:17Z</time>
      </trkpt>
      <trkpt lat="45.79952" lon="6.72104">
        <ele>1529</ele>
        <time>2022-08-26T20:57:18Z</time>
      </trkpt>
      <trkpt lat="45.7995" lon="6.72103">
        <ele>1529</ele>
        <time>2022-08-26T20:57:19Z</time>
      </trkpt>
      <trkpt lat="45.79945" lon="6.72101">
        <ele>1529</ele>
        <time>2022-08-26T20:57:20Z</time>
      </trkpt>
      <trkpt lat="45.79944" lon="6.72101">
        <ele>1528</ele>
        <time>2022-08-26T20:57:21Z</time>
      </trkpt>
      <trkpt lat="45.79941" lon="6.72099">
        <ele>1529</ele>
        <time>2022-08-26T20:57:24Z</time>
      </trkpt>
      <trkpt lat="45.79938" lon="6.72097">
        <ele>1529</ele>
        <time>2022-08-26T20:57:26Z</time>
      </trkpt>
      <trkpt lat="45.79934" lon="6.72096">
        <ele>1529</ele>
        <time>2022-08-26T20:57:27Z</time>
      </trkpt>
      <trkpt lat="45.79932" lon="6.72095">
        <ele>1529</ele>
        <time>2022-08-26T20:57:28Z</time>
      </trkpt>
      <trkpt lat="45.7993" lon="6.72094">
        <ele>1529</ele>
        <time>2022-08-26T20:57:29Z</time>
      </trkpt>
      <trkpt lat="45.79928" lon="6.72093">
        <ele>1529</ele>
        <time>2022-08-26T20:57:31Z</time>
      </trkpt>
      <trkpt lat="45.79924" lon="6.7209">
        <ele>1529</ele>
        <time>2022-08-26T20:57:32Z</time>
      </trkpt>
      <trkpt lat="45.7992" lon="6.72087">
        <ele>1528</ele>
        <time>2022-08-26T20:57:34Z</time>
      </trkpt>
      <trkpt lat="45.79917" lon="6.72084">
        <ele>1528</ele>
        <time>2022-08-26T20:57:35Z</time>
      </trkpt>
      <trkpt lat="45.79916" lon="6.72084">
        <ele>1528</ele>
        <time>2022-08-26T20:57:36Z</time>
      </trkpt>
      <trkpt lat="45.79914" lon="6.72082">
        <ele>1528</ele>
        <time>2022-08-26T20:57:38Z</time>
      </trkpt>
      <trkpt lat="45.79913" lon="6.7208">
        <ele>1528</ele>
        <time>2022-08-26T20:57:39Z</time>
      </trkpt>
      <trkpt lat="45.79908" lon="6.72074">
        <ele>1529</ele>
        <time>2022-08-26T20:57:41Z</time>
      </trkpt>
      <trkpt lat="45.79906" lon="6.72069">
        <ele>1529</ele>
        <time>2022-08-26T20:57:43Z</time>
      </trkpt>
      <trkpt lat="45.79904" lon="6.72068">
        <ele>1529</ele>
        <time>2022-08-26T20:57:44Z</time>
      </trkpt>
      <trkpt lat="45.79903" lon="6.72066">
        <ele>1529</ele>
        <time>2022-08-26T20:57:45Z</time>
      </trkpt>
      <trkpt lat="45.79901" lon="6.72064">
        <ele>1529</ele>
        <time>2022-08-26T20:57:46Z</time>
      </trkpt>
      <trkpt lat="45.799" lon="6.72063">
        <ele>1529</ele>
        <time>2022-08-26T20:57:47Z</time>
      </trkpt>
      <trkpt lat="45.79898" lon="6.72061">
        <ele>1529</ele>
        <time>2022-08-26T20:57:48Z</time>
      </trkpt>
      <trkpt lat="45.79895" lon="6.72058">
        <ele>1529</ele>
        <time>2022-08-26T20:57:51Z</time>
      </trkpt>
      <trkpt lat="45.79893" lon="6.72054">
        <ele>1529</ele>
        <time>2022-08-26T20:57:52Z</time>
      </trkpt>
      <trkpt lat="45.79891" lon="6.72053">
        <ele>1529</ele>
        <time>2022-08-26T20:57:53Z</time>
      </trkpt>
      <trkpt lat="45.79889" lon="6.72051">
        <ele>1529</ele>
        <time>2022-08-26T20:57:55Z</time>
      </trkpt>
      <trkpt lat="45.79887" lon="6.72049">
        <ele>1529</ele>
        <time>2022-08-26T20:57:56Z</time>
      </trkpt>
      <trkpt lat="45.79885" lon="6.72048">
        <ele>1529</ele>
        <time>2022-08-26T20:57:58Z</time>
      </trkpt>
      <trkpt lat="45.79884" lon="6.72046">
        <ele>1529</ele>
        <time>2022-08-26T20:57:59Z</time>
      </trkpt>
      <trkpt lat="45.79881" lon="6.72044">
        <ele>1529</ele>
        <time>2022-08-26T20:58:02Z</time>
      </trkpt>
      <trkpt lat="45.79877" lon="6.7204">
        <ele>1529</ele>
        <time>2022-08-26T20:58:04Z</time>
      </trkpt>
      <trkpt lat="45.79873" lon="6.72039">
        <ele>1529</ele>
        <time>2022-08-26T20:58:06Z</time>
      </trkpt>
      <trkpt lat="45.79872" lon="6.72037">
        <ele>1529</ele>
        <time>2022-08-26T20:58:08Z</time>
      </trkpt>
      <trkpt lat="45.79869" lon="6.72035">
        <ele>1529</ele>
        <time>2022-08-26T20:58:09Z</time>
      </trkpt>
      <trkpt lat="45.79867" lon="6.72033">
        <ele>1529</ele>
        <time>2022-08-26T20:58:11Z</time>
      </trkpt>
      <trkpt lat="45.79865" lon="6.72032">
        <ele>1529</ele>
        <time>2022-08-26T20:58:12Z</time>
      </trkpt>
      <trkpt lat="45.79864" lon="6.72032">
        <ele>1529</ele>
        <time>2022-08-26T20:58:13Z</time>
      </trkpt>
      <trkpt lat="45.79861" lon="6.7203">
        <ele>1529</ele>
        <time>2022-08-26T20:58:14Z</time>
      </trkpt>
      <trkpt lat="45.7986" lon="6.72029">
        <ele>1529</ele>
        <time>2022-08-26T20:58:15Z</time>
      </trkpt>
      <trkpt lat="45.79858" lon="6.72029">
        <ele>1529</ele>
        <time>2022-08-26T20:58:16Z</time>
      </trkpt>
      <trkpt lat="45.79857" lon="6.72029">
        <ele>1529</ele>
        <time>2022-08-26T20:58:17Z</time>
      </trkpt>
      <trkpt lat="45.79856" lon="6.72029">
        <ele>1529</ele>
        <time>2022-08-26T20:58:18Z</time>
      </trkpt>
      <trkpt lat="45.79852" lon="6.72028">
        <ele>1529</ele>
        <time>2022-08-26T20:58:19Z</time>
      </trkpt>
      <trkpt lat="45.7985" lon="6.72026">
        <ele>1529</ele>
        <time>2022-08-26T20:58:22Z</time>
      </trkpt>
      <trkpt lat="45.79846" lon="6.72023">
        <ele>1529</ele>
        <time>2022-08-26T20:58:24Z</time>
      </trkpt>
      <trkpt lat="45.79844" lon="6.72022">
        <ele>1530</ele>
        <time>2022-08-26T20:58:25Z</time>
      </trkpt>
      <trkpt lat="45.79843" lon="6.72021">
        <ele>1530</ele>
        <time>2022-08-26T20:58:26Z</time>
      </trkpt>
      <trkpt lat="45.79842" lon="6.7202">
        <ele>1530</ele>
        <time>2022-08-26T20:58:27Z</time>
      </trkpt>
      <trkpt lat="45.79841" lon="6.72019">
        <ele>1530</ele>
        <time>2022-08-26T20:58:28Z</time>
      </trkpt>
      <trkpt lat="45.79839" lon="6.72018">
        <ele>1531</ele>
        <time>2022-08-26T20:58:29Z</time>
      </trkpt>
      <trkpt lat="45.79837" lon="6.72016">
        <ele>1531</ele>
        <time>2022-08-26T20:58:32Z</time>
      </trkpt>
      <trkpt lat="45.79835" lon="6.72014">
        <ele>1531</ele>
        <time>2022-08-26T20:58:34Z</time>
      </trkpt>
      <trkpt lat="45.79832" lon="6.72013">
        <ele>1531</ele>
        <time>2022-08-26T20:58:36Z</time>
      </trkpt>
      <trkpt lat="45.79829" lon="6.72012">
        <ele>1531</ele>
        <time>2022-08-26T20:58:38Z</time>
      </trkpt>
      <trkpt lat="45.79827" lon="6.72012">
        <ele>1532</ele>
        <time>2022-08-26T20:58:39Z</time>
      </trkpt>
      <trkpt lat="45.79824" lon="6.72012">
        <ele>1532</ele>
        <time>2022-08-26T20:58:40Z</time>
      </trkpt>
      <trkpt lat="45.7982" lon="6.72011">
        <ele>1532</ele>
        <time>2022-08-26T20:58:42Z</time>
      </trkpt>
      <trkpt lat="45.79818" lon="6.72011">
        <ele>1532</ele>
        <time>2022-08-26T20:58:44Z</time>
      </trkpt>
      <trkpt lat="45.79813" lon="6.72009">
        <ele>1532</ele>
        <time>2022-08-26T20:58:46Z</time>
      </trkpt>
      <trkpt lat="45.79811" lon="6.72009">
        <ele>1532</ele>
        <time>2022-08-26T20:58:47Z</time>
      </trkpt>
      <trkpt lat="45.79809" lon="6.72009">
        <ele>1532</ele>
        <time>2022-08-26T20:58:48Z</time>
      </trkpt>
      <trkpt lat="45.79804" lon="6.72006">
        <ele>1532</ele>
        <time>2022-08-26T20:58:51Z</time>
      </trkpt>
      <trkpt lat="45.79801" lon="6.72004">
        <ele>1532</ele>
        <time>2022-08-26T20:58:54Z</time>
      </trkpt>
      <trkpt lat="45.79798" lon="6.72002">
        <ele>1532</ele>
        <time>2022-08-26T20:58:56Z</time>
      </trkpt>
      <trkpt lat="45.79795" lon="6.71998">
        <ele>1532</ele>
        <time>2022-08-26T20:58:57Z</time>
      </trkpt>
      <trkpt lat="45.79793" lon="6.71995">
        <ele>1532</ele>
        <time>2022-08-26T20:58:59Z</time>
      </trkpt>
      <trkpt lat="45.7979" lon="6.71993">
        <ele>1532</ele>
        <time>2022-08-26T20:59:02Z</time>
      </trkpt>
      <trkpt lat="45.79788" lon="6.7199">
        <ele>1532</ele>
        <time>2022-08-26T20:59:03Z</time>
      </trkpt>
      <trkpt lat="45.79784" lon="6.71989">
        <ele>1532</ele>
        <time>2022-08-26T20:59:05Z</time>
      </trkpt>
      <trkpt lat="45.79782" lon="6.71987">
        <ele>1532</ele>
        <time>2022-08-26T20:59:08Z</time>
      </trkpt>
      <trkpt lat="45.79779" lon="6.71985">
        <ele>1532</ele>
        <time>2022-08-26T20:59:10Z</time>
      </trkpt>
      <trkpt lat="45.79776" lon="6.71983">
        <ele>1532</ele>
        <time>2022-08-26T20:59:12Z</time>
      </trkpt>
      <trkpt lat="45.79773" lon="6.71982">
        <ele>1532</ele>
        <time>2022-08-26T20:59:13Z</time>
      </trkpt>
      <trkpt lat="45.7977" lon="6.71981">
        <ele>1532</ele>
        <time>2022-08-26T20:59:15Z</time>
      </trkpt>
      <trkpt lat="45.79767" lon="6.71981">
        <ele>1532</ele>
        <time>2022-08-26T20:59:18Z</time>
      </trkpt>
      <trkpt lat="45.79765" lon="6.71979">
        <ele>1532</ele>
        <time>2022-08-26T20:59:20Z</time>
      </trkpt>
      <trkpt lat="45.79762" lon="6.71978">
        <ele>1532</ele>
        <time>2022-08-26T20:59:22Z</time>
      </trkpt>
      <trkpt lat="45.7976" lon="6.71976">
        <ele>1532</ele>
        <time>2022-08-26T20:59:24Z</time>
      </trkpt>
      <trkpt lat="45.79757" lon="6.71975">
        <ele>1532</ele>
        <time>2022-08-26T20:59:25Z</time>
      </trkpt>
      <trkpt lat="45.79754" lon="6.71973">
        <ele>1532</ele>
        <time>2022-08-26T20:59:27Z</time>
      </trkpt>
      <trkpt lat="45.79752" lon="6.71973">
        <ele>1532</ele>
        <time>2022-08-26T20:59:28Z</time>
      </trkpt>
      <trkpt lat="45.7975" lon="6.71971">
        <ele>1532</ele>
        <time>2022-08-26T20:59:30Z</time>
      </trkpt>
      <trkpt lat="45.79747" lon="6.71969">
        <ele>1532</ele>
        <time>2022-08-26T20:59:33Z</time>
      </trkpt>
      <trkpt lat="45.79745" lon="6.71968">
        <ele>1532</ele>
        <time>2022-08-26T20:59:34Z</time>
      </trkpt>
      <trkpt lat="45.79743" lon="6.71967">
        <ele>1532</ele>
        <time>2022-08-26T20:59:35Z</time>
      </trkpt>
      <trkpt lat="45.79741" lon="6.71965">
        <ele>1532</ele>
        <time>2022-08-26T20:59:36Z</time>
      </trkpt>
      <trkpt lat="45.79738" lon="6.71964">
        <ele>1532</ele>
        <time>2022-08-26T20:59:39Z</time>
      </trkpt>
      <trkpt lat="45.79735" lon="6.71962">
        <ele>1532</ele>
        <time>2022-08-26T20:59:40Z</time>
      </trkpt>
      <trkpt lat="45.79732" lon="6.7196">
        <ele>1532</ele>
        <time>2022-08-26T20:59:43Z</time>
      </trkpt>
      <trkpt lat="45.7973" lon="6.71958">
        <ele>1532</ele>
        <time>2022-08-26T20:59:44Z</time>
      </trkpt>
      <trkpt lat="45.79727" lon="6.71956">
        <ele>1533</ele>
        <time>2022-08-26T20:59:47Z</time>
      </trkpt>
      <trkpt lat="45.79723" lon="6.71955">
        <ele>1533</ele>
        <time>2022-08-26T20:59:49Z</time>
      </trkpt>
      <trkpt lat="45.79722" lon="6.71954">
        <ele>1533</ele>
        <time>2022-08-26T20:59:50Z</time>
      </trkpt>
      <trkpt lat="45.79719" lon="6.71953">
        <ele>1533</ele>
        <time>2022-08-26T20:59:51Z</time>
      </trkpt>
      <trkpt lat="45.79716" lon="6.71952">
        <ele>1534</ele>
        <time>2022-08-26T20:59:53Z</time>
      </trkpt>
      <trkpt lat="45.79712" lon="6.7195">
        <ele>1534</ele>
        <time>2022-08-26T20:59:55Z</time>
      </trkpt>
      <trkpt lat="45.7971" lon="6.71949">
        <ele>1534</ele>
        <time>2022-08-26T20:59:57Z</time>
      </trkpt>
      <trkpt lat="45.79707" lon="6.71946">
        <ele>1534</ele>
        <time>2022-08-26T20:59:59Z</time>
      </trkpt>
      <trkpt lat="45.79704" lon="6.71943">
        <ele>1534</ele>
        <time>2022-08-26T21:00:00Z</time>
      </trkpt>
      <trkpt lat="45.79702" lon="6.71942">
        <ele>1534</ele>
        <time>2022-08-26T21:00:01Z</time>
      </trkpt>
      <trkpt lat="45.79699" lon="6.71938">
        <ele>1534</ele>
        <time>2022-08-26T21:00:03Z</time>
      </trkpt>
      <trkpt lat="45.79697" lon="6.71936">
        <ele>1535</ele>
        <time>2022-08-26T21:00:04Z</time>
      </trkpt>
      <trkpt lat="45.79695" lon="6.71935">
        <ele>1535</ele>
        <time>2022-08-26T21:00:06Z</time>
      </trkpt>
      <trkpt lat="45.7969" lon="6.7193">
        <ele>1535</ele>
        <time>2022-08-26T21:00:07Z</time>
      </trkpt>
      <trkpt lat="45.79689" lon="6.7193">
        <ele>1535</ele>
        <time>2022-08-26T21:00:08Z</time>
      </trkpt>
      <trkpt lat="45.79688" lon="6.71927">
        <ele>1535</ele>
        <time>2022-08-26T21:00:09Z</time>
      </trkpt>
      <trkpt lat="45.79686" lon="6.71926">
        <ele>1535</ele>
        <time>2022-08-26T21:00:11Z</time>
      </trkpt>
      <trkpt lat="45.79682" lon="6.71923">
        <ele>1535</ele>
        <time>2022-08-26T21:00:12Z</time>
      </trkpt>
      <trkpt lat="45.7968" lon="6.71921">
        <ele>1535</ele>
        <time>2022-08-26T21:00:13Z</time>
      </trkpt>
      <trkpt lat="45.79679" lon="6.7192">
        <ele>1535</ele>
        <time>2022-08-26T21:00:14Z</time>
      </trkpt>
      <trkpt lat="45.79677" lon="6.71918">
        <ele>1535</ele>
        <time>2022-08-26T21:00:15Z</time>
      </trkpt>
      <trkpt lat="45.79676" lon="6.71916">
        <ele>1535</ele>
        <time>2022-08-26T21:00:16Z</time>
      </trkpt>
      <trkpt lat="45.79674" lon="6.71914">
        <ele>1535</ele>
        <time>2022-08-26T21:00:18Z</time>
      </trkpt>
      <trkpt lat="45.79671" lon="6.71912">
        <ele>1535</ele>
        <time>2022-08-26T21:00:19Z</time>
      </trkpt>
      <trkpt lat="45.79669" lon="6.71911">
        <ele>1535</ele>
        <time>2022-08-26T21:00:20Z</time>
      </trkpt>
      <trkpt lat="45.79666" lon="6.7191">
        <ele>1535</ele>
        <time>2022-08-26T21:00:23Z</time>
      </trkpt>
      <trkpt lat="45.79664" lon="6.71909">
        <ele>1535</ele>
        <time>2022-08-26T21:00:24Z</time>
      </trkpt>
      <trkpt lat="45.79662" lon="6.71908">
        <ele>1535</ele>
        <time>2022-08-26T21:00:25Z</time>
      </trkpt>
      <trkpt lat="45.79659" lon="6.71906">
        <ele>1535</ele>
        <time>2022-08-26T21:00:26Z</time>
      </trkpt>
      <trkpt lat="45.79657" lon="6.71906">
        <ele>1535</ele>
        <time>2022-08-26T21:00:27Z</time>
      </trkpt>
      <trkpt lat="45.79654" lon="6.71904">
        <ele>1535</ele>
        <time>2022-08-26T21:00:29Z</time>
      </trkpt>
      <trkpt lat="45.79652" lon="6.71903">
        <ele>1535</ele>
        <time>2022-08-26T21:00:31Z</time>
      </trkpt>
      <trkpt lat="45.7965" lon="6.71903">
        <ele>1535</ele>
        <time>2022-08-26T21:00:32Z</time>
      </trkpt>
      <trkpt lat="45.79646" lon="6.71901">
        <ele>1535</ele>
        <time>2022-08-26T21:00:33Z</time>
      </trkpt>
      <trkpt lat="45.79644" lon="6.71901">
        <ele>1535</ele>
        <time>2022-08-26T21:00:34Z</time>
      </trkpt>
      <trkpt lat="45.7964" lon="6.719">
        <ele>1535</ele>
        <time>2022-08-26T21:00:36Z</time>
      </trkpt>
      <trkpt lat="45.79638" lon="6.71899">
        <ele>1535</ele>
        <time>2022-08-26T21:00:38Z</time>
      </trkpt>
      <trkpt lat="45.79635" lon="6.71899">
        <ele>1536</ele>
        <time>2022-08-26T21:00:40Z</time>
      </trkpt>
      <trkpt lat="45.79631" lon="6.71899">
        <ele>1536</ele>
        <time>2022-08-26T21:00:41Z</time>
      </trkpt>
      <trkpt lat="45.79628" lon="6.71899">
        <ele>1536</ele>
        <time>2022-08-26T21:00:42Z</time>
      </trkpt>
      <trkpt lat="45.79627" lon="6.71899">
        <ele>1536</ele>
        <time>2022-08-26T21:00:43Z</time>
      </trkpt>
      <trkpt lat="45.79623" lon="6.71899">
        <ele>1536</ele>
        <time>2022-08-26T21:00:45Z</time>
      </trkpt>
      <trkpt lat="45.79621" lon="6.71899">
        <ele>1536</ele>
        <time>2022-08-26T21:00:46Z</time>
      </trkpt>
      <trkpt lat="45.79619" lon="6.71898">
        <ele>1536</ele>
        <time>2022-08-26T21:00:48Z</time>
      </trkpt>
      <trkpt lat="45.79617" lon="6.71897">
        <ele>1536</ele>
        <time>2022-08-26T21:00:49Z</time>
      </trkpt>
      <trkpt lat="45.79612" lon="6.71893">
        <ele>1536</ele>
        <time>2022-08-26T21:00:50Z</time>
      </trkpt>
      <trkpt lat="45.79609" lon="6.7189">
        <ele>1536</ele>
        <time>2022-08-26T21:00:52Z</time>
      </trkpt>
      <trkpt lat="45.79607" lon="6.71888">
        <ele>1536</ele>
        <time>2022-08-26T21:00:53Z</time>
      </trkpt>
      <trkpt lat="45.79606" lon="6.71886">
        <ele>1536</ele>
        <time>2022-08-26T21:00:54Z</time>
      </trkpt>
      <trkpt lat="45.79602" lon="6.71881">
        <ele>1537</ele>
        <time>2022-08-26T21:00:56Z</time>
      </trkpt>
      <trkpt lat="45.79599" lon="6.71877">
        <ele>1537</ele>
        <time>2022-08-26T21:00:58Z</time>
      </trkpt>
      <trkpt lat="45.79598" lon="6.71875">
        <ele>1537</ele>
        <time>2022-08-26T21:00:59Z</time>
      </trkpt>
      <trkpt lat="45.79596" lon="6.71872">
        <ele>1537</ele>
        <time>2022-08-26T21:01:00Z</time>
      </trkpt>
      <trkpt lat="45.79595" lon="6.7187">
        <ele>1537</ele>
        <time>2022-08-26T21:01:02Z</time>
      </trkpt>
      <trkpt lat="45.79591" lon="6.71866">
        <ele>1537</ele>
        <time>2022-08-26T21:01:03Z</time>
      </trkpt>
      <trkpt lat="45.7959" lon="6.71864">
        <ele>1537</ele>
        <time>2022-08-26T21:01:04Z</time>
      </trkpt>
      <trkpt lat="45.79588" lon="6.71863">
        <ele>1537</ele>
        <time>2022-08-26T21:01:05Z</time>
      </trkpt>
      <trkpt lat="45.79586" lon="6.71861">
        <ele>1537</ele>
        <time>2022-08-26T21:01:06Z</time>
      </trkpt>
      <trkpt lat="45.79584" lon="6.71859">
        <ele>1537</ele>
        <time>2022-08-26T21:01:07Z</time>
      </trkpt>
      <trkpt lat="45.79581" lon="6.71856">
        <ele>1537</ele>
        <time>2022-08-26T21:01:09Z</time>
      </trkpt>
      <trkpt lat="45.79579" lon="6.71854">
        <ele>1537</ele>
        <time>2022-08-26T21:01:10Z</time>
      </trkpt>
      <trkpt lat="45.79578" lon="6.71853">
        <ele>1537</ele>
        <time>2022-08-26T21:01:11Z</time>
      </trkpt>
      <trkpt lat="45.79576" lon="6.71851">
        <ele>1537</ele>
        <time>2022-08-26T21:01:12Z</time>
      </trkpt>
      <trkpt lat="45.79574" lon="6.71849">
        <ele>1537</ele>
        <time>2022-08-26T21:01:13Z</time>
      </trkpt>
      <trkpt lat="45.7957" lon="6.71845">
        <ele>1537</ele>
        <time>2022-08-26T21:01:16Z</time>
      </trkpt>
      <trkpt lat="45.79567" lon="6.71845">
        <ele>1537</ele>
        <time>2022-08-26T21:01:17Z</time>
      </trkpt>
      <trkpt lat="45.79564" lon="6.71843">
        <ele>1538</ele>
        <time>2022-08-26T21:01:20Z</time>
      </trkpt>
      <trkpt lat="45.79562" lon="6.71842">
        <ele>1538</ele>
        <time>2022-08-26T21:01:21Z</time>
      </trkpt>
      <trkpt lat="45.79559" lon="6.7184">
        <ele>1538</ele>
        <time>2022-08-26T21:01:23Z</time>
      </trkpt>
      <trkpt lat="45.79556" lon="6.71838">
        <ele>1539</ele>
        <time>2022-08-26T21:01:26Z</time>
      </trkpt>
      <trkpt lat="45.79553" lon="6.71837">
        <ele>1539</ele>
        <time>2022-08-26T21:01:27Z</time>
      </trkpt>
      <trkpt lat="45.79552" lon="6.71836">
        <ele>1539</ele>
        <time>2022-08-26T21:01:28Z</time>
      </trkpt>
      <trkpt lat="45.7955" lon="6.71835">
        <ele>1539</ele>
        <time>2022-08-26T21:01:29Z</time>
      </trkpt>
      <trkpt lat="45.79549" lon="6.71835">
        <ele>1539</ele>
        <time>2022-08-26T21:01:30Z</time>
      </trkpt>
      <trkpt lat="45.79547" lon="6.71834">
        <ele>1539</ele>
        <time>2022-08-26T21:01:31Z</time>
      </trkpt>
      <trkpt lat="45.79544" lon="6.71832">
        <ele>1539</ele>
        <time>2022-08-26T21:01:33Z</time>
      </trkpt>
      <trkpt lat="45.79542" lon="6.71831">
        <ele>1539</ele>
        <time>2022-08-26T21:01:35Z</time>
      </trkpt>
      <trkpt lat="45.79539" lon="6.7183">
        <ele>1539</ele>
        <time>2022-08-26T21:01:37Z</time>
      </trkpt>
      <trkpt lat="45.79536" lon="6.71828">
        <ele>1539</ele>
        <time>2022-08-26T21:01:38Z</time>
      </trkpt>
      <trkpt lat="45.79533" lon="6.71826">
        <ele>1539</ele>
        <time>2022-08-26T21:01:40Z</time>
      </trkpt>
      <trkpt lat="45.7953" lon="6.71824">
        <ele>1539</ele>
        <time>2022-08-26T21:01:43Z</time>
      </trkpt>
      <trkpt lat="45.79526" lon="6.71824">
        <ele>1539</ele>
        <time>2022-08-26T21:01:44Z</time>
      </trkpt>
      <trkpt lat="45.79524" lon="6.71823">
        <ele>1539</ele>
        <time>2022-08-26T21:01:45Z</time>
      </trkpt>
      <trkpt lat="45.79521" lon="6.71821">
        <ele>1539</ele>
        <time>2022-08-26T21:01:47Z</time>
      </trkpt>
      <trkpt lat="45.79518" lon="6.7182">
        <ele>1539</ele>
        <time>2022-08-26T21:01:50Z</time>
      </trkpt>
      <trkpt lat="45.79514" lon="6.71817">
        <ele>1539</ele>
        <time>2022-08-26T21:01:52Z</time>
      </trkpt>
      <trkpt lat="45.79512" lon="6.71816">
        <ele>1539</ele>
        <time>2022-08-26T21:01:53Z</time>
      </trkpt>
      <trkpt lat="45.7951" lon="6.71816">
        <ele>1539</ele>
        <time>2022-08-26T21:01:54Z</time>
      </trkpt>
      <trkpt lat="45.79507" lon="6.71814">
        <ele>1540</ele>
        <time>2022-08-26T21:01:57Z</time>
      </trkpt>
      <trkpt lat="45.79505" lon="6.71812">
        <ele>1540</ele>
        <time>2022-08-26T21:01:58Z</time>
      </trkpt>
      <trkpt lat="45.79502" lon="6.71809">
        <ele>1540</ele>
        <time>2022-08-26T21:02:00Z</time>
      </trkpt>
      <trkpt lat="45.795" lon="6.71808">
        <ele>1540</ele>
        <time>2022-08-26T21:02:01Z</time>
      </trkpt>
      <trkpt lat="45.79499" lon="6.71807">
        <ele>1540</ele>
        <time>2022-08-26T21:02:02Z</time>
      </trkpt>
      <trkpt lat="45.79498" lon="6.71807">
        <ele>1540</ele>
        <time>2022-08-26T21:02:03Z</time>
      </trkpt>
      <trkpt lat="45.79496" lon="6.71806">
        <ele>1540</ele>
        <time>2022-08-26T21:02:04Z</time>
      </trkpt>
      <trkpt lat="45.79493" lon="6.71804">
        <ele>1541</ele>
        <time>2022-08-26T21:02:07Z</time>
      </trkpt>
      <trkpt lat="45.79491" lon="6.71803">
        <ele>1541</ele>
        <time>2022-08-26T21:02:09Z</time>
      </trkpt>
      <trkpt lat="45.79489" lon="6.71802">
        <ele>1541</ele>
        <time>2022-08-26T21:02:10Z</time>
      </trkpt>
      <trkpt lat="45.79486" lon="6.71801">
        <ele>1541</ele>
        <time>2022-08-26T21:02:13Z</time>
      </trkpt>
      <trkpt lat="45.79481" lon="6.71798">
        <ele>1541</ele>
        <time>2022-08-26T21:02:15Z</time>
      </trkpt>
      <trkpt lat="45.7948" lon="6.71797">
        <ele>1541</ele>
        <time>2022-08-26T21:02:16Z</time>
      </trkpt>
      <trkpt lat="45.79478" lon="6.71795">
        <ele>1541</ele>
        <time>2022-08-26T21:02:19Z</time>
      </trkpt>
      <trkpt lat="45.79475" lon="6.71794">
        <ele>1541</ele>
        <time>2022-08-26T21:02:21Z</time>
      </trkpt>
      <trkpt lat="45.79472" lon="6.71793">
        <ele>1541</ele>
        <time>2022-08-26T21:02:22Z</time>
      </trkpt>
      <trkpt lat="45.79468" lon="6.71792">
        <ele>1541</ele>
        <time>2022-08-26T21:02:25Z</time>
      </trkpt>
      <trkpt lat="45.79463" lon="6.7179">
        <ele>1541</ele>
        <time>2022-08-26T21:02:27Z</time>
      </trkpt>
      <trkpt lat="45.79459" lon="6.71789">
        <ele>1542</ele>
        <time>2022-08-26T21:02:29Z</time>
      </trkpt>
      <trkpt lat="45.79457" lon="6.71788">
        <ele>1542</ele>
        <time>2022-08-26T21:02:30Z</time>
      </trkpt>
      <trkpt lat="45.79454" lon="6.71786">
        <ele>1542</ele>
        <time>2022-08-26T21:02:32Z</time>
      </trkpt>
      <trkpt lat="45.79452" lon="6.71784">
        <ele>1542</ele>
        <time>2022-08-26T21:02:33Z</time>
      </trkpt>
      <trkpt lat="45.7945" lon="6.71781">
        <ele>1542</ele>
        <time>2022-08-26T21:02:36Z</time>
      </trkpt>
      <trkpt lat="45.79447" lon="6.71777">
        <ele>1542</ele>
        <time>2022-08-26T21:02:38Z</time>
      </trkpt>
      <trkpt lat="45.79446" lon="6.71776">
        <ele>1543</ele>
        <time>2022-08-26T21:02:39Z</time>
      </trkpt>
      <trkpt lat="45.79444" lon="6.71774">
        <ele>1543</ele>
        <time>2022-08-26T21:02:41Z</time>
      </trkpt>
      <trkpt lat="45.79442" lon="6.71772">
        <ele>1543</ele>
        <time>2022-08-26T21:02:44Z</time>
      </trkpt>
      <trkpt lat="45.79439" lon="6.71769">
        <ele>1543</ele>
        <time>2022-08-26T21:02:46Z</time>
      </trkpt>
      <trkpt lat="45.79437" lon="6.71766">
        <ele>1543</ele>
        <time>2022-08-26T21:02:47Z</time>
      </trkpt>
      <trkpt lat="45.79435" lon="6.71763">
        <ele>1543</ele>
        <time>2022-08-26T21:02:49Z</time>
      </trkpt>
      <trkpt lat="45.79435" lon="6.71761">
        <ele>1543</ele>
        <time>2022-08-26T21:02:50Z</time>
      </trkpt>
      <trkpt lat="45.79434" lon="6.71759">
        <ele>1543</ele>
        <time>2022-08-26T21:02:51Z</time>
      </trkpt>
      <trkpt lat="45.79434" lon="6.71757">
        <ele>1543</ele>
        <time>2022-08-26T21:02:52Z</time>
      </trkpt>
      <trkpt lat="45.79433" lon="6.71755">
        <ele>1543</ele>
        <time>2022-08-26T21:02:53Z</time>
      </trkpt>
      <trkpt lat="45.79434" lon="6.71753">
        <ele>1543</ele>
        <time>2022-08-26T21:02:55Z</time>
      </trkpt>
      <trkpt lat="45.79436" lon="6.7175">
        <ele>1543</ele>
        <time>2022-08-26T21:02:56Z</time>
      </trkpt>
      <trkpt lat="45.79437" lon="6.71748">
        <ele>1543</ele>
        <time>2022-08-26T21:02:58Z</time>
      </trkpt>
      <trkpt lat="45.79439" lon="6.71745">
        <ele>1543</ele>
        <time>2022-08-26T21:02:59Z</time>
      </trkpt>
      <trkpt lat="45.79442" lon="6.71737">
        <ele>1543</ele>
        <time>2022-08-26T21:03:00Z</time>
      </trkpt>
      <trkpt lat="45.79445" lon="6.7173">
        <ele>1543</ele>
        <time>2022-08-26T21:03:02Z</time>
      </trkpt>
      <trkpt lat="45.79447" lon="6.71727">
        <ele>1543</ele>
        <time>2022-08-26T21:03:03Z</time>
      </trkpt>
      <trkpt lat="45.79448" lon="6.71723">
        <ele>1543</ele>
        <time>2022-08-26T21:03:04Z</time>
      </trkpt>
      <trkpt lat="45.79449" lon="6.71719">
        <ele>1544</ele>
        <time>2022-08-26T21:03:06Z</time>
      </trkpt>
      <trkpt lat="45.79448" lon="6.71714">
        <ele>1544</ele>
        <time>2022-08-26T21:03:07Z</time>
      </trkpt>
      <trkpt lat="45.79447" lon="6.71711">
        <ele>1544</ele>
        <time>2022-08-26T21:03:09Z</time>
      </trkpt>
      <trkpt lat="45.79446" lon="6.71708">
        <ele>1543</ele>
        <time>2022-08-26T21:03:10Z</time>
      </trkpt>
      <trkpt lat="45.79444" lon="6.71705">
        <ele>1543</ele>
        <time>2022-08-26T21:03:11Z</time>
      </trkpt>
      <trkpt lat="45.79443" lon="6.71702">
        <ele>1543</ele>
        <time>2022-08-26T21:03:12Z</time>
      </trkpt>
      <trkpt lat="45.79442" lon="6.71699">
        <ele>1543</ele>
        <time>2022-08-26T21:03:13Z</time>
      </trkpt>
      <trkpt lat="45.7944" lon="6.71695">
        <ele>1543</ele>
        <time>2022-08-26T21:03:14Z</time>
      </trkpt>
      <trkpt lat="45.79433" lon="6.71691">
        <ele>1543</ele>
        <time>2022-08-26T21:03:18Z</time>
      </trkpt>
      <trkpt lat="45.79432" lon="6.7169">
        <ele>1544</ele>
        <time>2022-08-26T21:03:20Z</time>
      </trkpt>
      <trkpt lat="45.7943" lon="6.71688">
        <ele>1544</ele>
        <time>2022-08-26T21:03:21Z</time>
      </trkpt>
      <trkpt lat="45.79424" lon="6.71685">
        <ele>1544</ele>
        <time>2022-08-26T21:03:22Z</time>
      </trkpt>
      <trkpt lat="45.79423" lon="6.71685">
        <ele>1544</ele>
        <time>2022-08-26T21:03:23Z</time>
      </trkpt>
      <trkpt lat="45.79421" lon="6.71684">
        <ele>1544</ele>
        <time>2022-08-26T21:03:24Z</time>
      </trkpt>
      <trkpt lat="45.79419" lon="6.71684">
        <ele>1544</ele>
        <time>2022-08-26T21:03:25Z</time>
      </trkpt>
      <trkpt lat="45.79415" lon="6.71682">
        <ele>1544</ele>
        <time>2022-08-26T21:03:27Z</time>
      </trkpt>
      <trkpt lat="45.79411" lon="6.7168">
        <ele>1544</ele>
        <time>2022-08-26T21:03:29Z</time>
      </trkpt>
      <trkpt lat="45.79409" lon="6.71679">
        <ele>1544</ele>
        <time>2022-08-26T21:03:30Z</time>
      </trkpt>
      <trkpt lat="45.79407" lon="6.71678">
        <ele>1545</ele>
        <time>2022-08-26T21:03:31Z</time>
      </trkpt>
      <trkpt lat="45.79405" lon="6.71677">
        <ele>1545</ele>
        <time>2022-08-26T21:03:32Z</time>
      </trkpt>
      <trkpt lat="45.79403" lon="6.71677">
        <ele>1544</ele>
        <time>2022-08-26T21:03:33Z</time>
      </trkpt>
      <trkpt lat="45.79402" lon="6.71676">
        <ele>1544</ele>
        <time>2022-08-26T21:03:34Z</time>
      </trkpt>
      <trkpt lat="45.79401" lon="6.71676">
        <ele>1545</ele>
        <time>2022-08-26T21:03:36Z</time>
      </trkpt>
      <trkpt lat="45.794" lon="6.71675">
        <ele>1545</ele>
        <time>2022-08-26T21:03:37Z</time>
      </trkpt>
      <trkpt lat="45.79398" lon="6.71675">
        <ele>1545</ele>
        <time>2022-08-26T21:03:38Z</time>
      </trkpt>
      <trkpt lat="45.79397" lon="6.71674">
        <ele>1545</ele>
        <time>2022-08-26T21:03:39Z</time>
      </trkpt>
      <trkpt lat="45.79396" lon="6.71674">
        <ele>1545</ele>
        <time>2022-08-26T21:03:40Z</time>
      </trkpt>
      <trkpt lat="45.79394" lon="6.71673">
        <ele>1545</ele>
        <time>2022-08-26T21:03:41Z</time>
      </trkpt>
      <trkpt lat="45.79392" lon="6.71672">
        <ele>1545</ele>
        <time>2022-08-26T21:03:42Z</time>
      </trkpt>
      <trkpt lat="45.7939" lon="6.71671">
        <ele>1545</ele>
        <time>2022-08-26T21:03:43Z</time>
      </trkpt>
      <trkpt lat="45.79388" lon="6.71669">
        <ele>1545</ele>
        <time>2022-08-26T21:03:44Z</time>
      </trkpt>
      <trkpt lat="45.79386" lon="6.71668">
        <ele>1545</ele>
        <time>2022-08-26T21:03:45Z</time>
      </trkpt>
      <trkpt lat="45.79384" lon="6.71666">
        <ele>1546</ele>
        <time>2022-08-26T21:03:46Z</time>
      </trkpt>
      <trkpt lat="45.79381" lon="6.71664">
        <ele>1546</ele>
        <time>2022-08-26T21:03:47Z</time>
      </trkpt>
      <trkpt lat="45.79378" lon="6.71662">
        <ele>1546</ele>
        <time>2022-08-26T21:03:48Z</time>
      </trkpt>
      <trkpt lat="45.79376" lon="6.71662">
        <ele>1546</ele>
        <time>2022-08-26T21:03:50Z</time>
      </trkpt>
      <trkpt lat="45.79373" lon="6.71661">
        <ele>1546</ele>
        <time>2022-08-26T21:03:51Z</time>
      </trkpt>
      <trkpt lat="45.79371" lon="6.7166">
        <ele>1546</ele>
        <time>2022-08-26T21:03:52Z</time>
      </trkpt>
      <trkpt lat="45.79368" lon="6.71659">
        <ele>1546</ele>
        <time>2022-08-26T21:03:53Z</time>
      </trkpt>
      <trkpt lat="45.79365" lon="6.71658">
        <ele>1546</ele>
        <time>2022-08-26T21:03:55Z</time>
      </trkpt>
      <trkpt lat="45.79362" lon="6.71657">
        <ele>1546</ele>
        <time>2022-08-26T21:03:56Z</time>
      </trkpt>
      <trkpt lat="45.79359" lon="6.71656">
        <ele>1546</ele>
        <time>2022-08-26T21:03:57Z</time>
      </trkpt>
      <trkpt lat="45.79357" lon="6.71656">
        <ele>1547</ele>
        <time>2022-08-26T21:03:58Z</time>
      </trkpt>
      <trkpt lat="45.79356" lon="6.71656">
        <ele>1547</ele>
        <time>2022-08-26T21:04:00Z</time>
      </trkpt>
      <trkpt lat="45.79354" lon="6.71656">
        <ele>1547</ele>
        <time>2022-08-26T21:04:01Z</time>
      </trkpt>
      <trkpt lat="45.79352" lon="6.71655">
        <ele>1547</ele>
        <time>2022-08-26T21:04:02Z</time>
      </trkpt>
      <trkpt lat="45.79351" lon="6.71655">
        <ele>1547</ele>
        <time>2022-08-26T21:04:03Z</time>
      </trkpt>
      <trkpt lat="45.79349" lon="6.71655">
        <ele>1547</ele>
        <time>2022-08-26T21:04:04Z</time>
      </trkpt>
      <trkpt lat="45.79347" lon="6.71654">
        <ele>1547</ele>
        <time>2022-08-26T21:04:05Z</time>
      </trkpt>
      <trkpt lat="45.79343" lon="6.71653">
        <ele>1547</ele>
        <time>2022-08-26T21:04:07Z</time>
      </trkpt>
      <trkpt lat="45.7934" lon="6.71653">
        <ele>1547</ele>
        <time>2022-08-26T21:04:08Z</time>
      </trkpt>
      <trkpt lat="45.79338" lon="6.71652">
        <ele>1547</ele>
        <time>2022-08-26T21:04:09Z</time>
      </trkpt>
      <trkpt lat="45.79336" lon="6.71652">
        <ele>1547</ele>
        <time>2022-08-26T21:04:10Z</time>
      </trkpt>
      <trkpt lat="45.79334" lon="6.7165">
        <ele>1547</ele>
        <time>2022-08-26T21:04:12Z</time>
      </trkpt>
      <trkpt lat="45.79332" lon="6.71649">
        <ele>1547</ele>
        <time>2022-08-26T21:04:13Z</time>
      </trkpt>
      <trkpt lat="45.79329" lon="6.71648">
        <ele>1548</ele>
        <time>2022-08-26T21:04:14Z</time>
      </trkpt>
      <trkpt lat="45.79327" lon="6.71647">
        <ele>1548</ele>
        <time>2022-08-26T21:04:15Z</time>
      </trkpt>
      <trkpt lat="45.79325" lon="6.71646">
        <ele>1548</ele>
        <time>2022-08-26T21:04:17Z</time>
      </trkpt>
      <trkpt lat="45.79323" lon="6.71645">
        <ele>1548</ele>
        <time>2022-08-26T21:04:18Z</time>
      </trkpt>
      <trkpt lat="45.7932" lon="6.71643">
        <ele>1548</ele>
        <time>2022-08-26T21:04:19Z</time>
      </trkpt>
      <trkpt lat="45.79318" lon="6.71642">
        <ele>1548</ele>
        <time>2022-08-26T21:04:20Z</time>
      </trkpt>
      <trkpt lat="45.79313" lon="6.71639">
        <ele>1548</ele>
        <time>2022-08-26T21:04:22Z</time>
      </trkpt>
      <trkpt lat="45.7931" lon="6.71635">
        <ele>1548</ele>
        <time>2022-08-26T21:04:24Z</time>
      </trkpt>
      <trkpt lat="45.79307" lon="6.71633">
        <ele>1548</ele>
        <time>2022-08-26T21:04:25Z</time>
      </trkpt>
      <trkpt lat="45.79307" lon="6.71633">
        <ele>1548</ele>
        <time>2022-08-26T21:04:26Z</time>
      </trkpt>
      <trkpt lat="45.79306" lon="6.71632">
        <ele>1549</ele>
        <time>2022-08-26T21:04:27Z</time>
      </trkpt>
      <trkpt lat="45.79303" lon="6.7163">
        <ele>1550</ele>
        <time>2022-08-26T21:04:28Z</time>
      </trkpt>
      <trkpt lat="45.79301" lon="6.71628">
        <ele>1550</ele>
        <time>2022-08-26T21:04:29Z</time>
      </trkpt>
      <trkpt lat="45.79298" lon="6.71627">
        <ele>1550</ele>
        <time>2022-08-26T21:04:30Z</time>
      </trkpt>
      <trkpt lat="45.79294" lon="6.71624">
        <ele>1550</ele>
        <time>2022-08-26T21:04:32Z</time>
      </trkpt>
      <trkpt lat="45.79292" lon="6.71622">
        <ele>1550</ele>
        <time>2022-08-26T21:04:33Z</time>
      </trkpt>
      <trkpt lat="45.7929" lon="6.71621">
        <ele>1550</ele>
        <time>2022-08-26T21:04:35Z</time>
      </trkpt>
      <trkpt lat="45.79287" lon="6.7162">
        <ele>1550</ele>
        <time>2022-08-26T21:04:36Z</time>
      </trkpt>
      <trkpt lat="45.79283" lon="6.71617">
        <ele>1551</ele>
        <time>2022-08-26T21:04:37Z</time>
      </trkpt>
      <trkpt lat="45.79281" lon="6.71616">
        <ele>1551</ele>
        <time>2022-08-26T21:04:39Z</time>
      </trkpt>
      <trkpt lat="45.79278" lon="6.71615">
        <ele>1551</ele>
        <time>2022-08-26T21:04:40Z</time>
      </trkpt>
      <trkpt lat="45.79275" lon="6.71613">
        <ele>1551</ele>
        <time>2022-08-26T21:04:41Z</time>
      </trkpt>
      <trkpt lat="45.79273" lon="6.71612">
        <ele>1551</ele>
        <time>2022-08-26T21:04:42Z</time>
      </trkpt>
      <trkpt lat="45.79271" lon="6.71611">
        <ele>1552</ele>
        <time>2022-08-26T21:04:43Z</time>
      </trkpt>
      <trkpt lat="45.79269" lon="6.7161">
        <ele>1551</ele>
        <time>2022-08-26T21:04:45Z</time>
      </trkpt>
      <trkpt lat="45.79267" lon="6.71609">
        <ele>1551</ele>
        <time>2022-08-26T21:04:46Z</time>
      </trkpt>
      <trkpt lat="45.79263" lon="6.71607">
        <ele>1551</ele>
        <time>2022-08-26T21:04:47Z</time>
      </trkpt>
      <trkpt lat="45.7926" lon="6.71605">
        <ele>1551</ele>
        <time>2022-08-26T21:04:49Z</time>
      </trkpt>
      <trkpt lat="45.79256" lon="6.71603">
        <ele>1552</ele>
        <time>2022-08-26T21:04:50Z</time>
      </trkpt>
      <trkpt lat="45.79254" lon="6.71602">
        <ele>1552</ele>
        <time>2022-08-26T21:04:51Z</time>
      </trkpt>
      <trkpt lat="45.79252" lon="6.71601">
        <ele>1552</ele>
        <time>2022-08-26T21:04:52Z</time>
      </trkpt>
      <trkpt lat="45.7925" lon="6.716">
        <ele>1552</ele>
        <time>2022-08-26T21:04:53Z</time>
      </trkpt>
      <trkpt lat="45.79246" lon="6.71598">
        <ele>1552</ele>
        <time>2022-08-26T21:04:55Z</time>
      </trkpt>
      <trkpt lat="45.79242" lon="6.71596">
        <ele>1552</ele>
        <time>2022-08-26T21:04:57Z</time>
      </trkpt>
      <trkpt lat="45.79238" lon="6.71593">
        <ele>1553</ele>
        <time>2022-08-26T21:04:59Z</time>
      </trkpt>
      <trkpt lat="45.79237" lon="6.71592">
        <ele>1553</ele>
        <time>2022-08-26T21:05:00Z</time>
      </trkpt>
      <trkpt lat="45.79235" lon="6.71592">
        <ele>1553</ele>
        <time>2022-08-26T21:05:01Z</time>
      </trkpt>
      <trkpt lat="45.79234" lon="6.71591">
        <ele>1553</ele>
        <time>2022-08-26T21:05:02Z</time>
      </trkpt>
      <trkpt lat="45.79232" lon="6.7159">
        <ele>1553</ele>
        <time>2022-08-26T21:05:03Z</time>
      </trkpt>
      <trkpt lat="45.7923" lon="6.71589">
        <ele>1553</ele>
        <time>2022-08-26T21:05:04Z</time>
      </trkpt>
      <trkpt lat="45.79225" lon="6.71588">
        <ele>1553</ele>
        <time>2022-08-26T21:05:05Z</time>
      </trkpt>
      <trkpt lat="45.79222" lon="6.71588">
        <ele>1553</ele>
        <time>2022-08-26T21:05:07Z</time>
      </trkpt>
      <trkpt lat="45.7922" lon="6.7159">
        <ele>1553</ele>
        <time>2022-08-26T21:05:08Z</time>
      </trkpt>
      <trkpt lat="45.79217" lon="6.71592">
        <ele>1553</ele>
        <time>2022-08-26T21:05:09Z</time>
      </trkpt>
      <trkpt lat="45.79215" lon="6.71594">
        <ele>1553</ele>
        <time>2022-08-26T21:05:11Z</time>
      </trkpt>
      <trkpt lat="45.79213" lon="6.71596">
        <ele>1553</ele>
        <time>2022-08-26T21:05:12Z</time>
      </trkpt>
      <trkpt lat="45.79211" lon="6.71598">
        <ele>1553</ele>
        <time>2022-08-26T21:05:13Z</time>
      </trkpt>
      <trkpt lat="45.79206" lon="6.716">
        <ele>1553</ele>
        <time>2022-08-26T21:05:15Z</time>
      </trkpt>
      <trkpt lat="45.79204" lon="6.716">
        <ele>1553</ele>
        <time>2022-08-26T21:05:17Z</time>
      </trkpt>
      <trkpt lat="45.79202" lon="6.71601">
        <ele>1553</ele>
        <time>2022-08-26T21:05:18Z</time>
      </trkpt>
      <trkpt lat="45.79196" lon="6.71603">
        <ele>1553</ele>
        <time>2022-08-26T21:05:19Z</time>
      </trkpt>
      <trkpt lat="45.79195" lon="6.71603">
        <ele>1553</ele>
        <time>2022-08-26T21:05:20Z</time>
      </trkpt>
      <trkpt lat="45.79189" lon="6.71603">
        <ele>1553</ele>
        <time>2022-08-26T21:05:22Z</time>
      </trkpt>
      <trkpt lat="45.79187" lon="6.71603">
        <ele>1554</ele>
        <time>2022-08-26T21:05:23Z</time>
      </trkpt>
      <trkpt lat="45.79183" lon="6.71604">
        <ele>1554</ele>
        <time>2022-08-26T21:05:24Z</time>
      </trkpt>
      <trkpt lat="45.79182" lon="6.71605">
        <ele>1554</ele>
        <time>2022-08-26T21:05:25Z</time>
      </trkpt>
      <trkpt lat="45.79181" lon="6.71606">
        <ele>1554</ele>
        <time>2022-08-26T21:05:27Z</time>
      </trkpt>
      <trkpt lat="45.79179" lon="6.71607">
        <ele>1554</ele>
        <time>2022-08-26T21:05:28Z</time>
      </trkpt>
      <trkpt lat="45.79176" lon="6.71609">
        <ele>1554</ele>
        <time>2022-08-26T21:05:29Z</time>
      </trkpt>
      <trkpt lat="45.79175" lon="6.71609">
        <ele>1554</ele>
        <time>2022-08-26T21:05:30Z</time>
      </trkpt>
      <trkpt lat="45.79173" lon="6.71612">
        <ele>1554</ele>
        <time>2022-08-26T21:05:32Z</time>
      </trkpt>
      <trkpt lat="45.7917" lon="6.71615">
        <ele>1554</ele>
        <time>2022-08-26T21:05:33Z</time>
      </trkpt>
      <trkpt lat="45.79168" lon="6.71616">
        <ele>1554</ele>
        <time>2022-08-26T21:05:35Z</time>
      </trkpt>
      <trkpt lat="45.79166" lon="6.71616">
        <ele>1554</ele>
        <time>2022-08-26T21:05:36Z</time>
      </trkpt>
      <trkpt lat="45.79165" lon="6.71617">
        <ele>1554</ele>
        <time>2022-08-26T21:05:37Z</time>
      </trkpt>
      <trkpt lat="45.79163" lon="6.71618">
        <ele>1555</ele>
        <time>2022-08-26T21:05:39Z</time>
      </trkpt>
      <trkpt lat="45.79161" lon="6.71619">
        <ele>1555</ele>
        <time>2022-08-26T21:05:40Z</time>
      </trkpt>
      <trkpt lat="45.79158" lon="6.71617">
        <ele>1556</ele>
        <time>2022-08-26T21:05:42Z</time>
      </trkpt>
      <trkpt lat="45.79155" lon="6.71616">
        <ele>1556</ele>
        <time>2022-08-26T21:05:44Z</time>
      </trkpt>
      <trkpt lat="45.79152" lon="6.71614">
        <ele>1556</ele>
        <time>2022-08-26T21:05:45Z</time>
      </trkpt>
      <trkpt lat="45.79152" lon="6.71613">
        <ele>1556</ele>
        <time>2022-08-26T21:05:46Z</time>
      </trkpt>
      <trkpt lat="45.79151" lon="6.71611">
        <ele>1556</ele>
        <time>2022-08-26T21:05:47Z</time>
      </trkpt>
      <trkpt lat="45.7915" lon="6.7161">
        <ele>1556</ele>
        <time>2022-08-26T21:05:48Z</time>
      </trkpt>
      <trkpt lat="45.79149" lon="6.71609">
        <ele>1556</ele>
        <time>2022-08-26T21:05:49Z</time>
      </trkpt>
      <trkpt lat="45.79148" lon="6.71607">
        <ele>1558</ele>
        <time>2022-08-26T21:05:52Z</time>
      </trkpt>
      <trkpt lat="45.79143" lon="6.71594">
        <ele>1559</ele>
        <time>2022-08-26T21:06:01Z</time>
      </trkpt>
      <trkpt lat="45.79142" lon="6.71592">
        <ele>1559</ele>
        <time>2022-08-26T21:06:02Z</time>
      </trkpt>
      <trkpt lat="45.79141" lon="6.71591">
        <ele>1560</ele>
        <time>2022-08-26T21:06:03Z</time>
      </trkpt>
      <trkpt lat="45.7914" lon="6.71589">
        <ele>1560</ele>
        <time>2022-08-26T21:06:04Z</time>
      </trkpt>
      <trkpt lat="45.79139" lon="6.71588">
        <ele>1561</ele>
        <time>2022-08-26T21:06:06Z</time>
      </trkpt>
      <trkpt lat="45.79138" lon="6.71586">
        <ele>1561</ele>
        <time>2022-08-26T21:06:07Z</time>
      </trkpt>
      <trkpt lat="45.79136" lon="6.71584">
        <ele>1561</ele>
        <time>2022-08-26T21:06:09Z</time>
      </trkpt>
      <trkpt lat="45.79134" lon="6.71583">
        <ele>1562</ele>
        <time>2022-08-26T21:06:12Z</time>
      </trkpt>
      <trkpt lat="45.79132" lon="6.71582">
        <ele>1562</ele>
        <time>2022-08-26T21:06:14Z</time>
      </trkpt>
      <trkpt lat="45.79131" lon="6.71581">
        <ele>1564</ele>
        <time>2022-08-26T21:06:16Z</time>
      </trkpt>
      <trkpt lat="45.7913" lon="6.7158">
        <ele>1564</ele>
        <time>2022-08-26T21:06:18Z</time>
      </trkpt>
      <trkpt lat="45.79129" lon="6.71579">
        <ele>1564</ele>
        <time>2022-08-26T21:06:19Z</time>
      </trkpt>
      <trkpt lat="45.79128" lon="6.71579">
        <ele>1564</ele>
        <time>2022-08-26T21:06:20Z</time>
      </trkpt>
      <trkpt lat="45.79127" lon="6.71578">
        <ele>1565</ele>
        <time>2022-08-26T21:06:22Z</time>
      </trkpt>
      <trkpt lat="45.79126" lon="6.71577">
        <ele>1565</ele>
        <time>2022-08-26T21:06:23Z</time>
      </trkpt>
      <trkpt lat="45.79125" lon="6.71577">
        <ele>1565</ele>
        <time>2022-08-26T21:06:24Z</time>
      </trkpt>
      <trkpt lat="45.79124" lon="6.71576">
        <ele>1565</ele>
        <time>2022-08-26T21:06:25Z</time>
      </trkpt>
      <trkpt lat="45.79122" lon="6.71575">
        <ele>1565</ele>
        <time>2022-08-26T21:06:28Z</time>
      </trkpt>
      <trkpt lat="45.79121" lon="6.71573">
        <ele>1566</ele>
        <time>2022-08-26T21:06:30Z</time>
      </trkpt>
      <trkpt lat="45.79119" lon="6.71572">
        <ele>1567</ele>
        <time>2022-08-26T21:06:33Z</time>
      </trkpt>
      <trkpt lat="45.79117" lon="6.7157">
        <ele>1567</ele>
        <time>2022-08-26T21:06:35Z</time>
      </trkpt>
      <trkpt lat="45.79115" lon="6.71569">
        <ele>1568</ele>
        <time>2022-08-26T21:06:37Z</time>
      </trkpt>
      <trkpt lat="45.79113" lon="6.71568">
        <ele>1568</ele>
        <time>2022-08-26T21:06:39Z</time>
      </trkpt>
      <trkpt lat="45.79111" lon="6.71566">
        <ele>1568</ele>
        <time>2022-08-26T21:06:41Z</time>
      </trkpt>
      <trkpt lat="45.79109" lon="6.71566">
        <ele>1569</ele>
        <time>2022-08-26T21:06:44Z</time>
      </trkpt>
      <trkpt lat="45.79106" lon="6.71565">
        <ele>1570</ele>
        <time>2022-08-26T21:06:47Z</time>
      </trkpt>
      <trkpt lat="45.79104" lon="6.71564">
        <ele>1571</ele>
        <time>2022-08-26T21:06:50Z</time>
      </trkpt>
      <trkpt lat="45.79103" lon="6.71563">
        <ele>1572</ele>
        <time>2022-08-26T21:06:52Z</time>
      </trkpt>
      <trkpt lat="45.79101" lon="6.71561">
        <ele>1573</ele>
        <time>2022-08-26T21:06:55Z</time>
      </trkpt>
      <trkpt lat="45.79099" lon="6.7156">
        <ele>1573</ele>
        <time>2022-08-26T21:06:58Z</time>
      </trkpt>
      <trkpt lat="45.79097" lon="6.71558">
        <ele>1573</ele>
        <time>2022-08-26T21:07:00Z</time>
      </trkpt>
      <trkpt lat="45.79095" lon="6.71556">
        <ele>1574</ele>
        <time>2022-08-26T21:07:03Z</time>
      </trkpt>
      <trkpt lat="45.79093" lon="6.71556">
        <ele>1574</ele>
        <time>2022-08-26T21:07:05Z</time>
      </trkpt>
      <trkpt lat="45.7909" lon="6.71556">
        <ele>1576</ele>
        <time>2022-08-26T21:07:10Z</time>
      </trkpt>
      <trkpt lat="45.79088" lon="6.71555">
        <ele>1577</ele>
        <time>2022-08-26T21:07:13Z</time>
      </trkpt>
      <trkpt lat="45.79085" lon="6.71555">
        <ele>1577</ele>
        <time>2022-08-26T21:07:15Z</time>
      </trkpt>
      <trkpt lat="45.79084" lon="6.71554">
        <ele>1578</ele>
        <time>2022-08-26T21:07:20Z</time>
      </trkpt>
      <trkpt lat="45.79082" lon="6.71552">
        <ele>1578</ele>
        <time>2022-08-26T21:07:22Z</time>
      </trkpt>
      <trkpt lat="45.7908" lon="6.7155">
        <ele>1580</ele>
        <time>2022-08-26T21:07:24Z</time>
      </trkpt>
      <trkpt lat="45.79079" lon="6.71547">
        <ele>1580</ele>
        <time>2022-08-26T21:07:26Z</time>
      </trkpt>
      <trkpt lat="45.79077" lon="6.71545">
        <ele>1581</ele>
        <time>2022-08-26T21:07:29Z</time>
      </trkpt>
      <trkpt lat="45.79075" lon="6.71545">
        <ele>1581</ele>
        <time>2022-08-26T21:07:31Z</time>
      </trkpt>
      <trkpt lat="45.79073" lon="6.71544">
        <ele>1581</ele>
        <time>2022-08-26T21:07:32Z</time>
      </trkpt>
      <trkpt lat="45.79071" lon="6.71544">
        <ele>1581</ele>
        <time>2022-08-26T21:07:35Z</time>
      </trkpt>
      <trkpt lat="45.79068" lon="6.71543">
        <ele>1581</ele>
        <time>2022-08-26T21:07:37Z</time>
      </trkpt>
      <trkpt lat="45.79066" lon="6.71542">
        <ele>1583</ele>
        <time>2022-08-26T21:07:40Z</time>
      </trkpt>
      <trkpt lat="45.79064" lon="6.71542">
        <ele>1583</ele>
        <time>2022-08-26T21:07:42Z</time>
      </trkpt>
      <trkpt lat="45.79062" lon="6.71541">
        <ele>1583</ele>
        <time>2022-08-26T21:07:43Z</time>
      </trkpt>
      <trkpt lat="45.7906" lon="6.71541">
        <ele>1584</ele>
        <time>2022-08-26T21:07:45Z</time>
      </trkpt>
      <trkpt lat="45.79059" lon="6.71541">
        <ele>1584</ele>
        <time>2022-08-26T21:07:46Z</time>
      </trkpt>
      <trkpt lat="45.79058" lon="6.7154">
        <ele>1584</ele>
        <time>2022-08-26T21:07:48Z</time>
      </trkpt>
      <trkpt lat="45.79057" lon="6.7154">
        <ele>1584</ele>
        <time>2022-08-26T21:07:49Z</time>
      </trkpt>
      <trkpt lat="45.79056" lon="6.71539">
        <ele>1585</ele>
        <time>2022-08-26T21:07:50Z</time>
      </trkpt>
      <trkpt lat="45.79054" lon="6.71537">
        <ele>1586</ele>
        <time>2022-08-26T21:07:54Z</time>
      </trkpt>
      <trkpt lat="45.79051" lon="6.71534">
        <ele>1588</ele>
        <time>2022-08-26T21:07:57Z</time>
      </trkpt>
      <trkpt lat="45.7905" lon="6.71533">
        <ele>1588</ele>
        <time>2022-08-26T21:07:58Z</time>
      </trkpt>
      <trkpt lat="45.79049" lon="6.71532">
        <ele>1588</ele>
        <time>2022-08-26T21:08:00Z</time>
      </trkpt>
      <trkpt lat="45.79048" lon="6.71532">
        <ele>1588</ele>
        <time>2022-08-26T21:08:01Z</time>
      </trkpt>
      <trkpt lat="45.79047" lon="6.71531">
        <ele>1589</ele>
        <time>2022-08-26T21:08:02Z</time>
      </trkpt>
      <trkpt lat="45.79045" lon="6.71529">
        <ele>1589</ele>
        <time>2022-08-26T21:08:03Z</time>
      </trkpt>
      <trkpt lat="45.79043" lon="6.71528">
        <ele>1589</ele>
        <time>2022-08-26T21:08:06Z</time>
      </trkpt>
      <trkpt lat="45.79039" lon="6.71527">
        <ele>1589</ele>
        <time>2022-08-26T21:08:08Z</time>
      </trkpt>
      <trkpt lat="45.79032" lon="6.71523">
        <ele>1592</ele>
        <time>2022-08-26T21:08:16Z</time>
      </trkpt>
      <trkpt lat="45.79031" lon="6.71522">
        <ele>1592</ele>
        <time>2022-08-26T21:08:17Z</time>
      </trkpt>
      <trkpt lat="45.7903" lon="6.71521">
        <ele>1592</ele>
        <time>2022-08-26T21:08:18Z</time>
      </trkpt>
      <trkpt lat="45.79029" lon="6.71519">
        <ele>1592</ele>
        <time>2022-08-26T21:08:19Z</time>
      </trkpt>
      <trkpt lat="45.79029" lon="6.71518">
        <ele>1592</ele>
        <time>2022-08-26T21:08:21Z</time>
      </trkpt>
      <trkpt lat="45.79028" lon="6.71517">
        <ele>1593</ele>
        <time>2022-08-26T21:08:22Z</time>
      </trkpt>
      <trkpt lat="45.79027" lon="6.71516">
        <ele>1593</ele>
        <time>2022-08-26T21:08:23Z</time>
      </trkpt>
      <trkpt lat="45.79026" lon="6.71515">
        <ele>1593</ele>
        <time>2022-08-26T21:08:24Z</time>
      </trkpt>
      <trkpt lat="45.79025" lon="6.71514">
        <ele>1594</ele>
        <time>2022-08-26T21:08:26Z</time>
      </trkpt>
      <trkpt lat="45.79024" lon="6.71513">
        <ele>1594</ele>
        <time>2022-08-26T21:08:27Z</time>
      </trkpt>
      <trkpt lat="45.79023" lon="6.71513">
        <ele>1594</ele>
        <time>2022-08-26T21:08:28Z</time>
      </trkpt>
      <trkpt lat="45.79022" lon="6.71512">
        <ele>1595</ele>
        <time>2022-08-26T21:08:29Z</time>
      </trkpt>
      <trkpt lat="45.79021" lon="6.71511">
        <ele>1595</ele>
        <time>2022-08-26T21:08:31Z</time>
      </trkpt>
      <trkpt lat="45.7902" lon="6.71511">
        <ele>1595</ele>
        <time>2022-08-26T21:08:33Z</time>
      </trkpt>
      <trkpt lat="45.79019" lon="6.7151">
        <ele>1596</ele>
        <time>2022-08-26T21:08:35Z</time>
      </trkpt>
      <trkpt lat="45.79017" lon="6.71509">
        <ele>1597</ele>
        <time>2022-08-26T21:08:36Z</time>
      </trkpt>
      <trkpt lat="45.79016" lon="6.71509">
        <ele>1597</ele>
        <time>2022-08-26T21:08:38Z</time>
      </trkpt>
      <trkpt lat="45.79014" lon="6.71509">
        <ele>1597</ele>
        <time>2022-08-26T21:08:40Z</time>
      </trkpt>
      <trkpt lat="45.79012" lon="6.71509">
        <ele>1598</ele>
        <time>2022-08-26T21:08:41Z</time>
      </trkpt>
      <trkpt lat="45.7901" lon="6.71509">
        <ele>1598</ele>
        <time>2022-08-26T21:08:42Z</time>
      </trkpt>
      <trkpt lat="45.79008" lon="6.71509">
        <ele>1598</ele>
        <time>2022-08-26T21:08:43Z</time>
      </trkpt>
      <trkpt lat="45.79007" lon="6.71508">
        <ele>1599</ele>
        <time>2022-08-26T21:08:45Z</time>
      </trkpt>
      <trkpt lat="45.79006" lon="6.71507">
        <ele>1599</ele>
        <time>2022-08-26T21:08:46Z</time>
      </trkpt>
      <trkpt lat="45.79005" lon="6.71506">
        <ele>1599</ele>
        <time>2022-08-26T21:08:47Z</time>
      </trkpt>
      <trkpt lat="45.79004" lon="6.71505">
        <ele>1600</ele>
        <time>2022-08-26T21:08:48Z</time>
      </trkpt>
      <trkpt lat="45.79003" lon="6.71505">
        <ele>1601</ele>
        <time>2022-08-26T21:08:50Z</time>
      </trkpt>
      <trkpt lat="45.79003" lon="6.71504">
        <ele>1601</ele>
        <time>2022-08-26T21:08:51Z</time>
      </trkpt>
      <trkpt lat="45.79002" lon="6.71503">
        <ele>1601</ele>
        <time>2022-08-26T21:08:52Z</time>
      </trkpt>
      <trkpt lat="45.79001" lon="6.71502">
        <ele>1601</ele>
        <time>2022-08-26T21:08:54Z</time>
      </trkpt>
      <trkpt lat="45.79" lon="6.71501">
        <ele>1601</ele>
        <time>2022-08-26T21:08:55Z</time>
      </trkpt>
      <trkpt lat="45.78999" lon="6.71501">
        <ele>1602</ele>
        <time>2022-08-26T21:08:56Z</time>
      </trkpt>
      <trkpt lat="45.78998" lon="6.715">
        <ele>1602</ele>
        <time>2022-08-26T21:08:57Z</time>
      </trkpt>
      <trkpt lat="45.78998" lon="6.715">
        <ele>1603</ele>
        <time>2022-08-26T21:08:58Z</time>
      </trkpt>
      <trkpt lat="45.78997" lon="6.71499">
        <ele>1603</ele>
        <time>2022-08-26T21:08:59Z</time>
      </trkpt>
      <trkpt lat="45.78996" lon="6.71499">
        <ele>1604</ele>
        <time>2022-08-26T21:09:00Z</time>
      </trkpt>
      <trkpt lat="45.78995" lon="6.71498">
        <ele>1604</ele>
        <time>2022-08-26T21:09:02Z</time>
      </trkpt>
      <trkpt lat="45.78994" lon="6.71498">
        <ele>1605</ele>
        <time>2022-08-26T21:09:03Z</time>
      </trkpt>
      <trkpt lat="45.78994" lon="6.71498">
        <ele>1605</ele>
        <time>2022-08-26T21:09:04Z</time>
      </trkpt>
      <trkpt lat="45.78993" lon="6.71497">
        <ele>1605</ele>
        <time>2022-08-26T21:09:05Z</time>
      </trkpt>
      <trkpt lat="45.78992" lon="6.71497">
        <ele>1605</ele>
        <time>2022-08-26T21:09:07Z</time>
      </trkpt>
      <trkpt lat="45.78991" lon="6.71496">
        <ele>1605</ele>
        <time>2022-08-26T21:09:08Z</time>
      </trkpt>
      <trkpt lat="45.78991" lon="6.71495">
        <ele>1606</ele>
        <time>2022-08-26T21:09:09Z</time>
      </trkpt>
      <trkpt lat="45.7899" lon="6.71493">
        <ele>1606</ele>
        <time>2022-08-26T21:09:10Z</time>
      </trkpt>
      <trkpt lat="45.7899" lon="6.71491">
        <ele>1607</ele>
        <time>2022-08-26T21:09:11Z</time>
      </trkpt>
      <trkpt lat="45.78989" lon="6.7149">
        <ele>1608</ele>
        <time>2022-08-26T21:09:13Z</time>
      </trkpt>
      <trkpt lat="45.78989" lon="6.71488">
        <ele>1608</ele>
        <time>2022-08-26T21:09:14Z</time>
      </trkpt>
      <trkpt lat="45.78988" lon="6.71487">
        <ele>1608</ele>
        <time>2022-08-26T21:09:15Z</time>
      </trkpt>
      <trkpt lat="45.78987" lon="6.71486">
        <ele>1609</ele>
        <time>2022-08-26T21:09:16Z</time>
      </trkpt>
      <trkpt lat="45.78986" lon="6.71485">
        <ele>1610</ele>
        <time>2022-08-26T21:09:18Z</time>
      </trkpt>
      <trkpt lat="45.78986" lon="6.71484">
        <ele>1610</ele>
        <time>2022-08-26T21:09:19Z</time>
      </trkpt>
      <trkpt lat="45.78985" lon="6.71483">
        <ele>1609</ele>
        <time>2022-08-26T21:09:20Z</time>
      </trkpt>
      <trkpt lat="45.78984" lon="6.71482">
        <ele>1609</ele>
        <time>2022-08-26T21:09:21Z</time>
      </trkpt>
      <trkpt lat="45.78984" lon="6.71482">
        <ele>1610</ele>
        <time>2022-08-26T21:09:23Z</time>
      </trkpt>
      <trkpt lat="45.78983" lon="6.71481">
        <ele>1610</ele>
        <time>2022-08-26T21:09:25Z</time>
      </trkpt>
      <trkpt lat="45.78982" lon="6.7148">
        <ele>1610</ele>
        <time>2022-08-26T21:09:26Z</time>
      </trkpt>
      <trkpt lat="45.78982" lon="6.71479">
        <ele>1611</ele>
        <time>2022-08-26T21:09:28Z</time>
      </trkpt>
      <trkpt lat="45.78981" lon="6.71478">
        <ele>1611</ele>
        <time>2022-08-26T21:09:30Z</time>
      </trkpt>
      <trkpt lat="45.7898" lon="6.71477">
        <ele>1611</ele>
        <time>2022-08-26T21:09:31Z</time>
      </trkpt>
      <trkpt lat="45.78973" lon="6.71472">
        <ele>1615</ele>
        <time>2022-08-26T21:09:42Z</time>
      </trkpt>
      <trkpt lat="45.7897" lon="6.71472">
        <ele>1616</ele>
        <time>2022-08-26T21:09:45Z</time>
      </trkpt>
      <trkpt lat="45.78967" lon="6.71471">
        <ele>1617</ele>
        <time>2022-08-26T21:09:47Z</time>
      </trkpt>
      <trkpt lat="45.78965" lon="6.7147">
        <ele>1617</ele>
        <time>2022-08-26T21:09:49Z</time>
      </trkpt>
      <trkpt lat="45.78962" lon="6.7147">
        <ele>1617</ele>
        <time>2022-08-26T21:09:52Z</time>
      </trkpt>
      <trkpt lat="45.7896" lon="6.71469">
        <ele>1619</ele>
        <time>2022-08-26T21:09:56Z</time>
      </trkpt>
      <trkpt lat="45.78958" lon="6.71469">
        <ele>1619</ele>
        <time>2022-08-26T21:09:57Z</time>
      </trkpt>
      <trkpt lat="45.78957" lon="6.71469">
        <ele>1620</ele>
        <time>2022-08-26T21:09:59Z</time>
      </trkpt>
      <trkpt lat="45.78956" lon="6.71468">
        <ele>1620</ele>
        <time>2022-08-26T21:10:00Z</time>
      </trkpt>
      <trkpt lat="45.78955" lon="6.71468">
        <ele>1620</ele>
        <time>2022-08-26T21:10:01Z</time>
      </trkpt>
      <trkpt lat="45.78954" lon="6.71468">
        <ele>1620</ele>
        <time>2022-08-26T21:10:02Z</time>
      </trkpt>
      <trkpt lat="45.78952" lon="6.71467">
        <ele>1620</ele>
        <time>2022-08-26T21:10:03Z</time>
      </trkpt>
      <trkpt lat="45.7895" lon="6.71467">
        <ele>1621</ele>
        <time>2022-08-26T21:10:06Z</time>
      </trkpt>
      <trkpt lat="45.78947" lon="6.71467">
        <ele>1621</ele>
        <time>2022-08-26T21:10:07Z</time>
      </trkpt>
      <trkpt lat="45.78945" lon="6.71466">
        <ele>1622</ele>
        <time>2022-08-26T21:10:10Z</time>
      </trkpt>
      <trkpt lat="45.78943" lon="6.71465">
        <ele>1622</ele>
        <time>2022-08-26T21:10:11Z</time>
      </trkpt>
      <trkpt lat="45.78941" lon="6.71464">
        <ele>1622</ele>
        <time>2022-08-26T21:10:13Z</time>
      </trkpt>
      <trkpt lat="45.78939" lon="6.71462">
        <ele>1623</ele>
        <time>2022-08-26T21:10:16Z</time>
      </trkpt>
      <trkpt lat="45.78937" lon="6.71459">
        <ele>1623</ele>
        <time>2022-08-26T21:10:17Z</time>
      </trkpt>
      <trkpt lat="45.78935" lon="6.71458">
        <ele>1624</ele>
        <time>2022-08-26T21:10:20Z</time>
      </trkpt>
      <trkpt lat="45.78932" lon="6.71457">
        <ele>1624</ele>
        <time>2022-08-26T21:10:22Z</time>
      </trkpt>
      <trkpt lat="45.7893" lon="6.71455">
        <ele>1624</ele>
        <time>2022-08-26T21:10:23Z</time>
      </trkpt>
      <trkpt lat="45.78928" lon="6.71452">
        <ele>1624</ele>
        <time>2022-08-26T21:10:25Z</time>
      </trkpt>
      <trkpt lat="45.78925" lon="6.71449">
        <ele>1624</ele>
        <time>2022-08-26T21:10:27Z</time>
      </trkpt>
      <trkpt lat="45.78922" lon="6.71447">
        <ele>1624</ele>
        <time>2022-08-26T21:10:30Z</time>
      </trkpt>
      <trkpt lat="45.7892" lon="6.71446">
        <ele>1624</ele>
        <time>2022-08-26T21:10:31Z</time>
      </trkpt>
      <trkpt lat="45.78915" lon="6.71444">
        <ele>1624</ele>
        <time>2022-08-26T21:10:32Z</time>
      </trkpt>
      <trkpt lat="45.78911" lon="6.71442">
        <ele>1624</ele>
        <time>2022-08-26T21:10:34Z</time>
      </trkpt>
      <trkpt lat="45.78909" lon="6.71441">
        <ele>1624</ele>
        <time>2022-08-26T21:10:36Z</time>
      </trkpt>
      <trkpt lat="45.78907" lon="6.71439">
        <ele>1625</ele>
        <time>2022-08-26T21:10:38Z</time>
      </trkpt>
      <trkpt lat="45.78905" lon="6.71437">
        <ele>1625</ele>
        <time>2022-08-26T21:10:40Z</time>
      </trkpt>
      <trkpt lat="45.78903" lon="6.71435">
        <ele>1626</ele>
        <time>2022-08-26T21:10:43Z</time>
      </trkpt>
      <trkpt lat="45.78891" lon="6.71433">
        <ele>1628</ele>
        <time>2022-08-26T21:10:53Z</time>
      </trkpt>
      <trkpt lat="45.78888" lon="6.71432">
        <ele>1628</ele>
        <time>2022-08-26T21:10:56Z</time>
      </trkpt>
      <trkpt lat="45.78885" lon="6.71432">
        <ele>1628</ele>
        <time>2022-08-26T21:10:58Z</time>
      </trkpt>
      <trkpt lat="45.78882" lon="6.7143">
        <ele>1628</ele>
        <time>2022-08-26T21:10:59Z</time>
      </trkpt>
      <trkpt lat="45.78879" lon="6.7143">
        <ele>1629</ele>
        <time>2022-08-26T21:11:01Z</time>
      </trkpt>
      <trkpt lat="45.78878" lon="6.71429">
        <ele>1629</ele>
        <time>2022-08-26T21:11:03Z</time>
      </trkpt>
      <trkpt lat="45.78877" lon="6.71429">
        <ele>1629</ele>
        <time>2022-08-26T21:11:04Z</time>
      </trkpt>
      <trkpt lat="45.78876" lon="6.71428">
        <ele>1629</ele>
        <time>2022-08-26T21:11:05Z</time>
      </trkpt>
      <trkpt lat="45.78875" lon="6.71428">
        <ele>1629</ele>
        <time>2022-08-26T21:11:06Z</time>
      </trkpt>
      <trkpt lat="45.78873" lon="6.71426">
        <ele>1629</ele>
        <time>2022-08-26T21:11:07Z</time>
      </trkpt>
      <trkpt lat="45.78872" lon="6.71426">
        <ele>1629</ele>
        <time>2022-08-26T21:11:10Z</time>
      </trkpt>
      <trkpt lat="45.7887" lon="6.71425">
        <ele>1629</ele>
        <time>2022-08-26T21:11:11Z</time>
      </trkpt>
      <trkpt lat="45.78868" lon="6.71424">
        <ele>1629</ele>
        <time>2022-08-26T21:11:12Z</time>
      </trkpt>
      <trkpt lat="45.78858" lon="6.71422">
        <ele>1629</ele>
        <time>2022-08-26T21:11:17Z</time>
      </trkpt>
      <trkpt lat="45.7885" lon="6.71415">
        <ele>1630</ele>
        <time>2022-08-26T21:11:22Z</time>
      </trkpt>
      <trkpt lat="45.78848" lon="6.71414">
        <ele>1630</ele>
        <time>2022-08-26T21:11:24Z</time>
      </trkpt>
      <trkpt lat="45.78846" lon="6.71413">
        <ele>1630</ele>
        <time>2022-08-26T21:11:27Z</time>
      </trkpt>
      <trkpt lat="45.78844" lon="6.71412">
        <ele>1632</ele>
        <time>2022-08-26T21:11:29Z</time>
      </trkpt>
      <trkpt lat="45.78842" lon="6.71411">
        <ele>1632</ele>
        <time>2022-08-26T21:11:30Z</time>
      </trkpt>
      <trkpt lat="45.78839" lon="6.71409">
        <ele>1632</ele>
        <time>2022-08-26T21:11:32Z</time>
      </trkpt>
      <trkpt lat="45.78837" lon="6.71408">
        <ele>1632</ele>
        <time>2022-08-26T21:11:34Z</time>
      </trkpt>
      <trkpt lat="45.78834" lon="6.71405">
        <ele>1633</ele>
        <time>2022-08-26T21:11:36Z</time>
      </trkpt>
      <trkpt lat="45.78831" lon="6.71403">
        <ele>1633</ele>
        <time>2022-08-26T21:11:37Z</time>
      </trkpt>
      <trkpt lat="45.78829" lon="6.71401">
        <ele>1634</ele>
        <time>2022-08-26T21:11:39Z</time>
      </trkpt>
      <trkpt lat="45.78827" lon="6.714">
        <ele>1634</ele>
        <time>2022-08-26T21:11:41Z</time>
      </trkpt>
      <trkpt lat="45.78823" lon="6.714">
        <ele>1635</ele>
        <time>2022-08-26T21:11:44Z</time>
      </trkpt>
      <trkpt lat="45.78822" lon="6.71399">
        <ele>1635</ele>
        <time>2022-08-26T21:11:45Z</time>
      </trkpt>
      <trkpt lat="45.78821" lon="6.71398">
        <ele>1635</ele>
        <time>2022-08-26T21:11:46Z</time>
      </trkpt>
      <trkpt lat="45.78819" lon="6.71397">
        <ele>1635</ele>
        <time>2022-08-26T21:11:48Z</time>
      </trkpt>
      <trkpt lat="45.78818" lon="6.71396">
        <ele>1635</ele>
        <time>2022-08-26T21:11:49Z</time>
      </trkpt>
      <trkpt lat="45.78816" lon="6.71395">
        <ele>1636</ele>
        <time>2022-08-26T21:11:51Z</time>
      </trkpt>
      <trkpt lat="45.7881" lon="6.71391">
        <ele>1637</ele>
        <time>2022-08-26T21:11:57Z</time>
      </trkpt>
      <trkpt lat="45.78808" lon="6.7139">
        <ele>1637</ele>
        <time>2022-08-26T21:11:58Z</time>
      </trkpt>
      <trkpt lat="45.78805" lon="6.71387">
        <ele>1637</ele>
        <time>2022-08-26T21:12:00Z</time>
      </trkpt>
      <trkpt lat="45.78804" lon="6.71386">
        <ele>1637</ele>
        <time>2022-08-26T21:12:01Z</time>
      </trkpt>
      <trkpt lat="45.78803" lon="6.71385">
        <ele>1638</ele>
        <time>2022-08-26T21:12:02Z</time>
      </trkpt>
      <trkpt lat="45.78803" lon="6.71384">
        <ele>1638</ele>
        <time>2022-08-26T21:12:03Z</time>
      </trkpt>
      <trkpt lat="45.78802" lon="6.71383">
        <ele>1638</ele>
        <time>2022-08-26T21:12:04Z</time>
      </trkpt>
      <trkpt lat="45.78799" lon="6.7138">
        <ele>1638</ele>
        <time>2022-08-26T21:12:07Z</time>
      </trkpt>
      <trkpt lat="45.78797" lon="6.71378">
        <ele>1638</ele>
        <time>2022-08-26T21:12:09Z</time>
      </trkpt>
      <trkpt lat="45.78795" lon="6.71376">
        <ele>1638</ele>
        <time>2022-08-26T21:12:10Z</time>
      </trkpt>
      <trkpt lat="45.78793" lon="6.71373">
        <ele>1638</ele>
        <time>2022-08-26T21:12:12Z</time>
      </trkpt>
      <trkpt lat="45.7879" lon="6.71372">
        <ele>1639</ele>
        <time>2022-08-26T21:12:14Z</time>
      </trkpt>
      <trkpt lat="45.78788" lon="6.71371">
        <ele>1639</ele>
        <time>2022-08-26T21:12:17Z</time>
      </trkpt>
      <trkpt lat="45.78786" lon="6.71371">
        <ele>1639</ele>
        <time>2022-08-26T21:12:19Z</time>
      </trkpt>
      <trkpt lat="45.78784" lon="6.71371">
        <ele>1639</ele>
        <time>2022-08-26T21:12:21Z</time>
      </trkpt>
      <trkpt lat="45.78781" lon="6.7137">
        <ele>1640</ele>
        <time>2022-08-26T21:12:23Z</time>
      </trkpt>
      <trkpt lat="45.78779" lon="6.7137">
        <ele>1640</ele>
        <time>2022-08-26T21:12:24Z</time>
      </trkpt>
      <trkpt lat="45.78778" lon="6.71369">
        <ele>1640</ele>
        <time>2022-08-26T21:12:25Z</time>
      </trkpt>
      <trkpt lat="45.78776" lon="6.71369">
        <ele>1640</ele>
        <time>2022-08-26T21:12:26Z</time>
      </trkpt>
      <trkpt lat="45.78774" lon="6.71367">
        <ele>1641</ele>
        <time>2022-08-26T21:12:28Z</time>
      </trkpt>
      <trkpt lat="45.78771" lon="6.71366">
        <ele>1641</ele>
        <time>2022-08-26T21:12:29Z</time>
      </trkpt>
      <trkpt lat="45.78769" lon="6.71365">
        <ele>1641</ele>
        <time>2022-08-26T21:12:32Z</time>
      </trkpt>
      <trkpt lat="45.78766" lon="6.71363">
        <ele>1641</ele>
        <time>2022-08-26T21:12:34Z</time>
      </trkpt>
      <trkpt lat="45.78764" lon="6.71361">
        <ele>1641</ele>
        <time>2022-08-26T21:12:36Z</time>
      </trkpt>
      <trkpt lat="45.78762" lon="6.71359">
        <ele>1641</ele>
        <time>2022-08-26T21:12:38Z</time>
      </trkpt>
      <trkpt lat="45.78759" lon="6.71357">
        <ele>1641</ele>
        <time>2022-08-26T21:12:39Z</time>
      </trkpt>
      <trkpt lat="45.78757" lon="6.71355">
        <ele>1641</ele>
        <time>2022-08-26T21:12:41Z</time>
      </trkpt>
      <trkpt lat="45.78756" lon="6.71353">
        <ele>1641</ele>
        <time>2022-08-26T21:12:43Z</time>
      </trkpt>
      <trkpt lat="45.78754" lon="6.71352">
        <ele>1641</ele>
        <time>2022-08-26T21:12:44Z</time>
      </trkpt>
      <trkpt lat="45.78752" lon="6.71351">
        <ele>1642</ele>
        <time>2022-08-26T21:12:45Z</time>
      </trkpt>
      <trkpt lat="45.7875" lon="6.71349">
        <ele>1642</ele>
        <time>2022-08-26T21:12:47Z</time>
      </trkpt>
      <trkpt lat="45.78748" lon="6.71348">
        <ele>1642</ele>
        <time>2022-08-26T21:12:49Z</time>
      </trkpt>
      <trkpt lat="45.78745" lon="6.71348">
        <ele>1642</ele>
        <time>2022-08-26T21:12:51Z</time>
      </trkpt>
      <trkpt lat="45.78743" lon="6.71346">
        <ele>1642</ele>
        <time>2022-08-26T21:12:54Z</time>
      </trkpt>
      <trkpt lat="45.78741" lon="6.71346">
        <ele>1642</ele>
        <time>2022-08-26T21:12:56Z</time>
      </trkpt>
      <trkpt lat="45.7874" lon="6.71345">
        <ele>1642</ele>
        <time>2022-08-26T21:12:57Z</time>
      </trkpt>
      <trkpt lat="45.78738" lon="6.71344">
        <ele>1643</ele>
        <time>2022-08-26T21:12:58Z</time>
      </trkpt>
      <trkpt lat="45.78737" lon="6.71343">
        <ele>1644</ele>
        <time>2022-08-26T21:12:59Z</time>
      </trkpt>
      <trkpt lat="45.78735" lon="6.71343">
        <ele>1644</ele>
        <time>2022-08-26T21:13:01Z</time>
      </trkpt>
      <trkpt lat="45.78733" lon="6.71342">
        <ele>1644</ele>
        <time>2022-08-26T21:13:02Z</time>
      </trkpt>
      <trkpt lat="45.78732" lon="6.71342">
        <ele>1644</ele>
        <time>2022-08-26T21:13:03Z</time>
      </trkpt>
      <trkpt lat="45.7873" lon="6.71341">
        <ele>1644</ele>
        <time>2022-08-26T21:13:04Z</time>
      </trkpt>
      <trkpt lat="45.78728" lon="6.71339">
        <ele>1645</ele>
        <time>2022-08-26T21:13:06Z</time>
      </trkpt>
      <trkpt lat="45.78727" lon="6.71337">
        <ele>1645</ele>
        <time>2022-08-26T21:13:08Z</time>
      </trkpt>
      <trkpt lat="45.78726" lon="6.71337">
        <ele>1645</ele>
        <time>2022-08-26T21:13:10Z</time>
      </trkpt>
      <trkpt lat="45.78725" lon="6.71336">
        <ele>1646</ele>
        <time>2022-08-26T21:13:11Z</time>
      </trkpt>
      <trkpt lat="45.78724" lon="6.71335">
        <ele>1646</ele>
        <time>2022-08-26T21:13:12Z</time>
      </trkpt>
      <trkpt lat="45.78723" lon="6.71335">
        <ele>1646</ele>
        <time>2022-08-26T21:13:14Z</time>
      </trkpt>
      <trkpt lat="45.78723" lon="6.71334">
        <ele>1646</ele>
        <time>2022-08-26T21:13:16Z</time>
      </trkpt>
      <trkpt lat="45.78722" lon="6.71334">
        <ele>1646</ele>
        <time>2022-08-26T21:13:17Z</time>
      </trkpt>
      <trkpt lat="45.78721" lon="6.71333">
        <ele>1646</ele>
        <time>2022-08-26T21:13:18Z</time>
      </trkpt>
      <trkpt lat="45.78715" lon="6.71329">
        <ele>1646</ele>
        <time>2022-08-26T21:13:19Z</time>
      </trkpt>
      <trkpt lat="45.78714" lon="6.71329">
        <ele>1646</ele>
        <time>2022-08-26T21:13:21Z</time>
      </trkpt>
      <trkpt lat="45.78712" lon="6.71329">
        <ele>1646</ele>
        <time>2022-08-26T21:13:22Z</time>
      </trkpt>
      <trkpt lat="45.78711" lon="6.71328">
        <ele>1646</ele>
        <time>2022-08-26T21:13:23Z</time>
      </trkpt>
      <trkpt lat="45.78709" lon="6.71328">
        <ele>1647</ele>
        <time>2022-08-26T21:13:24Z</time>
      </trkpt>
      <trkpt lat="45.78708" lon="6.71328">
        <ele>1647</ele>
        <time>2022-08-26T21:13:26Z</time>
      </trkpt>
      <trkpt lat="45.78707" lon="6.71327">
        <ele>1647</ele>
        <time>2022-08-26T21:13:27Z</time>
      </trkpt>
      <trkpt lat="45.78705" lon="6.71327">
        <ele>1647</ele>
        <time>2022-08-26T21:13:28Z</time>
      </trkpt>
      <trkpt lat="45.78696" lon="6.71326">
        <ele>1649</ele>
        <time>2022-08-26T21:13:33Z</time>
      </trkpt>
      <trkpt lat="45.78695" lon="6.71326">
        <ele>1649</ele>
        <time>2022-08-26T21:13:35Z</time>
      </trkpt>
      <trkpt lat="45.78693" lon="6.71325">
        <ele>1649</ele>
        <time>2022-08-26T21:13:36Z</time>
      </trkpt>
      <trkpt lat="45.78692" lon="6.71325">
        <ele>1649</ele>
        <time>2022-08-26T21:13:37Z</time>
      </trkpt>
      <trkpt lat="45.78691" lon="6.71324">
        <ele>1650</ele>
        <time>2022-08-26T21:13:39Z</time>
      </trkpt>
      <trkpt lat="45.78689" lon="6.71324">
        <ele>1650</ele>
        <time>2022-08-26T21:13:40Z</time>
      </trkpt>
      <trkpt lat="45.78688" lon="6.71323">
        <ele>1650</ele>
        <time>2022-08-26T21:13:41Z</time>
      </trkpt>
      <trkpt lat="45.78682" lon="6.71318">
        <ele>1652</ele>
        <time>2022-08-26T21:13:46Z</time>
      </trkpt>
      <trkpt lat="45.78681" lon="6.71318">
        <ele>1652</ele>
        <time>2022-08-26T21:13:47Z</time>
      </trkpt>
      <trkpt lat="45.7868" lon="6.71317">
        <ele>1652</ele>
        <time>2022-08-26T21:13:48Z</time>
      </trkpt>
      <trkpt lat="45.78679" lon="6.71317">
        <ele>1652</ele>
        <time>2022-08-26T21:13:49Z</time>
      </trkpt>
      <trkpt lat="45.78678" lon="6.71316">
        <ele>1652</ele>
        <time>2022-08-26T21:13:51Z</time>
      </trkpt>
      <trkpt lat="45.78677" lon="6.71316">
        <ele>1653</ele>
        <time>2022-08-26T21:13:52Z</time>
      </trkpt>
      <trkpt lat="45.78676" lon="6.71315">
        <ele>1653</ele>
        <time>2022-08-26T21:13:54Z</time>
      </trkpt>
      <trkpt lat="45.78675" lon="6.71315">
        <ele>1653</ele>
        <time>2022-08-26T21:13:55Z</time>
      </trkpt>
      <trkpt lat="45.78674" lon="6.71314">
        <ele>1653</ele>
        <time>2022-08-26T21:13:56Z</time>
      </trkpt>
      <trkpt lat="45.78673" lon="6.71314">
        <ele>1654</ele>
        <time>2022-08-26T21:13:57Z</time>
      </trkpt>
      <trkpt lat="45.78673" lon="6.7131">
        <ele>1655</ele>
        <time>2022-08-26T21:13:59Z</time>
      </trkpt>
      <trkpt lat="45.78671" lon="6.71309">
        <ele>1656</ele>
        <time>2022-08-26T21:14:01Z</time>
      </trkpt>
      <trkpt lat="45.78668" lon="6.71308">
        <ele>1656</ele>
        <time>2022-08-26T21:14:02Z</time>
      </trkpt>
      <trkpt lat="45.78665" lon="6.71307">
        <ele>1656</ele>
        <time>2022-08-26T21:14:04Z</time>
      </trkpt>
      <trkpt lat="45.78662" lon="6.71306">
        <ele>1656</ele>
        <time>2022-08-26T21:14:07Z</time>
      </trkpt>
      <trkpt lat="45.7866" lon="6.71304">
        <ele>1657</ele>
        <time>2022-08-26T21:14:09Z</time>
      </trkpt>
      <trkpt lat="45.78659" lon="6.71303">
        <ele>1657</ele>
        <time>2022-08-26T21:14:10Z</time>
      </trkpt>
      <trkpt lat="45.78658" lon="6.71303">
        <ele>1657</ele>
        <time>2022-08-26T21:14:11Z</time>
      </trkpt>
      <trkpt lat="45.78657" lon="6.71303">
        <ele>1657</ele>
        <time>2022-08-26T21:14:12Z</time>
      </trkpt>
      <trkpt lat="45.78656" lon="6.71303">
        <ele>1657</ele>
        <time>2022-08-26T21:14:13Z</time>
      </trkpt>
      <trkpt lat="45.78654" lon="6.71302">
        <ele>1658</ele>
        <time>2022-08-26T21:14:16Z</time>
      </trkpt>
      <trkpt lat="45.78651" lon="6.71301">
        <ele>1659</ele>
        <time>2022-08-26T21:14:18Z</time>
      </trkpt>
      <trkpt lat="45.7865" lon="6.71301">
        <ele>1659</ele>
        <time>2022-08-26T21:14:19Z</time>
      </trkpt>
      <trkpt lat="45.7865" lon="6.713">
        <ele>1659</ele>
        <time>2022-08-26T21:14:20Z</time>
      </trkpt>
      <trkpt lat="45.78649" lon="6.71299">
        <ele>1659</ele>
        <time>2022-08-26T21:14:21Z</time>
      </trkpt>
      <trkpt lat="45.78648" lon="6.71299">
        <ele>1660</ele>
        <time>2022-08-26T21:14:22Z</time>
      </trkpt>
      <trkpt lat="45.78645" lon="6.71299">
        <ele>1661</ele>
        <time>2022-08-26T21:14:26Z</time>
      </trkpt>
      <trkpt lat="45.78643" lon="6.71299">
        <ele>1661</ele>
        <time>2022-08-26T21:14:29Z</time>
      </trkpt>
      <trkpt lat="45.78641" lon="6.71299">
        <ele>1662</ele>
        <time>2022-08-26T21:14:32Z</time>
      </trkpt>
      <trkpt lat="45.78639" lon="6.71298">
        <ele>1663</ele>
        <time>2022-08-26T21:14:34Z</time>
      </trkpt>
      <trkpt lat="45.78636" lon="6.71297">
        <ele>1663</ele>
        <time>2022-08-26T21:14:37Z</time>
      </trkpt>
      <trkpt lat="45.78634" lon="6.71296">
        <ele>1663</ele>
        <time>2022-08-26T21:14:38Z</time>
      </trkpt>
      <trkpt lat="45.78632" lon="6.71296">
        <ele>1663</ele>
        <time>2022-08-26T21:14:40Z</time>
      </trkpt>
      <trkpt lat="45.7863" lon="6.71295">
        <ele>1664</ele>
        <time>2022-08-26T21:14:44Z</time>
      </trkpt>
      <trkpt lat="45.78628" lon="6.71295">
        <ele>1664</ele>
        <time>2022-08-26T21:14:45Z</time>
      </trkpt>
      <trkpt lat="45.78626" lon="6.71296">
        <ele>1664</ele>
        <time>2022-08-26T21:14:46Z</time>
      </trkpt>
      <trkpt lat="45.78625" lon="6.71297">
        <ele>1665</ele>
        <time>2022-08-26T21:14:47Z</time>
      </trkpt>
      <trkpt lat="45.78622" lon="6.71297">
        <ele>1666</ele>
        <time>2022-08-26T21:14:50Z</time>
      </trkpt>
      <trkpt lat="45.7862" lon="6.71298">
        <ele>1668</ele>
        <time>2022-08-26T21:14:54Z</time>
      </trkpt>
      <trkpt lat="45.78617" lon="6.71298">
        <ele>1668</ele>
        <time>2022-08-26T21:14:55Z</time>
      </trkpt>
      <trkpt lat="45.78614" lon="6.71299">
        <ele>1668</ele>
        <time>2022-08-26T21:14:58Z</time>
      </trkpt>
      <trkpt lat="45.78612" lon="6.713">
        <ele>1669</ele>
        <time>2022-08-26T21:15:01Z</time>
      </trkpt>
      <trkpt lat="45.78609" lon="6.71301">
        <ele>1669</ele>
        <time>2022-08-26T21:15:03Z</time>
      </trkpt>
      <trkpt lat="45.78607" lon="6.71301">
        <ele>1670</ele>
        <time>2022-08-26T21:15:08Z</time>
      </trkpt>
      <trkpt lat="45.78604" lon="6.71301">
        <ele>1670</ele>
        <time>2022-08-26T21:15:11Z</time>
      </trkpt>
      <trkpt lat="45.78601" lon="6.713">
        <ele>1671</ele>
        <time>2022-08-26T21:15:13Z</time>
      </trkpt>
      <trkpt lat="45.78596" lon="6.71298">
        <ele>1671</ele>
        <time>2022-08-26T21:15:15Z</time>
      </trkpt>
      <trkpt lat="45.78595" lon="6.71298">
        <ele>1672</ele>
        <time>2022-08-26T21:15:16Z</time>
      </trkpt>
      <trkpt lat="45.78593" lon="6.71297">
        <ele>1672</ele>
        <time>2022-08-26T21:15:17Z</time>
      </trkpt>
      <trkpt lat="45.78592" lon="6.71297">
        <ele>1672</ele>
        <time>2022-08-26T21:15:18Z</time>
      </trkpt>
      <trkpt lat="45.7859" lon="6.71296">
        <ele>1672</ele>
        <time>2022-08-26T21:15:19Z</time>
      </trkpt>
      <trkpt lat="45.78588" lon="6.71295">
        <ele>1673</ele>
        <time>2022-08-26T21:15:22Z</time>
      </trkpt>
      <trkpt lat="45.78583" lon="6.71292">
        <ele>1673</ele>
        <time>2022-08-26T21:15:24Z</time>
      </trkpt>
      <trkpt lat="45.78582" lon="6.71292">
        <ele>1673</ele>
        <time>2022-08-26T21:15:25Z</time>
      </trkpt>
      <trkpt lat="45.78579" lon="6.7129">
        <ele>1673</ele>
        <time>2022-08-26T21:15:28Z</time>
      </trkpt>
      <trkpt lat="45.78577" lon="6.71288">
        <ele>1673</ele>
        <time>2022-08-26T21:15:30Z</time>
      </trkpt>
      <trkpt lat="45.78575" lon="6.71287">
        <ele>1674</ele>
        <time>2022-08-26T21:15:31Z</time>
      </trkpt>
      <trkpt lat="45.78573" lon="6.71286">
        <ele>1674</ele>
        <time>2022-08-26T21:15:32Z</time>
      </trkpt>
      <trkpt lat="45.78571" lon="6.71285">
        <ele>1674</ele>
        <time>2022-08-26T21:15:33Z</time>
      </trkpt>
      <trkpt lat="45.78569" lon="6.71284">
        <ele>1674</ele>
        <time>2022-08-26T21:15:36Z</time>
      </trkpt>
      <trkpt lat="45.78567" lon="6.71284">
        <ele>1674</ele>
        <time>2022-08-26T21:15:38Z</time>
      </trkpt>
      <trkpt lat="45.78565" lon="6.71284">
        <ele>1674</ele>
        <time>2022-08-26T21:15:39Z</time>
      </trkpt>
      <trkpt lat="45.78562" lon="6.71283">
        <ele>1675</ele>
        <time>2022-08-26T21:15:41Z</time>
      </trkpt>
      <trkpt lat="45.78559" lon="6.71283">
        <ele>1676</ele>
        <time>2022-08-26T21:15:44Z</time>
      </trkpt>
      <trkpt lat="45.78556" lon="6.71283">
        <ele>1676</ele>
        <time>2022-08-26T21:15:45Z</time>
      </trkpt>
      <trkpt lat="45.78554" lon="6.71282">
        <ele>1676</ele>
        <time>2022-08-26T21:15:46Z</time>
      </trkpt>
      <trkpt lat="45.78551" lon="6.71282">
        <ele>1676</ele>
        <time>2022-08-26T21:15:48Z</time>
      </trkpt>
      <trkpt lat="45.78549" lon="6.71282">
        <ele>1677</ele>
        <time>2022-08-26T21:15:50Z</time>
      </trkpt>
      <trkpt lat="45.78546" lon="6.71281">
        <ele>1677</ele>
        <time>2022-08-26T21:15:53Z</time>
      </trkpt>
      <trkpt lat="45.78544" lon="6.7128">
        <ele>1677</ele>
        <time>2022-08-26T21:15:54Z</time>
      </trkpt>
      <trkpt lat="45.78542" lon="6.71279">
        <ele>1677</ele>
        <time>2022-08-26T21:15:56Z</time>
      </trkpt>
      <trkpt lat="45.78539" lon="6.71279">
        <ele>1678</ele>
        <time>2022-08-26T21:15:58Z</time>
      </trkpt>
      <trkpt lat="45.78537" lon="6.71278">
        <ele>1678</ele>
        <time>2022-08-26T21:16:00Z</time>
      </trkpt>
      <trkpt lat="45.78535" lon="6.71277">
        <ele>1678</ele>
        <time>2022-08-26T21:16:02Z</time>
      </trkpt>
      <trkpt lat="45.78532" lon="6.71277">
        <ele>1678</ele>
        <time>2022-08-26T21:16:05Z</time>
      </trkpt>
      <trkpt lat="45.78529" lon="6.71276">
        <ele>1678</ele>
        <time>2022-08-26T21:16:07Z</time>
      </trkpt>
      <trkpt lat="45.78524" lon="6.71275">
        <ele>1679</ele>
        <time>2022-08-26T21:16:11Z</time>
      </trkpt>
      <trkpt lat="45.7852" lon="6.71274">
        <ele>1679</ele>
        <time>2022-08-26T21:16:14Z</time>
      </trkpt>
      <trkpt lat="45.78518" lon="6.71274">
        <ele>1679</ele>
        <time>2022-08-26T21:16:16Z</time>
      </trkpt>
      <trkpt lat="45.78514" lon="6.71274">
        <ele>1680</ele>
        <time>2022-08-26T21:16:18Z</time>
      </trkpt>
      <trkpt lat="45.78512" lon="6.71273">
        <ele>1680</ele>
        <time>2022-08-26T21:16:21Z</time>
      </trkpt>
      <trkpt lat="45.7851" lon="6.71272">
        <ele>1680</ele>
        <time>2022-08-26T21:16:22Z</time>
      </trkpt>
      <trkpt lat="45.78507" lon="6.71271">
        <ele>1681</ele>
        <time>2022-08-26T21:16:25Z</time>
      </trkpt>
      <trkpt lat="45.78505" lon="6.71271">
        <ele>1681</ele>
        <time>2022-08-26T21:16:28Z</time>
      </trkpt>
      <trkpt lat="45.78502" lon="6.71271">
        <ele>1681</ele>
        <time>2022-08-26T21:16:29Z</time>
      </trkpt>
      <trkpt lat="45.785" lon="6.71272">
        <ele>1681</ele>
        <time>2022-08-26T21:16:31Z</time>
      </trkpt>
      <trkpt lat="45.78498" lon="6.71273">
        <ele>1681</ele>
        <time>2022-08-26T21:16:33Z</time>
      </trkpt>
      <trkpt lat="45.78495" lon="6.71272">
        <ele>1683</ele>
        <time>2022-08-26T21:16:36Z</time>
      </trkpt>
      <trkpt lat="45.78493" lon="6.71273">
        <ele>1683</ele>
        <time>2022-08-26T21:16:38Z</time>
      </trkpt>
      <trkpt lat="45.78491" lon="6.71273">
        <ele>1683</ele>
        <time>2022-08-26T21:16:39Z</time>
      </trkpt>
      <trkpt lat="45.78489" lon="6.71273">
        <ele>1684</ele>
        <time>2022-08-26T21:16:42Z</time>
      </trkpt>
      <trkpt lat="45.78487" lon="6.71274">
        <ele>1685</ele>
        <time>2022-08-26T21:16:45Z</time>
      </trkpt>
      <trkpt lat="45.78485" lon="6.71276">
        <ele>1686</ele>
        <time>2022-08-26T21:16:52Z</time>
      </trkpt>
      <trkpt lat="45.78483" lon="6.71278">
        <ele>1687</ele>
        <time>2022-08-26T21:16:55Z</time>
      </trkpt>
      <trkpt lat="45.7848" lon="6.71279">
        <ele>1688</ele>
        <time>2022-08-26T21:16:57Z</time>
      </trkpt>
      <trkpt lat="45.78477" lon="6.7128">
        <ele>1689</ele>
        <time>2022-08-26T21:17:00Z</time>
      </trkpt>
      <trkpt lat="45.78475" lon="6.71283">
        <ele>1690</ele>
        <time>2022-08-26T21:17:05Z</time>
      </trkpt>
      <trkpt lat="45.78474" lon="6.71284">
        <ele>1691</ele>
        <time>2022-08-26T21:17:09Z</time>
      </trkpt>
      <trkpt lat="45.78472" lon="6.71285">
        <ele>1691</ele>
        <time>2022-08-26T21:17:11Z</time>
      </trkpt>
      <trkpt lat="45.7847" lon="6.71285">
        <ele>1691</ele>
        <time>2022-08-26T21:17:12Z</time>
      </trkpt>
      <trkpt lat="45.78468" lon="6.71285">
        <ele>1692</ele>
        <time>2022-08-26T21:17:13Z</time>
      </trkpt>
      <trkpt lat="45.78466" lon="6.71285">
        <ele>1693</ele>
        <time>2022-08-26T21:17:16Z</time>
      </trkpt>
      <trkpt lat="45.78465" lon="6.71285">
        <ele>1694</ele>
        <time>2022-08-26T21:17:18Z</time>
      </trkpt>
      <trkpt lat="45.78463" lon="6.71286">
        <ele>1694</ele>
        <time>2022-08-26T21:17:19Z</time>
      </trkpt>
      <trkpt lat="45.78462" lon="6.71287">
        <ele>1695</ele>
        <time>2022-08-26T21:17:20Z</time>
      </trkpt>
      <trkpt lat="45.7846" lon="6.71287">
        <ele>1695</ele>
        <time>2022-08-26T21:17:21Z</time>
      </trkpt>
      <trkpt lat="45.78457" lon="6.71287">
        <ele>1695</ele>
        <time>2022-08-26T21:17:22Z</time>
      </trkpt>
      <trkpt lat="45.78455" lon="6.71289">
        <ele>1696</ele>
        <time>2022-08-26T21:17:25Z</time>
      </trkpt>
      <trkpt lat="45.78454" lon="6.7129">
        <ele>1696</ele>
        <time>2022-08-26T21:17:26Z</time>
      </trkpt>
      <trkpt lat="45.78452" lon="6.7129">
        <ele>1696</ele>
        <time>2022-08-26T21:17:27Z</time>
      </trkpt>
      <trkpt lat="45.7845" lon="6.71291">
        <ele>1696</ele>
        <time>2022-08-26T21:17:28Z</time>
      </trkpt>
      <trkpt lat="45.78448" lon="6.71293">
        <ele>1697</ele>
        <time>2022-08-26T21:17:31Z</time>
      </trkpt>
      <trkpt lat="45.78447" lon="6.71295">
        <ele>1697</ele>
        <time>2022-08-26T21:17:33Z</time>
      </trkpt>
      <trkpt lat="45.78445" lon="6.71296">
        <ele>1698</ele>
        <time>2022-08-26T21:17:35Z</time>
      </trkpt>
      <trkpt lat="45.78444" lon="6.71299">
        <ele>1698</ele>
        <time>2022-08-26T21:17:37Z</time>
      </trkpt>
      <trkpt lat="45.78441" lon="6.713">
        <ele>1698</ele>
        <time>2022-08-26T21:17:40Z</time>
      </trkpt>
      <trkpt lat="45.7844" lon="6.71303">
        <ele>1699</ele>
        <time>2022-08-26T21:17:42Z</time>
      </trkpt>
      <trkpt lat="45.78437" lon="6.71304">
        <ele>1700</ele>
        <time>2022-08-26T21:17:45Z</time>
      </trkpt>
      <trkpt lat="45.78434" lon="6.71306">
        <ele>1700</ele>
        <time>2022-08-26T21:17:47Z</time>
      </trkpt>
      <trkpt lat="45.78432" lon="6.71308">
        <ele>1700</ele>
        <time>2022-08-26T21:17:49Z</time>
      </trkpt>
      <trkpt lat="45.7843" lon="6.7131">
        <ele>1700</ele>
        <time>2022-08-26T21:17:52Z</time>
      </trkpt>
      <trkpt lat="45.78429" lon="6.71313">
        <ele>1700</ele>
        <time>2022-08-26T21:17:54Z</time>
      </trkpt>
      <trkpt lat="45.78426" lon="6.71314">
        <ele>1701</ele>
        <time>2022-08-26T21:17:57Z</time>
      </trkpt>
      <trkpt lat="45.78423" lon="6.71316">
        <ele>1701</ele>
        <time>2022-08-26T21:17:59Z</time>
      </trkpt>
      <trkpt lat="45.78421" lon="6.71317">
        <ele>1701</ele>
        <time>2022-08-26T21:18:03Z</time>
      </trkpt>
      <trkpt lat="45.78419" lon="6.71318">
        <ele>1701</ele>
        <time>2022-08-26T21:18:04Z</time>
      </trkpt>
      <trkpt lat="45.78415" lon="6.71323">
        <ele>1701</ele>
        <time>2022-08-26T21:18:10Z</time>
      </trkpt>
      <trkpt lat="45.78413" lon="6.71324">
        <ele>1702</ele>
        <time>2022-08-26T21:18:12Z</time>
      </trkpt>
      <trkpt lat="45.78406" lon="6.71326">
        <ele>1702</ele>
        <time>2022-08-26T21:18:15Z</time>
      </trkpt>
      <trkpt lat="45.78405" lon="6.71326">
        <ele>1702</ele>
        <time>2022-08-26T21:18:16Z</time>
      </trkpt>
      <trkpt lat="45.78404" lon="6.71327">
        <ele>1702</ele>
        <time>2022-08-26T21:18:17Z</time>
      </trkpt>
      <trkpt lat="45.78403" lon="6.71327">
        <ele>1703</ele>
        <time>2022-08-26T21:18:18Z</time>
      </trkpt>
      <trkpt lat="45.78401" lon="6.71328">
        <ele>1703</ele>
        <time>2022-08-26T21:18:19Z</time>
      </trkpt>
      <trkpt lat="45.78399" lon="6.71329">
        <ele>1703</ele>
        <time>2022-08-26T21:18:20Z</time>
      </trkpt>
      <trkpt lat="45.78396" lon="6.71331">
        <ele>1703</ele>
        <time>2022-08-26T21:18:22Z</time>
      </trkpt>
      <trkpt lat="45.78394" lon="6.71333">
        <ele>1703</ele>
        <time>2022-08-26T21:18:24Z</time>
      </trkpt>
      <trkpt lat="45.78391" lon="6.71335">
        <ele>1703</ele>
        <time>2022-08-26T21:18:26Z</time>
      </trkpt>
      <trkpt lat="45.78389" lon="6.71336">
        <ele>1703</ele>
        <time>2022-08-26T21:18:27Z</time>
      </trkpt>
      <trkpt lat="45.78387" lon="6.71338">
        <ele>1703</ele>
        <time>2022-08-26T21:18:28Z</time>
      </trkpt>
      <trkpt lat="45.78385" lon="6.71341">
        <ele>1703</ele>
        <time>2022-08-26T21:18:30Z</time>
      </trkpt>
      <trkpt lat="45.78382" lon="6.71342">
        <ele>1704</ele>
        <time>2022-08-26T21:18:32Z</time>
      </trkpt>
      <trkpt lat="45.7838" lon="6.71343">
        <ele>1704</ele>
        <time>2022-08-26T21:18:35Z</time>
      </trkpt>
      <trkpt lat="45.78377" lon="6.71346">
        <ele>1704</ele>
        <time>2022-08-26T21:18:36Z</time>
      </trkpt>
      <trkpt lat="45.78376" lon="6.71347">
        <ele>1704</ele>
        <time>2022-08-26T21:18:37Z</time>
      </trkpt>
      <trkpt lat="45.78374" lon="6.71348">
        <ele>1704</ele>
        <time>2022-08-26T21:18:39Z</time>
      </trkpt>
      <trkpt lat="45.78373" lon="6.71349">
        <ele>1705</ele>
        <time>2022-08-26T21:18:40Z</time>
      </trkpt>
      <trkpt lat="45.78372" lon="6.7135">
        <ele>1705</ele>
        <time>2022-08-26T21:18:41Z</time>
      </trkpt>
      <trkpt lat="45.78368" lon="6.71357">
        <ele>1706</ele>
        <time>2022-08-26T21:18:47Z</time>
      </trkpt>
      <trkpt lat="45.78366" lon="6.71363">
        <ele>1708</ele>
        <time>2022-08-26T21:18:52Z</time>
      </trkpt>
      <trkpt lat="45.78365" lon="6.71365">
        <ele>1708</ele>
        <time>2022-08-26T21:18:53Z</time>
      </trkpt>
      <trkpt lat="45.78365" lon="6.71366">
        <ele>1708</ele>
        <time>2022-08-26T21:18:54Z</time>
      </trkpt>
      <trkpt lat="45.78364" lon="6.71368">
        <ele>1708</ele>
        <time>2022-08-26T21:18:55Z</time>
      </trkpt>
      <trkpt lat="45.78364" lon="6.7137">
        <ele>1708</ele>
        <time>2022-08-26T21:18:57Z</time>
      </trkpt>
      <trkpt lat="45.78363" lon="6.71372">
        <ele>1708</ele>
        <time>2022-08-26T21:18:58Z</time>
      </trkpt>
      <trkpt lat="45.78362" lon="6.71375">
        <ele>1707</ele>
        <time>2022-08-26T21:19:02Z</time>
      </trkpt>
      <trkpt lat="45.7836" lon="6.71378">
        <ele>1709</ele>
        <time>2022-08-26T21:19:04Z</time>
      </trkpt>
      <trkpt lat="45.78356" lon="6.71383">
        <ele>1709</ele>
        <time>2022-08-26T21:19:06Z</time>
      </trkpt>
      <trkpt lat="45.78354" lon="6.71386">
        <ele>1709</ele>
        <time>2022-08-26T21:19:09Z</time>
      </trkpt>
      <trkpt lat="45.78352" lon="6.71388">
        <ele>1709</ele>
        <time>2022-08-26T21:19:11Z</time>
      </trkpt>
      <trkpt lat="45.78351" lon="6.71392">
        <ele>1709</ele>
        <time>2022-08-26T21:19:12Z</time>
      </trkpt>
      <trkpt lat="45.7835" lon="6.71395">
        <ele>1709</ele>
        <time>2022-08-26T21:19:14Z</time>
      </trkpt>
      <trkpt lat="45.78348" lon="6.71397">
        <ele>1710</ele>
        <time>2022-08-26T21:19:16Z</time>
      </trkpt>
      <trkpt lat="45.78346" lon="6.714">
        <ele>1710</ele>
        <time>2022-08-26T21:19:19Z</time>
      </trkpt>
      <trkpt lat="45.78343" lon="6.71402">
        <ele>1711</ele>
        <time>2022-08-26T21:19:21Z</time>
      </trkpt>
      <trkpt lat="45.78341" lon="6.71405">
        <ele>1711</ele>
        <time>2022-08-26T21:19:24Z</time>
      </trkpt>
      <trkpt lat="45.78339" lon="6.71408">
        <ele>1711</ele>
        <time>2022-08-26T21:19:25Z</time>
      </trkpt>
      <trkpt lat="45.78337" lon="6.71411">
        <ele>1711</ele>
        <time>2022-08-26T21:19:28Z</time>
      </trkpt>
      <trkpt lat="45.78335" lon="6.71414">
        <ele>1712</ele>
        <time>2022-08-26T21:19:29Z</time>
      </trkpt>
      <trkpt lat="45.78331" lon="6.71417">
        <ele>1712</ele>
        <time>2022-08-26T21:19:31Z</time>
      </trkpt>
      <trkpt lat="45.78331" lon="6.71418">
        <ele>1712</ele>
        <time>2022-08-26T21:19:32Z</time>
      </trkpt>
      <trkpt lat="45.7833" lon="6.71419">
        <ele>1712</ele>
        <time>2022-08-26T21:19:33Z</time>
      </trkpt>
      <trkpt lat="45.78329" lon="6.71419">
        <ele>1712</ele>
        <time>2022-08-26T21:19:34Z</time>
      </trkpt>
      <trkpt lat="45.78329" lon="6.7142">
        <ele>1712</ele>
        <time>2022-08-26T21:19:35Z</time>
      </trkpt>
      <trkpt lat="45.78328" lon="6.71423">
        <ele>1712</ele>
        <time>2022-08-26T21:19:37Z</time>
      </trkpt>
      <trkpt lat="45.78328" lon="6.71426">
        <ele>1712</ele>
        <time>2022-08-26T21:19:38Z</time>
      </trkpt>
      <trkpt lat="45.78328" lon="6.71429">
        <ele>1712</ele>
        <time>2022-08-26T21:19:39Z</time>
      </trkpt>
      <trkpt lat="45.78328" lon="6.71432">
        <ele>1712</ele>
        <time>2022-08-26T21:19:40Z</time>
      </trkpt>
      <trkpt lat="45.78327" lon="6.71438">
        <ele>1712</ele>
        <time>2022-08-26T21:19:45Z</time>
      </trkpt>
      <trkpt lat="45.78325" lon="6.71442">
        <ele>1712</ele>
        <time>2022-08-26T21:19:47Z</time>
      </trkpt>
      <trkpt lat="45.78323" lon="6.71446">
        <ele>1712</ele>
        <time>2022-08-26T21:19:48Z</time>
      </trkpt>
      <trkpt lat="45.78319" lon="6.71451">
        <ele>1713</ele>
        <time>2022-08-26T21:19:51Z</time>
      </trkpt>
      <trkpt lat="45.78317" lon="6.71453">
        <ele>1713</ele>
        <time>2022-08-26T21:19:52Z</time>
      </trkpt>
      <trkpt lat="45.78315" lon="6.71456">
        <ele>1713</ele>
        <time>2022-08-26T21:19:53Z</time>
      </trkpt>
      <trkpt lat="45.78315" lon="6.71457">
        <ele>1713</ele>
        <time>2022-08-26T21:19:55Z</time>
      </trkpt>
      <trkpt lat="45.78314" lon="6.71458">
        <ele>1713</ele>
        <time>2022-08-26T21:19:56Z</time>
      </trkpt>
      <trkpt lat="45.78313" lon="6.71459">
        <ele>1713</ele>
        <time>2022-08-26T21:19:57Z</time>
      </trkpt>
      <trkpt lat="45.78312" lon="6.71461">
        <ele>1713</ele>
        <time>2022-08-26T21:19:58Z</time>
      </trkpt>
      <trkpt lat="45.78311" lon="6.71462">
        <ele>1712</ele>
        <time>2022-08-26T21:19:59Z</time>
      </trkpt>
      <trkpt lat="45.78303" lon="6.71471">
        <ele>1713</ele>
        <time>2022-08-26T21:20:04Z</time>
      </trkpt>
      <trkpt lat="45.78302" lon="6.71472">
        <ele>1713</ele>
        <time>2022-08-26T21:20:05Z</time>
      </trkpt>
      <trkpt lat="45.78301" lon="6.71474">
        <ele>1713</ele>
        <time>2022-08-26T21:20:06Z</time>
      </trkpt>
      <trkpt lat="45.783" lon="6.71475">
        <ele>1713</ele>
        <time>2022-08-26T21:20:07Z</time>
      </trkpt>
      <trkpt lat="45.78299" lon="6.71476">
        <ele>1713</ele>
        <time>2022-08-26T21:20:09Z</time>
      </trkpt>
      <trkpt lat="45.78298" lon="6.71478">
        <ele>1713</ele>
        <time>2022-08-26T21:20:10Z</time>
      </trkpt>
      <trkpt lat="45.78296" lon="6.71479">
        <ele>1713</ele>
        <time>2022-08-26T21:20:11Z</time>
      </trkpt>
      <trkpt lat="45.78295" lon="6.71481">
        <ele>1713</ele>
        <time>2022-08-26T21:20:13Z</time>
      </trkpt>
      <trkpt lat="45.78294" lon="6.71483">
        <ele>1713</ele>
        <time>2022-08-26T21:20:14Z</time>
      </trkpt>
      <trkpt lat="45.78292" lon="6.71485">
        <ele>1713</ele>
        <time>2022-08-26T21:20:15Z</time>
      </trkpt>
      <trkpt lat="45.78291" lon="6.71486">
        <ele>1713</ele>
        <time>2022-08-26T21:20:16Z</time>
      </trkpt>
      <trkpt lat="45.78289" lon="6.71491">
        <ele>1714</ele>
        <time>2022-08-26T21:20:18Z</time>
      </trkpt>
      <trkpt lat="45.78287" lon="6.71498">
        <ele>1715</ele>
        <time>2022-08-26T21:20:23Z</time>
      </trkpt>
      <trkpt lat="45.78287" lon="6.71501">
        <ele>1716</ele>
        <time>2022-08-26T21:20:26Z</time>
      </trkpt>
      <trkpt lat="45.78286" lon="6.71505">
        <ele>1717</ele>
        <time>2022-08-26T21:20:30Z</time>
      </trkpt>
      <trkpt lat="45.78284" lon="6.71507">
        <ele>1717</ele>
        <time>2022-08-26T21:20:31Z</time>
      </trkpt>
      <trkpt lat="45.78281" lon="6.71509">
        <ele>1717</ele>
        <time>2022-08-26T21:20:33Z</time>
      </trkpt>
      <trkpt lat="45.78279" lon="6.71511">
        <ele>1717</ele>
        <time>2022-08-26T21:20:35Z</time>
      </trkpt>
      <trkpt lat="45.78277" lon="6.71512">
        <ele>1718</ele>
        <time>2022-08-26T21:20:37Z</time>
      </trkpt>
      <trkpt lat="45.78274" lon="6.71514">
        <ele>1718</ele>
        <time>2022-08-26T21:20:40Z</time>
      </trkpt>
      <trkpt lat="45.78265" lon="6.71517">
        <ele>1718</ele>
        <time>2022-08-26T21:20:46Z</time>
      </trkpt>
      <trkpt lat="45.78263" lon="6.71516">
        <ele>1718</ele>
        <time>2022-08-26T21:20:47Z</time>
      </trkpt>
      <trkpt lat="45.78261" lon="6.71516">
        <ele>1719</ele>
        <time>2022-08-26T21:20:48Z</time>
      </trkpt>
      <trkpt lat="45.78259" lon="6.71515">
        <ele>1719</ele>
        <time>2022-08-26T21:20:49Z</time>
      </trkpt>
      <trkpt lat="45.78257" lon="6.71514">
        <ele>1719</ele>
        <time>2022-08-26T21:20:50Z</time>
      </trkpt>
      <trkpt lat="45.78255" lon="6.71514">
        <ele>1719</ele>
        <time>2022-08-26T21:20:51Z</time>
      </trkpt>
      <trkpt lat="45.78245" lon="6.71515">
        <ele>1720</ele>
        <time>2022-08-26T21:20:56Z</time>
      </trkpt>
      <trkpt lat="45.78244" lon="6.71515">
        <ele>1720</ele>
        <time>2022-08-26T21:20:57Z</time>
      </trkpt>
      <trkpt lat="45.78243" lon="6.71516">
        <ele>1720</ele>
        <time>2022-08-26T21:20:58Z</time>
      </trkpt>
      <trkpt lat="45.78242" lon="6.71516">
        <ele>1720</ele>
        <time>2022-08-26T21:20:59Z</time>
      </trkpt>
      <trkpt lat="45.78241" lon="6.71516">
        <ele>1720</ele>
        <time>2022-08-26T21:21:01Z</time>
      </trkpt>
      <trkpt lat="45.7824" lon="6.71516">
        <ele>1721</ele>
        <time>2022-08-26T21:21:02Z</time>
      </trkpt>
      <trkpt lat="45.78239" lon="6.71516">
        <ele>1721</ele>
        <time>2022-08-26T21:21:03Z</time>
      </trkpt>
      <trkpt lat="45.78236" lon="6.71518">
        <ele>1722</ele>
        <time>2022-08-26T21:21:06Z</time>
      </trkpt>
      <trkpt lat="45.78235" lon="6.71519">
        <ele>1722</ele>
        <time>2022-08-26T21:21:07Z</time>
      </trkpt>
      <trkpt lat="45.78234" lon="6.7152">
        <ele>1722</ele>
        <time>2022-08-26T21:21:08Z</time>
      </trkpt>
      <trkpt lat="45.78233" lon="6.71522">
        <ele>1722</ele>
        <time>2022-08-26T21:21:09Z</time>
      </trkpt>
      <trkpt lat="45.78232" lon="6.71523">
        <ele>1723</ele>
        <time>2022-08-26T21:21:11Z</time>
      </trkpt>
      <trkpt lat="45.78231" lon="6.71524">
        <ele>1723</ele>
        <time>2022-08-26T21:21:13Z</time>
      </trkpt>
      <trkpt lat="45.7823" lon="6.71526">
        <ele>1723</ele>
        <time>2022-08-26T21:21:14Z</time>
      </trkpt>
      <trkpt lat="45.78229" lon="6.71527">
        <ele>1724</ele>
        <time>2022-08-26T21:21:15Z</time>
      </trkpt>
      <trkpt lat="45.78223" lon="6.71528">
        <ele>1725</ele>
        <time>2022-08-26T21:21:18Z</time>
      </trkpt>
      <trkpt lat="45.78222" lon="6.71529">
        <ele>1725</ele>
        <time>2022-08-26T21:21:19Z</time>
      </trkpt>
      <trkpt lat="45.78221" lon="6.71529">
        <ele>1725</ele>
        <time>2022-08-26T21:21:20Z</time>
      </trkpt>
      <trkpt lat="45.7822" lon="6.71529">
        <ele>1725</ele>
        <time>2022-08-26T21:21:21Z</time>
      </trkpt>
      <trkpt lat="45.7822" lon="6.71529">
        <ele>1725</ele>
        <time>2022-08-26T21:21:23Z</time>
      </trkpt>
      <trkpt lat="45.78219" lon="6.71529">
        <ele>1725</ele>
        <time>2022-08-26T21:21:24Z</time>
      </trkpt>
      <trkpt lat="45.78218" lon="6.7153">
        <ele>1725</ele>
        <time>2022-08-26T21:21:25Z</time>
      </trkpt>
      <trkpt lat="45.78217" lon="6.7153">
        <ele>1725</ele>
        <time>2022-08-26T21:21:26Z</time>
      </trkpt>
      <trkpt lat="45.78216" lon="6.7153">
        <ele>1726</ele>
        <time>2022-08-26T21:21:28Z</time>
      </trkpt>
      <trkpt lat="45.78215" lon="6.7153">
        <ele>1726</ele>
        <time>2022-08-26T21:21:29Z</time>
      </trkpt>
      <trkpt lat="45.78214" lon="6.71531">
        <ele>1726</ele>
        <time>2022-08-26T21:21:30Z</time>
      </trkpt>
      <trkpt lat="45.7821" lon="6.71531">
        <ele>1727</ele>
        <time>2022-08-26T21:21:34Z</time>
      </trkpt>
      <trkpt lat="45.78208" lon="6.71532">
        <ele>1728</ele>
        <time>2022-08-26T21:21:38Z</time>
      </trkpt>
      <trkpt lat="45.78206" lon="6.71533">
        <ele>1728</ele>
        <time>2022-08-26T21:21:40Z</time>
      </trkpt>
      <trkpt lat="45.78205" lon="6.71534">
        <ele>1728</ele>
        <time>2022-08-26T21:21:41Z</time>
      </trkpt>
      <trkpt lat="45.78203" lon="6.71535">
        <ele>1728</ele>
        <time>2022-08-26T21:21:42Z</time>
      </trkpt>
      <trkpt lat="45.78202" lon="6.71536">
        <ele>1729</ele>
        <time>2022-08-26T21:21:43Z</time>
      </trkpt>
      <trkpt lat="45.782" lon="6.71538">
        <ele>1730</ele>
        <time>2022-08-26T21:21:45Z</time>
      </trkpt>
      <trkpt lat="45.78198" lon="6.71539">
        <ele>1730</ele>
        <time>2022-08-26T21:21:46Z</time>
      </trkpt>
      <trkpt lat="45.78196" lon="6.7154">
        <ele>1730</ele>
        <time>2022-08-26T21:21:48Z</time>
      </trkpt>
      <trkpt lat="45.78193" lon="6.71541">
        <ele>1732</ele>
        <time>2022-08-26T21:21:51Z</time>
      </trkpt>
      <trkpt lat="45.7819" lon="6.71542">
        <ele>1732</ele>
        <time>2022-08-26T21:21:52Z</time>
      </trkpt>
      <trkpt lat="45.78188" lon="6.71542">
        <ele>1732</ele>
        <time>2022-08-26T21:21:54Z</time>
      </trkpt>
      <trkpt lat="45.78187" lon="6.71544">
        <ele>1733</ele>
        <time>2022-08-26T21:21:55Z</time>
      </trkpt>
      <trkpt lat="45.78186" lon="6.71545">
        <ele>1733</ele>
        <time>2022-08-26T21:21:56Z</time>
      </trkpt>
      <trkpt lat="45.78185" lon="6.71546">
        <ele>1733</ele>
        <time>2022-08-26T21:21:58Z</time>
      </trkpt>
      <trkpt lat="45.78183" lon="6.71547">
        <ele>1733</ele>
        <time>2022-08-26T21:21:59Z</time>
      </trkpt>
      <trkpt lat="45.78182" lon="6.71548">
        <ele>1733</ele>
        <time>2022-08-26T21:22:00Z</time>
      </trkpt>
      <trkpt lat="45.78181" lon="6.7155">
        <ele>1733</ele>
        <time>2022-08-26T21:22:01Z</time>
      </trkpt>
      <trkpt lat="45.7818" lon="6.71551">
        <ele>1733</ele>
        <time>2022-08-26T21:22:03Z</time>
      </trkpt>
      <trkpt lat="45.78179" lon="6.71552">
        <ele>1733</ele>
        <time>2022-08-26T21:22:04Z</time>
      </trkpt>
      <trkpt lat="45.78177" lon="6.71553">
        <ele>1733</ele>
        <time>2022-08-26T21:22:05Z</time>
      </trkpt>
      <trkpt lat="45.78176" lon="6.71554">
        <ele>1733</ele>
        <time>2022-08-26T21:22:06Z</time>
      </trkpt>
      <trkpt lat="45.78175" lon="6.71554">
        <ele>1733</ele>
        <time>2022-08-26T21:22:08Z</time>
      </trkpt>
      <trkpt lat="45.78174" lon="6.71555">
        <ele>1734</ele>
        <time>2022-08-26T21:22:10Z</time>
      </trkpt>
      <trkpt lat="45.78173" lon="6.71556">
        <ele>1734</ele>
        <time>2022-08-26T21:22:11Z</time>
      </trkpt>
      <trkpt lat="45.78172" lon="6.71557">
        <ele>1734</ele>
        <time>2022-08-26T21:22:12Z</time>
      </trkpt>
      <trkpt lat="45.78171" lon="6.71558">
        <ele>1734</ele>
        <time>2022-08-26T21:22:13Z</time>
      </trkpt>
      <trkpt lat="45.7817" lon="6.71559">
        <ele>1734</ele>
        <time>2022-08-26T21:22:15Z</time>
      </trkpt>
      <trkpt lat="45.78169" lon="6.7156">
        <ele>1734</ele>
        <time>2022-08-26T21:22:16Z</time>
      </trkpt>
      <trkpt lat="45.78167" lon="6.71561">
        <ele>1734</ele>
        <time>2022-08-26T21:22:17Z</time>
      </trkpt>
      <trkpt lat="45.78165" lon="6.71561">
        <ele>1735</ele>
        <time>2022-08-26T21:22:18Z</time>
      </trkpt>
      <trkpt lat="45.78164" lon="6.71561">
        <ele>1735</ele>
        <time>2022-08-26T21:22:19Z</time>
      </trkpt>
      <trkpt lat="45.78162" lon="6.71562">
        <ele>1735</ele>
        <time>2022-08-26T21:22:20Z</time>
      </trkpt>
      <trkpt lat="45.7816" lon="6.71562">
        <ele>1735</ele>
        <time>2022-08-26T21:22:21Z</time>
      </trkpt>
      <trkpt lat="45.78157" lon="6.71561">
        <ele>1735</ele>
        <time>2022-08-26T21:22:22Z</time>
      </trkpt>
      <trkpt lat="45.78154" lon="6.71561">
        <ele>1735</ele>
        <time>2022-08-26T21:22:23Z</time>
      </trkpt>
      <trkpt lat="45.78151" lon="6.7156">
        <ele>1735</ele>
        <time>2022-08-26T21:22:24Z</time>
      </trkpt>
      <trkpt lat="45.78141" lon="6.71557">
        <ele>1736</ele>
        <time>2022-08-26T21:22:31Z</time>
      </trkpt>
      <trkpt lat="45.78139" lon="6.71558">
        <ele>1737</ele>
        <time>2022-08-26T21:22:34Z</time>
      </trkpt>
      <trkpt lat="45.78137" lon="6.71557">
        <ele>1738</ele>
        <time>2022-08-26T21:22:36Z</time>
      </trkpt>
      <trkpt lat="45.78134" lon="6.71555">
        <ele>1738</ele>
        <time>2022-08-26T21:22:41Z</time>
      </trkpt>
      <trkpt lat="45.78129" lon="6.7155">
        <ele>1740</ele>
        <time>2022-08-26T21:22:48Z</time>
      </trkpt>
      <trkpt lat="45.78128" lon="6.7155">
        <ele>1740</ele>
        <time>2022-08-26T21:22:49Z</time>
      </trkpt>
      <trkpt lat="45.78127" lon="6.71549">
        <ele>1740</ele>
        <time>2022-08-26T21:22:50Z</time>
      </trkpt>
      <trkpt lat="45.78125" lon="6.71548">
        <ele>1740</ele>
        <time>2022-08-26T21:22:51Z</time>
      </trkpt>
      <trkpt lat="45.78124" lon="6.71548">
        <ele>1741</ele>
        <time>2022-08-26T21:22:53Z</time>
      </trkpt>
      <trkpt lat="45.78122" lon="6.71547">
        <ele>1741</ele>
        <time>2022-08-26T21:22:54Z</time>
      </trkpt>
      <trkpt lat="45.78121" lon="6.71547">
        <ele>1741</ele>
        <time>2022-08-26T21:22:55Z</time>
      </trkpt>
      <trkpt lat="45.7812" lon="6.71546">
        <ele>1741</ele>
        <time>2022-08-26T21:22:56Z</time>
      </trkpt>
      <trkpt lat="45.78117" lon="6.71544">
        <ele>1742</ele>
        <time>2022-08-26T21:22:57Z</time>
      </trkpt>
      <trkpt lat="45.78115" lon="6.71541">
        <ele>1742</ele>
        <time>2022-08-26T21:22:58Z</time>
      </trkpt>
      <trkpt lat="45.78112" lon="6.71539">
        <ele>1742</ele>
        <time>2022-08-26T21:22:59Z</time>
      </trkpt>
      <trkpt lat="45.78109" lon="6.71535">
        <ele>1743</ele>
        <time>2022-08-26T21:23:01Z</time>
      </trkpt>
      <trkpt lat="45.78106" lon="6.71532">
        <ele>1743</ele>
        <time>2022-08-26T21:23:04Z</time>
      </trkpt>
      <trkpt lat="45.78105" lon="6.71531">
        <ele>1744</ele>
        <time>2022-08-26T21:23:06Z</time>
      </trkpt>
      <trkpt lat="45.78103" lon="6.71528">
        <ele>1744</ele>
        <time>2022-08-26T21:23:07Z</time>
      </trkpt>
      <trkpt lat="45.78101" lon="6.71527">
        <ele>1745</ele>
        <time>2022-08-26T21:23:11Z</time>
      </trkpt>
      <trkpt lat="45.78098" lon="6.71527">
        <ele>1746</ele>
        <time>2022-08-26T21:23:13Z</time>
      </trkpt>
      <trkpt lat="45.78096" lon="6.71526">
        <ele>1746</ele>
        <time>2022-08-26T21:23:17Z</time>
      </trkpt>
      <trkpt lat="45.78094" lon="6.71525">
        <ele>1747</ele>
        <time>2022-08-26T21:23:20Z</time>
      </trkpt>
      <trkpt lat="45.7809" lon="6.71526">
        <ele>1747</ele>
        <time>2022-08-26T21:23:24Z</time>
      </trkpt>
      <trkpt lat="45.78088" lon="6.71526">
        <ele>1747</ele>
        <time>2022-08-26T21:23:26Z</time>
      </trkpt>
      <trkpt lat="45.78085" lon="6.71525">
        <ele>1748</ele>
        <time>2022-08-26T21:23:28Z</time>
      </trkpt>
      <trkpt lat="45.78083" lon="6.71525">
        <ele>1748</ele>
        <time>2022-08-26T21:23:30Z</time>
      </trkpt>
      <trkpt lat="45.78081" lon="6.71524">
        <ele>1750</ele>
        <time>2022-08-26T21:23:33Z</time>
      </trkpt>
      <trkpt lat="45.78079" lon="6.71524">
        <ele>1750</ele>
        <time>2022-08-26T21:23:35Z</time>
      </trkpt>
      <trkpt lat="45.78077" lon="6.71524">
        <ele>1750</ele>
        <time>2022-08-26T21:23:36Z</time>
      </trkpt>
      <trkpt lat="45.78075" lon="6.71524">
        <ele>1750</ele>
        <time>2022-08-26T21:23:40Z</time>
      </trkpt>
      <trkpt lat="45.78072" lon="6.71523">
        <ele>1751</ele>
        <time>2022-08-26T21:23:43Z</time>
      </trkpt>
      <trkpt lat="45.7807" lon="6.71522">
        <ele>1751</ele>
        <time>2022-08-26T21:23:44Z</time>
      </trkpt>
      <trkpt lat="45.78069" lon="6.71522">
        <ele>1751</ele>
        <time>2022-08-26T21:23:46Z</time>
      </trkpt>
      <trkpt lat="45.78065" lon="6.71521">
        <ele>1753</ele>
        <time>2022-08-26T21:23:49Z</time>
      </trkpt>
      <trkpt lat="45.78063" lon="6.7152">
        <ele>1753</ele>
        <time>2022-08-26T21:23:52Z</time>
      </trkpt>
      <trkpt lat="45.78061" lon="6.71519">
        <ele>1753</ele>
        <time>2022-08-26T21:23:53Z</time>
      </trkpt>
      <trkpt lat="45.78059" lon="6.71518">
        <ele>1754</ele>
        <time>2022-08-26T21:23:55Z</time>
      </trkpt>
      <trkpt lat="45.78057" lon="6.71518">
        <ele>1754</ele>
        <time>2022-08-26T21:23:57Z</time>
      </trkpt>
      <trkpt lat="45.78055" lon="6.71516">
        <ele>1754</ele>
        <time>2022-08-26T21:24:00Z</time>
      </trkpt>
      <trkpt lat="45.78052" lon="6.71514">
        <ele>1754</ele>
        <time>2022-08-26T21:24:02Z</time>
      </trkpt>
      <trkpt lat="45.7805" lon="6.71513">
        <ele>1755</ele>
        <time>2022-08-26T21:24:04Z</time>
      </trkpt>
      <trkpt lat="45.78048" lon="6.71511">
        <ele>1755</ele>
        <time>2022-08-26T21:24:08Z</time>
      </trkpt>
      <trkpt lat="45.78045" lon="6.71511">
        <ele>1756</ele>
        <time>2022-08-26T21:24:11Z</time>
      </trkpt>
      <trkpt lat="45.78043" lon="6.7151">
        <ele>1758</ele>
        <time>2022-08-26T21:24:14Z</time>
      </trkpt>
      <trkpt lat="45.78041" lon="6.71509">
        <ele>1758</ele>
        <time>2022-08-26T21:24:17Z</time>
      </trkpt>
      <trkpt lat="45.78038" lon="6.71509">
        <ele>1758</ele>
        <time>2022-08-26T21:24:19Z</time>
      </trkpt>
      <trkpt lat="45.78036" lon="6.71509">
        <ele>1758</ele>
        <time>2022-08-26T21:24:21Z</time>
      </trkpt>
      <trkpt lat="45.78034" lon="6.71507">
        <ele>1759</ele>
        <time>2022-08-26T21:24:23Z</time>
      </trkpt>
      <trkpt lat="45.78032" lon="6.71506">
        <ele>1759</ele>
        <time>2022-08-26T21:24:26Z</time>
      </trkpt>
      <trkpt lat="45.7803" lon="6.71505">
        <ele>1760</ele>
        <time>2022-08-26T21:24:29Z</time>
      </trkpt>
      <trkpt lat="45.78027" lon="6.71503">
        <ele>1760</ele>
        <time>2022-08-26T21:24:32Z</time>
      </trkpt>
      <trkpt lat="45.78024" lon="6.71503">
        <ele>1761</ele>
        <time>2022-08-26T21:24:34Z</time>
      </trkpt>
      <trkpt lat="45.78021" lon="6.71502">
        <ele>1761</ele>
        <time>2022-08-26T21:24:37Z</time>
      </trkpt>
      <trkpt lat="45.78019" lon="6.71502">
        <ele>1761</ele>
        <time>2022-08-26T21:24:38Z</time>
      </trkpt>
      <trkpt lat="45.78017" lon="6.71502">
        <ele>1762</ele>
        <time>2022-08-26T21:24:40Z</time>
      </trkpt>
      <trkpt lat="45.78016" lon="6.71502">
        <ele>1762</ele>
        <time>2022-08-26T21:24:41Z</time>
      </trkpt>
      <trkpt lat="45.78015" lon="6.71502">
        <ele>1763</ele>
        <time>2022-08-26T21:24:42Z</time>
      </trkpt>
      <trkpt lat="45.78014" lon="6.71502">
        <ele>1763</ele>
        <time>2022-08-26T21:24:43Z</time>
      </trkpt>
      <trkpt lat="45.78013" lon="6.71502">
        <ele>1763</ele>
        <time>2022-08-26T21:24:44Z</time>
      </trkpt>
      <trkpt lat="45.78011" lon="6.71501">
        <ele>1763</ele>
        <time>2022-08-26T21:24:47Z</time>
      </trkpt>
      <trkpt lat="45.78009" lon="6.715">
        <ele>1764</ele>
        <time>2022-08-26T21:24:49Z</time>
      </trkpt>
      <trkpt lat="45.78007" lon="6.715">
        <ele>1764</ele>
        <time>2022-08-26T21:24:51Z</time>
      </trkpt>
      <trkpt lat="45.78005" lon="6.71499">
        <ele>1764</ele>
        <time>2022-08-26T21:24:53Z</time>
      </trkpt>
      <trkpt lat="45.78003" lon="6.71498">
        <ele>1764</ele>
        <time>2022-08-26T21:24:54Z</time>
      </trkpt>
      <trkpt lat="45.78002" lon="6.71498">
        <ele>1765</ele>
        <time>2022-08-26T21:24:55Z</time>
      </trkpt>
      <trkpt lat="45.78001" lon="6.71497">
        <ele>1765</ele>
        <time>2022-08-26T21:24:56Z</time>
      </trkpt>
      <trkpt lat="45.78" lon="6.71496">
        <ele>1765</ele>
        <time>2022-08-26T21:24:57Z</time>
      </trkpt>
      <trkpt lat="45.77998" lon="6.71495">
        <ele>1765</ele>
        <time>2022-08-26T21:24:59Z</time>
      </trkpt>
      <trkpt lat="45.77996" lon="6.71493">
        <ele>1766</ele>
        <time>2022-08-26T21:25:01Z</time>
      </trkpt>
      <trkpt lat="45.77994" lon="6.71492">
        <ele>1767</ele>
        <time>2022-08-26T21:25:03Z</time>
      </trkpt>
      <trkpt lat="45.77992" lon="6.71491">
        <ele>1767</ele>
        <time>2022-08-26T21:25:06Z</time>
      </trkpt>
      <trkpt lat="45.7799" lon="6.7149">
        <ele>1768</ele>
        <time>2022-08-26T21:25:08Z</time>
      </trkpt>
      <trkpt lat="45.77988" lon="6.71488">
        <ele>1768</ele>
        <time>2022-08-26T21:25:09Z</time>
      </trkpt>
      <trkpt lat="45.77987" lon="6.71486">
        <ele>1768</ele>
        <time>2022-08-26T21:25:12Z</time>
      </trkpt>
      <trkpt lat="45.77985" lon="6.71485">
        <ele>1768</ele>
        <time>2022-08-26T21:25:13Z</time>
      </trkpt>
      <trkpt lat="45.77983" lon="6.71485">
        <ele>1769</ele>
        <time>2022-08-26T21:25:15Z</time>
      </trkpt>
      <trkpt lat="45.77981" lon="6.71484">
        <ele>1770</ele>
        <time>2022-08-26T21:25:18Z</time>
      </trkpt>
      <trkpt lat="45.77979" lon="6.71482">
        <ele>1770</ele>
        <time>2022-08-26T21:25:19Z</time>
      </trkpt>
      <trkpt lat="45.77978" lon="6.7148">
        <ele>1771</ele>
        <time>2022-08-26T21:25:21Z</time>
      </trkpt>
      <trkpt lat="45.77976" lon="6.71479">
        <ele>1771</ele>
        <time>2022-08-26T21:25:23Z</time>
      </trkpt>
      <trkpt lat="45.77974" lon="6.71476">
        <ele>1771</ele>
        <time>2022-08-26T21:25:27Z</time>
      </trkpt>
      <trkpt lat="45.77973" lon="6.71474">
        <ele>1772</ele>
        <time>2022-08-26T21:25:30Z</time>
      </trkpt>
      <trkpt lat="45.77971" lon="6.71471">
        <ele>1773</ele>
        <time>2022-08-26T21:25:33Z</time>
      </trkpt>
      <trkpt lat="45.77969" lon="6.7147">
        <ele>1774</ele>
        <time>2022-08-26T21:25:35Z</time>
      </trkpt>
      <trkpt lat="45.77967" lon="6.71469">
        <ele>1774</ele>
        <time>2022-08-26T21:25:38Z</time>
      </trkpt>
      <trkpt lat="45.77964" lon="6.71469">
        <ele>1774</ele>
        <time>2022-08-26T21:25:41Z</time>
      </trkpt>
      <trkpt lat="45.77962" lon="6.71468">
        <ele>1776</ele>
        <time>2022-08-26T21:25:45Z</time>
      </trkpt>
      <trkpt lat="45.7796" lon="6.71468">
        <ele>1777</ele>
        <time>2022-08-26T21:25:48Z</time>
      </trkpt>
      <trkpt lat="45.77958" lon="6.71469">
        <ele>1777</ele>
        <time>2022-08-26T21:25:51Z</time>
      </trkpt>
      <trkpt lat="45.77956" lon="6.7147">
        <ele>1777</ele>
        <time>2022-08-26T21:25:52Z</time>
      </trkpt>
      <trkpt lat="45.77953" lon="6.71473">
        <ele>1777</ele>
        <time>2022-08-26T21:25:56Z</time>
      </trkpt>
      <trkpt lat="45.77951" lon="6.71475">
        <ele>1778</ele>
        <time>2022-08-26T21:25:58Z</time>
      </trkpt>
      <trkpt lat="45.7795" lon="6.71477">
        <ele>1778</ele>
        <time>2022-08-26T21:26:01Z</time>
      </trkpt>
      <trkpt lat="45.77948" lon="6.71478">
        <ele>1778</ele>
        <time>2022-08-26T21:26:03Z</time>
      </trkpt>
      <trkpt lat="45.77947" lon="6.7148">
        <ele>1779</ele>
        <time>2022-08-26T21:26:05Z</time>
      </trkpt>
      <trkpt lat="45.77945" lon="6.71482">
        <ele>1779</ele>
        <time>2022-08-26T21:26:06Z</time>
      </trkpt>
      <trkpt lat="45.77944" lon="6.71483">
        <ele>1779</ele>
        <time>2022-08-26T21:26:08Z</time>
      </trkpt>
      <trkpt lat="45.77942" lon="6.71485">
        <ele>1780</ele>
        <time>2022-08-26T21:26:11Z</time>
      </trkpt>
      <trkpt lat="45.7794" lon="6.71486">
        <ele>1780</ele>
        <time>2022-08-26T21:26:12Z</time>
      </trkpt>
      <trkpt lat="45.77938" lon="6.71487">
        <ele>1780</ele>
        <time>2022-08-26T21:26:14Z</time>
      </trkpt>
      <trkpt lat="45.77936" lon="6.71489">
        <ele>1780</ele>
        <time>2022-08-26T21:26:17Z</time>
      </trkpt>
      <trkpt lat="45.77934" lon="6.71489">
        <ele>1780</ele>
        <time>2022-08-26T21:26:18Z</time>
      </trkpt>
      <trkpt lat="45.77932" lon="6.7149">
        <ele>1782</ele>
        <time>2022-08-26T21:26:22Z</time>
      </trkpt>
      <trkpt lat="45.7793" lon="6.71492">
        <ele>1782</ele>
        <time>2022-08-26T21:26:23Z</time>
      </trkpt>
      <trkpt lat="45.77928" lon="6.71493">
        <ele>1782</ele>
        <time>2022-08-26T21:26:26Z</time>
      </trkpt>
      <trkpt lat="45.77926" lon="6.71493">
        <ele>1782</ele>
        <time>2022-08-26T21:26:27Z</time>
      </trkpt>
      <trkpt lat="45.77923" lon="6.71493">
        <ele>1783</ele>
        <time>2022-08-26T21:26:30Z</time>
      </trkpt>
      <trkpt lat="45.77921" lon="6.71493">
        <ele>1783</ele>
        <time>2022-08-26T21:26:32Z</time>
      </trkpt>
      <trkpt lat="45.77919" lon="6.71493">
        <ele>1783</ele>
        <time>2022-08-26T21:26:34Z</time>
      </trkpt>
      <trkpt lat="45.77917" lon="6.71492">
        <ele>1784</ele>
        <time>2022-08-26T21:26:36Z</time>
      </trkpt>
      <trkpt lat="45.77914" lon="6.71493">
        <ele>1784</ele>
        <time>2022-08-26T21:26:38Z</time>
      </trkpt>
      <trkpt lat="45.77913" lon="6.71492">
        <ele>1784</ele>
        <time>2022-08-26T21:26:39Z</time>
      </trkpt>
      <trkpt lat="45.77911" lon="6.71492">
        <ele>1784</ele>
        <time>2022-08-26T21:26:41Z</time>
      </trkpt>
      <trkpt lat="45.77909" lon="6.71491">
        <ele>1785</ele>
        <time>2022-08-26T21:26:43Z</time>
      </trkpt>
      <trkpt lat="45.77907" lon="6.71491">
        <ele>1785</ele>
        <time>2022-08-26T21:26:46Z</time>
      </trkpt>
      <trkpt lat="45.77904" lon="6.71492">
        <ele>1786</ele>
        <time>2022-08-26T21:26:48Z</time>
      </trkpt>
      <trkpt lat="45.77901" lon="6.71492">
        <ele>1786</ele>
        <time>2022-08-26T21:26:49Z</time>
      </trkpt>
      <trkpt lat="45.779" lon="6.71492">
        <ele>1786</ele>
        <time>2022-08-26T21:26:50Z</time>
      </trkpt>
      <trkpt lat="45.77899" lon="6.71492">
        <ele>1786</ele>
        <time>2022-08-26T21:26:52Z</time>
      </trkpt>
      <trkpt lat="45.77897" lon="6.71492">
        <ele>1787</ele>
        <time>2022-08-26T21:26:53Z</time>
      </trkpt>
      <trkpt lat="45.77895" lon="6.71491">
        <ele>1787</ele>
        <time>2022-08-26T21:26:55Z</time>
      </trkpt>
      <trkpt lat="45.77893" lon="6.71491">
        <ele>1787</ele>
        <time>2022-08-26T21:26:57Z</time>
      </trkpt>
      <trkpt lat="45.77891" lon="6.71491">
        <ele>1788</ele>
        <time>2022-08-26T21:26:59Z</time>
      </trkpt>
      <trkpt lat="45.77888" lon="6.7149">
        <ele>1789</ele>
        <time>2022-08-26T21:27:03Z</time>
      </trkpt>
      <trkpt lat="45.77886" lon="6.7149">
        <ele>1789</ele>
        <time>2022-08-26T21:27:04Z</time>
      </trkpt>
      <trkpt lat="45.77885" lon="6.7149">
        <ele>1789</ele>
        <time>2022-08-26T21:27:05Z</time>
      </trkpt>
      <trkpt lat="45.77884" lon="6.7149">
        <ele>1789</ele>
        <time>2022-08-26T21:27:06Z</time>
      </trkpt>
      <trkpt lat="45.77883" lon="6.7149">
        <ele>1789</ele>
        <time>2022-08-26T21:27:07Z</time>
      </trkpt>
      <trkpt lat="45.77882" lon="6.7149">
        <ele>1790</ele>
        <time>2022-08-26T21:27:08Z</time>
      </trkpt>
      <trkpt lat="45.7788" lon="6.7149">
        <ele>1790</ele>
        <time>2022-08-26T21:27:11Z</time>
      </trkpt>
      <trkpt lat="45.77878" lon="6.7149">
        <ele>1790</ele>
        <time>2022-08-26T21:27:13Z</time>
      </trkpt>
      <trkpt lat="45.77876" lon="6.7149">
        <ele>1790</ele>
        <time>2022-08-26T21:27:14Z</time>
      </trkpt>
      <trkpt lat="45.77875" lon="6.71489">
        <ele>1791</ele>
        <time>2022-08-26T21:27:16Z</time>
      </trkpt>
      <trkpt lat="45.77872" lon="6.71488">
        <ele>1791</ele>
        <time>2022-08-26T21:27:19Z</time>
      </trkpt>
      <trkpt lat="45.7787" lon="6.71488">
        <ele>1792</ele>
        <time>2022-08-26T21:27:21Z</time>
      </trkpt>
      <trkpt lat="45.77868" lon="6.71489">
        <ele>1792</ele>
        <time>2022-08-26T21:27:23Z</time>
      </trkpt>
      <trkpt lat="45.77866" lon="6.7149">
        <ele>1792</ele>
        <time>2022-08-26T21:27:25Z</time>
      </trkpt>
      <trkpt lat="45.77864" lon="6.7149">
        <ele>1793</ele>
        <time>2022-08-26T21:27:27Z</time>
      </trkpt>
      <trkpt lat="45.77861" lon="6.71489">
        <ele>1793</ele>
        <time>2022-08-26T21:27:30Z</time>
      </trkpt>
      <trkpt lat="45.77859" lon="6.71487">
        <ele>1793</ele>
        <time>2022-08-26T21:27:33Z</time>
      </trkpt>
      <trkpt lat="45.77857" lon="6.71487">
        <ele>1794</ele>
        <time>2022-08-26T21:27:35Z</time>
      </trkpt>
      <trkpt lat="45.77855" lon="6.71486">
        <ele>1795</ele>
        <time>2022-08-26T21:27:37Z</time>
      </trkpt>
      <trkpt lat="45.77853" lon="6.71486">
        <ele>1795</ele>
        <time>2022-08-26T21:27:39Z</time>
      </trkpt>
      <trkpt lat="45.7785" lon="6.71484">
        <ele>1797</ele>
        <time>2022-08-26T21:27:42Z</time>
      </trkpt>
      <trkpt lat="45.77848" lon="6.71484">
        <ele>1797</ele>
        <time>2022-08-26T21:27:45Z</time>
      </trkpt>
      <trkpt lat="45.77846" lon="6.71483">
        <ele>1797</ele>
        <time>2022-08-26T21:27:47Z</time>
      </trkpt>
      <trkpt lat="45.77844" lon="6.71483">
        <ele>1797</ele>
        <time>2022-08-26T21:27:48Z</time>
      </trkpt>
      <trkpt lat="45.77842" lon="6.71481">
        <ele>1798</ele>
        <time>2022-08-26T21:27:51Z</time>
      </trkpt>
      <trkpt lat="45.7784" lon="6.7148">
        <ele>1798</ele>
        <time>2022-08-26T21:27:54Z</time>
      </trkpt>
      <trkpt lat="45.77838" lon="6.71479">
        <ele>1799</ele>
        <time>2022-08-26T21:27:56Z</time>
      </trkpt>
      <trkpt lat="45.77836" lon="6.71477">
        <ele>1799</ele>
        <time>2022-08-26T21:27:59Z</time>
      </trkpt>
      <trkpt lat="45.77833" lon="6.71477">
        <ele>1799</ele>
        <time>2022-08-26T21:28:01Z</time>
      </trkpt>
      <trkpt lat="45.77832" lon="6.71476">
        <ele>1799</ele>
        <time>2022-08-26T21:28:02Z</time>
      </trkpt>
      <trkpt lat="45.77831" lon="6.71475">
        <ele>1799</ele>
        <time>2022-08-26T21:28:03Z</time>
      </trkpt>
      <trkpt lat="45.77829" lon="6.71474">
        <ele>1800</ele>
        <time>2022-08-26T21:28:04Z</time>
      </trkpt>
      <trkpt lat="45.77828" lon="6.71472">
        <ele>1801</ele>
        <time>2022-08-26T21:28:07Z</time>
      </trkpt>
      <trkpt lat="45.77826" lon="6.7147">
        <ele>1801</ele>
        <time>2022-08-26T21:28:09Z</time>
      </trkpt>
      <trkpt lat="45.77825" lon="6.71468">
        <ele>1802</ele>
        <time>2022-08-26T21:28:11Z</time>
      </trkpt>
      <trkpt lat="45.77823" lon="6.71466">
        <ele>1802</ele>
        <time>2022-08-26T21:28:13Z</time>
      </trkpt>
      <trkpt lat="45.77822" lon="6.71464">
        <ele>1803</ele>
        <time>2022-08-26T21:28:14Z</time>
      </trkpt>
      <trkpt lat="45.77821" lon="6.7146">
        <ele>1803</ele>
        <time>2022-08-26T21:28:16Z</time>
      </trkpt>
      <trkpt lat="45.7782" lon="6.71458">
        <ele>1803</ele>
        <time>2022-08-26T21:28:18Z</time>
      </trkpt>
      <trkpt lat="45.77819" lon="6.71455">
        <ele>1803</ele>
        <time>2022-08-26T21:28:21Z</time>
      </trkpt>
      <trkpt lat="45.77818" lon="6.71452">
        <ele>1803</ele>
        <time>2022-08-26T21:28:22Z</time>
      </trkpt>
      <trkpt lat="45.77817" lon="6.71449">
        <ele>1804</ele>
        <time>2022-08-26T21:28:24Z</time>
      </trkpt>
      <trkpt lat="45.77816" lon="6.71447">
        <ele>1804</ele>
        <time>2022-08-26T21:28:27Z</time>
      </trkpt>
      <trkpt lat="45.77815" lon="6.71444">
        <ele>1805</ele>
        <time>2022-08-26T21:28:29Z</time>
      </trkpt>
      <trkpt lat="45.77814" lon="6.71442">
        <ele>1805</ele>
        <time>2022-08-26T21:28:30Z</time>
      </trkpt>
      <trkpt lat="45.77813" lon="6.7144">
        <ele>1806</ele>
        <time>2022-08-26T21:28:33Z</time>
      </trkpt>
      <trkpt lat="45.77812" lon="6.71437">
        <ele>1806</ele>
        <time>2022-08-26T21:28:34Z</time>
      </trkpt>
      <trkpt lat="45.7781" lon="6.71434">
        <ele>1807</ele>
        <time>2022-08-26T21:28:38Z</time>
      </trkpt>
      <trkpt lat="45.77808" lon="6.71432">
        <ele>1807</ele>
        <time>2022-08-26T21:28:40Z</time>
      </trkpt>
      <trkpt lat="45.77806" lon="6.71431">
        <ele>1808</ele>
        <time>2022-08-26T21:28:43Z</time>
      </trkpt>
      <trkpt lat="45.77805" lon="6.7143">
        <ele>1809</ele>
        <time>2022-08-26T21:28:45Z</time>
      </trkpt>
      <trkpt lat="45.77802" lon="6.71427">
        <ele>1809</ele>
        <time>2022-08-26T21:28:47Z</time>
      </trkpt>
      <trkpt lat="45.778" lon="6.71426">
        <ele>1810</ele>
        <time>2022-08-26T21:28:51Z</time>
      </trkpt>
      <trkpt lat="45.77798" lon="6.71425">
        <ele>1811</ele>
        <time>2022-08-26T21:28:54Z</time>
      </trkpt>
      <trkpt lat="45.77796" lon="6.71425">
        <ele>1812</ele>
        <time>2022-08-26T21:28:57Z</time>
      </trkpt>
      <trkpt lat="45.77794" lon="6.71425">
        <ele>1812</ele>
        <time>2022-08-26T21:29:00Z</time>
      </trkpt>
      <trkpt lat="45.77792" lon="6.71425">
        <ele>1812</ele>
        <time>2022-08-26T21:29:02Z</time>
      </trkpt>
      <trkpt lat="45.7779" lon="6.7143">
        <ele>1812</ele>
        <time>2022-08-26T21:29:08Z</time>
      </trkpt>
      <trkpt lat="45.77789" lon="6.7143">
        <ele>1812</ele>
        <time>2022-08-26T21:29:09Z</time>
      </trkpt>
      <trkpt lat="45.77789" lon="6.71431">
        <ele>1812</ele>
        <time>2022-08-26T21:29:10Z</time>
      </trkpt>
      <trkpt lat="45.77789" lon="6.71431">
        <ele>1812</ele>
        <time>2022-08-26T21:29:11Z</time>
      </trkpt>
      <trkpt lat="45.77788" lon="6.71432">
        <ele>1813</ele>
        <time>2022-08-26T21:29:13Z</time>
      </trkpt>
      <trkpt lat="45.77788" lon="6.71432">
        <ele>1813</ele>
        <time>2022-08-26T21:29:14Z</time>
      </trkpt>
      <trkpt lat="45.77788" lon="6.71433">
        <ele>1813</ele>
        <time>2022-08-26T21:29:15Z</time>
      </trkpt>
      <trkpt lat="45.77787" lon="6.71434">
        <ele>1813</ele>
        <time>2022-08-26T21:29:16Z</time>
      </trkpt>
      <trkpt lat="45.77781" lon="6.7144">
        <ele>1813</ele>
        <time>2022-08-26T21:29:18Z</time>
      </trkpt>
      <trkpt lat="45.77779" lon="6.7144">
        <ele>1814</ele>
        <time>2022-08-26T21:29:20Z</time>
      </trkpt>
      <trkpt lat="45.77777" lon="6.71439">
        <ele>1814</ele>
        <time>2022-08-26T21:29:21Z</time>
      </trkpt>
      <trkpt lat="45.77775" lon="6.71439">
        <ele>1814</ele>
        <time>2022-08-26T21:29:22Z</time>
      </trkpt>
      <trkpt lat="45.77773" lon="6.71439">
        <ele>1814</ele>
        <time>2022-08-26T21:29:23Z</time>
      </trkpt>
      <trkpt lat="45.77773" lon="6.71439">
        <ele>1814</ele>
        <time>2022-08-26T21:29:25Z</time>
      </trkpt>
      <trkpt lat="45.77772" lon="6.7144">
        <ele>1815</ele>
        <time>2022-08-26T21:29:26Z</time>
      </trkpt>
      <trkpt lat="45.77771" lon="6.7144">
        <ele>1815</ele>
        <time>2022-08-26T21:29:27Z</time>
      </trkpt>
      <trkpt lat="45.77771" lon="6.71441">
        <ele>1816</ele>
        <time>2022-08-26T21:29:28Z</time>
      </trkpt>
      <trkpt lat="45.7777" lon="6.71441">
        <ele>1817</ele>
        <time>2022-08-26T21:29:30Z</time>
      </trkpt>
      <trkpt lat="45.7777" lon="6.71441">
        <ele>1817</ele>
        <time>2022-08-26T21:29:31Z</time>
      </trkpt>
      <trkpt lat="45.77769" lon="6.71442">
        <ele>1817</ele>
        <time>2022-08-26T21:29:32Z</time>
      </trkpt>
      <trkpt lat="45.77767" lon="6.71444">
        <ele>1817</ele>
        <time>2022-08-26T21:29:34Z</time>
      </trkpt>
      <trkpt lat="45.77765" lon="6.71444">
        <ele>1817</ele>
        <time>2022-08-26T21:29:36Z</time>
      </trkpt>
      <trkpt lat="45.77762" lon="6.71445">
        <ele>1818</ele>
        <time>2022-08-26T21:29:38Z</time>
      </trkpt>
      <trkpt lat="45.7776" lon="6.71445">
        <ele>1818</ele>
        <time>2022-08-26T21:29:39Z</time>
      </trkpt>
      <trkpt lat="45.77757" lon="6.71446">
        <ele>1819</ele>
        <time>2022-08-26T21:29:42Z</time>
      </trkpt>
      <trkpt lat="45.77754" lon="6.71447">
        <ele>1819</ele>
        <time>2022-08-26T21:29:43Z</time>
      </trkpt>
      <trkpt lat="45.77752" lon="6.71446">
        <ele>1819</ele>
        <time>2022-08-26T21:29:46Z</time>
      </trkpt>
      <trkpt lat="45.7775" lon="6.71446">
        <ele>1820</ele>
        <time>2022-08-26T21:29:48Z</time>
      </trkpt>
      <trkpt lat="45.77748" lon="6.71447">
        <ele>1820</ele>
        <time>2022-08-26T21:29:50Z</time>
      </trkpt>
      <trkpt lat="45.77746" lon="6.71448">
        <ele>1821</ele>
        <time>2022-08-26T21:29:52Z</time>
      </trkpt>
      <trkpt lat="45.77744" lon="6.71449">
        <ele>1821</ele>
        <time>2022-08-26T21:29:53Z</time>
      </trkpt>
      <trkpt lat="45.77741" lon="6.7145">
        <ele>1821</ele>
        <time>2022-08-26T21:29:57Z</time>
      </trkpt>
      <trkpt lat="45.77738" lon="6.71451">
        <ele>1823</ele>
        <time>2022-08-26T21:29:59Z</time>
      </trkpt>
      <trkpt lat="45.77737" lon="6.71451">
        <ele>1823</ele>
        <time>2022-08-26T21:30:00Z</time>
      </trkpt>
      <trkpt lat="45.77736" lon="6.71451">
        <ele>1823</ele>
        <time>2022-08-26T21:30:01Z</time>
      </trkpt>
      <trkpt lat="45.77735" lon="6.71451">
        <ele>1823</ele>
        <time>2022-08-26T21:30:02Z</time>
      </trkpt>
      <trkpt lat="45.77734" lon="6.71451">
        <ele>1823</ele>
        <time>2022-08-26T21:30:03Z</time>
      </trkpt>
      <trkpt lat="45.77731" lon="6.71452">
        <ele>1823</ele>
        <time>2022-08-26T21:30:06Z</time>
      </trkpt>
      <trkpt lat="45.77729" lon="6.71454">
        <ele>1823</ele>
        <time>2022-08-26T21:30:08Z</time>
      </trkpt>
      <trkpt lat="45.77728" lon="6.71455">
        <ele>1824</ele>
        <time>2022-08-26T21:30:10Z</time>
      </trkpt>
      <trkpt lat="45.77726" lon="6.71457">
        <ele>1825</ele>
        <time>2022-08-26T21:30:14Z</time>
      </trkpt>
      <trkpt lat="45.77725" lon="6.71458">
        <ele>1825</ele>
        <time>2022-08-26T21:30:15Z</time>
      </trkpt>
      <trkpt lat="45.77724" lon="6.71459">
        <ele>1825</ele>
        <time>2022-08-26T21:30:17Z</time>
      </trkpt>
      <trkpt lat="45.77724" lon="6.7146">
        <ele>1826</ele>
        <time>2022-08-26T21:30:18Z</time>
      </trkpt>
      <trkpt lat="45.77723" lon="6.7146">
        <ele>1826</ele>
        <time>2022-08-26T21:30:19Z</time>
      </trkpt>
      <trkpt lat="45.77722" lon="6.71461">
        <ele>1826</ele>
        <time>2022-08-26T21:30:20Z</time>
      </trkpt>
      <trkpt lat="45.77721" lon="6.71462">
        <ele>1826</ele>
        <time>2022-08-26T21:30:22Z</time>
      </trkpt>
      <trkpt lat="45.7772" lon="6.71462">
        <ele>1826</ele>
        <time>2022-08-26T21:30:24Z</time>
      </trkpt>
      <trkpt lat="45.77719" lon="6.71463">
        <ele>1826</ele>
        <time>2022-08-26T21:30:25Z</time>
      </trkpt>
      <trkpt lat="45.77719" lon="6.71464">
        <ele>1826</ele>
        <time>2022-08-26T21:30:26Z</time>
      </trkpt>
      <trkpt lat="45.77718" lon="6.71465">
        <ele>1826</ele>
        <time>2022-08-26T21:30:27Z</time>
      </trkpt>
      <trkpt lat="45.77717" lon="6.71465">
        <ele>1826</ele>
        <time>2022-08-26T21:30:29Z</time>
      </trkpt>
      <trkpt lat="45.77716" lon="6.71466">
        <ele>1827</ele>
        <time>2022-08-26T21:30:30Z</time>
      </trkpt>
      <trkpt lat="45.77714" lon="6.71468">
        <ele>1827</ele>
        <time>2022-08-26T21:30:31Z</time>
      </trkpt>
      <trkpt lat="45.77712" lon="6.71468">
        <ele>1827</ele>
        <time>2022-08-26T21:30:32Z</time>
      </trkpt>
      <trkpt lat="45.7771" lon="6.71471">
        <ele>1828</ele>
        <time>2022-08-26T21:30:36Z</time>
      </trkpt>
      <trkpt lat="45.77708" lon="6.71474">
        <ele>1828</ele>
        <time>2022-08-26T21:30:38Z</time>
      </trkpt>
      <trkpt lat="45.77708" lon="6.71477">
        <ele>1828</ele>
        <time>2022-08-26T21:30:40Z</time>
      </trkpt>
      <trkpt lat="45.77706" lon="6.71478">
        <ele>1829</ele>
        <time>2022-08-26T21:30:43Z</time>
      </trkpt>
      <trkpt lat="45.77704" lon="6.71479">
        <ele>1830</ele>
        <time>2022-08-26T21:30:45Z</time>
      </trkpt>
      <trkpt lat="45.77703" lon="6.71482">
        <ele>1830</ele>
        <time>2022-08-26T21:30:46Z</time>
      </trkpt>
      <trkpt lat="45.77695" lon="6.7149">
        <ele>1831</ele>
        <time>2022-08-26T21:30:55Z</time>
      </trkpt>
      <trkpt lat="45.77691" lon="6.71493">
        <ele>1832</ele>
        <time>2022-08-26T21:31:00Z</time>
      </trkpt>
      <trkpt lat="45.77689" lon="6.71496">
        <ele>1832</ele>
        <time>2022-08-26T21:31:02Z</time>
      </trkpt>
      <trkpt lat="45.77687" lon="6.71495">
        <ele>1832</ele>
        <time>2022-08-26T21:31:03Z</time>
      </trkpt>
      <trkpt lat="45.77685" lon="6.71495">
        <ele>1833</ele>
        <time>2022-08-26T21:31:04Z</time>
      </trkpt>
      <trkpt lat="45.77683" lon="6.71495">
        <ele>1833</ele>
        <time>2022-08-26T21:31:05Z</time>
      </trkpt>
      <trkpt lat="45.77681" lon="6.71495">
        <ele>1833</ele>
        <time>2022-08-26T21:31:07Z</time>
      </trkpt>
      <trkpt lat="45.77679" lon="6.71495">
        <ele>1834</ele>
        <time>2022-08-26T21:31:08Z</time>
      </trkpt>
      <trkpt lat="45.77676" lon="6.71496">
        <ele>1835</ele>
        <time>2022-08-26T21:31:13Z</time>
      </trkpt>
      <trkpt lat="45.77675" lon="6.71493">
        <ele>1835</ele>
        <time>2022-08-26T21:31:15Z</time>
      </trkpt>
      <trkpt lat="45.77674" lon="6.71493">
        <ele>1835</ele>
        <time>2022-08-26T21:31:16Z</time>
      </trkpt>
      <trkpt lat="45.77673" lon="6.71493">
        <ele>1836</ele>
        <time>2022-08-26T21:31:18Z</time>
      </trkpt>
      <trkpt lat="45.77672" lon="6.71493">
        <ele>1836</ele>
        <time>2022-08-26T21:31:19Z</time>
      </trkpt>
      <trkpt lat="45.7767" lon="6.71493">
        <ele>1837</ele>
        <time>2022-08-26T21:31:20Z</time>
      </trkpt>
      <trkpt lat="45.77669" lon="6.71493">
        <ele>1837</ele>
        <time>2022-08-26T21:31:21Z</time>
      </trkpt>
      <trkpt lat="45.77667" lon="6.71493">
        <ele>1837</ele>
        <time>2022-08-26T21:31:24Z</time>
      </trkpt>
      <trkpt lat="45.77665" lon="6.71492">
        <ele>1838</ele>
        <time>2022-08-26T21:31:28Z</time>
      </trkpt>
      <trkpt lat="45.77663" lon="6.71492">
        <ele>1839</ele>
        <time>2022-08-26T21:31:31Z</time>
      </trkpt>
      <trkpt lat="45.77661" lon="6.71492">
        <ele>1839</ele>
        <time>2022-08-26T21:31:33Z</time>
      </trkpt>
      <trkpt lat="45.77659" lon="6.71492">
        <ele>1839</ele>
        <time>2022-08-26T21:31:35Z</time>
      </trkpt>
      <trkpt lat="45.77657" lon="6.71491">
        <ele>1839</ele>
        <time>2022-08-26T21:31:37Z</time>
      </trkpt>
      <trkpt lat="45.77653" lon="6.71491">
        <ele>1840</ele>
        <time>2022-08-26T21:31:39Z</time>
      </trkpt>
      <trkpt lat="45.77652" lon="6.71491">
        <ele>1840</ele>
        <time>2022-08-26T21:31:40Z</time>
      </trkpt>
      <trkpt lat="45.77649" lon="6.71491">
        <ele>1841</ele>
        <time>2022-08-26T21:31:42Z</time>
      </trkpt>
      <trkpt lat="45.77646" lon="6.71492">
        <ele>1841</ele>
        <time>2022-08-26T21:31:45Z</time>
      </trkpt>
      <trkpt lat="45.77643" lon="6.71493">
        <ele>1841</ele>
        <time>2022-08-26T21:31:46Z</time>
      </trkpt>
      <trkpt lat="45.77642" lon="6.71494">
        <ele>1841</ele>
        <time>2022-08-26T21:31:47Z</time>
      </trkpt>
      <trkpt lat="45.77641" lon="6.71494">
        <ele>1841</ele>
        <time>2022-08-26T21:31:48Z</time>
      </trkpt>
      <trkpt lat="45.77639" lon="6.71495">
        <ele>1841</ele>
        <time>2022-08-26T21:31:49Z</time>
      </trkpt>
      <trkpt lat="45.77638" lon="6.71495">
        <ele>1841</ele>
        <time>2022-08-26T21:31:50Z</time>
      </trkpt>
      <trkpt lat="45.77636" lon="6.71496">
        <ele>1841</ele>
        <time>2022-08-26T21:31:53Z</time>
      </trkpt>
      <trkpt lat="45.77634" lon="6.71496">
        <ele>1842</ele>
        <time>2022-08-26T21:31:55Z</time>
      </trkpt>
      <trkpt lat="45.7763" lon="6.71497">
        <ele>1842</ele>
        <time>2022-08-26T21:31:57Z</time>
      </trkpt>
      <trkpt lat="45.77629" lon="6.71498">
        <ele>1842</ele>
        <time>2022-08-26T21:31:58Z</time>
      </trkpt>
      <trkpt lat="45.77627" lon="6.71498">
        <ele>1842</ele>
        <time>2022-08-26T21:32:00Z</time>
      </trkpt>
      <trkpt lat="45.77625" lon="6.71497">
        <ele>1843</ele>
        <time>2022-08-26T21:32:03Z</time>
      </trkpt>
      <trkpt lat="45.77623" lon="6.71498">
        <ele>1843</ele>
        <time>2022-08-26T21:32:04Z</time>
      </trkpt>
      <trkpt lat="45.77621" lon="6.71498">
        <ele>1843</ele>
        <time>2022-08-26T21:32:07Z</time>
      </trkpt>
      <trkpt lat="45.77618" lon="6.71499">
        <ele>1843</ele>
        <time>2022-08-26T21:32:09Z</time>
      </trkpt>
      <trkpt lat="45.77616" lon="6.71501">
        <ele>1844</ele>
        <time>2022-08-26T21:32:11Z</time>
      </trkpt>
      <trkpt lat="45.77612" lon="6.71503">
        <ele>1845</ele>
        <time>2022-08-26T21:32:13Z</time>
      </trkpt>
      <trkpt lat="45.77611" lon="6.71504">
        <ele>1845</ele>
        <time>2022-08-26T21:32:14Z</time>
      </trkpt>
      <trkpt lat="45.7761" lon="6.71504">
        <ele>1845</ele>
        <time>2022-08-26T21:32:16Z</time>
      </trkpt>
      <trkpt lat="45.77609" lon="6.71505">
        <ele>1845</ele>
        <time>2022-08-26T21:32:17Z</time>
      </trkpt>
      <trkpt lat="45.77608" lon="6.71505">
        <ele>1845</ele>
        <time>2022-08-26T21:32:18Z</time>
      </trkpt>
      <trkpt lat="45.77608" lon="6.71506">
        <ele>1845</ele>
        <time>2022-08-26T21:32:19Z</time>
      </trkpt>
      <trkpt lat="45.77607" lon="6.71507">
        <ele>1845</ele>
        <time>2022-08-26T21:32:20Z</time>
      </trkpt>
      <trkpt lat="45.77605" lon="6.71506">
        <ele>1846</ele>
        <time>2022-08-26T21:32:22Z</time>
      </trkpt>
      <trkpt lat="45.77603" lon="6.71507">
        <ele>1846</ele>
        <time>2022-08-26T21:32:25Z</time>
      </trkpt>
      <trkpt lat="45.776" lon="6.71508">
        <ele>1846</ele>
        <time>2022-08-26T21:32:27Z</time>
      </trkpt>
      <trkpt lat="45.77598" lon="6.71508">
        <ele>1847</ele>
        <time>2022-08-26T21:32:28Z</time>
      </trkpt>
      <trkpt lat="45.77597" lon="6.71509">
        <ele>1847</ele>
        <time>2022-08-26T21:32:29Z</time>
      </trkpt>
      <trkpt lat="45.77595" lon="6.71509">
        <ele>1847</ele>
        <time>2022-08-26T21:32:30Z</time>
      </trkpt>
      <trkpt lat="45.77593" lon="6.7151">
        <ele>1848</ele>
        <time>2022-08-26T21:32:32Z</time>
      </trkpt>
      <trkpt lat="45.77589" lon="6.71512">
        <ele>1848</ele>
        <time>2022-08-26T21:32:36Z</time>
      </trkpt>
      <trkpt lat="45.77588" lon="6.71514">
        <ele>1848</ele>
        <time>2022-08-26T21:32:38Z</time>
      </trkpt>
      <trkpt lat="45.77586" lon="6.71515">
        <ele>1848</ele>
        <time>2022-08-26T21:32:40Z</time>
      </trkpt>
      <trkpt lat="45.77585" lon="6.71516">
        <ele>1848</ele>
        <time>2022-08-26T21:32:41Z</time>
      </trkpt>
      <trkpt lat="45.77584" lon="6.71517">
        <ele>1849</ele>
        <time>2022-08-26T21:32:42Z</time>
      </trkpt>
      <trkpt lat="45.77577" lon="6.71526">
        <ele>1850</ele>
        <time>2022-08-26T21:32:52Z</time>
      </trkpt>
      <trkpt lat="45.77577" lon="6.71528">
        <ele>1850</ele>
        <time>2022-08-26T21:32:54Z</time>
      </trkpt>
      <trkpt lat="45.77576" lon="6.7153">
        <ele>1850</ele>
        <time>2022-08-26T21:32:55Z</time>
      </trkpt>
      <trkpt lat="45.77576" lon="6.71531">
        <ele>1850</ele>
        <time>2022-08-26T21:32:56Z</time>
      </trkpt>
      <trkpt lat="45.77575" lon="6.71533">
        <ele>1851</ele>
        <time>2022-08-26T21:32:58Z</time>
      </trkpt>
      <trkpt lat="45.77575" lon="6.71535">
        <ele>1851</ele>
        <time>2022-08-26T21:32:59Z</time>
      </trkpt>
      <trkpt lat="45.77574" lon="6.71537">
        <ele>1851</ele>
        <time>2022-08-26T21:33:00Z</time>
      </trkpt>
      <trkpt lat="45.77574" lon="6.71539">
        <ele>1851</ele>
        <time>2022-08-26T21:33:01Z</time>
      </trkpt>
      <trkpt lat="45.77569" lon="6.71543">
        <ele>1852</ele>
        <time>2022-08-26T21:33:05Z</time>
      </trkpt>
      <trkpt lat="45.77567" lon="6.71548">
        <ele>1854</ele>
        <time>2022-08-26T21:33:10Z</time>
      </trkpt>
      <trkpt lat="45.77564" lon="6.71549">
        <ele>1854</ele>
        <time>2022-08-26T21:33:12Z</time>
      </trkpt>
      <trkpt lat="45.7756" lon="6.71552">
        <ele>1855</ele>
        <time>2022-08-26T21:33:17Z</time>
      </trkpt>
      <trkpt lat="45.77559" lon="6.71553">
        <ele>1855</ele>
        <time>2022-08-26T21:33:18Z</time>
      </trkpt>
      <trkpt lat="45.77558" lon="6.71554">
        <ele>1855</ele>
        <time>2022-08-26T21:33:19Z</time>
      </trkpt>
      <trkpt lat="45.77556" lon="6.71555">
        <ele>1855</ele>
        <time>2022-08-26T21:33:20Z</time>
      </trkpt>
      <trkpt lat="45.77555" lon="6.71556">
        <ele>1856</ele>
        <time>2022-08-26T21:33:22Z</time>
      </trkpt>
      <trkpt lat="45.77554" lon="6.71556">
        <ele>1856</ele>
        <time>2022-08-26T21:33:23Z</time>
      </trkpt>
      <trkpt lat="45.77553" lon="6.71557">
        <ele>1856</ele>
        <time>2022-08-26T21:33:24Z</time>
      </trkpt>
      <trkpt lat="45.77552" lon="6.71558">
        <ele>1856</ele>
        <time>2022-08-26T21:33:25Z</time>
      </trkpt>
      <trkpt lat="45.7755" lon="6.71559">
        <ele>1857</ele>
        <time>2022-08-26T21:33:27Z</time>
      </trkpt>
      <trkpt lat="45.77548" lon="6.71559">
        <ele>1857</ele>
        <time>2022-08-26T21:33:28Z</time>
      </trkpt>
      <trkpt lat="45.77546" lon="6.71559">
        <ele>1857</ele>
        <time>2022-08-26T21:33:31Z</time>
      </trkpt>
      <trkpt lat="45.77544" lon="6.71561">
        <ele>1857</ele>
        <time>2022-08-26T21:33:33Z</time>
      </trkpt>
      <trkpt lat="45.77542" lon="6.71561">
        <ele>1858</ele>
        <time>2022-08-26T21:33:34Z</time>
      </trkpt>
      <trkpt lat="45.77541" lon="6.71563">
        <ele>1859</ele>
        <time>2022-08-26T21:33:36Z</time>
      </trkpt>
      <trkpt lat="45.77539" lon="6.71565">
        <ele>1859</ele>
        <time>2022-08-26T21:33:39Z</time>
      </trkpt>
      <trkpt lat="45.77537" lon="6.71567">
        <ele>1860</ele>
        <time>2022-08-26T21:33:41Z</time>
      </trkpt>
      <trkpt lat="45.77536" lon="6.71568">
        <ele>1860</ele>
        <time>2022-08-26T21:33:44Z</time>
      </trkpt>
      <trkpt lat="45.77535" lon="6.7157">
        <ele>1861</ele>
        <time>2022-08-26T21:33:46Z</time>
      </trkpt>
      <trkpt lat="45.77526" lon="6.71577">
        <ele>1863</ele>
        <time>2022-08-26T21:33:58Z</time>
      </trkpt>
      <trkpt lat="45.77524" lon="6.71577">
        <ele>1864</ele>
        <time>2022-08-26T21:34:00Z</time>
      </trkpt>
      <trkpt lat="45.77516" lon="6.71579">
        <ele>1865</ele>
        <time>2022-08-26T21:34:08Z</time>
      </trkpt>
      <trkpt lat="45.77514" lon="6.71579">
        <ele>1866</ele>
        <time>2022-08-26T21:34:10Z</time>
      </trkpt>
      <trkpt lat="45.77513" lon="6.71579">
        <ele>1866</ele>
        <time>2022-08-26T21:34:11Z</time>
      </trkpt>
      <trkpt lat="45.77512" lon="6.71579">
        <ele>1867</ele>
        <time>2022-08-26T21:34:12Z</time>
      </trkpt>
      <trkpt lat="45.77511" lon="6.71578">
        <ele>1867</ele>
        <time>2022-08-26T21:34:13Z</time>
      </trkpt>
      <trkpt lat="45.7751" lon="6.71578">
        <ele>1867</ele>
        <time>2022-08-26T21:34:15Z</time>
      </trkpt>
      <trkpt lat="45.77508" lon="6.71578">
        <ele>1867</ele>
        <time>2022-08-26T21:34:16Z</time>
      </trkpt>
      <trkpt lat="45.77507" lon="6.71578">
        <ele>1868</ele>
        <time>2022-08-26T21:34:17Z</time>
      </trkpt>
      <trkpt lat="45.77506" lon="6.71578">
        <ele>1868</ele>
        <time>2022-08-26T21:34:18Z</time>
      </trkpt>
      <trkpt lat="45.77504" lon="6.71578">
        <ele>1869</ele>
        <time>2022-08-26T21:34:23Z</time>
      </trkpt>
      <trkpt lat="45.77502" lon="6.71577">
        <ele>1869</ele>
        <time>2022-08-26T21:34:25Z</time>
      </trkpt>
      <trkpt lat="45.775" lon="6.71576">
        <ele>1869</ele>
        <time>2022-08-26T21:34:27Z</time>
      </trkpt>
      <trkpt lat="45.77498" lon="6.71577">
        <ele>1869</ele>
        <time>2022-08-26T21:34:29Z</time>
      </trkpt>
      <trkpt lat="45.77497" lon="6.71577">
        <ele>1870</ele>
        <time>2022-08-26T21:34:30Z</time>
      </trkpt>
      <trkpt lat="45.77496" lon="6.71577">
        <ele>1870</ele>
        <time>2022-08-26T21:34:31Z</time>
      </trkpt>
      <trkpt lat="45.77495" lon="6.71578">
        <ele>1871</ele>
        <time>2022-08-26T21:34:33Z</time>
      </trkpt>
      <trkpt lat="45.77493" lon="6.71578">
        <ele>1871</ele>
        <time>2022-08-26T21:34:34Z</time>
      </trkpt>
      <trkpt lat="45.77492" lon="6.71578">
        <ele>1871</ele>
        <time>2022-08-26T21:34:35Z</time>
      </trkpt>
      <trkpt lat="45.77491" lon="6.71578">
        <ele>1871</ele>
        <time>2022-08-26T21:34:36Z</time>
      </trkpt>
      <trkpt lat="45.77489" lon="6.71576">
        <ele>1872</ele>
        <time>2022-08-26T21:34:39Z</time>
      </trkpt>
      <trkpt lat="45.77488" lon="6.71576">
        <ele>1872</ele>
        <time>2022-08-26T21:34:40Z</time>
      </trkpt>
      <trkpt lat="45.77487" lon="6.71577">
        <ele>1872</ele>
        <time>2022-08-26T21:34:41Z</time>
      </trkpt>
      <trkpt lat="45.77486" lon="6.71577">
        <ele>1872</ele>
        <time>2022-08-26T21:34:43Z</time>
      </trkpt>
      <trkpt lat="45.77485" lon="6.71577">
        <ele>1873</ele>
        <time>2022-08-26T21:34:44Z</time>
      </trkpt>
      <trkpt lat="45.77484" lon="6.71577">
        <ele>1873</ele>
        <time>2022-08-26T21:34:45Z</time>
      </trkpt>
      <trkpt lat="45.77482" lon="6.71577">
        <ele>1873</ele>
        <time>2022-08-26T21:34:47Z</time>
      </trkpt>
      <trkpt lat="45.77481" lon="6.71577">
        <ele>1873</ele>
        <time>2022-08-26T21:34:48Z</time>
      </trkpt>
      <trkpt lat="45.7748" lon="6.71578">
        <ele>1873</ele>
        <time>2022-08-26T21:34:49Z</time>
      </trkpt>
      <trkpt lat="45.77479" lon="6.71578">
        <ele>1874</ele>
        <time>2022-08-26T21:34:50Z</time>
      </trkpt>
      <trkpt lat="45.77475" lon="6.71578">
        <ele>1874</ele>
        <time>2022-08-26T21:34:53Z</time>
      </trkpt>
      <trkpt lat="45.77474" lon="6.71578">
        <ele>1875</ele>
        <time>2022-08-26T21:34:54Z</time>
      </trkpt>
      <trkpt lat="45.77473" lon="6.71578">
        <ele>1875</ele>
        <time>2022-08-26T21:34:55Z</time>
      </trkpt>
      <trkpt lat="45.77472" lon="6.71578">
        <ele>1875</ele>
        <time>2022-08-26T21:34:56Z</time>
      </trkpt>
      <trkpt lat="45.77471" lon="6.71578">
        <ele>1875</ele>
        <time>2022-08-26T21:34:58Z</time>
      </trkpt>
      <trkpt lat="45.7747" lon="6.71579">
        <ele>1875</ele>
        <time>2022-08-26T21:34:59Z</time>
      </trkpt>
      <trkpt lat="45.77469" lon="6.71579">
        <ele>1875</ele>
        <time>2022-08-26T21:35:00Z</time>
      </trkpt>
      <trkpt lat="45.77463" lon="6.71578">
        <ele>1875</ele>
        <time>2022-08-26T21:35:05Z</time>
      </trkpt>
      <trkpt lat="45.77462" lon="6.71578">
        <ele>1875</ele>
        <time>2022-08-26T21:35:07Z</time>
      </trkpt>
      <trkpt lat="45.7746" lon="6.71577">
        <ele>1875</ele>
        <time>2022-08-26T21:35:08Z</time>
      </trkpt>
      <trkpt lat="45.77459" lon="6.71577">
        <ele>1876</ele>
        <time>2022-08-26T21:35:09Z</time>
      </trkpt>
      <trkpt lat="45.77457" lon="6.71577">
        <ele>1876</ele>
        <time>2022-08-26T21:35:11Z</time>
      </trkpt>
      <trkpt lat="45.77456" lon="6.71577">
        <ele>1876</ele>
        <time>2022-08-26T21:35:12Z</time>
      </trkpt>
      <trkpt lat="45.77454" lon="6.71576">
        <ele>1876</ele>
        <time>2022-08-26T21:35:13Z</time>
      </trkpt>
      <trkpt lat="45.77453" lon="6.71577">
        <ele>1876</ele>
        <time>2022-08-26T21:35:14Z</time>
      </trkpt>
      <trkpt lat="45.77452" lon="6.71577">
        <ele>1876</ele>
        <time>2022-08-26T21:35:16Z</time>
      </trkpt>
      <trkpt lat="45.77451" lon="6.71577">
        <ele>1876</ele>
        <time>2022-08-26T21:35:17Z</time>
      </trkpt>
      <trkpt lat="45.77449" lon="6.71578">
        <ele>1877</ele>
        <time>2022-08-26T21:35:18Z</time>
      </trkpt>
      <trkpt lat="45.77448" lon="6.71578">
        <ele>1877</ele>
        <time>2022-08-26T21:35:19Z</time>
      </trkpt>
      <trkpt lat="45.77447" lon="6.71578">
        <ele>1877</ele>
        <time>2022-08-26T21:35:21Z</time>
      </trkpt>
      <trkpt lat="45.77446" lon="6.71579">
        <ele>1877</ele>
        <time>2022-08-26T21:35:22Z</time>
      </trkpt>
      <trkpt lat="45.77444" lon="6.71579">
        <ele>1877</ele>
        <time>2022-08-26T21:35:23Z</time>
      </trkpt>
      <trkpt lat="45.77443" lon="6.71579">
        <ele>1877</ele>
        <time>2022-08-26T21:35:24Z</time>
      </trkpt>
      <trkpt lat="45.77442" lon="6.7158">
        <ele>1878</ele>
        <time>2022-08-26T21:35:26Z</time>
      </trkpt>
      <trkpt lat="45.7744" lon="6.7158">
        <ele>1878</ele>
        <time>2022-08-26T21:35:28Z</time>
      </trkpt>
      <trkpt lat="45.77439" lon="6.7158">
        <ele>1878</ele>
        <time>2022-08-26T21:35:29Z</time>
      </trkpt>
      <trkpt lat="45.77437" lon="6.71581">
        <ele>1878</ele>
        <time>2022-08-26T21:35:30Z</time>
      </trkpt>
      <trkpt lat="45.77436" lon="6.71581">
        <ele>1879</ele>
        <time>2022-08-26T21:35:31Z</time>
      </trkpt>
      <trkpt lat="45.77434" lon="6.71582">
        <ele>1879</ele>
        <time>2022-08-26T21:35:33Z</time>
      </trkpt>
      <trkpt lat="45.77433" lon="6.71583">
        <ele>1879</ele>
        <time>2022-08-26T21:35:34Z</time>
      </trkpt>
      <trkpt lat="45.77431" lon="6.71584">
        <ele>1879</ele>
        <time>2022-08-26T21:35:35Z</time>
      </trkpt>
      <trkpt lat="45.7743" lon="6.71585">
        <ele>1879</ele>
        <time>2022-08-26T21:35:36Z</time>
      </trkpt>
      <trkpt lat="45.77429" lon="6.71586">
        <ele>1879</ele>
        <time>2022-08-26T21:35:38Z</time>
      </trkpt>
      <trkpt lat="45.77427" lon="6.71587">
        <ele>1880</ele>
        <time>2022-08-26T21:35:39Z</time>
      </trkpt>
      <trkpt lat="45.77426" lon="6.71588">
        <ele>1880</ele>
        <time>2022-08-26T21:35:40Z</time>
      </trkpt>
      <trkpt lat="45.77424" lon="6.71588">
        <ele>1880</ele>
        <time>2022-08-26T21:35:41Z</time>
      </trkpt>
      <trkpt lat="45.77423" lon="6.71589">
        <ele>1880</ele>
        <time>2022-08-26T21:35:43Z</time>
      </trkpt>
      <trkpt lat="45.77421" lon="6.7159">
        <ele>1881</ele>
        <time>2022-08-26T21:35:45Z</time>
      </trkpt>
      <trkpt lat="45.7742" lon="6.71591">
        <ele>1881</ele>
        <time>2022-08-26T21:35:46Z</time>
      </trkpt>
      <trkpt lat="45.77418" lon="6.71591">
        <ele>1881</ele>
        <time>2022-08-26T21:35:47Z</time>
      </trkpt>
      <trkpt lat="45.77417" lon="6.71591">
        <ele>1881</ele>
        <time>2022-08-26T21:35:49Z</time>
      </trkpt>
      <trkpt lat="45.77416" lon="6.71591">
        <ele>1881</ele>
        <time>2022-08-26T21:35:50Z</time>
      </trkpt>
      <trkpt lat="45.77414" lon="6.71592">
        <ele>1881</ele>
        <time>2022-08-26T21:35:51Z</time>
      </trkpt>
      <trkpt lat="45.77413" lon="6.71592">
        <ele>1881</ele>
        <time>2022-08-26T21:35:52Z</time>
      </trkpt>
      <trkpt lat="45.77412" lon="6.71592">
        <ele>1881</ele>
        <time>2022-08-26T21:35:53Z</time>
      </trkpt>
      <trkpt lat="45.7741" lon="6.71592">
        <ele>1881</ele>
        <time>2022-08-26T21:35:54Z</time>
      </trkpt>
      <trkpt lat="45.77408" lon="6.71592">
        <ele>1881</ele>
        <time>2022-08-26T21:35:55Z</time>
      </trkpt>
      <trkpt lat="45.77406" lon="6.71592">
        <ele>1881</ele>
        <time>2022-08-26T21:35:56Z</time>
      </trkpt>
      <trkpt lat="45.77404" lon="6.71592">
        <ele>1881</ele>
        <time>2022-08-26T21:35:57Z</time>
      </trkpt>
      <trkpt lat="45.77402" lon="6.71592">
        <ele>1882</ele>
        <time>2022-08-26T21:35:59Z</time>
      </trkpt>
      <trkpt lat="45.774" lon="6.71592">
        <ele>1882</ele>
        <time>2022-08-26T21:36:00Z</time>
      </trkpt>
      <trkpt lat="45.77397" lon="6.71593">
        <ele>1882</ele>
        <time>2022-08-26T21:36:01Z</time>
      </trkpt>
      <trkpt lat="45.77394" lon="6.71593">
        <ele>1882</ele>
        <time>2022-08-26T21:36:03Z</time>
      </trkpt>
      <trkpt lat="45.77392" lon="6.71593">
        <ele>1881</ele>
        <time>2022-08-26T21:36:06Z</time>
      </trkpt>
      <trkpt lat="45.77389" lon="6.71593">
        <ele>1881</ele>
        <time>2022-08-26T21:36:07Z</time>
      </trkpt>
      <trkpt lat="45.77387" lon="6.71593">
        <ele>1881</ele>
        <time>2022-08-26T21:36:08Z</time>
      </trkpt>
      <trkpt lat="45.77385" lon="6.71593">
        <ele>1882</ele>
        <time>2022-08-26T21:36:11Z</time>
      </trkpt>
      <trkpt lat="45.77382" lon="6.71593">
        <ele>1882</ele>
        <time>2022-08-26T21:36:12Z</time>
      </trkpt>
      <trkpt lat="45.7738" lon="6.71593">
        <ele>1882</ele>
        <time>2022-08-26T21:36:14Z</time>
      </trkpt>
      <trkpt lat="45.77377" lon="6.71593">
        <ele>1882</ele>
        <time>2022-08-26T21:36:16Z</time>
      </trkpt>
      <trkpt lat="45.77375" lon="6.71594">
        <ele>1883</ele>
        <time>2022-08-26T21:36:18Z</time>
      </trkpt>
      <trkpt lat="45.77373" lon="6.71594">
        <ele>1884</ele>
        <time>2022-08-26T21:36:20Z</time>
      </trkpt>
      <trkpt lat="45.7737" lon="6.71596">
        <ele>1884</ele>
        <time>2022-08-26T21:36:23Z</time>
      </trkpt>
      <trkpt lat="45.77368" lon="6.71597">
        <ele>1884</ele>
        <time>2022-08-26T21:36:24Z</time>
      </trkpt>
      <trkpt lat="45.77365" lon="6.71598">
        <ele>1885</ele>
        <time>2022-08-26T21:36:27Z</time>
      </trkpt>
      <trkpt lat="45.77363" lon="6.71598">
        <ele>1885</ele>
        <time>2022-08-26T21:36:28Z</time>
      </trkpt>
      <trkpt lat="45.77361" lon="6.71598">
        <ele>1885</ele>
        <time>2022-08-26T21:36:30Z</time>
      </trkpt>
      <trkpt lat="45.77358" lon="6.71598">
        <ele>1885</ele>
        <time>2022-08-26T21:36:32Z</time>
      </trkpt>
      <trkpt lat="45.77357" lon="6.71598">
        <ele>1885</ele>
        <time>2022-08-26T21:36:35Z</time>
      </trkpt>
      <trkpt lat="45.77355" lon="6.71597">
        <ele>1885</ele>
        <time>2022-08-26T21:36:36Z</time>
      </trkpt>
      <trkpt lat="45.77354" lon="6.71597">
        <ele>1886</ele>
        <time>2022-08-26T21:36:37Z</time>
      </trkpt>
      <trkpt lat="45.77352" lon="6.71596">
        <ele>1886</ele>
        <time>2022-08-26T21:36:38Z</time>
      </trkpt>
      <trkpt lat="45.77349" lon="6.71596">
        <ele>1886</ele>
        <time>2022-08-26T21:36:40Z</time>
      </trkpt>
      <trkpt lat="45.77346" lon="6.71595">
        <ele>1886</ele>
        <time>2022-08-26T21:36:42Z</time>
      </trkpt>
      <trkpt lat="45.77343" lon="6.71594">
        <ele>1887</ele>
        <time>2022-08-26T21:36:44Z</time>
      </trkpt>
      <trkpt lat="45.77341" lon="6.71593">
        <ele>1887</ele>
        <time>2022-08-26T21:36:46Z</time>
      </trkpt>
      <trkpt lat="45.77338" lon="6.71592">
        <ele>1887</ele>
        <time>2022-08-26T21:36:48Z</time>
      </trkpt>
      <trkpt lat="45.77335" lon="6.71591">
        <ele>1887</ele>
        <time>2022-08-26T21:36:50Z</time>
      </trkpt>
      <trkpt lat="45.77333" lon="6.7159">
        <ele>1888</ele>
        <time>2022-08-26T21:36:51Z</time>
      </trkpt>
      <trkpt lat="45.77332" lon="6.71589">
        <ele>1888</ele>
        <time>2022-08-26T21:36:52Z</time>
      </trkpt>
      <trkpt lat="45.7733" lon="6.71588">
        <ele>1888</ele>
        <time>2022-08-26T21:36:53Z</time>
      </trkpt>
      <trkpt lat="45.77327" lon="6.71587">
        <ele>1888</ele>
        <time>2022-08-26T21:36:56Z</time>
      </trkpt>
      <trkpt lat="45.77324" lon="6.71586">
        <ele>1888</ele>
        <time>2022-08-26T21:36:57Z</time>
      </trkpt>
      <trkpt lat="45.77322" lon="6.71586">
        <ele>1888</ele>
        <time>2022-08-26T21:36:59Z</time>
      </trkpt>
      <trkpt lat="45.7732" lon="6.71585">
        <ele>1888</ele>
        <time>2022-08-26T21:37:00Z</time>
      </trkpt>
      <trkpt lat="45.77319" lon="6.71584">
        <ele>1888</ele>
        <time>2022-08-26T21:37:01Z</time>
      </trkpt>
      <trkpt lat="45.77316" lon="6.71583">
        <ele>1888</ele>
        <time>2022-08-26T21:37:03Z</time>
      </trkpt>
      <trkpt lat="45.77313" lon="6.71582">
        <ele>1889</ele>
        <time>2022-08-26T21:37:06Z</time>
      </trkpt>
      <trkpt lat="45.7731" lon="6.71581">
        <ele>1889</ele>
        <time>2022-08-26T21:37:08Z</time>
      </trkpt>
      <trkpt lat="45.77307" lon="6.71581">
        <ele>1889</ele>
        <time>2022-08-26T21:37:10Z</time>
      </trkpt>
      <trkpt lat="45.77303" lon="6.71579">
        <ele>1889</ele>
        <time>2022-08-26T21:37:12Z</time>
      </trkpt>
      <trkpt lat="45.77302" lon="6.71579">
        <ele>1889</ele>
        <time>2022-08-26T21:37:13Z</time>
      </trkpt>
      <trkpt lat="45.77299" lon="6.71578">
        <ele>1890</ele>
        <time>2022-08-26T21:37:16Z</time>
      </trkpt>
      <trkpt lat="45.77296" lon="6.71577">
        <ele>1890</ele>
        <time>2022-08-26T21:37:17Z</time>
      </trkpt>
      <trkpt lat="45.77293" lon="6.71576">
        <ele>1890</ele>
        <time>2022-08-26T21:37:19Z</time>
      </trkpt>
      <trkpt lat="45.77291" lon="6.71575">
        <ele>1890</ele>
        <time>2022-08-26T21:37:21Z</time>
      </trkpt>
      <trkpt lat="45.77287" lon="6.71574">
        <ele>1891</ele>
        <time>2022-08-26T21:37:22Z</time>
      </trkpt>
      <trkpt lat="45.77285" lon="6.71574">
        <ele>1890</ele>
        <time>2022-08-26T21:37:24Z</time>
      </trkpt>
      <trkpt lat="45.77283" lon="6.71573">
        <ele>1890</ele>
        <time>2022-08-26T21:37:25Z</time>
      </trkpt>
      <trkpt lat="45.77279" lon="6.71572">
        <ele>1891</ele>
        <time>2022-08-26T21:37:26Z</time>
      </trkpt>
      <trkpt lat="45.77277" lon="6.71572">
        <ele>1891</ele>
        <time>2022-08-26T21:37:27Z</time>
      </trkpt>
      <trkpt lat="45.77274" lon="6.71571">
        <ele>1891</ele>
        <time>2022-08-26T21:37:28Z</time>
      </trkpt>
      <trkpt lat="45.77272" lon="6.71571">
        <ele>1891</ele>
        <time>2022-08-26T21:37:29Z</time>
      </trkpt>
      <trkpt lat="45.7727" lon="6.71571">
        <ele>1891</ele>
        <time>2022-08-26T21:37:31Z</time>
      </trkpt>
      <trkpt lat="45.77268" lon="6.71571">
        <ele>1891</ele>
        <time>2022-08-26T21:37:32Z</time>
      </trkpt>
      <trkpt lat="45.77266" lon="6.71571">
        <ele>1891</ele>
        <time>2022-08-26T21:37:33Z</time>
      </trkpt>
      <trkpt lat="45.77264" lon="6.71571">
        <ele>1891</ele>
        <time>2022-08-26T21:37:34Z</time>
      </trkpt>
      <trkpt lat="45.77262" lon="6.71572">
        <ele>1890</ele>
        <time>2022-08-26T21:37:35Z</time>
      </trkpt>
      <trkpt lat="45.77258" lon="6.71572">
        <ele>1890</ele>
        <time>2022-08-26T21:37:36Z</time>
      </trkpt>
      <trkpt lat="45.77254" lon="6.71573">
        <ele>1890</ele>
        <time>2022-08-26T21:37:38Z</time>
      </trkpt>
      <trkpt lat="45.77251" lon="6.71573">
        <ele>1890</ele>
        <time>2022-08-26T21:37:39Z</time>
      </trkpt>
      <trkpt lat="45.77249" lon="6.71574">
        <ele>1890</ele>
        <time>2022-08-26T21:37:41Z</time>
      </trkpt>
      <trkpt lat="45.77244" lon="6.71574">
        <ele>1890</ele>
        <time>2022-08-26T21:37:42Z</time>
      </trkpt>
      <trkpt lat="45.77243" lon="6.71575">
        <ele>1890</ele>
        <time>2022-08-26T21:37:43Z</time>
      </trkpt>
      <trkpt lat="45.77241" lon="6.71575">
        <ele>1890</ele>
        <time>2022-08-26T21:37:44Z</time>
      </trkpt>
      <trkpt lat="45.77239" lon="6.71575">
        <ele>1890</ele>
        <time>2022-08-26T21:37:45Z</time>
      </trkpt>
      <trkpt lat="45.77236" lon="6.71576">
        <ele>1890</ele>
        <time>2022-08-26T21:37:47Z</time>
      </trkpt>
      <trkpt lat="45.77235" lon="6.71576">
        <ele>1891</ele>
        <time>2022-08-26T21:37:48Z</time>
      </trkpt>
      <trkpt lat="45.77231" lon="6.71576">
        <ele>1891</ele>
        <time>2022-08-26T21:37:49Z</time>
      </trkpt>
      <trkpt lat="45.77229" lon="6.71577">
        <ele>1891</ele>
        <time>2022-08-26T21:37:51Z</time>
      </trkpt>
      <trkpt lat="45.77225" lon="6.71577">
        <ele>1891</ele>
        <time>2022-08-26T21:37:52Z</time>
      </trkpt>
      <trkpt lat="45.77222" lon="6.71578">
        <ele>1891</ele>
        <time>2022-08-26T21:37:53Z</time>
      </trkpt>
      <trkpt lat="45.7722" lon="6.71578">
        <ele>1891</ele>
        <time>2022-08-26T21:37:54Z</time>
      </trkpt>
      <trkpt lat="45.77219" lon="6.71578">
        <ele>1891</ele>
        <time>2022-08-26T21:37:55Z</time>
      </trkpt>
      <trkpt lat="45.77216" lon="6.71579">
        <ele>1891</ele>
        <time>2022-08-26T21:37:56Z</time>
      </trkpt>
      <trkpt lat="45.77214" lon="6.71579">
        <ele>1891</ele>
        <time>2022-08-26T21:37:58Z</time>
      </trkpt>
      <trkpt lat="45.77211" lon="6.7158">
        <ele>1891</ele>
        <time>2022-08-26T21:37:59Z</time>
      </trkpt>
      <trkpt lat="45.77209" lon="6.71581">
        <ele>1891</ele>
        <time>2022-08-26T21:38:00Z</time>
      </trkpt>
      <trkpt lat="45.77207" lon="6.71581">
        <ele>1891</ele>
        <time>2022-08-26T21:38:02Z</time>
      </trkpt>
      <trkpt lat="45.77203" lon="6.71581">
        <ele>1891</ele>
        <time>2022-08-26T21:38:03Z</time>
      </trkpt>
      <trkpt lat="45.772" lon="6.71581">
        <ele>1891</ele>
        <time>2022-08-26T21:38:06Z</time>
      </trkpt>
      <trkpt lat="45.77197" lon="6.7158">
        <ele>1891</ele>
        <time>2022-08-26T21:38:08Z</time>
      </trkpt>
      <trkpt lat="45.77194" lon="6.7158">
        <ele>1891</ele>
        <time>2022-08-26T21:38:10Z</time>
      </trkpt>
      <trkpt lat="45.7719" lon="6.71579">
        <ele>1891</ele>
        <time>2022-08-26T21:38:12Z</time>
      </trkpt>
      <trkpt lat="45.77189" lon="6.71579">
        <ele>1891</ele>
        <time>2022-08-26T21:38:13Z</time>
      </trkpt>
      <trkpt lat="45.77186" lon="6.71578">
        <ele>1891</ele>
        <time>2022-08-26T21:38:15Z</time>
      </trkpt>
      <trkpt lat="45.77183" lon="6.71578">
        <ele>1891</ele>
        <time>2022-08-26T21:38:17Z</time>
      </trkpt>
      <trkpt lat="45.7718" lon="6.71577">
        <ele>1892</ele>
        <time>2022-08-26T21:38:19Z</time>
      </trkpt>
      <trkpt lat="45.77177" lon="6.71576">
        <ele>1892</ele>
        <time>2022-08-26T21:38:21Z</time>
      </trkpt>
      <trkpt lat="45.77175" lon="6.71575">
        <ele>1892</ele>
        <time>2022-08-26T21:38:23Z</time>
      </trkpt>
      <trkpt lat="45.77172" lon="6.71575">
        <ele>1892</ele>
        <time>2022-08-26T21:38:25Z</time>
      </trkpt>
      <trkpt lat="45.77169" lon="6.71574">
        <ele>1893</ele>
        <time>2022-08-26T21:38:28Z</time>
      </trkpt>
      <trkpt lat="45.77167" lon="6.71573">
        <ele>1893</ele>
        <time>2022-08-26T21:38:30Z</time>
      </trkpt>
      <trkpt lat="45.77164" lon="6.71571">
        <ele>1893</ele>
        <time>2022-08-26T21:38:32Z</time>
      </trkpt>
      <trkpt lat="45.77161" lon="6.7157">
        <ele>1893</ele>
        <time>2022-08-26T21:38:33Z</time>
      </trkpt>
      <trkpt lat="45.77158" lon="6.71567">
        <ele>1893</ele>
        <time>2022-08-26T21:38:36Z</time>
      </trkpt>
      <trkpt lat="45.77157" lon="6.71566">
        <ele>1893</ele>
        <time>2022-08-26T21:38:37Z</time>
      </trkpt>
      <trkpt lat="45.77155" lon="6.71565">
        <ele>1893</ele>
        <time>2022-08-26T21:38:38Z</time>
      </trkpt>
      <trkpt lat="45.77154" lon="6.71564">
        <ele>1894</ele>
        <time>2022-08-26T21:38:39Z</time>
      </trkpt>
      <trkpt lat="45.77153" lon="6.71563">
        <ele>1894</ele>
        <time>2022-08-26T21:38:40Z</time>
      </trkpt>
      <trkpt lat="45.77152" lon="6.71561">
        <ele>1894</ele>
        <time>2022-08-26T21:38:41Z</time>
      </trkpt>
      <trkpt lat="45.7715" lon="6.71558">
        <ele>1894</ele>
        <time>2022-08-26T21:38:43Z</time>
      </trkpt>
      <trkpt lat="45.77148" lon="6.71556">
        <ele>1895</ele>
        <time>2022-08-26T21:38:46Z</time>
      </trkpt>
      <trkpt lat="45.77146" lon="6.71553">
        <ele>1895</ele>
        <time>2022-08-26T21:38:48Z</time>
      </trkpt>
      <trkpt lat="45.77145" lon="6.7155">
        <ele>1895</ele>
        <time>2022-08-26T21:38:49Z</time>
      </trkpt>
      <trkpt lat="45.77143" lon="6.71548">
        <ele>1895</ele>
        <time>2022-08-26T21:38:51Z</time>
      </trkpt>
      <trkpt lat="45.77142" lon="6.71547">
        <ele>1895</ele>
        <time>2022-08-26T21:38:52Z</time>
      </trkpt>
      <trkpt lat="45.7714" lon="6.71546">
        <ele>1896</ele>
        <time>2022-08-26T21:38:53Z</time>
      </trkpt>
      <trkpt lat="45.77136" lon="6.71544">
        <ele>1896</ele>
        <time>2022-08-26T21:38:55Z</time>
      </trkpt>
      <trkpt lat="45.77134" lon="6.71544">
        <ele>1896</ele>
        <time>2022-08-26T21:38:56Z</time>
      </trkpt>
      <trkpt lat="45.77132" lon="6.71544">
        <ele>1896</ele>
        <time>2022-08-26T21:38:57Z</time>
      </trkpt>
      <trkpt lat="45.77129" lon="6.71544">
        <ele>1896</ele>
        <time>2022-08-26T21:38:58Z</time>
      </trkpt>
      <trkpt lat="45.77128" lon="6.71544">
        <ele>1896</ele>
        <time>2022-08-26T21:38:59Z</time>
      </trkpt>
      <trkpt lat="45.77125" lon="6.71543">
        <ele>1896</ele>
        <time>2022-08-26T21:39:00Z</time>
      </trkpt>
      <trkpt lat="45.77124" lon="6.71543">
        <ele>1896</ele>
        <time>2022-08-26T21:39:02Z</time>
      </trkpt>
      <trkpt lat="45.7712" lon="6.71543">
        <ele>1896</ele>
        <time>2022-08-26T21:39:03Z</time>
      </trkpt>
      <trkpt lat="45.77119" lon="6.71543">
        <ele>1897</ele>
        <time>2022-08-26T21:39:04Z</time>
      </trkpt>
      <trkpt lat="45.77118" lon="6.71543">
        <ele>1897</ele>
        <time>2022-08-26T21:39:05Z</time>
      </trkpt>
      <trkpt lat="45.77113" lon="6.71542">
        <ele>1897</ele>
        <time>2022-08-26T21:39:06Z</time>
      </trkpt>
      <trkpt lat="45.77111" lon="6.71542">
        <ele>1897</ele>
        <time>2022-08-26T21:39:07Z</time>
      </trkpt>
      <trkpt lat="45.77109" lon="6.71542">
        <ele>1897</ele>
        <time>2022-08-26T21:39:08Z</time>
      </trkpt>
      <trkpt lat="45.77107" lon="6.71541">
        <ele>1897</ele>
        <time>2022-08-26T21:39:09Z</time>
      </trkpt>
      <trkpt lat="45.77105" lon="6.71541">
        <ele>1897</ele>
        <time>2022-08-26T21:39:10Z</time>
      </trkpt>
      <trkpt lat="45.771" lon="6.7154">
        <ele>1897</ele>
        <time>2022-08-26T21:39:12Z</time>
      </trkpt>
      <trkpt lat="45.77098" lon="6.7154">
        <ele>1897</ele>
        <time>2022-08-26T21:39:13Z</time>
      </trkpt>
      <trkpt lat="45.77093" lon="6.71539">
        <ele>1897</ele>
        <time>2022-08-26T21:39:15Z</time>
      </trkpt>
      <trkpt lat="45.77091" lon="6.71539">
        <ele>1896</ele>
        <time>2022-08-26T21:39:16Z</time>
      </trkpt>
      <trkpt lat="45.77089" lon="6.71538">
        <ele>1896</ele>
        <time>2022-08-26T21:39:17Z</time>
      </trkpt>
      <trkpt lat="45.77084" lon="6.71536">
        <ele>1896</ele>
        <time>2022-08-26T21:39:19Z</time>
      </trkpt>
      <trkpt lat="45.77082" lon="6.71535">
        <ele>1896</ele>
        <time>2022-08-26T21:39:20Z</time>
      </trkpt>
      <trkpt lat="45.7708" lon="6.71534">
        <ele>1896</ele>
        <time>2022-08-26T21:39:21Z</time>
      </trkpt>
      <trkpt lat="45.77076" lon="6.71531">
        <ele>1895</ele>
        <time>2022-08-26T21:39:23Z</time>
      </trkpt>
      <trkpt lat="45.77074" lon="6.71531">
        <ele>1895</ele>
        <time>2022-08-26T21:39:25Z</time>
      </trkpt>
      <trkpt lat="45.7707" lon="6.71528">
        <ele>1895</ele>
        <time>2022-08-26T21:39:26Z</time>
      </trkpt>
      <trkpt lat="45.77068" lon="6.71527">
        <ele>1895</ele>
        <time>2022-08-26T21:39:27Z</time>
      </trkpt>
      <trkpt lat="45.77066" lon="6.71527">
        <ele>1896</ele>
        <time>2022-08-26T21:39:28Z</time>
      </trkpt>
      <trkpt lat="45.77064" lon="6.71525">
        <ele>1896</ele>
        <time>2022-08-26T21:39:29Z</time>
      </trkpt>
      <trkpt lat="45.77062" lon="6.71524">
        <ele>1896</ele>
        <time>2022-08-26T21:39:30Z</time>
      </trkpt>
      <trkpt lat="45.77057" lon="6.71522">
        <ele>1895</ele>
        <time>2022-08-26T21:39:32Z</time>
      </trkpt>
      <trkpt lat="45.77053" lon="6.71519">
        <ele>1895</ele>
        <time>2022-08-26T21:39:34Z</time>
      </trkpt>
      <trkpt lat="45.77051" lon="6.71518">
        <ele>1895</ele>
        <time>2022-08-26T21:39:35Z</time>
      </trkpt>
      <trkpt lat="45.77049" lon="6.71516">
        <ele>1895</ele>
        <time>2022-08-26T21:39:36Z</time>
      </trkpt>
      <trkpt lat="45.77047" lon="6.71515">
        <ele>1895</ele>
        <time>2022-08-26T21:39:38Z</time>
      </trkpt>
      <trkpt lat="45.77045" lon="6.71515">
        <ele>1895</ele>
        <time>2022-08-26T21:39:39Z</time>
      </trkpt>
      <trkpt lat="45.77041" lon="6.71512">
        <ele>1895</ele>
        <time>2022-08-26T21:39:40Z</time>
      </trkpt>
      <trkpt lat="45.77037" lon="6.7151">
        <ele>1895</ele>
        <time>2022-08-26T21:39:42Z</time>
      </trkpt>
      <trkpt lat="45.77035" lon="6.71508">
        <ele>1895</ele>
        <time>2022-08-26T21:39:43Z</time>
      </trkpt>
      <trkpt lat="45.77033" lon="6.71507">
        <ele>1894</ele>
        <time>2022-08-26T21:39:45Z</time>
      </trkpt>
      <trkpt lat="45.7703" lon="6.71505">
        <ele>1894</ele>
        <time>2022-08-26T21:39:46Z</time>
      </trkpt>
      <trkpt lat="45.77029" lon="6.71504">
        <ele>1894</ele>
        <time>2022-08-26T21:39:47Z</time>
      </trkpt>
      <trkpt lat="45.77027" lon="6.71502">
        <ele>1894</ele>
        <time>2022-08-26T21:39:48Z</time>
      </trkpt>
      <trkpt lat="45.77025" lon="6.715">
        <ele>1894</ele>
        <time>2022-08-26T21:39:49Z</time>
      </trkpt>
      <trkpt lat="45.77023" lon="6.71499">
        <ele>1894</ele>
        <time>2022-08-26T21:39:50Z</time>
      </trkpt>
      <trkpt lat="45.7702" lon="6.71496">
        <ele>1894</ele>
        <time>2022-08-26T21:39:51Z</time>
      </trkpt>
      <trkpt lat="45.77019" lon="6.71495">
        <ele>1894</ele>
        <time>2022-08-26T21:39:52Z</time>
      </trkpt>
      <trkpt lat="45.77017" lon="6.71494">
        <ele>1894</ele>
        <time>2022-08-26T21:39:53Z</time>
      </trkpt>
      <trkpt lat="45.77015" lon="6.71492">
        <ele>1894</ele>
        <time>2022-08-26T21:39:54Z</time>
      </trkpt>
      <trkpt lat="45.77011" lon="6.71489">
        <ele>1894</ele>
        <time>2022-08-26T21:39:55Z</time>
      </trkpt>
      <trkpt lat="45.77008" lon="6.71487">
        <ele>1894</ele>
        <time>2022-08-26T21:39:56Z</time>
      </trkpt>
      <trkpt lat="45.77007" lon="6.71486">
        <ele>1894</ele>
        <time>2022-08-26T21:39:57Z</time>
      </trkpt>
      <trkpt lat="45.77003" lon="6.71484">
        <ele>1894</ele>
        <time>2022-08-26T21:39:59Z</time>
      </trkpt>
      <trkpt lat="45.77001" lon="6.71483">
        <ele>1894</ele>
        <time>2022-08-26T21:40:00Z</time>
      </trkpt>
      <trkpt lat="45.76999" lon="6.71482">
        <ele>1894</ele>
        <time>2022-08-26T21:40:02Z</time>
      </trkpt>
      <trkpt lat="45.76997" lon="6.71482">
        <ele>1894</ele>
        <time>2022-08-26T21:40:03Z</time>
      </trkpt>
      <trkpt lat="45.76993" lon="6.71481">
        <ele>1894</ele>
        <time>2022-08-26T21:40:04Z</time>
      </trkpt>
      <trkpt lat="45.76992" lon="6.7148">
        <ele>1894</ele>
        <time>2022-08-26T21:40:05Z</time>
      </trkpt>
      <trkpt lat="45.76988" lon="6.7148">
        <ele>1894</ele>
        <time>2022-08-26T21:40:07Z</time>
      </trkpt>
      <trkpt lat="45.76986" lon="6.7148">
        <ele>1894</ele>
        <time>2022-08-26T21:40:08Z</time>
      </trkpt>
      <trkpt lat="45.76984" lon="6.7148">
        <ele>1894</ele>
        <time>2022-08-26T21:40:09Z</time>
      </trkpt>
      <trkpt lat="45.7698" lon="6.7148">
        <ele>1894</ele>
        <time>2022-08-26T21:40:11Z</time>
      </trkpt>
      <trkpt lat="45.76977" lon="6.7148">
        <ele>1894</ele>
        <time>2022-08-26T21:40:14Z</time>
      </trkpt>
      <trkpt lat="45.76975" lon="6.7148">
        <ele>1894</ele>
        <time>2022-08-26T21:40:16Z</time>
      </trkpt>
      <trkpt lat="45.76971" lon="6.71479">
        <ele>1894</ele>
        <time>2022-08-26T21:40:17Z</time>
      </trkpt>
      <trkpt lat="45.76969" lon="6.71479">
        <ele>1895</ele>
        <time>2022-08-26T21:40:19Z</time>
      </trkpt>
      <trkpt lat="45.76968" lon="6.71478">
        <ele>1895</ele>
        <time>2022-08-26T21:40:20Z</time>
      </trkpt>
      <trkpt lat="45.76966" lon="6.71478">
        <ele>1895</ele>
        <time>2022-08-26T21:40:21Z</time>
      </trkpt>
      <trkpt lat="45.76964" lon="6.71477">
        <ele>1895</ele>
        <time>2022-08-26T21:40:24Z</time>
      </trkpt>
      <trkpt lat="45.76961" lon="6.71476">
        <ele>1895</ele>
        <time>2022-08-26T21:40:25Z</time>
      </trkpt>
      <trkpt lat="45.76958" lon="6.71476">
        <ele>1895</ele>
        <time>2022-08-26T21:40:28Z</time>
      </trkpt>
      <trkpt lat="45.76955" lon="6.71475">
        <ele>1895</ele>
        <time>2022-08-26T21:40:29Z</time>
      </trkpt>
      <trkpt lat="45.76952" lon="6.71473">
        <ele>1895</ele>
        <time>2022-08-26T21:40:32Z</time>
      </trkpt>
      <trkpt lat="45.76949" lon="6.71473">
        <ele>1895</ele>
        <time>2022-08-26T21:40:33Z</time>
      </trkpt>
      <trkpt lat="45.76946" lon="6.71472">
        <ele>1895</ele>
        <time>2022-08-26T21:40:36Z</time>
      </trkpt>
      <trkpt lat="45.76943" lon="6.71472">
        <ele>1895</ele>
        <time>2022-08-26T21:40:37Z</time>
      </trkpt>
      <trkpt lat="45.7694" lon="6.71471">
        <ele>1895</ele>
        <time>2022-08-26T21:40:39Z</time>
      </trkpt>
      <trkpt lat="45.76938" lon="6.7147">
        <ele>1895</ele>
        <time>2022-08-26T21:40:41Z</time>
      </trkpt>
      <trkpt lat="45.76935" lon="6.71469">
        <ele>1895</ele>
        <time>2022-08-26T21:40:43Z</time>
      </trkpt>
      <trkpt lat="45.76932" lon="6.71468">
        <ele>1896</ele>
        <time>2022-08-26T21:40:45Z</time>
      </trkpt>
      <trkpt lat="45.76929" lon="6.71468">
        <ele>1896</ele>
        <time>2022-08-26T21:40:47Z</time>
      </trkpt>
      <trkpt lat="45.76925" lon="6.71467">
        <ele>1896</ele>
        <time>2022-08-26T21:40:49Z</time>
      </trkpt>
      <trkpt lat="45.76924" lon="6.71466">
        <ele>1896</ele>
        <time>2022-08-26T21:40:51Z</time>
      </trkpt>
      <trkpt lat="45.76923" lon="6.71466">
        <ele>1896</ele>
        <time>2022-08-26T21:40:52Z</time>
      </trkpt>
      <trkpt lat="45.76921" lon="6.71466">
        <ele>1896</ele>
        <time>2022-08-26T21:40:53Z</time>
      </trkpt>
      <trkpt lat="45.76919" lon="6.71465">
        <ele>1896</ele>
        <time>2022-08-26T21:40:55Z</time>
      </trkpt>
      <trkpt lat="45.76916" lon="6.71464">
        <ele>1897</ele>
        <time>2022-08-26T21:40:58Z</time>
      </trkpt>
      <trkpt lat="45.76913" lon="6.71462">
        <ele>1897</ele>
        <time>2022-08-26T21:41:00Z</time>
      </trkpt>
      <trkpt lat="45.7691" lon="6.71461">
        <ele>1897</ele>
        <time>2022-08-26T21:41:02Z</time>
      </trkpt>
      <trkpt lat="45.76909" lon="6.71461">
        <ele>1897</ele>
        <time>2022-08-26T21:41:03Z</time>
      </trkpt>
      <trkpt lat="45.76907" lon="6.7146">
        <ele>1897</ele>
        <time>2022-08-26T21:41:04Z</time>
      </trkpt>
      <trkpt lat="45.76905" lon="6.7146">
        <ele>1898</ele>
        <time>2022-08-26T21:41:05Z</time>
      </trkpt>
      <trkpt lat="45.76903" lon="6.71459">
        <ele>1898</ele>
        <time>2022-08-26T21:41:08Z</time>
      </trkpt>
      <trkpt lat="45.769" lon="6.71457">
        <ele>1899</ele>
        <time>2022-08-26T21:41:10Z</time>
      </trkpt>
      <trkpt lat="45.76897" lon="6.71456">
        <ele>1899</ele>
        <time>2022-08-26T21:41:11Z</time>
      </trkpt>
      <trkpt lat="45.76895" lon="6.71456">
        <ele>1899</ele>
        <time>2022-08-26T21:41:13Z</time>
      </trkpt>
      <trkpt lat="45.76892" lon="6.71455">
        <ele>1899</ele>
        <time>2022-08-26T21:41:15Z</time>
      </trkpt>
      <trkpt lat="45.76889" lon="6.71454">
        <ele>1899</ele>
        <time>2022-08-26T21:41:17Z</time>
      </trkpt>
      <trkpt lat="45.76886" lon="6.71453">
        <ele>1899</ele>
        <time>2022-08-26T21:41:19Z</time>
      </trkpt>
      <trkpt lat="45.76883" lon="6.71451">
        <ele>1899</ele>
        <time>2022-08-26T21:41:22Z</time>
      </trkpt>
      <trkpt lat="45.76881" lon="6.7145">
        <ele>1899</ele>
        <time>2022-08-26T21:41:24Z</time>
      </trkpt>
      <trkpt lat="45.76878" lon="6.71449">
        <ele>1899</ele>
        <time>2022-08-26T21:41:26Z</time>
      </trkpt>
      <trkpt lat="45.76875" lon="6.71448">
        <ele>1899</ele>
        <time>2022-08-26T21:41:28Z</time>
      </trkpt>
      <trkpt lat="45.76873" lon="6.71447">
        <ele>1899</ele>
        <time>2022-08-26T21:41:30Z</time>
      </trkpt>
      <trkpt lat="45.7687" lon="6.71446">
        <ele>1899</ele>
        <time>2022-08-26T21:41:31Z</time>
      </trkpt>
      <trkpt lat="45.76867" lon="6.71444">
        <ele>1899</ele>
        <time>2022-08-26T21:41:33Z</time>
      </trkpt>
      <trkpt lat="45.76865" lon="6.71443">
        <ele>1899</ele>
        <time>2022-08-26T21:41:36Z</time>
      </trkpt>
      <trkpt lat="45.76862" lon="6.71442">
        <ele>1900</ele>
        <time>2022-08-26T21:41:38Z</time>
      </trkpt>
      <trkpt lat="45.76859" lon="6.71441">
        <ele>1900</ele>
        <time>2022-08-26T21:41:39Z</time>
      </trkpt>
      <trkpt lat="45.76856" lon="6.7144">
        <ele>1900</ele>
        <time>2022-08-26T21:41:42Z</time>
      </trkpt>
      <trkpt lat="45.76854" lon="6.71438">
        <ele>1901</ele>
        <time>2022-08-26T21:41:43Z</time>
      </trkpt>
      <trkpt lat="45.76851" lon="6.71436">
        <ele>1901</ele>
        <time>2022-08-26T21:41:46Z</time>
      </trkpt>
      <trkpt lat="45.76848" lon="6.71435">
        <ele>1901</ele>
        <time>2022-08-26T21:41:48Z</time>
      </trkpt>
      <trkpt lat="45.76845" lon="6.71433">
        <ele>1901</ele>
        <time>2022-08-26T21:41:50Z</time>
      </trkpt>
      <trkpt lat="45.76843" lon="6.71431">
        <ele>1901</ele>
        <time>2022-08-26T21:41:52Z</time>
      </trkpt>
      <trkpt lat="45.76841" lon="6.7143">
        <ele>1901</ele>
        <time>2022-08-26T21:41:53Z</time>
      </trkpt>
      <trkpt lat="45.76839" lon="6.71429">
        <ele>1901</ele>
        <time>2022-08-26T21:41:54Z</time>
      </trkpt>
      <trkpt lat="45.76838" lon="6.71428">
        <ele>1901</ele>
        <time>2022-08-26T21:41:55Z</time>
      </trkpt>
      <trkpt lat="45.76835" lon="6.71426">
        <ele>1901</ele>
        <time>2022-08-26T21:41:58Z</time>
      </trkpt>
      <trkpt lat="45.76832" lon="6.71425">
        <ele>1901</ele>
        <time>2022-08-26T21:41:59Z</time>
      </trkpt>
      <trkpt lat="45.7683" lon="6.71423">
        <ele>1901</ele>
        <time>2022-08-26T21:42:02Z</time>
      </trkpt>
      <trkpt lat="45.76826" lon="6.71421">
        <ele>1901</ele>
        <time>2022-08-26T21:42:04Z</time>
      </trkpt>
      <trkpt lat="45.76824" lon="6.7142">
        <ele>1901</ele>
        <time>2022-08-26T21:42:05Z</time>
      </trkpt>
      <trkpt lat="45.76823" lon="6.71419">
        <ele>1901</ele>
        <time>2022-08-26T21:42:06Z</time>
      </trkpt>
      <trkpt lat="45.76821" lon="6.71419">
        <ele>1901</ele>
        <time>2022-08-26T21:42:07Z</time>
      </trkpt>
      <trkpt lat="45.7682" lon="6.71418">
        <ele>1901</ele>
        <time>2022-08-26T21:42:08Z</time>
      </trkpt>
      <trkpt lat="45.76819" lon="6.71418">
        <ele>1901</ele>
        <time>2022-08-26T21:42:09Z</time>
      </trkpt>
      <trkpt lat="45.76816" lon="6.71417">
        <ele>1901</ele>
        <time>2022-08-26T21:42:11Z</time>
      </trkpt>
      <trkpt lat="45.76813" lon="6.71416">
        <ele>1901</ele>
        <time>2022-08-26T21:42:14Z</time>
      </trkpt>
      <trkpt lat="45.7681" lon="6.71415">
        <ele>1902</ele>
        <time>2022-08-26T21:42:15Z</time>
      </trkpt>
      <trkpt lat="45.76808" lon="6.71413">
        <ele>1902</ele>
        <time>2022-08-26T21:42:17Z</time>
      </trkpt>
      <trkpt lat="45.76805" lon="6.71412">
        <ele>1903</ele>
        <time>2022-08-26T21:42:19Z</time>
      </trkpt>
      <trkpt lat="45.76803" lon="6.71411">
        <ele>1902</ele>
        <time>2022-08-26T21:42:21Z</time>
      </trkpt>
      <trkpt lat="45.768" lon="6.7141">
        <ele>1902</ele>
        <time>2022-08-26T21:42:24Z</time>
      </trkpt>
      <trkpt lat="45.76797" lon="6.71409">
        <ele>1904</ele>
        <time>2022-08-26T21:42:26Z</time>
      </trkpt>
      <trkpt lat="45.76795" lon="6.71408">
        <ele>1904</ele>
        <time>2022-08-26T21:42:27Z</time>
      </trkpt>
      <trkpt lat="45.76792" lon="6.71407">
        <ele>1903</ele>
        <time>2022-08-26T21:42:30Z</time>
      </trkpt>
      <trkpt lat="45.76789" lon="6.71405">
        <ele>1904</ele>
        <time>2022-08-26T21:42:31Z</time>
      </trkpt>
      <trkpt lat="45.76787" lon="6.71404">
        <ele>1904</ele>
        <time>2022-08-26T21:42:34Z</time>
      </trkpt>
      <trkpt lat="45.76784" lon="6.71403">
        <ele>1904</ele>
        <time>2022-08-26T21:42:36Z</time>
      </trkpt>
      <trkpt lat="45.76782" lon="6.71401">
        <ele>1904</ele>
        <time>2022-08-26T21:42:38Z</time>
      </trkpt>
      <trkpt lat="45.76779" lon="6.71399">
        <ele>1904</ele>
        <time>2022-08-26T21:42:40Z</time>
      </trkpt>
      <trkpt lat="45.76776" lon="6.71397">
        <ele>1904</ele>
        <time>2022-08-26T21:42:42Z</time>
      </trkpt>
      <trkpt lat="45.76773" lon="6.71395">
        <ele>1904</ele>
        <time>2022-08-26T21:42:44Z</time>
      </trkpt>
      <trkpt lat="45.76772" lon="6.71394">
        <ele>1904</ele>
        <time>2022-08-26T21:42:45Z</time>
      </trkpt>
      <trkpt lat="45.7677" lon="6.71392">
        <ele>1904</ele>
        <time>2022-08-26T21:42:46Z</time>
      </trkpt>
      <trkpt lat="45.76769" lon="6.7139">
        <ele>1904</ele>
        <time>2022-08-26T21:42:47Z</time>
      </trkpt>
      <trkpt lat="45.76766" lon="6.71388">
        <ele>1904</ele>
        <time>2022-08-26T21:42:50Z</time>
      </trkpt>
      <trkpt lat="45.76764" lon="6.71386">
        <ele>1904</ele>
        <time>2022-08-26T21:42:52Z</time>
      </trkpt>
      <trkpt lat="45.76761" lon="6.71384">
        <ele>1904</ele>
        <time>2022-08-26T21:42:53Z</time>
      </trkpt>
      <trkpt lat="45.76759" lon="6.71382">
        <ele>1904</ele>
        <time>2022-08-26T21:42:55Z</time>
      </trkpt>
      <trkpt lat="45.76756" lon="6.7138">
        <ele>1904</ele>
        <time>2022-08-26T21:42:57Z</time>
      </trkpt>
      <trkpt lat="45.76754" lon="6.71377">
        <ele>1904</ele>
        <time>2022-08-26T21:43:00Z</time>
      </trkpt>
      <trkpt lat="45.76751" lon="6.71375">
        <ele>1904</ele>
        <time>2022-08-26T21:43:02Z</time>
      </trkpt>
      <trkpt lat="45.76749" lon="6.71372">
        <ele>1904</ele>
        <time>2022-08-26T21:43:04Z</time>
      </trkpt>
      <trkpt lat="45.76746" lon="6.7137">
        <ele>1904</ele>
        <time>2022-08-26T21:43:05Z</time>
      </trkpt>
      <trkpt lat="45.76743" lon="6.71368">
        <ele>1904</ele>
        <time>2022-08-26T21:43:08Z</time>
      </trkpt>
      <trkpt lat="45.76739" lon="6.71365">
        <ele>1904</ele>
        <time>2022-08-26T21:43:10Z</time>
      </trkpt>
      <trkpt lat="45.76738" lon="6.71363">
        <ele>1904</ele>
        <time>2022-08-26T21:43:11Z</time>
      </trkpt>
      <trkpt lat="45.76736" lon="6.71361">
        <ele>1905</ele>
        <time>2022-08-26T21:43:13Z</time>
      </trkpt>
      <trkpt lat="45.76733" lon="6.71359">
        <ele>1905</ele>
        <time>2022-08-26T21:43:16Z</time>
      </trkpt>
      <trkpt lat="45.76731" lon="6.71356">
        <ele>1905</ele>
        <time>2022-08-26T21:43:17Z</time>
      </trkpt>
      <trkpt lat="45.76728" lon="6.71354">
        <ele>1905</ele>
        <time>2022-08-26T21:43:19Z</time>
      </trkpt>
      <trkpt lat="45.76726" lon="6.71351">
        <ele>1905</ele>
        <time>2022-08-26T21:43:21Z</time>
      </trkpt>
      <trkpt lat="45.76723" lon="6.71349">
        <ele>1905</ele>
        <time>2022-08-26T21:43:24Z</time>
      </trkpt>
      <trkpt lat="45.7672" lon="6.71347">
        <ele>1905</ele>
        <time>2022-08-26T21:43:25Z</time>
      </trkpt>
      <trkpt lat="45.76718" lon="6.71345">
        <ele>1905</ele>
        <time>2022-08-26T21:43:28Z</time>
      </trkpt>
      <trkpt lat="45.76715" lon="6.71343">
        <ele>1905</ele>
        <time>2022-08-26T21:43:30Z</time>
      </trkpt>
      <trkpt lat="45.76713" lon="6.71341">
        <ele>1905</ele>
        <time>2022-08-26T21:43:31Z</time>
      </trkpt>
      <trkpt lat="45.76712" lon="6.7134">
        <ele>1905</ele>
        <time>2022-08-26T21:43:32Z</time>
      </trkpt>
      <trkpt lat="45.7671" lon="6.7134">
        <ele>1905</ele>
        <time>2022-08-26T21:43:33Z</time>
      </trkpt>
      <trkpt lat="45.76709" lon="6.71339">
        <ele>1905</ele>
        <time>2022-08-26T21:43:34Z</time>
      </trkpt>
      <trkpt lat="45.76708" lon="6.71338">
        <ele>1905</ele>
        <time>2022-08-26T21:43:35Z</time>
      </trkpt>
      <trkpt lat="45.76705" lon="6.71336">
        <ele>1905</ele>
        <time>2022-08-26T21:43:38Z</time>
      </trkpt>
      <trkpt lat="45.76703" lon="6.71334">
        <ele>1905</ele>
        <time>2022-08-26T21:43:40Z</time>
      </trkpt>
      <trkpt lat="45.767" lon="6.71332">
        <ele>1905</ele>
        <time>2022-08-26T21:43:41Z</time>
      </trkpt>
      <trkpt lat="45.76699" lon="6.7133">
        <ele>1905</ele>
        <time>2022-08-26T21:43:42Z</time>
      </trkpt>
      <trkpt lat="45.76698" lon="6.71329">
        <ele>1905</ele>
        <time>2022-08-26T21:43:43Z</time>
      </trkpt>
      <trkpt lat="45.76697" lon="6.71328">
        <ele>1905</ele>
        <time>2022-08-26T21:43:44Z</time>
      </trkpt>
      <trkpt lat="45.76695" lon="6.71327">
        <ele>1905</ele>
        <time>2022-08-26T21:43:45Z</time>
      </trkpt>
      <trkpt lat="45.76693" lon="6.71325">
        <ele>1905</ele>
        <time>2022-08-26T21:43:47Z</time>
      </trkpt>
      <trkpt lat="45.7669" lon="6.71323">
        <ele>1905</ele>
        <time>2022-08-26T21:43:49Z</time>
      </trkpt>
      <trkpt lat="45.76688" lon="6.71321">
        <ele>1906</ele>
        <time>2022-08-26T21:43:52Z</time>
      </trkpt>
      <trkpt lat="45.76685" lon="6.71319">
        <ele>1906</ele>
        <time>2022-08-26T21:43:53Z</time>
      </trkpt>
      <trkpt lat="45.76683" lon="6.71316">
        <ele>1906</ele>
        <time>2022-08-26T21:43:56Z</time>
      </trkpt>
      <trkpt lat="45.7668" lon="6.71315">
        <ele>1906</ele>
        <time>2022-08-26T21:43:58Z</time>
      </trkpt>
      <trkpt lat="45.76678" lon="6.71313">
        <ele>1906</ele>
        <time>2022-08-26T21:44:00Z</time>
      </trkpt>
      <trkpt lat="45.76675" lon="6.71312">
        <ele>1906</ele>
        <time>2022-08-26T21:44:01Z</time>
      </trkpt>
      <trkpt lat="45.76672" lon="6.71311">
        <ele>1906</ele>
        <time>2022-08-26T21:44:03Z</time>
      </trkpt>
      <trkpt lat="45.76669" lon="6.7131">
        <ele>1906</ele>
        <time>2022-08-26T21:44:06Z</time>
      </trkpt>
      <trkpt lat="45.76667" lon="6.71309">
        <ele>1906</ele>
        <time>2022-08-26T21:44:08Z</time>
      </trkpt>
      <trkpt lat="45.76664" lon="6.71308">
        <ele>1907</ele>
        <time>2022-08-26T21:44:10Z</time>
      </trkpt>
      <trkpt lat="45.76661" lon="6.71307">
        <ele>1907</ele>
        <time>2022-08-26T21:44:12Z</time>
      </trkpt>
      <trkpt lat="45.76659" lon="6.71306">
        <ele>1908</ele>
        <time>2022-08-26T21:44:14Z</time>
      </trkpt>
      <trkpt lat="45.76656" lon="6.71305">
        <ele>1908</ele>
        <time>2022-08-26T21:44:16Z</time>
      </trkpt>
      <trkpt lat="45.76653" lon="6.71305">
        <ele>1908</ele>
        <time>2022-08-26T21:44:18Z</time>
      </trkpt>
      <trkpt lat="45.76651" lon="6.71304">
        <ele>1908</ele>
        <time>2022-08-26T21:44:20Z</time>
      </trkpt>
      <trkpt lat="45.7665" lon="6.71304">
        <ele>1908</ele>
        <time>2022-08-26T21:44:21Z</time>
      </trkpt>
      <trkpt lat="45.76648" lon="6.71304">
        <ele>1908</ele>
        <time>2022-08-26T21:44:22Z</time>
      </trkpt>
      <trkpt lat="45.76647" lon="6.71304">
        <ele>1909</ele>
        <time>2022-08-26T21:44:23Z</time>
      </trkpt>
      <trkpt lat="45.76644" lon="6.71304">
        <ele>1909</ele>
        <time>2022-08-26T21:44:25Z</time>
      </trkpt>
      <trkpt lat="45.76642" lon="6.71302">
        <ele>1909</ele>
        <time>2022-08-26T21:44:28Z</time>
      </trkpt>
      <trkpt lat="45.76639" lon="6.71301">
        <ele>1909</ele>
        <time>2022-08-26T21:44:29Z</time>
      </trkpt>
      <trkpt lat="45.76637" lon="6.713">
        <ele>1910</ele>
        <time>2022-08-26T21:44:31Z</time>
      </trkpt>
      <trkpt lat="45.76634" lon="6.71299">
        <ele>1910</ele>
        <time>2022-08-26T21:44:34Z</time>
      </trkpt>
      <trkpt lat="45.76632" lon="6.71298">
        <ele>1910</ele>
        <time>2022-08-26T21:44:36Z</time>
      </trkpt>
      <trkpt lat="45.76629" lon="6.71298">
        <ele>1911</ele>
        <time>2022-08-26T21:44:38Z</time>
      </trkpt>
      <trkpt lat="45.76628" lon="6.71297">
        <ele>1911</ele>
        <time>2022-08-26T21:44:39Z</time>
      </trkpt>
      <trkpt lat="45.76626" lon="6.71297">
        <ele>1911</ele>
        <time>2022-08-26T21:44:40Z</time>
      </trkpt>
      <trkpt lat="45.76624" lon="6.71296">
        <ele>1911</ele>
        <time>2022-08-26T21:44:41Z</time>
      </trkpt>
      <trkpt lat="45.76622" lon="6.71296">
        <ele>1911</ele>
        <time>2022-08-26T21:44:43Z</time>
      </trkpt>
      <trkpt lat="45.76619" lon="6.71295">
        <ele>1911</ele>
        <time>2022-08-26T21:44:45Z</time>
      </trkpt>
      <trkpt lat="45.76617" lon="6.71294">
        <ele>1912</ele>
        <time>2022-08-26T21:44:47Z</time>
      </trkpt>
      <trkpt lat="45.76614" lon="6.71293">
        <ele>1912</ele>
        <time>2022-08-26T21:44:49Z</time>
      </trkpt>
      <trkpt lat="45.76612" lon="6.71292">
        <ele>1913</ele>
        <time>2022-08-26T21:44:52Z</time>
      </trkpt>
      <trkpt lat="45.76609" lon="6.71292">
        <ele>1913</ele>
        <time>2022-08-26T21:44:53Z</time>
      </trkpt>
      <trkpt lat="45.76607" lon="6.71291">
        <ele>1913</ele>
        <time>2022-08-26T21:44:56Z</time>
      </trkpt>
      <trkpt lat="45.76605" lon="6.7129">
        <ele>1913</ele>
        <time>2022-08-26T21:44:58Z</time>
      </trkpt>
      <trkpt lat="45.76602" lon="6.71288">
        <ele>1913</ele>
        <time>2022-08-26T21:44:59Z</time>
      </trkpt>
      <trkpt lat="45.766" lon="6.71287">
        <ele>1914</ele>
        <time>2022-08-26T21:45:01Z</time>
      </trkpt>
      <trkpt lat="45.76599" lon="6.71287">
        <ele>1914</ele>
        <time>2022-08-26T21:45:02Z</time>
      </trkpt>
      <trkpt lat="45.76598" lon="6.71286">
        <ele>1914</ele>
        <time>2022-08-26T21:45:03Z</time>
      </trkpt>
      <trkpt lat="45.76596" lon="6.71286">
        <ele>1914</ele>
        <time>2022-08-26T21:45:04Z</time>
      </trkpt>
      <trkpt lat="45.76595" lon="6.71285">
        <ele>1914</ele>
        <time>2022-08-26T21:45:05Z</time>
      </trkpt>
      <trkpt lat="45.76593" lon="6.71285">
        <ele>1914</ele>
        <time>2022-08-26T21:45:07Z</time>
      </trkpt>
      <trkpt lat="45.7659" lon="6.71284">
        <ele>1915</ele>
        <time>2022-08-26T21:45:10Z</time>
      </trkpt>
      <trkpt lat="45.76587" lon="6.71283">
        <ele>1915</ele>
        <time>2022-08-26T21:45:11Z</time>
      </trkpt>
      <trkpt lat="45.76584" lon="6.71282">
        <ele>1915</ele>
        <time>2022-08-26T21:45:13Z</time>
      </trkpt>
      <trkpt lat="45.76582" lon="6.71281">
        <ele>1915</ele>
        <time>2022-08-26T21:45:15Z</time>
      </trkpt>
      <trkpt lat="45.76579" lon="6.7128">
        <ele>1916</ele>
        <time>2022-08-26T21:45:17Z</time>
      </trkpt>
      <trkpt lat="45.76576" lon="6.7128">
        <ele>1916</ele>
        <time>2022-08-26T21:45:19Z</time>
      </trkpt>
      <trkpt lat="45.76573" lon="6.71279">
        <ele>1916</ele>
        <time>2022-08-26T21:45:22Z</time>
      </trkpt>
      <trkpt lat="45.76571" lon="6.71279">
        <ele>1916</ele>
        <time>2022-08-26T21:45:23Z</time>
      </trkpt>
      <trkpt lat="45.76568" lon="6.71278">
        <ele>1916</ele>
        <time>2022-08-26T21:45:26Z</time>
      </trkpt>
      <trkpt lat="45.76565" lon="6.71277">
        <ele>1916</ele>
        <time>2022-08-26T21:45:27Z</time>
      </trkpt>
      <trkpt lat="45.76563" lon="6.71276">
        <ele>1916</ele>
        <time>2022-08-26T21:45:30Z</time>
      </trkpt>
      <trkpt lat="45.7656" lon="6.71275">
        <ele>1916</ele>
        <time>2022-08-26T21:45:32Z</time>
      </trkpt>
      <trkpt lat="45.76557" lon="6.71275">
        <ele>1916</ele>
        <time>2022-08-26T21:45:34Z</time>
      </trkpt>
      <trkpt lat="45.76554" lon="6.71274">
        <ele>1917</ele>
        <time>2022-08-26T21:45:36Z</time>
      </trkpt>
      <trkpt lat="45.76551" lon="6.71273">
        <ele>1917</ele>
        <time>2022-08-26T21:45:38Z</time>
      </trkpt>
      <trkpt lat="45.76549" lon="6.71272">
        <ele>1917</ele>
        <time>2022-08-26T21:45:40Z</time>
      </trkpt>
      <trkpt lat="45.76546" lon="6.71271">
        <ele>1917</ele>
        <time>2022-08-26T21:45:41Z</time>
      </trkpt>
      <trkpt lat="45.76544" lon="6.7127">
        <ele>1918</ele>
        <time>2022-08-26T21:45:44Z</time>
      </trkpt>
      <trkpt lat="45.76541" lon="6.71269">
        <ele>1918</ele>
        <time>2022-08-26T21:45:45Z</time>
      </trkpt>
      <trkpt lat="45.76539" lon="6.71268">
        <ele>1918</ele>
        <time>2022-08-26T21:45:47Z</time>
      </trkpt>
      <trkpt lat="45.76536" lon="6.71266">
        <ele>1919</ele>
        <time>2022-08-26T21:45:50Z</time>
      </trkpt>
      <trkpt lat="45.76535" lon="6.71266">
        <ele>1919</ele>
        <time>2022-08-26T21:45:51Z</time>
      </trkpt>
      <trkpt lat="45.76533" lon="6.71265">
        <ele>1919</ele>
        <time>2022-08-26T21:45:52Z</time>
      </trkpt>
      <trkpt lat="45.76531" lon="6.71265">
        <ele>1919</ele>
        <time>2022-08-26T21:45:53Z</time>
      </trkpt>
      <trkpt lat="45.76529" lon="6.71264">
        <ele>1920</ele>
        <time>2022-08-26T21:45:55Z</time>
      </trkpt>
      <trkpt lat="45.76526" lon="6.71264">
        <ele>1920</ele>
        <time>2022-08-26T21:45:58Z</time>
      </trkpt>
      <trkpt lat="45.76523" lon="6.71263">
        <ele>1920</ele>
        <time>2022-08-26T21:46:00Z</time>
      </trkpt>
      <trkpt lat="45.7652" lon="6.71263">
        <ele>1920</ele>
        <time>2022-08-26T21:46:01Z</time>
      </trkpt>
      <trkpt lat="45.76519" lon="6.71262">
        <ele>1920</ele>
        <time>2022-08-26T21:46:02Z</time>
      </trkpt>
      <trkpt lat="45.76517" lon="6.71262">
        <ele>1920</ele>
        <time>2022-08-26T21:46:03Z</time>
      </trkpt>
      <trkpt lat="45.76516" lon="6.71262">
        <ele>1920</ele>
        <time>2022-08-26T21:46:04Z</time>
      </trkpt>
      <trkpt lat="45.76515" lon="6.71262">
        <ele>1921</ele>
        <time>2022-08-26T21:46:05Z</time>
      </trkpt>
      <trkpt lat="45.76512" lon="6.71261">
        <ele>1920</ele>
        <time>2022-08-26T21:46:08Z</time>
      </trkpt>
      <trkpt lat="45.76509" lon="6.7126">
        <ele>1920</ele>
        <time>2022-08-26T21:46:10Z</time>
      </trkpt>
      <trkpt lat="45.76507" lon="6.71259">
        <ele>1921</ele>
        <time>2022-08-26T21:46:12Z</time>
      </trkpt>
      <trkpt lat="45.76504" lon="6.71258">
        <ele>1921</ele>
        <time>2022-08-26T21:46:14Z</time>
      </trkpt>
      <trkpt lat="45.76502" lon="6.71258">
        <ele>1922</ele>
        <time>2022-08-26T21:46:16Z</time>
      </trkpt>
      <trkpt lat="45.76499" lon="6.71258">
        <ele>1922</ele>
        <time>2022-08-26T21:46:17Z</time>
      </trkpt>
      <trkpt lat="45.76496" lon="6.71257">
        <ele>1923</ele>
        <time>2022-08-26T21:46:20Z</time>
      </trkpt>
      <trkpt lat="45.76494" lon="6.71256">
        <ele>1923</ele>
        <time>2022-08-26T21:46:21Z</time>
      </trkpt>
      <trkpt lat="45.76491" lon="6.71255">
        <ele>1922</ele>
        <time>2022-08-26T21:46:24Z</time>
      </trkpt>
      <trkpt lat="45.76487" lon="6.71252">
        <ele>1923</ele>
        <time>2022-08-26T21:46:26Z</time>
      </trkpt>
      <trkpt lat="45.76486" lon="6.71251">
        <ele>1923</ele>
        <time>2022-08-26T21:46:27Z</time>
      </trkpt>
      <trkpt lat="45.76483" lon="6.71249">
        <ele>1923</ele>
        <time>2022-08-26T21:46:30Z</time>
      </trkpt>
      <trkpt lat="45.76481" lon="6.71248">
        <ele>1923</ele>
        <time>2022-08-26T21:46:32Z</time>
      </trkpt>
      <trkpt lat="45.76479" lon="6.71247">
        <ele>1923</ele>
        <time>2022-08-26T21:46:33Z</time>
      </trkpt>
      <trkpt lat="45.76478" lon="6.71245">
        <ele>1923</ele>
        <time>2022-08-26T21:46:34Z</time>
      </trkpt>
      <trkpt lat="45.76476" lon="6.71244">
        <ele>1923</ele>
        <time>2022-08-26T21:46:35Z</time>
      </trkpt>
      <trkpt lat="45.76474" lon="6.71243">
        <ele>1924</ele>
        <time>2022-08-26T21:46:37Z</time>
      </trkpt>
      <trkpt lat="45.76471" lon="6.71241">
        <ele>1924</ele>
        <time>2022-08-26T21:46:39Z</time>
      </trkpt>
      <trkpt lat="45.76469" lon="6.71239">
        <ele>1924</ele>
        <time>2022-08-26T21:46:42Z</time>
      </trkpt>
      <trkpt lat="45.76466" lon="6.71237">
        <ele>1924</ele>
        <time>2022-08-26T21:46:44Z</time>
      </trkpt>
      <trkpt lat="45.76463" lon="6.71236">
        <ele>1924</ele>
        <time>2022-08-26T21:46:46Z</time>
      </trkpt>
      <trkpt lat="45.76461" lon="6.71235">
        <ele>1924</ele>
        <time>2022-08-26T21:46:47Z</time>
      </trkpt>
      <trkpt lat="45.76459" lon="6.71234">
        <ele>1924</ele>
        <time>2022-08-26T21:46:48Z</time>
      </trkpt>
      <trkpt lat="45.76457" lon="6.71234">
        <ele>1924</ele>
        <time>2022-08-26T21:46:50Z</time>
      </trkpt>
      <trkpt lat="45.76455" lon="6.71233">
        <ele>1925</ele>
        <time>2022-08-26T21:46:51Z</time>
      </trkpt>
      <trkpt lat="45.76452" lon="6.71233">
        <ele>1925</ele>
        <time>2022-08-26T21:46:53Z</time>
      </trkpt>
      <trkpt lat="45.7645" lon="6.71233">
        <ele>1925</ele>
        <time>2022-08-26T21:46:56Z</time>
      </trkpt>
      <trkpt lat="45.76447" lon="6.71232">
        <ele>1925</ele>
        <time>2022-08-26T21:46:58Z</time>
      </trkpt>
      <trkpt lat="45.76444" lon="6.71232">
        <ele>1925</ele>
        <time>2022-08-26T21:46:59Z</time>
      </trkpt>
      <trkpt lat="45.76442" lon="6.71231">
        <ele>1925</ele>
        <time>2022-08-26T21:47:01Z</time>
      </trkpt>
      <trkpt lat="45.76439" lon="6.71231">
        <ele>1925</ele>
        <time>2022-08-26T21:47:03Z</time>
      </trkpt>
      <trkpt lat="45.76436" lon="6.7123">
        <ele>1925</ele>
        <time>2022-08-26T21:47:06Z</time>
      </trkpt>
      <trkpt lat="45.76433" lon="6.7123">
        <ele>1925</ele>
        <time>2022-08-26T21:47:07Z</time>
      </trkpt>
      <trkpt lat="45.76431" lon="6.71229">
        <ele>1926</ele>
        <time>2022-08-26T21:47:09Z</time>
      </trkpt>
      <trkpt lat="45.76429" lon="6.71229">
        <ele>1926</ele>
        <time>2022-08-26T21:47:10Z</time>
      </trkpt>
      <trkpt lat="45.76428" lon="6.71228">
        <ele>1926</ele>
        <time>2022-08-26T21:47:11Z</time>
      </trkpt>
      <trkpt lat="45.76426" lon="6.71228">
        <ele>1926</ele>
        <time>2022-08-26T21:47:12Z</time>
      </trkpt>
      <trkpt lat="45.76425" lon="6.71227">
        <ele>1926</ele>
        <time>2022-08-26T21:47:13Z</time>
      </trkpt>
      <trkpt lat="45.76422" lon="6.71226">
        <ele>1926</ele>
        <time>2022-08-26T21:47:16Z</time>
      </trkpt>
      <trkpt lat="45.76419" lon="6.71225">
        <ele>1927</ele>
        <time>2022-08-26T21:47:18Z</time>
      </trkpt>
      <trkpt lat="45.76417" lon="6.71223">
        <ele>1927</ele>
        <time>2022-08-26T21:47:19Z</time>
      </trkpt>
      <trkpt lat="45.76414" lon="6.71222">
        <ele>1927</ele>
        <time>2022-08-26T21:47:21Z</time>
      </trkpt>
      <trkpt lat="45.76411" lon="6.71221">
        <ele>1927</ele>
        <time>2022-08-26T21:47:24Z</time>
      </trkpt>
      <trkpt lat="45.76409" lon="6.7122">
        <ele>1927</ele>
        <time>2022-08-26T21:47:25Z</time>
      </trkpt>
      <trkpt lat="45.76406" lon="6.7122">
        <ele>1926</ele>
        <time>2022-08-26T21:47:27Z</time>
      </trkpt>
      <trkpt lat="45.76404" lon="6.71219">
        <ele>1926</ele>
        <time>2022-08-26T21:47:30Z</time>
      </trkpt>
      <trkpt lat="45.76401" lon="6.71217">
        <ele>1926</ele>
        <time>2022-08-26T21:47:32Z</time>
      </trkpt>
      <trkpt lat="45.76399" lon="6.71216">
        <ele>1927</ele>
        <time>2022-08-26T21:47:34Z</time>
      </trkpt>
      <trkpt lat="45.76396" lon="6.71216">
        <ele>1927</ele>
        <time>2022-08-26T21:47:35Z</time>
      </trkpt>
      <trkpt lat="45.76394" lon="6.71215">
        <ele>1928</ele>
        <time>2022-08-26T21:47:38Z</time>
      </trkpt>
      <trkpt lat="45.76391" lon="6.71214">
        <ele>1928</ele>
        <time>2022-08-26T21:47:40Z</time>
      </trkpt>
      <trkpt lat="45.76389" lon="6.71213">
        <ele>1928</ele>
        <time>2022-08-26T21:47:42Z</time>
      </trkpt>
      <trkpt lat="45.76387" lon="6.71212">
        <ele>1928</ele>
        <time>2022-08-26T21:47:44Z</time>
      </trkpt>
      <trkpt lat="45.76385" lon="6.7121">
        <ele>1929</ele>
        <time>2022-08-26T21:47:45Z</time>
      </trkpt>
      <trkpt lat="45.76382" lon="6.71209">
        <ele>1929</ele>
        <time>2022-08-26T21:47:47Z</time>
      </trkpt>
      <trkpt lat="45.7638" lon="6.71208">
        <ele>1929</ele>
        <time>2022-08-26T21:47:49Z</time>
      </trkpt>
      <trkpt lat="45.76378" lon="6.71206">
        <ele>1930</ele>
        <time>2022-08-26T21:47:51Z</time>
      </trkpt>
      <trkpt lat="45.76375" lon="6.71205">
        <ele>1930</ele>
        <time>2022-08-26T21:47:53Z</time>
      </trkpt>
      <trkpt lat="45.76373" lon="6.71204">
        <ele>1930</ele>
        <time>2022-08-26T21:47:56Z</time>
      </trkpt>
      <trkpt lat="45.76371" lon="6.71203">
        <ele>1930</ele>
        <time>2022-08-26T21:47:57Z</time>
      </trkpt>
      <trkpt lat="45.76368" lon="6.71202">
        <ele>1931</ele>
        <time>2022-08-26T21:48:00Z</time>
      </trkpt>
      <trkpt lat="45.76366" lon="6.712">
        <ele>1932</ele>
        <time>2022-08-26T21:48:02Z</time>
      </trkpt>
      <trkpt lat="45.76363" lon="6.71199">
        <ele>1932</ele>
        <time>2022-08-26T21:48:04Z</time>
      </trkpt>
      <trkpt lat="45.76361" lon="6.71197">
        <ele>1932</ele>
        <time>2022-08-26T21:48:06Z</time>
      </trkpt>
      <trkpt lat="45.76357" lon="6.71195">
        <ele>1932</ele>
        <time>2022-08-26T21:48:08Z</time>
      </trkpt>
      <trkpt lat="45.76356" lon="6.71195">
        <ele>1932</ele>
        <time>2022-08-26T21:48:09Z</time>
      </trkpt>
      <trkpt lat="45.76354" lon="6.71194">
        <ele>1933</ele>
        <time>2022-08-26T21:48:12Z</time>
      </trkpt>
      <trkpt lat="45.76351" lon="6.71193">
        <ele>1933</ele>
        <time>2022-08-26T21:48:13Z</time>
      </trkpt>
      <trkpt lat="45.76348" lon="6.71192">
        <ele>1933</ele>
        <time>2022-08-26T21:48:15Z</time>
      </trkpt>
      <trkpt lat="45.76346" lon="6.71192">
        <ele>1934</ele>
        <time>2022-08-26T21:48:18Z</time>
      </trkpt>
      <trkpt lat="45.76343" lon="6.71192">
        <ele>1934</ele>
        <time>2022-08-26T21:48:20Z</time>
      </trkpt>
      <trkpt lat="45.76341" lon="6.71191">
        <ele>1935</ele>
        <time>2022-08-26T21:48:21Z</time>
      </trkpt>
      <trkpt lat="45.76339" lon="6.7119">
        <ele>1935</ele>
        <time>2022-08-26T21:48:24Z</time>
      </trkpt>
      <trkpt lat="45.76335" lon="6.71189">
        <ele>1935</ele>
        <time>2022-08-26T21:48:26Z</time>
      </trkpt>
      <trkpt lat="45.76334" lon="6.71189">
        <ele>1935</ele>
        <time>2022-08-26T21:48:27Z</time>
      </trkpt>
      <trkpt lat="45.76332" lon="6.71188">
        <ele>1935</ele>
        <time>2022-08-26T21:48:29Z</time>
      </trkpt>
      <trkpt lat="45.76329" lon="6.71188">
        <ele>1936</ele>
        <time>2022-08-26T21:48:31Z</time>
      </trkpt>
      <trkpt lat="45.76327" lon="6.71187">
        <ele>1936</ele>
        <time>2022-08-26T21:48:34Z</time>
      </trkpt>
      <trkpt lat="45.76325" lon="6.71187">
        <ele>1937</ele>
        <time>2022-08-26T21:48:35Z</time>
      </trkpt>
      <trkpt lat="45.76324" lon="6.71187">
        <ele>1937</ele>
        <time>2022-08-26T21:48:36Z</time>
      </trkpt>
      <trkpt lat="45.76322" lon="6.71186">
        <ele>1937</ele>
        <time>2022-08-26T21:48:37Z</time>
      </trkpt>
      <trkpt lat="45.76321" lon="6.71186">
        <ele>1937</ele>
        <time>2022-08-26T21:48:38Z</time>
      </trkpt>
      <trkpt lat="45.7632" lon="6.71186">
        <ele>1937</ele>
        <time>2022-08-26T21:48:39Z</time>
      </trkpt>
      <trkpt lat="45.76318" lon="6.71185">
        <ele>1937</ele>
        <time>2022-08-26T21:48:41Z</time>
      </trkpt>
      <trkpt lat="45.76315" lon="6.71183">
        <ele>1938</ele>
        <time>2022-08-26T21:48:44Z</time>
      </trkpt>
      <trkpt lat="45.76313" lon="6.71182">
        <ele>1938</ele>
        <time>2022-08-26T21:48:46Z</time>
      </trkpt>
      <trkpt lat="45.7631" lon="6.71181">
        <ele>1939</ele>
        <time>2022-08-26T21:48:48Z</time>
      </trkpt>
      <trkpt lat="45.76308" lon="6.7118">
        <ele>1939</ele>
        <time>2022-08-26T21:48:51Z</time>
      </trkpt>
      <trkpt lat="45.76306" lon="6.71179">
        <ele>1939</ele>
        <time>2022-08-26T21:48:53Z</time>
      </trkpt>
      <trkpt lat="45.76304" lon="6.71179">
        <ele>1939</ele>
        <time>2022-08-26T21:48:54Z</time>
      </trkpt>
      <trkpt lat="45.76302" lon="6.71178">
        <ele>1939</ele>
        <time>2022-08-26T21:48:55Z</time>
      </trkpt>
      <trkpt lat="45.76301" lon="6.71177">
        <ele>1940</ele>
        <time>2022-08-26T21:48:56Z</time>
      </trkpt>
      <trkpt lat="45.76298" lon="6.71176">
        <ele>1940</ele>
        <time>2022-08-26T21:48:58Z</time>
      </trkpt>
      <trkpt lat="45.76296" lon="6.71175">
        <ele>1940</ele>
        <time>2022-08-26T21:49:01Z</time>
      </trkpt>
      <trkpt lat="45.76294" lon="6.71174">
        <ele>1940</ele>
        <time>2022-08-26T21:49:02Z</time>
      </trkpt>
      <trkpt lat="45.76292" lon="6.71172">
        <ele>1941</ele>
        <time>2022-08-26T21:49:04Z</time>
      </trkpt>
      <trkpt lat="45.7629" lon="6.7117">
        <ele>1942</ele>
        <time>2022-08-26T21:49:06Z</time>
      </trkpt>
      <trkpt lat="45.76288" lon="6.71169">
        <ele>1942</ele>
        <time>2022-08-26T21:49:08Z</time>
      </trkpt>
      <trkpt lat="45.76285" lon="6.71167">
        <ele>1942</ele>
        <time>2022-08-26T21:49:11Z</time>
      </trkpt>
      <trkpt lat="45.76283" lon="6.71167">
        <ele>1942</ele>
        <time>2022-08-26T21:49:13Z</time>
      </trkpt>
      <trkpt lat="45.7628" lon="6.71166">
        <ele>1943</ele>
        <time>2022-08-26T21:49:15Z</time>
      </trkpt>
      <trkpt lat="45.76277" lon="6.71165">
        <ele>1943</ele>
        <time>2022-08-26T21:49:16Z</time>
      </trkpt>
      <trkpt lat="45.76274" lon="6.71163">
        <ele>1943</ele>
        <time>2022-08-26T21:49:18Z</time>
      </trkpt>
      <trkpt lat="45.76272" lon="6.71162">
        <ele>1943</ele>
        <time>2022-08-26T21:49:20Z</time>
      </trkpt>
      <trkpt lat="45.76271" lon="6.71161">
        <ele>1943</ele>
        <time>2022-08-26T21:49:21Z</time>
      </trkpt>
      <trkpt lat="45.7627" lon="6.71161">
        <ele>1944</ele>
        <time>2022-08-26T21:49:22Z</time>
      </trkpt>
      <trkpt lat="45.76268" lon="6.71159">
        <ele>1944</ele>
        <time>2022-08-26T21:49:24Z</time>
      </trkpt>
      <trkpt lat="45.76265" lon="6.71158">
        <ele>1944</ele>
        <time>2022-08-26T21:49:26Z</time>
      </trkpt>
      <trkpt lat="45.76263" lon="6.71156">
        <ele>1945</ele>
        <time>2022-08-26T21:49:29Z</time>
      </trkpt>
      <trkpt lat="45.76261" lon="6.71155">
        <ele>1946</ele>
        <time>2022-08-26T21:49:30Z</time>
      </trkpt>
      <trkpt lat="45.76258" lon="6.71154">
        <ele>1946</ele>
        <time>2022-08-26T21:49:33Z</time>
      </trkpt>
      <trkpt lat="45.76256" lon="6.71153">
        <ele>1946</ele>
        <time>2022-08-26T21:49:34Z</time>
      </trkpt>
      <trkpt lat="45.76254" lon="6.71152">
        <ele>1947</ele>
        <time>2022-08-26T21:49:37Z</time>
      </trkpt>
      <trkpt lat="45.76251" lon="6.71151">
        <ele>1947</ele>
        <time>2022-08-26T21:49:39Z</time>
      </trkpt>
      <trkpt lat="45.76249" lon="6.7115">
        <ele>1947</ele>
        <time>2022-08-26T21:49:41Z</time>
      </trkpt>
      <trkpt lat="45.76247" lon="6.71149">
        <ele>1947</ele>
        <time>2022-08-26T21:49:43Z</time>
      </trkpt>
      <trkpt lat="45.76245" lon="6.71148">
        <ele>1947</ele>
        <time>2022-08-26T21:49:45Z</time>
      </trkpt>
      <trkpt lat="45.76242" lon="6.71147">
        <ele>1948</ele>
        <time>2022-08-26T21:49:47Z</time>
      </trkpt>
      <trkpt lat="45.7624" lon="6.71146">
        <ele>1948</ele>
        <time>2022-08-26T21:49:49Z</time>
      </trkpt>
      <trkpt lat="45.76238" lon="6.71145">
        <ele>1948</ele>
        <time>2022-08-26T21:49:51Z</time>
      </trkpt>
      <trkpt lat="45.76235" lon="6.71144">
        <ele>1949</ele>
        <time>2022-08-26T21:49:53Z</time>
      </trkpt>
      <trkpt lat="45.76233" lon="6.71143">
        <ele>1949</ele>
        <time>2022-08-26T21:49:54Z</time>
      </trkpt>
      <trkpt lat="45.7623" lon="6.71141">
        <ele>1950</ele>
        <time>2022-08-26T21:49:56Z</time>
      </trkpt>
      <trkpt lat="45.76229" lon="6.71141">
        <ele>1950</ele>
        <time>2022-08-26T21:49:57Z</time>
      </trkpt>
      <trkpt lat="45.76228" lon="6.71141">
        <ele>1950</ele>
        <time>2022-08-26T21:49:58Z</time>
      </trkpt>
      <trkpt lat="45.76227" lon="6.7114">
        <ele>1950</ele>
        <time>2022-08-26T21:49:59Z</time>
      </trkpt>
      <trkpt lat="45.76226" lon="6.7114">
        <ele>1950</ele>
        <time>2022-08-26T21:50:00Z</time>
      </trkpt>
      <trkpt lat="45.76224" lon="6.71139">
        <ele>1951</ele>
        <time>2022-08-26T21:50:03Z</time>
      </trkpt>
      <trkpt lat="45.76222" lon="6.71137">
        <ele>1951</ele>
        <time>2022-08-26T21:50:05Z</time>
      </trkpt>
      <trkpt lat="45.7622" lon="6.71136">
        <ele>1951</ele>
        <time>2022-08-26T21:50:07Z</time>
      </trkpt>
      <trkpt lat="45.76217" lon="6.71135">
        <ele>1951</ele>
        <time>2022-08-26T21:50:09Z</time>
      </trkpt>
      <trkpt lat="45.76215" lon="6.71135">
        <ele>1952</ele>
        <time>2022-08-26T21:50:11Z</time>
      </trkpt>
      <trkpt lat="45.76213" lon="6.71134">
        <ele>1952</ele>
        <time>2022-08-26T21:50:13Z</time>
      </trkpt>
      <trkpt lat="45.7621" lon="6.71133">
        <ele>1952</ele>
        <time>2022-08-26T21:50:15Z</time>
      </trkpt>
      <trkpt lat="45.76208" lon="6.71133">
        <ele>1953</ele>
        <time>2022-08-26T21:50:16Z</time>
      </trkpt>
      <trkpt lat="45.76206" lon="6.71133">
        <ele>1953</ele>
        <time>2022-08-26T21:50:19Z</time>
      </trkpt>
      <trkpt lat="45.76203" lon="6.71133">
        <ele>1954</ele>
        <time>2022-08-26T21:50:21Z</time>
      </trkpt>
      <trkpt lat="45.76201" lon="6.71133">
        <ele>1954</ele>
        <time>2022-08-26T21:50:23Z</time>
      </trkpt>
      <trkpt lat="45.76199" lon="6.71133">
        <ele>1954</ele>
        <time>2022-08-26T21:50:25Z</time>
      </trkpt>
      <trkpt lat="45.76197" lon="6.71133">
        <ele>1955</ele>
        <time>2022-08-26T21:50:27Z</time>
      </trkpt>
      <trkpt lat="45.76195" lon="6.71133">
        <ele>1955</ele>
        <time>2022-08-26T21:50:28Z</time>
      </trkpt>
      <trkpt lat="45.76193" lon="6.71134">
        <ele>1956</ele>
        <time>2022-08-26T21:50:31Z</time>
      </trkpt>
      <trkpt lat="45.76191" lon="6.71134">
        <ele>1956</ele>
        <time>2022-08-26T21:50:33Z</time>
      </trkpt>
      <trkpt lat="45.76189" lon="6.71134">
        <ele>1957</ele>
        <time>2022-08-26T21:50:35Z</time>
      </trkpt>
      <trkpt lat="45.76186" lon="6.71133">
        <ele>1957</ele>
        <time>2022-08-26T21:50:36Z</time>
      </trkpt>
      <trkpt lat="45.76184" lon="6.71133">
        <ele>1957</ele>
        <time>2022-08-26T21:50:38Z</time>
      </trkpt>
      <trkpt lat="45.76182" lon="6.71133">
        <ele>1957</ele>
        <time>2022-08-26T21:50:40Z</time>
      </trkpt>
      <trkpt lat="45.76179" lon="6.71132">
        <ele>1958</ele>
        <time>2022-08-26T21:50:43Z</time>
      </trkpt>
      <trkpt lat="45.76177" lon="6.71132">
        <ele>1958</ele>
        <time>2022-08-26T21:50:45Z</time>
      </trkpt>
      <trkpt lat="45.76174" lon="6.71132">
        <ele>1959</ele>
        <time>2022-08-26T21:50:47Z</time>
      </trkpt>
      <trkpt lat="45.76172" lon="6.71131">
        <ele>1959</ele>
        <time>2022-08-26T21:50:48Z</time>
      </trkpt>
      <trkpt lat="45.7617" lon="6.7113">
        <ele>1959</ele>
        <time>2022-08-26T21:50:50Z</time>
      </trkpt>
      <trkpt lat="45.76168" lon="6.7113">
        <ele>1960</ele>
        <time>2022-08-26T21:50:52Z</time>
      </trkpt>
      <trkpt lat="45.76166" lon="6.71129">
        <ele>1960</ele>
        <time>2022-08-26T21:50:55Z</time>
      </trkpt>
      <trkpt lat="45.76163" lon="6.71129">
        <ele>1960</ele>
        <time>2022-08-26T21:50:56Z</time>
      </trkpt>
      <trkpt lat="45.76161" lon="6.71128">
        <ele>1962</ele>
        <time>2022-08-26T21:50:59Z</time>
      </trkpt>
      <trkpt lat="45.76159" lon="6.71127">
        <ele>1962</ele>
        <time>2022-08-26T21:51:01Z</time>
      </trkpt>
      <trkpt lat="45.76157" lon="6.71126">
        <ele>1963</ele>
        <time>2022-08-26T21:51:03Z</time>
      </trkpt>
      <trkpt lat="45.76155" lon="6.71125">
        <ele>1964</ele>
        <time>2022-08-26T21:51:04Z</time>
      </trkpt>
      <trkpt lat="45.76153" lon="6.71124">
        <ele>1964</ele>
        <time>2022-08-26T21:51:06Z</time>
      </trkpt>
      <trkpt lat="45.76151" lon="6.71123">
        <ele>1965</ele>
        <time>2022-08-26T21:51:08Z</time>
      </trkpt>
      <trkpt lat="45.76149" lon="6.71122">
        <ele>1965</ele>
        <time>2022-08-26T21:51:11Z</time>
      </trkpt>
      <trkpt lat="45.76147" lon="6.71122">
        <ele>1965</ele>
        <time>2022-08-26T21:51:12Z</time>
      </trkpt>
      <trkpt lat="45.76145" lon="6.71121">
        <ele>1966</ele>
        <time>2022-08-26T21:51:15Z</time>
      </trkpt>
      <trkpt lat="45.76143" lon="6.7112">
        <ele>1966</ele>
        <time>2022-08-26T21:51:16Z</time>
      </trkpt>
      <trkpt lat="45.76141" lon="6.71118">
        <ele>1967</ele>
        <time>2022-08-26T21:51:19Z</time>
      </trkpt>
      <trkpt lat="45.76139" lon="6.71117">
        <ele>1967</ele>
        <time>2022-08-26T21:51:21Z</time>
      </trkpt>
      <trkpt lat="45.76138" lon="6.71115">
        <ele>1967</ele>
        <time>2022-08-26T21:51:23Z</time>
      </trkpt>
      <trkpt lat="45.76136" lon="6.71114">
        <ele>1968</ele>
        <time>2022-08-26T21:51:25Z</time>
      </trkpt>
      <trkpt lat="45.76134" lon="6.71112">
        <ele>1968</ele>
        <time>2022-08-26T21:51:27Z</time>
      </trkpt>
      <trkpt lat="45.76132" lon="6.71111">
        <ele>1968</ele>
        <time>2022-08-26T21:51:29Z</time>
      </trkpt>
      <trkpt lat="45.7613" lon="6.71109">
        <ele>1968</ele>
        <time>2022-08-26T21:51:31Z</time>
      </trkpt>
      <trkpt lat="45.76128" lon="6.71108">
        <ele>1968</ele>
        <time>2022-08-26T21:51:32Z</time>
      </trkpt>
      <trkpt lat="45.76126" lon="6.71106">
        <ele>1969</ele>
        <time>2022-08-26T21:51:35Z</time>
      </trkpt>
      <trkpt lat="45.76125" lon="6.71105">
        <ele>1969</ele>
        <time>2022-08-26T21:51:36Z</time>
      </trkpt>
      <trkpt lat="45.76124" lon="6.71104">
        <ele>1970</ele>
        <time>2022-08-26T21:51:37Z</time>
      </trkpt>
      <trkpt lat="45.76123" lon="6.71103">
        <ele>1970</ele>
        <time>2022-08-26T21:51:38Z</time>
      </trkpt>
      <trkpt lat="45.76122" lon="6.71103">
        <ele>1970</ele>
        <time>2022-08-26T21:51:39Z</time>
      </trkpt>
      <trkpt lat="45.76121" lon="6.71101">
        <ele>1971</ele>
        <time>2022-08-26T21:51:42Z</time>
      </trkpt>
      <trkpt lat="45.76118" lon="6.71101">
        <ele>1971</ele>
        <time>2022-08-26T21:51:44Z</time>
      </trkpt>
      <trkpt lat="45.76116" lon="6.711">
        <ele>1971</ele>
        <time>2022-08-26T21:51:45Z</time>
      </trkpt>
      <trkpt lat="45.76115" lon="6.71099">
        <ele>1971</ele>
        <time>2022-08-26T21:51:46Z</time>
      </trkpt>
      <trkpt lat="45.76114" lon="6.71098">
        <ele>1971</ele>
        <time>2022-08-26T21:51:47Z</time>
      </trkpt>
      <trkpt lat="45.76113" lon="6.71098">
        <ele>1971</ele>
        <time>2022-08-26T21:51:48Z</time>
      </trkpt>
      <trkpt lat="45.76113" lon="6.71097">
        <ele>1972</ele>
        <time>2022-08-26T21:51:49Z</time>
      </trkpt>
      <trkpt lat="45.7611" lon="6.71096">
        <ele>1973</ele>
        <time>2022-08-26T21:51:52Z</time>
      </trkpt>
      <trkpt lat="45.76108" lon="6.71096">
        <ele>1973</ele>
        <time>2022-08-26T21:51:54Z</time>
      </trkpt>
      <trkpt lat="45.76106" lon="6.71095">
        <ele>1973</ele>
        <time>2022-08-26T21:51:55Z</time>
      </trkpt>
      <trkpt lat="45.76105" lon="6.71095">
        <ele>1973</ele>
        <time>2022-08-26T21:51:56Z</time>
      </trkpt>
      <trkpt lat="45.76104" lon="6.71095">
        <ele>1974</ele>
        <time>2022-08-26T21:51:57Z</time>
      </trkpt>
      <trkpt lat="45.76103" lon="6.71095">
        <ele>1974</ele>
        <time>2022-08-26T21:51:58Z</time>
      </trkpt>
      <trkpt lat="45.76102" lon="6.71095">
        <ele>1974</ele>
        <time>2022-08-26T21:51:59Z</time>
      </trkpt>
      <trkpt lat="45.761" lon="6.71095">
        <ele>1975</ele>
        <time>2022-08-26T21:52:02Z</time>
      </trkpt>
      <trkpt lat="45.76097" lon="6.71095">
        <ele>1975</ele>
        <time>2022-08-26T21:52:04Z</time>
      </trkpt>
      <trkpt lat="45.76096" lon="6.71094">
        <ele>1975</ele>
        <time>2022-08-26T21:52:06Z</time>
      </trkpt>
      <trkpt lat="45.76093" lon="6.71095">
        <ele>1975</ele>
        <time>2022-08-26T21:52:08Z</time>
      </trkpt>
      <trkpt lat="45.76091" lon="6.71095">
        <ele>1976</ele>
        <time>2022-08-26T21:52:11Z</time>
      </trkpt>
      <trkpt lat="45.76089" lon="6.71096">
        <ele>1976</ele>
        <time>2022-08-26T21:52:12Z</time>
      </trkpt>
      <trkpt lat="45.76087" lon="6.71097">
        <ele>1977</ele>
        <time>2022-08-26T21:52:15Z</time>
      </trkpt>
      <trkpt lat="45.76084" lon="6.71097">
        <ele>1977</ele>
        <time>2022-08-26T21:52:16Z</time>
      </trkpt>
      <trkpt lat="45.76082" lon="6.71097">
        <ele>1978</ele>
        <time>2022-08-26T21:52:18Z</time>
      </trkpt>
      <trkpt lat="45.7608" lon="6.71097">
        <ele>1978</ele>
        <time>2022-08-26T21:52:21Z</time>
      </trkpt>
      <trkpt lat="45.76079" lon="6.71098">
        <ele>1979</ele>
        <time>2022-08-26T21:52:23Z</time>
      </trkpt>
      <trkpt lat="45.76078" lon="6.71098">
        <ele>1979</ele>
        <time>2022-08-26T21:52:24Z</time>
      </trkpt>
      <trkpt lat="45.76077" lon="6.71098">
        <ele>1980</ele>
        <time>2022-08-26T21:52:25Z</time>
      </trkpt>
      <trkpt lat="45.76076" lon="6.71099">
        <ele>1980</ele>
        <time>2022-08-26T21:52:27Z</time>
      </trkpt>
      <trkpt lat="45.76075" lon="6.71099">
        <ele>1980</ele>
        <time>2022-08-26T21:52:28Z</time>
      </trkpt>
      <trkpt lat="45.76074" lon="6.71099">
        <ele>1980</ele>
        <time>2022-08-26T21:52:29Z</time>
      </trkpt>
      <trkpt lat="45.76072" lon="6.711">
        <ele>1980</ele>
        <time>2022-08-26T21:52:30Z</time>
      </trkpt>
      <trkpt lat="45.76071" lon="6.711">
        <ele>1980</ele>
        <time>2022-08-26T21:52:31Z</time>
      </trkpt>
      <trkpt lat="45.7607" lon="6.711">
        <ele>1980</ele>
        <time>2022-08-26T21:52:32Z</time>
      </trkpt>
      <trkpt lat="45.76065" lon="6.71101">
        <ele>1981</ele>
        <time>2022-08-26T21:52:37Z</time>
      </trkpt>
      <trkpt lat="45.76062" lon="6.71102">
        <ele>1982</ele>
        <time>2022-08-26T21:52:39Z</time>
      </trkpt>
      <trkpt lat="45.76059" lon="6.71102">
        <ele>1983</ele>
        <time>2022-08-26T21:52:42Z</time>
      </trkpt>
      <trkpt lat="45.76057" lon="6.71102">
        <ele>1983</ele>
        <time>2022-08-26T21:52:43Z</time>
      </trkpt>
      <trkpt lat="45.76053" lon="6.71102">
        <ele>1984</ele>
        <time>2022-08-26T21:52:49Z</time>
      </trkpt>
      <trkpt lat="45.7605" lon="6.71102">
        <ele>1984</ele>
        <time>2022-08-26T21:52:51Z</time>
      </trkpt>
      <trkpt lat="45.76048" lon="6.71103">
        <ele>1985</ele>
        <time>2022-08-26T21:52:54Z</time>
      </trkpt>
      <trkpt lat="45.76047" lon="6.71104">
        <ele>1986</ele>
        <time>2022-08-26T21:52:56Z</time>
      </trkpt>
      <trkpt lat="45.76044" lon="6.71108">
        <ele>1986</ele>
        <time>2022-08-26T21:53:00Z</time>
      </trkpt>
      <trkpt lat="45.76042" lon="6.71109">
        <ele>1988</ele>
        <time>2022-08-26T21:53:01Z</time>
      </trkpt>
      <trkpt lat="45.76041" lon="6.7111">
        <ele>1988</ele>
        <time>2022-08-26T21:53:02Z</time>
      </trkpt>
      <trkpt lat="45.7604" lon="6.7111">
        <ele>1988</ele>
        <time>2022-08-26T21:53:03Z</time>
      </trkpt>
      <trkpt lat="45.76039" lon="6.71111">
        <ele>1988</ele>
        <time>2022-08-26T21:53:05Z</time>
      </trkpt>
      <trkpt lat="45.76038" lon="6.71111">
        <ele>1989</ele>
        <time>2022-08-26T21:53:06Z</time>
      </trkpt>
      <trkpt lat="45.76037" lon="6.71112">
        <ele>1989</ele>
        <time>2022-08-26T21:53:07Z</time>
      </trkpt>
      <trkpt lat="45.76036" lon="6.71113">
        <ele>1989</ele>
        <time>2022-08-26T21:53:08Z</time>
      </trkpt>
      <trkpt lat="45.76035" lon="6.71113">
        <ele>1990</ele>
        <time>2022-08-26T21:53:10Z</time>
      </trkpt>
      <trkpt lat="45.76034" lon="6.71114">
        <ele>1990</ele>
        <time>2022-08-26T21:53:11Z</time>
      </trkpt>
      <trkpt lat="45.76033" lon="6.71114">
        <ele>1990</ele>
        <time>2022-08-26T21:53:12Z</time>
      </trkpt>
      <trkpt lat="45.76032" lon="6.71115">
        <ele>1990</ele>
        <time>2022-08-26T21:53:13Z</time>
      </trkpt>
      <trkpt lat="45.7603" lon="6.71115">
        <ele>1990</ele>
        <time>2022-08-26T21:53:15Z</time>
      </trkpt>
      <trkpt lat="45.76028" lon="6.71116">
        <ele>1991</ele>
        <time>2022-08-26T21:53:17Z</time>
      </trkpt>
      <trkpt lat="45.76026" lon="6.71117">
        <ele>1992</ele>
        <time>2022-08-26T21:53:20Z</time>
      </trkpt>
      <trkpt lat="45.76024" lon="6.71118">
        <ele>1992</ele>
        <time>2022-08-26T21:53:22Z</time>
      </trkpt>
      <trkpt lat="45.76021" lon="6.71118">
        <ele>1993</ele>
        <time>2022-08-26T21:53:25Z</time>
      </trkpt>
      <trkpt lat="45.76019" lon="6.71119">
        <ele>1993</ele>
        <time>2022-08-26T21:53:27Z</time>
      </trkpt>
      <trkpt lat="45.76017" lon="6.71119">
        <ele>1993</ele>
        <time>2022-08-26T21:53:28Z</time>
      </trkpt>
      <trkpt lat="45.76015" lon="6.71119">
        <ele>1994</ele>
        <time>2022-08-26T21:53:31Z</time>
      </trkpt>
      <trkpt lat="45.76013" lon="6.71118">
        <ele>1994</ele>
        <time>2022-08-26T21:53:32Z</time>
      </trkpt>
      <trkpt lat="45.76011" lon="6.71118">
        <ele>1995</ele>
        <time>2022-08-26T21:53:35Z</time>
      </trkpt>
      <trkpt lat="45.76009" lon="6.71117">
        <ele>1996</ele>
        <time>2022-08-26T21:53:39Z</time>
      </trkpt>
      <trkpt lat="45.76006" lon="6.71117">
        <ele>1997</ele>
        <time>2022-08-26T21:53:43Z</time>
      </trkpt>
      <trkpt lat="45.76004" lon="6.71115">
        <ele>1997</ele>
        <time>2022-08-26T21:53:45Z</time>
      </trkpt>
      <trkpt lat="45.76002" lon="6.71115">
        <ele>1997</ele>
        <time>2022-08-26T21:53:46Z</time>
      </trkpt>
      <trkpt lat="45.76001" lon="6.71114">
        <ele>1997</ele>
        <time>2022-08-26T21:53:47Z</time>
      </trkpt>
      <trkpt lat="45.76" lon="6.71114">
        <ele>1998</ele>
        <time>2022-08-26T21:53:48Z</time>
      </trkpt>
      <trkpt lat="45.75997" lon="6.71113">
        <ele>1999</ele>
        <time>2022-08-26T21:53:51Z</time>
      </trkpt>
      <trkpt lat="45.75995" lon="6.71111">
        <ele>1999</ele>
        <time>2022-08-26T21:53:54Z</time>
      </trkpt>
      <trkpt lat="45.75993" lon="6.71109">
        <ele>1999</ele>
        <time>2022-08-26T21:53:56Z</time>
      </trkpt>
      <trkpt lat="45.75992" lon="6.71107">
        <ele>2000</ele>
        <time>2022-08-26T21:53:58Z</time>
      </trkpt>
      <trkpt lat="45.7599" lon="6.71106">
        <ele>2001</ele>
        <time>2022-08-26T21:54:01Z</time>
      </trkpt>
      <trkpt lat="45.75988" lon="6.71104">
        <ele>2001</ele>
        <time>2022-08-26T21:54:04Z</time>
      </trkpt>
      <trkpt lat="45.75986" lon="6.71103">
        <ele>2002</ele>
        <time>2022-08-26T21:54:06Z</time>
      </trkpt>
      <trkpt lat="45.75984" lon="6.71102">
        <ele>2003</ele>
        <time>2022-08-26T21:54:09Z</time>
      </trkpt>
      <trkpt lat="45.75982" lon="6.711">
        <ele>2003</ele>
        <time>2022-08-26T21:54:10Z</time>
      </trkpt>
      <trkpt lat="45.75981" lon="6.71098">
        <ele>2003</ele>
        <time>2022-08-26T21:54:12Z</time>
      </trkpt>
      <trkpt lat="45.75979" lon="6.71096">
        <ele>2004</ele>
        <time>2022-08-26T21:54:16Z</time>
      </trkpt>
      <trkpt lat="45.75977" lon="6.71095">
        <ele>2004</ele>
        <time>2022-08-26T21:54:18Z</time>
      </trkpt>
      <trkpt lat="45.75976" lon="6.71094">
        <ele>2005</ele>
        <time>2022-08-26T21:54:19Z</time>
      </trkpt>
      <trkpt lat="45.75973" lon="6.71092">
        <ele>2005</ele>
        <time>2022-08-26T21:54:21Z</time>
      </trkpt>
      <trkpt lat="45.75972" lon="6.71091">
        <ele>2005</ele>
        <time>2022-08-26T21:54:23Z</time>
      </trkpt>
      <trkpt lat="45.7597" lon="6.71089">
        <ele>2006</ele>
        <time>2022-08-26T21:54:26Z</time>
      </trkpt>
      <trkpt lat="45.75968" lon="6.71087">
        <ele>2007</ele>
        <time>2022-08-26T21:54:28Z</time>
      </trkpt>
      <trkpt lat="45.75967" lon="6.71085">
        <ele>2007</ele>
        <time>2022-08-26T21:54:29Z</time>
      </trkpt>
      <trkpt lat="45.75965" lon="6.71084">
        <ele>2007</ele>
        <time>2022-08-26T21:54:31Z</time>
      </trkpt>
      <trkpt lat="45.75963" lon="6.71083">
        <ele>2007</ele>
        <time>2022-08-26T21:54:33Z</time>
      </trkpt>
      <trkpt lat="45.75961" lon="6.71082">
        <ele>2007</ele>
        <time>2022-08-26T21:54:35Z</time>
      </trkpt>
      <trkpt lat="45.75959" lon="6.71081">
        <ele>2008</ele>
        <time>2022-08-26T21:54:38Z</time>
      </trkpt>
      <trkpt lat="45.75958" lon="6.71079">
        <ele>2008</ele>
        <time>2022-08-26T21:54:39Z</time>
      </trkpt>
      <trkpt lat="45.75956" lon="6.71077">
        <ele>2009</ele>
        <time>2022-08-26T21:54:42Z</time>
      </trkpt>
      <trkpt lat="45.75954" lon="6.71076">
        <ele>2009</ele>
        <time>2022-08-26T21:54:44Z</time>
      </trkpt>
      <trkpt lat="45.75952" lon="6.71075">
        <ele>2009</ele>
        <time>2022-08-26T21:54:45Z</time>
      </trkpt>
      <trkpt lat="45.7595" lon="6.71074">
        <ele>2010</ele>
        <time>2022-08-26T21:54:48Z</time>
      </trkpt>
      <trkpt lat="45.75948" lon="6.71073">
        <ele>2010</ele>
        <time>2022-08-26T21:54:50Z</time>
      </trkpt>
      <trkpt lat="45.75946" lon="6.71072">
        <ele>2011</ele>
        <time>2022-08-26T21:54:52Z</time>
      </trkpt>
      <trkpt lat="45.75944" lon="6.7107">
        <ele>2012</ele>
        <time>2022-08-26T21:54:55Z</time>
      </trkpt>
      <trkpt lat="45.75942" lon="6.71068">
        <ele>2012</ele>
        <time>2022-08-26T21:54:56Z</time>
      </trkpt>
      <trkpt lat="45.75941" lon="6.71067">
        <ele>2012</ele>
        <time>2022-08-26T21:54:59Z</time>
      </trkpt>
      <trkpt lat="45.75938" lon="6.71065">
        <ele>2012</ele>
        <time>2022-08-26T21:55:02Z</time>
      </trkpt>
      <trkpt lat="45.75937" lon="6.71063">
        <ele>2014</ele>
        <time>2022-08-26T21:55:03Z</time>
      </trkpt>
      <trkpt lat="45.75935" lon="6.71062">
        <ele>2015</ele>
        <time>2022-08-26T21:55:06Z</time>
      </trkpt>
      <trkpt lat="45.75933" lon="6.7106">
        <ele>2015</ele>
        <time>2022-08-26T21:55:07Z</time>
      </trkpt>
      <trkpt lat="45.75932" lon="6.71059">
        <ele>2016</ele>
        <time>2022-08-26T21:55:09Z</time>
      </trkpt>
      <trkpt lat="45.7593" lon="6.71058">
        <ele>2016</ele>
        <time>2022-08-26T21:55:11Z</time>
      </trkpt>
      <trkpt lat="45.75929" lon="6.71057">
        <ele>2017</ele>
        <time>2022-08-26T21:55:14Z</time>
      </trkpt>
      <trkpt lat="45.75927" lon="6.71056">
        <ele>2017</ele>
        <time>2022-08-26T21:55:16Z</time>
      </trkpt>
      <trkpt lat="45.75925" lon="6.71054">
        <ele>2017</ele>
        <time>2022-08-26T21:55:17Z</time>
      </trkpt>
      <trkpt lat="45.75923" lon="6.71052">
        <ele>2017</ele>
        <time>2022-08-26T21:55:20Z</time>
      </trkpt>
      <trkpt lat="45.75921" lon="6.71051">
        <ele>2018</ele>
        <time>2022-08-26T21:55:22Z</time>
      </trkpt>
      <trkpt lat="45.7592" lon="6.7105">
        <ele>2018</ele>
        <time>2022-08-26T21:55:25Z</time>
      </trkpt>
      <trkpt lat="45.75918" lon="6.71048">
        <ele>2019</ele>
        <time>2022-08-26T21:55:27Z</time>
      </trkpt>
      <trkpt lat="45.75915" lon="6.71047">
        <ele>2020</ele>
        <time>2022-08-26T21:55:30Z</time>
      </trkpt>
      <trkpt lat="45.75913" lon="6.71046">
        <ele>2020</ele>
        <time>2022-08-26T21:55:32Z</time>
      </trkpt>
      <trkpt lat="45.75912" lon="6.71045">
        <ele>2020</ele>
        <time>2022-08-26T21:55:33Z</time>
      </trkpt>
      <trkpt lat="45.7591" lon="6.71044">
        <ele>2020</ele>
        <time>2022-08-26T21:55:35Z</time>
      </trkpt>
      <trkpt lat="45.75908" lon="6.71043">
        <ele>2021</ele>
        <time>2022-08-26T21:55:39Z</time>
      </trkpt>
      <trkpt lat="45.75906" lon="6.71041">
        <ele>2022</ele>
        <time>2022-08-26T21:55:42Z</time>
      </trkpt>
      <trkpt lat="45.75903" lon="6.71041">
        <ele>2023</ele>
        <time>2022-08-26T21:55:44Z</time>
      </trkpt>
      <trkpt lat="45.75902" lon="6.7104">
        <ele>2023</ele>
        <time>2022-08-26T21:55:46Z</time>
      </trkpt>
      <trkpt lat="45.75899" lon="6.71041">
        <ele>2024</ele>
        <time>2022-08-26T21:55:50Z</time>
      </trkpt>
      <trkpt lat="45.75897" lon="6.71042">
        <ele>2025</ele>
        <time>2022-08-26T21:55:53Z</time>
      </trkpt>
      <trkpt lat="45.75895" lon="6.71043">
        <ele>2026</ele>
        <time>2022-08-26T21:55:55Z</time>
      </trkpt>
      <trkpt lat="45.75893" lon="6.71045">
        <ele>2026</ele>
        <time>2022-08-26T21:55:58Z</time>
      </trkpt>
      <trkpt lat="45.7589" lon="6.71047">
        <ele>2027</ele>
        <time>2022-08-26T21:56:01Z</time>
      </trkpt>
      <trkpt lat="45.75889" lon="6.71049">
        <ele>2027</ele>
        <time>2022-08-26T21:56:03Z</time>
      </trkpt>
      <trkpt lat="45.75887" lon="6.71052">
        <ele>2027</ele>
        <time>2022-08-26T21:56:04Z</time>
      </trkpt>
      <trkpt lat="45.75886" lon="6.71055">
        <ele>2028</ele>
        <time>2022-08-26T21:56:06Z</time>
      </trkpt>
      <trkpt lat="45.75885" lon="6.71057">
        <ele>2028</ele>
        <time>2022-08-26T21:56:09Z</time>
      </trkpt>
      <trkpt lat="45.75884" lon="6.71059">
        <ele>2028</ele>
        <time>2022-08-26T21:56:11Z</time>
      </trkpt>
      <trkpt lat="45.75881" lon="6.71062">
        <ele>2028</ele>
        <time>2022-08-26T21:56:12Z</time>
      </trkpt>
      <trkpt lat="45.75879" lon="6.71064">
        <ele>2029</ele>
        <time>2022-08-26T21:56:15Z</time>
      </trkpt>
      <trkpt lat="45.75877" lon="6.71066">
        <ele>2029</ele>
        <time>2022-08-26T21:56:17Z</time>
      </trkpt>
      <trkpt lat="45.75875" lon="6.71067">
        <ele>2029</ele>
        <time>2022-08-26T21:56:18Z</time>
      </trkpt>
      <trkpt lat="45.75873" lon="6.71068">
        <ele>2029</ele>
        <time>2022-08-26T21:56:20Z</time>
      </trkpt>
      <trkpt lat="45.7587" lon="6.71068">
        <ele>2029</ele>
        <time>2022-08-26T21:56:22Z</time>
      </trkpt>
      <trkpt lat="45.75867" lon="6.71068">
        <ele>2029</ele>
        <time>2022-08-26T21:56:25Z</time>
      </trkpt>
      <trkpt lat="45.75865" lon="6.7107">
        <ele>2030</ele>
        <time>2022-08-26T21:56:27Z</time>
      </trkpt>
      <trkpt lat="45.75863" lon="6.71071">
        <ele>2030</ele>
        <time>2022-08-26T21:56:29Z</time>
      </trkpt>
      <trkpt lat="45.75861" lon="6.71072">
        <ele>2030</ele>
        <time>2022-08-26T21:56:30Z</time>
      </trkpt>
      <trkpt lat="45.75859" lon="6.71073">
        <ele>2031</ele>
        <time>2022-08-26T21:56:32Z</time>
      </trkpt>
      <trkpt lat="45.75857" lon="6.71074">
        <ele>2032</ele>
        <time>2022-08-26T21:56:35Z</time>
      </trkpt>
      <trkpt lat="45.75855" lon="6.71075">
        <ele>2032</ele>
        <time>2022-08-26T21:56:36Z</time>
      </trkpt>
      <trkpt lat="45.75852" lon="6.71075">
        <ele>2033</ele>
        <time>2022-08-26T21:56:39Z</time>
      </trkpt>
      <trkpt lat="45.7585" lon="6.71075">
        <ele>2033</ele>
        <time>2022-08-26T21:56:41Z</time>
      </trkpt>
      <trkpt lat="45.75848" lon="6.71074">
        <ele>2033</ele>
        <time>2022-08-26T21:56:44Z</time>
      </trkpt>
      <trkpt lat="45.75847" lon="6.71073">
        <ele>2033</ele>
        <time>2022-08-26T21:56:45Z</time>
      </trkpt>
      <trkpt lat="45.75844" lon="6.71072">
        <ele>2034</ele>
        <time>2022-08-26T21:56:49Z</time>
      </trkpt>
      <trkpt lat="45.75842" lon="6.71071">
        <ele>2035</ele>
        <time>2022-08-26T21:56:50Z</time>
      </trkpt>
      <trkpt lat="45.75841" lon="6.7107">
        <ele>2036</ele>
        <time>2022-08-26T21:56:52Z</time>
      </trkpt>
      <trkpt lat="45.75839" lon="6.7107">
        <ele>2036</ele>
        <time>2022-08-26T21:56:54Z</time>
      </trkpt>
      <trkpt lat="45.75836" lon="6.71069">
        <ele>2037</ele>
        <time>2022-08-26T21:56:58Z</time>
      </trkpt>
      <trkpt lat="45.75834" lon="6.71068">
        <ele>2037</ele>
        <time>2022-08-26T21:57:00Z</time>
      </trkpt>
      <trkpt lat="45.75832" lon="6.71068">
        <ele>2038</ele>
        <time>2022-08-26T21:57:03Z</time>
      </trkpt>
      <trkpt lat="45.7583" lon="6.71068">
        <ele>2040</ele>
        <time>2022-08-26T21:57:05Z</time>
      </trkpt>
      <trkpt lat="45.75828" lon="6.71068">
        <ele>2040</ele>
        <time>2022-08-26T21:57:07Z</time>
      </trkpt>
      <trkpt lat="45.75826" lon="6.71067">
        <ele>2040</ele>
        <time>2022-08-26T21:57:10Z</time>
      </trkpt>
      <trkpt lat="45.75823" lon="6.71068">
        <ele>2041</ele>
        <time>2022-08-26T21:57:13Z</time>
      </trkpt>
      <trkpt lat="45.75821" lon="6.71069">
        <ele>2041</ele>
        <time>2022-08-26T21:57:15Z</time>
      </trkpt>
      <trkpt lat="45.75819" lon="6.7107">
        <ele>2041</ele>
        <time>2022-08-26T21:57:17Z</time>
      </trkpt>
      <trkpt lat="45.75817" lon="6.7107">
        <ele>2042</ele>
        <time>2022-08-26T21:57:18Z</time>
      </trkpt>
      <trkpt lat="45.75815" lon="6.7107">
        <ele>2042</ele>
        <time>2022-08-26T21:57:20Z</time>
      </trkpt>
      <trkpt lat="45.75813" lon="6.71072">
        <ele>2043</ele>
        <time>2022-08-26T21:57:24Z</time>
      </trkpt>
      <trkpt lat="45.75811" lon="6.71073">
        <ele>2043</ele>
        <time>2022-08-26T21:57:26Z</time>
      </trkpt>
      <trkpt lat="45.75809" lon="6.71075">
        <ele>2044</ele>
        <time>2022-08-26T21:57:28Z</time>
      </trkpt>
      <trkpt lat="45.75809" lon="6.71078">
        <ele>2044</ele>
        <time>2022-08-26T21:57:30Z</time>
      </trkpt>
      <trkpt lat="45.75808" lon="6.7108">
        <ele>2044</ele>
        <time>2022-08-26T21:57:32Z</time>
      </trkpt>
      <trkpt lat="45.75808" lon="6.71083">
        <ele>2044</ele>
        <time>2022-08-26T21:57:33Z</time>
      </trkpt>
      <trkpt lat="45.75807" lon="6.71086">
        <ele>2045</ele>
        <time>2022-08-26T21:57:36Z</time>
      </trkpt>
      <trkpt lat="45.75806" lon="6.71089">
        <ele>2045</ele>
        <time>2022-08-26T21:57:38Z</time>
      </trkpt>
      <trkpt lat="45.75806" lon="6.71092">
        <ele>2045</ele>
        <time>2022-08-26T21:57:41Z</time>
      </trkpt>
      <trkpt lat="45.75806" lon="6.71095">
        <ele>2046</ele>
        <time>2022-08-26T21:57:44Z</time>
      </trkpt>
      <trkpt lat="45.75806" lon="6.71095">
        <ele>2045</ele>
        <time>2022-08-26T21:58:01Z</time>
      </trkpt>
      <trkpt lat="45.75806" lon="6.71095">
        <ele>2045</ele>
        <time>2022-08-26T21:58:18Z</time>
      </trkpt>
      <trkpt lat="45.75806" lon="6.71095">
        <ele>2046</ele>
        <time>2022-08-26T21:58:35Z</time>
      </trkpt>
      <trkpt lat="45.75805" lon="6.71098">
        <ele>2046</ele>
        <time>2022-08-26T21:58:44Z</time>
      </trkpt>
      <trkpt lat="45.75805" lon="6.71098">
        <ele>2046</ele>
        <time>2022-08-26T21:58:53Z</time>
      </trkpt>
      <trkpt lat="45.75807" lon="6.711">
        <ele>2046</ele>
        <time>2022-08-26T21:58:54Z</time>
      </trkpt>
      <trkpt lat="45.75807" lon="6.71102">
        <ele>2045</ele>
        <time>2022-08-26T21:59:00Z</time>
      </trkpt>
      <trkpt lat="45.75808" lon="6.71105">
        <ele>2046</ele>
        <time>2022-08-26T21:59:09Z</time>
      </trkpt>
      <trkpt lat="45.75808" lon="6.71105">
        <ele>2046</ele>
        <time>2022-08-26T21:59:13Z</time>
      </trkpt>
      <trkpt lat="45.75808" lon="6.71107">
        <ele>2046</ele>
        <time>2022-08-26T21:59:15Z</time>
      </trkpt>
      <trkpt lat="45.75807" lon="6.71104">
        <ele>2046</ele>
        <time>2022-08-26T21:59:35Z</time>
      </trkpt>
      <trkpt lat="45.75807" lon="6.71104">
        <ele>2046</ele>
        <time>2022-08-26T21:59:36Z</time>
      </trkpt>
      <trkpt lat="45.75808" lon="6.71106">
        <ele>2046</ele>
        <time>2022-08-26T21:59:54Z</time>
      </trkpt>
      <trkpt lat="45.75808" lon="6.71106">
        <ele>2046</ele>
        <time>2022-08-26T21:59:55Z</time>
      </trkpt>
      <trkpt lat="45.75808" lon="6.71109">
        <ele>2046</ele>
        <time>2022-08-26T22:00:01Z</time>
      </trkpt>
      <trkpt lat="45.75806" lon="6.71108">
        <ele>2046</ele>
        <time>2022-08-26T22:00:13Z</time>
      </trkpt>
      <trkpt lat="45.75806" lon="6.71108">
        <ele>2046</ele>
        <time>2022-08-26T22:00:18Z</time>
      </trkpt>
      <trkpt lat="45.75807" lon="6.71104">
        <ele>2046</ele>
        <time>2022-08-26T22:00:27Z</time>
      </trkpt>
      <trkpt lat="45.75805" lon="6.71103">
        <ele>2046</ele>
        <time>2022-08-26T22:00:29Z</time>
      </trkpt>
      <trkpt lat="45.75802" lon="6.71104">
        <ele>2047</ele>
        <time>2022-08-26T22:00:32Z</time>
      </trkpt>
      <trkpt lat="45.758" lon="6.71106">
        <ele>2047</ele>
        <time>2022-08-26T22:00:35Z</time>
      </trkpt>
      <trkpt lat="45.75798" lon="6.71107">
        <ele>2047</ele>
        <time>2022-08-26T22:00:37Z</time>
      </trkpt>
      <trkpt lat="45.75796" lon="6.71108">
        <ele>2047</ele>
        <time>2022-08-26T22:00:39Z</time>
      </trkpt>
      <trkpt lat="45.75794" lon="6.71109">
        <ele>2048</ele>
        <time>2022-08-26T22:00:42Z</time>
      </trkpt>
      <trkpt lat="45.75792" lon="6.71109">
        <ele>2048</ele>
        <time>2022-08-26T22:00:44Z</time>
      </trkpt>
      <trkpt lat="45.7579" lon="6.7111">
        <ele>2048</ele>
        <time>2022-08-26T22:00:46Z</time>
      </trkpt>
      <trkpt lat="45.75788" lon="6.7111">
        <ele>2049</ele>
        <time>2022-08-26T22:00:50Z</time>
      </trkpt>
      <trkpt lat="45.75786" lon="6.71109">
        <ele>2049</ele>
        <time>2022-08-26T22:00:53Z</time>
      </trkpt>
      <trkpt lat="45.75784" lon="6.71109">
        <ele>2049</ele>
        <time>2022-08-26T22:00:55Z</time>
      </trkpt>
      <trkpt lat="45.75784" lon="6.71109">
        <ele>2049</ele>
        <time>2022-08-26T22:01:11Z</time>
      </trkpt>
      <trkpt lat="45.75782" lon="6.71109">
        <ele>2049</ele>
        <time>2022-08-26T22:01:21Z</time>
      </trkpt>
      <trkpt lat="45.75782" lon="6.71109">
        <ele>2049</ele>
        <time>2022-08-26T22:01:29Z</time>
      </trkpt>
      <trkpt lat="45.75781" lon="6.71111">
        <ele>2049</ele>
        <time>2022-08-26T22:01:31Z</time>
      </trkpt>
      <trkpt lat="45.75781" lon="6.71111">
        <ele>2050</ele>
        <time>2022-08-26T22:01:49Z</time>
      </trkpt>
      <trkpt lat="45.75779" lon="6.71109">
        <ele>2050</ele>
        <time>2022-08-26T22:01:54Z</time>
      </trkpt>
      <trkpt lat="45.75779" lon="6.71109">
        <ele>2050</ele>
        <time>2022-08-26T22:02:10Z</time>
      </trkpt>
      <trkpt lat="45.75779" lon="6.71109">
        <ele>2050</ele>
        <time>2022-08-26T22:02:29Z</time>
      </trkpt>
      <trkpt lat="45.75777" lon="6.71105">
        <ele>2051</ele>
        <time>2022-08-26T22:02:49Z</time>
      </trkpt>
      <trkpt lat="45.75777" lon="6.71105">
        <ele>2051</ele>
        <time>2022-08-26T22:02:52Z</time>
      </trkpt>
      <trkpt lat="45.75775" lon="6.71104">
        <ele>2051</ele>
        <time>2022-08-26T22:02:54Z</time>
      </trkpt>
      <trkpt lat="45.75773" lon="6.71106">
        <ele>2051</ele>
        <time>2022-08-26T22:02:59Z</time>
      </trkpt>
      <trkpt lat="45.75773" lon="6.71105">
        <ele>2051</ele>
        <time>2022-08-26T22:03:01Z</time>
      </trkpt>
      <trkpt lat="45.75773" lon="6.71104">
        <ele>2051</ele>
        <time>2022-08-26T22:03:02Z</time>
      </trkpt>
      <trkpt lat="45.75772" lon="6.71104">
        <ele>2051</ele>
        <time>2022-08-26T22:03:03Z</time>
      </trkpt>
      <trkpt lat="45.75772" lon="6.71103">
        <ele>2051</ele>
        <time>2022-08-26T22:03:04Z</time>
      </trkpt>
      <trkpt lat="45.75772" lon="6.71102">
        <ele>2051</ele>
        <time>2022-08-26T22:03:05Z</time>
      </trkpt>
      <trkpt lat="45.75772" lon="6.71102">
        <ele>2051</ele>
        <time>2022-08-26T22:03:06Z</time>
      </trkpt>
      <trkpt lat="45.75771" lon="6.71101">
        <ele>2051</ele>
        <time>2022-08-26T22:03:07Z</time>
      </trkpt>
      <trkpt lat="45.75771" lon="6.711">
        <ele>2051</ele>
        <time>2022-08-26T22:03:08Z</time>
      </trkpt>
      <trkpt lat="45.75771" lon="6.711">
        <ele>2051</ele>
        <time>2022-08-26T22:03:09Z</time>
      </trkpt>
      <trkpt lat="45.75771" lon="6.71099">
        <ele>2051</ele>
        <time>2022-08-26T22:03:10Z</time>
      </trkpt>
      <trkpt lat="45.7577" lon="6.71098">
        <ele>2050</ele>
        <time>2022-08-26T22:03:11Z</time>
      </trkpt>
      <trkpt lat="45.7577" lon="6.71098">
        <ele>2050</ele>
        <time>2022-08-26T22:03:13Z</time>
      </trkpt>
      <trkpt lat="45.7577" lon="6.71097">
        <ele>2050</ele>
        <time>2022-08-26T22:03:14Z</time>
      </trkpt>
      <trkpt lat="45.75769" lon="6.71096">
        <ele>2050</ele>
        <time>2022-08-26T22:03:15Z</time>
      </trkpt>
      <trkpt lat="45.75769" lon="6.71096">
        <ele>2050</ele>
        <time>2022-08-26T22:03:16Z</time>
      </trkpt>
      <trkpt lat="45.75769" lon="6.71095">
        <ele>2051</ele>
        <time>2022-08-26T22:03:18Z</time>
      </trkpt>
      <trkpt lat="45.75769" lon="6.71095">
        <ele>2051</ele>
        <time>2022-08-26T22:03:19Z</time>
      </trkpt>
      <trkpt lat="45.75768" lon="6.71094">
        <ele>2051</ele>
        <time>2022-08-26T22:03:20Z</time>
      </trkpt>
      <trkpt lat="45.75766" lon="6.71093">
        <ele>2051</ele>
        <time>2022-08-26T22:03:22Z</time>
      </trkpt>
      <trkpt lat="45.75764" lon="6.71091">
        <ele>2052</ele>
        <time>2022-08-26T22:03:24Z</time>
      </trkpt>
      <trkpt lat="45.75762" lon="6.7109">
        <ele>2053</ele>
        <time>2022-08-26T22:03:27Z</time>
      </trkpt>
      <trkpt lat="45.7576" lon="6.71089">
        <ele>2053</ele>
        <time>2022-08-26T22:03:28Z</time>
      </trkpt>
      <trkpt lat="45.75759" lon="6.71087">
        <ele>2053</ele>
        <time>2022-08-26T22:03:30Z</time>
      </trkpt>
      <trkpt lat="45.75758" lon="6.71084">
        <ele>2053</ele>
        <time>2022-08-26T22:03:33Z</time>
      </trkpt>
      <trkpt lat="45.75757" lon="6.71081">
        <ele>2053</ele>
        <time>2022-08-26T22:03:35Z</time>
      </trkpt>
      <trkpt lat="45.75755" lon="6.71079">
        <ele>2053</ele>
        <time>2022-08-26T22:03:39Z</time>
      </trkpt>
      <trkpt lat="45.75753" lon="6.71077">
        <ele>2054</ele>
        <time>2022-08-26T22:03:42Z</time>
      </trkpt>
      <trkpt lat="45.75751" lon="6.71076">
        <ele>2054</ele>
        <time>2022-08-26T22:03:44Z</time>
      </trkpt>
      <trkpt lat="45.7575" lon="6.71074">
        <ele>2055</ele>
        <time>2022-08-26T22:03:47Z</time>
      </trkpt>
      <trkpt lat="45.75748" lon="6.71072">
        <ele>2055</ele>
        <time>2022-08-26T22:03:51Z</time>
      </trkpt>
      <trkpt lat="45.75747" lon="6.7107">
        <ele>2056</ele>
        <time>2022-08-26T22:03:53Z</time>
      </trkpt>
      <trkpt lat="45.75746" lon="6.71068">
        <ele>2056</ele>
        <time>2022-08-26T22:03:54Z</time>
      </trkpt>
      <trkpt lat="45.75745" lon="6.71067">
        <ele>2056</ele>
        <time>2022-08-26T22:03:55Z</time>
      </trkpt>
      <trkpt lat="45.75743" lon="6.71065">
        <ele>2056</ele>
        <time>2022-08-26T22:03:59Z</time>
      </trkpt>
      <trkpt lat="45.75741" lon="6.71064">
        <ele>2057</ele>
        <time>2022-08-26T22:04:01Z</time>
      </trkpt>
      <trkpt lat="45.7574" lon="6.71063">
        <ele>2057</ele>
        <time>2022-08-26T22:04:03Z</time>
      </trkpt>
      <trkpt lat="45.75738" lon="6.71062">
        <ele>2058</ele>
        <time>2022-08-26T22:04:05Z</time>
      </trkpt>
      <trkpt lat="45.75736" lon="6.71062">
        <ele>2058</ele>
        <time>2022-08-26T22:04:07Z</time>
      </trkpt>
      <trkpt lat="45.75733" lon="6.71061">
        <ele>2058</ele>
        <time>2022-08-26T22:04:10Z</time>
      </trkpt>
      <trkpt lat="45.75731" lon="6.71061">
        <ele>2058</ele>
        <time>2022-08-26T22:04:11Z</time>
      </trkpt>
      <trkpt lat="45.75724" lon="6.71053">
        <ele>2060</ele>
        <time>2022-08-26T22:04:22Z</time>
      </trkpt>
      <trkpt lat="45.75723" lon="6.71052">
        <ele>2060</ele>
        <time>2022-08-26T22:04:24Z</time>
      </trkpt>
      <trkpt lat="45.75722" lon="6.71051">
        <ele>2060</ele>
        <time>2022-08-26T22:04:25Z</time>
      </trkpt>
      <trkpt lat="45.75721" lon="6.7105">
        <ele>2060</ele>
        <time>2022-08-26T22:04:26Z</time>
      </trkpt>
      <trkpt lat="45.7572" lon="6.71049">
        <ele>2060</ele>
        <time>2022-08-26T22:04:27Z</time>
      </trkpt>
      <trkpt lat="45.75719" lon="6.71048">
        <ele>2060</ele>
        <time>2022-08-26T22:04:29Z</time>
      </trkpt>
      <trkpt lat="45.75718" lon="6.71047">
        <ele>2060</ele>
        <time>2022-08-26T22:04:30Z</time>
      </trkpt>
      <trkpt lat="45.75717" lon="6.71046">
        <ele>2060</ele>
        <time>2022-08-26T22:04:31Z</time>
      </trkpt>
      <trkpt lat="45.75716" lon="6.71044">
        <ele>2060</ele>
        <time>2022-08-26T22:04:32Z</time>
      </trkpt>
      <trkpt lat="45.75713" lon="6.71043">
        <ele>2062</ele>
        <time>2022-08-26T22:04:36Z</time>
      </trkpt>
      <trkpt lat="45.7571" lon="6.71042">
        <ele>2062</ele>
        <time>2022-08-26T22:04:38Z</time>
      </trkpt>
      <trkpt lat="45.75708" lon="6.7104">
        <ele>2063</ele>
        <time>2022-08-26T22:04:41Z</time>
      </trkpt>
      <trkpt lat="45.75706" lon="6.71038">
        <ele>2063</ele>
        <time>2022-08-26T22:04:43Z</time>
      </trkpt>
      <trkpt lat="45.75704" lon="6.71036">
        <ele>2064</ele>
        <time>2022-08-26T22:04:47Z</time>
      </trkpt>
      <trkpt lat="45.75704" lon="6.71035">
        <ele>2064</ele>
        <time>2022-08-26T22:04:49Z</time>
      </trkpt>
      <trkpt lat="45.75703" lon="6.71033">
        <ele>2066</ele>
        <time>2022-08-26T22:04:51Z</time>
      </trkpt>
      <trkpt lat="45.75703" lon="6.71032">
        <ele>2066</ele>
        <time>2022-08-26T22:04:52Z</time>
      </trkpt>
      <trkpt lat="45.75702" lon="6.71031">
        <ele>2066</ele>
        <time>2022-08-26T22:04:53Z</time>
      </trkpt>
      <trkpt lat="45.75702" lon="6.7103">
        <ele>2066</ele>
        <time>2022-08-26T22:04:55Z</time>
      </trkpt>
      <trkpt lat="45.75701" lon="6.71029">
        <ele>2066</ele>
        <time>2022-08-26T22:04:56Z</time>
      </trkpt>
      <trkpt lat="45.757" lon="6.71027">
        <ele>2066</ele>
        <time>2022-08-26T22:04:57Z</time>
      </trkpt>
      <trkpt lat="45.757" lon="6.71026">
        <ele>2067</ele>
        <time>2022-08-26T22:04:59Z</time>
      </trkpt>
      <trkpt lat="45.75699" lon="6.71025">
        <ele>2067</ele>
        <time>2022-08-26T22:05:00Z</time>
      </trkpt>
      <trkpt lat="45.75699" lon="6.71024">
        <ele>2067</ele>
        <time>2022-08-26T22:05:01Z</time>
      </trkpt>
      <trkpt lat="45.75698" lon="6.71023">
        <ele>2067</ele>
        <time>2022-08-26T22:05:02Z</time>
      </trkpt>
      <trkpt lat="45.75698" lon="6.71022">
        <ele>2068</ele>
        <time>2022-08-26T22:05:04Z</time>
      </trkpt>
      <trkpt lat="45.75697" lon="6.71021">
        <ele>2068</ele>
        <time>2022-08-26T22:05:05Z</time>
      </trkpt>
      <trkpt lat="45.75697" lon="6.7102">
        <ele>2068</ele>
        <time>2022-08-26T22:05:06Z</time>
      </trkpt>
      <trkpt lat="45.75696" lon="6.71018">
        <ele>2068</ele>
        <time>2022-08-26T22:05:07Z</time>
      </trkpt>
      <trkpt lat="45.75695" lon="6.71018">
        <ele>2068</ele>
        <time>2022-08-26T22:05:10Z</time>
      </trkpt>
      <trkpt lat="45.75693" lon="6.71018">
        <ele>2069</ele>
        <time>2022-08-26T22:05:12Z</time>
      </trkpt>
      <trkpt lat="45.75691" lon="6.71018">
        <ele>2070</ele>
        <time>2022-08-26T22:05:16Z</time>
      </trkpt>
      <trkpt lat="45.75689" lon="6.71019">
        <ele>2071</ele>
        <time>2022-08-26T22:05:19Z</time>
      </trkpt>
      <trkpt lat="45.75687" lon="6.7102">
        <ele>2072</ele>
        <time>2022-08-26T22:05:24Z</time>
      </trkpt>
      <trkpt lat="45.75686" lon="6.71018">
        <ele>2073</ele>
        <time>2022-08-26T22:05:28Z</time>
      </trkpt>
      <trkpt lat="45.75685" lon="6.71016">
        <ele>2073</ele>
        <time>2022-08-26T22:05:31Z</time>
      </trkpt>
      <trkpt lat="45.75685" lon="6.71013">
        <ele>2073</ele>
        <time>2022-08-26T22:05:33Z</time>
      </trkpt>
      <trkpt lat="45.75685" lon="6.7101">
        <ele>2073</ele>
        <time>2022-08-26T22:05:36Z</time>
      </trkpt>
      <trkpt lat="45.75685" lon="6.71007">
        <ele>2074</ele>
        <time>2022-08-26T22:05:40Z</time>
      </trkpt>
      <trkpt lat="45.75686" lon="6.71003">
        <ele>2075</ele>
        <time>2022-08-26T22:05:42Z</time>
      </trkpt>
      <trkpt lat="45.75685" lon="6.71">
        <ele>2076</ele>
        <time>2022-08-26T22:05:46Z</time>
      </trkpt>
      <trkpt lat="45.75683" lon="6.70998">
        <ele>2078</ele>
        <time>2022-08-26T22:05:50Z</time>
      </trkpt>
      <trkpt lat="45.75682" lon="6.70996">
        <ele>2078</ele>
        <time>2022-08-26T22:05:54Z</time>
      </trkpt>
      <trkpt lat="45.75681" lon="6.70993">
        <ele>2078</ele>
        <time>2022-08-26T22:05:57Z</time>
      </trkpt>
      <trkpt lat="45.7568" lon="6.70992">
        <ele>2079</ele>
        <time>2022-08-26T22:06:00Z</time>
      </trkpt>
      <trkpt lat="45.75678" lon="6.70992">
        <ele>2080</ele>
        <time>2022-08-26T22:06:03Z</time>
      </trkpt>
      <trkpt lat="45.75676" lon="6.7099">
        <ele>2080</ele>
        <time>2022-08-26T22:06:07Z</time>
      </trkpt>
      <trkpt lat="45.75674" lon="6.70988">
        <ele>2080</ele>
        <time>2022-08-26T22:06:09Z</time>
      </trkpt>
      <trkpt lat="45.75674" lon="6.70985">
        <ele>2080</ele>
        <time>2022-08-26T22:06:12Z</time>
      </trkpt>
      <trkpt lat="45.75673" lon="6.70981">
        <ele>2081</ele>
        <time>2022-08-26T22:06:15Z</time>
      </trkpt>
      <trkpt lat="45.75672" lon="6.70979">
        <ele>2081</ele>
        <time>2022-08-26T22:06:19Z</time>
      </trkpt>
      <trkpt lat="45.7567" lon="6.70976">
        <ele>2082</ele>
        <time>2022-08-26T22:06:22Z</time>
      </trkpt>
      <trkpt lat="45.7567" lon="6.70973">
        <ele>2083</ele>
        <time>2022-08-26T22:06:25Z</time>
      </trkpt>
      <trkpt lat="45.7567" lon="6.70973">
        <ele>2083</ele>
        <time>2022-08-26T22:06:40Z</time>
      </trkpt>
      <trkpt lat="45.75672" lon="6.70975">
        <ele>2083</ele>
        <time>2022-08-26T22:06:44Z</time>
      </trkpt>
      <trkpt lat="45.75672" lon="6.70975">
        <ele>2083</ele>
        <time>2022-08-26T22:07:02Z</time>
      </trkpt>
      <trkpt lat="45.7567" lon="6.70975">
        <ele>2083</ele>
        <time>2022-08-26T22:07:17Z</time>
      </trkpt>
      <trkpt lat="45.7567" lon="6.70975">
        <ele>2083</ele>
        <time>2022-08-26T22:07:22Z</time>
      </trkpt>
      <trkpt lat="45.7567" lon="6.70975">
        <ele>2085</ele>
        <time>2022-08-26T22:07:42Z</time>
      </trkpt>
      <trkpt lat="45.75672" lon="6.70975">
        <ele>2084</ele>
        <time>2022-08-26T22:08:00Z</time>
      </trkpt>
      <trkpt lat="45.75672" lon="6.70975">
        <ele>2085</ele>
        <time>2022-08-26T22:08:05Z</time>
      </trkpt>
      <trkpt lat="45.7567" lon="6.70974">
        <ele>2084</ele>
        <time>2022-08-26T22:08:08Z</time>
      </trkpt>
      <trkpt lat="45.75668" lon="6.70971">
        <ele>2085</ele>
        <time>2022-08-26T22:08:12Z</time>
      </trkpt>
      <trkpt lat="45.75667" lon="6.70969">
        <ele>2085</ele>
        <time>2022-08-26T22:08:14Z</time>
      </trkpt>
      <trkpt lat="45.75666" lon="6.70967">
        <ele>2085</ele>
        <time>2022-08-26T22:08:15Z</time>
      </trkpt>
      <trkpt lat="45.75665" lon="6.70964">
        <ele>2086</ele>
        <time>2022-08-26T22:08:18Z</time>
      </trkpt>
      <trkpt lat="45.75665" lon="6.70961">
        <ele>2086</ele>
        <time>2022-08-26T22:08:21Z</time>
      </trkpt>
      <trkpt lat="45.75664" lon="6.70958">
        <ele>2087</ele>
        <time>2022-08-26T22:08:24Z</time>
      </trkpt>
      <trkpt lat="45.75663" lon="6.70955">
        <ele>2088</ele>
        <time>2022-08-26T22:08:26Z</time>
      </trkpt>
      <trkpt lat="45.75663" lon="6.70952">
        <ele>2088</ele>
        <time>2022-08-26T22:08:27Z</time>
      </trkpt>
      <trkpt lat="45.75663" lon="6.7095">
        <ele>2089</ele>
        <time>2022-08-26T22:08:30Z</time>
      </trkpt>
      <trkpt lat="45.75662" lon="6.70947">
        <ele>2089</ele>
        <time>2022-08-26T22:08:32Z</time>
      </trkpt>
      <trkpt lat="45.75661" lon="6.70944">
        <ele>2090</ele>
        <time>2022-08-26T22:08:39Z</time>
      </trkpt>
      <trkpt lat="45.7566" lon="6.7094">
        <ele>2093</ele>
        <time>2022-08-26T22:08:42Z</time>
      </trkpt>
      <trkpt lat="45.75659" lon="6.70937">
        <ele>2094</ele>
        <time>2022-08-26T22:08:44Z</time>
      </trkpt>
      <trkpt lat="45.75659" lon="6.70934">
        <ele>2094</ele>
        <time>2022-08-26T22:08:47Z</time>
      </trkpt>
      <trkpt lat="45.75658" lon="6.70932">
        <ele>2095</ele>
        <time>2022-08-26T22:08:52Z</time>
      </trkpt>
      <trkpt lat="45.75656" lon="6.7093">
        <ele>2095</ele>
        <time>2022-08-26T22:08:54Z</time>
      </trkpt>
      <trkpt lat="45.75655" lon="6.70928">
        <ele>2096</ele>
        <time>2022-08-26T22:08:57Z</time>
      </trkpt>
      <trkpt lat="45.75654" lon="6.70925">
        <ele>2096</ele>
        <time>2022-08-26T22:08:59Z</time>
      </trkpt>
      <trkpt lat="45.75652" lon="6.70922">
        <ele>2097</ele>
        <time>2022-08-26T22:09:02Z</time>
      </trkpt>
      <trkpt lat="45.75651" lon="6.70919">
        <ele>2097</ele>
        <time>2022-08-26T22:09:05Z</time>
      </trkpt>
      <trkpt lat="45.7565" lon="6.70916">
        <ele>2099</ele>
        <time>2022-08-26T22:09:08Z</time>
      </trkpt>
      <trkpt lat="45.75649" lon="6.70913">
        <ele>2099</ele>
        <time>2022-08-26T22:09:11Z</time>
      </trkpt>
      <trkpt lat="45.75648" lon="6.7091">
        <ele>2100</ele>
        <time>2022-08-26T22:09:15Z</time>
      </trkpt>
      <trkpt lat="45.75647" lon="6.70907">
        <ele>2101</ele>
        <time>2022-08-26T22:09:18Z</time>
      </trkpt>
      <trkpt lat="45.75646" lon="6.70904">
        <ele>2101</ele>
        <time>2022-08-26T22:09:21Z</time>
      </trkpt>
      <trkpt lat="45.75645" lon="6.70902">
        <ele>2102</ele>
        <time>2022-08-26T22:09:23Z</time>
      </trkpt>
      <trkpt lat="45.75644" lon="6.70899">
        <ele>2102</ele>
        <time>2022-08-26T22:09:27Z</time>
      </trkpt>
      <trkpt lat="45.75642" lon="6.70897">
        <ele>2103</ele>
        <time>2022-08-26T22:09:29Z</time>
      </trkpt>
      <trkpt lat="45.75641" lon="6.70896">
        <ele>2104</ele>
        <time>2022-08-26T22:09:33Z</time>
      </trkpt>
      <trkpt lat="45.75639" lon="6.70893">
        <ele>2104</ele>
        <time>2022-08-26T22:09:34Z</time>
      </trkpt>
      <trkpt lat="45.75639" lon="6.7089">
        <ele>2105</ele>
        <time>2022-08-26T22:09:38Z</time>
      </trkpt>
      <trkpt lat="45.75638" lon="6.70886">
        <ele>2105</ele>
        <time>2022-08-26T22:09:40Z</time>
      </trkpt>
      <trkpt lat="45.75638" lon="6.70884">
        <ele>2106</ele>
        <time>2022-08-26T22:09:44Z</time>
      </trkpt>
      <trkpt lat="45.75636" lon="6.70881">
        <ele>2106</ele>
        <time>2022-08-26T22:09:47Z</time>
      </trkpt>
      <trkpt lat="45.75635" lon="6.7088">
        <ele>2106</ele>
        <time>2022-08-26T22:09:48Z</time>
      </trkpt>
      <trkpt lat="45.75633" lon="6.70877">
        <ele>2107</ele>
        <time>2022-08-26T22:09:50Z</time>
      </trkpt>
      <trkpt lat="45.75632" lon="6.70875">
        <ele>2108</ele>
        <time>2022-08-26T22:09:53Z</time>
      </trkpt>
      <trkpt lat="45.75631" lon="6.70872">
        <ele>2109</ele>
        <time>2022-08-26T22:09:55Z</time>
      </trkpt>
      <trkpt lat="45.75629" lon="6.7087">
        <ele>2109</ele>
        <time>2022-08-26T22:09:56Z</time>
      </trkpt>
      <trkpt lat="45.75628" lon="6.70868">
        <ele>2109</ele>
        <time>2022-08-26T22:09:59Z</time>
      </trkpt>
      <trkpt lat="45.75626" lon="6.70865">
        <ele>2109</ele>
        <time>2022-08-26T22:10:00Z</time>
      </trkpt>
      <trkpt lat="45.75625" lon="6.70864">
        <ele>2110</ele>
        <time>2022-08-26T22:10:03Z</time>
      </trkpt>
      <trkpt lat="45.75623" lon="6.70862">
        <ele>2110</ele>
        <time>2022-08-26T22:10:04Z</time>
      </trkpt>
      <trkpt lat="45.75621" lon="6.70859">
        <ele>2110</ele>
        <time>2022-08-26T22:10:06Z</time>
      </trkpt>
      <trkpt lat="45.7562" lon="6.70858">
        <ele>2111</ele>
        <time>2022-08-26T22:10:08Z</time>
      </trkpt>
      <trkpt lat="45.75619" lon="6.70857">
        <ele>2111</ele>
        <time>2022-08-26T22:10:09Z</time>
      </trkpt>
      <trkpt lat="45.75618" lon="6.70856">
        <ele>2111</ele>
        <time>2022-08-26T22:10:10Z</time>
      </trkpt>
      <trkpt lat="45.75616" lon="6.70855">
        <ele>2111</ele>
        <time>2022-08-26T22:10:11Z</time>
      </trkpt>
      <trkpt lat="45.75615" lon="6.70853">
        <ele>2111</ele>
        <time>2022-08-26T22:10:13Z</time>
      </trkpt>
      <trkpt lat="45.75614" lon="6.70852">
        <ele>2111</ele>
        <time>2022-08-26T22:10:14Z</time>
      </trkpt>
      <trkpt lat="45.75612" lon="6.7085">
        <ele>2111</ele>
        <time>2022-08-26T22:10:16Z</time>
      </trkpt>
      <trkpt lat="45.7561" lon="6.70848">
        <ele>2111</ele>
        <time>2022-08-26T22:10:18Z</time>
      </trkpt>
      <trkpt lat="45.75609" lon="6.70846">
        <ele>2111</ele>
        <time>2022-08-26T22:10:19Z</time>
      </trkpt>
      <trkpt lat="45.75607" lon="6.70844">
        <ele>2111</ele>
        <time>2022-08-26T22:10:20Z</time>
      </trkpt>
      <trkpt lat="45.75602" lon="6.70839">
        <ele>2111</ele>
        <time>2022-08-26T22:10:25Z</time>
      </trkpt>
      <trkpt lat="45.756" lon="6.70837">
        <ele>2112</ele>
        <time>2022-08-26T22:10:28Z</time>
      </trkpt>
      <trkpt lat="45.75598" lon="6.70835">
        <ele>2112</ele>
        <time>2022-08-26T22:10:30Z</time>
      </trkpt>
      <trkpt lat="45.75596" lon="6.70833">
        <ele>2112</ele>
        <time>2022-08-26T22:10:32Z</time>
      </trkpt>
      <trkpt lat="45.75595" lon="6.70831">
        <ele>2113</ele>
        <time>2022-08-26T22:10:34Z</time>
      </trkpt>
      <trkpt lat="45.75593" lon="6.70829">
        <ele>2113</ele>
        <time>2022-08-26T22:10:35Z</time>
      </trkpt>
      <trkpt lat="45.75591" lon="6.70827">
        <ele>2113</ele>
        <time>2022-08-26T22:10:37Z</time>
      </trkpt>
      <trkpt lat="45.75589" lon="6.70824">
        <ele>2113</ele>
        <time>2022-08-26T22:10:39Z</time>
      </trkpt>
      <trkpt lat="45.75587" lon="6.70822">
        <ele>2113</ele>
        <time>2022-08-26T22:10:42Z</time>
      </trkpt>
      <trkpt lat="45.75585" lon="6.7082">
        <ele>2113</ele>
        <time>2022-08-26T22:10:44Z</time>
      </trkpt>
      <trkpt lat="45.75582" lon="6.70817">
        <ele>2113</ele>
        <time>2022-08-26T22:10:46Z</time>
      </trkpt>
      <trkpt lat="45.7558" lon="6.70816">
        <ele>2113</ele>
        <time>2022-08-26T22:10:47Z</time>
      </trkpt>
      <trkpt lat="45.75579" lon="6.70815">
        <ele>2113</ele>
        <time>2022-08-26T22:10:48Z</time>
      </trkpt>
      <trkpt lat="45.75578" lon="6.70814">
        <ele>2113</ele>
        <time>2022-08-26T22:10:49Z</time>
      </trkpt>
      <trkpt lat="45.75577" lon="6.70813">
        <ele>2113</ele>
        <time>2022-08-26T22:10:51Z</time>
      </trkpt>
      <trkpt lat="45.75575" lon="6.70812">
        <ele>2114</ele>
        <time>2022-08-26T22:10:53Z</time>
      </trkpt>
      <trkpt lat="45.75574" lon="6.70811">
        <ele>2114</ele>
        <time>2022-08-26T22:10:54Z</time>
      </trkpt>
      <trkpt lat="45.75573" lon="6.7081">
        <ele>2115</ele>
        <time>2022-08-26T22:10:56Z</time>
      </trkpt>
      <trkpt lat="45.75572" lon="6.70809">
        <ele>2115</ele>
        <time>2022-08-26T22:10:57Z</time>
      </trkpt>
      <trkpt lat="45.75571" lon="6.70808">
        <ele>2115</ele>
        <time>2022-08-26T22:10:58Z</time>
      </trkpt>
      <trkpt lat="45.7557" lon="6.70806">
        <ele>2116</ele>
        <time>2022-08-26T22:11:00Z</time>
      </trkpt>
      <trkpt lat="45.75569" lon="6.70805">
        <ele>2116</ele>
        <time>2022-08-26T22:11:01Z</time>
      </trkpt>
      <trkpt lat="45.75567" lon="6.70804">
        <ele>2116</ele>
        <time>2022-08-26T22:11:02Z</time>
      </trkpt>
      <trkpt lat="45.75566" lon="6.70803">
        <ele>2116</ele>
        <time>2022-08-26T22:11:03Z</time>
      </trkpt>
      <trkpt lat="45.75565" lon="6.70803">
        <ele>2118</ele>
        <time>2022-08-26T22:11:05Z</time>
      </trkpt>
      <trkpt lat="45.75564" lon="6.70803">
        <ele>2118</ele>
        <time>2022-08-26T22:11:06Z</time>
      </trkpt>
      <trkpt lat="45.75563" lon="6.70803">
        <ele>2118</ele>
        <time>2022-08-26T22:11:07Z</time>
      </trkpt>
      <trkpt lat="45.75562" lon="6.70803">
        <ele>2118</ele>
        <time>2022-08-26T22:11:08Z</time>
      </trkpt>
      <trkpt lat="45.75561" lon="6.70803">
        <ele>2119</ele>
        <time>2022-08-26T22:11:10Z</time>
      </trkpt>
      <trkpt lat="45.7556" lon="6.70803">
        <ele>2119</ele>
        <time>2022-08-26T22:11:11Z</time>
      </trkpt>
      <trkpt lat="45.75559" lon="6.70803">
        <ele>2119</ele>
        <time>2022-08-26T22:11:12Z</time>
      </trkpt>
      <trkpt lat="45.75559" lon="6.70803">
        <ele>2119</ele>
        <time>2022-08-26T22:11:13Z</time>
      </trkpt>
      <trkpt lat="45.75558" lon="6.70803">
        <ele>2119</ele>
        <time>2022-08-26T22:11:14Z</time>
      </trkpt>
      <trkpt lat="45.75557" lon="6.70803">
        <ele>2119</ele>
        <time>2022-08-26T22:11:15Z</time>
      </trkpt>
      <trkpt lat="45.75555" lon="6.70805">
        <ele>2120</ele>
        <time>2022-08-26T22:11:17Z</time>
      </trkpt>
      <trkpt lat="45.75554" lon="6.70806">
        <ele>2120</ele>
        <time>2022-08-26T22:11:18Z</time>
      </trkpt>
      <trkpt lat="45.75553" lon="6.70807">
        <ele>2120</ele>
        <time>2022-08-26T22:11:19Z</time>
      </trkpt>
      <trkpt lat="45.75552" lon="6.70809">
        <ele>2121</ele>
        <time>2022-08-26T22:11:20Z</time>
      </trkpt>
      <trkpt lat="45.75551" lon="6.7081">
        <ele>2121</ele>
        <time>2022-08-26T22:11:22Z</time>
      </trkpt>
      <trkpt lat="45.75549" lon="6.70812">
        <ele>2121</ele>
        <time>2022-08-26T22:11:23Z</time>
      </trkpt>
      <trkpt lat="45.75549" lon="6.70812">
        <ele>2122</ele>
        <time>2022-08-26T22:11:24Z</time>
      </trkpt>
      <trkpt lat="45.75548" lon="6.70812">
        <ele>2122</ele>
        <time>2022-08-26T22:11:25Z</time>
      </trkpt>
      <trkpt lat="45.75547" lon="6.70813">
        <ele>2123</ele>
        <time>2022-08-26T22:11:27Z</time>
      </trkpt>
      <trkpt lat="45.75546" lon="6.70813">
        <ele>2123</ele>
        <time>2022-08-26T22:11:28Z</time>
      </trkpt>
      <trkpt lat="45.75545" lon="6.70813">
        <ele>2123</ele>
        <time>2022-08-26T22:11:29Z</time>
      </trkpt>
      <trkpt lat="45.75545" lon="6.70813">
        <ele>2123</ele>
        <time>2022-08-26T22:11:30Z</time>
      </trkpt>
      <trkpt lat="45.75544" lon="6.70814">
        <ele>2123</ele>
        <time>2022-08-26T22:11:32Z</time>
      </trkpt>
      <trkpt lat="45.75543" lon="6.70814">
        <ele>2123</ele>
        <time>2022-08-26T22:11:33Z</time>
      </trkpt>
      <trkpt lat="45.75542" lon="6.70814">
        <ele>2124</ele>
        <time>2022-08-26T22:11:34Z</time>
      </trkpt>
      <trkpt lat="45.7554" lon="6.70813">
        <ele>2125</ele>
        <time>2022-08-26T22:11:36Z</time>
      </trkpt>
      <trkpt lat="45.75537" lon="6.70811">
        <ele>2126</ele>
        <time>2022-08-26T22:11:39Z</time>
      </trkpt>
      <trkpt lat="45.75535" lon="6.7081">
        <ele>2126</ele>
        <time>2022-08-26T22:11:41Z</time>
      </trkpt>
      <trkpt lat="45.75533" lon="6.70809">
        <ele>2127</ele>
        <time>2022-08-26T22:11:44Z</time>
      </trkpt>
      <trkpt lat="45.75524" lon="6.7081">
        <ele>2127</ele>
        <time>2022-08-26T22:11:51Z</time>
      </trkpt>
      <trkpt lat="45.75522" lon="6.70809">
        <ele>2127</ele>
        <time>2022-08-26T22:11:53Z</time>
      </trkpt>
      <trkpt lat="45.75521" lon="6.70808">
        <ele>2127</ele>
        <time>2022-08-26T22:11:54Z</time>
      </trkpt>
      <trkpt lat="45.7552" lon="6.70808">
        <ele>2127</ele>
        <time>2022-08-26T22:11:55Z</time>
      </trkpt>
      <trkpt lat="45.75518" lon="6.70807">
        <ele>2127</ele>
        <time>2022-08-26T22:11:57Z</time>
      </trkpt>
      <trkpt lat="45.75517" lon="6.70806">
        <ele>2127</ele>
        <time>2022-08-26T22:11:58Z</time>
      </trkpt>
      <trkpt lat="45.75515" lon="6.70805">
        <ele>2127</ele>
        <time>2022-08-26T22:11:59Z</time>
      </trkpt>
      <trkpt lat="45.75514" lon="6.70804">
        <ele>2127</ele>
        <time>2022-08-26T22:12:00Z</time>
      </trkpt>
      <trkpt lat="45.75513" lon="6.70803">
        <ele>2128</ele>
        <time>2022-08-26T22:12:02Z</time>
      </trkpt>
      <trkpt lat="45.75512" lon="6.70803">
        <ele>2128</ele>
        <time>2022-08-26T22:12:04Z</time>
      </trkpt>
      <trkpt lat="45.75511" lon="6.70802">
        <ele>2128</ele>
        <time>2022-08-26T22:12:05Z</time>
      </trkpt>
      <trkpt lat="45.7551" lon="6.70801">
        <ele>2129</ele>
        <time>2022-08-26T22:12:06Z</time>
      </trkpt>
      <trkpt lat="45.75509" lon="6.70801">
        <ele>2129</ele>
        <time>2022-08-26T22:12:07Z</time>
      </trkpt>
      <trkpt lat="45.75508" lon="6.708">
        <ele>2129</ele>
        <time>2022-08-26T22:12:08Z</time>
      </trkpt>
      <trkpt lat="45.75506" lon="6.70799">
        <ele>2129</ele>
        <time>2022-08-26T22:12:09Z</time>
      </trkpt>
      <trkpt lat="45.75505" lon="6.70799">
        <ele>2129</ele>
        <time>2022-08-26T22:12:10Z</time>
      </trkpt>
      <trkpt lat="45.75504" lon="6.70798">
        <ele>2129</ele>
        <time>2022-08-26T22:12:12Z</time>
      </trkpt>
      <trkpt lat="45.75503" lon="6.70798">
        <ele>2130</ele>
        <time>2022-08-26T22:12:14Z</time>
      </trkpt>
      <trkpt lat="45.75502" lon="6.70797">
        <ele>2131</ele>
        <time>2022-08-26T22:12:15Z</time>
      </trkpt>
      <trkpt lat="45.75501" lon="6.70797">
        <ele>2131</ele>
        <time>2022-08-26T22:12:16Z</time>
      </trkpt>
      <trkpt lat="45.755" lon="6.70796">
        <ele>2131</ele>
        <time>2022-08-26T22:12:17Z</time>
      </trkpt>
      <trkpt lat="45.75499" lon="6.70796">
        <ele>2131</ele>
        <time>2022-08-26T22:12:19Z</time>
      </trkpt>
      <trkpt lat="45.75498" lon="6.70795">
        <ele>2131</ele>
        <time>2022-08-26T22:12:20Z</time>
      </trkpt>
      <trkpt lat="45.75496" lon="6.70793">
        <ele>2132</ele>
        <time>2022-08-26T22:12:22Z</time>
      </trkpt>
      <trkpt lat="45.75493" lon="6.7079">
        <ele>2132</ele>
        <time>2022-08-26T22:12:25Z</time>
      </trkpt>
      <trkpt lat="45.75492" lon="6.7079">
        <ele>2132</ele>
        <time>2022-08-26T22:12:26Z</time>
      </trkpt>
      <trkpt lat="45.75491" lon="6.7079">
        <ele>2132</ele>
        <time>2022-08-26T22:12:27Z</time>
      </trkpt>
      <trkpt lat="45.7549" lon="6.70789">
        <ele>2133</ele>
        <time>2022-08-26T22:12:28Z</time>
      </trkpt>
      <trkpt lat="45.7549" lon="6.70789">
        <ele>2133</ele>
        <time>2022-08-26T22:12:30Z</time>
      </trkpt>
      <trkpt lat="45.75489" lon="6.70789">
        <ele>2134</ele>
        <time>2022-08-26T22:12:31Z</time>
      </trkpt>
      <trkpt lat="45.75488" lon="6.70788">
        <ele>2134</ele>
        <time>2022-08-26T22:12:32Z</time>
      </trkpt>
      <trkpt lat="45.75486" lon="6.70787">
        <ele>2135</ele>
        <time>2022-08-26T22:12:34Z</time>
      </trkpt>
      <trkpt lat="45.75484" lon="6.70786">
        <ele>2135</ele>
        <time>2022-08-26T22:12:36Z</time>
      </trkpt>
      <trkpt lat="45.75483" lon="6.70786">
        <ele>2135</ele>
        <time>2022-08-26T22:12:37Z</time>
      </trkpt>
      <trkpt lat="45.75482" lon="6.70786">
        <ele>2135</ele>
        <time>2022-08-26T22:12:38Z</time>
      </trkpt>
      <trkpt lat="45.75481" lon="6.70786">
        <ele>2135</ele>
        <time>2022-08-26T22:12:40Z</time>
      </trkpt>
      <trkpt lat="45.7548" lon="6.70786">
        <ele>2136</ele>
        <time>2022-08-26T22:12:41Z</time>
      </trkpt>
      <trkpt lat="45.75479" lon="6.70785">
        <ele>2136</ele>
        <time>2022-08-26T22:12:42Z</time>
      </trkpt>
      <trkpt lat="45.75478" lon="6.70785">
        <ele>2136</ele>
        <time>2022-08-26T22:12:43Z</time>
      </trkpt>
      <trkpt lat="45.75477" lon="6.70785">
        <ele>2137</ele>
        <time>2022-08-26T22:12:45Z</time>
      </trkpt>
      <trkpt lat="45.75476" lon="6.70785">
        <ele>2137</ele>
        <time>2022-08-26T22:12:46Z</time>
      </trkpt>
      <trkpt lat="45.75475" lon="6.70785">
        <ele>2137</ele>
        <time>2022-08-26T22:12:47Z</time>
      </trkpt>
      <trkpt lat="45.75472" lon="6.70785">
        <ele>2137</ele>
        <time>2022-08-26T22:12:48Z</time>
      </trkpt>
      <trkpt lat="45.75468" lon="6.70783">
        <ele>2137</ele>
        <time>2022-08-26T22:12:50Z</time>
      </trkpt>
      <trkpt lat="45.75467" lon="6.70783">
        <ele>2137</ele>
        <time>2022-08-26T22:12:52Z</time>
      </trkpt>
      <trkpt lat="45.75466" lon="6.70783">
        <ele>2138</ele>
        <time>2022-08-26T22:12:53Z</time>
      </trkpt>
      <trkpt lat="45.75464" lon="6.70782">
        <ele>2138</ele>
        <time>2022-08-26T22:12:54Z</time>
      </trkpt>
      <trkpt lat="45.75463" lon="6.70782">
        <ele>2138</ele>
        <time>2022-08-26T22:12:55Z</time>
      </trkpt>
      <trkpt lat="45.75461" lon="6.70782">
        <ele>2138</ele>
        <time>2022-08-26T22:12:57Z</time>
      </trkpt>
      <trkpt lat="45.7546" lon="6.70782">
        <ele>2138</ele>
        <time>2022-08-26T22:12:58Z</time>
      </trkpt>
      <trkpt lat="45.75459" lon="6.70782">
        <ele>2138</ele>
        <time>2022-08-26T22:12:59Z</time>
      </trkpt>
      <trkpt lat="45.75458" lon="6.70783">
        <ele>2139</ele>
        <time>2022-08-26T22:13:00Z</time>
      </trkpt>
      <trkpt lat="45.75457" lon="6.70783">
        <ele>2139</ele>
        <time>2022-08-26T22:13:01Z</time>
      </trkpt>
      <trkpt lat="45.75456" lon="6.70784">
        <ele>2139</ele>
        <time>2022-08-26T22:13:03Z</time>
      </trkpt>
      <trkpt lat="45.75455" lon="6.70784">
        <ele>2139</ele>
        <time>2022-08-26T22:13:04Z</time>
      </trkpt>
      <trkpt lat="45.75454" lon="6.70784">
        <ele>2139</ele>
        <time>2022-08-26T22:13:05Z</time>
      </trkpt>
      <trkpt lat="45.75453" lon="6.70785">
        <ele>2139</ele>
        <time>2022-08-26T22:13:06Z</time>
      </trkpt>
      <trkpt lat="45.75452" lon="6.70785">
        <ele>2139</ele>
        <time>2022-08-26T22:13:07Z</time>
      </trkpt>
      <trkpt lat="45.75451" lon="6.70786">
        <ele>2140</ele>
        <time>2022-08-26T22:13:08Z</time>
      </trkpt>
      <trkpt lat="45.7545" lon="6.70787">
        <ele>2140</ele>
        <time>2022-08-26T22:13:09Z</time>
      </trkpt>
      <trkpt lat="45.75449" lon="6.70787">
        <ele>2140</ele>
        <time>2022-08-26T22:13:10Z</time>
      </trkpt>
      <trkpt lat="45.75447" lon="6.70788">
        <ele>2140</ele>
        <time>2022-08-26T22:13:11Z</time>
      </trkpt>
      <trkpt lat="45.75446" lon="6.70789">
        <ele>2140</ele>
        <time>2022-08-26T22:13:13Z</time>
      </trkpt>
      <trkpt lat="45.75445" lon="6.7079">
        <ele>2141</ele>
        <time>2022-08-26T22:13:14Z</time>
      </trkpt>
      <trkpt lat="45.75444" lon="6.7079">
        <ele>2141</ele>
        <time>2022-08-26T22:13:15Z</time>
      </trkpt>
      <trkpt lat="45.75443" lon="6.70791">
        <ele>2141</ele>
        <time>2022-08-26T22:13:16Z</time>
      </trkpt>
      <trkpt lat="45.75442" lon="6.70793">
        <ele>2142</ele>
        <time>2022-08-26T22:13:18Z</time>
      </trkpt>
      <trkpt lat="45.75441" lon="6.70794">
        <ele>2142</ele>
        <time>2022-08-26T22:13:19Z</time>
      </trkpt>
      <trkpt lat="45.7544" lon="6.70796">
        <ele>2142</ele>
        <time>2022-08-26T22:13:20Z</time>
      </trkpt>
      <trkpt lat="45.75439" lon="6.70797">
        <ele>2142</ele>
        <time>2022-08-26T22:13:21Z</time>
      </trkpt>
      <trkpt lat="45.75438" lon="6.70799">
        <ele>2142</ele>
        <time>2022-08-26T22:13:23Z</time>
      </trkpt>
      <trkpt lat="45.75438" lon="6.708">
        <ele>2142</ele>
        <time>2022-08-26T22:13:24Z</time>
      </trkpt>
      <trkpt lat="45.75437" lon="6.70802">
        <ele>2142</ele>
        <time>2022-08-26T22:13:25Z</time>
      </trkpt>
      <trkpt lat="45.75435" lon="6.70803">
        <ele>2142</ele>
        <time>2022-08-26T22:13:26Z</time>
      </trkpt>
      <trkpt lat="45.75433" lon="6.70804">
        <ele>2142</ele>
        <time>2022-08-26T22:13:28Z</time>
      </trkpt>
      <trkpt lat="45.75431" lon="6.70805">
        <ele>2142</ele>
        <time>2022-08-26T22:13:30Z</time>
      </trkpt>
      <trkpt lat="45.7543" lon="6.70807">
        <ele>2144</ele>
        <time>2022-08-26T22:13:32Z</time>
      </trkpt>
      <trkpt lat="45.75428" lon="6.70808">
        <ele>2144</ele>
        <time>2022-08-26T22:13:33Z</time>
      </trkpt>
      <trkpt lat="45.75427" lon="6.70808">
        <ele>2145</ele>
        <time>2022-08-26T22:13:34Z</time>
      </trkpt>
      <trkpt lat="45.75426" lon="6.70809">
        <ele>2145</ele>
        <time>2022-08-26T22:13:35Z</time>
      </trkpt>
      <trkpt lat="45.75425" lon="6.70809">
        <ele>2146</ele>
        <time>2022-08-26T22:13:37Z</time>
      </trkpt>
      <trkpt lat="45.75424" lon="6.7081">
        <ele>2146</ele>
        <time>2022-08-26T22:13:38Z</time>
      </trkpt>
      <trkpt lat="45.75423" lon="6.7081">
        <ele>2146</ele>
        <time>2022-08-26T22:13:39Z</time>
      </trkpt>
      <trkpt lat="45.75423" lon="6.70811">
        <ele>2146</ele>
        <time>2022-08-26T22:13:40Z</time>
      </trkpt>
      <trkpt lat="45.75422" lon="6.70811">
        <ele>2146</ele>
        <time>2022-08-26T22:13:42Z</time>
      </trkpt>
      <trkpt lat="45.75421" lon="6.70812">
        <ele>2146</ele>
        <time>2022-08-26T22:13:43Z</time>
      </trkpt>
      <trkpt lat="45.7542" lon="6.70812">
        <ele>2146</ele>
        <time>2022-08-26T22:13:44Z</time>
      </trkpt>
      <trkpt lat="45.75419" lon="6.70813">
        <ele>2147</ele>
        <time>2022-08-26T22:13:45Z</time>
      </trkpt>
      <trkpt lat="45.75418" lon="6.70814">
        <ele>2147</ele>
        <time>2022-08-26T22:13:47Z</time>
      </trkpt>
      <trkpt lat="45.75417" lon="6.70815">
        <ele>2147</ele>
        <time>2022-08-26T22:13:48Z</time>
      </trkpt>
      <trkpt lat="45.75416" lon="6.70816">
        <ele>2147</ele>
        <time>2022-08-26T22:13:49Z</time>
      </trkpt>
      <trkpt lat="45.75415" lon="6.70818">
        <ele>2148</ele>
        <time>2022-08-26T22:13:51Z</time>
      </trkpt>
      <trkpt lat="45.75414" lon="6.70819">
        <ele>2148</ele>
        <time>2022-08-26T22:13:52Z</time>
      </trkpt>
      <trkpt lat="45.75413" lon="6.7082">
        <ele>2148</ele>
        <time>2022-08-26T22:13:53Z</time>
      </trkpt>
      <trkpt lat="45.75412" lon="6.70821">
        <ele>2148</ele>
        <time>2022-08-26T22:13:54Z</time>
      </trkpt>
      <trkpt lat="45.75411" lon="6.70822">
        <ele>2149</ele>
        <time>2022-08-26T22:13:56Z</time>
      </trkpt>
      <trkpt lat="45.7541" lon="6.70823">
        <ele>2149</ele>
        <time>2022-08-26T22:13:57Z</time>
      </trkpt>
      <trkpt lat="45.75409" lon="6.70824">
        <ele>2149</ele>
        <time>2022-08-26T22:13:58Z</time>
      </trkpt>
      <trkpt lat="45.75408" lon="6.70826">
        <ele>2150</ele>
        <time>2022-08-26T22:13:59Z</time>
      </trkpt>
      <trkpt lat="45.75406" lon="6.70827">
        <ele>2150</ele>
        <time>2022-08-26T22:14:01Z</time>
      </trkpt>
      <trkpt lat="45.75405" lon="6.70828">
        <ele>2150</ele>
        <time>2022-08-26T22:14:03Z</time>
      </trkpt>
      <trkpt lat="45.75404" lon="6.70829">
        <ele>2151</ele>
        <time>2022-08-26T22:14:04Z</time>
      </trkpt>
      <trkpt lat="45.75404" lon="6.7083">
        <ele>2151</ele>
        <time>2022-08-26T22:14:06Z</time>
      </trkpt>
      <trkpt lat="45.75403" lon="6.70831">
        <ele>2151</ele>
        <time>2022-08-26T22:14:07Z</time>
      </trkpt>
      <trkpt lat="45.75402" lon="6.70832">
        <ele>2151</ele>
        <time>2022-08-26T22:14:08Z</time>
      </trkpt>
      <trkpt lat="45.75401" lon="6.70833">
        <ele>2152</ele>
        <time>2022-08-26T22:14:10Z</time>
      </trkpt>
      <trkpt lat="45.75401" lon="6.70834">
        <ele>2152</ele>
        <time>2022-08-26T22:14:11Z</time>
      </trkpt>
      <trkpt lat="45.754" lon="6.70835">
        <ele>2152</ele>
        <time>2022-08-26T22:14:12Z</time>
      </trkpt>
      <trkpt lat="45.75399" lon="6.70837">
        <ele>2152</ele>
        <time>2022-08-26T22:14:13Z</time>
      </trkpt>
      <trkpt lat="45.75399" lon="6.70838">
        <ele>2152</ele>
        <time>2022-08-26T22:14:14Z</time>
      </trkpt>
      <trkpt lat="45.75398" lon="6.70839">
        <ele>2153</ele>
        <time>2022-08-26T22:14:15Z</time>
      </trkpt>
      <trkpt lat="45.75394" lon="6.70851">
        <ele>2154</ele>
        <time>2022-08-26T22:14:25Z</time>
      </trkpt>
      <trkpt lat="45.75391" lon="6.70855">
        <ele>2156</ele>
        <time>2022-08-26T22:14:29Z</time>
      </trkpt>
      <trkpt lat="45.75389" lon="6.70856">
        <ele>2156</ele>
        <time>2022-08-26T22:14:31Z</time>
      </trkpt>
      <trkpt lat="45.75388" lon="6.70858">
        <ele>2156</ele>
        <time>2022-08-26T22:14:33Z</time>
      </trkpt>
      <trkpt lat="45.75386" lon="6.70861">
        <ele>2157</ele>
        <time>2022-08-26T22:14:35Z</time>
      </trkpt>
      <trkpt lat="45.75385" lon="6.70864">
        <ele>2157</ele>
        <time>2022-08-26T22:14:38Z</time>
      </trkpt>
      <trkpt lat="45.75385" lon="6.70866">
        <ele>2157</ele>
        <time>2022-08-26T22:14:40Z</time>
      </trkpt>
      <trkpt lat="45.75383" lon="6.70868">
        <ele>2157</ele>
        <time>2022-08-26T22:14:42Z</time>
      </trkpt>
      <trkpt lat="45.75382" lon="6.70869">
        <ele>2158</ele>
        <time>2022-08-26T22:14:44Z</time>
      </trkpt>
      <trkpt lat="45.75381" lon="6.70869">
        <ele>2158</ele>
        <time>2022-08-26T22:14:45Z</time>
      </trkpt>
      <trkpt lat="45.7538" lon="6.70869">
        <ele>2159</ele>
        <time>2022-08-26T22:14:46Z</time>
      </trkpt>
      <trkpt lat="45.75379" lon="6.70869">
        <ele>2159</ele>
        <time>2022-08-26T22:14:48Z</time>
      </trkpt>
      <trkpt lat="45.75378" lon="6.70869">
        <ele>2159</ele>
        <time>2022-08-26T22:14:49Z</time>
      </trkpt>
      <trkpt lat="45.75377" lon="6.70869">
        <ele>2159</ele>
        <time>2022-08-26T22:14:50Z</time>
      </trkpt>
      <trkpt lat="45.75376" lon="6.70869">
        <ele>2159</ele>
        <time>2022-08-26T22:14:51Z</time>
      </trkpt>
      <trkpt lat="45.75376" lon="6.70869">
        <ele>2160</ele>
        <time>2022-08-26T22:14:53Z</time>
      </trkpt>
      <trkpt lat="45.75375" lon="6.70869">
        <ele>2160</ele>
        <time>2022-08-26T22:14:54Z</time>
      </trkpt>
      <trkpt lat="45.75374" lon="6.70869">
        <ele>2162</ele>
        <time>2022-08-26T22:14:55Z</time>
      </trkpt>
      <trkpt lat="45.75372" lon="6.70869">
        <ele>2162</ele>
        <time>2022-08-26T22:14:57Z</time>
      </trkpt>
      <trkpt lat="45.7537" lon="6.70869">
        <ele>2162</ele>
        <time>2022-08-26T22:15:00Z</time>
      </trkpt>
      <trkpt lat="45.75368" lon="6.7087">
        <ele>2162</ele>
        <time>2022-08-26T22:15:03Z</time>
      </trkpt>
      <trkpt lat="45.75366" lon="6.70871">
        <ele>2164</ele>
        <time>2022-08-26T22:15:07Z</time>
      </trkpt>
      <trkpt lat="45.75364" lon="6.70872">
        <ele>2164</ele>
        <time>2022-08-26T22:15:10Z</time>
      </trkpt>
      <trkpt lat="45.75363" lon="6.70874">
        <ele>2164</ele>
        <time>2022-08-26T22:15:13Z</time>
      </trkpt>
      <trkpt lat="45.75362" lon="6.70878">
        <ele>2164</ele>
        <time>2022-08-26T22:15:14Z</time>
      </trkpt>
      <trkpt lat="45.75361" lon="6.7088">
        <ele>2165</ele>
        <time>2022-08-26T22:15:17Z</time>
      </trkpt>
      <trkpt lat="45.75361" lon="6.70883">
        <ele>2166</ele>
        <time>2022-08-26T22:15:20Z</time>
      </trkpt>
      <trkpt lat="45.75362" lon="6.70886">
        <ele>2166</ele>
        <time>2022-08-26T22:15:22Z</time>
      </trkpt>
      <trkpt lat="45.7536" lon="6.70888">
        <ele>2166</ele>
        <time>2022-08-26T22:15:24Z</time>
      </trkpt>
      <trkpt lat="45.75358" lon="6.7089">
        <ele>2167</ele>
        <time>2022-08-26T22:15:26Z</time>
      </trkpt>
      <trkpt lat="45.75356" lon="6.70892">
        <ele>2168</ele>
        <time>2022-08-26T22:15:30Z</time>
      </trkpt>
      <trkpt lat="45.75355" lon="6.70894">
        <ele>2168</ele>
        <time>2022-08-26T22:15:31Z</time>
      </trkpt>
      <trkpt lat="45.75354" lon="6.70899">
        <ele>2168</ele>
        <time>2022-08-26T22:15:35Z</time>
      </trkpt>
      <trkpt lat="45.75352" lon="6.70901">
        <ele>2170</ele>
        <time>2022-08-26T22:15:38Z</time>
      </trkpt>
      <trkpt lat="45.7535" lon="6.70901">
        <ele>2170</ele>
        <time>2022-08-26T22:15:40Z</time>
      </trkpt>
      <trkpt lat="45.75348" lon="6.709">
        <ele>2170</ele>
        <time>2022-08-26T22:15:44Z</time>
      </trkpt>
      <trkpt lat="45.75346" lon="6.70901">
        <ele>2171</ele>
        <time>2022-08-26T22:15:47Z</time>
      </trkpt>
      <trkpt lat="45.75344" lon="6.70901">
        <ele>2172</ele>
        <time>2022-08-26T22:15:50Z</time>
      </trkpt>
      <trkpt lat="45.75342" lon="6.70903">
        <ele>2173</ele>
        <time>2022-08-26T22:15:52Z</time>
      </trkpt>
      <trkpt lat="45.75341" lon="6.70905">
        <ele>2173</ele>
        <time>2022-08-26T22:15:56Z</time>
      </trkpt>
      <trkpt lat="45.75339" lon="6.70907">
        <ele>2174</ele>
        <time>2022-08-26T22:15:59Z</time>
      </trkpt>
      <trkpt lat="45.75337" lon="6.70908">
        <ele>2175</ele>
        <time>2022-08-26T22:16:03Z</time>
      </trkpt>
      <trkpt lat="45.75335" lon="6.70909">
        <ele>2175</ele>
        <time>2022-08-26T22:16:06Z</time>
      </trkpt>
      <trkpt lat="45.75334" lon="6.70912">
        <ele>2177</ele>
        <time>2022-08-26T22:16:11Z</time>
      </trkpt>
      <trkpt lat="45.75332" lon="6.70913">
        <ele>2177</ele>
        <time>2022-08-26T22:16:15Z</time>
      </trkpt>
      <trkpt lat="45.7533" lon="6.70913">
        <ele>2178</ele>
        <time>2022-08-26T22:16:18Z</time>
      </trkpt>
      <trkpt lat="45.75328" lon="6.70915">
        <ele>2178</ele>
        <time>2022-08-26T22:16:22Z</time>
      </trkpt>
      <trkpt lat="45.75326" lon="6.70917">
        <ele>2179</ele>
        <time>2022-08-26T22:16:26Z</time>
      </trkpt>
      <trkpt lat="45.75325" lon="6.70919">
        <ele>2179</ele>
        <time>2022-08-26T22:16:28Z</time>
      </trkpt>
      <trkpt lat="45.75324" lon="6.70921">
        <ele>2180</ele>
        <time>2022-08-26T22:16:32Z</time>
      </trkpt>
      <trkpt lat="45.75322" lon="6.70923">
        <ele>2181</ele>
        <time>2022-08-26T22:16:35Z</time>
      </trkpt>
      <trkpt lat="45.75323" lon="6.70927">
        <ele>2181</ele>
        <time>2022-08-26T22:16:39Z</time>
      </trkpt>
      <trkpt lat="45.75322" lon="6.7093">
        <ele>2182</ele>
        <time>2022-08-26T22:16:41Z</time>
      </trkpt>
      <trkpt lat="45.75319" lon="6.70931">
        <ele>2182</ele>
        <time>2022-08-26T22:16:44Z</time>
      </trkpt>
      <trkpt lat="45.75317" lon="6.70931">
        <ele>2183</ele>
        <time>2022-08-26T22:16:47Z</time>
      </trkpt>
      <trkpt lat="45.75315" lon="6.70933">
        <ele>2184</ele>
        <time>2022-08-26T22:16:51Z</time>
      </trkpt>
      <trkpt lat="45.75313" lon="6.70934">
        <ele>2184</ele>
        <time>2022-08-26T22:16:53Z</time>
      </trkpt>
      <trkpt lat="45.75311" lon="6.70935">
        <ele>2185</ele>
        <time>2022-08-26T22:16:58Z</time>
      </trkpt>
      <trkpt lat="45.75309" lon="6.70933">
        <ele>2186</ele>
        <time>2022-08-26T22:17:01Z</time>
      </trkpt>
      <trkpt lat="45.75307" lon="6.70934">
        <ele>2188</ele>
        <time>2022-08-26T22:17:09Z</time>
      </trkpt>
      <trkpt lat="45.75306" lon="6.70936">
        <ele>2188</ele>
        <time>2022-08-26T22:17:11Z</time>
      </trkpt>
      <trkpt lat="45.75304" lon="6.70937">
        <ele>2188</ele>
        <time>2022-08-26T22:17:15Z</time>
      </trkpt>
      <trkpt lat="45.75302" lon="6.70938">
        <ele>2189</ele>
        <time>2022-08-26T22:17:19Z</time>
      </trkpt>
      <trkpt lat="45.75302" lon="6.70942">
        <ele>2189</ele>
        <time>2022-08-26T22:17:22Z</time>
      </trkpt>
      <trkpt lat="45.753" lon="6.70944">
        <ele>2190</ele>
        <time>2022-08-26T22:17:25Z</time>
      </trkpt>
      <trkpt lat="45.75299" lon="6.70946">
        <ele>2192</ele>
        <time>2022-08-26T22:17:29Z</time>
      </trkpt>
      <trkpt lat="45.75298" lon="6.7095">
        <ele>2193</ele>
        <time>2022-08-26T22:17:33Z</time>
      </trkpt>
      <trkpt lat="45.75298" lon="6.70953">
        <ele>2193</ele>
        <time>2022-08-26T22:17:36Z</time>
      </trkpt>
      <trkpt lat="45.75296" lon="6.70955">
        <ele>2194</ele>
        <time>2022-08-26T22:17:40Z</time>
      </trkpt>
      <trkpt lat="45.75295" lon="6.70953">
        <ele>2194</ele>
        <time>2022-08-26T22:17:44Z</time>
      </trkpt>
      <trkpt lat="45.75293" lon="6.70951">
        <ele>2197</ele>
        <time>2022-08-26T22:17:47Z</time>
      </trkpt>
      <trkpt lat="45.75291" lon="6.7095">
        <ele>2197</ele>
        <time>2022-08-26T22:17:50Z</time>
      </trkpt>
      <trkpt lat="45.7529" lon="6.70947">
        <ele>2197</ele>
        <time>2022-08-26T22:17:53Z</time>
      </trkpt>
      <trkpt lat="45.75289" lon="6.70945">
        <ele>2197</ele>
        <time>2022-08-26T22:17:56Z</time>
      </trkpt>
      <trkpt lat="45.75288" lon="6.70942">
        <ele>2199</ele>
        <time>2022-08-26T22:18:00Z</time>
      </trkpt>
      <trkpt lat="45.75287" lon="6.70945">
        <ele>2199</ele>
        <time>2022-08-26T22:18:05Z</time>
      </trkpt>
      <trkpt lat="45.75286" lon="6.70948">
        <ele>2199</ele>
        <time>2022-08-26T22:18:07Z</time>
      </trkpt>
      <trkpt lat="45.75284" lon="6.70947">
        <ele>2200</ele>
        <time>2022-08-26T22:18:11Z</time>
      </trkpt>
      <trkpt lat="45.75282" lon="6.70946">
        <ele>2201</ele>
        <time>2022-08-26T22:18:14Z</time>
      </trkpt>
      <trkpt lat="45.7528" lon="6.70947">
        <ele>2202</ele>
        <time>2022-08-26T22:18:21Z</time>
      </trkpt>
      <trkpt lat="45.75278" lon="6.70947">
        <ele>2202</ele>
        <time>2022-08-26T22:18:24Z</time>
      </trkpt>
      <trkpt lat="45.75277" lon="6.70945">
        <ele>2203</ele>
        <time>2022-08-26T22:18:28Z</time>
      </trkpt>
      <trkpt lat="45.75275" lon="6.70946">
        <ele>2204</ele>
        <time>2022-08-26T22:18:30Z</time>
      </trkpt>
      <trkpt lat="45.75273" lon="6.70945">
        <ele>2204</ele>
        <time>2022-08-26T22:18:35Z</time>
      </trkpt>
      <trkpt lat="45.75272" lon="6.70943">
        <ele>2205</ele>
        <time>2022-08-26T22:18:38Z</time>
      </trkpt>
      <trkpt lat="45.7527" lon="6.70941">
        <ele>2206</ele>
        <time>2022-08-26T22:18:42Z</time>
      </trkpt>
      <trkpt lat="45.75268" lon="6.70941">
        <ele>2207</ele>
        <time>2022-08-26T22:18:45Z</time>
      </trkpt>
      <trkpt lat="45.75266" lon="6.70939">
        <ele>2207</ele>
        <time>2022-08-26T22:18:49Z</time>
      </trkpt>
      <trkpt lat="45.75265" lon="6.70937">
        <ele>2208</ele>
        <time>2022-08-26T22:18:53Z</time>
      </trkpt>
      <trkpt lat="45.75263" lon="6.70938">
        <ele>2209</ele>
        <time>2022-08-26T22:18:57Z</time>
      </trkpt>
      <trkpt lat="45.75262" lon="6.7094">
        <ele>2210</ele>
        <time>2022-08-26T22:19:00Z</time>
      </trkpt>
      <trkpt lat="45.7526" lon="6.70942">
        <ele>2210</ele>
        <time>2022-08-26T22:19:04Z</time>
      </trkpt>
      <trkpt lat="45.75259" lon="6.70939">
        <ele>2211</ele>
        <time>2022-08-26T22:19:07Z</time>
      </trkpt>
      <trkpt lat="45.75257" lon="6.70937">
        <ele>2211</ele>
        <time>2022-08-26T22:19:10Z</time>
      </trkpt>
      <trkpt lat="45.75257" lon="6.70935">
        <ele>2212</ele>
        <time>2022-08-26T22:19:13Z</time>
      </trkpt>
      <trkpt lat="45.75255" lon="6.70933">
        <ele>2213</ele>
        <time>2022-08-26T22:19:17Z</time>
      </trkpt>
      <trkpt lat="45.75253" lon="6.70933">
        <ele>2214</ele>
        <time>2022-08-26T22:19:21Z</time>
      </trkpt>
      <trkpt lat="45.75251" lon="6.70934">
        <ele>2215</ele>
        <time>2022-08-26T22:19:25Z</time>
      </trkpt>
      <trkpt lat="45.7525" lon="6.70931">
        <ele>2215</ele>
        <time>2022-08-26T22:19:28Z</time>
      </trkpt>
      <trkpt lat="45.7525" lon="6.70928">
        <ele>2216</ele>
        <time>2022-08-26T22:19:31Z</time>
      </trkpt>
      <trkpt lat="45.75251" lon="6.70926">
        <ele>2217</ele>
        <time>2022-08-26T22:19:35Z</time>
      </trkpt>
      <trkpt lat="45.7525" lon="6.70922">
        <ele>2217</ele>
        <time>2022-08-26T22:19:39Z</time>
      </trkpt>
      <trkpt lat="45.7525" lon="6.7092">
        <ele>2218</ele>
        <time>2022-08-26T22:19:42Z</time>
      </trkpt>
      <trkpt lat="45.7525" lon="6.70917">
        <ele>2218</ele>
        <time>2022-08-26T22:19:45Z</time>
      </trkpt>
      <trkpt lat="45.75248" lon="6.70917">
        <ele>2219</ele>
        <time>2022-08-26T22:19:49Z</time>
      </trkpt>
      <trkpt lat="45.75247" lon="6.7092">
        <ele>2220</ele>
        <time>2022-08-26T22:19:52Z</time>
      </trkpt>
      <trkpt lat="45.75245" lon="6.70922">
        <ele>2222</ele>
        <time>2022-08-26T22:19:55Z</time>
      </trkpt>
      <trkpt lat="45.75244" lon="6.70924">
        <ele>2222</ele>
        <time>2022-08-26T22:19:57Z</time>
      </trkpt>
      <trkpt lat="45.75242" lon="6.70927">
        <ele>2222</ele>
        <time>2022-08-26T22:19:59Z</time>
      </trkpt>
      <trkpt lat="45.7524" lon="6.70929">
        <ele>2223</ele>
        <time>2022-08-26T22:20:02Z</time>
      </trkpt>
      <trkpt lat="45.75239" lon="6.70931">
        <ele>2223</ele>
        <time>2022-08-26T22:20:04Z</time>
      </trkpt>
      <trkpt lat="45.75237" lon="6.70935">
        <ele>2224</ele>
        <time>2022-08-26T22:20:07Z</time>
      </trkpt>
      <trkpt lat="45.75236" lon="6.70937">
        <ele>2224</ele>
        <time>2022-08-26T22:20:10Z</time>
      </trkpt>
      <trkpt lat="45.75235" lon="6.70939">
        <ele>2225</ele>
        <time>2022-08-26T22:20:13Z</time>
      </trkpt>
      <trkpt lat="45.75233" lon="6.7094">
        <ele>2226</ele>
        <time>2022-08-26T22:20:16Z</time>
      </trkpt>
      <trkpt lat="45.75231" lon="6.70942">
        <ele>2226</ele>
        <time>2022-08-26T22:20:19Z</time>
      </trkpt>
      <trkpt lat="45.75229" lon="6.70941">
        <ele>2227</ele>
        <time>2022-08-26T22:20:23Z</time>
      </trkpt>
      <trkpt lat="45.75227" lon="6.70941">
        <ele>2228</ele>
        <time>2022-08-26T22:20:28Z</time>
      </trkpt>
      <trkpt lat="45.75225" lon="6.70942">
        <ele>2229</ele>
        <time>2022-08-26T22:20:31Z</time>
      </trkpt>
      <trkpt lat="45.75223" lon="6.70943">
        <ele>2229</ele>
        <time>2022-08-26T22:20:34Z</time>
      </trkpt>
      <trkpt lat="45.75221" lon="6.70946">
        <ele>2230</ele>
        <time>2022-08-26T22:20:38Z</time>
      </trkpt>
      <trkpt lat="45.7522" lon="6.70947">
        <ele>2230</ele>
        <time>2022-08-26T22:20:40Z</time>
      </trkpt>
      <trkpt lat="45.75218" lon="6.70948">
        <ele>2231</ele>
        <time>2022-08-26T22:20:42Z</time>
      </trkpt>
      <trkpt lat="45.75216" lon="6.7095">
        <ele>2232</ele>
        <time>2022-08-26T22:20:46Z</time>
      </trkpt>
      <trkpt lat="45.75215" lon="6.70952">
        <ele>2232</ele>
        <time>2022-08-26T22:20:49Z</time>
      </trkpt>
      <trkpt lat="45.75213" lon="6.70953">
        <ele>2233</ele>
        <time>2022-08-26T22:20:52Z</time>
      </trkpt>
      <trkpt lat="45.75211" lon="6.70955">
        <ele>2234</ele>
        <time>2022-08-26T22:20:56Z</time>
      </trkpt>
      <trkpt lat="45.7521" lon="6.70958">
        <ele>2234</ele>
        <time>2022-08-26T22:20:59Z</time>
      </trkpt>
      <trkpt lat="45.75208" lon="6.70959">
        <ele>2235</ele>
        <time>2022-08-26T22:21:02Z</time>
      </trkpt>
      <trkpt lat="45.75206" lon="6.70959">
        <ele>2235</ele>
        <time>2022-08-26T22:21:05Z</time>
      </trkpt>
      <trkpt lat="45.75204" lon="6.70958">
        <ele>2236</ele>
        <time>2022-08-26T22:21:08Z</time>
      </trkpt>
      <trkpt lat="45.75203" lon="6.70956">
        <ele>2237</ele>
        <time>2022-08-26T22:21:12Z</time>
      </trkpt>
      <trkpt lat="45.75201" lon="6.70957">
        <ele>2237</ele>
        <time>2022-08-26T22:21:15Z</time>
      </trkpt>
      <trkpt lat="45.75199" lon="6.70958">
        <ele>2238</ele>
        <time>2022-08-26T22:21:18Z</time>
      </trkpt>
      <trkpt lat="45.75197" lon="6.70957">
        <ele>2238</ele>
        <time>2022-08-26T22:21:21Z</time>
      </trkpt>
      <trkpt lat="45.75195" lon="6.70956">
        <ele>2239</ele>
        <time>2022-08-26T22:21:24Z</time>
      </trkpt>
      <trkpt lat="45.75194" lon="6.70954">
        <ele>2240</ele>
        <time>2022-08-26T22:21:27Z</time>
      </trkpt>
      <trkpt lat="45.75192" lon="6.70952">
        <ele>2240</ele>
        <time>2022-08-26T22:21:30Z</time>
      </trkpt>
      <trkpt lat="45.75191" lon="6.70954">
        <ele>2241</ele>
        <time>2022-08-26T22:21:34Z</time>
      </trkpt>
      <trkpt lat="45.75189" lon="6.70955">
        <ele>2241</ele>
        <time>2022-08-26T22:21:37Z</time>
      </trkpt>
      <trkpt lat="45.75187" lon="6.70956">
        <ele>2242</ele>
        <time>2022-08-26T22:21:41Z</time>
      </trkpt>
      <trkpt lat="45.75185" lon="6.70958">
        <ele>2243</ele>
        <time>2022-08-26T22:21:44Z</time>
      </trkpt>
      <trkpt lat="45.75183" lon="6.70958">
        <ele>2245</ele>
        <time>2022-08-26T22:21:48Z</time>
      </trkpt>
      <trkpt lat="45.75181" lon="6.7096">
        <ele>2245</ele>
        <time>2022-08-26T22:21:51Z</time>
      </trkpt>
      <trkpt lat="45.75179" lon="6.7096">
        <ele>2245</ele>
        <time>2022-08-26T22:21:54Z</time>
      </trkpt>
      <trkpt lat="45.75178" lon="6.70961">
        <ele>2248</ele>
        <time>2022-08-26T22:21:58Z</time>
      </trkpt>
      <trkpt lat="45.75175" lon="6.70962">
        <ele>2248</ele>
        <time>2022-08-26T22:22:02Z</time>
      </trkpt>
      <trkpt lat="45.75174" lon="6.70961">
        <ele>2248</ele>
        <time>2022-08-26T22:22:04Z</time>
      </trkpt>
      <trkpt lat="45.75171" lon="6.70961">
        <ele>2250</ele>
        <time>2022-08-26T22:22:07Z</time>
      </trkpt>
      <trkpt lat="45.7517" lon="6.70963">
        <ele>2251</ele>
        <time>2022-08-26T22:22:11Z</time>
      </trkpt>
      <trkpt lat="45.75168" lon="6.70963">
        <ele>2251</ele>
        <time>2022-08-26T22:22:14Z</time>
      </trkpt>
      <trkpt lat="45.75165" lon="6.70963">
        <ele>2252</ele>
        <time>2022-08-26T22:22:17Z</time>
      </trkpt>
      <trkpt lat="45.75163" lon="6.70964">
        <ele>2252</ele>
        <time>2022-08-26T22:22:20Z</time>
      </trkpt>
      <trkpt lat="45.75162" lon="6.70966">
        <ele>2252</ele>
        <time>2022-08-26T22:22:23Z</time>
      </trkpt>
      <trkpt lat="45.7516" lon="6.70968">
        <ele>2253</ele>
        <time>2022-08-26T22:22:26Z</time>
      </trkpt>
      <trkpt lat="45.75158" lon="6.70971">
        <ele>2254</ele>
        <time>2022-08-26T22:22:33Z</time>
      </trkpt>
      <trkpt lat="45.75157" lon="6.70973">
        <ele>2255</ele>
        <time>2022-08-26T22:22:36Z</time>
      </trkpt>
      <trkpt lat="45.75155" lon="6.70974">
        <ele>2256</ele>
        <time>2022-08-26T22:22:39Z</time>
      </trkpt>
      <trkpt lat="45.75154" lon="6.70977">
        <ele>2257</ele>
        <time>2022-08-26T22:22:42Z</time>
      </trkpt>
      <trkpt lat="45.75152" lon="6.70978">
        <ele>2257</ele>
        <time>2022-08-26T22:22:45Z</time>
      </trkpt>
      <trkpt lat="45.7515" lon="6.7098">
        <ele>2257</ele>
        <time>2022-08-26T22:22:48Z</time>
      </trkpt>
      <trkpt lat="45.75147" lon="6.7098">
        <ele>2258</ele>
        <time>2022-08-26T22:22:52Z</time>
      </trkpt>
      <trkpt lat="45.75145" lon="6.70979">
        <ele>2258</ele>
        <time>2022-08-26T22:22:55Z</time>
      </trkpt>
      <trkpt lat="45.75143" lon="6.70981">
        <ele>2258</ele>
        <time>2022-08-26T22:22:58Z</time>
      </trkpt>
      <trkpt lat="45.75141" lon="6.70982">
        <ele>2259</ele>
        <time>2022-08-26T22:23:00Z</time>
      </trkpt>
      <trkpt lat="45.75139" lon="6.70981">
        <ele>2261</ele>
        <time>2022-08-26T22:23:03Z</time>
      </trkpt>
      <trkpt lat="45.75136" lon="6.70981">
        <ele>2261</ele>
        <time>2022-08-26T22:23:06Z</time>
      </trkpt>
      <trkpt lat="45.75134" lon="6.70981">
        <ele>2262</ele>
        <time>2022-08-26T22:23:09Z</time>
      </trkpt>
      <trkpt lat="45.75132" lon="6.70983">
        <ele>2263</ele>
        <time>2022-08-26T22:23:13Z</time>
      </trkpt>
      <trkpt lat="45.75131" lon="6.70983">
        <ele>2263</ele>
        <time>2022-08-26T22:23:14Z</time>
      </trkpt>
      <trkpt lat="45.7513" lon="6.70984">
        <ele>2263</ele>
        <time>2022-08-26T22:23:15Z</time>
      </trkpt>
      <trkpt lat="45.75129" lon="6.70985">
        <ele>2263</ele>
        <time>2022-08-26T22:23:16Z</time>
      </trkpt>
      <trkpt lat="45.75128" lon="6.70986">
        <ele>2263</ele>
        <time>2022-08-26T22:23:17Z</time>
      </trkpt>
      <trkpt lat="45.75126" lon="6.70987">
        <ele>2264</ele>
        <time>2022-08-26T22:23:20Z</time>
      </trkpt>
      <trkpt lat="45.75127" lon="6.70989">
        <ele>2264</ele>
        <time>2022-08-26T22:23:25Z</time>
      </trkpt>
      <trkpt lat="45.75127" lon="6.70988">
        <ele>2264</ele>
        <time>2022-08-26T22:23:26Z</time>
      </trkpt>
      <trkpt lat="45.75127" lon="6.70987">
        <ele>2264</ele>
        <time>2022-08-26T22:23:27Z</time>
      </trkpt>
      <trkpt lat="45.75127" lon="6.70987">
        <ele>2264</ele>
        <time>2022-08-26T22:23:28Z</time>
      </trkpt>
      <trkpt lat="45.75127" lon="6.70986">
        <ele>2264</ele>
        <time>2022-08-26T22:23:29Z</time>
      </trkpt>
      <trkpt lat="45.75127" lon="6.70985">
        <ele>2264</ele>
        <time>2022-08-26T22:23:30Z</time>
      </trkpt>
      <trkpt lat="45.75127" lon="6.70985">
        <ele>2264</ele>
        <time>2022-08-26T22:23:31Z</time>
      </trkpt>
      <trkpt lat="45.75127" lon="6.70984">
        <ele>2264</ele>
        <time>2022-08-26T22:23:32Z</time>
      </trkpt>
      <trkpt lat="45.75127" lon="6.70983">
        <ele>2264</ele>
        <time>2022-08-26T22:23:33Z</time>
      </trkpt>
      <trkpt lat="45.75126" lon="6.70983">
        <ele>2264</ele>
        <time>2022-08-26T22:23:34Z</time>
      </trkpt>
      <trkpt lat="45.75126" lon="6.70982">
        <ele>2264</ele>
        <time>2022-08-26T22:23:36Z</time>
      </trkpt>
      <trkpt lat="45.75126" lon="6.70981">
        <ele>2264</ele>
        <time>2022-08-26T22:23:37Z</time>
      </trkpt>
      <trkpt lat="45.75126" lon="6.70981">
        <ele>2264</ele>
        <time>2022-08-26T22:23:38Z</time>
      </trkpt>
      <trkpt lat="45.75126" lon="6.7098">
        <ele>2264</ele>
        <time>2022-08-26T22:23:39Z</time>
      </trkpt>
      <trkpt lat="45.75126" lon="6.70979">
        <ele>2264</ele>
        <time>2022-08-26T22:23:40Z</time>
      </trkpt>
      <trkpt lat="45.75126" lon="6.70979">
        <ele>2264</ele>
        <time>2022-08-26T22:23:41Z</time>
      </trkpt>
      <trkpt lat="45.75126" lon="6.70978">
        <ele>2264</ele>
        <time>2022-08-26T22:23:42Z</time>
      </trkpt>
      <trkpt lat="45.75126" lon="6.70977">
        <ele>2264</ele>
        <time>2022-08-26T22:23:43Z</time>
      </trkpt>
      <trkpt lat="45.75126" lon="6.70977">
        <ele>2264</ele>
        <time>2022-08-26T22:23:44Z</time>
      </trkpt>
      <trkpt lat="45.75125" lon="6.70976">
        <ele>2264</ele>
        <time>2022-08-26T22:23:45Z</time>
      </trkpt>
      <trkpt lat="45.75125" lon="6.70975">
        <ele>2264</ele>
        <time>2022-08-26T22:23:46Z</time>
      </trkpt>
      <trkpt lat="45.75125" lon="6.70977">
        <ele>2264</ele>
        <time>2022-08-26T22:23:47Z</time>
      </trkpt>
      <trkpt lat="45.75124" lon="6.70979">
        <ele>2264</ele>
        <time>2022-08-26T22:23:48Z</time>
      </trkpt>
      <trkpt lat="45.75123" lon="6.70982">
        <ele>2264</ele>
        <time>2022-08-26T22:23:49Z</time>
      </trkpt>
      <trkpt lat="45.75123" lon="6.70984">
        <ele>2264</ele>
        <time>2022-08-26T22:23:50Z</time>
      </trkpt>
      <trkpt lat="45.75122" lon="6.70986">
        <ele>2264</ele>
        <time>2022-08-26T22:23:52Z</time>
      </trkpt>
      <trkpt lat="45.75121" lon="6.70988">
        <ele>2264</ele>
        <time>2022-08-26T22:23:53Z</time>
      </trkpt>
      <trkpt lat="45.7512" lon="6.70991">
        <ele>2264</ele>
        <time>2022-08-26T22:23:55Z</time>
      </trkpt>
      <trkpt lat="45.75118" lon="6.70992">
        <ele>2264</ele>
        <time>2022-08-26T22:23:56Z</time>
      </trkpt>
      <trkpt lat="45.75116" lon="6.70994">
        <ele>2264</ele>
        <time>2022-08-26T22:23:59Z</time>
      </trkpt>
      <trkpt lat="45.75114" lon="6.70995">
        <ele>2264</ele>
        <time>2022-08-26T22:24:01Z</time>
      </trkpt>
      <trkpt lat="45.75112" lon="6.70997">
        <ele>2264</ele>
        <time>2022-08-26T22:24:03Z</time>
      </trkpt>
      <trkpt lat="45.75111" lon="6.71">
        <ele>2264</ele>
        <time>2022-08-26T22:24:05Z</time>
      </trkpt>
      <trkpt lat="45.75107" lon="6.71005">
        <ele>2264</ele>
        <time>2022-08-26T22:24:09Z</time>
      </trkpt>
      <trkpt lat="45.75105" lon="6.71007">
        <ele>2264</ele>
        <time>2022-08-26T22:24:11Z</time>
      </trkpt>
      <trkpt lat="45.75103" lon="6.7101">
        <ele>2264</ele>
        <time>2022-08-26T22:24:13Z</time>
      </trkpt>
      <trkpt lat="45.75101" lon="6.71013">
        <ele>2264</ele>
        <time>2022-08-26T22:24:15Z</time>
      </trkpt>
      <trkpt lat="45.75099" lon="6.71015">
        <ele>2264</ele>
        <time>2022-08-26T22:24:17Z</time>
      </trkpt>
      <trkpt lat="45.75095" lon="6.71019">
        <ele>2264</ele>
        <time>2022-08-26T22:24:19Z</time>
      </trkpt>
      <trkpt lat="45.75094" lon="6.7102">
        <ele>2264</ele>
        <time>2022-08-26T22:24:20Z</time>
      </trkpt>
      <trkpt lat="45.75093" lon="6.71021">
        <ele>2264</ele>
        <time>2022-08-26T22:24:21Z</time>
      </trkpt>
      <trkpt lat="45.75091" lon="6.71022">
        <ele>2264</ele>
        <time>2022-08-26T22:24:22Z</time>
      </trkpt>
      <trkpt lat="45.75088" lon="6.71025">
        <ele>2264</ele>
        <time>2022-08-26T22:24:23Z</time>
      </trkpt>
      <trkpt lat="45.75087" lon="6.71026">
        <ele>2264</ele>
        <time>2022-08-26T22:24:24Z</time>
      </trkpt>
      <trkpt lat="45.75085" lon="6.71027">
        <ele>2263</ele>
        <time>2022-08-26T22:24:25Z</time>
      </trkpt>
      <trkpt lat="45.7508" lon="6.71029">
        <ele>2263</ele>
        <time>2022-08-26T22:24:26Z</time>
      </trkpt>
      <trkpt lat="45.75079" lon="6.7103">
        <ele>2262</ele>
        <time>2022-08-26T22:24:29Z</time>
      </trkpt>
      <trkpt lat="45.75078" lon="6.7103">
        <ele>2262</ele>
        <time>2022-08-26T22:24:30Z</time>
      </trkpt>
      <trkpt lat="45.75076" lon="6.71031">
        <ele>2261</ele>
        <time>2022-08-26T22:24:31Z</time>
      </trkpt>
      <trkpt lat="45.75067" lon="6.71034">
        <ele>2261</ele>
        <time>2022-08-26T22:24:33Z</time>
      </trkpt>
      <trkpt lat="45.75065" lon="6.71034">
        <ele>2261</ele>
        <time>2022-08-26T22:24:34Z</time>
      </trkpt>
      <trkpt lat="45.75063" lon="6.71035">
        <ele>2261</ele>
        <time>2022-08-26T22:24:35Z</time>
      </trkpt>
      <trkpt lat="45.75061" lon="6.71036">
        <ele>2261</ele>
        <time>2022-08-26T22:24:36Z</time>
      </trkpt>
      <trkpt lat="45.75059" lon="6.71037">
        <ele>2261</ele>
        <time>2022-08-26T22:24:37Z</time>
      </trkpt>
      <trkpt lat="45.75057" lon="6.71039">
        <ele>2261</ele>
        <time>2022-08-26T22:24:38Z</time>
      </trkpt>
      <trkpt lat="45.75056" lon="6.7104">
        <ele>2261</ele>
        <time>2022-08-26T22:24:39Z</time>
      </trkpt>
      <trkpt lat="45.75054" lon="6.71042">
        <ele>2261</ele>
        <time>2022-08-26T22:24:40Z</time>
      </trkpt>
      <trkpt lat="45.75053" lon="6.71043">
        <ele>2261</ele>
        <time>2022-08-26T22:24:41Z</time>
      </trkpt>
      <trkpt lat="45.75051" lon="6.71046">
        <ele>2261</ele>
        <time>2022-08-26T22:24:43Z</time>
      </trkpt>
      <trkpt lat="45.75049" lon="6.71049">
        <ele>2261</ele>
        <time>2022-08-26T22:24:44Z</time>
      </trkpt>
      <trkpt lat="45.75047" lon="6.71051">
        <ele>2261</ele>
        <time>2022-08-26T22:24:45Z</time>
      </trkpt>
      <trkpt lat="45.75046" lon="6.71056">
        <ele>2261</ele>
        <time>2022-08-26T22:24:46Z</time>
      </trkpt>
      <trkpt lat="45.75045" lon="6.71059">
        <ele>2261</ele>
        <time>2022-08-26T22:24:47Z</time>
      </trkpt>
      <trkpt lat="45.75044" lon="6.71061">
        <ele>2261</ele>
        <time>2022-08-26T22:24:48Z</time>
      </trkpt>
      <trkpt lat="45.75043" lon="6.71064">
        <ele>2261</ele>
        <time>2022-08-26T22:24:49Z</time>
      </trkpt>
      <trkpt lat="45.75042" lon="6.71068">
        <ele>2261</ele>
        <time>2022-08-26T22:24:51Z</time>
      </trkpt>
      <trkpt lat="45.7504" lon="6.71072">
        <ele>2261</ele>
        <time>2022-08-26T22:24:53Z</time>
      </trkpt>
      <trkpt lat="45.75038" lon="6.71076">
        <ele>2261</ele>
        <time>2022-08-26T22:24:55Z</time>
      </trkpt>
      <trkpt lat="45.75036" lon="6.71079">
        <ele>2261</ele>
        <time>2022-08-26T22:24:57Z</time>
      </trkpt>
      <trkpt lat="45.75034" lon="6.71082">
        <ele>2261</ele>
        <time>2022-08-26T22:24:59Z</time>
      </trkpt>
      <trkpt lat="45.75032" lon="6.71085">
        <ele>2262</ele>
        <time>2022-08-26T22:25:01Z</time>
      </trkpt>
      <trkpt lat="45.7503" lon="6.71087">
        <ele>2263</ele>
        <time>2022-08-26T22:25:03Z</time>
      </trkpt>
      <trkpt lat="45.75028" lon="6.71089">
        <ele>2263</ele>
        <time>2022-08-26T22:25:05Z</time>
      </trkpt>
      <trkpt lat="45.75026" lon="6.71091">
        <ele>2263</ele>
        <time>2022-08-26T22:25:07Z</time>
      </trkpt>
      <trkpt lat="45.75024" lon="6.71093">
        <ele>2263</ele>
        <time>2022-08-26T22:25:09Z</time>
      </trkpt>
      <trkpt lat="45.75022" lon="6.71096">
        <ele>2263</ele>
        <time>2022-08-26T22:25:11Z</time>
      </trkpt>
      <trkpt lat="45.75021" lon="6.71099">
        <ele>2264</ele>
        <time>2022-08-26T22:25:13Z</time>
      </trkpt>
      <trkpt lat="45.75021" lon="6.71103">
        <ele>2264</ele>
        <time>2022-08-26T22:25:15Z</time>
      </trkpt>
      <trkpt lat="45.7502" lon="6.71108">
        <ele>2264</ele>
        <time>2022-08-26T22:25:17Z</time>
      </trkpt>
      <trkpt lat="45.75019" lon="6.71112">
        <ele>2264</ele>
        <time>2022-08-26T22:25:18Z</time>
      </trkpt>
      <trkpt lat="45.75018" lon="6.71116">
        <ele>2264</ele>
        <time>2022-08-26T22:25:21Z</time>
      </trkpt>
      <trkpt lat="45.75017" lon="6.71121">
        <ele>2264</ele>
        <time>2022-08-26T22:25:23Z</time>
      </trkpt>
      <trkpt lat="45.75016" lon="6.71125">
        <ele>2264</ele>
        <time>2022-08-26T22:25:25Z</time>
      </trkpt>
      <trkpt lat="45.75016" lon="6.7113">
        <ele>2264</ele>
        <time>2022-08-26T22:25:27Z</time>
      </trkpt>
      <trkpt lat="45.75015" lon="6.71134">
        <ele>2264</ele>
        <time>2022-08-26T22:25:29Z</time>
      </trkpt>
      <trkpt lat="45.75013" lon="6.71138">
        <ele>2264</ele>
        <time>2022-08-26T22:25:31Z</time>
      </trkpt>
      <trkpt lat="45.75011" lon="6.71142">
        <ele>2263</ele>
        <time>2022-08-26T22:25:33Z</time>
      </trkpt>
      <trkpt lat="45.7501" lon="6.71145">
        <ele>2264</ele>
        <time>2022-08-26T22:25:35Z</time>
      </trkpt>
      <trkpt lat="45.75008" lon="6.71149">
        <ele>2264</ele>
        <time>2022-08-26T22:25:37Z</time>
      </trkpt>
      <trkpt lat="45.75006" lon="6.71152">
        <ele>2264</ele>
        <time>2022-08-26T22:25:39Z</time>
      </trkpt>
      <trkpt lat="45.75005" lon="6.71155">
        <ele>2265</ele>
        <time>2022-08-26T22:25:41Z</time>
      </trkpt>
      <trkpt lat="45.75003" lon="6.71158">
        <ele>2265</ele>
        <time>2022-08-26T22:25:43Z</time>
      </trkpt>
      <trkpt lat="45.75001" lon="6.71161">
        <ele>2265</ele>
        <time>2022-08-26T22:25:45Z</time>
      </trkpt>
      <trkpt lat="45.75" lon="6.71164">
        <ele>2265</ele>
        <time>2022-08-26T22:25:47Z</time>
      </trkpt>
      <trkpt lat="45.74998" lon="6.71167">
        <ele>2266</ele>
        <time>2022-08-26T22:25:49Z</time>
      </trkpt>
      <trkpt lat="45.74997" lon="6.7117">
        <ele>2266</ele>
        <time>2022-08-26T22:25:51Z</time>
      </trkpt>
      <trkpt lat="45.74995" lon="6.71172">
        <ele>2266</ele>
        <time>2022-08-26T22:25:53Z</time>
      </trkpt>
      <trkpt lat="45.74994" lon="6.71175">
        <ele>2267</ele>
        <time>2022-08-26T22:25:55Z</time>
      </trkpt>
      <trkpt lat="45.74992" lon="6.71178">
        <ele>2267</ele>
        <time>2022-08-26T22:25:57Z</time>
      </trkpt>
      <trkpt lat="45.74991" lon="6.7118">
        <ele>2268</ele>
        <time>2022-08-26T22:25:59Z</time>
      </trkpt>
      <trkpt lat="45.74989" lon="6.71183">
        <ele>2268</ele>
        <time>2022-08-26T22:26:01Z</time>
      </trkpt>
      <trkpt lat="45.74988" lon="6.71186">
        <ele>2268</ele>
        <time>2022-08-26T22:26:03Z</time>
      </trkpt>
      <trkpt lat="45.74986" lon="6.7119">
        <ele>2268</ele>
        <time>2022-08-26T22:26:05Z</time>
      </trkpt>
      <trkpt lat="45.74985" lon="6.71193">
        <ele>2268</ele>
        <time>2022-08-26T22:26:07Z</time>
      </trkpt>
      <trkpt lat="45.74983" lon="6.71197">
        <ele>2268</ele>
        <time>2022-08-26T22:26:09Z</time>
      </trkpt>
      <trkpt lat="45.74982" lon="6.712">
        <ele>2268</ele>
        <time>2022-08-26T22:26:11Z</time>
      </trkpt>
      <trkpt lat="45.74981" lon="6.71204">
        <ele>2268</ele>
        <time>2022-08-26T22:26:12Z</time>
      </trkpt>
      <trkpt lat="45.74979" lon="6.71207">
        <ele>2268</ele>
        <time>2022-08-26T22:26:15Z</time>
      </trkpt>
      <trkpt lat="45.74978" lon="6.7121">
        <ele>2268</ele>
        <time>2022-08-26T22:26:17Z</time>
      </trkpt>
      <trkpt lat="45.74975" lon="6.71213">
        <ele>2268</ele>
        <time>2022-08-26T22:26:19Z</time>
      </trkpt>
      <trkpt lat="45.74973" lon="6.71216">
        <ele>2268</ele>
        <time>2022-08-26T22:26:21Z</time>
      </trkpt>
      <trkpt lat="45.7497" lon="6.71218">
        <ele>2268</ele>
        <time>2022-08-26T22:26:23Z</time>
      </trkpt>
      <trkpt lat="45.74968" lon="6.71219">
        <ele>2268</ele>
        <time>2022-08-26T22:26:25Z</time>
      </trkpt>
      <trkpt lat="45.74966" lon="6.7122">
        <ele>2269</ele>
        <time>2022-08-26T22:26:27Z</time>
      </trkpt>
      <trkpt lat="45.74963" lon="6.71222">
        <ele>2269</ele>
        <time>2022-08-26T22:26:28Z</time>
      </trkpt>
      <trkpt lat="45.7496" lon="6.71225">
        <ele>2269</ele>
        <time>2022-08-26T22:26:31Z</time>
      </trkpt>
      <trkpt lat="45.74958" lon="6.71227">
        <ele>2269</ele>
        <time>2022-08-26T22:26:33Z</time>
      </trkpt>
      <trkpt lat="45.74956" lon="6.7123">
        <ele>2270</ele>
        <time>2022-08-26T22:26:35Z</time>
      </trkpt>
      <trkpt lat="45.74954" lon="6.71233">
        <ele>2270</ele>
        <time>2022-08-26T22:26:37Z</time>
      </trkpt>
      <trkpt lat="45.74952" lon="6.71236">
        <ele>2270</ele>
        <time>2022-08-26T22:26:38Z</time>
      </trkpt>
      <trkpt lat="45.74951" lon="6.7124">
        <ele>2269</ele>
        <time>2022-08-26T22:26:41Z</time>
      </trkpt>
      <trkpt lat="45.7495" lon="6.71244">
        <ele>2269</ele>
        <time>2022-08-26T22:26:43Z</time>
      </trkpt>
      <trkpt lat="45.74949" lon="6.71248">
        <ele>2270</ele>
        <time>2022-08-26T22:26:45Z</time>
      </trkpt>
      <trkpt lat="45.74948" lon="6.71252">
        <ele>2270</ele>
        <time>2022-08-26T22:26:47Z</time>
      </trkpt>
      <trkpt lat="45.74947" lon="6.71256">
        <ele>2269</ele>
        <time>2022-08-26T22:26:48Z</time>
      </trkpt>
      <trkpt lat="45.74946" lon="6.7126">
        <ele>2269</ele>
        <time>2022-08-26T22:26:51Z</time>
      </trkpt>
      <trkpt lat="45.74945" lon="6.71264">
        <ele>2269</ele>
        <time>2022-08-26T22:26:53Z</time>
      </trkpt>
      <trkpt lat="45.74944" lon="6.71268">
        <ele>2269</ele>
        <time>2022-08-26T22:26:55Z</time>
      </trkpt>
      <trkpt lat="45.74943" lon="6.71272">
        <ele>2270</ele>
        <time>2022-08-26T22:26:57Z</time>
      </trkpt>
      <trkpt lat="45.74942" lon="6.71276">
        <ele>2270</ele>
        <time>2022-08-26T22:26:59Z</time>
      </trkpt>
      <trkpt lat="45.7494" lon="6.7128">
        <ele>2270</ele>
        <time>2022-08-26T22:27:01Z</time>
      </trkpt>
      <trkpt lat="45.74939" lon="6.71284">
        <ele>2270</ele>
        <time>2022-08-26T22:27:03Z</time>
      </trkpt>
      <trkpt lat="45.74938" lon="6.71288">
        <ele>2270</ele>
        <time>2022-08-26T22:27:05Z</time>
      </trkpt>
      <trkpt lat="45.74937" lon="6.71292">
        <ele>2270</ele>
        <time>2022-08-26T22:27:07Z</time>
      </trkpt>
      <trkpt lat="45.74935" lon="6.71295">
        <ele>2270</ele>
        <time>2022-08-26T22:27:09Z</time>
      </trkpt>
      <trkpt lat="45.74934" lon="6.71299">
        <ele>2270</ele>
        <time>2022-08-26T22:27:11Z</time>
      </trkpt>
      <trkpt lat="45.74933" lon="6.71303">
        <ele>2271</ele>
        <time>2022-08-26T22:27:13Z</time>
      </trkpt>
      <trkpt lat="45.74931" lon="6.71306">
        <ele>2271</ele>
        <time>2022-08-26T22:27:15Z</time>
      </trkpt>
      <trkpt lat="45.74931" lon="6.7131">
        <ele>2272</ele>
        <time>2022-08-26T22:27:17Z</time>
      </trkpt>
      <trkpt lat="45.74929" lon="6.71313">
        <ele>2272</ele>
        <time>2022-08-26T22:27:19Z</time>
      </trkpt>
      <trkpt lat="45.74928" lon="6.71316">
        <ele>2271</ele>
        <time>2022-08-26T22:27:21Z</time>
      </trkpt>
      <trkpt lat="45.74927" lon="6.71319">
        <ele>2271</ele>
        <time>2022-08-26T22:27:23Z</time>
      </trkpt>
      <trkpt lat="45.74925" lon="6.71323">
        <ele>2272</ele>
        <time>2022-08-26T22:27:25Z</time>
      </trkpt>
      <trkpt lat="45.74924" lon="6.71326">
        <ele>2272</ele>
        <time>2022-08-26T22:27:27Z</time>
      </trkpt>
      <trkpt lat="45.74922" lon="6.71329">
        <ele>2272</ele>
        <time>2022-08-26T22:27:29Z</time>
      </trkpt>
      <trkpt lat="45.7492" lon="6.71332">
        <ele>2274</ele>
        <time>2022-08-26T22:27:31Z</time>
      </trkpt>
      <trkpt lat="45.74918" lon="6.71335">
        <ele>2274</ele>
        <time>2022-08-26T22:27:33Z</time>
      </trkpt>
      <trkpt lat="45.74916" lon="6.71338">
        <ele>2274</ele>
        <time>2022-08-26T22:27:35Z</time>
      </trkpt>
      <trkpt lat="45.74914" lon="6.71341">
        <ele>2274</ele>
        <time>2022-08-26T22:27:37Z</time>
      </trkpt>
      <trkpt lat="45.74912" lon="6.71344">
        <ele>2274</ele>
        <time>2022-08-26T22:27:38Z</time>
      </trkpt>
      <trkpt lat="45.7491" lon="6.71346">
        <ele>2274</ele>
        <time>2022-08-26T22:27:41Z</time>
      </trkpt>
      <trkpt lat="45.74908" lon="6.71349">
        <ele>2274</ele>
        <time>2022-08-26T22:27:43Z</time>
      </trkpt>
      <trkpt lat="45.74906" lon="6.71352">
        <ele>2274</ele>
        <time>2022-08-26T22:27:44Z</time>
      </trkpt>
      <trkpt lat="45.74904" lon="6.71355">
        <ele>2274</ele>
        <time>2022-08-26T22:27:47Z</time>
      </trkpt>
      <trkpt lat="45.74902" lon="6.71358">
        <ele>2275</ele>
        <time>2022-08-26T22:27:49Z</time>
      </trkpt>
      <trkpt lat="45.749" lon="6.71361">
        <ele>2275</ele>
        <time>2022-08-26T22:27:51Z</time>
      </trkpt>
      <trkpt lat="45.74898" lon="6.71364">
        <ele>2276</ele>
        <time>2022-08-26T22:27:53Z</time>
      </trkpt>
      <trkpt lat="45.74897" lon="6.71367">
        <ele>2276</ele>
        <time>2022-08-26T22:27:54Z</time>
      </trkpt>
      <trkpt lat="45.74895" lon="6.7137">
        <ele>2276</ele>
        <time>2022-08-26T22:27:57Z</time>
      </trkpt>
      <trkpt lat="45.74893" lon="6.71373">
        <ele>2276</ele>
        <time>2022-08-26T22:27:59Z</time>
      </trkpt>
      <trkpt lat="45.74891" lon="6.71376">
        <ele>2276</ele>
        <time>2022-08-26T22:28:01Z</time>
      </trkpt>
      <trkpt lat="45.74889" lon="6.71379">
        <ele>2276</ele>
        <time>2022-08-26T22:28:03Z</time>
      </trkpt>
      <trkpt lat="45.74888" lon="6.71382">
        <ele>2276</ele>
        <time>2022-08-26T22:28:05Z</time>
      </trkpt>
      <trkpt lat="45.74886" lon="6.71385">
        <ele>2277</ele>
        <time>2022-08-26T22:28:07Z</time>
      </trkpt>
      <trkpt lat="45.74884" lon="6.71388">
        <ele>2277</ele>
        <time>2022-08-26T22:28:09Z</time>
      </trkpt>
      <trkpt lat="45.74882" lon="6.71391">
        <ele>2277</ele>
        <time>2022-08-26T22:28:11Z</time>
      </trkpt>
      <trkpt lat="45.74879" lon="6.71395">
        <ele>2278</ele>
        <time>2022-08-26T22:28:13Z</time>
      </trkpt>
      <trkpt lat="45.74877" lon="6.71398">
        <ele>2278</ele>
        <time>2022-08-26T22:28:15Z</time>
      </trkpt>
      <trkpt lat="45.74875" lon="6.71401">
        <ele>2278</ele>
        <time>2022-08-26T22:28:17Z</time>
      </trkpt>
      <trkpt lat="45.74873" lon="6.71404">
        <ele>2278</ele>
        <time>2022-08-26T22:28:19Z</time>
      </trkpt>
      <trkpt lat="45.74871" lon="6.71406">
        <ele>2278</ele>
        <time>2022-08-26T22:28:21Z</time>
      </trkpt>
      <trkpt lat="45.74868" lon="6.71409">
        <ele>2278</ele>
        <time>2022-08-26T22:28:23Z</time>
      </trkpt>
      <trkpt lat="45.74866" lon="6.71411">
        <ele>2278</ele>
        <time>2022-08-26T22:28:25Z</time>
      </trkpt>
      <trkpt lat="45.74864" lon="6.71414">
        <ele>2278</ele>
        <time>2022-08-26T22:28:27Z</time>
      </trkpt>
      <trkpt lat="45.74862" lon="6.71417">
        <ele>2278</ele>
        <time>2022-08-26T22:28:29Z</time>
      </trkpt>
      <trkpt lat="45.74859" lon="6.7142">
        <ele>2278</ele>
        <time>2022-08-26T22:28:31Z</time>
      </trkpt>
      <trkpt lat="45.74856" lon="6.71422">
        <ele>2278</ele>
        <time>2022-08-26T22:28:32Z</time>
      </trkpt>
      <trkpt lat="45.74853" lon="6.71424">
        <ele>2277</ele>
        <time>2022-08-26T22:28:35Z</time>
      </trkpt>
      <trkpt lat="45.7485" lon="6.71426">
        <ele>2277</ele>
        <time>2022-08-26T22:28:37Z</time>
      </trkpt>
      <trkpt lat="45.74847" lon="6.71427">
        <ele>2277</ele>
        <time>2022-08-26T22:28:39Z</time>
      </trkpt>
      <trkpt lat="45.74845" lon="6.71428">
        <ele>2277</ele>
        <time>2022-08-26T22:28:41Z</time>
      </trkpt>
      <trkpt lat="45.74842" lon="6.71428">
        <ele>2278</ele>
        <time>2022-08-26T22:28:43Z</time>
      </trkpt>
      <trkpt lat="45.74839" lon="6.71429">
        <ele>2278</ele>
        <time>2022-08-26T22:28:45Z</time>
      </trkpt>
      <trkpt lat="45.74836" lon="6.71429">
        <ele>2278</ele>
        <time>2022-08-26T22:28:47Z</time>
      </trkpt>
      <trkpt lat="45.74833" lon="6.7143">
        <ele>2278</ele>
        <time>2022-08-26T22:28:49Z</time>
      </trkpt>
      <trkpt lat="45.74831" lon="6.71431">
        <ele>2278</ele>
        <time>2022-08-26T22:28:51Z</time>
      </trkpt>
      <trkpt lat="45.74828" lon="6.71432">
        <ele>2278</ele>
        <time>2022-08-26T22:28:53Z</time>
      </trkpt>
      <trkpt lat="45.74826" lon="6.71433">
        <ele>2279</ele>
        <time>2022-08-26T22:28:55Z</time>
      </trkpt>
      <trkpt lat="45.74823" lon="6.71434">
        <ele>2279</ele>
        <time>2022-08-26T22:28:57Z</time>
      </trkpt>
      <trkpt lat="45.7482" lon="6.71437">
        <ele>2279</ele>
        <time>2022-08-26T22:28:59Z</time>
      </trkpt>
      <trkpt lat="45.74817" lon="6.71438">
        <ele>2279</ele>
        <time>2022-08-26T22:29:01Z</time>
      </trkpt>
      <trkpt lat="45.74815" lon="6.7144">
        <ele>2279</ele>
        <time>2022-08-26T22:29:03Z</time>
      </trkpt>
      <trkpt lat="45.74812" lon="6.71441">
        <ele>2279</ele>
        <time>2022-08-26T22:29:05Z</time>
      </trkpt>
      <trkpt lat="45.7481" lon="6.71442">
        <ele>2279</ele>
        <time>2022-08-26T22:29:07Z</time>
      </trkpt>
      <trkpt lat="45.74807" lon="6.71443">
        <ele>2280</ele>
        <time>2022-08-26T22:29:09Z</time>
      </trkpt>
      <trkpt lat="45.74805" lon="6.71444">
        <ele>2281</ele>
        <time>2022-08-26T22:29:11Z</time>
      </trkpt>
      <trkpt lat="45.74802" lon="6.71446">
        <ele>2281</ele>
        <time>2022-08-26T22:29:13Z</time>
      </trkpt>
      <trkpt lat="45.748" lon="6.71448">
        <ele>2281</ele>
        <time>2022-08-26T22:29:15Z</time>
      </trkpt>
      <trkpt lat="45.74797" lon="6.7145">
        <ele>2281</ele>
        <time>2022-08-26T22:29:17Z</time>
      </trkpt>
      <trkpt lat="45.74795" lon="6.71452">
        <ele>2281</ele>
        <time>2022-08-26T22:29:19Z</time>
      </trkpt>
      <trkpt lat="45.74792" lon="6.71454">
        <ele>2281</ele>
        <time>2022-08-26T22:29:20Z</time>
      </trkpt>
      <trkpt lat="45.7479" lon="6.71455">
        <ele>2281</ele>
        <time>2022-08-26T22:29:23Z</time>
      </trkpt>
      <trkpt lat="45.74787" lon="6.71458">
        <ele>2281</ele>
        <time>2022-08-26T22:29:25Z</time>
      </trkpt>
      <trkpt lat="45.74784" lon="6.71459">
        <ele>2281</ele>
        <time>2022-08-26T22:29:27Z</time>
      </trkpt>
      <trkpt lat="45.74782" lon="6.71461">
        <ele>2281</ele>
        <time>2022-08-26T22:29:29Z</time>
      </trkpt>
      <trkpt lat="45.74781" lon="6.71465">
        <ele>2282</ele>
        <time>2022-08-26T22:29:31Z</time>
      </trkpt>
      <trkpt lat="45.74779" lon="6.71468">
        <ele>2283</ele>
        <time>2022-08-26T22:29:33Z</time>
      </trkpt>
      <trkpt lat="45.74778" lon="6.71471">
        <ele>2283</ele>
        <time>2022-08-26T22:29:35Z</time>
      </trkpt>
      <trkpt lat="45.74776" lon="6.71475">
        <ele>2283</ele>
        <time>2022-08-26T22:29:37Z</time>
      </trkpt>
      <trkpt lat="45.74775" lon="6.71477">
        <ele>2283</ele>
        <time>2022-08-26T22:29:39Z</time>
      </trkpt>
      <trkpt lat="45.74773" lon="6.71478">
        <ele>2284</ele>
        <time>2022-08-26T22:29:41Z</time>
      </trkpt>
      <trkpt lat="45.74771" lon="6.7148">
        <ele>2284</ele>
        <time>2022-08-26T22:29:43Z</time>
      </trkpt>
      <trkpt lat="45.74769" lon="6.71482">
        <ele>2284</ele>
        <time>2022-08-26T22:29:46Z</time>
      </trkpt>
      <trkpt lat="45.74769" lon="6.71485">
        <ele>2284</ele>
        <time>2022-08-26T22:29:48Z</time>
      </trkpt>
      <trkpt lat="45.74768" lon="6.71489">
        <ele>2284</ele>
        <time>2022-08-26T22:29:50Z</time>
      </trkpt>
      <trkpt lat="45.7477" lon="6.71491">
        <ele>2284</ele>
        <time>2022-08-26T22:29:52Z</time>
      </trkpt>
      <trkpt lat="45.74772" lon="6.71493">
        <ele>2285</ele>
        <time>2022-08-26T22:29:53Z</time>
      </trkpt>
      <trkpt lat="45.74774" lon="6.71495">
        <ele>2285</ele>
        <time>2022-08-26T22:29:56Z</time>
      </trkpt>
      <trkpt lat="45.74774" lon="6.71499">
        <ele>2286</ele>
        <time>2022-08-26T22:29:58Z</time>
      </trkpt>
      <trkpt lat="45.74773" lon="6.71501">
        <ele>2287</ele>
        <time>2022-08-26T22:30:01Z</time>
      </trkpt>
      <trkpt lat="45.74771" lon="6.71502">
        <ele>2287</ele>
        <time>2022-08-26T22:30:04Z</time>
      </trkpt>
      <trkpt lat="45.7477" lon="6.71504">
        <ele>2287</ele>
        <time>2022-08-26T22:30:07Z</time>
      </trkpt>
      <trkpt lat="45.74767" lon="6.71504">
        <ele>2288</ele>
        <time>2022-08-26T22:30:10Z</time>
      </trkpt>
      <trkpt lat="45.74765" lon="6.71506">
        <ele>2289</ele>
        <time>2022-08-26T22:30:13Z</time>
      </trkpt>
      <trkpt lat="45.74763" lon="6.71506">
        <ele>2289</ele>
        <time>2022-08-26T22:30:15Z</time>
      </trkpt>
      <trkpt lat="45.74761" lon="6.71507">
        <ele>2289</ele>
        <time>2022-08-26T22:30:17Z</time>
      </trkpt>
      <trkpt lat="45.7476" lon="6.71508">
        <ele>2290</ele>
        <time>2022-08-26T22:30:19Z</time>
      </trkpt>
      <trkpt lat="45.74758" lon="6.71511">
        <ele>2291</ele>
        <time>2022-08-26T22:30:22Z</time>
      </trkpt>
      <trkpt lat="45.74757" lon="6.71513">
        <ele>2291</ele>
        <time>2022-08-26T22:30:24Z</time>
      </trkpt>
      <trkpt lat="45.74755" lon="6.71515">
        <ele>2291</ele>
        <time>2022-08-26T22:30:26Z</time>
      </trkpt>
      <trkpt lat="45.74753" lon="6.71516">
        <ele>2291</ele>
        <time>2022-08-26T22:30:28Z</time>
      </trkpt>
      <trkpt lat="45.74751" lon="6.71518">
        <ele>2291</ele>
        <time>2022-08-26T22:30:30Z</time>
      </trkpt>
      <trkpt lat="45.74749" lon="6.71519">
        <ele>2292</ele>
        <time>2022-08-26T22:30:32Z</time>
      </trkpt>
      <trkpt lat="45.74747" lon="6.7152">
        <ele>2292</ele>
        <time>2022-08-26T22:30:34Z</time>
      </trkpt>
      <trkpt lat="45.74745" lon="6.71522">
        <ele>2293</ele>
        <time>2022-08-26T22:30:36Z</time>
      </trkpt>
      <trkpt lat="45.74743" lon="6.71523">
        <ele>2293</ele>
        <time>2022-08-26T22:30:38Z</time>
      </trkpt>
      <trkpt lat="45.7474" lon="6.71524">
        <ele>2293</ele>
        <time>2022-08-26T22:30:40Z</time>
      </trkpt>
      <trkpt lat="45.74738" lon="6.71525">
        <ele>2293</ele>
        <time>2022-08-26T22:30:42Z</time>
      </trkpt>
      <trkpt lat="45.74735" lon="6.71526">
        <ele>2293</ele>
        <time>2022-08-26T22:30:44Z</time>
      </trkpt>
      <trkpt lat="45.74733" lon="6.71527">
        <ele>2293</ele>
        <time>2022-08-26T22:30:46Z</time>
      </trkpt>
      <trkpt lat="45.7473" lon="6.71529">
        <ele>2293</ele>
        <time>2022-08-26T22:30:48Z</time>
      </trkpt>
      <trkpt lat="45.74728" lon="6.71531">
        <ele>2293</ele>
        <time>2022-08-26T22:30:50Z</time>
      </trkpt>
      <trkpt lat="45.74726" lon="6.71531">
        <ele>2294</ele>
        <time>2022-08-26T22:30:52Z</time>
      </trkpt>
      <trkpt lat="45.74724" lon="6.71532">
        <ele>2294</ele>
        <time>2022-08-26T22:30:54Z</time>
      </trkpt>
      <trkpt lat="45.74723" lon="6.71534">
        <ele>2295</ele>
        <time>2022-08-26T22:30:56Z</time>
      </trkpt>
      <trkpt lat="45.74722" lon="6.71537">
        <ele>2295</ele>
        <time>2022-08-26T22:30:58Z</time>
      </trkpt>
      <trkpt lat="45.74721" lon="6.7154">
        <ele>2295</ele>
        <time>2022-08-26T22:31:00Z</time>
      </trkpt>
      <trkpt lat="45.7472" lon="6.71543">
        <ele>2296</ele>
        <time>2022-08-26T22:31:03Z</time>
      </trkpt>
      <trkpt lat="45.74719" lon="6.71546">
        <ele>2297</ele>
        <time>2022-08-26T22:31:06Z</time>
      </trkpt>
      <trkpt lat="45.74718" lon="6.71549">
        <ele>2298</ele>
        <time>2022-08-26T22:31:08Z</time>
      </trkpt>
      <trkpt lat="45.74718" lon="6.71552">
        <ele>2298</ele>
        <time>2022-08-26T22:31:10Z</time>
      </trkpt>
      <trkpt lat="45.74718" lon="6.71555">
        <ele>2298</ele>
        <time>2022-08-26T22:31:12Z</time>
      </trkpt>
      <trkpt lat="45.74717" lon="6.71558">
        <ele>2298</ele>
        <time>2022-08-26T22:31:14Z</time>
      </trkpt>
      <trkpt lat="45.74715" lon="6.7156">
        <ele>2298</ele>
        <time>2022-08-26T22:31:16Z</time>
      </trkpt>
      <trkpt lat="45.74714" lon="6.71562">
        <ele>2298</ele>
        <time>2022-08-26T22:31:18Z</time>
      </trkpt>
      <trkpt lat="45.74713" lon="6.71565">
        <ele>2300</ele>
        <time>2022-08-26T22:31:20Z</time>
      </trkpt>
      <trkpt lat="45.74712" lon="6.71568">
        <ele>2300</ele>
        <time>2022-08-26T22:31:21Z</time>
      </trkpt>
      <trkpt lat="45.74712" lon="6.71572">
        <ele>2301</ele>
        <time>2022-08-26T22:31:24Z</time>
      </trkpt>
      <trkpt lat="45.74711" lon="6.71576">
        <ele>2301</ele>
        <time>2022-08-26T22:31:26Z</time>
      </trkpt>
      <trkpt lat="45.7471" lon="6.71579">
        <ele>2301</ele>
        <time>2022-08-26T22:31:28Z</time>
      </trkpt>
      <trkpt lat="45.74709" lon="6.71583">
        <ele>2301</ele>
        <time>2022-08-26T22:31:30Z</time>
      </trkpt>
      <trkpt lat="45.74707" lon="6.71585">
        <ele>2302</ele>
        <time>2022-08-26T22:31:32Z</time>
      </trkpt>
      <trkpt lat="45.74706" lon="6.71588">
        <ele>2302</ele>
        <time>2022-08-26T22:31:34Z</time>
      </trkpt>
      <trkpt lat="45.74705" lon="6.71591">
        <ele>2302</ele>
        <time>2022-08-26T22:31:36Z</time>
      </trkpt>
      <trkpt lat="45.74705" lon="6.71594">
        <ele>2303</ele>
        <time>2022-08-26T22:31:38Z</time>
      </trkpt>
      <trkpt lat="45.74704" lon="6.71596">
        <ele>2303</ele>
        <time>2022-08-26T22:31:40Z</time>
      </trkpt>
      <trkpt lat="45.74702" lon="6.71598">
        <ele>2303</ele>
        <time>2022-08-26T22:31:42Z</time>
      </trkpt>
      <trkpt lat="45.74701" lon="6.716">
        <ele>2304</ele>
        <time>2022-08-26T22:31:44Z</time>
      </trkpt>
      <trkpt lat="45.747" lon="6.71603">
        <ele>2304</ele>
        <time>2022-08-26T22:31:47Z</time>
      </trkpt>
      <trkpt lat="45.74699" lon="6.71606">
        <ele>2304</ele>
        <time>2022-08-26T22:31:49Z</time>
      </trkpt>
      <trkpt lat="45.74699" lon="6.71609">
        <ele>2304</ele>
        <time>2022-08-26T22:31:51Z</time>
      </trkpt>
      <trkpt lat="45.74698" lon="6.71612">
        <ele>2304</ele>
        <time>2022-08-26T22:31:53Z</time>
      </trkpt>
      <trkpt lat="45.74697" lon="6.71614">
        <ele>2305</ele>
        <time>2022-08-26T22:31:55Z</time>
      </trkpt>
      <trkpt lat="45.74696" lon="6.71616">
        <ele>2305</ele>
        <time>2022-08-26T22:31:57Z</time>
      </trkpt>
      <trkpt lat="45.74695" lon="6.71619">
        <ele>2305</ele>
        <time>2022-08-26T22:31:59Z</time>
      </trkpt>
      <trkpt lat="45.74693" lon="6.71621">
        <ele>2306</ele>
        <time>2022-08-26T22:32:01Z</time>
      </trkpt>
      <trkpt lat="45.74692" lon="6.71623">
        <ele>2306</ele>
        <time>2022-08-26T22:32:03Z</time>
      </trkpt>
      <trkpt lat="45.74691" lon="6.71626">
        <ele>2306</ele>
        <time>2022-08-26T22:32:05Z</time>
      </trkpt>
      <trkpt lat="45.74691" lon="6.71629">
        <ele>2307</ele>
        <time>2022-08-26T22:32:07Z</time>
      </trkpt>
      <trkpt lat="45.7469" lon="6.71633">
        <ele>2307</ele>
        <time>2022-08-26T22:32:09Z</time>
      </trkpt>
      <trkpt lat="45.7469" lon="6.71635">
        <ele>2308</ele>
        <time>2022-08-26T22:32:11Z</time>
      </trkpt>
      <trkpt lat="45.7469" lon="6.71638">
        <ele>2308</ele>
        <time>2022-08-26T22:32:13Z</time>
      </trkpt>
      <trkpt lat="45.7469" lon="6.71641">
        <ele>2308</ele>
        <time>2022-08-26T22:32:15Z</time>
      </trkpt>
      <trkpt lat="45.7469" lon="6.71645">
        <ele>2308</ele>
        <time>2022-08-26T22:32:18Z</time>
      </trkpt>
      <trkpt lat="45.74691" lon="6.71648">
        <ele>2309</ele>
        <time>2022-08-26T22:32:21Z</time>
      </trkpt>
      <trkpt lat="45.7469" lon="6.71651">
        <ele>2309</ele>
        <time>2022-08-26T22:32:23Z</time>
      </trkpt>
      <trkpt lat="45.74689" lon="6.71654">
        <ele>2310</ele>
        <time>2022-08-26T22:32:25Z</time>
      </trkpt>
      <trkpt lat="45.74688" lon="6.71657">
        <ele>2310</ele>
        <time>2022-08-26T22:32:26Z</time>
      </trkpt>
      <trkpt lat="45.74687" lon="6.71659">
        <ele>2311</ele>
        <time>2022-08-26T22:32:29Z</time>
      </trkpt>
      <trkpt lat="45.74686" lon="6.71662">
        <ele>2311</ele>
        <time>2022-08-26T22:32:31Z</time>
      </trkpt>
      <trkpt lat="45.74685" lon="6.71665">
        <ele>2311</ele>
        <time>2022-08-26T22:32:33Z</time>
      </trkpt>
      <trkpt lat="45.74684" lon="6.71668">
        <ele>2312</ele>
        <time>2022-08-26T22:32:35Z</time>
      </trkpt>
      <trkpt lat="45.74683" lon="6.71671">
        <ele>2312</ele>
        <time>2022-08-26T22:32:37Z</time>
      </trkpt>
      <trkpt lat="45.74681" lon="6.71674">
        <ele>2313</ele>
        <time>2022-08-26T22:32:39Z</time>
      </trkpt>
      <trkpt lat="45.74679" lon="6.71676">
        <ele>2313</ele>
        <time>2022-08-26T22:32:41Z</time>
      </trkpt>
      <trkpt lat="45.74678" lon="6.71678">
        <ele>2313</ele>
        <time>2022-08-26T22:32:43Z</time>
      </trkpt>
      <trkpt lat="45.74676" lon="6.7168">
        <ele>2313</ele>
        <time>2022-08-26T22:32:45Z</time>
      </trkpt>
      <trkpt lat="45.74675" lon="6.71682">
        <ele>2313</ele>
        <time>2022-08-26T22:32:47Z</time>
      </trkpt>
      <trkpt lat="45.74674" lon="6.71685">
        <ele>2314</ele>
        <time>2022-08-26T22:32:49Z</time>
      </trkpt>
      <trkpt lat="45.74673" lon="6.71689">
        <ele>2314</ele>
        <time>2022-08-26T22:32:51Z</time>
      </trkpt>
      <trkpt lat="45.74672" lon="6.71692">
        <ele>2314</ele>
        <time>2022-08-26T22:32:53Z</time>
      </trkpt>
      <trkpt lat="45.74671" lon="6.71695">
        <ele>2314</ele>
        <time>2022-08-26T22:32:55Z</time>
      </trkpt>
      <trkpt lat="45.7467" lon="6.71698">
        <ele>2315</ele>
        <time>2022-08-26T22:32:57Z</time>
      </trkpt>
      <trkpt lat="45.7467" lon="6.71701">
        <ele>2315</ele>
        <time>2022-08-26T22:32:59Z</time>
      </trkpt>
      <trkpt lat="45.74669" lon="6.71705">
        <ele>2316</ele>
        <time>2022-08-26T22:33:02Z</time>
      </trkpt>
      <trkpt lat="45.74669" lon="6.71708">
        <ele>2316</ele>
        <time>2022-08-26T22:33:03Z</time>
      </trkpt>
      <trkpt lat="45.74667" lon="6.71712">
        <ele>2316</ele>
        <time>2022-08-26T22:33:06Z</time>
      </trkpt>
      <trkpt lat="45.74666" lon="6.71716">
        <ele>2318</ele>
        <time>2022-08-26T22:33:10Z</time>
      </trkpt>
      <trkpt lat="45.74665" lon="6.71719">
        <ele>2318</ele>
        <time>2022-08-26T22:33:12Z</time>
      </trkpt>
      <trkpt lat="45.74663" lon="6.71721">
        <ele>2318</ele>
        <time>2022-08-26T22:33:14Z</time>
      </trkpt>
      <trkpt lat="45.74661" lon="6.71723">
        <ele>2319</ele>
        <time>2022-08-26T22:33:16Z</time>
      </trkpt>
      <trkpt lat="45.74659" lon="6.71725">
        <ele>2319</ele>
        <time>2022-08-26T22:33:18Z</time>
      </trkpt>
      <trkpt lat="45.74657" lon="6.71727">
        <ele>2319</ele>
        <time>2022-08-26T22:33:20Z</time>
      </trkpt>
      <trkpt lat="45.74656" lon="6.71729">
        <ele>2320</ele>
        <time>2022-08-26T22:33:23Z</time>
      </trkpt>
      <trkpt lat="45.74655" lon="6.71732">
        <ele>2320</ele>
        <time>2022-08-26T22:33:25Z</time>
      </trkpt>
      <trkpt lat="45.74654" lon="6.71735">
        <ele>2320</ele>
        <time>2022-08-26T22:33:26Z</time>
      </trkpt>
      <trkpt lat="45.74653" lon="6.71738">
        <ele>2321</ele>
        <time>2022-08-26T22:33:29Z</time>
      </trkpt>
      <trkpt lat="45.74654" lon="6.7174">
        <ele>2321</ele>
        <time>2022-08-26T22:33:31Z</time>
      </trkpt>
      <trkpt lat="45.74655" lon="6.71744">
        <ele>2321</ele>
        <time>2022-08-26T22:33:33Z</time>
      </trkpt>
      <trkpt lat="45.74656" lon="6.71746">
        <ele>2322</ele>
        <time>2022-08-26T22:33:35Z</time>
      </trkpt>
      <trkpt lat="45.74657" lon="6.71749">
        <ele>2322</ele>
        <time>2022-08-26T22:33:37Z</time>
      </trkpt>
      <trkpt lat="45.74657" lon="6.71752">
        <ele>2322</ele>
        <time>2022-08-26T22:33:39Z</time>
      </trkpt>
      <trkpt lat="45.74656" lon="6.71755">
        <ele>2323</ele>
        <time>2022-08-26T22:33:41Z</time>
      </trkpt>
      <trkpt lat="45.74656" lon="6.71759">
        <ele>2323</ele>
        <time>2022-08-26T22:33:43Z</time>
      </trkpt>
      <trkpt lat="45.74656" lon="6.71762">
        <ele>2323</ele>
        <time>2022-08-26T22:33:45Z</time>
      </trkpt>
      <trkpt lat="45.74657" lon="6.71766">
        <ele>2323</ele>
        <time>2022-08-26T22:33:47Z</time>
      </trkpt>
      <trkpt lat="45.74658" lon="6.71769">
        <ele>2323</ele>
        <time>2022-08-26T22:33:48Z</time>
      </trkpt>
      <trkpt lat="45.74658" lon="6.71773">
        <ele>2323</ele>
        <time>2022-08-26T22:33:51Z</time>
      </trkpt>
      <trkpt lat="45.74659" lon="6.71776">
        <ele>2323</ele>
        <time>2022-08-26T22:33:53Z</time>
      </trkpt>
      <trkpt lat="45.7466" lon="6.71779">
        <ele>2324</ele>
        <time>2022-08-26T22:33:55Z</time>
      </trkpt>
      <trkpt lat="45.74661" lon="6.71782">
        <ele>2324</ele>
        <time>2022-08-26T22:33:56Z</time>
      </trkpt>
      <trkpt lat="45.74662" lon="6.71784">
        <ele>2324</ele>
        <time>2022-08-26T22:33:59Z</time>
      </trkpt>
      <trkpt lat="45.74663" lon="6.71787">
        <ele>2326</ele>
        <time>2022-08-26T22:34:01Z</time>
      </trkpt>
      <trkpt lat="45.74663" lon="6.7179">
        <ele>2326</ele>
        <time>2022-08-26T22:34:03Z</time>
      </trkpt>
      <trkpt lat="45.74663" lon="6.71793">
        <ele>2326</ele>
        <time>2022-08-26T22:34:05Z</time>
      </trkpt>
      <trkpt lat="45.74663" lon="6.71796">
        <ele>2327</ele>
        <time>2022-08-26T22:34:07Z</time>
      </trkpt>
      <trkpt lat="45.74663" lon="6.71799">
        <ele>2327</ele>
        <time>2022-08-26T22:34:09Z</time>
      </trkpt>
      <trkpt lat="45.74663" lon="6.71801">
        <ele>2327</ele>
        <time>2022-08-26T22:34:10Z</time>
      </trkpt>
      <trkpt lat="45.74663" lon="6.71803">
        <ele>2327</ele>
        <time>2022-08-26T22:34:11Z</time>
      </trkpt>
      <trkpt lat="45.74663" lon="6.71805">
        <ele>2327</ele>
        <time>2022-08-26T22:34:12Z</time>
      </trkpt>
      <trkpt lat="45.74663" lon="6.71808">
        <ele>2327</ele>
        <time>2022-08-26T22:34:15Z</time>
      </trkpt>
      <trkpt lat="45.74663" lon="6.71811">
        <ele>2328</ele>
        <time>2022-08-26T22:34:17Z</time>
      </trkpt>
      <trkpt lat="45.74663" lon="6.71814">
        <ele>2328</ele>
        <time>2022-08-26T22:34:19Z</time>
      </trkpt>
      <trkpt lat="45.74661" lon="6.71818">
        <ele>2328</ele>
        <time>2022-08-26T22:34:22Z</time>
      </trkpt>
      <trkpt lat="45.7466" lon="6.71821">
        <ele>2329</ele>
        <time>2022-08-26T22:34:25Z</time>
      </trkpt>
      <trkpt lat="45.74658" lon="6.71821">
        <ele>2329</ele>
        <time>2022-08-26T22:34:27Z</time>
      </trkpt>
      <trkpt lat="45.74657" lon="6.7182">
        <ele>2330</ele>
        <time>2022-08-26T22:34:29Z</time>
      </trkpt>
      <trkpt lat="45.74657" lon="6.71816">
        <ele>2330</ele>
        <time>2022-08-26T22:34:31Z</time>
      </trkpt>
      <trkpt lat="45.74656" lon="6.71813">
        <ele>2330</ele>
        <time>2022-08-26T22:34:33Z</time>
      </trkpt>
      <trkpt lat="45.74655" lon="6.7181">
        <ele>2330</ele>
        <time>2022-08-26T22:34:35Z</time>
      </trkpt>
      <trkpt lat="45.74654" lon="6.71807">
        <ele>2330</ele>
        <time>2022-08-26T22:34:37Z</time>
      </trkpt>
      <trkpt lat="45.74652" lon="6.71805">
        <ele>2330</ele>
        <time>2022-08-26T22:34:39Z</time>
      </trkpt>
      <trkpt lat="45.74649" lon="6.71802">
        <ele>2330</ele>
        <time>2022-08-26T22:34:42Z</time>
      </trkpt>
      <trkpt lat="45.74647" lon="6.71801">
        <ele>2331</ele>
        <time>2022-08-26T22:34:44Z</time>
      </trkpt>
      <trkpt lat="45.74645" lon="6.718">
        <ele>2331</ele>
        <time>2022-08-26T22:34:46Z</time>
      </trkpt>
      <trkpt lat="45.74643" lon="6.71798">
        <ele>2332</ele>
        <time>2022-08-26T22:34:49Z</time>
      </trkpt>
      <trkpt lat="45.74641" lon="6.71796">
        <ele>2333</ele>
        <time>2022-08-26T22:34:51Z</time>
      </trkpt>
      <trkpt lat="45.74639" lon="6.71795">
        <ele>2334</ele>
        <time>2022-08-26T22:34:53Z</time>
      </trkpt>
      <trkpt lat="45.74637" lon="6.71794">
        <ele>2334</ele>
        <time>2022-08-26T22:34:55Z</time>
      </trkpt>
      <trkpt lat="45.74635" lon="6.71792">
        <ele>2334</ele>
        <time>2022-08-26T22:34:57Z</time>
      </trkpt>
      <trkpt lat="45.74634" lon="6.7179">
        <ele>2335</ele>
        <time>2022-08-26T22:34:59Z</time>
      </trkpt>
      <trkpt lat="45.74632" lon="6.71787">
        <ele>2335</ele>
        <time>2022-08-26T22:35:01Z</time>
      </trkpt>
      <trkpt lat="45.74631" lon="6.71783">
        <ele>2334</ele>
        <time>2022-08-26T22:35:03Z</time>
      </trkpt>
      <trkpt lat="45.7463" lon="6.71781">
        <ele>2334</ele>
        <time>2022-08-26T22:35:05Z</time>
      </trkpt>
      <trkpt lat="45.74629" lon="6.71778">
        <ele>2335</ele>
        <time>2022-08-26T22:35:07Z</time>
      </trkpt>
      <trkpt lat="45.74627" lon="6.71776">
        <ele>2335</ele>
        <time>2022-08-26T22:35:09Z</time>
      </trkpt>
      <trkpt lat="45.74626" lon="6.71774">
        <ele>2335</ele>
        <time>2022-08-26T22:35:11Z</time>
      </trkpt>
      <trkpt lat="45.74624" lon="6.71772">
        <ele>2336</ele>
        <time>2022-08-26T22:35:14Z</time>
      </trkpt>
      <trkpt lat="45.74622" lon="6.71771">
        <ele>2336</ele>
        <time>2022-08-26T22:35:16Z</time>
      </trkpt>
      <trkpt lat="45.7462" lon="6.71769">
        <ele>2337</ele>
        <time>2022-08-26T22:35:19Z</time>
      </trkpt>
      <trkpt lat="45.74619" lon="6.71767">
        <ele>2337</ele>
        <time>2022-08-26T22:35:21Z</time>
      </trkpt>
      <trkpt lat="45.74617" lon="6.71766">
        <ele>2338</ele>
        <time>2022-08-26T22:35:23Z</time>
      </trkpt>
      <trkpt lat="45.74615" lon="6.71764">
        <ele>2338</ele>
        <time>2022-08-26T22:35:27Z</time>
      </trkpt>
      <trkpt lat="45.74612" lon="6.71763">
        <ele>2339</ele>
        <time>2022-08-26T22:35:30Z</time>
      </trkpt>
      <trkpt lat="45.74611" lon="6.71762">
        <ele>2339</ele>
        <time>2022-08-26T22:35:31Z</time>
      </trkpt>
      <trkpt lat="45.7461" lon="6.71758">
        <ele>2340</ele>
        <time>2022-08-26T22:35:35Z</time>
      </trkpt>
      <trkpt lat="45.74608" lon="6.71757">
        <ele>2340</ele>
        <time>2022-08-26T22:35:38Z</time>
      </trkpt>
      <trkpt lat="45.74605" lon="6.71755">
        <ele>2341</ele>
        <time>2022-08-26T22:35:41Z</time>
      </trkpt>
      <trkpt lat="45.74603" lon="6.71754">
        <ele>2343</ele>
        <time>2022-08-26T22:35:44Z</time>
      </trkpt>
      <trkpt lat="45.74602" lon="6.71752">
        <ele>2344</ele>
        <time>2022-08-26T22:35:47Z</time>
      </trkpt>
      <trkpt lat="45.74601" lon="6.71748">
        <ele>2344</ele>
        <time>2022-08-26T22:35:49Z</time>
      </trkpt>
      <trkpt lat="45.74602" lon="6.71746">
        <ele>2344</ele>
        <time>2022-08-26T22:35:53Z</time>
      </trkpt>
      <trkpt lat="45.74602" lon="6.71746">
        <ele>2345</ele>
        <time>2022-08-26T22:36:08Z</time>
      </trkpt>
      <trkpt lat="45.74601" lon="6.71747">
        <ele>2345</ele>
        <time>2022-08-26T22:36:19Z</time>
      </trkpt>
      <trkpt lat="45.74599" lon="6.71744">
        <ele>2345</ele>
        <time>2022-08-26T22:36:23Z</time>
      </trkpt>
      <trkpt lat="45.74598" lon="6.71741">
        <ele>2346</ele>
        <time>2022-08-26T22:36:26Z</time>
      </trkpt>
      <trkpt lat="45.74597" lon="6.71739">
        <ele>2346</ele>
        <time>2022-08-26T22:36:30Z</time>
      </trkpt>
      <trkpt lat="45.74595" lon="6.71737">
        <ele>2346</ele>
        <time>2022-08-26T22:36:32Z</time>
      </trkpt>
      <trkpt lat="45.74594" lon="6.71735">
        <ele>2347</ele>
        <time>2022-08-26T22:36:35Z</time>
      </trkpt>
      <trkpt lat="45.74592" lon="6.71732">
        <ele>2348</ele>
        <time>2022-08-26T22:36:38Z</time>
      </trkpt>
      <trkpt lat="45.7459" lon="6.7173">
        <ele>2349</ele>
        <time>2022-08-26T22:36:41Z</time>
      </trkpt>
      <trkpt lat="45.74588" lon="6.71729">
        <ele>2349</ele>
        <time>2022-08-26T22:36:44Z</time>
      </trkpt>
      <trkpt lat="45.74586" lon="6.71727">
        <ele>2350</ele>
        <time>2022-08-26T22:36:47Z</time>
      </trkpt>
      <trkpt lat="45.74585" lon="6.71725">
        <ele>2350</ele>
        <time>2022-08-26T22:36:50Z</time>
      </trkpt>
      <trkpt lat="45.74583" lon="6.71724">
        <ele>2352</ele>
        <time>2022-08-26T22:36:53Z</time>
      </trkpt>
      <trkpt lat="45.74582" lon="6.71722">
        <ele>2353</ele>
        <time>2022-08-26T22:36:57Z</time>
      </trkpt>
      <trkpt lat="45.7458" lon="6.71721">
        <ele>2353</ele>
        <time>2022-08-26T22:37:01Z</time>
      </trkpt>
      <trkpt lat="45.74578" lon="6.71719">
        <ele>2354</ele>
        <time>2022-08-26T22:37:05Z</time>
      </trkpt>
      <trkpt lat="45.74576" lon="6.71718">
        <ele>2355</ele>
        <time>2022-08-26T22:37:09Z</time>
      </trkpt>
      <trkpt lat="45.74574" lon="6.71717">
        <ele>2355</ele>
        <time>2022-08-26T22:37:12Z</time>
      </trkpt>
      <trkpt lat="45.74572" lon="6.71716">
        <ele>2356</ele>
        <time>2022-08-26T22:37:16Z</time>
      </trkpt>
      <trkpt lat="45.7457" lon="6.71715">
        <ele>2357</ele>
        <time>2022-08-26T22:37:20Z</time>
      </trkpt>
      <trkpt lat="45.74568" lon="6.71715">
        <ele>2358</ele>
        <time>2022-08-26T22:37:23Z</time>
      </trkpt>
      <trkpt lat="45.74566" lon="6.71715">
        <ele>2359</ele>
        <time>2022-08-26T22:37:26Z</time>
      </trkpt>
      <trkpt lat="45.74565" lon="6.71714">
        <ele>2359</ele>
        <time>2022-08-26T22:37:29Z</time>
      </trkpt>
      <trkpt lat="45.74563" lon="6.71712">
        <ele>2360</ele>
        <time>2022-08-26T22:37:32Z</time>
      </trkpt>
      <trkpt lat="45.74561" lon="6.71711">
        <ele>2361</ele>
        <time>2022-08-26T22:37:36Z</time>
      </trkpt>
      <trkpt lat="45.74559" lon="6.71711">
        <ele>2362</ele>
        <time>2022-08-26T22:37:39Z</time>
      </trkpt>
      <trkpt lat="45.74557" lon="6.7171">
        <ele>2362</ele>
        <time>2022-08-26T22:37:43Z</time>
      </trkpt>
      <trkpt lat="45.74555" lon="6.71709">
        <ele>2363</ele>
        <time>2022-08-26T22:37:46Z</time>
      </trkpt>
      <trkpt lat="45.74553" lon="6.71707">
        <ele>2363</ele>
        <time>2022-08-26T22:37:50Z</time>
      </trkpt>
      <trkpt lat="45.74551" lon="6.71707">
        <ele>2364</ele>
        <time>2022-08-26T22:37:54Z</time>
      </trkpt>
      <trkpt lat="45.7455" lon="6.7171">
        <ele>2364</ele>
        <time>2022-08-26T22:37:58Z</time>
      </trkpt>
      <trkpt lat="45.74548" lon="6.71711">
        <ele>2365</ele>
        <time>2022-08-26T22:38:01Z</time>
      </trkpt>
      <trkpt lat="45.74546" lon="6.71712">
        <ele>2366</ele>
        <time>2022-08-26T22:38:04Z</time>
      </trkpt>
      <trkpt lat="45.74544" lon="6.71712">
        <ele>2366</ele>
        <time>2022-08-26T22:38:08Z</time>
      </trkpt>
      <trkpt lat="45.74542" lon="6.71711">
        <ele>2367</ele>
        <time>2022-08-26T22:38:11Z</time>
      </trkpt>
      <trkpt lat="45.7454" lon="6.7171">
        <ele>2367</ele>
        <time>2022-08-26T22:38:14Z</time>
      </trkpt>
      <trkpt lat="45.74539" lon="6.71708">
        <ele>2368</ele>
        <time>2022-08-26T22:38:18Z</time>
      </trkpt>
      <trkpt lat="45.74537" lon="6.71708">
        <ele>2368</ele>
        <time>2022-08-26T22:38:22Z</time>
      </trkpt>
      <trkpt lat="45.74535" lon="6.7171">
        <ele>2369</ele>
        <time>2022-08-26T22:38:25Z</time>
      </trkpt>
      <trkpt lat="45.74533" lon="6.71711">
        <ele>2370</ele>
        <time>2022-08-26T22:38:28Z</time>
      </trkpt>
      <trkpt lat="45.74532" lon="6.7171">
        <ele>2371</ele>
        <time>2022-08-26T22:38:31Z</time>
      </trkpt>
      <trkpt lat="45.7453" lon="6.71708">
        <ele>2371</ele>
        <time>2022-08-26T22:38:34Z</time>
      </trkpt>
      <trkpt lat="45.74527" lon="6.71707">
        <ele>2372</ele>
        <time>2022-08-26T22:38:37Z</time>
      </trkpt>
      <trkpt lat="45.74526" lon="6.71705">
        <ele>2373</ele>
        <time>2022-08-26T22:38:40Z</time>
      </trkpt>
      <trkpt lat="45.74525" lon="6.71702">
        <ele>2374</ele>
        <time>2022-08-26T22:38:43Z</time>
      </trkpt>
      <trkpt lat="45.74523" lon="6.717">
        <ele>2375</ele>
        <time>2022-08-26T22:38:45Z</time>
      </trkpt>
      <trkpt lat="45.74522" lon="6.71697">
        <ele>2375</ele>
        <time>2022-08-26T22:38:48Z</time>
      </trkpt>
      <trkpt lat="45.74523" lon="6.71693">
        <ele>2376</ele>
        <time>2022-08-26T22:38:50Z</time>
      </trkpt>
      <trkpt lat="45.74523" lon="6.71691">
        <ele>2376</ele>
        <time>2022-08-26T22:38:52Z</time>
      </trkpt>
      <trkpt lat="45.74522" lon="6.71687">
        <ele>2378</ele>
        <time>2022-08-26T22:38:55Z</time>
      </trkpt>
      <trkpt lat="45.74523" lon="6.71684">
        <ele>2378</ele>
        <time>2022-08-26T22:38:57Z</time>
      </trkpt>
      <trkpt lat="45.74523" lon="6.71681">
        <ele>2379</ele>
        <time>2022-08-26T22:38:59Z</time>
      </trkpt>
      <trkpt lat="45.74523" lon="6.71678">
        <ele>2380</ele>
        <time>2022-08-26T22:39:02Z</time>
      </trkpt>
      <trkpt lat="45.74521" lon="6.71678">
        <ele>2381</ele>
        <time>2022-08-26T22:39:08Z</time>
      </trkpt>
      <trkpt lat="45.74519" lon="6.71679">
        <ele>2382</ele>
        <time>2022-08-26T22:39:11Z</time>
      </trkpt>
      <trkpt lat="45.74517" lon="6.71679">
        <ele>2382</ele>
        <time>2022-08-26T22:39:13Z</time>
      </trkpt>
      <trkpt lat="45.74515" lon="6.71678">
        <ele>2382</ele>
        <time>2022-08-26T22:39:16Z</time>
      </trkpt>
      <trkpt lat="45.74514" lon="6.71676">
        <ele>2383</ele>
        <time>2022-08-26T22:39:19Z</time>
      </trkpt>
      <trkpt lat="45.74512" lon="6.71673">
        <ele>2384</ele>
        <time>2022-08-26T22:39:23Z</time>
      </trkpt>
      <trkpt lat="45.74511" lon="6.7167">
        <ele>2384</ele>
        <time>2022-08-26T22:39:26Z</time>
      </trkpt>
      <trkpt lat="45.7451" lon="6.71668">
        <ele>2385</ele>
        <time>2022-08-26T22:39:29Z</time>
      </trkpt>
      <trkpt lat="45.74508" lon="6.71667">
        <ele>2386</ele>
        <time>2022-08-26T22:39:32Z</time>
      </trkpt>
      <trkpt lat="45.74506" lon="6.71666">
        <ele>2387</ele>
        <time>2022-08-26T22:39:35Z</time>
      </trkpt>
      <trkpt lat="45.74504" lon="6.71665">
        <ele>2387</ele>
        <time>2022-08-26T22:39:38Z</time>
      </trkpt>
      <trkpt lat="45.74502" lon="6.71664">
        <ele>2388</ele>
        <time>2022-08-26T22:39:41Z</time>
      </trkpt>
      <trkpt lat="45.745" lon="6.71662">
        <ele>2389</ele>
        <time>2022-08-26T22:39:44Z</time>
      </trkpt>
      <trkpt lat="45.74498" lon="6.7166">
        <ele>2389</ele>
        <time>2022-08-26T22:39:47Z</time>
      </trkpt>
      <trkpt lat="45.74497" lon="6.71657">
        <ele>2389</ele>
        <time>2022-08-26T22:39:50Z</time>
      </trkpt>
      <trkpt lat="45.74495" lon="6.71655">
        <ele>2390</ele>
        <time>2022-08-26T22:39:53Z</time>
      </trkpt>
      <trkpt lat="45.74492" lon="6.71655">
        <ele>2391</ele>
        <time>2022-08-26T22:39:56Z</time>
      </trkpt>
      <trkpt lat="45.74491" lon="6.71654">
        <ele>2391</ele>
        <time>2022-08-26T22:39:58Z</time>
      </trkpt>
      <trkpt lat="45.74489" lon="6.71651">
        <ele>2392</ele>
        <time>2022-08-26T22:40:01Z</time>
      </trkpt>
      <trkpt lat="45.74489" lon="6.71648">
        <ele>2392</ele>
        <time>2022-08-26T22:40:03Z</time>
      </trkpt>
      <trkpt lat="45.74488" lon="6.71645">
        <ele>2392</ele>
        <time>2022-08-26T22:40:06Z</time>
      </trkpt>
      <trkpt lat="45.74488" lon="6.71642">
        <ele>2393</ele>
        <time>2022-08-26T22:40:08Z</time>
      </trkpt>
      <trkpt lat="45.74488" lon="6.71639">
        <ele>2393</ele>
        <time>2022-08-26T22:40:12Z</time>
      </trkpt>
      <trkpt lat="45.74487" lon="6.71635">
        <ele>2393</ele>
        <time>2022-08-26T22:40:15Z</time>
      </trkpt>
      <trkpt lat="45.74486" lon="6.71633">
        <ele>2394</ele>
        <time>2022-08-26T22:40:16Z</time>
      </trkpt>
      <trkpt lat="45.74485" lon="6.7163">
        <ele>2394</ele>
        <time>2022-08-26T22:40:19Z</time>
      </trkpt>
      <trkpt lat="45.74483" lon="6.71629">
        <ele>2394</ele>
        <time>2022-08-26T22:40:21Z</time>
      </trkpt>
      <trkpt lat="45.74481" lon="6.71625">
        <ele>2395</ele>
        <time>2022-08-26T22:40:24Z</time>
      </trkpt>
      <trkpt lat="45.74481" lon="6.71623">
        <ele>2395</ele>
        <time>2022-08-26T22:40:26Z</time>
      </trkpt>
      <trkpt lat="45.7448" lon="6.7162">
        <ele>2396</ele>
        <time>2022-08-26T22:40:28Z</time>
      </trkpt>
      <trkpt lat="45.74479" lon="6.71618">
        <ele>2396</ele>
        <time>2022-08-26T22:40:30Z</time>
      </trkpt>
      <trkpt lat="45.74477" lon="6.71615">
        <ele>2396</ele>
        <time>2022-08-26T22:40:32Z</time>
      </trkpt>
      <trkpt lat="45.74476" lon="6.71613">
        <ele>2397</ele>
        <time>2022-08-26T22:40:34Z</time>
      </trkpt>
      <trkpt lat="45.74475" lon="6.7161">
        <ele>2397</ele>
        <time>2022-08-26T22:40:36Z</time>
      </trkpt>
      <trkpt lat="45.74473" lon="6.71608">
        <ele>2397</ele>
        <time>2022-08-26T22:40:39Z</time>
      </trkpt>
      <trkpt lat="45.74471" lon="6.71606">
        <ele>2398</ele>
        <time>2022-08-26T22:40:42Z</time>
      </trkpt>
      <trkpt lat="45.74469" lon="6.71604">
        <ele>2399</ele>
        <time>2022-08-26T22:40:45Z</time>
      </trkpt>
      <trkpt lat="45.74467" lon="6.71603">
        <ele>2399</ele>
        <time>2022-08-26T22:40:47Z</time>
      </trkpt>
      <trkpt lat="45.74465" lon="6.71603">
        <ele>2399</ele>
        <time>2022-08-26T22:40:48Z</time>
      </trkpt>
      <trkpt lat="45.74462" lon="6.71602">
        <ele>2400</ele>
        <time>2022-08-26T22:40:52Z</time>
      </trkpt>
      <trkpt lat="45.7446" lon="6.71602">
        <ele>2400</ele>
        <time>2022-08-26T22:40:53Z</time>
      </trkpt>
      <trkpt lat="45.74458" lon="6.71602">
        <ele>2401</ele>
        <time>2022-08-26T22:40:56Z</time>
      </trkpt>
      <trkpt lat="45.74456" lon="6.71603">
        <ele>2401</ele>
        <time>2022-08-26T22:40:58Z</time>
      </trkpt>
      <trkpt lat="45.74454" lon="6.71602">
        <ele>2401</ele>
        <time>2022-08-26T22:41:00Z</time>
      </trkpt>
      <trkpt lat="45.74452" lon="6.71602">
        <ele>2401</ele>
        <time>2022-08-26T22:41:03Z</time>
      </trkpt>
      <trkpt lat="45.74449" lon="6.71602">
        <ele>2404</ele>
        <time>2022-08-26T22:41:06Z</time>
      </trkpt>
      <trkpt lat="45.74447" lon="6.71602">
        <ele>2405</ele>
        <time>2022-08-26T22:41:09Z</time>
      </trkpt>
      <trkpt lat="45.74445" lon="6.71602">
        <ele>2404</ele>
        <time>2022-08-26T22:41:12Z</time>
      </trkpt>
      <trkpt lat="45.74442" lon="6.71602">
        <ele>2405</ele>
        <time>2022-08-26T22:41:15Z</time>
      </trkpt>
      <trkpt lat="45.74439" lon="6.71602">
        <ele>2406</ele>
        <time>2022-08-26T22:41:18Z</time>
      </trkpt>
      <trkpt lat="45.74437" lon="6.71602">
        <ele>2406</ele>
        <time>2022-08-26T22:41:21Z</time>
      </trkpt>
      <trkpt lat="45.74435" lon="6.71602">
        <ele>2406</ele>
        <time>2022-08-26T22:41:23Z</time>
      </trkpt>
      <trkpt lat="45.74433" lon="6.71601">
        <ele>2406</ele>
        <time>2022-08-26T22:41:25Z</time>
      </trkpt>
      <trkpt lat="45.74431" lon="6.71601">
        <ele>2407</ele>
        <time>2022-08-26T22:41:28Z</time>
      </trkpt>
      <trkpt lat="45.74428" lon="6.716">
        <ele>2407</ele>
        <time>2022-08-26T22:41:31Z</time>
      </trkpt>
      <trkpt lat="45.74426" lon="6.716">
        <ele>2408</ele>
        <time>2022-08-26T22:41:34Z</time>
      </trkpt>
      <trkpt lat="45.74423" lon="6.71601">
        <ele>2409</ele>
        <time>2022-08-26T22:41:37Z</time>
      </trkpt>
      <trkpt lat="45.74421" lon="6.71601">
        <ele>2409</ele>
        <time>2022-08-26T22:41:39Z</time>
      </trkpt>
      <trkpt lat="45.74419" lon="6.716">
        <ele>2409</ele>
        <time>2022-08-26T22:41:41Z</time>
      </trkpt>
      <trkpt lat="45.74417" lon="6.716">
        <ele>2409</ele>
        <time>2022-08-26T22:41:43Z</time>
      </trkpt>
      <trkpt lat="45.74415" lon="6.71598">
        <ele>2410</ele>
        <time>2022-08-26T22:41:45Z</time>
      </trkpt>
      <trkpt lat="45.74413" lon="6.71596">
        <ele>2411</ele>
        <time>2022-08-26T22:41:47Z</time>
      </trkpt>
      <trkpt lat="45.74411" lon="6.71595">
        <ele>2412</ele>
        <time>2022-08-26T22:41:49Z</time>
      </trkpt>
      <trkpt lat="45.74409" lon="6.71592">
        <ele>2412</ele>
        <time>2022-08-26T22:41:51Z</time>
      </trkpt>
      <trkpt lat="45.74407" lon="6.7159">
        <ele>2413</ele>
        <time>2022-08-26T22:41:54Z</time>
      </trkpt>
      <trkpt lat="45.74406" lon="6.71588">
        <ele>2413</ele>
        <time>2022-08-26T22:41:55Z</time>
      </trkpt>
      <trkpt lat="45.74404" lon="6.71587">
        <ele>2413</ele>
        <time>2022-08-26T22:41:58Z</time>
      </trkpt>
      <trkpt lat="45.74402" lon="6.71586">
        <ele>2413</ele>
        <time>2022-08-26T22:42:00Z</time>
      </trkpt>
      <trkpt lat="45.74401" lon="6.71584">
        <ele>2414</ele>
        <time>2022-08-26T22:42:02Z</time>
      </trkpt>
      <trkpt lat="45.74399" lon="6.71583">
        <ele>2414</ele>
        <time>2022-08-26T22:42:04Z</time>
      </trkpt>
      <trkpt lat="45.74398" lon="6.71581">
        <ele>2415</ele>
        <time>2022-08-26T22:42:06Z</time>
      </trkpt>
      <trkpt lat="45.74396" lon="6.71579">
        <ele>2415</ele>
        <time>2022-08-26T22:42:08Z</time>
      </trkpt>
      <trkpt lat="45.74394" lon="6.71578">
        <ele>2416</ele>
        <time>2022-08-26T22:42:10Z</time>
      </trkpt>
      <trkpt lat="45.74393" lon="6.71576">
        <ele>2416</ele>
        <time>2022-08-26T22:42:12Z</time>
      </trkpt>
      <trkpt lat="45.7439" lon="6.71576">
        <ele>2416</ele>
        <time>2022-08-26T22:42:15Z</time>
      </trkpt>
      <trkpt lat="45.74389" lon="6.71575">
        <ele>2416</ele>
        <time>2022-08-26T22:42:17Z</time>
      </trkpt>
      <trkpt lat="45.74387" lon="6.71573">
        <ele>2417</ele>
        <time>2022-08-26T22:42:20Z</time>
      </trkpt>
      <trkpt lat="45.74385" lon="6.71571">
        <ele>2417</ele>
        <time>2022-08-26T22:42:22Z</time>
      </trkpt>
      <trkpt lat="45.74382" lon="6.7157">
        <ele>2417</ele>
        <time>2022-08-26T22:42:26Z</time>
      </trkpt>
      <trkpt lat="45.7438" lon="6.71569">
        <ele>2418</ele>
        <time>2022-08-26T22:42:29Z</time>
      </trkpt>
      <trkpt lat="45.74378" lon="6.7157">
        <ele>2418</ele>
        <time>2022-08-26T22:42:31Z</time>
      </trkpt>
      <trkpt lat="45.74376" lon="6.71569">
        <ele>2418</ele>
        <time>2022-08-26T22:42:32Z</time>
      </trkpt>
      <trkpt lat="45.74374" lon="6.71569">
        <ele>2419</ele>
        <time>2022-08-26T22:42:36Z</time>
      </trkpt>
      <trkpt lat="45.74372" lon="6.71568">
        <ele>2419</ele>
        <time>2022-08-26T22:42:37Z</time>
      </trkpt>
      <trkpt lat="45.7437" lon="6.71567">
        <ele>2419</ele>
        <time>2022-08-26T22:42:40Z</time>
      </trkpt>
      <trkpt lat="45.74368" lon="6.71566">
        <ele>2420</ele>
        <time>2022-08-26T22:42:42Z</time>
      </trkpt>
      <trkpt lat="45.74366" lon="6.71565">
        <ele>2421</ele>
        <time>2022-08-26T22:42:44Z</time>
      </trkpt>
      <trkpt lat="45.74364" lon="6.71564">
        <ele>2422</ele>
        <time>2022-08-26T22:42:46Z</time>
      </trkpt>
      <trkpt lat="45.74362" lon="6.71563">
        <ele>2422</ele>
        <time>2022-08-26T22:42:47Z</time>
      </trkpt>
      <trkpt lat="45.7436" lon="6.71562">
        <ele>2422</ele>
        <time>2022-08-26T22:42:51Z</time>
      </trkpt>
      <trkpt lat="45.74358" lon="6.71562">
        <ele>2422</ele>
        <time>2022-08-26T22:42:53Z</time>
      </trkpt>
      <trkpt lat="45.74356" lon="6.71561">
        <ele>2422</ele>
        <time>2022-08-26T22:42:55Z</time>
      </trkpt>
      <trkpt lat="45.74353" lon="6.71559">
        <ele>2423</ele>
        <time>2022-08-26T22:42:57Z</time>
      </trkpt>
      <trkpt lat="45.74351" lon="6.71559">
        <ele>2423</ele>
        <time>2022-08-26T22:42:59Z</time>
      </trkpt>
      <trkpt lat="45.74348" lon="6.71558">
        <ele>2423</ele>
        <time>2022-08-26T22:43:01Z</time>
      </trkpt>
      <trkpt lat="45.74345" lon="6.71558">
        <ele>2423</ele>
        <time>2022-08-26T22:43:03Z</time>
      </trkpt>
      <trkpt lat="45.74343" lon="6.71558">
        <ele>2423</ele>
        <time>2022-08-26T22:43:05Z</time>
      </trkpt>
      <trkpt lat="45.7434" lon="6.71557">
        <ele>2423</ele>
        <time>2022-08-26T22:43:06Z</time>
      </trkpt>
      <trkpt lat="45.74337" lon="6.71557">
        <ele>2423</ele>
        <time>2022-08-26T22:43:09Z</time>
      </trkpt>
      <trkpt lat="45.74334" lon="6.71557">
        <ele>2423</ele>
        <time>2022-08-26T22:43:11Z</time>
      </trkpt>
      <trkpt lat="45.74331" lon="6.71557">
        <ele>2423</ele>
        <time>2022-08-26T22:43:13Z</time>
      </trkpt>
      <trkpt lat="45.74329" lon="6.71556">
        <ele>2423</ele>
        <time>2022-08-26T22:43:15Z</time>
      </trkpt>
      <trkpt lat="45.74326" lon="6.71557">
        <ele>2423</ele>
        <time>2022-08-26T22:43:17Z</time>
      </trkpt>
      <trkpt lat="45.74323" lon="6.71557">
        <ele>2423</ele>
        <time>2022-08-26T22:43:19Z</time>
      </trkpt>
      <trkpt lat="45.74321" lon="6.71557">
        <ele>2423</ele>
        <time>2022-08-26T22:43:21Z</time>
      </trkpt>
      <trkpt lat="45.74319" lon="6.71558">
        <ele>2424</ele>
        <time>2022-08-26T22:43:23Z</time>
      </trkpt>
      <trkpt lat="45.74316" lon="6.71558">
        <ele>2424</ele>
        <time>2022-08-26T22:43:25Z</time>
      </trkpt>
      <trkpt lat="45.74314" lon="6.71557">
        <ele>2424</ele>
        <time>2022-08-26T22:43:27Z</time>
      </trkpt>
      <trkpt lat="45.74312" lon="6.71556">
        <ele>2424</ele>
        <time>2022-08-26T22:43:29Z</time>
      </trkpt>
      <trkpt lat="45.74309" lon="6.71555">
        <ele>2424</ele>
        <time>2022-08-26T22:43:31Z</time>
      </trkpt>
      <trkpt lat="45.74306" lon="6.71553">
        <ele>2424</ele>
        <time>2022-08-26T22:43:33Z</time>
      </trkpt>
      <trkpt lat="45.74304" lon="6.71553">
        <ele>2424</ele>
        <time>2022-08-26T22:43:35Z</time>
      </trkpt>
      <trkpt lat="45.74301" lon="6.71551">
        <ele>2425</ele>
        <time>2022-08-26T22:43:37Z</time>
      </trkpt>
      <trkpt lat="45.74299" lon="6.7155">
        <ele>2425</ele>
        <time>2022-08-26T22:43:39Z</time>
      </trkpt>
      <trkpt lat="45.74296" lon="6.71548">
        <ele>2425</ele>
        <time>2022-08-26T22:43:41Z</time>
      </trkpt>
      <trkpt lat="45.74295" lon="6.71547">
        <ele>2425</ele>
        <time>2022-08-26T22:43:42Z</time>
      </trkpt>
      <trkpt lat="45.74292" lon="6.71544">
        <ele>2426</ele>
        <time>2022-08-26T22:43:45Z</time>
      </trkpt>
      <trkpt lat="45.74291" lon="6.71542">
        <ele>2426</ele>
        <time>2022-08-26T22:43:47Z</time>
      </trkpt>
      <trkpt lat="45.74289" lon="6.71539">
        <ele>2426</ele>
        <time>2022-08-26T22:43:49Z</time>
      </trkpt>
      <trkpt lat="45.74286" lon="6.71538">
        <ele>2427</ele>
        <time>2022-08-26T22:43:51Z</time>
      </trkpt>
      <trkpt lat="45.74284" lon="6.71537">
        <ele>2427</ele>
        <time>2022-08-26T22:43:53Z</time>
      </trkpt>
      <trkpt lat="45.74281" lon="6.71536">
        <ele>2427</ele>
        <time>2022-08-26T22:43:55Z</time>
      </trkpt>
      <trkpt lat="45.74278" lon="6.71536">
        <ele>2426</ele>
        <time>2022-08-26T22:43:57Z</time>
      </trkpt>
      <trkpt lat="45.74275" lon="6.71535">
        <ele>2426</ele>
        <time>2022-08-26T22:43:59Z</time>
      </trkpt>
      <trkpt lat="45.74273" lon="6.71533">
        <ele>2426</ele>
        <time>2022-08-26T22:44:01Z</time>
      </trkpt>
      <trkpt lat="45.74271" lon="6.7153">
        <ele>2426</ele>
        <time>2022-08-26T22:44:03Z</time>
      </trkpt>
      <trkpt lat="45.74269" lon="6.71527">
        <ele>2426</ele>
        <time>2022-08-26T22:44:05Z</time>
      </trkpt>
      <trkpt lat="45.74268" lon="6.71524">
        <ele>2426</ele>
        <time>2022-08-26T22:44:07Z</time>
      </trkpt>
      <trkpt lat="45.74267" lon="6.7152">
        <ele>2426</ele>
        <time>2022-08-26T22:44:09Z</time>
      </trkpt>
      <trkpt lat="45.74266" lon="6.71517">
        <ele>2426</ele>
        <time>2022-08-26T22:44:11Z</time>
      </trkpt>
      <trkpt lat="45.74265" lon="6.71513">
        <ele>2426</ele>
        <time>2022-08-26T22:44:12Z</time>
      </trkpt>
      <trkpt lat="45.74264" lon="6.7151">
        <ele>2427</ele>
        <time>2022-08-26T22:44:15Z</time>
      </trkpt>
      <trkpt lat="45.74262" lon="6.71507">
        <ele>2428</ele>
        <time>2022-08-26T22:44:17Z</time>
      </trkpt>
      <trkpt lat="45.7426" lon="6.71504">
        <ele>2428</ele>
        <time>2022-08-26T22:44:19Z</time>
      </trkpt>
      <trkpt lat="45.74258" lon="6.71503">
        <ele>2428</ele>
        <time>2022-08-26T22:44:21Z</time>
      </trkpt>
      <trkpt lat="45.74256" lon="6.71501">
        <ele>2428</ele>
        <time>2022-08-26T22:44:23Z</time>
      </trkpt>
      <trkpt lat="45.74254" lon="6.71498">
        <ele>2428</ele>
        <time>2022-08-26T22:44:25Z</time>
      </trkpt>
      <trkpt lat="45.74252" lon="6.71497">
        <ele>2430</ele>
        <time>2022-08-26T22:44:27Z</time>
      </trkpt>
      <trkpt lat="45.74251" lon="6.71495">
        <ele>2430</ele>
        <time>2022-08-26T22:44:29Z</time>
      </trkpt>
      <trkpt lat="45.74248" lon="6.71493">
        <ele>2431</ele>
        <time>2022-08-26T22:44:31Z</time>
      </trkpt>
      <trkpt lat="45.74246" lon="6.71492">
        <ele>2431</ele>
        <time>2022-08-26T22:44:33Z</time>
      </trkpt>
      <trkpt lat="45.74244" lon="6.7149">
        <ele>2431</ele>
        <time>2022-08-26T22:44:35Z</time>
      </trkpt>
      <trkpt lat="45.74242" lon="6.71488">
        <ele>2432</ele>
        <time>2022-08-26T22:44:37Z</time>
      </trkpt>
      <trkpt lat="45.74241" lon="6.71486">
        <ele>2432</ele>
        <time>2022-08-26T22:44:39Z</time>
      </trkpt>
      <trkpt lat="45.74239" lon="6.71484">
        <ele>2432</ele>
        <time>2022-08-26T22:44:42Z</time>
      </trkpt>
      <trkpt lat="45.74237" lon="6.71482">
        <ele>2432</ele>
        <time>2022-08-26T22:44:44Z</time>
      </trkpt>
      <trkpt lat="45.74236" lon="6.7148">
        <ele>2432</ele>
        <time>2022-08-26T22:44:46Z</time>
      </trkpt>
      <trkpt lat="45.74234" lon="6.71478">
        <ele>2432</ele>
        <time>2022-08-26T22:44:48Z</time>
      </trkpt>
      <trkpt lat="45.74232" lon="6.71477">
        <ele>2433</ele>
        <time>2022-08-26T22:44:50Z</time>
      </trkpt>
      <trkpt lat="45.74231" lon="6.71475">
        <ele>2433</ele>
        <time>2022-08-26T22:44:52Z</time>
      </trkpt>
      <trkpt lat="45.74229" lon="6.71473">
        <ele>2434</ele>
        <time>2022-08-26T22:44:54Z</time>
      </trkpt>
      <trkpt lat="45.74227" lon="6.71472">
        <ele>2434</ele>
        <time>2022-08-26T22:44:57Z</time>
      </trkpt>
      <trkpt lat="45.74225" lon="6.71471">
        <ele>2434</ele>
        <time>2022-08-26T22:45:04Z</time>
      </trkpt>
      <trkpt lat="45.74223" lon="6.7147">
        <ele>2434</ele>
        <time>2022-08-26T22:45:06Z</time>
      </trkpt>
      <trkpt lat="45.74221" lon="6.71468">
        <ele>2434</ele>
        <time>2022-08-26T22:45:08Z</time>
      </trkpt>
      <trkpt lat="45.74219" lon="6.71467">
        <ele>2434</ele>
        <time>2022-08-26T22:45:09Z</time>
      </trkpt>
      <trkpt lat="45.74217" lon="6.71465">
        <ele>2435</ele>
        <time>2022-08-26T22:45:12Z</time>
      </trkpt>
      <trkpt lat="45.74215" lon="6.71463">
        <ele>2435</ele>
        <time>2022-08-26T22:45:14Z</time>
      </trkpt>
      <trkpt lat="45.74213" lon="6.71462">
        <ele>2435</ele>
        <time>2022-08-26T22:45:16Z</time>
      </trkpt>
      <trkpt lat="45.74211" lon="6.71461">
        <ele>2435</ele>
        <time>2022-08-26T22:45:18Z</time>
      </trkpt>
      <trkpt lat="45.74209" lon="6.7146">
        <ele>2436</ele>
        <time>2022-08-26T22:45:20Z</time>
      </trkpt>
      <trkpt lat="45.74207" lon="6.71459">
        <ele>2436</ele>
        <time>2022-08-26T22:45:22Z</time>
      </trkpt>
      <trkpt lat="45.74205" lon="6.71458">
        <ele>2437</ele>
        <time>2022-08-26T22:45:24Z</time>
      </trkpt>
      <trkpt lat="45.74203" lon="6.71457">
        <ele>2437</ele>
        <time>2022-08-26T22:45:26Z</time>
      </trkpt>
      <trkpt lat="45.74201" lon="6.71457">
        <ele>2437</ele>
        <time>2022-08-26T22:45:28Z</time>
      </trkpt>
      <trkpt lat="45.74198" lon="6.71456">
        <ele>2438</ele>
        <time>2022-08-26T22:45:30Z</time>
      </trkpt>
      <trkpt lat="45.74196" lon="6.71454">
        <ele>2438</ele>
        <time>2022-08-26T22:45:32Z</time>
      </trkpt>
      <trkpt lat="45.74195" lon="6.71451">
        <ele>2438</ele>
        <time>2022-08-26T22:45:34Z</time>
      </trkpt>
      <trkpt lat="45.74193" lon="6.71449">
        <ele>2438</ele>
        <time>2022-08-26T22:45:36Z</time>
      </trkpt>
      <trkpt lat="45.74192" lon="6.71447">
        <ele>2438</ele>
        <time>2022-08-26T22:45:38Z</time>
      </trkpt>
      <trkpt lat="45.74191" lon="6.71444">
        <ele>2438</ele>
        <time>2022-08-26T22:45:40Z</time>
      </trkpt>
      <trkpt lat="45.74188" lon="6.71442">
        <ele>2439</ele>
        <time>2022-08-26T22:45:42Z</time>
      </trkpt>
      <trkpt lat="45.74186" lon="6.71439">
        <ele>2439</ele>
        <time>2022-08-26T22:45:44Z</time>
      </trkpt>
      <trkpt lat="45.74184" lon="6.71438">
        <ele>2439</ele>
        <time>2022-08-26T22:45:46Z</time>
      </trkpt>
      <trkpt lat="45.74181" lon="6.71436">
        <ele>2440</ele>
        <time>2022-08-26T22:45:48Z</time>
      </trkpt>
      <trkpt lat="45.74179" lon="6.71434">
        <ele>2440</ele>
        <time>2022-08-26T22:45:50Z</time>
      </trkpt>
      <trkpt lat="45.74176" lon="6.71433">
        <ele>2440</ele>
        <time>2022-08-26T22:45:52Z</time>
      </trkpt>
      <trkpt lat="45.74173" lon="6.71431">
        <ele>2440</ele>
        <time>2022-08-26T22:45:54Z</time>
      </trkpt>
      <trkpt lat="45.74172" lon="6.71428">
        <ele>2440</ele>
        <time>2022-08-26T22:45:56Z</time>
      </trkpt>
      <trkpt lat="45.7417" lon="6.71425">
        <ele>2441</ele>
        <time>2022-08-26T22:45:58Z</time>
      </trkpt>
      <trkpt lat="45.74169" lon="6.71423">
        <ele>2441</ele>
        <time>2022-08-26T22:45:59Z</time>
      </trkpt>
      <trkpt lat="45.74168" lon="6.7142">
        <ele>2441</ele>
        <time>2022-08-26T22:46:02Z</time>
      </trkpt>
      <trkpt lat="45.74165" lon="6.71418">
        <ele>2441</ele>
        <time>2022-08-26T22:46:04Z</time>
      </trkpt>
      <trkpt lat="45.74163" lon="6.71415">
        <ele>2441</ele>
        <time>2022-08-26T22:46:06Z</time>
      </trkpt>
      <trkpt lat="45.74161" lon="6.71412">
        <ele>2441</ele>
        <time>2022-08-26T22:46:08Z</time>
      </trkpt>
      <trkpt lat="45.74159" lon="6.7141">
        <ele>2441</ele>
        <time>2022-08-26T22:46:10Z</time>
      </trkpt>
      <trkpt lat="45.74157" lon="6.71408">
        <ele>2441</ele>
        <time>2022-08-26T22:46:11Z</time>
      </trkpt>
      <trkpt lat="45.74153" lon="6.71406">
        <ele>2441</ele>
        <time>2022-08-26T22:46:14Z</time>
      </trkpt>
      <trkpt lat="45.74152" lon="6.71405">
        <ele>2441</ele>
        <time>2022-08-26T22:46:15Z</time>
      </trkpt>
      <trkpt lat="45.74151" lon="6.71405">
        <ele>2441</ele>
        <time>2022-08-26T22:46:16Z</time>
      </trkpt>
      <trkpt lat="45.7415" lon="6.71404">
        <ele>2441</ele>
        <time>2022-08-26T22:46:17Z</time>
      </trkpt>
      <trkpt lat="45.74148" lon="6.71403">
        <ele>2441</ele>
        <time>2022-08-26T22:46:19Z</time>
      </trkpt>
      <trkpt lat="45.74146" lon="6.71401">
        <ele>2442</ele>
        <time>2022-08-26T22:46:21Z</time>
      </trkpt>
      <trkpt lat="45.74144" lon="6.714">
        <ele>2442</ele>
        <time>2022-08-26T22:46:23Z</time>
      </trkpt>
      <trkpt lat="45.74142" lon="6.71398">
        <ele>2442</ele>
        <time>2022-08-26T22:46:25Z</time>
      </trkpt>
      <trkpt lat="45.74141" lon="6.71397">
        <ele>2442</ele>
        <time>2022-08-26T22:46:27Z</time>
      </trkpt>
      <trkpt lat="45.74139" lon="6.71395">
        <ele>2442</ele>
        <time>2022-08-26T22:46:28Z</time>
      </trkpt>
      <trkpt lat="45.74138" lon="6.71394">
        <ele>2443</ele>
        <time>2022-08-26T22:46:29Z</time>
      </trkpt>
      <trkpt lat="45.74136" lon="6.71393">
        <ele>2443</ele>
        <time>2022-08-26T22:46:31Z</time>
      </trkpt>
      <trkpt lat="45.74134" lon="6.71391">
        <ele>2443</ele>
        <time>2022-08-26T22:46:33Z</time>
      </trkpt>
      <trkpt lat="45.74132" lon="6.7139">
        <ele>2444</ele>
        <time>2022-08-26T22:46:35Z</time>
      </trkpt>
      <trkpt lat="45.7413" lon="6.71388">
        <ele>2444</ele>
        <time>2022-08-26T22:46:37Z</time>
      </trkpt>
      <trkpt lat="45.74128" lon="6.71387">
        <ele>2444</ele>
        <time>2022-08-26T22:46:39Z</time>
      </trkpt>
      <trkpt lat="45.74126" lon="6.71387">
        <ele>2444</ele>
        <time>2022-08-26T22:46:41Z</time>
      </trkpt>
      <trkpt lat="45.74123" lon="6.71386">
        <ele>2444</ele>
        <time>2022-08-26T22:46:43Z</time>
      </trkpt>
      <trkpt lat="45.74121" lon="6.71385">
        <ele>2445</ele>
        <time>2022-08-26T22:46:45Z</time>
      </trkpt>
      <trkpt lat="45.74118" lon="6.71383">
        <ele>2446</ele>
        <time>2022-08-26T22:46:48Z</time>
      </trkpt>
      <trkpt lat="45.74116" lon="6.71382">
        <ele>2446</ele>
        <time>2022-08-26T22:46:51Z</time>
      </trkpt>
      <trkpt lat="45.74114" lon="6.71381">
        <ele>2447</ele>
        <time>2022-08-26T22:46:53Z</time>
      </trkpt>
      <trkpt lat="45.7411" lon="6.71381">
        <ele>2447</ele>
        <time>2022-08-26T22:46:55Z</time>
      </trkpt>
      <trkpt lat="45.74108" lon="6.7138">
        <ele>2447</ele>
        <time>2022-08-26T22:46:57Z</time>
      </trkpt>
      <trkpt lat="45.74106" lon="6.71381">
        <ele>2448</ele>
        <time>2022-08-26T22:46:59Z</time>
      </trkpt>
      <trkpt lat="45.74103" lon="6.71382">
        <ele>2448</ele>
        <time>2022-08-26T22:47:01Z</time>
      </trkpt>
      <trkpt lat="45.74101" lon="6.71382">
        <ele>2449</ele>
        <time>2022-08-26T22:47:03Z</time>
      </trkpt>
      <trkpt lat="45.74098" lon="6.71381">
        <ele>2449</ele>
        <time>2022-08-26T22:47:05Z</time>
      </trkpt>
      <trkpt lat="45.74096" lon="6.7138">
        <ele>2449</ele>
        <time>2022-08-26T22:47:07Z</time>
      </trkpt>
      <trkpt lat="45.74093" lon="6.71379">
        <ele>2449</ele>
        <time>2022-08-26T22:47:10Z</time>
      </trkpt>
      <trkpt lat="45.74089" lon="6.71377">
        <ele>2449</ele>
        <time>2022-08-26T22:47:13Z</time>
      </trkpt>
      <trkpt lat="45.74087" lon="6.71375">
        <ele>2449</ele>
        <time>2022-08-26T22:47:15Z</time>
      </trkpt>
      <trkpt lat="45.74086" lon="6.71374">
        <ele>2450</ele>
        <time>2022-08-26T22:47:17Z</time>
      </trkpt>
      <trkpt lat="45.74085" lon="6.71373">
        <ele>2451</ele>
        <time>2022-08-26T22:47:19Z</time>
      </trkpt>
      <trkpt lat="45.74084" lon="6.71372">
        <ele>2451</ele>
        <time>2022-08-26T22:47:20Z</time>
      </trkpt>
      <trkpt lat="45.74082" lon="6.71371">
        <ele>2451</ele>
        <time>2022-08-26T22:47:21Z</time>
      </trkpt>
      <trkpt lat="45.74081" lon="6.7137">
        <ele>2452</ele>
        <time>2022-08-26T22:47:22Z</time>
      </trkpt>
      <trkpt lat="45.74079" lon="6.71367">
        <ele>2453</ele>
        <time>2022-08-26T22:47:25Z</time>
      </trkpt>
      <trkpt lat="45.74077" lon="6.71366">
        <ele>2453</ele>
        <time>2022-08-26T22:47:27Z</time>
      </trkpt>
      <trkpt lat="45.74074" lon="6.71366">
        <ele>2453</ele>
        <time>2022-08-26T22:47:30Z</time>
      </trkpt>
      <trkpt lat="45.74072" lon="6.71364">
        <ele>2453</ele>
        <time>2022-08-26T22:47:32Z</time>
      </trkpt>
      <trkpt lat="45.7407" lon="6.71362">
        <ele>2453</ele>
        <time>2022-08-26T22:47:33Z</time>
      </trkpt>
      <trkpt lat="45.74068" lon="6.71359">
        <ele>2454</ele>
        <time>2022-08-26T22:47:37Z</time>
      </trkpt>
      <trkpt lat="45.74066" lon="6.71359">
        <ele>2454</ele>
        <time>2022-08-26T22:47:39Z</time>
      </trkpt>
      <trkpt lat="45.74064" lon="6.71358">
        <ele>2454</ele>
        <time>2022-08-26T22:47:41Z</time>
      </trkpt>
      <trkpt lat="45.74062" lon="6.71356">
        <ele>2454</ele>
        <time>2022-08-26T22:47:43Z</time>
      </trkpt>
      <trkpt lat="45.7406" lon="6.71355">
        <ele>2454</ele>
        <time>2022-08-26T22:47:45Z</time>
      </trkpt>
      <trkpt lat="45.74059" lon="6.71353">
        <ele>2454</ele>
        <time>2022-08-26T22:47:47Z</time>
      </trkpt>
      <trkpt lat="45.74054" lon="6.71346">
        <ele>2457</ele>
        <time>2022-08-26T22:47:54Z</time>
      </trkpt>
      <trkpt lat="45.74053" lon="6.71343">
        <ele>2457</ele>
        <time>2022-08-26T22:47:56Z</time>
      </trkpt>
      <trkpt lat="45.74051" lon="6.7134">
        <ele>2457</ele>
        <time>2022-08-26T22:47:57Z</time>
      </trkpt>
      <trkpt lat="45.74049" lon="6.71337">
        <ele>2457</ele>
        <time>2022-08-26T22:48:00Z</time>
      </trkpt>
      <trkpt lat="45.74048" lon="6.71333">
        <ele>2458</ele>
        <time>2022-08-26T22:48:04Z</time>
      </trkpt>
      <trkpt lat="45.74047" lon="6.71329">
        <ele>2458</ele>
        <time>2022-08-26T22:48:06Z</time>
      </trkpt>
      <trkpt lat="45.74046" lon="6.71327">
        <ele>2459</ele>
        <time>2022-08-26T22:48:08Z</time>
      </trkpt>
      <trkpt lat="45.74045" lon="6.71324">
        <ele>2460</ele>
        <time>2022-08-26T22:48:11Z</time>
      </trkpt>
      <trkpt lat="45.74045" lon="6.7132">
        <ele>2460</ele>
        <time>2022-08-26T22:48:14Z</time>
      </trkpt>
      <trkpt lat="45.74042" lon="6.71319">
        <ele>2460</ele>
        <time>2022-08-26T22:48:17Z</time>
      </trkpt>
      <trkpt lat="45.74039" lon="6.71318">
        <ele>2461</ele>
        <time>2022-08-26T22:48:20Z</time>
      </trkpt>
      <trkpt lat="45.74036" lon="6.71317">
        <ele>2461</ele>
        <time>2022-08-26T22:48:22Z</time>
      </trkpt>
      <trkpt lat="45.74034" lon="6.71315">
        <ele>2461</ele>
        <time>2022-08-26T22:48:24Z</time>
      </trkpt>
      <trkpt lat="45.74033" lon="6.71314">
        <ele>2461</ele>
        <time>2022-08-26T22:48:26Z</time>
      </trkpt>
      <trkpt lat="45.74031" lon="6.71311">
        <ele>2462</ele>
        <time>2022-08-26T22:48:28Z</time>
      </trkpt>
      <trkpt lat="45.74029" lon="6.71308">
        <ele>2462</ele>
        <time>2022-08-26T22:48:31Z</time>
      </trkpt>
      <trkpt lat="45.74026" lon="6.71308">
        <ele>2462</ele>
        <time>2022-08-26T22:48:33Z</time>
      </trkpt>
      <trkpt lat="45.74025" lon="6.71307">
        <ele>2462</ele>
        <time>2022-08-26T22:48:34Z</time>
      </trkpt>
      <trkpt lat="45.74023" lon="6.71305">
        <ele>2463</ele>
        <time>2022-08-26T22:48:35Z</time>
      </trkpt>
      <trkpt lat="45.74022" lon="6.71304">
        <ele>2463</ele>
        <time>2022-08-26T22:48:37Z</time>
      </trkpt>
      <trkpt lat="45.74021" lon="6.71302">
        <ele>2463</ele>
        <time>2022-08-26T22:48:39Z</time>
      </trkpt>
      <trkpt lat="45.7402" lon="6.71301">
        <ele>2463</ele>
        <time>2022-08-26T22:48:40Z</time>
      </trkpt>
      <trkpt lat="45.74018" lon="6.71299">
        <ele>2463</ele>
        <time>2022-08-26T22:48:41Z</time>
      </trkpt>
      <trkpt lat="45.74017" lon="6.71298">
        <ele>2464</ele>
        <time>2022-08-26T22:48:42Z</time>
      </trkpt>
      <trkpt lat="45.74015" lon="6.71296">
        <ele>2464</ele>
        <time>2022-08-26T22:48:44Z</time>
      </trkpt>
      <trkpt lat="45.74014" lon="6.71295">
        <ele>2464</ele>
        <time>2022-08-26T22:48:45Z</time>
      </trkpt>
      <trkpt lat="45.74012" lon="6.71294">
        <ele>2464</ele>
        <time>2022-08-26T22:48:46Z</time>
      </trkpt>
      <trkpt lat="45.7401" lon="6.71293">
        <ele>2464</ele>
        <time>2022-08-26T22:48:49Z</time>
      </trkpt>
      <trkpt lat="45.74007" lon="6.71291">
        <ele>2464</ele>
        <time>2022-08-26T22:48:52Z</time>
      </trkpt>
      <trkpt lat="45.74005" lon="6.71289">
        <ele>2465</ele>
        <time>2022-08-26T22:48:56Z</time>
      </trkpt>
      <trkpt lat="45.74003" lon="6.71288">
        <ele>2465</ele>
        <time>2022-08-26T22:48:58Z</time>
      </trkpt>
      <trkpt lat="45.74001" lon="6.71287">
        <ele>2466</ele>
        <time>2022-08-26T22:49:00Z</time>
      </trkpt>
      <trkpt lat="45.73999" lon="6.71286">
        <ele>2467</ele>
        <time>2022-08-26T22:49:02Z</time>
      </trkpt>
      <trkpt lat="45.73996" lon="6.71283">
        <ele>2466</ele>
        <time>2022-08-26T22:49:05Z</time>
      </trkpt>
      <trkpt lat="45.73995" lon="6.71281">
        <ele>2467</ele>
        <time>2022-08-26T22:49:07Z</time>
      </trkpt>
      <trkpt lat="45.73994" lon="6.71277">
        <ele>2467</ele>
        <time>2022-08-26T22:49:09Z</time>
      </trkpt>
      <trkpt lat="45.73993" lon="6.71275">
        <ele>2467</ele>
        <time>2022-08-26T22:49:11Z</time>
      </trkpt>
      <trkpt lat="45.73991" lon="6.71271">
        <ele>2467</ele>
        <time>2022-08-26T22:49:14Z</time>
      </trkpt>
      <trkpt lat="45.73989" lon="6.71269">
        <ele>2468</ele>
        <time>2022-08-26T22:49:17Z</time>
      </trkpt>
      <trkpt lat="45.73988" lon="6.71267">
        <ele>2468</ele>
        <time>2022-08-26T22:49:19Z</time>
      </trkpt>
      <trkpt lat="45.73986" lon="6.71266">
        <ele>2468</ele>
        <time>2022-08-26T22:49:21Z</time>
      </trkpt>
      <trkpt lat="45.73985" lon="6.71265">
        <ele>2468</ele>
        <time>2022-08-26T22:49:23Z</time>
      </trkpt>
      <trkpt lat="45.73984" lon="6.71264">
        <ele>2468</ele>
        <time>2022-08-26T22:49:24Z</time>
      </trkpt>
      <trkpt lat="45.73983" lon="6.71262">
        <ele>2468</ele>
        <time>2022-08-26T22:49:25Z</time>
      </trkpt>
      <trkpt lat="45.73982" lon="6.71261">
        <ele>2468</ele>
        <time>2022-08-26T22:49:27Z</time>
      </trkpt>
      <trkpt lat="45.73981" lon="6.7126">
        <ele>2468</ele>
        <time>2022-08-26T22:49:28Z</time>
      </trkpt>
      <trkpt lat="45.73979" lon="6.71259">
        <ele>2468</ele>
        <time>2022-08-26T22:49:29Z</time>
      </trkpt>
      <trkpt lat="45.73978" lon="6.71255">
        <ele>2468</ele>
        <time>2022-08-26T22:49:33Z</time>
      </trkpt>
      <trkpt lat="45.73977" lon="6.71254">
        <ele>2468</ele>
        <time>2022-08-26T22:49:35Z</time>
      </trkpt>
      <trkpt lat="45.73976" lon="6.71253">
        <ele>2468</ele>
        <time>2022-08-26T22:49:36Z</time>
      </trkpt>
      <trkpt lat="45.73975" lon="6.71252">
        <ele>2469</ele>
        <time>2022-08-26T22:49:38Z</time>
      </trkpt>
      <trkpt lat="45.73975" lon="6.71251">
        <ele>2469</ele>
        <time>2022-08-26T22:49:39Z</time>
      </trkpt>
      <trkpt lat="45.73974" lon="6.7125">
        <ele>2469</ele>
        <time>2022-08-26T22:49:40Z</time>
      </trkpt>
      <trkpt lat="45.73973" lon="6.71249">
        <ele>2470</ele>
        <time>2022-08-26T22:49:41Z</time>
      </trkpt>
      <trkpt lat="45.73973" lon="6.71248">
        <ele>2470</ele>
        <time>2022-08-26T22:49:43Z</time>
      </trkpt>
      <trkpt lat="45.73972" lon="6.71247">
        <ele>2471</ele>
        <time>2022-08-26T22:49:44Z</time>
      </trkpt>
      <trkpt lat="45.73971" lon="6.71246">
        <ele>2471</ele>
        <time>2022-08-26T22:49:45Z</time>
      </trkpt>
      <trkpt lat="45.7397" lon="6.71245">
        <ele>2471</ele>
        <time>2022-08-26T22:49:46Z</time>
      </trkpt>
      <trkpt lat="45.73969" lon="6.71245">
        <ele>2471</ele>
        <time>2022-08-26T22:49:47Z</time>
      </trkpt>
      <trkpt lat="45.73968" lon="6.71244">
        <ele>2471</ele>
        <time>2022-08-26T22:49:49Z</time>
      </trkpt>
      <trkpt lat="45.73967" lon="6.71243">
        <ele>2471</ele>
        <time>2022-08-26T22:49:50Z</time>
      </trkpt>
      <trkpt lat="45.73965" lon="6.71242">
        <ele>2472</ele>
        <time>2022-08-26T22:49:51Z</time>
      </trkpt>
      <trkpt lat="45.73964" lon="6.71242">
        <ele>2472</ele>
        <time>2022-08-26T22:49:53Z</time>
      </trkpt>
      <trkpt lat="45.73963" lon="6.71241">
        <ele>2472</ele>
        <time>2022-08-26T22:49:55Z</time>
      </trkpt>
      <trkpt lat="45.73962" lon="6.7124">
        <ele>2474</ele>
        <time>2022-08-26T22:49:56Z</time>
      </trkpt>
      <trkpt lat="45.73961" lon="6.7124">
        <ele>2474</ele>
        <time>2022-08-26T22:49:57Z</time>
      </trkpt>
      <trkpt lat="45.7396" lon="6.71239">
        <ele>2474</ele>
        <time>2022-08-26T22:49:58Z</time>
      </trkpt>
      <trkpt lat="45.73959" lon="6.71238">
        <ele>2474</ele>
        <time>2022-08-26T22:50:00Z</time>
      </trkpt>
      <trkpt lat="45.73959" lon="6.71238">
        <ele>2474</ele>
        <time>2022-08-26T22:50:01Z</time>
      </trkpt>
      <trkpt lat="45.73958" lon="6.71237">
        <ele>2475</ele>
        <time>2022-08-26T22:50:02Z</time>
      </trkpt>
      <trkpt lat="45.73957" lon="6.71237">
        <ele>2475</ele>
        <time>2022-08-26T22:50:04Z</time>
      </trkpt>
      <trkpt lat="45.73956" lon="6.71236">
        <ele>2475</ele>
        <time>2022-08-26T22:50:05Z</time>
      </trkpt>
      <trkpt lat="45.73956" lon="6.71236">
        <ele>2475</ele>
        <time>2022-08-26T22:50:06Z</time>
      </trkpt>
      <trkpt lat="45.73955" lon="6.71235">
        <ele>2476</ele>
        <time>2022-08-26T22:50:07Z</time>
      </trkpt>
      <trkpt lat="45.73954" lon="6.71234">
        <ele>2476</ele>
        <time>2022-08-26T22:50:09Z</time>
      </trkpt>
      <trkpt lat="45.73953" lon="6.71234">
        <ele>2476</ele>
        <time>2022-08-26T22:50:10Z</time>
      </trkpt>
      <trkpt lat="45.73943" lon="6.71232">
        <ele>2478</ele>
        <time>2022-08-26T22:50:21Z</time>
      </trkpt>
      <trkpt lat="45.73936" lon="6.71225">
        <ele>2480</ele>
        <time>2022-08-26T22:50:31Z</time>
      </trkpt>
      <trkpt lat="45.73936" lon="6.71224">
        <ele>2480</ele>
        <time>2022-08-26T22:50:33Z</time>
      </trkpt>
      <trkpt lat="45.73937" lon="6.71223">
        <ele>2480</ele>
        <time>2022-08-26T22:50:34Z</time>
      </trkpt>
      <trkpt lat="45.73937" lon="6.71222">
        <ele>2480</ele>
        <time>2022-08-26T22:50:35Z</time>
      </trkpt>
      <trkpt lat="45.73938" lon="6.71221">
        <ele>2480</ele>
        <time>2022-08-26T22:50:36Z</time>
      </trkpt>
      <trkpt lat="45.73938" lon="6.7122">
        <ele>2481</ele>
        <time>2022-08-26T22:50:38Z</time>
      </trkpt>
      <trkpt lat="45.73938" lon="6.7122">
        <ele>2481</ele>
        <time>2022-08-26T22:50:40Z</time>
      </trkpt>
      <trkpt lat="45.73939" lon="6.71219">
        <ele>2481</ele>
        <time>2022-08-26T22:50:41Z</time>
      </trkpt>
      <trkpt lat="45.73939" lon="6.71218">
        <ele>2481</ele>
        <time>2022-08-26T22:50:42Z</time>
      </trkpt>
      <trkpt lat="45.7394" lon="6.71217">
        <ele>2482</ele>
        <time>2022-08-26T22:50:43Z</time>
      </trkpt>
      <trkpt lat="45.7394" lon="6.71216">
        <ele>2482</ele>
        <time>2022-08-26T22:50:45Z</time>
      </trkpt>
      <trkpt lat="45.7394" lon="6.71215">
        <ele>2482</ele>
        <time>2022-08-26T22:50:46Z</time>
      </trkpt>
      <trkpt lat="45.73941" lon="6.71214">
        <ele>2482</ele>
        <time>2022-08-26T22:50:47Z</time>
      </trkpt>
      <trkpt lat="45.73941" lon="6.71213">
        <ele>2482</ele>
        <time>2022-08-26T22:50:48Z</time>
      </trkpt>
      <trkpt lat="45.73942" lon="6.71213">
        <ele>2482</ele>
        <time>2022-08-26T22:50:50Z</time>
      </trkpt>
      <trkpt lat="45.73943" lon="6.71212">
        <ele>2483</ele>
        <time>2022-08-26T22:50:51Z</time>
      </trkpt>
      <trkpt lat="45.73943" lon="6.71211">
        <ele>2483</ele>
        <time>2022-08-26T22:50:52Z</time>
      </trkpt>
      <trkpt lat="45.73944" lon="6.7121">
        <ele>2483</ele>
        <time>2022-08-26T22:50:53Z</time>
      </trkpt>
      <trkpt lat="45.73945" lon="6.71209">
        <ele>2484</ele>
        <time>2022-08-26T22:50:55Z</time>
      </trkpt>
      <trkpt lat="45.73946" lon="6.71208">
        <ele>2484</ele>
        <time>2022-08-26T22:50:57Z</time>
      </trkpt>
      <trkpt lat="45.73946" lon="6.71207">
        <ele>2486</ele>
        <time>2022-08-26T22:50:58Z</time>
      </trkpt>
      <trkpt lat="45.73945" lon="6.71207">
        <ele>2486</ele>
        <time>2022-08-26T22:50:59Z</time>
      </trkpt>
      <trkpt lat="45.73944" lon="6.71206">
        <ele>2486</ele>
        <time>2022-08-26T22:51:00Z</time>
      </trkpt>
      <trkpt lat="45.73943" lon="6.71206">
        <ele>2486</ele>
        <time>2022-08-26T22:51:01Z</time>
      </trkpt>
      <trkpt lat="45.73942" lon="6.71205">
        <ele>2486</ele>
        <time>2022-08-26T22:51:03Z</time>
      </trkpt>
      <trkpt lat="45.73941" lon="6.71205">
        <ele>2487</ele>
        <time>2022-08-26T22:51:04Z</time>
      </trkpt>
      <trkpt lat="45.7394" lon="6.71204">
        <ele>2487</ele>
        <time>2022-08-26T22:51:05Z</time>
      </trkpt>
      <trkpt lat="45.73939" lon="6.71204">
        <ele>2487</ele>
        <time>2022-08-26T22:51:06Z</time>
      </trkpt>
      <trkpt lat="45.73938" lon="6.71203">
        <ele>2487</ele>
        <time>2022-08-26T22:51:07Z</time>
      </trkpt>
      <trkpt lat="45.73937" lon="6.71202">
        <ele>2488</ele>
        <time>2022-08-26T22:51:08Z</time>
      </trkpt>
      <trkpt lat="45.73935" lon="6.71203">
        <ele>2488</ele>
        <time>2022-08-26T22:51:09Z</time>
      </trkpt>
      <trkpt lat="45.73933" lon="6.71204">
        <ele>2489</ele>
        <time>2022-08-26T22:51:10Z</time>
      </trkpt>
      <trkpt lat="45.73932" lon="6.71205">
        <ele>2489</ele>
        <time>2022-08-26T22:51:11Z</time>
      </trkpt>
      <trkpt lat="45.7393" lon="6.71206">
        <ele>2489</ele>
        <time>2022-08-26T22:51:13Z</time>
      </trkpt>
      <trkpt lat="45.73928" lon="6.71207">
        <ele>2489</ele>
        <time>2022-08-26T22:51:14Z</time>
      </trkpt>
      <trkpt lat="45.73921" lon="6.71197">
        <ele>2491</ele>
        <time>2022-08-26T22:51:28Z</time>
      </trkpt>
      <trkpt lat="45.73921" lon="6.71196">
        <ele>2491</ele>
        <time>2022-08-26T22:51:30Z</time>
      </trkpt>
      <trkpt lat="45.73921" lon="6.71195">
        <ele>2492</ele>
        <time>2022-08-26T22:51:31Z</time>
      </trkpt>
      <trkpt lat="45.73921" lon="6.71194">
        <ele>2492</ele>
        <time>2022-08-26T22:51:32Z</time>
      </trkpt>
      <trkpt lat="45.73921" lon="6.71193">
        <ele>2493</ele>
        <time>2022-08-26T22:51:33Z</time>
      </trkpt>
      <trkpt lat="45.73922" lon="6.71192">
        <ele>2493</ele>
        <time>2022-08-26T22:51:35Z</time>
      </trkpt>
      <trkpt lat="45.73922" lon="6.71191">
        <ele>2493</ele>
        <time>2022-08-26T22:51:37Z</time>
      </trkpt>
      <trkpt lat="45.73922" lon="6.7119">
        <ele>2493</ele>
        <time>2022-08-26T22:51:38Z</time>
      </trkpt>
      <trkpt lat="45.73922" lon="6.71189">
        <ele>2494</ele>
        <time>2022-08-26T22:51:39Z</time>
      </trkpt>
      <trkpt lat="45.73922" lon="6.71188">
        <ele>2494</ele>
        <time>2022-08-26T22:51:40Z</time>
      </trkpt>
      <trkpt lat="45.73922" lon="6.71187">
        <ele>2495</ele>
        <time>2022-08-26T22:51:42Z</time>
      </trkpt>
      <trkpt lat="45.73922" lon="6.71186">
        <ele>2495</ele>
        <time>2022-08-26T22:51:43Z</time>
      </trkpt>
      <trkpt lat="45.73923" lon="6.71184">
        <ele>2495</ele>
        <time>2022-08-26T22:51:44Z</time>
      </trkpt>
      <trkpt lat="45.73923" lon="6.71183">
        <ele>2495</ele>
        <time>2022-08-26T22:51:45Z</time>
      </trkpt>
      <trkpt lat="45.73921" lon="6.71183">
        <ele>2495</ele>
        <time>2022-08-26T22:51:47Z</time>
      </trkpt>
      <trkpt lat="45.7392" lon="6.71182">
        <ele>2496</ele>
        <time>2022-08-26T22:51:49Z</time>
      </trkpt>
      <trkpt lat="45.73919" lon="6.71182">
        <ele>2496</ele>
        <time>2022-08-26T22:51:50Z</time>
      </trkpt>
      <trkpt lat="45.73917" lon="6.71181">
        <ele>2496</ele>
        <time>2022-08-26T22:51:52Z</time>
      </trkpt>
      <trkpt lat="45.73916" lon="6.7118">
        <ele>2498</ele>
        <time>2022-08-26T22:51:54Z</time>
      </trkpt>
      <trkpt lat="45.73914" lon="6.7118">
        <ele>2498</ele>
        <time>2022-08-26T22:51:55Z</time>
      </trkpt>
      <trkpt lat="45.73913" lon="6.71179">
        <ele>2498</ele>
        <time>2022-08-26T22:51:56Z</time>
      </trkpt>
      <trkpt lat="45.73913" lon="6.71178">
        <ele>2498</ele>
        <time>2022-08-26T22:51:58Z</time>
      </trkpt>
      <trkpt lat="45.73912" lon="6.71177">
        <ele>2499</ele>
        <time>2022-08-26T22:51:59Z</time>
      </trkpt>
      <trkpt lat="45.73911" lon="6.71177">
        <ele>2499</ele>
        <time>2022-08-26T22:52:00Z</time>
      </trkpt>
      <trkpt lat="45.73911" lon="6.71176">
        <ele>2499</ele>
        <time>2022-08-26T22:52:01Z</time>
      </trkpt>
      <trkpt lat="45.7391" lon="6.71175">
        <ele>2501</ele>
        <time>2022-08-26T22:52:03Z</time>
      </trkpt>
      <trkpt lat="45.73909" lon="6.71174">
        <ele>2501</ele>
        <time>2022-08-26T22:52:04Z</time>
      </trkpt>
      <trkpt lat="45.73909" lon="6.71173">
        <ele>2501</ele>
        <time>2022-08-26T22:52:06Z</time>
      </trkpt>
      <trkpt lat="45.73908" lon="6.71173">
        <ele>2501</ele>
        <time>2022-08-26T22:52:08Z</time>
      </trkpt>
      <trkpt lat="45.73908" lon="6.71172">
        <ele>2501</ele>
        <time>2022-08-26T22:52:09Z</time>
      </trkpt>
      <trkpt lat="45.73907" lon="6.71171">
        <ele>2502</ele>
        <time>2022-08-26T22:52:10Z</time>
      </trkpt>
      <trkpt lat="45.73906" lon="6.7117">
        <ele>2502</ele>
        <time>2022-08-26T22:52:11Z</time>
      </trkpt>
      <trkpt lat="45.73906" lon="6.71169">
        <ele>2502</ele>
        <time>2022-08-26T22:52:13Z</time>
      </trkpt>
      <trkpt lat="45.73905" lon="6.71168">
        <ele>2502</ele>
        <time>2022-08-26T22:52:14Z</time>
      </trkpt>
      <trkpt lat="45.73905" lon="6.71167">
        <ele>2502</ele>
        <time>2022-08-26T22:52:15Z</time>
      </trkpt>
      <trkpt lat="45.73904" lon="6.71166">
        <ele>2502</ele>
        <time>2022-08-26T22:52:16Z</time>
      </trkpt>
      <trkpt lat="45.73904" lon="6.71165">
        <ele>2502</ele>
        <time>2022-08-26T22:52:17Z</time>
      </trkpt>
      <trkpt lat="45.73903" lon="6.71165">
        <ele>2503</ele>
        <time>2022-08-26T22:52:19Z</time>
      </trkpt>
      <trkpt lat="45.73903" lon="6.71164">
        <ele>2503</ele>
        <time>2022-08-26T22:52:20Z</time>
      </trkpt>
      <trkpt lat="45.73902" lon="6.71163">
        <ele>2504</ele>
        <time>2022-08-26T22:52:21Z</time>
      </trkpt>
      <trkpt lat="45.73901" lon="6.71162">
        <ele>2504</ele>
        <time>2022-08-26T22:52:22Z</time>
      </trkpt>
      <trkpt lat="45.73901" lon="6.71161">
        <ele>2504</ele>
        <time>2022-08-26T22:52:23Z</time>
      </trkpt>
      <trkpt lat="45.739" lon="6.7116">
        <ele>2504</ele>
        <time>2022-08-26T22:52:24Z</time>
      </trkpt>
      <trkpt lat="45.739" lon="6.71158">
        <ele>2505</ele>
        <time>2022-08-26T22:52:25Z</time>
      </trkpt>
      <trkpt lat="45.73899" lon="6.71157">
        <ele>2505</ele>
        <time>2022-08-26T22:52:26Z</time>
      </trkpt>
      <trkpt lat="45.73899" lon="6.71156">
        <ele>2505</ele>
        <time>2022-08-26T22:52:27Z</time>
      </trkpt>
      <trkpt lat="45.73898" lon="6.71155">
        <ele>2505</ele>
        <time>2022-08-26T22:52:29Z</time>
      </trkpt>
      <trkpt lat="45.73898" lon="6.71153">
        <ele>2506</ele>
        <time>2022-08-26T22:52:30Z</time>
      </trkpt>
      <trkpt lat="45.73898" lon="6.71152">
        <ele>2506</ele>
        <time>2022-08-26T22:52:31Z</time>
      </trkpt>
      <trkpt lat="45.73897" lon="6.71151">
        <ele>2506</ele>
        <time>2022-08-26T22:52:32Z</time>
      </trkpt>
      <trkpt lat="45.73897" lon="6.71149">
        <ele>2506</ele>
        <time>2022-08-26T22:52:33Z</time>
      </trkpt>
      <trkpt lat="45.73896" lon="6.71148">
        <ele>2506</ele>
        <time>2022-08-26T22:52:34Z</time>
      </trkpt>
      <trkpt lat="45.73895" lon="6.71134">
        <ele>2507</ele>
        <time>2022-08-26T22:52:44Z</time>
      </trkpt>
      <trkpt lat="45.73894" lon="6.71133">
        <ele>2508</ele>
        <time>2022-08-26T22:52:46Z</time>
      </trkpt>
      <trkpt lat="45.73893" lon="6.71133">
        <ele>2508</ele>
        <time>2022-08-26T22:52:47Z</time>
      </trkpt>
      <trkpt lat="45.73892" lon="6.71132">
        <ele>2510</ele>
        <time>2022-08-26T22:52:48Z</time>
      </trkpt>
      <trkpt lat="45.73892" lon="6.71131">
        <ele>2510</ele>
        <time>2022-08-26T22:52:49Z</time>
      </trkpt>
      <trkpt lat="45.73891" lon="6.7113">
        <ele>2510</ele>
        <time>2022-08-26T22:52:51Z</time>
      </trkpt>
      <trkpt lat="45.7389" lon="6.71129">
        <ele>2510</ele>
        <time>2022-08-26T22:52:52Z</time>
      </trkpt>
      <trkpt lat="45.7389" lon="6.71128">
        <ele>2510</ele>
        <time>2022-08-26T22:52:53Z</time>
      </trkpt>
      <trkpt lat="45.73889" lon="6.71127">
        <ele>2510</ele>
        <time>2022-08-26T22:52:54Z</time>
      </trkpt>
      <trkpt lat="45.73888" lon="6.71127">
        <ele>2511</ele>
        <time>2022-08-26T22:52:56Z</time>
      </trkpt>
      <trkpt lat="45.73887" lon="6.71126">
        <ele>2511</ele>
        <time>2022-08-26T22:52:57Z</time>
      </trkpt>
      <trkpt lat="45.73887" lon="6.71125">
        <ele>2512</ele>
        <time>2022-08-26T22:52:58Z</time>
      </trkpt>
      <trkpt lat="45.73882" lon="6.71114">
        <ele>2515</ele>
        <time>2022-08-26T22:53:13Z</time>
      </trkpt>
      <trkpt lat="45.73881" lon="6.71113">
        <ele>2515</ele>
        <time>2022-08-26T22:53:15Z</time>
      </trkpt>
      <trkpt lat="45.7388" lon="6.71112">
        <ele>2515</ele>
        <time>2022-08-26T22:53:16Z</time>
      </trkpt>
      <trkpt lat="45.73879" lon="6.71111">
        <ele>2515</ele>
        <time>2022-08-26T22:53:17Z</time>
      </trkpt>
      <trkpt lat="45.73878" lon="6.7111">
        <ele>2515</ele>
        <time>2022-08-26T22:53:18Z</time>
      </trkpt>
      <trkpt lat="45.73878" lon="6.71109">
        <ele>2515</ele>
        <time>2022-08-26T22:53:20Z</time>
      </trkpt>
      <trkpt lat="45.73877" lon="6.71108">
        <ele>2515</ele>
        <time>2022-08-26T22:53:22Z</time>
      </trkpt>
      <trkpt lat="45.73876" lon="6.71107">
        <ele>2515</ele>
        <time>2022-08-26T22:53:23Z</time>
      </trkpt>
      <trkpt lat="45.73875" lon="6.71107">
        <ele>2516</ele>
        <time>2022-08-26T22:53:24Z</time>
      </trkpt>
      <trkpt lat="45.73875" lon="6.71106">
        <ele>2516</ele>
        <time>2022-08-26T22:53:25Z</time>
      </trkpt>
      <trkpt lat="45.73874" lon="6.71105">
        <ele>2517</ele>
        <time>2022-08-26T22:53:26Z</time>
      </trkpt>
      <trkpt lat="45.73873" lon="6.71104">
        <ele>2517</ele>
        <time>2022-08-26T22:53:27Z</time>
      </trkpt>
      <trkpt lat="45.73873" lon="6.71103">
        <ele>2517</ele>
        <time>2022-08-26T22:53:28Z</time>
      </trkpt>
      <trkpt lat="45.73872" lon="6.71103">
        <ele>2517</ele>
        <time>2022-08-26T22:53:29Z</time>
      </trkpt>
      <trkpt lat="45.73872" lon="6.71102">
        <ele>2517</ele>
        <time>2022-08-26T22:53:31Z</time>
      </trkpt>
      <trkpt lat="45.73872" lon="6.71101">
        <ele>2518</ele>
        <time>2022-08-26T22:53:32Z</time>
      </trkpt>
      <trkpt lat="45.73871" lon="6.711">
        <ele>2518</ele>
        <time>2022-08-26T22:53:33Z</time>
      </trkpt>
      <trkpt lat="45.73871" lon="6.711">
        <ele>2518</ele>
        <time>2022-08-26T22:53:34Z</time>
      </trkpt>
      <trkpt lat="45.7387" lon="6.71099">
        <ele>2518</ele>
        <time>2022-08-26T22:53:36Z</time>
      </trkpt>
      <trkpt lat="45.7387" lon="6.71098">
        <ele>2519</ele>
        <time>2022-08-26T22:53:37Z</time>
      </trkpt>
      <trkpt lat="45.73869" lon="6.71098">
        <ele>2519</ele>
        <time>2022-08-26T22:53:38Z</time>
      </trkpt>
      <trkpt lat="45.73869" lon="6.71097">
        <ele>2519</ele>
        <time>2022-08-26T22:53:39Z</time>
      </trkpt>
      <trkpt lat="45.73868" lon="6.71096">
        <ele>2519</ele>
        <time>2022-08-26T22:53:41Z</time>
      </trkpt>
      <trkpt lat="45.73868" lon="6.71096">
        <ele>2519</ele>
        <time>2022-08-26T22:53:42Z</time>
      </trkpt>
      <trkpt lat="45.73868" lon="6.71095">
        <ele>2520</ele>
        <time>2022-08-26T22:53:43Z</time>
      </trkpt>
      <trkpt lat="45.73867" lon="6.71094">
        <ele>2520</ele>
        <time>2022-08-26T22:53:44Z</time>
      </trkpt>
      <trkpt lat="45.73867" lon="6.71093">
        <ele>2520</ele>
        <time>2022-08-26T22:53:45Z</time>
      </trkpt>
      <trkpt lat="45.73867" lon="6.71091">
        <ele>2522</ele>
        <time>2022-08-26T22:53:46Z</time>
      </trkpt>
      <trkpt lat="45.73867" lon="6.7109">
        <ele>2522</ele>
        <time>2022-08-26T22:53:47Z</time>
      </trkpt>
      <trkpt lat="45.73867" lon="6.71089">
        <ele>2522</ele>
        <time>2022-08-26T22:53:48Z</time>
      </trkpt>
      <trkpt lat="45.73867" lon="6.71088">
        <ele>2523</ele>
        <time>2022-08-26T22:53:50Z</time>
      </trkpt>
      <trkpt lat="45.73867" lon="6.71087">
        <ele>2523</ele>
        <time>2022-08-26T22:53:51Z</time>
      </trkpt>
      <trkpt lat="45.73867" lon="6.71085">
        <ele>2523</ele>
        <time>2022-08-26T22:53:52Z</time>
      </trkpt>
      <trkpt lat="45.73867" lon="6.71084">
        <ele>2523</ele>
        <time>2022-08-26T22:53:53Z</time>
      </trkpt>
      <trkpt lat="45.73866" lon="6.71083">
        <ele>2523</ele>
        <time>2022-08-26T22:53:55Z</time>
      </trkpt>
      <trkpt lat="45.73866" lon="6.71082">
        <ele>2523</ele>
        <time>2022-08-26T22:53:56Z</time>
      </trkpt>
      <trkpt lat="45.73866" lon="6.71081">
        <ele>2523</ele>
        <time>2022-08-26T22:53:57Z</time>
      </trkpt>
      <trkpt lat="45.73856" lon="6.71078">
        <ele>2525</ele>
        <time>2022-08-26T22:54:04Z</time>
      </trkpt>
      <trkpt lat="45.73856" lon="6.71077">
        <ele>2525</ele>
        <time>2022-08-26T22:54:07Z</time>
      </trkpt>
      <trkpt lat="45.73856" lon="6.71075">
        <ele>2525</ele>
        <time>2022-08-26T22:54:08Z</time>
      </trkpt>
      <trkpt lat="45.73856" lon="6.71074">
        <ele>2525</ele>
        <time>2022-08-26T22:54:09Z</time>
      </trkpt>
      <trkpt lat="45.73855" lon="6.71073">
        <ele>2526</ele>
        <time>2022-08-26T22:54:11Z</time>
      </trkpt>
      <trkpt lat="45.73855" lon="6.71072">
        <ele>2526</ele>
        <time>2022-08-26T22:54:12Z</time>
      </trkpt>
      <trkpt lat="45.73855" lon="6.71071">
        <ele>2526</ele>
        <time>2022-08-26T22:54:13Z</time>
      </trkpt>
      <trkpt lat="45.73855" lon="6.71069">
        <ele>2526</ele>
        <time>2022-08-26T22:54:14Z</time>
      </trkpt>
      <trkpt lat="45.73855" lon="6.71068">
        <ele>2527</ele>
        <time>2022-08-26T22:54:16Z</time>
      </trkpt>
      <trkpt lat="45.73854" lon="6.71067">
        <ele>2527</ele>
        <time>2022-08-26T22:54:18Z</time>
      </trkpt>
      <trkpt lat="45.73854" lon="6.71066">
        <ele>2528</ele>
        <time>2022-08-26T22:54:19Z</time>
      </trkpt>
      <trkpt lat="45.73854" lon="6.71065">
        <ele>2528</ele>
        <time>2022-08-26T22:54:20Z</time>
      </trkpt>
      <trkpt lat="45.73853" lon="6.71063">
        <ele>2528</ele>
        <time>2022-08-26T22:54:21Z</time>
      </trkpt>
      <trkpt lat="45.73853" lon="6.71062">
        <ele>2529</ele>
        <time>2022-08-26T22:54:23Z</time>
      </trkpt>
      <trkpt lat="45.73852" lon="6.71061">
        <ele>2529</ele>
        <time>2022-08-26T22:54:24Z</time>
      </trkpt>
      <trkpt lat="45.73851" lon="6.7106">
        <ele>2529</ele>
        <time>2022-08-26T22:54:25Z</time>
      </trkpt>
      <trkpt lat="45.73851" lon="6.71059">
        <ele>2529</ele>
        <time>2022-08-26T22:54:26Z</time>
      </trkpt>
      <trkpt lat="45.7385" lon="6.71057">
        <ele>2529</ele>
        <time>2022-08-26T22:54:28Z</time>
      </trkpt>
      <trkpt lat="45.73849" lon="6.71056">
        <ele>2530</ele>
        <time>2022-08-26T22:54:29Z</time>
      </trkpt>
      <trkpt lat="45.73849" lon="6.71055">
        <ele>2530</ele>
        <time>2022-08-26T22:54:30Z</time>
      </trkpt>
      <trkpt lat="45.73848" lon="6.71054">
        <ele>2530</ele>
        <time>2022-08-26T22:54:31Z</time>
      </trkpt>
      <trkpt lat="45.73848" lon="6.71053">
        <ele>2530</ele>
        <time>2022-08-26T22:54:32Z</time>
      </trkpt>
      <trkpt lat="45.73847" lon="6.71052">
        <ele>2530</ele>
        <time>2022-08-26T22:54:33Z</time>
      </trkpt>
      <trkpt lat="45.73847" lon="6.71051">
        <ele>2531</ele>
        <time>2022-08-26T22:54:35Z</time>
      </trkpt>
      <trkpt lat="45.73846" lon="6.7105">
        <ele>2531</ele>
        <time>2022-08-26T22:54:36Z</time>
      </trkpt>
      <trkpt lat="45.73846" lon="6.71049">
        <ele>2531</ele>
        <time>2022-08-26T22:54:38Z</time>
      </trkpt>
      <trkpt lat="45.73845" lon="6.71048">
        <ele>2531</ele>
        <time>2022-08-26T22:54:40Z</time>
      </trkpt>
      <trkpt lat="45.73845" lon="6.71046">
        <ele>2531</ele>
        <time>2022-08-26T22:54:41Z</time>
      </trkpt>
      <trkpt lat="45.73845" lon="6.71045">
        <ele>2531</ele>
        <time>2022-08-26T22:54:42Z</time>
      </trkpt>
      <trkpt lat="45.73844" lon="6.71044">
        <ele>2532</ele>
        <time>2022-08-26T22:54:43Z</time>
      </trkpt>
      <trkpt lat="45.73844" lon="6.71043">
        <ele>2532</ele>
        <time>2022-08-26T22:54:44Z</time>
      </trkpt>
      <trkpt lat="45.73843" lon="6.71042">
        <ele>2532</ele>
        <time>2022-08-26T22:54:45Z</time>
      </trkpt>
      <trkpt lat="45.73843" lon="6.71041">
        <ele>2533</ele>
        <time>2022-08-26T22:54:46Z</time>
      </trkpt>
      <trkpt lat="45.73842" lon="6.7104">
        <ele>2533</ele>
        <time>2022-08-26T22:54:47Z</time>
      </trkpt>
      <trkpt lat="45.73841" lon="6.71039">
        <ele>2535</ele>
        <time>2022-08-26T22:54:48Z</time>
      </trkpt>
      <trkpt lat="45.73841" lon="6.71038">
        <ele>2535</ele>
        <time>2022-08-26T22:54:50Z</time>
      </trkpt>
      <trkpt lat="45.7384" lon="6.71036">
        <ele>2535</ele>
        <time>2022-08-26T22:54:51Z</time>
      </trkpt>
      <trkpt lat="45.73839" lon="6.71035">
        <ele>2535</ele>
        <time>2022-08-26T22:54:52Z</time>
      </trkpt>
      <trkpt lat="45.73839" lon="6.71034">
        <ele>2535</ele>
        <time>2022-08-26T22:54:53Z</time>
      </trkpt>
      <trkpt lat="45.73838" lon="6.71033">
        <ele>2535</ele>
        <time>2022-08-26T22:54:54Z</time>
      </trkpt>
      <trkpt lat="45.73837" lon="6.71032">
        <ele>2535</ele>
        <time>2022-08-26T22:54:55Z</time>
      </trkpt>
      <trkpt lat="45.73837" lon="6.71031">
        <ele>2535</ele>
        <time>2022-08-26T22:54:57Z</time>
      </trkpt>
      <trkpt lat="45.73836" lon="6.7103">
        <ele>2537</ele>
        <time>2022-08-26T22:54:58Z</time>
      </trkpt>
      <trkpt lat="45.73835" lon="6.71029">
        <ele>2537</ele>
        <time>2022-08-26T22:54:59Z</time>
      </trkpt>
      <trkpt lat="45.73835" lon="6.71029">
        <ele>2537</ele>
        <time>2022-08-26T22:55:00Z</time>
      </trkpt>
      <trkpt lat="45.73834" lon="6.71028">
        <ele>2538</ele>
        <time>2022-08-26T22:55:02Z</time>
      </trkpt>
      <trkpt lat="45.73833" lon="6.71027">
        <ele>2538</ele>
        <time>2022-08-26T22:55:03Z</time>
      </trkpt>
      <trkpt lat="45.73833" lon="6.71026">
        <ele>2538</ele>
        <time>2022-08-26T22:55:04Z</time>
      </trkpt>
      <trkpt lat="45.73832" lon="6.71025">
        <ele>2538</ele>
        <time>2022-08-26T22:55:05Z</time>
      </trkpt>
      <trkpt lat="45.73831" lon="6.71025">
        <ele>2539</ele>
        <time>2022-08-26T22:55:07Z</time>
      </trkpt>
      <trkpt lat="45.73831" lon="6.71024">
        <ele>2539</ele>
        <time>2022-08-26T22:55:08Z</time>
      </trkpt>
      <trkpt lat="45.7383" lon="6.71023">
        <ele>2539</ele>
        <time>2022-08-26T22:55:09Z</time>
      </trkpt>
      <trkpt lat="45.7383" lon="6.71022">
        <ele>2540</ele>
        <time>2022-08-26T22:55:10Z</time>
      </trkpt>
      <trkpt lat="45.73829" lon="6.71021">
        <ele>2541</ele>
        <time>2022-08-26T22:55:12Z</time>
      </trkpt>
      <trkpt lat="45.73829" lon="6.7102">
        <ele>2541</ele>
        <time>2022-08-26T22:55:14Z</time>
      </trkpt>
      <trkpt lat="45.73829" lon="6.71019">
        <ele>2541</ele>
        <time>2022-08-26T22:55:16Z</time>
      </trkpt>
      <trkpt lat="45.73828" lon="6.71018">
        <ele>2541</ele>
        <time>2022-08-26T22:55:17Z</time>
      </trkpt>
      <trkpt lat="45.73828" lon="6.71017">
        <ele>2541</ele>
        <time>2022-08-26T22:55:18Z</time>
      </trkpt>
      <trkpt lat="45.73828" lon="6.71016">
        <ele>2542</ele>
        <time>2022-08-26T22:55:20Z</time>
      </trkpt>
      <trkpt lat="45.73828" lon="6.71015">
        <ele>2543</ele>
        <time>2022-08-26T22:55:21Z</time>
      </trkpt>
      <trkpt lat="45.73827" lon="6.71014">
        <ele>2543</ele>
        <time>2022-08-26T22:55:22Z</time>
      </trkpt>
      <trkpt lat="45.73827" lon="6.71013">
        <ele>2543</ele>
        <time>2022-08-26T22:55:23Z</time>
      </trkpt>
      <trkpt lat="45.73827" lon="6.71012">
        <ele>2543</ele>
        <time>2022-08-26T22:55:25Z</time>
      </trkpt>
      <trkpt lat="45.73827" lon="6.71011">
        <ele>2543</ele>
        <time>2022-08-26T22:55:26Z</time>
      </trkpt>
      <trkpt lat="45.73826" lon="6.70996">
        <ele>2545</ele>
        <time>2022-08-26T22:55:35Z</time>
      </trkpt>
      <trkpt lat="45.73825" lon="6.70996">
        <ele>2545</ele>
        <time>2022-08-26T22:55:36Z</time>
      </trkpt>
      <trkpt lat="45.73824" lon="6.70996">
        <ele>2545</ele>
        <time>2022-08-26T22:55:37Z</time>
      </trkpt>
      <trkpt lat="45.73824" lon="6.70996">
        <ele>2545</ele>
        <time>2022-08-26T22:55:39Z</time>
      </trkpt>
      <trkpt lat="45.73823" lon="6.70996">
        <ele>2545</ele>
        <time>2022-08-26T22:55:40Z</time>
      </trkpt>
      <trkpt lat="45.73822" lon="6.70996">
        <ele>2544</ele>
        <time>2022-08-26T22:55:41Z</time>
      </trkpt>
      <trkpt lat="45.73821" lon="6.70996">
        <ele>2544</ele>
        <time>2022-08-26T22:55:42Z</time>
      </trkpt>
      <trkpt lat="45.73821" lon="6.70996">
        <ele>2545</ele>
        <time>2022-08-26T22:55:44Z</time>
      </trkpt>
      <trkpt lat="45.7382" lon="6.70996">
        <ele>2545</ele>
        <time>2022-08-26T22:55:45Z</time>
      </trkpt>
      <trkpt lat="45.73819" lon="6.70996">
        <ele>2545</ele>
        <time>2022-08-26T22:55:46Z</time>
      </trkpt>
      <trkpt lat="45.73818" lon="6.70996">
        <ele>2547</ele>
        <time>2022-08-26T22:55:47Z</time>
      </trkpt>
      <trkpt lat="45.73817" lon="6.70996">
        <ele>2547</ele>
        <time>2022-08-26T22:55:48Z</time>
      </trkpt>
      <trkpt lat="45.73817" lon="6.70997">
        <ele>2547</ele>
        <time>2022-08-26T22:55:49Z</time>
      </trkpt>
      <trkpt lat="45.73815" lon="6.70997">
        <ele>2548</ele>
        <time>2022-08-26T22:55:51Z</time>
      </trkpt>
      <trkpt lat="45.73814" lon="6.70997">
        <ele>2548</ele>
        <time>2022-08-26T22:55:52Z</time>
      </trkpt>
      <trkpt lat="45.73812" lon="6.70998">
        <ele>2548</ele>
        <time>2022-08-26T22:55:54Z</time>
      </trkpt>
      <trkpt lat="45.73811" lon="6.70998">
        <ele>2549</ele>
        <time>2022-08-26T22:55:56Z</time>
      </trkpt>
      <trkpt lat="45.73809" lon="6.70999">
        <ele>2549</ele>
        <time>2022-08-26T22:55:57Z</time>
      </trkpt>
      <trkpt lat="45.73808" lon="6.70999">
        <ele>2549</ele>
        <time>2022-08-26T22:55:58Z</time>
      </trkpt>
      <trkpt lat="45.73807" lon="6.70999">
        <ele>2549</ele>
        <time>2022-08-26T22:55:59Z</time>
      </trkpt>
      <trkpt lat="45.73807" lon="6.70998">
        <ele>2550</ele>
        <time>2022-08-26T22:56:01Z</time>
      </trkpt>
      <trkpt lat="45.73806" lon="6.70997">
        <ele>2550</ele>
        <time>2022-08-26T22:56:02Z</time>
      </trkpt>
      <trkpt lat="45.73806" lon="6.70996">
        <ele>2550</ele>
        <time>2022-08-26T22:56:03Z</time>
      </trkpt>
      <trkpt lat="45.73805" lon="6.70995">
        <ele>2550</ele>
        <time>2022-08-26T22:56:04Z</time>
      </trkpt>
      <trkpt lat="45.73805" lon="6.70995">
        <ele>2551</ele>
        <time>2022-08-26T22:56:06Z</time>
      </trkpt>
      <trkpt lat="45.73804" lon="6.70994">
        <ele>2552</ele>
        <time>2022-08-26T22:56:08Z</time>
      </trkpt>
      <trkpt lat="45.73804" lon="6.70993">
        <ele>2552</ele>
        <time>2022-08-26T22:56:09Z</time>
      </trkpt>
      <trkpt lat="45.73803" lon="6.70992">
        <ele>2552</ele>
        <time>2022-08-26T22:56:10Z</time>
      </trkpt>
      <trkpt lat="45.73802" lon="6.70992">
        <ele>2552</ele>
        <time>2022-08-26T22:56:11Z</time>
      </trkpt>
      <trkpt lat="45.73802" lon="6.70991">
        <ele>2552</ele>
        <time>2022-08-26T22:56:12Z</time>
      </trkpt>
      <trkpt lat="45.73801" lon="6.7099">
        <ele>2552</ele>
        <time>2022-08-26T22:56:13Z</time>
      </trkpt>
      <trkpt lat="45.73802" lon="6.70989">
        <ele>2553</ele>
        <time>2022-08-26T22:56:14Z</time>
      </trkpt>
      <trkpt lat="45.73803" lon="6.70989">
        <ele>2553</ele>
        <time>2022-08-26T22:56:15Z</time>
      </trkpt>
      <trkpt lat="45.73803" lon="6.70988">
        <ele>2553</ele>
        <time>2022-08-26T22:56:16Z</time>
      </trkpt>
      <trkpt lat="45.73804" lon="6.70988">
        <ele>2553</ele>
        <time>2022-08-26T22:56:18Z</time>
      </trkpt>
      <trkpt lat="45.73805" lon="6.70987">
        <ele>2553</ele>
        <time>2022-08-26T22:56:19Z</time>
      </trkpt>
      <trkpt lat="45.73805" lon="6.70987">
        <ele>2554</ele>
        <time>2022-08-26T22:56:20Z</time>
      </trkpt>
      <trkpt lat="45.73806" lon="6.70986">
        <ele>2554</ele>
        <time>2022-08-26T22:56:21Z</time>
      </trkpt>
      <trkpt lat="45.73807" lon="6.70986">
        <ele>2555</ele>
        <time>2022-08-26T22:56:23Z</time>
      </trkpt>
      <trkpt lat="45.73807" lon="6.70985">
        <ele>2555</ele>
        <time>2022-08-26T22:56:25Z</time>
      </trkpt>
      <trkpt lat="45.73808" lon="6.70985">
        <ele>2555</ele>
        <time>2022-08-26T22:56:26Z</time>
      </trkpt>
      <trkpt lat="45.73809" lon="6.70984">
        <ele>2555</ele>
        <time>2022-08-26T22:56:28Z</time>
      </trkpt>
      <trkpt lat="45.73809" lon="6.70983">
        <ele>2555</ele>
        <time>2022-08-26T22:56:30Z</time>
      </trkpt>
      <trkpt lat="45.7381" lon="6.70983">
        <ele>2556</ele>
        <time>2022-08-26T22:56:31Z</time>
      </trkpt>
      <trkpt lat="45.7381" lon="6.70983">
        <ele>2556</ele>
        <time>2022-08-26T22:56:32Z</time>
      </trkpt>
      <trkpt lat="45.7381" lon="6.70982">
        <ele>2556</ele>
        <time>2022-08-26T22:56:33Z</time>
      </trkpt>
      <trkpt lat="45.7381" lon="6.70982">
        <ele>2556</ele>
        <time>2022-08-26T22:56:34Z</time>
      </trkpt>
      <trkpt lat="45.73809" lon="6.70981">
        <ele>2557</ele>
        <time>2022-08-26T22:56:36Z</time>
      </trkpt>
      <trkpt lat="45.73809" lon="6.70981">
        <ele>2557</ele>
        <time>2022-08-26T22:56:37Z</time>
      </trkpt>
      <trkpt lat="45.73809" lon="6.70981">
        <ele>2559</ele>
        <time>2022-08-26T22:56:38Z</time>
      </trkpt>
      <trkpt lat="45.73809" lon="6.7098">
        <ele>2559</ele>
        <time>2022-08-26T22:56:39Z</time>
      </trkpt>
      <trkpt lat="45.73809" lon="6.7098">
        <ele>2559</ele>
        <time>2022-08-26T22:56:41Z</time>
      </trkpt>
      <trkpt lat="45.73809" lon="6.70979">
        <ele>2559</ele>
        <time>2022-08-26T22:56:42Z</time>
      </trkpt>
      <trkpt lat="45.73809" lon="6.70979">
        <ele>2559</ele>
        <time>2022-08-26T22:56:43Z</time>
      </trkpt>
      <trkpt lat="45.73808" lon="6.70979">
        <ele>2559</ele>
        <time>2022-08-26T22:56:44Z</time>
      </trkpt>
      <trkpt lat="45.73804" lon="6.7097">
        <ele>2559</ele>
        <time>2022-08-26T22:56:46Z</time>
      </trkpt>
      <trkpt lat="45.73803" lon="6.70969">
        <ele>2559</ele>
        <time>2022-08-26T22:56:47Z</time>
      </trkpt>
      <trkpt lat="45.73802" lon="6.70969">
        <ele>2559</ele>
        <time>2022-08-26T22:56:48Z</time>
      </trkpt>
      <trkpt lat="45.73801" lon="6.70968">
        <ele>2560</ele>
        <time>2022-08-26T22:56:49Z</time>
      </trkpt>
      <trkpt lat="45.738" lon="6.70968">
        <ele>2560</ele>
        <time>2022-08-26T22:56:51Z</time>
      </trkpt>
      <trkpt lat="45.73799" lon="6.70968">
        <ele>2561</ele>
        <time>2022-08-26T22:56:53Z</time>
      </trkpt>
      <trkpt lat="45.73798" lon="6.70967">
        <ele>2561</ele>
        <time>2022-08-26T22:56:54Z</time>
      </trkpt>
      <trkpt lat="45.73797" lon="6.70967">
        <ele>2561</ele>
        <time>2022-08-26T22:56:55Z</time>
      </trkpt>
      <trkpt lat="45.73796" lon="6.70966">
        <ele>2562</ele>
        <time>2022-08-26T22:56:56Z</time>
      </trkpt>
      <trkpt lat="45.73796" lon="6.70966">
        <ele>2562</ele>
        <time>2022-08-26T22:56:57Z</time>
      </trkpt>
      <trkpt lat="45.73795" lon="6.70965">
        <ele>2562</ele>
        <time>2022-08-26T22:56:58Z</time>
      </trkpt>
      <trkpt lat="45.73795" lon="6.70964">
        <ele>2562</ele>
        <time>2022-08-26T22:56:59Z</time>
      </trkpt>
      <trkpt lat="45.73795" lon="6.70964">
        <ele>2562</ele>
        <time>2022-08-26T22:57:00Z</time>
      </trkpt>
      <trkpt lat="45.73795" lon="6.70963">
        <ele>2562</ele>
        <time>2022-08-26T22:57:01Z</time>
      </trkpt>
      <trkpt lat="45.73794" lon="6.70962">
        <ele>2563</ele>
        <time>2022-08-26T22:57:02Z</time>
      </trkpt>
      <trkpt lat="45.73794" lon="6.70961">
        <ele>2563</ele>
        <time>2022-08-26T22:57:03Z</time>
      </trkpt>
      <trkpt lat="45.73794" lon="6.70961">
        <ele>2563</ele>
        <time>2022-08-26T22:57:04Z</time>
      </trkpt>
      <trkpt lat="45.73793" lon="6.7096">
        <ele>2563</ele>
        <time>2022-08-26T22:57:06Z</time>
      </trkpt>
      <trkpt lat="45.73793" lon="6.70959">
        <ele>2563</ele>
        <time>2022-08-26T22:57:07Z</time>
      </trkpt>
      <trkpt lat="45.73793" lon="6.70959">
        <ele>2563</ele>
        <time>2022-08-26T22:57:08Z</time>
      </trkpt>
      <trkpt lat="45.73792" lon="6.70958">
        <ele>2564</ele>
        <time>2022-08-26T22:57:10Z</time>
      </trkpt>
      <trkpt lat="45.73792" lon="6.70957">
        <ele>2564</ele>
        <time>2022-08-26T22:57:11Z</time>
      </trkpt>
      <trkpt lat="45.73792" lon="6.70957">
        <ele>2565</ele>
        <time>2022-08-26T22:57:12Z</time>
      </trkpt>
      <trkpt lat="45.73792" lon="6.70956">
        <ele>2565</ele>
        <time>2022-08-26T22:57:13Z</time>
      </trkpt>
      <trkpt lat="45.73791" lon="6.70955">
        <ele>2565</ele>
        <time>2022-08-26T22:57:14Z</time>
      </trkpt>
      <trkpt lat="45.73791" lon="6.70955">
        <ele>2565</ele>
        <time>2022-08-26T22:57:15Z</time>
      </trkpt>
      <trkpt lat="45.7379" lon="6.70954">
        <ele>2565</ele>
        <time>2022-08-26T22:57:16Z</time>
      </trkpt>
      <trkpt lat="45.7379" lon="6.70954">
        <ele>2565</ele>
        <time>2022-08-26T22:57:17Z</time>
      </trkpt>
      <trkpt lat="45.73789" lon="6.70953">
        <ele>2566</ele>
        <time>2022-08-26T22:57:19Z</time>
      </trkpt>
      <trkpt lat="45.73789" lon="6.70953">
        <ele>2567</ele>
        <time>2022-08-26T22:57:21Z</time>
      </trkpt>
      <trkpt lat="45.73788" lon="6.70953">
        <ele>2567</ele>
        <time>2022-08-26T22:57:22Z</time>
      </trkpt>
      <trkpt lat="45.73788" lon="6.70952">
        <ele>2567</ele>
        <time>2022-08-26T22:57:23Z</time>
      </trkpt>
      <trkpt lat="45.73787" lon="6.70952">
        <ele>2567</ele>
        <time>2022-08-26T22:57:24Z</time>
      </trkpt>
      <trkpt lat="45.73787" lon="6.70951">
        <ele>2568</ele>
        <time>2022-08-26T22:57:26Z</time>
      </trkpt>
      <trkpt lat="45.73786" lon="6.70951">
        <ele>2568</ele>
        <time>2022-08-26T22:57:27Z</time>
      </trkpt>
      <trkpt lat="45.73785" lon="6.70947">
        <ele>2569</ele>
        <time>2022-08-26T22:57:33Z</time>
      </trkpt>
      <trkpt lat="45.73785" lon="6.70945">
        <ele>2571</ele>
        <time>2022-08-26T22:57:35Z</time>
      </trkpt>
      <trkpt lat="45.73785" lon="6.70942">
        <ele>2572</ele>
        <time>2022-08-26T22:57:39Z</time>
      </trkpt>
      <trkpt lat="45.73785" lon="6.70939">
        <ele>2573</ele>
        <time>2022-08-26T22:57:43Z</time>
      </trkpt>
      <trkpt lat="45.73783" lon="6.70939">
        <ele>2573</ele>
        <time>2022-08-26T22:57:47Z</time>
      </trkpt>
      <trkpt lat="45.73781" lon="6.70939">
        <ele>2573</ele>
        <time>2022-08-26T22:57:49Z</time>
      </trkpt>
      <trkpt lat="45.73778" lon="6.70939">
        <ele>2574</ele>
        <time>2022-08-26T22:57:52Z</time>
      </trkpt>
      <trkpt lat="45.73777" lon="6.70938">
        <ele>2575</ele>
        <time>2022-08-26T22:57:54Z</time>
      </trkpt>
      <trkpt lat="45.73777" lon="6.70938">
        <ele>2575</ele>
        <time>2022-08-26T22:57:55Z</time>
      </trkpt>
      <trkpt lat="45.73776" lon="6.70937">
        <ele>2575</ele>
        <time>2022-08-26T22:57:56Z</time>
      </trkpt>
      <trkpt lat="45.73776" lon="6.70936">
        <ele>2575</ele>
        <time>2022-08-26T22:57:57Z</time>
      </trkpt>
      <trkpt lat="45.73775" lon="6.70936">
        <ele>2575</ele>
        <time>2022-08-26T22:57:58Z</time>
      </trkpt>
      <trkpt lat="45.73775" lon="6.70935">
        <ele>2575</ele>
        <time>2022-08-26T22:57:59Z</time>
      </trkpt>
      <trkpt lat="45.73775" lon="6.70934">
        <ele>2576</ele>
        <time>2022-08-26T22:58:00Z</time>
      </trkpt>
      <trkpt lat="45.73775" lon="6.7093">
        <ele>2576</ele>
        <time>2022-08-26T22:58:01Z</time>
      </trkpt>
      <trkpt lat="45.73776" lon="6.70928">
        <ele>2577</ele>
        <time>2022-08-26T22:58:03Z</time>
      </trkpt>
      <trkpt lat="45.73774" lon="6.70927">
        <ele>2577</ele>
        <time>2022-08-26T22:58:06Z</time>
      </trkpt>
      <trkpt lat="45.73772" lon="6.70927">
        <ele>2578</ele>
        <time>2022-08-26T22:58:08Z</time>
      </trkpt>
      <trkpt lat="45.7377" lon="6.70926">
        <ele>2578</ele>
        <time>2022-08-26T22:58:11Z</time>
      </trkpt>
      <trkpt lat="45.73768" lon="6.70926">
        <ele>2579</ele>
        <time>2022-08-26T22:58:13Z</time>
      </trkpt>
      <trkpt lat="45.73767" lon="6.70925">
        <ele>2580</ele>
        <time>2022-08-26T22:58:14Z</time>
      </trkpt>
      <trkpt lat="45.73767" lon="6.70924">
        <ele>2580</ele>
        <time>2022-08-26T22:58:16Z</time>
      </trkpt>
      <trkpt lat="45.73766" lon="6.70924">
        <ele>2580</ele>
        <time>2022-08-26T22:58:17Z</time>
      </trkpt>
      <trkpt lat="45.73766" lon="6.70923">
        <ele>2580</ele>
        <time>2022-08-26T22:58:18Z</time>
      </trkpt>
      <trkpt lat="45.73765" lon="6.70922">
        <ele>2580</ele>
        <time>2022-08-26T22:58:19Z</time>
      </trkpt>
      <trkpt lat="45.73765" lon="6.70921">
        <ele>2580</ele>
        <time>2022-08-26T22:58:21Z</time>
      </trkpt>
      <trkpt lat="45.73764" lon="6.70921">
        <ele>2581</ele>
        <time>2022-08-26T22:58:22Z</time>
      </trkpt>
      <trkpt lat="45.73764" lon="6.7092">
        <ele>2581</ele>
        <time>2022-08-26T22:58:23Z</time>
      </trkpt>
      <trkpt lat="45.73764" lon="6.70919">
        <ele>2581</ele>
        <time>2022-08-26T22:58:24Z</time>
      </trkpt>
      <trkpt lat="45.73763" lon="6.70918">
        <ele>2583</ele>
        <time>2022-08-26T22:58:26Z</time>
      </trkpt>
      <trkpt lat="45.73763" lon="6.70918">
        <ele>2583</ele>
        <time>2022-08-26T22:58:28Z</time>
      </trkpt>
      <trkpt lat="45.73762" lon="6.70917">
        <ele>2583</ele>
        <time>2022-08-26T22:58:29Z</time>
      </trkpt>
      <trkpt lat="45.73762" lon="6.70916">
        <ele>2584</ele>
        <time>2022-08-26T22:58:30Z</time>
      </trkpt>
      <trkpt lat="45.73761" lon="6.70916">
        <ele>2584</ele>
        <time>2022-08-26T22:58:31Z</time>
      </trkpt>
      <trkpt lat="45.73759" lon="6.70915">
        <ele>2584</ele>
        <time>2022-08-26T22:58:33Z</time>
      </trkpt>
      <trkpt lat="45.73758" lon="6.70912">
        <ele>2584</ele>
        <time>2022-08-26T22:58:36Z</time>
      </trkpt>
      <trkpt lat="45.73757" lon="6.7091">
        <ele>2585</ele>
        <time>2022-08-26T22:58:39Z</time>
      </trkpt>
      <trkpt lat="45.73755" lon="6.70908">
        <ele>2587</ele>
        <time>2022-08-26T22:58:43Z</time>
      </trkpt>
      <trkpt lat="45.73753" lon="6.70905">
        <ele>2587</ele>
        <time>2022-08-26T22:58:46Z</time>
      </trkpt>
      <trkpt lat="45.73751" lon="6.70902">
        <ele>2587</ele>
        <time>2022-08-26T22:58:49Z</time>
      </trkpt>
      <trkpt lat="45.73749" lon="6.70899">
        <ele>2588</ele>
        <time>2022-08-26T22:58:52Z</time>
      </trkpt>
      <trkpt lat="45.73748" lon="6.70898">
        <ele>2588</ele>
        <time>2022-08-26T22:58:54Z</time>
      </trkpt>
      <trkpt lat="45.73747" lon="6.70897">
        <ele>2588</ele>
        <time>2022-08-26T22:58:55Z</time>
      </trkpt>
      <trkpt lat="45.73746" lon="6.70896">
        <ele>2589</ele>
        <time>2022-08-26T22:58:57Z</time>
      </trkpt>
      <trkpt lat="45.73745" lon="6.70895">
        <ele>2589</ele>
        <time>2022-08-26T22:58:58Z</time>
      </trkpt>
      <trkpt lat="45.73744" lon="6.70894">
        <ele>2589</ele>
        <time>2022-08-26T22:58:59Z</time>
      </trkpt>
      <trkpt lat="45.73743" lon="6.70894">
        <ele>2589</ele>
        <time>2022-08-26T22:59:00Z</time>
      </trkpt>
      <trkpt lat="45.73741" lon="6.70893">
        <ele>2589</ele>
        <time>2022-08-26T22:59:01Z</time>
      </trkpt>
      <trkpt lat="45.7374" lon="6.70893">
        <ele>2590</ele>
        <time>2022-08-26T22:59:02Z</time>
      </trkpt>
      <trkpt lat="45.73738" lon="6.70891">
        <ele>2590</ele>
        <time>2022-08-26T22:59:05Z</time>
      </trkpt>
      <trkpt lat="45.73735" lon="6.70889">
        <ele>2591</ele>
        <time>2022-08-26T22:59:10Z</time>
      </trkpt>
      <trkpt lat="45.73734" lon="6.70888">
        <ele>2591</ele>
        <time>2022-08-26T22:59:11Z</time>
      </trkpt>
      <trkpt lat="45.73733" lon="6.70887">
        <ele>2592</ele>
        <time>2022-08-26T22:59:13Z</time>
      </trkpt>
      <trkpt lat="45.73733" lon="6.70886">
        <ele>2592</ele>
        <time>2022-08-26T22:59:14Z</time>
      </trkpt>
      <trkpt lat="45.73732" lon="6.70884">
        <ele>2592</ele>
        <time>2022-08-26T22:59:15Z</time>
      </trkpt>
      <trkpt lat="45.73731" lon="6.70883">
        <ele>2592</ele>
        <time>2022-08-26T22:59:16Z</time>
      </trkpt>
      <trkpt lat="45.7373" lon="6.70882">
        <ele>2592</ele>
        <time>2022-08-26T22:59:18Z</time>
      </trkpt>
      <trkpt lat="45.73729" lon="6.70881">
        <ele>2592</ele>
        <time>2022-08-26T22:59:19Z</time>
      </trkpt>
      <trkpt lat="45.7373" lon="6.70878">
        <ele>2593</ele>
        <time>2022-08-26T22:59:21Z</time>
      </trkpt>
      <trkpt lat="45.73732" lon="6.70875">
        <ele>2593</ele>
        <time>2022-08-26T22:59:24Z</time>
      </trkpt>
      <trkpt lat="45.73735" lon="6.70872">
        <ele>2593</ele>
        <time>2022-08-26T22:59:27Z</time>
      </trkpt>
      <trkpt lat="45.73738" lon="6.70871">
        <ele>2593</ele>
        <time>2022-08-26T22:59:29Z</time>
      </trkpt>
      <trkpt lat="45.7374" lon="6.7087">
        <ele>2595</ele>
        <time>2022-08-26T22:59:31Z</time>
      </trkpt>
      <trkpt lat="45.73742" lon="6.70868">
        <ele>2595</ele>
        <time>2022-08-26T22:59:33Z</time>
      </trkpt>
      <trkpt lat="45.73745" lon="6.70866">
        <ele>2596</ele>
        <time>2022-08-26T22:59:36Z</time>
      </trkpt>
      <trkpt lat="45.73746" lon="6.70864">
        <ele>2596</ele>
        <time>2022-08-26T22:59:38Z</time>
      </trkpt>
      <trkpt lat="45.73748" lon="6.70862">
        <ele>2596</ele>
        <time>2022-08-26T22:59:39Z</time>
      </trkpt>
      <trkpt lat="45.73749" lon="6.70859">
        <ele>2596</ele>
        <time>2022-08-26T22:59:41Z</time>
      </trkpt>
      <trkpt lat="45.7375" lon="6.70855">
        <ele>2596</ele>
        <time>2022-08-26T22:59:43Z</time>
      </trkpt>
      <trkpt lat="45.73752" lon="6.70853">
        <ele>2597</ele>
        <time>2022-08-26T22:59:45Z</time>
      </trkpt>
      <trkpt lat="45.73754" lon="6.7085">
        <ele>2597</ele>
        <time>2022-08-26T22:59:47Z</time>
      </trkpt>
      <trkpt lat="45.73755" lon="6.70848">
        <ele>2597</ele>
        <time>2022-08-26T22:59:49Z</time>
      </trkpt>
      <trkpt lat="45.73757" lon="6.70846">
        <ele>2597</ele>
        <time>2022-08-26T22:59:51Z</time>
      </trkpt>
      <trkpt lat="45.73759" lon="6.70844">
        <ele>2598</ele>
        <time>2022-08-26T22:59:53Z</time>
      </trkpt>
      <trkpt lat="45.73761" lon="6.70843">
        <ele>2598</ele>
        <time>2022-08-26T22:59:55Z</time>
      </trkpt>
      <trkpt lat="45.73763" lon="6.70842">
        <ele>2599</ele>
        <time>2022-08-26T22:59:57Z</time>
      </trkpt>
      <trkpt lat="45.73765" lon="6.70841">
        <ele>2600</ele>
        <time>2022-08-26T22:59:59Z</time>
      </trkpt>
      <trkpt lat="45.73766" lon="6.70841">
        <ele>2600</ele>
        <time>2022-08-26T23:00:02Z</time>
      </trkpt>
      <trkpt lat="45.73768" lon="6.7084">
        <ele>2600</ele>
        <time>2022-08-26T23:00:04Z</time>
      </trkpt>
      <trkpt lat="45.73771" lon="6.70839">
        <ele>2602</ele>
        <time>2022-08-26T23:00:07Z</time>
      </trkpt>
      <trkpt lat="45.73773" lon="6.70839">
        <ele>2602</ele>
        <time>2022-08-26T23:00:09Z</time>
      </trkpt>
      <trkpt lat="45.73775" lon="6.70838">
        <ele>2603</ele>
        <time>2022-08-26T23:00:12Z</time>
      </trkpt>
      <trkpt lat="45.73778" lon="6.70835">
        <ele>2603</ele>
        <time>2022-08-26T23:00:15Z</time>
      </trkpt>
      <trkpt lat="45.73779" lon="6.70833">
        <ele>2603</ele>
        <time>2022-08-26T23:00:18Z</time>
      </trkpt>
      <trkpt lat="45.7378" lon="6.70831">
        <ele>2603</ele>
        <time>2022-08-26T23:00:20Z</time>
      </trkpt>
      <trkpt lat="45.73782" lon="6.7083">
        <ele>2605</ele>
        <time>2022-08-26T23:00:22Z</time>
      </trkpt>
      <trkpt lat="45.73784" lon="6.70828">
        <ele>2605</ele>
        <time>2022-08-26T23:00:24Z</time>
      </trkpt>
      <trkpt lat="45.73786" lon="6.70825">
        <ele>2605</ele>
        <time>2022-08-26T23:00:27Z</time>
      </trkpt>
      <trkpt lat="45.73785" lon="6.70821">
        <ele>2608</ele>
        <time>2022-08-26T23:00:31Z</time>
      </trkpt>
      <trkpt lat="45.73784" lon="6.70818">
        <ele>2608</ele>
        <time>2022-08-26T23:00:34Z</time>
      </trkpt>
      <trkpt lat="45.73783" lon="6.70815">
        <ele>2609</ele>
        <time>2022-08-26T23:00:37Z</time>
      </trkpt>
      <trkpt lat="45.73782" lon="6.70813">
        <ele>2609</ele>
        <time>2022-08-26T23:00:39Z</time>
      </trkpt>
      <trkpt lat="45.73781" lon="6.7081">
        <ele>2609</ele>
        <time>2022-08-26T23:00:42Z</time>
      </trkpt>
      <trkpt lat="45.73779" lon="6.70808">
        <ele>2610</ele>
        <time>2022-08-26T23:00:45Z</time>
      </trkpt>
      <trkpt lat="45.73778" lon="6.70805">
        <ele>2611</ele>
        <time>2022-08-26T23:00:48Z</time>
      </trkpt>
      <trkpt lat="45.73777" lon="6.70802">
        <ele>2611</ele>
        <time>2022-08-26T23:00:51Z</time>
      </trkpt>
      <trkpt lat="45.73775" lon="6.70802">
        <ele>2612</ele>
        <time>2022-08-26T23:00:55Z</time>
      </trkpt>
      <trkpt lat="45.73773" lon="6.70799">
        <ele>2612</ele>
        <time>2022-08-26T23:00:58Z</time>
      </trkpt>
      <trkpt lat="45.73772" lon="6.70798">
        <ele>2612</ele>
        <time>2022-08-26T23:01:01Z</time>
      </trkpt>
      <trkpt lat="45.7377" lon="6.70796">
        <ele>2612</ele>
        <time>2022-08-26T23:01:04Z</time>
      </trkpt>
      <trkpt lat="45.73768" lon="6.70794">
        <ele>2613</ele>
        <time>2022-08-26T23:01:07Z</time>
      </trkpt>
      <trkpt lat="45.73767" lon="6.70791">
        <ele>2613</ele>
        <time>2022-08-26T23:01:10Z</time>
      </trkpt>
      <trkpt lat="45.73766" lon="6.70789">
        <ele>2614</ele>
        <time>2022-08-26T23:01:13Z</time>
      </trkpt>
      <trkpt lat="45.73765" lon="6.70786">
        <ele>2614</ele>
        <time>2022-08-26T23:01:16Z</time>
      </trkpt>
      <trkpt lat="45.73763" lon="6.70785">
        <ele>2615</ele>
        <time>2022-08-26T23:01:19Z</time>
      </trkpt>
      <trkpt lat="45.73761" lon="6.70784">
        <ele>2615</ele>
        <time>2022-08-26T23:01:21Z</time>
      </trkpt>
      <trkpt lat="45.73759" lon="6.70784">
        <ele>2616</ele>
        <time>2022-08-26T23:01:24Z</time>
      </trkpt>
      <trkpt lat="45.73757" lon="6.70786">
        <ele>2617</ele>
        <time>2022-08-26T23:01:27Z</time>
      </trkpt>
      <trkpt lat="45.73755" lon="6.70788">
        <ele>2617</ele>
        <time>2022-08-26T23:01:30Z</time>
      </trkpt>
      <trkpt lat="45.73753" lon="6.70789">
        <ele>2619</ele>
        <time>2022-08-26T23:01:32Z</time>
      </trkpt>
      <trkpt lat="45.73751" lon="6.70789">
        <ele>2619</ele>
        <time>2022-08-26T23:01:34Z</time>
      </trkpt>
      <trkpt lat="45.73749" lon="6.70788">
        <ele>2620</ele>
        <time>2022-08-26T23:01:39Z</time>
      </trkpt>
      <trkpt lat="45.73747" lon="6.70787">
        <ele>2620</ele>
        <time>2022-08-26T23:01:42Z</time>
      </trkpt>
      <trkpt lat="45.73744" lon="6.70785">
        <ele>2621</ele>
        <time>2022-08-26T23:01:45Z</time>
      </trkpt>
      <trkpt lat="45.73742" lon="6.70784">
        <ele>2622</ele>
        <time>2022-08-26T23:01:48Z</time>
      </trkpt>
      <trkpt lat="45.7374" lon="6.70782">
        <ele>2623</ele>
        <time>2022-08-26T23:01:51Z</time>
      </trkpt>
      <trkpt lat="45.73738" lon="6.70782">
        <ele>2623</ele>
        <time>2022-08-26T23:01:54Z</time>
      </trkpt>
      <trkpt lat="45.73736" lon="6.70781">
        <ele>2623</ele>
        <time>2022-08-26T23:01:57Z</time>
      </trkpt>
      <trkpt lat="45.73733" lon="6.7078">
        <ele>2624</ele>
        <time>2022-08-26T23:02:00Z</time>
      </trkpt>
      <trkpt lat="45.73732" lon="6.70778">
        <ele>2624</ele>
        <time>2022-08-26T23:02:03Z</time>
      </trkpt>
      <trkpt lat="45.7373" lon="6.70775">
        <ele>2625</ele>
        <time>2022-08-26T23:02:06Z</time>
      </trkpt>
      <trkpt lat="45.73728" lon="6.70774">
        <ele>2625</ele>
        <time>2022-08-26T23:02:09Z</time>
      </trkpt>
      <trkpt lat="45.73726" lon="6.70772">
        <ele>2626</ele>
        <time>2022-08-26T23:02:12Z</time>
      </trkpt>
      <trkpt lat="45.73725" lon="6.7077">
        <ele>2626</ele>
        <time>2022-08-26T23:02:15Z</time>
      </trkpt>
      <trkpt lat="45.73723" lon="6.70767">
        <ele>2627</ele>
        <time>2022-08-26T23:02:18Z</time>
      </trkpt>
      <trkpt lat="45.73722" lon="6.70766">
        <ele>2628</ele>
        <time>2022-08-26T23:02:21Z</time>
      </trkpt>
      <trkpt lat="45.73719" lon="6.70765">
        <ele>2628</ele>
        <time>2022-08-26T23:02:24Z</time>
      </trkpt>
      <trkpt lat="45.73717" lon="6.70766">
        <ele>2628</ele>
        <time>2022-08-26T23:02:26Z</time>
      </trkpt>
      <trkpt lat="45.73715" lon="6.70766">
        <ele>2628</ele>
        <time>2022-08-26T23:02:28Z</time>
      </trkpt>
      <trkpt lat="45.73712" lon="6.70767">
        <ele>2628</ele>
        <time>2022-08-26T23:02:30Z</time>
      </trkpt>
      <trkpt lat="45.73709" lon="6.70769">
        <ele>2628</ele>
        <time>2022-08-26T23:02:32Z</time>
      </trkpt>
      <trkpt lat="45.73708" lon="6.70768">
        <ele>2628</ele>
        <time>2022-08-26T23:02:34Z</time>
      </trkpt>
      <trkpt lat="45.73705" lon="6.70769">
        <ele>2628</ele>
        <time>2022-08-26T23:02:36Z</time>
      </trkpt>
      <trkpt lat="45.73702" lon="6.7077">
        <ele>2628</ele>
        <time>2022-08-26T23:02:38Z</time>
      </trkpt>
      <trkpt lat="45.73699" lon="6.7077">
        <ele>2629</ele>
        <time>2022-08-26T23:02:40Z</time>
      </trkpt>
      <trkpt lat="45.73697" lon="6.70771">
        <ele>2629</ele>
        <time>2022-08-26T23:02:42Z</time>
      </trkpt>
      <trkpt lat="45.73694" lon="6.70772">
        <ele>2629</ele>
        <time>2022-08-26T23:02:44Z</time>
      </trkpt>
      <trkpt lat="45.73691" lon="6.70773">
        <ele>2629</ele>
        <time>2022-08-26T23:02:46Z</time>
      </trkpt>
      <trkpt lat="45.73689" lon="6.70773">
        <ele>2631</ele>
        <time>2022-08-26T23:02:48Z</time>
      </trkpt>
      <trkpt lat="45.73686" lon="6.70774">
        <ele>2631</ele>
        <time>2022-08-26T23:02:50Z</time>
      </trkpt>
      <trkpt lat="45.73683" lon="6.70774">
        <ele>2631</ele>
        <time>2022-08-26T23:02:52Z</time>
      </trkpt>
      <trkpt lat="45.73681" lon="6.70774">
        <ele>2631</ele>
        <time>2022-08-26T23:02:54Z</time>
      </trkpt>
      <trkpt lat="45.73679" lon="6.70774">
        <ele>2631</ele>
        <time>2022-08-26T23:02:56Z</time>
      </trkpt>
      <trkpt lat="45.73676" lon="6.70774">
        <ele>2631</ele>
        <time>2022-08-26T23:02:58Z</time>
      </trkpt>
      <trkpt lat="45.73673" lon="6.70774">
        <ele>2632</ele>
        <time>2022-08-26T23:03:00Z</time>
      </trkpt>
      <trkpt lat="45.73669" lon="6.70775">
        <ele>2632</ele>
        <time>2022-08-26T23:03:04Z</time>
      </trkpt>
      <trkpt lat="45.73665" lon="6.70777">
        <ele>2633</ele>
        <time>2022-08-26T23:03:07Z</time>
      </trkpt>
      <trkpt lat="45.73663" lon="6.70778">
        <ele>2633</ele>
        <time>2022-08-26T23:03:10Z</time>
      </trkpt>
      <trkpt lat="45.7366" lon="6.70779">
        <ele>2634</ele>
        <time>2022-08-26T23:03:13Z</time>
      </trkpt>
      <trkpt lat="45.73658" lon="6.70779">
        <ele>2634</ele>
        <time>2022-08-26T23:03:15Z</time>
      </trkpt>
      <trkpt lat="45.73656" lon="6.70778">
        <ele>2636</ele>
        <time>2022-08-26T23:03:20Z</time>
      </trkpt>
      <trkpt lat="45.73654" lon="6.70778">
        <ele>2636</ele>
        <time>2022-08-26T23:03:22Z</time>
      </trkpt>
      <trkpt lat="45.73652" lon="6.70778">
        <ele>2636</ele>
        <time>2022-08-26T23:03:24Z</time>
      </trkpt>
      <trkpt lat="45.7365" lon="6.70774">
        <ele>2637</ele>
        <time>2022-08-26T23:03:29Z</time>
      </trkpt>
      <trkpt lat="45.73648" lon="6.70774">
        <ele>2638</ele>
        <time>2022-08-26T23:03:32Z</time>
      </trkpt>
      <trkpt lat="45.73647" lon="6.70773">
        <ele>2638</ele>
        <time>2022-08-26T23:03:35Z</time>
      </trkpt>
      <trkpt lat="45.73646" lon="6.70773">
        <ele>2638</ele>
        <time>2022-08-26T23:03:36Z</time>
      </trkpt>
      <trkpt lat="45.73645" lon="6.70773">
        <ele>2638</ele>
        <time>2022-08-26T23:03:37Z</time>
      </trkpt>
      <trkpt lat="45.73644" lon="6.70773">
        <ele>2638</ele>
        <time>2022-08-26T23:03:38Z</time>
      </trkpt>
      <trkpt lat="45.73643" lon="6.70773">
        <ele>2638</ele>
        <time>2022-08-26T23:03:39Z</time>
      </trkpt>
      <trkpt lat="45.73642" lon="6.70772">
        <ele>2639</ele>
        <time>2022-08-26T23:03:40Z</time>
      </trkpt>
      <trkpt lat="45.73636" lon="6.70769">
        <ele>2641</ele>
        <time>2022-08-26T23:03:49Z</time>
      </trkpt>
      <trkpt lat="45.73633" lon="6.70768">
        <ele>2642</ele>
        <time>2022-08-26T23:03:52Z</time>
      </trkpt>
      <trkpt lat="45.73631" lon="6.70767">
        <ele>2644</ele>
        <time>2022-08-26T23:03:55Z</time>
      </trkpt>
      <trkpt lat="45.73626" lon="6.70765">
        <ele>2645</ele>
        <time>2022-08-26T23:04:03Z</time>
      </trkpt>
      <trkpt lat="45.73624" lon="6.70764">
        <ele>2646</ele>
        <time>2022-08-26T23:04:06Z</time>
      </trkpt>
      <trkpt lat="45.73622" lon="6.70762">
        <ele>2646</ele>
        <time>2022-08-26T23:04:11Z</time>
      </trkpt>
      <trkpt lat="45.73622" lon="6.70758">
        <ele>2647</ele>
        <time>2022-08-26T23:04:15Z</time>
      </trkpt>
      <trkpt lat="45.7362" lon="6.70756">
        <ele>2647</ele>
        <time>2022-08-26T23:04:19Z</time>
      </trkpt>
      <trkpt lat="45.73618" lon="6.70755">
        <ele>2648</ele>
        <time>2022-08-26T23:04:22Z</time>
      </trkpt>
      <trkpt lat="45.73616" lon="6.70753">
        <ele>2648</ele>
        <time>2022-08-26T23:04:26Z</time>
      </trkpt>
      <trkpt lat="45.73614" lon="6.70752">
        <ele>2649</ele>
        <time>2022-08-26T23:04:29Z</time>
      </trkpt>
      <trkpt lat="45.73612" lon="6.7075">
        <ele>2649</ele>
        <time>2022-08-26T23:04:37Z</time>
      </trkpt>
      <trkpt lat="45.7361" lon="6.7075">
        <ele>2650</ele>
        <time>2022-08-26T23:04:41Z</time>
      </trkpt>
      <trkpt lat="45.73608" lon="6.70749">
        <ele>2651</ele>
        <time>2022-08-26T23:04:47Z</time>
      </trkpt>
      <trkpt lat="45.73607" lon="6.70749">
        <ele>2652</ele>
        <time>2022-08-26T23:04:49Z</time>
      </trkpt>
      <trkpt lat="45.73606" lon="6.70748">
        <ele>2653</ele>
        <time>2022-08-26T23:04:50Z</time>
      </trkpt>
      <trkpt lat="45.73605" lon="6.70748">
        <ele>2653</ele>
        <time>2022-08-26T23:04:51Z</time>
      </trkpt>
      <trkpt lat="45.73604" lon="6.70747">
        <ele>2653</ele>
        <time>2022-08-26T23:04:53Z</time>
      </trkpt>
      <trkpt lat="45.73603" lon="6.70747">
        <ele>2653</ele>
        <time>2022-08-26T23:04:54Z</time>
      </trkpt>
      <trkpt lat="45.73602" lon="6.70745">
        <ele>2654</ele>
        <time>2022-08-26T23:04:57Z</time>
      </trkpt>
      <trkpt lat="45.736" lon="6.70743">
        <ele>2654</ele>
        <time>2022-08-26T23:05:01Z</time>
      </trkpt>
      <trkpt lat="45.73599" lon="6.70741">
        <ele>2656</ele>
        <time>2022-08-26T23:05:04Z</time>
      </trkpt>
      <trkpt lat="45.73597" lon="6.7074">
        <ele>2657</ele>
        <time>2022-08-26T23:05:08Z</time>
      </trkpt>
      <trkpt lat="45.73595" lon="6.70738">
        <ele>2658</ele>
        <time>2022-08-26T23:05:11Z</time>
      </trkpt>
      <trkpt lat="45.73593" lon="6.70736">
        <ele>2658</ele>
        <time>2022-08-26T23:05:14Z</time>
      </trkpt>
      <trkpt lat="45.73592" lon="6.70734">
        <ele>2659</ele>
        <time>2022-08-26T23:05:17Z</time>
      </trkpt>
      <trkpt lat="45.7359" lon="6.70731">
        <ele>2660</ele>
        <time>2022-08-26T23:05:21Z</time>
      </trkpt>
      <trkpt lat="45.73589" lon="6.7073">
        <ele>2661</ele>
        <time>2022-08-26T23:05:26Z</time>
      </trkpt>
      <trkpt lat="45.73588" lon="6.70727">
        <ele>2661</ele>
        <time>2022-08-26T23:05:29Z</time>
      </trkpt>
      <trkpt lat="45.73588" lon="6.70724">
        <ele>2663</ele>
        <time>2022-08-26T23:05:34Z</time>
      </trkpt>
      <trkpt lat="45.73585" lon="6.70723">
        <ele>2663</ele>
        <time>2022-08-26T23:05:37Z</time>
      </trkpt>
      <trkpt lat="45.73584" lon="6.70721">
        <ele>2663</ele>
        <time>2022-08-26T23:05:40Z</time>
      </trkpt>
      <trkpt lat="45.73583" lon="6.70718">
        <ele>2663</ele>
        <time>2022-08-26T23:05:43Z</time>
      </trkpt>
      <trkpt lat="45.73582" lon="6.70715">
        <ele>2664</ele>
        <time>2022-08-26T23:05:47Z</time>
      </trkpt>
      <trkpt lat="45.73581" lon="6.70713">
        <ele>2665</ele>
        <time>2022-08-26T23:05:50Z</time>
      </trkpt>
      <trkpt lat="45.73579" lon="6.7071">
        <ele>2666</ele>
        <time>2022-08-26T23:05:53Z</time>
      </trkpt>
      <trkpt lat="45.73579" lon="6.70707">
        <ele>2666</ele>
        <time>2022-08-26T23:05:56Z</time>
      </trkpt>
      <trkpt lat="45.73577" lon="6.70705">
        <ele>2668</ele>
        <time>2022-08-26T23:05:59Z</time>
      </trkpt>
      <trkpt lat="45.73575" lon="6.70703">
        <ele>2669</ele>
        <time>2022-08-26T23:06:02Z</time>
      </trkpt>
      <trkpt lat="45.73573" lon="6.707">
        <ele>2669</ele>
        <time>2022-08-26T23:06:05Z</time>
      </trkpt>
      <trkpt lat="45.7357" lon="6.70699">
        <ele>2669</ele>
        <time>2022-08-26T23:06:08Z</time>
      </trkpt>
      <trkpt lat="45.73568" lon="6.70698">
        <ele>2670</ele>
        <time>2022-08-26T23:06:11Z</time>
      </trkpt>
      <trkpt lat="45.73566" lon="6.70696">
        <ele>2670</ele>
        <time>2022-08-26T23:06:14Z</time>
      </trkpt>
      <trkpt lat="45.73564" lon="6.70695">
        <ele>2671</ele>
        <time>2022-08-26T23:06:17Z</time>
      </trkpt>
      <trkpt lat="45.73562" lon="6.70694">
        <ele>2671</ele>
        <time>2022-08-26T23:06:20Z</time>
      </trkpt>
      <trkpt lat="45.7356" lon="6.70693">
        <ele>2672</ele>
        <time>2022-08-26T23:06:23Z</time>
      </trkpt>
      <trkpt lat="45.73559" lon="6.70691">
        <ele>2673</ele>
        <time>2022-08-26T23:06:26Z</time>
      </trkpt>
      <trkpt lat="45.73557" lon="6.70689">
        <ele>2674</ele>
        <time>2022-08-26T23:06:30Z</time>
      </trkpt>
      <trkpt lat="45.73554" lon="6.70688">
        <ele>2674</ele>
        <time>2022-08-26T23:06:33Z</time>
      </trkpt>
      <trkpt lat="45.73552" lon="6.70687">
        <ele>2675</ele>
        <time>2022-08-26T23:06:36Z</time>
      </trkpt>
      <trkpt lat="45.7355" lon="6.70686">
        <ele>2675</ele>
        <time>2022-08-26T23:06:39Z</time>
      </trkpt>
      <trkpt lat="45.73548" lon="6.70685">
        <ele>2676</ele>
        <time>2022-08-26T23:06:41Z</time>
      </trkpt>
      <trkpt lat="45.73547" lon="6.70683">
        <ele>2676</ele>
        <time>2022-08-26T23:06:44Z</time>
      </trkpt>
      <trkpt lat="45.73545" lon="6.70682">
        <ele>2676</ele>
        <time>2022-08-26T23:06:47Z</time>
      </trkpt>
      <trkpt lat="45.73543" lon="6.70681">
        <ele>2677</ele>
        <time>2022-08-26T23:06:50Z</time>
      </trkpt>
      <trkpt lat="45.73541" lon="6.70681">
        <ele>2678</ele>
        <time>2022-08-26T23:06:52Z</time>
      </trkpt>
      <trkpt lat="45.73538" lon="6.70681">
        <ele>2678</ele>
        <time>2022-08-26T23:06:55Z</time>
      </trkpt>
      <trkpt lat="45.73535" lon="6.7068">
        <ele>2680</ele>
        <time>2022-08-26T23:06:58Z</time>
      </trkpt>
      <trkpt lat="45.73534" lon="6.7068">
        <ele>2680</ele>
        <time>2022-08-26T23:07:00Z</time>
      </trkpt>
      <trkpt lat="45.73531" lon="6.7068">
        <ele>2681</ele>
        <time>2022-08-26T23:07:02Z</time>
      </trkpt>
      <trkpt lat="45.73529" lon="6.70679">
        <ele>2681</ele>
        <time>2022-08-26T23:07:05Z</time>
      </trkpt>
      <trkpt lat="45.73527" lon="6.70678">
        <ele>2681</ele>
        <time>2022-08-26T23:07:06Z</time>
      </trkpt>
      <trkpt lat="45.73525" lon="6.70677">
        <ele>2682</ele>
        <time>2022-08-26T23:07:09Z</time>
      </trkpt>
      <trkpt lat="45.73522" lon="6.70677">
        <ele>2682</ele>
        <time>2022-08-26T23:07:11Z</time>
      </trkpt>
      <trkpt lat="45.73521" lon="6.70676">
        <ele>2682</ele>
        <time>2022-08-26T23:07:13Z</time>
      </trkpt>
      <trkpt lat="45.73519" lon="6.70675">
        <ele>2683</ele>
        <time>2022-08-26T23:07:15Z</time>
      </trkpt>
      <trkpt lat="45.73516" lon="6.70675">
        <ele>2683</ele>
        <time>2022-08-26T23:07:18Z</time>
      </trkpt>
      <trkpt lat="45.73514" lon="6.70674">
        <ele>2684</ele>
        <time>2022-08-26T23:07:20Z</time>
      </trkpt>
      <trkpt lat="45.73512" lon="6.70674">
        <ele>2684</ele>
        <time>2022-08-26T23:07:22Z</time>
      </trkpt>
      <trkpt lat="45.7351" lon="6.70674">
        <ele>2684</ele>
        <time>2022-08-26T23:07:24Z</time>
      </trkpt>
      <trkpt lat="45.73508" lon="6.70674">
        <ele>2684</ele>
        <time>2022-08-26T23:07:26Z</time>
      </trkpt>
      <trkpt lat="45.73505" lon="6.70674">
        <ele>2685</ele>
        <time>2022-08-26T23:07:28Z</time>
      </trkpt>
      <trkpt lat="45.73503" lon="6.70675">
        <ele>2685</ele>
        <time>2022-08-26T23:07:30Z</time>
      </trkpt>
      <trkpt lat="45.73501" lon="6.70676">
        <ele>2685</ele>
        <time>2022-08-26T23:07:32Z</time>
      </trkpt>
      <trkpt lat="45.73499" lon="6.70677">
        <ele>2685</ele>
        <time>2022-08-26T23:07:34Z</time>
      </trkpt>
      <trkpt lat="45.73497" lon="6.70679">
        <ele>2685</ele>
        <time>2022-08-26T23:07:36Z</time>
      </trkpt>
      <trkpt lat="45.73495" lon="6.7068">
        <ele>2685</ele>
        <time>2022-08-26T23:07:38Z</time>
      </trkpt>
      <trkpt lat="45.73493" lon="6.70681">
        <ele>2685</ele>
        <time>2022-08-26T23:07:40Z</time>
      </trkpt>
      <trkpt lat="45.73491" lon="6.70683">
        <ele>2685</ele>
        <time>2022-08-26T23:07:42Z</time>
      </trkpt>
      <trkpt lat="45.73488" lon="6.70685">
        <ele>2685</ele>
        <time>2022-08-26T23:07:44Z</time>
      </trkpt>
      <trkpt lat="45.73486" lon="6.70687">
        <ele>2685</ele>
        <time>2022-08-26T23:07:46Z</time>
      </trkpt>
      <trkpt lat="45.73484" lon="6.70689">
        <ele>2685</ele>
        <time>2022-08-26T23:07:48Z</time>
      </trkpt>
      <trkpt lat="45.73482" lon="6.70691">
        <ele>2685</ele>
        <time>2022-08-26T23:07:50Z</time>
      </trkpt>
      <trkpt lat="45.73481" lon="6.70694">
        <ele>2685</ele>
        <time>2022-08-26T23:07:52Z</time>
      </trkpt>
      <trkpt lat="45.73479" lon="6.70697">
        <ele>2686</ele>
        <time>2022-08-26T23:07:54Z</time>
      </trkpt>
      <trkpt lat="45.73479" lon="6.70699">
        <ele>2686</ele>
        <time>2022-08-26T23:07:56Z</time>
      </trkpt>
      <trkpt lat="45.73477" lon="6.70702">
        <ele>2687</ele>
        <time>2022-08-26T23:07:58Z</time>
      </trkpt>
      <trkpt lat="45.73475" lon="6.70703">
        <ele>2687</ele>
        <time>2022-08-26T23:08:00Z</time>
      </trkpt>
      <trkpt lat="45.73473" lon="6.70705">
        <ele>2687</ele>
        <time>2022-08-26T23:08:02Z</time>
      </trkpt>
      <trkpt lat="45.73472" lon="6.70707">
        <ele>2687</ele>
        <time>2022-08-26T23:08:04Z</time>
      </trkpt>
      <trkpt lat="45.7347" lon="6.70709">
        <ele>2688</ele>
        <time>2022-08-26T23:08:06Z</time>
      </trkpt>
      <trkpt lat="45.73467" lon="6.70711">
        <ele>2688</ele>
        <time>2022-08-26T23:08:08Z</time>
      </trkpt>
      <trkpt lat="45.73465" lon="6.70713">
        <ele>2688</ele>
        <time>2022-08-26T23:08:10Z</time>
      </trkpt>
      <trkpt lat="45.73464" lon="6.70714">
        <ele>2688</ele>
        <time>2022-08-26T23:08:12Z</time>
      </trkpt>
      <trkpt lat="45.73462" lon="6.70716">
        <ele>2688</ele>
        <time>2022-08-26T23:08:14Z</time>
      </trkpt>
      <trkpt lat="45.73461" lon="6.70718">
        <ele>2689</ele>
        <time>2022-08-26T23:08:16Z</time>
      </trkpt>
      <trkpt lat="45.73459" lon="6.7072">
        <ele>2689</ele>
        <time>2022-08-26T23:08:18Z</time>
      </trkpt>
      <trkpt lat="45.73457" lon="6.70721">
        <ele>2689</ele>
        <time>2022-08-26T23:08:20Z</time>
      </trkpt>
      <trkpt lat="45.73455" lon="6.70723">
        <ele>2690</ele>
        <time>2022-08-26T23:08:22Z</time>
      </trkpt>
      <trkpt lat="45.73453" lon="6.70725">
        <ele>2690</ele>
        <time>2022-08-26T23:08:25Z</time>
      </trkpt>
      <trkpt lat="45.73451" lon="6.70728">
        <ele>2692</ele>
        <time>2022-08-26T23:08:29Z</time>
      </trkpt>
      <trkpt lat="45.73449" lon="6.7073">
        <ele>2692</ele>
        <time>2022-08-26T23:08:32Z</time>
      </trkpt>
      <trkpt lat="45.73448" lon="6.70732">
        <ele>2693</ele>
        <time>2022-08-26T23:08:35Z</time>
      </trkpt>
      <trkpt lat="45.73446" lon="6.70734">
        <ele>2693</ele>
        <time>2022-08-26T23:08:37Z</time>
      </trkpt>
      <trkpt lat="45.73444" lon="6.70737">
        <ele>2693</ele>
        <time>2022-08-26T23:08:39Z</time>
      </trkpt>
      <trkpt lat="45.73443" lon="6.70739">
        <ele>2694</ele>
        <time>2022-08-26T23:08:41Z</time>
      </trkpt>
      <trkpt lat="45.73441" lon="6.70742">
        <ele>2694</ele>
        <time>2022-08-26T23:08:43Z</time>
      </trkpt>
      <trkpt lat="45.7344" lon="6.70745">
        <ele>2694</ele>
        <time>2022-08-26T23:08:45Z</time>
      </trkpt>
      <trkpt lat="45.73438" lon="6.70748">
        <ele>2694</ele>
        <time>2022-08-26T23:08:47Z</time>
      </trkpt>
      <trkpt lat="45.73438" lon="6.70752">
        <ele>2695</ele>
        <time>2022-08-26T23:08:49Z</time>
      </trkpt>
      <trkpt lat="45.73437" lon="6.70755">
        <ele>2695</ele>
        <time>2022-08-26T23:08:51Z</time>
      </trkpt>
      <trkpt lat="45.73436" lon="6.70759">
        <ele>2695</ele>
        <time>2022-08-26T23:08:53Z</time>
      </trkpt>
      <trkpt lat="45.73436" lon="6.70763">
        <ele>2696</ele>
        <time>2022-08-26T23:08:55Z</time>
      </trkpt>
      <trkpt lat="45.73435" lon="6.70766">
        <ele>2696</ele>
        <time>2022-08-26T23:08:57Z</time>
      </trkpt>
      <trkpt lat="45.73435" lon="6.70769">
        <ele>2697</ele>
        <time>2022-08-26T23:08:58Z</time>
      </trkpt>
      <trkpt lat="45.73434" lon="6.70772">
        <ele>2697</ele>
        <time>2022-08-26T23:09:01Z</time>
      </trkpt>
      <trkpt lat="45.73433" lon="6.70775">
        <ele>2697</ele>
        <time>2022-08-26T23:09:03Z</time>
      </trkpt>
      <trkpt lat="45.73432" lon="6.70778">
        <ele>2697</ele>
        <time>2022-08-26T23:09:05Z</time>
      </trkpt>
      <trkpt lat="45.73431" lon="6.70781">
        <ele>2697</ele>
        <time>2022-08-26T23:09:07Z</time>
      </trkpt>
      <trkpt lat="45.73431" lon="6.70784">
        <ele>2697</ele>
        <time>2022-08-26T23:09:09Z</time>
      </trkpt>
      <trkpt lat="45.73431" lon="6.70787">
        <ele>2698</ele>
        <time>2022-08-26T23:09:11Z</time>
      </trkpt>
      <trkpt lat="45.7343" lon="6.70789">
        <ele>2698</ele>
        <time>2022-08-26T23:09:14Z</time>
      </trkpt>
      <trkpt lat="45.73429" lon="6.70792">
        <ele>2698</ele>
        <time>2022-08-26T23:09:16Z</time>
      </trkpt>
      <trkpt lat="45.73427" lon="6.70794">
        <ele>2698</ele>
        <time>2022-08-26T23:09:18Z</time>
      </trkpt>
      <trkpt lat="45.73425" lon="6.70797">
        <ele>2698</ele>
        <time>2022-08-26T23:09:20Z</time>
      </trkpt>
      <trkpt lat="45.73423" lon="6.70799">
        <ele>2698</ele>
        <time>2022-08-26T23:09:22Z</time>
      </trkpt>
      <trkpt lat="45.73421" lon="6.708">
        <ele>2699</ele>
        <time>2022-08-26T23:09:24Z</time>
      </trkpt>
      <trkpt lat="45.73422" lon="6.70803">
        <ele>2699</ele>
        <time>2022-08-26T23:09:27Z</time>
      </trkpt>
      <trkpt lat="45.7342" lon="6.70806">
        <ele>2699</ele>
        <time>2022-08-26T23:09:30Z</time>
      </trkpt>
      <trkpt lat="45.7342" lon="6.70809">
        <ele>2699</ele>
        <time>2022-08-26T23:09:32Z</time>
      </trkpt>
      <trkpt lat="45.73418" lon="6.7081">
        <ele>2700</ele>
        <time>2022-08-26T23:09:34Z</time>
      </trkpt>
      <trkpt lat="45.73416" lon="6.70809">
        <ele>2700</ele>
        <time>2022-08-26T23:09:36Z</time>
      </trkpt>
      <trkpt lat="45.73414" lon="6.70807">
        <ele>2702</ele>
        <time>2022-08-26T23:09:39Z</time>
      </trkpt>
      <trkpt lat="45.73411" lon="6.70806">
        <ele>2702</ele>
        <time>2022-08-26T23:09:42Z</time>
      </trkpt>
      <trkpt lat="45.7341" lon="6.70808">
        <ele>2702</ele>
        <time>2022-08-26T23:09:44Z</time>
      </trkpt>
      <trkpt lat="45.73408" lon="6.70811">
        <ele>2702</ele>
        <time>2022-08-26T23:09:46Z</time>
      </trkpt>
      <trkpt lat="45.73407" lon="6.70814">
        <ele>2702</ele>
        <time>2022-08-26T23:09:48Z</time>
      </trkpt>
      <trkpt lat="45.73407" lon="6.70817">
        <ele>2702</ele>
        <time>2022-08-26T23:09:50Z</time>
      </trkpt>
      <trkpt lat="45.73406" lon="6.7082">
        <ele>2702</ele>
        <time>2022-08-26T23:09:52Z</time>
      </trkpt>
      <trkpt lat="45.73405" lon="6.70822">
        <ele>2702</ele>
        <time>2022-08-26T23:09:54Z</time>
      </trkpt>
      <trkpt lat="45.73404" lon="6.70825">
        <ele>2702</ele>
        <time>2022-08-26T23:09:56Z</time>
      </trkpt>
      <trkpt lat="45.73403" lon="6.70828">
        <ele>2704</ele>
        <time>2022-08-26T23:09:58Z</time>
      </trkpt>
      <trkpt lat="45.73402" lon="6.70831">
        <ele>2704</ele>
        <time>2022-08-26T23:10:00Z</time>
      </trkpt>
      <trkpt lat="45.734" lon="6.70833">
        <ele>2704</ele>
        <time>2022-08-26T23:10:02Z</time>
      </trkpt>
      <trkpt lat="45.73398" lon="6.70835">
        <ele>2705</ele>
        <time>2022-08-26T23:10:04Z</time>
      </trkpt>
      <trkpt lat="45.73396" lon="6.70836">
        <ele>2705</ele>
        <time>2022-08-26T23:10:06Z</time>
      </trkpt>
      <trkpt lat="45.73394" lon="6.70838">
        <ele>2705</ele>
        <time>2022-08-26T23:10:08Z</time>
      </trkpt>
      <trkpt lat="45.73392" lon="6.7084">
        <ele>2705</ele>
        <time>2022-08-26T23:10:10Z</time>
      </trkpt>
      <trkpt lat="45.7339" lon="6.70841">
        <ele>2705</ele>
        <time>2022-08-26T23:10:12Z</time>
      </trkpt>
      <trkpt lat="45.73387" lon="6.70843">
        <ele>2704</ele>
        <time>2022-08-26T23:10:14Z</time>
      </trkpt>
      <trkpt lat="45.73386" lon="6.70845">
        <ele>2704</ele>
        <time>2022-08-26T23:10:16Z</time>
      </trkpt>
      <trkpt lat="45.73385" lon="6.70848">
        <ele>2705</ele>
        <time>2022-08-26T23:10:19Z</time>
      </trkpt>
      <trkpt lat="45.73383" lon="6.7085">
        <ele>2706</ele>
        <time>2022-08-26T23:10:23Z</time>
      </trkpt>
      <trkpt lat="45.73381" lon="6.70851">
        <ele>2707</ele>
        <time>2022-08-26T23:10:26Z</time>
      </trkpt>
      <trkpt lat="45.73379" lon="6.70851">
        <ele>2708</ele>
        <time>2022-08-26T23:10:29Z</time>
      </trkpt>
      <trkpt lat="45.73377" lon="6.70852">
        <ele>2709</ele>
        <time>2022-08-26T23:10:33Z</time>
      </trkpt>
      <trkpt lat="45.73375" lon="6.70855">
        <ele>2709</ele>
        <time>2022-08-26T23:10:37Z</time>
      </trkpt>
      <trkpt lat="45.73372" lon="6.70855">
        <ele>2710</ele>
        <time>2022-08-26T23:10:41Z</time>
      </trkpt>
      <trkpt lat="45.7337" lon="6.70855">
        <ele>2710</ele>
        <time>2022-08-26T23:10:44Z</time>
      </trkpt>
      <trkpt lat="45.73367" lon="6.70856">
        <ele>2710</ele>
        <time>2022-08-26T23:10:46Z</time>
      </trkpt>
      <trkpt lat="45.73366" lon="6.70857">
        <ele>2711</ele>
        <time>2022-08-26T23:10:48Z</time>
      </trkpt>
      <trkpt lat="45.73363" lon="6.70858">
        <ele>2711</ele>
        <time>2022-08-26T23:10:50Z</time>
      </trkpt>
      <trkpt lat="45.73361" lon="6.70858">
        <ele>2711</ele>
        <time>2022-08-26T23:10:52Z</time>
      </trkpt>
      <trkpt lat="45.73358" lon="6.70859">
        <ele>2711</ele>
        <time>2022-08-26T23:10:54Z</time>
      </trkpt>
      <trkpt lat="45.73356" lon="6.7086">
        <ele>2711</ele>
        <time>2022-08-26T23:10:56Z</time>
      </trkpt>
      <trkpt lat="45.73355" lon="6.70862">
        <ele>2712</ele>
        <time>2022-08-26T23:10:58Z</time>
      </trkpt>
      <trkpt lat="45.73354" lon="6.70862">
        <ele>2713</ele>
        <time>2022-08-26T23:11:00Z</time>
      </trkpt>
      <trkpt lat="45.73353" lon="6.70862">
        <ele>2713</ele>
        <time>2022-08-26T23:11:01Z</time>
      </trkpt>
      <trkpt lat="45.73352" lon="6.70863">
        <ele>2713</ele>
        <time>2022-08-26T23:11:02Z</time>
      </trkpt>
      <trkpt lat="45.73351" lon="6.70863">
        <ele>2713</ele>
        <time>2022-08-26T23:11:03Z</time>
      </trkpt>
      <trkpt lat="45.7335" lon="6.70864">
        <ele>2713</ele>
        <time>2022-08-26T23:11:05Z</time>
      </trkpt>
      <trkpt lat="45.73349" lon="6.70864">
        <ele>2713</ele>
        <time>2022-08-26T23:11:06Z</time>
      </trkpt>
      <trkpt lat="45.73348" lon="6.70865">
        <ele>2714</ele>
        <time>2022-08-26T23:11:08Z</time>
      </trkpt>
      <trkpt lat="45.73347" lon="6.70865">
        <ele>2714</ele>
        <time>2022-08-26T23:11:10Z</time>
      </trkpt>
      <trkpt lat="45.73346" lon="6.70865">
        <ele>2714</ele>
        <time>2022-08-26T23:11:11Z</time>
      </trkpt>
      <trkpt lat="45.73345" lon="6.70866">
        <ele>2714</ele>
        <time>2022-08-26T23:11:12Z</time>
      </trkpt>
      <trkpt lat="45.73344" lon="6.70867">
        <ele>2716</ele>
        <time>2022-08-26T23:11:13Z</time>
      </trkpt>
      <trkpt lat="45.73343" lon="6.70867">
        <ele>2716</ele>
        <time>2022-08-26T23:11:14Z</time>
      </trkpt>
      <trkpt lat="45.73342" lon="6.70868">
        <ele>2716</ele>
        <time>2022-08-26T23:11:16Z</time>
      </trkpt>
      <trkpt lat="45.73341" lon="6.70869">
        <ele>2717</ele>
        <time>2022-08-26T23:11:18Z</time>
      </trkpt>
      <trkpt lat="45.7334" lon="6.70869">
        <ele>2717</ele>
        <time>2022-08-26T23:11:19Z</time>
      </trkpt>
      <trkpt lat="45.73339" lon="6.7087">
        <ele>2718</ele>
        <time>2022-08-26T23:11:20Z</time>
      </trkpt>
      <trkpt lat="45.73338" lon="6.7087">
        <ele>2718</ele>
        <time>2022-08-26T23:11:21Z</time>
      </trkpt>
      <trkpt lat="45.73337" lon="6.70871">
        <ele>2718</ele>
        <time>2022-08-26T23:11:22Z</time>
      </trkpt>
      <trkpt lat="45.73337" lon="6.70871">
        <ele>2718</ele>
        <time>2022-08-26T23:11:23Z</time>
      </trkpt>
      <trkpt lat="45.73336" lon="6.70871">
        <ele>2718</ele>
        <time>2022-08-26T23:11:25Z</time>
      </trkpt>
      <trkpt lat="45.73336" lon="6.70871">
        <ele>2718</ele>
        <time>2022-08-26T23:11:26Z</time>
      </trkpt>
      <trkpt lat="45.73335" lon="6.70871">
        <ele>2718</ele>
        <time>2022-08-26T23:11:27Z</time>
      </trkpt>
      <trkpt lat="45.73335" lon="6.70871">
        <ele>2719</ele>
        <time>2022-08-26T23:11:29Z</time>
      </trkpt>
      <trkpt lat="45.73335" lon="6.70871">
        <ele>2719</ele>
        <time>2022-08-26T23:11:30Z</time>
      </trkpt>
      <trkpt lat="45.73334" lon="6.70871">
        <ele>2720</ele>
        <time>2022-08-26T23:11:31Z</time>
      </trkpt>
      <trkpt lat="45.73334" lon="6.70871">
        <ele>2720</ele>
        <time>2022-08-26T23:11:32Z</time>
      </trkpt>
      <trkpt lat="45.73333" lon="6.70872">
        <ele>2720</ele>
        <time>2022-08-26T23:11:34Z</time>
      </trkpt>
      <trkpt lat="45.73333" lon="6.70872">
        <ele>2720</ele>
        <time>2022-08-26T23:11:35Z</time>
      </trkpt>
      <trkpt lat="45.73332" lon="6.70872">
        <ele>2720</ele>
        <time>2022-08-26T23:11:36Z</time>
      </trkpt>
      <trkpt lat="45.73332" lon="6.70872">
        <ele>2720</ele>
        <time>2022-08-26T23:11:37Z</time>
      </trkpt>
      <trkpt lat="45.73331" lon="6.70872">
        <ele>2720</ele>
        <time>2022-08-26T23:11:39Z</time>
      </trkpt>
      <trkpt lat="45.73331" lon="6.70872">
        <ele>2721</ele>
        <time>2022-08-26T23:11:40Z</time>
      </trkpt>
      <trkpt lat="45.7333" lon="6.70872">
        <ele>2721</ele>
        <time>2022-08-26T23:11:41Z</time>
      </trkpt>
      <trkpt lat="45.7333" lon="6.70872">
        <ele>2721</ele>
        <time>2022-08-26T23:11:42Z</time>
      </trkpt>
      <trkpt lat="45.73329" lon="6.70872">
        <ele>2721</ele>
        <time>2022-08-26T23:11:44Z</time>
      </trkpt>
      <trkpt lat="45.73329" lon="6.70872">
        <ele>2721</ele>
        <time>2022-08-26T23:11:46Z</time>
      </trkpt>
      <trkpt lat="45.73328" lon="6.70872">
        <ele>2721</ele>
        <time>2022-08-26T23:11:47Z</time>
      </trkpt>
      <trkpt lat="45.73325" lon="6.70872">
        <ele>2723</ele>
        <time>2022-08-26T23:11:51Z</time>
      </trkpt>
      <trkpt lat="45.73324" lon="6.7087">
        <ele>2723</ele>
        <time>2022-08-26T23:11:55Z</time>
      </trkpt>
      <trkpt lat="45.73322" lon="6.70869">
        <ele>2723</ele>
        <time>2022-08-26T23:11:58Z</time>
      </trkpt>
      <trkpt lat="45.73321" lon="6.70869">
        <ele>2723</ele>
        <time>2022-08-26T23:11:59Z</time>
      </trkpt>
      <trkpt lat="45.7332" lon="6.70868">
        <ele>2723</ele>
        <time>2022-08-26T23:12:00Z</time>
      </trkpt>
      <trkpt lat="45.73319" lon="6.70867">
        <ele>2723</ele>
        <time>2022-08-26T23:12:01Z</time>
      </trkpt>
      <trkpt lat="45.73317" lon="6.70867">
        <ele>2723</ele>
        <time>2022-08-26T23:12:03Z</time>
      </trkpt>
      <trkpt lat="45.73316" lon="6.70866">
        <ele>2723</ele>
        <time>2022-08-26T23:12:04Z</time>
      </trkpt>
      <trkpt lat="45.73314" lon="6.70865">
        <ele>2722</ele>
        <time>2022-08-26T23:12:05Z</time>
      </trkpt>
      <trkpt lat="45.73313" lon="6.70865">
        <ele>2722</ele>
        <time>2022-08-26T23:12:06Z</time>
      </trkpt>
      <trkpt lat="45.73311" lon="6.70864">
        <ele>2723</ele>
        <time>2022-08-26T23:12:08Z</time>
      </trkpt>
      <trkpt lat="45.7331" lon="6.70864">
        <ele>2723</ele>
        <time>2022-08-26T23:12:09Z</time>
      </trkpt>
      <trkpt lat="45.73309" lon="6.70862">
        <ele>2724</ele>
        <time>2022-08-26T23:12:10Z</time>
      </trkpt>
      <trkpt lat="45.73308" lon="6.70861">
        <ele>2724</ele>
        <time>2022-08-26T23:12:11Z</time>
      </trkpt>
      <trkpt lat="45.73307" lon="6.7086">
        <ele>2724</ele>
        <time>2022-08-26T23:12:13Z</time>
      </trkpt>
      <trkpt lat="45.73306" lon="6.70859">
        <ele>2724</ele>
        <time>2022-08-26T23:12:14Z</time>
      </trkpt>
      <trkpt lat="45.73305" lon="6.70858">
        <ele>2724</ele>
        <time>2022-08-26T23:12:15Z</time>
      </trkpt>
      <trkpt lat="45.73304" lon="6.70857">
        <ele>2723</ele>
        <time>2022-08-26T23:12:16Z</time>
      </trkpt>
      <trkpt lat="45.73303" lon="6.70856">
        <ele>2723</ele>
        <time>2022-08-26T23:12:17Z</time>
      </trkpt>
      <trkpt lat="45.73302" lon="6.70855">
        <ele>2723</ele>
        <time>2022-08-26T23:12:18Z</time>
      </trkpt>
      <trkpt lat="45.73293" lon="6.70848">
        <ele>2721</ele>
        <time>2022-08-26T23:12:22Z</time>
      </trkpt>
      <trkpt lat="45.73284" lon="6.70848">
        <ele>2724</ele>
        <time>2022-08-26T23:12:31Z</time>
      </trkpt>
      <trkpt lat="45.73281" lon="6.70848">
        <ele>2725</ele>
        <time>2022-08-26T23:12:34Z</time>
      </trkpt>
      <trkpt lat="45.7328" lon="6.70849">
        <ele>2725</ele>
        <time>2022-08-26T23:12:36Z</time>
      </trkpt>
      <trkpt lat="45.73278" lon="6.70851">
        <ele>2726</ele>
        <time>2022-08-26T23:12:38Z</time>
      </trkpt>
      <trkpt lat="45.73276" lon="6.70851">
        <ele>2726</ele>
        <time>2022-08-26T23:12:41Z</time>
      </trkpt>
      <trkpt lat="45.73274" lon="6.7085">
        <ele>2728</ele>
        <time>2022-08-26T23:12:45Z</time>
      </trkpt>
      <trkpt lat="45.73271" lon="6.70849">
        <ele>2729</ele>
        <time>2022-08-26T23:12:50Z</time>
      </trkpt>
      <trkpt lat="45.7327" lon="6.70849">
        <ele>2730</ele>
        <time>2022-08-26T23:12:51Z</time>
      </trkpt>
      <trkpt lat="45.7327" lon="6.70848">
        <ele>2730</ele>
        <time>2022-08-26T23:12:53Z</time>
      </trkpt>
      <trkpt lat="45.7327" lon="6.70848">
        <ele>2730</ele>
        <time>2022-08-26T23:12:54Z</time>
      </trkpt>
      <trkpt lat="45.73269" lon="6.70847">
        <ele>2730</ele>
        <time>2022-08-26T23:12:55Z</time>
      </trkpt>
      <trkpt lat="45.73269" lon="6.70847">
        <ele>2730</ele>
        <time>2022-08-26T23:12:56Z</time>
      </trkpt>
      <trkpt lat="45.73269" lon="6.70846">
        <ele>2731</ele>
        <time>2022-08-26T23:12:58Z</time>
      </trkpt>
      <trkpt lat="45.73268" lon="6.70846">
        <ele>2731</ele>
        <time>2022-08-26T23:13:00Z</time>
      </trkpt>
      <trkpt lat="45.73268" lon="6.70845">
        <ele>2731</ele>
        <time>2022-08-26T23:13:01Z</time>
      </trkpt>
      <trkpt lat="45.73268" lon="6.70845">
        <ele>2731</ele>
        <time>2022-08-26T23:13:02Z</time>
      </trkpt>
      <trkpt lat="45.73265" lon="6.70845">
        <ele>2731</ele>
        <time>2022-08-26T23:13:04Z</time>
      </trkpt>
      <trkpt lat="45.73263" lon="6.70843">
        <ele>2732</ele>
        <time>2022-08-26T23:13:06Z</time>
      </trkpt>
      <trkpt lat="45.73261" lon="6.70841">
        <ele>2732</ele>
        <time>2022-08-26T23:13:09Z</time>
      </trkpt>
      <trkpt lat="45.73259" lon="6.7084">
        <ele>2732</ele>
        <time>2022-08-26T23:13:12Z</time>
      </trkpt>
      <trkpt lat="45.73256" lon="6.70839">
        <ele>2732</ele>
        <time>2022-08-26T23:13:14Z</time>
      </trkpt>
      <trkpt lat="45.73253" lon="6.70839">
        <ele>2732</ele>
        <time>2022-08-26T23:13:17Z</time>
      </trkpt>
      <trkpt lat="45.73251" lon="6.70838">
        <ele>2733</ele>
        <time>2022-08-26T23:13:19Z</time>
      </trkpt>
      <trkpt lat="45.73251" lon="6.70837">
        <ele>2733</ele>
        <time>2022-08-26T23:13:20Z</time>
      </trkpt>
      <trkpt lat="45.7325" lon="6.70837">
        <ele>2733</ele>
        <time>2022-08-26T23:13:21Z</time>
      </trkpt>
      <trkpt lat="45.73249" lon="6.70836">
        <ele>2733</ele>
        <time>2022-08-26T23:13:23Z</time>
      </trkpt>
      <trkpt lat="45.73249" lon="6.70836">
        <ele>2733</ele>
        <time>2022-08-26T23:13:24Z</time>
      </trkpt>
      <trkpt lat="45.73248" lon="6.70835">
        <ele>2733</ele>
        <time>2022-08-26T23:13:25Z</time>
      </trkpt>
      <trkpt lat="45.73248" lon="6.70834">
        <ele>2734</ele>
        <time>2022-08-26T23:13:26Z</time>
      </trkpt>
      <trkpt lat="45.73247" lon="6.70834">
        <ele>2734</ele>
        <time>2022-08-26T23:13:28Z</time>
      </trkpt>
      <trkpt lat="45.73247" lon="6.70833">
        <ele>2735</ele>
        <time>2022-08-26T23:13:29Z</time>
      </trkpt>
      <trkpt lat="45.73245" lon="6.70831">
        <ele>2735</ele>
        <time>2022-08-26T23:13:32Z</time>
      </trkpt>
      <trkpt lat="45.73243" lon="6.70828">
        <ele>2735</ele>
        <time>2022-08-26T23:13:35Z</time>
      </trkpt>
      <trkpt lat="45.73242" lon="6.70828">
        <ele>2736</ele>
        <time>2022-08-26T23:13:38Z</time>
      </trkpt>
      <trkpt lat="45.73239" lon="6.70829">
        <ele>2737</ele>
        <time>2022-08-26T23:13:41Z</time>
      </trkpt>
      <trkpt lat="45.73237" lon="6.70829">
        <ele>2737</ele>
        <time>2022-08-26T23:13:44Z</time>
      </trkpt>
      <trkpt lat="45.73234" lon="6.7083">
        <ele>2738</ele>
        <time>2022-08-26T23:13:48Z</time>
      </trkpt>
      <trkpt lat="45.73232" lon="6.70831">
        <ele>2738</ele>
        <time>2022-08-26T23:13:50Z</time>
      </trkpt>
      <trkpt lat="45.7323" lon="6.70832">
        <ele>2738</ele>
        <time>2022-08-26T23:13:52Z</time>
      </trkpt>
      <trkpt lat="45.73227" lon="6.70833">
        <ele>2738</ele>
        <time>2022-08-26T23:13:54Z</time>
      </trkpt>
      <trkpt lat="45.73225" lon="6.70833">
        <ele>2738</ele>
        <time>2022-08-26T23:13:56Z</time>
      </trkpt>
      <trkpt lat="45.73223" lon="6.70833">
        <ele>2740</ele>
        <time>2022-08-26T23:13:58Z</time>
      </trkpt>
      <trkpt lat="45.73221" lon="6.70833">
        <ele>2740</ele>
        <time>2022-08-26T23:14:00Z</time>
      </trkpt>
      <trkpt lat="45.73219" lon="6.70833">
        <ele>2741</ele>
        <time>2022-08-26T23:14:03Z</time>
      </trkpt>
      <trkpt lat="45.73217" lon="6.70833">
        <ele>2742</ele>
        <time>2022-08-26T23:14:07Z</time>
      </trkpt>
      <trkpt lat="45.73215" lon="6.70832">
        <ele>2742</ele>
        <time>2022-08-26T23:14:10Z</time>
      </trkpt>
      <trkpt lat="45.73213" lon="6.70832">
        <ele>2743</ele>
        <time>2022-08-26T23:14:13Z</time>
      </trkpt>
      <trkpt lat="45.73211" lon="6.70832">
        <ele>2743</ele>
        <time>2022-08-26T23:14:16Z</time>
      </trkpt>
      <trkpt lat="45.73208" lon="6.70833">
        <ele>2743</ele>
        <time>2022-08-26T23:14:19Z</time>
      </trkpt>
      <trkpt lat="45.73206" lon="6.70833">
        <ele>2742</ele>
        <time>2022-08-26T23:14:22Z</time>
      </trkpt>
      <trkpt lat="45.73204" lon="6.70834">
        <ele>2741</ele>
        <time>2022-08-26T23:14:25Z</time>
      </trkpt>
      <trkpt lat="45.73201" lon="6.70834">
        <ele>2741</ele>
        <time>2022-08-26T23:14:27Z</time>
      </trkpt>
      <trkpt lat="45.73198" lon="6.70835">
        <ele>2740</ele>
        <time>2022-08-26T23:14:29Z</time>
      </trkpt>
      <trkpt lat="45.73196" lon="6.70835">
        <ele>2740</ele>
        <time>2022-08-26T23:14:30Z</time>
      </trkpt>
      <trkpt lat="45.73194" lon="6.70835">
        <ele>2740</ele>
        <time>2022-08-26T23:14:31Z</time>
      </trkpt>
      <trkpt lat="45.73192" lon="6.70835">
        <ele>2740</ele>
        <time>2022-08-26T23:14:32Z</time>
      </trkpt>
      <trkpt lat="45.7319" lon="6.70835">
        <ele>2740</ele>
        <time>2022-08-26T23:14:33Z</time>
      </trkpt>
      <trkpt lat="45.73187" lon="6.70835">
        <ele>2740</ele>
        <time>2022-08-26T23:14:34Z</time>
      </trkpt>
      <trkpt lat="45.73185" lon="6.70834">
        <ele>2740</ele>
        <time>2022-08-26T23:14:35Z</time>
      </trkpt>
      <trkpt lat="45.73183" lon="6.70835">
        <ele>2740</ele>
        <time>2022-08-26T23:14:36Z</time>
      </trkpt>
      <trkpt lat="45.73182" lon="6.70835">
        <ele>2740</ele>
        <time>2022-08-26T23:14:37Z</time>
      </trkpt>
      <trkpt lat="45.73179" lon="6.70836">
        <ele>2740</ele>
        <time>2022-08-26T23:14:39Z</time>
      </trkpt>
      <trkpt lat="45.73177" lon="6.70836">
        <ele>2740</ele>
        <time>2022-08-26T23:14:41Z</time>
      </trkpt>
      <trkpt lat="45.73175" lon="6.70837">
        <ele>2740</ele>
        <time>2022-08-26T23:14:43Z</time>
      </trkpt>
      <trkpt lat="45.73173" lon="6.70838">
        <ele>2740</ele>
        <time>2022-08-26T23:14:45Z</time>
      </trkpt>
      <trkpt lat="45.73171" lon="6.70838">
        <ele>2741</ele>
        <time>2022-08-26T23:14:48Z</time>
      </trkpt>
      <trkpt lat="45.73168" lon="6.70839">
        <ele>2742</ele>
        <time>2022-08-26T23:14:51Z</time>
      </trkpt>
      <trkpt lat="45.73166" lon="6.7084">
        <ele>2742</ele>
        <time>2022-08-26T23:14:54Z</time>
      </trkpt>
      <trkpt lat="45.73164" lon="6.70841">
        <ele>2742</ele>
        <time>2022-08-26T23:14:57Z</time>
      </trkpt>
      <trkpt lat="45.73162" lon="6.70843">
        <ele>2742</ele>
        <time>2022-08-26T23:15:00Z</time>
      </trkpt>
      <trkpt lat="45.73159" lon="6.70843">
        <ele>2743</ele>
        <time>2022-08-26T23:15:03Z</time>
      </trkpt>
      <trkpt lat="45.73156" lon="6.70842">
        <ele>2744</ele>
        <time>2022-08-26T23:15:09Z</time>
      </trkpt>
      <trkpt lat="45.73155" lon="6.7084">
        <ele>2745</ele>
        <time>2022-08-26T23:15:11Z</time>
      </trkpt>
      <trkpt lat="45.73153" lon="6.70838">
        <ele>2745</ele>
        <time>2022-08-26T23:15:14Z</time>
      </trkpt>
      <trkpt lat="45.73151" lon="6.70837">
        <ele>2745</ele>
        <time>2022-08-26T23:15:16Z</time>
      </trkpt>
      <trkpt lat="45.73149" lon="6.70836">
        <ele>2745</ele>
        <time>2022-08-26T23:15:19Z</time>
      </trkpt>
      <trkpt lat="45.73147" lon="6.70837">
        <ele>2747</ele>
        <time>2022-08-26T23:15:25Z</time>
      </trkpt>
      <trkpt lat="45.73145" lon="6.70839">
        <ele>2747</ele>
        <time>2022-08-26T23:15:27Z</time>
      </trkpt>
      <trkpt lat="45.73143" lon="6.7084">
        <ele>2748</ele>
        <time>2022-08-26T23:15:30Z</time>
      </trkpt>
      <trkpt lat="45.73141" lon="6.70841">
        <ele>2748</ele>
        <time>2022-08-26T23:15:34Z</time>
      </trkpt>
      <trkpt lat="45.73139" lon="6.70843">
        <ele>2749</ele>
        <time>2022-08-26T23:15:38Z</time>
      </trkpt>
      <trkpt lat="45.73137" lon="6.70844">
        <ele>2749</ele>
        <time>2022-08-26T23:15:40Z</time>
      </trkpt>
      <trkpt lat="45.73135" lon="6.70846">
        <ele>2749</ele>
        <time>2022-08-26T23:15:43Z</time>
      </trkpt>
      <trkpt lat="45.73133" lon="6.70848">
        <ele>2749</ele>
        <time>2022-08-26T23:15:46Z</time>
      </trkpt>
      <trkpt lat="45.73131" lon="6.70849">
        <ele>2749</ele>
        <time>2022-08-26T23:15:49Z</time>
      </trkpt>
      <trkpt lat="45.7313" lon="6.70851">
        <ele>2749</ele>
        <time>2022-08-26T23:15:51Z</time>
      </trkpt>
      <trkpt lat="45.73128" lon="6.70853">
        <ele>2747</ele>
        <time>2022-08-26T23:15:53Z</time>
      </trkpt>
      <trkpt lat="45.73125" lon="6.70854">
        <ele>2747</ele>
        <time>2022-08-26T23:15:55Z</time>
      </trkpt>
      <trkpt lat="45.73122" lon="6.70854">
        <ele>2747</ele>
        <time>2022-08-26T23:15:57Z</time>
      </trkpt>
      <trkpt lat="45.73118" lon="6.70853">
        <ele>2747</ele>
        <time>2022-08-26T23:15:59Z</time>
      </trkpt>
      <trkpt lat="45.73115" lon="6.70853">
        <ele>2747</ele>
        <time>2022-08-26T23:16:01Z</time>
      </trkpt>
      <trkpt lat="45.73113" lon="6.70852">
        <ele>2747</ele>
        <time>2022-08-26T23:16:03Z</time>
      </trkpt>
      <trkpt lat="45.73111" lon="6.70852">
        <ele>2747</ele>
        <time>2022-08-26T23:16:05Z</time>
      </trkpt>
      <trkpt lat="45.73108" lon="6.70851">
        <ele>2748</ele>
        <time>2022-08-26T23:16:07Z</time>
      </trkpt>
      <trkpt lat="45.73106" lon="6.70851">
        <ele>2748</ele>
        <time>2022-08-26T23:16:09Z</time>
      </trkpt>
      <trkpt lat="45.73104" lon="6.70851">
        <ele>2748</ele>
        <time>2022-08-26T23:16:11Z</time>
      </trkpt>
      <trkpt lat="45.73102" lon="6.70851">
        <ele>2748</ele>
        <time>2022-08-26T23:16:13Z</time>
      </trkpt>
      <trkpt lat="45.731" lon="6.70852">
        <ele>2749</ele>
        <time>2022-08-26T23:16:15Z</time>
      </trkpt>
      <trkpt lat="45.73097" lon="6.70853">
        <ele>2749</ele>
        <time>2022-08-26T23:16:17Z</time>
      </trkpt>
      <trkpt lat="45.73095" lon="6.70853">
        <ele>2749</ele>
        <time>2022-08-26T23:16:19Z</time>
      </trkpt>
      <trkpt lat="45.73093" lon="6.70855">
        <ele>2749</ele>
        <time>2022-08-26T23:16:22Z</time>
      </trkpt>
      <trkpt lat="45.7309" lon="6.70857">
        <ele>2751</ele>
        <time>2022-08-26T23:16:25Z</time>
      </trkpt>
      <trkpt lat="45.7309" lon="6.7086">
        <ele>2753</ele>
        <time>2022-08-26T23:16:29Z</time>
      </trkpt>
      <trkpt lat="45.73089" lon="6.70863">
        <ele>2754</ele>
        <time>2022-08-26T23:16:34Z</time>
      </trkpt>
      <trkpt lat="45.73088" lon="6.70865">
        <ele>2754</ele>
        <time>2022-08-26T23:16:38Z</time>
      </trkpt>
      <trkpt lat="45.73087" lon="6.70867">
        <ele>2754</ele>
        <time>2022-08-26T23:16:41Z</time>
      </trkpt>
      <trkpt lat="45.73085" lon="6.7087">
        <ele>2755</ele>
        <time>2022-08-26T23:16:44Z</time>
      </trkpt>
      <trkpt lat="45.73084" lon="6.70872">
        <ele>2755</ele>
        <time>2022-08-26T23:16:47Z</time>
      </trkpt>
      <trkpt lat="45.73084" lon="6.70876">
        <ele>2755</ele>
        <time>2022-08-26T23:16:50Z</time>
      </trkpt>
      <trkpt lat="45.73084" lon="6.70879">
        <ele>2756</ele>
        <time>2022-08-26T23:16:53Z</time>
      </trkpt>
      <trkpt lat="45.73084" lon="6.70883">
        <ele>2757</ele>
        <time>2022-08-26T23:16:56Z</time>
      </trkpt>
      <trkpt lat="45.73085" lon="6.70885">
        <ele>2758</ele>
        <time>2022-08-26T23:17:00Z</time>
      </trkpt>
      <trkpt lat="45.73083" lon="6.70888">
        <ele>2758</ele>
        <time>2022-08-26T23:17:03Z</time>
      </trkpt>
      <trkpt lat="45.73082" lon="6.7089">
        <ele>2759</ele>
        <time>2022-08-26T23:17:08Z</time>
      </trkpt>
      <trkpt lat="45.7308" lon="6.70893">
        <ele>2759</ele>
        <time>2022-08-26T23:17:10Z</time>
      </trkpt>
      <trkpt lat="45.73079" lon="6.70895">
        <ele>2759</ele>
        <time>2022-08-26T23:17:12Z</time>
      </trkpt>
      <trkpt lat="45.73078" lon="6.70897">
        <ele>2759</ele>
        <time>2022-08-26T23:17:14Z</time>
      </trkpt>
      <trkpt lat="45.73077" lon="6.70899">
        <ele>2759</ele>
        <time>2022-08-26T23:17:16Z</time>
      </trkpt>
      <trkpt lat="45.73075" lon="6.70901">
        <ele>2761</ele>
        <time>2022-08-26T23:17:19Z</time>
      </trkpt>
      <trkpt lat="45.73073" lon="6.70902">
        <ele>2761</ele>
        <time>2022-08-26T23:17:22Z</time>
      </trkpt>
      <trkpt lat="45.73071" lon="6.70904">
        <ele>2761</ele>
        <time>2022-08-26T23:17:25Z</time>
      </trkpt>
      <trkpt lat="45.73068" lon="6.70904">
        <ele>2762</ele>
        <time>2022-08-26T23:17:28Z</time>
      </trkpt>
      <trkpt lat="45.73067" lon="6.70904">
        <ele>2762</ele>
        <time>2022-08-26T23:17:30Z</time>
      </trkpt>
      <trkpt lat="45.73065" lon="6.70904">
        <ele>2762</ele>
        <time>2022-08-26T23:17:32Z</time>
      </trkpt>
      <trkpt lat="45.73063" lon="6.70904">
        <ele>2762</ele>
        <time>2022-08-26T23:17:34Z</time>
      </trkpt>
      <trkpt lat="45.73061" lon="6.70905">
        <ele>2762</ele>
        <time>2022-08-26T23:17:37Z</time>
      </trkpt>
      <trkpt lat="45.73059" lon="6.70906">
        <ele>2763</ele>
        <time>2022-08-26T23:17:41Z</time>
      </trkpt>
      <trkpt lat="45.73056" lon="6.70905">
        <ele>2765</ele>
        <time>2022-08-26T23:17:44Z</time>
      </trkpt>
      <trkpt lat="45.73054" lon="6.70906">
        <ele>2765</ele>
        <time>2022-08-26T23:17:47Z</time>
      </trkpt>
      <trkpt lat="45.73052" lon="6.70905">
        <ele>2765</ele>
        <time>2022-08-26T23:17:50Z</time>
      </trkpt>
      <trkpt lat="45.7305" lon="6.70904">
        <ele>2765</ele>
        <time>2022-08-26T23:17:54Z</time>
      </trkpt>
      <trkpt lat="45.73048" lon="6.70903">
        <ele>2765</ele>
        <time>2022-08-26T23:17:59Z</time>
      </trkpt>
      <trkpt lat="45.73046" lon="6.70905">
        <ele>2763</ele>
        <time>2022-08-26T23:18:02Z</time>
      </trkpt>
      <trkpt lat="45.73044" lon="6.70907">
        <ele>2763</ele>
        <time>2022-08-26T23:18:04Z</time>
      </trkpt>
      <trkpt lat="45.73042" lon="6.70909">
        <ele>2762</ele>
        <time>2022-08-26T23:18:06Z</time>
      </trkpt>
      <trkpt lat="45.73038" lon="6.70912">
        <ele>2762</ele>
        <time>2022-08-26T23:18:08Z</time>
      </trkpt>
      <trkpt lat="45.73038" lon="6.70913">
        <ele>2762</ele>
        <time>2022-08-26T23:18:09Z</time>
      </trkpt>
      <trkpt lat="45.73035" lon="6.70915">
        <ele>2762</ele>
        <time>2022-08-26T23:18:11Z</time>
      </trkpt>
      <trkpt lat="45.73033" lon="6.70915">
        <ele>2762</ele>
        <time>2022-08-26T23:18:13Z</time>
      </trkpt>
      <trkpt lat="45.73031" lon="6.70917">
        <ele>2762</ele>
        <time>2022-08-26T23:18:15Z</time>
      </trkpt>
      <trkpt lat="45.73029" lon="6.70918">
        <ele>2762</ele>
        <time>2022-08-26T23:18:17Z</time>
      </trkpt>
      <trkpt lat="45.73027" lon="6.7092">
        <ele>2762</ele>
        <time>2022-08-26T23:18:19Z</time>
      </trkpt>
      <trkpt lat="45.73024" lon="6.70921">
        <ele>2762</ele>
        <time>2022-08-26T23:18:21Z</time>
      </trkpt>
      <trkpt lat="45.73021" lon="6.70922">
        <ele>2762</ele>
        <time>2022-08-26T23:18:23Z</time>
      </trkpt>
      <trkpt lat="45.73019" lon="6.70923">
        <ele>2762</ele>
        <time>2022-08-26T23:18:25Z</time>
      </trkpt>
      <trkpt lat="45.73017" lon="6.70925">
        <ele>2762</ele>
        <time>2022-08-26T23:18:27Z</time>
      </trkpt>
      <trkpt lat="45.73015" lon="6.70927">
        <ele>2763</ele>
        <time>2022-08-26T23:18:29Z</time>
      </trkpt>
      <trkpt lat="45.73015" lon="6.70931">
        <ele>2763</ele>
        <time>2022-08-26T23:18:33Z</time>
      </trkpt>
      <trkpt lat="45.73014" lon="6.70933">
        <ele>2765</ele>
        <time>2022-08-26T23:18:36Z</time>
      </trkpt>
      <trkpt lat="45.73012" lon="6.70935">
        <ele>2765</ele>
        <time>2022-08-26T23:18:38Z</time>
      </trkpt>
      <trkpt lat="45.73011" lon="6.70937">
        <ele>2765</ele>
        <time>2022-08-26T23:18:40Z</time>
      </trkpt>
      <trkpt lat="45.73008" lon="6.70939">
        <ele>2765</ele>
        <time>2022-08-26T23:18:42Z</time>
      </trkpt>
      <trkpt lat="45.73007" lon="6.70939">
        <ele>2765</ele>
        <time>2022-08-26T23:18:44Z</time>
      </trkpt>
      <trkpt lat="45.73005" lon="6.70939">
        <ele>2766</ele>
        <time>2022-08-26T23:18:46Z</time>
      </trkpt>
      <trkpt lat="45.73002" lon="6.70939">
        <ele>2767</ele>
        <time>2022-08-26T23:18:49Z</time>
      </trkpt>
      <trkpt lat="45.73" lon="6.70939">
        <ele>2767</ele>
        <time>2022-08-26T23:18:53Z</time>
      </trkpt>
      <trkpt lat="45.72998" lon="6.7094">
        <ele>2767</ele>
        <time>2022-08-26T23:18:55Z</time>
      </trkpt>
      <trkpt lat="45.72996" lon="6.70941">
        <ele>2767</ele>
        <time>2022-08-26T23:18:57Z</time>
      </trkpt>
      <trkpt lat="45.72994" lon="6.70942">
        <ele>2767</ele>
        <time>2022-08-26T23:18:59Z</time>
      </trkpt>
      <trkpt lat="45.72992" lon="6.70942">
        <ele>2767</ele>
        <time>2022-08-26T23:19:01Z</time>
      </trkpt>
      <trkpt lat="45.72991" lon="6.70943">
        <ele>2767</ele>
        <time>2022-08-26T23:19:02Z</time>
      </trkpt>
      <trkpt lat="45.72989" lon="6.70946">
        <ele>2767</ele>
        <time>2022-08-26T23:19:05Z</time>
      </trkpt>
      <trkpt lat="45.72987" lon="6.7095">
        <ele>2767</ele>
        <time>2022-08-26T23:19:07Z</time>
      </trkpt>
      <trkpt lat="45.72986" lon="6.70952">
        <ele>2767</ele>
        <time>2022-08-26T23:19:09Z</time>
      </trkpt>
      <trkpt lat="45.72985" lon="6.70955">
        <ele>2767</ele>
        <time>2022-08-26T23:19:11Z</time>
      </trkpt>
      <trkpt lat="45.72984" lon="6.70958">
        <ele>2768</ele>
        <time>2022-08-26T23:19:13Z</time>
      </trkpt>
      <trkpt lat="45.72983" lon="6.70961">
        <ele>2768</ele>
        <time>2022-08-26T23:19:15Z</time>
      </trkpt>
      <trkpt lat="45.72982" lon="6.70963">
        <ele>2768</ele>
        <time>2022-08-26T23:19:17Z</time>
      </trkpt>
      <trkpt lat="45.72981" lon="6.70966">
        <ele>2768</ele>
        <time>2022-08-26T23:19:19Z</time>
      </trkpt>
      <trkpt lat="45.7298" lon="6.7097">
        <ele>2768</ele>
        <time>2022-08-26T23:19:21Z</time>
      </trkpt>
      <trkpt lat="45.72979" lon="6.70973">
        <ele>2769</ele>
        <time>2022-08-26T23:19:23Z</time>
      </trkpt>
      <trkpt lat="45.72977" lon="6.70976">
        <ele>2769</ele>
        <time>2022-08-26T23:19:25Z</time>
      </trkpt>
      <trkpt lat="45.72975" lon="6.70978">
        <ele>2769</ele>
        <time>2022-08-26T23:19:27Z</time>
      </trkpt>
      <trkpt lat="45.72973" lon="6.70979">
        <ele>2769</ele>
        <time>2022-08-26T23:19:29Z</time>
      </trkpt>
      <trkpt lat="45.72971" lon="6.7098">
        <ele>2769</ele>
        <time>2022-08-26T23:19:31Z</time>
      </trkpt>
      <trkpt lat="45.7297" lon="6.70982">
        <ele>2769</ele>
        <time>2022-08-26T23:19:33Z</time>
      </trkpt>
      <trkpt lat="45.72967" lon="6.70983">
        <ele>2769</ele>
        <time>2022-08-26T23:19:36Z</time>
      </trkpt>
      <trkpt lat="45.72966" lon="6.70984">
        <ele>2770</ele>
        <time>2022-08-26T23:19:39Z</time>
      </trkpt>
      <trkpt lat="45.72964" lon="6.70986">
        <ele>2770</ele>
        <time>2022-08-26T23:19:42Z</time>
      </trkpt>
      <trkpt lat="45.72963" lon="6.70988">
        <ele>2771</ele>
        <time>2022-08-26T23:19:45Z</time>
      </trkpt>
      <trkpt lat="45.72962" lon="6.70991">
        <ele>2771</ele>
        <time>2022-08-26T23:19:47Z</time>
      </trkpt>
      <trkpt lat="45.72961" lon="6.70995">
        <ele>2771</ele>
        <time>2022-08-26T23:19:50Z</time>
      </trkpt>
      <trkpt lat="45.72961" lon="6.70997">
        <ele>2771</ele>
        <time>2022-08-26T23:19:52Z</time>
      </trkpt>
      <trkpt lat="45.7296" lon="6.71001">
        <ele>2771</ele>
        <time>2022-08-26T23:19:55Z</time>
      </trkpt>
      <trkpt lat="45.7296" lon="6.71005">
        <ele>2772</ele>
        <time>2022-08-26T23:19:57Z</time>
      </trkpt>
      <trkpt lat="45.7296" lon="6.71009">
        <ele>2771</ele>
        <time>2022-08-26T23:19:59Z</time>
      </trkpt>
      <trkpt lat="45.72959" lon="6.71014">
        <ele>2770</ele>
        <time>2022-08-26T23:20:01Z</time>
      </trkpt>
      <trkpt lat="45.72958" lon="6.71016">
        <ele>2770</ele>
        <time>2022-08-26T23:20:02Z</time>
      </trkpt>
      <trkpt lat="45.72956" lon="6.71018">
        <ele>2772</ele>
        <time>2022-08-26T23:20:03Z</time>
      </trkpt>
      <trkpt lat="45.72955" lon="6.71022">
        <ele>2772</ele>
        <time>2022-08-26T23:20:05Z</time>
      </trkpt>
      <trkpt lat="45.72954" lon="6.71024">
        <ele>2772</ele>
        <time>2022-08-26T23:20:07Z</time>
      </trkpt>
      <trkpt lat="45.72952" lon="6.71027">
        <ele>2772</ele>
        <time>2022-08-26T23:20:09Z</time>
      </trkpt>
      <trkpt lat="45.7295" lon="6.71029">
        <ele>2772</ele>
        <time>2022-08-26T23:20:11Z</time>
      </trkpt>
      <trkpt lat="45.72948" lon="6.7103">
        <ele>2773</ele>
        <time>2022-08-26T23:20:13Z</time>
      </trkpt>
      <trkpt lat="45.72946" lon="6.71032">
        <ele>2773</ele>
        <time>2022-08-26T23:20:15Z</time>
      </trkpt>
      <trkpt lat="45.72943" lon="6.71033">
        <ele>2773</ele>
        <time>2022-08-26T23:20:17Z</time>
      </trkpt>
      <trkpt lat="45.72941" lon="6.71034">
        <ele>2773</ele>
        <time>2022-08-26T23:20:19Z</time>
      </trkpt>
      <trkpt lat="45.72939" lon="6.71034">
        <ele>2773</ele>
        <time>2022-08-26T23:20:21Z</time>
      </trkpt>
      <trkpt lat="45.72937" lon="6.71035">
        <ele>2774</ele>
        <time>2022-08-26T23:20:23Z</time>
      </trkpt>
      <trkpt lat="45.72935" lon="6.71034">
        <ele>2774</ele>
        <time>2022-08-26T23:20:25Z</time>
      </trkpt>
      <trkpt lat="45.72933" lon="6.71034">
        <ele>2774</ele>
        <time>2022-08-26T23:20:27Z</time>
      </trkpt>
      <trkpt lat="45.7293" lon="6.71034">
        <ele>2774</ele>
        <time>2022-08-26T23:20:29Z</time>
      </trkpt>
      <trkpt lat="45.72928" lon="6.71033">
        <ele>2774</ele>
        <time>2022-08-26T23:20:31Z</time>
      </trkpt>
      <trkpt lat="45.72926" lon="6.71033">
        <ele>2774</ele>
        <time>2022-08-26T23:20:33Z</time>
      </trkpt>
      <trkpt lat="45.72924" lon="6.71033">
        <ele>2774</ele>
        <time>2022-08-26T23:20:35Z</time>
      </trkpt>
      <trkpt lat="45.72921" lon="6.71033">
        <ele>2774</ele>
        <time>2022-08-26T23:20:37Z</time>
      </trkpt>
      <trkpt lat="45.72919" lon="6.71032">
        <ele>2774</ele>
        <time>2022-08-26T23:20:39Z</time>
      </trkpt>
      <trkpt lat="45.72916" lon="6.71032">
        <ele>2774</ele>
        <time>2022-08-26T23:20:41Z</time>
      </trkpt>
      <trkpt lat="45.72913" lon="6.71031">
        <ele>2774</ele>
        <time>2022-08-26T23:20:43Z</time>
      </trkpt>
      <trkpt lat="45.7291" lon="6.71031">
        <ele>2774</ele>
        <time>2022-08-26T23:20:45Z</time>
      </trkpt>
      <trkpt lat="45.72907" lon="6.7103">
        <ele>2774</ele>
        <time>2022-08-26T23:20:47Z</time>
      </trkpt>
      <trkpt lat="45.72904" lon="6.71029">
        <ele>2774</ele>
        <time>2022-08-26T23:20:49Z</time>
      </trkpt>
      <trkpt lat="45.72901" lon="6.71029">
        <ele>2774</ele>
        <time>2022-08-26T23:20:51Z</time>
      </trkpt>
      <trkpt lat="45.72898" lon="6.7103">
        <ele>2775</ele>
        <time>2022-08-26T23:20:53Z</time>
      </trkpt>
      <trkpt lat="45.72895" lon="6.71031">
        <ele>2775</ele>
        <time>2022-08-26T23:20:55Z</time>
      </trkpt>
      <trkpt lat="45.72893" lon="6.71032">
        <ele>2775</ele>
        <time>2022-08-26T23:20:57Z</time>
      </trkpt>
      <trkpt lat="45.7289" lon="6.71031">
        <ele>2774</ele>
        <time>2022-08-26T23:20:59Z</time>
      </trkpt>
      <trkpt lat="45.72888" lon="6.71029">
        <ele>2773</ele>
        <time>2022-08-26T23:21:01Z</time>
      </trkpt>
      <trkpt lat="45.72885" lon="6.71026">
        <ele>2773</ele>
        <time>2022-08-26T23:21:03Z</time>
      </trkpt>
      <trkpt lat="45.72883" lon="6.71027">
        <ele>2772</ele>
        <time>2022-08-26T23:21:05Z</time>
      </trkpt>
      <trkpt lat="45.7288" lon="6.7103">
        <ele>2772</ele>
        <time>2022-08-26T23:21:07Z</time>
      </trkpt>
      <trkpt lat="45.72878" lon="6.71032">
        <ele>2772</ele>
        <time>2022-08-26T23:21:09Z</time>
      </trkpt>
      <trkpt lat="45.72876" lon="6.71032">
        <ele>2772</ele>
        <time>2022-08-26T23:21:11Z</time>
      </trkpt>
      <trkpt lat="45.72874" lon="6.71032">
        <ele>2771</ele>
        <time>2022-08-26T23:21:13Z</time>
      </trkpt>
      <trkpt lat="45.72869" lon="6.71032">
        <ele>2771</ele>
        <time>2022-08-26T23:21:15Z</time>
      </trkpt>
      <trkpt lat="45.72868" lon="6.71033">
        <ele>2770</ele>
        <time>2022-08-26T23:21:16Z</time>
      </trkpt>
      <trkpt lat="45.72866" lon="6.71033">
        <ele>2770</ele>
        <time>2022-08-26T23:21:17Z</time>
      </trkpt>
      <trkpt lat="45.72863" lon="6.71033">
        <ele>2770</ele>
        <time>2022-08-26T23:21:19Z</time>
      </trkpt>
      <trkpt lat="45.72861" lon="6.71033">
        <ele>2770</ele>
        <time>2022-08-26T23:21:21Z</time>
      </trkpt>
      <trkpt lat="45.72858" lon="6.71031">
        <ele>2770</ele>
        <time>2022-08-26T23:21:23Z</time>
      </trkpt>
      <trkpt lat="45.72857" lon="6.7103">
        <ele>2770</ele>
        <time>2022-08-26T23:21:24Z</time>
      </trkpt>
      <trkpt lat="45.72855" lon="6.7103">
        <ele>2770</ele>
        <time>2022-08-26T23:21:25Z</time>
      </trkpt>
      <trkpt lat="45.72853" lon="6.71029">
        <ele>2769</ele>
        <time>2022-08-26T23:21:26Z</time>
      </trkpt>
      <trkpt lat="45.72849" lon="6.71028">
        <ele>2769</ele>
        <time>2022-08-26T23:21:28Z</time>
      </trkpt>
      <trkpt lat="45.72847" lon="6.71028">
        <ele>2769</ele>
        <time>2022-08-26T23:21:30Z</time>
      </trkpt>
      <trkpt lat="45.72845" lon="6.71028">
        <ele>2768</ele>
        <time>2022-08-26T23:21:32Z</time>
      </trkpt>
      <trkpt lat="45.72842" lon="6.71028">
        <ele>2767</ele>
        <time>2022-08-26T23:21:34Z</time>
      </trkpt>
      <trkpt lat="45.72839" lon="6.71027">
        <ele>2766</ele>
        <time>2022-08-26T23:21:36Z</time>
      </trkpt>
      <trkpt lat="45.72836" lon="6.71028">
        <ele>2766</ele>
        <time>2022-08-26T23:21:38Z</time>
      </trkpt>
      <trkpt lat="45.72833" lon="6.7103">
        <ele>2766</ele>
        <time>2022-08-26T23:21:40Z</time>
      </trkpt>
      <trkpt lat="45.7283" lon="6.71032">
        <ele>2765</ele>
        <time>2022-08-26T23:21:42Z</time>
      </trkpt>
      <trkpt lat="45.72828" lon="6.71033">
        <ele>2765</ele>
        <time>2022-08-26T23:21:43Z</time>
      </trkpt>
      <trkpt lat="45.72827" lon="6.71034">
        <ele>2765</ele>
        <time>2022-08-26T23:21:44Z</time>
      </trkpt>
      <trkpt lat="45.72825" lon="6.71035">
        <ele>2765</ele>
        <time>2022-08-26T23:21:45Z</time>
      </trkpt>
      <trkpt lat="45.72823" lon="6.71036">
        <ele>2765</ele>
        <time>2022-08-26T23:21:46Z</time>
      </trkpt>
      <trkpt lat="45.72821" lon="6.71036">
        <ele>2765</ele>
        <time>2022-08-26T23:21:47Z</time>
      </trkpt>
      <trkpt lat="45.72818" lon="6.71036">
        <ele>2765</ele>
        <time>2022-08-26T23:21:49Z</time>
      </trkpt>
      <trkpt lat="45.72815" lon="6.71037">
        <ele>2765</ele>
        <time>2022-08-26T23:21:51Z</time>
      </trkpt>
      <trkpt lat="45.72813" lon="6.71037">
        <ele>2765</ele>
        <time>2022-08-26T23:21:53Z</time>
      </trkpt>
      <trkpt lat="45.72811" lon="6.71036">
        <ele>2765</ele>
        <time>2022-08-26T23:21:55Z</time>
      </trkpt>
      <trkpt lat="45.72809" lon="6.71037">
        <ele>2765</ele>
        <time>2022-08-26T23:21:57Z</time>
      </trkpt>
      <trkpt lat="45.72807" lon="6.71039">
        <ele>2767</ele>
        <time>2022-08-26T23:22:00Z</time>
      </trkpt>
      <trkpt lat="45.72806" lon="6.71042">
        <ele>2767</ele>
        <time>2022-08-26T23:22:03Z</time>
      </trkpt>
      <trkpt lat="45.72806" lon="6.71045">
        <ele>2767</ele>
        <time>2022-08-26T23:22:06Z</time>
      </trkpt>
      <trkpt lat="45.72805" lon="6.71049">
        <ele>2768</ele>
        <time>2022-08-26T23:22:09Z</time>
      </trkpt>
      <trkpt lat="45.72805" lon="6.71052">
        <ele>2768</ele>
        <time>2022-08-26T23:22:12Z</time>
      </trkpt>
      <trkpt lat="45.72804" lon="6.71055">
        <ele>2768</ele>
        <time>2022-08-26T23:22:14Z</time>
      </trkpt>
      <trkpt lat="45.72804" lon="6.71058">
        <ele>2769</ele>
        <time>2022-08-26T23:22:16Z</time>
      </trkpt>
      <trkpt lat="45.72803" lon="6.71061">
        <ele>2769</ele>
        <time>2022-08-26T23:22:18Z</time>
      </trkpt>
      <trkpt lat="45.72803" lon="6.71064">
        <ele>2769</ele>
        <time>2022-08-26T23:22:21Z</time>
      </trkpt>
      <trkpt lat="45.72804" lon="6.71067">
        <ele>2769</ele>
        <time>2022-08-26T23:22:23Z</time>
      </trkpt>
      <trkpt lat="45.72804" lon="6.71071">
        <ele>2770</ele>
        <time>2022-08-26T23:22:26Z</time>
      </trkpt>
      <trkpt lat="45.72804" lon="6.71074">
        <ele>2771</ele>
        <time>2022-08-26T23:22:29Z</time>
      </trkpt>
      <trkpt lat="45.72802" lon="6.71077">
        <ele>2771</ele>
        <time>2022-08-26T23:22:32Z</time>
      </trkpt>
      <trkpt lat="45.72802" lon="6.71081">
        <ele>2772</ele>
        <time>2022-08-26T23:22:35Z</time>
      </trkpt>
      <trkpt lat="45.728" lon="6.71083">
        <ele>2772</ele>
        <time>2022-08-26T23:22:37Z</time>
      </trkpt>
      <trkpt lat="45.72798" lon="6.71084">
        <ele>2772</ele>
        <time>2022-08-26T23:22:39Z</time>
      </trkpt>
      <trkpt lat="45.72795" lon="6.71086">
        <ele>2772</ele>
        <time>2022-08-26T23:22:41Z</time>
      </trkpt>
      <trkpt lat="45.72793" lon="6.71088">
        <ele>2772</ele>
        <time>2022-08-26T23:22:43Z</time>
      </trkpt>
      <trkpt lat="45.72792" lon="6.7109">
        <ele>2772</ele>
        <time>2022-08-26T23:22:45Z</time>
      </trkpt>
      <trkpt lat="45.72791" lon="6.71093">
        <ele>2772</ele>
        <time>2022-08-26T23:22:47Z</time>
      </trkpt>
      <trkpt lat="45.72789" lon="6.71094">
        <ele>2772</ele>
        <time>2022-08-26T23:22:49Z</time>
      </trkpt>
      <trkpt lat="45.72787" lon="6.71096">
        <ele>2772</ele>
        <time>2022-08-26T23:22:51Z</time>
      </trkpt>
      <trkpt lat="45.72784" lon="6.71097">
        <ele>2772</ele>
        <time>2022-08-26T23:22:53Z</time>
      </trkpt>
      <trkpt lat="45.72782" lon="6.71098">
        <ele>2772</ele>
        <time>2022-08-26T23:22:55Z</time>
      </trkpt>
      <trkpt lat="45.7278" lon="6.711">
        <ele>2772</ele>
        <time>2022-08-26T23:22:57Z</time>
      </trkpt>
      <trkpt lat="45.72779" lon="6.71102">
        <ele>2772</ele>
        <time>2022-08-26T23:22:59Z</time>
      </trkpt>
      <trkpt lat="45.72777" lon="6.71102">
        <ele>2772</ele>
        <time>2022-08-26T23:23:01Z</time>
      </trkpt>
      <trkpt lat="45.72774" lon="6.71102">
        <ele>2772</ele>
        <time>2022-08-26T23:23:03Z</time>
      </trkpt>
      <trkpt lat="45.72771" lon="6.71103">
        <ele>2772</ele>
        <time>2022-08-26T23:23:05Z</time>
      </trkpt>
      <trkpt lat="45.72768" lon="6.71105">
        <ele>2772</ele>
        <time>2022-08-26T23:23:07Z</time>
      </trkpt>
      <trkpt lat="45.72766" lon="6.71105">
        <ele>2772</ele>
        <time>2022-08-26T23:23:09Z</time>
      </trkpt>
      <trkpt lat="45.72764" lon="6.71106">
        <ele>2772</ele>
        <time>2022-08-26T23:23:11Z</time>
      </trkpt>
      <trkpt lat="45.72762" lon="6.71107">
        <ele>2773</ele>
        <time>2022-08-26T23:23:13Z</time>
      </trkpt>
      <trkpt lat="45.72759" lon="6.71108">
        <ele>2773</ele>
        <time>2022-08-26T23:23:16Z</time>
      </trkpt>
      <trkpt lat="45.72758" lon="6.7111">
        <ele>2774</ele>
        <time>2022-08-26T23:23:19Z</time>
      </trkpt>
      <trkpt lat="45.72757" lon="6.71112">
        <ele>2774</ele>
        <time>2022-08-26T23:23:21Z</time>
      </trkpt>
      <trkpt lat="45.72755" lon="6.71115">
        <ele>2775</ele>
        <time>2022-08-26T23:23:24Z</time>
      </trkpt>
      <trkpt lat="45.72754" lon="6.71117">
        <ele>2777</ele>
        <time>2022-08-26T23:23:26Z</time>
      </trkpt>
      <trkpt lat="45.72752" lon="6.71118">
        <ele>2777</ele>
        <time>2022-08-26T23:23:28Z</time>
      </trkpt>
      <trkpt lat="45.7275" lon="6.71119">
        <ele>2777</ele>
        <time>2022-08-26T23:23:30Z</time>
      </trkpt>
      <trkpt lat="45.72749" lon="6.71121">
        <ele>2778</ele>
        <time>2022-08-26T23:23:33Z</time>
      </trkpt>
      <trkpt lat="45.72748" lon="6.71123">
        <ele>2778</ele>
        <time>2022-08-26T23:23:35Z</time>
      </trkpt>
      <trkpt lat="45.72746" lon="6.71124">
        <ele>2777</ele>
        <time>2022-08-26T23:23:37Z</time>
      </trkpt>
      <trkpt lat="45.72744" lon="6.71125">
        <ele>2778</ele>
        <time>2022-08-26T23:23:39Z</time>
      </trkpt>
      <trkpt lat="45.72741" lon="6.71125">
        <ele>2777</ele>
        <time>2022-08-26T23:23:41Z</time>
      </trkpt>
      <trkpt lat="45.72739" lon="6.71125">
        <ele>2777</ele>
        <time>2022-08-26T23:23:43Z</time>
      </trkpt>
      <trkpt lat="45.72736" lon="6.71125">
        <ele>2777</ele>
        <time>2022-08-26T23:23:45Z</time>
      </trkpt>
      <trkpt lat="45.72734" lon="6.71126">
        <ele>2777</ele>
        <time>2022-08-26T23:23:47Z</time>
      </trkpt>
      <trkpt lat="45.72731" lon="6.71128">
        <ele>2775</ele>
        <time>2022-08-26T23:23:49Z</time>
      </trkpt>
      <trkpt lat="45.72728" lon="6.71128">
        <ele>2775</ele>
        <time>2022-08-26T23:23:51Z</time>
      </trkpt>
      <trkpt lat="45.72726" lon="6.7113">
        <ele>2775</ele>
        <time>2022-08-26T23:23:53Z</time>
      </trkpt>
      <trkpt lat="45.72723" lon="6.71131">
        <ele>2774</ele>
        <time>2022-08-26T23:23:55Z</time>
      </trkpt>
      <trkpt lat="45.7272" lon="6.71131">
        <ele>2774</ele>
        <time>2022-08-26T23:23:57Z</time>
      </trkpt>
      <trkpt lat="45.72717" lon="6.71132">
        <ele>2774</ele>
        <time>2022-08-26T23:23:59Z</time>
      </trkpt>
      <trkpt lat="45.72715" lon="6.71133">
        <ele>2774</ele>
        <time>2022-08-26T23:24:01Z</time>
      </trkpt>
      <trkpt lat="45.72712" lon="6.71133">
        <ele>2773</ele>
        <time>2022-08-26T23:24:03Z</time>
      </trkpt>
      <trkpt lat="45.72709" lon="6.71134">
        <ele>2773</ele>
        <time>2022-08-26T23:24:05Z</time>
      </trkpt>
      <trkpt lat="45.72707" lon="6.71135">
        <ele>2774</ele>
        <time>2022-08-26T23:24:07Z</time>
      </trkpt>
      <trkpt lat="45.72705" lon="6.71138">
        <ele>2775</ele>
        <time>2022-08-26T23:24:10Z</time>
      </trkpt>
      <trkpt lat="45.72704" lon="6.7114">
        <ele>2775</ele>
        <time>2022-08-26T23:24:13Z</time>
      </trkpt>
      <trkpt lat="45.72703" lon="6.71142">
        <ele>2777</ele>
        <time>2022-08-26T23:24:16Z</time>
      </trkpt>
      <trkpt lat="45.72701" lon="6.71144">
        <ele>2778</ele>
        <time>2022-08-26T23:24:19Z</time>
      </trkpt>
      <trkpt lat="45.727" lon="6.71146">
        <ele>2778</ele>
        <time>2022-08-26T23:24:21Z</time>
      </trkpt>
      <trkpt lat="45.72699" lon="6.71148">
        <ele>2778</ele>
        <time>2022-08-26T23:24:23Z</time>
      </trkpt>
      <trkpt lat="45.72698" lon="6.71151">
        <ele>2780</ele>
        <time>2022-08-26T23:24:26Z</time>
      </trkpt>
      <trkpt lat="45.72698" lon="6.71154">
        <ele>2780</ele>
        <time>2022-08-26T23:24:29Z</time>
      </trkpt>
      <trkpt lat="45.72698" lon="6.71157">
        <ele>2781</ele>
        <time>2022-08-26T23:24:34Z</time>
      </trkpt>
      <trkpt lat="45.72697" lon="6.7116">
        <ele>2781</ele>
        <time>2022-08-26T23:24:37Z</time>
      </trkpt>
      <trkpt lat="45.72695" lon="6.71162">
        <ele>2781</ele>
        <time>2022-08-26T23:24:40Z</time>
      </trkpt>
      <trkpt lat="45.72693" lon="6.71165">
        <ele>2781</ele>
        <time>2022-08-26T23:24:42Z</time>
      </trkpt>
      <trkpt lat="45.72692" lon="6.71169">
        <ele>2781</ele>
        <time>2022-08-26T23:24:44Z</time>
      </trkpt>
      <trkpt lat="45.72691" lon="6.71172">
        <ele>2781</ele>
        <time>2022-08-26T23:24:45Z</time>
      </trkpt>
      <trkpt lat="45.7269" lon="6.71175">
        <ele>2781</ele>
        <time>2022-08-26T23:24:48Z</time>
      </trkpt>
      <trkpt lat="45.72689" lon="6.71179">
        <ele>2781</ele>
        <time>2022-08-26T23:24:50Z</time>
      </trkpt>
      <trkpt lat="45.72687" lon="6.71183">
        <ele>2781</ele>
        <time>2022-08-26T23:24:52Z</time>
      </trkpt>
      <trkpt lat="45.72686" lon="6.71185">
        <ele>2781</ele>
        <time>2022-08-26T23:24:53Z</time>
      </trkpt>
      <trkpt lat="45.72684" lon="6.71188">
        <ele>2781</ele>
        <time>2022-08-26T23:24:54Z</time>
      </trkpt>
      <trkpt lat="45.72683" lon="6.7119">
        <ele>2781</ele>
        <time>2022-08-26T23:24:55Z</time>
      </trkpt>
      <trkpt lat="45.72682" lon="6.71192">
        <ele>2781</ele>
        <time>2022-08-26T23:24:56Z</time>
      </trkpt>
      <trkpt lat="45.72681" lon="6.71194">
        <ele>2781</ele>
        <time>2022-08-26T23:24:57Z</time>
      </trkpt>
      <trkpt lat="45.72679" lon="6.71198">
        <ele>2781</ele>
        <time>2022-08-26T23:24:59Z</time>
      </trkpt>
      <trkpt lat="45.72677" lon="6.712">
        <ele>2781</ele>
        <time>2022-08-26T23:25:01Z</time>
      </trkpt>
      <trkpt lat="45.72676" lon="6.71203">
        <ele>2781</ele>
        <time>2022-08-26T23:25:03Z</time>
      </trkpt>
      <trkpt lat="45.72674" lon="6.71206">
        <ele>2781</ele>
        <time>2022-08-26T23:25:05Z</time>
      </trkpt>
      <trkpt lat="45.72673" lon="6.71209">
        <ele>2781</ele>
        <time>2022-08-26T23:25:07Z</time>
      </trkpt>
      <trkpt lat="45.72671" lon="6.71212">
        <ele>2782</ele>
        <time>2022-08-26T23:25:09Z</time>
      </trkpt>
      <trkpt lat="45.7267" lon="6.71216">
        <ele>2782</ele>
        <time>2022-08-26T23:25:11Z</time>
      </trkpt>
      <trkpt lat="45.72669" lon="6.71219">
        <ele>2782</ele>
        <time>2022-08-26T23:25:13Z</time>
      </trkpt>
      <trkpt lat="45.72667" lon="6.71221">
        <ele>2782</ele>
        <time>2022-08-26T23:25:16Z</time>
      </trkpt>
      <trkpt lat="45.72666" lon="6.71224">
        <ele>2782</ele>
        <time>2022-08-26T23:25:19Z</time>
      </trkpt>
      <trkpt lat="45.72663" lon="6.71225">
        <ele>2782</ele>
        <time>2022-08-26T23:25:22Z</time>
      </trkpt>
      <trkpt lat="45.72661" lon="6.71225">
        <ele>2782</ele>
        <time>2022-08-26T23:25:25Z</time>
      </trkpt>
      <trkpt lat="45.72659" lon="6.71224">
        <ele>2782</ele>
        <time>2022-08-26T23:25:27Z</time>
      </trkpt>
      <trkpt lat="45.72656" lon="6.71225">
        <ele>2781</ele>
        <time>2022-08-26T23:25:30Z</time>
      </trkpt>
      <trkpt lat="45.72654" lon="6.71227">
        <ele>2780</ele>
        <time>2022-08-26T23:25:32Z</time>
      </trkpt>
      <trkpt lat="45.72652" lon="6.71231">
        <ele>2780</ele>
        <time>2022-08-26T23:25:34Z</time>
      </trkpt>
      <trkpt lat="45.72649" lon="6.71233">
        <ele>2779</ele>
        <time>2022-08-26T23:25:36Z</time>
      </trkpt>
      <trkpt lat="45.72646" lon="6.71233">
        <ele>2778</ele>
        <time>2022-08-26T23:25:38Z</time>
      </trkpt>
      <trkpt lat="45.72643" lon="6.71234">
        <ele>2778</ele>
        <time>2022-08-26T23:25:40Z</time>
      </trkpt>
      <trkpt lat="45.7264" lon="6.71234">
        <ele>2778</ele>
        <time>2022-08-26T23:25:42Z</time>
      </trkpt>
      <trkpt lat="45.72637" lon="6.71234">
        <ele>2777</ele>
        <time>2022-08-26T23:25:44Z</time>
      </trkpt>
      <trkpt lat="45.72635" lon="6.71232">
        <ele>2777</ele>
        <time>2022-08-26T23:25:46Z</time>
      </trkpt>
      <trkpt lat="45.72632" lon="6.71231">
        <ele>2777</ele>
        <time>2022-08-26T23:25:48Z</time>
      </trkpt>
      <trkpt lat="45.7263" lon="6.71229">
        <ele>2777</ele>
        <time>2022-08-26T23:25:50Z</time>
      </trkpt>
      <trkpt lat="45.72627" lon="6.71229">
        <ele>2775</ele>
        <time>2022-08-26T23:25:52Z</time>
      </trkpt>
      <trkpt lat="45.72625" lon="6.71232">
        <ele>2775</ele>
        <time>2022-08-26T23:25:55Z</time>
      </trkpt>
      <trkpt lat="45.72624" lon="6.71234">
        <ele>2775</ele>
        <time>2022-08-26T23:25:57Z</time>
      </trkpt>
      <trkpt lat="45.72623" lon="6.71239">
        <ele>2777</ele>
        <time>2022-08-26T23:25:59Z</time>
      </trkpt>
      <trkpt lat="45.72623" lon="6.71241">
        <ele>2777</ele>
        <time>2022-08-26T23:26:00Z</time>
      </trkpt>
      <trkpt lat="45.72622" lon="6.71244">
        <ele>2777</ele>
        <time>2022-08-26T23:26:01Z</time>
      </trkpt>
      <trkpt lat="45.72622" lon="6.71247">
        <ele>2777</ele>
        <time>2022-08-26T23:26:02Z</time>
      </trkpt>
      <trkpt lat="45.72622" lon="6.71251">
        <ele>2777</ele>
        <time>2022-08-26T23:26:04Z</time>
      </trkpt>
      <trkpt lat="45.72622" lon="6.71255">
        <ele>2777</ele>
        <time>2022-08-26T23:26:06Z</time>
      </trkpt>
      <trkpt lat="45.72621" lon="6.71258">
        <ele>2777</ele>
        <time>2022-08-26T23:26:08Z</time>
      </trkpt>
      <trkpt lat="45.72618" lon="6.71262">
        <ele>2777</ele>
        <time>2022-08-26T23:26:10Z</time>
      </trkpt>
      <trkpt lat="45.72616" lon="6.71263">
        <ele>2777</ele>
        <time>2022-08-26T23:26:11Z</time>
      </trkpt>
      <trkpt lat="45.72614" lon="6.71265">
        <ele>2777</ele>
        <time>2022-08-26T23:26:13Z</time>
      </trkpt>
      <trkpt lat="45.72611" lon="6.71266">
        <ele>2777</ele>
        <time>2022-08-26T23:26:15Z</time>
      </trkpt>
      <trkpt lat="45.72609" lon="6.71266">
        <ele>2777</ele>
        <time>2022-08-26T23:26:17Z</time>
      </trkpt>
      <trkpt lat="45.72607" lon="6.71268">
        <ele>2777</ele>
        <time>2022-08-26T23:26:19Z</time>
      </trkpt>
      <trkpt lat="45.72605" lon="6.71269">
        <ele>2777</ele>
        <time>2022-08-26T23:26:21Z</time>
      </trkpt>
      <trkpt lat="45.72604" lon="6.7127">
        <ele>2778</ele>
        <time>2022-08-26T23:26:24Z</time>
      </trkpt>
      <trkpt lat="45.72601" lon="6.71272">
        <ele>2778</ele>
        <time>2022-08-26T23:26:27Z</time>
      </trkpt>
      <trkpt lat="45.72599" lon="6.71272">
        <ele>2777</ele>
        <time>2022-08-26T23:26:29Z</time>
      </trkpt>
      <trkpt lat="45.72597" lon="6.7127">
        <ele>2775</ele>
        <time>2022-08-26T23:26:31Z</time>
      </trkpt>
      <trkpt lat="45.72593" lon="6.7127">
        <ele>2774</ele>
        <time>2022-08-26T23:26:33Z</time>
      </trkpt>
      <trkpt lat="45.7259" lon="6.7127">
        <ele>2774</ele>
        <time>2022-08-26T23:26:35Z</time>
      </trkpt>
      <trkpt lat="45.72588" lon="6.7127">
        <ele>2774</ele>
        <time>2022-08-26T23:26:37Z</time>
      </trkpt>
      <trkpt lat="45.72586" lon="6.71271">
        <ele>2773</ele>
        <time>2022-08-26T23:26:39Z</time>
      </trkpt>
      <trkpt lat="45.72585" lon="6.71274">
        <ele>2774</ele>
        <time>2022-08-26T23:26:41Z</time>
      </trkpt>
      <trkpt lat="45.72585" lon="6.71277">
        <ele>2774</ele>
        <time>2022-08-26T23:26:44Z</time>
      </trkpt>
      <trkpt lat="45.72583" lon="6.71281">
        <ele>2775</ele>
        <time>2022-08-26T23:26:47Z</time>
      </trkpt>
      <trkpt lat="45.72582" lon="6.71283">
        <ele>2775</ele>
        <time>2022-08-26T23:26:49Z</time>
      </trkpt>
      <trkpt lat="45.72582" lon="6.71285">
        <ele>2775</ele>
        <time>2022-08-26T23:26:53Z</time>
      </trkpt>
      <trkpt lat="45.72583" lon="6.71288">
        <ele>2777</ele>
        <time>2022-08-26T23:26:57Z</time>
      </trkpt>
      <trkpt lat="45.72584" lon="6.71292">
        <ele>2777</ele>
        <time>2022-08-26T23:27:00Z</time>
      </trkpt>
      <trkpt lat="45.72584" lon="6.71295">
        <ele>2778</ele>
        <time>2022-08-26T23:27:03Z</time>
      </trkpt>
      <trkpt lat="45.72582" lon="6.71298">
        <ele>2778</ele>
        <time>2022-08-26T23:27:06Z</time>
      </trkpt>
      <trkpt lat="45.72581" lon="6.713">
        <ele>2778</ele>
        <time>2022-08-26T23:27:09Z</time>
      </trkpt>
      <trkpt lat="45.72581" lon="6.71304">
        <ele>2779</ele>
        <time>2022-08-26T23:27:12Z</time>
      </trkpt>
      <trkpt lat="45.7258" lon="6.71307">
        <ele>2779</ele>
        <time>2022-08-26T23:27:15Z</time>
      </trkpt>
      <trkpt lat="45.7258" lon="6.71309">
        <ele>2779</ele>
        <time>2022-08-26T23:27:17Z</time>
      </trkpt>
      <trkpt lat="45.72579" lon="6.71312">
        <ele>2780</ele>
        <time>2022-08-26T23:27:20Z</time>
      </trkpt>
      <trkpt lat="45.72578" lon="6.71315">
        <ele>2780</ele>
        <time>2022-08-26T23:27:23Z</time>
      </trkpt>
      <trkpt lat="45.72577" lon="6.71317">
        <ele>2781</ele>
        <time>2022-08-26T23:27:27Z</time>
      </trkpt>
      <trkpt lat="45.72575" lon="6.7132">
        <ele>2781</ele>
        <time>2022-08-26T23:27:30Z</time>
      </trkpt>
      <trkpt lat="45.72573" lon="6.71321">
        <ele>2782</ele>
        <time>2022-08-26T23:27:34Z</time>
      </trkpt>
      <trkpt lat="45.72572" lon="6.71323">
        <ele>2782</ele>
        <time>2022-08-26T23:27:40Z</time>
      </trkpt>
      <trkpt lat="45.72571" lon="6.71325">
        <ele>2782</ele>
        <time>2022-08-26T23:27:43Z</time>
      </trkpt>
      <trkpt lat="45.7257" lon="6.71328">
        <ele>2784</ele>
        <time>2022-08-26T23:27:46Z</time>
      </trkpt>
      <trkpt lat="45.72569" lon="6.7133">
        <ele>2784</ele>
        <time>2022-08-26T23:27:49Z</time>
      </trkpt>
      <trkpt lat="45.72567" lon="6.71333">
        <ele>2784</ele>
        <time>2022-08-26T23:27:52Z</time>
      </trkpt>
      <trkpt lat="45.72567" lon="6.71336">
        <ele>2785</ele>
        <time>2022-08-26T23:27:55Z</time>
      </trkpt>
      <trkpt lat="45.72567" lon="6.71339">
        <ele>2786</ele>
        <time>2022-08-26T23:27:58Z</time>
      </trkpt>
      <trkpt lat="45.72567" lon="6.71341">
        <ele>2786</ele>
        <time>2022-08-26T23:28:01Z</time>
      </trkpt>
      <trkpt lat="45.72567" lon="6.71344">
        <ele>2787</ele>
        <time>2022-08-26T23:28:04Z</time>
      </trkpt>
      <trkpt lat="45.72567" lon="6.71347">
        <ele>2787</ele>
        <time>2022-08-26T23:28:07Z</time>
      </trkpt>
      <trkpt lat="45.72566" lon="6.7135">
        <ele>2789</ele>
        <time>2022-08-26T23:28:10Z</time>
      </trkpt>
      <trkpt lat="45.72565" lon="6.71353">
        <ele>2789</ele>
        <time>2022-08-26T23:28:13Z</time>
      </trkpt>
      <trkpt lat="45.72564" lon="6.71356">
        <ele>2790</ele>
        <time>2022-08-26T23:28:16Z</time>
      </trkpt>
      <trkpt lat="45.72564" lon="6.71359">
        <ele>2791</ele>
        <time>2022-08-26T23:28:19Z</time>
      </trkpt>
      <trkpt lat="45.72564" lon="6.71362">
        <ele>2791</ele>
        <time>2022-08-26T23:28:22Z</time>
      </trkpt>
      <trkpt lat="45.72564" lon="6.71364">
        <ele>2791</ele>
        <time>2022-08-26T23:28:24Z</time>
      </trkpt>
      <trkpt lat="45.72562" lon="6.71367">
        <ele>2792</ele>
        <time>2022-08-26T23:28:27Z</time>
      </trkpt>
      <trkpt lat="45.7256" lon="6.71368">
        <ele>2793</ele>
        <time>2022-08-26T23:28:31Z</time>
      </trkpt>
      <trkpt lat="45.72559" lon="6.71369">
        <ele>2793</ele>
        <time>2022-08-26T23:28:34Z</time>
      </trkpt>
      <trkpt lat="45.72557" lon="6.71369">
        <ele>2793</ele>
        <time>2022-08-26T23:28:38Z</time>
      </trkpt>
      <trkpt lat="45.72555" lon="6.71371">
        <ele>2794</ele>
        <time>2022-08-26T23:28:46Z</time>
      </trkpt>
      <trkpt lat="45.72553" lon="6.71373">
        <ele>2795</ele>
        <time>2022-08-26T23:28:49Z</time>
      </trkpt>
      <trkpt lat="45.72552" lon="6.71375">
        <ele>2795</ele>
        <time>2022-08-26T23:28:53Z</time>
      </trkpt>
      <trkpt lat="45.72551" lon="6.71379">
        <ele>2796</ele>
        <time>2022-08-26T23:28:56Z</time>
      </trkpt>
      <trkpt lat="45.72552" lon="6.71382">
        <ele>2797</ele>
        <time>2022-08-26T23:28:59Z</time>
      </trkpt>
      <trkpt lat="45.72552" lon="6.71385">
        <ele>2797</ele>
        <time>2022-08-26T23:29:01Z</time>
      </trkpt>
      <trkpt lat="45.72553" lon="6.71388">
        <ele>2797</ele>
        <time>2022-08-26T23:29:04Z</time>
      </trkpt>
      <trkpt lat="45.72555" lon="6.7139">
        <ele>2797</ele>
        <time>2022-08-26T23:29:07Z</time>
      </trkpt>
      <trkpt lat="45.72556" lon="6.71394">
        <ele>2797</ele>
        <time>2022-08-26T23:29:10Z</time>
      </trkpt>
      <trkpt lat="45.72556" lon="6.71398">
        <ele>2798</ele>
        <time>2022-08-26T23:29:13Z</time>
      </trkpt>
      <trkpt lat="45.72556" lon="6.714">
        <ele>2798</ele>
        <time>2022-08-26T23:29:15Z</time>
      </trkpt>
      <trkpt lat="45.72556" lon="6.71404">
        <ele>2798</ele>
        <time>2022-08-26T23:29:18Z</time>
      </trkpt>
      <trkpt lat="45.72556" lon="6.71407">
        <ele>2799</ele>
        <time>2022-08-26T23:29:21Z</time>
      </trkpt>
      <trkpt lat="45.72556" lon="6.7141">
        <ele>2799</ele>
        <time>2022-08-26T23:29:24Z</time>
      </trkpt>
      <trkpt lat="45.72556" lon="6.71413">
        <ele>2799</ele>
        <time>2022-08-26T23:29:26Z</time>
      </trkpt>
      <trkpt lat="45.72556" lon="6.71416">
        <ele>2799</ele>
        <time>2022-08-26T23:29:28Z</time>
      </trkpt>
      <trkpt lat="45.72555" lon="6.71419">
        <ele>2801</ele>
        <time>2022-08-26T23:29:31Z</time>
      </trkpt>
      <trkpt lat="45.72555" lon="6.71422">
        <ele>2801</ele>
        <time>2022-08-26T23:29:33Z</time>
      </trkpt>
      <trkpt lat="45.72555" lon="6.71426">
        <ele>2801</ele>
        <time>2022-08-26T23:29:36Z</time>
      </trkpt>
      <trkpt lat="45.72555" lon="6.71428">
        <ele>2801</ele>
        <time>2022-08-26T23:29:38Z</time>
      </trkpt>
      <trkpt lat="45.72554" lon="6.71432">
        <ele>2802</ele>
        <time>2022-08-26T23:29:41Z</time>
      </trkpt>
      <trkpt lat="45.72554" lon="6.71434">
        <ele>2803</ele>
        <time>2022-08-26T23:29:43Z</time>
      </trkpt>
      <trkpt lat="45.72554" lon="6.71437">
        <ele>2803</ele>
        <time>2022-08-26T23:29:45Z</time>
      </trkpt>
      <trkpt lat="45.72554" lon="6.7144">
        <ele>2803</ele>
        <time>2022-08-26T23:29:48Z</time>
      </trkpt>
      <trkpt lat="45.72553" lon="6.71443">
        <ele>2804</ele>
        <time>2022-08-26T23:29:51Z</time>
      </trkpt>
      <trkpt lat="45.72552" lon="6.71446">
        <ele>2804</ele>
        <time>2022-08-26T23:29:53Z</time>
      </trkpt>
      <trkpt lat="45.72551" lon="6.71449">
        <ele>2804</ele>
        <time>2022-08-26T23:29:55Z</time>
      </trkpt>
      <trkpt lat="45.72551" lon="6.71452">
        <ele>2805</ele>
        <time>2022-08-26T23:29:58Z</time>
      </trkpt>
      <trkpt lat="45.72549" lon="6.71455">
        <ele>2805</ele>
        <time>2022-08-26T23:30:01Z</time>
      </trkpt>
      <trkpt lat="45.72547" lon="6.71455">
        <ele>2806</ele>
        <time>2022-08-26T23:30:03Z</time>
      </trkpt>
      <trkpt lat="45.72545" lon="6.71456">
        <ele>2806</ele>
        <time>2022-08-26T23:30:05Z</time>
      </trkpt>
      <trkpt lat="45.72543" lon="6.71458">
        <ele>2806</ele>
        <time>2022-08-26T23:30:07Z</time>
      </trkpt>
      <trkpt lat="45.72541" lon="6.71459">
        <ele>2805</ele>
        <time>2022-08-26T23:30:09Z</time>
      </trkpt>
      <trkpt lat="45.7254" lon="6.71462">
        <ele>2806</ele>
        <time>2022-08-26T23:30:11Z</time>
      </trkpt>
      <trkpt lat="45.72539" lon="6.71464">
        <ele>2806</ele>
        <time>2022-08-26T23:30:13Z</time>
      </trkpt>
      <trkpt lat="45.72539" lon="6.71467">
        <ele>2806</ele>
        <time>2022-08-26T23:30:15Z</time>
      </trkpt>
      <trkpt lat="45.72539" lon="6.7147">
        <ele>2806</ele>
        <time>2022-08-26T23:30:17Z</time>
      </trkpt>
      <trkpt lat="45.72539" lon="6.71473">
        <ele>2807</ele>
        <time>2022-08-26T23:30:19Z</time>
      </trkpt>
      <trkpt lat="45.7254" lon="6.71476">
        <ele>2808</ele>
        <time>2022-08-26T23:30:22Z</time>
      </trkpt>
      <trkpt lat="45.7254" lon="6.7148">
        <ele>2808</ele>
        <time>2022-08-26T23:30:24Z</time>
      </trkpt>
      <trkpt lat="45.7254" lon="6.71483">
        <ele>2808</ele>
        <time>2022-08-26T23:30:26Z</time>
      </trkpt>
      <trkpt lat="45.7254" lon="6.71487">
        <ele>2808</ele>
        <time>2022-08-26T23:30:28Z</time>
      </trkpt>
      <trkpt lat="45.7254" lon="6.7149">
        <ele>2808</ele>
        <time>2022-08-26T23:30:30Z</time>
      </trkpt>
      <trkpt lat="45.72541" lon="6.71494">
        <ele>2808</ele>
        <time>2022-08-26T23:30:32Z</time>
      </trkpt>
      <trkpt lat="45.72541" lon="6.71498">
        <ele>2808</ele>
        <time>2022-08-26T23:30:34Z</time>
      </trkpt>
      <trkpt lat="45.72541" lon="6.71501">
        <ele>2808</ele>
        <time>2022-08-26T23:30:36Z</time>
      </trkpt>
      <trkpt lat="45.72541" lon="6.71504">
        <ele>2809</ele>
        <time>2022-08-26T23:30:40Z</time>
      </trkpt>
      <trkpt lat="45.7254" lon="6.71506">
        <ele>2810</ele>
        <time>2022-08-26T23:30:42Z</time>
      </trkpt>
      <trkpt lat="45.72541" lon="6.71509">
        <ele>2810</ele>
        <time>2022-08-26T23:30:44Z</time>
      </trkpt>
      <trkpt lat="45.72541" lon="6.71512">
        <ele>2811</ele>
        <time>2022-08-26T23:30:46Z</time>
      </trkpt>
      <trkpt lat="45.72542" lon="6.71515">
        <ele>2811</ele>
        <time>2022-08-26T23:30:48Z</time>
      </trkpt>
      <trkpt lat="45.72543" lon="6.71517">
        <ele>2813</ele>
        <time>2022-08-26T23:30:50Z</time>
      </trkpt>
      <trkpt lat="45.72544" lon="6.71521">
        <ele>2813</ele>
        <time>2022-08-26T23:30:53Z</time>
      </trkpt>
      <trkpt lat="45.72545" lon="6.71523">
        <ele>2813</ele>
        <time>2022-08-26T23:30:55Z</time>
      </trkpt>
      <trkpt lat="45.72547" lon="6.71526">
        <ele>2815</ele>
        <time>2022-08-26T23:30:58Z</time>
      </trkpt>
      <trkpt lat="45.72548" lon="6.71529">
        <ele>2815</ele>
        <time>2022-08-26T23:31:01Z</time>
      </trkpt>
      <trkpt lat="45.72549" lon="6.71532">
        <ele>2816</ele>
        <time>2022-08-26T23:31:04Z</time>
      </trkpt>
      <trkpt lat="45.72549" lon="6.71535">
        <ele>2816</ele>
        <time>2022-08-26T23:31:07Z</time>
      </trkpt>
      <trkpt lat="45.7255" lon="6.71538">
        <ele>2818</ele>
        <time>2022-08-26T23:31:10Z</time>
      </trkpt>
      <trkpt lat="45.72552" lon="6.7154">
        <ele>2818</ele>
        <time>2022-08-26T23:31:13Z</time>
      </trkpt>
      <trkpt lat="45.72553" lon="6.71543">
        <ele>2819</ele>
        <time>2022-08-26T23:31:17Z</time>
      </trkpt>
      <trkpt lat="45.72554" lon="6.71545">
        <ele>2819</ele>
        <time>2022-08-26T23:31:21Z</time>
      </trkpt>
      <trkpt lat="45.72553" lon="6.71548">
        <ele>2820</ele>
        <time>2022-08-26T23:31:25Z</time>
      </trkpt>
      <trkpt lat="45.72554" lon="6.71551">
        <ele>2820</ele>
        <time>2022-08-26T23:31:28Z</time>
      </trkpt>
      <trkpt lat="45.72554" lon="6.71555">
        <ele>2820</ele>
        <time>2022-08-26T23:31:31Z</time>
      </trkpt>
      <trkpt lat="45.72553" lon="6.71559">
        <ele>2820</ele>
        <time>2022-08-26T23:31:34Z</time>
      </trkpt>
      <trkpt lat="45.72552" lon="6.71561">
        <ele>2820</ele>
        <time>2022-08-26T23:31:36Z</time>
      </trkpt>
      <trkpt lat="45.72552" lon="6.71564">
        <ele>2820</ele>
        <time>2022-08-26T23:31:38Z</time>
      </trkpt>
      <trkpt lat="45.72552" lon="6.71567">
        <ele>2821</ele>
        <time>2022-08-26T23:31:41Z</time>
      </trkpt>
      <trkpt lat="45.72552" lon="6.7157">
        <ele>2822</ele>
        <time>2022-08-26T23:31:45Z</time>
      </trkpt>
      <trkpt lat="45.72554" lon="6.71572">
        <ele>2822</ele>
        <time>2022-08-26T23:31:49Z</time>
      </trkpt>
      <trkpt lat="45.72554" lon="6.71575">
        <ele>2823</ele>
        <time>2022-08-26T23:31:52Z</time>
      </trkpt>
      <trkpt lat="45.72553" lon="6.71578">
        <ele>2823</ele>
        <time>2022-08-26T23:31:55Z</time>
      </trkpt>
      <trkpt lat="45.72551" lon="6.71581">
        <ele>2823</ele>
        <time>2022-08-26T23:31:58Z</time>
      </trkpt>
      <trkpt lat="45.72549" lon="6.71581">
        <ele>2823</ele>
        <time>2022-08-26T23:32:01Z</time>
      </trkpt>
      <trkpt lat="45.72548" lon="6.71584">
        <ele>2825</ele>
        <time>2022-08-26T23:32:05Z</time>
      </trkpt>
      <trkpt lat="45.72547" lon="6.71587">
        <ele>2825</ele>
        <time>2022-08-26T23:32:10Z</time>
      </trkpt>
      <trkpt lat="45.72547" lon="6.71591">
        <ele>2826</ele>
        <time>2022-08-26T23:32:13Z</time>
      </trkpt>
      <trkpt lat="45.72548" lon="6.71594">
        <ele>2826</ele>
        <time>2022-08-26T23:32:15Z</time>
      </trkpt>
      <trkpt lat="45.72548" lon="6.71597">
        <ele>2826</ele>
        <time>2022-08-26T23:32:17Z</time>
      </trkpt>
      <trkpt lat="45.72548" lon="6.716">
        <ele>2826</ele>
        <time>2022-08-26T23:32:20Z</time>
      </trkpt>
      <trkpt lat="45.72548" lon="6.71603">
        <ele>2827</ele>
        <time>2022-08-26T23:32:23Z</time>
      </trkpt>
      <trkpt lat="45.72548" lon="6.71606">
        <ele>2828</ele>
        <time>2022-08-26T23:32:28Z</time>
      </trkpt>
      <trkpt lat="45.72548" lon="6.71609">
        <ele>2829</ele>
        <time>2022-08-26T23:32:30Z</time>
      </trkpt>
      <trkpt lat="45.72548" lon="6.71612">
        <ele>2829</ele>
        <time>2022-08-26T23:32:32Z</time>
      </trkpt>
      <trkpt lat="45.72546" lon="6.71614">
        <ele>2829</ele>
        <time>2022-08-26T23:32:35Z</time>
      </trkpt>
      <trkpt lat="45.72545" lon="6.71614">
        <ele>2830</ele>
        <time>2022-08-26T23:32:39Z</time>
      </trkpt>
      <trkpt lat="45.72543" lon="6.71614">
        <ele>2831</ele>
        <time>2022-08-26T23:32:43Z</time>
      </trkpt>
      <trkpt lat="45.72541" lon="6.71614">
        <ele>2831</ele>
        <time>2022-08-26T23:32:47Z</time>
      </trkpt>
      <trkpt lat="45.72539" lon="6.71613">
        <ele>2832</ele>
        <time>2022-08-26T23:32:51Z</time>
      </trkpt>
      <trkpt lat="45.72537" lon="6.71611">
        <ele>2832</ele>
        <time>2022-08-26T23:32:55Z</time>
      </trkpt>
      <trkpt lat="45.72535" lon="6.71609">
        <ele>2833</ele>
        <time>2022-08-26T23:32:58Z</time>
      </trkpt>
      <trkpt lat="45.72533" lon="6.71607">
        <ele>2834</ele>
        <time>2022-08-26T23:33:01Z</time>
      </trkpt>
      <trkpt lat="45.7253" lon="6.71607">
        <ele>2834</ele>
        <time>2022-08-26T23:33:04Z</time>
      </trkpt>
      <trkpt lat="45.72528" lon="6.71608">
        <ele>2834</ele>
        <time>2022-08-26T23:33:06Z</time>
      </trkpt>
      <trkpt lat="45.72526" lon="6.7161">
        <ele>2835</ele>
        <time>2022-08-26T23:33:09Z</time>
      </trkpt>
      <trkpt lat="45.72524" lon="6.71613">
        <ele>2835</ele>
        <time>2022-08-26T23:33:12Z</time>
      </trkpt>
      <trkpt lat="45.72523" lon="6.71615">
        <ele>2837</ele>
        <time>2022-08-26T23:33:14Z</time>
      </trkpt>
      <trkpt lat="45.72522" lon="6.71618">
        <ele>2837</ele>
        <time>2022-08-26T23:33:17Z</time>
      </trkpt>
      <trkpt lat="45.72522" lon="6.71621">
        <ele>2837</ele>
        <time>2022-08-26T23:33:20Z</time>
      </trkpt>
      <trkpt lat="45.72521" lon="6.71625">
        <ele>2838</ele>
        <time>2022-08-26T23:33:23Z</time>
      </trkpt>
      <trkpt lat="45.7252" lon="6.71629">
        <ele>2839</ele>
        <time>2022-08-26T23:33:26Z</time>
      </trkpt>
      <trkpt lat="45.72519" lon="6.71632">
        <ele>2839</ele>
        <time>2022-08-26T23:33:28Z</time>
      </trkpt>
      <trkpt lat="45.72517" lon="6.71634">
        <ele>2839</ele>
        <time>2022-08-26T23:33:30Z</time>
      </trkpt>
      <trkpt lat="45.72517" lon="6.71637">
        <ele>2839</ele>
        <time>2022-08-26T23:33:32Z</time>
      </trkpt>
      <trkpt lat="45.72516" lon="6.7164">
        <ele>2839</ele>
        <time>2022-08-26T23:33:34Z</time>
      </trkpt>
      <trkpt lat="45.72515" lon="6.71642">
        <ele>2839</ele>
        <time>2022-08-26T23:33:36Z</time>
      </trkpt>
      <trkpt lat="45.72513" lon="6.71645">
        <ele>2840</ele>
        <time>2022-08-26T23:33:38Z</time>
      </trkpt>
      <trkpt lat="45.72512" lon="6.71647">
        <ele>2840</ele>
        <time>2022-08-26T23:33:40Z</time>
      </trkpt>
      <trkpt lat="45.72511" lon="6.7165">
        <ele>2841</ele>
        <time>2022-08-26T23:33:42Z</time>
      </trkpt>
      <trkpt lat="45.7251" lon="6.71652">
        <ele>2841</ele>
        <time>2022-08-26T23:33:44Z</time>
      </trkpt>
      <trkpt lat="45.72509" lon="6.71655">
        <ele>2841</ele>
        <time>2022-08-26T23:33:46Z</time>
      </trkpt>
      <trkpt lat="45.72508" lon="6.71657">
        <ele>2841</ele>
        <time>2022-08-26T23:33:48Z</time>
      </trkpt>
      <trkpt lat="45.72507" lon="6.7166">
        <ele>2841</ele>
        <time>2022-08-26T23:33:50Z</time>
      </trkpt>
      <trkpt lat="45.72505" lon="6.71663">
        <ele>2841</ele>
        <time>2022-08-26T23:33:52Z</time>
      </trkpt>
      <trkpt lat="45.72504" lon="6.71666">
        <ele>2841</ele>
        <time>2022-08-26T23:33:54Z</time>
      </trkpt>
      <trkpt lat="45.72502" lon="6.71669">
        <ele>2841</ele>
        <time>2022-08-26T23:33:56Z</time>
      </trkpt>
      <trkpt lat="45.72499" lon="6.71669">
        <ele>2842</ele>
        <time>2022-08-26T23:33:58Z</time>
      </trkpt>
      <trkpt lat="45.72497" lon="6.71669">
        <ele>2842</ele>
        <time>2022-08-26T23:34:00Z</time>
      </trkpt>
      <trkpt lat="45.72495" lon="6.71669">
        <ele>2843</ele>
        <time>2022-08-26T23:34:03Z</time>
      </trkpt>
      <trkpt lat="45.72493" lon="6.7167">
        <ele>2843</ele>
        <time>2022-08-26T23:34:05Z</time>
      </trkpt>
      <trkpt lat="45.72491" lon="6.7167">
        <ele>2843</ele>
        <time>2022-08-26T23:34:07Z</time>
      </trkpt>
      <trkpt lat="45.72489" lon="6.71671">
        <ele>2844</ele>
        <time>2022-08-26T23:34:09Z</time>
      </trkpt>
      <trkpt lat="45.72486" lon="6.71671">
        <ele>2844</ele>
        <time>2022-08-26T23:34:12Z</time>
      </trkpt>
      <trkpt lat="45.72484" lon="6.71672">
        <ele>2844</ele>
        <time>2022-08-26T23:34:16Z</time>
      </trkpt>
      <trkpt lat="45.72482" lon="6.71673">
        <ele>2845</ele>
        <time>2022-08-26T23:34:19Z</time>
      </trkpt>
      <trkpt lat="45.72479" lon="6.71673">
        <ele>2846</ele>
        <time>2022-08-26T23:34:22Z</time>
      </trkpt>
      <trkpt lat="45.72477" lon="6.71674">
        <ele>2846</ele>
        <time>2022-08-26T23:34:25Z</time>
      </trkpt>
      <trkpt lat="45.72475" lon="6.71674">
        <ele>2846</ele>
        <time>2022-08-26T23:34:27Z</time>
      </trkpt>
      <trkpt lat="45.72473" lon="6.71676">
        <ele>2847</ele>
        <time>2022-08-26T23:34:29Z</time>
      </trkpt>
      <trkpt lat="45.72471" lon="6.71677">
        <ele>2847</ele>
        <time>2022-08-26T23:34:32Z</time>
      </trkpt>
      <trkpt lat="45.72469" lon="6.71678">
        <ele>2847</ele>
        <time>2022-08-26T23:34:36Z</time>
      </trkpt>
      <trkpt lat="45.72467" lon="6.71679">
        <ele>2851</ele>
        <time>2022-08-26T23:34:40Z</time>
      </trkpt>
      <trkpt lat="45.72465" lon="6.7168">
        <ele>2851</ele>
        <time>2022-08-26T23:34:43Z</time>
      </trkpt>
      <trkpt lat="45.72463" lon="6.71681">
        <ele>2851</ele>
        <time>2022-08-26T23:34:45Z</time>
      </trkpt>
      <trkpt lat="45.72461" lon="6.71682">
        <ele>2852</ele>
        <time>2022-08-26T23:34:47Z</time>
      </trkpt>
      <trkpt lat="45.72459" lon="6.71682">
        <ele>2852</ele>
        <time>2022-08-26T23:34:49Z</time>
      </trkpt>
      <trkpt lat="45.72457" lon="6.71683">
        <ele>2852</ele>
        <time>2022-08-26T23:34:51Z</time>
      </trkpt>
      <trkpt lat="45.72454" lon="6.71684">
        <ele>2851</ele>
        <time>2022-08-26T23:34:54Z</time>
      </trkpt>
      <trkpt lat="45.72452" lon="6.71685">
        <ele>2851</ele>
        <time>2022-08-26T23:34:56Z</time>
      </trkpt>
      <trkpt lat="45.7245" lon="6.71686">
        <ele>2851</ele>
        <time>2022-08-26T23:34:58Z</time>
      </trkpt>
      <trkpt lat="45.72448" lon="6.71689">
        <ele>2851</ele>
        <time>2022-08-26T23:35:00Z</time>
      </trkpt>
      <trkpt lat="45.72445" lon="6.71691">
        <ele>2850</ele>
        <time>2022-08-26T23:35:02Z</time>
      </trkpt>
      <trkpt lat="45.72442" lon="6.71693">
        <ele>2849</ele>
        <time>2022-08-26T23:35:04Z</time>
      </trkpt>
      <trkpt lat="45.72439" lon="6.71695">
        <ele>2847</ele>
        <time>2022-08-26T23:35:06Z</time>
      </trkpt>
      <trkpt lat="45.72436" lon="6.71698">
        <ele>2847</ele>
        <time>2022-08-26T23:35:08Z</time>
      </trkpt>
      <trkpt lat="45.72435" lon="6.71699">
        <ele>2847</ele>
        <time>2022-08-26T23:35:09Z</time>
      </trkpt>
      <trkpt lat="45.72432" lon="6.71702">
        <ele>2845</ele>
        <time>2022-08-26T23:35:11Z</time>
      </trkpt>
      <trkpt lat="45.7243" lon="6.71703">
        <ele>2844</ele>
        <time>2022-08-26T23:35:12Z</time>
      </trkpt>
      <trkpt lat="45.72428" lon="6.71704">
        <ele>2844</ele>
        <time>2022-08-26T23:35:13Z</time>
      </trkpt>
      <trkpt lat="45.72426" lon="6.71706">
        <ele>2844</ele>
        <time>2022-08-26T23:35:15Z</time>
      </trkpt>
      <trkpt lat="45.72423" lon="6.71708">
        <ele>2843</ele>
        <time>2022-08-26T23:35:17Z</time>
      </trkpt>
      <trkpt lat="45.7242" lon="6.7171">
        <ele>2843</ele>
        <time>2022-08-26T23:35:19Z</time>
      </trkpt>
      <trkpt lat="45.72417" lon="6.71714">
        <ele>2843</ele>
        <time>2022-08-26T23:35:21Z</time>
      </trkpt>
      <trkpt lat="45.72415" lon="6.71716">
        <ele>2842</ele>
        <time>2022-08-26T23:35:23Z</time>
      </trkpt>
      <trkpt lat="45.72412" lon="6.71718">
        <ele>2841</ele>
        <time>2022-08-26T23:35:25Z</time>
      </trkpt>
      <trkpt lat="45.7241" lon="6.71719">
        <ele>2841</ele>
        <time>2022-08-26T23:35:26Z</time>
      </trkpt>
      <trkpt lat="45.72409" lon="6.7172">
        <ele>2841</ele>
        <time>2022-08-26T23:35:27Z</time>
      </trkpt>
      <trkpt lat="45.72406" lon="6.71722">
        <ele>2841</ele>
        <time>2022-08-26T23:35:28Z</time>
      </trkpt>
      <trkpt lat="45.72405" lon="6.71722">
        <ele>2840</ele>
        <time>2022-08-26T23:35:29Z</time>
      </trkpt>
      <trkpt lat="45.72403" lon="6.71723">
        <ele>2840</ele>
        <time>2022-08-26T23:35:30Z</time>
      </trkpt>
      <trkpt lat="45.724" lon="6.71724">
        <ele>2840</ele>
        <time>2022-08-26T23:35:31Z</time>
      </trkpt>
      <trkpt lat="45.72399" lon="6.71724">
        <ele>2839</ele>
        <time>2022-08-26T23:35:32Z</time>
      </trkpt>
      <trkpt lat="45.72397" lon="6.71724">
        <ele>2839</ele>
        <time>2022-08-26T23:35:33Z</time>
      </trkpt>
      <trkpt lat="45.72395" lon="6.71724">
        <ele>2838</ele>
        <time>2022-08-26T23:35:34Z</time>
      </trkpt>
      <trkpt lat="45.72393" lon="6.71724">
        <ele>2838</ele>
        <time>2022-08-26T23:35:35Z</time>
      </trkpt>
      <trkpt lat="45.72391" lon="6.71724">
        <ele>2838</ele>
        <time>2022-08-26T23:35:36Z</time>
      </trkpt>
      <trkpt lat="45.72389" lon="6.71724">
        <ele>2837</ele>
        <time>2022-08-26T23:35:37Z</time>
      </trkpt>
      <trkpt lat="45.72387" lon="6.71724">
        <ele>2835</ele>
        <time>2022-08-26T23:35:38Z</time>
      </trkpt>
      <trkpt lat="45.72384" lon="6.71723">
        <ele>2835</ele>
        <time>2022-08-26T23:35:39Z</time>
      </trkpt>
      <trkpt lat="45.72382" lon="6.71723">
        <ele>2835</ele>
        <time>2022-08-26T23:35:40Z</time>
      </trkpt>
      <trkpt lat="45.72379" lon="6.71721">
        <ele>2835</ele>
        <time>2022-08-26T23:35:41Z</time>
      </trkpt>
      <trkpt lat="45.72378" lon="6.7172">
        <ele>2835</ele>
        <time>2022-08-26T23:35:42Z</time>
      </trkpt>
      <trkpt lat="45.72376" lon="6.71718">
        <ele>2834</ele>
        <time>2022-08-26T23:35:43Z</time>
      </trkpt>
      <trkpt lat="45.72374" lon="6.71716">
        <ele>2834</ele>
        <time>2022-08-26T23:35:44Z</time>
      </trkpt>
      <trkpt lat="45.72372" lon="6.71715">
        <ele>2833</ele>
        <time>2022-08-26T23:35:45Z</time>
      </trkpt>
      <trkpt lat="45.72371" lon="6.71715">
        <ele>2833</ele>
        <time>2022-08-26T23:35:46Z</time>
      </trkpt>
      <trkpt lat="45.72368" lon="6.71715">
        <ele>2832</ele>
        <time>2022-08-26T23:35:47Z</time>
      </trkpt>
      <trkpt lat="45.72366" lon="6.71714">
        <ele>2832</ele>
        <time>2022-08-26T23:35:48Z</time>
      </trkpt>
      <trkpt lat="45.72364" lon="6.71714">
        <ele>2832</ele>
        <time>2022-08-26T23:35:49Z</time>
      </trkpt>
      <trkpt lat="45.72362" lon="6.71714">
        <ele>2832</ele>
        <time>2022-08-26T23:35:50Z</time>
      </trkpt>
      <trkpt lat="45.72359" lon="6.71714">
        <ele>2832</ele>
        <time>2022-08-26T23:35:51Z</time>
      </trkpt>
      <trkpt lat="45.72358" lon="6.71713">
        <ele>2832</ele>
        <time>2022-08-26T23:35:52Z</time>
      </trkpt>
      <trkpt lat="45.72356" lon="6.71713">
        <ele>2832</ele>
        <time>2022-08-26T23:35:53Z</time>
      </trkpt>
      <trkpt lat="45.72354" lon="6.71712">
        <ele>2832</ele>
        <time>2022-08-26T23:35:54Z</time>
      </trkpt>
      <trkpt lat="45.72351" lon="6.71712">
        <ele>2832</ele>
        <time>2022-08-26T23:35:55Z</time>
      </trkpt>
      <trkpt lat="45.7235" lon="6.71712">
        <ele>2831</ele>
        <time>2022-08-26T23:35:56Z</time>
      </trkpt>
      <trkpt lat="45.72348" lon="6.71712">
        <ele>2831</ele>
        <time>2022-08-26T23:35:57Z</time>
      </trkpt>
      <trkpt lat="45.72346" lon="6.71712">
        <ele>2831</ele>
        <time>2022-08-26T23:35:58Z</time>
      </trkpt>
      <trkpt lat="45.72344" lon="6.71713">
        <ele>2831</ele>
        <time>2022-08-26T23:35:59Z</time>
      </trkpt>
      <trkpt lat="45.72342" lon="6.71713">
        <ele>2831</ele>
        <time>2022-08-26T23:36:00Z</time>
      </trkpt>
      <trkpt lat="45.7234" lon="6.71713">
        <ele>2831</ele>
        <time>2022-08-26T23:36:01Z</time>
      </trkpt>
      <trkpt lat="45.72338" lon="6.71714">
        <ele>2831</ele>
        <time>2022-08-26T23:36:02Z</time>
      </trkpt>
      <trkpt lat="45.72335" lon="6.71714">
        <ele>2830</ele>
        <time>2022-08-26T23:36:04Z</time>
      </trkpt>
      <trkpt lat="45.72332" lon="6.71714">
        <ele>2830</ele>
        <time>2022-08-26T23:36:06Z</time>
      </trkpt>
      <trkpt lat="45.72328" lon="6.71715">
        <ele>2829</ele>
        <time>2022-08-26T23:36:08Z</time>
      </trkpt>
      <trkpt lat="45.72326" lon="6.71716">
        <ele>2829</ele>
        <time>2022-08-26T23:36:09Z</time>
      </trkpt>
      <trkpt lat="45.72324" lon="6.71716">
        <ele>2829</ele>
        <time>2022-08-26T23:36:10Z</time>
      </trkpt>
      <trkpt lat="45.72322" lon="6.71717">
        <ele>2828</ele>
        <time>2022-08-26T23:36:11Z</time>
      </trkpt>
      <trkpt lat="45.7232" lon="6.71718">
        <ele>2827</ele>
        <time>2022-08-26T23:36:12Z</time>
      </trkpt>
      <trkpt lat="45.72317" lon="6.71719">
        <ele>2827</ele>
        <time>2022-08-26T23:36:14Z</time>
      </trkpt>
      <trkpt lat="45.72314" lon="6.71719">
        <ele>2827</ele>
        <time>2022-08-26T23:36:15Z</time>
      </trkpt>
      <trkpt lat="45.72313" lon="6.71719">
        <ele>2826</ele>
        <time>2022-08-26T23:36:16Z</time>
      </trkpt>
      <trkpt lat="45.72311" lon="6.71719">
        <ele>2825</ele>
        <time>2022-08-26T23:36:17Z</time>
      </trkpt>
      <trkpt lat="45.72309" lon="6.71719">
        <ele>2825</ele>
        <time>2022-08-26T23:36:18Z</time>
      </trkpt>
      <trkpt lat="45.72307" lon="6.71719">
        <ele>2825</ele>
        <time>2022-08-26T23:36:19Z</time>
      </trkpt>
      <trkpt lat="45.72305" lon="6.71718">
        <ele>2823</ele>
        <time>2022-08-26T23:36:20Z</time>
      </trkpt>
      <trkpt lat="45.72303" lon="6.71718">
        <ele>2823</ele>
        <time>2022-08-26T23:36:21Z</time>
      </trkpt>
      <trkpt lat="45.72301" lon="6.71718">
        <ele>2823</ele>
        <time>2022-08-26T23:36:22Z</time>
      </trkpt>
      <trkpt lat="45.72299" lon="6.71718">
        <ele>2822</ele>
        <time>2022-08-26T23:36:23Z</time>
      </trkpt>
      <trkpt lat="45.72297" lon="6.71718">
        <ele>2822</ele>
        <time>2022-08-26T23:36:24Z</time>
      </trkpt>
      <trkpt lat="45.72294" lon="6.71718">
        <ele>2822</ele>
        <time>2022-08-26T23:36:25Z</time>
      </trkpt>
      <trkpt lat="45.72293" lon="6.71719">
        <ele>2822</ele>
        <time>2022-08-26T23:36:26Z</time>
      </trkpt>
      <trkpt lat="45.7229" lon="6.7172">
        <ele>2822</ele>
        <time>2022-08-26T23:36:27Z</time>
      </trkpt>
      <trkpt lat="45.72289" lon="6.7172">
        <ele>2821</ele>
        <time>2022-08-26T23:36:28Z</time>
      </trkpt>
      <trkpt lat="45.72285" lon="6.71721">
        <ele>2821</ele>
        <time>2022-08-26T23:36:30Z</time>
      </trkpt>
      <trkpt lat="45.72284" lon="6.71722">
        <ele>2820</ele>
        <time>2022-08-26T23:36:31Z</time>
      </trkpt>
      <trkpt lat="45.7228" lon="6.71722">
        <ele>2819</ele>
        <time>2022-08-26T23:36:33Z</time>
      </trkpt>
      <trkpt lat="45.72277" lon="6.71723">
        <ele>2819</ele>
        <time>2022-08-26T23:36:35Z</time>
      </trkpt>
      <trkpt lat="45.72275" lon="6.71723">
        <ele>2818</ele>
        <time>2022-08-26T23:36:36Z</time>
      </trkpt>
      <trkpt lat="45.72271" lon="6.71724">
        <ele>2818</ele>
        <time>2022-08-26T23:36:37Z</time>
      </trkpt>
      <trkpt lat="45.7227" lon="6.71724">
        <ele>2817</ele>
        <time>2022-08-26T23:36:38Z</time>
      </trkpt>
      <trkpt lat="45.72268" lon="6.71724">
        <ele>2817</ele>
        <time>2022-08-26T23:36:39Z</time>
      </trkpt>
      <trkpt lat="45.72266" lon="6.71725">
        <ele>2816</ele>
        <time>2022-08-26T23:36:40Z</time>
      </trkpt>
      <trkpt lat="45.72264" lon="6.71726">
        <ele>2816</ele>
        <time>2022-08-26T23:36:41Z</time>
      </trkpt>
      <trkpt lat="45.72262" lon="6.71727">
        <ele>2816</ele>
        <time>2022-08-26T23:36:42Z</time>
      </trkpt>
      <trkpt lat="45.7226" lon="6.71728">
        <ele>2816</ele>
        <time>2022-08-26T23:36:43Z</time>
      </trkpt>
      <trkpt lat="45.72257" lon="6.7173">
        <ele>2816</ele>
        <time>2022-08-26T23:36:44Z</time>
      </trkpt>
      <trkpt lat="45.72256" lon="6.7173">
        <ele>2815</ele>
        <time>2022-08-26T23:36:45Z</time>
      </trkpt>
      <trkpt lat="45.72253" lon="6.71732">
        <ele>2815</ele>
        <time>2022-08-26T23:36:46Z</time>
      </trkpt>
      <trkpt lat="45.72252" lon="6.71733">
        <ele>2814</ele>
        <time>2022-08-26T23:36:47Z</time>
      </trkpt>
      <trkpt lat="45.72251" lon="6.71734">
        <ele>2814</ele>
        <time>2022-08-26T23:36:48Z</time>
      </trkpt>
      <trkpt lat="45.72247" lon="6.71737">
        <ele>2814</ele>
        <time>2022-08-26T23:36:50Z</time>
      </trkpt>
      <trkpt lat="45.72246" lon="6.71738">
        <ele>2814</ele>
        <time>2022-08-26T23:36:51Z</time>
      </trkpt>
      <trkpt lat="45.72244" lon="6.7174">
        <ele>2814</ele>
        <time>2022-08-26T23:36:52Z</time>
      </trkpt>
      <trkpt lat="45.72243" lon="6.71741">
        <ele>2813</ele>
        <time>2022-08-26T23:36:53Z</time>
      </trkpt>
      <trkpt lat="45.72241" lon="6.71743">
        <ele>2813</ele>
        <time>2022-08-26T23:36:54Z</time>
      </trkpt>
      <trkpt lat="45.72239" lon="6.71744">
        <ele>2811</ele>
        <time>2022-08-26T23:36:55Z</time>
      </trkpt>
      <trkpt lat="45.72238" lon="6.71746">
        <ele>2811</ele>
        <time>2022-08-26T23:36:56Z</time>
      </trkpt>
      <trkpt lat="45.72236" lon="6.71747">
        <ele>2810</ele>
        <time>2022-08-26T23:36:57Z</time>
      </trkpt>
      <trkpt lat="45.72234" lon="6.71749">
        <ele>2809</ele>
        <time>2022-08-26T23:36:58Z</time>
      </trkpt>
      <trkpt lat="45.72232" lon="6.7175">
        <ele>2809</ele>
        <time>2022-08-26T23:36:59Z</time>
      </trkpt>
      <trkpt lat="45.72231" lon="6.71752">
        <ele>2809</ele>
        <time>2022-08-26T23:37:00Z</time>
      </trkpt>
      <trkpt lat="45.72228" lon="6.71754">
        <ele>2809</ele>
        <time>2022-08-26T23:37:01Z</time>
      </trkpt>
      <trkpt lat="45.72227" lon="6.71755">
        <ele>2808</ele>
        <time>2022-08-26T23:37:02Z</time>
      </trkpt>
      <trkpt lat="45.72226" lon="6.71757">
        <ele>2808</ele>
        <time>2022-08-26T23:37:03Z</time>
      </trkpt>
      <trkpt lat="45.72223" lon="6.7176">
        <ele>2808</ele>
        <time>2022-08-26T23:37:05Z</time>
      </trkpt>
      <trkpt lat="45.72221" lon="6.71761">
        <ele>2808</ele>
        <time>2022-08-26T23:37:06Z</time>
      </trkpt>
      <trkpt lat="45.72219" lon="6.71763">
        <ele>2808</ele>
        <time>2022-08-26T23:37:07Z</time>
      </trkpt>
      <trkpt lat="45.72217" lon="6.71764">
        <ele>2807</ele>
        <time>2022-08-26T23:37:08Z</time>
      </trkpt>
      <trkpt lat="45.72215" lon="6.71764">
        <ele>2807</ele>
        <time>2022-08-26T23:37:10Z</time>
      </trkpt>
      <trkpt lat="45.72213" lon="6.71766">
        <ele>2806</ele>
        <time>2022-08-26T23:37:13Z</time>
      </trkpt>
      <trkpt lat="45.7221" lon="6.71769">
        <ele>2806</ele>
        <time>2022-08-26T23:37:15Z</time>
      </trkpt>
      <trkpt lat="45.72209" lon="6.71772">
        <ele>2806</ele>
        <time>2022-08-26T23:37:16Z</time>
      </trkpt>
      <trkpt lat="45.72208" lon="6.71774">
        <ele>2806</ele>
        <time>2022-08-26T23:37:17Z</time>
      </trkpt>
      <trkpt lat="45.72207" lon="6.71776">
        <ele>2806</ele>
        <time>2022-08-26T23:37:18Z</time>
      </trkpt>
      <trkpt lat="45.72206" lon="6.71778">
        <ele>2806</ele>
        <time>2022-08-26T23:37:19Z</time>
      </trkpt>
      <trkpt lat="45.72206" lon="6.7178">
        <ele>2806</ele>
        <time>2022-08-26T23:37:20Z</time>
      </trkpt>
      <trkpt lat="45.72205" lon="6.71783">
        <ele>2805</ele>
        <time>2022-08-26T23:37:21Z</time>
      </trkpt>
      <trkpt lat="45.72204" lon="6.71787">
        <ele>2805</ele>
        <time>2022-08-26T23:37:23Z</time>
      </trkpt>
      <trkpt lat="45.72204" lon="6.7179">
        <ele>2804</ele>
        <time>2022-08-26T23:37:24Z</time>
      </trkpt>
      <trkpt lat="45.72204" lon="6.71793">
        <ele>2804</ele>
        <time>2022-08-26T23:37:25Z</time>
      </trkpt>
      <trkpt lat="45.72204" lon="6.71796">
        <ele>2804</ele>
        <time>2022-08-26T23:37:26Z</time>
      </trkpt>
      <trkpt lat="45.72204" lon="6.71799">
        <ele>2804</ele>
        <time>2022-08-26T23:37:27Z</time>
      </trkpt>
      <trkpt lat="45.72205" lon="6.71801">
        <ele>2804</ele>
        <time>2022-08-26T23:37:28Z</time>
      </trkpt>
      <trkpt lat="45.72205" lon="6.71804">
        <ele>2804</ele>
        <time>2022-08-26T23:37:29Z</time>
      </trkpt>
      <trkpt lat="45.72206" lon="6.71807">
        <ele>2803</ele>
        <time>2022-08-26T23:37:30Z</time>
      </trkpt>
      <trkpt lat="45.72207" lon="6.7181">
        <ele>2803</ele>
        <time>2022-08-26T23:37:31Z</time>
      </trkpt>
      <trkpt lat="45.72207" lon="6.71813">
        <ele>2803</ele>
        <time>2022-08-26T23:37:32Z</time>
      </trkpt>
      <trkpt lat="45.72208" lon="6.71817">
        <ele>2802</ele>
        <time>2022-08-26T23:37:33Z</time>
      </trkpt>
      <trkpt lat="45.72209" lon="6.71821">
        <ele>2802</ele>
        <time>2022-08-26T23:37:34Z</time>
      </trkpt>
      <trkpt lat="45.72209" lon="6.71823">
        <ele>2802</ele>
        <time>2022-08-26T23:37:35Z</time>
      </trkpt>
      <trkpt lat="45.7221" lon="6.71826">
        <ele>2801</ele>
        <time>2022-08-26T23:37:36Z</time>
      </trkpt>
      <trkpt lat="45.72211" lon="6.71828">
        <ele>2799</ele>
        <time>2022-08-26T23:37:37Z</time>
      </trkpt>
      <trkpt lat="45.72211" lon="6.71831">
        <ele>2799</ele>
        <time>2022-08-26T23:37:38Z</time>
      </trkpt>
      <trkpt lat="45.72211" lon="6.71834">
        <ele>2799</ele>
        <time>2022-08-26T23:37:39Z</time>
      </trkpt>
      <trkpt lat="45.72212" lon="6.71837">
        <ele>2798</ele>
        <time>2022-08-26T23:37:40Z</time>
      </trkpt>
      <trkpt lat="45.72212" lon="6.71841">
        <ele>2797</ele>
        <time>2022-08-26T23:37:42Z</time>
      </trkpt>
      <trkpt lat="45.72212" lon="6.71844">
        <ele>2797</ele>
        <time>2022-08-26T23:37:43Z</time>
      </trkpt>
      <trkpt lat="45.72212" lon="6.71847">
        <ele>2796</ele>
        <time>2022-08-26T23:37:44Z</time>
      </trkpt>
      <trkpt lat="45.72215" lon="6.7185">
        <ele>2795</ele>
        <time>2022-08-26T23:37:46Z</time>
      </trkpt>
      <trkpt lat="45.72217" lon="6.71852">
        <ele>2795</ele>
        <time>2022-08-26T23:37:48Z</time>
      </trkpt>
      <trkpt lat="45.72218" lon="6.71855">
        <ele>2794</ele>
        <time>2022-08-26T23:37:49Z</time>
      </trkpt>
      <trkpt lat="45.72219" lon="6.71857">
        <ele>2794</ele>
        <time>2022-08-26T23:37:50Z</time>
      </trkpt>
      <trkpt lat="45.72219" lon="6.7186">
        <ele>2793</ele>
        <time>2022-08-26T23:37:51Z</time>
      </trkpt>
      <trkpt lat="45.7222" lon="6.71862">
        <ele>2793</ele>
        <time>2022-08-26T23:37:52Z</time>
      </trkpt>
      <trkpt lat="45.72221" lon="6.71865">
        <ele>2792</ele>
        <time>2022-08-26T23:37:53Z</time>
      </trkpt>
      <trkpt lat="45.72221" lon="6.71869">
        <ele>2792</ele>
        <time>2022-08-26T23:37:54Z</time>
      </trkpt>
      <trkpt lat="45.72221" lon="6.71871">
        <ele>2792</ele>
        <time>2022-08-26T23:37:55Z</time>
      </trkpt>
      <trkpt lat="45.7222" lon="6.71874">
        <ele>2792</ele>
        <time>2022-08-26T23:37:56Z</time>
      </trkpt>
      <trkpt lat="45.72219" lon="6.71876">
        <ele>2791</ele>
        <time>2022-08-26T23:37:57Z</time>
      </trkpt>
      <trkpt lat="45.72217" lon="6.71878">
        <ele>2791</ele>
        <time>2022-08-26T23:37:58Z</time>
      </trkpt>
      <trkpt lat="45.72215" lon="6.71879">
        <ele>2791</ele>
        <time>2022-08-26T23:37:59Z</time>
      </trkpt>
      <trkpt lat="45.72212" lon="6.71882">
        <ele>2791</ele>
        <time>2022-08-26T23:38:00Z</time>
      </trkpt>
      <trkpt lat="45.72211" lon="6.71883">
        <ele>2790</ele>
        <time>2022-08-26T23:38:01Z</time>
      </trkpt>
      <trkpt lat="45.72208" lon="6.71884">
        <ele>2790</ele>
        <time>2022-08-26T23:38:02Z</time>
      </trkpt>
      <trkpt lat="45.72206" lon="6.71886">
        <ele>2789</ele>
        <time>2022-08-26T23:38:03Z</time>
      </trkpt>
      <trkpt lat="45.72203" lon="6.71888">
        <ele>2789</ele>
        <time>2022-08-26T23:38:04Z</time>
      </trkpt>
      <trkpt lat="45.72203" lon="6.71889">
        <ele>2789</ele>
        <time>2022-08-26T23:38:05Z</time>
      </trkpt>
      <trkpt lat="45.722" lon="6.71891">
        <ele>2789</ele>
        <time>2022-08-26T23:38:06Z</time>
      </trkpt>
      <trkpt lat="45.72198" lon="6.71892">
        <ele>2789</ele>
        <time>2022-08-26T23:38:07Z</time>
      </trkpt>
      <trkpt lat="45.72197" lon="6.71893">
        <ele>2789</ele>
        <time>2022-08-26T23:38:08Z</time>
      </trkpt>
      <trkpt lat="45.72194" lon="6.71894">
        <ele>2789</ele>
        <time>2022-08-26T23:38:09Z</time>
      </trkpt>
      <trkpt lat="45.72192" lon="6.71894">
        <ele>2789</ele>
        <time>2022-08-26T23:38:10Z</time>
      </trkpt>
      <trkpt lat="45.7219" lon="6.71894">
        <ele>2789</ele>
        <time>2022-08-26T23:38:11Z</time>
      </trkpt>
      <trkpt lat="45.72188" lon="6.71895">
        <ele>2789</ele>
        <time>2022-08-26T23:38:12Z</time>
      </trkpt>
      <trkpt lat="45.72187" lon="6.71895">
        <ele>2787</ele>
        <time>2022-08-26T23:38:13Z</time>
      </trkpt>
      <trkpt lat="45.72184" lon="6.71896">
        <ele>2787</ele>
        <time>2022-08-26T23:38:14Z</time>
      </trkpt>
      <trkpt lat="45.72183" lon="6.71897">
        <ele>2787</ele>
        <time>2022-08-26T23:38:15Z</time>
      </trkpt>
      <trkpt lat="45.72181" lon="6.71898">
        <ele>2787</ele>
        <time>2022-08-26T23:38:16Z</time>
      </trkpt>
      <trkpt lat="45.72178" lon="6.719">
        <ele>2787</ele>
        <time>2022-08-26T23:38:17Z</time>
      </trkpt>
      <trkpt lat="45.72177" lon="6.719">
        <ele>2786</ele>
        <time>2022-08-26T23:38:18Z</time>
      </trkpt>
      <trkpt lat="45.72175" lon="6.71902">
        <ele>2786</ele>
        <time>2022-08-26T23:38:19Z</time>
      </trkpt>
      <trkpt lat="45.72172" lon="6.71904">
        <ele>2786</ele>
        <time>2022-08-26T23:38:21Z</time>
      </trkpt>
      <trkpt lat="45.7217" lon="6.71906">
        <ele>2785</ele>
        <time>2022-08-26T23:38:22Z</time>
      </trkpt>
      <trkpt lat="45.72168" lon="6.71909">
        <ele>2785</ele>
        <time>2022-08-26T23:38:23Z</time>
      </trkpt>
      <trkpt lat="45.72167" lon="6.7191">
        <ele>2784</ele>
        <time>2022-08-26T23:38:24Z</time>
      </trkpt>
      <trkpt lat="45.72166" lon="6.71912">
        <ele>2784</ele>
        <time>2022-08-26T23:38:25Z</time>
      </trkpt>
      <trkpt lat="45.72165" lon="6.71914">
        <ele>2784</ele>
        <time>2022-08-26T23:38:26Z</time>
      </trkpt>
      <trkpt lat="45.72163" lon="6.71918">
        <ele>2783</ele>
        <time>2022-08-26T23:38:28Z</time>
      </trkpt>
      <trkpt lat="45.7216" lon="6.71924">
        <ele>2783</ele>
        <time>2022-08-26T23:38:30Z</time>
      </trkpt>
      <trkpt lat="45.7216" lon="6.71925">
        <ele>2783</ele>
        <time>2022-08-26T23:38:31Z</time>
      </trkpt>
      <trkpt lat="45.72159" lon="6.71927">
        <ele>2783</ele>
        <time>2022-08-26T23:38:32Z</time>
      </trkpt>
      <trkpt lat="45.72158" lon="6.71932">
        <ele>2782</ele>
        <time>2022-08-26T23:38:34Z</time>
      </trkpt>
      <trkpt lat="45.72158" lon="6.71935">
        <ele>2782</ele>
        <time>2022-08-26T23:38:35Z</time>
      </trkpt>
      <trkpt lat="45.72158" lon="6.71938">
        <ele>2781</ele>
        <time>2022-08-26T23:38:36Z</time>
      </trkpt>
      <trkpt lat="45.72158" lon="6.7194">
        <ele>2781</ele>
        <time>2022-08-26T23:38:37Z</time>
      </trkpt>
      <trkpt lat="45.72158" lon="6.71945">
        <ele>2780</ele>
        <time>2022-08-26T23:38:39Z</time>
      </trkpt>
      <trkpt lat="45.7216" lon="6.71949">
        <ele>2780</ele>
        <time>2022-08-26T23:38:41Z</time>
      </trkpt>
      <trkpt lat="45.72163" lon="6.71952">
        <ele>2779</ele>
        <time>2022-08-26T23:38:43Z</time>
      </trkpt>
      <trkpt lat="45.72164" lon="6.71956">
        <ele>2778</ele>
        <time>2022-08-26T23:38:45Z</time>
      </trkpt>
      <trkpt lat="45.72163" lon="6.7196">
        <ele>2777</ele>
        <time>2022-08-26T23:38:47Z</time>
      </trkpt>
      <trkpt lat="45.72162" lon="6.71965">
        <ele>2775</ele>
        <time>2022-08-26T23:38:49Z</time>
      </trkpt>
      <trkpt lat="45.72161" lon="6.7197">
        <ele>2774</ele>
        <time>2022-08-26T23:38:51Z</time>
      </trkpt>
      <trkpt lat="45.72158" lon="6.71972">
        <ele>2774</ele>
        <time>2022-08-26T23:38:53Z</time>
      </trkpt>
      <trkpt lat="45.72156" lon="6.71975">
        <ele>2772</ele>
        <time>2022-08-26T23:38:55Z</time>
      </trkpt>
      <trkpt lat="45.72155" lon="6.71978">
        <ele>2772</ele>
        <time>2022-08-26T23:38:57Z</time>
      </trkpt>
      <trkpt lat="45.72154" lon="6.71982">
        <ele>2772</ele>
        <time>2022-08-26T23:38:59Z</time>
      </trkpt>
      <trkpt lat="45.72152" lon="6.71985">
        <ele>2769</ele>
        <time>2022-08-26T23:39:01Z</time>
      </trkpt>
      <trkpt lat="45.72149" lon="6.71984">
        <ele>2769</ele>
        <time>2022-08-26T23:39:03Z</time>
      </trkpt>
      <trkpt lat="45.72146" lon="6.71986">
        <ele>2768</ele>
        <time>2022-08-26T23:39:05Z</time>
      </trkpt>
      <trkpt lat="45.72144" lon="6.71988">
        <ele>2767</ele>
        <time>2022-08-26T23:39:07Z</time>
      </trkpt>
      <trkpt lat="45.72144" lon="6.71991">
        <ele>2767</ele>
        <time>2022-08-26T23:39:09Z</time>
      </trkpt>
      <trkpt lat="45.72144" lon="6.71995">
        <ele>2766</ele>
        <time>2022-08-26T23:39:11Z</time>
      </trkpt>
      <trkpt lat="45.72142" lon="6.71998">
        <ele>2766</ele>
        <time>2022-08-26T23:39:13Z</time>
      </trkpt>
      <trkpt lat="45.72139" lon="6.71998">
        <ele>2765</ele>
        <time>2022-08-26T23:39:15Z</time>
      </trkpt>
      <trkpt lat="45.72136" lon="6.71997">
        <ele>2765</ele>
        <time>2022-08-26T23:39:17Z</time>
      </trkpt>
      <trkpt lat="45.72134" lon="6.71999">
        <ele>2763</ele>
        <time>2022-08-26T23:39:19Z</time>
      </trkpt>
      <trkpt lat="45.72134" lon="6.72003">
        <ele>2762</ele>
        <time>2022-08-26T23:39:21Z</time>
      </trkpt>
      <trkpt lat="45.72135" lon="6.72008">
        <ele>2761</ele>
        <time>2022-08-26T23:39:23Z</time>
      </trkpt>
      <trkpt lat="45.72137" lon="6.72012">
        <ele>2761</ele>
        <time>2022-08-26T23:39:25Z</time>
      </trkpt>
      <trkpt lat="45.72139" lon="6.72016">
        <ele>2760</ele>
        <time>2022-08-26T23:39:27Z</time>
      </trkpt>
      <trkpt lat="45.72139" lon="6.72019">
        <ele>2758</ele>
        <time>2022-08-26T23:39:29Z</time>
      </trkpt>
      <trkpt lat="45.72138" lon="6.72023">
        <ele>2758</ele>
        <time>2022-08-26T23:39:31Z</time>
      </trkpt>
      <trkpt lat="45.72135" lon="6.72025">
        <ele>2757</ele>
        <time>2022-08-26T23:39:33Z</time>
      </trkpt>
      <trkpt lat="45.72133" lon="6.72027">
        <ele>2757</ele>
        <time>2022-08-26T23:39:35Z</time>
      </trkpt>
      <trkpt lat="45.7213" lon="6.72028">
        <ele>2756</ele>
        <time>2022-08-26T23:39:37Z</time>
      </trkpt>
      <trkpt lat="45.72129" lon="6.72032">
        <ele>2754</ele>
        <time>2022-08-26T23:39:39Z</time>
      </trkpt>
      <trkpt lat="45.72129" lon="6.72036">
        <ele>2754</ele>
        <time>2022-08-26T23:39:41Z</time>
      </trkpt>
      <trkpt lat="45.72126" lon="6.72037">
        <ele>2751</ele>
        <time>2022-08-26T23:39:43Z</time>
      </trkpt>
      <trkpt lat="45.72124" lon="6.72038">
        <ele>2751</ele>
        <time>2022-08-26T23:39:44Z</time>
      </trkpt>
      <trkpt lat="45.72122" lon="6.72038">
        <ele>2751</ele>
        <time>2022-08-26T23:39:45Z</time>
      </trkpt>
      <trkpt lat="45.7212" lon="6.72038">
        <ele>2750</ele>
        <time>2022-08-26T23:39:46Z</time>
      </trkpt>
      <trkpt lat="45.72118" lon="6.72039">
        <ele>2750</ele>
        <time>2022-08-26T23:39:47Z</time>
      </trkpt>
      <trkpt lat="45.72117" lon="6.7204">
        <ele>2749</ele>
        <time>2022-08-26T23:39:48Z</time>
      </trkpt>
      <trkpt lat="45.72114" lon="6.72042">
        <ele>2748</ele>
        <time>2022-08-26T23:39:50Z</time>
      </trkpt>
      <trkpt lat="45.7211" lon="6.72042">
        <ele>2747</ele>
        <time>2022-08-26T23:39:52Z</time>
      </trkpt>
      <trkpt lat="45.72106" lon="6.72044">
        <ele>2747</ele>
        <time>2022-08-26T23:39:54Z</time>
      </trkpt>
      <trkpt lat="45.72105" lon="6.72045">
        <ele>2747</ele>
        <time>2022-08-26T23:39:55Z</time>
      </trkpt>
      <trkpt lat="45.72103" lon="6.72045">
        <ele>2747</ele>
        <time>2022-08-26T23:39:56Z</time>
      </trkpt>
      <trkpt lat="45.72101" lon="6.72045">
        <ele>2744</ele>
        <time>2022-08-26T23:39:57Z</time>
      </trkpt>
      <trkpt lat="45.72098" lon="6.72046">
        <ele>2744</ele>
        <time>2022-08-26T23:39:58Z</time>
      </trkpt>
      <trkpt lat="45.72097" lon="6.72046">
        <ele>2744</ele>
        <time>2022-08-26T23:39:59Z</time>
      </trkpt>
      <trkpt lat="45.72095" lon="6.72046">
        <ele>2744</ele>
        <time>2022-08-26T23:40:00Z</time>
      </trkpt>
      <trkpt lat="45.72093" lon="6.72047">
        <ele>2744</ele>
        <time>2022-08-26T23:40:01Z</time>
      </trkpt>
      <trkpt lat="45.72092" lon="6.72049">
        <ele>2743</ele>
        <time>2022-08-26T23:40:02Z</time>
      </trkpt>
      <trkpt lat="45.72091" lon="6.72054">
        <ele>2743</ele>
        <time>2022-08-26T23:40:04Z</time>
      </trkpt>
      <trkpt lat="45.72092" lon="6.72055">
        <ele>2743</ele>
        <time>2022-08-26T23:40:05Z</time>
      </trkpt>
      <trkpt lat="45.72094" lon="6.72057">
        <ele>2742</ele>
        <time>2022-08-26T23:40:06Z</time>
      </trkpt>
      <trkpt lat="45.72096" lon="6.72058">
        <ele>2742</ele>
        <time>2022-08-26T23:40:07Z</time>
      </trkpt>
      <trkpt lat="45.72097" lon="6.7206">
        <ele>2742</ele>
        <time>2022-08-26T23:40:08Z</time>
      </trkpt>
      <trkpt lat="45.721" lon="6.72062">
        <ele>2742</ele>
        <time>2022-08-26T23:40:09Z</time>
      </trkpt>
      <trkpt lat="45.721" lon="6.72064">
        <ele>2741</ele>
        <time>2022-08-26T23:40:10Z</time>
      </trkpt>
      <trkpt lat="45.72101" lon="6.72066">
        <ele>2740</ele>
        <time>2022-08-26T23:40:11Z</time>
      </trkpt>
      <trkpt lat="45.721" lon="6.72069">
        <ele>2738</ele>
        <time>2022-08-26T23:40:12Z</time>
      </trkpt>
      <trkpt lat="45.72101" lon="6.72074">
        <ele>2738</ele>
        <time>2022-08-26T23:40:13Z</time>
      </trkpt>
      <trkpt lat="45.72101" lon="6.72075">
        <ele>2738</ele>
        <time>2022-08-26T23:40:14Z</time>
      </trkpt>
      <trkpt lat="45.72101" lon="6.72078">
        <ele>2737</ele>
        <time>2022-08-26T23:40:15Z</time>
      </trkpt>
      <trkpt lat="45.721" lon="6.72081">
        <ele>2737</ele>
        <time>2022-08-26T23:40:16Z</time>
      </trkpt>
      <trkpt lat="45.72098" lon="6.72085">
        <ele>2737</ele>
        <time>2022-08-26T23:40:17Z</time>
      </trkpt>
      <trkpt lat="45.72098" lon="6.72086">
        <ele>2737</ele>
        <time>2022-08-26T23:40:18Z</time>
      </trkpt>
      <trkpt lat="45.72096" lon="6.72089">
        <ele>2737</ele>
        <time>2022-08-26T23:40:19Z</time>
      </trkpt>
      <trkpt lat="45.72095" lon="6.72091">
        <ele>2737</ele>
        <time>2022-08-26T23:40:20Z</time>
      </trkpt>
      <trkpt lat="45.72094" lon="6.72094">
        <ele>2737</ele>
        <time>2022-08-26T23:40:21Z</time>
      </trkpt>
      <trkpt lat="45.72093" lon="6.72096">
        <ele>2737</ele>
        <time>2022-08-26T23:40:22Z</time>
      </trkpt>
      <trkpt lat="45.72091" lon="6.721">
        <ele>2736</ele>
        <time>2022-08-26T23:40:24Z</time>
      </trkpt>
      <trkpt lat="45.72091" lon="6.72105">
        <ele>2736</ele>
        <time>2022-08-26T23:40:26Z</time>
      </trkpt>
      <trkpt lat="45.7209" lon="6.72108">
        <ele>2736</ele>
        <time>2022-08-26T23:40:27Z</time>
      </trkpt>
      <trkpt lat="45.72089" lon="6.72113">
        <ele>2735</ele>
        <time>2022-08-26T23:40:29Z</time>
      </trkpt>
      <trkpt lat="45.72086" lon="6.72115">
        <ele>2735</ele>
        <time>2022-08-26T23:40:31Z</time>
      </trkpt>
      <trkpt lat="45.72083" lon="6.72116">
        <ele>2735</ele>
        <time>2022-08-26T23:40:33Z</time>
      </trkpt>
      <trkpt lat="45.72081" lon="6.72118">
        <ele>2735</ele>
        <time>2022-08-26T23:40:35Z</time>
      </trkpt>
      <trkpt lat="45.72078" lon="6.72121">
        <ele>2735</ele>
        <time>2022-08-26T23:40:37Z</time>
      </trkpt>
      <trkpt lat="45.72076" lon="6.72123">
        <ele>2734</ele>
        <time>2022-08-26T23:40:39Z</time>
      </trkpt>
      <trkpt lat="45.72074" lon="6.72124">
        <ele>2734</ele>
        <time>2022-08-26T23:40:40Z</time>
      </trkpt>
      <trkpt lat="45.72073" lon="6.72125">
        <ele>2734</ele>
        <time>2022-08-26T23:40:41Z</time>
      </trkpt>
      <trkpt lat="45.72071" lon="6.72126">
        <ele>2734</ele>
        <time>2022-08-26T23:40:42Z</time>
      </trkpt>
      <trkpt lat="45.72069" lon="6.72126">
        <ele>2734</ele>
        <time>2022-08-26T23:40:43Z</time>
      </trkpt>
      <trkpt lat="45.72067" lon="6.72125">
        <ele>2733</ele>
        <time>2022-08-26T23:40:44Z</time>
      </trkpt>
      <trkpt lat="45.72065" lon="6.72124">
        <ele>2733</ele>
        <time>2022-08-26T23:40:45Z</time>
      </trkpt>
      <trkpt lat="45.72064" lon="6.72122">
        <ele>2733</ele>
        <time>2022-08-26T23:40:46Z</time>
      </trkpt>
      <trkpt lat="45.72062" lon="6.72121">
        <ele>2732</ele>
        <time>2022-08-26T23:40:47Z</time>
      </trkpt>
      <trkpt lat="45.7206" lon="6.72119">
        <ele>2732</ele>
        <time>2022-08-26T23:40:48Z</time>
      </trkpt>
      <trkpt lat="45.72058" lon="6.72118">
        <ele>2732</ele>
        <time>2022-08-26T23:40:49Z</time>
      </trkpt>
      <trkpt lat="45.72056" lon="6.72117">
        <ele>2732</ele>
        <time>2022-08-26T23:40:50Z</time>
      </trkpt>
      <trkpt lat="45.72055" lon="6.72116">
        <ele>2732</ele>
        <time>2022-08-26T23:40:51Z</time>
      </trkpt>
      <trkpt lat="45.72052" lon="6.72114">
        <ele>2731</ele>
        <time>2022-08-26T23:40:53Z</time>
      </trkpt>
      <trkpt lat="45.72049" lon="6.72116">
        <ele>2729</ele>
        <time>2022-08-26T23:40:55Z</time>
      </trkpt>
      <trkpt lat="45.72048" lon="6.7212">
        <ele>2728</ele>
        <time>2022-08-26T23:40:57Z</time>
      </trkpt>
      <trkpt lat="45.72049" lon="6.72123">
        <ele>2728</ele>
        <time>2022-08-26T23:40:58Z</time>
      </trkpt>
      <trkpt lat="45.7205" lon="6.72128">
        <ele>2726</ele>
        <time>2022-08-26T23:41:00Z</time>
      </trkpt>
      <trkpt lat="45.72051" lon="6.72132">
        <ele>2726</ele>
        <time>2022-08-26T23:41:01Z</time>
      </trkpt>
      <trkpt lat="45.72051" lon="6.72133">
        <ele>2725</ele>
        <time>2022-08-26T23:41:02Z</time>
      </trkpt>
      <trkpt lat="45.72052" lon="6.72138">
        <ele>2724</ele>
        <time>2022-08-26T23:41:04Z</time>
      </trkpt>
      <trkpt lat="45.72053" lon="6.72141">
        <ele>2724</ele>
        <time>2022-08-26T23:41:05Z</time>
      </trkpt>
      <trkpt lat="45.72053" lon="6.72145">
        <ele>2724</ele>
        <time>2022-08-26T23:41:06Z</time>
      </trkpt>
      <trkpt lat="45.72054" lon="6.72147">
        <ele>2723</ele>
        <time>2022-08-26T23:41:07Z</time>
      </trkpt>
      <trkpt lat="45.72054" lon="6.72149">
        <ele>2723</ele>
        <time>2022-08-26T23:41:08Z</time>
      </trkpt>
      <trkpt lat="45.72054" lon="6.72152">
        <ele>2722</ele>
        <time>2022-08-26T23:41:09Z</time>
      </trkpt>
      <trkpt lat="45.72054" lon="6.72155">
        <ele>2722</ele>
        <time>2022-08-26T23:41:10Z</time>
      </trkpt>
      <trkpt lat="45.72053" lon="6.72158">
        <ele>2722</ele>
        <time>2022-08-26T23:41:11Z</time>
      </trkpt>
      <trkpt lat="45.72052" lon="6.7216">
        <ele>2722</ele>
        <time>2022-08-26T23:41:12Z</time>
      </trkpt>
      <trkpt lat="45.72049" lon="6.72166">
        <ele>2720</ele>
        <time>2022-08-26T23:41:14Z</time>
      </trkpt>
      <trkpt lat="45.72048" lon="6.72167">
        <ele>2720</ele>
        <time>2022-08-26T23:41:15Z</time>
      </trkpt>
      <trkpt lat="45.72045" lon="6.72169">
        <ele>2720</ele>
        <time>2022-08-26T23:41:17Z</time>
      </trkpt>
      <trkpt lat="45.72043" lon="6.72171">
        <ele>2720</ele>
        <time>2022-08-26T23:41:18Z</time>
      </trkpt>
      <trkpt lat="45.7204" lon="6.72172">
        <ele>2720</ele>
        <time>2022-08-26T23:41:20Z</time>
      </trkpt>
      <trkpt lat="45.72038" lon="6.72172">
        <ele>2720</ele>
        <time>2022-08-26T23:41:21Z</time>
      </trkpt>
      <trkpt lat="45.72036" lon="6.72172">
        <ele>2720</ele>
        <time>2022-08-26T23:41:22Z</time>
      </trkpt>
      <trkpt lat="45.72034" lon="6.72173">
        <ele>2720</ele>
        <time>2022-08-26T23:41:23Z</time>
      </trkpt>
      <trkpt lat="45.72032" lon="6.72173">
        <ele>2720</ele>
        <time>2022-08-26T23:41:24Z</time>
      </trkpt>
      <trkpt lat="45.72029" lon="6.72176">
        <ele>2719</ele>
        <time>2022-08-26T23:41:26Z</time>
      </trkpt>
      <trkpt lat="45.72028" lon="6.72177">
        <ele>2719</ele>
        <time>2022-08-26T23:41:27Z</time>
      </trkpt>
      <trkpt lat="45.72026" lon="6.7218">
        <ele>2719</ele>
        <time>2022-08-26T23:41:28Z</time>
      </trkpt>
      <trkpt lat="45.72024" lon="6.72184">
        <ele>2719</ele>
        <time>2022-08-26T23:41:29Z</time>
      </trkpt>
      <trkpt lat="45.72023" lon="6.72185">
        <ele>2719</ele>
        <time>2022-08-26T23:41:30Z</time>
      </trkpt>
      <trkpt lat="45.72021" lon="6.7219">
        <ele>2719</ele>
        <time>2022-08-26T23:41:31Z</time>
      </trkpt>
      <trkpt lat="45.72021" lon="6.72192">
        <ele>2717</ele>
        <time>2022-08-26T23:41:32Z</time>
      </trkpt>
      <trkpt lat="45.72019" lon="6.72197">
        <ele>2717</ele>
        <time>2022-08-26T23:41:33Z</time>
      </trkpt>
      <trkpt lat="45.72018" lon="6.72199">
        <ele>2717</ele>
        <time>2022-08-26T23:41:34Z</time>
      </trkpt>
      <trkpt lat="45.72017" lon="6.72202">
        <ele>2716</ele>
        <time>2022-08-26T23:41:35Z</time>
      </trkpt>
      <trkpt lat="45.72015" lon="6.72204">
        <ele>2716</ele>
        <time>2022-08-26T23:41:36Z</time>
      </trkpt>
      <trkpt lat="45.72013" lon="6.72206">
        <ele>2716</ele>
        <time>2022-08-26T23:41:37Z</time>
      </trkpt>
      <trkpt lat="45.7201" lon="6.7221">
        <ele>2716</ele>
        <time>2022-08-26T23:41:38Z</time>
      </trkpt>
      <trkpt lat="45.72009" lon="6.72211">
        <ele>2716</ele>
        <time>2022-08-26T23:41:39Z</time>
      </trkpt>
      <trkpt lat="45.72008" lon="6.72213">
        <ele>2716</ele>
        <time>2022-08-26T23:41:40Z</time>
      </trkpt>
      <trkpt lat="45.72006" lon="6.72215">
        <ele>2716</ele>
        <time>2022-08-26T23:41:41Z</time>
      </trkpt>
      <trkpt lat="45.72004" lon="6.72217">
        <ele>2716</ele>
        <time>2022-08-26T23:41:42Z</time>
      </trkpt>
      <trkpt lat="45.72002" lon="6.72219">
        <ele>2716</ele>
        <time>2022-08-26T23:41:43Z</time>
      </trkpt>
      <trkpt lat="45.72001" lon="6.7222">
        <ele>2716</ele>
        <time>2022-08-26T23:41:44Z</time>
      </trkpt>
      <trkpt lat="45.71998" lon="6.72223">
        <ele>2716</ele>
        <time>2022-08-26T23:41:45Z</time>
      </trkpt>
      <trkpt lat="45.71997" lon="6.72224">
        <ele>2716</ele>
        <time>2022-08-26T23:41:46Z</time>
      </trkpt>
      <trkpt lat="45.71995" lon="6.72225">
        <ele>2716</ele>
        <time>2022-08-26T23:41:47Z</time>
      </trkpt>
      <trkpt lat="45.71992" lon="6.72228">
        <ele>2716</ele>
        <time>2022-08-26T23:41:48Z</time>
      </trkpt>
      <trkpt lat="45.71991" lon="6.72229">
        <ele>2714</ele>
        <time>2022-08-26T23:41:49Z</time>
      </trkpt>
      <trkpt lat="45.71989" lon="6.72231">
        <ele>2714</ele>
        <time>2022-08-26T23:41:50Z</time>
      </trkpt>
      <trkpt lat="45.71988" lon="6.72233">
        <ele>2714</ele>
        <time>2022-08-26T23:41:51Z</time>
      </trkpt>
      <trkpt lat="45.71986" lon="6.72237">
        <ele>2714</ele>
        <time>2022-08-26T23:41:52Z</time>
      </trkpt>
      <trkpt lat="45.71985" lon="6.72238">
        <ele>2713</ele>
        <time>2022-08-26T23:41:53Z</time>
      </trkpt>
      <trkpt lat="45.71984" lon="6.72241">
        <ele>2713</ele>
        <time>2022-08-26T23:41:54Z</time>
      </trkpt>
      <trkpt lat="45.71983" lon="6.72243">
        <ele>2713</ele>
        <time>2022-08-26T23:41:55Z</time>
      </trkpt>
      <trkpt lat="45.71982" lon="6.72246">
        <ele>2712</ele>
        <time>2022-08-26T23:41:56Z</time>
      </trkpt>
      <trkpt lat="45.7198" lon="6.72248">
        <ele>2712</ele>
        <time>2022-08-26T23:41:57Z</time>
      </trkpt>
      <trkpt lat="45.71978" lon="6.72249">
        <ele>2710</ele>
        <time>2022-08-26T23:41:58Z</time>
      </trkpt>
      <trkpt lat="45.71977" lon="6.72251">
        <ele>2710</ele>
        <time>2022-08-26T23:41:59Z</time>
      </trkpt>
      <trkpt lat="45.71975" lon="6.72252">
        <ele>2710</ele>
        <time>2022-08-26T23:42:00Z</time>
      </trkpt>
      <trkpt lat="45.71972" lon="6.72255">
        <ele>2709</ele>
        <time>2022-08-26T23:42:02Z</time>
      </trkpt>
      <trkpt lat="45.71972" lon="6.72258">
        <ele>2708</ele>
        <time>2022-08-26T23:42:04Z</time>
      </trkpt>
      <trkpt lat="45.71971" lon="6.72262">
        <ele>2707</ele>
        <time>2022-08-26T23:42:06Z</time>
      </trkpt>
      <trkpt lat="45.71973" lon="6.72264">
        <ele>2707</ele>
        <time>2022-08-26T23:42:08Z</time>
      </trkpt>
      <trkpt lat="45.71974" lon="6.72266">
        <ele>2707</ele>
        <time>2022-08-26T23:42:09Z</time>
      </trkpt>
      <trkpt lat="45.71976" lon="6.72268">
        <ele>2706</ele>
        <time>2022-08-26T23:42:10Z</time>
      </trkpt>
      <trkpt lat="45.71977" lon="6.7227">
        <ele>2706</ele>
        <time>2022-08-26T23:42:11Z</time>
      </trkpt>
      <trkpt lat="45.71979" lon="6.72273">
        <ele>2706</ele>
        <time>2022-08-26T23:42:12Z</time>
      </trkpt>
      <trkpt lat="45.7198" lon="6.72273">
        <ele>2706</ele>
        <time>2022-08-26T23:42:13Z</time>
      </trkpt>
      <trkpt lat="45.71982" lon="6.72275">
        <ele>2706</ele>
        <time>2022-08-26T23:42:14Z</time>
      </trkpt>
      <trkpt lat="45.71983" lon="6.72277">
        <ele>2706</ele>
        <time>2022-08-26T23:42:15Z</time>
      </trkpt>
      <trkpt lat="45.71986" lon="6.72279">
        <ele>2705</ele>
        <time>2022-08-26T23:42:17Z</time>
      </trkpt>
      <trkpt lat="45.71986" lon="6.72284">
        <ele>2705</ele>
        <time>2022-08-26T23:42:19Z</time>
      </trkpt>
      <trkpt lat="45.71985" lon="6.72286">
        <ele>2704</ele>
        <time>2022-08-26T23:42:21Z</time>
      </trkpt>
      <trkpt lat="45.71982" lon="6.72289">
        <ele>2704</ele>
        <time>2022-08-26T23:42:23Z</time>
      </trkpt>
      <trkpt lat="45.71979" lon="6.72291">
        <ele>2704</ele>
        <time>2022-08-26T23:42:25Z</time>
      </trkpt>
      <trkpt lat="45.71975" lon="6.72293">
        <ele>2704</ele>
        <time>2022-08-26T23:42:27Z</time>
      </trkpt>
      <trkpt lat="45.71972" lon="6.72296">
        <ele>2704</ele>
        <time>2022-08-26T23:42:29Z</time>
      </trkpt>
      <trkpt lat="45.7197" lon="6.72298">
        <ele>2704</ele>
        <time>2022-08-26T23:42:31Z</time>
      </trkpt>
      <trkpt lat="45.71968" lon="6.72302">
        <ele>2704</ele>
        <time>2022-08-26T23:42:33Z</time>
      </trkpt>
      <trkpt lat="45.71966" lon="6.72306">
        <ele>2704</ele>
        <time>2022-08-26T23:42:35Z</time>
      </trkpt>
      <trkpt lat="45.71965" lon="6.72309">
        <ele>2704</ele>
        <time>2022-08-26T23:42:36Z</time>
      </trkpt>
      <trkpt lat="45.71964" lon="6.72312">
        <ele>2704</ele>
        <time>2022-08-26T23:42:37Z</time>
      </trkpt>
      <trkpt lat="45.71963" lon="6.72316">
        <ele>2704</ele>
        <time>2022-08-26T23:42:38Z</time>
      </trkpt>
      <trkpt lat="45.71963" lon="6.72317">
        <ele>2702</ele>
        <time>2022-08-26T23:42:39Z</time>
      </trkpt>
      <trkpt lat="45.71961" lon="6.72321">
        <ele>2702</ele>
        <time>2022-08-26T23:42:40Z</time>
      </trkpt>
      <trkpt lat="45.71961" lon="6.72323">
        <ele>2702</ele>
        <time>2022-08-26T23:42:41Z</time>
      </trkpt>
      <trkpt lat="45.7196" lon="6.72325">
        <ele>2702</ele>
        <time>2022-08-26T23:42:42Z</time>
      </trkpt>
      <trkpt lat="45.71959" lon="6.72328">
        <ele>2702</ele>
        <time>2022-08-26T23:42:43Z</time>
      </trkpt>
      <trkpt lat="45.71958" lon="6.72331">
        <ele>2702</ele>
        <time>2022-08-26T23:42:44Z</time>
      </trkpt>
      <trkpt lat="45.71957" lon="6.72334">
        <ele>2702</ele>
        <time>2022-08-26T23:42:45Z</time>
      </trkpt>
      <trkpt lat="45.71957" lon="6.72336">
        <ele>2702</ele>
        <time>2022-08-26T23:42:46Z</time>
      </trkpt>
      <trkpt lat="45.71955" lon="6.72341">
        <ele>2701</ele>
        <time>2022-08-26T23:42:48Z</time>
      </trkpt>
      <trkpt lat="45.71954" lon="6.72344">
        <ele>2701</ele>
        <time>2022-08-26T23:42:49Z</time>
      </trkpt>
      <trkpt lat="45.71953" lon="6.72347">
        <ele>2701</ele>
        <time>2022-08-26T23:42:50Z</time>
      </trkpt>
      <trkpt lat="45.71953" lon="6.7235">
        <ele>2701</ele>
        <time>2022-08-26T23:42:51Z</time>
      </trkpt>
      <trkpt lat="45.71951" lon="6.72354">
        <ele>2701</ele>
        <time>2022-08-26T23:42:53Z</time>
      </trkpt>
      <trkpt lat="45.7195" lon="6.72356">
        <ele>2701</ele>
        <time>2022-08-26T23:42:54Z</time>
      </trkpt>
      <trkpt lat="45.71946" lon="6.72357">
        <ele>2701</ele>
        <time>2022-08-26T23:42:56Z</time>
      </trkpt>
      <trkpt lat="45.71943" lon="6.72359">
        <ele>2701</ele>
        <time>2022-08-26T23:42:58Z</time>
      </trkpt>
      <trkpt lat="45.71941" lon="6.7236">
        <ele>2701</ele>
        <time>2022-08-26T23:42:59Z</time>
      </trkpt>
      <trkpt lat="45.7194" lon="6.72361">
        <ele>2701</ele>
        <time>2022-08-26T23:43:00Z</time>
      </trkpt>
      <trkpt lat="45.71938" lon="6.72362">
        <ele>2701</ele>
        <time>2022-08-26T23:43:01Z</time>
      </trkpt>
      <trkpt lat="45.71936" lon="6.72364">
        <ele>2701</ele>
        <time>2022-08-26T23:43:02Z</time>
      </trkpt>
      <trkpt lat="45.71934" lon="6.72366">
        <ele>2701</ele>
        <time>2022-08-26T23:43:03Z</time>
      </trkpt>
      <trkpt lat="45.71932" lon="6.72369">
        <ele>2701</ele>
        <time>2022-08-26T23:43:04Z</time>
      </trkpt>
      <trkpt lat="45.71931" lon="6.7237">
        <ele>2701</ele>
        <time>2022-08-26T23:43:05Z</time>
      </trkpt>
      <trkpt lat="45.7193" lon="6.72371">
        <ele>2701</ele>
        <time>2022-08-26T23:43:06Z</time>
      </trkpt>
      <trkpt lat="45.71928" lon="6.72373">
        <ele>2701</ele>
        <time>2022-08-26T23:43:07Z</time>
      </trkpt>
      <trkpt lat="45.71926" lon="6.72374">
        <ele>2701</ele>
        <time>2022-08-26T23:43:08Z</time>
      </trkpt>
      <trkpt lat="45.71924" lon="6.72376">
        <ele>2701</ele>
        <time>2022-08-26T23:43:09Z</time>
      </trkpt>
      <trkpt lat="45.71922" lon="6.72377">
        <ele>2701</ele>
        <time>2022-08-26T23:43:10Z</time>
      </trkpt>
      <trkpt lat="45.7192" lon="6.72379">
        <ele>2701</ele>
        <time>2022-08-26T23:43:11Z</time>
      </trkpt>
      <trkpt lat="45.71919" lon="6.7238">
        <ele>2700</ele>
        <time>2022-08-26T23:43:12Z</time>
      </trkpt>
      <trkpt lat="45.71917" lon="6.72381">
        <ele>2700</ele>
        <time>2022-08-26T23:43:13Z</time>
      </trkpt>
      <trkpt lat="45.71914" lon="6.72384">
        <ele>2700</ele>
        <time>2022-08-26T23:43:15Z</time>
      </trkpt>
      <trkpt lat="45.71912" lon="6.72385">
        <ele>2700</ele>
        <time>2022-08-26T23:43:16Z</time>
      </trkpt>
      <trkpt lat="45.71911" lon="6.72386">
        <ele>2700</ele>
        <time>2022-08-26T23:43:17Z</time>
      </trkpt>
      <trkpt lat="45.71909" lon="6.72387">
        <ele>2700</ele>
        <time>2022-08-26T23:43:18Z</time>
      </trkpt>
      <trkpt lat="45.71906" lon="6.7239">
        <ele>2700</ele>
        <time>2022-08-26T23:43:20Z</time>
      </trkpt>
      <trkpt lat="45.71904" lon="6.72392">
        <ele>2700</ele>
        <time>2022-08-26T23:43:21Z</time>
      </trkpt>
      <trkpt lat="45.71903" lon="6.72393">
        <ele>2700</ele>
        <time>2022-08-26T23:43:22Z</time>
      </trkpt>
      <trkpt lat="45.71902" lon="6.72396">
        <ele>2700</ele>
        <time>2022-08-26T23:43:23Z</time>
      </trkpt>
      <trkpt lat="45.71901" lon="6.72398">
        <ele>2699</ele>
        <time>2022-08-26T23:43:24Z</time>
      </trkpt>
      <trkpt lat="45.719" lon="6.72401">
        <ele>2699</ele>
        <time>2022-08-26T23:43:25Z</time>
      </trkpt>
      <trkpt lat="45.71899" lon="6.72403">
        <ele>2699</ele>
        <time>2022-08-26T23:43:26Z</time>
      </trkpt>
      <trkpt lat="45.71898" lon="6.72406">
        <ele>2698</ele>
        <time>2022-08-26T23:43:27Z</time>
      </trkpt>
      <trkpt lat="45.71897" lon="6.72409">
        <ele>2698</ele>
        <time>2022-08-26T23:43:28Z</time>
      </trkpt>
      <trkpt lat="45.71896" lon="6.72411">
        <ele>2698</ele>
        <time>2022-08-26T23:43:29Z</time>
      </trkpt>
      <trkpt lat="45.71895" lon="6.72414">
        <ele>2698</ele>
        <time>2022-08-26T23:43:30Z</time>
      </trkpt>
      <trkpt lat="45.71895" lon="6.72416">
        <ele>2698</ele>
        <time>2022-08-26T23:43:31Z</time>
      </trkpt>
      <trkpt lat="45.71894" lon="6.72419">
        <ele>2697</ele>
        <time>2022-08-26T23:43:32Z</time>
      </trkpt>
      <trkpt lat="45.71893" lon="6.72422">
        <ele>2697</ele>
        <time>2022-08-26T23:43:33Z</time>
      </trkpt>
      <trkpt lat="45.71893" lon="6.72425">
        <ele>2697</ele>
        <time>2022-08-26T23:43:34Z</time>
      </trkpt>
      <trkpt lat="45.71892" lon="6.72428">
        <ele>2697</ele>
        <time>2022-08-26T23:43:35Z</time>
      </trkpt>
      <trkpt lat="45.71891" lon="6.72432">
        <ele>2697</ele>
        <time>2022-08-26T23:43:36Z</time>
      </trkpt>
      <trkpt lat="45.7189" lon="6.72433">
        <ele>2696</ele>
        <time>2022-08-26T23:43:37Z</time>
      </trkpt>
      <trkpt lat="45.71889" lon="6.72435">
        <ele>2696</ele>
        <time>2022-08-26T23:43:38Z</time>
      </trkpt>
      <trkpt lat="45.71888" lon="6.72438">
        <ele>2696</ele>
        <time>2022-08-26T23:43:39Z</time>
      </trkpt>
      <trkpt lat="45.71887" lon="6.7244">
        <ele>2696</ele>
        <time>2022-08-26T23:43:40Z</time>
      </trkpt>
      <trkpt lat="45.71886" lon="6.72443">
        <ele>2696</ele>
        <time>2022-08-26T23:43:41Z</time>
      </trkpt>
      <trkpt lat="45.71885" lon="6.72446">
        <ele>2696</ele>
        <time>2022-08-26T23:43:42Z</time>
      </trkpt>
      <trkpt lat="45.71884" lon="6.72448">
        <ele>2696</ele>
        <time>2022-08-26T23:43:43Z</time>
      </trkpt>
      <trkpt lat="45.71884" lon="6.72451">
        <ele>2695</ele>
        <time>2022-08-26T23:43:44Z</time>
      </trkpt>
      <trkpt lat="45.71883" lon="6.72454">
        <ele>2695</ele>
        <time>2022-08-26T23:43:45Z</time>
      </trkpt>
      <trkpt lat="45.71882" lon="6.72459">
        <ele>2695</ele>
        <time>2022-08-26T23:43:46Z</time>
      </trkpt>
      <trkpt lat="45.71882" lon="6.7246">
        <ele>2695</ele>
        <time>2022-08-26T23:43:47Z</time>
      </trkpt>
      <trkpt lat="45.71881" lon="6.72463">
        <ele>2695</ele>
        <time>2022-08-26T23:43:48Z</time>
      </trkpt>
      <trkpt lat="45.71881" lon="6.72467">
        <ele>2695</ele>
        <time>2022-08-26T23:43:49Z</time>
      </trkpt>
      <trkpt lat="45.71881" lon="6.72469">
        <ele>2695</ele>
        <time>2022-08-26T23:43:50Z</time>
      </trkpt>
      <trkpt lat="45.7188" lon="6.72474">
        <ele>2695</ele>
        <time>2022-08-26T23:43:51Z</time>
      </trkpt>
      <trkpt lat="45.7188" lon="6.72475">
        <ele>2694</ele>
        <time>2022-08-26T23:43:52Z</time>
      </trkpt>
      <trkpt lat="45.71881" lon="6.72478">
        <ele>2694</ele>
        <time>2022-08-26T23:43:53Z</time>
      </trkpt>
      <trkpt lat="45.71881" lon="6.72481">
        <ele>2694</ele>
        <time>2022-08-26T23:43:54Z</time>
      </trkpt>
      <trkpt lat="45.71882" lon="6.72484">
        <ele>2694</ele>
        <time>2022-08-26T23:43:55Z</time>
      </trkpt>
      <trkpt lat="45.71881" lon="6.72486">
        <ele>2694</ele>
        <time>2022-08-26T23:43:56Z</time>
      </trkpt>
      <trkpt lat="45.71879" lon="6.7249">
        <ele>2694</ele>
        <time>2022-08-26T23:43:58Z</time>
      </trkpt>
      <trkpt lat="45.71877" lon="6.72493">
        <ele>2694</ele>
        <time>2022-08-26T23:44:00Z</time>
      </trkpt>
      <trkpt lat="45.71875" lon="6.72498">
        <ele>2692</ele>
        <time>2022-08-26T23:44:02Z</time>
      </trkpt>
      <trkpt lat="45.71875" lon="6.72501">
        <ele>2692</ele>
        <time>2022-08-26T23:44:03Z</time>
      </trkpt>
      <trkpt lat="45.71874" lon="6.72504">
        <ele>2690</ele>
        <time>2022-08-26T23:44:04Z</time>
      </trkpt>
      <trkpt lat="45.71873" lon="6.72509">
        <ele>2690</ele>
        <time>2022-08-26T23:44:05Z</time>
      </trkpt>
      <trkpt lat="45.71873" lon="6.7251">
        <ele>2689</ele>
        <time>2022-08-26T23:44:06Z</time>
      </trkpt>
      <trkpt lat="45.71872" lon="6.72513">
        <ele>2689</ele>
        <time>2022-08-26T23:44:07Z</time>
      </trkpt>
      <trkpt lat="45.71872" lon="6.72516">
        <ele>2689</ele>
        <time>2022-08-26T23:44:08Z</time>
      </trkpt>
      <trkpt lat="45.71872" lon="6.72519">
        <ele>2689</ele>
        <time>2022-08-26T23:44:09Z</time>
      </trkpt>
      <trkpt lat="45.71872" lon="6.72522">
        <ele>2689</ele>
        <time>2022-08-26T23:44:10Z</time>
      </trkpt>
      <trkpt lat="45.71873" lon="6.72525">
        <ele>2688</ele>
        <time>2022-08-26T23:44:11Z</time>
      </trkpt>
      <trkpt lat="45.71873" lon="6.72528">
        <ele>2688</ele>
        <time>2022-08-26T23:44:12Z</time>
      </trkpt>
      <trkpt lat="45.71873" lon="6.72531">
        <ele>2688</ele>
        <time>2022-08-26T23:44:13Z</time>
      </trkpt>
      <trkpt lat="45.71874" lon="6.72533">
        <ele>2688</ele>
        <time>2022-08-26T23:44:14Z</time>
      </trkpt>
      <trkpt lat="45.71875" lon="6.72538">
        <ele>2687</ele>
        <time>2022-08-26T23:44:16Z</time>
      </trkpt>
      <trkpt lat="45.71875" lon="6.7254">
        <ele>2687</ele>
        <time>2022-08-26T23:44:17Z</time>
      </trkpt>
      <trkpt lat="45.71873" lon="6.72543">
        <ele>2687</ele>
        <time>2022-08-26T23:44:19Z</time>
      </trkpt>
      <trkpt lat="45.7187" lon="6.72544">
        <ele>2687</ele>
        <time>2022-08-26T23:44:21Z</time>
      </trkpt>
      <trkpt lat="45.71867" lon="6.72546">
        <ele>2687</ele>
        <time>2022-08-26T23:44:23Z</time>
      </trkpt>
      <trkpt lat="45.71864" lon="6.72546">
        <ele>2688</ele>
        <time>2022-08-26T23:44:25Z</time>
      </trkpt>
      <trkpt lat="45.71861" lon="6.72546">
        <ele>2687</ele>
        <time>2022-08-26T23:44:27Z</time>
      </trkpt>
      <trkpt lat="45.71859" lon="6.72546">
        <ele>2687</ele>
        <time>2022-08-26T23:44:28Z</time>
      </trkpt>
      <trkpt lat="45.71857" lon="6.72546">
        <ele>2687</ele>
        <time>2022-08-26T23:44:29Z</time>
      </trkpt>
      <trkpt lat="45.71855" lon="6.72546">
        <ele>2686</ele>
        <time>2022-08-26T23:44:30Z</time>
      </trkpt>
      <trkpt lat="45.71853" lon="6.72547">
        <ele>2686</ele>
        <time>2022-08-26T23:44:31Z</time>
      </trkpt>
      <trkpt lat="45.71851" lon="6.72547">
        <ele>2686</ele>
        <time>2022-08-26T23:44:32Z</time>
      </trkpt>
      <trkpt lat="45.71848" lon="6.72548">
        <ele>2686</ele>
        <time>2022-08-26T23:44:33Z</time>
      </trkpt>
      <trkpt lat="45.71848" lon="6.72548">
        <ele>2685</ele>
        <time>2022-08-26T23:44:34Z</time>
      </trkpt>
      <trkpt lat="45.71845" lon="6.72548">
        <ele>2685</ele>
        <time>2022-08-26T23:44:35Z</time>
      </trkpt>
      <trkpt lat="45.71844" lon="6.72549">
        <ele>2685</ele>
        <time>2022-08-26T23:44:36Z</time>
      </trkpt>
      <trkpt lat="45.71842" lon="6.72549">
        <ele>2685</ele>
        <time>2022-08-26T23:44:37Z</time>
      </trkpt>
      <trkpt lat="45.7184" lon="6.7255">
        <ele>2685</ele>
        <time>2022-08-26T23:44:38Z</time>
      </trkpt>
      <trkpt lat="45.71838" lon="6.72551">
        <ele>2684</ele>
        <time>2022-08-26T23:44:39Z</time>
      </trkpt>
      <trkpt lat="45.71836" lon="6.72552">
        <ele>2683</ele>
        <time>2022-08-26T23:44:40Z</time>
      </trkpt>
      <trkpt lat="45.71834" lon="6.72552">
        <ele>2683</ele>
        <time>2022-08-26T23:44:41Z</time>
      </trkpt>
      <trkpt lat="45.71832" lon="6.72553">
        <ele>2683</ele>
        <time>2022-08-26T23:44:42Z</time>
      </trkpt>
      <trkpt lat="45.7183" lon="6.72553">
        <ele>2683</ele>
        <time>2022-08-26T23:44:43Z</time>
      </trkpt>
      <trkpt lat="45.71829" lon="6.72555">
        <ele>2682</ele>
        <time>2022-08-26T23:44:44Z</time>
      </trkpt>
      <trkpt lat="45.71827" lon="6.72556">
        <ele>2681</ele>
        <time>2022-08-26T23:44:45Z</time>
      </trkpt>
      <trkpt lat="45.71825" lon="6.72557">
        <ele>2681</ele>
        <time>2022-08-26T23:44:46Z</time>
      </trkpt>
      <trkpt lat="45.71823" lon="6.72558">
        <ele>2680</ele>
        <time>2022-08-26T23:44:47Z</time>
      </trkpt>
      <trkpt lat="45.71821" lon="6.72558">
        <ele>2680</ele>
        <time>2022-08-26T23:44:48Z</time>
      </trkpt>
      <trkpt lat="45.71819" lon="6.72558">
        <ele>2678</ele>
        <time>2022-08-26T23:44:49Z</time>
      </trkpt>
      <trkpt lat="45.71818" lon="6.72559">
        <ele>2677</ele>
        <time>2022-08-26T23:44:50Z</time>
      </trkpt>
      <trkpt lat="45.71816" lon="6.7256">
        <ele>2676</ele>
        <time>2022-08-26T23:44:51Z</time>
      </trkpt>
      <trkpt lat="45.71814" lon="6.72561">
        <ele>2676</ele>
        <time>2022-08-26T23:44:52Z</time>
      </trkpt>
      <trkpt lat="45.71812" lon="6.72562">
        <ele>2675</ele>
        <time>2022-08-26T23:44:53Z</time>
      </trkpt>
      <trkpt lat="45.71809" lon="6.72564">
        <ele>2675</ele>
        <time>2022-08-26T23:44:55Z</time>
      </trkpt>
      <trkpt lat="45.71805" lon="6.72567">
        <ele>2674</ele>
        <time>2022-08-26T23:44:57Z</time>
      </trkpt>
      <trkpt lat="45.71804" lon="6.72567">
        <ele>2674</ele>
        <time>2022-08-26T23:44:58Z</time>
      </trkpt>
      <trkpt lat="45.71803" lon="6.72568">
        <ele>2674</ele>
        <time>2022-08-26T23:44:59Z</time>
      </trkpt>
      <trkpt lat="45.718" lon="6.72569">
        <ele>2673</ele>
        <time>2022-08-26T23:45:01Z</time>
      </trkpt>
      <trkpt lat="45.71797" lon="6.72569">
        <ele>2673</ele>
        <time>2022-08-26T23:45:03Z</time>
      </trkpt>
      <trkpt lat="45.71794" lon="6.7257">
        <ele>2672</ele>
        <time>2022-08-26T23:45:05Z</time>
      </trkpt>
      <trkpt lat="45.71791" lon="6.72567">
        <ele>2671</ele>
        <time>2022-08-26T23:45:07Z</time>
      </trkpt>
      <trkpt lat="45.71789" lon="6.72565">
        <ele>2670</ele>
        <time>2022-08-26T23:45:09Z</time>
      </trkpt>
      <trkpt lat="45.71788" lon="6.72568">
        <ele>2670</ele>
        <time>2022-08-26T23:45:12Z</time>
      </trkpt>
      <trkpt lat="45.71788" lon="6.72573">
        <ele>2669</ele>
        <time>2022-08-26T23:45:14Z</time>
      </trkpt>
      <trkpt lat="45.71788" lon="6.72576">
        <ele>2669</ele>
        <time>2022-08-26T23:45:15Z</time>
      </trkpt>
      <trkpt lat="45.71787" lon="6.72578">
        <ele>2668</ele>
        <time>2022-08-26T23:45:16Z</time>
      </trkpt>
      <trkpt lat="45.71786" lon="6.72584">
        <ele>2668</ele>
        <time>2022-08-26T23:45:18Z</time>
      </trkpt>
      <trkpt lat="45.71786" lon="6.72589">
        <ele>2668</ele>
        <time>2022-08-26T23:45:19Z</time>
      </trkpt>
      <trkpt lat="45.71786" lon="6.7259">
        <ele>2666</ele>
        <time>2022-08-26T23:45:20Z</time>
      </trkpt>
      <trkpt lat="45.71786" lon="6.72593">
        <ele>2665</ele>
        <time>2022-08-26T23:45:21Z</time>
      </trkpt>
      <trkpt lat="45.71785" lon="6.72596">
        <ele>2665</ele>
        <time>2022-08-26T23:45:22Z</time>
      </trkpt>
      <trkpt lat="45.71784" lon="6.72598">
        <ele>2664</ele>
        <time>2022-08-26T23:45:23Z</time>
      </trkpt>
      <trkpt lat="45.71781" lon="6.72598">
        <ele>2664</ele>
        <time>2022-08-26T23:45:24Z</time>
      </trkpt>
      <trkpt lat="45.71779" lon="6.72595">
        <ele>2663</ele>
        <time>2022-08-26T23:45:26Z</time>
      </trkpt>
      <trkpt lat="45.71778" lon="6.72592">
        <ele>2663</ele>
        <time>2022-08-26T23:45:27Z</time>
      </trkpt>
      <trkpt lat="45.71777" lon="6.72589">
        <ele>2663</ele>
        <time>2022-08-26T23:45:28Z</time>
      </trkpt>
      <trkpt lat="45.71775" lon="6.72585">
        <ele>2663</ele>
        <time>2022-08-26T23:45:29Z</time>
      </trkpt>
      <trkpt lat="45.71774" lon="6.72584">
        <ele>2662</ele>
        <time>2022-08-26T23:45:30Z</time>
      </trkpt>
      <trkpt lat="45.71773" lon="6.72583">
        <ele>2662</ele>
        <time>2022-08-26T23:45:31Z</time>
      </trkpt>
      <trkpt lat="45.71771" lon="6.72581">
        <ele>2661</ele>
        <time>2022-08-26T23:45:32Z</time>
      </trkpt>
      <trkpt lat="45.71769" lon="6.72579">
        <ele>2661</ele>
        <time>2022-08-26T23:45:33Z</time>
      </trkpt>
      <trkpt lat="45.71768" lon="6.72578">
        <ele>2661</ele>
        <time>2022-08-26T23:45:34Z</time>
      </trkpt>
      <trkpt lat="45.71766" lon="6.72576">
        <ele>2660</ele>
        <time>2022-08-26T23:45:35Z</time>
      </trkpt>
      <trkpt lat="45.71764" lon="6.72573">
        <ele>2660</ele>
        <time>2022-08-26T23:45:36Z</time>
      </trkpt>
      <trkpt lat="45.71763" lon="6.72571">
        <ele>2660</ele>
        <time>2022-08-26T23:45:37Z</time>
      </trkpt>
      <trkpt lat="45.71763" lon="6.72569">
        <ele>2659</ele>
        <time>2022-08-26T23:45:38Z</time>
      </trkpt>
      <trkpt lat="45.71761" lon="6.72565">
        <ele>2659</ele>
        <time>2022-08-26T23:45:40Z</time>
      </trkpt>
      <trkpt lat="45.71759" lon="6.72563">
        <ele>2658</ele>
        <time>2022-08-26T23:45:42Z</time>
      </trkpt>
      <trkpt lat="45.71756" lon="6.72565">
        <ele>2657</ele>
        <time>2022-08-26T23:45:44Z</time>
      </trkpt>
      <trkpt lat="45.71755" lon="6.72571">
        <ele>2656</ele>
        <time>2022-08-26T23:45:46Z</time>
      </trkpt>
      <trkpt lat="45.71755" lon="6.72572">
        <ele>2653</ele>
        <time>2022-08-26T23:45:47Z</time>
      </trkpt>
      <trkpt lat="45.71755" lon="6.72576">
        <ele>2653</ele>
        <time>2022-08-26T23:45:48Z</time>
      </trkpt>
      <trkpt lat="45.71755" lon="6.72578">
        <ele>2653</ele>
        <time>2022-08-26T23:45:49Z</time>
      </trkpt>
      <trkpt lat="45.71756" lon="6.72582">
        <ele>2652</ele>
        <time>2022-08-26T23:45:51Z</time>
      </trkpt>
      <trkpt lat="45.71756" lon="6.72584">
        <ele>2652</ele>
        <time>2022-08-26T23:45:52Z</time>
      </trkpt>
      <trkpt lat="45.71756" lon="6.72587">
        <ele>2652</ele>
        <time>2022-08-26T23:45:53Z</time>
      </trkpt>
      <trkpt lat="45.71756" lon="6.72589">
        <ele>2651</ele>
        <time>2022-08-26T23:45:54Z</time>
      </trkpt>
      <trkpt lat="45.71754" lon="6.72594">
        <ele>2651</ele>
        <time>2022-08-26T23:45:56Z</time>
      </trkpt>
      <trkpt lat="45.71753" lon="6.72596">
        <ele>2650</ele>
        <time>2022-08-26T23:45:57Z</time>
      </trkpt>
      <trkpt lat="45.7175" lon="6.72596">
        <ele>2649</ele>
        <time>2022-08-26T23:45:59Z</time>
      </trkpt>
      <trkpt lat="45.71747" lon="6.72593">
        <ele>2648</ele>
        <time>2022-08-26T23:46:01Z</time>
      </trkpt>
      <trkpt lat="45.71746" lon="6.72591">
        <ele>2648</ele>
        <time>2022-08-26T23:46:02Z</time>
      </trkpt>
      <trkpt lat="45.71743" lon="6.72588">
        <ele>2647</ele>
        <time>2022-08-26T23:46:04Z</time>
      </trkpt>
      <trkpt lat="45.71741" lon="6.72587">
        <ele>2647</ele>
        <time>2022-08-26T23:46:05Z</time>
      </trkpt>
      <trkpt lat="45.71739" lon="6.72587">
        <ele>2647</ele>
        <time>2022-08-26T23:46:07Z</time>
      </trkpt>
      <trkpt lat="45.71739" lon="6.72591">
        <ele>2646</ele>
        <time>2022-08-26T23:46:09Z</time>
      </trkpt>
      <trkpt lat="45.7174" lon="6.72595">
        <ele>2645</ele>
        <time>2022-08-26T23:46:11Z</time>
      </trkpt>
      <trkpt lat="45.7174" lon="6.726">
        <ele>2644</ele>
        <time>2022-08-26T23:46:13Z</time>
      </trkpt>
      <trkpt lat="45.71739" lon="6.72604">
        <ele>2644</ele>
        <time>2022-08-26T23:46:15Z</time>
      </trkpt>
      <trkpt lat="45.71738" lon="6.72608">
        <ele>2642</ele>
        <time>2022-08-26T23:46:17Z</time>
      </trkpt>
      <trkpt lat="45.71735" lon="6.7261">
        <ele>2641</ele>
        <time>2022-08-26T23:46:19Z</time>
      </trkpt>
      <trkpt lat="45.71733" lon="6.72609">
        <ele>2641</ele>
        <time>2022-08-26T23:46:20Z</time>
      </trkpt>
      <trkpt lat="45.71732" lon="6.72608">
        <ele>2641</ele>
        <time>2022-08-26T23:46:21Z</time>
      </trkpt>
      <trkpt lat="45.71729" lon="6.72605">
        <ele>2641</ele>
        <time>2022-08-26T23:46:23Z</time>
      </trkpt>
      <trkpt lat="45.71727" lon="6.72603">
        <ele>2641</ele>
        <time>2022-08-26T23:46:24Z</time>
      </trkpt>
      <trkpt lat="45.71724" lon="6.72601">
        <ele>2639</ele>
        <time>2022-08-26T23:46:26Z</time>
      </trkpt>
      <trkpt lat="45.71722" lon="6.726">
        <ele>2639</ele>
        <time>2022-08-26T23:46:27Z</time>
      </trkpt>
      <trkpt lat="45.7172" lon="6.72599">
        <ele>2639</ele>
        <time>2022-08-26T23:46:28Z</time>
      </trkpt>
      <trkpt lat="45.71717" lon="6.72598">
        <ele>2639</ele>
        <time>2022-08-26T23:46:30Z</time>
      </trkpt>
      <trkpt lat="45.71715" lon="6.72596">
        <ele>2639</ele>
        <time>2022-08-26T23:46:31Z</time>
      </trkpt>
      <trkpt lat="45.71714" lon="6.72595">
        <ele>2639</ele>
        <time>2022-08-26T23:46:32Z</time>
      </trkpt>
      <trkpt lat="45.71712" lon="6.72593">
        <ele>2638</ele>
        <time>2022-08-26T23:46:33Z</time>
      </trkpt>
      <trkpt lat="45.71711" lon="6.72589">
        <ele>2638</ele>
        <time>2022-08-26T23:46:35Z</time>
      </trkpt>
      <trkpt lat="45.71709" lon="6.72586">
        <ele>2637</ele>
        <time>2022-08-26T23:46:36Z</time>
      </trkpt>
      <trkpt lat="45.71707" lon="6.72582">
        <ele>2636</ele>
        <time>2022-08-26T23:46:38Z</time>
      </trkpt>
      <trkpt lat="45.71705" lon="6.7258">
        <ele>2635</ele>
        <time>2022-08-26T23:46:40Z</time>
      </trkpt>
      <trkpt lat="45.71703" lon="6.72579">
        <ele>2634</ele>
        <time>2022-08-26T23:46:41Z</time>
      </trkpt>
      <trkpt lat="45.71701" lon="6.72578">
        <ele>2634</ele>
        <time>2022-08-26T23:46:42Z</time>
      </trkpt>
      <trkpt lat="45.717" lon="6.72577">
        <ele>2633</ele>
        <time>2022-08-26T23:46:43Z</time>
      </trkpt>
      <trkpt lat="45.71698" lon="6.72577">
        <ele>2633</ele>
        <time>2022-08-26T23:46:44Z</time>
      </trkpt>
      <trkpt lat="45.71696" lon="6.72576">
        <ele>2632</ele>
        <time>2022-08-26T23:46:45Z</time>
      </trkpt>
      <trkpt lat="45.71694" lon="6.72576">
        <ele>2631</ele>
        <time>2022-08-26T23:46:46Z</time>
      </trkpt>
      <trkpt lat="45.71691" lon="6.72576">
        <ele>2629</ele>
        <time>2022-08-26T23:46:47Z</time>
      </trkpt>
      <trkpt lat="45.71689" lon="6.72575">
        <ele>2629</ele>
        <time>2022-08-26T23:46:48Z</time>
      </trkpt>
      <trkpt lat="45.71686" lon="6.72574">
        <ele>2629</ele>
        <time>2022-08-26T23:46:49Z</time>
      </trkpt>
      <trkpt lat="45.71685" lon="6.72574">
        <ele>2628</ele>
        <time>2022-08-26T23:46:50Z</time>
      </trkpt>
      <trkpt lat="45.71682" lon="6.72572">
        <ele>2628</ele>
        <time>2022-08-26T23:46:51Z</time>
      </trkpt>
      <trkpt lat="45.7168" lon="6.72572">
        <ele>2628</ele>
        <time>2022-08-26T23:46:52Z</time>
      </trkpt>
      <trkpt lat="45.71678" lon="6.72571">
        <ele>2627</ele>
        <time>2022-08-26T23:46:53Z</time>
      </trkpt>
      <trkpt lat="45.71676" lon="6.7257">
        <ele>2626</ele>
        <time>2022-08-26T23:46:54Z</time>
      </trkpt>
      <trkpt lat="45.71674" lon="6.7257">
        <ele>2625</ele>
        <time>2022-08-26T23:46:55Z</time>
      </trkpt>
      <trkpt lat="45.71672" lon="6.7257">
        <ele>2625</ele>
        <time>2022-08-26T23:46:56Z</time>
      </trkpt>
      <trkpt lat="45.7167" lon="6.7257">
        <ele>2625</ele>
        <time>2022-08-26T23:46:57Z</time>
      </trkpt>
      <trkpt lat="45.71668" lon="6.7257">
        <ele>2623</ele>
        <time>2022-08-26T23:46:58Z</time>
      </trkpt>
      <trkpt lat="45.71666" lon="6.7257">
        <ele>2623</ele>
        <time>2022-08-26T23:46:59Z</time>
      </trkpt>
      <trkpt lat="45.71664" lon="6.7257">
        <ele>2622</ele>
        <time>2022-08-26T23:47:00Z</time>
      </trkpt>
      <trkpt lat="45.71661" lon="6.72571">
        <ele>2622</ele>
        <time>2022-08-26T23:47:01Z</time>
      </trkpt>
      <trkpt lat="45.7166" lon="6.72571">
        <ele>2622</ele>
        <time>2022-08-26T23:47:02Z</time>
      </trkpt>
      <trkpt lat="45.71658" lon="6.72571">
        <ele>2621</ele>
        <time>2022-08-26T23:47:03Z</time>
      </trkpt>
      <trkpt lat="45.71656" lon="6.72571">
        <ele>2621</ele>
        <time>2022-08-26T23:47:04Z</time>
      </trkpt>
      <trkpt lat="45.71654" lon="6.72572">
        <ele>2621</ele>
        <time>2022-08-26T23:47:05Z</time>
      </trkpt>
      <trkpt lat="45.7165" lon="6.72571">
        <ele>2621</ele>
        <time>2022-08-26T23:47:06Z</time>
      </trkpt>
      <trkpt lat="45.71649" lon="6.72571">
        <ele>2621</ele>
        <time>2022-08-26T23:47:07Z</time>
      </trkpt>
      <trkpt lat="45.71647" lon="6.72571">
        <ele>2621</ele>
        <time>2022-08-26T23:47:08Z</time>
      </trkpt>
      <trkpt lat="45.71645" lon="6.7257">
        <ele>2621</ele>
        <time>2022-08-26T23:47:09Z</time>
      </trkpt>
      <trkpt lat="45.71644" lon="6.7257">
        <ele>2620</ele>
        <time>2022-08-26T23:47:10Z</time>
      </trkpt>
      <trkpt lat="45.71641" lon="6.72569">
        <ele>2620</ele>
        <time>2022-08-26T23:47:11Z</time>
      </trkpt>
      <trkpt lat="45.71637" lon="6.72569">
        <ele>2619</ele>
        <time>2022-08-26T23:47:13Z</time>
      </trkpt>
      <trkpt lat="45.71636" lon="6.7257">
        <ele>2619</ele>
        <time>2022-08-26T23:47:14Z</time>
      </trkpt>
      <trkpt lat="45.71634" lon="6.7257">
        <ele>2617</ele>
        <time>2022-08-26T23:47:15Z</time>
      </trkpt>
      <trkpt lat="45.7163" lon="6.72571">
        <ele>2617</ele>
        <time>2022-08-26T23:47:17Z</time>
      </trkpt>
      <trkpt lat="45.71627" lon="6.72573">
        <ele>2617</ele>
        <time>2022-08-26T23:47:19Z</time>
      </trkpt>
      <trkpt lat="45.71625" lon="6.72573">
        <ele>2616</ele>
        <time>2022-08-26T23:47:20Z</time>
      </trkpt>
      <trkpt lat="45.71622" lon="6.72575">
        <ele>2616</ele>
        <time>2022-08-26T23:47:22Z</time>
      </trkpt>
      <trkpt lat="45.71618" lon="6.72576">
        <ele>2615</ele>
        <time>2022-08-26T23:47:24Z</time>
      </trkpt>
      <trkpt lat="45.71616" lon="6.72576">
        <ele>2614</ele>
        <time>2022-08-26T23:47:25Z</time>
      </trkpt>
      <trkpt lat="45.71614" lon="6.72576">
        <ele>2614</ele>
        <time>2022-08-26T23:47:26Z</time>
      </trkpt>
      <trkpt lat="45.71612" lon="6.72576">
        <ele>2613</ele>
        <time>2022-08-26T23:47:27Z</time>
      </trkpt>
      <trkpt lat="45.71608" lon="6.72576">
        <ele>2612</ele>
        <time>2022-08-26T23:47:29Z</time>
      </trkpt>
      <trkpt lat="45.71605" lon="6.72576">
        <ele>2612</ele>
        <time>2022-08-26T23:47:30Z</time>
      </trkpt>
      <trkpt lat="45.71604" lon="6.72576">
        <ele>2612</ele>
        <time>2022-08-26T23:47:31Z</time>
      </trkpt>
      <trkpt lat="45.71602" lon="6.72576">
        <ele>2612</ele>
        <time>2022-08-26T23:47:32Z</time>
      </trkpt>
      <trkpt lat="45.716" lon="6.72577">
        <ele>2611</ele>
        <time>2022-08-26T23:47:33Z</time>
      </trkpt>
      <trkpt lat="45.71597" lon="6.72577">
        <ele>2611</ele>
        <time>2022-08-26T23:47:34Z</time>
      </trkpt>
      <trkpt lat="45.71596" lon="6.72578">
        <ele>2610</ele>
        <time>2022-08-26T23:47:35Z</time>
      </trkpt>
      <trkpt lat="45.71593" lon="6.72578">
        <ele>2609</ele>
        <time>2022-08-26T23:47:36Z</time>
      </trkpt>
      <trkpt lat="45.7159" lon="6.72578">
        <ele>2609</ele>
        <time>2022-08-26T23:47:37Z</time>
      </trkpt>
      <trkpt lat="45.71589" lon="6.72577">
        <ele>2608</ele>
        <time>2022-08-26T23:47:38Z</time>
      </trkpt>
      <trkpt lat="45.71587" lon="6.72578">
        <ele>2608</ele>
        <time>2022-08-26T23:47:39Z</time>
      </trkpt>
      <trkpt lat="45.71585" lon="6.72579">
        <ele>2607</ele>
        <time>2022-08-26T23:47:40Z</time>
      </trkpt>
      <trkpt lat="45.71583" lon="6.72579">
        <ele>2605</ele>
        <time>2022-08-26T23:47:41Z</time>
      </trkpt>
      <trkpt lat="45.7158" lon="6.72578">
        <ele>2605</ele>
        <time>2022-08-26T23:47:42Z</time>
      </trkpt>
      <trkpt lat="45.71578" lon="6.72578">
        <ele>2605</ele>
        <time>2022-08-26T23:47:43Z</time>
      </trkpt>
      <trkpt lat="45.71576" lon="6.72578">
        <ele>2604</ele>
        <time>2022-08-26T23:47:44Z</time>
      </trkpt>
      <trkpt lat="45.71574" lon="6.72577">
        <ele>2604</ele>
        <time>2022-08-26T23:47:45Z</time>
      </trkpt>
      <trkpt lat="45.71573" lon="6.72576">
        <ele>2603</ele>
        <time>2022-08-26T23:47:46Z</time>
      </trkpt>
      <trkpt lat="45.71571" lon="6.72576">
        <ele>2603</ele>
        <time>2022-08-26T23:47:47Z</time>
      </trkpt>
      <trkpt lat="45.71569" lon="6.72575">
        <ele>2602</ele>
        <time>2022-08-26T23:47:48Z</time>
      </trkpt>
      <trkpt lat="45.71567" lon="6.72574">
        <ele>2602</ele>
        <time>2022-08-26T23:47:49Z</time>
      </trkpt>
      <trkpt lat="45.71565" lon="6.72574">
        <ele>2602</ele>
        <time>2022-08-26T23:47:50Z</time>
      </trkpt>
      <trkpt lat="45.71563" lon="6.72573">
        <ele>2601</ele>
        <time>2022-08-26T23:47:51Z</time>
      </trkpt>
      <trkpt lat="45.71561" lon="6.72573">
        <ele>2601</ele>
        <time>2022-08-26T23:47:52Z</time>
      </trkpt>
      <trkpt lat="45.7156" lon="6.72572">
        <ele>2600</ele>
        <time>2022-08-26T23:47:53Z</time>
      </trkpt>
      <trkpt lat="45.71557" lon="6.72568">
        <ele>2600</ele>
        <time>2022-08-26T23:47:55Z</time>
      </trkpt>
      <trkpt lat="45.71557" lon="6.72566">
        <ele>2600</ele>
        <time>2022-08-26T23:47:56Z</time>
      </trkpt>
      <trkpt lat="45.71557" lon="6.72563">
        <ele>2599</ele>
        <time>2022-08-26T23:47:57Z</time>
      </trkpt>
      <trkpt lat="45.71558" lon="6.72556">
        <ele>2597</ele>
        <time>2022-08-26T23:47:59Z</time>
      </trkpt>
      <trkpt lat="45.71559" lon="6.72555">
        <ele>2597</ele>
        <time>2022-08-26T23:48:00Z</time>
      </trkpt>
      <trkpt lat="45.7156" lon="6.72551">
        <ele>2597</ele>
        <time>2022-08-26T23:48:01Z</time>
      </trkpt>
      <trkpt lat="45.7156" lon="6.7255">
        <ele>2597</ele>
        <time>2022-08-26T23:48:02Z</time>
      </trkpt>
      <trkpt lat="45.71562" lon="6.72547">
        <ele>2596</ele>
        <time>2022-08-26T23:48:03Z</time>
      </trkpt>
      <trkpt lat="45.71563" lon="6.72545">
        <ele>2596</ele>
        <time>2022-08-26T23:48:04Z</time>
      </trkpt>
      <trkpt lat="45.71565" lon="6.72542">
        <ele>2596</ele>
        <time>2022-08-26T23:48:06Z</time>
      </trkpt>
      <trkpt lat="45.71565" lon="6.72539">
        <ele>2595</ele>
        <time>2022-08-26T23:48:08Z</time>
      </trkpt>
      <trkpt lat="45.71562" lon="6.72537">
        <ele>2593</ele>
        <time>2022-08-26T23:48:10Z</time>
      </trkpt>
      <trkpt lat="45.7156" lon="6.72537">
        <ele>2592</ele>
        <time>2022-08-26T23:48:11Z</time>
      </trkpt>
      <trkpt lat="45.71557" lon="6.72537">
        <ele>2592</ele>
        <time>2022-08-26T23:48:12Z</time>
      </trkpt>
      <trkpt lat="45.71556" lon="6.72537">
        <ele>2591</ele>
        <time>2022-08-26T23:48:13Z</time>
      </trkpt>
      <trkpt lat="45.71554" lon="6.72537">
        <ele>2591</ele>
        <time>2022-08-26T23:48:14Z</time>
      </trkpt>
      <trkpt lat="45.71552" lon="6.72538">
        <ele>2590</ele>
        <time>2022-08-26T23:48:15Z</time>
      </trkpt>
      <trkpt lat="45.7155" lon="6.72539">
        <ele>2590</ele>
        <time>2022-08-26T23:48:16Z</time>
      </trkpt>
      <trkpt lat="45.71548" lon="6.7254">
        <ele>2590</ele>
        <time>2022-08-26T23:48:17Z</time>
      </trkpt>
      <trkpt lat="45.71545" lon="6.72542">
        <ele>2588</ele>
        <time>2022-08-26T23:48:19Z</time>
      </trkpt>
      <trkpt lat="45.71543" lon="6.72543">
        <ele>2588</ele>
        <time>2022-08-26T23:48:20Z</time>
      </trkpt>
      <trkpt lat="45.71541" lon="6.72543">
        <ele>2588</ele>
        <time>2022-08-26T23:48:21Z</time>
      </trkpt>
      <trkpt lat="45.71537" lon="6.72544">
        <ele>2588</ele>
        <time>2022-08-26T23:48:22Z</time>
      </trkpt>
      <trkpt lat="45.71536" lon="6.72544">
        <ele>2587</ele>
        <time>2022-08-26T23:48:23Z</time>
      </trkpt>
      <trkpt lat="45.71535" lon="6.72545">
        <ele>2587</ele>
        <time>2022-08-26T23:48:24Z</time>
      </trkpt>
      <trkpt lat="45.71533" lon="6.72546">
        <ele>2587</ele>
        <time>2022-08-26T23:48:25Z</time>
      </trkpt>
      <trkpt lat="45.71531" lon="6.72546">
        <ele>2586</ele>
        <time>2022-08-26T23:48:26Z</time>
      </trkpt>
      <trkpt lat="45.71527" lon="6.7255">
        <ele>2585</ele>
        <time>2022-08-26T23:48:28Z</time>
      </trkpt>
      <trkpt lat="45.71527" lon="6.7255">
        <ele>2584</ele>
        <time>2022-08-26T23:48:29Z</time>
      </trkpt>
      <trkpt lat="45.71524" lon="6.72551">
        <ele>2583</ele>
        <time>2022-08-26T23:48:30Z</time>
      </trkpt>
      <trkpt lat="45.71522" lon="6.72552">
        <ele>2583</ele>
        <time>2022-08-26T23:48:31Z</time>
      </trkpt>
      <trkpt lat="45.71521" lon="6.72554">
        <ele>2583</ele>
        <time>2022-08-26T23:48:32Z</time>
      </trkpt>
      <trkpt lat="45.71519" lon="6.72555">
        <ele>2583</ele>
        <time>2022-08-26T23:48:33Z</time>
      </trkpt>
      <trkpt lat="45.71518" lon="6.72556">
        <ele>2583</ele>
        <time>2022-08-26T23:48:34Z</time>
      </trkpt>
      <trkpt lat="45.71516" lon="6.72556">
        <ele>2581</ele>
        <time>2022-08-26T23:48:35Z</time>
      </trkpt>
      <trkpt lat="45.71514" lon="6.72555">
        <ele>2581</ele>
        <time>2022-08-26T23:48:36Z</time>
      </trkpt>
      <trkpt lat="45.71512" lon="6.72554">
        <ele>2581</ele>
        <time>2022-08-26T23:48:37Z</time>
      </trkpt>
      <trkpt lat="45.7151" lon="6.72552">
        <ele>2580</ele>
        <time>2022-08-26T23:48:38Z</time>
      </trkpt>
      <trkpt lat="45.71509" lon="6.7255">
        <ele>2579</ele>
        <time>2022-08-26T23:48:39Z</time>
      </trkpt>
      <trkpt lat="45.71507" lon="6.72548">
        <ele>2578</ele>
        <time>2022-08-26T23:48:40Z</time>
      </trkpt>
      <trkpt lat="45.71506" lon="6.72546">
        <ele>2578</ele>
        <time>2022-08-26T23:48:41Z</time>
      </trkpt>
      <trkpt lat="45.71504" lon="6.72542">
        <ele>2578</ele>
        <time>2022-08-26T23:48:43Z</time>
      </trkpt>
      <trkpt lat="45.71503" lon="6.7254">
        <ele>2578</ele>
        <time>2022-08-26T23:48:44Z</time>
      </trkpt>
      <trkpt lat="45.71502" lon="6.72538">
        <ele>2577</ele>
        <time>2022-08-26T23:48:45Z</time>
      </trkpt>
      <trkpt lat="45.715" lon="6.72536">
        <ele>2577</ele>
        <time>2022-08-26T23:48:46Z</time>
      </trkpt>
      <trkpt lat="45.71499" lon="6.72534">
        <ele>2576</ele>
        <time>2022-08-26T23:48:47Z</time>
      </trkpt>
      <trkpt lat="45.71498" lon="6.72532">
        <ele>2575</ele>
        <time>2022-08-26T23:48:48Z</time>
      </trkpt>
      <trkpt lat="45.71496" lon="6.72528">
        <ele>2574</ele>
        <time>2022-08-26T23:48:50Z</time>
      </trkpt>
      <trkpt lat="45.71495" lon="6.72525">
        <ele>2574</ele>
        <time>2022-08-26T23:48:51Z</time>
      </trkpt>
      <trkpt lat="45.71494" lon="6.72522">
        <ele>2574</ele>
        <time>2022-08-26T23:48:53Z</time>
      </trkpt>
      <trkpt lat="45.71492" lon="6.72522">
        <ele>2572</ele>
        <time>2022-08-26T23:48:55Z</time>
      </trkpt>
      <trkpt lat="45.71489" lon="6.72526">
        <ele>2572</ele>
        <time>2022-08-26T23:48:57Z</time>
      </trkpt>
      <trkpt lat="45.71488" lon="6.72528">
        <ele>2571</ele>
        <time>2022-08-26T23:48:58Z</time>
      </trkpt>
      <trkpt lat="45.71487" lon="6.7253">
        <ele>2571</ele>
        <time>2022-08-26T23:48:59Z</time>
      </trkpt>
      <trkpt lat="45.71487" lon="6.72535">
        <ele>2571</ele>
        <time>2022-08-26T23:49:01Z</time>
      </trkpt>
      <trkpt lat="45.71486" lon="6.72539">
        <ele>2571</ele>
        <time>2022-08-26T23:49:03Z</time>
      </trkpt>
      <trkpt lat="45.71485" lon="6.72542">
        <ele>2571</ele>
        <time>2022-08-26T23:49:04Z</time>
      </trkpt>
      <trkpt lat="45.71484" lon="6.72544">
        <ele>2571</ele>
        <time>2022-08-26T23:49:05Z</time>
      </trkpt>
      <trkpt lat="45.71482" lon="6.72544">
        <ele>2569</ele>
        <time>2022-08-26T23:49:06Z</time>
      </trkpt>
      <trkpt lat="45.7148" lon="6.72544">
        <ele>2569</ele>
        <time>2022-08-26T23:49:07Z</time>
      </trkpt>
      <trkpt lat="45.71478" lon="6.7254">
        <ele>2567</ele>
        <time>2022-08-26T23:49:09Z</time>
      </trkpt>
      <trkpt lat="45.71476" lon="6.72538">
        <ele>2566</ele>
        <time>2022-08-26T23:49:10Z</time>
      </trkpt>
      <trkpt lat="45.71475" lon="6.72536">
        <ele>2565</ele>
        <time>2022-08-26T23:49:11Z</time>
      </trkpt>
      <trkpt lat="45.71473" lon="6.72534">
        <ele>2565</ele>
        <time>2022-08-26T23:49:12Z</time>
      </trkpt>
      <trkpt lat="45.71472" lon="6.72533">
        <ele>2565</ele>
        <time>2022-08-26T23:49:13Z</time>
      </trkpt>
      <trkpt lat="45.7147" lon="6.72532">
        <ele>2565</ele>
        <time>2022-08-26T23:49:14Z</time>
      </trkpt>
      <trkpt lat="45.71468" lon="6.72531">
        <ele>2565</ele>
        <time>2022-08-26T23:49:15Z</time>
      </trkpt>
      <trkpt lat="45.71466" lon="6.7253">
        <ele>2564</ele>
        <time>2022-08-26T23:49:16Z</time>
      </trkpt>
      <trkpt lat="45.71464" lon="6.72528">
        <ele>2564</ele>
        <time>2022-08-26T23:49:17Z</time>
      </trkpt>
      <trkpt lat="45.71463" lon="6.72527">
        <ele>2563</ele>
        <time>2022-08-26T23:49:18Z</time>
      </trkpt>
      <trkpt lat="45.71459" lon="6.72523">
        <ele>2563</ele>
        <time>2022-08-26T23:49:20Z</time>
      </trkpt>
      <trkpt lat="45.71458" lon="6.72522">
        <ele>2562</ele>
        <time>2022-08-26T23:49:21Z</time>
      </trkpt>
      <trkpt lat="45.71457" lon="6.72519">
        <ele>2562</ele>
        <time>2022-08-26T23:49:22Z</time>
      </trkpt>
      <trkpt lat="45.71456" lon="6.72517">
        <ele>2561</ele>
        <time>2022-08-26T23:49:23Z</time>
      </trkpt>
      <trkpt lat="45.71455" lon="6.72514">
        <ele>2561</ele>
        <time>2022-08-26T23:49:24Z</time>
      </trkpt>
      <trkpt lat="45.71454" lon="6.72511">
        <ele>2560</ele>
        <time>2022-08-26T23:49:26Z</time>
      </trkpt>
      <trkpt lat="45.71451" lon="6.7251">
        <ele>2556</ele>
        <time>2022-08-26T23:49:28Z</time>
      </trkpt>
      <trkpt lat="45.7145" lon="6.72513">
        <ele>2556</ele>
        <time>2022-08-26T23:49:30Z</time>
      </trkpt>
      <trkpt lat="45.71449" lon="6.72516">
        <ele>2555</ele>
        <time>2022-08-26T23:49:32Z</time>
      </trkpt>
      <trkpt lat="45.71446" lon="6.72517">
        <ele>2555</ele>
        <time>2022-08-26T23:49:34Z</time>
      </trkpt>
      <trkpt lat="45.71444" lon="6.72515">
        <ele>2554</ele>
        <time>2022-08-26T23:49:35Z</time>
      </trkpt>
      <trkpt lat="45.71443" lon="6.72513">
        <ele>2554</ele>
        <time>2022-08-26T23:49:36Z</time>
      </trkpt>
      <trkpt lat="45.7144" lon="6.7251">
        <ele>2553</ele>
        <time>2022-08-26T23:49:38Z</time>
      </trkpt>
      <trkpt lat="45.71438" lon="6.72509">
        <ele>2552</ele>
        <time>2022-08-26T23:49:40Z</time>
      </trkpt>
      <trkpt lat="45.71434" lon="6.72513">
        <ele>2551</ele>
        <time>2022-08-26T23:49:42Z</time>
      </trkpt>
      <trkpt lat="45.71432" lon="6.72515">
        <ele>2550</ele>
        <time>2022-08-26T23:49:44Z</time>
      </trkpt>
      <trkpt lat="45.71431" lon="6.72517">
        <ele>2548</ele>
        <time>2022-08-26T23:49:46Z</time>
      </trkpt>
      <trkpt lat="45.7143" lon="6.72518">
        <ele>2548</ele>
        <time>2022-08-26T23:49:48Z</time>
      </trkpt>
      <trkpt lat="45.71428" lon="6.7252">
        <ele>2548</ele>
        <time>2022-08-26T23:49:49Z</time>
      </trkpt>
      <trkpt lat="45.71425" lon="6.72519">
        <ele>2547</ele>
        <time>2022-08-26T23:49:51Z</time>
      </trkpt>
      <trkpt lat="45.71421" lon="6.72517">
        <ele>2547</ele>
        <time>2022-08-26T23:49:53Z</time>
      </trkpt>
      <trkpt lat="45.7142" lon="6.72517">
        <ele>2545</ele>
        <time>2022-08-26T23:49:54Z</time>
      </trkpt>
      <trkpt lat="45.71418" lon="6.72515">
        <ele>2544</ele>
        <time>2022-08-26T23:49:56Z</time>
      </trkpt>
      <trkpt lat="45.71415" lon="6.72513">
        <ele>2543</ele>
        <time>2022-08-26T23:49:58Z</time>
      </trkpt>
      <trkpt lat="45.71413" lon="6.7251">
        <ele>2542</ele>
        <time>2022-08-26T23:50:00Z</time>
      </trkpt>
      <trkpt lat="45.71411" lon="6.72509">
        <ele>2542</ele>
        <time>2022-08-26T23:50:02Z</time>
      </trkpt>
      <trkpt lat="45.7141" lon="6.72513">
        <ele>2540</ele>
        <time>2022-08-26T23:50:05Z</time>
      </trkpt>
      <trkpt lat="45.7141" lon="6.72516">
        <ele>2539</ele>
        <time>2022-08-26T23:50:07Z</time>
      </trkpt>
      <trkpt lat="45.7141" lon="6.7252">
        <ele>2538</ele>
        <time>2022-08-26T23:50:09Z</time>
      </trkpt>
      <trkpt lat="45.71409" lon="6.72524">
        <ele>2538</ele>
        <time>2022-08-26T23:50:11Z</time>
      </trkpt>
      <trkpt lat="45.71406" lon="6.72526">
        <ele>2537</ele>
        <time>2022-08-26T23:50:13Z</time>
      </trkpt>
      <trkpt lat="45.71404" lon="6.72526">
        <ele>2536</ele>
        <time>2022-08-26T23:50:15Z</time>
      </trkpt>
      <trkpt lat="45.71402" lon="6.72525">
        <ele>2536</ele>
        <time>2022-08-26T23:50:16Z</time>
      </trkpt>
      <trkpt lat="45.714" lon="6.72524">
        <ele>2533</ele>
        <time>2022-08-26T23:50:17Z</time>
      </trkpt>
      <trkpt lat="45.71398" lon="6.72523">
        <ele>2532</ele>
        <time>2022-08-26T23:50:18Z</time>
      </trkpt>
      <trkpt lat="45.71396" lon="6.72521">
        <ele>2532</ele>
        <time>2022-08-26T23:50:19Z</time>
      </trkpt>
      <trkpt lat="45.71395" lon="6.7252">
        <ele>2531</ele>
        <time>2022-08-26T23:50:20Z</time>
      </trkpt>
      <trkpt lat="45.71391" lon="6.72521">
        <ele>2530</ele>
        <time>2022-08-26T23:50:23Z</time>
      </trkpt>
      <trkpt lat="45.71391" lon="6.72523">
        <ele>2529</ele>
        <time>2022-08-26T23:50:25Z</time>
      </trkpt>
      <trkpt lat="45.7139" lon="6.72527">
        <ele>2528</ele>
        <time>2022-08-26T23:50:27Z</time>
      </trkpt>
      <trkpt lat="45.71387" lon="6.72529">
        <ele>2528</ele>
        <time>2022-08-26T23:50:29Z</time>
      </trkpt>
      <trkpt lat="45.71385" lon="6.72529">
        <ele>2526</ele>
        <time>2022-08-26T23:50:31Z</time>
      </trkpt>
      <trkpt lat="45.71382" lon="6.72528">
        <ele>2525</ele>
        <time>2022-08-26T23:50:33Z</time>
      </trkpt>
      <trkpt lat="45.71379" lon="6.72529">
        <ele>2524</ele>
        <time>2022-08-26T23:50:35Z</time>
      </trkpt>
      <trkpt lat="45.71376" lon="6.7253">
        <ele>2523</ele>
        <time>2022-08-26T23:50:37Z</time>
      </trkpt>
      <trkpt lat="45.71373" lon="6.72529">
        <ele>2523</ele>
        <time>2022-08-26T23:50:39Z</time>
      </trkpt>
      <trkpt lat="45.7137" lon="6.72527">
        <ele>2522</ele>
        <time>2022-08-26T23:50:41Z</time>
      </trkpt>
      <trkpt lat="45.71368" lon="6.72526">
        <ele>2520</ele>
        <time>2022-08-26T23:50:42Z</time>
      </trkpt>
      <trkpt lat="45.71364" lon="6.72527">
        <ele>2519</ele>
        <time>2022-08-26T23:50:44Z</time>
      </trkpt>
      <trkpt lat="45.71361" lon="6.72526">
        <ele>2516</ele>
        <time>2022-08-26T23:50:46Z</time>
      </trkpt>
      <trkpt lat="45.71358" lon="6.72526">
        <ele>2515</ele>
        <time>2022-08-26T23:50:48Z</time>
      </trkpt>
      <trkpt lat="45.71356" lon="6.72526">
        <ele>2514</ele>
        <time>2022-08-26T23:50:50Z</time>
      </trkpt>
      <trkpt lat="45.71353" lon="6.72527">
        <ele>2513</ele>
        <time>2022-08-26T23:50:52Z</time>
      </trkpt>
      <trkpt lat="45.7135" lon="6.72527">
        <ele>2512</ele>
        <time>2022-08-26T23:50:54Z</time>
      </trkpt>
      <trkpt lat="45.71349" lon="6.72523">
        <ele>2512</ele>
        <time>2022-08-26T23:50:56Z</time>
      </trkpt>
      <trkpt lat="45.7135" lon="6.72521">
        <ele>2511</ele>
        <time>2022-08-26T23:50:57Z</time>
      </trkpt>
      <trkpt lat="45.71351" lon="6.72519">
        <ele>2510</ele>
        <time>2022-08-26T23:50:58Z</time>
      </trkpt>
      <trkpt lat="45.71353" lon="6.72517">
        <ele>2510</ele>
        <time>2022-08-26T23:50:59Z</time>
      </trkpt>
      <trkpt lat="45.71354" lon="6.72514">
        <ele>2510</ele>
        <time>2022-08-26T23:51:00Z</time>
      </trkpt>
      <trkpt lat="45.71355" lon="6.72509">
        <ele>2508</ele>
        <time>2022-08-26T23:51:02Z</time>
      </trkpt>
      <trkpt lat="45.71356" lon="6.72507">
        <ele>2508</ele>
        <time>2022-08-26T23:51:03Z</time>
      </trkpt>
      <trkpt lat="45.71356" lon="6.72504">
        <ele>2507</ele>
        <time>2022-08-26T23:51:04Z</time>
      </trkpt>
      <trkpt lat="45.71355" lon="6.72501">
        <ele>2507</ele>
        <time>2022-08-26T23:51:05Z</time>
      </trkpt>
      <trkpt lat="45.71352" lon="6.72496">
        <ele>2506</ele>
        <time>2022-08-26T23:51:07Z</time>
      </trkpt>
      <trkpt lat="45.71352" lon="6.72495">
        <ele>2505</ele>
        <time>2022-08-26T23:51:08Z</time>
      </trkpt>
      <trkpt lat="45.71349" lon="6.72492">
        <ele>2505</ele>
        <time>2022-08-26T23:51:10Z</time>
      </trkpt>
      <trkpt lat="45.71347" lon="6.72489">
        <ele>2504</ele>
        <time>2022-08-26T23:51:12Z</time>
      </trkpt>
      <trkpt lat="45.71345" lon="6.72485">
        <ele>2504</ele>
        <time>2022-08-26T23:51:14Z</time>
      </trkpt>
      <trkpt lat="45.71344" lon="6.72481">
        <ele>2503</ele>
        <time>2022-08-26T23:51:16Z</time>
      </trkpt>
      <trkpt lat="45.71344" lon="6.72475">
        <ele>2502</ele>
        <time>2022-08-26T23:51:18Z</time>
      </trkpt>
      <trkpt lat="45.71345" lon="6.72474">
        <ele>2502</ele>
        <time>2022-08-26T23:51:19Z</time>
      </trkpt>
      <trkpt lat="45.71346" lon="6.7247">
        <ele>2501</ele>
        <time>2022-08-26T23:51:21Z</time>
      </trkpt>
      <trkpt lat="45.71343" lon="6.7247">
        <ele>2499</ele>
        <time>2022-08-26T23:51:24Z</time>
      </trkpt>
      <trkpt lat="45.7134" lon="6.72473">
        <ele>2499</ele>
        <time>2022-08-26T23:51:26Z</time>
      </trkpt>
      <trkpt lat="45.71337" lon="6.72475">
        <ele>2498</ele>
        <time>2022-08-26T23:51:28Z</time>
      </trkpt>
      <trkpt lat="45.71336" lon="6.72478">
        <ele>2498</ele>
        <time>2022-08-26T23:51:29Z</time>
      </trkpt>
      <trkpt lat="45.71333" lon="6.72478">
        <ele>2496</ele>
        <time>2022-08-26T23:51:31Z</time>
      </trkpt>
      <trkpt lat="45.71334" lon="6.72474">
        <ele>2496</ele>
        <time>2022-08-26T23:51:33Z</time>
      </trkpt>
      <trkpt lat="45.71335" lon="6.72471">
        <ele>2495</ele>
        <time>2022-08-26T23:51:34Z</time>
      </trkpt>
      <trkpt lat="45.71336" lon="6.72468">
        <ele>2494</ele>
        <time>2022-08-26T23:51:35Z</time>
      </trkpt>
      <trkpt lat="45.71337" lon="6.72465">
        <ele>2494</ele>
        <time>2022-08-26T23:51:36Z</time>
      </trkpt>
      <trkpt lat="45.71338" lon="6.72463">
        <ele>2494</ele>
        <time>2022-08-26T23:51:37Z</time>
      </trkpt>
      <trkpt lat="45.71338" lon="6.7246">
        <ele>2493</ele>
        <time>2022-08-26T23:51:38Z</time>
      </trkpt>
      <trkpt lat="45.7134" lon="6.72456">
        <ele>2493</ele>
        <time>2022-08-26T23:51:39Z</time>
      </trkpt>
      <trkpt lat="45.7134" lon="6.72455">
        <ele>2492</ele>
        <time>2022-08-26T23:51:40Z</time>
      </trkpt>
      <trkpt lat="45.71341" lon="6.72452">
        <ele>2492</ele>
        <time>2022-08-26T23:51:41Z</time>
      </trkpt>
      <trkpt lat="45.71342" lon="6.7245">
        <ele>2491</ele>
        <time>2022-08-26T23:51:42Z</time>
      </trkpt>
      <trkpt lat="45.71343" lon="6.72447">
        <ele>2491</ele>
        <time>2022-08-26T23:51:43Z</time>
      </trkpt>
      <trkpt lat="45.71344" lon="6.72445">
        <ele>2491</ele>
        <time>2022-08-26T23:51:44Z</time>
      </trkpt>
      <trkpt lat="45.71344" lon="6.72441">
        <ele>2490</ele>
        <time>2022-08-26T23:51:46Z</time>
      </trkpt>
      <trkpt lat="45.7134" lon="6.72443">
        <ele>2488</ele>
        <time>2022-08-26T23:51:48Z</time>
      </trkpt>
      <trkpt lat="45.71338" lon="6.72444">
        <ele>2488</ele>
        <time>2022-08-26T23:51:49Z</time>
      </trkpt>
      <trkpt lat="45.71337" lon="6.72446">
        <ele>2488</ele>
        <time>2022-08-26T23:51:50Z</time>
      </trkpt>
      <trkpt lat="45.71335" lon="6.72447">
        <ele>2488</ele>
        <time>2022-08-26T23:51:51Z</time>
      </trkpt>
      <trkpt lat="45.71333" lon="6.72448">
        <ele>2487</ele>
        <time>2022-08-26T23:51:52Z</time>
      </trkpt>
      <trkpt lat="45.71332" lon="6.7245">
        <ele>2487</ele>
        <time>2022-08-26T23:51:53Z</time>
      </trkpt>
      <trkpt lat="45.7133" lon="6.72451">
        <ele>2486</ele>
        <time>2022-08-26T23:51:54Z</time>
      </trkpt>
      <trkpt lat="45.71328" lon="6.72452">
        <ele>2486</ele>
        <time>2022-08-26T23:51:55Z</time>
      </trkpt>
      <trkpt lat="45.71326" lon="6.72453">
        <ele>2486</ele>
        <time>2022-08-26T23:51:56Z</time>
      </trkpt>
      <trkpt lat="45.71322" lon="6.72456">
        <ele>2484</ele>
        <time>2022-08-26T23:51:58Z</time>
      </trkpt>
      <trkpt lat="45.71322" lon="6.72457">
        <ele>2482</ele>
        <time>2022-08-26T23:51:59Z</time>
      </trkpt>
      <trkpt lat="45.7132" lon="6.72459">
        <ele>2482</ele>
        <time>2022-08-26T23:52:00Z</time>
      </trkpt>
      <trkpt lat="45.71319" lon="6.72461">
        <ele>2482</ele>
        <time>2022-08-26T23:52:01Z</time>
      </trkpt>
      <trkpt lat="45.71318" lon="6.72464">
        <ele>2482</ele>
        <time>2022-08-26T23:52:02Z</time>
      </trkpt>
      <trkpt lat="45.71317" lon="6.72466">
        <ele>2481</ele>
        <time>2022-08-26T23:52:03Z</time>
      </trkpt>
      <trkpt lat="45.71316" lon="6.72468">
        <ele>2481</ele>
        <time>2022-08-26T23:52:04Z</time>
      </trkpt>
      <trkpt lat="45.71315" lon="6.72471">
        <ele>2481</ele>
        <time>2022-08-26T23:52:05Z</time>
      </trkpt>
      <trkpt lat="45.71313" lon="6.72475">
        <ele>2480</ele>
        <time>2022-08-26T23:52:07Z</time>
      </trkpt>
      <trkpt lat="45.71312" lon="6.72477">
        <ele>2479</ele>
        <time>2022-08-26T23:52:08Z</time>
      </trkpt>
      <trkpt lat="45.7131" lon="6.72479">
        <ele>2479</ele>
        <time>2022-08-26T23:52:09Z</time>
      </trkpt>
      <trkpt lat="45.71309" lon="6.72481">
        <ele>2479</ele>
        <time>2022-08-26T23:52:10Z</time>
      </trkpt>
      <trkpt lat="45.71307" lon="6.72484">
        <ele>2479</ele>
        <time>2022-08-26T23:52:11Z</time>
      </trkpt>
      <trkpt lat="45.71306" lon="6.72485">
        <ele>2477</ele>
        <time>2022-08-26T23:52:12Z</time>
      </trkpt>
      <trkpt lat="45.71305" lon="6.72487">
        <ele>2477</ele>
        <time>2022-08-26T23:52:13Z</time>
      </trkpt>
      <trkpt lat="45.71303" lon="6.72487">
        <ele>2477</ele>
        <time>2022-08-26T23:52:14Z</time>
      </trkpt>
      <trkpt lat="45.71301" lon="6.72487">
        <ele>2476</ele>
        <time>2022-08-26T23:52:16Z</time>
      </trkpt>
      <trkpt lat="45.713" lon="6.72486">
        <ele>2476</ele>
        <time>2022-08-26T23:52:17Z</time>
      </trkpt>
      <trkpt lat="45.71299" lon="6.72485">
        <ele>2475</ele>
        <time>2022-08-26T23:52:18Z</time>
      </trkpt>
      <trkpt lat="45.71295" lon="6.72482">
        <ele>2475</ele>
        <time>2022-08-26T23:52:19Z</time>
      </trkpt>
      <trkpt lat="45.71294" lon="6.72482">
        <ele>2472</ele>
        <time>2022-08-26T23:52:20Z</time>
      </trkpt>
      <trkpt lat="45.71292" lon="6.7248">
        <ele>2471</ele>
        <time>2022-08-26T23:52:21Z</time>
      </trkpt>
      <trkpt lat="45.7129" lon="6.72477">
        <ele>2471</ele>
        <time>2022-08-26T23:52:22Z</time>
      </trkpt>
      <trkpt lat="45.71288" lon="6.72476">
        <ele>2470</ele>
        <time>2022-08-26T23:52:23Z</time>
      </trkpt>
      <trkpt lat="45.71287" lon="6.72474">
        <ele>2470</ele>
        <time>2022-08-26T23:52:24Z</time>
      </trkpt>
      <trkpt lat="45.71284" lon="6.72472">
        <ele>2470</ele>
        <time>2022-08-26T23:52:26Z</time>
      </trkpt>
      <trkpt lat="45.71281" lon="6.7247">
        <ele>2468</ele>
        <time>2022-08-26T23:52:28Z</time>
      </trkpt>
      <trkpt lat="45.71279" lon="6.72468">
        <ele>2468</ele>
        <time>2022-08-26T23:52:32Z</time>
      </trkpt>
      <trkpt lat="45.71275" lon="6.72466">
        <ele>2467</ele>
        <time>2022-08-26T23:52:34Z</time>
      </trkpt>
      <trkpt lat="45.71274" lon="6.72465">
        <ele>2466</ele>
        <time>2022-08-26T23:52:35Z</time>
      </trkpt>
      <trkpt lat="45.71272" lon="6.72463">
        <ele>2464</ele>
        <time>2022-08-26T23:52:36Z</time>
      </trkpt>
      <trkpt lat="45.7127" lon="6.72462">
        <ele>2463</ele>
        <time>2022-08-26T23:52:37Z</time>
      </trkpt>
      <trkpt lat="45.71269" lon="6.72461">
        <ele>2463</ele>
        <time>2022-08-26T23:52:38Z</time>
      </trkpt>
      <trkpt lat="45.71267" lon="6.7246">
        <ele>2463</ele>
        <time>2022-08-26T23:52:39Z</time>
      </trkpt>
      <trkpt lat="45.71265" lon="6.7246">
        <ele>2463</ele>
        <time>2022-08-26T23:52:40Z</time>
      </trkpt>
      <trkpt lat="45.71263" lon="6.7246">
        <ele>2462</ele>
        <time>2022-08-26T23:52:41Z</time>
      </trkpt>
      <trkpt lat="45.71261" lon="6.7246">
        <ele>2462</ele>
        <time>2022-08-26T23:52:42Z</time>
      </trkpt>
      <trkpt lat="45.71259" lon="6.72461">
        <ele>2462</ele>
        <time>2022-08-26T23:52:43Z</time>
      </trkpt>
      <trkpt lat="45.71258" lon="6.72463">
        <ele>2461</ele>
        <time>2022-08-26T23:52:44Z</time>
      </trkpt>
      <trkpt lat="45.71255" lon="6.72466">
        <ele>2461</ele>
        <time>2022-08-26T23:52:46Z</time>
      </trkpt>
      <trkpt lat="45.71254" lon="6.72468">
        <ele>2460</ele>
        <time>2022-08-26T23:52:47Z</time>
      </trkpt>
      <trkpt lat="45.71253" lon="6.7247">
        <ele>2460</ele>
        <time>2022-08-26T23:52:48Z</time>
      </trkpt>
      <trkpt lat="45.71252" lon="6.72472">
        <ele>2458</ele>
        <time>2022-08-26T23:52:49Z</time>
      </trkpt>
      <trkpt lat="45.71252" lon="6.72477">
        <ele>2457</ele>
        <time>2022-08-26T23:52:51Z</time>
      </trkpt>
      <trkpt lat="45.71253" lon="6.7248">
        <ele>2457</ele>
        <time>2022-08-26T23:52:52Z</time>
      </trkpt>
      <trkpt lat="45.71254" lon="6.72483">
        <ele>2457</ele>
        <time>2022-08-26T23:52:53Z</time>
      </trkpt>
      <trkpt lat="45.71255" lon="6.72485">
        <ele>2457</ele>
        <time>2022-08-26T23:52:54Z</time>
      </trkpt>
      <trkpt lat="45.71255" lon="6.72488">
        <ele>2456</ele>
        <time>2022-08-26T23:52:55Z</time>
      </trkpt>
      <trkpt lat="45.71256" lon="6.72491">
        <ele>2454</ele>
        <time>2022-08-26T23:52:56Z</time>
      </trkpt>
      <trkpt lat="45.71257" lon="6.72493">
        <ele>2454</ele>
        <time>2022-08-26T23:52:57Z</time>
      </trkpt>
      <trkpt lat="45.71258" lon="6.72496">
        <ele>2454</ele>
        <time>2022-08-26T23:52:58Z</time>
      </trkpt>
      <trkpt lat="45.71256" lon="6.725">
        <ele>2453</ele>
        <time>2022-08-26T23:53:00Z</time>
      </trkpt>
      <trkpt lat="45.71253" lon="6.725">
        <ele>2453</ele>
        <time>2022-08-26T23:53:01Z</time>
      </trkpt>
      <trkpt lat="45.71252" lon="6.725">
        <ele>2453</ele>
        <time>2022-08-26T23:53:02Z</time>
      </trkpt>
      <trkpt lat="45.7125" lon="6.72499">
        <ele>2452</ele>
        <time>2022-08-26T23:53:03Z</time>
      </trkpt>
      <trkpt lat="45.71246" lon="6.72498">
        <ele>2452</ele>
        <time>2022-08-26T23:53:04Z</time>
      </trkpt>
      <trkpt lat="45.71245" lon="6.72498">
        <ele>2452</ele>
        <time>2022-08-26T23:53:05Z</time>
      </trkpt>
      <trkpt lat="45.71242" lon="6.72497">
        <ele>2452</ele>
        <time>2022-08-26T23:53:06Z</time>
      </trkpt>
      <trkpt lat="45.71241" lon="6.72496">
        <ele>2451</ele>
        <time>2022-08-26T23:53:07Z</time>
      </trkpt>
      <trkpt lat="45.71239" lon="6.72495">
        <ele>2451</ele>
        <time>2022-08-26T23:53:08Z</time>
      </trkpt>
      <trkpt lat="45.71237" lon="6.72494">
        <ele>2451</ele>
        <time>2022-08-26T23:53:09Z</time>
      </trkpt>
      <trkpt lat="45.71236" lon="6.72494">
        <ele>2450</ele>
        <time>2022-08-26T23:53:10Z</time>
      </trkpt>
      <trkpt lat="45.71234" lon="6.72494">
        <ele>2450</ele>
        <time>2022-08-26T23:53:11Z</time>
      </trkpt>
      <trkpt lat="45.71233" lon="6.72494">
        <ele>2449</ele>
        <time>2022-08-26T23:53:12Z</time>
      </trkpt>
      <trkpt lat="45.7123" lon="6.72494">
        <ele>2449</ele>
        <time>2022-08-26T23:53:13Z</time>
      </trkpt>
      <trkpt lat="45.71227" lon="6.72495">
        <ele>2448</ele>
        <time>2022-08-26T23:53:15Z</time>
      </trkpt>
      <trkpt lat="45.71223" lon="6.72496">
        <ele>2447</ele>
        <time>2022-08-26T23:53:17Z</time>
      </trkpt>
      <trkpt lat="45.7122" lon="6.72498">
        <ele>2446</ele>
        <time>2022-08-26T23:53:19Z</time>
      </trkpt>
      <trkpt lat="45.71217" lon="6.725">
        <ele>2445</ele>
        <time>2022-08-26T23:53:21Z</time>
      </trkpt>
      <trkpt lat="45.71215" lon="6.72504">
        <ele>2444</ele>
        <time>2022-08-26T23:53:23Z</time>
      </trkpt>
      <trkpt lat="45.71215" lon="6.72507">
        <ele>2444</ele>
        <time>2022-08-26T23:53:24Z</time>
      </trkpt>
      <trkpt lat="45.71215" lon="6.72509">
        <ele>2443</ele>
        <time>2022-08-26T23:53:25Z</time>
      </trkpt>
      <trkpt lat="45.71213" lon="6.72514">
        <ele>2443</ele>
        <time>2022-08-26T23:53:27Z</time>
      </trkpt>
      <trkpt lat="45.71211" lon="6.72516">
        <ele>2442</ele>
        <time>2022-08-26T23:53:29Z</time>
      </trkpt>
      <trkpt lat="45.71208" lon="6.72519">
        <ele>2442</ele>
        <time>2022-08-26T23:53:31Z</time>
      </trkpt>
      <trkpt lat="45.71206" lon="6.72521">
        <ele>2441</ele>
        <time>2022-08-26T23:53:32Z</time>
      </trkpt>
      <trkpt lat="45.71205" lon="6.72523">
        <ele>2440</ele>
        <time>2022-08-26T23:53:33Z</time>
      </trkpt>
      <trkpt lat="45.71203" lon="6.72524">
        <ele>2439</ele>
        <time>2022-08-26T23:53:34Z</time>
      </trkpt>
      <trkpt lat="45.71202" lon="6.72526">
        <ele>2439</ele>
        <time>2022-08-26T23:53:35Z</time>
      </trkpt>
      <trkpt lat="45.71199" lon="6.7253">
        <ele>2439</ele>
        <time>2022-08-26T23:53:37Z</time>
      </trkpt>
      <trkpt lat="45.71198" lon="6.72535">
        <ele>2439</ele>
        <time>2022-08-26T23:53:39Z</time>
      </trkpt>
      <trkpt lat="45.71199" lon="6.72538">
        <ele>2438</ele>
        <time>2022-08-26T23:53:40Z</time>
      </trkpt>
      <trkpt lat="45.71199" lon="6.72542">
        <ele>2438</ele>
        <time>2022-08-26T23:53:41Z</time>
      </trkpt>
      <trkpt lat="45.712" lon="6.72543">
        <ele>2438</ele>
        <time>2022-08-26T23:53:42Z</time>
      </trkpt>
      <trkpt lat="45.712" lon="6.72548">
        <ele>2437</ele>
        <time>2022-08-26T23:53:44Z</time>
      </trkpt>
      <trkpt lat="45.71198" lon="6.7255">
        <ele>2436</ele>
        <time>2022-08-26T23:53:46Z</time>
      </trkpt>
      <trkpt lat="45.71195" lon="6.7255">
        <ele>2435</ele>
        <time>2022-08-26T23:53:48Z</time>
      </trkpt>
      <trkpt lat="45.71191" lon="6.72548">
        <ele>2435</ele>
        <time>2022-08-26T23:53:50Z</time>
      </trkpt>
      <trkpt lat="45.71188" lon="6.72546">
        <ele>2433</ele>
        <time>2022-08-26T23:53:52Z</time>
      </trkpt>
      <trkpt lat="45.71185" lon="6.72547">
        <ele>2432</ele>
        <time>2022-08-26T23:53:54Z</time>
      </trkpt>
      <trkpt lat="45.71186" lon="6.7255">
        <ele>2431</ele>
        <time>2022-08-26T23:53:56Z</time>
      </trkpt>
      <trkpt lat="45.71187" lon="6.72554">
        <ele>2431</ele>
        <time>2022-08-26T23:53:58Z</time>
      </trkpt>
      <trkpt lat="45.71187" lon="6.72559">
        <ele>2431</ele>
        <time>2022-08-26T23:54:00Z</time>
      </trkpt>
      <trkpt lat="45.71186" lon="6.72561">
        <ele>2431</ele>
        <time>2022-08-26T23:54:02Z</time>
      </trkpt>
      <trkpt lat="45.71184" lon="6.72562">
        <ele>2430</ele>
        <time>2022-08-26T23:54:03Z</time>
      </trkpt>
      <trkpt lat="45.71183" lon="6.72563">
        <ele>2430</ele>
        <time>2022-08-26T23:54:04Z</time>
      </trkpt>
      <trkpt lat="45.71179" lon="6.72564">
        <ele>2430</ele>
        <time>2022-08-26T23:54:06Z</time>
      </trkpt>
      <trkpt lat="45.71176" lon="6.72564">
        <ele>2430</ele>
        <time>2022-08-26T23:54:08Z</time>
      </trkpt>
      <trkpt lat="45.71172" lon="6.72564">
        <ele>2430</ele>
        <time>2022-08-26T23:54:10Z</time>
      </trkpt>
      <trkpt lat="45.71169" lon="6.72565">
        <ele>2430</ele>
        <time>2022-08-26T23:54:11Z</time>
      </trkpt>
      <trkpt lat="45.71168" lon="6.72565">
        <ele>2430</ele>
        <time>2022-08-26T23:54:12Z</time>
      </trkpt>
      <trkpt lat="45.71165" lon="6.72566">
        <ele>2430</ele>
        <time>2022-08-26T23:54:13Z</time>
      </trkpt>
      <trkpt lat="45.71163" lon="6.72566">
        <ele>2430</ele>
        <time>2022-08-26T23:54:14Z</time>
      </trkpt>
      <trkpt lat="45.71162" lon="6.72567">
        <ele>2430</ele>
        <time>2022-08-26T23:54:15Z</time>
      </trkpt>
      <trkpt lat="45.7116" lon="6.72568">
        <ele>2430</ele>
        <time>2022-08-26T23:54:16Z</time>
      </trkpt>
      <trkpt lat="45.71157" lon="6.72569">
        <ele>2430</ele>
        <time>2022-08-26T23:54:17Z</time>
      </trkpt>
      <trkpt lat="45.71156" lon="6.7257">
        <ele>2430</ele>
        <time>2022-08-26T23:54:18Z</time>
      </trkpt>
      <trkpt lat="45.71154" lon="6.72572">
        <ele>2430</ele>
        <time>2022-08-26T23:54:19Z</time>
      </trkpt>
      <trkpt lat="45.71152" lon="6.72574">
        <ele>2428</ele>
        <time>2022-08-26T23:54:20Z</time>
      </trkpt>
      <trkpt lat="45.7115" lon="6.72576">
        <ele>2428</ele>
        <time>2022-08-26T23:54:21Z</time>
      </trkpt>
      <trkpt lat="45.71148" lon="6.72579">
        <ele>2428</ele>
        <time>2022-08-26T23:54:22Z</time>
      </trkpt>
      <trkpt lat="45.71147" lon="6.7258">
        <ele>2428</ele>
        <time>2022-08-26T23:54:23Z</time>
      </trkpt>
      <trkpt lat="45.71145" lon="6.72583">
        <ele>2427</ele>
        <time>2022-08-26T23:54:24Z</time>
      </trkpt>
      <trkpt lat="45.71143" lon="6.72585">
        <ele>2427</ele>
        <time>2022-08-26T23:54:25Z</time>
      </trkpt>
      <trkpt lat="45.71142" lon="6.72587">
        <ele>2426</ele>
        <time>2022-08-26T23:54:26Z</time>
      </trkpt>
      <trkpt lat="45.71141" lon="6.7259">
        <ele>2426</ele>
        <time>2022-08-26T23:54:27Z</time>
      </trkpt>
      <trkpt lat="45.71139" lon="6.72592">
        <ele>2426</ele>
        <time>2022-08-26T23:54:28Z</time>
      </trkpt>
      <trkpt lat="45.71137" lon="6.72594">
        <ele>2426</ele>
        <time>2022-08-26T23:54:29Z</time>
      </trkpt>
      <trkpt lat="45.71135" lon="6.72596">
        <ele>2426</ele>
        <time>2022-08-26T23:54:30Z</time>
      </trkpt>
      <trkpt lat="45.71133" lon="6.72597">
        <ele>2426</ele>
        <time>2022-08-26T23:54:31Z</time>
      </trkpt>
      <trkpt lat="45.71132" lon="6.72599">
        <ele>2426</ele>
        <time>2022-08-26T23:54:32Z</time>
      </trkpt>
      <trkpt lat="45.7113" lon="6.72601">
        <ele>2425</ele>
        <time>2022-08-26T23:54:33Z</time>
      </trkpt>
      <trkpt lat="45.71129" lon="6.72604">
        <ele>2425</ele>
        <time>2022-08-26T23:54:34Z</time>
      </trkpt>
      <trkpt lat="45.71128" lon="6.72606">
        <ele>2425</ele>
        <time>2022-08-26T23:54:35Z</time>
      </trkpt>
      <trkpt lat="45.71127" lon="6.72608">
        <ele>2424</ele>
        <time>2022-08-26T23:54:36Z</time>
      </trkpt>
      <trkpt lat="45.71124" lon="6.72612">
        <ele>2424</ele>
        <time>2022-08-26T23:54:37Z</time>
      </trkpt>
      <trkpt lat="45.71123" lon="6.72613">
        <ele>2423</ele>
        <time>2022-08-26T23:54:38Z</time>
      </trkpt>
      <trkpt lat="45.71122" lon="6.72615">
        <ele>2423</ele>
        <time>2022-08-26T23:54:39Z</time>
      </trkpt>
      <trkpt lat="45.71121" lon="6.72617">
        <ele>2423</ele>
        <time>2022-08-26T23:54:40Z</time>
      </trkpt>
      <trkpt lat="45.71119" lon="6.72619">
        <ele>2423</ele>
        <time>2022-08-26T23:54:41Z</time>
      </trkpt>
      <trkpt lat="45.71118" lon="6.72621">
        <ele>2423</ele>
        <time>2022-08-26T23:54:42Z</time>
      </trkpt>
      <trkpt lat="45.71117" lon="6.72623">
        <ele>2423</ele>
        <time>2022-08-26T23:54:43Z</time>
      </trkpt>
      <trkpt lat="45.71116" lon="6.72625">
        <ele>2422</ele>
        <time>2022-08-26T23:54:44Z</time>
      </trkpt>
      <trkpt lat="45.71115" lon="6.72628">
        <ele>2421</ele>
        <time>2022-08-26T23:54:45Z</time>
      </trkpt>
      <trkpt lat="45.71114" lon="6.7263">
        <ele>2421</ele>
        <time>2022-08-26T23:54:46Z</time>
      </trkpt>
      <trkpt lat="45.71112" lon="6.72631">
        <ele>2420</ele>
        <time>2022-08-26T23:54:47Z</time>
      </trkpt>
      <trkpt lat="45.7111" lon="6.72633">
        <ele>2420</ele>
        <time>2022-08-26T23:54:48Z</time>
      </trkpt>
      <trkpt lat="45.71107" lon="6.72635">
        <ele>2420</ele>
        <time>2022-08-26T23:54:49Z</time>
      </trkpt>
      <trkpt lat="45.71106" lon="6.72636">
        <ele>2419</ele>
        <time>2022-08-26T23:54:50Z</time>
      </trkpt>
      <trkpt lat="45.71104" lon="6.72637">
        <ele>2419</ele>
        <time>2022-08-26T23:54:51Z</time>
      </trkpt>
      <trkpt lat="45.71103" lon="6.72639">
        <ele>2418</ele>
        <time>2022-08-26T23:54:52Z</time>
      </trkpt>
      <trkpt lat="45.71101" lon="6.72641">
        <ele>2417</ele>
        <time>2022-08-26T23:54:53Z</time>
      </trkpt>
      <trkpt lat="45.711" lon="6.72643">
        <ele>2417</ele>
        <time>2022-08-26T23:54:54Z</time>
      </trkpt>
      <trkpt lat="45.71099" lon="6.72645">
        <ele>2417</ele>
        <time>2022-08-26T23:54:55Z</time>
      </trkpt>
      <trkpt lat="45.71097" lon="6.72649">
        <ele>2417</ele>
        <time>2022-08-26T23:54:56Z</time>
      </trkpt>
      <trkpt lat="45.71096" lon="6.7265">
        <ele>2415</ele>
        <time>2022-08-26T23:54:57Z</time>
      </trkpt>
      <trkpt lat="45.71094" lon="6.72652">
        <ele>2415</ele>
        <time>2022-08-26T23:54:58Z</time>
      </trkpt>
      <trkpt lat="45.71093" lon="6.72654">
        <ele>2415</ele>
        <time>2022-08-26T23:54:59Z</time>
      </trkpt>
      <trkpt lat="45.71091" lon="6.72655">
        <ele>2415</ele>
        <time>2022-08-26T23:55:00Z</time>
      </trkpt>
      <trkpt lat="45.7109" lon="6.72657">
        <ele>2415</ele>
        <time>2022-08-26T23:55:01Z</time>
      </trkpt>
      <trkpt lat="45.71088" lon="6.72659">
        <ele>2415</ele>
        <time>2022-08-26T23:55:02Z</time>
      </trkpt>
      <trkpt lat="45.71086" lon="6.72661">
        <ele>2415</ele>
        <time>2022-08-26T23:55:03Z</time>
      </trkpt>
      <trkpt lat="45.71085" lon="6.72663">
        <ele>2415</ele>
        <time>2022-08-26T23:55:04Z</time>
      </trkpt>
      <trkpt lat="45.71082" lon="6.72668">
        <ele>2413</ele>
        <time>2022-08-26T23:55:06Z</time>
      </trkpt>
      <trkpt lat="45.71081" lon="6.72669">
        <ele>2413</ele>
        <time>2022-08-26T23:55:07Z</time>
      </trkpt>
      <trkpt lat="45.7108" lon="6.72671">
        <ele>2412</ele>
        <time>2022-08-26T23:55:08Z</time>
      </trkpt>
      <trkpt lat="45.71078" lon="6.72673">
        <ele>2411</ele>
        <time>2022-08-26T23:55:09Z</time>
      </trkpt>
      <trkpt lat="45.71077" lon="6.72674">
        <ele>2411</ele>
        <time>2022-08-26T23:55:10Z</time>
      </trkpt>
      <trkpt lat="45.71075" lon="6.72676">
        <ele>2410</ele>
        <time>2022-08-26T23:55:11Z</time>
      </trkpt>
      <trkpt lat="45.71073" lon="6.72678">
        <ele>2410</ele>
        <time>2022-08-26T23:55:12Z</time>
      </trkpt>
      <trkpt lat="45.71071" lon="6.72679">
        <ele>2410</ele>
        <time>2022-08-26T23:55:13Z</time>
      </trkpt>
      <trkpt lat="45.7107" lon="6.72682">
        <ele>2409</ele>
        <time>2022-08-26T23:55:14Z</time>
      </trkpt>
      <trkpt lat="45.71067" lon="6.72685">
        <ele>2409</ele>
        <time>2022-08-26T23:55:15Z</time>
      </trkpt>
      <trkpt lat="45.71067" lon="6.72686">
        <ele>2408</ele>
        <time>2022-08-26T23:55:16Z</time>
      </trkpt>
      <trkpt lat="45.71065" lon="6.72688">
        <ele>2408</ele>
        <time>2022-08-26T23:55:17Z</time>
      </trkpt>
      <trkpt lat="45.71063" lon="6.7269">
        <ele>2408</ele>
        <time>2022-08-26T23:55:18Z</time>
      </trkpt>
      <trkpt lat="45.71062" lon="6.72692">
        <ele>2407</ele>
        <time>2022-08-26T23:55:19Z</time>
      </trkpt>
      <trkpt lat="45.71059" lon="6.72695">
        <ele>2407</ele>
        <time>2022-08-26T23:55:20Z</time>
      </trkpt>
      <trkpt lat="45.71058" lon="6.72696">
        <ele>2406</ele>
        <time>2022-08-26T23:55:21Z</time>
      </trkpt>
      <trkpt lat="45.71056" lon="6.72697">
        <ele>2405</ele>
        <time>2022-08-26T23:55:22Z</time>
      </trkpt>
      <trkpt lat="45.71055" lon="6.72698">
        <ele>2405</ele>
        <time>2022-08-26T23:55:23Z</time>
      </trkpt>
      <trkpt lat="45.71053" lon="6.727">
        <ele>2405</ele>
        <time>2022-08-26T23:55:24Z</time>
      </trkpt>
      <trkpt lat="45.7105" lon="6.72703">
        <ele>2405</ele>
        <time>2022-08-26T23:55:26Z</time>
      </trkpt>
      <trkpt lat="45.71049" lon="6.72706">
        <ele>2405</ele>
        <time>2022-08-26T23:55:27Z</time>
      </trkpt>
      <trkpt lat="45.71048" lon="6.72707">
        <ele>2401</ele>
        <time>2022-08-26T23:55:28Z</time>
      </trkpt>
      <trkpt lat="45.71046" lon="6.72709">
        <ele>2401</ele>
        <time>2022-08-26T23:55:29Z</time>
      </trkpt>
      <trkpt lat="45.71045" lon="6.72711">
        <ele>2401</ele>
        <time>2022-08-26T23:55:30Z</time>
      </trkpt>
      <trkpt lat="45.71043" lon="6.72713">
        <ele>2400</ele>
        <time>2022-08-26T23:55:31Z</time>
      </trkpt>
      <trkpt lat="45.71042" lon="6.72714">
        <ele>2399</ele>
        <time>2022-08-26T23:55:32Z</time>
      </trkpt>
      <trkpt lat="45.7104" lon="6.72716">
        <ele>2399</ele>
        <time>2022-08-26T23:55:33Z</time>
      </trkpt>
      <trkpt lat="45.71038" lon="6.72718">
        <ele>2399</ele>
        <time>2022-08-26T23:55:34Z</time>
      </trkpt>
      <trkpt lat="45.71037" lon="6.72723">
        <ele>2399</ele>
        <time>2022-08-26T23:55:35Z</time>
      </trkpt>
      <trkpt lat="45.71036" lon="6.72724">
        <ele>2399</ele>
        <time>2022-08-26T23:55:36Z</time>
      </trkpt>
      <trkpt lat="45.71035" lon="6.72726">
        <ele>2399</ele>
        <time>2022-08-26T23:55:37Z</time>
      </trkpt>
      <trkpt lat="45.71034" lon="6.72728">
        <ele>2399</ele>
        <time>2022-08-26T23:55:38Z</time>
      </trkpt>
      <trkpt lat="45.71031" lon="6.72731">
        <ele>2399</ele>
        <time>2022-08-26T23:55:40Z</time>
      </trkpt>
      <trkpt lat="45.71027" lon="6.72732">
        <ele>2398</ele>
        <time>2022-08-26T23:55:42Z</time>
      </trkpt>
      <trkpt lat="45.71025" lon="6.72733">
        <ele>2397</ele>
        <time>2022-08-26T23:55:43Z</time>
      </trkpt>
      <trkpt lat="45.71023" lon="6.72733">
        <ele>2397</ele>
        <time>2022-08-26T23:55:44Z</time>
      </trkpt>
      <trkpt lat="45.71019" lon="6.72732">
        <ele>2397</ele>
        <time>2022-08-26T23:55:46Z</time>
      </trkpt>
      <trkpt lat="45.71017" lon="6.72733">
        <ele>2396</ele>
        <time>2022-08-26T23:55:47Z</time>
      </trkpt>
      <trkpt lat="45.71013" lon="6.72734">
        <ele>2396</ele>
        <time>2022-08-26T23:55:48Z</time>
      </trkpt>
      <trkpt lat="45.71012" lon="6.72735">
        <ele>2396</ele>
        <time>2022-08-26T23:55:49Z</time>
      </trkpt>
      <trkpt lat="45.7101" lon="6.72736">
        <ele>2395</ele>
        <time>2022-08-26T23:55:50Z</time>
      </trkpt>
      <trkpt lat="45.71008" lon="6.72737">
        <ele>2395</ele>
        <time>2022-08-26T23:55:51Z</time>
      </trkpt>
      <trkpt lat="45.71006" lon="6.72738">
        <ele>2394</ele>
        <time>2022-08-26T23:55:52Z</time>
      </trkpt>
      <trkpt lat="45.71002" lon="6.72739">
        <ele>2394</ele>
        <time>2022-08-26T23:55:53Z</time>
      </trkpt>
      <trkpt lat="45.71001" lon="6.7274">
        <ele>2394</ele>
        <time>2022-08-26T23:55:54Z</time>
      </trkpt>
      <trkpt lat="45.71" lon="6.72741">
        <ele>2394</ele>
        <time>2022-08-26T23:55:55Z</time>
      </trkpt>
      <trkpt lat="45.70997" lon="6.72742">
        <ele>2394</ele>
        <time>2022-08-26T23:55:56Z</time>
      </trkpt>
      <trkpt lat="45.70995" lon="6.72743">
        <ele>2392</ele>
        <time>2022-08-26T23:55:57Z</time>
      </trkpt>
      <trkpt lat="45.70993" lon="6.72746">
        <ele>2392</ele>
        <time>2022-08-26T23:55:59Z</time>
      </trkpt>
      <trkpt lat="45.70991" lon="6.72748">
        <ele>2391</ele>
        <time>2022-08-26T23:56:00Z</time>
      </trkpt>
      <trkpt lat="45.7099" lon="6.7275">
        <ele>2391</ele>
        <time>2022-08-26T23:56:01Z</time>
      </trkpt>
      <trkpt lat="45.70988" lon="6.72751">
        <ele>2390</ele>
        <time>2022-08-26T23:56:02Z</time>
      </trkpt>
      <trkpt lat="45.70985" lon="6.72754">
        <ele>2390</ele>
        <time>2022-08-26T23:56:03Z</time>
      </trkpt>
      <trkpt lat="45.70984" lon="6.72755">
        <ele>2390</ele>
        <time>2022-08-26T23:56:04Z</time>
      </trkpt>
      <trkpt lat="45.70983" lon="6.72759">
        <ele>2390</ele>
        <time>2022-08-26T23:56:05Z</time>
      </trkpt>
      <trkpt lat="45.70982" lon="6.7276">
        <ele>2388</ele>
        <time>2022-08-26T23:56:06Z</time>
      </trkpt>
      <trkpt lat="45.7098" lon="6.72763">
        <ele>2388</ele>
        <time>2022-08-26T23:56:07Z</time>
      </trkpt>
      <trkpt lat="45.7098" lon="6.72765">
        <ele>2388</ele>
        <time>2022-08-26T23:56:08Z</time>
      </trkpt>
      <trkpt lat="45.70978" lon="6.72766">
        <ele>2388</ele>
        <time>2022-08-26T23:56:09Z</time>
      </trkpt>
      <trkpt lat="45.70977" lon="6.72768">
        <ele>2388</ele>
        <time>2022-08-26T23:56:10Z</time>
      </trkpt>
      <trkpt lat="45.70975" lon="6.72769">
        <ele>2388</ele>
        <time>2022-08-26T23:56:11Z</time>
      </trkpt>
      <trkpt lat="45.70973" lon="6.7277">
        <ele>2388</ele>
        <time>2022-08-26T23:56:12Z</time>
      </trkpt>
      <trkpt lat="45.7097" lon="6.72772">
        <ele>2387</ele>
        <time>2022-08-26T23:56:14Z</time>
      </trkpt>
      <trkpt lat="45.70968" lon="6.72773">
        <ele>2387</ele>
        <time>2022-08-26T23:56:15Z</time>
      </trkpt>
      <trkpt lat="45.70966" lon="6.72774">
        <ele>2387</ele>
        <time>2022-08-26T23:56:16Z</time>
      </trkpt>
      <trkpt lat="45.70964" lon="6.72775">
        <ele>2387</ele>
        <time>2022-08-26T23:56:17Z</time>
      </trkpt>
      <trkpt lat="45.70962" lon="6.72775">
        <ele>2386</ele>
        <time>2022-08-26T23:56:18Z</time>
      </trkpt>
      <trkpt lat="45.7096" lon="6.72776">
        <ele>2385</ele>
        <time>2022-08-26T23:56:19Z</time>
      </trkpt>
      <trkpt lat="45.70958" lon="6.72778">
        <ele>2385</ele>
        <time>2022-08-26T23:56:20Z</time>
      </trkpt>
      <trkpt lat="45.70956" lon="6.72779">
        <ele>2384</ele>
        <time>2022-08-26T23:56:21Z</time>
      </trkpt>
      <trkpt lat="45.70952" lon="6.7278">
        <ele>2384</ele>
        <time>2022-08-26T23:56:22Z</time>
      </trkpt>
      <trkpt lat="45.70951" lon="6.7278">
        <ele>2383</ele>
        <time>2022-08-26T23:56:23Z</time>
      </trkpt>
      <trkpt lat="45.70947" lon="6.72782">
        <ele>2383</ele>
        <time>2022-08-26T23:56:24Z</time>
      </trkpt>
      <trkpt lat="45.70946" lon="6.72782">
        <ele>2383</ele>
        <time>2022-08-26T23:56:25Z</time>
      </trkpt>
      <trkpt lat="45.70943" lon="6.72784">
        <ele>2383</ele>
        <time>2022-08-26T23:56:26Z</time>
      </trkpt>
      <trkpt lat="45.70942" lon="6.72785">
        <ele>2383</ele>
        <time>2022-08-26T23:56:27Z</time>
      </trkpt>
      <trkpt lat="45.7094" lon="6.72787">
        <ele>2383</ele>
        <time>2022-08-26T23:56:28Z</time>
      </trkpt>
      <trkpt lat="45.70938" lon="6.72789">
        <ele>2382</ele>
        <time>2022-08-26T23:56:29Z</time>
      </trkpt>
      <trkpt lat="45.70937" lon="6.72791">
        <ele>2382</ele>
        <time>2022-08-26T23:56:30Z</time>
      </trkpt>
      <trkpt lat="45.70934" lon="6.72794">
        <ele>2382</ele>
        <time>2022-08-26T23:56:31Z</time>
      </trkpt>
      <trkpt lat="45.70933" lon="6.72795">
        <ele>2381</ele>
        <time>2022-08-26T23:56:32Z</time>
      </trkpt>
      <trkpt lat="45.70931" lon="6.72797">
        <ele>2381</ele>
        <time>2022-08-26T23:56:33Z</time>
      </trkpt>
      <trkpt lat="45.70929" lon="6.72799">
        <ele>2380</ele>
        <time>2022-08-26T23:56:34Z</time>
      </trkpt>
      <trkpt lat="45.70927" lon="6.728">
        <ele>2379</ele>
        <time>2022-08-26T23:56:35Z</time>
      </trkpt>
      <trkpt lat="45.70924" lon="6.72803">
        <ele>2379</ele>
        <time>2022-08-26T23:56:36Z</time>
      </trkpt>
      <trkpt lat="45.70923" lon="6.72804">
        <ele>2379</ele>
        <time>2022-08-26T23:56:37Z</time>
      </trkpt>
      <trkpt lat="45.70922" lon="6.72806">
        <ele>2379</ele>
        <time>2022-08-26T23:56:38Z</time>
      </trkpt>
      <trkpt lat="45.70919" lon="6.72809">
        <ele>2379</ele>
        <time>2022-08-26T23:56:39Z</time>
      </trkpt>
      <trkpt lat="45.70918" lon="6.7281">
        <ele>2379</ele>
        <time>2022-08-26T23:56:40Z</time>
      </trkpt>
      <trkpt lat="45.70916" lon="6.72811">
        <ele>2379</ele>
        <time>2022-08-26T23:56:41Z</time>
      </trkpt>
      <trkpt lat="45.70914" lon="6.72813">
        <ele>2379</ele>
        <time>2022-08-26T23:56:42Z</time>
      </trkpt>
      <trkpt lat="45.70913" lon="6.72815">
        <ele>2378</ele>
        <time>2022-08-26T23:56:43Z</time>
      </trkpt>
      <trkpt lat="45.70911" lon="6.72817">
        <ele>2376</ele>
        <time>2022-08-26T23:56:44Z</time>
      </trkpt>
      <trkpt lat="45.70909" lon="6.72819">
        <ele>2378</ele>
        <time>2022-08-26T23:56:45Z</time>
      </trkpt>
      <trkpt lat="45.70907" lon="6.7282">
        <ele>2378</ele>
        <time>2022-08-26T23:56:46Z</time>
      </trkpt>
      <trkpt lat="45.70906" lon="6.72822">
        <ele>2378</ele>
        <time>2022-08-26T23:56:47Z</time>
      </trkpt>
      <trkpt lat="45.70904" lon="6.72823">
        <ele>2376</ele>
        <time>2022-08-26T23:56:48Z</time>
      </trkpt>
      <trkpt lat="45.70901" lon="6.72824">
        <ele>2376</ele>
        <time>2022-08-26T23:56:49Z</time>
      </trkpt>
      <trkpt lat="45.709" lon="6.72825">
        <ele>2376</ele>
        <time>2022-08-26T23:56:50Z</time>
      </trkpt>
      <trkpt lat="45.70897" lon="6.72827">
        <ele>2376</ele>
        <time>2022-08-26T23:56:51Z</time>
      </trkpt>
      <trkpt lat="45.70896" lon="6.72827">
        <ele>2376</ele>
        <time>2022-08-26T23:56:52Z</time>
      </trkpt>
      <trkpt lat="45.70894" lon="6.72829">
        <ele>2376</ele>
        <time>2022-08-26T23:56:53Z</time>
      </trkpt>
      <trkpt lat="45.70892" lon="6.72829">
        <ele>2376</ele>
        <time>2022-08-26T23:56:54Z</time>
      </trkpt>
      <trkpt lat="45.70891" lon="6.7283">
        <ele>2375</ele>
        <time>2022-08-26T23:56:55Z</time>
      </trkpt>
      <trkpt lat="45.70887" lon="6.72831">
        <ele>2375</ele>
        <time>2022-08-26T23:56:56Z</time>
      </trkpt>
      <trkpt lat="45.70886" lon="6.72831">
        <ele>2375</ele>
        <time>2022-08-26T23:56:57Z</time>
      </trkpt>
      <trkpt lat="45.70884" lon="6.72832">
        <ele>2375</ele>
        <time>2022-08-26T23:56:58Z</time>
      </trkpt>
      <trkpt lat="45.70882" lon="6.72831">
        <ele>2375</ele>
        <time>2022-08-26T23:56:59Z</time>
      </trkpt>
      <trkpt lat="45.70879" lon="6.7283">
        <ele>2375</ele>
        <time>2022-08-26T23:57:00Z</time>
      </trkpt>
      <trkpt lat="45.70878" lon="6.7283">
        <ele>2375</ele>
        <time>2022-08-26T23:57:01Z</time>
      </trkpt>
      <trkpt lat="45.70876" lon="6.72829">
        <ele>2375</ele>
        <time>2022-08-26T23:57:02Z</time>
      </trkpt>
      <trkpt lat="45.70873" lon="6.72828">
        <ele>2375</ele>
        <time>2022-08-26T23:57:03Z</time>
      </trkpt>
      <trkpt lat="45.70872" lon="6.72827">
        <ele>2374</ele>
        <time>2022-08-26T23:57:04Z</time>
      </trkpt>
      <trkpt lat="45.7087" lon="6.72826">
        <ele>2374</ele>
        <time>2022-08-26T23:57:05Z</time>
      </trkpt>
      <trkpt lat="45.70868" lon="6.72825">
        <ele>2373</ele>
        <time>2022-08-26T23:57:06Z</time>
      </trkpt>
      <trkpt lat="45.70866" lon="6.72825">
        <ele>2372</ele>
        <time>2022-08-26T23:57:07Z</time>
      </trkpt>
      <trkpt lat="45.70863" lon="6.72824">
        <ele>2372</ele>
        <time>2022-08-26T23:57:08Z</time>
      </trkpt>
      <trkpt lat="45.70861" lon="6.72824">
        <ele>2372</ele>
        <time>2022-08-26T23:57:09Z</time>
      </trkpt>
      <trkpt lat="45.70859" lon="6.72823">
        <ele>2372</ele>
        <time>2022-08-26T23:57:10Z</time>
      </trkpt>
      <trkpt lat="45.70857" lon="6.72822">
        <ele>2372</ele>
        <time>2022-08-26T23:57:11Z</time>
      </trkpt>
      <trkpt lat="45.70855" lon="6.72822">
        <ele>2372</ele>
        <time>2022-08-26T23:57:12Z</time>
      </trkpt>
      <trkpt lat="45.70853" lon="6.72821">
        <ele>2371</ele>
        <time>2022-08-26T23:57:13Z</time>
      </trkpt>
      <trkpt lat="45.70851" lon="6.72821">
        <ele>2371</ele>
        <time>2022-08-26T23:57:14Z</time>
      </trkpt>
      <trkpt lat="45.70847" lon="6.7282">
        <ele>2371</ele>
        <time>2022-08-26T23:57:15Z</time>
      </trkpt>
      <trkpt lat="45.70846" lon="6.7282">
        <ele>2371</ele>
        <time>2022-08-26T23:57:16Z</time>
      </trkpt>
      <trkpt lat="45.70844" lon="6.72819">
        <ele>2371</ele>
        <time>2022-08-26T23:57:17Z</time>
      </trkpt>
      <trkpt lat="45.70842" lon="6.72819">
        <ele>2371</ele>
        <time>2022-08-26T23:57:18Z</time>
      </trkpt>
      <trkpt lat="45.7084" lon="6.72819">
        <ele>2371</ele>
        <time>2022-08-26T23:57:19Z</time>
      </trkpt>
      <trkpt lat="45.70838" lon="6.72819">
        <ele>2371</ele>
        <time>2022-08-26T23:57:20Z</time>
      </trkpt>
      <trkpt lat="45.70836" lon="6.72821">
        <ele>2370</ele>
        <time>2022-08-26T23:57:21Z</time>
      </trkpt>
      <trkpt lat="45.70835" lon="6.72822">
        <ele>2369</ele>
        <time>2022-08-26T23:57:22Z</time>
      </trkpt>
      <trkpt lat="45.70832" lon="6.72825">
        <ele>2369</ele>
        <time>2022-08-26T23:57:23Z</time>
      </trkpt>
      <trkpt lat="45.70831" lon="6.72826">
        <ele>2370</ele>
        <time>2022-08-26T23:57:24Z</time>
      </trkpt>
      <trkpt lat="45.70829" lon="6.72828">
        <ele>2370</ele>
        <time>2022-08-26T23:57:25Z</time>
      </trkpt>
      <trkpt lat="45.70826" lon="6.7283">
        <ele>2370</ele>
        <time>2022-08-26T23:57:26Z</time>
      </trkpt>
      <trkpt lat="45.70825" lon="6.72831">
        <ele>2370</ele>
        <time>2022-08-26T23:57:27Z</time>
      </trkpt>
      <trkpt lat="45.70823" lon="6.72833">
        <ele>2369</ele>
        <time>2022-08-26T23:57:28Z</time>
      </trkpt>
      <trkpt lat="45.70821" lon="6.72834">
        <ele>2369</ele>
        <time>2022-08-26T23:57:29Z</time>
      </trkpt>
      <trkpt lat="45.70819" lon="6.72837">
        <ele>2369</ele>
        <time>2022-08-26T23:57:30Z</time>
      </trkpt>
      <trkpt lat="45.70818" lon="6.72838">
        <ele>2369</ele>
        <time>2022-08-26T23:57:31Z</time>
      </trkpt>
      <trkpt lat="45.70816" lon="6.7284">
        <ele>2369</ele>
        <time>2022-08-26T23:57:32Z</time>
      </trkpt>
      <trkpt lat="45.70815" lon="6.72842">
        <ele>2369</ele>
        <time>2022-08-26T23:57:33Z</time>
      </trkpt>
      <trkpt lat="45.70814" lon="6.72845">
        <ele>2368</ele>
        <time>2022-08-26T23:57:34Z</time>
      </trkpt>
      <trkpt lat="45.70812" lon="6.72848">
        <ele>2368</ele>
        <time>2022-08-26T23:57:35Z</time>
      </trkpt>
      <trkpt lat="45.70811" lon="6.7285">
        <ele>2368</ele>
        <time>2022-08-26T23:57:36Z</time>
      </trkpt>
      <trkpt lat="45.7081" lon="6.72851">
        <ele>2367</ele>
        <time>2022-08-26T23:57:37Z</time>
      </trkpt>
      <trkpt lat="45.70808" lon="6.72853">
        <ele>2367</ele>
        <time>2022-08-26T23:57:38Z</time>
      </trkpt>
      <trkpt lat="45.70806" lon="6.72857">
        <ele>2367</ele>
        <time>2022-08-26T23:57:40Z</time>
      </trkpt>
      <trkpt lat="45.70805" lon="6.72859">
        <ele>2366</ele>
        <time>2022-08-26T23:57:41Z</time>
      </trkpt>
      <trkpt lat="45.70802" lon="6.72862">
        <ele>2364</ele>
        <time>2022-08-26T23:57:43Z</time>
      </trkpt>
      <trkpt lat="45.708" lon="6.72862">
        <ele>2363</ele>
        <time>2022-08-26T23:57:44Z</time>
      </trkpt>
      <trkpt lat="45.70798" lon="6.72862">
        <ele>2363</ele>
        <time>2022-08-26T23:57:45Z</time>
      </trkpt>
      <trkpt lat="45.70796" lon="6.72862">
        <ele>2363</ele>
        <time>2022-08-26T23:57:46Z</time>
      </trkpt>
      <trkpt lat="45.70793" lon="6.72863">
        <ele>2363</ele>
        <time>2022-08-26T23:57:47Z</time>
      </trkpt>
      <trkpt lat="45.70792" lon="6.72864">
        <ele>2362</ele>
        <time>2022-08-26T23:57:48Z</time>
      </trkpt>
      <trkpt lat="45.7079" lon="6.72865">
        <ele>2362</ele>
        <time>2022-08-26T23:57:49Z</time>
      </trkpt>
      <trkpt lat="45.70789" lon="6.72866">
        <ele>2362</ele>
        <time>2022-08-26T23:57:50Z</time>
      </trkpt>
      <trkpt lat="45.70787" lon="6.72867">
        <ele>2362</ele>
        <time>2022-08-26T23:57:51Z</time>
      </trkpt>
      <trkpt lat="45.70785" lon="6.72868">
        <ele>2361</ele>
        <time>2022-08-26T23:57:52Z</time>
      </trkpt>
      <trkpt lat="45.70783" lon="6.72869">
        <ele>2360</ele>
        <time>2022-08-26T23:57:53Z</time>
      </trkpt>
      <trkpt lat="45.70781" lon="6.72871">
        <ele>2359</ele>
        <time>2022-08-26T23:57:54Z</time>
      </trkpt>
      <trkpt lat="45.70779" lon="6.72873">
        <ele>2359</ele>
        <time>2022-08-26T23:57:55Z</time>
      </trkpt>
      <trkpt lat="45.70778" lon="6.72875">
        <ele>2359</ele>
        <time>2022-08-26T23:57:56Z</time>
      </trkpt>
      <trkpt lat="45.70776" lon="6.72876">
        <ele>2358</ele>
        <time>2022-08-26T23:57:57Z</time>
      </trkpt>
      <trkpt lat="45.70774" lon="6.72878">
        <ele>2358</ele>
        <time>2022-08-26T23:57:58Z</time>
      </trkpt>
      <trkpt lat="45.70772" lon="6.7288">
        <ele>2358</ele>
        <time>2022-08-26T23:57:59Z</time>
      </trkpt>
      <trkpt lat="45.70771" lon="6.72881">
        <ele>2357</ele>
        <time>2022-08-26T23:58:00Z</time>
      </trkpt>
      <trkpt lat="45.7077" lon="6.72883">
        <ele>2357</ele>
        <time>2022-08-26T23:58:01Z</time>
      </trkpt>
      <trkpt lat="45.70768" lon="6.72885">
        <ele>2356</ele>
        <time>2022-08-26T23:58:02Z</time>
      </trkpt>
      <trkpt lat="45.70767" lon="6.72887">
        <ele>2356</ele>
        <time>2022-08-26T23:58:03Z</time>
      </trkpt>
      <trkpt lat="45.70765" lon="6.72889">
        <ele>2356</ele>
        <time>2022-08-26T23:58:04Z</time>
      </trkpt>
      <trkpt lat="45.70764" lon="6.72891">
        <ele>2355</ele>
        <time>2022-08-26T23:58:05Z</time>
      </trkpt>
      <trkpt lat="45.70763" lon="6.72893">
        <ele>2354</ele>
        <time>2022-08-26T23:58:06Z</time>
      </trkpt>
      <trkpt lat="45.70761" lon="6.72895">
        <ele>2354</ele>
        <time>2022-08-26T23:58:07Z</time>
      </trkpt>
      <trkpt lat="45.70759" lon="6.72897">
        <ele>2354</ele>
        <time>2022-08-26T23:58:08Z</time>
      </trkpt>
      <trkpt lat="45.70757" lon="6.729">
        <ele>2354</ele>
        <time>2022-08-26T23:58:09Z</time>
      </trkpt>
      <trkpt lat="45.70756" lon="6.72901">
        <ele>2353</ele>
        <time>2022-08-26T23:58:10Z</time>
      </trkpt>
      <trkpt lat="45.70754" lon="6.72902">
        <ele>2352</ele>
        <time>2022-08-26T23:58:11Z</time>
      </trkpt>
      <trkpt lat="45.70752" lon="6.72904">
        <ele>2352</ele>
        <time>2022-08-26T23:58:12Z</time>
      </trkpt>
      <trkpt lat="45.70751" lon="6.72906">
        <ele>2352</ele>
        <time>2022-08-26T23:58:13Z</time>
      </trkpt>
      <trkpt lat="45.70749" lon="6.72908">
        <ele>2352</ele>
        <time>2022-08-26T23:58:14Z</time>
      </trkpt>
      <trkpt lat="45.70747" lon="6.72909">
        <ele>2350</ele>
        <time>2022-08-26T23:58:15Z</time>
      </trkpt>
      <trkpt lat="45.70745" lon="6.72911">
        <ele>2350</ele>
        <time>2022-08-26T23:58:16Z</time>
      </trkpt>
      <trkpt lat="45.70743" lon="6.72911">
        <ele>2350</ele>
        <time>2022-08-26T23:58:17Z</time>
      </trkpt>
      <trkpt lat="45.7074" lon="6.7291">
        <ele>2348</ele>
        <time>2022-08-26T23:58:19Z</time>
      </trkpt>
      <trkpt lat="45.70738" lon="6.72908">
        <ele>2348</ele>
        <time>2022-08-26T23:58:20Z</time>
      </trkpt>
      <trkpt lat="45.70736" lon="6.72906">
        <ele>2347</ele>
        <time>2022-08-26T23:58:21Z</time>
      </trkpt>
      <trkpt lat="45.70734" lon="6.72904">
        <ele>2347</ele>
        <time>2022-08-26T23:58:22Z</time>
      </trkpt>
      <trkpt lat="45.70733" lon="6.72901">
        <ele>2347</ele>
        <time>2022-08-26T23:58:23Z</time>
      </trkpt>
      <trkpt lat="45.70733" lon="6.72898">
        <ele>2346</ele>
        <time>2022-08-26T23:58:24Z</time>
      </trkpt>
      <trkpt lat="45.70732" lon="6.72894">
        <ele>2346</ele>
        <time>2022-08-26T23:58:25Z</time>
      </trkpt>
      <trkpt lat="45.70732" lon="6.72893">
        <ele>2345</ele>
        <time>2022-08-26T23:58:26Z</time>
      </trkpt>
      <trkpt lat="45.70731" lon="6.7289">
        <ele>2344</ele>
        <time>2022-08-26T23:58:27Z</time>
      </trkpt>
      <trkpt lat="45.70731" lon="6.72887">
        <ele>2344</ele>
        <time>2022-08-26T23:58:28Z</time>
      </trkpt>
      <trkpt lat="45.7073" lon="6.72884">
        <ele>2343</ele>
        <time>2022-08-26T23:58:29Z</time>
      </trkpt>
      <trkpt lat="45.7073" lon="6.72879">
        <ele>2343</ele>
        <time>2022-08-26T23:58:30Z</time>
      </trkpt>
      <trkpt lat="45.7073" lon="6.72877">
        <ele>2343</ele>
        <time>2022-08-26T23:58:31Z</time>
      </trkpt>
      <trkpt lat="45.70729" lon="6.72874">
        <ele>2342</ele>
        <time>2022-08-26T23:58:32Z</time>
      </trkpt>
      <trkpt lat="45.7073" lon="6.72871">
        <ele>2342</ele>
        <time>2022-08-26T23:58:33Z</time>
      </trkpt>
      <trkpt lat="45.7073" lon="6.72868">
        <ele>2342</ele>
        <time>2022-08-26T23:58:34Z</time>
      </trkpt>
      <trkpt lat="45.7073" lon="6.72865">
        <ele>2342</ele>
        <time>2022-08-26T23:58:35Z</time>
      </trkpt>
      <trkpt lat="45.7073" lon="6.72862">
        <ele>2341</ele>
        <time>2022-08-26T23:58:36Z</time>
      </trkpt>
      <trkpt lat="45.7073" lon="6.72859">
        <ele>2341</ele>
        <time>2022-08-26T23:58:37Z</time>
      </trkpt>
      <trkpt lat="45.70728" lon="6.72858">
        <ele>2340</ele>
        <time>2022-08-26T23:58:39Z</time>
      </trkpt>
      <trkpt lat="45.70726" lon="6.72862">
        <ele>2340</ele>
        <time>2022-08-26T23:58:40Z</time>
      </trkpt>
      <trkpt lat="45.70726" lon="6.72863">
        <ele>2339</ele>
        <time>2022-08-26T23:58:41Z</time>
      </trkpt>
      <trkpt lat="45.70725" lon="6.72866">
        <ele>2339</ele>
        <time>2022-08-26T23:58:42Z</time>
      </trkpt>
      <trkpt lat="45.70723" lon="6.72869">
        <ele>2338</ele>
        <time>2022-08-26T23:58:43Z</time>
      </trkpt>
      <trkpt lat="45.70722" lon="6.72872">
        <ele>2338</ele>
        <time>2022-08-26T23:58:44Z</time>
      </trkpt>
      <trkpt lat="45.70719" lon="6.72875">
        <ele>2338</ele>
        <time>2022-08-26T23:58:45Z</time>
      </trkpt>
      <trkpt lat="45.70718" lon="6.72876">
        <ele>2337</ele>
        <time>2022-08-26T23:58:46Z</time>
      </trkpt>
      <trkpt lat="45.70717" lon="6.72879">
        <ele>2337</ele>
        <time>2022-08-26T23:58:47Z</time>
      </trkpt>
      <trkpt lat="45.70716" lon="6.72881">
        <ele>2337</ele>
        <time>2022-08-26T23:58:48Z</time>
      </trkpt>
      <trkpt lat="45.70714" lon="6.72883">
        <ele>2336</ele>
        <time>2022-08-26T23:58:49Z</time>
      </trkpt>
      <trkpt lat="45.70712" lon="6.72887">
        <ele>2336</ele>
        <time>2022-08-26T23:58:50Z</time>
      </trkpt>
      <trkpt lat="45.70711" lon="6.72888">
        <ele>2336</ele>
        <time>2022-08-26T23:58:51Z</time>
      </trkpt>
      <trkpt lat="45.7071" lon="6.7289">
        <ele>2336</ele>
        <time>2022-08-26T23:58:52Z</time>
      </trkpt>
      <trkpt lat="45.70708" lon="6.72893">
        <ele>2335</ele>
        <time>2022-08-26T23:58:53Z</time>
      </trkpt>
      <trkpt lat="45.70707" lon="6.72895">
        <ele>2335</ele>
        <time>2022-08-26T23:58:54Z</time>
      </trkpt>
      <trkpt lat="45.70706" lon="6.72898">
        <ele>2335</ele>
        <time>2022-08-26T23:58:55Z</time>
      </trkpt>
      <trkpt lat="45.70705" lon="6.729">
        <ele>2335</ele>
        <time>2022-08-26T23:58:56Z</time>
      </trkpt>
      <trkpt lat="45.70703" lon="6.72903">
        <ele>2334</ele>
        <time>2022-08-26T23:58:57Z</time>
      </trkpt>
      <trkpt lat="45.70701" lon="6.72906">
        <ele>2334</ele>
        <time>2022-08-26T23:58:58Z</time>
      </trkpt>
      <trkpt lat="45.707" lon="6.72907">
        <ele>2333</ele>
        <time>2022-08-26T23:58:59Z</time>
      </trkpt>
      <trkpt lat="45.70699" lon="6.7291">
        <ele>2333</ele>
        <time>2022-08-26T23:59:00Z</time>
      </trkpt>
      <trkpt lat="45.70698" lon="6.72912">
        <ele>2333</ele>
        <time>2022-08-26T23:59:01Z</time>
      </trkpt>
      <trkpt lat="45.70695" lon="6.72916">
        <ele>2333</ele>
        <time>2022-08-26T23:59:02Z</time>
      </trkpt>
      <trkpt lat="45.70695" lon="6.72917">
        <ele>2331</ele>
        <time>2022-08-26T23:59:03Z</time>
      </trkpt>
      <trkpt lat="45.70693" lon="6.72921">
        <ele>2331</ele>
        <time>2022-08-26T23:59:04Z</time>
      </trkpt>
      <trkpt lat="45.70693" lon="6.72923">
        <ele>2331</ele>
        <time>2022-08-26T23:59:05Z</time>
      </trkpt>
      <trkpt lat="45.70692" lon="6.72926">
        <ele>2330</ele>
        <time>2022-08-26T23:59:06Z</time>
      </trkpt>
      <trkpt lat="45.70691" lon="6.72929">
        <ele>2330</ele>
        <time>2022-08-26T23:59:07Z</time>
      </trkpt>
      <trkpt lat="45.7069" lon="6.72932">
        <ele>2330</ele>
        <time>2022-08-26T23:59:08Z</time>
      </trkpt>
      <trkpt lat="45.70689" lon="6.72936">
        <ele>2330</ele>
        <time>2022-08-26T23:59:09Z</time>
      </trkpt>
      <trkpt lat="45.70689" lon="6.72938">
        <ele>2330</ele>
        <time>2022-08-26T23:59:10Z</time>
      </trkpt>
      <trkpt lat="45.70689" lon="6.72941">
        <ele>2329</ele>
        <time>2022-08-26T23:59:11Z</time>
      </trkpt>
      <trkpt lat="45.70688" lon="6.72944">
        <ele>2329</ele>
        <time>2022-08-26T23:59:12Z</time>
      </trkpt>
      <trkpt lat="45.70688" lon="6.72948">
        <ele>2329</ele>
        <time>2022-08-26T23:59:13Z</time>
      </trkpt>
      <trkpt lat="45.70688" lon="6.7295">
        <ele>2329</ele>
        <time>2022-08-26T23:59:14Z</time>
      </trkpt>
      <trkpt lat="45.70688" lon="6.72955">
        <ele>2329</ele>
        <time>2022-08-26T23:59:15Z</time>
      </trkpt>
      <trkpt lat="45.70687" lon="6.72956">
        <ele>2328</ele>
        <time>2022-08-26T23:59:16Z</time>
      </trkpt>
      <trkpt lat="45.70687" lon="6.72959">
        <ele>2328</ele>
        <time>2022-08-26T23:59:17Z</time>
      </trkpt>
      <trkpt lat="45.70687" lon="6.72962">
        <ele>2327</ele>
        <time>2022-08-26T23:59:18Z</time>
      </trkpt>
      <trkpt lat="45.70687" lon="6.72965">
        <ele>2326</ele>
        <time>2022-08-26T23:59:19Z</time>
      </trkpt>
      <trkpt lat="45.70686" lon="6.72968">
        <ele>2326</ele>
        <time>2022-08-26T23:59:20Z</time>
      </trkpt>
      <trkpt lat="45.70686" lon="6.72971">
        <ele>2326</ele>
        <time>2022-08-26T23:59:21Z</time>
      </trkpt>
      <trkpt lat="45.70686" lon="6.72974">
        <ele>2326</ele>
        <time>2022-08-26T23:59:22Z</time>
      </trkpt>
      <trkpt lat="45.70686" lon="6.72977">
        <ele>2323</ele>
        <time>2022-08-26T23:59:23Z</time>
      </trkpt>
      <trkpt lat="45.70685" lon="6.7298">
        <ele>2323</ele>
        <time>2022-08-26T23:59:24Z</time>
      </trkpt>
      <trkpt lat="45.70684" lon="6.72986">
        <ele>2323</ele>
        <time>2022-08-26T23:59:25Z</time>
      </trkpt>
      <trkpt lat="45.70683" lon="6.72989">
        <ele>2322</ele>
        <time>2022-08-26T23:59:26Z</time>
      </trkpt>
      <trkpt lat="45.70682" lon="6.72992">
        <ele>2322</ele>
        <time>2022-08-26T23:59:28Z</time>
      </trkpt>
      <trkpt lat="45.70682" lon="6.72994">
        <ele>2321</ele>
        <time>2022-08-26T23:59:29Z</time>
      </trkpt>
      <trkpt lat="45.70681" lon="6.72997">
        <ele>2321</ele>
        <time>2022-08-26T23:59:30Z</time>
      </trkpt>
      <trkpt lat="45.70681" lon="6.73">
        <ele>2320</ele>
        <time>2022-08-26T23:59:31Z</time>
      </trkpt>
      <trkpt lat="45.7068" lon="6.73003">
        <ele>2320</ele>
        <time>2022-08-26T23:59:32Z</time>
      </trkpt>
      <trkpt lat="45.70678" lon="6.73004">
        <ele>2319</ele>
        <time>2022-08-26T23:59:33Z</time>
      </trkpt>
      <trkpt lat="45.70676" lon="6.73004">
        <ele>2319</ele>
        <time>2022-08-26T23:59:34Z</time>
      </trkpt>
      <trkpt lat="45.70675" lon="6.73002">
        <ele>2319</ele>
        <time>2022-08-26T23:59:35Z</time>
      </trkpt>
      <trkpt lat="45.70673" lon="6.72998">
        <ele>2319</ele>
        <time>2022-08-26T23:59:36Z</time>
      </trkpt>
      <trkpt lat="45.70672" lon="6.72997">
        <ele>2318</ele>
        <time>2022-08-26T23:59:37Z</time>
      </trkpt>
      <trkpt lat="45.70671" lon="6.72995">
        <ele>2318</ele>
        <time>2022-08-26T23:59:38Z</time>
      </trkpt>
      <trkpt lat="45.7067" lon="6.72993">
        <ele>2317</ele>
        <time>2022-08-26T23:59:39Z</time>
      </trkpt>
      <trkpt lat="45.70668" lon="6.7299">
        <ele>2316</ele>
        <time>2022-08-26T23:59:40Z</time>
      </trkpt>
      <trkpt lat="45.70667" lon="6.72988">
        <ele>2316</ele>
        <time>2022-08-26T23:59:41Z</time>
      </trkpt>
      <trkpt lat="45.70666" lon="6.72985">
        <ele>2315</ele>
        <time>2022-08-26T23:59:42Z</time>
      </trkpt>
      <trkpt lat="45.70664" lon="6.72983">
        <ele>2315</ele>
        <time>2022-08-26T23:59:43Z</time>
      </trkpt>
      <trkpt lat="45.70663" lon="6.72981">
        <ele>2315</ele>
        <time>2022-08-26T23:59:44Z</time>
      </trkpt>
      <trkpt lat="45.70661" lon="6.72978">
        <ele>2315</ele>
        <time>2022-08-26T23:59:45Z</time>
      </trkpt>
      <trkpt lat="45.70659" lon="6.72975">
        <ele>2315</ele>
        <time>2022-08-26T23:59:46Z</time>
      </trkpt>
      <trkpt lat="45.70659" lon="6.72973">
        <ele>2314</ele>
        <time>2022-08-26T23:59:47Z</time>
      </trkpt>
      <trkpt lat="45.70657" lon="6.72971">
        <ele>2313</ele>
        <time>2022-08-26T23:59:48Z</time>
      </trkpt>
      <trkpt lat="45.70656" lon="6.72967">
        <ele>2313</ele>
        <time>2022-08-26T23:59:49Z</time>
      </trkpt>
      <trkpt lat="45.70655" lon="6.72966">
        <ele>2312</ele>
        <time>2022-08-26T23:59:50Z</time>
      </trkpt>
      <trkpt lat="45.70652" lon="6.72962">
        <ele>2311</ele>
        <time>2022-08-26T23:59:52Z</time>
      </trkpt>
      <trkpt lat="45.70651" lon="6.72961">
        <ele>2311</ele>
        <time>2022-08-26T23:59:53Z</time>
      </trkpt>
      <trkpt lat="45.7065" lon="6.72958">
        <ele>2309</ele>
        <time>2022-08-26T23:59:54Z</time>
      </trkpt>
      <trkpt lat="45.70648" lon="6.72956">
        <ele>2309</ele>
        <time>2022-08-26T23:59:55Z</time>
      </trkpt>
      <trkpt lat="45.70646" lon="6.72953">
        <ele>2309</ele>
        <time>2022-08-26T23:59:57Z</time>
      </trkpt>
      <trkpt lat="45.70645" lon="6.7295">
        <ele>2309</ele>
        <time>2022-08-26T23:59:58Z</time>
      </trkpt>
      <trkpt lat="45.70644" lon="6.72948">
        <ele>2309</ele>
        <time>2022-08-26T23:59:59Z</time>
      </trkpt>
      <trkpt lat="45.70642" lon="6.72945">
        <ele>2307</ele>
        <time>2022-08-27T00:00:01Z</time>
      </trkpt>
      <trkpt lat="45.7064" lon="6.72945">
        <ele>2306</ele>
        <time>2022-08-27T00:00:03Z</time>
      </trkpt>
      <trkpt lat="45.70638" lon="6.72949">
        <ele>2306</ele>
        <time>2022-08-27T00:00:05Z</time>
      </trkpt>
      <trkpt lat="45.70637" lon="6.72952">
        <ele>2306</ele>
        <time>2022-08-27T00:00:06Z</time>
      </trkpt>
      <trkpt lat="45.70637" lon="6.72955">
        <ele>2305</ele>
        <time>2022-08-27T00:00:07Z</time>
      </trkpt>
      <trkpt lat="45.70636" lon="6.72957">
        <ele>2304</ele>
        <time>2022-08-27T00:00:08Z</time>
      </trkpt>
      <trkpt lat="45.70635" lon="6.7296">
        <ele>2304</ele>
        <time>2022-08-27T00:00:09Z</time>
      </trkpt>
      <trkpt lat="45.70634" lon="6.72962">
        <ele>2304</ele>
        <time>2022-08-27T00:00:10Z</time>
      </trkpt>
      <trkpt lat="45.7063" lon="6.72965">
        <ele>2303</ele>
        <time>2022-08-27T00:00:12Z</time>
      </trkpt>
      <trkpt lat="45.7063" lon="6.72966">
        <ele>2302</ele>
        <time>2022-08-27T00:00:13Z</time>
      </trkpt>
      <trkpt lat="45.70626" lon="6.72966">
        <ele>2300</ele>
        <time>2022-08-27T00:00:15Z</time>
      </trkpt>
      <trkpt lat="45.70623" lon="6.72966">
        <ele>2300</ele>
        <time>2022-08-27T00:00:17Z</time>
      </trkpt>
      <trkpt lat="45.70619" lon="6.72965">
        <ele>2296</ele>
        <time>2022-08-27T00:00:19Z</time>
      </trkpt>
      <trkpt lat="45.70616" lon="6.72965">
        <ele>2295</ele>
        <time>2022-08-27T00:00:21Z</time>
      </trkpt>
      <trkpt lat="45.70612" lon="6.72968">
        <ele>2294</ele>
        <time>2022-08-27T00:00:23Z</time>
      </trkpt>
      <trkpt lat="45.70611" lon="6.7297">
        <ele>2294</ele>
        <time>2022-08-27T00:00:24Z</time>
      </trkpt>
      <trkpt lat="45.70609" lon="6.72972">
        <ele>2294</ele>
        <time>2022-08-27T00:00:25Z</time>
      </trkpt>
      <trkpt lat="45.70607" lon="6.72973">
        <ele>2293</ele>
        <time>2022-08-27T00:00:26Z</time>
      </trkpt>
      <trkpt lat="45.70605" lon="6.72974">
        <ele>2293</ele>
        <time>2022-08-27T00:00:27Z</time>
      </trkpt>
      <trkpt lat="45.70604" lon="6.72975">
        <ele>2292</ele>
        <time>2022-08-27T00:00:28Z</time>
      </trkpt>
      <trkpt lat="45.70601" lon="6.72978">
        <ele>2292</ele>
        <time>2022-08-27T00:00:29Z</time>
      </trkpt>
      <trkpt lat="45.706" lon="6.72979">
        <ele>2291</ele>
        <time>2022-08-27T00:00:30Z</time>
      </trkpt>
      <trkpt lat="45.70597" lon="6.72981">
        <ele>2291</ele>
        <time>2022-08-27T00:00:31Z</time>
      </trkpt>
      <trkpt lat="45.70596" lon="6.72981">
        <ele>2289</ele>
        <time>2022-08-27T00:00:32Z</time>
      </trkpt>
      <trkpt lat="45.70594" lon="6.72981">
        <ele>2289</ele>
        <time>2022-08-27T00:00:33Z</time>
      </trkpt>
      <trkpt lat="45.70592" lon="6.72981">
        <ele>2289</ele>
        <time>2022-08-27T00:00:34Z</time>
      </trkpt>
      <trkpt lat="45.70588" lon="6.72982">
        <ele>2288</ele>
        <time>2022-08-27T00:00:36Z</time>
      </trkpt>
      <trkpt lat="45.70586" lon="6.72982">
        <ele>2288</ele>
        <time>2022-08-27T00:00:37Z</time>
      </trkpt>
      <trkpt lat="45.70583" lon="6.72983">
        <ele>2288</ele>
        <time>2022-08-27T00:00:38Z</time>
      </trkpt>
      <trkpt lat="45.70582" lon="6.72983">
        <ele>2286</ele>
        <time>2022-08-27T00:00:39Z</time>
      </trkpt>
      <trkpt lat="45.7058" lon="6.72984">
        <ele>2286</ele>
        <time>2022-08-27T00:00:40Z</time>
      </trkpt>
      <trkpt lat="45.70578" lon="6.72985">
        <ele>2285</ele>
        <time>2022-08-27T00:00:41Z</time>
      </trkpt>
      <trkpt lat="45.70576" lon="6.72986">
        <ele>2285</ele>
        <time>2022-08-27T00:00:42Z</time>
      </trkpt>
      <trkpt lat="45.70574" lon="6.72987">
        <ele>2285</ele>
        <time>2022-08-27T00:00:43Z</time>
      </trkpt>
      <trkpt lat="45.70573" lon="6.72987">
        <ele>2284</ele>
        <time>2022-08-27T00:00:44Z</time>
      </trkpt>
      <trkpt lat="45.70572" lon="6.72985">
        <ele>2284</ele>
        <time>2022-08-27T00:00:45Z</time>
      </trkpt>
      <trkpt lat="45.7057" lon="6.72983">
        <ele>2284</ele>
        <time>2022-08-27T00:00:46Z</time>
      </trkpt>
      <trkpt lat="45.70569" lon="6.72982">
        <ele>2283</ele>
        <time>2022-08-27T00:00:47Z</time>
      </trkpt>
      <trkpt lat="45.70569" lon="6.72977">
        <ele>2283</ele>
        <time>2022-08-27T00:00:48Z</time>
      </trkpt>
      <trkpt lat="45.70568" lon="6.72976">
        <ele>2283</ele>
        <time>2022-08-27T00:00:49Z</time>
      </trkpt>
      <trkpt lat="45.70568" lon="6.72973">
        <ele>2282</ele>
        <time>2022-08-27T00:00:50Z</time>
      </trkpt>
      <trkpt lat="45.70567" lon="6.72969">
        <ele>2281</ele>
        <time>2022-08-27T00:00:52Z</time>
      </trkpt>
      <trkpt lat="45.70565" lon="6.72969">
        <ele>2280</ele>
        <time>2022-08-27T00:00:54Z</time>
      </trkpt>
      <trkpt lat="45.70563" lon="6.7297">
        <ele>2279</ele>
        <time>2022-08-27T00:00:55Z</time>
      </trkpt>
      <trkpt lat="45.70561" lon="6.72973">
        <ele>2279</ele>
        <time>2022-08-27T00:00:57Z</time>
      </trkpt>
      <trkpt lat="45.70559" lon="6.72976">
        <ele>2278</ele>
        <time>2022-08-27T00:00:59Z</time>
      </trkpt>
      <trkpt lat="45.70556" lon="6.72977">
        <ele>2277</ele>
        <time>2022-08-27T00:01:01Z</time>
      </trkpt>
      <trkpt lat="45.70554" lon="6.72974">
        <ele>2276</ele>
        <time>2022-08-27T00:01:03Z</time>
      </trkpt>
      <trkpt lat="45.70553" lon="6.7297">
        <ele>2275</ele>
        <time>2022-08-27T00:01:05Z</time>
      </trkpt>
      <trkpt lat="45.70553" lon="6.72965">
        <ele>2275</ele>
        <time>2022-08-27T00:01:07Z</time>
      </trkpt>
      <trkpt lat="45.70554" lon="6.72959">
        <ele>2274</ele>
        <time>2022-08-27T00:01:09Z</time>
      </trkpt>
      <trkpt lat="45.70553" lon="6.72956">
        <ele>2272</ele>
        <time>2022-08-27T00:01:10Z</time>
      </trkpt>
      <trkpt lat="45.70551" lon="6.72951">
        <ele>2271</ele>
        <time>2022-08-27T00:01:12Z</time>
      </trkpt>
      <trkpt lat="45.7055" lon="6.7295">
        <ele>2269</ele>
        <time>2022-08-27T00:01:13Z</time>
      </trkpt>
      <trkpt lat="45.70549" lon="6.72947">
        <ele>2269</ele>
        <time>2022-08-27T00:01:14Z</time>
      </trkpt>
      <trkpt lat="45.70549" lon="6.72945">
        <ele>2268</ele>
        <time>2022-08-27T00:01:15Z</time>
      </trkpt>
      <trkpt lat="45.70549" lon="6.72942">
        <ele>2268</ele>
        <time>2022-08-27T00:01:16Z</time>
      </trkpt>
      <trkpt lat="45.70549" lon="6.72939">
        <ele>2268</ele>
        <time>2022-08-27T00:01:17Z</time>
      </trkpt>
      <trkpt lat="45.70548" lon="6.72936">
        <ele>2267</ele>
        <time>2022-08-27T00:01:18Z</time>
      </trkpt>
      <trkpt lat="45.70548" lon="6.72932">
        <ele>2267</ele>
        <time>2022-08-27T00:01:19Z</time>
      </trkpt>
      <trkpt lat="45.70547" lon="6.7293">
        <ele>2267</ele>
        <time>2022-08-27T00:01:20Z</time>
      </trkpt>
      <trkpt lat="45.70547" lon="6.72928">
        <ele>2267</ele>
        <time>2022-08-27T00:01:21Z</time>
      </trkpt>
      <trkpt lat="45.70546" lon="6.72925">
        <ele>2267</ele>
        <time>2022-08-27T00:01:22Z</time>
      </trkpt>
      <trkpt lat="45.70545" lon="6.72922">
        <ele>2266</ele>
        <time>2022-08-27T00:01:24Z</time>
      </trkpt>
      <trkpt lat="45.70543" lon="6.72927">
        <ele>2265</ele>
        <time>2022-08-27T00:01:26Z</time>
      </trkpt>
      <trkpt lat="45.70542" lon="6.72928">
        <ele>2264</ele>
        <time>2022-08-27T00:01:27Z</time>
      </trkpt>
      <trkpt lat="45.70542" lon="6.72931">
        <ele>2264</ele>
        <time>2022-08-27T00:01:28Z</time>
      </trkpt>
      <trkpt lat="45.70541" lon="6.72934">
        <ele>2264</ele>
        <time>2022-08-27T00:01:29Z</time>
      </trkpt>
      <trkpt lat="45.7054" lon="6.72936">
        <ele>2264</ele>
        <time>2022-08-27T00:01:30Z</time>
      </trkpt>
      <trkpt lat="45.70538" lon="6.72937">
        <ele>2263</ele>
        <time>2022-08-27T00:01:31Z</time>
      </trkpt>
      <trkpt lat="45.70536" lon="6.72936">
        <ele>2262</ele>
        <time>2022-08-27T00:01:32Z</time>
      </trkpt>
      <trkpt lat="45.70535" lon="6.72934">
        <ele>2262</ele>
        <time>2022-08-27T00:01:33Z</time>
      </trkpt>
      <trkpt lat="45.70534" lon="6.72931">
        <ele>2262</ele>
        <time>2022-08-27T00:01:34Z</time>
      </trkpt>
      <trkpt lat="45.70534" lon="6.72928">
        <ele>2262</ele>
        <time>2022-08-27T00:01:35Z</time>
      </trkpt>
      <trkpt lat="45.70533" lon="6.72926">
        <ele>2261</ele>
        <time>2022-08-27T00:01:36Z</time>
      </trkpt>
      <trkpt lat="45.70532" lon="6.72923">
        <ele>2260</ele>
        <time>2022-08-27T00:01:37Z</time>
      </trkpt>
      <trkpt lat="45.70531" lon="6.72919">
        <ele>2260</ele>
        <time>2022-08-27T00:01:38Z</time>
      </trkpt>
      <trkpt lat="45.70531" lon="6.72918">
        <ele>2260</ele>
        <time>2022-08-27T00:01:39Z</time>
      </trkpt>
      <trkpt lat="45.7053" lon="6.72916">
        <ele>2259</ele>
        <time>2022-08-27T00:01:40Z</time>
      </trkpt>
      <trkpt lat="45.70527" lon="6.72916">
        <ele>2257</ele>
        <time>2022-08-27T00:01:42Z</time>
      </trkpt>
      <trkpt lat="45.70524" lon="6.72919">
        <ele>2257</ele>
        <time>2022-08-27T00:01:43Z</time>
      </trkpt>
      <trkpt lat="45.70524" lon="6.7292">
        <ele>2257</ele>
        <time>2022-08-27T00:01:44Z</time>
      </trkpt>
      <trkpt lat="45.70522" lon="6.72922">
        <ele>2257</ele>
        <time>2022-08-27T00:01:45Z</time>
      </trkpt>
      <trkpt lat="45.70521" lon="6.72925">
        <ele>2256</ele>
        <time>2022-08-27T00:01:46Z</time>
      </trkpt>
      <trkpt lat="45.7052" lon="6.72928">
        <ele>2255</ele>
        <time>2022-08-27T00:01:47Z</time>
      </trkpt>
      <trkpt lat="45.70519" lon="6.72931">
        <ele>2254</ele>
        <time>2022-08-27T00:01:48Z</time>
      </trkpt>
      <trkpt lat="45.70518" lon="6.72934">
        <ele>2254</ele>
        <time>2022-08-27T00:01:49Z</time>
      </trkpt>
      <trkpt lat="45.70517" lon="6.72938">
        <ele>2254</ele>
        <time>2022-08-27T00:01:50Z</time>
      </trkpt>
      <trkpt lat="45.70517" lon="6.72939">
        <ele>2253</ele>
        <time>2022-08-27T00:01:51Z</time>
      </trkpt>
      <trkpt lat="45.70516" lon="6.72942">
        <ele>2253</ele>
        <time>2022-08-27T00:01:52Z</time>
      </trkpt>
      <trkpt lat="45.70516" lon="6.72945">
        <ele>2253</ele>
        <time>2022-08-27T00:01:53Z</time>
      </trkpt>
      <trkpt lat="45.70516" lon="6.72948">
        <ele>2253</ele>
        <time>2022-08-27T00:01:54Z</time>
      </trkpt>
      <trkpt lat="45.70515" lon="6.72952">
        <ele>2253</ele>
        <time>2022-08-27T00:01:55Z</time>
      </trkpt>
      <trkpt lat="45.70515" lon="6.72954">
        <ele>2252</ele>
        <time>2022-08-27T00:01:56Z</time>
      </trkpt>
      <trkpt lat="45.70514" lon="6.72957">
        <ele>2252</ele>
        <time>2022-08-27T00:01:57Z</time>
      </trkpt>
      <trkpt lat="45.70514" lon="6.7296">
        <ele>2251</ele>
        <time>2022-08-27T00:01:58Z</time>
      </trkpt>
      <trkpt lat="45.70514" lon="6.72965">
        <ele>2251</ele>
        <time>2022-08-27T00:02:00Z</time>
      </trkpt>
      <trkpt lat="45.70513" lon="6.7297">
        <ele>2249</ele>
        <time>2022-08-27T00:02:02Z</time>
      </trkpt>
      <trkpt lat="45.70512" lon="6.72973">
        <ele>2249</ele>
        <time>2022-08-27T00:02:03Z</time>
      </trkpt>
      <trkpt lat="45.70512" lon="6.72975">
        <ele>2248</ele>
        <time>2022-08-27T00:02:04Z</time>
      </trkpt>
      <trkpt lat="45.70511" lon="6.72978">
        <ele>2248</ele>
        <time>2022-08-27T00:02:05Z</time>
      </trkpt>
      <trkpt lat="45.70509" lon="6.72981">
        <ele>2246</ele>
        <time>2022-08-27T00:02:06Z</time>
      </trkpt>
      <trkpt lat="45.70508" lon="6.72983">
        <ele>2245</ele>
        <time>2022-08-27T00:02:07Z</time>
      </trkpt>
      <trkpt lat="45.70506" lon="6.72985">
        <ele>2245</ele>
        <time>2022-08-27T00:02:08Z</time>
      </trkpt>
      <trkpt lat="45.70505" lon="6.72987">
        <ele>2245</ele>
        <time>2022-08-27T00:02:09Z</time>
      </trkpt>
      <trkpt lat="45.70503" lon="6.72989">
        <ele>2244</ele>
        <time>2022-08-27T00:02:10Z</time>
      </trkpt>
      <trkpt lat="45.70502" lon="6.72991">
        <ele>2243</ele>
        <time>2022-08-27T00:02:11Z</time>
      </trkpt>
      <trkpt lat="45.705" lon="6.72992">
        <ele>2243</ele>
        <time>2022-08-27T00:02:12Z</time>
      </trkpt>
      <trkpt lat="45.70499" lon="6.72995">
        <ele>2243</ele>
        <time>2022-08-27T00:02:13Z</time>
      </trkpt>
      <trkpt lat="45.70497" lon="6.72997">
        <ele>2242</ele>
        <time>2022-08-27T00:02:14Z</time>
      </trkpt>
      <trkpt lat="45.70496" lon="6.72998">
        <ele>2242</ele>
        <time>2022-08-27T00:02:15Z</time>
      </trkpt>
      <trkpt lat="45.70494" lon="6.73">
        <ele>2242</ele>
        <time>2022-08-27T00:02:16Z</time>
      </trkpt>
      <trkpt lat="45.70492" lon="6.73001">
        <ele>2241</ele>
        <time>2022-08-27T00:02:17Z</time>
      </trkpt>
      <trkpt lat="45.70489" lon="6.73002">
        <ele>2241</ele>
        <time>2022-08-27T00:02:18Z</time>
      </trkpt>
      <trkpt lat="45.70488" lon="6.73003">
        <ele>2240</ele>
        <time>2022-08-27T00:02:19Z</time>
      </trkpt>
      <trkpt lat="45.70486" lon="6.73003">
        <ele>2239</ele>
        <time>2022-08-27T00:02:20Z</time>
      </trkpt>
      <trkpt lat="45.70484" lon="6.73004">
        <ele>2239</ele>
        <time>2022-08-27T00:02:21Z</time>
      </trkpt>
      <trkpt lat="45.70482" lon="6.73004">
        <ele>2238</ele>
        <time>2022-08-27T00:02:22Z</time>
      </trkpt>
      <trkpt lat="45.70479" lon="6.73005">
        <ele>2238</ele>
        <time>2022-08-27T00:02:23Z</time>
      </trkpt>
      <trkpt lat="45.70478" lon="6.73005">
        <ele>2238</ele>
        <time>2022-08-27T00:02:24Z</time>
      </trkpt>
      <trkpt lat="45.70475" lon="6.73006">
        <ele>2238</ele>
        <time>2022-08-27T00:02:25Z</time>
      </trkpt>
      <trkpt lat="45.70473" lon="6.73006">
        <ele>2237</ele>
        <time>2022-08-27T00:02:26Z</time>
      </trkpt>
      <trkpt lat="45.7047" lon="6.73008">
        <ele>2237</ele>
        <time>2022-08-27T00:02:27Z</time>
      </trkpt>
      <trkpt lat="45.70469" lon="6.73008">
        <ele>2236</ele>
        <time>2022-08-27T00:02:28Z</time>
      </trkpt>
      <trkpt lat="45.70467" lon="6.73009">
        <ele>2234</ele>
        <time>2022-08-27T00:02:29Z</time>
      </trkpt>
      <trkpt lat="45.70465" lon="6.7301">
        <ele>2233</ele>
        <time>2022-08-27T00:02:30Z</time>
      </trkpt>
      <trkpt lat="45.70463" lon="6.73011">
        <ele>2232</ele>
        <time>2022-08-27T00:02:31Z</time>
      </trkpt>
      <trkpt lat="45.70461" lon="6.73011">
        <ele>2232</ele>
        <time>2022-08-27T00:02:32Z</time>
      </trkpt>
      <trkpt lat="45.70459" lon="6.73011">
        <ele>2232</ele>
        <time>2022-08-27T00:02:33Z</time>
      </trkpt>
      <trkpt lat="45.70457" lon="6.73011">
        <ele>2232</ele>
        <time>2022-08-27T00:02:34Z</time>
      </trkpt>
      <trkpt lat="45.70455" lon="6.73011">
        <ele>2232</ele>
        <time>2022-08-27T00:02:35Z</time>
      </trkpt>
      <trkpt lat="45.70453" lon="6.73011">
        <ele>2231</ele>
        <time>2022-08-27T00:02:36Z</time>
      </trkpt>
      <trkpt lat="45.70451" lon="6.73012">
        <ele>2231</ele>
        <time>2022-08-27T00:02:37Z</time>
      </trkpt>
      <trkpt lat="45.7045" lon="6.73013">
        <ele>2230</ele>
        <time>2022-08-27T00:02:38Z</time>
      </trkpt>
      <trkpt lat="45.70447" lon="6.73016">
        <ele>2228</ele>
        <time>2022-08-27T00:02:40Z</time>
      </trkpt>
      <trkpt lat="45.70445" lon="6.7302">
        <ele>2228</ele>
        <time>2022-08-27T00:02:42Z</time>
      </trkpt>
      <trkpt lat="45.70444" lon="6.73022">
        <ele>2228</ele>
        <time>2022-08-27T00:02:43Z</time>
      </trkpt>
      <trkpt lat="45.70441" lon="6.73026">
        <ele>2225</ele>
        <time>2022-08-27T00:02:45Z</time>
      </trkpt>
      <trkpt lat="45.70439" lon="6.73027">
        <ele>2225</ele>
        <time>2022-08-27T00:02:46Z</time>
      </trkpt>
      <trkpt lat="45.70437" lon="6.73027">
        <ele>2225</ele>
        <time>2022-08-27T00:02:47Z</time>
      </trkpt>
      <trkpt lat="45.70435" lon="6.73028">
        <ele>2225</ele>
        <time>2022-08-27T00:02:48Z</time>
      </trkpt>
      <trkpt lat="45.70433" lon="6.73028">
        <ele>2225</ele>
        <time>2022-08-27T00:02:49Z</time>
      </trkpt>
      <trkpt lat="45.70431" lon="6.73028">
        <ele>2225</ele>
        <time>2022-08-27T00:02:50Z</time>
      </trkpt>
      <trkpt lat="45.7043" lon="6.73028">
        <ele>2224</ele>
        <time>2022-08-27T00:02:51Z</time>
      </trkpt>
      <trkpt lat="45.70427" lon="6.73028">
        <ele>2223</ele>
        <time>2022-08-27T00:02:52Z</time>
      </trkpt>
      <trkpt lat="45.70425" lon="6.73027">
        <ele>2223</ele>
        <time>2022-08-27T00:02:53Z</time>
      </trkpt>
      <trkpt lat="45.70423" lon="6.73027">
        <ele>2223</ele>
        <time>2022-08-27T00:02:54Z</time>
      </trkpt>
      <trkpt lat="45.70421" lon="6.73027">
        <ele>2223</ele>
        <time>2022-08-27T00:02:55Z</time>
      </trkpt>
      <trkpt lat="45.70419" lon="6.73027">
        <ele>2223</ele>
        <time>2022-08-27T00:02:56Z</time>
      </trkpt>
      <trkpt lat="45.70417" lon="6.73027">
        <ele>2222</ele>
        <time>2022-08-27T00:02:57Z</time>
      </trkpt>
      <trkpt lat="45.70415" lon="6.73027">
        <ele>2220</ele>
        <time>2022-08-27T00:02:58Z</time>
      </trkpt>
      <trkpt lat="45.70414" lon="6.73028">
        <ele>2220</ele>
        <time>2022-08-27T00:02:59Z</time>
      </trkpt>
      <trkpt lat="45.70412" lon="6.73028">
        <ele>2219</ele>
        <time>2022-08-27T00:03:00Z</time>
      </trkpt>
      <trkpt lat="45.70409" lon="6.73029">
        <ele>2219</ele>
        <time>2022-08-27T00:03:01Z</time>
      </trkpt>
      <trkpt lat="45.70408" lon="6.73029">
        <ele>2219</ele>
        <time>2022-08-27T00:03:02Z</time>
      </trkpt>
      <trkpt lat="45.70406" lon="6.73029">
        <ele>2219</ele>
        <time>2022-08-27T00:03:03Z</time>
      </trkpt>
      <trkpt lat="45.70404" lon="6.73029">
        <ele>2218</ele>
        <time>2022-08-27T00:03:04Z</time>
      </trkpt>
      <trkpt lat="45.70402" lon="6.7303">
        <ele>2217</ele>
        <time>2022-08-27T00:03:05Z</time>
      </trkpt>
      <trkpt lat="45.704" lon="6.7303">
        <ele>2217</ele>
        <time>2022-08-27T00:03:06Z</time>
      </trkpt>
      <trkpt lat="45.70398" lon="6.7303">
        <ele>2216</ele>
        <time>2022-08-27T00:03:07Z</time>
      </trkpt>
      <trkpt lat="45.70396" lon="6.7303">
        <ele>2216</ele>
        <time>2022-08-27T00:03:08Z</time>
      </trkpt>
      <trkpt lat="45.70394" lon="6.73031">
        <ele>2215</ele>
        <time>2022-08-27T00:03:09Z</time>
      </trkpt>
      <trkpt lat="45.70392" lon="6.73031">
        <ele>2215</ele>
        <time>2022-08-27T00:03:10Z</time>
      </trkpt>
      <trkpt lat="45.7039" lon="6.73031">
        <ele>2214</ele>
        <time>2022-08-27T00:03:11Z</time>
      </trkpt>
      <trkpt lat="45.70388" lon="6.73032">
        <ele>2214</ele>
        <time>2022-08-27T00:03:12Z</time>
      </trkpt>
      <trkpt lat="45.70385" lon="6.73033">
        <ele>2214</ele>
        <time>2022-08-27T00:03:13Z</time>
      </trkpt>
      <trkpt lat="45.70384" lon="6.73033">
        <ele>2213</ele>
        <time>2022-08-27T00:03:14Z</time>
      </trkpt>
      <trkpt lat="45.70382" lon="6.73033">
        <ele>2212</ele>
        <time>2022-08-27T00:03:15Z</time>
      </trkpt>
      <trkpt lat="45.7038" lon="6.73033">
        <ele>2212</ele>
        <time>2022-08-27T00:03:16Z</time>
      </trkpt>
      <trkpt lat="45.70377" lon="6.73034">
        <ele>2211</ele>
        <time>2022-08-27T00:03:18Z</time>
      </trkpt>
      <trkpt lat="45.70372" lon="6.73034">
        <ele>2210</ele>
        <time>2022-08-27T00:03:20Z</time>
      </trkpt>
      <trkpt lat="45.70371" lon="6.73034">
        <ele>2209</ele>
        <time>2022-08-27T00:03:21Z</time>
      </trkpt>
      <trkpt lat="45.70369" lon="6.73033">
        <ele>2209</ele>
        <time>2022-08-27T00:03:22Z</time>
      </trkpt>
      <trkpt lat="45.70368" lon="6.73032">
        <ele>2208</ele>
        <time>2022-08-27T00:03:23Z</time>
      </trkpt>
      <trkpt lat="45.70364" lon="6.73031">
        <ele>2207</ele>
        <time>2022-08-27T00:03:25Z</time>
      </trkpt>
      <trkpt lat="45.70362" lon="6.73031">
        <ele>2207</ele>
        <time>2022-08-27T00:03:26Z</time>
      </trkpt>
      <trkpt lat="45.70359" lon="6.7303">
        <ele>2206</ele>
        <time>2022-08-27T00:03:28Z</time>
      </trkpt>
      <trkpt lat="45.70357" lon="6.7303">
        <ele>2206</ele>
        <time>2022-08-27T00:03:29Z</time>
      </trkpt>
      <trkpt lat="45.70354" lon="6.73028">
        <ele>2204</ele>
        <time>2022-08-27T00:03:31Z</time>
      </trkpt>
      <trkpt lat="45.70351" lon="6.73027">
        <ele>2202</ele>
        <time>2022-08-27T00:03:33Z</time>
      </trkpt>
      <trkpt lat="45.70349" lon="6.73028">
        <ele>2202</ele>
        <time>2022-08-27T00:03:34Z</time>
      </trkpt>
      <trkpt lat="45.70346" lon="6.73029">
        <ele>2201</ele>
        <time>2022-08-27T00:03:36Z</time>
      </trkpt>
      <trkpt lat="45.70343" lon="6.73027">
        <ele>2201</ele>
        <time>2022-08-27T00:03:38Z</time>
      </trkpt>
      <trkpt lat="45.70341" lon="6.73026">
        <ele>2201</ele>
        <time>2022-08-27T00:03:39Z</time>
      </trkpt>
      <trkpt lat="45.70339" lon="6.73024">
        <ele>2200</ele>
        <time>2022-08-27T00:03:40Z</time>
      </trkpt>
      <trkpt lat="45.70337" lon="6.73023">
        <ele>2200</ele>
        <time>2022-08-27T00:03:41Z</time>
      </trkpt>
      <trkpt lat="45.70335" lon="6.73023">
        <ele>2199</ele>
        <time>2022-08-27T00:03:42Z</time>
      </trkpt>
      <trkpt lat="45.70333" lon="6.73022">
        <ele>2198</ele>
        <time>2022-08-27T00:03:43Z</time>
      </trkpt>
      <trkpt lat="45.70331" lon="6.73022">
        <ele>2197</ele>
        <time>2022-08-27T00:03:44Z</time>
      </trkpt>
      <trkpt lat="45.70329" lon="6.73022">
        <ele>2196</ele>
        <time>2022-08-27T00:03:45Z</time>
      </trkpt>
      <trkpt lat="45.70327" lon="6.73021">
        <ele>2196</ele>
        <time>2022-08-27T00:03:46Z</time>
      </trkpt>
      <trkpt lat="45.70326" lon="6.7302">
        <ele>2194</ele>
        <time>2022-08-27T00:03:47Z</time>
      </trkpt>
      <trkpt lat="45.70324" lon="6.73019">
        <ele>2193</ele>
        <time>2022-08-27T00:03:48Z</time>
      </trkpt>
      <trkpt lat="45.70322" lon="6.73017">
        <ele>2192</ele>
        <time>2022-08-27T00:03:49Z</time>
      </trkpt>
      <trkpt lat="45.70321" lon="6.73016">
        <ele>2192</ele>
        <time>2022-08-27T00:03:50Z</time>
      </trkpt>
      <trkpt lat="45.70318" lon="6.73013">
        <ele>2192</ele>
        <time>2022-08-27T00:03:51Z</time>
      </trkpt>
      <trkpt lat="45.70318" lon="6.73012">
        <ele>2191</ele>
        <time>2022-08-27T00:03:52Z</time>
      </trkpt>
      <trkpt lat="45.70314" lon="6.7301">
        <ele>2189</ele>
        <time>2022-08-27T00:03:54Z</time>
      </trkpt>
      <trkpt lat="45.70312" lon="6.73009">
        <ele>2189</ele>
        <time>2022-08-27T00:03:55Z</time>
      </trkpt>
      <trkpt lat="45.70309" lon="6.73009">
        <ele>2189</ele>
        <time>2022-08-27T00:03:56Z</time>
      </trkpt>
      <trkpt lat="45.70307" lon="6.73008">
        <ele>2187</ele>
        <time>2022-08-27T00:03:57Z</time>
      </trkpt>
      <trkpt lat="45.70304" lon="6.73008">
        <ele>2187</ele>
        <time>2022-08-27T00:03:58Z</time>
      </trkpt>
      <trkpt lat="45.70303" lon="6.73008">
        <ele>2186</ele>
        <time>2022-08-27T00:03:59Z</time>
      </trkpt>
      <trkpt lat="45.70301" lon="6.73008">
        <ele>2186</ele>
        <time>2022-08-27T00:04:00Z</time>
      </trkpt>
      <trkpt lat="45.703" lon="6.73008">
        <ele>2185</ele>
        <time>2022-08-27T00:04:01Z</time>
      </trkpt>
      <trkpt lat="45.70298" lon="6.73008">
        <ele>2185</ele>
        <time>2022-08-27T00:04:02Z</time>
      </trkpt>
      <trkpt lat="45.70296" lon="6.73008">
        <ele>2184</ele>
        <time>2022-08-27T00:04:03Z</time>
      </trkpt>
      <trkpt lat="45.70294" lon="6.73009">
        <ele>2184</ele>
        <time>2022-08-27T00:04:04Z</time>
      </trkpt>
      <trkpt lat="45.70292" lon="6.73009">
        <ele>2183</ele>
        <time>2022-08-27T00:04:05Z</time>
      </trkpt>
      <trkpt lat="45.7029" lon="6.7301">
        <ele>2182</ele>
        <time>2022-08-27T00:04:06Z</time>
      </trkpt>
      <trkpt lat="45.70289" lon="6.73011">
        <ele>2182</ele>
        <time>2022-08-27T00:04:07Z</time>
      </trkpt>
      <trkpt lat="45.70287" lon="6.73011">
        <ele>2181</ele>
        <time>2022-08-27T00:04:08Z</time>
      </trkpt>
      <trkpt lat="45.70283" lon="6.7301">
        <ele>2180</ele>
        <time>2022-08-27T00:04:10Z</time>
      </trkpt>
      <trkpt lat="45.7028" lon="6.7301">
        <ele>2180</ele>
        <time>2022-08-27T00:04:11Z</time>
      </trkpt>
      <trkpt lat="45.70279" lon="6.73009">
        <ele>2179</ele>
        <time>2022-08-27T00:04:12Z</time>
      </trkpt>
      <trkpt lat="45.70277" lon="6.7301">
        <ele>2179</ele>
        <time>2022-08-27T00:04:13Z</time>
      </trkpt>
      <trkpt lat="45.70275" lon="6.7301">
        <ele>2178</ele>
        <time>2022-08-27T00:04:14Z</time>
      </trkpt>
      <trkpt lat="45.70273" lon="6.7301">
        <ele>2178</ele>
        <time>2022-08-27T00:04:15Z</time>
      </trkpt>
      <trkpt lat="45.7027" lon="6.7301">
        <ele>2178</ele>
        <time>2022-08-27T00:04:17Z</time>
      </trkpt>
      <trkpt lat="45.70267" lon="6.7301">
        <ele>2177</ele>
        <time>2022-08-27T00:04:19Z</time>
      </trkpt>
      <trkpt lat="45.70265" lon="6.7301">
        <ele>2177</ele>
        <time>2022-08-27T00:04:20Z</time>
      </trkpt>
      <trkpt lat="45.70261" lon="6.73009">
        <ele>2176</ele>
        <time>2022-08-27T00:04:22Z</time>
      </trkpt>
      <trkpt lat="45.70258" lon="6.73008">
        <ele>2173</ele>
        <time>2022-08-27T00:04:24Z</time>
      </trkpt>
      <trkpt lat="45.70255" lon="6.73005">
        <ele>2173</ele>
        <time>2022-08-27T00:04:26Z</time>
      </trkpt>
      <trkpt lat="45.70252" lon="6.73003">
        <ele>2172</ele>
        <time>2022-08-27T00:04:28Z</time>
      </trkpt>
      <trkpt lat="45.70249" lon="6.73001">
        <ele>2171</ele>
        <time>2022-08-27T00:04:30Z</time>
      </trkpt>
      <trkpt lat="45.70246" lon="6.73001">
        <ele>2171</ele>
        <time>2022-08-27T00:04:32Z</time>
      </trkpt>
      <trkpt lat="45.70242" lon="6.72999">
        <ele>2168</ele>
        <time>2022-08-27T00:04:34Z</time>
      </trkpt>
      <trkpt lat="45.7024" lon="6.72998">
        <ele>2168</ele>
        <time>2022-08-27T00:04:35Z</time>
      </trkpt>
      <trkpt lat="45.70238" lon="6.72998">
        <ele>2168</ele>
        <time>2022-08-27T00:04:36Z</time>
      </trkpt>
      <trkpt lat="45.70235" lon="6.72996">
        <ele>2167</ele>
        <time>2022-08-27T00:04:38Z</time>
      </trkpt>
      <trkpt lat="45.70232" lon="6.72994">
        <ele>2166</ele>
        <time>2022-08-27T00:04:40Z</time>
      </trkpt>
      <trkpt lat="45.70229" lon="6.72992">
        <ele>2165</ele>
        <time>2022-08-27T00:04:42Z</time>
      </trkpt>
      <trkpt lat="45.70226" lon="6.7299">
        <ele>2163</ele>
        <time>2022-08-27T00:04:44Z</time>
      </trkpt>
      <trkpt lat="45.70223" lon="6.72989">
        <ele>2162</ele>
        <time>2022-08-27T00:04:46Z</time>
      </trkpt>
      <trkpt lat="45.7022" lon="6.72989">
        <ele>2161</ele>
        <time>2022-08-27T00:04:48Z</time>
      </trkpt>
      <trkpt lat="45.70217" lon="6.7299">
        <ele>2159</ele>
        <time>2022-08-27T00:04:50Z</time>
      </trkpt>
      <trkpt lat="45.70214" lon="6.72989">
        <ele>2158</ele>
        <time>2022-08-27T00:04:52Z</time>
      </trkpt>
      <trkpt lat="45.70211" lon="6.72989">
        <ele>2157</ele>
        <time>2022-08-27T00:04:54Z</time>
      </trkpt>
      <trkpt lat="45.70209" lon="6.72989">
        <ele>2157</ele>
        <time>2022-08-27T00:04:55Z</time>
      </trkpt>
      <trkpt lat="45.70205" lon="6.72988">
        <ele>2156</ele>
        <time>2022-08-27T00:04:57Z</time>
      </trkpt>
      <trkpt lat="45.70202" lon="6.72987">
        <ele>2155</ele>
        <time>2022-08-27T00:04:59Z</time>
      </trkpt>
      <trkpt lat="45.70201" lon="6.72986">
        <ele>2155</ele>
        <time>2022-08-27T00:05:00Z</time>
      </trkpt>
      <trkpt lat="45.70197" lon="6.72985">
        <ele>2154</ele>
        <time>2022-08-27T00:05:02Z</time>
      </trkpt>
      <trkpt lat="45.70195" lon="6.72984">
        <ele>2154</ele>
        <time>2022-08-27T00:05:03Z</time>
      </trkpt>
      <trkpt lat="45.70193" lon="6.72983">
        <ele>2153</ele>
        <time>2022-08-27T00:05:04Z</time>
      </trkpt>
      <trkpt lat="45.70191" lon="6.72983">
        <ele>2153</ele>
        <time>2022-08-27T00:05:05Z</time>
      </trkpt>
      <trkpt lat="45.70188" lon="6.72982">
        <ele>2152</ele>
        <time>2022-08-27T00:05:07Z</time>
      </trkpt>
      <trkpt lat="45.70185" lon="6.72983">
        <ele>2151</ele>
        <time>2022-08-27T00:05:09Z</time>
      </trkpt>
      <trkpt lat="45.70181" lon="6.72983">
        <ele>2150</ele>
        <time>2022-08-27T00:05:11Z</time>
      </trkpt>
      <trkpt lat="45.70179" lon="6.72982">
        <ele>2150</ele>
        <time>2022-08-27T00:05:12Z</time>
      </trkpt>
      <trkpt lat="45.70178" lon="6.72981">
        <ele>2150</ele>
        <time>2022-08-27T00:05:13Z</time>
      </trkpt>
      <trkpt lat="45.70176" lon="6.72979">
        <ele>2149</ele>
        <time>2022-08-27T00:05:14Z</time>
      </trkpt>
      <trkpt lat="45.70174" lon="6.72977">
        <ele>2149</ele>
        <time>2022-08-27T00:05:15Z</time>
      </trkpt>
      <trkpt lat="45.70172" lon="6.72975">
        <ele>2149</ele>
        <time>2022-08-27T00:05:16Z</time>
      </trkpt>
      <trkpt lat="45.7017" lon="6.72973">
        <ele>2149</ele>
        <time>2022-08-27T00:05:17Z</time>
      </trkpt>
      <trkpt lat="45.70167" lon="6.72969">
        <ele>2149</ele>
        <time>2022-08-27T00:05:18Z</time>
      </trkpt>
      <trkpt lat="45.70167" lon="6.72968">
        <ele>2148</ele>
        <time>2022-08-27T00:05:19Z</time>
      </trkpt>
      <trkpt lat="45.70165" lon="6.72966">
        <ele>2148</ele>
        <time>2022-08-27T00:05:20Z</time>
      </trkpt>
      <trkpt lat="45.70164" lon="6.72963">
        <ele>2148</ele>
        <time>2022-08-27T00:05:21Z</time>
      </trkpt>
      <trkpt lat="45.70163" lon="6.7296">
        <ele>2148</ele>
        <time>2022-08-27T00:05:22Z</time>
      </trkpt>
      <trkpt lat="45.70162" lon="6.72958">
        <ele>2148</ele>
        <time>2022-08-27T00:05:23Z</time>
      </trkpt>
      <trkpt lat="45.70159" lon="6.72955">
        <ele>2148</ele>
        <time>2022-08-27T00:05:25Z</time>
      </trkpt>
      <trkpt lat="45.70157" lon="6.72954">
        <ele>2148</ele>
        <time>2022-08-27T00:05:26Z</time>
      </trkpt>
      <trkpt lat="45.70155" lon="6.72952">
        <ele>2147</ele>
        <time>2022-08-27T00:05:27Z</time>
      </trkpt>
      <trkpt lat="45.70152" lon="6.72952">
        <ele>2147</ele>
        <time>2022-08-27T00:05:28Z</time>
      </trkpt>
      <trkpt lat="45.70151" lon="6.72952">
        <ele>2146</ele>
        <time>2022-08-27T00:05:29Z</time>
      </trkpt>
      <trkpt lat="45.70148" lon="6.72951">
        <ele>2146</ele>
        <time>2022-08-27T00:05:30Z</time>
      </trkpt>
      <trkpt lat="45.70146" lon="6.72952">
        <ele>2145</ele>
        <time>2022-08-27T00:05:31Z</time>
      </trkpt>
      <trkpt lat="45.70144" lon="6.72951">
        <ele>2145</ele>
        <time>2022-08-27T00:05:32Z</time>
      </trkpt>
      <trkpt lat="45.70142" lon="6.72951">
        <ele>2145</ele>
        <time>2022-08-27T00:05:33Z</time>
      </trkpt>
      <trkpt lat="45.70139" lon="6.7295">
        <ele>2145</ele>
        <time>2022-08-27T00:05:34Z</time>
      </trkpt>
      <trkpt lat="45.70136" lon="6.7295">
        <ele>2145</ele>
        <time>2022-08-27T00:05:35Z</time>
      </trkpt>
      <trkpt lat="45.70134" lon="6.72949">
        <ele>2145</ele>
        <time>2022-08-27T00:05:36Z</time>
      </trkpt>
      <trkpt lat="45.70131" lon="6.72948">
        <ele>2145</ele>
        <time>2022-08-27T00:05:37Z</time>
      </trkpt>
      <trkpt lat="45.7013" lon="6.72947">
        <ele>2144</ele>
        <time>2022-08-27T00:05:38Z</time>
      </trkpt>
      <trkpt lat="45.70128" lon="6.72946">
        <ele>2144</ele>
        <time>2022-08-27T00:05:39Z</time>
      </trkpt>
      <trkpt lat="45.70126" lon="6.72945">
        <ele>2144</ele>
        <time>2022-08-27T00:05:40Z</time>
      </trkpt>
      <trkpt lat="45.70124" lon="6.72944">
        <ele>2142</ele>
        <time>2022-08-27T00:05:41Z</time>
      </trkpt>
      <trkpt lat="45.70122" lon="6.72941">
        <ele>2142</ele>
        <time>2022-08-27T00:05:42Z</time>
      </trkpt>
      <trkpt lat="45.70121" lon="6.7294">
        <ele>2142</ele>
        <time>2022-08-27T00:05:43Z</time>
      </trkpt>
      <trkpt lat="45.70119" lon="6.72939">
        <ele>2142</ele>
        <time>2022-08-27T00:05:44Z</time>
      </trkpt>
      <trkpt lat="45.70117" lon="6.72937">
        <ele>2142</ele>
        <time>2022-08-27T00:05:45Z</time>
      </trkpt>
      <trkpt lat="45.70115" lon="6.72935">
        <ele>2141</ele>
        <time>2022-08-27T00:05:46Z</time>
      </trkpt>
      <trkpt lat="45.70112" lon="6.72931">
        <ele>2141</ele>
        <time>2022-08-27T00:05:47Z</time>
      </trkpt>
      <trkpt lat="45.70112" lon="6.7293">
        <ele>2140</ele>
        <time>2022-08-27T00:05:48Z</time>
      </trkpt>
      <trkpt lat="45.7011" lon="6.72928">
        <ele>2140</ele>
        <time>2022-08-27T00:05:49Z</time>
      </trkpt>
      <trkpt lat="45.70108" lon="6.72927">
        <ele>2140</ele>
        <time>2022-08-27T00:05:50Z</time>
      </trkpt>
      <trkpt lat="45.70106" lon="6.72925">
        <ele>2140</ele>
        <time>2022-08-27T00:05:51Z</time>
      </trkpt>
      <trkpt lat="45.70103" lon="6.72922">
        <ele>2140</ele>
        <time>2022-08-27T00:05:52Z</time>
      </trkpt>
      <trkpt lat="45.70102" lon="6.72921">
        <ele>2140</ele>
        <time>2022-08-27T00:05:53Z</time>
      </trkpt>
      <trkpt lat="45.701" lon="6.72919">
        <ele>2140</ele>
        <time>2022-08-27T00:05:54Z</time>
      </trkpt>
      <trkpt lat="45.70099" lon="6.72917">
        <ele>2139</ele>
        <time>2022-08-27T00:05:55Z</time>
      </trkpt>
      <trkpt lat="45.70097" lon="6.72914">
        <ele>2139</ele>
        <time>2022-08-27T00:05:56Z</time>
      </trkpt>
      <trkpt lat="45.70095" lon="6.72912">
        <ele>2138</ele>
        <time>2022-08-27T00:05:57Z</time>
      </trkpt>
      <trkpt lat="45.70094" lon="6.7291">
        <ele>2138</ele>
        <time>2022-08-27T00:05:58Z</time>
      </trkpt>
      <trkpt lat="45.70092" lon="6.72908">
        <ele>2138</ele>
        <time>2022-08-27T00:05:59Z</time>
      </trkpt>
      <trkpt lat="45.7009" lon="6.72905">
        <ele>2138</ele>
        <time>2022-08-27T00:06:00Z</time>
      </trkpt>
      <trkpt lat="45.70089" lon="6.72903">
        <ele>2138</ele>
        <time>2022-08-27T00:06:01Z</time>
      </trkpt>
      <trkpt lat="45.70087" lon="6.729">
        <ele>2137</ele>
        <time>2022-08-27T00:06:02Z</time>
      </trkpt>
      <trkpt lat="45.70085" lon="6.72896">
        <ele>2137</ele>
        <time>2022-08-27T00:06:03Z</time>
      </trkpt>
      <trkpt lat="45.70084" lon="6.72895">
        <ele>2136</ele>
        <time>2022-08-27T00:06:04Z</time>
      </trkpt>
      <trkpt lat="45.70082" lon="6.72891">
        <ele>2136</ele>
        <time>2022-08-27T00:06:05Z</time>
      </trkpt>
      <trkpt lat="45.70081" lon="6.7289">
        <ele>2136</ele>
        <time>2022-08-27T00:06:06Z</time>
      </trkpt>
      <trkpt lat="45.7008" lon="6.72887">
        <ele>2136</ele>
        <time>2022-08-27T00:06:07Z</time>
      </trkpt>
      <trkpt lat="45.70078" lon="6.72885">
        <ele>2135</ele>
        <time>2022-08-27T00:06:08Z</time>
      </trkpt>
      <trkpt lat="45.70076" lon="6.72882">
        <ele>2135</ele>
        <time>2022-08-27T00:06:09Z</time>
      </trkpt>
      <trkpt lat="45.70075" lon="6.7288">
        <ele>2135</ele>
        <time>2022-08-27T00:06:10Z</time>
      </trkpt>
      <trkpt lat="45.70073" lon="6.72877">
        <ele>2135</ele>
        <time>2022-08-27T00:06:11Z</time>
      </trkpt>
      <trkpt lat="45.70072" lon="6.72875">
        <ele>2135</ele>
        <time>2022-08-27T00:06:12Z</time>
      </trkpt>
      <trkpt lat="45.70069" lon="6.72871">
        <ele>2135</ele>
        <time>2022-08-27T00:06:13Z</time>
      </trkpt>
      <trkpt lat="45.70068" lon="6.7287">
        <ele>2134</ele>
        <time>2022-08-27T00:06:14Z</time>
      </trkpt>
      <trkpt lat="45.70067" lon="6.72868">
        <ele>2134</ele>
        <time>2022-08-27T00:06:15Z</time>
      </trkpt>
      <trkpt lat="45.70065" lon="6.72866">
        <ele>2133</ele>
        <time>2022-08-27T00:06:16Z</time>
      </trkpt>
      <trkpt lat="45.70063" lon="6.72863">
        <ele>2133</ele>
        <time>2022-08-27T00:06:17Z</time>
      </trkpt>
      <trkpt lat="45.70061" lon="6.72861">
        <ele>2133</ele>
        <time>2022-08-27T00:06:18Z</time>
      </trkpt>
      <trkpt lat="45.70059" lon="6.72858">
        <ele>2133</ele>
        <time>2022-08-27T00:06:19Z</time>
      </trkpt>
      <trkpt lat="45.70058" lon="6.72856">
        <ele>2133</ele>
        <time>2022-08-27T00:06:20Z</time>
      </trkpt>
      <trkpt lat="45.70055" lon="6.72852">
        <ele>2133</ele>
        <time>2022-08-27T00:06:21Z</time>
      </trkpt>
      <trkpt lat="45.70054" lon="6.72851">
        <ele>2133</ele>
        <time>2022-08-27T00:06:22Z</time>
      </trkpt>
      <trkpt lat="45.70052" lon="6.72848">
        <ele>2133</ele>
        <time>2022-08-27T00:06:23Z</time>
      </trkpt>
      <trkpt lat="45.70051" lon="6.72847">
        <ele>2131</ele>
        <time>2022-08-27T00:06:24Z</time>
      </trkpt>
      <trkpt lat="45.70049" lon="6.72844">
        <ele>2130</ele>
        <time>2022-08-27T00:06:25Z</time>
      </trkpt>
      <trkpt lat="45.70047" lon="6.72842">
        <ele>2130</ele>
        <time>2022-08-27T00:06:26Z</time>
      </trkpt>
      <trkpt lat="45.70046" lon="6.72839">
        <ele>2129</ele>
        <time>2022-08-27T00:06:27Z</time>
      </trkpt>
      <trkpt lat="45.70043" lon="6.72836">
        <ele>2129</ele>
        <time>2022-08-27T00:06:28Z</time>
      </trkpt>
      <trkpt lat="45.70043" lon="6.72834">
        <ele>2128</ele>
        <time>2022-08-27T00:06:29Z</time>
      </trkpt>
      <trkpt lat="45.7004" lon="6.72831">
        <ele>2128</ele>
        <time>2022-08-27T00:06:30Z</time>
      </trkpt>
      <trkpt lat="45.70039" lon="6.7283">
        <ele>2128</ele>
        <time>2022-08-27T00:06:31Z</time>
      </trkpt>
      <trkpt lat="45.70038" lon="6.72828">
        <ele>2128</ele>
        <time>2022-08-27T00:06:32Z</time>
      </trkpt>
      <trkpt lat="45.70036" lon="6.72825">
        <ele>2128</ele>
        <time>2022-08-27T00:06:33Z</time>
      </trkpt>
      <trkpt lat="45.70033" lon="6.72822">
        <ele>2128</ele>
        <time>2022-08-27T00:06:34Z</time>
      </trkpt>
      <trkpt lat="45.70032" lon="6.72821">
        <ele>2127</ele>
        <time>2022-08-27T00:06:35Z</time>
      </trkpt>
      <trkpt lat="45.70031" lon="6.72819">
        <ele>2126</ele>
        <time>2022-08-27T00:06:36Z</time>
      </trkpt>
      <trkpt lat="45.70028" lon="6.72815">
        <ele>2126</ele>
        <time>2022-08-27T00:06:37Z</time>
      </trkpt>
      <trkpt lat="45.70027" lon="6.72814">
        <ele>2126</ele>
        <time>2022-08-27T00:06:38Z</time>
      </trkpt>
      <trkpt lat="45.70026" lon="6.72811">
        <ele>2126</ele>
        <time>2022-08-27T00:06:39Z</time>
      </trkpt>
      <trkpt lat="45.70025" lon="6.72808">
        <ele>2126</ele>
        <time>2022-08-27T00:06:40Z</time>
      </trkpt>
      <trkpt lat="45.70023" lon="6.72805">
        <ele>2126</ele>
        <time>2022-08-27T00:06:41Z</time>
      </trkpt>
      <trkpt lat="45.70022" lon="6.728">
        <ele>2126</ele>
        <time>2022-08-27T00:06:42Z</time>
      </trkpt>
      <trkpt lat="45.70021" lon="6.72799">
        <ele>2125</ele>
        <time>2022-08-27T00:06:43Z</time>
      </trkpt>
      <trkpt lat="45.7002" lon="6.72795">
        <ele>2125</ele>
        <time>2022-08-27T00:06:44Z</time>
      </trkpt>
      <trkpt lat="45.7002" lon="6.72792">
        <ele>2125</ele>
        <time>2022-08-27T00:06:45Z</time>
      </trkpt>
      <trkpt lat="45.70019" lon="6.72789">
        <ele>2125</ele>
        <time>2022-08-27T00:06:46Z</time>
      </trkpt>
      <trkpt lat="45.70019" lon="6.72783">
        <ele>2125</ele>
        <time>2022-08-27T00:06:47Z</time>
      </trkpt>
      <trkpt lat="45.70019" lon="6.72782">
        <ele>2125</ele>
        <time>2022-08-27T00:06:48Z</time>
      </trkpt>
      <trkpt lat="45.70019" lon="6.72776">
        <ele>2125</ele>
        <time>2022-08-27T00:06:49Z</time>
      </trkpt>
      <trkpt lat="45.70019" lon="6.72774">
        <ele>2125</ele>
        <time>2022-08-27T00:06:50Z</time>
      </trkpt>
      <trkpt lat="45.70019" lon="6.72771">
        <ele>2124</ele>
        <time>2022-08-27T00:06:51Z</time>
      </trkpt>
      <trkpt lat="45.7002" lon="6.72767">
        <ele>2123</ele>
        <time>2022-08-27T00:06:52Z</time>
      </trkpt>
      <trkpt lat="45.7002" lon="6.72764">
        <ele>2123</ele>
        <time>2022-08-27T00:06:53Z</time>
      </trkpt>
      <trkpt lat="45.70022" lon="6.72759">
        <ele>2123</ele>
        <time>2022-08-27T00:06:54Z</time>
      </trkpt>
      <trkpt lat="45.70022" lon="6.72758">
        <ele>2122</ele>
        <time>2022-08-27T00:06:55Z</time>
      </trkpt>
      <trkpt lat="45.70023" lon="6.72755">
        <ele>2123</ele>
        <time>2022-08-27T00:06:56Z</time>
      </trkpt>
      <trkpt lat="45.70025" lon="6.7275">
        <ele>2123</ele>
        <time>2022-08-27T00:06:57Z</time>
      </trkpt>
      <trkpt lat="45.70025" lon="6.72749">
        <ele>2123</ele>
        <time>2022-08-27T00:06:58Z</time>
      </trkpt>
      <trkpt lat="45.70026" lon="6.72746">
        <ele>2123</ele>
        <time>2022-08-27T00:06:59Z</time>
      </trkpt>
      <trkpt lat="45.70025" lon="6.72741">
        <ele>2123</ele>
        <time>2022-08-27T00:07:00Z</time>
      </trkpt>
      <trkpt lat="45.70025" lon="6.72739">
        <ele>2122</ele>
        <time>2022-08-27T00:07:01Z</time>
      </trkpt>
      <trkpt lat="45.70022" lon="6.72736">
        <ele>2122</ele>
        <time>2022-08-27T00:07:02Z</time>
      </trkpt>
      <trkpt lat="45.7002" lon="6.72735">
        <ele>2122</ele>
        <time>2022-08-27T00:07:03Z</time>
      </trkpt>
      <trkpt lat="45.70018" lon="6.72735">
        <ele>2121</ele>
        <time>2022-08-27T00:07:04Z</time>
      </trkpt>
      <trkpt lat="45.70016" lon="6.72734">
        <ele>2121</ele>
        <time>2022-08-27T00:07:05Z</time>
      </trkpt>
      <trkpt lat="45.70014" lon="6.72734">
        <ele>2121</ele>
        <time>2022-08-27T00:07:06Z</time>
      </trkpt>
      <trkpt lat="45.70012" lon="6.72734">
        <ele>2121</ele>
        <time>2022-08-27T00:07:07Z</time>
      </trkpt>
      <trkpt lat="45.70009" lon="6.72734">
        <ele>2120</ele>
        <time>2022-08-27T00:07:08Z</time>
      </trkpt>
      <trkpt lat="45.70007" lon="6.72734">
        <ele>2120</ele>
        <time>2022-08-27T00:07:09Z</time>
      </trkpt>
      <trkpt lat="45.70005" lon="6.72734">
        <ele>2120</ele>
        <time>2022-08-27T00:07:10Z</time>
      </trkpt>
      <trkpt lat="45.70002" lon="6.72733">
        <ele>2119</ele>
        <time>2022-08-27T00:07:11Z</time>
      </trkpt>
      <trkpt lat="45.69999" lon="6.72733">
        <ele>2119</ele>
        <time>2022-08-27T00:07:13Z</time>
      </trkpt>
      <trkpt lat="45.69997" lon="6.72734">
        <ele>2118</ele>
        <time>2022-08-27T00:07:15Z</time>
      </trkpt>
      <trkpt lat="45.69994" lon="6.72736">
        <ele>2118</ele>
        <time>2022-08-27T00:07:17Z</time>
      </trkpt>
      <trkpt lat="45.69992" lon="6.72737">
        <ele>2116</ele>
        <time>2022-08-27T00:07:19Z</time>
      </trkpt>
      <trkpt lat="45.69989" lon="6.72738">
        <ele>2115</ele>
        <time>2022-08-27T00:07:21Z</time>
      </trkpt>
      <trkpt lat="45.69986" lon="6.72739">
        <ele>2114</ele>
        <time>2022-08-27T00:07:23Z</time>
      </trkpt>
      <trkpt lat="45.69984" lon="6.72741">
        <ele>2113</ele>
        <time>2022-08-27T00:07:25Z</time>
      </trkpt>
      <trkpt lat="45.69981" lon="6.72743">
        <ele>2111</ele>
        <time>2022-08-27T00:07:27Z</time>
      </trkpt>
      <trkpt lat="45.69979" lon="6.72745">
        <ele>2109</ele>
        <time>2022-08-27T00:07:29Z</time>
      </trkpt>
      <trkpt lat="45.69976" lon="6.72747">
        <ele>2108</ele>
        <time>2022-08-27T00:07:31Z</time>
      </trkpt>
      <trkpt lat="45.69972" lon="6.72748">
        <ele>2108</ele>
        <time>2022-08-27T00:07:33Z</time>
      </trkpt>
      <trkpt lat="45.6997" lon="6.72749">
        <ele>2107</ele>
        <time>2022-08-27T00:07:35Z</time>
      </trkpt>
      <trkpt lat="45.69967" lon="6.72751">
        <ele>2107</ele>
        <time>2022-08-27T00:07:37Z</time>
      </trkpt>
      <trkpt lat="45.69965" lon="6.72753">
        <ele>2107</ele>
        <time>2022-08-27T00:07:38Z</time>
      </trkpt>
      <trkpt lat="45.69963" lon="6.72754">
        <ele>2106</ele>
        <time>2022-08-27T00:07:39Z</time>
      </trkpt>
      <trkpt lat="45.69961" lon="6.72755">
        <ele>2105</ele>
        <time>2022-08-27T00:07:40Z</time>
      </trkpt>
      <trkpt lat="45.6996" lon="6.72757">
        <ele>2105</ele>
        <time>2022-08-27T00:07:41Z</time>
      </trkpt>
      <trkpt lat="45.69958" lon="6.72759">
        <ele>2104</ele>
        <time>2022-08-27T00:07:42Z</time>
      </trkpt>
      <trkpt lat="45.69955" lon="6.72762">
        <ele>2103</ele>
        <time>2022-08-27T00:07:44Z</time>
      </trkpt>
      <trkpt lat="45.69952" lon="6.72763">
        <ele>2102</ele>
        <time>2022-08-27T00:07:46Z</time>
      </trkpt>
      <trkpt lat="45.6995" lon="6.72766">
        <ele>2102</ele>
        <time>2022-08-27T00:07:48Z</time>
      </trkpt>
      <trkpt lat="45.69948" lon="6.72769">
        <ele>2100</ele>
        <time>2022-08-27T00:07:50Z</time>
      </trkpt>
      <trkpt lat="45.69947" lon="6.72771">
        <ele>2099</ele>
        <time>2022-08-27T00:07:51Z</time>
      </trkpt>
      <trkpt lat="45.69945" lon="6.72772">
        <ele>2099</ele>
        <time>2022-08-27T00:07:52Z</time>
      </trkpt>
      <trkpt lat="45.69943" lon="6.72773">
        <ele>2099</ele>
        <time>2022-08-27T00:07:53Z</time>
      </trkpt>
      <trkpt lat="45.69941" lon="6.72775">
        <ele>2097</ele>
        <time>2022-08-27T00:07:55Z</time>
      </trkpt>
      <trkpt lat="45.69939" lon="6.72778">
        <ele>2097</ele>
        <time>2022-08-27T00:07:57Z</time>
      </trkpt>
      <trkpt lat="45.69937" lon="6.7278">
        <ele>2095</ele>
        <time>2022-08-27T00:07:58Z</time>
      </trkpt>
      <trkpt lat="45.69935" lon="6.72783">
        <ele>2095</ele>
        <time>2022-08-27T00:07:59Z</time>
      </trkpt>
      <trkpt lat="45.69932" lon="6.72786">
        <ele>2095</ele>
        <time>2022-08-27T00:08:00Z</time>
      </trkpt>
      <trkpt lat="45.6993" lon="6.72787">
        <ele>2094</ele>
        <time>2022-08-27T00:08:01Z</time>
      </trkpt>
      <trkpt lat="45.69928" lon="6.72786">
        <ele>2094</ele>
        <time>2022-08-27T00:08:02Z</time>
      </trkpt>
      <trkpt lat="45.69926" lon="6.72785">
        <ele>2093</ele>
        <time>2022-08-27T00:08:03Z</time>
      </trkpt>
      <trkpt lat="45.69923" lon="6.72783">
        <ele>2092</ele>
        <time>2022-08-27T00:08:04Z</time>
      </trkpt>
      <trkpt lat="45.69919" lon="6.72781">
        <ele>2092</ele>
        <time>2022-08-27T00:08:05Z</time>
      </trkpt>
      <trkpt lat="45.69918" lon="6.7278">
        <ele>2092</ele>
        <time>2022-08-27T00:08:06Z</time>
      </trkpt>
      <trkpt lat="45.69914" lon="6.72779">
        <ele>2092</ele>
        <time>2022-08-27T00:08:07Z</time>
      </trkpt>
      <trkpt lat="45.69913" lon="6.72779">
        <ele>2092</ele>
        <time>2022-08-27T00:08:08Z</time>
      </trkpt>
      <trkpt lat="45.6991" lon="6.72778">
        <ele>2092</ele>
        <time>2022-08-27T00:08:09Z</time>
      </trkpt>
      <trkpt lat="45.69908" lon="6.72778">
        <ele>2092</ele>
        <time>2022-08-27T00:08:10Z</time>
      </trkpt>
      <trkpt lat="45.69905" lon="6.72779">
        <ele>2092</ele>
        <time>2022-08-27T00:08:11Z</time>
      </trkpt>
      <trkpt lat="45.69902" lon="6.7278">
        <ele>2092</ele>
        <time>2022-08-27T00:08:12Z</time>
      </trkpt>
      <trkpt lat="45.69901" lon="6.7278">
        <ele>2090</ele>
        <time>2022-08-27T00:08:13Z</time>
      </trkpt>
      <trkpt lat="45.69898" lon="6.72781">
        <ele>2089</ele>
        <time>2022-08-27T00:08:14Z</time>
      </trkpt>
      <trkpt lat="45.69894" lon="6.72783">
        <ele>2089</ele>
        <time>2022-08-27T00:08:15Z</time>
      </trkpt>
      <trkpt lat="45.69893" lon="6.72783">
        <ele>2089</ele>
        <time>2022-08-27T00:08:16Z</time>
      </trkpt>
      <trkpt lat="45.6989" lon="6.72783">
        <ele>2089</ele>
        <time>2022-08-27T00:08:17Z</time>
      </trkpt>
      <trkpt lat="45.69888" lon="6.72783">
        <ele>2088</ele>
        <time>2022-08-27T00:08:18Z</time>
      </trkpt>
      <trkpt lat="45.69886" lon="6.72783">
        <ele>2088</ele>
        <time>2022-08-27T00:08:19Z</time>
      </trkpt>
      <trkpt lat="45.69882" lon="6.72782">
        <ele>2088</ele>
        <time>2022-08-27T00:08:20Z</time>
      </trkpt>
      <trkpt lat="45.69881" lon="6.72781">
        <ele>2087</ele>
        <time>2022-08-27T00:08:21Z</time>
      </trkpt>
      <trkpt lat="45.69879" lon="6.7278">
        <ele>2087</ele>
        <time>2022-08-27T00:08:22Z</time>
      </trkpt>
      <trkpt lat="45.69877" lon="6.72779">
        <ele>2086</ele>
        <time>2022-08-27T00:08:23Z</time>
      </trkpt>
      <trkpt lat="45.69874" lon="6.72776">
        <ele>2086</ele>
        <time>2022-08-27T00:08:24Z</time>
      </trkpt>
      <trkpt lat="45.69873" lon="6.72775">
        <ele>2085</ele>
        <time>2022-08-27T00:08:25Z</time>
      </trkpt>
      <trkpt lat="45.69871" lon="6.72773">
        <ele>2085</ele>
        <time>2022-08-27T00:08:26Z</time>
      </trkpt>
      <trkpt lat="45.69869" lon="6.72771">
        <ele>2084</ele>
        <time>2022-08-27T00:08:27Z</time>
      </trkpt>
      <trkpt lat="45.69866" lon="6.72768">
        <ele>2084</ele>
        <time>2022-08-27T00:08:28Z</time>
      </trkpt>
      <trkpt lat="45.69865" lon="6.72767">
        <ele>2084</ele>
        <time>2022-08-27T00:08:29Z</time>
      </trkpt>
      <trkpt lat="45.69863" lon="6.72765">
        <ele>2084</ele>
        <time>2022-08-27T00:08:30Z</time>
      </trkpt>
      <trkpt lat="45.69861" lon="6.72762">
        <ele>2084</ele>
        <time>2022-08-27T00:08:31Z</time>
      </trkpt>
      <trkpt lat="45.69859" lon="6.7276">
        <ele>2084</ele>
        <time>2022-08-27T00:08:32Z</time>
      </trkpt>
      <trkpt lat="45.69856" lon="6.72756">
        <ele>2084</ele>
        <time>2022-08-27T00:08:33Z</time>
      </trkpt>
      <trkpt lat="45.69856" lon="6.72755">
        <ele>2083</ele>
        <time>2022-08-27T00:08:34Z</time>
      </trkpt>
      <trkpt lat="45.69853" lon="6.72751">
        <ele>2083</ele>
        <time>2022-08-27T00:08:35Z</time>
      </trkpt>
      <trkpt lat="45.69852" lon="6.7275">
        <ele>2082</ele>
        <time>2022-08-27T00:08:36Z</time>
      </trkpt>
      <trkpt lat="45.69851" lon="6.72747">
        <ele>2082</ele>
        <time>2022-08-27T00:08:37Z</time>
      </trkpt>
      <trkpt lat="45.69849" lon="6.72745">
        <ele>2082</ele>
        <time>2022-08-27T00:08:38Z</time>
      </trkpt>
      <trkpt lat="45.69848" lon="6.72742">
        <ele>2082</ele>
        <time>2022-08-27T00:08:39Z</time>
      </trkpt>
      <trkpt lat="45.69846" lon="6.72739">
        <ele>2082</ele>
        <time>2022-08-27T00:08:40Z</time>
      </trkpt>
      <trkpt lat="45.69845" lon="6.72736">
        <ele>2082</ele>
        <time>2022-08-27T00:08:41Z</time>
      </trkpt>
      <trkpt lat="45.69843" lon="6.72733">
        <ele>2082</ele>
        <time>2022-08-27T00:08:42Z</time>
      </trkpt>
      <trkpt lat="45.69842" lon="6.7273">
        <ele>2081</ele>
        <time>2022-08-27T00:08:43Z</time>
      </trkpt>
      <trkpt lat="45.6984" lon="6.72727">
        <ele>2081</ele>
        <time>2022-08-27T00:08:44Z</time>
      </trkpt>
      <trkpt lat="45.69839" lon="6.72725">
        <ele>2081</ele>
        <time>2022-08-27T00:08:45Z</time>
      </trkpt>
      <trkpt lat="45.69837" lon="6.72722">
        <ele>2081</ele>
        <time>2022-08-27T00:08:46Z</time>
      </trkpt>
      <trkpt lat="45.69834" lon="6.72717">
        <ele>2081</ele>
        <time>2022-08-27T00:08:47Z</time>
      </trkpt>
      <trkpt lat="45.69833" lon="6.72716">
        <ele>2080</ele>
        <time>2022-08-27T00:08:48Z</time>
      </trkpt>
      <trkpt lat="45.69832" lon="6.72714">
        <ele>2080</ele>
        <time>2022-08-27T00:08:49Z</time>
      </trkpt>
      <trkpt lat="45.6983" lon="6.72711">
        <ele>2080</ele>
        <time>2022-08-27T00:08:50Z</time>
      </trkpt>
      <trkpt lat="45.69828" lon="6.72709">
        <ele>2079</ele>
        <time>2022-08-27T00:08:51Z</time>
      </trkpt>
      <trkpt lat="45.69826" lon="6.72708">
        <ele>2079</ele>
        <time>2022-08-27T00:08:52Z</time>
      </trkpt>
      <trkpt lat="45.69824" lon="6.72709">
        <ele>2078</ele>
        <time>2022-08-27T00:08:53Z</time>
      </trkpt>
      <trkpt lat="45.69822" lon="6.72712">
        <ele>2078</ele>
        <time>2022-08-27T00:08:55Z</time>
      </trkpt>
      <trkpt lat="45.69821" lon="6.72717">
        <ele>2078</ele>
        <time>2022-08-27T00:08:56Z</time>
      </trkpt>
      <trkpt lat="45.69821" lon="6.72719">
        <ele>2077</ele>
        <time>2022-08-27T00:08:57Z</time>
      </trkpt>
      <trkpt lat="45.69822" lon="6.72722">
        <ele>2077</ele>
        <time>2022-08-27T00:08:58Z</time>
      </trkpt>
      <trkpt lat="45.69822" lon="6.72725">
        <ele>2077</ele>
        <time>2022-08-27T00:08:59Z</time>
      </trkpt>
      <trkpt lat="45.69823" lon="6.72729">
        <ele>2076</ele>
        <time>2022-08-27T00:09:00Z</time>
      </trkpt>
      <trkpt lat="45.69823" lon="6.72732">
        <ele>2075</ele>
        <time>2022-08-27T00:09:01Z</time>
      </trkpt>
      <trkpt lat="45.69824" lon="6.72737">
        <ele>2075</ele>
        <time>2022-08-27T00:09:02Z</time>
      </trkpt>
      <trkpt lat="45.69825" lon="6.72739">
        <ele>2074</ele>
        <time>2022-08-27T00:09:03Z</time>
      </trkpt>
      <trkpt lat="45.69826" lon="6.72743">
        <ele>2074</ele>
        <time>2022-08-27T00:09:04Z</time>
      </trkpt>
      <trkpt lat="45.69826" lon="6.72746">
        <ele>2074</ele>
        <time>2022-08-27T00:09:05Z</time>
      </trkpt>
      <trkpt lat="45.69827" lon="6.7275">
        <ele>2074</ele>
        <time>2022-08-27T00:09:06Z</time>
      </trkpt>
      <trkpt lat="45.69828" lon="6.72752">
        <ele>2073</ele>
        <time>2022-08-27T00:09:07Z</time>
      </trkpt>
      <trkpt lat="45.69828" lon="6.72754">
        <ele>2073</ele>
        <time>2022-08-27T00:09:08Z</time>
      </trkpt>
      <trkpt lat="45.69829" lon="6.72757">
        <ele>2072</ele>
        <time>2022-08-27T00:09:09Z</time>
      </trkpt>
      <trkpt lat="45.69831" lon="6.72763">
        <ele>2072</ele>
        <time>2022-08-27T00:09:10Z</time>
      </trkpt>
      <trkpt lat="45.69832" lon="6.72768">
        <ele>2072</ele>
        <time>2022-08-27T00:09:12Z</time>
      </trkpt>
      <trkpt lat="45.69833" lon="6.7277">
        <ele>2071</ele>
        <time>2022-08-27T00:09:13Z</time>
      </trkpt>
      <trkpt lat="45.69834" lon="6.72773">
        <ele>2071</ele>
        <time>2022-08-27T00:09:14Z</time>
      </trkpt>
      <trkpt lat="45.69834" lon="6.72776">
        <ele>2071</ele>
        <time>2022-08-27T00:09:15Z</time>
      </trkpt>
      <trkpt lat="45.69835" lon="6.72779">
        <ele>2071</ele>
        <time>2022-08-27T00:09:16Z</time>
      </trkpt>
      <trkpt lat="45.69836" lon="6.72782">
        <ele>2071</ele>
        <time>2022-08-27T00:09:17Z</time>
      </trkpt>
      <trkpt lat="45.69837" lon="6.72785">
        <ele>2070</ele>
        <time>2022-08-27T00:09:18Z</time>
      </trkpt>
      <trkpt lat="45.69838" lon="6.72788">
        <ele>2070</ele>
        <time>2022-08-27T00:09:19Z</time>
      </trkpt>
      <trkpt lat="45.69839" lon="6.72791">
        <ele>2070</ele>
        <time>2022-08-27T00:09:20Z</time>
      </trkpt>
      <trkpt lat="45.69841" lon="6.72795">
        <ele>2070</ele>
        <time>2022-08-27T00:09:21Z</time>
      </trkpt>
      <trkpt lat="45.69842" lon="6.72797">
        <ele>2069</ele>
        <time>2022-08-27T00:09:22Z</time>
      </trkpt>
      <trkpt lat="45.69843" lon="6.728">
        <ele>2069</ele>
        <time>2022-08-27T00:09:23Z</time>
      </trkpt>
      <trkpt lat="45.69844" lon="6.72803">
        <ele>2069</ele>
        <time>2022-08-27T00:09:24Z</time>
      </trkpt>
      <trkpt lat="45.69845" lon="6.72808">
        <ele>2069</ele>
        <time>2022-08-27T00:09:25Z</time>
      </trkpt>
      <trkpt lat="45.69845" lon="6.72809">
        <ele>2068</ele>
        <time>2022-08-27T00:09:26Z</time>
      </trkpt>
      <trkpt lat="45.69846" lon="6.72813">
        <ele>2068</ele>
        <time>2022-08-27T00:09:27Z</time>
      </trkpt>
      <trkpt lat="45.69847" lon="6.72816">
        <ele>2068</ele>
        <time>2022-08-27T00:09:28Z</time>
      </trkpt>
      <trkpt lat="45.69848" lon="6.72819">
        <ele>2068</ele>
        <time>2022-08-27T00:09:29Z</time>
      </trkpt>
      <trkpt lat="45.69849" lon="6.72824">
        <ele>2068</ele>
        <time>2022-08-27T00:09:30Z</time>
      </trkpt>
      <trkpt lat="45.69849" lon="6.72826">
        <ele>2067</ele>
        <time>2022-08-27T00:09:31Z</time>
      </trkpt>
      <trkpt lat="45.69849" lon="6.72829">
        <ele>2067</ele>
        <time>2022-08-27T00:09:32Z</time>
      </trkpt>
      <trkpt lat="45.6985" lon="6.72832">
        <ele>2066</ele>
        <time>2022-08-27T00:09:33Z</time>
      </trkpt>
      <trkpt lat="45.69851" lon="6.72835">
        <ele>2066</ele>
        <time>2022-08-27T00:09:34Z</time>
      </trkpt>
      <trkpt lat="45.69852" lon="6.7284">
        <ele>2066</ele>
        <time>2022-08-27T00:09:35Z</time>
      </trkpt>
      <trkpt lat="45.69853" lon="6.72841">
        <ele>2064</ele>
        <time>2022-08-27T00:09:36Z</time>
      </trkpt>
      <trkpt lat="45.69853" lon="6.72844">
        <ele>2064</ele>
        <time>2022-08-27T00:09:37Z</time>
      </trkpt>
      <trkpt lat="45.69853" lon="6.72847">
        <ele>2064</ele>
        <time>2022-08-27T00:09:38Z</time>
      </trkpt>
      <trkpt lat="45.69854" lon="6.7285">
        <ele>2064</ele>
        <time>2022-08-27T00:09:39Z</time>
      </trkpt>
      <trkpt lat="45.69855" lon="6.72853">
        <ele>2064</ele>
        <time>2022-08-27T00:09:40Z</time>
      </trkpt>
      <trkpt lat="45.69855" lon="6.72856">
        <ele>2063</ele>
        <time>2022-08-27T00:09:41Z</time>
      </trkpt>
      <trkpt lat="45.69856" lon="6.72859">
        <ele>2063</ele>
        <time>2022-08-27T00:09:42Z</time>
      </trkpt>
      <trkpt lat="45.69857" lon="6.72862">
        <ele>2062</ele>
        <time>2022-08-27T00:09:43Z</time>
      </trkpt>
      <trkpt lat="45.69858" lon="6.72864">
        <ele>2062</ele>
        <time>2022-08-27T00:09:44Z</time>
      </trkpt>
      <trkpt lat="45.69858" lon="6.72867">
        <ele>2062</ele>
        <time>2022-08-27T00:09:45Z</time>
      </trkpt>
      <trkpt lat="45.69859" lon="6.7287">
        <ele>2062</ele>
        <time>2022-08-27T00:09:46Z</time>
      </trkpt>
      <trkpt lat="45.6986" lon="6.72872">
        <ele>2062</ele>
        <time>2022-08-27T00:09:47Z</time>
      </trkpt>
      <trkpt lat="45.6986" lon="6.72875">
        <ele>2062</ele>
        <time>2022-08-27T00:09:49Z</time>
      </trkpt>
      <trkpt lat="45.69857" lon="6.72875">
        <ele>2061</ele>
        <time>2022-08-27T00:09:51Z</time>
      </trkpt>
      <trkpt lat="45.69856" lon="6.72875">
        <ele>2060</ele>
        <time>2022-08-27T00:09:52Z</time>
      </trkpt>
      <trkpt lat="45.69854" lon="6.72874">
        <ele>2059</ele>
        <time>2022-08-27T00:09:53Z</time>
      </trkpt>
      <trkpt lat="45.6985" lon="6.72873">
        <ele>2059</ele>
        <time>2022-08-27T00:09:55Z</time>
      </trkpt>
      <trkpt lat="45.69848" lon="6.72871">
        <ele>2058</ele>
        <time>2022-08-27T00:09:56Z</time>
      </trkpt>
      <trkpt lat="45.69847" lon="6.7287">
        <ele>2058</ele>
        <time>2022-08-27T00:09:57Z</time>
      </trkpt>
      <trkpt lat="45.69845" lon="6.72868">
        <ele>2057</ele>
        <time>2022-08-27T00:09:58Z</time>
      </trkpt>
      <trkpt lat="45.69844" lon="6.72865">
        <ele>2057</ele>
        <time>2022-08-27T00:09:59Z</time>
      </trkpt>
      <trkpt lat="45.69842" lon="6.72863">
        <ele>2057</ele>
        <time>2022-08-27T00:10:00Z</time>
      </trkpt>
      <trkpt lat="45.6984" lon="6.72861">
        <ele>2057</ele>
        <time>2022-08-27T00:10:01Z</time>
      </trkpt>
      <trkpt lat="45.69839" lon="6.7286">
        <ele>2054</ele>
        <time>2022-08-27T00:10:02Z</time>
      </trkpt>
      <trkpt lat="45.69837" lon="6.72858">
        <ele>2054</ele>
        <time>2022-08-27T00:10:03Z</time>
      </trkpt>
      <trkpt lat="45.69836" lon="6.72856">
        <ele>2054</ele>
        <time>2022-08-27T00:10:04Z</time>
      </trkpt>
      <trkpt lat="45.69834" lon="6.72855">
        <ele>2054</ele>
        <time>2022-08-27T00:10:05Z</time>
      </trkpt>
      <trkpt lat="45.69832" lon="6.72853">
        <ele>2053</ele>
        <time>2022-08-27T00:10:06Z</time>
      </trkpt>
      <trkpt lat="45.69831" lon="6.72852">
        <ele>2053</ele>
        <time>2022-08-27T00:10:07Z</time>
      </trkpt>
      <trkpt lat="45.69828" lon="6.7285">
        <ele>2052</ele>
        <time>2022-08-27T00:10:08Z</time>
      </trkpt>
      <trkpt lat="45.69827" lon="6.72848">
        <ele>2051</ele>
        <time>2022-08-27T00:10:09Z</time>
      </trkpt>
      <trkpt lat="45.69824" lon="6.72846">
        <ele>2051</ele>
        <time>2022-08-27T00:10:10Z</time>
      </trkpt>
      <trkpt lat="45.69823" lon="6.72845">
        <ele>2050</ele>
        <time>2022-08-27T00:10:11Z</time>
      </trkpt>
      <trkpt lat="45.69822" lon="6.72843">
        <ele>2050</ele>
        <time>2022-08-27T00:10:12Z</time>
      </trkpt>
      <trkpt lat="45.6982" lon="6.72841">
        <ele>2050</ele>
        <time>2022-08-27T00:10:13Z</time>
      </trkpt>
      <trkpt lat="45.69819" lon="6.7284">
        <ele>2050</ele>
        <time>2022-08-27T00:10:14Z</time>
      </trkpt>
      <trkpt lat="45.69815" lon="6.72839">
        <ele>2048</ele>
        <time>2022-08-27T00:10:16Z</time>
      </trkpt>
      <trkpt lat="45.69814" lon="6.72839">
        <ele>2048</ele>
        <time>2022-08-27T00:10:17Z</time>
      </trkpt>
      <trkpt lat="45.69812" lon="6.72838">
        <ele>2048</ele>
        <time>2022-08-27T00:10:18Z</time>
      </trkpt>
      <trkpt lat="45.6981" lon="6.72837">
        <ele>2048</ele>
        <time>2022-08-27T00:10:19Z</time>
      </trkpt>
      <trkpt lat="45.69808" lon="6.72836">
        <ele>2047</ele>
        <time>2022-08-27T00:10:20Z</time>
      </trkpt>
      <trkpt lat="45.69804" lon="6.72835">
        <ele>2046</ele>
        <time>2022-08-27T00:10:22Z</time>
      </trkpt>
      <trkpt lat="45.69801" lon="6.72836">
        <ele>2044</ele>
        <time>2022-08-27T00:10:24Z</time>
      </trkpt>
      <trkpt lat="45.69799" lon="6.72837">
        <ele>2044</ele>
        <time>2022-08-27T00:10:25Z</time>
      </trkpt>
      <trkpt lat="45.69797" lon="6.72838">
        <ele>2043</ele>
        <time>2022-08-27T00:10:26Z</time>
      </trkpt>
      <trkpt lat="45.69795" lon="6.72837">
        <ele>2043</ele>
        <time>2022-08-27T00:10:27Z</time>
      </trkpt>
      <trkpt lat="45.69791" lon="6.72838">
        <ele>2042</ele>
        <time>2022-08-27T00:10:29Z</time>
      </trkpt>
      <trkpt lat="45.6979" lon="6.72839">
        <ele>2042</ele>
        <time>2022-08-27T00:10:30Z</time>
      </trkpt>
      <trkpt lat="45.69787" lon="6.7284">
        <ele>2042</ele>
        <time>2022-08-27T00:10:31Z</time>
      </trkpt>
      <trkpt lat="45.69786" lon="6.7284">
        <ele>2040</ele>
        <time>2022-08-27T00:10:32Z</time>
      </trkpt>
      <trkpt lat="45.69784" lon="6.72841">
        <ele>2040</ele>
        <time>2022-08-27T00:10:33Z</time>
      </trkpt>
      <trkpt lat="45.69782" lon="6.72842">
        <ele>2038</ele>
        <time>2022-08-27T00:10:34Z</time>
      </trkpt>
      <trkpt lat="45.6978" lon="6.72843">
        <ele>2038</ele>
        <time>2022-08-27T00:10:35Z</time>
      </trkpt>
      <trkpt lat="45.69778" lon="6.72847">
        <ele>2037</ele>
        <time>2022-08-27T00:10:37Z</time>
      </trkpt>
      <trkpt lat="45.69776" lon="6.7285">
        <ele>2036</ele>
        <time>2022-08-27T00:10:39Z</time>
      </trkpt>
      <trkpt lat="45.69773" lon="6.72853">
        <ele>2035</ele>
        <time>2022-08-27T00:10:41Z</time>
      </trkpt>
      <trkpt lat="45.6977" lon="6.72855">
        <ele>2034</ele>
        <time>2022-08-27T00:10:43Z</time>
      </trkpt>
      <trkpt lat="45.69766" lon="6.72857">
        <ele>2033</ele>
        <time>2022-08-27T00:10:45Z</time>
      </trkpt>
      <trkpt lat="45.69765" lon="6.72858">
        <ele>2033</ele>
        <time>2022-08-27T00:10:46Z</time>
      </trkpt>
      <trkpt lat="45.69762" lon="6.72861">
        <ele>2032</ele>
        <time>2022-08-27T00:10:48Z</time>
      </trkpt>
      <trkpt lat="45.6976" lon="6.72863">
        <ele>2032</ele>
        <time>2022-08-27T00:10:49Z</time>
      </trkpt>
      <trkpt lat="45.69759" lon="6.72865">
        <ele>2032</ele>
        <time>2022-08-27T00:10:50Z</time>
      </trkpt>
      <trkpt lat="45.69757" lon="6.72866">
        <ele>2030</ele>
        <time>2022-08-27T00:10:51Z</time>
      </trkpt>
      <trkpt lat="45.69756" lon="6.72868">
        <ele>2030</ele>
        <time>2022-08-27T00:10:52Z</time>
      </trkpt>
      <trkpt lat="45.69755" lon="6.7287">
        <ele>2030</ele>
        <time>2022-08-27T00:10:53Z</time>
      </trkpt>
      <trkpt lat="45.69753" lon="6.72873">
        <ele>2029</ele>
        <time>2022-08-27T00:10:54Z</time>
      </trkpt>
      <trkpt lat="45.69753" lon="6.72875">
        <ele>2029</ele>
        <time>2022-08-27T00:10:55Z</time>
      </trkpt>
      <trkpt lat="45.69752" lon="6.72878">
        <ele>2029</ele>
        <time>2022-08-27T00:10:56Z</time>
      </trkpt>
      <trkpt lat="45.69751" lon="6.72881">
        <ele>2028</ele>
        <time>2022-08-27T00:10:57Z</time>
      </trkpt>
      <trkpt lat="45.69749" lon="6.72885">
        <ele>2028</ele>
        <time>2022-08-27T00:10:58Z</time>
      </trkpt>
      <trkpt lat="45.69749" lon="6.72887">
        <ele>2026</ele>
        <time>2022-08-27T00:10:59Z</time>
      </trkpt>
      <trkpt lat="45.69748" lon="6.7289">
        <ele>2025</ele>
        <time>2022-08-27T00:11:00Z</time>
      </trkpt>
      <trkpt lat="45.69748" lon="6.72894">
        <ele>2025</ele>
        <time>2022-08-27T00:11:01Z</time>
      </trkpt>
      <trkpt lat="45.69747" lon="6.72896">
        <ele>2025</ele>
        <time>2022-08-27T00:11:02Z</time>
      </trkpt>
      <trkpt lat="45.69746" lon="6.729">
        <ele>2025</ele>
        <time>2022-08-27T00:11:03Z</time>
      </trkpt>
      <trkpt lat="45.69746" lon="6.72902">
        <ele>2024</ele>
        <time>2022-08-27T00:11:04Z</time>
      </trkpt>
      <trkpt lat="45.69745" lon="6.72905">
        <ele>2023</ele>
        <time>2022-08-27T00:11:05Z</time>
      </trkpt>
      <trkpt lat="45.69745" lon="6.72907">
        <ele>2023</ele>
        <time>2022-08-27T00:11:06Z</time>
      </trkpt>
      <trkpt lat="45.69744" lon="6.7291">
        <ele>2022</ele>
        <time>2022-08-27T00:11:07Z</time>
      </trkpt>
      <trkpt lat="45.69743" lon="6.72915">
        <ele>2022</ele>
        <time>2022-08-27T00:11:08Z</time>
      </trkpt>
      <trkpt lat="45.69743" lon="6.72916">
        <ele>2021</ele>
        <time>2022-08-27T00:11:09Z</time>
      </trkpt>
      <trkpt lat="45.69743" lon="6.72921">
        <ele>2021</ele>
        <time>2022-08-27T00:11:10Z</time>
      </trkpt>
      <trkpt lat="45.69743" lon="6.72923">
        <ele>2020</ele>
        <time>2022-08-27T00:11:11Z</time>
      </trkpt>
      <trkpt lat="45.69743" lon="6.72926">
        <ele>2020</ele>
        <time>2022-08-27T00:11:12Z</time>
      </trkpt>
      <trkpt lat="45.69742" lon="6.72929">
        <ele>2019</ele>
        <time>2022-08-27T00:11:13Z</time>
      </trkpt>
      <trkpt lat="45.69741" lon="6.72932">
        <ele>2019</ele>
        <time>2022-08-27T00:11:14Z</time>
      </trkpt>
      <trkpt lat="45.69739" lon="6.72936">
        <ele>2019</ele>
        <time>2022-08-27T00:11:15Z</time>
      </trkpt>
      <trkpt lat="45.69739" lon="6.72938">
        <ele>2019</ele>
        <time>2022-08-27T00:11:16Z</time>
      </trkpt>
      <trkpt lat="45.69738" lon="6.7294">
        <ele>2018</ele>
        <time>2022-08-27T00:11:17Z</time>
      </trkpt>
      <trkpt lat="45.69737" lon="6.72943">
        <ele>2017</ele>
        <time>2022-08-27T00:11:18Z</time>
      </trkpt>
      <trkpt lat="45.69735" lon="6.72946">
        <ele>2016</ele>
        <time>2022-08-27T00:11:19Z</time>
      </trkpt>
      <trkpt lat="45.69734" lon="6.72948">
        <ele>2016</ele>
        <time>2022-08-27T00:11:20Z</time>
      </trkpt>
      <trkpt lat="45.69733" lon="6.72951">
        <ele>2016</ele>
        <time>2022-08-27T00:11:21Z</time>
      </trkpt>
      <trkpt lat="45.69732" lon="6.72954">
        <ele>2015</ele>
        <time>2022-08-27T00:11:22Z</time>
      </trkpt>
      <trkpt lat="45.69731" lon="6.72959">
        <ele>2015</ele>
        <time>2022-08-27T00:11:23Z</time>
      </trkpt>
      <trkpt lat="45.6973" lon="6.7296">
        <ele>2014</ele>
        <time>2022-08-27T00:11:24Z</time>
      </trkpt>
      <trkpt lat="45.6973" lon="6.72963">
        <ele>2014</ele>
        <time>2022-08-27T00:11:25Z</time>
      </trkpt>
      <trkpt lat="45.69729" lon="6.72966">
        <ele>2014</ele>
        <time>2022-08-27T00:11:26Z</time>
      </trkpt>
      <trkpt lat="45.69728" lon="6.72969">
        <ele>2014</ele>
        <time>2022-08-27T00:11:27Z</time>
      </trkpt>
      <trkpt lat="45.69727" lon="6.72974">
        <ele>2014</ele>
        <time>2022-08-27T00:11:28Z</time>
      </trkpt>
      <trkpt lat="45.69726" lon="6.72975">
        <ele>2011</ele>
        <time>2022-08-27T00:11:29Z</time>
      </trkpt>
      <trkpt lat="45.69726" lon="6.72978">
        <ele>2010</ele>
        <time>2022-08-27T00:11:30Z</time>
      </trkpt>
      <trkpt lat="45.69725" lon="6.72981">
        <ele>2009</ele>
        <time>2022-08-27T00:11:31Z</time>
      </trkpt>
      <trkpt lat="45.69725" lon="6.72984">
        <ele>2009</ele>
        <time>2022-08-27T00:11:32Z</time>
      </trkpt>
      <trkpt lat="45.69725" lon="6.72987">
        <ele>2009</ele>
        <time>2022-08-27T00:11:33Z</time>
      </trkpt>
      <trkpt lat="45.69726" lon="6.72989">
        <ele>2009</ele>
        <time>2022-08-27T00:11:34Z</time>
      </trkpt>
      <trkpt lat="45.69728" lon="6.72991">
        <ele>2008</ele>
        <time>2022-08-27T00:11:35Z</time>
      </trkpt>
      <trkpt lat="45.69729" lon="6.72994">
        <ele>2008</ele>
        <time>2022-08-27T00:11:36Z</time>
      </trkpt>
      <trkpt lat="45.69729" lon="6.72996">
        <ele>2008</ele>
        <time>2022-08-27T00:11:37Z</time>
      </trkpt>
      <trkpt lat="45.6973" lon="6.72998">
        <ele>2008</ele>
        <time>2022-08-27T00:11:38Z</time>
      </trkpt>
      <trkpt lat="45.69731" lon="6.73003">
        <ele>2007</ele>
        <time>2022-08-27T00:11:40Z</time>
      </trkpt>
      <trkpt lat="45.69731" lon="6.73006">
        <ele>2007</ele>
        <time>2022-08-27T00:11:41Z</time>
      </trkpt>
      <trkpt lat="45.69731" lon="6.73008">
        <ele>2006</ele>
        <time>2022-08-27T00:11:42Z</time>
      </trkpt>
      <trkpt lat="45.69731" lon="6.73011">
        <ele>2006</ele>
        <time>2022-08-27T00:11:43Z</time>
      </trkpt>
      <trkpt lat="45.69731" lon="6.73013">
        <ele>2005</ele>
        <time>2022-08-27T00:11:44Z</time>
      </trkpt>
      <trkpt lat="45.69732" lon="6.73017">
        <ele>2005</ele>
        <time>2022-08-27T00:11:45Z</time>
      </trkpt>
      <trkpt lat="45.69733" lon="6.73019">
        <ele>2004</ele>
        <time>2022-08-27T00:11:46Z</time>
      </trkpt>
      <trkpt lat="45.69733" lon="6.73022">
        <ele>2004</ele>
        <time>2022-08-27T00:11:47Z</time>
      </trkpt>
      <trkpt lat="45.69734" lon="6.73024">
        <ele>2003</ele>
        <time>2022-08-27T00:11:48Z</time>
      </trkpt>
      <trkpt lat="45.69734" lon="6.73027">
        <ele>2003</ele>
        <time>2022-08-27T00:11:49Z</time>
      </trkpt>
      <trkpt lat="45.69735" lon="6.73032">
        <ele>2002</ele>
        <time>2022-08-27T00:11:51Z</time>
      </trkpt>
      <trkpt lat="45.69735" lon="6.73034">
        <ele>2002</ele>
        <time>2022-08-27T00:11:52Z</time>
      </trkpt>
      <trkpt lat="45.69736" lon="6.73039">
        <ele>2002</ele>
        <time>2022-08-27T00:11:53Z</time>
      </trkpt>
      <trkpt lat="45.69736" lon="6.7304">
        <ele>2001</ele>
        <time>2022-08-27T00:11:54Z</time>
      </trkpt>
      <trkpt lat="45.69737" lon="6.73043">
        <ele>2000</ele>
        <time>2022-08-27T00:11:55Z</time>
      </trkpt>
      <trkpt lat="45.69737" lon="6.73045">
        <ele>1999</ele>
        <time>2022-08-27T00:11:56Z</time>
      </trkpt>
      <trkpt lat="45.69738" lon="6.73048">
        <ele>1999</ele>
        <time>2022-08-27T00:11:57Z</time>
      </trkpt>
      <trkpt lat="45.69738" lon="6.73051">
        <ele>1998</ele>
        <time>2022-08-27T00:11:58Z</time>
      </trkpt>
      <trkpt lat="45.69739" lon="6.73053">
        <ele>1998</ele>
        <time>2022-08-27T00:11:59Z</time>
      </trkpt>
      <trkpt lat="45.6974" lon="6.73056">
        <ele>1998</ele>
        <time>2022-08-27T00:12:00Z</time>
      </trkpt>
      <trkpt lat="45.69741" lon="6.73059">
        <ele>1998</ele>
        <time>2022-08-27T00:12:01Z</time>
      </trkpt>
      <trkpt lat="45.69742" lon="6.73063">
        <ele>1998</ele>
        <time>2022-08-27T00:12:02Z</time>
      </trkpt>
      <trkpt lat="45.69742" lon="6.73065">
        <ele>1997</ele>
        <time>2022-08-27T00:12:03Z</time>
      </trkpt>
      <trkpt lat="45.69744" lon="6.73069">
        <ele>1995</ele>
        <time>2022-08-27T00:12:05Z</time>
      </trkpt>
      <trkpt lat="45.69744" lon="6.73074">
        <ele>1994</ele>
        <time>2022-08-27T00:12:07Z</time>
      </trkpt>
      <trkpt lat="45.69744" lon="6.73078">
        <ele>1993</ele>
        <time>2022-08-27T00:12:09Z</time>
      </trkpt>
      <trkpt lat="45.69744" lon="6.73083">
        <ele>1993</ele>
        <time>2022-08-27T00:12:11Z</time>
      </trkpt>
      <trkpt lat="45.69744" lon="6.73087">
        <ele>1993</ele>
        <time>2022-08-27T00:12:13Z</time>
      </trkpt>
      <trkpt lat="45.69745" lon="6.73091">
        <ele>1990</ele>
        <time>2022-08-27T00:12:15Z</time>
      </trkpt>
      <trkpt lat="45.69746" lon="6.73095">
        <ele>1989</ele>
        <time>2022-08-27T00:12:17Z</time>
      </trkpt>
      <trkpt lat="45.69746" lon="6.73098">
        <ele>1989</ele>
        <time>2022-08-27T00:12:19Z</time>
      </trkpt>
      <trkpt lat="45.69747" lon="6.73102">
        <ele>1988</ele>
        <time>2022-08-27T00:12:21Z</time>
      </trkpt>
      <trkpt lat="45.69746" lon="6.73106">
        <ele>1986</ele>
        <time>2022-08-27T00:12:23Z</time>
      </trkpt>
      <trkpt lat="45.69742" lon="6.73106">
        <ele>1985</ele>
        <time>2022-08-27T00:12:24Z</time>
      </trkpt>
      <trkpt lat="45.69739" lon="6.73105">
        <ele>1984</ele>
        <time>2022-08-27T00:12:26Z</time>
      </trkpt>
      <trkpt lat="45.69737" lon="6.73104">
        <ele>1983</ele>
        <time>2022-08-27T00:12:27Z</time>
      </trkpt>
      <trkpt lat="45.69735" lon="6.73104">
        <ele>1983</ele>
        <time>2022-08-27T00:12:28Z</time>
      </trkpt>
      <trkpt lat="45.69732" lon="6.73105">
        <ele>1983</ele>
        <time>2022-08-27T00:12:29Z</time>
      </trkpt>
      <trkpt lat="45.69729" lon="6.73105">
        <ele>1982</ele>
        <time>2022-08-27T00:12:30Z</time>
      </trkpt>
      <trkpt lat="45.69725" lon="6.73106">
        <ele>1982</ele>
        <time>2022-08-27T00:12:31Z</time>
      </trkpt>
      <trkpt lat="45.69724" lon="6.73106">
        <ele>1982</ele>
        <time>2022-08-27T00:12:32Z</time>
      </trkpt>
      <trkpt lat="45.69722" lon="6.73107">
        <ele>1981</ele>
        <time>2022-08-27T00:12:33Z</time>
      </trkpt>
      <trkpt lat="45.69719" lon="6.73108">
        <ele>1980</ele>
        <time>2022-08-27T00:12:34Z</time>
      </trkpt>
      <trkpt lat="45.69716" lon="6.73108">
        <ele>1980</ele>
        <time>2022-08-27T00:12:35Z</time>
      </trkpt>
      <trkpt lat="45.69714" lon="6.73109">
        <ele>1980</ele>
        <time>2022-08-27T00:12:36Z</time>
      </trkpt>
      <trkpt lat="45.69712" lon="6.73109">
        <ele>1980</ele>
        <time>2022-08-27T00:12:37Z</time>
      </trkpt>
      <trkpt lat="45.69709" lon="6.73109">
        <ele>1979</ele>
        <time>2022-08-27T00:12:38Z</time>
      </trkpt>
      <trkpt lat="45.69706" lon="6.73108">
        <ele>1979</ele>
        <time>2022-08-27T00:12:39Z</time>
      </trkpt>
      <trkpt lat="45.69704" lon="6.73107">
        <ele>1979</ele>
        <time>2022-08-27T00:12:40Z</time>
      </trkpt>
      <trkpt lat="45.69702" lon="6.73107">
        <ele>1978</ele>
        <time>2022-08-27T00:12:41Z</time>
      </trkpt>
      <trkpt lat="45.697" lon="6.73106">
        <ele>1978</ele>
        <time>2022-08-27T00:12:42Z</time>
      </trkpt>
      <trkpt lat="45.69698" lon="6.73106">
        <ele>1978</ele>
        <time>2022-08-27T00:12:43Z</time>
      </trkpt>
      <trkpt lat="45.69696" lon="6.73107">
        <ele>1977</ele>
        <time>2022-08-27T00:12:44Z</time>
      </trkpt>
      <trkpt lat="45.69695" lon="6.73109">
        <ele>1977</ele>
        <time>2022-08-27T00:12:45Z</time>
      </trkpt>
      <trkpt lat="45.69694" lon="6.73112">
        <ele>1976</ele>
        <time>2022-08-27T00:12:46Z</time>
      </trkpt>
      <trkpt lat="45.69694" lon="6.73115">
        <ele>1976</ele>
        <time>2022-08-27T00:12:47Z</time>
      </trkpt>
      <trkpt lat="45.69695" lon="6.73117">
        <ele>1976</ele>
        <time>2022-08-27T00:12:48Z</time>
      </trkpt>
      <trkpt lat="45.69696" lon="6.7312">
        <ele>1976</ele>
        <time>2022-08-27T00:12:49Z</time>
      </trkpt>
      <trkpt lat="45.69698" lon="6.73122">
        <ele>1976</ele>
        <time>2022-08-27T00:12:50Z</time>
      </trkpt>
      <trkpt lat="45.697" lon="6.73123">
        <ele>1976</ele>
        <time>2022-08-27T00:12:51Z</time>
      </trkpt>
      <trkpt lat="45.69702" lon="6.73127">
        <ele>1974</ele>
        <time>2022-08-27T00:12:53Z</time>
      </trkpt>
      <trkpt lat="45.69704" lon="6.73131">
        <ele>1973</ele>
        <time>2022-08-27T00:12:55Z</time>
      </trkpt>
      <trkpt lat="45.69705" lon="6.73134">
        <ele>1972</ele>
        <time>2022-08-27T00:12:57Z</time>
      </trkpt>
      <trkpt lat="45.69707" lon="6.73138">
        <ele>1971</ele>
        <time>2022-08-27T00:12:59Z</time>
      </trkpt>
      <trkpt lat="45.69709" lon="6.73143">
        <ele>1970</ele>
        <time>2022-08-27T00:13:01Z</time>
      </trkpt>
      <trkpt lat="45.6971" lon="6.73145">
        <ele>1970</ele>
        <time>2022-08-27T00:13:02Z</time>
      </trkpt>
      <trkpt lat="45.69712" lon="6.73147">
        <ele>1970</ele>
        <time>2022-08-27T00:13:03Z</time>
      </trkpt>
      <trkpt lat="45.69713" lon="6.73149">
        <ele>1969</ele>
        <time>2022-08-27T00:13:04Z</time>
      </trkpt>
      <trkpt lat="45.69714" lon="6.73151">
        <ele>1969</ele>
        <time>2022-08-27T00:13:05Z</time>
      </trkpt>
      <trkpt lat="45.69717" lon="6.73154">
        <ele>1968</ele>
        <time>2022-08-27T00:13:07Z</time>
      </trkpt>
      <trkpt lat="45.69718" lon="6.73155">
        <ele>1968</ele>
        <time>2022-08-27T00:13:08Z</time>
      </trkpt>
      <trkpt lat="45.6972" lon="6.73157">
        <ele>1968</ele>
        <time>2022-08-27T00:13:09Z</time>
      </trkpt>
      <trkpt lat="45.69721" lon="6.7316">
        <ele>1967</ele>
        <time>2022-08-27T00:13:10Z</time>
      </trkpt>
      <trkpt lat="45.69722" lon="6.73163">
        <ele>1967</ele>
        <time>2022-08-27T00:13:11Z</time>
      </trkpt>
      <trkpt lat="45.69723" lon="6.73166">
        <ele>1966</ele>
        <time>2022-08-27T00:13:12Z</time>
      </trkpt>
      <trkpt lat="45.69723" lon="6.73169">
        <ele>1966</ele>
        <time>2022-08-27T00:13:13Z</time>
      </trkpt>
      <trkpt lat="45.69725" lon="6.73173">
        <ele>1964</ele>
        <time>2022-08-27T00:13:15Z</time>
      </trkpt>
      <trkpt lat="45.69725" lon="6.73178">
        <ele>1963</ele>
        <time>2022-08-27T00:13:17Z</time>
      </trkpt>
      <trkpt lat="45.69725" lon="6.7318">
        <ele>1963</ele>
        <time>2022-08-27T00:13:18Z</time>
      </trkpt>
      <trkpt lat="45.69725" lon="6.73183">
        <ele>1962</ele>
        <time>2022-08-27T00:13:19Z</time>
      </trkpt>
      <trkpt lat="45.69725" lon="6.73188">
        <ele>1960</ele>
        <time>2022-08-27T00:13:21Z</time>
      </trkpt>
      <trkpt lat="45.69725" lon="6.73191">
        <ele>1960</ele>
        <time>2022-08-27T00:13:23Z</time>
      </trkpt>
      <trkpt lat="45.69725" lon="6.73194">
        <ele>1959</ele>
        <time>2022-08-27T00:13:25Z</time>
      </trkpt>
      <trkpt lat="45.69724" lon="6.73198">
        <ele>1957</ele>
        <time>2022-08-27T00:13:27Z</time>
      </trkpt>
      <trkpt lat="45.69724" lon="6.73203">
        <ele>1957</ele>
        <time>2022-08-27T00:13:29Z</time>
      </trkpt>
      <trkpt lat="45.69725" lon="6.73205">
        <ele>1957</ele>
        <time>2022-08-27T00:13:30Z</time>
      </trkpt>
      <trkpt lat="45.69726" lon="6.73207">
        <ele>1953</ele>
        <time>2022-08-27T00:13:31Z</time>
      </trkpt>
      <trkpt lat="45.69727" lon="6.73211">
        <ele>1953</ele>
        <time>2022-08-27T00:13:32Z</time>
      </trkpt>
      <trkpt lat="45.69728" lon="6.73213">
        <ele>1953</ele>
        <time>2022-08-27T00:13:33Z</time>
      </trkpt>
      <trkpt lat="45.69727" lon="6.73217">
        <ele>1953</ele>
        <time>2022-08-27T00:13:34Z</time>
      </trkpt>
      <trkpt lat="45.69727" lon="6.73218">
        <ele>1953</ele>
        <time>2022-08-27T00:13:35Z</time>
      </trkpt>
      <trkpt lat="45.69725" lon="6.7322">
        <ele>1953</ele>
        <time>2022-08-27T00:13:36Z</time>
      </trkpt>
      <trkpt lat="45.69723" lon="6.73222">
        <ele>1953</ele>
        <time>2022-08-27T00:13:37Z</time>
      </trkpt>
      <trkpt lat="45.69722" lon="6.73223">
        <ele>1952</ele>
        <time>2022-08-27T00:13:38Z</time>
      </trkpt>
      <trkpt lat="45.6972" lon="6.73225">
        <ele>1952</ele>
        <time>2022-08-27T00:13:39Z</time>
      </trkpt>
      <trkpt lat="45.69717" lon="6.73227">
        <ele>1951</ele>
        <time>2022-08-27T00:13:41Z</time>
      </trkpt>
      <trkpt lat="45.69715" lon="6.7323">
        <ele>1950</ele>
        <time>2022-08-27T00:13:43Z</time>
      </trkpt>
      <trkpt lat="45.69713" lon="6.73233">
        <ele>1948</ele>
        <time>2022-08-27T00:13:45Z</time>
      </trkpt>
      <trkpt lat="45.69711" lon="6.73236">
        <ele>1947</ele>
        <time>2022-08-27T00:13:47Z</time>
      </trkpt>
      <trkpt lat="45.69709" lon="6.7324">
        <ele>1947</ele>
        <time>2022-08-27T00:13:49Z</time>
      </trkpt>
      <trkpt lat="45.69707" lon="6.73244">
        <ele>1946</ele>
        <time>2022-08-27T00:13:51Z</time>
      </trkpt>
      <trkpt lat="45.69704" lon="6.73247">
        <ele>1945</ele>
        <time>2022-08-27T00:13:53Z</time>
      </trkpt>
      <trkpt lat="45.69702" lon="6.73249">
        <ele>1944</ele>
        <time>2022-08-27T00:13:55Z</time>
      </trkpt>
      <trkpt lat="45.69699" lon="6.73252">
        <ele>1942</ele>
        <time>2022-08-27T00:13:57Z</time>
      </trkpt>
      <trkpt lat="45.69697" lon="6.73256">
        <ele>1941</ele>
        <time>2022-08-27T00:13:59Z</time>
      </trkpt>
      <trkpt lat="45.69699" lon="6.7326">
        <ele>1940</ele>
        <time>2022-08-27T00:14:01Z</time>
      </trkpt>
      <trkpt lat="45.69701" lon="6.73262">
        <ele>1940</ele>
        <time>2022-08-27T00:14:03Z</time>
      </trkpt>
      <trkpt lat="45.69701" lon="6.73265">
        <ele>1939</ele>
        <time>2022-08-27T00:14:07Z</time>
      </trkpt>
      <trkpt lat="45.69701" lon="6.73268">
        <ele>1939</ele>
        <time>2022-08-27T00:14:09Z</time>
      </trkpt>
      <trkpt lat="45.69701" lon="6.73272">
        <ele>1937</ele>
        <time>2022-08-27T00:14:11Z</time>
      </trkpt>
      <trkpt lat="45.69701" lon="6.73275">
        <ele>1936</ele>
        <time>2022-08-27T00:14:13Z</time>
      </trkpt>
      <trkpt lat="45.69701" lon="6.73279">
        <ele>1936</ele>
        <time>2022-08-27T00:14:15Z</time>
      </trkpt>
      <trkpt lat="45.69702" lon="6.73283">
        <ele>1934</ele>
        <time>2022-08-27T00:14:17Z</time>
      </trkpt>
      <trkpt lat="45.69702" lon="6.73285">
        <ele>1934</ele>
        <time>2022-08-27T00:14:18Z</time>
      </trkpt>
      <trkpt lat="45.69702" lon="6.7329">
        <ele>1934</ele>
        <time>2022-08-27T00:14:20Z</time>
      </trkpt>
      <trkpt lat="45.69704" lon="6.73293">
        <ele>1933</ele>
        <time>2022-08-27T00:14:22Z</time>
      </trkpt>
      <trkpt lat="45.69706" lon="6.73295">
        <ele>1931</ele>
        <time>2022-08-27T00:14:24Z</time>
      </trkpt>
      <trkpt lat="45.69707" lon="6.73298">
        <ele>1931</ele>
        <time>2022-08-27T00:14:26Z</time>
      </trkpt>
      <trkpt lat="45.69706" lon="6.73303">
        <ele>1929</ele>
        <time>2022-08-27T00:14:28Z</time>
      </trkpt>
      <trkpt lat="45.69705" lon="6.73305">
        <ele>1929</ele>
        <time>2022-08-27T00:14:29Z</time>
      </trkpt>
      <trkpt lat="45.69705" lon="6.7331">
        <ele>1926</ele>
        <time>2022-08-27T00:14:31Z</time>
      </trkpt>
      <trkpt lat="45.69706" lon="6.73313">
        <ele>1925</ele>
        <time>2022-08-27T00:14:33Z</time>
      </trkpt>
      <trkpt lat="45.69708" lon="6.73315">
        <ele>1925</ele>
        <time>2022-08-27T00:14:35Z</time>
      </trkpt>
      <trkpt lat="45.69709" lon="6.73318">
        <ele>1924</ele>
        <time>2022-08-27T00:14:37Z</time>
      </trkpt>
      <trkpt lat="45.69709" lon="6.73322">
        <ele>1924</ele>
        <time>2022-08-27T00:14:39Z</time>
      </trkpt>
      <trkpt lat="45.69706" lon="6.73324">
        <ele>1923</ele>
        <time>2022-08-27T00:14:41Z</time>
      </trkpt>
      <trkpt lat="45.69704" lon="6.73326">
        <ele>1922</ele>
        <time>2022-08-27T00:14:43Z</time>
      </trkpt>
      <trkpt lat="45.69701" lon="6.73328">
        <ele>1921</ele>
        <time>2022-08-27T00:14:45Z</time>
      </trkpt>
      <trkpt lat="45.697" lon="6.73333">
        <ele>1919</ele>
        <time>2022-08-27T00:14:47Z</time>
      </trkpt>
      <trkpt lat="45.69699" lon="6.73337">
        <ele>1919</ele>
        <time>2022-08-27T00:14:48Z</time>
      </trkpt>
      <trkpt lat="45.69699" lon="6.73338">
        <ele>1919</ele>
        <time>2022-08-27T00:14:49Z</time>
      </trkpt>
      <trkpt lat="45.69697" lon="6.7334">
        <ele>1919</ele>
        <time>2022-08-27T00:14:50Z</time>
      </trkpt>
      <trkpt lat="45.69695" lon="6.73341">
        <ele>1919</ele>
        <time>2022-08-27T00:14:51Z</time>
      </trkpt>
      <trkpt lat="45.69693" lon="6.73342">
        <ele>1918</ele>
        <time>2022-08-27T00:14:52Z</time>
      </trkpt>
      <trkpt lat="45.69689" lon="6.73342">
        <ele>1918</ele>
        <time>2022-08-27T00:14:53Z</time>
      </trkpt>
      <trkpt lat="45.69688" lon="6.73342">
        <ele>1917</ele>
        <time>2022-08-27T00:14:54Z</time>
      </trkpt>
      <trkpt lat="45.69686" lon="6.73342">
        <ele>1917</ele>
        <time>2022-08-27T00:14:55Z</time>
      </trkpt>
      <trkpt lat="45.69683" lon="6.73341">
        <ele>1916</ele>
        <time>2022-08-27T00:14:56Z</time>
      </trkpt>
      <trkpt lat="45.69681" lon="6.73341">
        <ele>1915</ele>
        <time>2022-08-27T00:14:57Z</time>
      </trkpt>
      <trkpt lat="45.69679" lon="6.7334">
        <ele>1915</ele>
        <time>2022-08-27T00:14:58Z</time>
      </trkpt>
      <trkpt lat="45.69676" lon="6.73338">
        <ele>1915</ele>
        <time>2022-08-27T00:14:59Z</time>
      </trkpt>
      <trkpt lat="45.69675" lon="6.73337">
        <ele>1913</ele>
        <time>2022-08-27T00:15:00Z</time>
      </trkpt>
      <trkpt lat="45.69673" lon="6.73336">
        <ele>1913</ele>
        <time>2022-08-27T00:15:01Z</time>
      </trkpt>
      <trkpt lat="45.69671" lon="6.73335">
        <ele>1913</ele>
        <time>2022-08-27T00:15:02Z</time>
      </trkpt>
      <trkpt lat="45.69668" lon="6.73334">
        <ele>1913</ele>
        <time>2022-08-27T00:15:03Z</time>
      </trkpt>
      <trkpt lat="45.69667" lon="6.73334">
        <ele>1913</ele>
        <time>2022-08-27T00:15:04Z</time>
      </trkpt>
      <trkpt lat="45.69664" lon="6.73334">
        <ele>1913</ele>
        <time>2022-08-27T00:15:06Z</time>
      </trkpt>
      <trkpt lat="45.69662" lon="6.73335">
        <ele>1912</ele>
        <time>2022-08-27T00:15:08Z</time>
      </trkpt>
      <trkpt lat="45.69661" lon="6.73334">
        <ele>1911</ele>
        <time>2022-08-27T00:15:10Z</time>
      </trkpt>
      <trkpt lat="45.69658" lon="6.73334">
        <ele>1911</ele>
        <time>2022-08-27T00:15:12Z</time>
      </trkpt>
      <trkpt lat="45.69655" lon="6.73332">
        <ele>1909</ele>
        <time>2022-08-27T00:15:14Z</time>
      </trkpt>
      <trkpt lat="45.69651" lon="6.73331">
        <ele>1909</ele>
        <time>2022-08-27T00:15:16Z</time>
      </trkpt>
      <trkpt lat="45.69649" lon="6.73331">
        <ele>1908</ele>
        <time>2022-08-27T00:15:18Z</time>
      </trkpt>
      <trkpt lat="45.69645" lon="6.73332">
        <ele>1906</ele>
        <time>2022-08-27T00:15:20Z</time>
      </trkpt>
      <trkpt lat="45.69644" lon="6.73332">
        <ele>1906</ele>
        <time>2022-08-27T00:15:21Z</time>
      </trkpt>
      <trkpt lat="45.69642" lon="6.73333">
        <ele>1906</ele>
        <time>2022-08-27T00:15:22Z</time>
      </trkpt>
      <trkpt lat="45.6964" lon="6.73333">
        <ele>1906</ele>
        <time>2022-08-27T00:15:23Z</time>
      </trkpt>
      <trkpt lat="45.69638" lon="6.73334">
        <ele>1905</ele>
        <time>2022-08-27T00:15:24Z</time>
      </trkpt>
      <trkpt lat="45.69636" lon="6.73336">
        <ele>1904</ele>
        <time>2022-08-27T00:15:26Z</time>
      </trkpt>
      <trkpt lat="45.69636" lon="6.7334">
        <ele>1902</ele>
        <time>2022-08-27T00:15:28Z</time>
      </trkpt>
      <trkpt lat="45.69637" lon="6.73342">
        <ele>1902</ele>
        <time>2022-08-27T00:15:29Z</time>
      </trkpt>
      <trkpt lat="45.69637" lon="6.73345">
        <ele>1902</ele>
        <time>2022-08-27T00:15:30Z</time>
      </trkpt>
      <trkpt lat="45.69638" lon="6.73347">
        <ele>1902</ele>
        <time>2022-08-27T00:15:31Z</time>
      </trkpt>
      <trkpt lat="45.69638" lon="6.73349">
        <ele>1902</ele>
        <time>2022-08-27T00:15:32Z</time>
      </trkpt>
      <trkpt lat="45.69639" lon="6.73352">
        <ele>1901</ele>
        <time>2022-08-27T00:15:33Z</time>
      </trkpt>
      <trkpt lat="45.69641" lon="6.73356">
        <ele>1901</ele>
        <time>2022-08-27T00:15:35Z</time>
      </trkpt>
      <trkpt lat="45.69643" lon="6.73359">
        <ele>1900</ele>
        <time>2022-08-27T00:15:37Z</time>
      </trkpt>
      <trkpt lat="45.69645" lon="6.73364">
        <ele>1898</ele>
        <time>2022-08-27T00:15:39Z</time>
      </trkpt>
      <trkpt lat="45.69645" lon="6.73366">
        <ele>1898</ele>
        <time>2022-08-27T00:15:40Z</time>
      </trkpt>
      <trkpt lat="45.69645" lon="6.73369">
        <ele>1898</ele>
        <time>2022-08-27T00:15:41Z</time>
      </trkpt>
      <trkpt lat="45.69643" lon="6.73373">
        <ele>1898</ele>
        <time>2022-08-27T00:15:43Z</time>
      </trkpt>
      <trkpt lat="45.6964" lon="6.73375">
        <ele>1897</ele>
        <time>2022-08-27T00:15:45Z</time>
      </trkpt>
      <trkpt lat="45.69637" lon="6.73377">
        <ele>1897</ele>
        <time>2022-08-27T00:15:47Z</time>
      </trkpt>
      <trkpt lat="45.69635" lon="6.73379">
        <ele>1897</ele>
        <time>2022-08-27T00:15:49Z</time>
      </trkpt>
      <trkpt lat="45.69633" lon="6.7338">
        <ele>1897</ele>
        <time>2022-08-27T00:15:51Z</time>
      </trkpt>
      <trkpt lat="45.69631" lon="6.73381">
        <ele>1896</ele>
        <time>2022-08-27T00:15:54Z</time>
      </trkpt>
      <trkpt lat="45.69629" lon="6.73382">
        <ele>1896</ele>
        <time>2022-08-27T00:15:56Z</time>
      </trkpt>
      <trkpt lat="45.69626" lon="6.73382">
        <ele>1896</ele>
        <time>2022-08-27T00:15:58Z</time>
      </trkpt>
      <trkpt lat="45.69625" lon="6.73381">
        <ele>1896</ele>
        <time>2022-08-27T00:16:05Z</time>
      </trkpt>
      <trkpt lat="45.69625" lon="6.73381">
        <ele>1896</ele>
        <time>2022-08-27T00:16:15Z</time>
      </trkpt>
      <trkpt lat="45.69625" lon="6.73381">
        <ele>1896</ele>
        <time>2022-08-27T00:16:37Z</time>
      </trkpt>
      <trkpt lat="45.69623" lon="6.73384">
        <ele>1896</ele>
        <time>2022-08-27T00:16:40Z</time>
      </trkpt>
      <trkpt lat="45.69621" lon="6.73385">
        <ele>1896</ele>
        <time>2022-08-27T00:16:42Z</time>
      </trkpt>
      <trkpt lat="45.69618" lon="6.73386">
        <ele>1896</ele>
        <time>2022-08-27T00:16:44Z</time>
      </trkpt>
      <trkpt lat="45.69616" lon="6.73387">
        <ele>1896</ele>
        <time>2022-08-27T00:16:46Z</time>
      </trkpt>
      <trkpt lat="45.69614" lon="6.73388">
        <ele>1896</ele>
        <time>2022-08-27T00:16:48Z</time>
      </trkpt>
      <trkpt lat="45.69611" lon="6.73388">
        <ele>1896</ele>
        <time>2022-08-27T00:16:50Z</time>
      </trkpt>
      <trkpt lat="45.69608" lon="6.7339">
        <ele>1895</ele>
        <time>2022-08-27T00:16:52Z</time>
      </trkpt>
      <trkpt lat="45.69605" lon="6.7339">
        <ele>1896</ele>
        <time>2022-08-27T00:16:54Z</time>
      </trkpt>
      <trkpt lat="45.69603" lon="6.7339">
        <ele>1896</ele>
        <time>2022-08-27T00:16:56Z</time>
      </trkpt>
      <trkpt lat="45.696" lon="6.73391">
        <ele>1896</ele>
        <time>2022-08-27T00:16:58Z</time>
      </trkpt>
      <trkpt lat="45.69598" lon="6.73391">
        <ele>1896</ele>
        <time>2022-08-27T00:17:00Z</time>
      </trkpt>
      <trkpt lat="45.69595" lon="6.73389">
        <ele>1896</ele>
        <time>2022-08-27T00:17:02Z</time>
      </trkpt>
      <trkpt lat="45.69592" lon="6.73387">
        <ele>1896</ele>
        <time>2022-08-27T00:17:04Z</time>
      </trkpt>
      <trkpt lat="45.69589" lon="6.73385">
        <ele>1896</ele>
        <time>2022-08-27T00:17:06Z</time>
      </trkpt>
      <trkpt lat="45.69587" lon="6.73384">
        <ele>1895</ele>
        <time>2022-08-27T00:17:08Z</time>
      </trkpt>
      <trkpt lat="45.69584" lon="6.73382">
        <ele>1895</ele>
        <time>2022-08-27T00:17:10Z</time>
      </trkpt>
      <trkpt lat="45.69581" lon="6.7338">
        <ele>1895</ele>
        <time>2022-08-27T00:17:12Z</time>
      </trkpt>
      <trkpt lat="45.69579" lon="6.73378">
        <ele>1895</ele>
        <time>2022-08-27T00:17:14Z</time>
      </trkpt>
      <trkpt lat="45.69576" lon="6.73376">
        <ele>1895</ele>
        <time>2022-08-27T00:17:16Z</time>
      </trkpt>
      <trkpt lat="45.69574" lon="6.73374">
        <ele>1895</ele>
        <time>2022-08-27T00:17:18Z</time>
      </trkpt>
      <trkpt lat="45.69572" lon="6.73371">
        <ele>1895</ele>
        <time>2022-08-27T00:17:20Z</time>
      </trkpt>
      <trkpt lat="45.69571" lon="6.73368">
        <ele>1894</ele>
        <time>2022-08-27T00:17:22Z</time>
      </trkpt>
      <trkpt lat="45.69571" lon="6.73366">
        <ele>1894</ele>
        <time>2022-08-27T00:17:25Z</time>
      </trkpt>
      <trkpt lat="45.6957" lon="6.73363">
        <ele>1895</ele>
        <time>2022-08-27T00:17:29Z</time>
      </trkpt>
      <trkpt lat="45.6957" lon="6.73363">
        <ele>1895</ele>
        <time>2022-08-27T00:17:44Z</time>
      </trkpt>
      <trkpt lat="45.6957" lon="6.7336">
        <ele>1895</ele>
        <time>2022-08-27T00:17:45Z</time>
      </trkpt>
      <trkpt lat="45.6957" lon="6.7336">
        <ele>1895</ele>
        <time>2022-08-27T00:18:04Z</time>
      </trkpt>
      <trkpt lat="45.6957" lon="6.73358">
        <ele>1895</ele>
        <time>2022-08-27T00:18:09Z</time>
      </trkpt>
      <trkpt lat="45.6957" lon="6.73358">
        <ele>1895</ele>
        <time>2022-08-27T00:18:23Z</time>
      </trkpt>
      <trkpt lat="45.69572" lon="6.73357">
        <ele>1895</ele>
        <time>2022-08-27T00:18:28Z</time>
      </trkpt>
      <trkpt lat="45.69572" lon="6.73357">
        <ele>1895</ele>
        <time>2022-08-27T00:18:42Z</time>
      </trkpt>
      <trkpt lat="45.69572" lon="6.73357">
        <ele>1894</ele>
        <time>2022-08-27T00:19:04Z</time>
      </trkpt>
      <trkpt lat="45.6957" lon="6.73359">
        <ele>1895</ele>
        <time>2022-08-27T00:19:23Z</time>
      </trkpt>
      <trkpt lat="45.6957" lon="6.73359">
        <ele>1895</ele>
        <time>2022-08-27T00:19:24Z</time>
      </trkpt>
      <trkpt lat="45.69568" lon="6.73359">
        <ele>1895</ele>
        <time>2022-08-27T00:19:29Z</time>
      </trkpt>
      <trkpt lat="45.69568" lon="6.73359">
        <ele>1896</ele>
        <time>2022-08-27T00:19:42Z</time>
      </trkpt>
      <trkpt lat="45.69568" lon="6.73359">
        <ele>1895</ele>
        <time>2022-08-27T00:20:01Z</time>
      </trkpt>
      <trkpt lat="45.69566" lon="6.73359">
        <ele>1895</ele>
        <time>2022-08-27T00:20:18Z</time>
      </trkpt>
      <trkpt lat="45.69566" lon="6.73356">
        <ele>1895</ele>
        <time>2022-08-27T00:20:22Z</time>
      </trkpt>
      <trkpt lat="45.69564" lon="6.73357">
        <ele>1895</ele>
        <time>2022-08-27T00:20:35Z</time>
      </trkpt>
      <trkpt lat="45.69564" lon="6.73357">
        <ele>1896</ele>
        <time>2022-08-27T00:20:38Z</time>
      </trkpt>
      <trkpt lat="45.69563" lon="6.73354">
        <ele>1895</ele>
        <time>2022-08-27T00:20:54Z</time>
      </trkpt>
      <trkpt lat="45.69563" lon="6.73354">
        <ele>1896</ele>
        <time>2022-08-27T00:20:58Z</time>
      </trkpt>
      <trkpt lat="45.69563" lon="6.73354">
        <ele>1895</ele>
        <time>2022-08-27T00:21:17Z</time>
      </trkpt>
      <trkpt lat="45.69563" lon="6.73354">
        <ele>1895</ele>
        <time>2022-08-27T00:21:34Z</time>
      </trkpt>
      <trkpt lat="45.69563" lon="6.73354">
        <ele>1896</ele>
        <time>2022-08-27T00:21:52Z</time>
      </trkpt>
      <trkpt lat="45.69565" lon="6.73355">
        <ele>1895</ele>
        <time>2022-08-27T00:22:03Z</time>
      </trkpt>
      <trkpt lat="45.69565" lon="6.73355">
        <ele>1895</ele>
        <time>2022-08-27T00:22:11Z</time>
      </trkpt>
      <trkpt lat="45.69565" lon="6.73355">
        <ele>1895</ele>
        <time>2022-08-27T00:22:32Z</time>
      </trkpt>
      <trkpt lat="45.69565" lon="6.73355">
        <ele>1895</ele>
        <time>2022-08-27T00:22:51Z</time>
      </trkpt>
      <trkpt lat="45.69565" lon="6.73355">
        <ele>1895</ele>
        <time>2022-08-27T00:23:11Z</time>
      </trkpt>
      <trkpt lat="45.69565" lon="6.73355">
        <ele>1895</ele>
        <time>2022-08-27T00:23:31Z</time>
      </trkpt>
      <trkpt lat="45.69565" lon="6.73355">
        <ele>1895</ele>
        <time>2022-08-27T00:23:48Z</time>
      </trkpt>
      <trkpt lat="45.69565" lon="6.73355">
        <ele>1895</ele>
        <time>2022-08-27T00:24:08Z</time>
      </trkpt>
      <trkpt lat="45.69565" lon="6.73355">
        <ele>1895</ele>
        <time>2022-08-27T00:24:26Z</time>
      </trkpt>
      <trkpt lat="45.69565" lon="6.73355">
        <ele>1895</ele>
        <time>2022-08-27T00:24:46Z</time>
      </trkpt>
      <trkpt lat="45.69565" lon="6.73355">
        <ele>1895</ele>
        <time>2022-08-27T00:25:05Z</time>
      </trkpt>
      <trkpt lat="45.69565" lon="6.73355">
        <ele>1895</ele>
        <time>2022-08-27T00:25:23Z</time>
      </trkpt>
      <trkpt lat="45.69565" lon="6.73355">
        <ele>1895</ele>
        <time>2022-08-27T00:25:41Z</time>
      </trkpt>
      <trkpt lat="45.69565" lon="6.73355">
        <ele>1895</ele>
        <time>2022-08-27T00:26:00Z</time>
      </trkpt>
      <trkpt lat="45.69565" lon="6.73355">
        <ele>1895</ele>
        <time>2022-08-27T00:26:22Z</time>
      </trkpt>
      <trkpt lat="45.69565" lon="6.73355">
        <ele>1896</ele>
        <time>2022-08-27T00:26:42Z</time>
      </trkpt>
      <trkpt lat="45.69565" lon="6.73355">
        <ele>1895</ele>
        <time>2022-08-27T00:27:02Z</time>
      </trkpt>
      <trkpt lat="45.69565" lon="6.73355">
        <ele>1894</ele>
        <time>2022-08-27T00:27:23Z</time>
      </trkpt>
      <trkpt lat="45.69565" lon="6.73355">
        <ele>1896</ele>
        <time>2022-08-27T00:27:41Z</time>
      </trkpt>
      <trkpt lat="45.69565" lon="6.73355">
        <ele>1895</ele>
        <time>2022-08-27T00:28:03Z</time>
      </trkpt>
      <trkpt lat="45.69565" lon="6.73355">
        <ele>1895</ele>
        <time>2022-08-27T00:28:22Z</time>
      </trkpt>
      <trkpt lat="45.69564" lon="6.73354">
        <ele>1895</ele>
        <time>2022-08-27T00:28:37Z</time>
      </trkpt>
      <trkpt lat="45.69564" lon="6.73354">
        <ele>1895</ele>
        <time>2022-08-27T00:28:39Z</time>
      </trkpt>
      <trkpt lat="45.69564" lon="6.73354">
        <ele>1895</ele>
        <time>2022-08-27T00:28:56Z</time>
      </trkpt>
      <trkpt lat="45.69564" lon="6.73354">
        <ele>1895</ele>
        <time>2022-08-27T00:29:16Z</time>
      </trkpt>
      <trkpt lat="45.69564" lon="6.73354">
        <ele>1894</ele>
        <time>2022-08-27T00:29:34Z</time>
      </trkpt>
      <trkpt lat="45.69564" lon="6.73354">
        <ele>1894</ele>
        <time>2022-08-27T00:29:54Z</time>
      </trkpt>
      <trkpt lat="45.69564" lon="6.73354">
        <ele>1895</ele>
        <time>2022-08-27T00:30:13Z</time>
      </trkpt>
      <trkpt lat="45.69564" lon="6.73354">
        <ele>1895</ele>
        <time>2022-08-27T00:30:36Z</time>
      </trkpt>
      <trkpt lat="45.69564" lon="6.73354">
        <ele>1895</ele>
        <time>2022-08-27T00:30:55Z</time>
      </trkpt>
      <trkpt lat="45.69566" lon="6.73353">
        <ele>1895</ele>
        <time>2022-08-27T00:31:04Z</time>
      </trkpt>
      <trkpt lat="45.69566" lon="6.73353">
        <ele>1895</ele>
        <time>2022-08-27T00:31:18Z</time>
      </trkpt>
      <trkpt lat="45.69566" lon="6.73353">
        <ele>1895</ele>
        <time>2022-08-27T00:31:39Z</time>
      </trkpt>
      <trkpt lat="45.69566" lon="6.73353">
        <ele>1895</ele>
        <time>2022-08-27T00:32:00Z</time>
      </trkpt>
      <trkpt lat="45.69567" lon="6.73351">
        <ele>1895</ele>
        <time>2022-08-27T00:32:14Z</time>
      </trkpt>
      <trkpt lat="45.69567" lon="6.73351">
        <ele>1895</ele>
        <time>2022-08-27T00:32:18Z</time>
      </trkpt>
      <trkpt lat="45.69565" lon="6.73352">
        <ele>1895</ele>
        <time>2022-08-27T00:32:31Z</time>
      </trkpt>
      <trkpt lat="45.69565" lon="6.73352">
        <ele>1895</ele>
        <time>2022-08-27T00:32:36Z</time>
      </trkpt>
      <trkpt lat="45.69563" lon="6.73353">
        <ele>1895</ele>
        <time>2022-08-27T00:32:40Z</time>
      </trkpt>
      <trkpt lat="45.69563" lon="6.73353">
        <ele>1895</ele>
        <time>2022-08-27T00:32:56Z</time>
      </trkpt>
      <trkpt lat="45.69563" lon="6.73353">
        <ele>1895</ele>
        <time>2022-08-27T00:33:13Z</time>
      </trkpt>
      <trkpt lat="45.69561" lon="6.73352">
        <ele>1895</ele>
        <time>2022-08-27T00:33:27Z</time>
      </trkpt>
      <trkpt lat="45.6956" lon="6.7335">
        <ele>1895</ele>
        <time>2022-08-27T00:33:32Z</time>
      </trkpt>
      <trkpt lat="45.69558" lon="6.7335">
        <ele>1895</ele>
        <time>2022-08-27T00:33:37Z</time>
      </trkpt>
      <trkpt lat="45.69556" lon="6.73348">
        <ele>1895</ele>
        <time>2022-08-27T00:33:45Z</time>
      </trkpt>
      <trkpt lat="45.69556" lon="6.73348">
        <ele>1895</ele>
        <time>2022-08-27T00:33:57Z</time>
      </trkpt>
      <trkpt lat="45.69556" lon="6.73351">
        <ele>1895</ele>
        <time>2022-08-27T00:34:05Z</time>
      </trkpt>
      <trkpt lat="45.69556" lon="6.73351">
        <ele>1895</ele>
        <time>2022-08-27T00:34:16Z</time>
      </trkpt>
      <trkpt lat="45.69555" lon="6.73352">
        <ele>1895</ele>
        <time>2022-08-27T00:34:28Z</time>
      </trkpt>
      <trkpt lat="45.69553" lon="6.73354">
        <ele>1895</ele>
        <time>2022-08-27T00:34:30Z</time>
      </trkpt>
      <trkpt lat="45.69555" lon="6.73355">
        <ele>1895</ele>
        <time>2022-08-27T00:34:35Z</time>
      </trkpt>
      <trkpt lat="45.69557" lon="6.73356">
        <ele>1895</ele>
        <time>2022-08-27T00:34:37Z</time>
      </trkpt>
      <trkpt lat="45.6956" lon="6.73357">
        <ele>1895</ele>
        <time>2022-08-27T00:34:39Z</time>
      </trkpt>
      <trkpt lat="45.69562" lon="6.73358">
        <ele>1895</ele>
        <time>2022-08-27T00:34:41Z</time>
      </trkpt>
      <trkpt lat="45.69564" lon="6.7336">
        <ele>1895</ele>
        <time>2022-08-27T00:34:43Z</time>
      </trkpt>
      <trkpt lat="45.69565" lon="6.73361">
        <ele>1895</ele>
        <time>2022-08-27T00:34:45Z</time>
      </trkpt>
      <trkpt lat="45.69567" lon="6.73363">
        <ele>1895</ele>
        <time>2022-08-27T00:34:47Z</time>
      </trkpt>
      <trkpt lat="45.69568" lon="6.73365">
        <ele>1895</ele>
        <time>2022-08-27T00:34:49Z</time>
      </trkpt>
      <trkpt lat="45.6957" lon="6.73366">
        <ele>1895</ele>
        <time>2022-08-27T00:34:54Z</time>
      </trkpt>
      <trkpt lat="45.69572" lon="6.73368">
        <ele>1895</ele>
        <time>2022-08-27T00:35:01Z</time>
      </trkpt>
      <trkpt lat="45.69574" lon="6.7337">
        <ele>1895</ele>
        <time>2022-08-27T00:35:04Z</time>
      </trkpt>
      <trkpt lat="45.69576" lon="6.73371">
        <ele>1895</ele>
        <time>2022-08-27T00:35:06Z</time>
      </trkpt>
      <trkpt lat="45.69578" lon="6.73373">
        <ele>1895</ele>
        <time>2022-08-27T00:35:08Z</time>
      </trkpt>
      <trkpt lat="45.69579" lon="6.73374">
        <ele>1895</ele>
        <time>2022-08-27T00:35:10Z</time>
      </trkpt>
      <trkpt lat="45.69581" lon="6.73375">
        <ele>1895</ele>
        <time>2022-08-27T00:35:12Z</time>
      </trkpt>
      <trkpt lat="45.69583" lon="6.73377">
        <ele>1895</ele>
        <time>2022-08-27T00:35:14Z</time>
      </trkpt>
      <trkpt lat="45.69585" lon="6.73378">
        <ele>1895</ele>
        <time>2022-08-27T00:35:16Z</time>
      </trkpt>
      <trkpt lat="45.69587" lon="6.73379">
        <ele>1895</ele>
        <time>2022-08-27T00:35:18Z</time>
      </trkpt>
      <trkpt lat="45.6959" lon="6.73381">
        <ele>1895</ele>
        <time>2022-08-27T00:35:21Z</time>
      </trkpt>
      <trkpt lat="45.69591" lon="6.73383">
        <ele>1895</ele>
        <time>2022-08-27T00:35:23Z</time>
      </trkpt>
      <trkpt lat="45.69593" lon="6.73384">
        <ele>1895</ele>
        <time>2022-08-27T00:35:25Z</time>
      </trkpt>
      <trkpt lat="45.69595" lon="6.73386">
        <ele>1895</ele>
        <time>2022-08-27T00:35:28Z</time>
      </trkpt>
      <trkpt lat="45.69597" lon="6.73387">
        <ele>1895</ele>
        <time>2022-08-27T00:35:30Z</time>
      </trkpt>
      <trkpt lat="45.69599" lon="6.73388">
        <ele>1895</ele>
        <time>2022-08-27T00:35:32Z</time>
      </trkpt>
      <trkpt lat="45.69601" lon="6.73389">
        <ele>1895</ele>
        <time>2022-08-27T00:35:34Z</time>
      </trkpt>
      <trkpt lat="45.69603" lon="6.73388">
        <ele>1895</ele>
        <time>2022-08-27T00:35:37Z</time>
      </trkpt>
      <trkpt lat="45.69605" lon="6.73389">
        <ele>1895</ele>
        <time>2022-08-27T00:35:40Z</time>
      </trkpt>
      <trkpt lat="45.69607" lon="6.73387">
        <ele>1895</ele>
        <time>2022-08-27T00:35:44Z</time>
      </trkpt>
      <trkpt lat="45.69609" lon="6.73386">
        <ele>1895</ele>
        <time>2022-08-27T00:35:46Z</time>
      </trkpt>
      <trkpt lat="45.69611" lon="6.73385">
        <ele>1895</ele>
        <time>2022-08-27T00:35:49Z</time>
      </trkpt>
      <trkpt lat="45.69613" lon="6.73385">
        <ele>1895</ele>
        <time>2022-08-27T00:35:51Z</time>
      </trkpt>
      <trkpt lat="45.69615" lon="6.73384">
        <ele>1895</ele>
        <time>2022-08-27T00:35:53Z</time>
      </trkpt>
      <trkpt lat="45.69617" lon="6.73383">
        <ele>1895</ele>
        <time>2022-08-27T00:35:55Z</time>
      </trkpt>
      <trkpt lat="45.6962" lon="6.73382">
        <ele>1895</ele>
        <time>2022-08-27T00:35:57Z</time>
      </trkpt>
      <trkpt lat="45.69622" lon="6.73382">
        <ele>1895</ele>
        <time>2022-08-27T00:35:59Z</time>
      </trkpt>
      <trkpt lat="45.69624" lon="6.73381">
        <ele>1895</ele>
        <time>2022-08-27T00:36:01Z</time>
      </trkpt>
      <trkpt lat="45.69626" lon="6.7338">
        <ele>1895</ele>
        <time>2022-08-27T00:36:03Z</time>
      </trkpt>
      <trkpt lat="45.69628" lon="6.73379">
        <ele>1895</ele>
        <time>2022-08-27T00:36:05Z</time>
      </trkpt>
      <trkpt lat="45.69631" lon="6.73378">
        <ele>1895</ele>
        <time>2022-08-27T00:36:08Z</time>
      </trkpt>
      <trkpt lat="45.69632" lon="6.73377">
        <ele>1895</ele>
        <time>2022-08-27T00:36:10Z</time>
      </trkpt>
      <trkpt lat="45.69634" lon="6.73377">
        <ele>1895</ele>
        <time>2022-08-27T00:36:12Z</time>
      </trkpt>
      <trkpt lat="45.69637" lon="6.73376">
        <ele>1895</ele>
        <time>2022-08-27T00:36:22Z</time>
      </trkpt>
      <trkpt lat="45.69639" lon="6.73374">
        <ele>1895</ele>
        <time>2022-08-27T00:36:26Z</time>
      </trkpt>
      <trkpt lat="45.69641" lon="6.73373">
        <ele>1895</ele>
        <time>2022-08-27T00:36:28Z</time>
      </trkpt>
      <trkpt lat="45.69643" lon="6.73371">
        <ele>1895</ele>
        <time>2022-08-27T00:36:30Z</time>
      </trkpt>
      <trkpt lat="45.69645" lon="6.7337">
        <ele>1895</ele>
        <time>2022-08-27T00:36:32Z</time>
      </trkpt>
      <trkpt lat="45.69648" lon="6.73368">
        <ele>1895</ele>
        <time>2022-08-27T00:36:34Z</time>
      </trkpt>
      <trkpt lat="45.6965" lon="6.73368">
        <ele>1895</ele>
        <time>2022-08-27T00:36:36Z</time>
      </trkpt>
      <trkpt lat="45.69652" lon="6.73367">
        <ele>1895</ele>
        <time>2022-08-27T00:36:38Z</time>
      </trkpt>
      <trkpt lat="45.69654" lon="6.73366">
        <ele>1895</ele>
        <time>2022-08-27T00:36:40Z</time>
      </trkpt>
      <trkpt lat="45.69656" lon="6.73366">
        <ele>1895</ele>
        <time>2022-08-27T00:36:42Z</time>
      </trkpt>
      <trkpt lat="45.69659" lon="6.73365">
        <ele>1895</ele>
        <time>2022-08-27T00:36:44Z</time>
      </trkpt>
      <trkpt lat="45.69662" lon="6.73365">
        <ele>1895</ele>
        <time>2022-08-27T00:36:46Z</time>
      </trkpt>
      <trkpt lat="45.69665" lon="6.73366">
        <ele>1895</ele>
        <time>2022-08-27T00:36:48Z</time>
      </trkpt>
      <trkpt lat="45.69668" lon="6.73367">
        <ele>1895</ele>
        <time>2022-08-27T00:36:50Z</time>
      </trkpt>
      <trkpt lat="45.6967" lon="6.73368">
        <ele>1895</ele>
        <time>2022-08-27T00:36:52Z</time>
      </trkpt>
      <trkpt lat="45.69674" lon="6.73369">
        <ele>1895</ele>
        <time>2022-08-27T00:36:54Z</time>
      </trkpt>
      <trkpt lat="45.69676" lon="6.73371">
        <ele>1895</ele>
        <time>2022-08-27T00:36:56Z</time>
      </trkpt>
      <trkpt lat="45.69679" lon="6.73372">
        <ele>1895</ele>
        <time>2022-08-27T00:36:58Z</time>
      </trkpt>
      <trkpt lat="45.69681" lon="6.73374">
        <ele>1895</ele>
        <time>2022-08-27T00:37:00Z</time>
      </trkpt>
      <trkpt lat="45.69684" lon="6.73376">
        <ele>1895</ele>
        <time>2022-08-27T00:37:02Z</time>
      </trkpt>
      <trkpt lat="45.69687" lon="6.73378">
        <ele>1895</ele>
        <time>2022-08-27T00:37:04Z</time>
      </trkpt>
      <trkpt lat="45.69689" lon="6.73381">
        <ele>1895</ele>
        <time>2022-08-27T00:37:06Z</time>
      </trkpt>
      <trkpt lat="45.69691" lon="6.73381">
        <ele>1895</ele>
        <time>2022-08-27T00:37:07Z</time>
      </trkpt>
      <trkpt lat="45.69693" lon="6.73381">
        <ele>1895</ele>
        <time>2022-08-27T00:37:09Z</time>
      </trkpt>
      <trkpt lat="45.69694" lon="6.73381">
        <ele>1895</ele>
        <time>2022-08-27T00:37:10Z</time>
      </trkpt>
      <trkpt lat="45.69696" lon="6.73382">
        <ele>1895</ele>
        <time>2022-08-27T00:37:11Z</time>
      </trkpt>
      <trkpt lat="45.69698" lon="6.73382">
        <ele>1895</ele>
        <time>2022-08-27T00:37:12Z</time>
      </trkpt>
      <trkpt lat="45.697" lon="6.73385">
        <ele>1895</ele>
        <time>2022-08-27T00:37:14Z</time>
      </trkpt>
      <trkpt lat="45.69702" lon="6.73389">
        <ele>1895</ele>
        <time>2022-08-27T00:37:16Z</time>
      </trkpt>
      <trkpt lat="45.69704" lon="6.73392">
        <ele>1895</ele>
        <time>2022-08-27T00:37:18Z</time>
      </trkpt>
      <trkpt lat="45.69706" lon="6.73395">
        <ele>1895</ele>
        <time>2022-08-27T00:37:20Z</time>
      </trkpt>
      <trkpt lat="45.69708" lon="6.73398">
        <ele>1895</ele>
        <time>2022-08-27T00:37:22Z</time>
      </trkpt>
      <trkpt lat="45.6971" lon="6.73401">
        <ele>1895</ele>
        <time>2022-08-27T00:37:24Z</time>
      </trkpt>
      <trkpt lat="45.69712" lon="6.73404">
        <ele>1895</ele>
        <time>2022-08-27T00:37:26Z</time>
      </trkpt>
      <trkpt lat="45.69713" lon="6.73408">
        <ele>1895</ele>
        <time>2022-08-27T00:37:28Z</time>
      </trkpt>
      <trkpt lat="45.69715" lon="6.73411">
        <ele>1895</ele>
        <time>2022-08-27T00:37:30Z</time>
      </trkpt>
      <trkpt lat="45.69717" lon="6.73415">
        <ele>1895</ele>
        <time>2022-08-27T00:37:32Z</time>
      </trkpt>
      <trkpt lat="45.69718" lon="6.73418">
        <ele>1895</ele>
        <time>2022-08-27T00:37:34Z</time>
      </trkpt>
      <trkpt lat="45.6972" lon="6.73422">
        <ele>1895</ele>
        <time>2022-08-27T00:37:36Z</time>
      </trkpt>
      <trkpt lat="45.69721" lon="6.73426">
        <ele>1895</ele>
        <time>2022-08-27T00:37:38Z</time>
      </trkpt>
      <trkpt lat="45.69722" lon="6.7343">
        <ele>1895</ele>
        <time>2022-08-27T00:37:40Z</time>
      </trkpt>
      <trkpt lat="45.69723" lon="6.73434">
        <ele>1895</ele>
        <time>2022-08-27T00:37:42Z</time>
      </trkpt>
      <trkpt lat="45.69724" lon="6.73438">
        <ele>1895</ele>
        <time>2022-08-27T00:37:44Z</time>
      </trkpt>
      <trkpt lat="45.69726" lon="6.73442">
        <ele>1895</ele>
        <time>2022-08-27T00:37:46Z</time>
      </trkpt>
      <trkpt lat="45.69727" lon="6.73445">
        <ele>1895</ele>
        <time>2022-08-27T00:37:48Z</time>
      </trkpt>
      <trkpt lat="45.69728" lon="6.73449">
        <ele>1895</ele>
        <time>2022-08-27T00:37:50Z</time>
      </trkpt>
      <trkpt lat="45.6973" lon="6.73453">
        <ele>1895</ele>
        <time>2022-08-27T00:37:52Z</time>
      </trkpt>
      <trkpt lat="45.69731" lon="6.73457">
        <ele>1895</ele>
        <time>2022-08-27T00:37:54Z</time>
      </trkpt>
      <trkpt lat="45.69732" lon="6.73461">
        <ele>1895</ele>
        <time>2022-08-27T00:37:56Z</time>
      </trkpt>
      <trkpt lat="45.69733" lon="6.73466">
        <ele>1895</ele>
        <time>2022-08-27T00:37:58Z</time>
      </trkpt>
      <trkpt lat="45.69733" lon="6.7347">
        <ele>1895</ele>
        <time>2022-08-27T00:38:00Z</time>
      </trkpt>
      <trkpt lat="45.69733" lon="6.73475">
        <ele>1895</ele>
        <time>2022-08-27T00:38:02Z</time>
      </trkpt>
      <trkpt lat="45.69733" lon="6.73479">
        <ele>1895</ele>
        <time>2022-08-27T00:38:04Z</time>
      </trkpt>
      <trkpt lat="45.69733" lon="6.73484">
        <ele>1895</ele>
        <time>2022-08-27T00:38:06Z</time>
      </trkpt>
      <trkpt lat="45.69733" lon="6.73488">
        <ele>1895</ele>
        <time>2022-08-27T00:38:08Z</time>
      </trkpt>
      <trkpt lat="45.69734" lon="6.73492">
        <ele>1895</ele>
        <time>2022-08-27T00:38:10Z</time>
      </trkpt>
      <trkpt lat="45.69735" lon="6.73496">
        <ele>1895</ele>
        <time>2022-08-27T00:38:12Z</time>
      </trkpt>
      <trkpt lat="45.69736" lon="6.735">
        <ele>1895</ele>
        <time>2022-08-27T00:38:14Z</time>
      </trkpt>
      <trkpt lat="45.69738" lon="6.73503">
        <ele>1895</ele>
        <time>2022-08-27T00:38:16Z</time>
      </trkpt>
      <trkpt lat="45.69741" lon="6.73507">
        <ele>1895</ele>
        <time>2022-08-27T00:38:18Z</time>
      </trkpt>
      <trkpt lat="45.69743" lon="6.73509">
        <ele>1895</ele>
        <time>2022-08-27T00:38:20Z</time>
      </trkpt>
      <trkpt lat="45.69745" lon="6.73513">
        <ele>1895</ele>
        <time>2022-08-27T00:38:22Z</time>
      </trkpt>
      <trkpt lat="45.69747" lon="6.73517">
        <ele>1895</ele>
        <time>2022-08-27T00:38:24Z</time>
      </trkpt>
      <trkpt lat="45.69748" lon="6.73521">
        <ele>1895</ele>
        <time>2022-08-27T00:38:26Z</time>
      </trkpt>
      <trkpt lat="45.6975" lon="6.73524">
        <ele>1895</ele>
        <time>2022-08-27T00:38:28Z</time>
      </trkpt>
      <trkpt lat="45.69752" lon="6.73528">
        <ele>1895</ele>
        <time>2022-08-27T00:38:30Z</time>
      </trkpt>
      <trkpt lat="45.69754" lon="6.73531">
        <ele>1895</ele>
        <time>2022-08-27T00:38:32Z</time>
      </trkpt>
      <trkpt lat="45.69757" lon="6.73534">
        <ele>1895</ele>
        <time>2022-08-27T00:38:34Z</time>
      </trkpt>
      <trkpt lat="45.69758" lon="6.73537">
        <ele>1895</ele>
        <time>2022-08-27T00:38:36Z</time>
      </trkpt>
      <trkpt lat="45.6976" lon="6.7354">
        <ele>1895</ele>
        <time>2022-08-27T00:38:38Z</time>
      </trkpt>
      <trkpt lat="45.69762" lon="6.73544">
        <ele>1895</ele>
        <time>2022-08-27T00:38:40Z</time>
      </trkpt>
      <trkpt lat="45.69764" lon="6.73547">
        <ele>1892</ele>
        <time>2022-08-27T00:38:42Z</time>
      </trkpt>
      <trkpt lat="45.69766" lon="6.73551">
        <ele>1892</ele>
        <time>2022-08-27T00:38:44Z</time>
      </trkpt>
      <trkpt lat="45.69767" lon="6.73554">
        <ele>1892</ele>
        <time>2022-08-27T00:38:46Z</time>
      </trkpt>
      <trkpt lat="45.69769" lon="6.73558">
        <ele>1892</ele>
        <time>2022-08-27T00:38:48Z</time>
      </trkpt>
      <trkpt lat="45.69771" lon="6.73561">
        <ele>1893</ele>
        <time>2022-08-27T00:38:50Z</time>
      </trkpt>
      <trkpt lat="45.69773" lon="6.73564">
        <ele>1893</ele>
        <time>2022-08-27T00:38:52Z</time>
      </trkpt>
      <trkpt lat="45.69775" lon="6.73568">
        <ele>1893</ele>
        <time>2022-08-27T00:38:54Z</time>
      </trkpt>
      <trkpt lat="45.69776" lon="6.73571">
        <ele>1893</ele>
        <time>2022-08-27T00:38:56Z</time>
      </trkpt>
      <trkpt lat="45.69778" lon="6.73575">
        <ele>1893</ele>
        <time>2022-08-27T00:38:58Z</time>
      </trkpt>
      <trkpt lat="45.6978" lon="6.73578">
        <ele>1893</ele>
        <time>2022-08-27T00:39:00Z</time>
      </trkpt>
      <trkpt lat="45.69782" lon="6.73582">
        <ele>1893</ele>
        <time>2022-08-27T00:39:02Z</time>
      </trkpt>
      <trkpt lat="45.69783" lon="6.73585">
        <ele>1893</ele>
        <time>2022-08-27T00:39:04Z</time>
      </trkpt>
      <trkpt lat="45.69785" lon="6.73588">
        <ele>1893</ele>
        <time>2022-08-27T00:39:06Z</time>
      </trkpt>
      <trkpt lat="45.69787" lon="6.73591">
        <ele>1893</ele>
        <time>2022-08-27T00:39:08Z</time>
      </trkpt>
      <trkpt lat="45.69789" lon="6.73595">
        <ele>1893</ele>
        <time>2022-08-27T00:39:10Z</time>
      </trkpt>
      <trkpt lat="45.6979" lon="6.73598">
        <ele>1893</ele>
        <time>2022-08-27T00:39:12Z</time>
      </trkpt>
      <trkpt lat="45.69792" lon="6.73601">
        <ele>1893</ele>
        <time>2022-08-27T00:39:14Z</time>
      </trkpt>
      <trkpt lat="45.69794" lon="6.73604">
        <ele>1893</ele>
        <time>2022-08-27T00:39:16Z</time>
      </trkpt>
      <trkpt lat="45.69795" lon="6.73608">
        <ele>1893</ele>
        <time>2022-08-27T00:39:18Z</time>
      </trkpt>
      <trkpt lat="45.69797" lon="6.73611">
        <ele>1893</ele>
        <time>2022-08-27T00:39:20Z</time>
      </trkpt>
      <trkpt lat="45.69799" lon="6.73614">
        <ele>1893</ele>
        <time>2022-08-27T00:39:22Z</time>
      </trkpt>
      <trkpt lat="45.69801" lon="6.73617">
        <ele>1893</ele>
        <time>2022-08-27T00:39:24Z</time>
      </trkpt>
      <trkpt lat="45.69803" lon="6.7362">
        <ele>1893</ele>
        <time>2022-08-27T00:39:26Z</time>
      </trkpt>
      <trkpt lat="45.69805" lon="6.73623">
        <ele>1893</ele>
        <time>2022-08-27T00:39:28Z</time>
      </trkpt>
      <trkpt lat="45.69807" lon="6.73626">
        <ele>1893</ele>
        <time>2022-08-27T00:39:30Z</time>
      </trkpt>
      <trkpt lat="45.69809" lon="6.73629">
        <ele>1894</ele>
        <time>2022-08-27T00:39:32Z</time>
      </trkpt>
      <trkpt lat="45.69811" lon="6.73632">
        <ele>1894</ele>
        <time>2022-08-27T00:39:34Z</time>
      </trkpt>
      <trkpt lat="45.69813" lon="6.73634">
        <ele>1894</ele>
        <time>2022-08-27T00:39:36Z</time>
      </trkpt>
      <trkpt lat="45.69816" lon="6.73637">
        <ele>1894</ele>
        <time>2022-08-27T00:39:38Z</time>
      </trkpt>
      <trkpt lat="45.69818" lon="6.7364">
        <ele>1893</ele>
        <time>2022-08-27T00:39:40Z</time>
      </trkpt>
      <trkpt lat="45.6982" lon="6.73643">
        <ele>1894</ele>
        <time>2022-08-27T00:39:42Z</time>
      </trkpt>
      <trkpt lat="45.69823" lon="6.73645">
        <ele>1894</ele>
        <time>2022-08-27T00:39:44Z</time>
      </trkpt>
      <trkpt lat="45.69825" lon="6.73648">
        <ele>1894</ele>
        <time>2022-08-27T00:39:46Z</time>
      </trkpt>
      <trkpt lat="45.69827" lon="6.73651">
        <ele>1894</ele>
        <time>2022-08-27T00:39:48Z</time>
      </trkpt>
      <trkpt lat="45.69829" lon="6.73654">
        <ele>1894</ele>
        <time>2022-08-27T00:39:50Z</time>
      </trkpt>
      <trkpt lat="45.69831" lon="6.73657">
        <ele>1894</ele>
        <time>2022-08-27T00:39:52Z</time>
      </trkpt>
      <trkpt lat="45.69833" lon="6.7366">
        <ele>1894</ele>
        <time>2022-08-27T00:39:54Z</time>
      </trkpt>
      <trkpt lat="45.69834" lon="6.73663">
        <ele>1895</ele>
        <time>2022-08-27T00:39:56Z</time>
      </trkpt>
      <trkpt lat="45.69836" lon="6.73666">
        <ele>1895</ele>
        <time>2022-08-27T00:39:58Z</time>
      </trkpt>
      <trkpt lat="45.69838" lon="6.73669">
        <ele>1895</ele>
        <time>2022-08-27T00:40:00Z</time>
      </trkpt>
      <trkpt lat="45.6984" lon="6.73672">
        <ele>1895</ele>
        <time>2022-08-27T00:40:02Z</time>
      </trkpt>
      <trkpt lat="45.69842" lon="6.73675">
        <ele>1895</ele>
        <time>2022-08-27T00:40:04Z</time>
      </trkpt>
      <trkpt lat="45.69844" lon="6.73678">
        <ele>1895</ele>
        <time>2022-08-27T00:40:06Z</time>
      </trkpt>
      <trkpt lat="45.69846" lon="6.7368">
        <ele>1895</ele>
        <time>2022-08-27T00:40:08Z</time>
      </trkpt>
      <trkpt lat="45.69849" lon="6.73683">
        <ele>1895</ele>
        <time>2022-08-27T00:40:10Z</time>
      </trkpt>
      <trkpt lat="45.69851" lon="6.73685">
        <ele>1895</ele>
        <time>2022-08-27T00:40:12Z</time>
      </trkpt>
      <trkpt lat="45.69854" lon="6.73687">
        <ele>1896</ele>
        <time>2022-08-27T00:40:14Z</time>
      </trkpt>
      <trkpt lat="45.69856" lon="6.7369">
        <ele>1896</ele>
        <time>2022-08-27T00:40:16Z</time>
      </trkpt>
      <trkpt lat="45.69859" lon="6.73692">
        <ele>1896</ele>
        <time>2022-08-27T00:40:18Z</time>
      </trkpt>
      <trkpt lat="45.69861" lon="6.73694">
        <ele>1896</ele>
        <time>2022-08-27T00:40:20Z</time>
      </trkpt>
      <trkpt lat="45.69863" lon="6.73697">
        <ele>1896</ele>
        <time>2022-08-27T00:40:22Z</time>
      </trkpt>
      <trkpt lat="45.69865" lon="6.73701">
        <ele>1896</ele>
        <time>2022-08-27T00:40:24Z</time>
      </trkpt>
      <trkpt lat="45.69867" lon="6.73704">
        <ele>1896</ele>
        <time>2022-08-27T00:40:26Z</time>
      </trkpt>
      <trkpt lat="45.69869" lon="6.73708">
        <ele>1896</ele>
        <time>2022-08-27T00:40:28Z</time>
      </trkpt>
      <trkpt lat="45.6987" lon="6.73712">
        <ele>1896</ele>
        <time>2022-08-27T00:40:30Z</time>
      </trkpt>
      <trkpt lat="45.69872" lon="6.73715">
        <ele>1897</ele>
        <time>2022-08-27T00:40:32Z</time>
      </trkpt>
      <trkpt lat="45.69874" lon="6.73718">
        <ele>1897</ele>
        <time>2022-08-27T00:40:34Z</time>
      </trkpt>
      <trkpt lat="45.69876" lon="6.7372">
        <ele>1897</ele>
        <time>2022-08-27T00:40:36Z</time>
      </trkpt>
      <trkpt lat="45.69878" lon="6.73723">
        <ele>1897</ele>
        <time>2022-08-27T00:40:38Z</time>
      </trkpt>
      <trkpt lat="45.6988" lon="6.73724">
        <ele>1897</ele>
        <time>2022-08-27T00:40:40Z</time>
      </trkpt>
      <trkpt lat="45.69882" lon="6.73726">
        <ele>1897</ele>
        <time>2022-08-27T00:40:42Z</time>
      </trkpt>
      <trkpt lat="45.69884" lon="6.73727">
        <ele>1897</ele>
        <time>2022-08-27T00:40:44Z</time>
      </trkpt>
      <trkpt lat="45.69886" lon="6.73729">
        <ele>1896</ele>
        <time>2022-08-27T00:40:46Z</time>
      </trkpt>
      <trkpt lat="45.69889" lon="6.73731">
        <ele>1896</ele>
        <time>2022-08-27T00:40:48Z</time>
      </trkpt>
      <trkpt lat="45.69891" lon="6.73732">
        <ele>1897</ele>
        <time>2022-08-27T00:40:50Z</time>
      </trkpt>
      <trkpt lat="45.69894" lon="6.73734">
        <ele>1898</ele>
        <time>2022-08-27T00:40:52Z</time>
      </trkpt>
      <trkpt lat="45.69897" lon="6.73736">
        <ele>1898</ele>
        <time>2022-08-27T00:40:54Z</time>
      </trkpt>
      <trkpt lat="45.699" lon="6.73738">
        <ele>1898</ele>
        <time>2022-08-27T00:40:56Z</time>
      </trkpt>
      <trkpt lat="45.69902" lon="6.73739">
        <ele>1897</ele>
        <time>2022-08-27T00:40:58Z</time>
      </trkpt>
      <trkpt lat="45.69905" lon="6.73741">
        <ele>1898</ele>
        <time>2022-08-27T00:41:00Z</time>
      </trkpt>
      <trkpt lat="45.69908" lon="6.73743">
        <ele>1898</ele>
        <time>2022-08-27T00:41:02Z</time>
      </trkpt>
      <trkpt lat="45.6991" lon="6.73744">
        <ele>1898</ele>
        <time>2022-08-27T00:41:04Z</time>
      </trkpt>
      <trkpt lat="45.69913" lon="6.73746">
        <ele>1898</ele>
        <time>2022-08-27T00:41:06Z</time>
      </trkpt>
      <trkpt lat="45.69916" lon="6.73748">
        <ele>1898</ele>
        <time>2022-08-27T00:41:08Z</time>
      </trkpt>
      <trkpt lat="45.69918" lon="6.7375">
        <ele>1898</ele>
        <time>2022-08-27T00:41:10Z</time>
      </trkpt>
      <trkpt lat="45.69921" lon="6.73752">
        <ele>1899</ele>
        <time>2022-08-27T00:41:12Z</time>
      </trkpt>
      <trkpt lat="45.69925" lon="6.73754">
        <ele>1899</ele>
        <time>2022-08-27T00:41:14Z</time>
      </trkpt>
      <trkpt lat="45.69927" lon="6.73756">
        <ele>1899</ele>
        <time>2022-08-27T00:41:16Z</time>
      </trkpt>
      <trkpt lat="45.6993" lon="6.73759">
        <ele>1899</ele>
        <time>2022-08-27T00:41:18Z</time>
      </trkpt>
      <trkpt lat="45.69933" lon="6.73761">
        <ele>1899</ele>
        <time>2022-08-27T00:41:20Z</time>
      </trkpt>
      <trkpt lat="45.69935" lon="6.73764">
        <ele>1899</ele>
        <time>2022-08-27T00:41:22Z</time>
      </trkpt>
      <trkpt lat="45.69937" lon="6.73766">
        <ele>1899</ele>
        <time>2022-08-27T00:41:24Z</time>
      </trkpt>
      <trkpt lat="45.6994" lon="6.73769">
        <ele>1899</ele>
        <time>2022-08-27T00:41:26Z</time>
      </trkpt>
      <trkpt lat="45.69942" lon="6.73772">
        <ele>1900</ele>
        <time>2022-08-27T00:41:28Z</time>
      </trkpt>
      <trkpt lat="45.69944" lon="6.73774">
        <ele>1900</ele>
        <time>2022-08-27T00:41:30Z</time>
      </trkpt>
      <trkpt lat="45.69946" lon="6.73778">
        <ele>1900</ele>
        <time>2022-08-27T00:41:32Z</time>
      </trkpt>
      <trkpt lat="45.69948" lon="6.73781">
        <ele>1899</ele>
        <time>2022-08-27T00:41:34Z</time>
      </trkpt>
      <trkpt lat="45.6995" lon="6.73785">
        <ele>1899</ele>
        <time>2022-08-27T00:41:36Z</time>
      </trkpt>
      <trkpt lat="45.69952" lon="6.73788">
        <ele>1899</ele>
        <time>2022-08-27T00:41:38Z</time>
      </trkpt>
      <trkpt lat="45.69954" lon="6.73792">
        <ele>1899</ele>
        <time>2022-08-27T00:41:40Z</time>
      </trkpt>
      <trkpt lat="45.69956" lon="6.73795">
        <ele>1899</ele>
        <time>2022-08-27T00:41:42Z</time>
      </trkpt>
      <trkpt lat="45.69958" lon="6.73799">
        <ele>1899</ele>
        <time>2022-08-27T00:41:44Z</time>
      </trkpt>
      <trkpt lat="45.6996" lon="6.73802">
        <ele>1899</ele>
        <time>2022-08-27T00:41:46Z</time>
      </trkpt>
      <trkpt lat="45.69962" lon="6.73806">
        <ele>1900</ele>
        <time>2022-08-27T00:41:48Z</time>
      </trkpt>
      <trkpt lat="45.69964" lon="6.73809">
        <ele>1900</ele>
        <time>2022-08-27T00:41:50Z</time>
      </trkpt>
      <trkpt lat="45.69966" lon="6.73813">
        <ele>1900</ele>
        <time>2022-08-27T00:41:52Z</time>
      </trkpt>
      <trkpt lat="45.69968" lon="6.73816">
        <ele>1900</ele>
        <time>2022-08-27T00:41:54Z</time>
      </trkpt>
      <trkpt lat="45.6997" lon="6.7382">
        <ele>1900</ele>
        <time>2022-08-27T00:41:56Z</time>
      </trkpt>
      <trkpt lat="45.69972" lon="6.73823">
        <ele>1900</ele>
        <time>2022-08-27T00:41:58Z</time>
      </trkpt>
      <trkpt lat="45.69974" lon="6.73827">
        <ele>1901</ele>
        <time>2022-08-27T00:42:00Z</time>
      </trkpt>
      <trkpt lat="45.69977" lon="6.7383">
        <ele>1901</ele>
        <time>2022-08-27T00:42:02Z</time>
      </trkpt>
      <trkpt lat="45.69978" lon="6.73834">
        <ele>1901</ele>
        <time>2022-08-27T00:42:04Z</time>
      </trkpt>
      <trkpt lat="45.6998" lon="6.73838">
        <ele>1902</ele>
        <time>2022-08-27T00:42:06Z</time>
      </trkpt>
      <trkpt lat="45.69981" lon="6.73842">
        <ele>1902</ele>
        <time>2022-08-27T00:42:08Z</time>
      </trkpt>
      <trkpt lat="45.69983" lon="6.73847">
        <ele>1902</ele>
        <time>2022-08-27T00:42:10Z</time>
      </trkpt>
      <trkpt lat="45.69984" lon="6.73851">
        <ele>1901</ele>
        <time>2022-08-27T00:42:12Z</time>
      </trkpt>
      <trkpt lat="45.69984" lon="6.73856">
        <ele>1901</ele>
        <time>2022-08-27T00:42:14Z</time>
      </trkpt>
      <trkpt lat="45.69985" lon="6.73861">
        <ele>1901</ele>
        <time>2022-08-27T00:42:16Z</time>
      </trkpt>
      <trkpt lat="45.69985" lon="6.73865">
        <ele>1901</ele>
        <time>2022-08-27T00:42:18Z</time>
      </trkpt>
      <trkpt lat="45.69985" lon="6.7387">
        <ele>1901</ele>
        <time>2022-08-27T00:42:20Z</time>
      </trkpt>
      <trkpt lat="45.69985" lon="6.73875">
        <ele>1901</ele>
        <time>2022-08-27T00:42:22Z</time>
      </trkpt>
      <trkpt lat="45.69985" lon="6.73879">
        <ele>1902</ele>
        <time>2022-08-27T00:42:24Z</time>
      </trkpt>
      <trkpt lat="45.69986" lon="6.73884">
        <ele>1902</ele>
        <time>2022-08-27T00:42:26Z</time>
      </trkpt>
      <trkpt lat="45.69987" lon="6.73888">
        <ele>1902</ele>
        <time>2022-08-27T00:42:28Z</time>
      </trkpt>
      <trkpt lat="45.69988" lon="6.73891">
        <ele>1902</ele>
        <time>2022-08-27T00:42:30Z</time>
      </trkpt>
      <trkpt lat="45.6999" lon="6.73894">
        <ele>1903</ele>
        <time>2022-08-27T00:42:32Z</time>
      </trkpt>
      <trkpt lat="45.69992" lon="6.73897">
        <ele>1903</ele>
        <time>2022-08-27T00:42:34Z</time>
      </trkpt>
      <trkpt lat="45.69994" lon="6.739">
        <ele>1903</ele>
        <time>2022-08-27T00:42:36Z</time>
      </trkpt>
      <trkpt lat="45.69996" lon="6.73903">
        <ele>1903</ele>
        <time>2022-08-27T00:42:38Z</time>
      </trkpt>
      <trkpt lat="45.69998" lon="6.73905">
        <ele>1903</ele>
        <time>2022-08-27T00:42:40Z</time>
      </trkpt>
      <trkpt lat="45.70001" lon="6.73908">
        <ele>1904</ele>
        <time>2022-08-27T00:42:42Z</time>
      </trkpt>
      <trkpt lat="45.70003" lon="6.73911">
        <ele>1904</ele>
        <time>2022-08-27T00:42:44Z</time>
      </trkpt>
      <trkpt lat="45.70005" lon="6.73913">
        <ele>1905</ele>
        <time>2022-08-27T00:42:46Z</time>
      </trkpt>
      <trkpt lat="45.70007" lon="6.73916">
        <ele>1905</ele>
        <time>2022-08-27T00:42:48Z</time>
      </trkpt>
      <trkpt lat="45.70009" lon="6.73919">
        <ele>1905</ele>
        <time>2022-08-27T00:42:50Z</time>
      </trkpt>
      <trkpt lat="45.70011" lon="6.73923">
        <ele>1905</ele>
        <time>2022-08-27T00:42:52Z</time>
      </trkpt>
      <trkpt lat="45.70014" lon="6.73926">
        <ele>1906</ele>
        <time>2022-08-27T00:42:54Z</time>
      </trkpt>
      <trkpt lat="45.70015" lon="6.73929">
        <ele>1906</ele>
        <time>2022-08-27T00:42:56Z</time>
      </trkpt>
      <trkpt lat="45.70017" lon="6.73933">
        <ele>1906</ele>
        <time>2022-08-27T00:42:58Z</time>
      </trkpt>
      <trkpt lat="45.70019" lon="6.73936">
        <ele>1906</ele>
        <time>2022-08-27T00:43:00Z</time>
      </trkpt>
      <trkpt lat="45.70022" lon="6.73938">
        <ele>1906</ele>
        <time>2022-08-27T00:43:02Z</time>
      </trkpt>
      <trkpt lat="45.70024" lon="6.73941">
        <ele>1906</ele>
        <time>2022-08-27T00:43:04Z</time>
      </trkpt>
      <trkpt lat="45.70027" lon="6.73942">
        <ele>1906</ele>
        <time>2022-08-27T00:43:06Z</time>
      </trkpt>
      <trkpt lat="45.7003" lon="6.73944">
        <ele>1906</ele>
        <time>2022-08-27T00:43:08Z</time>
      </trkpt>
      <trkpt lat="45.70032" lon="6.73946">
        <ele>1907</ele>
        <time>2022-08-27T00:43:10Z</time>
      </trkpt>
      <trkpt lat="45.70035" lon="6.73949">
        <ele>1907</ele>
        <time>2022-08-27T00:43:12Z</time>
      </trkpt>
      <trkpt lat="45.70037" lon="6.73951">
        <ele>1907</ele>
        <time>2022-08-27T00:43:14Z</time>
      </trkpt>
      <trkpt lat="45.7004" lon="6.73952">
        <ele>1907</ele>
        <time>2022-08-27T00:43:16Z</time>
      </trkpt>
      <trkpt lat="45.70042" lon="6.73954">
        <ele>1909</ele>
        <time>2022-08-27T00:43:18Z</time>
      </trkpt>
      <trkpt lat="45.70045" lon="6.73956">
        <ele>1909</ele>
        <time>2022-08-27T00:43:20Z</time>
      </trkpt>
      <trkpt lat="45.70048" lon="6.73958">
        <ele>1909</ele>
        <time>2022-08-27T00:43:22Z</time>
      </trkpt>
      <trkpt lat="45.7005" lon="6.73961">
        <ele>1909</ele>
        <time>2022-08-27T00:43:24Z</time>
      </trkpt>
      <trkpt lat="45.70053" lon="6.73963">
        <ele>1909</ele>
        <time>2022-08-27T00:43:26Z</time>
      </trkpt>
      <trkpt lat="45.70055" lon="6.73967">
        <ele>1910</ele>
        <time>2022-08-27T00:43:28Z</time>
      </trkpt>
      <trkpt lat="45.70058" lon="6.73969">
        <ele>1910</ele>
        <time>2022-08-27T00:43:30Z</time>
      </trkpt>
      <trkpt lat="45.70061" lon="6.73972">
        <ele>1910</ele>
        <time>2022-08-27T00:43:32Z</time>
      </trkpt>
      <trkpt lat="45.70064" lon="6.73974">
        <ele>1910</ele>
        <time>2022-08-27T00:43:34Z</time>
      </trkpt>
      <trkpt lat="45.70067" lon="6.73977">
        <ele>1910</ele>
        <time>2022-08-27T00:43:36Z</time>
      </trkpt>
      <trkpt lat="45.70068" lon="6.73978">
        <ele>1910</ele>
        <time>2022-08-27T00:43:37Z</time>
      </trkpt>
      <trkpt lat="45.70071" lon="6.7398">
        <ele>1910</ele>
        <time>2022-08-27T00:43:39Z</time>
      </trkpt>
      <trkpt lat="45.70074" lon="6.73982">
        <ele>1910</ele>
        <time>2022-08-27T00:43:41Z</time>
      </trkpt>
      <trkpt lat="45.70077" lon="6.73983">
        <ele>1910</ele>
        <time>2022-08-27T00:43:42Z</time>
      </trkpt>
      <trkpt lat="45.70078" lon="6.73983">
        <ele>1910</ele>
        <time>2022-08-27T00:43:43Z</time>
      </trkpt>
      <trkpt lat="45.70081" lon="6.73985">
        <ele>1910</ele>
        <time>2022-08-27T00:43:45Z</time>
      </trkpt>
      <trkpt lat="45.70084" lon="6.73987">
        <ele>1910</ele>
        <time>2022-08-27T00:43:47Z</time>
      </trkpt>
      <trkpt lat="45.70087" lon="6.73988">
        <ele>1910</ele>
        <time>2022-08-27T00:43:49Z</time>
      </trkpt>
      <trkpt lat="45.7009" lon="6.7399">
        <ele>1910</ele>
        <time>2022-08-27T00:43:51Z</time>
      </trkpt>
      <trkpt lat="45.70093" lon="6.73992">
        <ele>1910</ele>
        <time>2022-08-27T00:43:53Z</time>
      </trkpt>
      <trkpt lat="45.70096" lon="6.73995">
        <ele>1910</ele>
        <time>2022-08-27T00:43:55Z</time>
      </trkpt>
      <trkpt lat="45.70099" lon="6.73998">
        <ele>1911</ele>
        <time>2022-08-27T00:43:57Z</time>
      </trkpt>
      <trkpt lat="45.70101" lon="6.74">
        <ele>1911</ele>
        <time>2022-08-27T00:43:59Z</time>
      </trkpt>
      <trkpt lat="45.70103" lon="6.74004">
        <ele>1911</ele>
        <time>2022-08-27T00:44:01Z</time>
      </trkpt>
      <trkpt lat="45.70105" lon="6.74007">
        <ele>1911</ele>
        <time>2022-08-27T00:44:03Z</time>
      </trkpt>
      <trkpt lat="45.70107" lon="6.74011">
        <ele>1911</ele>
        <time>2022-08-27T00:44:05Z</time>
      </trkpt>
      <trkpt lat="45.70109" lon="6.74015">
        <ele>1911</ele>
        <time>2022-08-27T00:44:07Z</time>
      </trkpt>
      <trkpt lat="45.7011" lon="6.74019">
        <ele>1911</ele>
        <time>2022-08-27T00:44:09Z</time>
      </trkpt>
      <trkpt lat="45.70112" lon="6.74023">
        <ele>1911</ele>
        <time>2022-08-27T00:44:11Z</time>
      </trkpt>
      <trkpt lat="45.70114" lon="6.74027">
        <ele>1911</ele>
        <time>2022-08-27T00:44:13Z</time>
      </trkpt>
      <trkpt lat="45.70115" lon="6.74031">
        <ele>1912</ele>
        <time>2022-08-27T00:44:15Z</time>
      </trkpt>
      <trkpt lat="45.70117" lon="6.74034">
        <ele>1913</ele>
        <time>2022-08-27T00:44:17Z</time>
      </trkpt>
      <trkpt lat="45.70119" lon="6.74038">
        <ele>1913</ele>
        <time>2022-08-27T00:44:19Z</time>
      </trkpt>
      <trkpt lat="45.7012" lon="6.74042">
        <ele>1913</ele>
        <time>2022-08-27T00:44:21Z</time>
      </trkpt>
      <trkpt lat="45.70121" lon="6.74046">
        <ele>1913</ele>
        <time>2022-08-27T00:44:23Z</time>
      </trkpt>
      <trkpt lat="45.70122" lon="6.7405">
        <ele>1913</ele>
        <time>2022-08-27T00:44:25Z</time>
      </trkpt>
      <trkpt lat="45.70123" lon="6.74054">
        <ele>1913</ele>
        <time>2022-08-27T00:44:27Z</time>
      </trkpt>
      <trkpt lat="45.70124" lon="6.74058">
        <ele>1914</ele>
        <time>2022-08-27T00:44:29Z</time>
      </trkpt>
      <trkpt lat="45.70125" lon="6.74062">
        <ele>1914</ele>
        <time>2022-08-27T00:44:31Z</time>
      </trkpt>
      <trkpt lat="45.70125" lon="6.74066">
        <ele>1914</ele>
        <time>2022-08-27T00:44:33Z</time>
      </trkpt>
      <trkpt lat="45.70126" lon="6.7407">
        <ele>1915</ele>
        <time>2022-08-27T00:44:35Z</time>
      </trkpt>
      <trkpt lat="45.70127" lon="6.74073">
        <ele>1916</ele>
        <time>2022-08-27T00:44:37Z</time>
      </trkpt>
      <trkpt lat="45.70128" lon="6.74077">
        <ele>1916</ele>
        <time>2022-08-27T00:44:39Z</time>
      </trkpt>
      <trkpt lat="45.70129" lon="6.74081">
        <ele>1916</ele>
        <time>2022-08-27T00:44:41Z</time>
      </trkpt>
      <trkpt lat="45.70129" lon="6.74085">
        <ele>1916</ele>
        <time>2022-08-27T00:44:43Z</time>
      </trkpt>
      <trkpt lat="45.7013" lon="6.74089">
        <ele>1916</ele>
        <time>2022-08-27T00:44:45Z</time>
      </trkpt>
      <trkpt lat="45.70131" lon="6.74093">
        <ele>1916</ele>
        <time>2022-08-27T00:44:47Z</time>
      </trkpt>
      <trkpt lat="45.70132" lon="6.74097">
        <ele>1917</ele>
        <time>2022-08-27T00:44:49Z</time>
      </trkpt>
      <trkpt lat="45.70132" lon="6.74101">
        <ele>1917</ele>
        <time>2022-08-27T00:44:51Z</time>
      </trkpt>
      <trkpt lat="45.70132" lon="6.74105">
        <ele>1918</ele>
        <time>2022-08-27T00:44:53Z</time>
      </trkpt>
      <trkpt lat="45.70132" lon="6.74109">
        <ele>1918</ele>
        <time>2022-08-27T00:44:55Z</time>
      </trkpt>
      <trkpt lat="45.70132" lon="6.74113">
        <ele>1919</ele>
        <time>2022-08-27T00:44:57Z</time>
      </trkpt>
      <trkpt lat="45.70133" lon="6.74117">
        <ele>1919</ele>
        <time>2022-08-27T00:44:59Z</time>
      </trkpt>
      <trkpt lat="45.70133" lon="6.74121">
        <ele>1919</ele>
        <time>2022-08-27T00:45:01Z</time>
      </trkpt>
      <trkpt lat="45.70134" lon="6.74125">
        <ele>1920</ele>
        <time>2022-08-27T00:45:03Z</time>
      </trkpt>
      <trkpt lat="45.70135" lon="6.74129">
        <ele>1920</ele>
        <time>2022-08-27T00:45:05Z</time>
      </trkpt>
      <trkpt lat="45.70135" lon="6.74133">
        <ele>1920</ele>
        <time>2022-08-27T00:45:07Z</time>
      </trkpt>
      <trkpt lat="45.70136" lon="6.74136">
        <ele>1920</ele>
        <time>2022-08-27T00:45:09Z</time>
      </trkpt>
      <trkpt lat="45.70137" lon="6.7414">
        <ele>1920</ele>
        <time>2022-08-27T00:45:11Z</time>
      </trkpt>
      <trkpt lat="45.70137" lon="6.74144">
        <ele>1921</ele>
        <time>2022-08-27T00:45:13Z</time>
      </trkpt>
      <trkpt lat="45.70137" lon="6.74148">
        <ele>1921</ele>
        <time>2022-08-27T00:45:15Z</time>
      </trkpt>
      <trkpt lat="45.70138" lon="6.74152">
        <ele>1921</ele>
        <time>2022-08-27T00:45:17Z</time>
      </trkpt>
      <trkpt lat="45.70139" lon="6.74156">
        <ele>1922</ele>
        <time>2022-08-27T00:45:19Z</time>
      </trkpt>
      <trkpt lat="45.70139" lon="6.74159">
        <ele>1923</ele>
        <time>2022-08-27T00:45:21Z</time>
      </trkpt>
      <trkpt lat="45.7014" lon="6.74163">
        <ele>1924</ele>
        <time>2022-08-27T00:45:23Z</time>
      </trkpt>
      <trkpt lat="45.70141" lon="6.74166">
        <ele>1924</ele>
        <time>2022-08-27T00:45:25Z</time>
      </trkpt>
      <trkpt lat="45.70141" lon="6.7417">
        <ele>1924</ele>
        <time>2022-08-27T00:45:27Z</time>
      </trkpt>
      <trkpt lat="45.70143" lon="6.74174">
        <ele>1924</ele>
        <time>2022-08-27T00:45:29Z</time>
      </trkpt>
      <trkpt lat="45.70144" lon="6.74177">
        <ele>1924</ele>
        <time>2022-08-27T00:45:31Z</time>
      </trkpt>
      <trkpt lat="45.70145" lon="6.74181">
        <ele>1924</ele>
        <time>2022-08-27T00:45:33Z</time>
      </trkpt>
      <trkpt lat="45.70146" lon="6.74184">
        <ele>1925</ele>
        <time>2022-08-27T00:45:35Z</time>
      </trkpt>
      <trkpt lat="45.70147" lon="6.74188">
        <ele>1925</ele>
        <time>2022-08-27T00:45:37Z</time>
      </trkpt>
      <trkpt lat="45.70148" lon="6.74191">
        <ele>1925</ele>
        <time>2022-08-27T00:45:39Z</time>
      </trkpt>
      <trkpt lat="45.70149" lon="6.74195">
        <ele>1926</ele>
        <time>2022-08-27T00:45:41Z</time>
      </trkpt>
      <trkpt lat="45.7015" lon="6.74199">
        <ele>1926</ele>
        <time>2022-08-27T00:45:43Z</time>
      </trkpt>
      <trkpt lat="45.70151" lon="6.74202">
        <ele>1926</ele>
        <time>2022-08-27T00:45:45Z</time>
      </trkpt>
      <trkpt lat="45.70152" lon="6.74205">
        <ele>1927</ele>
        <time>2022-08-27T00:45:47Z</time>
      </trkpt>
      <trkpt lat="45.70153" lon="6.74209">
        <ele>1927</ele>
        <time>2022-08-27T00:45:49Z</time>
      </trkpt>
      <trkpt lat="45.70155" lon="6.74212">
        <ele>1927</ele>
        <time>2022-08-27T00:45:51Z</time>
      </trkpt>
      <trkpt lat="45.70156" lon="6.74214">
        <ele>1928</ele>
        <time>2022-08-27T00:45:53Z</time>
      </trkpt>
      <trkpt lat="45.70158" lon="6.74217">
        <ele>1929</ele>
        <time>2022-08-27T00:45:55Z</time>
      </trkpt>
      <trkpt lat="45.7016" lon="6.7422">
        <ele>1929</ele>
        <time>2022-08-27T00:45:57Z</time>
      </trkpt>
      <trkpt lat="45.70161" lon="6.74223">
        <ele>1929</ele>
        <time>2022-08-27T00:45:59Z</time>
      </trkpt>
      <trkpt lat="45.70163" lon="6.74226">
        <ele>1930</ele>
        <time>2022-08-27T00:46:01Z</time>
      </trkpt>
      <trkpt lat="45.70165" lon="6.74229">
        <ele>1930</ele>
        <time>2022-08-27T00:46:03Z</time>
      </trkpt>
      <trkpt lat="45.70166" lon="6.74232">
        <ele>1930</ele>
        <time>2022-08-27T00:46:05Z</time>
      </trkpt>
      <trkpt lat="45.70167" lon="6.74236">
        <ele>1930</ele>
        <time>2022-08-27T00:46:07Z</time>
      </trkpt>
      <trkpt lat="45.70168" lon="6.74239">
        <ele>1931</ele>
        <time>2022-08-27T00:46:09Z</time>
      </trkpt>
      <trkpt lat="45.7017" lon="6.74243">
        <ele>1931</ele>
        <time>2022-08-27T00:46:11Z</time>
      </trkpt>
      <trkpt lat="45.70171" lon="6.74246">
        <ele>1932</ele>
        <time>2022-08-27T00:46:13Z</time>
      </trkpt>
      <trkpt lat="45.70172" lon="6.7425">
        <ele>1932</ele>
        <time>2022-08-27T00:46:15Z</time>
      </trkpt>
      <trkpt lat="45.70174" lon="6.74253">
        <ele>1932</ele>
        <time>2022-08-27T00:46:17Z</time>
      </trkpt>
      <trkpt lat="45.70175" lon="6.74256">
        <ele>1933</ele>
        <time>2022-08-27T00:46:19Z</time>
      </trkpt>
      <trkpt lat="45.70176" lon="6.74259">
        <ele>1933</ele>
        <time>2022-08-27T00:46:21Z</time>
      </trkpt>
      <trkpt lat="45.70177" lon="6.74263">
        <ele>1933</ele>
        <time>2022-08-27T00:46:23Z</time>
      </trkpt>
      <trkpt lat="45.70179" lon="6.74266">
        <ele>1933</ele>
        <time>2022-08-27T00:46:25Z</time>
      </trkpt>
      <trkpt lat="45.7018" lon="6.7427">
        <ele>1935</ele>
        <time>2022-08-27T00:46:27Z</time>
      </trkpt>
      <trkpt lat="45.70181" lon="6.74273">
        <ele>1935</ele>
        <time>2022-08-27T00:46:29Z</time>
      </trkpt>
      <trkpt lat="45.70182" lon="6.74276">
        <ele>1935</ele>
        <time>2022-08-27T00:46:31Z</time>
      </trkpt>
      <trkpt lat="45.70183" lon="6.74279">
        <ele>1935</ele>
        <time>2022-08-27T00:46:33Z</time>
      </trkpt>
      <trkpt lat="45.70183" lon="6.74283">
        <ele>1936</ele>
        <time>2022-08-27T00:46:35Z</time>
      </trkpt>
      <trkpt lat="45.70184" lon="6.74286">
        <ele>1936</ele>
        <time>2022-08-27T00:46:37Z</time>
      </trkpt>
      <trkpt lat="45.70185" lon="6.74289">
        <ele>1936</ele>
        <time>2022-08-27T00:46:39Z</time>
      </trkpt>
      <trkpt lat="45.70186" lon="6.74293">
        <ele>1936</ele>
        <time>2022-08-27T00:46:41Z</time>
      </trkpt>
      <trkpt lat="45.70186" lon="6.74296">
        <ele>1937</ele>
        <time>2022-08-27T00:46:43Z</time>
      </trkpt>
      <trkpt lat="45.70187" lon="6.743">
        <ele>1937</ele>
        <time>2022-08-27T00:46:45Z</time>
      </trkpt>
      <trkpt lat="45.70188" lon="6.74304">
        <ele>1937</ele>
        <time>2022-08-27T00:46:47Z</time>
      </trkpt>
      <trkpt lat="45.70188" lon="6.74307">
        <ele>1938</ele>
        <time>2022-08-27T00:46:49Z</time>
      </trkpt>
      <trkpt lat="45.70188" lon="6.7431">
        <ele>1939</ele>
        <time>2022-08-27T00:46:51Z</time>
      </trkpt>
      <trkpt lat="45.70189" lon="6.74314">
        <ele>1939</ele>
        <time>2022-08-27T00:46:53Z</time>
      </trkpt>
      <trkpt lat="45.70189" lon="6.74317">
        <ele>1939</ele>
        <time>2022-08-27T00:46:55Z</time>
      </trkpt>
      <trkpt lat="45.70189" lon="6.74321">
        <ele>1939</ele>
        <time>2022-08-27T00:46:57Z</time>
      </trkpt>
      <trkpt lat="45.7019" lon="6.74324">
        <ele>1940</ele>
        <time>2022-08-27T00:46:59Z</time>
      </trkpt>
      <trkpt lat="45.7019" lon="6.74327">
        <ele>1940</ele>
        <time>2022-08-27T00:47:01Z</time>
      </trkpt>
      <trkpt lat="45.70191" lon="6.74331">
        <ele>1940</ele>
        <time>2022-08-27T00:47:03Z</time>
      </trkpt>
      <trkpt lat="45.70191" lon="6.74334">
        <ele>1941</ele>
        <time>2022-08-27T00:47:05Z</time>
      </trkpt>
      <trkpt lat="45.70192" lon="6.74337">
        <ele>1941</ele>
        <time>2022-08-27T00:47:07Z</time>
      </trkpt>
      <trkpt lat="45.70193" lon="6.7434">
        <ele>1942</ele>
        <time>2022-08-27T00:47:09Z</time>
      </trkpt>
      <trkpt lat="45.70193" lon="6.74343">
        <ele>1942</ele>
        <time>2022-08-27T00:47:11Z</time>
      </trkpt>
      <trkpt lat="45.70194" lon="6.74346">
        <ele>1943</ele>
        <time>2022-08-27T00:47:13Z</time>
      </trkpt>
      <trkpt lat="45.70195" lon="6.74349">
        <ele>1943</ele>
        <time>2022-08-27T00:47:15Z</time>
      </trkpt>
      <trkpt lat="45.70196" lon="6.74352">
        <ele>1943</ele>
        <time>2022-08-27T00:47:17Z</time>
      </trkpt>
      <trkpt lat="45.70197" lon="6.74355">
        <ele>1944</ele>
        <time>2022-08-27T00:47:19Z</time>
      </trkpt>
      <trkpt lat="45.70198" lon="6.74358">
        <ele>1944</ele>
        <time>2022-08-27T00:47:21Z</time>
      </trkpt>
      <trkpt lat="45.702" lon="6.74361">
        <ele>1944</ele>
        <time>2022-08-27T00:47:23Z</time>
      </trkpt>
      <trkpt lat="45.70201" lon="6.74363">
        <ele>1945</ele>
        <time>2022-08-27T00:47:25Z</time>
      </trkpt>
      <trkpt lat="45.70203" lon="6.74366">
        <ele>1945</ele>
        <time>2022-08-27T00:47:27Z</time>
      </trkpt>
      <trkpt lat="45.70204" lon="6.74369">
        <ele>1946</ele>
        <time>2022-08-27T00:47:29Z</time>
      </trkpt>
      <trkpt lat="45.70206" lon="6.74371">
        <ele>1946</ele>
        <time>2022-08-27T00:47:31Z</time>
      </trkpt>
      <trkpt lat="45.70208" lon="6.74373">
        <ele>1946</ele>
        <time>2022-08-27T00:47:33Z</time>
      </trkpt>
      <trkpt lat="45.7021" lon="6.74375">
        <ele>1947</ele>
        <time>2022-08-27T00:47:35Z</time>
      </trkpt>
      <trkpt lat="45.70212" lon="6.74377">
        <ele>1947</ele>
        <time>2022-08-27T00:47:37Z</time>
      </trkpt>
      <trkpt lat="45.70214" lon="6.74379">
        <ele>1947</ele>
        <time>2022-08-27T00:47:39Z</time>
      </trkpt>
      <trkpt lat="45.70216" lon="6.74382">
        <ele>1947</ele>
        <time>2022-08-27T00:47:41Z</time>
      </trkpt>
      <trkpt lat="45.70218" lon="6.74384">
        <ele>1948</ele>
        <time>2022-08-27T00:47:43Z</time>
      </trkpt>
      <trkpt lat="45.70219" lon="6.74387">
        <ele>1948</ele>
        <time>2022-08-27T00:47:45Z</time>
      </trkpt>
      <trkpt lat="45.70221" lon="6.74389">
        <ele>1948</ele>
        <time>2022-08-27T00:47:47Z</time>
      </trkpt>
      <trkpt lat="45.70223" lon="6.74392">
        <ele>1949</ele>
        <time>2022-08-27T00:47:49Z</time>
      </trkpt>
      <trkpt lat="45.70225" lon="6.74395">
        <ele>1950</ele>
        <time>2022-08-27T00:47:51Z</time>
      </trkpt>
      <trkpt lat="45.70227" lon="6.74398">
        <ele>1950</ele>
        <time>2022-08-27T00:47:53Z</time>
      </trkpt>
      <trkpt lat="45.70228" lon="6.74401">
        <ele>1950</ele>
        <time>2022-08-27T00:47:55Z</time>
      </trkpt>
      <trkpt lat="45.70231" lon="6.74404">
        <ele>1951</ele>
        <time>2022-08-27T00:47:57Z</time>
      </trkpt>
      <trkpt lat="45.70233" lon="6.74407">
        <ele>1951</ele>
        <time>2022-08-27T00:47:59Z</time>
      </trkpt>
      <trkpt lat="45.70235" lon="6.7441">
        <ele>1951</ele>
        <time>2022-08-27T00:48:01Z</time>
      </trkpt>
      <trkpt lat="45.70237" lon="6.74412">
        <ele>1951</ele>
        <time>2022-08-27T00:48:03Z</time>
      </trkpt>
      <trkpt lat="45.7024" lon="6.74415">
        <ele>1951</ele>
        <time>2022-08-27T00:48:05Z</time>
      </trkpt>
      <trkpt lat="45.70242" lon="6.74417">
        <ele>1951</ele>
        <time>2022-08-27T00:48:07Z</time>
      </trkpt>
      <trkpt lat="45.70244" lon="6.74419">
        <ele>1951</ele>
        <time>2022-08-27T00:48:09Z</time>
      </trkpt>
      <trkpt lat="45.70247" lon="6.74421">
        <ele>1951</ele>
        <time>2022-08-27T00:48:11Z</time>
      </trkpt>
      <trkpt lat="45.7025" lon="6.74423">
        <ele>1951</ele>
        <time>2022-08-27T00:48:13Z</time>
      </trkpt>
      <trkpt lat="45.70253" lon="6.74424">
        <ele>1951</ele>
        <time>2022-08-27T00:48:15Z</time>
      </trkpt>
      <trkpt lat="45.70256" lon="6.74426">
        <ele>1952</ele>
        <time>2022-08-27T00:48:17Z</time>
      </trkpt>
      <trkpt lat="45.70259" lon="6.74427">
        <ele>1952</ele>
        <time>2022-08-27T00:48:19Z</time>
      </trkpt>
      <trkpt lat="45.70262" lon="6.74428">
        <ele>1953</ele>
        <time>2022-08-27T00:48:21Z</time>
      </trkpt>
      <trkpt lat="45.70265" lon="6.7443">
        <ele>1953</ele>
        <time>2022-08-27T00:48:23Z</time>
      </trkpt>
      <trkpt lat="45.70268" lon="6.74431">
        <ele>1953</ele>
        <time>2022-08-27T00:48:25Z</time>
      </trkpt>
      <trkpt lat="45.7027" lon="6.74433">
        <ele>1953</ele>
        <time>2022-08-27T00:48:27Z</time>
      </trkpt>
      <trkpt lat="45.70273" lon="6.74436">
        <ele>1953</ele>
        <time>2022-08-27T00:48:29Z</time>
      </trkpt>
      <trkpt lat="45.70275" lon="6.74439">
        <ele>1953</ele>
        <time>2022-08-27T00:48:31Z</time>
      </trkpt>
      <trkpt lat="45.70278" lon="6.74441">
        <ele>1953</ele>
        <time>2022-08-27T00:48:33Z</time>
      </trkpt>
      <trkpt lat="45.7028" lon="6.74443">
        <ele>1953</ele>
        <time>2022-08-27T00:48:35Z</time>
      </trkpt>
      <trkpt lat="45.70283" lon="6.74446">
        <ele>1954</ele>
        <time>2022-08-27T00:48:37Z</time>
      </trkpt>
      <trkpt lat="45.70285" lon="6.74449">
        <ele>1954</ele>
        <time>2022-08-27T00:48:39Z</time>
      </trkpt>
      <trkpt lat="45.70287" lon="6.74451">
        <ele>1954</ele>
        <time>2022-08-27T00:48:41Z</time>
      </trkpt>
      <trkpt lat="45.7029" lon="6.74453">
        <ele>1954</ele>
        <time>2022-08-27T00:48:43Z</time>
      </trkpt>
      <trkpt lat="45.70293" lon="6.74455">
        <ele>1954</ele>
        <time>2022-08-27T00:48:45Z</time>
      </trkpt>
      <trkpt lat="45.70295" lon="6.74457">
        <ele>1954</ele>
        <time>2022-08-27T00:48:47Z</time>
      </trkpt>
      <trkpt lat="45.70297" lon="6.74459">
        <ele>1954</ele>
        <time>2022-08-27T00:48:49Z</time>
      </trkpt>
      <trkpt lat="45.703" lon="6.74461">
        <ele>1955</ele>
        <time>2022-08-27T00:48:51Z</time>
      </trkpt>
      <trkpt lat="45.70302" lon="6.74463">
        <ele>1955</ele>
        <time>2022-08-27T00:48:53Z</time>
      </trkpt>
      <trkpt lat="45.70305" lon="6.74465">
        <ele>1955</ele>
        <time>2022-08-27T00:48:55Z</time>
      </trkpt>
      <trkpt lat="45.70307" lon="6.74467">
        <ele>1956</ele>
        <time>2022-08-27T00:48:57Z</time>
      </trkpt>
      <trkpt lat="45.7031" lon="6.7447">
        <ele>1955</ele>
        <time>2022-08-27T00:48:58Z</time>
      </trkpt>
      <trkpt lat="45.70312" lon="6.74472">
        <ele>1956</ele>
        <time>2022-08-27T00:49:01Z</time>
      </trkpt>
      <trkpt lat="45.70315" lon="6.74475">
        <ele>1956</ele>
        <time>2022-08-27T00:49:03Z</time>
      </trkpt>
      <trkpt lat="45.70317" lon="6.74478">
        <ele>1956</ele>
        <time>2022-08-27T00:49:05Z</time>
      </trkpt>
      <trkpt lat="45.7032" lon="6.74481">
        <ele>1956</ele>
        <time>2022-08-27T00:49:07Z</time>
      </trkpt>
      <trkpt lat="45.70322" lon="6.74484">
        <ele>1956</ele>
        <time>2022-08-27T00:49:09Z</time>
      </trkpt>
      <trkpt lat="45.70325" lon="6.74486">
        <ele>1956</ele>
        <time>2022-08-27T00:49:11Z</time>
      </trkpt>
      <trkpt lat="45.70327" lon="6.74489">
        <ele>1957</ele>
        <time>2022-08-27T00:49:13Z</time>
      </trkpt>
      <trkpt lat="45.70329" lon="6.74492">
        <ele>1957</ele>
        <time>2022-08-27T00:49:15Z</time>
      </trkpt>
      <trkpt lat="45.70331" lon="6.74495">
        <ele>1957</ele>
        <time>2022-08-27T00:49:17Z</time>
      </trkpt>
      <trkpt lat="45.70334" lon="6.74498">
        <ele>1957</ele>
        <time>2022-08-27T00:49:19Z</time>
      </trkpt>
      <trkpt lat="45.70336" lon="6.74501">
        <ele>1957</ele>
        <time>2022-08-27T00:49:21Z</time>
      </trkpt>
      <trkpt lat="45.70338" lon="6.74504">
        <ele>1957</ele>
        <time>2022-08-27T00:49:23Z</time>
      </trkpt>
      <trkpt lat="45.7034" lon="6.74507">
        <ele>1957</ele>
        <time>2022-08-27T00:49:25Z</time>
      </trkpt>
      <trkpt lat="45.70342" lon="6.7451">
        <ele>1957</ele>
        <time>2022-08-27T00:49:27Z</time>
      </trkpt>
      <trkpt lat="45.70344" lon="6.74514">
        <ele>1958</ele>
        <time>2022-08-27T00:49:29Z</time>
      </trkpt>
      <trkpt lat="45.70345" lon="6.74517">
        <ele>1958</ele>
        <time>2022-08-27T00:49:31Z</time>
      </trkpt>
      <trkpt lat="45.70347" lon="6.7452">
        <ele>1958</ele>
        <time>2022-08-27T00:49:33Z</time>
      </trkpt>
      <trkpt lat="45.7035" lon="6.74523">
        <ele>1958</ele>
        <time>2022-08-27T00:49:35Z</time>
      </trkpt>
      <trkpt lat="45.70352" lon="6.74526">
        <ele>1958</ele>
        <time>2022-08-27T00:49:37Z</time>
      </trkpt>
      <trkpt lat="45.70354" lon="6.74529">
        <ele>1959</ele>
        <time>2022-08-27T00:49:39Z</time>
      </trkpt>
      <trkpt lat="45.70356" lon="6.74531">
        <ele>1960</ele>
        <time>2022-08-27T00:49:41Z</time>
      </trkpt>
      <trkpt lat="45.70359" lon="6.74533">
        <ele>1960</ele>
        <time>2022-08-27T00:49:43Z</time>
      </trkpt>
      <trkpt lat="45.70361" lon="6.74536">
        <ele>1960</ele>
        <time>2022-08-27T00:49:45Z</time>
      </trkpt>
      <trkpt lat="45.70363" lon="6.74539">
        <ele>1960</ele>
        <time>2022-08-27T00:49:47Z</time>
      </trkpt>
      <trkpt lat="45.70366" lon="6.74542">
        <ele>1960</ele>
        <time>2022-08-27T00:49:49Z</time>
      </trkpt>
      <trkpt lat="45.70367" lon="6.74545">
        <ele>1962</ele>
        <time>2022-08-27T00:49:51Z</time>
      </trkpt>
      <trkpt lat="45.70369" lon="6.74549">
        <ele>1962</ele>
        <time>2022-08-27T00:49:53Z</time>
      </trkpt>
      <trkpt lat="45.7037" lon="6.74552">
        <ele>1962</ele>
        <time>2022-08-27T00:49:55Z</time>
      </trkpt>
      <trkpt lat="45.70372" lon="6.74556">
        <ele>1962</ele>
        <time>2022-08-27T00:49:57Z</time>
      </trkpt>
      <trkpt lat="45.70373" lon="6.74559">
        <ele>1963</ele>
        <time>2022-08-27T00:49:59Z</time>
      </trkpt>
      <trkpt lat="45.70374" lon="6.74562">
        <ele>1963</ele>
        <time>2022-08-27T00:50:01Z</time>
      </trkpt>
      <trkpt lat="45.70375" lon="6.74566">
        <ele>1963</ele>
        <time>2022-08-27T00:50:03Z</time>
      </trkpt>
      <trkpt lat="45.70377" lon="6.74569">
        <ele>1963</ele>
        <time>2022-08-27T00:50:05Z</time>
      </trkpt>
      <trkpt lat="45.70378" lon="6.74573">
        <ele>1964</ele>
        <time>2022-08-27T00:50:07Z</time>
      </trkpt>
      <trkpt lat="45.70379" lon="6.74577">
        <ele>1965</ele>
        <time>2022-08-27T00:50:09Z</time>
      </trkpt>
      <trkpt lat="45.70381" lon="6.7458">
        <ele>1965</ele>
        <time>2022-08-27T00:50:11Z</time>
      </trkpt>
      <trkpt lat="45.70382" lon="6.74583">
        <ele>1966</ele>
        <time>2022-08-27T00:50:13Z</time>
      </trkpt>
      <trkpt lat="45.70383" lon="6.74587">
        <ele>1966</ele>
        <time>2022-08-27T00:50:15Z</time>
      </trkpt>
      <trkpt lat="45.70385" lon="6.7459">
        <ele>1966</ele>
        <time>2022-08-27T00:50:17Z</time>
      </trkpt>
      <trkpt lat="45.70386" lon="6.74594">
        <ele>1967</ele>
        <time>2022-08-27T00:50:19Z</time>
      </trkpt>
      <trkpt lat="45.70387" lon="6.74597">
        <ele>1967</ele>
        <time>2022-08-27T00:50:21Z</time>
      </trkpt>
      <trkpt lat="45.70389" lon="6.746">
        <ele>1967</ele>
        <time>2022-08-27T00:50:23Z</time>
      </trkpt>
      <trkpt lat="45.70391" lon="6.74603">
        <ele>1968</ele>
        <time>2022-08-27T00:50:25Z</time>
      </trkpt>
      <trkpt lat="45.70393" lon="6.74606">
        <ele>1968</ele>
        <time>2022-08-27T00:50:27Z</time>
      </trkpt>
      <trkpt lat="45.70395" lon="6.74609">
        <ele>1968</ele>
        <time>2022-08-27T00:50:29Z</time>
      </trkpt>
      <trkpt lat="45.70397" lon="6.74612">
        <ele>1968</ele>
        <time>2022-08-27T00:50:31Z</time>
      </trkpt>
      <trkpt lat="45.70399" lon="6.74614">
        <ele>1968</ele>
        <time>2022-08-27T00:50:33Z</time>
      </trkpt>
      <trkpt lat="45.70401" lon="6.74617">
        <ele>1969</ele>
        <time>2022-08-27T00:50:35Z</time>
      </trkpt>
      <trkpt lat="45.70404" lon="6.74619">
        <ele>1970</ele>
        <time>2022-08-27T00:50:37Z</time>
      </trkpt>
      <trkpt lat="45.70405" lon="6.74622">
        <ele>1970</ele>
        <time>2022-08-27T00:50:39Z</time>
      </trkpt>
      <trkpt lat="45.70407" lon="6.74625">
        <ele>1970</ele>
        <time>2022-08-27T00:50:41Z</time>
      </trkpt>
      <trkpt lat="45.70409" lon="6.74628">
        <ele>1970</ele>
        <time>2022-08-27T00:50:43Z</time>
      </trkpt>
      <trkpt lat="45.70411" lon="6.74631">
        <ele>1971</ele>
        <time>2022-08-27T00:50:45Z</time>
      </trkpt>
      <trkpt lat="45.70413" lon="6.74634">
        <ele>1971</ele>
        <time>2022-08-27T00:50:47Z</time>
      </trkpt>
      <trkpt lat="45.70415" lon="6.74637">
        <ele>1971</ele>
        <time>2022-08-27T00:50:49Z</time>
      </trkpt>
      <trkpt lat="45.70416" lon="6.74641">
        <ele>1971</ele>
        <time>2022-08-27T00:50:51Z</time>
      </trkpt>
      <trkpt lat="45.70418" lon="6.74644">
        <ele>1971</ele>
        <time>2022-08-27T00:50:53Z</time>
      </trkpt>
      <trkpt lat="45.7042" lon="6.74648">
        <ele>1971</ele>
        <time>2022-08-27T00:50:55Z</time>
      </trkpt>
      <trkpt lat="45.70422" lon="6.74651">
        <ele>1972</ele>
        <time>2022-08-27T00:50:57Z</time>
      </trkpt>
      <trkpt lat="45.70424" lon="6.74654">
        <ele>1973</ele>
        <time>2022-08-27T00:50:59Z</time>
      </trkpt>
      <trkpt lat="45.70426" lon="6.74657">
        <ele>1973</ele>
        <time>2022-08-27T00:51:01Z</time>
      </trkpt>
      <trkpt lat="45.70428" lon="6.74661">
        <ele>1973</ele>
        <time>2022-08-27T00:51:03Z</time>
      </trkpt>
      <trkpt lat="45.7043" lon="6.74664">
        <ele>1973</ele>
        <time>2022-08-27T00:51:05Z</time>
      </trkpt>
      <trkpt lat="45.70432" lon="6.74668">
        <ele>1973</ele>
        <time>2022-08-27T00:51:07Z</time>
      </trkpt>
      <trkpt lat="45.70434" lon="6.74672">
        <ele>1973</ele>
        <time>2022-08-27T00:51:09Z</time>
      </trkpt>
      <trkpt lat="45.70435" lon="6.74675">
        <ele>1973</ele>
        <time>2022-08-27T00:51:11Z</time>
      </trkpt>
      <trkpt lat="45.70437" lon="6.74679">
        <ele>1973</ele>
        <time>2022-08-27T00:51:13Z</time>
      </trkpt>
      <trkpt lat="45.70439" lon="6.74683">
        <ele>1973</ele>
        <time>2022-08-27T00:51:15Z</time>
      </trkpt>
      <trkpt lat="45.70441" lon="6.74687">
        <ele>1974</ele>
        <time>2022-08-27T00:51:17Z</time>
      </trkpt>
      <trkpt lat="45.70443" lon="6.74691">
        <ele>1974</ele>
        <time>2022-08-27T00:51:19Z</time>
      </trkpt>
      <trkpt lat="45.70445" lon="6.74694">
        <ele>1974</ele>
        <time>2022-08-27T00:51:21Z</time>
      </trkpt>
      <trkpt lat="45.70446" lon="6.74698">
        <ele>1974</ele>
        <time>2022-08-27T00:51:23Z</time>
      </trkpt>
      <trkpt lat="45.70448" lon="6.74701">
        <ele>1974</ele>
        <time>2022-08-27T00:51:25Z</time>
      </trkpt>
      <trkpt lat="45.7045" lon="6.74705">
        <ele>1974</ele>
        <time>2022-08-27T00:51:27Z</time>
      </trkpt>
      <trkpt lat="45.70452" lon="6.74708">
        <ele>1974</ele>
        <time>2022-08-27T00:51:29Z</time>
      </trkpt>
      <trkpt lat="45.70454" lon="6.74712">
        <ele>1973</ele>
        <time>2022-08-27T00:51:31Z</time>
      </trkpt>
      <trkpt lat="45.70456" lon="6.74715">
        <ele>1974</ele>
        <time>2022-08-27T00:51:33Z</time>
      </trkpt>
      <trkpt lat="45.70458" lon="6.74719">
        <ele>1974</ele>
        <time>2022-08-27T00:51:35Z</time>
      </trkpt>
      <trkpt lat="45.7046" lon="6.74722">
        <ele>1974</ele>
        <time>2022-08-27T00:51:37Z</time>
      </trkpt>
      <trkpt lat="45.70463" lon="6.74725">
        <ele>1975</ele>
        <time>2022-08-27T00:51:39Z</time>
      </trkpt>
      <trkpt lat="45.70464" lon="6.74728">
        <ele>1975</ele>
        <time>2022-08-27T00:51:41Z</time>
      </trkpt>
      <trkpt lat="45.70467" lon="6.74731">
        <ele>1975</ele>
        <time>2022-08-27T00:51:43Z</time>
      </trkpt>
      <trkpt lat="45.70469" lon="6.74734">
        <ele>1976</ele>
        <time>2022-08-27T00:51:45Z</time>
      </trkpt>
      <trkpt lat="45.70471" lon="6.74737">
        <ele>1976</ele>
        <time>2022-08-27T00:51:47Z</time>
      </trkpt>
      <trkpt lat="45.70473" lon="6.7474">
        <ele>1976</ele>
        <time>2022-08-27T00:51:49Z</time>
      </trkpt>
      <trkpt lat="45.70476" lon="6.74742">
        <ele>1976</ele>
        <time>2022-08-27T00:51:51Z</time>
      </trkpt>
      <trkpt lat="45.70478" lon="6.74745">
        <ele>1976</ele>
        <time>2022-08-27T00:51:53Z</time>
      </trkpt>
      <trkpt lat="45.7048" lon="6.74748">
        <ele>1976</ele>
        <time>2022-08-27T00:51:55Z</time>
      </trkpt>
      <trkpt lat="45.70482" lon="6.74751">
        <ele>1977</ele>
        <time>2022-08-27T00:51:57Z</time>
      </trkpt>
      <trkpt lat="45.70485" lon="6.74754">
        <ele>1978</ele>
        <time>2022-08-27T00:51:59Z</time>
      </trkpt>
      <trkpt lat="45.70487" lon="6.74757">
        <ele>1978</ele>
        <time>2022-08-27T00:52:01Z</time>
      </trkpt>
      <trkpt lat="45.7049" lon="6.74759">
        <ele>1978</ele>
        <time>2022-08-27T00:52:03Z</time>
      </trkpt>
      <trkpt lat="45.70492" lon="6.74762">
        <ele>1978</ele>
        <time>2022-08-27T00:52:05Z</time>
      </trkpt>
      <trkpt lat="45.70495" lon="6.74764">
        <ele>1978</ele>
        <time>2022-08-27T00:52:07Z</time>
      </trkpt>
      <trkpt lat="45.70497" lon="6.74765">
        <ele>1978</ele>
        <time>2022-08-27T00:52:09Z</time>
      </trkpt>
      <trkpt lat="45.705" lon="6.74767">
        <ele>1979</ele>
        <time>2022-08-27T00:52:11Z</time>
      </trkpt>
      <trkpt lat="45.70502" lon="6.74769">
        <ele>1979</ele>
        <time>2022-08-27T00:52:13Z</time>
      </trkpt>
      <trkpt lat="45.70505" lon="6.74771">
        <ele>1979</ele>
        <time>2022-08-27T00:52:15Z</time>
      </trkpt>
      <trkpt lat="45.70508" lon="6.74773">
        <ele>1980</ele>
        <time>2022-08-27T00:52:17Z</time>
      </trkpt>
      <trkpt lat="45.70511" lon="6.74776">
        <ele>1980</ele>
        <time>2022-08-27T00:52:19Z</time>
      </trkpt>
      <trkpt lat="45.70514" lon="6.74779">
        <ele>1981</ele>
        <time>2022-08-27T00:52:21Z</time>
      </trkpt>
      <trkpt lat="45.70516" lon="6.74782">
        <ele>1981</ele>
        <time>2022-08-27T00:52:23Z</time>
      </trkpt>
      <trkpt lat="45.70518" lon="6.74785">
        <ele>1981</ele>
        <time>2022-08-27T00:52:25Z</time>
      </trkpt>
      <trkpt lat="45.7052" lon="6.74789">
        <ele>1980</ele>
        <time>2022-08-27T00:52:27Z</time>
      </trkpt>
      <trkpt lat="45.70523" lon="6.74793">
        <ele>1980</ele>
        <time>2022-08-27T00:52:29Z</time>
      </trkpt>
      <trkpt lat="45.70525" lon="6.74796">
        <ele>1980</ele>
        <time>2022-08-27T00:52:31Z</time>
      </trkpt>
      <trkpt lat="45.70527" lon="6.74799">
        <ele>1980</ele>
        <time>2022-08-27T00:52:33Z</time>
      </trkpt>
      <trkpt lat="45.7053" lon="6.74803">
        <ele>1980</ele>
        <time>2022-08-27T00:52:35Z</time>
      </trkpt>
      <trkpt lat="45.70531" lon="6.74807">
        <ele>1980</ele>
        <time>2022-08-27T00:52:37Z</time>
      </trkpt>
      <trkpt lat="45.70533" lon="6.74809">
        <ele>1980</ele>
        <time>2022-08-27T00:52:38Z</time>
      </trkpt>
      <trkpt lat="45.70534" lon="6.74811">
        <ele>1980</ele>
        <time>2022-08-27T00:52:39Z</time>
      </trkpt>
      <trkpt lat="45.70535" lon="6.74813">
        <ele>1981</ele>
        <time>2022-08-27T00:52:40Z</time>
      </trkpt>
      <trkpt lat="45.70536" lon="6.74815">
        <ele>1981</ele>
        <time>2022-08-27T00:52:41Z</time>
      </trkpt>
      <trkpt lat="45.70539" lon="6.74818">
        <ele>1981</ele>
        <time>2022-08-27T00:52:42Z</time>
      </trkpt>
      <trkpt lat="45.7054" lon="6.74819">
        <ele>1981</ele>
        <time>2022-08-27T00:52:43Z</time>
      </trkpt>
      <trkpt lat="45.70542" lon="6.74822">
        <ele>1981</ele>
        <time>2022-08-27T00:52:44Z</time>
      </trkpt>
      <trkpt lat="45.70543" lon="6.74823">
        <ele>1981</ele>
        <time>2022-08-27T00:52:45Z</time>
      </trkpt>
      <trkpt lat="45.70545" lon="6.74825">
        <ele>1981</ele>
        <time>2022-08-27T00:52:46Z</time>
      </trkpt>
      <trkpt lat="45.70547" lon="6.74826">
        <ele>1980</ele>
        <time>2022-08-27T00:52:47Z</time>
      </trkpt>
      <trkpt lat="45.7055" lon="6.74829">
        <ele>1980</ele>
        <time>2022-08-27T00:52:48Z</time>
      </trkpt>
      <trkpt lat="45.70551" lon="6.7483">
        <ele>1980</ele>
        <time>2022-08-27T00:52:49Z</time>
      </trkpt>
      <trkpt lat="45.70553" lon="6.74831">
        <ele>1980</ele>
        <time>2022-08-27T00:52:50Z</time>
      </trkpt>
      <trkpt lat="45.70556" lon="6.74833">
        <ele>1980</ele>
        <time>2022-08-27T00:52:51Z</time>
      </trkpt>
      <trkpt lat="45.70558" lon="6.74834">
        <ele>1980</ele>
        <time>2022-08-27T00:52:52Z</time>
      </trkpt>
      <trkpt lat="45.70561" lon="6.74836">
        <ele>1980</ele>
        <time>2022-08-27T00:52:53Z</time>
      </trkpt>
      <trkpt lat="45.70562" lon="6.74837">
        <ele>1980</ele>
        <time>2022-08-27T00:52:54Z</time>
      </trkpt>
      <trkpt lat="45.70564" lon="6.74838">
        <ele>1979</ele>
        <time>2022-08-27T00:52:55Z</time>
      </trkpt>
      <trkpt lat="45.70566" lon="6.74839">
        <ele>1979</ele>
        <time>2022-08-27T00:52:56Z</time>
      </trkpt>
      <trkpt lat="45.70569" lon="6.7484">
        <ele>1979</ele>
        <time>2022-08-27T00:52:57Z</time>
      </trkpt>
      <trkpt lat="45.70572" lon="6.74842">
        <ele>1979</ele>
        <time>2022-08-27T00:52:58Z</time>
      </trkpt>
      <trkpt lat="45.70573" lon="6.74843">
        <ele>1980</ele>
        <time>2022-08-27T00:52:59Z</time>
      </trkpt>
      <trkpt lat="45.70575" lon="6.74844">
        <ele>1980</ele>
        <time>2022-08-27T00:53:00Z</time>
      </trkpt>
      <trkpt lat="45.70578" lon="6.74846">
        <ele>1980</ele>
        <time>2022-08-27T00:53:01Z</time>
      </trkpt>
      <trkpt lat="45.70579" lon="6.74847">
        <ele>1980</ele>
        <time>2022-08-27T00:53:02Z</time>
      </trkpt>
      <trkpt lat="45.70581" lon="6.74849">
        <ele>1980</ele>
        <time>2022-08-27T00:53:03Z</time>
      </trkpt>
      <trkpt lat="45.70583" lon="6.7485">
        <ele>1980</ele>
        <time>2022-08-27T00:53:04Z</time>
      </trkpt>
      <trkpt lat="45.70586" lon="6.74852">
        <ele>1980</ele>
        <time>2022-08-27T00:53:05Z</time>
      </trkpt>
      <trkpt lat="45.70587" lon="6.74853">
        <ele>1981</ele>
        <time>2022-08-27T00:53:06Z</time>
      </trkpt>
      <trkpt lat="45.70589" lon="6.74854">
        <ele>1981</ele>
        <time>2022-08-27T00:53:07Z</time>
      </trkpt>
      <trkpt lat="45.70591" lon="6.74855">
        <ele>1981</ele>
        <time>2022-08-27T00:53:08Z</time>
      </trkpt>
      <trkpt lat="45.70592" lon="6.74857">
        <ele>1981</ele>
        <time>2022-08-27T00:53:09Z</time>
      </trkpt>
      <trkpt lat="45.70595" lon="6.74859">
        <ele>1981</ele>
        <time>2022-08-27T00:53:10Z</time>
      </trkpt>
      <trkpt lat="45.70596" lon="6.7486">
        <ele>1981</ele>
        <time>2022-08-27T00:53:11Z</time>
      </trkpt>
      <trkpt lat="45.70598" lon="6.74861">
        <ele>1981</ele>
        <time>2022-08-27T00:53:12Z</time>
      </trkpt>
      <trkpt lat="45.70601" lon="6.74863">
        <ele>1981</ele>
        <time>2022-08-27T00:53:14Z</time>
      </trkpt>
      <trkpt lat="45.70603" lon="6.74864">
        <ele>1982</ele>
        <time>2022-08-27T00:53:16Z</time>
      </trkpt>
      <trkpt lat="45.70606" lon="6.74866">
        <ele>1982</ele>
        <time>2022-08-27T00:53:18Z</time>
      </trkpt>
      <trkpt lat="45.70608" lon="6.74867">
        <ele>1983</ele>
        <time>2022-08-27T00:53:20Z</time>
      </trkpt>
      <trkpt lat="45.7061" lon="6.74869">
        <ele>1983</ele>
        <time>2022-08-27T00:53:22Z</time>
      </trkpt>
      <trkpt lat="45.70612" lon="6.74871">
        <ele>1983</ele>
        <time>2022-08-27T00:53:24Z</time>
      </trkpt>
      <trkpt lat="45.70614" lon="6.74874">
        <ele>1983</ele>
        <time>2022-08-27T00:53:26Z</time>
      </trkpt>
      <trkpt lat="45.70616" lon="6.74877">
        <ele>1983</ele>
        <time>2022-08-27T00:53:28Z</time>
      </trkpt>
      <trkpt lat="45.70617" lon="6.74879">
        <ele>1983</ele>
        <time>2022-08-27T00:53:30Z</time>
      </trkpt>
      <trkpt lat="45.70618" lon="6.7488">
        <ele>1983</ele>
        <time>2022-08-27T00:53:31Z</time>
      </trkpt>
      <trkpt lat="45.70619" lon="6.74882">
        <ele>1983</ele>
        <time>2022-08-27T00:53:32Z</time>
      </trkpt>
      <trkpt lat="45.7062" lon="6.74883">
        <ele>1983</ele>
        <time>2022-08-27T00:53:33Z</time>
      </trkpt>
      <trkpt lat="45.70622" lon="6.74885">
        <ele>1983</ele>
        <time>2022-08-27T00:53:34Z</time>
      </trkpt>
      <trkpt lat="45.70623" lon="6.74888">
        <ele>1983</ele>
        <time>2022-08-27T00:53:35Z</time>
      </trkpt>
      <trkpt lat="45.70625" lon="6.74891">
        <ele>1983</ele>
        <time>2022-08-27T00:53:37Z</time>
      </trkpt>
      <trkpt lat="45.70627" lon="6.74894">
        <ele>1984</ele>
        <time>2022-08-27T00:53:39Z</time>
      </trkpt>
      <trkpt lat="45.70628" lon="6.74898">
        <ele>1984</ele>
        <time>2022-08-27T00:53:41Z</time>
      </trkpt>
      <trkpt lat="45.70629" lon="6.74901">
        <ele>1984</ele>
        <time>2022-08-27T00:53:43Z</time>
      </trkpt>
      <trkpt lat="45.7063" lon="6.74905">
        <ele>1984</ele>
        <time>2022-08-27T00:53:45Z</time>
      </trkpt>
      <trkpt lat="45.70631" lon="6.74909">
        <ele>1984</ele>
        <time>2022-08-27T00:53:47Z</time>
      </trkpt>
      <trkpt lat="45.70633" lon="6.74912">
        <ele>1984</ele>
        <time>2022-08-27T00:53:49Z</time>
      </trkpt>
      <trkpt lat="45.70635" lon="6.74915">
        <ele>1984</ele>
        <time>2022-08-27T00:53:51Z</time>
      </trkpt>
      <trkpt lat="45.70636" lon="6.74919">
        <ele>1985</ele>
        <time>2022-08-27T00:53:53Z</time>
      </trkpt>
      <trkpt lat="45.70638" lon="6.74922">
        <ele>1985</ele>
        <time>2022-08-27T00:53:55Z</time>
      </trkpt>
      <trkpt lat="45.70639" lon="6.74925">
        <ele>1985</ele>
        <time>2022-08-27T00:53:57Z</time>
      </trkpt>
      <trkpt lat="45.70641" lon="6.74928">
        <ele>1986</ele>
        <time>2022-08-27T00:53:59Z</time>
      </trkpt>
      <trkpt lat="45.70642" lon="6.74931">
        <ele>1986</ele>
        <time>2022-08-27T00:54:01Z</time>
      </trkpt>
      <trkpt lat="45.70644" lon="6.74934">
        <ele>1986</ele>
        <time>2022-08-27T00:54:03Z</time>
      </trkpt>
      <trkpt lat="45.70645" lon="6.74937">
        <ele>1986</ele>
        <time>2022-08-27T00:54:05Z</time>
      </trkpt>
      <trkpt lat="45.70647" lon="6.7494">
        <ele>1986</ele>
        <time>2022-08-27T00:54:07Z</time>
      </trkpt>
      <trkpt lat="45.70649" lon="6.74943">
        <ele>1986</ele>
        <time>2022-08-27T00:54:09Z</time>
      </trkpt>
      <trkpt lat="45.70651" lon="6.74946">
        <ele>1988</ele>
        <time>2022-08-27T00:54:11Z</time>
      </trkpt>
      <trkpt lat="45.70652" lon="6.74949">
        <ele>1988</ele>
        <time>2022-08-27T00:54:13Z</time>
      </trkpt>
      <trkpt lat="45.70653" lon="6.74952">
        <ele>1988</ele>
        <time>2022-08-27T00:54:15Z</time>
      </trkpt>
      <trkpt lat="45.70655" lon="6.74955">
        <ele>1988</ele>
        <time>2022-08-27T00:54:17Z</time>
      </trkpt>
      <trkpt lat="45.70656" lon="6.74958">
        <ele>1988</ele>
        <time>2022-08-27T00:54:19Z</time>
      </trkpt>
      <trkpt lat="45.70658" lon="6.74961">
        <ele>1989</ele>
        <time>2022-08-27T00:54:21Z</time>
      </trkpt>
      <trkpt lat="45.70659" lon="6.74965">
        <ele>1989</ele>
        <time>2022-08-27T00:54:23Z</time>
      </trkpt>
      <trkpt lat="45.7066" lon="6.74968">
        <ele>1989</ele>
        <time>2022-08-27T00:54:25Z</time>
      </trkpt>
      <trkpt lat="45.70661" lon="6.74971">
        <ele>1990</ele>
        <time>2022-08-27T00:54:27Z</time>
      </trkpt>
      <trkpt lat="45.70662" lon="6.74974">
        <ele>1990</ele>
        <time>2022-08-27T00:54:29Z</time>
      </trkpt>
      <trkpt lat="45.70663" lon="6.74978">
        <ele>1990</ele>
        <time>2022-08-27T00:54:31Z</time>
      </trkpt>
      <trkpt lat="45.70665" lon="6.74981">
        <ele>1990</ele>
        <time>2022-08-27T00:54:33Z</time>
      </trkpt>
      <trkpt lat="45.70666" lon="6.74984">
        <ele>1990</ele>
        <time>2022-08-27T00:54:35Z</time>
      </trkpt>
      <trkpt lat="45.70668" lon="6.74986">
        <ele>1991</ele>
        <time>2022-08-27T00:54:37Z</time>
      </trkpt>
      <trkpt lat="45.70671" lon="6.74988">
        <ele>1991</ele>
        <time>2022-08-27T00:54:39Z</time>
      </trkpt>
      <trkpt lat="45.70672" lon="6.7499">
        <ele>1991</ele>
        <time>2022-08-27T00:54:41Z</time>
      </trkpt>
      <trkpt lat="45.70674" lon="6.74991">
        <ele>1991</ele>
        <time>2022-08-27T00:54:43Z</time>
      </trkpt>
      <trkpt lat="45.70676" lon="6.74991">
        <ele>1991</ele>
        <time>2022-08-27T00:54:45Z</time>
      </trkpt>
      <trkpt lat="45.70678" lon="6.74993">
        <ele>1992</ele>
        <time>2022-08-27T00:54:47Z</time>
      </trkpt>
      <trkpt lat="45.7068" lon="6.74995">
        <ele>1992</ele>
        <time>2022-08-27T00:54:49Z</time>
      </trkpt>
      <trkpt lat="45.70682" lon="6.74997">
        <ele>1992</ele>
        <time>2022-08-27T00:54:51Z</time>
      </trkpt>
      <trkpt lat="45.70684" lon="6.74999">
        <ele>1993</ele>
        <time>2022-08-27T00:54:53Z</time>
      </trkpt>
      <trkpt lat="45.70686" lon="6.75001">
        <ele>1994</ele>
        <time>2022-08-27T00:54:55Z</time>
      </trkpt>
      <trkpt lat="45.70688" lon="6.75003">
        <ele>1994</ele>
        <time>2022-08-27T00:54:57Z</time>
      </trkpt>
      <trkpt lat="45.70689" lon="6.75006">
        <ele>1994</ele>
        <time>2022-08-27T00:54:59Z</time>
      </trkpt>
      <trkpt lat="45.7069" lon="6.75009">
        <ele>1995</ele>
        <time>2022-08-27T00:55:01Z</time>
      </trkpt>
      <trkpt lat="45.70692" lon="6.75012">
        <ele>1995</ele>
        <time>2022-08-27T00:55:03Z</time>
      </trkpt>
      <trkpt lat="45.70693" lon="6.75016">
        <ele>1995</ele>
        <time>2022-08-27T00:55:05Z</time>
      </trkpt>
      <trkpt lat="45.70695" lon="6.75019">
        <ele>1995</ele>
        <time>2022-08-27T00:55:07Z</time>
      </trkpt>
      <trkpt lat="45.70696" lon="6.75021">
        <ele>1995</ele>
        <time>2022-08-27T00:55:09Z</time>
      </trkpt>
      <trkpt lat="45.70696" lon="6.75025">
        <ele>1995</ele>
        <time>2022-08-27T00:55:11Z</time>
      </trkpt>
      <trkpt lat="45.70696" lon="6.75029">
        <ele>1995</ele>
        <time>2022-08-27T00:55:13Z</time>
      </trkpt>
      <trkpt lat="45.70695" lon="6.75033">
        <ele>1995</ele>
        <time>2022-08-27T00:55:15Z</time>
      </trkpt>
      <trkpt lat="45.70696" lon="6.75037">
        <ele>1996</ele>
        <time>2022-08-27T00:55:17Z</time>
      </trkpt>
      <trkpt lat="45.70696" lon="6.7504">
        <ele>1996</ele>
        <time>2022-08-27T00:55:19Z</time>
      </trkpt>
      <trkpt lat="45.70697" lon="6.75042">
        <ele>1997</ele>
        <time>2022-08-27T00:55:21Z</time>
      </trkpt>
      <trkpt lat="45.70699" lon="6.75045">
        <ele>1997</ele>
        <time>2022-08-27T00:55:23Z</time>
      </trkpt>
      <trkpt lat="45.70701" lon="6.75047">
        <ele>1997</ele>
        <time>2022-08-27T00:55:25Z</time>
      </trkpt>
      <trkpt lat="45.70703" lon="6.75048">
        <ele>1997</ele>
        <time>2022-08-27T00:55:27Z</time>
      </trkpt>
      <trkpt lat="45.70706" lon="6.75049">
        <ele>1997</ele>
        <time>2022-08-27T00:55:29Z</time>
      </trkpt>
      <trkpt lat="45.70709" lon="6.75051">
        <ele>1997</ele>
        <time>2022-08-27T00:55:31Z</time>
      </trkpt>
      <trkpt lat="45.70711" lon="6.75052">
        <ele>1997</ele>
        <time>2022-08-27T00:55:33Z</time>
      </trkpt>
      <trkpt lat="45.70713" lon="6.75054">
        <ele>1997</ele>
        <time>2022-08-27T00:55:35Z</time>
      </trkpt>
      <trkpt lat="45.70715" lon="6.75056">
        <ele>1997</ele>
        <time>2022-08-27T00:55:37Z</time>
      </trkpt>
      <trkpt lat="45.70716" lon="6.75059">
        <ele>1997</ele>
        <time>2022-08-27T00:55:39Z</time>
      </trkpt>
      <trkpt lat="45.70717" lon="6.75062">
        <ele>1997</ele>
        <time>2022-08-27T00:55:41Z</time>
      </trkpt>
      <trkpt lat="45.70719" lon="6.75065">
        <ele>1998</ele>
        <time>2022-08-27T00:55:43Z</time>
      </trkpt>
      <trkpt lat="45.70721" lon="6.75066">
        <ele>1999</ele>
        <time>2022-08-27T00:55:45Z</time>
      </trkpt>
      <trkpt lat="45.70724" lon="6.75066">
        <ele>1999</ele>
        <time>2022-08-27T00:55:47Z</time>
      </trkpt>
      <trkpt lat="45.70726" lon="6.75066">
        <ele>1999</ele>
        <time>2022-08-27T00:55:49Z</time>
      </trkpt>
      <trkpt lat="45.70728" lon="6.75068">
        <ele>1999</ele>
        <time>2022-08-27T00:55:51Z</time>
      </trkpt>
      <trkpt lat="45.7073" lon="6.75069">
        <ele>1999</ele>
        <time>2022-08-27T00:55:53Z</time>
      </trkpt>
      <trkpt lat="45.70732" lon="6.75072">
        <ele>1999</ele>
        <time>2022-08-27T00:55:55Z</time>
      </trkpt>
      <trkpt lat="45.70734" lon="6.75074">
        <ele>1999</ele>
        <time>2022-08-27T00:55:57Z</time>
      </trkpt>
      <trkpt lat="45.70735" lon="6.75077">
        <ele>2000</ele>
        <time>2022-08-27T00:55:59Z</time>
      </trkpt>
      <trkpt lat="45.70737" lon="6.75081">
        <ele>2000</ele>
        <time>2022-08-27T00:56:01Z</time>
      </trkpt>
      <trkpt lat="45.70738" lon="6.75084">
        <ele>2000</ele>
        <time>2022-08-27T00:56:03Z</time>
      </trkpt>
      <trkpt lat="45.70739" lon="6.75087">
        <ele>2001</ele>
        <time>2022-08-27T00:56:05Z</time>
      </trkpt>
      <trkpt lat="45.7074" lon="6.7509">
        <ele>2001</ele>
        <time>2022-08-27T00:56:07Z</time>
      </trkpt>
      <trkpt lat="45.70742" lon="6.75092">
        <ele>2002</ele>
        <time>2022-08-27T00:56:09Z</time>
      </trkpt>
      <trkpt lat="45.70744" lon="6.75094">
        <ele>2002</ele>
        <time>2022-08-27T00:56:11Z</time>
      </trkpt>
      <trkpt lat="45.70747" lon="6.75093">
        <ele>2002</ele>
        <time>2022-08-27T00:56:13Z</time>
      </trkpt>
      <trkpt lat="45.70748" lon="6.75093">
        <ele>2002</ele>
        <time>2022-08-27T00:56:14Z</time>
      </trkpt>
      <trkpt lat="45.70751" lon="6.75093">
        <ele>2002</ele>
        <time>2022-08-27T00:56:15Z</time>
      </trkpt>
      <trkpt lat="45.70752" lon="6.75093">
        <ele>2001</ele>
        <time>2022-08-27T00:56:16Z</time>
      </trkpt>
      <trkpt lat="45.70754" lon="6.75094">
        <ele>2001</ele>
        <time>2022-08-27T00:56:17Z</time>
      </trkpt>
      <trkpt lat="45.70756" lon="6.75096">
        <ele>2000</ele>
        <time>2022-08-27T00:56:18Z</time>
      </trkpt>
      <trkpt lat="45.70757" lon="6.75097">
        <ele>2000</ele>
        <time>2022-08-27T00:56:19Z</time>
      </trkpt>
      <trkpt lat="45.70759" lon="6.751">
        <ele>2001</ele>
        <time>2022-08-27T00:56:21Z</time>
      </trkpt>
      <trkpt lat="45.70761" lon="6.75101">
        <ele>2001</ele>
        <time>2022-08-27T00:56:23Z</time>
      </trkpt>
      <trkpt lat="45.70763" lon="6.75102">
        <ele>2001</ele>
        <time>2022-08-27T00:56:26Z</time>
      </trkpt>
      <trkpt lat="45.70765" lon="6.75104">
        <ele>2002</ele>
        <time>2022-08-27T00:56:29Z</time>
      </trkpt>
      <trkpt lat="45.70766" lon="6.75105">
        <ele>2002</ele>
        <time>2022-08-27T00:56:31Z</time>
      </trkpt>
      <trkpt lat="45.70768" lon="6.75107">
        <ele>2002</ele>
        <time>2022-08-27T00:56:33Z</time>
      </trkpt>
      <trkpt lat="45.7077" lon="6.7511">
        <ele>2002</ele>
        <time>2022-08-27T00:56:35Z</time>
      </trkpt>
      <trkpt lat="45.70771" lon="6.75112">
        <ele>2002</ele>
        <time>2022-08-27T00:56:37Z</time>
      </trkpt>
      <trkpt lat="45.70773" lon="6.75116">
        <ele>2003</ele>
        <time>2022-08-27T00:56:39Z</time>
      </trkpt>
      <trkpt lat="45.70775" lon="6.75119">
        <ele>2003</ele>
        <time>2022-08-27T00:56:41Z</time>
      </trkpt>
      <trkpt lat="45.70777" lon="6.75123">
        <ele>2003</ele>
        <time>2022-08-27T00:56:43Z</time>
      </trkpt>
      <trkpt lat="45.70778" lon="6.75126">
        <ele>2004</ele>
        <time>2022-08-27T00:56:45Z</time>
      </trkpt>
      <trkpt lat="45.7078" lon="6.75128">
        <ele>2004</ele>
        <time>2022-08-27T00:56:47Z</time>
      </trkpt>
      <trkpt lat="45.70783" lon="6.75129">
        <ele>2004</ele>
        <time>2022-08-27T00:56:49Z</time>
      </trkpt>
      <trkpt lat="45.70785" lon="6.7513">
        <ele>2003</ele>
        <time>2022-08-27T00:56:50Z</time>
      </trkpt>
      <trkpt lat="45.70788" lon="6.75131">
        <ele>2003</ele>
        <time>2022-08-27T00:56:51Z</time>
      </trkpt>
      <trkpt lat="45.70789" lon="6.75131">
        <ele>2003</ele>
        <time>2022-08-27T00:56:52Z</time>
      </trkpt>
      <trkpt lat="45.70792" lon="6.75132">
        <ele>2003</ele>
        <time>2022-08-27T00:56:54Z</time>
      </trkpt>
      <trkpt lat="45.70795" lon="6.75133">
        <ele>2003</ele>
        <time>2022-08-27T00:56:56Z</time>
      </trkpt>
      <trkpt lat="45.70796" lon="6.75136">
        <ele>2003</ele>
        <time>2022-08-27T00:56:58Z</time>
      </trkpt>
      <trkpt lat="45.70797" lon="6.75139">
        <ele>2003</ele>
        <time>2022-08-27T00:57:00Z</time>
      </trkpt>
      <trkpt lat="45.70798" lon="6.75142">
        <ele>2004</ele>
        <time>2022-08-27T00:57:02Z</time>
      </trkpt>
      <trkpt lat="45.708" lon="6.75143">
        <ele>2004</ele>
        <time>2022-08-27T00:57:04Z</time>
      </trkpt>
      <trkpt lat="45.70802" lon="6.75143">
        <ele>2005</ele>
        <time>2022-08-27T00:57:06Z</time>
      </trkpt>
      <trkpt lat="45.70805" lon="6.75143">
        <ele>2005</ele>
        <time>2022-08-27T00:57:08Z</time>
      </trkpt>
      <trkpt lat="45.70808" lon="6.75142">
        <ele>2005</ele>
        <time>2022-08-27T00:57:10Z</time>
      </trkpt>
      <trkpt lat="45.70811" lon="6.75143">
        <ele>2005</ele>
        <time>2022-08-27T00:57:12Z</time>
      </trkpt>
      <trkpt lat="45.70812" lon="6.75145">
        <ele>2005</ele>
        <time>2022-08-27T00:57:13Z</time>
      </trkpt>
      <trkpt lat="45.70814" lon="6.75147">
        <ele>2005</ele>
        <time>2022-08-27T00:57:14Z</time>
      </trkpt>
      <trkpt lat="45.70815" lon="6.7515">
        <ele>2005</ele>
        <time>2022-08-27T00:57:15Z</time>
      </trkpt>
      <trkpt lat="45.70817" lon="6.75153">
        <ele>2005</ele>
        <time>2022-08-27T00:57:17Z</time>
      </trkpt>
      <trkpt lat="45.70819" lon="6.75155">
        <ele>2005</ele>
        <time>2022-08-27T00:57:18Z</time>
      </trkpt>
      <trkpt lat="45.70821" lon="6.75157">
        <ele>2005</ele>
        <time>2022-08-27T00:57:19Z</time>
      </trkpt>
      <trkpt lat="45.70823" lon="6.75159">
        <ele>2004</ele>
        <time>2022-08-27T00:57:20Z</time>
      </trkpt>
      <trkpt lat="45.70824" lon="6.75161">
        <ele>2003</ele>
        <time>2022-08-27T00:57:21Z</time>
      </trkpt>
      <trkpt lat="45.70826" lon="6.75163">
        <ele>2004</ele>
        <time>2022-08-27T00:57:22Z</time>
      </trkpt>
      <trkpt lat="45.70827" lon="6.75164">
        <ele>2004</ele>
        <time>2022-08-27T00:57:23Z</time>
      </trkpt>
      <trkpt lat="45.70829" lon="6.75166">
        <ele>2004</ele>
        <time>2022-08-27T00:57:24Z</time>
      </trkpt>
      <trkpt lat="45.7083" lon="6.75169">
        <ele>2004</ele>
        <time>2022-08-27T00:57:26Z</time>
      </trkpt>
      <trkpt lat="45.70831" lon="6.75173">
        <ele>2004</ele>
        <time>2022-08-27T00:57:28Z</time>
      </trkpt>
      <trkpt lat="45.70833" lon="6.75176">
        <ele>2005</ele>
        <time>2022-08-27T00:57:30Z</time>
      </trkpt>
      <trkpt lat="45.70834" lon="6.75178">
        <ele>2005</ele>
        <time>2022-08-27T00:57:32Z</time>
      </trkpt>
      <trkpt lat="45.70837" lon="6.7518">
        <ele>2005</ele>
        <time>2022-08-27T00:57:34Z</time>
      </trkpt>
      <trkpt lat="45.70839" lon="6.75182">
        <ele>2004</ele>
        <time>2022-08-27T00:57:35Z</time>
      </trkpt>
      <trkpt lat="45.70842" lon="6.75185">
        <ele>2004</ele>
        <time>2022-08-27T00:57:36Z</time>
      </trkpt>
      <trkpt lat="45.70843" lon="6.75185">
        <ele>2004</ele>
        <time>2022-08-27T00:57:37Z</time>
      </trkpt>
      <trkpt lat="45.70845" lon="6.75188">
        <ele>2004</ele>
        <time>2022-08-27T00:57:38Z</time>
      </trkpt>
      <trkpt lat="45.70846" lon="6.75189">
        <ele>2004</ele>
        <time>2022-08-27T00:57:39Z</time>
      </trkpt>
      <trkpt lat="45.70849" lon="6.75192">
        <ele>2005</ele>
        <time>2022-08-27T00:57:41Z</time>
      </trkpt>
      <trkpt lat="45.70851" lon="6.75193">
        <ele>2005</ele>
        <time>2022-08-27T00:57:43Z</time>
      </trkpt>
      <trkpt lat="45.70854" lon="6.75195">
        <ele>2005</ele>
        <time>2022-08-27T00:57:45Z</time>
      </trkpt>
      <trkpt lat="45.70857" lon="6.75199">
        <ele>2005</ele>
        <time>2022-08-27T00:57:47Z</time>
      </trkpt>
      <trkpt lat="45.70859" lon="6.75202">
        <ele>2005</ele>
        <time>2022-08-27T00:57:49Z</time>
      </trkpt>
      <trkpt lat="45.70862" lon="6.75205">
        <ele>2003</ele>
        <time>2022-08-27T00:57:51Z</time>
      </trkpt>
      <trkpt lat="45.70864" lon="6.75207">
        <ele>2003</ele>
        <time>2022-08-27T00:57:52Z</time>
      </trkpt>
      <trkpt lat="45.70866" lon="6.75208">
        <ele>2003</ele>
        <time>2022-08-27T00:57:53Z</time>
      </trkpt>
      <trkpt lat="45.70869" lon="6.75211">
        <ele>2003</ele>
        <time>2022-08-27T00:57:54Z</time>
      </trkpt>
      <trkpt lat="45.7087" lon="6.75213">
        <ele>2003</ele>
        <time>2022-08-27T00:57:55Z</time>
      </trkpt>
      <trkpt lat="45.70871" lon="6.75215">
        <ele>2003</ele>
        <time>2022-08-27T00:57:56Z</time>
      </trkpt>
      <trkpt lat="45.70873" lon="6.75216">
        <ele>2003</ele>
        <time>2022-08-27T00:57:57Z</time>
      </trkpt>
      <trkpt lat="45.70875" lon="6.75218">
        <ele>2003</ele>
        <time>2022-08-27T00:57:58Z</time>
      </trkpt>
      <trkpt lat="45.70876" lon="6.75219">
        <ele>2003</ele>
        <time>2022-08-27T00:57:59Z</time>
      </trkpt>
      <trkpt lat="45.70878" lon="6.7522">
        <ele>2003</ele>
        <time>2022-08-27T00:58:00Z</time>
      </trkpt>
      <trkpt lat="45.7088" lon="6.75221">
        <ele>2003</ele>
        <time>2022-08-27T00:58:01Z</time>
      </trkpt>
      <trkpt lat="45.70883" lon="6.75224">
        <ele>2002</ele>
        <time>2022-08-27T00:58:03Z</time>
      </trkpt>
      <trkpt lat="45.70884" lon="6.75227">
        <ele>2001</ele>
        <time>2022-08-27T00:58:05Z</time>
      </trkpt>
      <trkpt lat="45.70884" lon="6.7523">
        <ele>2001</ele>
        <time>2022-08-27T00:58:07Z</time>
      </trkpt>
      <trkpt lat="45.70881" lon="6.75233">
        <ele>2001</ele>
        <time>2022-08-27T00:58:09Z</time>
      </trkpt>
      <trkpt lat="45.7088" lon="6.75236">
        <ele>2000</ele>
        <time>2022-08-27T00:58:11Z</time>
      </trkpt>
      <trkpt lat="45.70879" lon="6.75239">
        <ele>2000</ele>
        <time>2022-08-27T00:58:13Z</time>
      </trkpt>
      <trkpt lat="45.7088" lon="6.75242">
        <ele>2000</ele>
        <time>2022-08-27T00:58:15Z</time>
      </trkpt>
      <trkpt lat="45.70883" lon="6.75243">
        <ele>2000</ele>
        <time>2022-08-27T00:58:17Z</time>
      </trkpt>
      <trkpt lat="45.70885" lon="6.75246">
        <ele>2000</ele>
        <time>2022-08-27T00:58:19Z</time>
      </trkpt>
      <trkpt lat="45.70886" lon="6.75251">
        <ele>2002</ele>
        <time>2022-08-27T00:58:21Z</time>
      </trkpt>
      <trkpt lat="45.70887" lon="6.75253">
        <ele>2002</ele>
        <time>2022-08-27T00:58:22Z</time>
      </trkpt>
      <trkpt lat="45.70887" lon="6.75256">
        <ele>2002</ele>
        <time>2022-08-27T00:58:23Z</time>
      </trkpt>
      <trkpt lat="45.70889" lon="6.7526">
        <ele>2002</ele>
        <time>2022-08-27T00:58:24Z</time>
      </trkpt>
      <trkpt lat="45.7089" lon="6.75261">
        <ele>2001</ele>
        <time>2022-08-27T00:58:25Z</time>
      </trkpt>
      <trkpt lat="45.70893" lon="6.75263">
        <ele>2001</ele>
        <time>2022-08-27T00:58:27Z</time>
      </trkpt>
      <trkpt lat="45.70895" lon="6.75264">
        <ele>2001</ele>
        <time>2022-08-27T00:58:28Z</time>
      </trkpt>
      <trkpt lat="45.70897" lon="6.75264">
        <ele>2001</ele>
        <time>2022-08-27T00:58:29Z</time>
      </trkpt>
      <trkpt lat="45.70899" lon="6.75265">
        <ele>2001</ele>
        <time>2022-08-27T00:58:30Z</time>
      </trkpt>
      <trkpt lat="45.70901" lon="6.75269">
        <ele>2001</ele>
        <time>2022-08-27T00:58:32Z</time>
      </trkpt>
      <trkpt lat="45.70901" lon="6.75273">
        <ele>2001</ele>
        <time>2022-08-27T00:58:34Z</time>
      </trkpt>
      <trkpt lat="45.70901" lon="6.75276">
        <ele>2001</ele>
        <time>2022-08-27T00:58:35Z</time>
      </trkpt>
      <trkpt lat="45.70902" lon="6.75279">
        <ele>2001</ele>
        <time>2022-08-27T00:58:36Z</time>
      </trkpt>
      <trkpt lat="45.70904" lon="6.75282">
        <ele>2000</ele>
        <time>2022-08-27T00:58:38Z</time>
      </trkpt>
      <trkpt lat="45.70906" lon="6.75284">
        <ele>1999</ele>
        <time>2022-08-27T00:58:39Z</time>
      </trkpt>
      <trkpt lat="45.70908" lon="6.75286">
        <ele>1999</ele>
        <time>2022-08-27T00:58:40Z</time>
      </trkpt>
      <trkpt lat="45.70909" lon="6.75287">
        <ele>1999</ele>
        <time>2022-08-27T00:58:41Z</time>
      </trkpt>
      <trkpt lat="45.70913" lon="6.75291">
        <ele>1999</ele>
        <time>2022-08-27T00:58:43Z</time>
      </trkpt>
      <trkpt lat="45.70914" lon="6.75292">
        <ele>1999</ele>
        <time>2022-08-27T00:58:44Z</time>
      </trkpt>
      <trkpt lat="45.70915" lon="6.75293">
        <ele>1999</ele>
        <time>2022-08-27T00:58:45Z</time>
      </trkpt>
      <trkpt lat="45.70916" lon="6.75294">
        <ele>1999</ele>
        <time>2022-08-27T00:58:46Z</time>
      </trkpt>
      <trkpt lat="45.70919" lon="6.75296">
        <ele>1998</ele>
        <time>2022-08-27T00:58:48Z</time>
      </trkpt>
      <trkpt lat="45.70922" lon="6.75298">
        <ele>1998</ele>
        <time>2022-08-27T00:58:50Z</time>
      </trkpt>
      <trkpt lat="45.70925" lon="6.753">
        <ele>1997</ele>
        <time>2022-08-27T00:58:52Z</time>
      </trkpt>
      <trkpt lat="45.70925" lon="6.75305">
        <ele>1996</ele>
        <time>2022-08-27T00:58:54Z</time>
      </trkpt>
      <trkpt lat="45.70925" lon="6.7531">
        <ele>1995</ele>
        <time>2022-08-27T00:58:56Z</time>
      </trkpt>
      <trkpt lat="45.70925" lon="6.75315">
        <ele>1995</ele>
        <time>2022-08-27T00:58:58Z</time>
      </trkpt>
      <trkpt lat="45.70925" lon="6.75318">
        <ele>1995</ele>
        <time>2022-08-27T00:58:59Z</time>
      </trkpt>
      <trkpt lat="45.70925" lon="6.7532">
        <ele>1995</ele>
        <time>2022-08-27T00:59:00Z</time>
      </trkpt>
      <trkpt lat="45.70925" lon="6.75323">
        <ele>1994</ele>
        <time>2022-08-27T00:59:01Z</time>
      </trkpt>
      <trkpt lat="45.70926" lon="6.75327">
        <ele>1993</ele>
        <time>2022-08-27T00:59:03Z</time>
      </trkpt>
      <trkpt lat="45.70928" lon="6.75331">
        <ele>1993</ele>
        <time>2022-08-27T00:59:05Z</time>
      </trkpt>
      <trkpt lat="45.7093" lon="6.75335">
        <ele>1992</ele>
        <time>2022-08-27T00:59:07Z</time>
      </trkpt>
      <trkpt lat="45.70932" lon="6.75337">
        <ele>1991</ele>
        <time>2022-08-27T00:59:09Z</time>
      </trkpt>
      <trkpt lat="45.70932" lon="6.75341">
        <ele>1991</ele>
        <time>2022-08-27T00:59:11Z</time>
      </trkpt>
      <trkpt lat="45.70932" lon="6.75345">
        <ele>1990</ele>
        <time>2022-08-27T00:59:13Z</time>
      </trkpt>
      <trkpt lat="45.70933" lon="6.75349">
        <ele>1988</ele>
        <time>2022-08-27T00:59:15Z</time>
      </trkpt>
      <trkpt lat="45.70932" lon="6.75354">
        <ele>1988</ele>
        <time>2022-08-27T00:59:17Z</time>
      </trkpt>
      <trkpt lat="45.7093" lon="6.75356">
        <ele>1989</ele>
        <time>2022-08-27T00:59:19Z</time>
      </trkpt>
      <trkpt lat="45.70928" lon="6.75359">
        <ele>1989</ele>
        <time>2022-08-27T00:59:21Z</time>
      </trkpt>
      <trkpt lat="45.70926" lon="6.75362">
        <ele>1988</ele>
        <time>2022-08-27T00:59:23Z</time>
      </trkpt>
      <trkpt lat="45.70924" lon="6.75364">
        <ele>1988</ele>
        <time>2022-08-27T00:59:25Z</time>
      </trkpt>
      <trkpt lat="45.70921" lon="6.75367">
        <ele>1988</ele>
        <time>2022-08-27T00:59:27Z</time>
      </trkpt>
      <trkpt lat="45.7092" lon="6.75371">
        <ele>1988</ele>
        <time>2022-08-27T00:59:29Z</time>
      </trkpt>
      <trkpt lat="45.70922" lon="6.75375">
        <ele>1989</ele>
        <time>2022-08-27T00:59:31Z</time>
      </trkpt>
      <trkpt lat="45.70923" lon="6.75378">
        <ele>1989</ele>
        <time>2022-08-27T00:59:33Z</time>
      </trkpt>
      <trkpt lat="45.70924" lon="6.75381">
        <ele>1989</ele>
        <time>2022-08-27T00:59:35Z</time>
      </trkpt>
      <trkpt lat="45.70925" lon="6.75383">
        <ele>1989</ele>
        <time>2022-08-27T00:59:36Z</time>
      </trkpt>
      <trkpt lat="45.70927" lon="6.75385">
        <ele>1989</ele>
        <time>2022-08-27T00:59:37Z</time>
      </trkpt>
      <trkpt lat="45.70928" lon="6.75387">
        <ele>1989</ele>
        <time>2022-08-27T00:59:38Z</time>
      </trkpt>
      <trkpt lat="45.70929" lon="6.7539">
        <ele>1989</ele>
        <time>2022-08-27T00:59:39Z</time>
      </trkpt>
      <trkpt lat="45.70931" lon="6.75392">
        <ele>1989</ele>
        <time>2022-08-27T00:59:40Z</time>
      </trkpt>
      <trkpt lat="45.70933" lon="6.75395">
        <ele>1989</ele>
        <time>2022-08-27T00:59:42Z</time>
      </trkpt>
      <trkpt lat="45.70938" lon="6.75398">
        <ele>1989</ele>
        <time>2022-08-27T00:59:44Z</time>
      </trkpt>
      <trkpt lat="45.70938" lon="6.75398">
        <ele>1988</ele>
        <time>2022-08-27T00:59:45Z</time>
      </trkpt>
      <trkpt lat="45.7094" lon="6.754">
        <ele>1988</ele>
        <time>2022-08-27T00:59:46Z</time>
      </trkpt>
      <trkpt lat="45.70942" lon="6.75405">
        <ele>1989</ele>
        <time>2022-08-27T00:59:48Z</time>
      </trkpt>
      <trkpt lat="45.70943" lon="6.75409">
        <ele>1989</ele>
        <time>2022-08-27T00:59:49Z</time>
      </trkpt>
      <trkpt lat="45.70943" lon="6.7541">
        <ele>1989</ele>
        <time>2022-08-27T00:59:50Z</time>
      </trkpt>
      <trkpt lat="45.70944" lon="6.75413">
        <ele>1989</ele>
        <time>2022-08-27T00:59:51Z</time>
      </trkpt>
      <trkpt lat="45.70945" lon="6.75418">
        <ele>1989</ele>
        <time>2022-08-27T00:59:52Z</time>
      </trkpt>
      <trkpt lat="45.70945" lon="6.75419">
        <ele>1989</ele>
        <time>2022-08-27T00:59:53Z</time>
      </trkpt>
      <trkpt lat="45.70946" lon="6.75422">
        <ele>1989</ele>
        <time>2022-08-27T00:59:54Z</time>
      </trkpt>
      <trkpt lat="45.70947" lon="6.75425">
        <ele>1989</ele>
        <time>2022-08-27T00:59:55Z</time>
      </trkpt>
      <trkpt lat="45.70948" lon="6.75427">
        <ele>1989</ele>
        <time>2022-08-27T00:59:56Z</time>
      </trkpt>
      <trkpt lat="45.70949" lon="6.7543">
        <ele>1989</ele>
        <time>2022-08-27T00:59:57Z</time>
      </trkpt>
      <trkpt lat="45.70949" lon="6.75433">
        <ele>1989</ele>
        <time>2022-08-27T00:59:58Z</time>
      </trkpt>
      <trkpt lat="45.7095" lon="6.75435">
        <ele>1989</ele>
        <time>2022-08-27T00:59:59Z</time>
      </trkpt>
      <trkpt lat="45.70951" lon="6.75438">
        <ele>1989</ele>
        <time>2022-08-27T01:00:00Z</time>
      </trkpt>
      <trkpt lat="45.70952" lon="6.7544">
        <ele>1989</ele>
        <time>2022-08-27T01:00:01Z</time>
      </trkpt>
      <trkpt lat="45.70953" lon="6.75442">
        <ele>1989</ele>
        <time>2022-08-27T01:00:02Z</time>
      </trkpt>
      <trkpt lat="45.70955" lon="6.75444">
        <ele>1989</ele>
        <time>2022-08-27T01:00:03Z</time>
      </trkpt>
      <trkpt lat="45.70956" lon="6.75447">
        <ele>1989</ele>
        <time>2022-08-27T01:00:04Z</time>
      </trkpt>
      <trkpt lat="45.70957" lon="6.75449">
        <ele>1989</ele>
        <time>2022-08-27T01:00:05Z</time>
      </trkpt>
      <trkpt lat="45.70958" lon="6.75454">
        <ele>1989</ele>
        <time>2022-08-27T01:00:07Z</time>
      </trkpt>
      <trkpt lat="45.70959" lon="6.75456">
        <ele>1989</ele>
        <time>2022-08-27T01:00:08Z</time>
      </trkpt>
      <trkpt lat="45.7096" lon="6.75458">
        <ele>1989</ele>
        <time>2022-08-27T01:00:09Z</time>
      </trkpt>
      <trkpt lat="45.70962" lon="6.7546">
        <ele>1989</ele>
        <time>2022-08-27T01:00:10Z</time>
      </trkpt>
      <trkpt lat="45.70963" lon="6.75462">
        <ele>1989</ele>
        <time>2022-08-27T01:00:11Z</time>
      </trkpt>
      <trkpt lat="45.70964" lon="6.75464">
        <ele>1989</ele>
        <time>2022-08-27T01:00:12Z</time>
      </trkpt>
      <trkpt lat="45.70966" lon="6.75466">
        <ele>1989</ele>
        <time>2022-08-27T01:00:13Z</time>
      </trkpt>
      <trkpt lat="45.70967" lon="6.75468">
        <ele>1989</ele>
        <time>2022-08-27T01:00:14Z</time>
      </trkpt>
      <trkpt lat="45.70969" lon="6.7547">
        <ele>1989</ele>
        <time>2022-08-27T01:00:15Z</time>
      </trkpt>
      <trkpt lat="45.7097" lon="6.75472">
        <ele>1989</ele>
        <time>2022-08-27T01:00:16Z</time>
      </trkpt>
      <trkpt lat="45.70972" lon="6.75473">
        <ele>1989</ele>
        <time>2022-08-27T01:00:17Z</time>
      </trkpt>
      <trkpt lat="45.70973" lon="6.75474">
        <ele>1989</ele>
        <time>2022-08-27T01:00:18Z</time>
      </trkpt>
      <trkpt lat="45.70975" lon="6.75476">
        <ele>1989</ele>
        <time>2022-08-27T01:00:19Z</time>
      </trkpt>
      <trkpt lat="45.70978" lon="6.75478">
        <ele>1990</ele>
        <time>2022-08-27T01:00:21Z</time>
      </trkpt>
      <trkpt lat="45.70981" lon="6.7548">
        <ele>1989</ele>
        <time>2022-08-27T01:00:23Z</time>
      </trkpt>
      <trkpt lat="45.70984" lon="6.75482">
        <ele>1989</ele>
        <time>2022-08-27T01:00:25Z</time>
      </trkpt>
      <trkpt lat="45.70987" lon="6.75485">
        <ele>1989</ele>
        <time>2022-08-27T01:00:27Z</time>
      </trkpt>
      <trkpt lat="45.70989" lon="6.75486">
        <ele>1989</ele>
        <time>2022-08-27T01:00:28Z</time>
      </trkpt>
      <trkpt lat="45.70991" lon="6.75488">
        <ele>1989</ele>
        <time>2022-08-27T01:00:29Z</time>
      </trkpt>
      <trkpt lat="45.70992" lon="6.75488">
        <ele>1990</ele>
        <time>2022-08-27T01:00:30Z</time>
      </trkpt>
      <trkpt lat="45.70995" lon="6.75492">
        <ele>1990</ele>
        <time>2022-08-27T01:00:32Z</time>
      </trkpt>
      <trkpt lat="45.70996" lon="6.75493">
        <ele>1990</ele>
        <time>2022-08-27T01:00:33Z</time>
      </trkpt>
      <trkpt lat="45.70998" lon="6.75495">
        <ele>1990</ele>
        <time>2022-08-27T01:00:34Z</time>
      </trkpt>
      <trkpt lat="45.71001" lon="6.75497">
        <ele>1990</ele>
        <time>2022-08-27T01:00:36Z</time>
      </trkpt>
      <trkpt lat="45.71004" lon="6.75499">
        <ele>1990</ele>
        <time>2022-08-27T01:00:38Z</time>
      </trkpt>
      <trkpt lat="45.71006" lon="6.755">
        <ele>1990</ele>
        <time>2022-08-27T01:00:39Z</time>
      </trkpt>
      <trkpt lat="45.71009" lon="6.75501">
        <ele>1990</ele>
        <time>2022-08-27T01:00:41Z</time>
      </trkpt>
      <trkpt lat="45.71011" lon="6.75502">
        <ele>1990</ele>
        <time>2022-08-27T01:00:42Z</time>
      </trkpt>
      <trkpt lat="45.71014" lon="6.75503">
        <ele>1990</ele>
        <time>2022-08-27T01:00:44Z</time>
      </trkpt>
      <trkpt lat="45.71017" lon="6.75505">
        <ele>1990</ele>
        <time>2022-08-27T01:00:46Z</time>
      </trkpt>
      <trkpt lat="45.71019" lon="6.75506">
        <ele>1990</ele>
        <time>2022-08-27T01:00:47Z</time>
      </trkpt>
      <trkpt lat="45.71022" lon="6.75508">
        <ele>1990</ele>
        <time>2022-08-27T01:00:49Z</time>
      </trkpt>
      <trkpt lat="45.71025" lon="6.75511">
        <ele>1990</ele>
        <time>2022-08-27T01:00:51Z</time>
      </trkpt>
      <trkpt lat="45.71028" lon="6.75514">
        <ele>1990</ele>
        <time>2022-08-27T01:00:53Z</time>
      </trkpt>
      <trkpt lat="45.7103" lon="6.75517">
        <ele>1990</ele>
        <time>2022-08-27T01:00:55Z</time>
      </trkpt>
      <trkpt lat="45.71033" lon="6.7552">
        <ele>1990</ele>
        <time>2022-08-27T01:00:57Z</time>
      </trkpt>
      <trkpt lat="45.71035" lon="6.75524">
        <ele>1990</ele>
        <time>2022-08-27T01:00:59Z</time>
      </trkpt>
      <trkpt lat="45.71036" lon="6.75526">
        <ele>1990</ele>
        <time>2022-08-27T01:01:00Z</time>
      </trkpt>
      <trkpt lat="45.71038" lon="6.75527">
        <ele>1990</ele>
        <time>2022-08-27T01:01:01Z</time>
      </trkpt>
      <trkpt lat="45.71041" lon="6.7553">
        <ele>1990</ele>
        <time>2022-08-27T01:01:03Z</time>
      </trkpt>
      <trkpt lat="45.71042" lon="6.75532">
        <ele>1990</ele>
        <time>2022-08-27T01:01:04Z</time>
      </trkpt>
      <trkpt lat="45.71044" lon="6.75533">
        <ele>1990</ele>
        <time>2022-08-27T01:01:05Z</time>
      </trkpt>
      <trkpt lat="45.71046" lon="6.75534">
        <ele>1991</ele>
        <time>2022-08-27T01:01:06Z</time>
      </trkpt>
      <trkpt lat="45.71047" lon="6.75536">
        <ele>1992</ele>
        <time>2022-08-27T01:01:07Z</time>
      </trkpt>
      <trkpt lat="45.71049" lon="6.75538">
        <ele>1992</ele>
        <time>2022-08-27T01:01:08Z</time>
      </trkpt>
      <trkpt lat="45.71051" lon="6.75539">
        <ele>1992</ele>
        <time>2022-08-27T01:01:09Z</time>
      </trkpt>
      <trkpt lat="45.71053" lon="6.75542">
        <ele>1992</ele>
        <time>2022-08-27T01:01:10Z</time>
      </trkpt>
      <trkpt lat="45.71054" lon="6.75543">
        <ele>1992</ele>
        <time>2022-08-27T01:01:11Z</time>
      </trkpt>
      <trkpt lat="45.71056" lon="6.75546">
        <ele>1992</ele>
        <time>2022-08-27T01:01:13Z</time>
      </trkpt>
      <trkpt lat="45.71059" lon="6.75548">
        <ele>1992</ele>
        <time>2022-08-27T01:01:15Z</time>
      </trkpt>
      <trkpt lat="45.71063" lon="6.75551">
        <ele>1992</ele>
        <time>2022-08-27T01:01:17Z</time>
      </trkpt>
      <trkpt lat="45.71064" lon="6.75551">
        <ele>1992</ele>
        <time>2022-08-27T01:01:18Z</time>
      </trkpt>
      <trkpt lat="45.71067" lon="6.75554">
        <ele>1992</ele>
        <time>2022-08-27T01:01:20Z</time>
      </trkpt>
      <trkpt lat="45.7107" lon="6.75555">
        <ele>1992</ele>
        <time>2022-08-27T01:01:22Z</time>
      </trkpt>
      <trkpt lat="45.71073" lon="6.75557">
        <ele>1992</ele>
        <time>2022-08-27T01:01:24Z</time>
      </trkpt>
      <trkpt lat="45.71076" lon="6.75558">
        <ele>1992</ele>
        <time>2022-08-27T01:01:26Z</time>
      </trkpt>
      <trkpt lat="45.71079" lon="6.7556">
        <ele>1992</ele>
        <time>2022-08-27T01:01:28Z</time>
      </trkpt>
      <trkpt lat="45.71081" lon="6.75562">
        <ele>1992</ele>
        <time>2022-08-27T01:01:29Z</time>
      </trkpt>
      <trkpt lat="45.71084" lon="6.75564">
        <ele>1992</ele>
        <time>2022-08-27T01:01:31Z</time>
      </trkpt>
      <trkpt lat="45.71087" lon="6.75566">
        <ele>1992</ele>
        <time>2022-08-27T01:01:33Z</time>
      </trkpt>
      <trkpt lat="45.7109" lon="6.75568">
        <ele>1992</ele>
        <time>2022-08-27T01:01:35Z</time>
      </trkpt>
      <trkpt lat="45.71093" lon="6.7557">
        <ele>1992</ele>
        <time>2022-08-27T01:01:37Z</time>
      </trkpt>
      <trkpt lat="45.71095" lon="6.75571">
        <ele>1992</ele>
        <time>2022-08-27T01:01:39Z</time>
      </trkpt>
      <trkpt lat="45.71098" lon="6.75573">
        <ele>1992</ele>
        <time>2022-08-27T01:01:41Z</time>
      </trkpt>
      <trkpt lat="45.71101" lon="6.75574">
        <ele>1992</ele>
        <time>2022-08-27T01:01:43Z</time>
      </trkpt>
      <trkpt lat="45.71104" lon="6.75575">
        <ele>1993</ele>
        <time>2022-08-27T01:01:45Z</time>
      </trkpt>
      <trkpt lat="45.71106" lon="6.75576">
        <ele>1993</ele>
        <time>2022-08-27T01:01:47Z</time>
      </trkpt>
      <trkpt lat="45.7111" lon="6.75578">
        <ele>1993</ele>
        <time>2022-08-27T01:01:49Z</time>
      </trkpt>
      <trkpt lat="45.71111" lon="6.75578">
        <ele>1993</ele>
        <time>2022-08-27T01:01:50Z</time>
      </trkpt>
      <trkpt lat="45.71113" lon="6.75579">
        <ele>1993</ele>
        <time>2022-08-27T01:01:51Z</time>
      </trkpt>
      <trkpt lat="45.71115" lon="6.75579">
        <ele>1993</ele>
        <time>2022-08-27T01:01:52Z</time>
      </trkpt>
      <trkpt lat="45.71116" lon="6.7558">
        <ele>1993</ele>
        <time>2022-08-27T01:01:53Z</time>
      </trkpt>
      <trkpt lat="45.71118" lon="6.75581">
        <ele>1993</ele>
        <time>2022-08-27T01:01:54Z</time>
      </trkpt>
      <trkpt lat="45.7112" lon="6.75582">
        <ele>1993</ele>
        <time>2022-08-27T01:01:55Z</time>
      </trkpt>
      <trkpt lat="45.71121" lon="6.75582">
        <ele>1993</ele>
        <time>2022-08-27T01:01:56Z</time>
      </trkpt>
      <trkpt lat="45.71125" lon="6.75584">
        <ele>1993</ele>
        <time>2022-08-27T01:01:58Z</time>
      </trkpt>
      <trkpt lat="45.71128" lon="6.75585">
        <ele>1993</ele>
        <time>2022-08-27T01:02:00Z</time>
      </trkpt>
      <trkpt lat="45.7113" lon="6.75586">
        <ele>1994</ele>
        <time>2022-08-27T01:02:01Z</time>
      </trkpt>
      <trkpt lat="45.71132" lon="6.75586">
        <ele>1994</ele>
        <time>2022-08-27T01:02:02Z</time>
      </trkpt>
      <trkpt lat="45.71133" lon="6.75587">
        <ele>1994</ele>
        <time>2022-08-27T01:02:03Z</time>
      </trkpt>
      <trkpt lat="45.71135" lon="6.75588">
        <ele>1994</ele>
        <time>2022-08-27T01:02:04Z</time>
      </trkpt>
      <trkpt lat="45.71138" lon="6.7559">
        <ele>1994</ele>
        <time>2022-08-27T01:02:06Z</time>
      </trkpt>
      <trkpt lat="45.71142" lon="6.75592">
        <ele>1994</ele>
        <time>2022-08-27T01:02:08Z</time>
      </trkpt>
      <trkpt lat="45.71143" lon="6.75593">
        <ele>1994</ele>
        <time>2022-08-27T01:02:09Z</time>
      </trkpt>
      <trkpt lat="45.71145" lon="6.75594">
        <ele>1994</ele>
        <time>2022-08-27T01:02:10Z</time>
      </trkpt>
      <trkpt lat="45.71147" lon="6.75595">
        <ele>1993</ele>
        <time>2022-08-27T01:02:11Z</time>
      </trkpt>
      <trkpt lat="45.71149" lon="6.75596">
        <ele>1994</ele>
        <time>2022-08-27T01:02:12Z</time>
      </trkpt>
      <trkpt lat="45.71152" lon="6.75598">
        <ele>1994</ele>
        <time>2022-08-27T01:02:14Z</time>
      </trkpt>
      <trkpt lat="45.71155" lon="6.756">
        <ele>1994</ele>
        <time>2022-08-27T01:02:16Z</time>
      </trkpt>
      <trkpt lat="45.71159" lon="6.75601">
        <ele>1994</ele>
        <time>2022-08-27T01:02:18Z</time>
      </trkpt>
      <trkpt lat="45.71162" lon="6.75602">
        <ele>1994</ele>
        <time>2022-08-27T01:02:20Z</time>
      </trkpt>
      <trkpt lat="45.71164" lon="6.75603">
        <ele>1994</ele>
        <time>2022-08-27T01:02:21Z</time>
      </trkpt>
      <trkpt lat="45.71165" lon="6.75604">
        <ele>1994</ele>
        <time>2022-08-27T01:02:22Z</time>
      </trkpt>
      <trkpt lat="45.71169" lon="6.75605">
        <ele>1994</ele>
        <time>2022-08-27T01:02:24Z</time>
      </trkpt>
      <trkpt lat="45.71172" lon="6.75605">
        <ele>1994</ele>
        <time>2022-08-27T01:02:26Z</time>
      </trkpt>
      <trkpt lat="45.71174" lon="6.75606">
        <ele>1994</ele>
        <time>2022-08-27T01:02:27Z</time>
      </trkpt>
      <trkpt lat="45.71176" lon="6.75606">
        <ele>1994</ele>
        <time>2022-08-27T01:02:29Z</time>
      </trkpt>
      <trkpt lat="45.71179" lon="6.75604">
        <ele>1995</ele>
        <time>2022-08-27T01:02:31Z</time>
      </trkpt>
      <trkpt lat="45.71182" lon="6.75605">
        <ele>1995</ele>
        <time>2022-08-27T01:02:33Z</time>
      </trkpt>
      <trkpt lat="45.71185" lon="6.75605">
        <ele>1995</ele>
        <time>2022-08-27T01:02:35Z</time>
      </trkpt>
      <trkpt lat="45.71188" lon="6.75605">
        <ele>1995</ele>
        <time>2022-08-27T01:02:37Z</time>
      </trkpt>
      <trkpt lat="45.71191" lon="6.75605">
        <ele>1995</ele>
        <time>2022-08-27T01:02:39Z</time>
      </trkpt>
      <trkpt lat="45.71194" lon="6.75606">
        <ele>1995</ele>
        <time>2022-08-27T01:02:41Z</time>
      </trkpt>
      <trkpt lat="45.71195" lon="6.75606">
        <ele>1995</ele>
        <time>2022-08-27T01:02:42Z</time>
      </trkpt>
      <trkpt lat="45.71197" lon="6.75606">
        <ele>1995</ele>
        <time>2022-08-27T01:02:43Z</time>
      </trkpt>
      <trkpt lat="45.71199" lon="6.75607">
        <ele>1995</ele>
        <time>2022-08-27T01:02:44Z</time>
      </trkpt>
      <trkpt lat="45.71202" lon="6.75608">
        <ele>1996</ele>
        <time>2022-08-27T01:02:46Z</time>
      </trkpt>
      <trkpt lat="45.71205" lon="6.7561">
        <ele>1996</ele>
        <time>2022-08-27T01:02:48Z</time>
      </trkpt>
      <trkpt lat="45.71208" lon="6.75613">
        <ele>1995</ele>
        <time>2022-08-27T01:02:50Z</time>
      </trkpt>
      <trkpt lat="45.7121" lon="6.75615">
        <ele>1995</ele>
        <time>2022-08-27T01:02:52Z</time>
      </trkpt>
      <trkpt lat="45.71213" lon="6.75618">
        <ele>1995</ele>
        <time>2022-08-27T01:02:54Z</time>
      </trkpt>
      <trkpt lat="45.71216" lon="6.7562">
        <ele>1996</ele>
        <time>2022-08-27T01:02:56Z</time>
      </trkpt>
      <trkpt lat="45.71219" lon="6.75622">
        <ele>1996</ele>
        <time>2022-08-27T01:02:58Z</time>
      </trkpt>
      <trkpt lat="45.71222" lon="6.75624">
        <ele>1996</ele>
        <time>2022-08-27T01:03:00Z</time>
      </trkpt>
      <trkpt lat="45.71225" lon="6.75625">
        <ele>1996</ele>
        <time>2022-08-27T01:03:02Z</time>
      </trkpt>
      <trkpt lat="45.71227" lon="6.75628">
        <ele>1996</ele>
        <time>2022-08-27T01:03:04Z</time>
      </trkpt>
      <trkpt lat="45.7123" lon="6.7563">
        <ele>1996</ele>
        <time>2022-08-27T01:03:06Z</time>
      </trkpt>
      <trkpt lat="45.71233" lon="6.75632">
        <ele>1996</ele>
        <time>2022-08-27T01:03:08Z</time>
      </trkpt>
      <trkpt lat="45.71235" lon="6.75633">
        <ele>1996</ele>
        <time>2022-08-27T01:03:09Z</time>
      </trkpt>
      <trkpt lat="45.71237" lon="6.75633">
        <ele>1996</ele>
        <time>2022-08-27T01:03:10Z</time>
      </trkpt>
      <trkpt lat="45.71239" lon="6.75636">
        <ele>1996</ele>
        <time>2022-08-27T01:03:12Z</time>
      </trkpt>
      <trkpt lat="45.71242" lon="6.75639">
        <ele>1996</ele>
        <time>2022-08-27T01:03:14Z</time>
      </trkpt>
      <trkpt lat="45.71243" lon="6.75642">
        <ele>1996</ele>
        <time>2022-08-27T01:03:16Z</time>
      </trkpt>
      <trkpt lat="45.71246" lon="6.75645">
        <ele>1996</ele>
        <time>2022-08-27T01:03:18Z</time>
      </trkpt>
      <trkpt lat="45.71248" lon="6.75648">
        <ele>1996</ele>
        <time>2022-08-27T01:03:20Z</time>
      </trkpt>
      <trkpt lat="45.7125" lon="6.75649">
        <ele>1996</ele>
        <time>2022-08-27T01:03:22Z</time>
      </trkpt>
      <trkpt lat="45.71252" lon="6.75651">
        <ele>1997</ele>
        <time>2022-08-27T01:03:24Z</time>
      </trkpt>
      <trkpt lat="45.71255" lon="6.75654">
        <ele>1997</ele>
        <time>2022-08-27T01:03:26Z</time>
      </trkpt>
      <trkpt lat="45.71257" lon="6.75657">
        <ele>1997</ele>
        <time>2022-08-27T01:03:28Z</time>
      </trkpt>
      <trkpt lat="45.71259" lon="6.7566">
        <ele>1997</ele>
        <time>2022-08-27T01:03:30Z</time>
      </trkpt>
      <trkpt lat="45.7126" lon="6.75663">
        <ele>1997</ele>
        <time>2022-08-27T01:03:32Z</time>
      </trkpt>
      <trkpt lat="45.71262" lon="6.75666">
        <ele>1997</ele>
        <time>2022-08-27T01:03:34Z</time>
      </trkpt>
      <trkpt lat="45.71263" lon="6.75669">
        <ele>1997</ele>
        <time>2022-08-27T01:03:36Z</time>
      </trkpt>
      <trkpt lat="45.71265" lon="6.75674">
        <ele>1997</ele>
        <time>2022-08-27T01:03:38Z</time>
      </trkpt>
      <trkpt lat="45.71266" lon="6.75678">
        <ele>1997</ele>
        <time>2022-08-27T01:03:40Z</time>
      </trkpt>
      <trkpt lat="45.71267" lon="6.75681">
        <ele>1997</ele>
        <time>2022-08-27T01:03:42Z</time>
      </trkpt>
      <trkpt lat="45.71268" lon="6.75683">
        <ele>1997</ele>
        <time>2022-08-27T01:03:44Z</time>
      </trkpt>
      <trkpt lat="45.7127" lon="6.75685">
        <ele>1998</ele>
        <time>2022-08-27T01:03:46Z</time>
      </trkpt>
      <trkpt lat="45.71272" lon="6.75687">
        <ele>1998</ele>
        <time>2022-08-27T01:03:48Z</time>
      </trkpt>
      <trkpt lat="45.71275" lon="6.75688">
        <ele>1998</ele>
        <time>2022-08-27T01:03:50Z</time>
      </trkpt>
      <trkpt lat="45.71278" lon="6.75691">
        <ele>1998</ele>
        <time>2022-08-27T01:03:52Z</time>
      </trkpt>
      <trkpt lat="45.71281" lon="6.75693">
        <ele>1998</ele>
        <time>2022-08-27T01:03:54Z</time>
      </trkpt>
      <trkpt lat="45.71285" lon="6.75694">
        <ele>1998</ele>
        <time>2022-08-27T01:03:56Z</time>
      </trkpt>
      <trkpt lat="45.71287" lon="6.75694">
        <ele>1998</ele>
        <time>2022-08-27T01:03:58Z</time>
      </trkpt>
      <trkpt lat="45.7129" lon="6.75696">
        <ele>1999</ele>
        <time>2022-08-27T01:04:00Z</time>
      </trkpt>
      <trkpt lat="45.71293" lon="6.75697">
        <ele>1999</ele>
        <time>2022-08-27T01:04:02Z</time>
      </trkpt>
      <trkpt lat="45.71296" lon="6.75698">
        <ele>1999</ele>
        <time>2022-08-27T01:04:04Z</time>
      </trkpt>
      <trkpt lat="45.71298" lon="6.75699">
        <ele>1999</ele>
        <time>2022-08-27T01:04:06Z</time>
      </trkpt>
      <trkpt lat="45.71301" lon="6.757">
        <ele>1999</ele>
        <time>2022-08-27T01:04:08Z</time>
      </trkpt>
      <trkpt lat="45.71304" lon="6.75701">
        <ele>1999</ele>
        <time>2022-08-27T01:04:10Z</time>
      </trkpt>
      <trkpt lat="45.71306" lon="6.75702">
        <ele>1999</ele>
        <time>2022-08-27T01:04:12Z</time>
      </trkpt>
      <trkpt lat="45.71308" lon="6.75703">
        <ele>2001</ele>
        <time>2022-08-27T01:04:14Z</time>
      </trkpt>
      <trkpt lat="45.7131" lon="6.75706">
        <ele>2001</ele>
        <time>2022-08-27T01:04:16Z</time>
      </trkpt>
      <trkpt lat="45.71311" lon="6.75709">
        <ele>2001</ele>
        <time>2022-08-27T01:04:18Z</time>
      </trkpt>
      <trkpt lat="45.71313" lon="6.75712">
        <ele>2001</ele>
        <time>2022-08-27T01:04:20Z</time>
      </trkpt>
      <trkpt lat="45.71314" lon="6.75715">
        <ele>2001</ele>
        <time>2022-08-27T01:04:22Z</time>
      </trkpt>
      <trkpt lat="45.71315" lon="6.75718">
        <ele>2001</ele>
        <time>2022-08-27T01:04:23Z</time>
      </trkpt>
      <trkpt lat="45.71317" lon="6.75722">
        <ele>2001</ele>
        <time>2022-08-27T01:04:26Z</time>
      </trkpt>
      <trkpt lat="45.71319" lon="6.75724">
        <ele>2001</ele>
        <time>2022-08-27T01:04:28Z</time>
      </trkpt>
      <trkpt lat="45.71321" lon="6.75726">
        <ele>2001</ele>
        <time>2022-08-27T01:04:30Z</time>
      </trkpt>
      <trkpt lat="45.71324" lon="6.75728">
        <ele>2001</ele>
        <time>2022-08-27T01:04:32Z</time>
      </trkpt>
      <trkpt lat="45.71327" lon="6.7573">
        <ele>2001</ele>
        <time>2022-08-27T01:04:34Z</time>
      </trkpt>
      <trkpt lat="45.71329" lon="6.75731">
        <ele>2001</ele>
        <time>2022-08-27T01:04:36Z</time>
      </trkpt>
      <trkpt lat="45.71332" lon="6.75733">
        <ele>2001</ele>
        <time>2022-08-27T01:04:38Z</time>
      </trkpt>
      <trkpt lat="45.71334" lon="6.75735">
        <ele>2001</ele>
        <time>2022-08-27T01:04:40Z</time>
      </trkpt>
      <trkpt lat="45.71337" lon="6.75736">
        <ele>2001</ele>
        <time>2022-08-27T01:04:42Z</time>
      </trkpt>
      <trkpt lat="45.71339" lon="6.75737">
        <ele>2001</ele>
        <time>2022-08-27T01:04:44Z</time>
      </trkpt>
      <trkpt lat="45.71342" lon="6.75739">
        <ele>2001</ele>
        <time>2022-08-27T01:04:46Z</time>
      </trkpt>
      <trkpt lat="45.71345" lon="6.75741">
        <ele>2001</ele>
        <time>2022-08-27T01:04:48Z</time>
      </trkpt>
      <trkpt lat="45.71348" lon="6.75742">
        <ele>2002</ele>
        <time>2022-08-27T01:04:50Z</time>
      </trkpt>
      <trkpt lat="45.7135" lon="6.75744">
        <ele>2002</ele>
        <time>2022-08-27T01:04:52Z</time>
      </trkpt>
      <trkpt lat="45.71353" lon="6.75745">
        <ele>2002</ele>
        <time>2022-08-27T01:04:54Z</time>
      </trkpt>
      <trkpt lat="45.71356" lon="6.75747">
        <ele>2002</ele>
        <time>2022-08-27T01:04:56Z</time>
      </trkpt>
      <trkpt lat="45.71358" lon="6.75748">
        <ele>2002</ele>
        <time>2022-08-27T01:04:58Z</time>
      </trkpt>
      <trkpt lat="45.71361" lon="6.75749">
        <ele>2002</ele>
        <time>2022-08-27T01:05:00Z</time>
      </trkpt>
      <trkpt lat="45.71364" lon="6.7575">
        <ele>2003</ele>
        <time>2022-08-27T01:05:02Z</time>
      </trkpt>
      <trkpt lat="45.71367" lon="6.7575">
        <ele>2003</ele>
        <time>2022-08-27T01:05:04Z</time>
      </trkpt>
      <trkpt lat="45.71369" lon="6.75751">
        <ele>2003</ele>
        <time>2022-08-27T01:05:06Z</time>
      </trkpt>
      <trkpt lat="45.71372" lon="6.75751">
        <ele>2003</ele>
        <time>2022-08-27T01:05:08Z</time>
      </trkpt>
      <trkpt lat="45.71375" lon="6.75751">
        <ele>2003</ele>
        <time>2022-08-27T01:05:10Z</time>
      </trkpt>
      <trkpt lat="45.71378" lon="6.75752">
        <ele>2003</ele>
        <time>2022-08-27T01:05:12Z</time>
      </trkpt>
      <trkpt lat="45.7138" lon="6.75753">
        <ele>2003</ele>
        <time>2022-08-27T01:05:14Z</time>
      </trkpt>
      <trkpt lat="45.71383" lon="6.75754">
        <ele>2003</ele>
        <time>2022-08-27T01:05:16Z</time>
      </trkpt>
      <trkpt lat="45.71385" lon="6.75755">
        <ele>2004</ele>
        <time>2022-08-27T01:05:18Z</time>
      </trkpt>
      <trkpt lat="45.71388" lon="6.75757">
        <ele>2004</ele>
        <time>2022-08-27T01:05:20Z</time>
      </trkpt>
      <trkpt lat="45.7139" lon="6.75758">
        <ele>2004</ele>
        <time>2022-08-27T01:05:22Z</time>
      </trkpt>
      <trkpt lat="45.71393" lon="6.75759">
        <ele>2004</ele>
        <time>2022-08-27T01:05:24Z</time>
      </trkpt>
      <trkpt lat="45.71396" lon="6.75761">
        <ele>2004</ele>
        <time>2022-08-27T01:05:26Z</time>
      </trkpt>
      <trkpt lat="45.71398" lon="6.75762">
        <ele>2005</ele>
        <time>2022-08-27T01:05:28Z</time>
      </trkpt>
      <trkpt lat="45.714" lon="6.75763">
        <ele>2005</ele>
        <time>2022-08-27T01:05:30Z</time>
      </trkpt>
      <trkpt lat="45.71403" lon="6.75764">
        <ele>2006</ele>
        <time>2022-08-27T01:05:32Z</time>
      </trkpt>
      <trkpt lat="45.71405" lon="6.75765">
        <ele>2006</ele>
        <time>2022-08-27T01:05:34Z</time>
      </trkpt>
      <trkpt lat="45.71408" lon="6.75766">
        <ele>2006</ele>
        <time>2022-08-27T01:05:37Z</time>
      </trkpt>
      <trkpt lat="45.7141" lon="6.75766">
        <ele>2006</ele>
        <time>2022-08-27T01:05:39Z</time>
      </trkpt>
      <trkpt lat="45.71413" lon="6.75766">
        <ele>2006</ele>
        <time>2022-08-27T01:05:41Z</time>
      </trkpt>
      <trkpt lat="45.71415" lon="6.75765">
        <ele>2006</ele>
        <time>2022-08-27T01:05:43Z</time>
      </trkpt>
      <trkpt lat="45.71418" lon="6.75765">
        <ele>2006</ele>
        <time>2022-08-27T01:05:45Z</time>
      </trkpt>
      <trkpt lat="45.71421" lon="6.75764">
        <ele>2006</ele>
        <time>2022-08-27T01:05:47Z</time>
      </trkpt>
      <trkpt lat="45.71423" lon="6.75763">
        <ele>2007</ele>
        <time>2022-08-27T01:05:49Z</time>
      </trkpt>
      <trkpt lat="45.71426" lon="6.75761">
        <ele>2007</ele>
        <time>2022-08-27T01:05:51Z</time>
      </trkpt>
      <trkpt lat="45.71428" lon="6.75759">
        <ele>2007</ele>
        <time>2022-08-27T01:05:53Z</time>
      </trkpt>
      <trkpt lat="45.7143" lon="6.75758">
        <ele>2007</ele>
        <time>2022-08-27T01:05:55Z</time>
      </trkpt>
      <trkpt lat="45.71432" lon="6.75757">
        <ele>2007</ele>
        <time>2022-08-27T01:05:57Z</time>
      </trkpt>
      <trkpt lat="45.71433" lon="6.75755">
        <ele>2008</ele>
        <time>2022-08-27T01:05:59Z</time>
      </trkpt>
      <trkpt lat="45.71434" lon="6.75754">
        <ele>2008</ele>
        <time>2022-08-27T01:06:00Z</time>
      </trkpt>
      <trkpt lat="45.71434" lon="6.75753">
        <ele>2009</ele>
        <time>2022-08-27T01:06:01Z</time>
      </trkpt>
      <trkpt lat="45.71435" lon="6.75752">
        <ele>2009</ele>
        <time>2022-08-27T01:06:03Z</time>
      </trkpt>
      <trkpt lat="45.71436" lon="6.75751">
        <ele>2010</ele>
        <time>2022-08-27T01:06:05Z</time>
      </trkpt>
      <trkpt lat="45.71436" lon="6.7575">
        <ele>2010</ele>
        <time>2022-08-27T01:06:06Z</time>
      </trkpt>
      <trkpt lat="45.71438" lon="6.75747">
        <ele>2012</ele>
        <time>2022-08-27T01:06:09Z</time>
      </trkpt>
      <trkpt lat="45.7144" lon="6.75745">
        <ele>2012</ele>
        <time>2022-08-27T01:06:12Z</time>
      </trkpt>
      <trkpt lat="45.71442" lon="6.75744">
        <ele>2012</ele>
        <time>2022-08-27T01:06:15Z</time>
      </trkpt>
      <trkpt lat="45.71445" lon="6.75744">
        <ele>2014</ele>
        <time>2022-08-27T01:06:18Z</time>
      </trkpt>
      <trkpt lat="45.71446" lon="6.75747">
        <ele>2015</ele>
        <time>2022-08-27T01:06:21Z</time>
      </trkpt>
      <trkpt lat="45.71447" lon="6.7575">
        <ele>2016</ele>
        <time>2022-08-27T01:06:24Z</time>
      </trkpt>
      <trkpt lat="45.71448" lon="6.75754">
        <ele>2017</ele>
        <time>2022-08-27T01:06:27Z</time>
      </trkpt>
      <trkpt lat="45.71448" lon="6.75758">
        <ele>2018</ele>
        <time>2022-08-27T01:06:30Z</time>
      </trkpt>
      <trkpt lat="45.71447" lon="6.7576">
        <ele>2018</ele>
        <time>2022-08-27T01:06:33Z</time>
      </trkpt>
      <trkpt lat="45.71446" lon="6.75764">
        <ele>2019</ele>
        <time>2022-08-27T01:06:36Z</time>
      </trkpt>
      <trkpt lat="45.71446" lon="6.75767">
        <ele>2019</ele>
        <time>2022-08-27T01:06:39Z</time>
      </trkpt>
      <trkpt lat="45.71446" lon="6.7577">
        <ele>2020</ele>
        <time>2022-08-27T01:06:42Z</time>
      </trkpt>
      <trkpt lat="45.71446" lon="6.75773">
        <ele>2021</ele>
        <time>2022-08-27T01:06:45Z</time>
      </trkpt>
      <trkpt lat="45.71447" lon="6.75775">
        <ele>2021</ele>
        <time>2022-08-27T01:06:47Z</time>
      </trkpt>
      <trkpt lat="45.71448" lon="6.75778">
        <ele>2021</ele>
        <time>2022-08-27T01:06:49Z</time>
      </trkpt>
      <trkpt lat="45.71448" lon="6.75781">
        <ele>2022</ele>
        <time>2022-08-27T01:06:51Z</time>
      </trkpt>
      <trkpt lat="45.71449" lon="6.75784">
        <ele>2023</ele>
        <time>2022-08-27T01:06:53Z</time>
      </trkpt>
      <trkpt lat="45.71449" lon="6.75787">
        <ele>2023</ele>
        <time>2022-08-27T01:06:55Z</time>
      </trkpt>
      <trkpt lat="45.7145" lon="6.7579">
        <ele>2023</ele>
        <time>2022-08-27T01:06:57Z</time>
      </trkpt>
      <trkpt lat="45.71451" lon="6.75792">
        <ele>2023</ele>
        <time>2022-08-27T01:06:59Z</time>
      </trkpt>
      <trkpt lat="45.71451" lon="6.75795">
        <ele>2023</ele>
        <time>2022-08-27T01:07:01Z</time>
      </trkpt>
      <trkpt lat="45.71451" lon="6.75798">
        <ele>2024</ele>
        <time>2022-08-27T01:07:03Z</time>
      </trkpt>
      <trkpt lat="45.71451" lon="6.75802">
        <ele>2025</ele>
        <time>2022-08-27T01:07:05Z</time>
      </trkpt>
      <trkpt lat="45.71451" lon="6.75804">
        <ele>2026</ele>
        <time>2022-08-27T01:07:07Z</time>
      </trkpt>
      <trkpt lat="45.7145" lon="6.75807">
        <ele>2026</ele>
        <time>2022-08-27T01:07:09Z</time>
      </trkpt>
      <trkpt lat="45.7145" lon="6.7581">
        <ele>2026</ele>
        <time>2022-08-27T01:07:11Z</time>
      </trkpt>
      <trkpt lat="45.7145" lon="6.75813">
        <ele>2026</ele>
        <time>2022-08-27T01:07:13Z</time>
      </trkpt>
      <trkpt lat="45.7145" lon="6.75816">
        <ele>2027</ele>
        <time>2022-08-27T01:07:15Z</time>
      </trkpt>
      <trkpt lat="45.71451" lon="6.7582">
        <ele>2027</ele>
        <time>2022-08-27T01:07:18Z</time>
      </trkpt>
      <trkpt lat="45.71452" lon="6.75823">
        <ele>2028</ele>
        <time>2022-08-27T01:07:20Z</time>
      </trkpt>
      <trkpt lat="45.71452" lon="6.75826">
        <ele>2029</ele>
        <time>2022-08-27T01:07:22Z</time>
      </trkpt>
      <trkpt lat="45.71453" lon="6.75829">
        <ele>2029</ele>
        <time>2022-08-27T01:07:24Z</time>
      </trkpt>
      <trkpt lat="45.71454" lon="6.75831">
        <ele>2029</ele>
        <time>2022-08-27T01:07:26Z</time>
      </trkpt>
      <trkpt lat="45.71456" lon="6.75833">
        <ele>2029</ele>
        <time>2022-08-27T01:07:28Z</time>
      </trkpt>
      <trkpt lat="45.71458" lon="6.75835">
        <ele>2029</ele>
        <time>2022-08-27T01:07:30Z</time>
      </trkpt>
      <trkpt lat="45.71459" lon="6.75837">
        <ele>2029</ele>
        <time>2022-08-27T01:07:32Z</time>
      </trkpt>
      <trkpt lat="45.71461" lon="6.75838">
        <ele>2030</ele>
        <time>2022-08-27T01:07:34Z</time>
      </trkpt>
      <trkpt lat="45.71462" lon="6.7584">
        <ele>2030</ele>
        <time>2022-08-27T01:07:36Z</time>
      </trkpt>
      <trkpt lat="45.71464" lon="6.75842">
        <ele>2030</ele>
        <time>2022-08-27T01:07:38Z</time>
      </trkpt>
      <trkpt lat="45.71466" lon="6.75844">
        <ele>2031</ele>
        <time>2022-08-27T01:07:40Z</time>
      </trkpt>
      <trkpt lat="45.71467" lon="6.75847">
        <ele>2031</ele>
        <time>2022-08-27T01:07:42Z</time>
      </trkpt>
      <trkpt lat="45.71469" lon="6.75849">
        <ele>2031</ele>
        <time>2022-08-27T01:07:44Z</time>
      </trkpt>
      <trkpt lat="45.71471" lon="6.75852">
        <ele>2032</ele>
        <time>2022-08-27T01:07:46Z</time>
      </trkpt>
      <trkpt lat="45.71472" lon="6.75854">
        <ele>2032</ele>
        <time>2022-08-27T01:07:48Z</time>
      </trkpt>
      <trkpt lat="45.71474" lon="6.75856">
        <ele>2032</ele>
        <time>2022-08-27T01:07:50Z</time>
      </trkpt>
      <trkpt lat="45.71476" lon="6.75858">
        <ele>2032</ele>
        <time>2022-08-27T01:07:52Z</time>
      </trkpt>
      <trkpt lat="45.71478" lon="6.75861">
        <ele>2033</ele>
        <time>2022-08-27T01:07:54Z</time>
      </trkpt>
      <trkpt lat="45.7148" lon="6.75863">
        <ele>2033</ele>
        <time>2022-08-27T01:07:56Z</time>
      </trkpt>
      <trkpt lat="45.71481" lon="6.75865">
        <ele>2033</ele>
        <time>2022-08-27T01:07:58Z</time>
      </trkpt>
      <trkpt lat="45.71484" lon="6.75867">
        <ele>2033</ele>
        <time>2022-08-27T01:08:00Z</time>
      </trkpt>
      <trkpt lat="45.71486" lon="6.7587">
        <ele>2033</ele>
        <time>2022-08-27T01:08:02Z</time>
      </trkpt>
      <trkpt lat="45.71487" lon="6.75873">
        <ele>2033</ele>
        <time>2022-08-27T01:08:04Z</time>
      </trkpt>
      <trkpt lat="45.71489" lon="6.75875">
        <ele>2033</ele>
        <time>2022-08-27T01:08:06Z</time>
      </trkpt>
      <trkpt lat="45.71492" lon="6.75878">
        <ele>2034</ele>
        <time>2022-08-27T01:08:08Z</time>
      </trkpt>
      <trkpt lat="45.71493" lon="6.75879">
        <ele>2034</ele>
        <time>2022-08-27T01:08:09Z</time>
      </trkpt>
      <trkpt lat="45.71496" lon="6.75881">
        <ele>2034</ele>
        <time>2022-08-27T01:08:11Z</time>
      </trkpt>
      <trkpt lat="45.71498" lon="6.75884">
        <ele>2034</ele>
        <time>2022-08-27T01:08:13Z</time>
      </trkpt>
      <trkpt lat="45.71501" lon="6.75884">
        <ele>2035</ele>
        <time>2022-08-27T01:08:15Z</time>
      </trkpt>
      <trkpt lat="45.71503" lon="6.75885">
        <ele>2035</ele>
        <time>2022-08-27T01:08:17Z</time>
      </trkpt>
      <trkpt lat="45.71506" lon="6.75887">
        <ele>2036</ele>
        <time>2022-08-27T01:08:19Z</time>
      </trkpt>
      <trkpt lat="45.71508" lon="6.7589">
        <ele>2037</ele>
        <time>2022-08-27T01:08:21Z</time>
      </trkpt>
      <trkpt lat="45.71509" lon="6.75893">
        <ele>2036</ele>
        <time>2022-08-27T01:08:23Z</time>
      </trkpt>
      <trkpt lat="45.71511" lon="6.75896">
        <ele>2037</ele>
        <time>2022-08-27T01:08:25Z</time>
      </trkpt>
      <trkpt lat="45.71512" lon="6.75899">
        <ele>2037</ele>
        <time>2022-08-27T01:08:27Z</time>
      </trkpt>
      <trkpt lat="45.71514" lon="6.75902">
        <ele>2038</ele>
        <time>2022-08-27T01:08:29Z</time>
      </trkpt>
      <trkpt lat="45.71515" lon="6.75905">
        <ele>2038</ele>
        <time>2022-08-27T01:08:31Z</time>
      </trkpt>
      <trkpt lat="45.71517" lon="6.75907">
        <ele>2038</ele>
        <time>2022-08-27T01:08:33Z</time>
      </trkpt>
      <trkpt lat="45.71519" lon="6.7591">
        <ele>2038</ele>
        <time>2022-08-27T01:08:35Z</time>
      </trkpt>
      <trkpt lat="45.7152" lon="6.75913">
        <ele>2041</ele>
        <time>2022-08-27T01:08:37Z</time>
      </trkpt>
      <trkpt lat="45.71522" lon="6.75916">
        <ele>2041</ele>
        <time>2022-08-27T01:08:39Z</time>
      </trkpt>
      <trkpt lat="45.71524" lon="6.75918">
        <ele>2041</ele>
        <time>2022-08-27T01:08:41Z</time>
      </trkpt>
      <trkpt lat="45.71525" lon="6.75921">
        <ele>2041</ele>
        <time>2022-08-27T01:08:43Z</time>
      </trkpt>
      <trkpt lat="45.71527" lon="6.75924">
        <ele>2041</ele>
        <time>2022-08-27T01:08:45Z</time>
      </trkpt>
      <trkpt lat="45.71529" lon="6.75926">
        <ele>2041</ele>
        <time>2022-08-27T01:08:47Z</time>
      </trkpt>
      <trkpt lat="45.7153" lon="6.75929">
        <ele>2041</ele>
        <time>2022-08-27T01:08:49Z</time>
      </trkpt>
      <trkpt lat="45.71532" lon="6.75931">
        <ele>2042</ele>
        <time>2022-08-27T01:08:51Z</time>
      </trkpt>
      <trkpt lat="45.71533" lon="6.75934">
        <ele>2042</ele>
        <time>2022-08-27T01:08:53Z</time>
      </trkpt>
      <trkpt lat="45.71536" lon="6.75936">
        <ele>2043</ele>
        <time>2022-08-27T01:08:55Z</time>
      </trkpt>
      <trkpt lat="45.71538" lon="6.75938">
        <ele>2043</ele>
        <time>2022-08-27T01:08:57Z</time>
      </trkpt>
      <trkpt lat="45.71539" lon="6.7594">
        <ele>2043</ele>
        <time>2022-08-27T01:08:58Z</time>
      </trkpt>
      <trkpt lat="45.71542" lon="6.75942">
        <ele>2043</ele>
        <time>2022-08-27T01:09:01Z</time>
      </trkpt>
      <trkpt lat="45.71544" lon="6.75944">
        <ele>2044</ele>
        <time>2022-08-27T01:09:03Z</time>
      </trkpt>
      <trkpt lat="45.71546" lon="6.75946">
        <ele>2044</ele>
        <time>2022-08-27T01:09:05Z</time>
      </trkpt>
      <trkpt lat="45.71549" lon="6.75948">
        <ele>2044</ele>
        <time>2022-08-27T01:09:07Z</time>
      </trkpt>
      <trkpt lat="45.71551" lon="6.7595">
        <ele>2045</ele>
        <time>2022-08-27T01:09:09Z</time>
      </trkpt>
      <trkpt lat="45.71553" lon="6.75952">
        <ele>2045</ele>
        <time>2022-08-27T01:09:11Z</time>
      </trkpt>
      <trkpt lat="45.71556" lon="6.75953">
        <ele>2045</ele>
        <time>2022-08-27T01:09:13Z</time>
      </trkpt>
      <trkpt lat="45.71558" lon="6.75955">
        <ele>2045</ele>
        <time>2022-08-27T01:09:15Z</time>
      </trkpt>
      <trkpt lat="45.7156" lon="6.75957">
        <ele>2046</ele>
        <time>2022-08-27T01:09:17Z</time>
      </trkpt>
      <trkpt lat="45.71561" lon="6.75959">
        <ele>2046</ele>
        <time>2022-08-27T01:09:19Z</time>
      </trkpt>
      <trkpt lat="45.71563" lon="6.75962">
        <ele>2047</ele>
        <time>2022-08-27T01:09:21Z</time>
      </trkpt>
      <trkpt lat="45.71565" lon="6.75964">
        <ele>2047</ele>
        <time>2022-08-27T01:09:23Z</time>
      </trkpt>
      <trkpt lat="45.71567" lon="6.75965">
        <ele>2047</ele>
        <time>2022-08-27T01:09:25Z</time>
      </trkpt>
      <trkpt lat="45.71569" lon="6.75967">
        <ele>2047</ele>
        <time>2022-08-27T01:09:27Z</time>
      </trkpt>
      <trkpt lat="45.71571" lon="6.75968">
        <ele>2047</ele>
        <time>2022-08-27T01:09:29Z</time>
      </trkpt>
      <trkpt lat="45.71574" lon="6.7597">
        <ele>2048</ele>
        <time>2022-08-27T01:09:31Z</time>
      </trkpt>
      <trkpt lat="45.71576" lon="6.75972">
        <ele>2048</ele>
        <time>2022-08-27T01:09:33Z</time>
      </trkpt>
      <trkpt lat="45.71579" lon="6.75974">
        <ele>2048</ele>
        <time>2022-08-27T01:09:35Z</time>
      </trkpt>
      <trkpt lat="45.71581" lon="6.75976">
        <ele>2048</ele>
        <time>2022-08-27T01:09:37Z</time>
      </trkpt>
      <trkpt lat="45.71583" lon="6.75979">
        <ele>2049</ele>
        <time>2022-08-27T01:09:39Z</time>
      </trkpt>
      <trkpt lat="45.71585" lon="6.75981">
        <ele>2049</ele>
        <time>2022-08-27T01:09:41Z</time>
      </trkpt>
      <trkpt lat="45.71588" lon="6.75983">
        <ele>2049</ele>
        <time>2022-08-27T01:09:43Z</time>
      </trkpt>
      <trkpt lat="45.7159" lon="6.75985">
        <ele>2049</ele>
        <time>2022-08-27T01:09:45Z</time>
      </trkpt>
      <trkpt lat="45.71592" lon="6.75986">
        <ele>2050</ele>
        <time>2022-08-27T01:09:47Z</time>
      </trkpt>
      <trkpt lat="45.71595" lon="6.75988">
        <ele>2050</ele>
        <time>2022-08-27T01:09:49Z</time>
      </trkpt>
      <trkpt lat="45.71598" lon="6.7599">
        <ele>2050</ele>
        <time>2022-08-27T01:09:51Z</time>
      </trkpt>
      <trkpt lat="45.716" lon="6.75993">
        <ele>2051</ele>
        <time>2022-08-27T01:09:53Z</time>
      </trkpt>
      <trkpt lat="45.71602" lon="6.75995">
        <ele>2051</ele>
        <time>2022-08-27T01:09:55Z</time>
      </trkpt>
      <trkpt lat="45.71604" lon="6.75997">
        <ele>2051</ele>
        <time>2022-08-27T01:09:57Z</time>
      </trkpt>
      <trkpt lat="45.71607" lon="6.75999">
        <ele>2051</ele>
        <time>2022-08-27T01:09:59Z</time>
      </trkpt>
      <trkpt lat="45.71609" lon="6.76001">
        <ele>2052</ele>
        <time>2022-08-27T01:10:01Z</time>
      </trkpt>
      <trkpt lat="45.7161" lon="6.76002">
        <ele>2052</ele>
        <time>2022-08-27T01:10:03Z</time>
      </trkpt>
      <trkpt lat="45.71612" lon="6.76004">
        <ele>2052</ele>
        <time>2022-08-27T01:10:05Z</time>
      </trkpt>
      <trkpt lat="45.71615" lon="6.76005">
        <ele>2053</ele>
        <time>2022-08-27T01:10:07Z</time>
      </trkpt>
      <trkpt lat="45.71616" lon="6.76007">
        <ele>2053</ele>
        <time>2022-08-27T01:10:09Z</time>
      </trkpt>
      <trkpt lat="45.71618" lon="6.76008">
        <ele>2053</ele>
        <time>2022-08-27T01:10:11Z</time>
      </trkpt>
      <trkpt lat="45.7162" lon="6.7601">
        <ele>2053</ele>
        <time>2022-08-27T01:10:13Z</time>
      </trkpt>
      <trkpt lat="45.71622" lon="6.76011">
        <ele>2054</ele>
        <time>2022-08-27T01:10:15Z</time>
      </trkpt>
      <trkpt lat="45.71624" lon="6.76013">
        <ele>2054</ele>
        <time>2022-08-27T01:10:17Z</time>
      </trkpt>
      <trkpt lat="45.71627" lon="6.76014">
        <ele>2054</ele>
        <time>2022-08-27T01:10:19Z</time>
      </trkpt>
      <trkpt lat="45.7163" lon="6.76017">
        <ele>2054</ele>
        <time>2022-08-27T01:10:21Z</time>
      </trkpt>
      <trkpt lat="45.71632" lon="6.76019">
        <ele>2054</ele>
        <time>2022-08-27T01:10:23Z</time>
      </trkpt>
      <trkpt lat="45.71633" lon="6.76021">
        <ele>2056</ele>
        <time>2022-08-27T01:10:25Z</time>
      </trkpt>
      <trkpt lat="45.71635" lon="6.76023">
        <ele>2056</ele>
        <time>2022-08-27T01:10:27Z</time>
      </trkpt>
      <trkpt lat="45.71637" lon="6.76026">
        <ele>2056</ele>
        <time>2022-08-27T01:10:29Z</time>
      </trkpt>
      <trkpt lat="45.71639" lon="6.76028">
        <ele>2057</ele>
        <time>2022-08-27T01:10:31Z</time>
      </trkpt>
      <trkpt lat="45.7164" lon="6.7603">
        <ele>2058</ele>
        <time>2022-08-27T01:10:33Z</time>
      </trkpt>
      <trkpt lat="45.71641" lon="6.76033">
        <ele>2058</ele>
        <time>2022-08-27T01:10:35Z</time>
      </trkpt>
      <trkpt lat="45.71642" lon="6.76036">
        <ele>2058</ele>
        <time>2022-08-27T01:10:37Z</time>
      </trkpt>
      <trkpt lat="45.71644" lon="6.76039">
        <ele>2059</ele>
        <time>2022-08-27T01:10:39Z</time>
      </trkpt>
      <trkpt lat="45.71646" lon="6.76043">
        <ele>2059</ele>
        <time>2022-08-27T01:10:41Z</time>
      </trkpt>
      <trkpt lat="45.71647" lon="6.76047">
        <ele>2059</ele>
        <time>2022-08-27T01:10:43Z</time>
      </trkpt>
      <trkpt lat="45.71649" lon="6.76051">
        <ele>2059</ele>
        <time>2022-08-27T01:10:44Z</time>
      </trkpt>
      <trkpt lat="45.7165" lon="6.76053">
        <ele>2057</ele>
        <time>2022-08-27T01:10:45Z</time>
      </trkpt>
      <trkpt lat="45.71651" lon="6.76055">
        <ele>2057</ele>
        <time>2022-08-27T01:10:46Z</time>
      </trkpt>
      <trkpt lat="45.71653" lon="6.76056">
        <ele>2057</ele>
        <time>2022-08-27T01:10:47Z</time>
      </trkpt>
      <trkpt lat="45.71656" lon="6.76057">
        <ele>2057</ele>
        <time>2022-08-27T01:10:49Z</time>
      </trkpt>
      <trkpt lat="45.71658" lon="6.76058">
        <ele>2057</ele>
        <time>2022-08-27T01:10:51Z</time>
      </trkpt>
      <trkpt lat="45.7166" lon="6.76057">
        <ele>2058</ele>
        <time>2022-08-27T01:10:53Z</time>
      </trkpt>
      <trkpt lat="45.71662" lon="6.76056">
        <ele>2059</ele>
        <time>2022-08-27T01:10:55Z</time>
      </trkpt>
      <trkpt lat="45.71665" lon="6.76056">
        <ele>2059</ele>
        <time>2022-08-27T01:10:58Z</time>
      </trkpt>
      <trkpt lat="45.71666" lon="6.76056">
        <ele>2059</ele>
        <time>2022-08-27T01:11:00Z</time>
      </trkpt>
      <trkpt lat="45.71669" lon="6.76057">
        <ele>2061</ele>
        <time>2022-08-27T01:11:03Z</time>
      </trkpt>
      <trkpt lat="45.71671" lon="6.7606">
        <ele>2062</ele>
        <time>2022-08-27T01:11:06Z</time>
      </trkpt>
      <trkpt lat="45.71673" lon="6.76062">
        <ele>2063</ele>
        <time>2022-08-27T01:11:09Z</time>
      </trkpt>
      <trkpt lat="45.71674" lon="6.76064">
        <ele>2063</ele>
        <time>2022-08-27T01:11:12Z</time>
      </trkpt>
      <trkpt lat="45.71676" lon="6.76067">
        <ele>2064</ele>
        <time>2022-08-27T01:11:15Z</time>
      </trkpt>
      <trkpt lat="45.71678" lon="6.76069">
        <ele>2064</ele>
        <time>2022-08-27T01:11:17Z</time>
      </trkpt>
      <trkpt lat="45.71679" lon="6.76071">
        <ele>2066</ele>
        <time>2022-08-27T01:11:19Z</time>
      </trkpt>
      <trkpt lat="45.71681" lon="6.76073">
        <ele>2066</ele>
        <time>2022-08-27T01:11:22Z</time>
      </trkpt>
      <trkpt lat="45.71683" lon="6.76075">
        <ele>2067</ele>
        <time>2022-08-27T01:11:25Z</time>
      </trkpt>
      <trkpt lat="45.71685" lon="6.76078">
        <ele>2067</ele>
        <time>2022-08-27T01:11:28Z</time>
      </trkpt>
      <trkpt lat="45.71687" lon="6.7608">
        <ele>2068</ele>
        <time>2022-08-27T01:11:30Z</time>
      </trkpt>
      <trkpt lat="45.71688" lon="6.76082">
        <ele>2069</ele>
        <time>2022-08-27T01:11:32Z</time>
      </trkpt>
      <trkpt lat="45.7169" lon="6.76085">
        <ele>2069</ele>
        <time>2022-08-27T01:11:34Z</time>
      </trkpt>
      <trkpt lat="45.71691" lon="6.76087">
        <ele>2069</ele>
        <time>2022-08-27T01:11:36Z</time>
      </trkpt>
      <trkpt lat="45.71692" lon="6.76088">
        <ele>2070</ele>
        <time>2022-08-27T01:11:38Z</time>
      </trkpt>
      <trkpt lat="45.71694" lon="6.76091">
        <ele>2070</ele>
        <time>2022-08-27T01:11:40Z</time>
      </trkpt>
      <trkpt lat="45.71695" lon="6.76093">
        <ele>2071</ele>
        <time>2022-08-27T01:11:42Z</time>
      </trkpt>
      <trkpt lat="45.71697" lon="6.76095">
        <ele>2071</ele>
        <time>2022-08-27T01:11:44Z</time>
      </trkpt>
      <trkpt lat="45.71698" lon="6.76097">
        <ele>2072</ele>
        <time>2022-08-27T01:11:46Z</time>
      </trkpt>
      <trkpt lat="45.71699" lon="6.76099">
        <ele>2072</ele>
        <time>2022-08-27T01:11:48Z</time>
      </trkpt>
      <trkpt lat="45.71701" lon="6.76101">
        <ele>2073</ele>
        <time>2022-08-27T01:11:50Z</time>
      </trkpt>
      <trkpt lat="45.71702" lon="6.76103">
        <ele>2073</ele>
        <time>2022-08-27T01:11:52Z</time>
      </trkpt>
      <trkpt lat="45.71703" lon="6.76106">
        <ele>2074</ele>
        <time>2022-08-27T01:11:55Z</time>
      </trkpt>
      <trkpt lat="45.71704" lon="6.76109">
        <ele>2075</ele>
        <time>2022-08-27T01:11:57Z</time>
      </trkpt>
      <trkpt lat="45.71705" lon="6.76112">
        <ele>2075</ele>
        <time>2022-08-27T01:11:59Z</time>
      </trkpt>
      <trkpt lat="45.71706" lon="6.76114">
        <ele>2075</ele>
        <time>2022-08-27T01:12:01Z</time>
      </trkpt>
      <trkpt lat="45.71707" lon="6.76117">
        <ele>2075</ele>
        <time>2022-08-27T01:12:03Z</time>
      </trkpt>
      <trkpt lat="45.71708" lon="6.76119">
        <ele>2075</ele>
        <time>2022-08-27T01:12:05Z</time>
      </trkpt>
      <trkpt lat="45.71709" lon="6.76122">
        <ele>2075</ele>
        <time>2022-08-27T01:12:07Z</time>
      </trkpt>
      <trkpt lat="45.71711" lon="6.76125">
        <ele>2076</ele>
        <time>2022-08-27T01:12:09Z</time>
      </trkpt>
      <trkpt lat="45.71712" lon="6.76127">
        <ele>2076</ele>
        <time>2022-08-27T01:12:11Z</time>
      </trkpt>
      <trkpt lat="45.71714" lon="6.7613">
        <ele>2077</ele>
        <time>2022-08-27T01:12:13Z</time>
      </trkpt>
      <trkpt lat="45.71715" lon="6.76133">
        <ele>2077</ele>
        <time>2022-08-27T01:12:15Z</time>
      </trkpt>
      <trkpt lat="45.71716" lon="6.76136">
        <ele>2077</ele>
        <time>2022-08-27T01:12:17Z</time>
      </trkpt>
      <trkpt lat="45.71718" lon="6.76139">
        <ele>2077</ele>
        <time>2022-08-27T01:12:19Z</time>
      </trkpt>
      <trkpt lat="45.71719" lon="6.76142">
        <ele>2078</ele>
        <time>2022-08-27T01:12:21Z</time>
      </trkpt>
      <trkpt lat="45.7172" lon="6.76145">
        <ele>2078</ele>
        <time>2022-08-27T01:12:23Z</time>
      </trkpt>
      <trkpt lat="45.71722" lon="6.76148">
        <ele>2079</ele>
        <time>2022-08-27T01:12:25Z</time>
      </trkpt>
      <trkpt lat="45.71723" lon="6.76151">
        <ele>2079</ele>
        <time>2022-08-27T01:12:27Z</time>
      </trkpt>
      <trkpt lat="45.71725" lon="6.76154">
        <ele>2079</ele>
        <time>2022-08-27T01:12:29Z</time>
      </trkpt>
      <trkpt lat="45.71727" lon="6.76157">
        <ele>2079</ele>
        <time>2022-08-27T01:12:31Z</time>
      </trkpt>
      <trkpt lat="45.71729" lon="6.7616">
        <ele>2079</ele>
        <time>2022-08-27T01:12:33Z</time>
      </trkpt>
      <trkpt lat="45.71731" lon="6.76163">
        <ele>2079</ele>
        <time>2022-08-27T01:12:35Z</time>
      </trkpt>
      <trkpt lat="45.71733" lon="6.76165">
        <ele>2079</ele>
        <time>2022-08-27T01:12:37Z</time>
      </trkpt>
      <trkpt lat="45.71735" lon="6.76168">
        <ele>2080</ele>
        <time>2022-08-27T01:12:39Z</time>
      </trkpt>
      <trkpt lat="45.71737" lon="6.7617">
        <ele>2080</ele>
        <time>2022-08-27T01:12:41Z</time>
      </trkpt>
      <trkpt lat="45.7174" lon="6.76172">
        <ele>2080</ele>
        <time>2022-08-27T01:12:43Z</time>
      </trkpt>
      <trkpt lat="45.71742" lon="6.76174">
        <ele>2080</ele>
        <time>2022-08-27T01:12:45Z</time>
      </trkpt>
      <trkpt lat="45.71745" lon="6.76176">
        <ele>2080</ele>
        <time>2022-08-27T01:12:47Z</time>
      </trkpt>
      <trkpt lat="45.71748" lon="6.76177">
        <ele>2080</ele>
        <time>2022-08-27T01:12:49Z</time>
      </trkpt>
      <trkpt lat="45.7175" lon="6.7618">
        <ele>2080</ele>
        <time>2022-08-27T01:12:51Z</time>
      </trkpt>
      <trkpt lat="45.71752" lon="6.76182">
        <ele>2081</ele>
        <time>2022-08-27T01:12:53Z</time>
      </trkpt>
      <trkpt lat="45.71753" lon="6.76185">
        <ele>2081</ele>
        <time>2022-08-27T01:12:55Z</time>
      </trkpt>
      <trkpt lat="45.71754" lon="6.76188">
        <ele>2081</ele>
        <time>2022-08-27T01:12:57Z</time>
      </trkpt>
      <trkpt lat="45.71757" lon="6.76191">
        <ele>2082</ele>
        <time>2022-08-27T01:12:59Z</time>
      </trkpt>
      <trkpt lat="45.71758" lon="6.76193">
        <ele>2082</ele>
        <time>2022-08-27T01:13:00Z</time>
      </trkpt>
      <trkpt lat="45.71759" lon="6.76195">
        <ele>2082</ele>
        <time>2022-08-27T01:13:02Z</time>
      </trkpt>
      <trkpt lat="45.71761" lon="6.76198">
        <ele>2082</ele>
        <time>2022-08-27T01:13:04Z</time>
      </trkpt>
      <trkpt lat="45.71763" lon="6.76202">
        <ele>2082</ele>
        <time>2022-08-27T01:13:06Z</time>
      </trkpt>
      <trkpt lat="45.71765" lon="6.76204">
        <ele>2083</ele>
        <time>2022-08-27T01:13:08Z</time>
      </trkpt>
      <trkpt lat="45.71767" lon="6.76206">
        <ele>2083</ele>
        <time>2022-08-27T01:13:10Z</time>
      </trkpt>
      <trkpt lat="45.71769" lon="6.76209">
        <ele>2083</ele>
        <time>2022-08-27T01:13:12Z</time>
      </trkpt>
      <trkpt lat="45.71771" lon="6.76211">
        <ele>2083</ele>
        <time>2022-08-27T01:13:14Z</time>
      </trkpt>
      <trkpt lat="45.71773" lon="6.76212">
        <ele>2084</ele>
        <time>2022-08-27T01:13:16Z</time>
      </trkpt>
      <trkpt lat="45.71775" lon="6.76215">
        <ele>2084</ele>
        <time>2022-08-27T01:13:18Z</time>
      </trkpt>
      <trkpt lat="45.71777" lon="6.76217">
        <ele>2084</ele>
        <time>2022-08-27T01:13:20Z</time>
      </trkpt>
      <trkpt lat="45.7178" lon="6.7622">
        <ele>2085</ele>
        <time>2022-08-27T01:13:23Z</time>
      </trkpt>
      <trkpt lat="45.71782" lon="6.76222">
        <ele>2085</ele>
        <time>2022-08-27T01:13:25Z</time>
      </trkpt>
      <trkpt lat="45.71784" lon="6.76224">
        <ele>2086</ele>
        <time>2022-08-27T01:13:27Z</time>
      </trkpt>
      <trkpt lat="45.71786" lon="6.76225">
        <ele>2086</ele>
        <time>2022-08-27T01:13:29Z</time>
      </trkpt>
      <trkpt lat="45.71789" lon="6.76227">
        <ele>2087</ele>
        <time>2022-08-27T01:13:31Z</time>
      </trkpt>
      <trkpt lat="45.71791" lon="6.76228">
        <ele>2087</ele>
        <time>2022-08-27T01:13:33Z</time>
      </trkpt>
      <trkpt lat="45.71793" lon="6.7623">
        <ele>2087</ele>
        <time>2022-08-27T01:13:35Z</time>
      </trkpt>
      <trkpt lat="45.71795" lon="6.76233">
        <ele>2087</ele>
        <time>2022-08-27T01:13:37Z</time>
      </trkpt>
      <trkpt lat="45.71797" lon="6.76234">
        <ele>2087</ele>
        <time>2022-08-27T01:13:39Z</time>
      </trkpt>
      <trkpt lat="45.71799" lon="6.76235">
        <ele>2088</ele>
        <time>2022-08-27T01:13:41Z</time>
      </trkpt>
      <trkpt lat="45.71802" lon="6.76238">
        <ele>2088</ele>
        <time>2022-08-27T01:13:43Z</time>
      </trkpt>
      <trkpt lat="45.71803" lon="6.76239">
        <ele>2088</ele>
        <time>2022-08-27T01:13:45Z</time>
      </trkpt>
      <trkpt lat="45.71805" lon="6.76241">
        <ele>2089</ele>
        <time>2022-08-27T01:13:47Z</time>
      </trkpt>
      <trkpt lat="45.71807" lon="6.76242">
        <ele>2090</ele>
        <time>2022-08-27T01:13:49Z</time>
      </trkpt>
      <trkpt lat="45.7181" lon="6.76245">
        <ele>2090</ele>
        <time>2022-08-27T01:13:51Z</time>
      </trkpt>
      <trkpt lat="45.71812" lon="6.76247">
        <ele>2090</ele>
        <time>2022-08-27T01:13:54Z</time>
      </trkpt>
      <trkpt lat="45.71814" lon="6.76248">
        <ele>2090</ele>
        <time>2022-08-27T01:13:56Z</time>
      </trkpt>
      <trkpt lat="45.71816" lon="6.76251">
        <ele>2092</ele>
        <time>2022-08-27T01:13:58Z</time>
      </trkpt>
      <trkpt lat="45.71817" lon="6.76253">
        <ele>2092</ele>
        <time>2022-08-27T01:14:00Z</time>
      </trkpt>
      <trkpt lat="45.71819" lon="6.76255">
        <ele>2092</ele>
        <time>2022-08-27T01:14:02Z</time>
      </trkpt>
      <trkpt lat="45.71821" lon="6.76257">
        <ele>2093</ele>
        <time>2022-08-27T01:14:04Z</time>
      </trkpt>
      <trkpt lat="45.71822" lon="6.76259">
        <ele>2094</ele>
        <time>2022-08-27T01:14:06Z</time>
      </trkpt>
      <trkpt lat="45.71823" lon="6.76261">
        <ele>2094</ele>
        <time>2022-08-27T01:14:08Z</time>
      </trkpt>
      <trkpt lat="45.71825" lon="6.76264">
        <ele>2095</ele>
        <time>2022-08-27T01:14:10Z</time>
      </trkpt>
      <trkpt lat="45.71826" lon="6.76267">
        <ele>2095</ele>
        <time>2022-08-27T01:14:12Z</time>
      </trkpt>
      <trkpt lat="45.71827" lon="6.76269">
        <ele>2096</ele>
        <time>2022-08-27T01:14:14Z</time>
      </trkpt>
      <trkpt lat="45.71829" lon="6.76271">
        <ele>2096</ele>
        <time>2022-08-27T01:14:16Z</time>
      </trkpt>
      <trkpt lat="45.71831" lon="6.76273">
        <ele>2096</ele>
        <time>2022-08-27T01:14:18Z</time>
      </trkpt>
      <trkpt lat="45.71832" lon="6.76276">
        <ele>2097</ele>
        <time>2022-08-27T01:14:20Z</time>
      </trkpt>
      <trkpt lat="45.71833" lon="6.76278">
        <ele>2097</ele>
        <time>2022-08-27T01:14:22Z</time>
      </trkpt>
      <trkpt lat="45.71834" lon="6.76281">
        <ele>2098</ele>
        <time>2022-08-27T01:14:24Z</time>
      </trkpt>
      <trkpt lat="45.71835" lon="6.76283">
        <ele>2099</ele>
        <time>2022-08-27T01:14:26Z</time>
      </trkpt>
      <trkpt lat="45.71836" lon="6.76285">
        <ele>2100</ele>
        <time>2022-08-27T01:14:29Z</time>
      </trkpt>
      <trkpt lat="45.71838" lon="6.76288">
        <ele>2100</ele>
        <time>2022-08-27T01:14:32Z</time>
      </trkpt>
      <trkpt lat="45.71839" lon="6.7629">
        <ele>2101</ele>
        <time>2022-08-27T01:14:35Z</time>
      </trkpt>
      <trkpt lat="45.7184" lon="6.76293">
        <ele>2101</ele>
        <time>2022-08-27T01:14:38Z</time>
      </trkpt>
      <trkpt lat="45.71841" lon="6.76296">
        <ele>2101</ele>
        <time>2022-08-27T01:14:40Z</time>
      </trkpt>
      <trkpt lat="45.71843" lon="6.76296">
        <ele>2101</ele>
        <time>2022-08-27T01:14:42Z</time>
      </trkpt>
      <trkpt lat="45.71845" lon="6.76296">
        <ele>2102</ele>
        <time>2022-08-27T01:14:44Z</time>
      </trkpt>
      <trkpt lat="45.71847" lon="6.76295">
        <ele>2103</ele>
        <time>2022-08-27T01:14:46Z</time>
      </trkpt>
      <trkpt lat="45.7185" lon="6.76294">
        <ele>2104</ele>
        <time>2022-08-27T01:14:49Z</time>
      </trkpt>
      <trkpt lat="45.71851" lon="6.76295">
        <ele>2104</ele>
        <time>2022-08-27T01:14:51Z</time>
      </trkpt>
      <trkpt lat="45.71853" lon="6.76297">
        <ele>2105</ele>
        <time>2022-08-27T01:14:53Z</time>
      </trkpt>
      <trkpt lat="45.71854" lon="6.76299">
        <ele>2105</ele>
        <time>2022-08-27T01:14:55Z</time>
      </trkpt>
      <trkpt lat="45.71856" lon="6.76301">
        <ele>2105</ele>
        <time>2022-08-27T01:14:57Z</time>
      </trkpt>
      <trkpt lat="45.71857" lon="6.76303">
        <ele>2105</ele>
        <time>2022-08-27T01:14:58Z</time>
      </trkpt>
      <trkpt lat="45.71858" lon="6.76305">
        <ele>2106</ele>
        <time>2022-08-27T01:15:01Z</time>
      </trkpt>
      <trkpt lat="45.71859" lon="6.76308">
        <ele>2106</ele>
        <time>2022-08-27T01:15:03Z</time>
      </trkpt>
      <trkpt lat="45.71861" lon="6.7631">
        <ele>2107</ele>
        <time>2022-08-27T01:15:05Z</time>
      </trkpt>
      <trkpt lat="45.71863" lon="6.76312">
        <ele>2107</ele>
        <time>2022-08-27T01:15:07Z</time>
      </trkpt>
      <trkpt lat="45.71864" lon="6.76314">
        <ele>2107</ele>
        <time>2022-08-27T01:15:09Z</time>
      </trkpt>
      <trkpt lat="45.71866" lon="6.76316">
        <ele>2107</ele>
        <time>2022-08-27T01:15:11Z</time>
      </trkpt>
      <trkpt lat="45.71868" lon="6.76318">
        <ele>2108</ele>
        <time>2022-08-27T01:15:13Z</time>
      </trkpt>
      <trkpt lat="45.7187" lon="6.76321">
        <ele>2108</ele>
        <time>2022-08-27T01:15:15Z</time>
      </trkpt>
      <trkpt lat="45.71871" lon="6.76324">
        <ele>2109</ele>
        <time>2022-08-27T01:15:17Z</time>
      </trkpt>
      <trkpt lat="45.71872" lon="6.76326">
        <ele>2110</ele>
        <time>2022-08-27T01:15:19Z</time>
      </trkpt>
      <trkpt lat="45.71873" lon="6.76328">
        <ele>2110</ele>
        <time>2022-08-27T01:15:21Z</time>
      </trkpt>
      <trkpt lat="45.71875" lon="6.76331">
        <ele>2110</ele>
        <time>2022-08-27T01:15:23Z</time>
      </trkpt>
      <trkpt lat="45.71877" lon="6.76333">
        <ele>2111</ele>
        <time>2022-08-27T01:15:25Z</time>
      </trkpt>
      <trkpt lat="45.71878" lon="6.76336">
        <ele>2111</ele>
        <time>2022-08-27T01:15:27Z</time>
      </trkpt>
      <trkpt lat="45.71879" lon="6.76338">
        <ele>2112</ele>
        <time>2022-08-27T01:15:29Z</time>
      </trkpt>
      <trkpt lat="45.71881" lon="6.7634">
        <ele>2112</ele>
        <time>2022-08-27T01:15:31Z</time>
      </trkpt>
      <trkpt lat="45.71883" lon="6.76342">
        <ele>2112</ele>
        <time>2022-08-27T01:15:33Z</time>
      </trkpt>
      <trkpt lat="45.71884" lon="6.76344">
        <ele>2112</ele>
        <time>2022-08-27T01:15:35Z</time>
      </trkpt>
      <trkpt lat="45.71886" lon="6.76347">
        <ele>2112</ele>
        <time>2022-08-27T01:15:37Z</time>
      </trkpt>
      <trkpt lat="45.71887" lon="6.7635">
        <ele>2113</ele>
        <time>2022-08-27T01:15:39Z</time>
      </trkpt>
      <trkpt lat="45.71889" lon="6.76352">
        <ele>2113</ele>
        <time>2022-08-27T01:15:41Z</time>
      </trkpt>
      <trkpt lat="45.7189" lon="6.76355">
        <ele>2114</ele>
        <time>2022-08-27T01:15:43Z</time>
      </trkpt>
      <trkpt lat="45.7189" lon="6.76358">
        <ele>2114</ele>
        <time>2022-08-27T01:15:45Z</time>
      </trkpt>
      <trkpt lat="45.71891" lon="6.76361">
        <ele>2114</ele>
        <time>2022-08-27T01:15:47Z</time>
      </trkpt>
      <trkpt lat="45.71892" lon="6.76364">
        <ele>2114</ele>
        <time>2022-08-27T01:15:49Z</time>
      </trkpt>
      <trkpt lat="45.71893" lon="6.76367">
        <ele>2115</ele>
        <time>2022-08-27T01:15:51Z</time>
      </trkpt>
      <trkpt lat="45.71894" lon="6.7637">
        <ele>2115</ele>
        <time>2022-08-27T01:15:53Z</time>
      </trkpt>
      <trkpt lat="45.71895" lon="6.76373">
        <ele>2116</ele>
        <time>2022-08-27T01:15:57Z</time>
      </trkpt>
      <trkpt lat="45.71896" lon="6.76376">
        <ele>2116</ele>
        <time>2022-08-27T01:16:00Z</time>
      </trkpt>
      <trkpt lat="45.71897" lon="6.76379">
        <ele>2118</ele>
        <time>2022-08-27T01:16:03Z</time>
      </trkpt>
      <trkpt lat="45.71899" lon="6.76381">
        <ele>2119</ele>
        <time>2022-08-27T01:16:05Z</time>
      </trkpt>
      <trkpt lat="45.719" lon="6.76384">
        <ele>2119</ele>
        <time>2022-08-27T01:16:07Z</time>
      </trkpt>
      <trkpt lat="45.71901" lon="6.76387">
        <ele>2120</ele>
        <time>2022-08-27T01:16:09Z</time>
      </trkpt>
      <trkpt lat="45.71901" lon="6.76389">
        <ele>2120</ele>
        <time>2022-08-27T01:16:11Z</time>
      </trkpt>
      <trkpt lat="45.71902" lon="6.76392">
        <ele>2121</ele>
        <time>2022-08-27T01:16:14Z</time>
      </trkpt>
      <trkpt lat="45.71902" lon="6.76396">
        <ele>2121</ele>
        <time>2022-08-27T01:16:17Z</time>
      </trkpt>
      <trkpt lat="45.71902" lon="6.76399">
        <ele>2123</ele>
        <time>2022-08-27T01:16:20Z</time>
      </trkpt>
      <trkpt lat="45.71902" lon="6.76402">
        <ele>2123</ele>
        <time>2022-08-27T01:16:22Z</time>
      </trkpt>
      <trkpt lat="45.71901" lon="6.76405">
        <ele>2124</ele>
        <time>2022-08-27T01:16:24Z</time>
      </trkpt>
      <trkpt lat="45.71901" lon="6.76407">
        <ele>2124</ele>
        <time>2022-08-27T01:16:26Z</time>
      </trkpt>
      <trkpt lat="45.719" lon="6.76411">
        <ele>2125</ele>
        <time>2022-08-27T01:16:29Z</time>
      </trkpt>
      <trkpt lat="45.719" lon="6.76414">
        <ele>2126</ele>
        <time>2022-08-27T01:16:32Z</time>
      </trkpt>
      <trkpt lat="45.71899" lon="6.76417">
        <ele>2126</ele>
        <time>2022-08-27T01:16:34Z</time>
      </trkpt>
      <trkpt lat="45.71899" lon="6.7642">
        <ele>2127</ele>
        <time>2022-08-27T01:16:37Z</time>
      </trkpt>
      <trkpt lat="45.71899" lon="6.76423">
        <ele>2127</ele>
        <time>2022-08-27T01:16:39Z</time>
      </trkpt>
      <trkpt lat="45.71899" lon="6.76427">
        <ele>2127</ele>
        <time>2022-08-27T01:16:42Z</time>
      </trkpt>
      <trkpt lat="45.71899" lon="6.76431">
        <ele>2128</ele>
        <time>2022-08-27T01:16:45Z</time>
      </trkpt>
      <trkpt lat="45.71899" lon="6.76433">
        <ele>2129</ele>
        <time>2022-08-27T01:16:47Z</time>
      </trkpt>
      <trkpt lat="45.71899" lon="6.76436">
        <ele>2129</ele>
        <time>2022-08-27T01:16:49Z</time>
      </trkpt>
      <trkpt lat="45.71899" lon="6.76439">
        <ele>2130</ele>
        <time>2022-08-27T01:16:51Z</time>
      </trkpt>
      <trkpt lat="45.719" lon="6.76442">
        <ele>2131</ele>
        <time>2022-08-27T01:16:53Z</time>
      </trkpt>
      <trkpt lat="45.71901" lon="6.76445">
        <ele>2131</ele>
        <time>2022-08-27T01:16:56Z</time>
      </trkpt>
      <trkpt lat="45.71902" lon="6.76448">
        <ele>2130</ele>
        <time>2022-08-27T01:16:58Z</time>
      </trkpt>
      <trkpt lat="45.71903" lon="6.76451">
        <ele>2131</ele>
        <time>2022-08-27T01:17:00Z</time>
      </trkpt>
      <trkpt lat="45.71904" lon="6.76454">
        <ele>2132</ele>
        <time>2022-08-27T01:17:02Z</time>
      </trkpt>
      <trkpt lat="45.71905" lon="6.76456">
        <ele>2132</ele>
        <time>2022-08-27T01:17:04Z</time>
      </trkpt>
      <trkpt lat="45.71906" lon="6.76459">
        <ele>2132</ele>
        <time>2022-08-27T01:17:06Z</time>
      </trkpt>
      <trkpt lat="45.71907" lon="6.76462">
        <ele>2132</ele>
        <time>2022-08-27T01:17:08Z</time>
      </trkpt>
      <trkpt lat="45.71908" lon="6.76465">
        <ele>2132</ele>
        <time>2022-08-27T01:17:10Z</time>
      </trkpt>
      <trkpt lat="45.71909" lon="6.76468">
        <ele>2132</ele>
        <time>2022-08-27T01:17:12Z</time>
      </trkpt>
      <trkpt lat="45.7191" lon="6.7647">
        <ele>2133</ele>
        <time>2022-08-27T01:17:14Z</time>
      </trkpt>
      <trkpt lat="45.71912" lon="6.76473">
        <ele>2133</ele>
        <time>2022-08-27T01:17:16Z</time>
      </trkpt>
      <trkpt lat="45.71913" lon="6.76476">
        <ele>2133</ele>
        <time>2022-08-27T01:17:18Z</time>
      </trkpt>
      <trkpt lat="45.71913" lon="6.76479">
        <ele>2134</ele>
        <time>2022-08-27T01:17:20Z</time>
      </trkpt>
      <trkpt lat="45.71914" lon="6.76482">
        <ele>2135</ele>
        <time>2022-08-27T01:17:22Z</time>
      </trkpt>
      <trkpt lat="45.71914" lon="6.76485">
        <ele>2135</ele>
        <time>2022-08-27T01:17:24Z</time>
      </trkpt>
      <trkpt lat="45.71914" lon="6.76488">
        <ele>2136</ele>
        <time>2022-08-27T01:17:26Z</time>
      </trkpt>
      <trkpt lat="45.71914" lon="6.76491">
        <ele>2136</ele>
        <time>2022-08-27T01:17:28Z</time>
      </trkpt>
      <trkpt lat="45.71914" lon="6.76495">
        <ele>2136</ele>
        <time>2022-08-27T01:17:30Z</time>
      </trkpt>
      <trkpt lat="45.71914" lon="6.76498">
        <ele>2136</ele>
        <time>2022-08-27T01:17:32Z</time>
      </trkpt>
      <trkpt lat="45.71915" lon="6.76502">
        <ele>2136</ele>
        <time>2022-08-27T01:17:34Z</time>
      </trkpt>
      <trkpt lat="45.71915" lon="6.76505">
        <ele>2137</ele>
        <time>2022-08-27T01:17:36Z</time>
      </trkpt>
      <trkpt lat="45.71915" lon="6.76508">
        <ele>2137</ele>
        <time>2022-08-27T01:17:38Z</time>
      </trkpt>
      <trkpt lat="45.71916" lon="6.76511">
        <ele>2137</ele>
        <time>2022-08-27T01:17:40Z</time>
      </trkpt>
      <trkpt lat="45.71917" lon="6.76514">
        <ele>2137</ele>
        <time>2022-08-27T01:17:42Z</time>
      </trkpt>
      <trkpt lat="45.71917" lon="6.76517">
        <ele>2138</ele>
        <time>2022-08-27T01:17:44Z</time>
      </trkpt>
      <trkpt lat="45.71918" lon="6.7652">
        <ele>2138</ele>
        <time>2022-08-27T01:17:46Z</time>
      </trkpt>
      <trkpt lat="45.71919" lon="6.76523">
        <ele>2139</ele>
        <time>2022-08-27T01:17:48Z</time>
      </trkpt>
      <trkpt lat="45.7192" lon="6.76526">
        <ele>2139</ele>
        <time>2022-08-27T01:17:50Z</time>
      </trkpt>
      <trkpt lat="45.71921" lon="6.76529">
        <ele>2139</ele>
        <time>2022-08-27T01:17:52Z</time>
      </trkpt>
      <trkpt lat="45.71921" lon="6.76532">
        <ele>2139</ele>
        <time>2022-08-27T01:17:54Z</time>
      </trkpt>
      <trkpt lat="45.71922" lon="6.76535">
        <ele>2140</ele>
        <time>2022-08-27T01:17:56Z</time>
      </trkpt>
      <trkpt lat="45.71923" lon="6.76537">
        <ele>2140</ele>
        <time>2022-08-27T01:17:58Z</time>
      </trkpt>
      <trkpt lat="45.71924" lon="6.7654">
        <ele>2141</ele>
        <time>2022-08-27T01:18:00Z</time>
      </trkpt>
      <trkpt lat="45.71924" lon="6.76543">
        <ele>2141</ele>
        <time>2022-08-27T01:18:02Z</time>
      </trkpt>
      <trkpt lat="45.71925" lon="6.76546">
        <ele>2141</ele>
        <time>2022-08-27T01:18:04Z</time>
      </trkpt>
      <trkpt lat="45.71926" lon="6.76549">
        <ele>2141</ele>
        <time>2022-08-27T01:18:06Z</time>
      </trkpt>
      <trkpt lat="45.71927" lon="6.76551">
        <ele>2142</ele>
        <time>2022-08-27T01:18:08Z</time>
      </trkpt>
      <trkpt lat="45.71929" lon="6.76554">
        <ele>2142</ele>
        <time>2022-08-27T01:18:10Z</time>
      </trkpt>
      <trkpt lat="45.7193" lon="6.76556">
        <ele>2144</ele>
        <time>2022-08-27T01:18:12Z</time>
      </trkpt>
      <trkpt lat="45.71931" lon="6.76558">
        <ele>2144</ele>
        <time>2022-08-27T01:18:14Z</time>
      </trkpt>
      <trkpt lat="45.71933" lon="6.7656">
        <ele>2144</ele>
        <time>2022-08-27T01:18:16Z</time>
      </trkpt>
      <trkpt lat="45.71934" lon="6.76562">
        <ele>2145</ele>
        <time>2022-08-27T01:18:18Z</time>
      </trkpt>
      <trkpt lat="45.71934" lon="6.76565">
        <ele>2145</ele>
        <time>2022-08-27T01:18:20Z</time>
      </trkpt>
      <trkpt lat="45.71935" lon="6.76569">
        <ele>2146</ele>
        <time>2022-08-27T01:18:23Z</time>
      </trkpt>
      <trkpt lat="45.71936" lon="6.76571">
        <ele>2146</ele>
        <time>2022-08-27T01:18:25Z</time>
      </trkpt>
      <trkpt lat="45.71938" lon="6.76572">
        <ele>2146</ele>
        <time>2022-08-27T01:18:27Z</time>
      </trkpt>
      <trkpt lat="45.7194" lon="6.76574">
        <ele>2147</ele>
        <time>2022-08-27T01:18:29Z</time>
      </trkpt>
      <trkpt lat="45.71942" lon="6.76575">
        <ele>2147</ele>
        <time>2022-08-27T01:18:31Z</time>
      </trkpt>
      <trkpt lat="45.71943" lon="6.76577">
        <ele>2147</ele>
        <time>2022-08-27T01:18:33Z</time>
      </trkpt>
      <trkpt lat="45.71945" lon="6.76579">
        <ele>2148</ele>
        <time>2022-08-27T01:18:35Z</time>
      </trkpt>
      <trkpt lat="45.71946" lon="6.76582">
        <ele>2148</ele>
        <time>2022-08-27T01:18:37Z</time>
      </trkpt>
      <trkpt lat="45.71947" lon="6.76585">
        <ele>2149</ele>
        <time>2022-08-27T01:18:39Z</time>
      </trkpt>
      <trkpt lat="45.71947" lon="6.76587">
        <ele>2149</ele>
        <time>2022-08-27T01:18:41Z</time>
      </trkpt>
      <trkpt lat="45.71947" lon="6.7659">
        <ele>2150</ele>
        <time>2022-08-27T01:18:43Z</time>
      </trkpt>
      <trkpt lat="45.71947" lon="6.76593">
        <ele>2151</ele>
        <time>2022-08-27T01:18:46Z</time>
      </trkpt>
      <trkpt lat="45.71947" lon="6.76596">
        <ele>2152</ele>
        <time>2022-08-27T01:18:49Z</time>
      </trkpt>
      <trkpt lat="45.71947" lon="6.76599">
        <ele>2152</ele>
        <time>2022-08-27T01:18:52Z</time>
      </trkpt>
      <trkpt lat="45.71947" lon="6.76602">
        <ele>2152</ele>
        <time>2022-08-27T01:18:54Z</time>
      </trkpt>
      <trkpt lat="45.71947" lon="6.76604">
        <ele>2153</ele>
        <time>2022-08-27T01:18:56Z</time>
      </trkpt>
      <trkpt lat="45.71949" lon="6.76608">
        <ele>2153</ele>
        <time>2022-08-27T01:18:58Z</time>
      </trkpt>
      <trkpt lat="45.71951" lon="6.76609">
        <ele>2153</ele>
        <time>2022-08-27T01:19:01Z</time>
      </trkpt>
      <trkpt lat="45.71953" lon="6.76608">
        <ele>2153</ele>
        <time>2022-08-27T01:19:03Z</time>
      </trkpt>
      <trkpt lat="45.71955" lon="6.76607">
        <ele>2153</ele>
        <time>2022-08-27T01:19:05Z</time>
      </trkpt>
      <trkpt lat="45.71957" lon="6.76608">
        <ele>2154</ele>
        <time>2022-08-27T01:19:07Z</time>
      </trkpt>
      <trkpt lat="45.71959" lon="6.7661">
        <ele>2154</ele>
        <time>2022-08-27T01:19:09Z</time>
      </trkpt>
      <trkpt lat="45.71961" lon="6.76612">
        <ele>2154</ele>
        <time>2022-08-27T01:19:12Z</time>
      </trkpt>
      <trkpt lat="45.71963" lon="6.76614">
        <ele>2155</ele>
        <time>2022-08-27T01:19:14Z</time>
      </trkpt>
      <trkpt lat="45.71964" lon="6.76615">
        <ele>2156</ele>
        <time>2022-08-27T01:19:17Z</time>
      </trkpt>
      <trkpt lat="45.71966" lon="6.76617">
        <ele>2157</ele>
        <time>2022-08-27T01:19:20Z</time>
      </trkpt>
      <trkpt lat="45.71968" lon="6.76618">
        <ele>2157</ele>
        <time>2022-08-27T01:19:23Z</time>
      </trkpt>
      <trkpt lat="45.7197" lon="6.7662">
        <ele>2158</ele>
        <time>2022-08-27T01:19:26Z</time>
      </trkpt>
      <trkpt lat="45.71973" lon="6.7662">
        <ele>2159</ele>
        <time>2022-08-27T01:19:29Z</time>
      </trkpt>
      <trkpt lat="45.71975" lon="6.7662">
        <ele>2159</ele>
        <time>2022-08-27T01:19:32Z</time>
      </trkpt>
      <trkpt lat="45.71977" lon="6.76621">
        <ele>2160</ele>
        <time>2022-08-27T01:19:34Z</time>
      </trkpt>
      <trkpt lat="45.7198" lon="6.76622">
        <ele>2160</ele>
        <time>2022-08-27T01:19:37Z</time>
      </trkpt>
      <trkpt lat="45.71982" lon="6.76624">
        <ele>2161</ele>
        <time>2022-08-27T01:19:40Z</time>
      </trkpt>
      <trkpt lat="45.71984" lon="6.76625">
        <ele>2161</ele>
        <time>2022-08-27T01:19:42Z</time>
      </trkpt>
      <trkpt lat="45.71986" lon="6.76626">
        <ele>2161</ele>
        <time>2022-08-27T01:19:44Z</time>
      </trkpt>
      <trkpt lat="45.71988" lon="6.76628">
        <ele>2162</ele>
        <time>2022-08-27T01:19:47Z</time>
      </trkpt>
      <trkpt lat="45.7199" lon="6.76629">
        <ele>2162</ele>
        <time>2022-08-27T01:19:49Z</time>
      </trkpt>
      <trkpt lat="45.71992" lon="6.76631">
        <ele>2163</ele>
        <time>2022-08-27T01:19:51Z</time>
      </trkpt>
      <trkpt lat="45.71993" lon="6.76632">
        <ele>2163</ele>
        <time>2022-08-27T01:19:53Z</time>
      </trkpt>
      <trkpt lat="45.71995" lon="6.76634">
        <ele>2164</ele>
        <time>2022-08-27T01:19:55Z</time>
      </trkpt>
      <trkpt lat="45.71997" lon="6.76635">
        <ele>2164</ele>
        <time>2022-08-27T01:19:57Z</time>
      </trkpt>
      <trkpt lat="45.71998" lon="6.76637">
        <ele>2164</ele>
        <time>2022-08-27T01:19:59Z</time>
      </trkpt>
      <trkpt lat="45.72" lon="6.76639">
        <ele>2165</ele>
        <time>2022-08-27T01:20:01Z</time>
      </trkpt>
      <trkpt lat="45.72002" lon="6.76641">
        <ele>2165</ele>
        <time>2022-08-27T01:20:03Z</time>
      </trkpt>
      <trkpt lat="45.72004" lon="6.76642">
        <ele>2165</ele>
        <time>2022-08-27T01:20:05Z</time>
      </trkpt>
      <trkpt lat="45.72006" lon="6.76643">
        <ele>2166</ele>
        <time>2022-08-27T01:20:07Z</time>
      </trkpt>
      <trkpt lat="45.72008" lon="6.76644">
        <ele>2166</ele>
        <time>2022-08-27T01:20:10Z</time>
      </trkpt>
      <trkpt lat="45.7201" lon="6.76646">
        <ele>2167</ele>
        <time>2022-08-27T01:20:13Z</time>
      </trkpt>
      <trkpt lat="45.72012" lon="6.76648">
        <ele>2167</ele>
        <time>2022-08-27T01:20:16Z</time>
      </trkpt>
      <trkpt lat="45.72014" lon="6.76651">
        <ele>2168</ele>
        <time>2022-08-27T01:20:19Z</time>
      </trkpt>
      <trkpt lat="45.72015" lon="6.76653">
        <ele>2168</ele>
        <time>2022-08-27T01:20:21Z</time>
      </trkpt>
      <trkpt lat="45.72017" lon="6.76655">
        <ele>2170</ele>
        <time>2022-08-27T01:20:24Z</time>
      </trkpt>
      <trkpt lat="45.72019" lon="6.76657">
        <ele>2170</ele>
        <time>2022-08-27T01:20:27Z</time>
      </trkpt>
      <trkpt lat="45.72022" lon="6.76658">
        <ele>2172</ele>
        <time>2022-08-27T01:20:30Z</time>
      </trkpt>
      <trkpt lat="45.72023" lon="6.7666">
        <ele>2173</ele>
        <time>2022-08-27T01:20:32Z</time>
      </trkpt>
      <trkpt lat="45.72025" lon="6.76662">
        <ele>2173</ele>
        <time>2022-08-27T01:20:35Z</time>
      </trkpt>
      <trkpt lat="45.72027" lon="6.76664">
        <ele>2174</ele>
        <time>2022-08-27T01:20:37Z</time>
      </trkpt>
      <trkpt lat="45.72028" lon="6.76666">
        <ele>2174</ele>
        <time>2022-08-27T01:20:39Z</time>
      </trkpt>
      <trkpt lat="45.7203" lon="6.76668">
        <ele>2174</ele>
        <time>2022-08-27T01:20:41Z</time>
      </trkpt>
      <trkpt lat="45.72031" lon="6.76671">
        <ele>2174</ele>
        <time>2022-08-27T01:20:43Z</time>
      </trkpt>
      <trkpt lat="45.72032" lon="6.76674">
        <ele>2174</ele>
        <time>2022-08-27T01:20:45Z</time>
      </trkpt>
      <trkpt lat="45.72032" lon="6.76677">
        <ele>2174</ele>
        <time>2022-08-27T01:20:47Z</time>
      </trkpt>
      <trkpt lat="45.72033" lon="6.7668">
        <ele>2175</ele>
        <time>2022-08-27T01:20:49Z</time>
      </trkpt>
      <trkpt lat="45.72034" lon="6.76684">
        <ele>2176</ele>
        <time>2022-08-27T01:20:51Z</time>
      </trkpt>
      <trkpt lat="45.72035" lon="6.76687">
        <ele>2176</ele>
        <time>2022-08-27T01:20:53Z</time>
      </trkpt>
      <trkpt lat="45.72036" lon="6.7669">
        <ele>2176</ele>
        <time>2022-08-27T01:20:55Z</time>
      </trkpt>
      <trkpt lat="45.72037" lon="6.76694">
        <ele>2176</ele>
        <time>2022-08-27T01:20:57Z</time>
      </trkpt>
      <trkpt lat="45.72038" lon="6.76697">
        <ele>2176</ele>
        <time>2022-08-27T01:20:59Z</time>
      </trkpt>
      <trkpt lat="45.7204" lon="6.76701">
        <ele>2176</ele>
        <time>2022-08-27T01:21:01Z</time>
      </trkpt>
      <trkpt lat="45.72042" lon="6.76703">
        <ele>2176</ele>
        <time>2022-08-27T01:21:03Z</time>
      </trkpt>
      <trkpt lat="45.72045" lon="6.76705">
        <ele>2176</ele>
        <time>2022-08-27T01:21:05Z</time>
      </trkpt>
      <trkpt lat="45.72046" lon="6.76707">
        <ele>2176</ele>
        <time>2022-08-27T01:21:06Z</time>
      </trkpt>
      <trkpt lat="45.72048" lon="6.76708">
        <ele>2176</ele>
        <time>2022-08-27T01:21:07Z</time>
      </trkpt>
      <trkpt lat="45.72049" lon="6.7671">
        <ele>2176</ele>
        <time>2022-08-27T01:21:08Z</time>
      </trkpt>
      <trkpt lat="45.72051" lon="6.76712">
        <ele>2176</ele>
        <time>2022-08-27T01:21:09Z</time>
      </trkpt>
      <trkpt lat="45.72053" lon="6.76713">
        <ele>2176</ele>
        <time>2022-08-27T01:21:10Z</time>
      </trkpt>
      <trkpt lat="45.72055" lon="6.76714">
        <ele>2176</ele>
        <time>2022-08-27T01:21:11Z</time>
      </trkpt>
      <trkpt lat="45.72057" lon="6.76716">
        <ele>2176</ele>
        <time>2022-08-27T01:21:12Z</time>
      </trkpt>
      <trkpt lat="45.72058" lon="6.76717">
        <ele>2177</ele>
        <time>2022-08-27T01:21:13Z</time>
      </trkpt>
      <trkpt lat="45.7206" lon="6.76718">
        <ele>2177</ele>
        <time>2022-08-27T01:21:14Z</time>
      </trkpt>
      <trkpt lat="45.72062" lon="6.76719">
        <ele>2177</ele>
        <time>2022-08-27T01:21:15Z</time>
      </trkpt>
      <trkpt lat="45.72064" lon="6.76721">
        <ele>2177</ele>
        <time>2022-08-27T01:21:16Z</time>
      </trkpt>
      <trkpt lat="45.72066" lon="6.76722">
        <ele>2176</ele>
        <time>2022-08-27T01:21:17Z</time>
      </trkpt>
      <trkpt lat="45.72069" lon="6.76724">
        <ele>2176</ele>
        <time>2022-08-27T01:21:18Z</time>
      </trkpt>
      <trkpt lat="45.7207" lon="6.76724">
        <ele>2176</ele>
        <time>2022-08-27T01:21:19Z</time>
      </trkpt>
      <trkpt lat="45.72072" lon="6.76726">
        <ele>2176</ele>
        <time>2022-08-27T01:21:20Z</time>
      </trkpt>
      <trkpt lat="45.72074" lon="6.76727">
        <ele>2176</ele>
        <time>2022-08-27T01:21:21Z</time>
      </trkpt>
      <trkpt lat="45.72077" lon="6.76729">
        <ele>2176</ele>
        <time>2022-08-27T01:21:22Z</time>
      </trkpt>
      <trkpt lat="45.72078" lon="6.7673">
        <ele>2176</ele>
        <time>2022-08-27T01:21:23Z</time>
      </trkpt>
      <trkpt lat="45.7208" lon="6.76731">
        <ele>2176</ele>
        <time>2022-08-27T01:21:24Z</time>
      </trkpt>
      <trkpt lat="45.72083" lon="6.76732">
        <ele>2176</ele>
        <time>2022-08-27T01:21:25Z</time>
      </trkpt>
      <trkpt lat="45.72084" lon="6.76733">
        <ele>2175</ele>
        <time>2022-08-27T01:21:26Z</time>
      </trkpt>
      <trkpt lat="45.72087" lon="6.76734">
        <ele>2175</ele>
        <time>2022-08-27T01:21:27Z</time>
      </trkpt>
      <trkpt lat="45.72088" lon="6.76735">
        <ele>2175</ele>
        <time>2022-08-27T01:21:28Z</time>
      </trkpt>
      <trkpt lat="45.7209" lon="6.76736">
        <ele>2175</ele>
        <time>2022-08-27T01:21:29Z</time>
      </trkpt>
      <trkpt lat="45.72091" lon="6.76737">
        <ele>2175</ele>
        <time>2022-08-27T01:21:30Z</time>
      </trkpt>
      <trkpt lat="45.72093" lon="6.76739">
        <ele>2175</ele>
        <time>2022-08-27T01:21:31Z</time>
      </trkpt>
      <trkpt lat="45.72095" lon="6.7674">
        <ele>2175</ele>
        <time>2022-08-27T01:21:32Z</time>
      </trkpt>
      <trkpt lat="45.72097" lon="6.76742">
        <ele>2175</ele>
        <time>2022-08-27T01:21:33Z</time>
      </trkpt>
      <trkpt lat="45.72099" lon="6.76743">
        <ele>2175</ele>
        <time>2022-08-27T01:21:34Z</time>
      </trkpt>
      <trkpt lat="45.72102" lon="6.76744">
        <ele>2175</ele>
        <time>2022-08-27T01:21:35Z</time>
      </trkpt>
      <trkpt lat="45.72103" lon="6.76745">
        <ele>2175</ele>
        <time>2022-08-27T01:21:36Z</time>
      </trkpt>
      <trkpt lat="45.72105" lon="6.76746">
        <ele>2175</ele>
        <time>2022-08-27T01:21:37Z</time>
      </trkpt>
      <trkpt lat="45.72107" lon="6.76747">
        <ele>2175</ele>
        <time>2022-08-27T01:21:38Z</time>
      </trkpt>
      <trkpt lat="45.7211" lon="6.76748">
        <ele>2175</ele>
        <time>2022-08-27T01:21:39Z</time>
      </trkpt>
      <trkpt lat="45.72112" lon="6.76749">
        <ele>2175</ele>
        <time>2022-08-27T01:21:40Z</time>
      </trkpt>
      <trkpt lat="45.72114" lon="6.7675">
        <ele>2175</ele>
        <time>2022-08-27T01:21:41Z</time>
      </trkpt>
      <trkpt lat="45.72117" lon="6.76751">
        <ele>2175</ele>
        <time>2022-08-27T01:21:42Z</time>
      </trkpt>
      <trkpt lat="45.72118" lon="6.76752">
        <ele>2174</ele>
        <time>2022-08-27T01:21:43Z</time>
      </trkpt>
      <trkpt lat="45.7212" lon="6.76753">
        <ele>2174</ele>
        <time>2022-08-27T01:21:44Z</time>
      </trkpt>
      <trkpt lat="45.72122" lon="6.76753">
        <ele>2174</ele>
        <time>2022-08-27T01:21:45Z</time>
      </trkpt>
      <trkpt lat="45.72124" lon="6.76754">
        <ele>2173</ele>
        <time>2022-08-27T01:21:46Z</time>
      </trkpt>
      <trkpt lat="45.72126" lon="6.76755">
        <ele>2173</ele>
        <time>2022-08-27T01:21:47Z</time>
      </trkpt>
      <trkpt lat="45.72128" lon="6.76756">
        <ele>2173</ele>
        <time>2022-08-27T01:21:48Z</time>
      </trkpt>
      <trkpt lat="45.7213" lon="6.76758">
        <ele>2173</ele>
        <time>2022-08-27T01:21:49Z</time>
      </trkpt>
      <trkpt lat="45.72132" lon="6.76761">
        <ele>2173</ele>
        <time>2022-08-27T01:21:50Z</time>
      </trkpt>
      <trkpt lat="45.72132" lon="6.76763">
        <ele>2172</ele>
        <time>2022-08-27T01:21:51Z</time>
      </trkpt>
      <trkpt lat="45.72132" lon="6.76767">
        <ele>2172</ele>
        <time>2022-08-27T01:21:53Z</time>
      </trkpt>
      <trkpt lat="45.72131" lon="6.76772">
        <ele>2170</ele>
        <time>2022-08-27T01:21:55Z</time>
      </trkpt>
      <trkpt lat="45.72131" lon="6.76777">
        <ele>2170</ele>
        <time>2022-08-27T01:21:56Z</time>
      </trkpt>
      <trkpt lat="45.7213" lon="6.76778">
        <ele>2170</ele>
        <time>2022-08-27T01:21:57Z</time>
      </trkpt>
      <trkpt lat="45.7213" lon="6.76782">
        <ele>2167</ele>
        <time>2022-08-27T01:21:58Z</time>
      </trkpt>
      <trkpt lat="45.72129" lon="6.76785">
        <ele>2167</ele>
        <time>2022-08-27T01:21:59Z</time>
      </trkpt>
      <trkpt lat="45.72128" lon="6.76788">
        <ele>2167</ele>
        <time>2022-08-27T01:22:00Z</time>
      </trkpt>
      <trkpt lat="45.72128" lon="6.76793">
        <ele>2167</ele>
        <time>2022-08-27T01:22:01Z</time>
      </trkpt>
      <trkpt lat="45.72127" lon="6.76795">
        <ele>2166</ele>
        <time>2022-08-27T01:22:02Z</time>
      </trkpt>
      <trkpt lat="45.72127" lon="6.76798">
        <ele>2166</ele>
        <time>2022-08-27T01:22:03Z</time>
      </trkpt>
      <trkpt lat="45.72127" lon="6.76802">
        <ele>2166</ele>
        <time>2022-08-27T01:22:04Z</time>
      </trkpt>
      <trkpt lat="45.72127" lon="6.76805">
        <ele>2165</ele>
        <time>2022-08-27T01:22:05Z</time>
      </trkpt>
      <trkpt lat="45.72126" lon="6.7681">
        <ele>2165</ele>
        <time>2022-08-27T01:22:06Z</time>
      </trkpt>
      <trkpt lat="45.72126" lon="6.76811">
        <ele>2164</ele>
        <time>2022-08-27T01:22:07Z</time>
      </trkpt>
      <trkpt lat="45.72126" lon="6.76814">
        <ele>2164</ele>
        <time>2022-08-27T01:22:08Z</time>
      </trkpt>
      <trkpt lat="45.72126" lon="6.76819">
        <ele>2164</ele>
        <time>2022-08-27T01:22:09Z</time>
      </trkpt>
      <trkpt lat="45.72126" lon="6.76821">
        <ele>2164</ele>
        <time>2022-08-27T01:22:10Z</time>
      </trkpt>
      <trkpt lat="45.72125" lon="6.76825">
        <ele>2164</ele>
        <time>2022-08-27T01:22:11Z</time>
      </trkpt>
      <trkpt lat="45.72125" lon="6.76827">
        <ele>2164</ele>
        <time>2022-08-27T01:22:12Z</time>
      </trkpt>
      <trkpt lat="45.72124" lon="6.76829">
        <ele>2164</ele>
        <time>2022-08-27T01:22:13Z</time>
      </trkpt>
      <trkpt lat="45.72124" lon="6.76832">
        <ele>2162</ele>
        <time>2022-08-27T01:22:14Z</time>
      </trkpt>
      <trkpt lat="45.72123" lon="6.76835">
        <ele>2162</ele>
        <time>2022-08-27T01:22:15Z</time>
      </trkpt>
      <trkpt lat="45.72123" lon="6.76838">
        <ele>2162</ele>
        <time>2022-08-27T01:22:16Z</time>
      </trkpt>
      <trkpt lat="45.72123" lon="6.76842">
        <ele>2161</ele>
        <time>2022-08-27T01:22:18Z</time>
      </trkpt>
      <trkpt lat="45.72124" lon="6.76845">
        <ele>2162</ele>
        <time>2022-08-27T01:22:20Z</time>
      </trkpt>
      <trkpt lat="45.72124" lon="6.76848">
        <ele>2162</ele>
        <time>2022-08-27T01:22:22Z</time>
      </trkpt>
      <trkpt lat="45.72123" lon="6.76851">
        <ele>2162</ele>
        <time>2022-08-27T01:22:24Z</time>
      </trkpt>
      <trkpt lat="45.72124" lon="6.76853">
        <ele>2163</ele>
        <time>2022-08-27T01:22:26Z</time>
      </trkpt>
      <trkpt lat="45.72124" lon="6.76857">
        <ele>2164</ele>
        <time>2022-08-27T01:22:29Z</time>
      </trkpt>
      <trkpt lat="45.72123" lon="6.76859">
        <ele>2164</ele>
        <time>2022-08-27T01:22:32Z</time>
      </trkpt>
      <trkpt lat="45.72123" lon="6.76863">
        <ele>2164</ele>
        <time>2022-08-27T01:22:34Z</time>
      </trkpt>
      <trkpt lat="45.72124" lon="6.76866">
        <ele>2165</ele>
        <time>2022-08-27T01:22:36Z</time>
      </trkpt>
      <trkpt lat="45.72124" lon="6.76869">
        <ele>2165</ele>
        <time>2022-08-27T01:22:38Z</time>
      </trkpt>
      <trkpt lat="45.72124" lon="6.76873">
        <ele>2166</ele>
        <time>2022-08-27T01:22:41Z</time>
      </trkpt>
      <trkpt lat="45.72125" lon="6.76875">
        <ele>2166</ele>
        <time>2022-08-27T01:22:44Z</time>
      </trkpt>
      <trkpt lat="45.72127" lon="6.76876">
        <ele>2167</ele>
        <time>2022-08-27T01:22:47Z</time>
      </trkpt>
      <trkpt lat="45.72129" lon="6.76873">
        <ele>2167</ele>
        <time>2022-08-27T01:22:50Z</time>
      </trkpt>
      <trkpt lat="45.72131" lon="6.76873">
        <ele>2167</ele>
        <time>2022-08-27T01:22:52Z</time>
      </trkpt>
      <trkpt lat="45.72134" lon="6.76874">
        <ele>2167</ele>
        <time>2022-08-27T01:22:54Z</time>
      </trkpt>
      <trkpt lat="45.72136" lon="6.76874">
        <ele>2167</ele>
        <time>2022-08-27T01:22:56Z</time>
      </trkpt>
      <trkpt lat="45.72138" lon="6.76874">
        <ele>2167</ele>
        <time>2022-08-27T01:22:58Z</time>
      </trkpt>
      <trkpt lat="45.7214" lon="6.76873">
        <ele>2167</ele>
        <time>2022-08-27T01:23:00Z</time>
      </trkpt>
      <trkpt lat="45.72142" lon="6.76873">
        <ele>2168</ele>
        <time>2022-08-27T01:23:02Z</time>
      </trkpt>
      <trkpt lat="45.72144" lon="6.76872">
        <ele>2170</ele>
        <time>2022-08-27T01:23:05Z</time>
      </trkpt>
      <trkpt lat="45.72147" lon="6.76871">
        <ele>2170</ele>
        <time>2022-08-27T01:23:08Z</time>
      </trkpt>
      <trkpt lat="45.72149" lon="6.76871">
        <ele>2170</ele>
        <time>2022-08-27T01:23:10Z</time>
      </trkpt>
      <trkpt lat="45.72151" lon="6.76872">
        <ele>2171</ele>
        <time>2022-08-27T01:23:12Z</time>
      </trkpt>
      <trkpt lat="45.72153" lon="6.76872">
        <ele>2172</ele>
        <time>2022-08-27T01:23:14Z</time>
      </trkpt>
      <trkpt lat="45.72155" lon="6.76872">
        <ele>2173</ele>
        <time>2022-08-27T01:23:16Z</time>
      </trkpt>
      <trkpt lat="45.72158" lon="6.76872">
        <ele>2173</ele>
        <time>2022-08-27T01:23:19Z</time>
      </trkpt>
      <trkpt lat="45.7216" lon="6.76871">
        <ele>2173</ele>
        <time>2022-08-27T01:23:22Z</time>
      </trkpt>
      <trkpt lat="45.72162" lon="6.7687">
        <ele>2174</ele>
        <time>2022-08-27T01:23:24Z</time>
      </trkpt>
      <trkpt lat="45.72164" lon="6.76869">
        <ele>2174</ele>
        <time>2022-08-27T01:23:26Z</time>
      </trkpt>
      <trkpt lat="45.72166" lon="6.76868">
        <ele>2175</ele>
        <time>2022-08-27T01:23:29Z</time>
      </trkpt>
      <trkpt lat="45.72168" lon="6.76865">
        <ele>2176</ele>
        <time>2022-08-27T01:23:32Z</time>
      </trkpt>
      <trkpt lat="45.72169" lon="6.76865">
        <ele>2177</ele>
        <time>2022-08-27T01:23:35Z</time>
      </trkpt>
      <trkpt lat="45.72172" lon="6.76865">
        <ele>2179</ele>
        <time>2022-08-27T01:23:39Z</time>
      </trkpt>
      <trkpt lat="45.72174" lon="6.76864">
        <ele>2179</ele>
        <time>2022-08-27T01:23:42Z</time>
      </trkpt>
      <trkpt lat="45.72175" lon="6.76863">
        <ele>2180</ele>
        <time>2022-08-27T01:23:45Z</time>
      </trkpt>
      <trkpt lat="45.72177" lon="6.76862">
        <ele>2180</ele>
        <time>2022-08-27T01:23:48Z</time>
      </trkpt>
      <trkpt lat="45.7218" lon="6.76861">
        <ele>2180</ele>
        <time>2022-08-27T01:23:50Z</time>
      </trkpt>
      <trkpt lat="45.72181" lon="6.76861">
        <ele>2181</ele>
        <time>2022-08-27T01:23:52Z</time>
      </trkpt>
      <trkpt lat="45.72183" lon="6.7686">
        <ele>2181</ele>
        <time>2022-08-27T01:23:54Z</time>
      </trkpt>
      <trkpt lat="45.72185" lon="6.76859">
        <ele>2182</ele>
        <time>2022-08-27T01:23:56Z</time>
      </trkpt>
      <trkpt lat="45.72187" lon="6.76859">
        <ele>2182</ele>
        <time>2022-08-27T01:23:58Z</time>
      </trkpt>
      <trkpt lat="45.72189" lon="6.76858">
        <ele>2182</ele>
        <time>2022-08-27T01:24:00Z</time>
      </trkpt>
      <trkpt lat="45.72191" lon="6.76857">
        <ele>2183</ele>
        <time>2022-08-27T01:24:02Z</time>
      </trkpt>
      <trkpt lat="45.72193" lon="6.76856">
        <ele>2183</ele>
        <time>2022-08-27T01:24:04Z</time>
      </trkpt>
      <trkpt lat="45.72194" lon="6.76855">
        <ele>2184</ele>
        <time>2022-08-27T01:24:06Z</time>
      </trkpt>
      <trkpt lat="45.72196" lon="6.76854">
        <ele>2184</ele>
        <time>2022-08-27T01:24:08Z</time>
      </trkpt>
      <trkpt lat="45.72198" lon="6.76853">
        <ele>2184</ele>
        <time>2022-08-27T01:24:10Z</time>
      </trkpt>
      <trkpt lat="45.722" lon="6.76853">
        <ele>2184</ele>
        <time>2022-08-27T01:24:12Z</time>
      </trkpt>
      <trkpt lat="45.72202" lon="6.76853">
        <ele>2184</ele>
        <time>2022-08-27T01:24:14Z</time>
      </trkpt>
      <trkpt lat="45.72205" lon="6.76852">
        <ele>2185</ele>
        <time>2022-08-27T01:24:16Z</time>
      </trkpt>
      <trkpt lat="45.72207" lon="6.76852">
        <ele>2185</ele>
        <time>2022-08-27T01:24:18Z</time>
      </trkpt>
      <trkpt lat="45.7221" lon="6.76851">
        <ele>2185</ele>
        <time>2022-08-27T01:24:20Z</time>
      </trkpt>
      <trkpt lat="45.72213" lon="6.76851">
        <ele>2185</ele>
        <time>2022-08-27T01:24:22Z</time>
      </trkpt>
      <trkpt lat="45.72216" lon="6.7685">
        <ele>2185</ele>
        <time>2022-08-27T01:24:24Z</time>
      </trkpt>
      <trkpt lat="45.72219" lon="6.76849">
        <ele>2185</ele>
        <time>2022-08-27T01:24:26Z</time>
      </trkpt>
      <trkpt lat="45.72221" lon="6.76848">
        <ele>2185</ele>
        <time>2022-08-27T01:24:28Z</time>
      </trkpt>
      <trkpt lat="45.72224" lon="6.76846">
        <ele>2185</ele>
        <time>2022-08-27T01:24:30Z</time>
      </trkpt>
      <trkpt lat="45.72226" lon="6.76845">
        <ele>2185</ele>
        <time>2022-08-27T01:24:32Z</time>
      </trkpt>
      <trkpt lat="45.72229" lon="6.76844">
        <ele>2186</ele>
        <time>2022-08-27T01:24:34Z</time>
      </trkpt>
      <trkpt lat="45.72231" lon="6.76842">
        <ele>2186</ele>
        <time>2022-08-27T01:24:36Z</time>
      </trkpt>
      <trkpt lat="45.72233" lon="6.76841">
        <ele>2186</ele>
        <time>2022-08-27T01:24:38Z</time>
      </trkpt>
      <trkpt lat="45.72235" lon="6.7684">
        <ele>2187</ele>
        <time>2022-08-27T01:24:40Z</time>
      </trkpt>
      <trkpt lat="45.72238" lon="6.7684">
        <ele>2187</ele>
        <time>2022-08-27T01:24:42Z</time>
      </trkpt>
      <trkpt lat="45.72241" lon="6.7684">
        <ele>2187</ele>
        <time>2022-08-27T01:24:44Z</time>
      </trkpt>
      <trkpt lat="45.72244" lon="6.76842">
        <ele>2187</ele>
        <time>2022-08-27T01:24:46Z</time>
      </trkpt>
      <trkpt lat="45.72246" lon="6.76843">
        <ele>2187</ele>
        <time>2022-08-27T01:24:47Z</time>
      </trkpt>
      <trkpt lat="45.72248" lon="6.76844">
        <ele>2187</ele>
        <time>2022-08-27T01:24:48Z</time>
      </trkpt>
      <trkpt lat="45.7225" lon="6.76845">
        <ele>2187</ele>
        <time>2022-08-27T01:24:49Z</time>
      </trkpt>
      <trkpt lat="45.72253" lon="6.76847">
        <ele>2187</ele>
        <time>2022-08-27T01:24:50Z</time>
      </trkpt>
      <trkpt lat="45.72254" lon="6.76847">
        <ele>2187</ele>
        <time>2022-08-27T01:24:51Z</time>
      </trkpt>
      <trkpt lat="45.72256" lon="6.76848">
        <ele>2187</ele>
        <time>2022-08-27T01:24:52Z</time>
      </trkpt>
      <trkpt lat="45.72257" lon="6.76849">
        <ele>2187</ele>
        <time>2022-08-27T01:24:53Z</time>
      </trkpt>
      <trkpt lat="45.72259" lon="6.76851">
        <ele>2187</ele>
        <time>2022-08-27T01:24:54Z</time>
      </trkpt>
      <trkpt lat="45.72262" lon="6.76853">
        <ele>2187</ele>
        <time>2022-08-27T01:24:55Z</time>
      </trkpt>
      <trkpt lat="45.72263" lon="6.76854">
        <ele>2187</ele>
        <time>2022-08-27T01:24:56Z</time>
      </trkpt>
      <trkpt lat="45.72265" lon="6.76854">
        <ele>2187</ele>
        <time>2022-08-27T01:24:57Z</time>
      </trkpt>
      <trkpt lat="45.72267" lon="6.76854">
        <ele>2187</ele>
        <time>2022-08-27T01:24:58Z</time>
      </trkpt>
      <trkpt lat="45.72268" lon="6.76853">
        <ele>2187</ele>
        <time>2022-08-27T01:24:59Z</time>
      </trkpt>
      <trkpt lat="45.7227" lon="6.76853">
        <ele>2187</ele>
        <time>2022-08-27T01:25:00Z</time>
      </trkpt>
      <trkpt lat="45.72272" lon="6.76854">
        <ele>2187</ele>
        <time>2022-08-27T01:25:01Z</time>
      </trkpt>
      <trkpt lat="45.72274" lon="6.76854">
        <ele>2187</ele>
        <time>2022-08-27T01:25:02Z</time>
      </trkpt>
      <trkpt lat="45.72277" lon="6.76854">
        <ele>2187</ele>
        <time>2022-08-27T01:25:03Z</time>
      </trkpt>
      <trkpt lat="45.72279" lon="6.76853">
        <ele>2187</ele>
        <time>2022-08-27T01:25:04Z</time>
      </trkpt>
      <trkpt lat="45.72281" lon="6.76853">
        <ele>2186</ele>
        <time>2022-08-27T01:25:05Z</time>
      </trkpt>
      <trkpt lat="45.72284" lon="6.76852">
        <ele>2187</ele>
        <time>2022-08-27T01:25:07Z</time>
      </trkpt>
      <trkpt lat="45.72287" lon="6.76852">
        <ele>2187</ele>
        <time>2022-08-27T01:25:09Z</time>
      </trkpt>
      <trkpt lat="45.7229" lon="6.76852">
        <ele>2187</ele>
        <time>2022-08-27T01:25:11Z</time>
      </trkpt>
      <trkpt lat="45.72292" lon="6.76853">
        <ele>2187</ele>
        <time>2022-08-27T01:25:13Z</time>
      </trkpt>
      <trkpt lat="45.72295" lon="6.76855">
        <ele>2187</ele>
        <time>2022-08-27T01:25:15Z</time>
      </trkpt>
      <trkpt lat="45.72297" lon="6.76857">
        <ele>2187</ele>
        <time>2022-08-27T01:25:17Z</time>
      </trkpt>
      <trkpt lat="45.723" lon="6.76858">
        <ele>2187</ele>
        <time>2022-08-27T01:25:19Z</time>
      </trkpt>
      <trkpt lat="45.72302" lon="6.7686">
        <ele>2187</ele>
        <time>2022-08-27T01:25:21Z</time>
      </trkpt>
      <trkpt lat="45.72305" lon="6.76862">
        <ele>2188</ele>
        <time>2022-08-27T01:25:23Z</time>
      </trkpt>
      <trkpt lat="45.72307" lon="6.76864">
        <ele>2188</ele>
        <time>2022-08-27T01:25:25Z</time>
      </trkpt>
      <trkpt lat="45.72309" lon="6.76866">
        <ele>2188</ele>
        <time>2022-08-27T01:25:27Z</time>
      </trkpt>
      <trkpt lat="45.72311" lon="6.76868">
        <ele>2188</ele>
        <time>2022-08-27T01:25:29Z</time>
      </trkpt>
      <trkpt lat="45.72313" lon="6.7687">
        <ele>2188</ele>
        <time>2022-08-27T01:25:31Z</time>
      </trkpt>
      <trkpt lat="45.72315" lon="6.76872">
        <ele>2189</ele>
        <time>2022-08-27T01:25:33Z</time>
      </trkpt>
      <trkpt lat="45.72317" lon="6.76875">
        <ele>2189</ele>
        <time>2022-08-27T01:25:35Z</time>
      </trkpt>
      <trkpt lat="45.72319" lon="6.76878">
        <ele>2189</ele>
        <time>2022-08-27T01:25:37Z</time>
      </trkpt>
      <trkpt lat="45.72322" lon="6.7688">
        <ele>2189</ele>
        <time>2022-08-27T01:25:39Z</time>
      </trkpt>
      <trkpt lat="45.72324" lon="6.76884">
        <ele>2188</ele>
        <time>2022-08-27T01:25:41Z</time>
      </trkpt>
      <trkpt lat="45.72325" lon="6.76886">
        <ele>2188</ele>
        <time>2022-08-27T01:25:42Z</time>
      </trkpt>
      <trkpt lat="45.72327" lon="6.76888">
        <ele>2188</ele>
        <time>2022-08-27T01:25:43Z</time>
      </trkpt>
      <trkpt lat="45.72329" lon="6.7689">
        <ele>2187</ele>
        <time>2022-08-27T01:25:45Z</time>
      </trkpt>
      <trkpt lat="45.72332" lon="6.76894">
        <ele>2186</ele>
        <time>2022-08-27T01:25:47Z</time>
      </trkpt>
      <trkpt lat="45.72335" lon="6.76896">
        <ele>2186</ele>
        <time>2022-08-27T01:25:49Z</time>
      </trkpt>
      <trkpt lat="45.72338" lon="6.76899">
        <ele>2185</ele>
        <time>2022-08-27T01:25:51Z</time>
      </trkpt>
      <trkpt lat="45.7234" lon="6.769">
        <ele>2185</ele>
        <time>2022-08-27T01:25:52Z</time>
      </trkpt>
      <trkpt lat="45.72343" lon="6.76901">
        <ele>2185</ele>
        <time>2022-08-27T01:25:54Z</time>
      </trkpt>
      <trkpt lat="45.72346" lon="6.76902">
        <ele>2184</ele>
        <time>2022-08-27T01:25:56Z</time>
      </trkpt>
      <trkpt lat="45.7235" lon="6.76904">
        <ele>2183</ele>
        <time>2022-08-27T01:25:58Z</time>
      </trkpt>
      <trkpt lat="45.72353" lon="6.76906">
        <ele>2183</ele>
        <time>2022-08-27T01:26:00Z</time>
      </trkpt>
      <trkpt lat="45.72354" lon="6.76908">
        <ele>2183</ele>
        <time>2022-08-27T01:26:01Z</time>
      </trkpt>
      <trkpt lat="45.72357" lon="6.7691">
        <ele>2181</ele>
        <time>2022-08-27T01:26:03Z</time>
      </trkpt>
      <trkpt lat="45.7236" lon="6.76912">
        <ele>2180</ele>
        <time>2022-08-27T01:26:05Z</time>
      </trkpt>
      <trkpt lat="45.72364" lon="6.76914">
        <ele>2180</ele>
        <time>2022-08-27T01:26:07Z</time>
      </trkpt>
      <trkpt lat="45.72364" lon="6.76914">
        <ele>2179</ele>
        <time>2022-08-27T01:26:08Z</time>
      </trkpt>
      <trkpt lat="45.72367" lon="6.76915">
        <ele>2177</ele>
        <time>2022-08-27T01:26:10Z</time>
      </trkpt>
      <trkpt lat="45.72371" lon="6.76914">
        <ele>2177</ele>
        <time>2022-08-27T01:26:12Z</time>
      </trkpt>
      <trkpt lat="45.72372" lon="6.76913">
        <ele>2177</ele>
        <time>2022-08-27T01:26:13Z</time>
      </trkpt>
      <trkpt lat="45.72375" lon="6.76913">
        <ele>2177</ele>
        <time>2022-08-27T01:26:14Z</time>
      </trkpt>
      <trkpt lat="45.72376" lon="6.76913">
        <ele>2177</ele>
        <time>2022-08-27T01:26:15Z</time>
      </trkpt>
      <trkpt lat="45.7238" lon="6.76913">
        <ele>2176</ele>
        <time>2022-08-27T01:26:17Z</time>
      </trkpt>
      <trkpt lat="45.72382" lon="6.76914">
        <ele>2175</ele>
        <time>2022-08-27T01:26:18Z</time>
      </trkpt>
      <trkpt lat="45.72384" lon="6.76913">
        <ele>2175</ele>
        <time>2022-08-27T01:26:19Z</time>
      </trkpt>
      <trkpt lat="45.72386" lon="6.76913">
        <ele>2175</ele>
        <time>2022-08-27T01:26:20Z</time>
      </trkpt>
      <trkpt lat="45.72389" lon="6.76913">
        <ele>2175</ele>
        <time>2022-08-27T01:26:22Z</time>
      </trkpt>
      <trkpt lat="45.72393" lon="6.76914">
        <ele>2174</ele>
        <time>2022-08-27T01:26:24Z</time>
      </trkpt>
      <trkpt lat="45.72395" lon="6.76913">
        <ele>2174</ele>
        <time>2022-08-27T01:26:25Z</time>
      </trkpt>
      <trkpt lat="45.72397" lon="6.76913">
        <ele>2173</ele>
        <time>2022-08-27T01:26:26Z</time>
      </trkpt>
      <trkpt lat="45.724" lon="6.76912">
        <ele>2173</ele>
        <time>2022-08-27T01:26:28Z</time>
      </trkpt>
      <trkpt lat="45.72404" lon="6.76912">
        <ele>2172</ele>
        <time>2022-08-27T01:26:30Z</time>
      </trkpt>
      <trkpt lat="45.72406" lon="6.76912">
        <ele>2171</ele>
        <time>2022-08-27T01:26:31Z</time>
      </trkpt>
      <trkpt lat="45.72408" lon="6.76912">
        <ele>2171</ele>
        <time>2022-08-27T01:26:32Z</time>
      </trkpt>
      <trkpt lat="45.7241" lon="6.76912">
        <ele>2171</ele>
        <time>2022-08-27T01:26:33Z</time>
      </trkpt>
      <trkpt lat="45.72412" lon="6.76913">
        <ele>2171</ele>
        <time>2022-08-27T01:26:34Z</time>
      </trkpt>
      <trkpt lat="45.72415" lon="6.76913">
        <ele>2171</ele>
        <time>2022-08-27T01:26:35Z</time>
      </trkpt>
      <trkpt lat="45.72416" lon="6.76913">
        <ele>2171</ele>
        <time>2022-08-27T01:26:36Z</time>
      </trkpt>
      <trkpt lat="45.72419" lon="6.76913">
        <ele>2171</ele>
        <time>2022-08-27T01:26:38Z</time>
      </trkpt>
      <trkpt lat="45.72422" lon="6.76912">
        <ele>2168</ele>
        <time>2022-08-27T01:26:40Z</time>
      </trkpt>
      <trkpt lat="45.72424" lon="6.76913">
        <ele>2168</ele>
        <time>2022-08-27T01:26:41Z</time>
      </trkpt>
      <trkpt lat="45.72426" lon="6.76913">
        <ele>2168</ele>
        <time>2022-08-27T01:26:42Z</time>
      </trkpt>
      <trkpt lat="45.72428" lon="6.76914">
        <ele>2167</ele>
        <time>2022-08-27T01:26:43Z</time>
      </trkpt>
      <trkpt lat="45.7243" lon="6.76914">
        <ele>2167</ele>
        <time>2022-08-27T01:26:44Z</time>
      </trkpt>
      <trkpt lat="45.72432" lon="6.76913">
        <ele>2167</ele>
        <time>2022-08-27T01:26:45Z</time>
      </trkpt>
      <trkpt lat="45.72434" lon="6.76912">
        <ele>2166</ele>
        <time>2022-08-27T01:26:46Z</time>
      </trkpt>
      <trkpt lat="45.72435" lon="6.76912">
        <ele>2166</ele>
        <time>2022-08-27T01:26:47Z</time>
      </trkpt>
      <trkpt lat="45.72437" lon="6.76911">
        <ele>2166</ele>
        <time>2022-08-27T01:26:48Z</time>
      </trkpt>
      <trkpt lat="45.7244" lon="6.76911">
        <ele>2166</ele>
        <time>2022-08-27T01:26:49Z</time>
      </trkpt>
      <trkpt lat="45.72441" lon="6.76911">
        <ele>2165</ele>
        <time>2022-08-27T01:26:50Z</time>
      </trkpt>
      <trkpt lat="45.72443" lon="6.7691">
        <ele>2165</ele>
        <time>2022-08-27T01:26:51Z</time>
      </trkpt>
      <trkpt lat="45.72447" lon="6.7691">
        <ele>2165</ele>
        <time>2022-08-27T01:26:53Z</time>
      </trkpt>
      <trkpt lat="45.7245" lon="6.76909">
        <ele>2165</ele>
        <time>2022-08-27T01:26:55Z</time>
      </trkpt>
      <trkpt lat="45.72453" lon="6.76909">
        <ele>2164</ele>
        <time>2022-08-27T01:26:57Z</time>
      </trkpt>
      <trkpt lat="45.72456" lon="6.76908">
        <ele>2162</ele>
        <time>2022-08-27T01:26:59Z</time>
      </trkpt>
      <trkpt lat="45.72459" lon="6.76907">
        <ele>2161</ele>
        <time>2022-08-27T01:27:01Z</time>
      </trkpt>
      <trkpt lat="45.72461" lon="6.76906">
        <ele>2161</ele>
        <time>2022-08-27T01:27:02Z</time>
      </trkpt>
      <trkpt lat="45.72462" lon="6.76905">
        <ele>2161</ele>
        <time>2022-08-27T01:27:03Z</time>
      </trkpt>
      <trkpt lat="45.72464" lon="6.76904">
        <ele>2160</ele>
        <time>2022-08-27T01:27:04Z</time>
      </trkpt>
      <trkpt lat="45.72466" lon="6.76905">
        <ele>2160</ele>
        <time>2022-08-27T01:27:05Z</time>
      </trkpt>
      <trkpt lat="45.72468" lon="6.76906">
        <ele>2161</ele>
        <time>2022-08-27T01:27:06Z</time>
      </trkpt>
      <trkpt lat="45.72471" lon="6.76908">
        <ele>2161</ele>
        <time>2022-08-27T01:27:08Z</time>
      </trkpt>
      <trkpt lat="45.72474" lon="6.76909">
        <ele>2162</ele>
        <time>2022-08-27T01:27:10Z</time>
      </trkpt>
      <trkpt lat="45.72476" lon="6.76909">
        <ele>2161</ele>
        <time>2022-08-27T01:27:12Z</time>
      </trkpt>
      <trkpt lat="45.72478" lon="6.76909">
        <ele>2161</ele>
        <time>2022-08-27T01:27:14Z</time>
      </trkpt>
      <trkpt lat="45.72481" lon="6.76909">
        <ele>2161</ele>
        <time>2022-08-27T01:27:16Z</time>
      </trkpt>
      <trkpt lat="45.72484" lon="6.76909">
        <ele>2161</ele>
        <time>2022-08-27T01:27:18Z</time>
      </trkpt>
      <trkpt lat="45.72489" lon="6.76907">
        <ele>2160</ele>
        <time>2022-08-27T01:27:20Z</time>
      </trkpt>
      <trkpt lat="45.7249" lon="6.76907">
        <ele>2160</ele>
        <time>2022-08-27T01:27:21Z</time>
      </trkpt>
      <trkpt lat="45.72492" lon="6.76907">
        <ele>2159</ele>
        <time>2022-08-27T01:27:23Z</time>
      </trkpt>
      <trkpt lat="45.72496" lon="6.76905">
        <ele>2159</ele>
        <time>2022-08-27T01:27:25Z</time>
      </trkpt>
      <trkpt lat="45.72497" lon="6.76903">
        <ele>2159</ele>
        <time>2022-08-27T01:27:26Z</time>
      </trkpt>
      <trkpt lat="45.725" lon="6.76902">
        <ele>2159</ele>
        <time>2022-08-27T01:27:27Z</time>
      </trkpt>
      <trkpt lat="45.72501" lon="6.76902">
        <ele>2158</ele>
        <time>2022-08-27T01:27:28Z</time>
      </trkpt>
      <trkpt lat="45.72503" lon="6.76902">
        <ele>2158</ele>
        <time>2022-08-27T01:27:29Z</time>
      </trkpt>
      <trkpt lat="45.72506" lon="6.76901">
        <ele>2158</ele>
        <time>2022-08-27T01:27:31Z</time>
      </trkpt>
      <trkpt lat="45.72509" lon="6.769">
        <ele>2157</ele>
        <time>2022-08-27T01:27:33Z</time>
      </trkpt>
      <trkpt lat="45.72511" lon="6.769">
        <ele>2156</ele>
        <time>2022-08-27T01:27:34Z</time>
      </trkpt>
      <trkpt lat="45.72513" lon="6.769">
        <ele>2156</ele>
        <time>2022-08-27T01:27:35Z</time>
      </trkpt>
      <trkpt lat="45.72516" lon="6.76899">
        <ele>2155</ele>
        <time>2022-08-27T01:27:37Z</time>
      </trkpt>
      <trkpt lat="45.72518" lon="6.76896">
        <ele>2154</ele>
        <time>2022-08-27T01:27:39Z</time>
      </trkpt>
      <trkpt lat="45.72519" lon="6.76893">
        <ele>2154</ele>
        <time>2022-08-27T01:27:40Z</time>
      </trkpt>
      <trkpt lat="45.72521" lon="6.76889">
        <ele>2153</ele>
        <time>2022-08-27T01:27:42Z</time>
      </trkpt>
      <trkpt lat="45.72524" lon="6.76886">
        <ele>2153</ele>
        <time>2022-08-27T01:27:44Z</time>
      </trkpt>
      <trkpt lat="45.72525" lon="6.76884">
        <ele>2152</ele>
        <time>2022-08-27T01:27:45Z</time>
      </trkpt>
      <trkpt lat="45.72527" lon="6.76882">
        <ele>2151</ele>
        <time>2022-08-27T01:27:46Z</time>
      </trkpt>
      <trkpt lat="45.72528" lon="6.76881">
        <ele>2151</ele>
        <time>2022-08-27T01:27:47Z</time>
      </trkpt>
      <trkpt lat="45.72532" lon="6.7688">
        <ele>2150</ele>
        <time>2022-08-27T01:27:49Z</time>
      </trkpt>
      <trkpt lat="45.72534" lon="6.76879">
        <ele>2150</ele>
        <time>2022-08-27T01:27:50Z</time>
      </trkpt>
      <trkpt lat="45.72537" lon="6.76877">
        <ele>2150</ele>
        <time>2022-08-27T01:27:52Z</time>
      </trkpt>
      <trkpt lat="45.7254" lon="6.76876">
        <ele>2150</ele>
        <time>2022-08-27T01:27:53Z</time>
      </trkpt>
      <trkpt lat="45.72541" lon="6.76876">
        <ele>2150</ele>
        <time>2022-08-27T01:27:54Z</time>
      </trkpt>
      <trkpt lat="45.72543" lon="6.76875">
        <ele>2150</ele>
        <time>2022-08-27T01:27:55Z</time>
      </trkpt>
      <trkpt lat="45.72545" lon="6.76875">
        <ele>2149</ele>
        <time>2022-08-27T01:27:56Z</time>
      </trkpt>
      <trkpt lat="45.72547" lon="6.76875">
        <ele>2149</ele>
        <time>2022-08-27T01:27:57Z</time>
      </trkpt>
      <trkpt lat="45.7255" lon="6.76874">
        <ele>2149</ele>
        <time>2022-08-27T01:27:58Z</time>
      </trkpt>
      <trkpt lat="45.72551" lon="6.76874">
        <ele>2149</ele>
        <time>2022-08-27T01:27:59Z</time>
      </trkpt>
      <trkpt lat="45.72555" lon="6.76875">
        <ele>2149</ele>
        <time>2022-08-27T01:28:00Z</time>
      </trkpt>
      <trkpt lat="45.72556" lon="6.76875">
        <ele>2148</ele>
        <time>2022-08-27T01:28:01Z</time>
      </trkpt>
      <trkpt lat="45.72559" lon="6.76875">
        <ele>2148</ele>
        <time>2022-08-27T01:28:02Z</time>
      </trkpt>
      <trkpt lat="45.7256" lon="6.76875">
        <ele>2148</ele>
        <time>2022-08-27T01:28:03Z</time>
      </trkpt>
      <trkpt lat="45.72562" lon="6.76875">
        <ele>2148</ele>
        <time>2022-08-27T01:28:04Z</time>
      </trkpt>
      <trkpt lat="45.72565" lon="6.76874">
        <ele>2147</ele>
        <time>2022-08-27T01:28:05Z</time>
      </trkpt>
      <trkpt lat="45.72567" lon="6.76875">
        <ele>2146</ele>
        <time>2022-08-27T01:28:06Z</time>
      </trkpt>
      <trkpt lat="45.72568" lon="6.76875">
        <ele>2146</ele>
        <time>2022-08-27T01:28:07Z</time>
      </trkpt>
      <trkpt lat="45.7257" lon="6.76876">
        <ele>2146</ele>
        <time>2022-08-27T01:28:08Z</time>
      </trkpt>
      <trkpt lat="45.72573" lon="6.76876">
        <ele>2146</ele>
        <time>2022-08-27T01:28:09Z</time>
      </trkpt>
      <trkpt lat="45.72574" lon="6.76877">
        <ele>2146</ele>
        <time>2022-08-27T01:28:10Z</time>
      </trkpt>
      <trkpt lat="45.72576" lon="6.76877">
        <ele>2146</ele>
        <time>2022-08-27T01:28:11Z</time>
      </trkpt>
      <trkpt lat="45.72579" lon="6.76877">
        <ele>2146</ele>
        <time>2022-08-27T01:28:12Z</time>
      </trkpt>
      <trkpt lat="45.72581" lon="6.76878">
        <ele>2145</ele>
        <time>2022-08-27T01:28:13Z</time>
      </trkpt>
      <trkpt lat="45.72583" lon="6.76878">
        <ele>2145</ele>
        <time>2022-08-27T01:28:14Z</time>
      </trkpt>
      <trkpt lat="45.72585" lon="6.76879">
        <ele>2145</ele>
        <time>2022-08-27T01:28:15Z</time>
      </trkpt>
      <trkpt lat="45.72587" lon="6.7688">
        <ele>2144</ele>
        <time>2022-08-27T01:28:16Z</time>
      </trkpt>
      <trkpt lat="45.7259" lon="6.76881">
        <ele>2144</ele>
        <time>2022-08-27T01:28:17Z</time>
      </trkpt>
      <trkpt lat="45.72591" lon="6.76881">
        <ele>2144</ele>
        <time>2022-08-27T01:28:18Z</time>
      </trkpt>
      <trkpt lat="45.72593" lon="6.76881">
        <ele>2142</ele>
        <time>2022-08-27T01:28:19Z</time>
      </trkpt>
      <trkpt lat="45.72595" lon="6.76882">
        <ele>2142</ele>
        <time>2022-08-27T01:28:20Z</time>
      </trkpt>
      <trkpt lat="45.72598" lon="6.76882">
        <ele>2142</ele>
        <time>2022-08-27T01:28:21Z</time>
      </trkpt>
      <trkpt lat="45.726" lon="6.76883">
        <ele>2142</ele>
        <time>2022-08-27T01:28:22Z</time>
      </trkpt>
      <trkpt lat="45.72602" lon="6.76883">
        <ele>2141</ele>
        <time>2022-08-27T01:28:23Z</time>
      </trkpt>
      <trkpt lat="45.72605" lon="6.76884">
        <ele>2142</ele>
        <time>2022-08-27T01:28:24Z</time>
      </trkpt>
      <trkpt lat="45.72607" lon="6.76885">
        <ele>2142</ele>
        <time>2022-08-27T01:28:25Z</time>
      </trkpt>
      <trkpt lat="45.72609" lon="6.76885">
        <ele>2142</ele>
        <time>2022-08-27T01:28:26Z</time>
      </trkpt>
      <trkpt lat="45.72611" lon="6.76886">
        <ele>2142</ele>
        <time>2022-08-27T01:28:27Z</time>
      </trkpt>
      <trkpt lat="45.72613" lon="6.76887">
        <ele>2141</ele>
        <time>2022-08-27T01:28:28Z</time>
      </trkpt>
      <trkpt lat="45.72616" lon="6.76887">
        <ele>2141</ele>
        <time>2022-08-27T01:28:29Z</time>
      </trkpt>
      <trkpt lat="45.72618" lon="6.76888">
        <ele>2140</ele>
        <time>2022-08-27T01:28:30Z</time>
      </trkpt>
      <trkpt lat="45.72621" lon="6.7689">
        <ele>2140</ele>
        <time>2022-08-27T01:28:31Z</time>
      </trkpt>
      <trkpt lat="45.72622" lon="6.7689">
        <ele>2139</ele>
        <time>2022-08-27T01:28:32Z</time>
      </trkpt>
      <trkpt lat="45.72624" lon="6.76891">
        <ele>2139</ele>
        <time>2022-08-27T01:28:33Z</time>
      </trkpt>
      <trkpt lat="45.72626" lon="6.76892">
        <ele>2139</ele>
        <time>2022-08-27T01:28:34Z</time>
      </trkpt>
      <trkpt lat="45.72629" lon="6.76892">
        <ele>2139</ele>
        <time>2022-08-27T01:28:35Z</time>
      </trkpt>
      <trkpt lat="45.7263" lon="6.76892">
        <ele>2139</ele>
        <time>2022-08-27T01:28:36Z</time>
      </trkpt>
      <trkpt lat="45.72632" lon="6.76893">
        <ele>2138</ele>
        <time>2022-08-27T01:28:37Z</time>
      </trkpt>
      <trkpt lat="45.72634" lon="6.76893">
        <ele>2138</ele>
        <time>2022-08-27T01:28:38Z</time>
      </trkpt>
      <trkpt lat="45.72636" lon="6.76894">
        <ele>2138</ele>
        <time>2022-08-27T01:28:39Z</time>
      </trkpt>
      <trkpt lat="45.7264" lon="6.76895">
        <ele>2138</ele>
        <time>2022-08-27T01:28:40Z</time>
      </trkpt>
      <trkpt lat="45.72641" lon="6.76895">
        <ele>2138</ele>
        <time>2022-08-27T01:28:41Z</time>
      </trkpt>
      <trkpt lat="45.72643" lon="6.76896">
        <ele>2138</ele>
        <time>2022-08-27T01:28:42Z</time>
      </trkpt>
      <trkpt lat="45.72645" lon="6.76896">
        <ele>2137</ele>
        <time>2022-08-27T01:28:43Z</time>
      </trkpt>
      <trkpt lat="45.72647" lon="6.76897">
        <ele>2136</ele>
        <time>2022-08-27T01:28:44Z</time>
      </trkpt>
      <trkpt lat="45.72649" lon="6.76898">
        <ele>2136</ele>
        <time>2022-08-27T01:28:45Z</time>
      </trkpt>
      <trkpt lat="45.72651" lon="6.76899">
        <ele>2136</ele>
        <time>2022-08-27T01:28:46Z</time>
      </trkpt>
      <trkpt lat="45.72654" lon="6.769">
        <ele>2136</ele>
        <time>2022-08-27T01:28:47Z</time>
      </trkpt>
      <trkpt lat="45.72656" lon="6.76901">
        <ele>2136</ele>
        <time>2022-08-27T01:28:48Z</time>
      </trkpt>
      <trkpt lat="45.72658" lon="6.76902">
        <ele>2136</ele>
        <time>2022-08-27T01:28:49Z</time>
      </trkpt>
      <trkpt lat="45.72661" lon="6.76903">
        <ele>2136</ele>
        <time>2022-08-27T01:28:50Z</time>
      </trkpt>
      <trkpt lat="45.72662" lon="6.76904">
        <ele>2136</ele>
        <time>2022-08-27T01:28:51Z</time>
      </trkpt>
      <trkpt lat="45.72664" lon="6.76905">
        <ele>2136</ele>
        <time>2022-08-27T01:28:52Z</time>
      </trkpt>
      <trkpt lat="45.72666" lon="6.76907">
        <ele>2136</ele>
        <time>2022-08-27T01:28:53Z</time>
      </trkpt>
      <trkpt lat="45.72669" lon="6.76909">
        <ele>2136</ele>
        <time>2022-08-27T01:28:54Z</time>
      </trkpt>
      <trkpt lat="45.7267" lon="6.7691">
        <ele>2136</ele>
        <time>2022-08-27T01:28:55Z</time>
      </trkpt>
      <trkpt lat="45.72671" lon="6.76912">
        <ele>2135</ele>
        <time>2022-08-27T01:28:56Z</time>
      </trkpt>
      <trkpt lat="45.72673" lon="6.76913">
        <ele>2135</ele>
        <time>2022-08-27T01:28:57Z</time>
      </trkpt>
      <trkpt lat="45.72675" lon="6.76915">
        <ele>2135</ele>
        <time>2022-08-27T01:28:58Z</time>
      </trkpt>
      <trkpt lat="45.72677" lon="6.76917">
        <ele>2135</ele>
        <time>2022-08-27T01:28:59Z</time>
      </trkpt>
      <trkpt lat="45.72679" lon="6.76918">
        <ele>2135</ele>
        <time>2022-08-27T01:29:00Z</time>
      </trkpt>
      <trkpt lat="45.72681" lon="6.76919">
        <ele>2134</ele>
        <time>2022-08-27T01:29:01Z</time>
      </trkpt>
      <trkpt lat="45.72683" lon="6.76919">
        <ele>2134</ele>
        <time>2022-08-27T01:29:02Z</time>
      </trkpt>
      <trkpt lat="45.72685" lon="6.76919">
        <ele>2134</ele>
        <time>2022-08-27T01:29:03Z</time>
      </trkpt>
      <trkpt lat="45.72688" lon="6.76919">
        <ele>2134</ele>
        <time>2022-08-27T01:29:05Z</time>
      </trkpt>
      <trkpt lat="45.7269" lon="6.76919">
        <ele>2133</ele>
        <time>2022-08-27T01:29:06Z</time>
      </trkpt>
      <trkpt lat="45.72694" lon="6.76919">
        <ele>2132</ele>
        <time>2022-08-27T01:29:08Z</time>
      </trkpt>
      <trkpt lat="45.72698" lon="6.76919">
        <ele>2131</ele>
        <time>2022-08-27T01:29:10Z</time>
      </trkpt>
      <trkpt lat="45.72699" lon="6.76919">
        <ele>2131</ele>
        <time>2022-08-27T01:29:11Z</time>
      </trkpt>
      <trkpt lat="45.72701" lon="6.76919">
        <ele>2131</ele>
        <time>2022-08-27T01:29:12Z</time>
      </trkpt>
      <trkpt lat="45.72703" lon="6.76919">
        <ele>2130</ele>
        <time>2022-08-27T01:29:13Z</time>
      </trkpt>
      <trkpt lat="45.72705" lon="6.76918">
        <ele>2130</ele>
        <time>2022-08-27T01:29:14Z</time>
      </trkpt>
      <trkpt lat="45.72707" lon="6.76918">
        <ele>2129</ele>
        <time>2022-08-27T01:29:15Z</time>
      </trkpt>
      <trkpt lat="45.72709" lon="6.76917">
        <ele>2128</ele>
        <time>2022-08-27T01:29:16Z</time>
      </trkpt>
      <trkpt lat="45.72712" lon="6.76916">
        <ele>2128</ele>
        <time>2022-08-27T01:29:17Z</time>
      </trkpt>
      <trkpt lat="45.72714" lon="6.76916">
        <ele>2127</ele>
        <time>2022-08-27T01:29:18Z</time>
      </trkpt>
      <trkpt lat="45.72717" lon="6.76914">
        <ele>2126</ele>
        <time>2022-08-27T01:29:20Z</time>
      </trkpt>
      <trkpt lat="45.72719" lon="6.76913">
        <ele>2126</ele>
        <time>2022-08-27T01:29:21Z</time>
      </trkpt>
      <trkpt lat="45.72722" lon="6.76911">
        <ele>2126</ele>
        <time>2022-08-27T01:29:22Z</time>
      </trkpt>
      <trkpt lat="45.72723" lon="6.7691">
        <ele>2125</ele>
        <time>2022-08-27T01:29:23Z</time>
      </trkpt>
      <trkpt lat="45.72725" lon="6.76909">
        <ele>2125</ele>
        <time>2022-08-27T01:29:24Z</time>
      </trkpt>
      <trkpt lat="45.72728" lon="6.76908">
        <ele>2124</ele>
        <time>2022-08-27T01:29:25Z</time>
      </trkpt>
      <trkpt lat="45.7273" lon="6.76906">
        <ele>2124</ele>
        <time>2022-08-27T01:29:26Z</time>
      </trkpt>
      <trkpt lat="45.72732" lon="6.76906">
        <ele>2124</ele>
        <time>2022-08-27T01:29:27Z</time>
      </trkpt>
      <trkpt lat="45.72734" lon="6.76906">
        <ele>2123</ele>
        <time>2022-08-27T01:29:28Z</time>
      </trkpt>
      <trkpt lat="45.72736" lon="6.76906">
        <ele>2123</ele>
        <time>2022-08-27T01:29:29Z</time>
      </trkpt>
      <trkpt lat="45.72738" lon="6.76906">
        <ele>2123</ele>
        <time>2022-08-27T01:29:30Z</time>
      </trkpt>
      <trkpt lat="45.72741" lon="6.76907">
        <ele>2123</ele>
        <time>2022-08-27T01:29:32Z</time>
      </trkpt>
      <trkpt lat="45.72745" lon="6.76908">
        <ele>2123</ele>
        <time>2022-08-27T01:29:34Z</time>
      </trkpt>
      <trkpt lat="45.72747" lon="6.76909">
        <ele>2123</ele>
        <time>2022-08-27T01:29:36Z</time>
      </trkpt>
      <trkpt lat="45.7275" lon="6.76911">
        <ele>2123</ele>
        <time>2022-08-27T01:29:38Z</time>
      </trkpt>
      <trkpt lat="45.72753" lon="6.76912">
        <ele>2123</ele>
        <time>2022-08-27T01:29:40Z</time>
      </trkpt>
      <trkpt lat="45.72755" lon="6.76915">
        <ele>2124</ele>
        <time>2022-08-27T01:29:42Z</time>
      </trkpt>
      <trkpt lat="45.72757" lon="6.76916">
        <ele>2124</ele>
        <time>2022-08-27T01:29:44Z</time>
      </trkpt>
      <trkpt lat="45.72759" lon="6.76918">
        <ele>2124</ele>
        <time>2022-08-27T01:29:46Z</time>
      </trkpt>
      <trkpt lat="45.72761" lon="6.7692">
        <ele>2125</ele>
        <time>2022-08-27T01:29:48Z</time>
      </trkpt>
      <trkpt lat="45.72764" lon="6.76922">
        <ele>2125</ele>
        <time>2022-08-27T01:29:50Z</time>
      </trkpt>
      <trkpt lat="45.72766" lon="6.76924">
        <ele>2126</ele>
        <time>2022-08-27T01:29:52Z</time>
      </trkpt>
      <trkpt lat="45.72768" lon="6.76926">
        <ele>2126</ele>
        <time>2022-08-27T01:29:54Z</time>
      </trkpt>
      <trkpt lat="45.7277" lon="6.76928">
        <ele>2126</ele>
        <time>2022-08-27T01:29:56Z</time>
      </trkpt>
      <trkpt lat="45.72772" lon="6.7693">
        <ele>2126</ele>
        <time>2022-08-27T01:29:58Z</time>
      </trkpt>
      <trkpt lat="45.72774" lon="6.76932">
        <ele>2127</ele>
        <time>2022-08-27T01:30:00Z</time>
      </trkpt>
      <trkpt lat="45.72776" lon="6.76934">
        <ele>2127</ele>
        <time>2022-08-27T01:30:02Z</time>
      </trkpt>
      <trkpt lat="45.72778" lon="6.76937">
        <ele>2127</ele>
        <time>2022-08-27T01:30:04Z</time>
      </trkpt>
      <trkpt lat="45.72779" lon="6.76939">
        <ele>2127</ele>
        <time>2022-08-27T01:30:06Z</time>
      </trkpt>
      <trkpt lat="45.72781" lon="6.76942">
        <ele>2128</ele>
        <time>2022-08-27T01:30:08Z</time>
      </trkpt>
      <trkpt lat="45.72783" lon="6.76944">
        <ele>2128</ele>
        <time>2022-08-27T01:30:10Z</time>
      </trkpt>
      <trkpt lat="45.72785" lon="6.76947">
        <ele>2128</ele>
        <time>2022-08-27T01:30:12Z</time>
      </trkpt>
      <trkpt lat="45.72786" lon="6.76949">
        <ele>2128</ele>
        <time>2022-08-27T01:30:14Z</time>
      </trkpt>
      <trkpt lat="45.72788" lon="6.76952">
        <ele>2129</ele>
        <time>2022-08-27T01:30:16Z</time>
      </trkpt>
      <trkpt lat="45.7279" lon="6.76954">
        <ele>2129</ele>
        <time>2022-08-27T01:30:18Z</time>
      </trkpt>
      <trkpt lat="45.72792" lon="6.76956">
        <ele>2129</ele>
        <time>2022-08-27T01:30:20Z</time>
      </trkpt>
      <trkpt lat="45.72794" lon="6.76958">
        <ele>2130</ele>
        <time>2022-08-27T01:30:22Z</time>
      </trkpt>
      <trkpt lat="45.72795" lon="6.76961">
        <ele>2130</ele>
        <time>2022-08-27T01:30:24Z</time>
      </trkpt>
      <trkpt lat="45.72797" lon="6.76963">
        <ele>2130</ele>
        <time>2022-08-27T01:30:26Z</time>
      </trkpt>
      <trkpt lat="45.728" lon="6.76963">
        <ele>2130</ele>
        <time>2022-08-27T01:30:28Z</time>
      </trkpt>
      <trkpt lat="45.72802" lon="6.76962">
        <ele>2130</ele>
        <time>2022-08-27T01:30:30Z</time>
      </trkpt>
      <trkpt lat="45.72805" lon="6.76962">
        <ele>2130</ele>
        <time>2022-08-27T01:30:32Z</time>
      </trkpt>
      <trkpt lat="45.72807" lon="6.76962">
        <ele>2130</ele>
        <time>2022-08-27T01:30:34Z</time>
      </trkpt>
      <trkpt lat="45.72809" lon="6.76961">
        <ele>2131</ele>
        <time>2022-08-27T01:30:36Z</time>
      </trkpt>
      <trkpt lat="45.72811" lon="6.7696">
        <ele>2131</ele>
        <time>2022-08-27T01:30:38Z</time>
      </trkpt>
      <trkpt lat="45.72813" lon="6.7696">
        <ele>2131</ele>
        <time>2022-08-27T01:30:40Z</time>
      </trkpt>
      <trkpt lat="45.72815" lon="6.76959">
        <ele>2132</ele>
        <time>2022-08-27T01:30:42Z</time>
      </trkpt>
      <trkpt lat="45.72817" lon="6.76959">
        <ele>2132</ele>
        <time>2022-08-27T01:30:44Z</time>
      </trkpt>
      <trkpt lat="45.7282" lon="6.76959">
        <ele>2132</ele>
        <time>2022-08-27T01:30:46Z</time>
      </trkpt>
      <trkpt lat="45.72822" lon="6.7696">
        <ele>2133</ele>
        <time>2022-08-27T01:30:48Z</time>
      </trkpt>
      <trkpt lat="45.72824" lon="6.76961">
        <ele>2133</ele>
        <time>2022-08-27T01:30:50Z</time>
      </trkpt>
      <trkpt lat="45.72826" lon="6.76962">
        <ele>2134</ele>
        <time>2022-08-27T01:30:52Z</time>
      </trkpt>
      <trkpt lat="45.72828" lon="6.76963">
        <ele>2134</ele>
        <time>2022-08-27T01:30:54Z</time>
      </trkpt>
      <trkpt lat="45.7283" lon="6.76965">
        <ele>2134</ele>
        <time>2022-08-27T01:30:56Z</time>
      </trkpt>
      <trkpt lat="45.72832" lon="6.76967">
        <ele>2135</ele>
        <time>2022-08-27T01:30:58Z</time>
      </trkpt>
      <trkpt lat="45.72833" lon="6.76968">
        <ele>2135</ele>
        <time>2022-08-27T01:31:00Z</time>
      </trkpt>
      <trkpt lat="45.72835" lon="6.7697">
        <ele>2135</ele>
        <time>2022-08-27T01:31:02Z</time>
      </trkpt>
      <trkpt lat="45.72837" lon="6.76972">
        <ele>2136</ele>
        <time>2022-08-27T01:31:04Z</time>
      </trkpt>
      <trkpt lat="45.72839" lon="6.76974">
        <ele>2136</ele>
        <time>2022-08-27T01:31:06Z</time>
      </trkpt>
      <trkpt lat="45.72841" lon="6.76975">
        <ele>2136</ele>
        <time>2022-08-27T01:31:08Z</time>
      </trkpt>
      <trkpt lat="45.72843" lon="6.76977">
        <ele>2137</ele>
        <time>2022-08-27T01:31:10Z</time>
      </trkpt>
      <trkpt lat="45.72845" lon="6.76978">
        <ele>2137</ele>
        <time>2022-08-27T01:31:12Z</time>
      </trkpt>
      <trkpt lat="45.72847" lon="6.76979">
        <ele>2137</ele>
        <time>2022-08-27T01:31:14Z</time>
      </trkpt>
      <trkpt lat="45.72849" lon="6.76978">
        <ele>2137</ele>
        <time>2022-08-27T01:31:16Z</time>
      </trkpt>
      <trkpt lat="45.72851" lon="6.76978">
        <ele>2138</ele>
        <time>2022-08-27T01:31:18Z</time>
      </trkpt>
      <trkpt lat="45.72853" lon="6.76979">
        <ele>2138</ele>
        <time>2022-08-27T01:31:20Z</time>
      </trkpt>
      <trkpt lat="45.72855" lon="6.7698">
        <ele>2138</ele>
        <time>2022-08-27T01:31:22Z</time>
      </trkpt>
      <trkpt lat="45.72858" lon="6.7698">
        <ele>2138</ele>
        <time>2022-08-27T01:31:24Z</time>
      </trkpt>
      <trkpt lat="45.7286" lon="6.7698">
        <ele>2139</ele>
        <time>2022-08-27T01:31:26Z</time>
      </trkpt>
      <trkpt lat="45.72862" lon="6.76981">
        <ele>2139</ele>
        <time>2022-08-27T01:31:28Z</time>
      </trkpt>
      <trkpt lat="45.72865" lon="6.76982">
        <ele>2139</ele>
        <time>2022-08-27T01:31:30Z</time>
      </trkpt>
      <trkpt lat="45.72867" lon="6.76982">
        <ele>2140</ele>
        <time>2022-08-27T01:31:32Z</time>
      </trkpt>
      <trkpt lat="45.72869" lon="6.76984">
        <ele>2140</ele>
        <time>2022-08-27T01:31:34Z</time>
      </trkpt>
      <trkpt lat="45.72871" lon="6.76985">
        <ele>2140</ele>
        <time>2022-08-27T01:31:36Z</time>
      </trkpt>
      <trkpt lat="45.72873" lon="6.76986">
        <ele>2141</ele>
        <time>2022-08-27T01:31:38Z</time>
      </trkpt>
      <trkpt lat="45.72876" lon="6.76987">
        <ele>2141</ele>
        <time>2022-08-27T01:31:40Z</time>
      </trkpt>
      <trkpt lat="45.72878" lon="6.76989">
        <ele>2141</ele>
        <time>2022-08-27T01:31:42Z</time>
      </trkpt>
      <trkpt lat="45.7288" lon="6.76991">
        <ele>2142</ele>
        <time>2022-08-27T01:31:44Z</time>
      </trkpt>
      <trkpt lat="45.72882" lon="6.76993">
        <ele>2142</ele>
        <time>2022-08-27T01:31:46Z</time>
      </trkpt>
      <trkpt lat="45.72884" lon="6.76995">
        <ele>2142</ele>
        <time>2022-08-27T01:31:48Z</time>
      </trkpt>
      <trkpt lat="45.72885" lon="6.76997">
        <ele>2142</ele>
        <time>2022-08-27T01:31:50Z</time>
      </trkpt>
      <trkpt lat="45.72887" lon="6.76999">
        <ele>2144</ele>
        <time>2022-08-27T01:31:52Z</time>
      </trkpt>
      <trkpt lat="45.72889" lon="6.77002">
        <ele>2144</ele>
        <time>2022-08-27T01:31:54Z</time>
      </trkpt>
      <trkpt lat="45.7289" lon="6.77005">
        <ele>2144</ele>
        <time>2022-08-27T01:31:56Z</time>
      </trkpt>
      <trkpt lat="45.72892" lon="6.77007">
        <ele>2144</ele>
        <time>2022-08-27T01:31:58Z</time>
      </trkpt>
      <trkpt lat="45.72894" lon="6.77009">
        <ele>2145</ele>
        <time>2022-08-27T01:32:00Z</time>
      </trkpt>
      <trkpt lat="45.72895" lon="6.77012">
        <ele>2145</ele>
        <time>2022-08-27T01:32:02Z</time>
      </trkpt>
      <trkpt lat="45.72897" lon="6.77014">
        <ele>2146</ele>
        <time>2022-08-27T01:32:04Z</time>
      </trkpt>
      <trkpt lat="45.72898" lon="6.77017">
        <ele>2146</ele>
        <time>2022-08-27T01:32:06Z</time>
      </trkpt>
      <trkpt lat="45.72899" lon="6.7702">
        <ele>2146</ele>
        <time>2022-08-27T01:32:08Z</time>
      </trkpt>
      <trkpt lat="45.72901" lon="6.77022">
        <ele>2146</ele>
        <time>2022-08-27T01:32:10Z</time>
      </trkpt>
      <trkpt lat="45.72903" lon="6.77024">
        <ele>2146</ele>
        <time>2022-08-27T01:32:12Z</time>
      </trkpt>
      <trkpt lat="45.72905" lon="6.77027">
        <ele>2146</ele>
        <time>2022-08-27T01:32:14Z</time>
      </trkpt>
      <trkpt lat="45.72906" lon="6.7703">
        <ele>2147</ele>
        <time>2022-08-27T01:32:16Z</time>
      </trkpt>
      <trkpt lat="45.72908" lon="6.77033">
        <ele>2147</ele>
        <time>2022-08-27T01:32:18Z</time>
      </trkpt>
      <trkpt lat="45.7291" lon="6.77035">
        <ele>2147</ele>
        <time>2022-08-27T01:32:20Z</time>
      </trkpt>
      <trkpt lat="45.72911" lon="6.77037">
        <ele>2147</ele>
        <time>2022-08-27T01:32:22Z</time>
      </trkpt>
      <trkpt lat="45.72913" lon="6.7704">
        <ele>2147</ele>
        <time>2022-08-27T01:32:24Z</time>
      </trkpt>
      <trkpt lat="45.72915" lon="6.77043">
        <ele>2148</ele>
        <time>2022-08-27T01:32:26Z</time>
      </trkpt>
      <trkpt lat="45.72917" lon="6.77045">
        <ele>2148</ele>
        <time>2022-08-27T01:32:28Z</time>
      </trkpt>
      <trkpt lat="45.72918" lon="6.77049">
        <ele>2148</ele>
        <time>2022-08-27T01:32:30Z</time>
      </trkpt>
      <trkpt lat="45.72919" lon="6.77052">
        <ele>2148</ele>
        <time>2022-08-27T01:32:32Z</time>
      </trkpt>
      <trkpt lat="45.72921" lon="6.77055">
        <ele>2148</ele>
        <time>2022-08-27T01:32:34Z</time>
      </trkpt>
      <trkpt lat="45.72922" lon="6.77058">
        <ele>2148</ele>
        <time>2022-08-27T01:32:36Z</time>
      </trkpt>
      <trkpt lat="45.72924" lon="6.7706">
        <ele>2148</ele>
        <time>2022-08-27T01:32:38Z</time>
      </trkpt>
      <trkpt lat="45.72926" lon="6.77063">
        <ele>2148</ele>
        <time>2022-08-27T01:32:40Z</time>
      </trkpt>
      <trkpt lat="45.72928" lon="6.77066">
        <ele>2148</ele>
        <time>2022-08-27T01:32:42Z</time>
      </trkpt>
      <trkpt lat="45.7293" lon="6.77068">
        <ele>2149</ele>
        <time>2022-08-27T01:32:44Z</time>
      </trkpt>
      <trkpt lat="45.72932" lon="6.77069">
        <ele>2149</ele>
        <time>2022-08-27T01:32:46Z</time>
      </trkpt>
      <trkpt lat="45.72934" lon="6.77071">
        <ele>2150</ele>
        <time>2022-08-27T01:32:48Z</time>
      </trkpt>
      <trkpt lat="45.72936" lon="6.77073">
        <ele>2150</ele>
        <time>2022-08-27T01:32:50Z</time>
      </trkpt>
      <trkpt lat="45.72939" lon="6.77075">
        <ele>2150</ele>
        <time>2022-08-27T01:32:52Z</time>
      </trkpt>
      <trkpt lat="45.72941" lon="6.77077">
        <ele>2150</ele>
        <time>2022-08-27T01:32:54Z</time>
      </trkpt>
      <trkpt lat="45.72943" lon="6.77078">
        <ele>2150</ele>
        <time>2022-08-27T01:32:56Z</time>
      </trkpt>
      <trkpt lat="45.72945" lon="6.7708">
        <ele>2151</ele>
        <time>2022-08-27T01:32:58Z</time>
      </trkpt>
      <trkpt lat="45.72947" lon="6.77082">
        <ele>2151</ele>
        <time>2022-08-27T01:33:00Z</time>
      </trkpt>
      <trkpt lat="45.72949" lon="6.77084">
        <ele>2152</ele>
        <time>2022-08-27T01:33:02Z</time>
      </trkpt>
      <trkpt lat="45.72951" lon="6.77086">
        <ele>2152</ele>
        <time>2022-08-27T01:33:04Z</time>
      </trkpt>
      <trkpt lat="45.72953" lon="6.77088">
        <ele>2152</ele>
        <time>2022-08-27T01:33:06Z</time>
      </trkpt>
      <trkpt lat="45.72955" lon="6.7709">
        <ele>2152</ele>
        <time>2022-08-27T01:33:08Z</time>
      </trkpt>
      <trkpt lat="45.72957" lon="6.77092">
        <ele>2153</ele>
        <time>2022-08-27T01:33:10Z</time>
      </trkpt>
      <trkpt lat="45.72959" lon="6.77094">
        <ele>2153</ele>
        <time>2022-08-27T01:33:12Z</time>
      </trkpt>
      <trkpt lat="45.72961" lon="6.77097">
        <ele>2153</ele>
        <time>2022-08-27T01:33:14Z</time>
      </trkpt>
      <trkpt lat="45.72963" lon="6.77099">
        <ele>2153</ele>
        <time>2022-08-27T01:33:16Z</time>
      </trkpt>
      <trkpt lat="45.72964" lon="6.77102">
        <ele>2153</ele>
        <time>2022-08-27T01:33:18Z</time>
      </trkpt>
      <trkpt lat="45.72966" lon="6.77104">
        <ele>2153</ele>
        <time>2022-08-27T01:33:20Z</time>
      </trkpt>
      <trkpt lat="45.72968" lon="6.77107">
        <ele>2153</ele>
        <time>2022-08-27T01:33:22Z</time>
      </trkpt>
      <trkpt lat="45.72969" lon="6.7711">
        <ele>2154</ele>
        <time>2022-08-27T01:33:24Z</time>
      </trkpt>
      <trkpt lat="45.72971" lon="6.77112">
        <ele>2155</ele>
        <time>2022-08-27T01:33:26Z</time>
      </trkpt>
      <trkpt lat="45.72972" lon="6.77115">
        <ele>2155</ele>
        <time>2022-08-27T01:33:28Z</time>
      </trkpt>
      <trkpt lat="45.72973" lon="6.77118">
        <ele>2155</ele>
        <time>2022-08-27T01:33:30Z</time>
      </trkpt>
      <trkpt lat="45.72975" lon="6.77121">
        <ele>2155</ele>
        <time>2022-08-27T01:33:32Z</time>
      </trkpt>
      <trkpt lat="45.72977" lon="6.77124">
        <ele>2155</ele>
        <time>2022-08-27T01:33:34Z</time>
      </trkpt>
      <trkpt lat="45.72979" lon="6.77126">
        <ele>2155</ele>
        <time>2022-08-27T01:33:36Z</time>
      </trkpt>
      <trkpt lat="45.72981" lon="6.77129">
        <ele>2155</ele>
        <time>2022-08-27T01:33:38Z</time>
      </trkpt>
      <trkpt lat="45.72983" lon="6.77131">
        <ele>2156</ele>
        <time>2022-08-27T01:33:40Z</time>
      </trkpt>
      <trkpt lat="45.72985" lon="6.77133">
        <ele>2156</ele>
        <time>2022-08-27T01:33:42Z</time>
      </trkpt>
      <trkpt lat="45.72987" lon="6.77134">
        <ele>2156</ele>
        <time>2022-08-27T01:33:44Z</time>
      </trkpt>
      <trkpt lat="45.72989" lon="6.77136">
        <ele>2156</ele>
        <time>2022-08-27T01:33:46Z</time>
      </trkpt>
      <trkpt lat="45.72991" lon="6.77137">
        <ele>2157</ele>
        <time>2022-08-27T01:33:48Z</time>
      </trkpt>
      <trkpt lat="45.72994" lon="6.77139">
        <ele>2157</ele>
        <time>2022-08-27T01:33:50Z</time>
      </trkpt>
      <trkpt lat="45.72995" lon="6.77141">
        <ele>2157</ele>
        <time>2022-08-27T01:33:52Z</time>
      </trkpt>
      <trkpt lat="45.72997" lon="6.77143">
        <ele>2157</ele>
        <time>2022-08-27T01:33:54Z</time>
      </trkpt>
      <trkpt lat="45.72999" lon="6.77146">
        <ele>2157</ele>
        <time>2022-08-27T01:33:56Z</time>
      </trkpt>
      <trkpt lat="45.73" lon="6.77148">
        <ele>2157</ele>
        <time>2022-08-27T01:33:58Z</time>
      </trkpt>
      <trkpt lat="45.73002" lon="6.77151">
        <ele>2159</ele>
        <time>2022-08-27T01:34:00Z</time>
      </trkpt>
      <trkpt lat="45.73003" lon="6.77154">
        <ele>2159</ele>
        <time>2022-08-27T01:34:02Z</time>
      </trkpt>
      <trkpt lat="45.73003" lon="6.77157">
        <ele>2159</ele>
        <time>2022-08-27T01:34:04Z</time>
      </trkpt>
      <trkpt lat="45.73004" lon="6.7716">
        <ele>2159</ele>
        <time>2022-08-27T01:34:06Z</time>
      </trkpt>
      <trkpt lat="45.73005" lon="6.77164">
        <ele>2159</ele>
        <time>2022-08-27T01:34:08Z</time>
      </trkpt>
      <trkpt lat="45.73005" lon="6.77167">
        <ele>2159</ele>
        <time>2022-08-27T01:34:10Z</time>
      </trkpt>
      <trkpt lat="45.73005" lon="6.7717">
        <ele>2159</ele>
        <time>2022-08-27T01:34:12Z</time>
      </trkpt>
      <trkpt lat="45.73004" lon="6.77173">
        <ele>2159</ele>
        <time>2022-08-27T01:34:14Z</time>
      </trkpt>
      <trkpt lat="45.73004" lon="6.77176">
        <ele>2160</ele>
        <time>2022-08-27T01:34:16Z</time>
      </trkpt>
      <trkpt lat="45.73004" lon="6.7718">
        <ele>2161</ele>
        <time>2022-08-27T01:34:18Z</time>
      </trkpt>
      <trkpt lat="45.73004" lon="6.77183">
        <ele>2161</ele>
        <time>2022-08-27T01:34:20Z</time>
      </trkpt>
      <trkpt lat="45.73004" lon="6.77186">
        <ele>2161</ele>
        <time>2022-08-27T01:34:22Z</time>
      </trkpt>
      <trkpt lat="45.73004" lon="6.7719">
        <ele>2161</ele>
        <time>2022-08-27T01:34:24Z</time>
      </trkpt>
      <trkpt lat="45.73004" lon="6.77193">
        <ele>2162</ele>
        <time>2022-08-27T01:34:26Z</time>
      </trkpt>
      <trkpt lat="45.73004" lon="6.77196">
        <ele>2162</ele>
        <time>2022-08-27T01:34:28Z</time>
      </trkpt>
      <trkpt lat="45.73005" lon="6.77199">
        <ele>2162</ele>
        <time>2022-08-27T01:34:30Z</time>
      </trkpt>
      <trkpt lat="45.73005" lon="6.77203">
        <ele>2163</ele>
        <time>2022-08-27T01:34:32Z</time>
      </trkpt>
      <trkpt lat="45.73006" lon="6.77206">
        <ele>2163</ele>
        <time>2022-08-27T01:34:34Z</time>
      </trkpt>
      <trkpt lat="45.73007" lon="6.77209">
        <ele>2163</ele>
        <time>2022-08-27T01:34:36Z</time>
      </trkpt>
      <trkpt lat="45.73006" lon="6.77213">
        <ele>2163</ele>
        <time>2022-08-27T01:34:38Z</time>
      </trkpt>
      <trkpt lat="45.73006" lon="6.77215">
        <ele>2163</ele>
        <time>2022-08-27T01:34:40Z</time>
      </trkpt>
      <trkpt lat="45.73006" lon="6.77219">
        <ele>2163</ele>
        <time>2022-08-27T01:34:42Z</time>
      </trkpt>
      <trkpt lat="45.73005" lon="6.77222">
        <ele>2164</ele>
        <time>2022-08-27T01:34:44Z</time>
      </trkpt>
      <trkpt lat="45.73005" lon="6.77225">
        <ele>2164</ele>
        <time>2022-08-27T01:34:46Z</time>
      </trkpt>
      <trkpt lat="45.73005" lon="6.77229">
        <ele>2164</ele>
        <time>2022-08-27T01:34:48Z</time>
      </trkpt>
      <trkpt lat="45.73005" lon="6.77232">
        <ele>2165</ele>
        <time>2022-08-27T01:34:50Z</time>
      </trkpt>
      <trkpt lat="45.73005" lon="6.77235">
        <ele>2165</ele>
        <time>2022-08-27T01:34:52Z</time>
      </trkpt>
      <trkpt lat="45.73005" lon="6.77238">
        <ele>2166</ele>
        <time>2022-08-27T01:34:54Z</time>
      </trkpt>
      <trkpt lat="45.73006" lon="6.77241">
        <ele>2166</ele>
        <time>2022-08-27T01:34:56Z</time>
      </trkpt>
      <trkpt lat="45.73007" lon="6.77244">
        <ele>2167</ele>
        <time>2022-08-27T01:34:58Z</time>
      </trkpt>
      <trkpt lat="45.73007" lon="6.77247">
        <ele>2167</ele>
        <time>2022-08-27T01:35:00Z</time>
      </trkpt>
      <trkpt lat="45.73008" lon="6.77251">
        <ele>2168</ele>
        <time>2022-08-27T01:35:02Z</time>
      </trkpt>
      <trkpt lat="45.73008" lon="6.77253">
        <ele>2168</ele>
        <time>2022-08-27T01:35:04Z</time>
      </trkpt>
      <trkpt lat="45.73009" lon="6.77256">
        <ele>2168</ele>
        <time>2022-08-27T01:35:06Z</time>
      </trkpt>
      <trkpt lat="45.73011" lon="6.77259">
        <ele>2168</ele>
        <time>2022-08-27T01:35:08Z</time>
      </trkpt>
      <trkpt lat="45.73012" lon="6.77262">
        <ele>2168</ele>
        <time>2022-08-27T01:35:10Z</time>
      </trkpt>
      <trkpt lat="45.73014" lon="6.77265">
        <ele>2168</ele>
        <time>2022-08-27T01:35:12Z</time>
      </trkpt>
      <trkpt lat="45.73016" lon="6.77267">
        <ele>2168</ele>
        <time>2022-08-27T01:35:14Z</time>
      </trkpt>
      <trkpt lat="45.73018" lon="6.77269">
        <ele>2168</ele>
        <time>2022-08-27T01:35:16Z</time>
      </trkpt>
      <trkpt lat="45.7302" lon="6.77271">
        <ele>2168</ele>
        <time>2022-08-27T01:35:18Z</time>
      </trkpt>
      <trkpt lat="45.73022" lon="6.77274">
        <ele>2168</ele>
        <time>2022-08-27T01:35:20Z</time>
      </trkpt>
      <trkpt lat="45.73024" lon="6.77276">
        <ele>2168</ele>
        <time>2022-08-27T01:35:22Z</time>
      </trkpt>
      <trkpt lat="45.73025" lon="6.77279">
        <ele>2170</ele>
        <time>2022-08-27T01:35:24Z</time>
      </trkpt>
      <trkpt lat="45.73026" lon="6.77282">
        <ele>2171</ele>
        <time>2022-08-27T01:35:26Z</time>
      </trkpt>
      <trkpt lat="45.73026" lon="6.77285">
        <ele>2171</ele>
        <time>2022-08-27T01:35:28Z</time>
      </trkpt>
      <trkpt lat="45.73027" lon="6.77288">
        <ele>2171</ele>
        <time>2022-08-27T01:35:30Z</time>
      </trkpt>
      <trkpt lat="45.73029" lon="6.7729">
        <ele>2172</ele>
        <time>2022-08-27T01:35:32Z</time>
      </trkpt>
      <trkpt lat="45.7303" lon="6.77292">
        <ele>2172</ele>
        <time>2022-08-27T01:35:34Z</time>
      </trkpt>
      <trkpt lat="45.73032" lon="6.77295">
        <ele>2172</ele>
        <time>2022-08-27T01:35:36Z</time>
      </trkpt>
      <trkpt lat="45.73033" lon="6.77297">
        <ele>2173</ele>
        <time>2022-08-27T01:35:38Z</time>
      </trkpt>
      <trkpt lat="45.73035" lon="6.773">
        <ele>2173</ele>
        <time>2022-08-27T01:35:40Z</time>
      </trkpt>
      <trkpt lat="45.73037" lon="6.77302">
        <ele>2173</ele>
        <time>2022-08-27T01:35:42Z</time>
      </trkpt>
      <trkpt lat="45.73039" lon="6.77304">
        <ele>2174</ele>
        <time>2022-08-27T01:35:44Z</time>
      </trkpt>
      <trkpt lat="45.73041" lon="6.77306">
        <ele>2174</ele>
        <time>2022-08-27T01:35:46Z</time>
      </trkpt>
      <trkpt lat="45.73043" lon="6.77308">
        <ele>2174</ele>
        <time>2022-08-27T01:35:48Z</time>
      </trkpt>
      <trkpt lat="45.73044" lon="6.7731">
        <ele>2175</ele>
        <time>2022-08-27T01:35:50Z</time>
      </trkpt>
      <trkpt lat="45.73046" lon="6.77313">
        <ele>2175</ele>
        <time>2022-08-27T01:35:52Z</time>
      </trkpt>
      <trkpt lat="45.73048" lon="6.77315">
        <ele>2175</ele>
        <time>2022-08-27T01:35:54Z</time>
      </trkpt>
      <trkpt lat="45.7305" lon="6.77318">
        <ele>2175</ele>
        <time>2022-08-27T01:35:56Z</time>
      </trkpt>
      <trkpt lat="45.73051" lon="6.7732">
        <ele>2176</ele>
        <time>2022-08-27T01:35:58Z</time>
      </trkpt>
      <trkpt lat="45.73053" lon="6.77323">
        <ele>2176</ele>
        <time>2022-08-27T01:36:00Z</time>
      </trkpt>
      <trkpt lat="45.73054" lon="6.77326">
        <ele>2176</ele>
        <time>2022-08-27T01:36:02Z</time>
      </trkpt>
      <trkpt lat="45.73056" lon="6.77327">
        <ele>2177</ele>
        <time>2022-08-27T01:36:04Z</time>
      </trkpt>
      <trkpt lat="45.73058" lon="6.7733">
        <ele>2177</ele>
        <time>2022-08-27T01:36:06Z</time>
      </trkpt>
      <trkpt lat="45.73059" lon="6.77331">
        <ele>2177</ele>
        <time>2022-08-27T01:36:08Z</time>
      </trkpt>
      <trkpt lat="45.73062" lon="6.77333">
        <ele>2177</ele>
        <time>2022-08-27T01:36:10Z</time>
      </trkpt>
      <trkpt lat="45.73063" lon="6.77334">
        <ele>2177</ele>
        <time>2022-08-27T01:36:12Z</time>
      </trkpt>
      <trkpt lat="45.73066" lon="6.77335">
        <ele>2178</ele>
        <time>2022-08-27T01:36:14Z</time>
      </trkpt>
      <trkpt lat="45.73068" lon="6.77337">
        <ele>2178</ele>
        <time>2022-08-27T01:36:16Z</time>
      </trkpt>
      <trkpt lat="45.7307" lon="6.77338">
        <ele>2178</ele>
        <time>2022-08-27T01:36:18Z</time>
      </trkpt>
      <trkpt lat="45.73072" lon="6.7734">
        <ele>2178</ele>
        <time>2022-08-27T01:36:20Z</time>
      </trkpt>
      <trkpt lat="45.73074" lon="6.77341">
        <ele>2179</ele>
        <time>2022-08-27T01:36:22Z</time>
      </trkpt>
      <trkpt lat="45.73076" lon="6.77343">
        <ele>2179</ele>
        <time>2022-08-27T01:36:24Z</time>
      </trkpt>
      <trkpt lat="45.73077" lon="6.77345">
        <ele>2179</ele>
        <time>2022-08-27T01:36:26Z</time>
      </trkpt>
      <trkpt lat="45.73079" lon="6.77347">
        <ele>2179</ele>
        <time>2022-08-27T01:36:28Z</time>
      </trkpt>
      <trkpt lat="45.73081" lon="6.7735">
        <ele>2179</ele>
        <time>2022-08-27T01:36:30Z</time>
      </trkpt>
      <trkpt lat="45.73083" lon="6.77352">
        <ele>2179</ele>
        <time>2022-08-27T01:36:32Z</time>
      </trkpt>
      <trkpt lat="45.73085" lon="6.77354">
        <ele>2179</ele>
        <time>2022-08-27T01:36:34Z</time>
      </trkpt>
      <trkpt lat="45.73087" lon="6.77356">
        <ele>2180</ele>
        <time>2022-08-27T01:36:36Z</time>
      </trkpt>
      <trkpt lat="45.73089" lon="6.77359">
        <ele>2180</ele>
        <time>2022-08-27T01:36:38Z</time>
      </trkpt>
      <trkpt lat="45.7309" lon="6.77362">
        <ele>2180</ele>
        <time>2022-08-27T01:36:40Z</time>
      </trkpt>
      <trkpt lat="45.73092" lon="6.77364">
        <ele>2181</ele>
        <time>2022-08-27T01:36:42Z</time>
      </trkpt>
      <trkpt lat="45.73094" lon="6.77367">
        <ele>2181</ele>
        <time>2022-08-27T01:36:44Z</time>
      </trkpt>
      <trkpt lat="45.73095" lon="6.77369">
        <ele>2181</ele>
        <time>2022-08-27T01:36:46Z</time>
      </trkpt>
      <trkpt lat="45.73097" lon="6.77372">
        <ele>2182</ele>
        <time>2022-08-27T01:36:48Z</time>
      </trkpt>
      <trkpt lat="45.73098" lon="6.77375">
        <ele>2182</ele>
        <time>2022-08-27T01:36:50Z</time>
      </trkpt>
      <trkpt lat="45.73099" lon="6.77378">
        <ele>2182</ele>
        <time>2022-08-27T01:36:52Z</time>
      </trkpt>
      <trkpt lat="45.731" lon="6.77381">
        <ele>2182</ele>
        <time>2022-08-27T01:36:54Z</time>
      </trkpt>
      <trkpt lat="45.73102" lon="6.77383">
        <ele>2183</ele>
        <time>2022-08-27T01:36:56Z</time>
      </trkpt>
      <trkpt lat="45.73103" lon="6.77386">
        <ele>2183</ele>
        <time>2022-08-27T01:36:58Z</time>
      </trkpt>
      <trkpt lat="45.73105" lon="6.77389">
        <ele>2184</ele>
        <time>2022-08-27T01:37:00Z</time>
      </trkpt>
      <trkpt lat="45.73106" lon="6.77392">
        <ele>2184</ele>
        <time>2022-08-27T01:37:02Z</time>
      </trkpt>
      <trkpt lat="45.73108" lon="6.77394">
        <ele>2184</ele>
        <time>2022-08-27T01:37:04Z</time>
      </trkpt>
      <trkpt lat="45.73109" lon="6.77397">
        <ele>2184</ele>
        <time>2022-08-27T01:37:06Z</time>
      </trkpt>
      <trkpt lat="45.73111" lon="6.77399">
        <ele>2184</ele>
        <time>2022-08-27T01:37:08Z</time>
      </trkpt>
      <trkpt lat="45.73113" lon="6.77402">
        <ele>2184</ele>
        <time>2022-08-27T01:37:10Z</time>
      </trkpt>
      <trkpt lat="45.73114" lon="6.77405">
        <ele>2184</ele>
        <time>2022-08-27T01:37:12Z</time>
      </trkpt>
      <trkpt lat="45.73116" lon="6.77408">
        <ele>2184</ele>
        <time>2022-08-27T01:37:14Z</time>
      </trkpt>
      <trkpt lat="45.73118" lon="6.7741">
        <ele>2184</ele>
        <time>2022-08-27T01:37:16Z</time>
      </trkpt>
      <trkpt lat="45.73119" lon="6.77413">
        <ele>2184</ele>
        <time>2022-08-27T01:37:18Z</time>
      </trkpt>
      <trkpt lat="45.73121" lon="6.77416">
        <ele>2185</ele>
        <time>2022-08-27T01:37:20Z</time>
      </trkpt>
      <trkpt lat="45.73122" lon="6.77418">
        <ele>2185</ele>
        <time>2022-08-27T01:37:22Z</time>
      </trkpt>
      <trkpt lat="45.73124" lon="6.77421">
        <ele>2186</ele>
        <time>2022-08-27T01:37:24Z</time>
      </trkpt>
      <trkpt lat="45.73126" lon="6.77424">
        <ele>2186</ele>
        <time>2022-08-27T01:37:26Z</time>
      </trkpt>
      <trkpt lat="45.73127" lon="6.77426">
        <ele>2186</ele>
        <time>2022-08-27T01:37:28Z</time>
      </trkpt>
      <trkpt lat="45.73129" lon="6.7743">
        <ele>2186</ele>
        <time>2022-08-27T01:37:30Z</time>
      </trkpt>
      <trkpt lat="45.7313" lon="6.77432">
        <ele>2187</ele>
        <time>2022-08-27T01:37:32Z</time>
      </trkpt>
      <trkpt lat="45.73132" lon="6.77435">
        <ele>2187</ele>
        <time>2022-08-27T01:37:34Z</time>
      </trkpt>
      <trkpt lat="45.73134" lon="6.77438">
        <ele>2187</ele>
        <time>2022-08-27T01:37:36Z</time>
      </trkpt>
      <trkpt lat="45.73135" lon="6.7744">
        <ele>2187</ele>
        <time>2022-08-27T01:37:38Z</time>
      </trkpt>
      <trkpt lat="45.73137" lon="6.77443">
        <ele>2188</ele>
        <time>2022-08-27T01:37:40Z</time>
      </trkpt>
      <trkpt lat="45.73138" lon="6.77446">
        <ele>2188</ele>
        <time>2022-08-27T01:37:42Z</time>
      </trkpt>
      <trkpt lat="45.7314" lon="6.77449">
        <ele>2188</ele>
        <time>2022-08-27T01:37:44Z</time>
      </trkpt>
      <trkpt lat="45.73141" lon="6.77452">
        <ele>2188</ele>
        <time>2022-08-27T01:37:46Z</time>
      </trkpt>
      <trkpt lat="45.73143" lon="6.77454">
        <ele>2188</ele>
        <time>2022-08-27T01:37:48Z</time>
      </trkpt>
      <trkpt lat="45.73145" lon="6.77457">
        <ele>2189</ele>
        <time>2022-08-27T01:37:50Z</time>
      </trkpt>
      <trkpt lat="45.73147" lon="6.77459">
        <ele>2189</ele>
        <time>2022-08-27T01:37:52Z</time>
      </trkpt>
      <trkpt lat="45.73149" lon="6.77462">
        <ele>2189</ele>
        <time>2022-08-27T01:37:54Z</time>
      </trkpt>
      <trkpt lat="45.7315" lon="6.77464">
        <ele>2189</ele>
        <time>2022-08-27T01:37:56Z</time>
      </trkpt>
      <trkpt lat="45.73152" lon="6.77466">
        <ele>2189</ele>
        <time>2022-08-27T01:37:58Z</time>
      </trkpt>
      <trkpt lat="45.73154" lon="6.77468">
        <ele>2189</ele>
        <time>2022-08-27T01:38:00Z</time>
      </trkpt>
      <trkpt lat="45.73157" lon="6.7747">
        <ele>2189</ele>
        <time>2022-08-27T01:38:02Z</time>
      </trkpt>
      <trkpt lat="45.73159" lon="6.77471">
        <ele>2190</ele>
        <time>2022-08-27T01:38:04Z</time>
      </trkpt>
      <trkpt lat="45.73161" lon="6.77472">
        <ele>2190</ele>
        <time>2022-08-27T01:38:06Z</time>
      </trkpt>
      <trkpt lat="45.73164" lon="6.77473">
        <ele>2190</ele>
        <time>2022-08-27T01:38:08Z</time>
      </trkpt>
      <trkpt lat="45.73166" lon="6.77473">
        <ele>2190</ele>
        <time>2022-08-27T01:38:10Z</time>
      </trkpt>
      <trkpt lat="45.73168" lon="6.77474">
        <ele>2190</ele>
        <time>2022-08-27T01:38:12Z</time>
      </trkpt>
      <trkpt lat="45.7317" lon="6.77476">
        <ele>2191</ele>
        <time>2022-08-27T01:38:14Z</time>
      </trkpt>
      <trkpt lat="45.73173" lon="6.77477">
        <ele>2192</ele>
        <time>2022-08-27T01:38:17Z</time>
      </trkpt>
      <trkpt lat="45.73175" lon="6.77478">
        <ele>2192</ele>
        <time>2022-08-27T01:38:19Z</time>
      </trkpt>
      <trkpt lat="45.73177" lon="6.77479">
        <ele>2192</ele>
        <time>2022-08-27T01:38:21Z</time>
      </trkpt>
      <trkpt lat="45.7318" lon="6.7748">
        <ele>2192</ele>
        <time>2022-08-27T01:38:23Z</time>
      </trkpt>
      <trkpt lat="45.73182" lon="6.77481">
        <ele>2192</ele>
        <time>2022-08-27T01:38:25Z</time>
      </trkpt>
      <trkpt lat="45.73184" lon="6.77482">
        <ele>2192</ele>
        <time>2022-08-27T01:38:27Z</time>
      </trkpt>
      <trkpt lat="45.73186" lon="6.77484">
        <ele>2193</ele>
        <time>2022-08-27T01:38:29Z</time>
      </trkpt>
      <trkpt lat="45.73188" lon="6.77485">
        <ele>2193</ele>
        <time>2022-08-27T01:38:31Z</time>
      </trkpt>
      <trkpt lat="45.7319" lon="6.77486">
        <ele>2193</ele>
        <time>2022-08-27T01:38:33Z</time>
      </trkpt>
      <trkpt lat="45.73193" lon="6.77487">
        <ele>2194</ele>
        <time>2022-08-27T01:38:35Z</time>
      </trkpt>
      <trkpt lat="45.73195" lon="6.77488">
        <ele>2194</ele>
        <time>2022-08-27T01:38:37Z</time>
      </trkpt>
      <trkpt lat="45.73197" lon="6.77489">
        <ele>2194</ele>
        <time>2022-08-27T01:38:39Z</time>
      </trkpt>
      <trkpt lat="45.73199" lon="6.77491">
        <ele>2194</ele>
        <time>2022-08-27T01:38:41Z</time>
      </trkpt>
      <trkpt lat="45.73201" lon="6.77492">
        <ele>2194</ele>
        <time>2022-08-27T01:38:43Z</time>
      </trkpt>
      <trkpt lat="45.73203" lon="6.77493">
        <ele>2196</ele>
        <time>2022-08-27T01:38:45Z</time>
      </trkpt>
      <trkpt lat="45.73205" lon="6.77495">
        <ele>2196</ele>
        <time>2022-08-27T01:38:47Z</time>
      </trkpt>
      <trkpt lat="45.73207" lon="6.77496">
        <ele>2197</ele>
        <time>2022-08-27T01:38:49Z</time>
      </trkpt>
      <trkpt lat="45.7321" lon="6.77497">
        <ele>2197</ele>
        <time>2022-08-27T01:38:51Z</time>
      </trkpt>
      <trkpt lat="45.73212" lon="6.77498">
        <ele>2198</ele>
        <time>2022-08-27T01:38:53Z</time>
      </trkpt>
      <trkpt lat="45.73214" lon="6.775">
        <ele>2198</ele>
        <time>2022-08-27T01:38:55Z</time>
      </trkpt>
      <trkpt lat="45.73216" lon="6.77501">
        <ele>2198</ele>
        <time>2022-08-27T01:38:57Z</time>
      </trkpt>
      <trkpt lat="45.73218" lon="6.77502">
        <ele>2198</ele>
        <time>2022-08-27T01:38:59Z</time>
      </trkpt>
      <trkpt lat="45.7322" lon="6.77504">
        <ele>2198</ele>
        <time>2022-08-27T01:39:01Z</time>
      </trkpt>
      <trkpt lat="45.73222" lon="6.77506">
        <ele>2199</ele>
        <time>2022-08-27T01:39:03Z</time>
      </trkpt>
      <trkpt lat="45.73223" lon="6.77508">
        <ele>2199</ele>
        <time>2022-08-27T01:39:05Z</time>
      </trkpt>
      <trkpt lat="45.73225" lon="6.77511">
        <ele>2200</ele>
        <time>2022-08-27T01:39:07Z</time>
      </trkpt>
      <trkpt lat="45.73227" lon="6.77514">
        <ele>2200</ele>
        <time>2022-08-27T01:39:09Z</time>
      </trkpt>
      <trkpt lat="45.73228" lon="6.77516">
        <ele>2200</ele>
        <time>2022-08-27T01:39:11Z</time>
      </trkpt>
      <trkpt lat="45.7323" lon="6.77518">
        <ele>2200</ele>
        <time>2022-08-27T01:39:13Z</time>
      </trkpt>
      <trkpt lat="45.73232" lon="6.77521">
        <ele>2200</ele>
        <time>2022-08-27T01:39:15Z</time>
      </trkpt>
      <trkpt lat="45.73233" lon="6.77524">
        <ele>2200</ele>
        <time>2022-08-27T01:39:17Z</time>
      </trkpt>
      <trkpt lat="45.73235" lon="6.77527">
        <ele>2200</ele>
        <time>2022-08-27T01:39:19Z</time>
      </trkpt>
      <trkpt lat="45.73236" lon="6.77529">
        <ele>2200</ele>
        <time>2022-08-27T01:39:21Z</time>
      </trkpt>
      <trkpt lat="45.73238" lon="6.77532">
        <ele>2201</ele>
        <time>2022-08-27T01:39:23Z</time>
      </trkpt>
      <trkpt lat="45.7324" lon="6.77535">
        <ele>2202</ele>
        <time>2022-08-27T01:39:25Z</time>
      </trkpt>
      <trkpt lat="45.73242" lon="6.77537">
        <ele>2202</ele>
        <time>2022-08-27T01:39:27Z</time>
      </trkpt>
      <trkpt lat="45.73244" lon="6.77539">
        <ele>2202</ele>
        <time>2022-08-27T01:39:29Z</time>
      </trkpt>
      <trkpt lat="45.73245" lon="6.77541">
        <ele>2203</ele>
        <time>2022-08-27T01:39:31Z</time>
      </trkpt>
      <trkpt lat="45.73247" lon="6.77544">
        <ele>2203</ele>
        <time>2022-08-27T01:39:33Z</time>
      </trkpt>
      <trkpt lat="45.73248" lon="6.77547">
        <ele>2203</ele>
        <time>2022-08-27T01:39:35Z</time>
      </trkpt>
      <trkpt lat="45.7325" lon="6.77549">
        <ele>2203</ele>
        <time>2022-08-27T01:39:37Z</time>
      </trkpt>
      <trkpt lat="45.73251" lon="6.77551">
        <ele>2204</ele>
        <time>2022-08-27T01:39:39Z</time>
      </trkpt>
      <trkpt lat="45.73253" lon="6.77553">
        <ele>2204</ele>
        <time>2022-08-27T01:39:41Z</time>
      </trkpt>
      <trkpt lat="45.73254" lon="6.77556">
        <ele>2204</ele>
        <time>2022-08-27T01:39:43Z</time>
      </trkpt>
      <trkpt lat="45.73255" lon="6.77558">
        <ele>2204</ele>
        <time>2022-08-27T01:39:45Z</time>
      </trkpt>
      <trkpt lat="45.73257" lon="6.77561">
        <ele>2204</ele>
        <time>2022-08-27T01:39:47Z</time>
      </trkpt>
      <trkpt lat="45.73258" lon="6.77563">
        <ele>2204</ele>
        <time>2022-08-27T01:39:49Z</time>
      </trkpt>
      <trkpt lat="45.73259" lon="6.77566">
        <ele>2204</ele>
        <time>2022-08-27T01:39:51Z</time>
      </trkpt>
      <trkpt lat="45.73261" lon="6.77568">
        <ele>2204</ele>
        <time>2022-08-27T01:39:53Z</time>
      </trkpt>
      <trkpt lat="45.73262" lon="6.7757">
        <ele>2205</ele>
        <time>2022-08-27T01:39:55Z</time>
      </trkpt>
      <trkpt lat="45.73263" lon="6.77573">
        <ele>2205</ele>
        <time>2022-08-27T01:39:57Z</time>
      </trkpt>
      <trkpt lat="45.73264" lon="6.77576">
        <ele>2205</ele>
        <time>2022-08-27T01:39:59Z</time>
      </trkpt>
      <trkpt lat="45.73265" lon="6.77578">
        <ele>2206</ele>
        <time>2022-08-27T01:40:01Z</time>
      </trkpt>
      <trkpt lat="45.73265" lon="6.77581">
        <ele>2206</ele>
        <time>2022-08-27T01:40:03Z</time>
      </trkpt>
      <trkpt lat="45.73266" lon="6.77585">
        <ele>2206</ele>
        <time>2022-08-27T01:40:05Z</time>
      </trkpt>
      <trkpt lat="45.73267" lon="6.77588">
        <ele>2206</ele>
        <time>2022-08-27T01:40:07Z</time>
      </trkpt>
      <trkpt lat="45.73268" lon="6.77591">
        <ele>2207</ele>
        <time>2022-08-27T01:40:09Z</time>
      </trkpt>
      <trkpt lat="45.73268" lon="6.77595">
        <ele>2207</ele>
        <time>2022-08-27T01:40:11Z</time>
      </trkpt>
      <trkpt lat="45.73269" lon="6.77598">
        <ele>2207</ele>
        <time>2022-08-27T01:40:13Z</time>
      </trkpt>
      <trkpt lat="45.7327" lon="6.77601">
        <ele>2207</ele>
        <time>2022-08-27T01:40:15Z</time>
      </trkpt>
      <trkpt lat="45.73272" lon="6.77604">
        <ele>2207</ele>
        <time>2022-08-27T01:40:17Z</time>
      </trkpt>
      <trkpt lat="45.73273" lon="6.77607">
        <ele>2207</ele>
        <time>2022-08-27T01:40:19Z</time>
      </trkpt>
      <trkpt lat="45.73275" lon="6.7761">
        <ele>2207</ele>
        <time>2022-08-27T01:40:21Z</time>
      </trkpt>
      <trkpt lat="45.73277" lon="6.77612">
        <ele>2207</ele>
        <time>2022-08-27T01:40:23Z</time>
      </trkpt>
      <trkpt lat="45.73278" lon="6.77614">
        <ele>2208</ele>
        <time>2022-08-27T01:40:25Z</time>
      </trkpt>
      <trkpt lat="45.73279" lon="6.77616">
        <ele>2208</ele>
        <time>2022-08-27T01:40:27Z</time>
      </trkpt>
      <trkpt lat="45.73281" lon="6.77618">
        <ele>2208</ele>
        <time>2022-08-27T01:40:29Z</time>
      </trkpt>
      <trkpt lat="45.73282" lon="6.7762">
        <ele>2208</ele>
        <time>2022-08-27T01:40:31Z</time>
      </trkpt>
      <trkpt lat="45.73284" lon="6.77622">
        <ele>2208</ele>
        <time>2022-08-27T01:40:33Z</time>
      </trkpt>
      <trkpt lat="45.73285" lon="6.77624">
        <ele>2208</ele>
        <time>2022-08-27T01:40:35Z</time>
      </trkpt>
      <trkpt lat="45.73287" lon="6.77627">
        <ele>2209</ele>
        <time>2022-08-27T01:40:37Z</time>
      </trkpt>
      <trkpt lat="45.73289" lon="6.7763">
        <ele>2209</ele>
        <time>2022-08-27T01:40:39Z</time>
      </trkpt>
      <trkpt lat="45.73291" lon="6.77632">
        <ele>2210</ele>
        <time>2022-08-27T01:40:41Z</time>
      </trkpt>
      <trkpt lat="45.73292" lon="6.77635">
        <ele>2210</ele>
        <time>2022-08-27T01:40:43Z</time>
      </trkpt>
      <trkpt lat="45.73294" lon="6.77637">
        <ele>2210</ele>
        <time>2022-08-27T01:40:45Z</time>
      </trkpt>
      <trkpt lat="45.73296" lon="6.7764">
        <ele>2210</ele>
        <time>2022-08-27T01:40:47Z</time>
      </trkpt>
      <trkpt lat="45.73298" lon="6.77643">
        <ele>2210</ele>
        <time>2022-08-27T01:40:49Z</time>
      </trkpt>
      <trkpt lat="45.73299" lon="6.77645">
        <ele>2210</ele>
        <time>2022-08-27T01:40:51Z</time>
      </trkpt>
      <trkpt lat="45.73301" lon="6.77648">
        <ele>2210</ele>
        <time>2022-08-27T01:40:53Z</time>
      </trkpt>
      <trkpt lat="45.73303" lon="6.7765">
        <ele>2210</ele>
        <time>2022-08-27T01:40:55Z</time>
      </trkpt>
      <trkpt lat="45.73305" lon="6.77653">
        <ele>2210</ele>
        <time>2022-08-27T01:40:57Z</time>
      </trkpt>
      <trkpt lat="45.73306" lon="6.77656">
        <ele>2210</ele>
        <time>2022-08-27T01:40:59Z</time>
      </trkpt>
      <trkpt lat="45.73308" lon="6.77659">
        <ele>2210</ele>
        <time>2022-08-27T01:41:01Z</time>
      </trkpt>
      <trkpt lat="45.7331" lon="6.77662">
        <ele>2211</ele>
        <time>2022-08-27T01:41:03Z</time>
      </trkpt>
      <trkpt lat="45.73311" lon="6.77664">
        <ele>2211</ele>
        <time>2022-08-27T01:41:05Z</time>
      </trkpt>
      <trkpt lat="45.73313" lon="6.77667">
        <ele>2211</ele>
        <time>2022-08-27T01:41:07Z</time>
      </trkpt>
      <trkpt lat="45.73315" lon="6.77668">
        <ele>2211</ele>
        <time>2022-08-27T01:41:09Z</time>
      </trkpt>
      <trkpt lat="45.73317" lon="6.7767">
        <ele>2211</ele>
        <time>2022-08-27T01:41:11Z</time>
      </trkpt>
      <trkpt lat="45.7332" lon="6.77672">
        <ele>2211</ele>
        <time>2022-08-27T01:41:13Z</time>
      </trkpt>
      <trkpt lat="45.73322" lon="6.77674">
        <ele>2212</ele>
        <time>2022-08-27T01:41:15Z</time>
      </trkpt>
      <trkpt lat="45.73324" lon="6.77675">
        <ele>2212</ele>
        <time>2022-08-27T01:41:17Z</time>
      </trkpt>
      <trkpt lat="45.73326" lon="6.77677">
        <ele>2212</ele>
        <time>2022-08-27T01:41:19Z</time>
      </trkpt>
      <trkpt lat="45.73328" lon="6.7768">
        <ele>2212</ele>
        <time>2022-08-27T01:41:21Z</time>
      </trkpt>
      <trkpt lat="45.7333" lon="6.77682">
        <ele>2212</ele>
        <time>2022-08-27T01:41:23Z</time>
      </trkpt>
      <trkpt lat="45.73332" lon="6.77684">
        <ele>2213</ele>
        <time>2022-08-27T01:41:25Z</time>
      </trkpt>
      <trkpt lat="45.73333" lon="6.77687">
        <ele>2213</ele>
        <time>2022-08-27T01:41:27Z</time>
      </trkpt>
      <trkpt lat="45.73335" lon="6.77691">
        <ele>2213</ele>
        <time>2022-08-27T01:41:29Z</time>
      </trkpt>
      <trkpt lat="45.73337" lon="6.77694">
        <ele>2213</ele>
        <time>2022-08-27T01:41:31Z</time>
      </trkpt>
      <trkpt lat="45.73338" lon="6.77697">
        <ele>2213</ele>
        <time>2022-08-27T01:41:33Z</time>
      </trkpt>
      <trkpt lat="45.73339" lon="6.777">
        <ele>2213</ele>
        <time>2022-08-27T01:41:35Z</time>
      </trkpt>
      <trkpt lat="45.7334" lon="6.77703">
        <ele>2213</ele>
        <time>2022-08-27T01:41:37Z</time>
      </trkpt>
      <trkpt lat="45.73342" lon="6.77705">
        <ele>2213</ele>
        <time>2022-08-27T01:41:39Z</time>
      </trkpt>
      <trkpt lat="45.73344" lon="6.77708">
        <ele>2213</ele>
        <time>2022-08-27T01:41:41Z</time>
      </trkpt>
      <trkpt lat="45.73346" lon="6.7771">
        <ele>2213</ele>
        <time>2022-08-27T01:41:43Z</time>
      </trkpt>
      <trkpt lat="45.73348" lon="6.77712">
        <ele>2214</ele>
        <time>2022-08-27T01:41:45Z</time>
      </trkpt>
      <trkpt lat="45.7335" lon="6.77714">
        <ele>2214</ele>
        <time>2022-08-27T01:41:47Z</time>
      </trkpt>
      <trkpt lat="45.73352" lon="6.77716">
        <ele>2214</ele>
        <time>2022-08-27T01:41:49Z</time>
      </trkpt>
      <trkpt lat="45.73355" lon="6.77718">
        <ele>2214</ele>
        <time>2022-08-27T01:41:51Z</time>
      </trkpt>
      <trkpt lat="45.73357" lon="6.7772">
        <ele>2214</ele>
        <time>2022-08-27T01:41:53Z</time>
      </trkpt>
      <trkpt lat="45.73359" lon="6.77721">
        <ele>2214</ele>
        <time>2022-08-27T01:41:55Z</time>
      </trkpt>
      <trkpt lat="45.73362" lon="6.77722">
        <ele>2214</ele>
        <time>2022-08-27T01:41:57Z</time>
      </trkpt>
      <trkpt lat="45.73365" lon="6.77723">
        <ele>2214</ele>
        <time>2022-08-27T01:41:59Z</time>
      </trkpt>
      <trkpt lat="45.73367" lon="6.77724">
        <ele>2214</ele>
        <time>2022-08-27T01:42:01Z</time>
      </trkpt>
      <trkpt lat="45.73369" lon="6.77724">
        <ele>2214</ele>
        <time>2022-08-27T01:42:03Z</time>
      </trkpt>
      <trkpt lat="45.73372" lon="6.77724">
        <ele>2215</ele>
        <time>2022-08-27T01:42:05Z</time>
      </trkpt>
      <trkpt lat="45.73375" lon="6.77724">
        <ele>2215</ele>
        <time>2022-08-27T01:42:07Z</time>
      </trkpt>
      <trkpt lat="45.73377" lon="6.77725">
        <ele>2215</ele>
        <time>2022-08-27T01:42:09Z</time>
      </trkpt>
      <trkpt lat="45.7338" lon="6.77725">
        <ele>2216</ele>
        <time>2022-08-27T01:42:11Z</time>
      </trkpt>
      <trkpt lat="45.73382" lon="6.77726">
        <ele>2216</ele>
        <time>2022-08-27T01:42:13Z</time>
      </trkpt>
      <trkpt lat="45.73385" lon="6.77727">
        <ele>2216</ele>
        <time>2022-08-27T01:42:15Z</time>
      </trkpt>
      <trkpt lat="45.73387" lon="6.77727">
        <ele>2216</ele>
        <time>2022-08-27T01:42:17Z</time>
      </trkpt>
      <trkpt lat="45.7339" lon="6.77729">
        <ele>2216</ele>
        <time>2022-08-27T01:42:19Z</time>
      </trkpt>
      <trkpt lat="45.73392" lon="6.7773">
        <ele>2217</ele>
        <time>2022-08-27T01:42:21Z</time>
      </trkpt>
      <trkpt lat="45.73394" lon="6.77732">
        <ele>2217</ele>
        <time>2022-08-27T01:42:23Z</time>
      </trkpt>
      <trkpt lat="45.73397" lon="6.77734">
        <ele>2217</ele>
        <time>2022-08-27T01:42:25Z</time>
      </trkpt>
      <trkpt lat="45.73399" lon="6.77735">
        <ele>2217</ele>
        <time>2022-08-27T01:42:27Z</time>
      </trkpt>
      <trkpt lat="45.73402" lon="6.77736">
        <ele>2217</ele>
        <time>2022-08-27T01:42:29Z</time>
      </trkpt>
      <trkpt lat="45.73404" lon="6.77737">
        <ele>2218</ele>
        <time>2022-08-27T01:42:31Z</time>
      </trkpt>
      <trkpt lat="45.73406" lon="6.77738">
        <ele>2219</ele>
        <time>2022-08-27T01:42:33Z</time>
      </trkpt>
      <trkpt lat="45.73409" lon="6.77739">
        <ele>2219</ele>
        <time>2022-08-27T01:42:35Z</time>
      </trkpt>
      <trkpt lat="45.73411" lon="6.7774">
        <ele>2218</ele>
        <time>2022-08-27T01:42:37Z</time>
      </trkpt>
      <trkpt lat="45.73414" lon="6.77741">
        <ele>2218</ele>
        <time>2022-08-27T01:42:39Z</time>
      </trkpt>
      <trkpt lat="45.73416" lon="6.77743">
        <ele>2218</ele>
        <time>2022-08-27T01:42:41Z</time>
      </trkpt>
      <trkpt lat="45.73418" lon="6.77744">
        <ele>2218</ele>
        <time>2022-08-27T01:42:43Z</time>
      </trkpt>
      <trkpt lat="45.73421" lon="6.77745">
        <ele>2219</ele>
        <time>2022-08-27T01:42:45Z</time>
      </trkpt>
      <trkpt lat="45.73423" lon="6.77745">
        <ele>2219</ele>
        <time>2022-08-27T01:42:47Z</time>
      </trkpt>
      <trkpt lat="45.73426" lon="6.77746">
        <ele>2220</ele>
        <time>2022-08-27T01:42:49Z</time>
      </trkpt>
      <trkpt lat="45.73428" lon="6.77746">
        <ele>2220</ele>
        <time>2022-08-27T01:42:51Z</time>
      </trkpt>
      <trkpt lat="45.7343" lon="6.77747">
        <ele>2220</ele>
        <time>2022-08-27T01:42:54Z</time>
      </trkpt>
      <trkpt lat="45.73432" lon="6.77747">
        <ele>2222</ele>
        <time>2022-08-27T01:42:56Z</time>
      </trkpt>
      <trkpt lat="45.73434" lon="6.77749">
        <ele>2222</ele>
        <time>2022-08-27T01:42:58Z</time>
      </trkpt>
      <trkpt lat="45.73436" lon="6.7775">
        <ele>2222</ele>
        <time>2022-08-27T01:43:00Z</time>
      </trkpt>
      <trkpt lat="45.73437" lon="6.77752">
        <ele>2222</ele>
        <time>2022-08-27T01:43:02Z</time>
      </trkpt>
      <trkpt lat="45.73439" lon="6.77754">
        <ele>2222</ele>
        <time>2022-08-27T01:43:04Z</time>
      </trkpt>
      <trkpt lat="45.73441" lon="6.77757">
        <ele>2222</ele>
        <time>2022-08-27T01:43:06Z</time>
      </trkpt>
      <trkpt lat="45.73442" lon="6.77759">
        <ele>2222</ele>
        <time>2022-08-27T01:43:08Z</time>
      </trkpt>
      <trkpt lat="45.73444" lon="6.77762">
        <ele>2222</ele>
        <time>2022-08-27T01:43:10Z</time>
      </trkpt>
      <trkpt lat="45.73446" lon="6.77764">
        <ele>2222</ele>
        <time>2022-08-27T01:43:12Z</time>
      </trkpt>
      <trkpt lat="45.73447" lon="6.77766">
        <ele>2223</ele>
        <time>2022-08-27T01:43:14Z</time>
      </trkpt>
      <trkpt lat="45.73449" lon="6.77768">
        <ele>2223</ele>
        <time>2022-08-27T01:43:16Z</time>
      </trkpt>
      <trkpt lat="45.73451" lon="6.77769">
        <ele>2223</ele>
        <time>2022-08-27T01:43:18Z</time>
      </trkpt>
      <trkpt lat="45.73454" lon="6.77771">
        <ele>2223</ele>
        <time>2022-08-27T01:43:20Z</time>
      </trkpt>
      <trkpt lat="45.73456" lon="6.77772">
        <ele>2223</ele>
        <time>2022-08-27T01:43:22Z</time>
      </trkpt>
      <trkpt lat="45.73458" lon="6.77773">
        <ele>2223</ele>
        <time>2022-08-27T01:43:24Z</time>
      </trkpt>
      <trkpt lat="45.7346" lon="6.77774">
        <ele>2223</ele>
        <time>2022-08-27T01:43:26Z</time>
      </trkpt>
      <trkpt lat="45.73462" lon="6.77775">
        <ele>2223</ele>
        <time>2022-08-27T01:43:28Z</time>
      </trkpt>
      <trkpt lat="45.73465" lon="6.77776">
        <ele>2223</ele>
        <time>2022-08-27T01:43:30Z</time>
      </trkpt>
      <trkpt lat="45.73467" lon="6.77777">
        <ele>2223</ele>
        <time>2022-08-27T01:43:32Z</time>
      </trkpt>
      <trkpt lat="45.7347" lon="6.77779">
        <ele>2223</ele>
        <time>2022-08-27T01:43:34Z</time>
      </trkpt>
      <trkpt lat="45.73472" lon="6.7778">
        <ele>2223</ele>
        <time>2022-08-27T01:43:36Z</time>
      </trkpt>
      <trkpt lat="45.73474" lon="6.77781">
        <ele>2223</ele>
        <time>2022-08-27T01:43:38Z</time>
      </trkpt>
      <trkpt lat="45.73476" lon="6.77783">
        <ele>2223</ele>
        <time>2022-08-27T01:43:41Z</time>
      </trkpt>
      <trkpt lat="45.73478" lon="6.77785">
        <ele>2224</ele>
        <time>2022-08-27T01:43:43Z</time>
      </trkpt>
      <trkpt lat="45.73481" lon="6.77786">
        <ele>2224</ele>
        <time>2022-08-27T01:43:45Z</time>
      </trkpt>
      <trkpt lat="45.73483" lon="6.77788">
        <ele>2224</ele>
        <time>2022-08-27T01:43:47Z</time>
      </trkpt>
      <trkpt lat="45.73486" lon="6.77791">
        <ele>2224</ele>
        <time>2022-08-27T01:43:49Z</time>
      </trkpt>
      <trkpt lat="45.73488" lon="6.77793">
        <ele>2224</ele>
        <time>2022-08-27T01:43:51Z</time>
      </trkpt>
      <trkpt lat="45.7349" lon="6.77795">
        <ele>2224</ele>
        <time>2022-08-27T01:43:53Z</time>
      </trkpt>
      <trkpt lat="45.73492" lon="6.77797">
        <ele>2225</ele>
        <time>2022-08-27T01:43:55Z</time>
      </trkpt>
      <trkpt lat="45.73495" lon="6.77799">
        <ele>2225</ele>
        <time>2022-08-27T01:43:57Z</time>
      </trkpt>
      <trkpt lat="45.73497" lon="6.77801">
        <ele>2225</ele>
        <time>2022-08-27T01:43:59Z</time>
      </trkpt>
      <trkpt lat="45.735" lon="6.77803">
        <ele>2225</ele>
        <time>2022-08-27T01:44:01Z</time>
      </trkpt>
      <trkpt lat="45.73502" lon="6.77804">
        <ele>2225</ele>
        <time>2022-08-27T01:44:03Z</time>
      </trkpt>
      <trkpt lat="45.73503" lon="6.77807">
        <ele>2225</ele>
        <time>2022-08-27T01:44:05Z</time>
      </trkpt>
      <trkpt lat="45.73504" lon="6.7781">
        <ele>2225</ele>
        <time>2022-08-27T01:44:07Z</time>
      </trkpt>
      <trkpt lat="45.73505" lon="6.77813">
        <ele>2225</ele>
        <time>2022-08-27T01:44:09Z</time>
      </trkpt>
      <trkpt lat="45.73506" lon="6.77818">
        <ele>2225</ele>
        <time>2022-08-27T01:44:11Z</time>
      </trkpt>
      <trkpt lat="45.73506" lon="6.77823">
        <ele>2224</ele>
        <time>2022-08-27T01:44:13Z</time>
      </trkpt>
      <trkpt lat="45.73506" lon="6.77826">
        <ele>2223</ele>
        <time>2022-08-27T01:44:14Z</time>
      </trkpt>
      <trkpt lat="45.73506" lon="6.77828">
        <ele>2223</ele>
        <time>2022-08-27T01:44:15Z</time>
      </trkpt>
      <trkpt lat="45.73507" lon="6.77833">
        <ele>2222</ele>
        <time>2022-08-27T01:44:17Z</time>
      </trkpt>
      <trkpt lat="45.73507" lon="6.77836">
        <ele>2222</ele>
        <time>2022-08-27T01:44:19Z</time>
      </trkpt>
      <trkpt lat="45.73508" lon="6.77839">
        <ele>2222</ele>
        <time>2022-08-27T01:44:21Z</time>
      </trkpt>
      <trkpt lat="45.7351" lon="6.77842">
        <ele>2222</ele>
        <time>2022-08-27T01:44:23Z</time>
      </trkpt>
      <trkpt lat="45.73512" lon="6.77841">
        <ele>2220</ele>
        <time>2022-08-27T01:44:27Z</time>
      </trkpt>
      <trkpt lat="45.73514" lon="6.77837">
        <ele>2219</ele>
        <time>2022-08-27T01:44:29Z</time>
      </trkpt>
      <trkpt lat="45.73515" lon="6.77836">
        <ele>2218</ele>
        <time>2022-08-27T01:44:31Z</time>
      </trkpt>
      <trkpt lat="45.73517" lon="6.77837">
        <ele>2217</ele>
        <time>2022-08-27T01:44:33Z</time>
      </trkpt>
      <trkpt lat="45.7352" lon="6.77839">
        <ele>2217</ele>
        <time>2022-08-27T01:44:35Z</time>
      </trkpt>
      <trkpt lat="45.73522" lon="6.77841">
        <ele>2217</ele>
        <time>2022-08-27T01:44:37Z</time>
      </trkpt>
      <trkpt lat="45.73524" lon="6.77843">
        <ele>2217</ele>
        <time>2022-08-27T01:44:39Z</time>
      </trkpt>
      <trkpt lat="45.73524" lon="6.77845">
        <ele>2218</ele>
        <time>2022-08-27T01:44:41Z</time>
      </trkpt>
      <trkpt lat="45.73526" lon="6.77847">
        <ele>2217</ele>
        <time>2022-08-27T01:44:43Z</time>
      </trkpt>
      <trkpt lat="45.73528" lon="6.77847">
        <ele>2218</ele>
        <time>2022-08-27T01:44:46Z</time>
      </trkpt>
      <trkpt lat="45.7353" lon="6.77845">
        <ele>2219</ele>
        <time>2022-08-27T01:44:48Z</time>
      </trkpt>
      <trkpt lat="45.73532" lon="6.77844">
        <ele>2219</ele>
        <time>2022-08-27T01:44:50Z</time>
      </trkpt>
      <trkpt lat="45.73534" lon="6.77842">
        <ele>2219</ele>
        <time>2022-08-27T01:44:52Z</time>
      </trkpt>
      <trkpt lat="45.73536" lon="6.77841">
        <ele>2220</ele>
        <time>2022-08-27T01:44:54Z</time>
      </trkpt>
      <trkpt lat="45.73538" lon="6.77838">
        <ele>2220</ele>
        <time>2022-08-27T01:44:57Z</time>
      </trkpt>
      <trkpt lat="45.73539" lon="6.77836">
        <ele>2220</ele>
        <time>2022-08-27T01:44:59Z</time>
      </trkpt>
      <trkpt lat="45.7354" lon="6.77833">
        <ele>2220</ele>
        <time>2022-08-27T01:45:01Z</time>
      </trkpt>
      <trkpt lat="45.73541" lon="6.77831">
        <ele>2222</ele>
        <time>2022-08-27T01:45:03Z</time>
      </trkpt>
      <trkpt lat="45.73542" lon="6.77829">
        <ele>2222</ele>
        <time>2022-08-27T01:45:05Z</time>
      </trkpt>
      <trkpt lat="45.73544" lon="6.77827">
        <ele>2222</ele>
        <time>2022-08-27T01:45:07Z</time>
      </trkpt>
      <trkpt lat="45.73546" lon="6.77825">
        <ele>2222</ele>
        <time>2022-08-27T01:45:09Z</time>
      </trkpt>
      <trkpt lat="45.73548" lon="6.77823">
        <ele>2222</ele>
        <time>2022-08-27T01:45:11Z</time>
      </trkpt>
      <trkpt lat="45.7355" lon="6.77823">
        <ele>2223</ele>
        <time>2022-08-27T01:45:13Z</time>
      </trkpt>
      <trkpt lat="45.73552" lon="6.77822">
        <ele>2223</ele>
        <time>2022-08-27T01:45:15Z</time>
      </trkpt>
      <trkpt lat="45.73555" lon="6.77821">
        <ele>2223</ele>
        <time>2022-08-27T01:45:17Z</time>
      </trkpt>
      <trkpt lat="45.73557" lon="6.7782">
        <ele>2223</ele>
        <time>2022-08-27T01:45:19Z</time>
      </trkpt>
      <trkpt lat="45.7356" lon="6.7782">
        <ele>2224</ele>
        <time>2022-08-27T01:45:21Z</time>
      </trkpt>
      <trkpt lat="45.73562" lon="6.77819">
        <ele>2224</ele>
        <time>2022-08-27T01:45:23Z</time>
      </trkpt>
      <trkpt lat="45.73565" lon="6.77819">
        <ele>2224</ele>
        <time>2022-08-27T01:45:25Z</time>
      </trkpt>
      <trkpt lat="45.73568" lon="6.77819">
        <ele>2224</ele>
        <time>2022-08-27T01:45:27Z</time>
      </trkpt>
      <trkpt lat="45.73571" lon="6.77819">
        <ele>2224</ele>
        <time>2022-08-27T01:45:29Z</time>
      </trkpt>
      <trkpt lat="45.73573" lon="6.77819">
        <ele>2224</ele>
        <time>2022-08-27T01:45:31Z</time>
      </trkpt>
      <trkpt lat="45.73576" lon="6.7782">
        <ele>2224</ele>
        <time>2022-08-27T01:45:33Z</time>
      </trkpt>
      <trkpt lat="45.73579" lon="6.7782">
        <ele>2224</ele>
        <time>2022-08-27T01:45:35Z</time>
      </trkpt>
      <trkpt lat="45.73581" lon="6.77822">
        <ele>2224</ele>
        <time>2022-08-27T01:45:37Z</time>
      </trkpt>
      <trkpt lat="45.73583" lon="6.77825">
        <ele>2225</ele>
        <time>2022-08-27T01:45:39Z</time>
      </trkpt>
      <trkpt lat="45.73583" lon="6.77827">
        <ele>2225</ele>
        <time>2022-08-27T01:45:41Z</time>
      </trkpt>
      <trkpt lat="45.73584" lon="6.7783">
        <ele>2226</ele>
        <time>2022-08-27T01:45:43Z</time>
      </trkpt>
      <trkpt lat="45.73584" lon="6.77833">
        <ele>2226</ele>
        <time>2022-08-27T01:45:45Z</time>
      </trkpt>
      <trkpt lat="45.73584" lon="6.77836">
        <ele>2226</ele>
        <time>2022-08-27T01:45:47Z</time>
      </trkpt>
      <trkpt lat="45.73585" lon="6.77839">
        <ele>2226</ele>
        <time>2022-08-27T01:45:49Z</time>
      </trkpt>
      <trkpt lat="45.73586" lon="6.77841">
        <ele>2226</ele>
        <time>2022-08-27T01:45:51Z</time>
      </trkpt>
      <trkpt lat="45.73588" lon="6.77844">
        <ele>2226</ele>
        <time>2022-08-27T01:45:53Z</time>
      </trkpt>
      <trkpt lat="45.73588" lon="6.77847">
        <ele>2226</ele>
        <time>2022-08-27T01:45:55Z</time>
      </trkpt>
      <trkpt lat="45.73589" lon="6.7785">
        <ele>2226</ele>
        <time>2022-08-27T01:45:57Z</time>
      </trkpt>
      <trkpt lat="45.7359" lon="6.77853">
        <ele>2228</ele>
        <time>2022-08-27T01:45:59Z</time>
      </trkpt>
      <trkpt lat="45.73591" lon="6.77855">
        <ele>2228</ele>
        <time>2022-08-27T01:46:01Z</time>
      </trkpt>
      <trkpt lat="45.73593" lon="6.77857">
        <ele>2228</ele>
        <time>2022-08-27T01:46:03Z</time>
      </trkpt>
      <trkpt lat="45.73595" lon="6.77858">
        <ele>2229</ele>
        <time>2022-08-27T01:46:05Z</time>
      </trkpt>
      <trkpt lat="45.73597" lon="6.7786">
        <ele>2229</ele>
        <time>2022-08-27T01:46:07Z</time>
      </trkpt>
      <trkpt lat="45.73598" lon="6.77862">
        <ele>2229</ele>
        <time>2022-08-27T01:46:09Z</time>
      </trkpt>
      <trkpt lat="45.736" lon="6.77865">
        <ele>2230</ele>
        <time>2022-08-27T01:46:11Z</time>
      </trkpt>
      <trkpt lat="45.73601" lon="6.77867">
        <ele>2230</ele>
        <time>2022-08-27T01:46:13Z</time>
      </trkpt>
      <trkpt lat="45.73602" lon="6.7787">
        <ele>2230</ele>
        <time>2022-08-27T01:46:15Z</time>
      </trkpt>
      <trkpt lat="45.73602" lon="6.77873">
        <ele>2230</ele>
        <time>2022-08-27T01:46:17Z</time>
      </trkpt>
      <trkpt lat="45.73602" lon="6.77876">
        <ele>2231</ele>
        <time>2022-08-27T01:46:19Z</time>
      </trkpt>
      <trkpt lat="45.73603" lon="6.77879">
        <ele>2231</ele>
        <time>2022-08-27T01:46:21Z</time>
      </trkpt>
      <trkpt lat="45.73604" lon="6.77882">
        <ele>2231</ele>
        <time>2022-08-27T01:46:23Z</time>
      </trkpt>
      <trkpt lat="45.73605" lon="6.77884">
        <ele>2231</ele>
        <time>2022-08-27T01:46:25Z</time>
      </trkpt>
      <trkpt lat="45.73607" lon="6.77886">
        <ele>2232</ele>
        <time>2022-08-27T01:46:27Z</time>
      </trkpt>
      <trkpt lat="45.73609" lon="6.77888">
        <ele>2232</ele>
        <time>2022-08-27T01:46:29Z</time>
      </trkpt>
      <trkpt lat="45.73611" lon="6.7789">
        <ele>2232</ele>
        <time>2022-08-27T01:46:31Z</time>
      </trkpt>
      <trkpt lat="45.73613" lon="6.77892">
        <ele>2233</ele>
        <time>2022-08-27T01:46:33Z</time>
      </trkpt>
      <trkpt lat="45.73614" lon="6.77894">
        <ele>2233</ele>
        <time>2022-08-27T01:46:35Z</time>
      </trkpt>
      <trkpt lat="45.73614" lon="6.77897">
        <ele>2233</ele>
        <time>2022-08-27T01:46:37Z</time>
      </trkpt>
      <trkpt lat="45.73613" lon="6.779">
        <ele>2234</ele>
        <time>2022-08-27T01:46:39Z</time>
      </trkpt>
      <trkpt lat="45.73613" lon="6.77903">
        <ele>2234</ele>
        <time>2022-08-27T01:46:41Z</time>
      </trkpt>
      <trkpt lat="45.73614" lon="6.77906">
        <ele>2234</ele>
        <time>2022-08-27T01:46:43Z</time>
      </trkpt>
      <trkpt lat="45.73614" lon="6.77909">
        <ele>2234</ele>
        <time>2022-08-27T01:46:45Z</time>
      </trkpt>
      <trkpt lat="45.73614" lon="6.77912">
        <ele>2235</ele>
        <time>2022-08-27T01:46:47Z</time>
      </trkpt>
      <trkpt lat="45.73615" lon="6.77915">
        <ele>2235</ele>
        <time>2022-08-27T01:46:49Z</time>
      </trkpt>
      <trkpt lat="45.73616" lon="6.77918">
        <ele>2236</ele>
        <time>2022-08-27T01:46:51Z</time>
      </trkpt>
      <trkpt lat="45.73616" lon="6.77921">
        <ele>2236</ele>
        <time>2022-08-27T01:46:53Z</time>
      </trkpt>
      <trkpt lat="45.73617" lon="6.77923">
        <ele>2236</ele>
        <time>2022-08-27T01:46:55Z</time>
      </trkpt>
      <trkpt lat="45.73617" lon="6.77926">
        <ele>2237</ele>
        <time>2022-08-27T01:46:57Z</time>
      </trkpt>
      <trkpt lat="45.73618" lon="6.77929">
        <ele>2237</ele>
        <time>2022-08-27T01:46:59Z</time>
      </trkpt>
      <trkpt lat="45.73619" lon="6.77933">
        <ele>2238</ele>
        <time>2022-08-27T01:47:02Z</time>
      </trkpt>
      <trkpt lat="45.73619" lon="6.77936">
        <ele>2238</ele>
        <time>2022-08-27T01:47:04Z</time>
      </trkpt>
      <trkpt lat="45.73619" lon="6.77939">
        <ele>2239</ele>
        <time>2022-08-27T01:47:06Z</time>
      </trkpt>
      <trkpt lat="45.73618" lon="6.77941">
        <ele>2239</ele>
        <time>2022-08-27T01:47:08Z</time>
      </trkpt>
      <trkpt lat="45.73616" lon="6.77943">
        <ele>2239</ele>
        <time>2022-08-27T01:47:11Z</time>
      </trkpt>
      <trkpt lat="45.73613" lon="6.77942">
        <ele>2240</ele>
        <time>2022-08-27T01:47:13Z</time>
      </trkpt>
      <trkpt lat="45.73612" lon="6.7794">
        <ele>2240</ele>
        <time>2022-08-27T01:47:15Z</time>
      </trkpt>
      <trkpt lat="45.7361" lon="6.77938">
        <ele>2240</ele>
        <time>2022-08-27T01:47:17Z</time>
      </trkpt>
      <trkpt lat="45.73608" lon="6.77937">
        <ele>2240</ele>
        <time>2022-08-27T01:47:19Z</time>
      </trkpt>
      <trkpt lat="45.73606" lon="6.77936">
        <ele>2241</ele>
        <time>2022-08-27T01:47:22Z</time>
      </trkpt>
      <trkpt lat="45.73604" lon="6.77935">
        <ele>2242</ele>
        <time>2022-08-27T01:47:24Z</time>
      </trkpt>
      <trkpt lat="45.73602" lon="6.77934">
        <ele>2242</ele>
        <time>2022-08-27T01:47:26Z</time>
      </trkpt>
      <trkpt lat="45.736" lon="6.77933">
        <ele>2242</ele>
        <time>2022-08-27T01:47:28Z</time>
      </trkpt>
      <trkpt lat="45.73598" lon="6.77932">
        <ele>2242</ele>
        <time>2022-08-27T01:47:30Z</time>
      </trkpt>
      <trkpt lat="45.73596" lon="6.77932">
        <ele>2242</ele>
        <time>2022-08-27T01:47:32Z</time>
      </trkpt>
      <trkpt lat="45.73594" lon="6.77931">
        <ele>2243</ele>
        <time>2022-08-27T01:47:35Z</time>
      </trkpt>
      <trkpt lat="45.73592" lon="6.77931">
        <ele>2243</ele>
        <time>2022-08-27T01:47:37Z</time>
      </trkpt>
      <trkpt lat="45.7359" lon="6.77931">
        <ele>2244</ele>
        <time>2022-08-27T01:47:39Z</time>
      </trkpt>
      <trkpt lat="45.73588" lon="6.77931">
        <ele>2244</ele>
        <time>2022-08-27T01:47:41Z</time>
      </trkpt>
      <trkpt lat="45.73586" lon="6.77931">
        <ele>2245</ele>
        <time>2022-08-27T01:47:43Z</time>
      </trkpt>
      <trkpt lat="45.73584" lon="6.77931">
        <ele>2245</ele>
        <time>2022-08-27T01:47:45Z</time>
      </trkpt>
      <trkpt lat="45.73582" lon="6.77931">
        <ele>2246</ele>
        <time>2022-08-27T01:47:47Z</time>
      </trkpt>
      <trkpt lat="45.73579" lon="6.7793">
        <ele>2246</ele>
        <time>2022-08-27T01:47:50Z</time>
      </trkpt>
      <trkpt lat="45.73577" lon="6.7793">
        <ele>2246</ele>
        <time>2022-08-27T01:47:52Z</time>
      </trkpt>
      <trkpt lat="45.73576" lon="6.77928">
        <ele>2248</ele>
        <time>2022-08-27T01:47:54Z</time>
      </trkpt>
      <trkpt lat="45.73574" lon="6.77927">
        <ele>2248</ele>
        <time>2022-08-27T01:47:56Z</time>
      </trkpt>
      <trkpt lat="45.73572" lon="6.77926">
        <ele>2248</ele>
        <time>2022-08-27T01:47:58Z</time>
      </trkpt>
      <trkpt lat="45.7357" lon="6.77925">
        <ele>2249</ele>
        <time>2022-08-27T01:48:00Z</time>
      </trkpt>
      <trkpt lat="45.73568" lon="6.77925">
        <ele>2249</ele>
        <time>2022-08-27T01:48:02Z</time>
      </trkpt>
      <trkpt lat="45.73566" lon="6.77925">
        <ele>2250</ele>
        <time>2022-08-27T01:48:04Z</time>
      </trkpt>
      <trkpt lat="45.73563" lon="6.77925">
        <ele>2250</ele>
        <time>2022-08-27T01:48:06Z</time>
      </trkpt>
      <trkpt lat="45.73561" lon="6.77924">
        <ele>2250</ele>
        <time>2022-08-27T01:48:08Z</time>
      </trkpt>
      <trkpt lat="45.73559" lon="6.77923">
        <ele>2250</ele>
        <time>2022-08-27T01:48:10Z</time>
      </trkpt>
      <trkpt lat="45.73557" lon="6.77922">
        <ele>2251</ele>
        <time>2022-08-27T01:48:12Z</time>
      </trkpt>
      <trkpt lat="45.73555" lon="6.77921">
        <ele>2251</ele>
        <time>2022-08-27T01:48:14Z</time>
      </trkpt>
      <trkpt lat="45.73553" lon="6.7792">
        <ele>2251</ele>
        <time>2022-08-27T01:48:16Z</time>
      </trkpt>
      <trkpt lat="45.73551" lon="6.77919">
        <ele>2251</ele>
        <time>2022-08-27T01:48:18Z</time>
      </trkpt>
      <trkpt lat="45.73549" lon="6.77919">
        <ele>2252</ele>
        <time>2022-08-27T01:48:20Z</time>
      </trkpt>
      <trkpt lat="45.73547" lon="6.7792">
        <ele>2252</ele>
        <time>2022-08-27T01:48:23Z</time>
      </trkpt>
      <trkpt lat="45.73546" lon="6.77922">
        <ele>2252</ele>
        <time>2022-08-27T01:48:25Z</time>
      </trkpt>
      <trkpt lat="45.73548" lon="6.77925">
        <ele>2253</ele>
        <time>2022-08-27T01:48:28Z</time>
      </trkpt>
      <trkpt lat="45.7355" lon="6.77928">
        <ele>2253</ele>
        <time>2022-08-27T01:48:30Z</time>
      </trkpt>
      <trkpt lat="45.73553" lon="6.77929">
        <ele>2254</ele>
        <time>2022-08-27T01:48:32Z</time>
      </trkpt>
      <trkpt lat="45.73555" lon="6.77932">
        <ele>2254</ele>
        <time>2022-08-27T01:48:34Z</time>
      </trkpt>
      <trkpt lat="45.73556" lon="6.77935">
        <ele>2254</ele>
        <time>2022-08-27T01:48:36Z</time>
      </trkpt>
      <trkpt lat="45.73558" lon="6.77937">
        <ele>2255</ele>
        <time>2022-08-27T01:48:38Z</time>
      </trkpt>
      <trkpt lat="45.73558" lon="6.7794">
        <ele>2255</ele>
        <time>2022-08-27T01:48:40Z</time>
      </trkpt>
      <trkpt lat="45.73559" lon="6.77943">
        <ele>2255</ele>
        <time>2022-08-27T01:48:42Z</time>
      </trkpt>
      <trkpt lat="45.7356" lon="6.77945">
        <ele>2256</ele>
        <time>2022-08-27T01:48:44Z</time>
      </trkpt>
      <trkpt lat="45.73561" lon="6.77948">
        <ele>2256</ele>
        <time>2022-08-27T01:48:46Z</time>
      </trkpt>
      <trkpt lat="45.73562" lon="6.77951">
        <ele>2256</ele>
        <time>2022-08-27T01:48:48Z</time>
      </trkpt>
      <trkpt lat="45.73562" lon="6.77954">
        <ele>2256</ele>
        <time>2022-08-27T01:48:50Z</time>
      </trkpt>
      <trkpt lat="45.73563" lon="6.77956">
        <ele>2256</ele>
        <time>2022-08-27T01:48:52Z</time>
      </trkpt>
      <trkpt lat="45.73564" lon="6.77959">
        <ele>2257</ele>
        <time>2022-08-27T01:48:54Z</time>
      </trkpt>
      <trkpt lat="45.73565" lon="6.77961">
        <ele>2257</ele>
        <time>2022-08-27T01:48:56Z</time>
      </trkpt>
      <trkpt lat="45.73566" lon="6.77964">
        <ele>2258</ele>
        <time>2022-08-27T01:48:58Z</time>
      </trkpt>
      <trkpt lat="45.73567" lon="6.77967">
        <ele>2258</ele>
        <time>2022-08-27T01:49:00Z</time>
      </trkpt>
      <trkpt lat="45.73568" lon="6.77969">
        <ele>2258</ele>
        <time>2022-08-27T01:49:02Z</time>
      </trkpt>
      <trkpt lat="45.73569" lon="6.77972">
        <ele>2259</ele>
        <time>2022-08-27T01:49:04Z</time>
      </trkpt>
      <trkpt lat="45.73571" lon="6.77975">
        <ele>2259</ele>
        <time>2022-08-27T01:49:07Z</time>
      </trkpt>
      <trkpt lat="45.73572" lon="6.77977">
        <ele>2260</ele>
        <time>2022-08-27T01:49:09Z</time>
      </trkpt>
      <trkpt lat="45.73573" lon="6.7798">
        <ele>2260</ele>
        <time>2022-08-27T01:49:11Z</time>
      </trkpt>
      <trkpt lat="45.73573" lon="6.77982">
        <ele>2261</ele>
        <time>2022-08-27T01:49:13Z</time>
      </trkpt>
      <trkpt lat="45.73574" lon="6.77985">
        <ele>2261</ele>
        <time>2022-08-27T01:49:15Z</time>
      </trkpt>
      <trkpt lat="45.73575" lon="6.77988">
        <ele>2261</ele>
        <time>2022-08-27T01:49:18Z</time>
      </trkpt>
      <trkpt lat="45.73577" lon="6.7799">
        <ele>2262</ele>
        <time>2022-08-27T01:49:20Z</time>
      </trkpt>
      <trkpt lat="45.73579" lon="6.77991">
        <ele>2262</ele>
        <time>2022-08-27T01:49:22Z</time>
      </trkpt>
      <trkpt lat="45.7358" lon="6.77993">
        <ele>2262</ele>
        <time>2022-08-27T01:49:24Z</time>
      </trkpt>
      <trkpt lat="45.73582" lon="6.77995">
        <ele>2262</ele>
        <time>2022-08-27T01:49:26Z</time>
      </trkpt>
      <trkpt lat="45.73583" lon="6.77998">
        <ele>2262</ele>
        <time>2022-08-27T01:49:28Z</time>
      </trkpt>
      <trkpt lat="45.73584" lon="6.78">
        <ele>2262</ele>
        <time>2022-08-27T01:49:30Z</time>
      </trkpt>
      <trkpt lat="45.73586" lon="6.78002">
        <ele>2262</ele>
        <time>2022-08-27T01:49:32Z</time>
      </trkpt>
      <trkpt lat="45.73587" lon="6.78004">
        <ele>2263</ele>
        <time>2022-08-27T01:49:34Z</time>
      </trkpt>
      <trkpt lat="45.73589" lon="6.78005">
        <ele>2263</ele>
        <time>2022-08-27T01:49:36Z</time>
      </trkpt>
      <trkpt lat="45.73591" lon="6.78006">
        <ele>2264</ele>
        <time>2022-08-27T01:49:38Z</time>
      </trkpt>
      <trkpt lat="45.73593" lon="6.78007">
        <ele>2265</ele>
        <time>2022-08-27T01:49:40Z</time>
      </trkpt>
      <trkpt lat="45.73595" lon="6.78008">
        <ele>2265</ele>
        <time>2022-08-27T01:49:42Z</time>
      </trkpt>
      <trkpt lat="45.73597" lon="6.7801">
        <ele>2265</ele>
        <time>2022-08-27T01:49:44Z</time>
      </trkpt>
      <trkpt lat="45.73599" lon="6.78011">
        <ele>2265</ele>
        <time>2022-08-27T01:49:46Z</time>
      </trkpt>
      <trkpt lat="45.736" lon="6.78013">
        <ele>2266</ele>
        <time>2022-08-27T01:49:48Z</time>
      </trkpt>
      <trkpt lat="45.73602" lon="6.78016">
        <ele>2266</ele>
        <time>2022-08-27T01:49:50Z</time>
      </trkpt>
      <trkpt lat="45.73603" lon="6.78018">
        <ele>2267</ele>
        <time>2022-08-27T01:49:52Z</time>
      </trkpt>
      <trkpt lat="45.73603" lon="6.78021">
        <ele>2267</ele>
        <time>2022-08-27T01:49:54Z</time>
      </trkpt>
      <trkpt lat="45.73603" lon="6.78024">
        <ele>2268</ele>
        <time>2022-08-27T01:49:56Z</time>
      </trkpt>
      <trkpt lat="45.73602" lon="6.78027">
        <ele>2268</ele>
        <time>2022-08-27T01:49:58Z</time>
      </trkpt>
      <trkpt lat="45.73603" lon="6.78031">
        <ele>2268</ele>
        <time>2022-08-27T01:50:00Z</time>
      </trkpt>
      <trkpt lat="45.73603" lon="6.78034">
        <ele>2268</ele>
        <time>2022-08-27T01:50:02Z</time>
      </trkpt>
      <trkpt lat="45.73603" lon="6.78037">
        <ele>2269</ele>
        <time>2022-08-27T01:50:04Z</time>
      </trkpt>
      <trkpt lat="45.73603" lon="6.7804">
        <ele>2269</ele>
        <time>2022-08-27T01:50:06Z</time>
      </trkpt>
      <trkpt lat="45.73603" lon="6.78043">
        <ele>2269</ele>
        <time>2022-08-27T01:50:08Z</time>
      </trkpt>
      <trkpt lat="45.73604" lon="6.78046">
        <ele>2269</ele>
        <time>2022-08-27T01:50:10Z</time>
      </trkpt>
      <trkpt lat="45.73605" lon="6.78048">
        <ele>2269</ele>
        <time>2022-08-27T01:50:12Z</time>
      </trkpt>
      <trkpt lat="45.73607" lon="6.78051">
        <ele>2269</ele>
        <time>2022-08-27T01:50:14Z</time>
      </trkpt>
      <trkpt lat="45.73608" lon="6.78054">
        <ele>2270</ele>
        <time>2022-08-27T01:50:16Z</time>
      </trkpt>
      <trkpt lat="45.73609" lon="6.78057">
        <ele>2270</ele>
        <time>2022-08-27T01:50:18Z</time>
      </trkpt>
      <trkpt lat="45.7361" lon="6.78059">
        <ele>2270</ele>
        <time>2022-08-27T01:50:20Z</time>
      </trkpt>
      <trkpt lat="45.73611" lon="6.78061">
        <ele>2271</ele>
        <time>2022-08-27T01:50:22Z</time>
      </trkpt>
      <trkpt lat="45.73614" lon="6.78064">
        <ele>2271</ele>
        <time>2022-08-27T01:50:25Z</time>
      </trkpt>
      <trkpt lat="45.73615" lon="6.78065">
        <ele>2271</ele>
        <time>2022-08-27T01:50:27Z</time>
      </trkpt>
      <trkpt lat="45.73617" lon="6.78067">
        <ele>2272</ele>
        <time>2022-08-27T01:50:29Z</time>
      </trkpt>
      <trkpt lat="45.73619" lon="6.78068">
        <ele>2272</ele>
        <time>2022-08-27T01:50:31Z</time>
      </trkpt>
      <trkpt lat="45.73621" lon="6.7807">
        <ele>2272</ele>
        <time>2022-08-27T01:50:33Z</time>
      </trkpt>
      <trkpt lat="45.73623" lon="6.78072">
        <ele>2274</ele>
        <time>2022-08-27T01:50:35Z</time>
      </trkpt>
      <trkpt lat="45.73624" lon="6.78074">
        <ele>2274</ele>
        <time>2022-08-27T01:50:37Z</time>
      </trkpt>
      <trkpt lat="45.73625" lon="6.78077">
        <ele>2275</ele>
        <time>2022-08-27T01:50:39Z</time>
      </trkpt>
      <trkpt lat="45.73627" lon="6.78078">
        <ele>2275</ele>
        <time>2022-08-27T01:50:41Z</time>
      </trkpt>
      <trkpt lat="45.73629" lon="6.78081">
        <ele>2275</ele>
        <time>2022-08-27T01:50:43Z</time>
      </trkpt>
      <trkpt lat="45.7363" lon="6.78083">
        <ele>2276</ele>
        <time>2022-08-27T01:50:45Z</time>
      </trkpt>
      <trkpt lat="45.73632" lon="6.78086">
        <ele>2276</ele>
        <time>2022-08-27T01:50:47Z</time>
      </trkpt>
      <trkpt lat="45.73633" lon="6.78088">
        <ele>2277</ele>
        <time>2022-08-27T01:50:49Z</time>
      </trkpt>
      <trkpt lat="45.73635" lon="6.78091">
        <ele>2277</ele>
        <time>2022-08-27T01:50:51Z</time>
      </trkpt>
      <trkpt lat="45.73636" lon="6.78093">
        <ele>2277</ele>
        <time>2022-08-27T01:50:53Z</time>
      </trkpt>
      <trkpt lat="45.73638" lon="6.78095">
        <ele>2277</ele>
        <time>2022-08-27T01:50:55Z</time>
      </trkpt>
      <trkpt lat="45.7364" lon="6.78097">
        <ele>2277</ele>
        <time>2022-08-27T01:50:57Z</time>
      </trkpt>
      <trkpt lat="45.73641" lon="6.781">
        <ele>2278</ele>
        <time>2022-08-27T01:50:59Z</time>
      </trkpt>
      <trkpt lat="45.73642" lon="6.78102">
        <ele>2278</ele>
        <time>2022-08-27T01:51:01Z</time>
      </trkpt>
      <trkpt lat="45.73643" lon="6.78105">
        <ele>2278</ele>
        <time>2022-08-27T01:51:03Z</time>
      </trkpt>
      <trkpt lat="45.73644" lon="6.78107">
        <ele>2279</ele>
        <time>2022-08-27T01:51:05Z</time>
      </trkpt>
      <trkpt lat="45.73645" lon="6.78109">
        <ele>2279</ele>
        <time>2022-08-27T01:51:07Z</time>
      </trkpt>
      <trkpt lat="45.73647" lon="6.78112">
        <ele>2280</ele>
        <time>2022-08-27T01:51:09Z</time>
      </trkpt>
      <trkpt lat="45.73648" lon="6.78114">
        <ele>2280</ele>
        <time>2022-08-27T01:51:11Z</time>
      </trkpt>
      <trkpt lat="45.73649" lon="6.78117">
        <ele>2281</ele>
        <time>2022-08-27T01:51:13Z</time>
      </trkpt>
      <trkpt lat="45.7365" lon="6.78119">
        <ele>2281</ele>
        <time>2022-08-27T01:51:15Z</time>
      </trkpt>
      <trkpt lat="45.73652" lon="6.78121">
        <ele>2281</ele>
        <time>2022-08-27T01:51:17Z</time>
      </trkpt>
      <trkpt lat="45.73653" lon="6.78123">
        <ele>2281</ele>
        <time>2022-08-27T01:51:19Z</time>
      </trkpt>
      <trkpt lat="45.73655" lon="6.78125">
        <ele>2281</ele>
        <time>2022-08-27T01:51:21Z</time>
      </trkpt>
      <trkpt lat="45.73657" lon="6.78126">
        <ele>2282</ele>
        <time>2022-08-27T01:51:23Z</time>
      </trkpt>
      <trkpt lat="45.73658" lon="6.78128">
        <ele>2282</ele>
        <time>2022-08-27T01:51:25Z</time>
      </trkpt>
      <trkpt lat="45.7366" lon="6.78131">
        <ele>2282</ele>
        <time>2022-08-27T01:51:27Z</time>
      </trkpt>
      <trkpt lat="45.73661" lon="6.78133">
        <ele>2283</ele>
        <time>2022-08-27T01:51:29Z</time>
      </trkpt>
      <trkpt lat="45.73663" lon="6.78136">
        <ele>2283</ele>
        <time>2022-08-27T01:51:31Z</time>
      </trkpt>
      <trkpt lat="45.73664" lon="6.78138">
        <ele>2283</ele>
        <time>2022-08-27T01:51:33Z</time>
      </trkpt>
      <trkpt lat="45.73664" lon="6.78141">
        <ele>2284</ele>
        <time>2022-08-27T01:51:35Z</time>
      </trkpt>
      <trkpt lat="45.73663" lon="6.78143">
        <ele>2285</ele>
        <time>2022-08-27T01:51:37Z</time>
      </trkpt>
      <trkpt lat="45.73661" lon="6.78144">
        <ele>2285</ele>
        <time>2022-08-27T01:51:39Z</time>
      </trkpt>
      <trkpt lat="45.73658" lon="6.78144">
        <ele>2285</ele>
        <time>2022-08-27T01:51:41Z</time>
      </trkpt>
      <trkpt lat="45.73656" lon="6.78144">
        <ele>2285</ele>
        <time>2022-08-27T01:51:43Z</time>
      </trkpt>
      <trkpt lat="45.73653" lon="6.78144">
        <ele>2285</ele>
        <time>2022-08-27T01:51:45Z</time>
      </trkpt>
      <trkpt lat="45.73651" lon="6.78144">
        <ele>2285</ele>
        <time>2022-08-27T01:51:47Z</time>
      </trkpt>
      <trkpt lat="45.73648" lon="6.78144">
        <ele>2286</ele>
        <time>2022-08-27T01:51:49Z</time>
      </trkpt>
      <trkpt lat="45.73646" lon="6.78144">
        <ele>2286</ele>
        <time>2022-08-27T01:51:51Z</time>
      </trkpt>
      <trkpt lat="45.73644" lon="6.78145">
        <ele>2286</ele>
        <time>2022-08-27T01:51:53Z</time>
      </trkpt>
      <trkpt lat="45.73642" lon="6.78145">
        <ele>2287</ele>
        <time>2022-08-27T01:51:55Z</time>
      </trkpt>
      <trkpt lat="45.7364" lon="6.78145">
        <ele>2287</ele>
        <time>2022-08-27T01:51:57Z</time>
      </trkpt>
      <trkpt lat="45.73637" lon="6.78146">
        <ele>2287</ele>
        <time>2022-08-27T01:51:59Z</time>
      </trkpt>
      <trkpt lat="45.73635" lon="6.78145">
        <ele>2288</ele>
        <time>2022-08-27T01:52:01Z</time>
      </trkpt>
      <trkpt lat="45.73632" lon="6.78145">
        <ele>2288</ele>
        <time>2022-08-27T01:52:03Z</time>
      </trkpt>
      <trkpt lat="45.7363" lon="6.78144">
        <ele>2288</ele>
        <time>2022-08-27T01:52:05Z</time>
      </trkpt>
      <trkpt lat="45.73628" lon="6.78143">
        <ele>2289</ele>
        <time>2022-08-27T01:52:07Z</time>
      </trkpt>
      <trkpt lat="45.73626" lon="6.78142">
        <ele>2289</ele>
        <time>2022-08-27T01:52:09Z</time>
      </trkpt>
      <trkpt lat="45.73624" lon="6.78141">
        <ele>2289</ele>
        <time>2022-08-27T01:52:11Z</time>
      </trkpt>
      <trkpt lat="45.73622" lon="6.78139">
        <ele>2290</ele>
        <time>2022-08-27T01:52:14Z</time>
      </trkpt>
      <trkpt lat="45.7362" lon="6.78139">
        <ele>2290</ele>
        <time>2022-08-27T01:52:16Z</time>
      </trkpt>
      <trkpt lat="45.73618" lon="6.78138">
        <ele>2291</ele>
        <time>2022-08-27T01:52:18Z</time>
      </trkpt>
      <trkpt lat="45.73616" lon="6.78138">
        <ele>2291</ele>
        <time>2022-08-27T01:52:20Z</time>
      </trkpt>
      <trkpt lat="45.73614" lon="6.78137">
        <ele>2291</ele>
        <time>2022-08-27T01:52:22Z</time>
      </trkpt>
      <trkpt lat="45.73612" lon="6.78137">
        <ele>2292</ele>
        <time>2022-08-27T01:52:24Z</time>
      </trkpt>
      <trkpt lat="45.7361" lon="6.78137">
        <ele>2292</ele>
        <time>2022-08-27T01:52:26Z</time>
      </trkpt>
      <trkpt lat="45.73608" lon="6.78137">
        <ele>2293</ele>
        <time>2022-08-27T01:52:28Z</time>
      </trkpt>
      <trkpt lat="45.73606" lon="6.78136">
        <ele>2293</ele>
        <time>2022-08-27T01:52:30Z</time>
      </trkpt>
      <trkpt lat="45.73604" lon="6.78136">
        <ele>2293</ele>
        <time>2022-08-27T01:52:32Z</time>
      </trkpt>
      <trkpt lat="45.73601" lon="6.78136">
        <ele>2293</ele>
        <time>2022-08-27T01:52:34Z</time>
      </trkpt>
      <trkpt lat="45.73599" lon="6.78136">
        <ele>2294</ele>
        <time>2022-08-27T01:52:36Z</time>
      </trkpt>
      <trkpt lat="45.73598" lon="6.78136">
        <ele>2294</ele>
        <time>2022-08-27T01:52:38Z</time>
      </trkpt>
      <trkpt lat="45.73595" lon="6.78136">
        <ele>2293</ele>
        <time>2022-08-27T01:52:40Z</time>
      </trkpt>
      <trkpt lat="45.73594" lon="6.78136">
        <ele>2294</ele>
        <time>2022-08-27T01:52:42Z</time>
      </trkpt>
      <trkpt lat="45.73591" lon="6.78135">
        <ele>2295</ele>
        <time>2022-08-27T01:52:44Z</time>
      </trkpt>
      <trkpt lat="45.73589" lon="6.78135">
        <ele>2295</ele>
        <time>2022-08-27T01:52:46Z</time>
      </trkpt>
      <trkpt lat="45.73587" lon="6.78134">
        <ele>2295</ele>
        <time>2022-08-27T01:52:48Z</time>
      </trkpt>
      <trkpt lat="45.73585" lon="6.78133">
        <ele>2295</ele>
        <time>2022-08-27T01:52:50Z</time>
      </trkpt>
      <trkpt lat="45.73583" lon="6.78133">
        <ele>2296</ele>
        <time>2022-08-27T01:52:52Z</time>
      </trkpt>
      <trkpt lat="45.73581" lon="6.78132">
        <ele>2296</ele>
        <time>2022-08-27T01:52:54Z</time>
      </trkpt>
      <trkpt lat="45.73578" lon="6.78132">
        <ele>2297</ele>
        <time>2022-08-27T01:52:56Z</time>
      </trkpt>
      <trkpt lat="45.73576" lon="6.78132">
        <ele>2297</ele>
        <time>2022-08-27T01:52:58Z</time>
      </trkpt>
      <trkpt lat="45.73575" lon="6.78131">
        <ele>2297</ele>
        <time>2022-08-27T01:53:00Z</time>
      </trkpt>
      <trkpt lat="45.73572" lon="6.7813">
        <ele>2298</ele>
        <time>2022-08-27T01:53:03Z</time>
      </trkpt>
      <trkpt lat="45.7357" lon="6.7813">
        <ele>2300</ele>
        <time>2022-08-27T01:53:05Z</time>
      </trkpt>
      <trkpt lat="45.73568" lon="6.7813">
        <ele>2300</ele>
        <time>2022-08-27T01:53:07Z</time>
      </trkpt>
      <trkpt lat="45.73566" lon="6.78129">
        <ele>2301</ele>
        <time>2022-08-27T01:53:09Z</time>
      </trkpt>
      <trkpt lat="45.73565" lon="6.78129">
        <ele>2301</ele>
        <time>2022-08-27T01:53:11Z</time>
      </trkpt>
      <trkpt lat="45.73562" lon="6.78129">
        <ele>2301</ele>
        <time>2022-08-27T01:53:13Z</time>
      </trkpt>
      <trkpt lat="45.7356" lon="6.78129">
        <ele>2301</ele>
        <time>2022-08-27T01:53:15Z</time>
      </trkpt>
      <trkpt lat="45.73558" lon="6.78129">
        <ele>2302</ele>
        <time>2022-08-27T01:53:17Z</time>
      </trkpt>
      <trkpt lat="45.73556" lon="6.78128">
        <ele>2302</ele>
        <time>2022-08-27T01:53:19Z</time>
      </trkpt>
      <trkpt lat="45.73553" lon="6.78128">
        <ele>2302</ele>
        <time>2022-08-27T01:53:21Z</time>
      </trkpt>
      <trkpt lat="45.73551" lon="6.78127">
        <ele>2302</ele>
        <time>2022-08-27T01:53:23Z</time>
      </trkpt>
      <trkpt lat="45.73549" lon="6.78127">
        <ele>2302</ele>
        <time>2022-08-27T01:53:25Z</time>
      </trkpt>
      <trkpt lat="45.73547" lon="6.78127">
        <ele>2303</ele>
        <time>2022-08-27T01:53:27Z</time>
      </trkpt>
      <trkpt lat="45.73545" lon="6.78126">
        <ele>2303</ele>
        <time>2022-08-27T01:53:29Z</time>
      </trkpt>
      <trkpt lat="45.73543" lon="6.78126">
        <ele>2303</ele>
        <time>2022-08-27T01:53:31Z</time>
      </trkpt>
      <trkpt lat="45.73541" lon="6.78125">
        <ele>2303</ele>
        <time>2022-08-27T01:53:33Z</time>
      </trkpt>
      <trkpt lat="45.73538" lon="6.78124">
        <ele>2304</ele>
        <time>2022-08-27T01:53:36Z</time>
      </trkpt>
      <trkpt lat="45.73536" lon="6.78123">
        <ele>2305</ele>
        <time>2022-08-27T01:53:38Z</time>
      </trkpt>
      <trkpt lat="45.73533" lon="6.78122">
        <ele>2306</ele>
        <time>2022-08-27T01:53:40Z</time>
      </trkpt>
      <trkpt lat="45.73531" lon="6.78121">
        <ele>2306</ele>
        <time>2022-08-27T01:53:42Z</time>
      </trkpt>
      <trkpt lat="45.73529" lon="6.7812">
        <ele>2306</ele>
        <time>2022-08-27T01:53:45Z</time>
      </trkpt>
      <trkpt lat="45.73527" lon="6.78119">
        <ele>2307</ele>
        <time>2022-08-27T01:53:47Z</time>
      </trkpt>
      <trkpt lat="45.73525" lon="6.78118">
        <ele>2307</ele>
        <time>2022-08-27T01:53:49Z</time>
      </trkpt>
      <trkpt lat="45.73523" lon="6.78118">
        <ele>2307</ele>
        <time>2022-08-27T01:53:51Z</time>
      </trkpt>
      <trkpt lat="45.73521" lon="6.78118">
        <ele>2307</ele>
        <time>2022-08-27T01:53:53Z</time>
      </trkpt>
      <trkpt lat="45.73518" lon="6.78119">
        <ele>2308</ele>
        <time>2022-08-27T01:53:56Z</time>
      </trkpt>
      <trkpt lat="45.73515" lon="6.78118">
        <ele>2308</ele>
        <time>2022-08-27T01:53:58Z</time>
      </trkpt>
      <trkpt lat="45.73513" lon="6.78119">
        <ele>2309</ele>
        <time>2022-08-27T01:54:01Z</time>
      </trkpt>
      <trkpt lat="45.73511" lon="6.78119">
        <ele>2309</ele>
        <time>2022-08-27T01:54:03Z</time>
      </trkpt>
      <trkpt lat="45.73509" lon="6.7812">
        <ele>2309</ele>
        <time>2022-08-27T01:54:05Z</time>
      </trkpt>
      <trkpt lat="45.73506" lon="6.78121">
        <ele>2310</ele>
        <time>2022-08-27T01:54:08Z</time>
      </trkpt>
      <trkpt lat="45.73504" lon="6.78123">
        <ele>2311</ele>
        <time>2022-08-27T01:54:11Z</time>
      </trkpt>
      <trkpt lat="45.73502" lon="6.78124">
        <ele>2311</ele>
        <time>2022-08-27T01:54:13Z</time>
      </trkpt>
      <trkpt lat="45.73501" lon="6.78125">
        <ele>2311</ele>
        <time>2022-08-27T01:54:15Z</time>
      </trkpt>
      <trkpt lat="45.73499" lon="6.78127">
        <ele>2312</ele>
        <time>2022-08-27T01:54:18Z</time>
      </trkpt>
      <trkpt lat="45.735" lon="6.7813">
        <ele>2313</ele>
        <time>2022-08-27T01:54:20Z</time>
      </trkpt>
      <trkpt lat="45.73502" lon="6.78132">
        <ele>2313</ele>
        <time>2022-08-27T01:54:22Z</time>
      </trkpt>
      <trkpt lat="45.73504" lon="6.78133">
        <ele>2313</ele>
        <time>2022-08-27T01:54:24Z</time>
      </trkpt>
      <trkpt lat="45.73506" lon="6.78134">
        <ele>2314</ele>
        <time>2022-08-27T01:54:26Z</time>
      </trkpt>
      <trkpt lat="45.73508" lon="6.78135">
        <ele>2314</ele>
        <time>2022-08-27T01:54:28Z</time>
      </trkpt>
      <trkpt lat="45.7351" lon="6.78137">
        <ele>2314</ele>
        <time>2022-08-27T01:54:30Z</time>
      </trkpt>
      <trkpt lat="45.73512" lon="6.78138">
        <ele>2314</ele>
        <time>2022-08-27T01:54:32Z</time>
      </trkpt>
      <trkpt lat="45.73514" lon="6.78139">
        <ele>2314</ele>
        <time>2022-08-27T01:54:34Z</time>
      </trkpt>
      <trkpt lat="45.73516" lon="6.78141">
        <ele>2315</ele>
        <time>2022-08-27T01:54:36Z</time>
      </trkpt>
      <trkpt lat="45.73518" lon="6.78143">
        <ele>2315</ele>
        <time>2022-08-27T01:54:38Z</time>
      </trkpt>
      <trkpt lat="45.73519" lon="6.78145">
        <ele>2315</ele>
        <time>2022-08-27T01:54:40Z</time>
      </trkpt>
      <trkpt lat="45.73521" lon="6.78147">
        <ele>2316</ele>
        <time>2022-08-27T01:54:42Z</time>
      </trkpt>
      <trkpt lat="45.73523" lon="6.78148">
        <ele>2316</ele>
        <time>2022-08-27T01:54:44Z</time>
      </trkpt>
      <trkpt lat="45.73525" lon="6.7815">
        <ele>2316</ele>
        <time>2022-08-27T01:54:46Z</time>
      </trkpt>
      <trkpt lat="45.73526" lon="6.78153">
        <ele>2316</ele>
        <time>2022-08-27T01:54:48Z</time>
      </trkpt>
      <trkpt lat="45.73528" lon="6.78154">
        <ele>2317</ele>
        <time>2022-08-27T01:54:50Z</time>
      </trkpt>
      <trkpt lat="45.7353" lon="6.78156">
        <ele>2317</ele>
        <time>2022-08-27T01:54:52Z</time>
      </trkpt>
      <trkpt lat="45.73532" lon="6.78158">
        <ele>2317</ele>
        <time>2022-08-27T01:54:55Z</time>
      </trkpt>
      <trkpt lat="45.73534" lon="6.78159">
        <ele>2318</ele>
        <time>2022-08-27T01:54:57Z</time>
      </trkpt>
      <trkpt lat="45.73536" lon="6.78161">
        <ele>2319</ele>
        <time>2022-08-27T01:54:59Z</time>
      </trkpt>
      <trkpt lat="45.73538" lon="6.78162">
        <ele>2319</ele>
        <time>2022-08-27T01:55:01Z</time>
      </trkpt>
      <trkpt lat="45.73541" lon="6.78164">
        <ele>2319</ele>
        <time>2022-08-27T01:55:03Z</time>
      </trkpt>
      <trkpt lat="45.73543" lon="6.78165">
        <ele>2319</ele>
        <time>2022-08-27T01:55:05Z</time>
      </trkpt>
      <trkpt lat="45.73544" lon="6.78167">
        <ele>2319</ele>
        <time>2022-08-27T01:55:07Z</time>
      </trkpt>
      <trkpt lat="45.73546" lon="6.78168">
        <ele>2319</ele>
        <time>2022-08-27T01:55:09Z</time>
      </trkpt>
      <trkpt lat="45.73548" lon="6.7817">
        <ele>2320</ele>
        <time>2022-08-27T01:55:11Z</time>
      </trkpt>
      <trkpt lat="45.7355" lon="6.78171">
        <ele>2320</ele>
        <time>2022-08-27T01:55:13Z</time>
      </trkpt>
      <trkpt lat="45.73552" lon="6.78172">
        <ele>2321</ele>
        <time>2022-08-27T01:55:15Z</time>
      </trkpt>
      <trkpt lat="45.73553" lon="6.78174">
        <ele>2321</ele>
        <time>2022-08-27T01:55:17Z</time>
      </trkpt>
      <trkpt lat="45.73555" lon="6.78175">
        <ele>2322</ele>
        <time>2022-08-27T01:55:19Z</time>
      </trkpt>
      <trkpt lat="45.73557" lon="6.78177">
        <ele>2322</ele>
        <time>2022-08-27T01:55:21Z</time>
      </trkpt>
      <trkpt lat="45.73558" lon="6.78179">
        <ele>2322</ele>
        <time>2022-08-27T01:55:23Z</time>
      </trkpt>
      <trkpt lat="45.7356" lon="6.78181">
        <ele>2323</ele>
        <time>2022-08-27T01:55:26Z</time>
      </trkpt>
      <trkpt lat="45.73563" lon="6.78183">
        <ele>2324</ele>
        <time>2022-08-27T01:55:29Z</time>
      </trkpt>
      <trkpt lat="45.73564" lon="6.78185">
        <ele>2324</ele>
        <time>2022-08-27T01:55:31Z</time>
      </trkpt>
      <trkpt lat="45.73566" lon="6.78186">
        <ele>2324</ele>
        <time>2022-08-27T01:55:33Z</time>
      </trkpt>
      <trkpt lat="45.73569" lon="6.78188">
        <ele>2324</ele>
        <time>2022-08-27T01:55:36Z</time>
      </trkpt>
      <trkpt lat="45.7357" lon="6.78189">
        <ele>2326</ele>
        <time>2022-08-27T01:55:38Z</time>
      </trkpt>
      <trkpt lat="45.73572" lon="6.78191">
        <ele>2327</ele>
        <time>2022-08-27T01:55:40Z</time>
      </trkpt>
      <trkpt lat="45.73574" lon="6.78193">
        <ele>2326</ele>
        <time>2022-08-27T01:55:42Z</time>
      </trkpt>
      <trkpt lat="45.73576" lon="6.78195">
        <ele>2326</ele>
        <time>2022-08-27T01:55:44Z</time>
      </trkpt>
      <trkpt lat="45.73578" lon="6.78197">
        <ele>2327</ele>
        <time>2022-08-27T01:55:46Z</time>
      </trkpt>
      <trkpt lat="45.73579" lon="6.78199">
        <ele>2328</ele>
        <time>2022-08-27T01:55:48Z</time>
      </trkpt>
      <trkpt lat="45.73581" lon="6.78201">
        <ele>2328</ele>
        <time>2022-08-27T01:55:50Z</time>
      </trkpt>
      <trkpt lat="45.73582" lon="6.78203">
        <ele>2328</ele>
        <time>2022-08-27T01:55:52Z</time>
      </trkpt>
      <trkpt lat="45.73584" lon="6.78205">
        <ele>2328</ele>
        <time>2022-08-27T01:55:54Z</time>
      </trkpt>
      <trkpt lat="45.73585" lon="6.78207">
        <ele>2329</ele>
        <time>2022-08-27T01:55:56Z</time>
      </trkpt>
      <trkpt lat="45.73587" lon="6.7821">
        <ele>2329</ele>
        <time>2022-08-27T01:55:58Z</time>
      </trkpt>
      <trkpt lat="45.73588" lon="6.78212">
        <ele>2329</ele>
        <time>2022-08-27T01:56:00Z</time>
      </trkpt>
      <trkpt lat="45.73589" lon="6.78215">
        <ele>2330</ele>
        <time>2022-08-27T01:56:02Z</time>
      </trkpt>
      <trkpt lat="45.7359" lon="6.78217">
        <ele>2330</ele>
        <time>2022-08-27T01:56:04Z</time>
      </trkpt>
      <trkpt lat="45.7359" lon="6.7822">
        <ele>2331</ele>
        <time>2022-08-27T01:56:06Z</time>
      </trkpt>
      <trkpt lat="45.73589" lon="6.78222">
        <ele>2330</ele>
        <time>2022-08-27T01:56:08Z</time>
      </trkpt>
      <trkpt lat="45.73587" lon="6.78221">
        <ele>2331</ele>
        <time>2022-08-27T01:56:10Z</time>
      </trkpt>
      <trkpt lat="45.73585" lon="6.78219">
        <ele>2331</ele>
        <time>2022-08-27T01:56:12Z</time>
      </trkpt>
      <trkpt lat="45.73583" lon="6.78218">
        <ele>2332</ele>
        <time>2022-08-27T01:56:14Z</time>
      </trkpt>
      <trkpt lat="45.73581" lon="6.78216">
        <ele>2332</ele>
        <time>2022-08-27T01:56:16Z</time>
      </trkpt>
      <trkpt lat="45.73579" lon="6.78215">
        <ele>2332</ele>
        <time>2022-08-27T01:56:18Z</time>
      </trkpt>
      <trkpt lat="45.73577" lon="6.78213">
        <ele>2333</ele>
        <time>2022-08-27T01:56:20Z</time>
      </trkpt>
      <trkpt lat="45.73575" lon="6.78212">
        <ele>2333</ele>
        <time>2022-08-27T01:56:22Z</time>
      </trkpt>
      <trkpt lat="45.73573" lon="6.7821">
        <ele>2333</ele>
        <time>2022-08-27T01:56:24Z</time>
      </trkpt>
      <trkpt lat="45.73572" lon="6.78209">
        <ele>2334</ele>
        <time>2022-08-27T01:56:26Z</time>
      </trkpt>
      <trkpt lat="45.73569" lon="6.78208">
        <ele>2334</ele>
        <time>2022-08-27T01:56:28Z</time>
      </trkpt>
      <trkpt lat="45.73567" lon="6.78207">
        <ele>2334</ele>
        <time>2022-08-27T01:56:30Z</time>
      </trkpt>
      <trkpt lat="45.73565" lon="6.78207">
        <ele>2334</ele>
        <time>2022-08-27T01:56:32Z</time>
      </trkpt>
      <trkpt lat="45.73562" lon="6.78206">
        <ele>2335</ele>
        <time>2022-08-27T01:56:35Z</time>
      </trkpt>
      <trkpt lat="45.7356" lon="6.78206">
        <ele>2335</ele>
        <time>2022-08-27T01:56:37Z</time>
      </trkpt>
      <trkpt lat="45.73558" lon="6.78206">
        <ele>2335</ele>
        <time>2022-08-27T01:56:39Z</time>
      </trkpt>
      <trkpt lat="45.73556" lon="6.78206">
        <ele>2335</ele>
        <time>2022-08-27T01:56:41Z</time>
      </trkpt>
      <trkpt lat="45.73553" lon="6.78205">
        <ele>2335</ele>
        <time>2022-08-27T01:56:44Z</time>
      </trkpt>
      <trkpt lat="45.73551" lon="6.78205">
        <ele>2336</ele>
        <time>2022-08-27T01:56:47Z</time>
      </trkpt>
      <trkpt lat="45.73549" lon="6.78204">
        <ele>2336</ele>
        <time>2022-08-27T01:56:50Z</time>
      </trkpt>
      <trkpt lat="45.73547" lon="6.78204">
        <ele>2336</ele>
        <time>2022-08-27T01:56:52Z</time>
      </trkpt>
      <trkpt lat="45.73544" lon="6.78205">
        <ele>2337</ele>
        <time>2022-08-27T01:56:54Z</time>
      </trkpt>
      <trkpt lat="45.73542" lon="6.78205">
        <ele>2337</ele>
        <time>2022-08-27T01:56:56Z</time>
      </trkpt>
      <trkpt lat="45.7354" lon="6.78205">
        <ele>2338</ele>
        <time>2022-08-27T01:56:58Z</time>
      </trkpt>
      <trkpt lat="45.73538" lon="6.78205">
        <ele>2338</ele>
        <time>2022-08-27T01:57:00Z</time>
      </trkpt>
      <trkpt lat="45.73535" lon="6.78205">
        <ele>2338</ele>
        <time>2022-08-27T01:57:02Z</time>
      </trkpt>
      <trkpt lat="45.73533" lon="6.78206">
        <ele>2338</ele>
        <time>2022-08-27T01:57:04Z</time>
      </trkpt>
      <trkpt lat="45.73531" lon="6.78205">
        <ele>2339</ele>
        <time>2022-08-27T01:57:06Z</time>
      </trkpt>
      <trkpt lat="45.73529" lon="6.78205">
        <ele>2339</ele>
        <time>2022-08-27T01:57:08Z</time>
      </trkpt>
      <trkpt lat="45.73527" lon="6.78206">
        <ele>2339</ele>
        <time>2022-08-27T01:57:10Z</time>
      </trkpt>
      <trkpt lat="45.73525" lon="6.78206">
        <ele>2340</ele>
        <time>2022-08-27T01:57:12Z</time>
      </trkpt>
      <trkpt lat="45.73523" lon="6.78206">
        <ele>2340</ele>
        <time>2022-08-27T01:57:14Z</time>
      </trkpt>
      <trkpt lat="45.73521" lon="6.78207">
        <ele>2340</ele>
        <time>2022-08-27T01:57:16Z</time>
      </trkpt>
      <trkpt lat="45.73518" lon="6.78207">
        <ele>2341</ele>
        <time>2022-08-27T01:57:19Z</time>
      </trkpt>
      <trkpt lat="45.73516" lon="6.78207">
        <ele>2341</ele>
        <time>2022-08-27T01:57:21Z</time>
      </trkpt>
      <trkpt lat="45.73514" lon="6.78208">
        <ele>2342</ele>
        <time>2022-08-27T01:57:23Z</time>
      </trkpt>
      <trkpt lat="45.73512" lon="6.78208">
        <ele>2342</ele>
        <time>2022-08-27T01:57:25Z</time>
      </trkpt>
      <trkpt lat="45.7351" lon="6.78209">
        <ele>2342</ele>
        <time>2022-08-27T01:57:27Z</time>
      </trkpt>
      <trkpt lat="45.73508" lon="6.78209">
        <ele>2342</ele>
        <time>2022-08-27T01:57:29Z</time>
      </trkpt>
      <trkpt lat="45.73506" lon="6.78209">
        <ele>2342</ele>
        <time>2022-08-27T01:57:31Z</time>
      </trkpt>
      <trkpt lat="45.73504" lon="6.78209">
        <ele>2343</ele>
        <time>2022-08-27T01:57:33Z</time>
      </trkpt>
      <trkpt lat="45.73502" lon="6.78209">
        <ele>2344</ele>
        <time>2022-08-27T01:57:35Z</time>
      </trkpt>
      <trkpt lat="45.73497" lon="6.7821">
        <ele>2344</ele>
        <time>2022-08-27T01:57:40Z</time>
      </trkpt>
      <trkpt lat="45.73493" lon="6.78209">
        <ele>2345</ele>
        <time>2022-08-27T01:57:43Z</time>
      </trkpt>
      <trkpt lat="45.73491" lon="6.78208">
        <ele>2345</ele>
        <time>2022-08-27T01:57:45Z</time>
      </trkpt>
      <trkpt lat="45.7349" lon="6.78207">
        <ele>2346</ele>
        <time>2022-08-27T01:57:47Z</time>
      </trkpt>
      <trkpt lat="45.73487" lon="6.78206">
        <ele>2346</ele>
        <time>2022-08-27T01:57:50Z</time>
      </trkpt>
      <trkpt lat="45.73485" lon="6.78205">
        <ele>2347</ele>
        <time>2022-08-27T01:57:52Z</time>
      </trkpt>
      <trkpt lat="45.73483" lon="6.78204">
        <ele>2346</ele>
        <time>2022-08-27T01:57:54Z</time>
      </trkpt>
      <trkpt lat="45.7348" lon="6.78203">
        <ele>2346</ele>
        <time>2022-08-27T01:57:56Z</time>
      </trkpt>
      <trkpt lat="45.73479" lon="6.78203">
        <ele>2347</ele>
        <time>2022-08-27T01:57:58Z</time>
      </trkpt>
      <trkpt lat="45.73476" lon="6.78201">
        <ele>2348</ele>
        <time>2022-08-27T01:58:01Z</time>
      </trkpt>
      <trkpt lat="45.73474" lon="6.782">
        <ele>2348</ele>
        <time>2022-08-27T01:58:04Z</time>
      </trkpt>
      <trkpt lat="45.73473" lon="6.78202">
        <ele>2349</ele>
        <time>2022-08-27T01:58:07Z</time>
      </trkpt>
      <trkpt lat="45.73474" lon="6.78205">
        <ele>2350</ele>
        <time>2022-08-27T01:58:10Z</time>
      </trkpt>
      <trkpt lat="45.73476" lon="6.78207">
        <ele>2350</ele>
        <time>2022-08-27T01:58:12Z</time>
      </trkpt>
      <trkpt lat="45.73478" lon="6.78208">
        <ele>2352</ele>
        <time>2022-08-27T01:58:14Z</time>
      </trkpt>
      <trkpt lat="45.7348" lon="6.7821">
        <ele>2352</ele>
        <time>2022-08-27T01:58:16Z</time>
      </trkpt>
      <trkpt lat="45.73481" lon="6.78212">
        <ele>2353</ele>
        <time>2022-08-27T01:58:19Z</time>
      </trkpt>
      <trkpt lat="45.73483" lon="6.78214">
        <ele>2353</ele>
        <time>2022-08-27T01:58:21Z</time>
      </trkpt>
      <trkpt lat="45.73483" lon="6.78217">
        <ele>2353</ele>
        <time>2022-08-27T01:58:23Z</time>
      </trkpt>
      <trkpt lat="45.73481" lon="6.78219">
        <ele>2355</ele>
        <time>2022-08-27T01:58:26Z</time>
      </trkpt>
      <trkpt lat="45.73479" lon="6.78219">
        <ele>2355</ele>
        <time>2022-08-27T01:58:28Z</time>
      </trkpt>
      <trkpt lat="45.73477" lon="6.78219">
        <ele>2355</ele>
        <time>2022-08-27T01:58:30Z</time>
      </trkpt>
      <trkpt lat="45.73475" lon="6.78219">
        <ele>2355</ele>
        <time>2022-08-27T01:58:32Z</time>
      </trkpt>
      <trkpt lat="45.73473" lon="6.78218">
        <ele>2356</ele>
        <time>2022-08-27T01:58:34Z</time>
      </trkpt>
      <trkpt lat="45.7347" lon="6.78217">
        <ele>2356</ele>
        <time>2022-08-27T01:58:37Z</time>
      </trkpt>
      <trkpt lat="45.73469" lon="6.78217">
        <ele>2356</ele>
        <time>2022-08-27T01:58:40Z</time>
      </trkpt>
      <trkpt lat="45.73469" lon="6.7822">
        <ele>2357</ele>
        <time>2022-08-27T01:58:44Z</time>
      </trkpt>
      <trkpt lat="45.7347" lon="6.78222">
        <ele>2358</ele>
        <time>2022-08-27T01:58:46Z</time>
      </trkpt>
      <trkpt lat="45.73472" lon="6.78223">
        <ele>2358</ele>
        <time>2022-08-27T01:58:48Z</time>
      </trkpt>
      <trkpt lat="45.73474" lon="6.78224">
        <ele>2358</ele>
        <time>2022-08-27T01:58:50Z</time>
      </trkpt>
      <trkpt lat="45.73476" lon="6.78226">
        <ele>2359</ele>
        <time>2022-08-27T01:58:53Z</time>
      </trkpt>
      <trkpt lat="45.73478" lon="6.78228">
        <ele>2359</ele>
        <time>2022-08-27T01:58:55Z</time>
      </trkpt>
      <trkpt lat="45.7348" lon="6.7823">
        <ele>2360</ele>
        <time>2022-08-27T01:58:57Z</time>
      </trkpt>
      <trkpt lat="45.73481" lon="6.78231">
        <ele>2360</ele>
        <time>2022-08-27T01:58:59Z</time>
      </trkpt>
      <trkpt lat="45.73483" lon="6.78233">
        <ele>2360</ele>
        <time>2022-08-27T01:59:01Z</time>
      </trkpt>
      <trkpt lat="45.73483" lon="6.78236">
        <ele>2360</ele>
        <time>2022-08-27T01:59:03Z</time>
      </trkpt>
      <trkpt lat="45.73481" lon="6.78238">
        <ele>2360</ele>
        <time>2022-08-27T01:59:05Z</time>
      </trkpt>
      <trkpt lat="45.7348" lon="6.78237">
        <ele>2361</ele>
        <time>2022-08-27T01:59:07Z</time>
      </trkpt>
      <trkpt lat="45.73478" lon="6.78237">
        <ele>2361</ele>
        <time>2022-08-27T01:59:09Z</time>
      </trkpt>
      <trkpt lat="45.73476" lon="6.78236">
        <ele>2362</ele>
        <time>2022-08-27T01:59:11Z</time>
      </trkpt>
      <trkpt lat="45.73474" lon="6.78237">
        <ele>2362</ele>
        <time>2022-08-27T01:59:13Z</time>
      </trkpt>
      <trkpt lat="45.73472" lon="6.78239">
        <ele>2362</ele>
        <time>2022-08-27T01:59:16Z</time>
      </trkpt>
      <trkpt lat="45.73472" lon="6.78242">
        <ele>2363</ele>
        <time>2022-08-27T01:59:19Z</time>
      </trkpt>
      <trkpt lat="45.73474" lon="6.78245">
        <ele>2364</ele>
        <time>2022-08-27T01:59:21Z</time>
      </trkpt>
      <trkpt lat="45.73476" lon="6.78247">
        <ele>2364</ele>
        <time>2022-08-27T01:59:23Z</time>
      </trkpt>
      <trkpt lat="45.73477" lon="6.78248">
        <ele>2364</ele>
        <time>2022-08-27T01:59:25Z</time>
      </trkpt>
      <trkpt lat="45.73479" lon="6.7825">
        <ele>2364</ele>
        <time>2022-08-27T01:59:27Z</time>
      </trkpt>
      <trkpt lat="45.73481" lon="6.78251">
        <ele>2364</ele>
        <time>2022-08-27T01:59:29Z</time>
      </trkpt>
      <trkpt lat="45.73483" lon="6.78252">
        <ele>2365</ele>
        <time>2022-08-27T01:59:31Z</time>
      </trkpt>
      <trkpt lat="45.73485" lon="6.78253">
        <ele>2365</ele>
        <time>2022-08-27T01:59:33Z</time>
      </trkpt>
      <trkpt lat="45.73487" lon="6.78253">
        <ele>2365</ele>
        <time>2022-08-27T01:59:35Z</time>
      </trkpt>
      <trkpt lat="45.73489" lon="6.78253">
        <ele>2366</ele>
        <time>2022-08-27T01:59:37Z</time>
      </trkpt>
      <trkpt lat="45.73491" lon="6.78254">
        <ele>2366</ele>
        <time>2022-08-27T01:59:39Z</time>
      </trkpt>
      <trkpt lat="45.73494" lon="6.78254">
        <ele>2366</ele>
        <time>2022-08-27T01:59:42Z</time>
      </trkpt>
      <trkpt lat="45.73496" lon="6.78254">
        <ele>2367</ele>
        <time>2022-08-27T01:59:45Z</time>
      </trkpt>
      <trkpt lat="45.73498" lon="6.78254">
        <ele>2367</ele>
        <time>2022-08-27T01:59:48Z</time>
      </trkpt>
      <trkpt lat="45.73501" lon="6.78255">
        <ele>2368</ele>
        <time>2022-08-27T01:59:51Z</time>
      </trkpt>
      <trkpt lat="45.73502" lon="6.78255">
        <ele>2368</ele>
        <time>2022-08-27T01:59:53Z</time>
      </trkpt>
      <trkpt lat="45.73505" lon="6.78256">
        <ele>2368</ele>
        <time>2022-08-27T01:59:56Z</time>
      </trkpt>
      <trkpt lat="45.73507" lon="6.78257">
        <ele>2369</ele>
        <time>2022-08-27T01:59:58Z</time>
      </trkpt>
      <trkpt lat="45.73509" lon="6.78258">
        <ele>2370</ele>
        <time>2022-08-27T02:00:00Z</time>
      </trkpt>
      <trkpt lat="45.73511" lon="6.78259">
        <ele>2370</ele>
        <time>2022-08-27T02:00:02Z</time>
      </trkpt>
      <trkpt lat="45.73512" lon="6.78259">
        <ele>2370</ele>
        <time>2022-08-27T02:00:04Z</time>
      </trkpt>
      <trkpt lat="45.73514" lon="6.7826">
        <ele>2371</ele>
        <time>2022-08-27T02:00:06Z</time>
      </trkpt>
      <trkpt lat="45.73516" lon="6.78261">
        <ele>2371</ele>
        <time>2022-08-27T02:00:08Z</time>
      </trkpt>
      <trkpt lat="45.73516" lon="6.78264">
        <ele>2371</ele>
        <time>2022-08-27T02:00:10Z</time>
      </trkpt>
      <trkpt lat="45.73514" lon="6.78265">
        <ele>2372</ele>
        <time>2022-08-27T02:00:12Z</time>
      </trkpt>
      <trkpt lat="45.73512" lon="6.78265">
        <ele>2372</ele>
        <time>2022-08-27T02:00:14Z</time>
      </trkpt>
      <trkpt lat="45.73509" lon="6.78266">
        <ele>2373</ele>
        <time>2022-08-27T02:00:17Z</time>
      </trkpt>
      <trkpt lat="45.73507" lon="6.78266">
        <ele>2373</ele>
        <time>2022-08-27T02:00:20Z</time>
      </trkpt>
      <trkpt lat="45.73505" lon="6.78267">
        <ele>2374</ele>
        <time>2022-08-27T02:00:23Z</time>
      </trkpt>
      <trkpt lat="45.73503" lon="6.78267">
        <ele>2374</ele>
        <time>2022-08-27T02:00:26Z</time>
      </trkpt>
      <trkpt lat="45.73501" lon="6.78269">
        <ele>2375</ele>
        <time>2022-08-27T02:00:28Z</time>
      </trkpt>
      <trkpt lat="45.73499" lon="6.7827">
        <ele>2375</ele>
        <time>2022-08-27T02:00:30Z</time>
      </trkpt>
      <trkpt lat="45.73497" lon="6.78271">
        <ele>2375</ele>
        <time>2022-08-27T02:00:32Z</time>
      </trkpt>
      <trkpt lat="45.73495" lon="6.78273">
        <ele>2375</ele>
        <time>2022-08-27T02:00:34Z</time>
      </trkpt>
      <trkpt lat="45.73494" lon="6.78275">
        <ele>2376</ele>
        <time>2022-08-27T02:00:36Z</time>
      </trkpt>
      <trkpt lat="45.73492" lon="6.78277">
        <ele>2376</ele>
        <time>2022-08-27T02:00:38Z</time>
      </trkpt>
      <trkpt lat="45.73491" lon="6.7828">
        <ele>2378</ele>
        <time>2022-08-27T02:00:40Z</time>
      </trkpt>
      <trkpt lat="45.73489" lon="6.78282">
        <ele>2378</ele>
        <time>2022-08-27T02:00:42Z</time>
      </trkpt>
      <trkpt lat="45.73488" lon="6.78284">
        <ele>2378</ele>
        <time>2022-08-27T02:00:44Z</time>
      </trkpt>
      <trkpt lat="45.73486" lon="6.78285">
        <ele>2378</ele>
        <time>2022-08-27T02:00:46Z</time>
      </trkpt>
      <trkpt lat="45.73483" lon="6.78285">
        <ele>2379</ele>
        <time>2022-08-27T02:00:48Z</time>
      </trkpt>
      <trkpt lat="45.7348" lon="6.78284">
        <ele>2380</ele>
        <time>2022-08-27T02:00:52Z</time>
      </trkpt>
      <trkpt lat="45.73478" lon="6.78285">
        <ele>2380</ele>
        <time>2022-08-27T02:00:55Z</time>
      </trkpt>
      <trkpt lat="45.73479" lon="6.78288">
        <ele>2381</ele>
        <time>2022-08-27T02:00:58Z</time>
      </trkpt>
      <trkpt lat="45.73481" lon="6.78291">
        <ele>2381</ele>
        <time>2022-08-27T02:01:01Z</time>
      </trkpt>
      <trkpt lat="45.73483" lon="6.78292">
        <ele>2381</ele>
        <time>2022-08-27T02:01:03Z</time>
      </trkpt>
      <trkpt lat="45.73485" lon="6.78293">
        <ele>2382</ele>
        <time>2022-08-27T02:01:05Z</time>
      </trkpt>
      <trkpt lat="45.73488" lon="6.78293">
        <ele>2382</ele>
        <time>2022-08-27T02:01:08Z</time>
      </trkpt>
      <trkpt lat="45.7349" lon="6.78293">
        <ele>2382</ele>
        <time>2022-08-27T02:01:11Z</time>
      </trkpt>
      <trkpt lat="45.73492" lon="6.78291">
        <ele>2383</ele>
        <time>2022-08-27T02:01:13Z</time>
      </trkpt>
      <trkpt lat="45.73494" lon="6.7829">
        <ele>2383</ele>
        <time>2022-08-27T02:01:15Z</time>
      </trkpt>
      <trkpt lat="45.73496" lon="6.78289">
        <ele>2383</ele>
        <time>2022-08-27T02:01:17Z</time>
      </trkpt>
      <trkpt lat="45.73499" lon="6.78288">
        <ele>2384</ele>
        <time>2022-08-27T02:01:20Z</time>
      </trkpt>
      <trkpt lat="45.735" lon="6.78288">
        <ele>2384</ele>
        <time>2022-08-27T02:01:22Z</time>
      </trkpt>
      <trkpt lat="45.73502" lon="6.78288">
        <ele>2384</ele>
        <time>2022-08-27T02:01:24Z</time>
      </trkpt>
      <trkpt lat="45.73505" lon="6.78288">
        <ele>2385</ele>
        <time>2022-08-27T02:01:26Z</time>
      </trkpt>
      <trkpt lat="45.73507" lon="6.78289">
        <ele>2385</ele>
        <time>2022-08-27T02:01:28Z</time>
      </trkpt>
      <trkpt lat="45.73509" lon="6.7829">
        <ele>2386</ele>
        <time>2022-08-27T02:01:30Z</time>
      </trkpt>
      <trkpt lat="45.73511" lon="6.78291">
        <ele>2386</ele>
        <time>2022-08-27T02:01:32Z</time>
      </trkpt>
      <trkpt lat="45.73513" lon="6.78293">
        <ele>2386</ele>
        <time>2022-08-27T02:01:34Z</time>
      </trkpt>
      <trkpt lat="45.73515" lon="6.78294">
        <ele>2386</ele>
        <time>2022-08-27T02:01:36Z</time>
      </trkpt>
      <trkpt lat="45.73517" lon="6.78296">
        <ele>2386</ele>
        <time>2022-08-27T02:01:38Z</time>
      </trkpt>
      <trkpt lat="45.73519" lon="6.78297">
        <ele>2386</ele>
        <time>2022-08-27T02:01:40Z</time>
      </trkpt>
      <trkpt lat="45.73521" lon="6.78299">
        <ele>2387</ele>
        <time>2022-08-27T02:01:42Z</time>
      </trkpt>
      <trkpt lat="45.73522" lon="6.783">
        <ele>2387</ele>
        <time>2022-08-27T02:01:44Z</time>
      </trkpt>
      <trkpt lat="45.73524" lon="6.78302">
        <ele>2387</ele>
        <time>2022-08-27T02:01:46Z</time>
      </trkpt>
      <trkpt lat="45.73526" lon="6.78303">
        <ele>2388</ele>
        <time>2022-08-27T02:01:48Z</time>
      </trkpt>
      <trkpt lat="45.73527" lon="6.78305">
        <ele>2389</ele>
        <time>2022-08-27T02:01:50Z</time>
      </trkpt>
      <trkpt lat="45.73529" lon="6.78308">
        <ele>2389</ele>
        <time>2022-08-27T02:01:53Z</time>
      </trkpt>
      <trkpt lat="45.73531" lon="6.78309">
        <ele>2389</ele>
        <time>2022-08-27T02:01:55Z</time>
      </trkpt>
      <trkpt lat="45.73532" lon="6.78311">
        <ele>2390</ele>
        <time>2022-08-27T02:01:57Z</time>
      </trkpt>
      <trkpt lat="45.73534" lon="6.78312">
        <ele>2390</ele>
        <time>2022-08-27T02:01:59Z</time>
      </trkpt>
      <trkpt lat="45.73536" lon="6.78315">
        <ele>2390</ele>
        <time>2022-08-27T02:02:02Z</time>
      </trkpt>
      <trkpt lat="45.73538" lon="6.78317">
        <ele>2391</ele>
        <time>2022-08-27T02:02:05Z</time>
      </trkpt>
      <trkpt lat="45.73539" lon="6.7832">
        <ele>2391</ele>
        <time>2022-08-27T02:02:08Z</time>
      </trkpt>
      <trkpt lat="45.73541" lon="6.78323">
        <ele>2392</ele>
        <time>2022-08-27T02:02:11Z</time>
      </trkpt>
      <trkpt lat="45.73543" lon="6.78325">
        <ele>2392</ele>
        <time>2022-08-27T02:02:14Z</time>
      </trkpt>
      <trkpt lat="45.73545" lon="6.78327">
        <ele>2393</ele>
        <time>2022-08-27T02:02:17Z</time>
      </trkpt>
      <trkpt lat="45.73546" lon="6.78329">
        <ele>2393</ele>
        <time>2022-08-27T02:02:20Z</time>
      </trkpt>
      <trkpt lat="45.73548" lon="6.78331">
        <ele>2393</ele>
        <time>2022-08-27T02:02:23Z</time>
      </trkpt>
      <trkpt lat="45.7355" lon="6.78334">
        <ele>2393</ele>
        <time>2022-08-27T02:02:26Z</time>
      </trkpt>
      <trkpt lat="45.73552" lon="6.78337">
        <ele>2395</ele>
        <time>2022-08-27T02:02:29Z</time>
      </trkpt>
      <trkpt lat="45.73553" lon="6.78338">
        <ele>2396</ele>
        <time>2022-08-27T02:02:31Z</time>
      </trkpt>
      <trkpt lat="45.73555" lon="6.78341">
        <ele>2396</ele>
        <time>2022-08-27T02:02:34Z</time>
      </trkpt>
      <trkpt lat="45.73556" lon="6.78344">
        <ele>2396</ele>
        <time>2022-08-27T02:02:37Z</time>
      </trkpt>
      <trkpt lat="45.73558" lon="6.78346">
        <ele>2396</ele>
        <time>2022-08-27T02:02:39Z</time>
      </trkpt>
      <trkpt lat="45.73559" lon="6.78348">
        <ele>2397</ele>
        <time>2022-08-27T02:02:41Z</time>
      </trkpt>
      <trkpt lat="45.7356" lon="6.7835">
        <ele>2398</ele>
        <time>2022-08-27T02:02:43Z</time>
      </trkpt>
      <trkpt lat="45.73561" lon="6.78353">
        <ele>2398</ele>
        <time>2022-08-27T02:02:45Z</time>
      </trkpt>
      <trkpt lat="45.73562" lon="6.78355">
        <ele>2398</ele>
        <time>2022-08-27T02:02:47Z</time>
      </trkpt>
      <trkpt lat="45.73563" lon="6.78358">
        <ele>2398</ele>
        <time>2022-08-27T02:02:49Z</time>
      </trkpt>
      <trkpt lat="45.73564" lon="6.7836">
        <ele>2398</ele>
        <time>2022-08-27T02:02:51Z</time>
      </trkpt>
      <trkpt lat="45.73564" lon="6.78364">
        <ele>2399</ele>
        <time>2022-08-27T02:02:54Z</time>
      </trkpt>
      <trkpt lat="45.73565" lon="6.78367">
        <ele>2399</ele>
        <time>2022-08-27T02:02:57Z</time>
      </trkpt>
      <trkpt lat="45.73566" lon="6.7837">
        <ele>2399</ele>
        <time>2022-08-27T02:02:59Z</time>
      </trkpt>
      <trkpt lat="45.73567" lon="6.78374">
        <ele>2400</ele>
        <time>2022-08-27T02:03:02Z</time>
      </trkpt>
      <trkpt lat="45.73568" lon="6.78376">
        <ele>2400</ele>
        <time>2022-08-27T02:03:04Z</time>
      </trkpt>
      <trkpt lat="45.73569" lon="6.78379">
        <ele>2401</ele>
        <time>2022-08-27T02:03:06Z</time>
      </trkpt>
      <trkpt lat="45.73569" lon="6.78381">
        <ele>2402</ele>
        <time>2022-08-27T02:03:08Z</time>
      </trkpt>
      <trkpt lat="45.7357" lon="6.78385">
        <ele>2402</ele>
        <time>2022-08-27T02:03:11Z</time>
      </trkpt>
      <trkpt lat="45.73571" lon="6.78387">
        <ele>2402</ele>
        <time>2022-08-27T02:03:13Z</time>
      </trkpt>
      <trkpt lat="45.73572" lon="6.7839">
        <ele>2402</ele>
        <time>2022-08-27T02:03:15Z</time>
      </trkpt>
      <trkpt lat="45.73572" lon="6.78394">
        <ele>2405</ele>
        <time>2022-08-27T02:03:18Z</time>
      </trkpt>
      <trkpt lat="45.73573" lon="6.78396">
        <ele>2405</ele>
        <time>2022-08-27T02:03:20Z</time>
      </trkpt>
      <trkpt lat="45.73573" lon="6.78399">
        <ele>2405</ele>
        <time>2022-08-27T02:03:22Z</time>
      </trkpt>
      <trkpt lat="45.73574" lon="6.78402">
        <ele>2406</ele>
        <time>2022-08-27T02:03:24Z</time>
      </trkpt>
      <trkpt lat="45.73574" lon="6.78404">
        <ele>2407</ele>
        <time>2022-08-27T02:03:26Z</time>
      </trkpt>
      <trkpt lat="45.73575" lon="6.78407">
        <ele>2407</ele>
        <time>2022-08-27T02:03:28Z</time>
      </trkpt>
      <trkpt lat="45.73575" lon="6.7841">
        <ele>2407</ele>
        <time>2022-08-27T02:03:30Z</time>
      </trkpt>
      <trkpt lat="45.73576" lon="6.78414">
        <ele>2408</ele>
        <time>2022-08-27T02:03:33Z</time>
      </trkpt>
      <trkpt lat="45.73576" lon="6.78418">
        <ele>2408</ele>
        <time>2022-08-27T02:03:36Z</time>
      </trkpt>
      <trkpt lat="45.73577" lon="6.7842">
        <ele>2408</ele>
        <time>2022-08-27T02:03:38Z</time>
      </trkpt>
      <trkpt lat="45.73577" lon="6.78423">
        <ele>2409</ele>
        <time>2022-08-27T02:03:40Z</time>
      </trkpt>
      <trkpt lat="45.73579" lon="6.78425">
        <ele>2410</ele>
        <time>2022-08-27T02:03:42Z</time>
      </trkpt>
      <trkpt lat="45.7358" lon="6.78428">
        <ele>2410</ele>
        <time>2022-08-27T02:03:44Z</time>
      </trkpt>
      <trkpt lat="45.73582" lon="6.7843">
        <ele>2410</ele>
        <time>2022-08-27T02:03:47Z</time>
      </trkpt>
      <trkpt lat="45.73583" lon="6.78432">
        <ele>2412</ele>
        <time>2022-08-27T02:03:49Z</time>
      </trkpt>
      <trkpt lat="45.73585" lon="6.78434">
        <ele>2412</ele>
        <time>2022-08-27T02:03:51Z</time>
      </trkpt>
      <trkpt lat="45.73587" lon="6.78435">
        <ele>2412</ele>
        <time>2022-08-27T02:03:53Z</time>
      </trkpt>
      <trkpt lat="45.73589" lon="6.78437">
        <ele>2412</ele>
        <time>2022-08-27T02:03:55Z</time>
      </trkpt>
      <trkpt lat="45.7359" lon="6.78439">
        <ele>2412</ele>
        <time>2022-08-27T02:03:57Z</time>
      </trkpt>
      <trkpt lat="45.73592" lon="6.78441">
        <ele>2412</ele>
        <time>2022-08-27T02:03:59Z</time>
      </trkpt>
      <trkpt lat="45.73593" lon="6.78443">
        <ele>2412</ele>
        <time>2022-08-27T02:04:01Z</time>
      </trkpt>
      <trkpt lat="45.73595" lon="6.78445">
        <ele>2413</ele>
        <time>2022-08-27T02:04:03Z</time>
      </trkpt>
      <trkpt lat="45.73597" lon="6.78447">
        <ele>2414</ele>
        <time>2022-08-27T02:04:06Z</time>
      </trkpt>
      <trkpt lat="45.736" lon="6.78448">
        <ele>2414</ele>
        <time>2022-08-27T02:04:08Z</time>
      </trkpt>
      <trkpt lat="45.73602" lon="6.78448">
        <ele>2414</ele>
        <time>2022-08-27T02:04:10Z</time>
      </trkpt>
      <trkpt lat="45.73604" lon="6.78447">
        <ele>2414</ele>
        <time>2022-08-27T02:04:12Z</time>
      </trkpt>
      <trkpt lat="45.73606" lon="6.78445">
        <ele>2415</ele>
        <time>2022-08-27T02:04:14Z</time>
      </trkpt>
      <trkpt lat="45.73608" lon="6.78444">
        <ele>2415</ele>
        <time>2022-08-27T02:04:16Z</time>
      </trkpt>
      <trkpt lat="45.7361" lon="6.78443">
        <ele>2416</ele>
        <time>2022-08-27T02:04:18Z</time>
      </trkpt>
      <trkpt lat="45.73612" lon="6.78442">
        <ele>2416</ele>
        <time>2022-08-27T02:04:20Z</time>
      </trkpt>
      <trkpt lat="45.73614" lon="6.7844">
        <ele>2416</ele>
        <time>2022-08-27T02:04:22Z</time>
      </trkpt>
      <trkpt lat="45.73617" lon="6.78439">
        <ele>2418</ele>
        <time>2022-08-27T02:04:24Z</time>
      </trkpt>
      <trkpt lat="45.73619" lon="6.78439">
        <ele>2418</ele>
        <time>2022-08-27T02:04:26Z</time>
      </trkpt>
      <trkpt lat="45.73622" lon="6.78439">
        <ele>2418</ele>
        <time>2022-08-27T02:04:28Z</time>
      </trkpt>
      <trkpt lat="45.73624" lon="6.7844">
        <ele>2418</ele>
        <time>2022-08-27T02:04:30Z</time>
      </trkpt>
      <trkpt lat="45.73626" lon="6.78441">
        <ele>2418</ele>
        <time>2022-08-27T02:04:32Z</time>
      </trkpt>
      <trkpt lat="45.73627" lon="6.78444">
        <ele>2418</ele>
        <time>2022-08-27T02:04:34Z</time>
      </trkpt>
      <trkpt lat="45.73628" lon="6.78447">
        <ele>2419</ele>
        <time>2022-08-27T02:04:37Z</time>
      </trkpt>
      <trkpt lat="45.73628" lon="6.7845">
        <ele>2419</ele>
        <time>2022-08-27T02:04:39Z</time>
      </trkpt>
      <trkpt lat="45.7363" lon="6.78453">
        <ele>2421</ele>
        <time>2022-08-27T02:04:42Z</time>
      </trkpt>
      <trkpt lat="45.73631" lon="6.78455">
        <ele>2421</ele>
        <time>2022-08-27T02:04:44Z</time>
      </trkpt>
      <trkpt lat="45.73632" lon="6.78458">
        <ele>2421</ele>
        <time>2022-08-27T02:04:46Z</time>
      </trkpt>
      <trkpt lat="45.73633" lon="6.7846">
        <ele>2421</ele>
        <time>2022-08-27T02:04:48Z</time>
      </trkpt>
      <trkpt lat="45.73635" lon="6.78462">
        <ele>2423</ele>
        <time>2022-08-27T02:04:51Z</time>
      </trkpt>
      <trkpt lat="45.73637" lon="6.78464">
        <ele>2423</ele>
        <time>2022-08-27T02:04:53Z</time>
      </trkpt>
      <trkpt lat="45.7364" lon="6.78465">
        <ele>2423</ele>
        <time>2022-08-27T02:04:56Z</time>
      </trkpt>
      <trkpt lat="45.73641" lon="6.78466">
        <ele>2423</ele>
        <time>2022-08-27T02:04:58Z</time>
      </trkpt>
      <trkpt lat="45.73644" lon="6.78466">
        <ele>2423</ele>
        <time>2022-08-27T02:05:00Z</time>
      </trkpt>
      <trkpt lat="45.73646" lon="6.78467">
        <ele>2423</ele>
        <time>2022-08-27T02:05:02Z</time>
      </trkpt>
      <trkpt lat="45.73648" lon="6.78468">
        <ele>2423</ele>
        <time>2022-08-27T02:05:04Z</time>
      </trkpt>
      <trkpt lat="45.7365" lon="6.78469">
        <ele>2424</ele>
        <time>2022-08-27T02:05:06Z</time>
      </trkpt>
      <trkpt lat="45.73651" lon="6.78471">
        <ele>2424</ele>
        <time>2022-08-27T02:05:08Z</time>
      </trkpt>
      <trkpt lat="45.73653" lon="6.78472">
        <ele>2425</ele>
        <time>2022-08-27T02:05:10Z</time>
      </trkpt>
      <trkpt lat="45.73656" lon="6.78472">
        <ele>2425</ele>
        <time>2022-08-27T02:05:13Z</time>
      </trkpt>
      <trkpt lat="45.73658" lon="6.7847">
        <ele>2424</ele>
        <time>2022-08-27T02:05:16Z</time>
      </trkpt>
      <trkpt lat="45.7366" lon="6.78467">
        <ele>2424</ele>
        <time>2022-08-27T02:05:18Z</time>
      </trkpt>
      <trkpt lat="45.73662" lon="6.78466">
        <ele>2424</ele>
        <time>2022-08-27T02:05:20Z</time>
      </trkpt>
      <trkpt lat="45.73664" lon="6.78466">
        <ele>2424</ele>
        <time>2022-08-27T02:05:22Z</time>
      </trkpt>
      <trkpt lat="45.73666" lon="6.78466">
        <ele>2424</ele>
        <time>2022-08-27T02:05:24Z</time>
      </trkpt>
      <trkpt lat="45.73668" lon="6.78466">
        <ele>2425</ele>
        <time>2022-08-27T02:05:26Z</time>
      </trkpt>
      <trkpt lat="45.7367" lon="6.78468">
        <ele>2425</ele>
        <time>2022-08-27T02:05:28Z</time>
      </trkpt>
      <trkpt lat="45.73672" lon="6.78469">
        <ele>2425</ele>
        <time>2022-08-27T02:05:31Z</time>
      </trkpt>
      <trkpt lat="45.73674" lon="6.7847">
        <ele>2426</ele>
        <time>2022-08-27T02:05:33Z</time>
      </trkpt>
      <trkpt lat="45.73676" lon="6.78472">
        <ele>2426</ele>
        <time>2022-08-27T02:05:35Z</time>
      </trkpt>
      <trkpt lat="45.73678" lon="6.78473">
        <ele>2427</ele>
        <time>2022-08-27T02:05:37Z</time>
      </trkpt>
      <trkpt lat="45.73679" lon="6.78475">
        <ele>2427</ele>
        <time>2022-08-27T02:05:39Z</time>
      </trkpt>
      <trkpt lat="45.73681" lon="6.78477">
        <ele>2427</ele>
        <time>2022-08-27T02:05:41Z</time>
      </trkpt>
      <trkpt lat="45.73683" lon="6.78479">
        <ele>2428</ele>
        <time>2022-08-27T02:05:43Z</time>
      </trkpt>
      <trkpt lat="45.73684" lon="6.78482">
        <ele>2430</ele>
        <time>2022-08-27T02:05:46Z</time>
      </trkpt>
      <trkpt lat="45.73685" lon="6.78484">
        <ele>2430</ele>
        <time>2022-08-27T02:05:48Z</time>
      </trkpt>
      <trkpt lat="45.73686" lon="6.78486">
        <ele>2430</ele>
        <time>2022-08-27T02:05:50Z</time>
      </trkpt>
      <trkpt lat="45.73688" lon="6.78487">
        <ele>2430</ele>
        <time>2022-08-27T02:05:52Z</time>
      </trkpt>
      <trkpt lat="45.7369" lon="6.78489">
        <ele>2430</ele>
        <time>2022-08-27T02:05:54Z</time>
      </trkpt>
      <trkpt lat="45.73692" lon="6.7849">
        <ele>2431</ele>
        <time>2022-08-27T02:05:56Z</time>
      </trkpt>
      <trkpt lat="45.73694" lon="6.7849">
        <ele>2431</ele>
        <time>2022-08-27T02:05:58Z</time>
      </trkpt>
      <trkpt lat="45.73697" lon="6.7849">
        <ele>2432</ele>
        <time>2022-08-27T02:06:00Z</time>
      </trkpt>
      <trkpt lat="45.73699" lon="6.7849">
        <ele>2432</ele>
        <time>2022-08-27T02:06:02Z</time>
      </trkpt>
      <trkpt lat="45.73701" lon="6.78491">
        <ele>2432</ele>
        <time>2022-08-27T02:06:04Z</time>
      </trkpt>
      <trkpt lat="45.73703" lon="6.78492">
        <ele>2432</ele>
        <time>2022-08-27T02:06:06Z</time>
      </trkpt>
      <trkpt lat="45.73706" lon="6.78493">
        <ele>2433</ele>
        <time>2022-08-27T02:06:08Z</time>
      </trkpt>
      <trkpt lat="45.73708" lon="6.78494">
        <ele>2433</ele>
        <time>2022-08-27T02:06:10Z</time>
      </trkpt>
      <trkpt lat="45.7371" lon="6.78495">
        <ele>2433</ele>
        <time>2022-08-27T02:06:12Z</time>
      </trkpt>
      <trkpt lat="45.73712" lon="6.78496">
        <ele>2433</ele>
        <time>2022-08-27T02:06:14Z</time>
      </trkpt>
      <trkpt lat="45.73714" lon="6.78497">
        <ele>2434</ele>
        <time>2022-08-27T02:06:16Z</time>
      </trkpt>
      <trkpt lat="45.73716" lon="6.78498">
        <ele>2434</ele>
        <time>2022-08-27T02:06:18Z</time>
      </trkpt>
      <trkpt lat="45.73718" lon="6.785">
        <ele>2434</ele>
        <time>2022-08-27T02:06:20Z</time>
      </trkpt>
      <trkpt lat="45.7372" lon="6.78501">
        <ele>2435</ele>
        <time>2022-08-27T02:06:22Z</time>
      </trkpt>
      <trkpt lat="45.73722" lon="6.78502">
        <ele>2435</ele>
        <time>2022-08-27T02:06:24Z</time>
      </trkpt>
      <trkpt lat="45.73724" lon="6.78503">
        <ele>2435</ele>
        <time>2022-08-27T02:06:26Z</time>
      </trkpt>
      <trkpt lat="45.73726" lon="6.78504">
        <ele>2435</ele>
        <time>2022-08-27T02:06:28Z</time>
      </trkpt>
      <trkpt lat="45.73729" lon="6.78505">
        <ele>2436</ele>
        <time>2022-08-27T02:06:31Z</time>
      </trkpt>
      <trkpt lat="45.73731" lon="6.78506">
        <ele>2437</ele>
        <time>2022-08-27T02:06:33Z</time>
      </trkpt>
      <trkpt lat="45.73733" lon="6.78507">
        <ele>2437</ele>
        <time>2022-08-27T02:06:35Z</time>
      </trkpt>
      <trkpt lat="45.73735" lon="6.78509">
        <ele>2437</ele>
        <time>2022-08-27T02:06:38Z</time>
      </trkpt>
      <trkpt lat="45.73737" lon="6.78511">
        <ele>2438</ele>
        <time>2022-08-27T02:06:41Z</time>
      </trkpt>
      <trkpt lat="45.73739" lon="6.78513">
        <ele>2438</ele>
        <time>2022-08-27T02:06:43Z</time>
      </trkpt>
      <trkpt lat="45.73741" lon="6.78514">
        <ele>2439</ele>
        <time>2022-08-27T02:06:45Z</time>
      </trkpt>
      <trkpt lat="45.73743" lon="6.78515">
        <ele>2439</ele>
        <time>2022-08-27T02:06:47Z</time>
      </trkpt>
      <trkpt lat="45.73744" lon="6.78517">
        <ele>2439</ele>
        <time>2022-08-27T02:06:49Z</time>
      </trkpt>
      <trkpt lat="45.73745" lon="6.78518">
        <ele>2439</ele>
        <time>2022-08-27T02:06:51Z</time>
      </trkpt>
      <trkpt lat="45.73747" lon="6.7852">
        <ele>2441</ele>
        <time>2022-08-27T02:06:53Z</time>
      </trkpt>
      <trkpt lat="45.73748" lon="6.78523">
        <ele>2441</ele>
        <time>2022-08-27T02:06:56Z</time>
      </trkpt>
      <trkpt lat="45.7375" lon="6.78526">
        <ele>2441</ele>
        <time>2022-08-27T02:06:59Z</time>
      </trkpt>
      <trkpt lat="45.73752" lon="6.78528">
        <ele>2442</ele>
        <time>2022-08-27T02:07:02Z</time>
      </trkpt>
      <trkpt lat="45.73753" lon="6.78531">
        <ele>2442</ele>
        <time>2022-08-27T02:07:05Z</time>
      </trkpt>
      <trkpt lat="45.73754" lon="6.78534">
        <ele>2443</ele>
        <time>2022-08-27T02:07:08Z</time>
      </trkpt>
      <trkpt lat="45.73755" lon="6.78538">
        <ele>2443</ele>
        <time>2022-08-27T02:07:11Z</time>
      </trkpt>
      <trkpt lat="45.73755" lon="6.78541">
        <ele>2444</ele>
        <time>2022-08-27T02:07:14Z</time>
      </trkpt>
      <trkpt lat="45.73756" lon="6.78544">
        <ele>2445</ele>
        <time>2022-08-27T02:07:17Z</time>
      </trkpt>
      <trkpt lat="45.73757" lon="6.78546">
        <ele>2446</ele>
        <time>2022-08-27T02:07:20Z</time>
      </trkpt>
      <trkpt lat="45.7376" lon="6.78548">
        <ele>2446</ele>
        <time>2022-08-27T02:07:23Z</time>
      </trkpt>
      <trkpt lat="45.73762" lon="6.7855">
        <ele>2446</ele>
        <time>2022-08-27T02:07:26Z</time>
      </trkpt>
      <trkpt lat="45.73764" lon="6.78551">
        <ele>2447</ele>
        <time>2022-08-27T02:07:29Z</time>
      </trkpt>
      <trkpt lat="45.73767" lon="6.78552">
        <ele>2448</ele>
        <time>2022-08-27T02:07:32Z</time>
      </trkpt>
      <trkpt lat="45.73769" lon="6.78553">
        <ele>2449</ele>
        <time>2022-08-27T02:07:35Z</time>
      </trkpt>
      <trkpt lat="45.7377" lon="6.78556">
        <ele>2449</ele>
        <time>2022-08-27T02:07:38Z</time>
      </trkpt>
      <trkpt lat="45.73772" lon="6.78559">
        <ele>2449</ele>
        <time>2022-08-27T02:07:41Z</time>
      </trkpt>
      <trkpt lat="45.73773" lon="6.78562">
        <ele>2450</ele>
        <time>2022-08-27T02:07:44Z</time>
      </trkpt>
      <trkpt lat="45.73774" lon="6.78565">
        <ele>2451</ele>
        <time>2022-08-27T02:07:47Z</time>
      </trkpt>
      <trkpt lat="45.73776" lon="6.78566">
        <ele>2451</ele>
        <time>2022-08-27T02:07:50Z</time>
      </trkpt>
      <trkpt lat="45.73778" lon="6.78567">
        <ele>2452</ele>
        <time>2022-08-27T02:07:53Z</time>
      </trkpt>
      <trkpt lat="45.73781" lon="6.78568">
        <ele>2452</ele>
        <time>2022-08-27T02:07:56Z</time>
      </trkpt>
      <trkpt lat="45.73783" lon="6.7857">
        <ele>2452</ele>
        <time>2022-08-27T02:07:58Z</time>
      </trkpt>
      <trkpt lat="45.73785" lon="6.78571">
        <ele>2453</ele>
        <time>2022-08-27T02:08:00Z</time>
      </trkpt>
      <trkpt lat="45.73787" lon="6.78571">
        <ele>2454</ele>
        <time>2022-08-27T02:08:03Z</time>
      </trkpt>
      <trkpt lat="45.73789" lon="6.78572">
        <ele>2454</ele>
        <time>2022-08-27T02:08:06Z</time>
      </trkpt>
      <trkpt lat="45.73792" lon="6.78573">
        <ele>2456</ele>
        <time>2022-08-27T02:08:09Z</time>
      </trkpt>
      <trkpt lat="45.73794" lon="6.78574">
        <ele>2456</ele>
        <time>2022-08-27T02:08:12Z</time>
      </trkpt>
      <trkpt lat="45.73796" lon="6.78576">
        <ele>2457</ele>
        <time>2022-08-27T02:08:15Z</time>
      </trkpt>
      <trkpt lat="45.73798" lon="6.78578">
        <ele>2458</ele>
        <time>2022-08-27T02:08:17Z</time>
      </trkpt>
      <trkpt lat="45.73799" lon="6.78579">
        <ele>2458</ele>
        <time>2022-08-27T02:08:20Z</time>
      </trkpt>
      <trkpt lat="45.73801" lon="6.78581">
        <ele>2458</ele>
        <time>2022-08-27T02:08:23Z</time>
      </trkpt>
      <trkpt lat="45.73803" lon="6.78583">
        <ele>2459</ele>
        <time>2022-08-27T02:08:26Z</time>
      </trkpt>
      <trkpt lat="45.73805" lon="6.78585">
        <ele>2459</ele>
        <time>2022-08-27T02:08:29Z</time>
      </trkpt>
      <trkpt lat="45.73807" lon="6.78586">
        <ele>2460</ele>
        <time>2022-08-27T02:08:32Z</time>
      </trkpt>
      <trkpt lat="45.73809" lon="6.78588">
        <ele>2460</ele>
        <time>2022-08-27T02:08:35Z</time>
      </trkpt>
      <trkpt lat="45.73812" lon="6.78589">
        <ele>2461</ele>
        <time>2022-08-27T02:08:38Z</time>
      </trkpt>
      <trkpt lat="45.73814" lon="6.7859">
        <ele>2462</ele>
        <time>2022-08-27T02:08:41Z</time>
      </trkpt>
      <trkpt lat="45.73816" lon="6.78591">
        <ele>2462</ele>
        <time>2022-08-27T02:08:44Z</time>
      </trkpt>
      <trkpt lat="45.73819" lon="6.78592">
        <ele>2463</ele>
        <time>2022-08-27T02:08:47Z</time>
      </trkpt>
      <trkpt lat="45.73822" lon="6.78593">
        <ele>2463</ele>
        <time>2022-08-27T02:08:50Z</time>
      </trkpt>
      <trkpt lat="45.73823" lon="6.78593">
        <ele>2464</ele>
        <time>2022-08-27T02:08:52Z</time>
      </trkpt>
      <trkpt lat="45.73825" lon="6.78594">
        <ele>2464</ele>
        <time>2022-08-27T02:08:54Z</time>
      </trkpt>
      <trkpt lat="45.73828" lon="6.78595">
        <ele>2464</ele>
        <time>2022-08-27T02:08:57Z</time>
      </trkpt>
      <trkpt lat="45.7383" lon="6.78596">
        <ele>2464</ele>
        <time>2022-08-27T02:09:00Z</time>
      </trkpt>
      <trkpt lat="45.73833" lon="6.78596">
        <ele>2465</ele>
        <time>2022-08-27T02:09:03Z</time>
      </trkpt>
      <trkpt lat="45.73836" lon="6.78597">
        <ele>2466</ele>
        <time>2022-08-27T02:09:06Z</time>
      </trkpt>
      <trkpt lat="45.73838" lon="6.78598">
        <ele>2466</ele>
        <time>2022-08-27T02:09:09Z</time>
      </trkpt>
      <trkpt lat="45.73841" lon="6.786">
        <ele>2467</ele>
        <time>2022-08-27T02:09:12Z</time>
      </trkpt>
      <trkpt lat="45.73843" lon="6.78601">
        <ele>2468</ele>
        <time>2022-08-27T02:09:14Z</time>
      </trkpt>
      <trkpt lat="45.73844" lon="6.78602">
        <ele>2468</ele>
        <time>2022-08-27T02:09:16Z</time>
      </trkpt>
      <trkpt lat="45.73847" lon="6.78603">
        <ele>2468</ele>
        <time>2022-08-27T02:09:19Z</time>
      </trkpt>
      <trkpt lat="45.73849" lon="6.78605">
        <ele>2468</ele>
        <time>2022-08-27T02:09:22Z</time>
      </trkpt>
      <trkpt lat="45.73851" lon="6.78607">
        <ele>2468</ele>
        <time>2022-08-27T02:09:25Z</time>
      </trkpt>
      <trkpt lat="45.73853" lon="6.78609">
        <ele>2469</ele>
        <time>2022-08-27T02:09:28Z</time>
      </trkpt>
      <trkpt lat="45.73853" lon="6.78612">
        <ele>2469</ele>
        <time>2022-08-27T02:09:31Z</time>
      </trkpt>
      <trkpt lat="45.73852" lon="6.78615">
        <ele>2470</ele>
        <time>2022-08-27T02:09:34Z</time>
      </trkpt>
      <trkpt lat="45.73851" lon="6.78618">
        <ele>2470</ele>
        <time>2022-08-27T02:09:37Z</time>
      </trkpt>
      <trkpt lat="45.7385" lon="6.78621">
        <ele>2471</ele>
        <time>2022-08-27T02:09:40Z</time>
      </trkpt>
      <trkpt lat="45.73851" lon="6.78623">
        <ele>2472</ele>
        <time>2022-08-27T02:09:44Z</time>
      </trkpt>
      <trkpt lat="45.73853" lon="6.78624">
        <ele>2474</ele>
        <time>2022-08-27T02:09:47Z</time>
      </trkpt>
      <trkpt lat="45.73856" lon="6.78624">
        <ele>2474</ele>
        <time>2022-08-27T02:09:50Z</time>
      </trkpt>
      <trkpt lat="45.73858" lon="6.78625">
        <ele>2474</ele>
        <time>2022-08-27T02:09:53Z</time>
      </trkpt>
      <trkpt lat="45.7386" lon="6.78626">
        <ele>2475</ele>
        <time>2022-08-27T02:09:55Z</time>
      </trkpt>
      <trkpt lat="45.73862" lon="6.78628">
        <ele>2476</ele>
        <time>2022-08-27T02:09:58Z</time>
      </trkpt>
      <trkpt lat="45.73864" lon="6.78629">
        <ele>2476</ele>
        <time>2022-08-27T02:10:01Z</time>
      </trkpt>
      <trkpt lat="45.73865" lon="6.7863">
        <ele>2477</ele>
        <time>2022-08-27T02:10:04Z</time>
      </trkpt>
      <trkpt lat="45.73868" lon="6.78632">
        <ele>2477</ele>
        <time>2022-08-27T02:10:07Z</time>
      </trkpt>
      <trkpt lat="45.73869" lon="6.78634">
        <ele>2478</ele>
        <time>2022-08-27T02:10:10Z</time>
      </trkpt>
      <trkpt lat="45.73871" lon="6.78636">
        <ele>2479</ele>
        <time>2022-08-27T02:10:13Z</time>
      </trkpt>
      <trkpt lat="45.73872" lon="6.78638">
        <ele>2479</ele>
        <time>2022-08-27T02:10:15Z</time>
      </trkpt>
      <trkpt lat="45.73874" lon="6.7864">
        <ele>2479</ele>
        <time>2022-08-27T02:10:18Z</time>
      </trkpt>
      <trkpt lat="45.73875" lon="6.78642">
        <ele>2480</ele>
        <time>2022-08-27T02:10:21Z</time>
      </trkpt>
      <trkpt lat="45.73876" lon="6.78645">
        <ele>2481</ele>
        <time>2022-08-27T02:10:24Z</time>
      </trkpt>
      <trkpt lat="45.73877" lon="6.78648">
        <ele>2481</ele>
        <time>2022-08-27T02:10:26Z</time>
      </trkpt>
      <trkpt lat="45.73878" lon="6.78651">
        <ele>2482</ele>
        <time>2022-08-27T02:10:29Z</time>
      </trkpt>
      <trkpt lat="45.73879" lon="6.78653">
        <ele>2482</ele>
        <time>2022-08-27T02:10:32Z</time>
      </trkpt>
      <trkpt lat="45.73881" lon="6.78655">
        <ele>2482</ele>
        <time>2022-08-27T02:10:35Z</time>
      </trkpt>
      <trkpt lat="45.73883" lon="6.78657">
        <ele>2483</ele>
        <time>2022-08-27T02:10:37Z</time>
      </trkpt>
      <trkpt lat="45.73884" lon="6.78658">
        <ele>2483</ele>
        <time>2022-08-27T02:10:39Z</time>
      </trkpt>
      <trkpt lat="45.73886" lon="6.78659">
        <ele>2483</ele>
        <time>2022-08-27T02:10:41Z</time>
      </trkpt>
      <trkpt lat="45.73888" lon="6.78661">
        <ele>2486</ele>
        <time>2022-08-27T02:10:43Z</time>
      </trkpt>
      <trkpt lat="45.7389" lon="6.78662">
        <ele>2486</ele>
        <time>2022-08-27T02:10:46Z</time>
      </trkpt>
      <trkpt lat="45.73892" lon="6.78664">
        <ele>2486</ele>
        <time>2022-08-27T02:10:49Z</time>
      </trkpt>
      <trkpt lat="45.73894" lon="6.78665">
        <ele>2486</ele>
        <time>2022-08-27T02:10:51Z</time>
      </trkpt>
      <trkpt lat="45.73896" lon="6.78667">
        <ele>2487</ele>
        <time>2022-08-27T02:10:53Z</time>
      </trkpt>
      <trkpt lat="45.73897" lon="6.78669">
        <ele>2487</ele>
        <time>2022-08-27T02:10:55Z</time>
      </trkpt>
      <trkpt lat="45.73899" lon="6.78671">
        <ele>2487</ele>
        <time>2022-08-27T02:10:57Z</time>
      </trkpt>
      <trkpt lat="45.739" lon="6.78673">
        <ele>2487</ele>
        <time>2022-08-27T02:10:59Z</time>
      </trkpt>
      <trkpt lat="45.73901" lon="6.78675">
        <ele>2488</ele>
        <time>2022-08-27T02:11:01Z</time>
      </trkpt>
      <trkpt lat="45.73902" lon="6.78677">
        <ele>2488</ele>
        <time>2022-08-27T02:11:03Z</time>
      </trkpt>
      <trkpt lat="45.73903" lon="6.78681">
        <ele>2488</ele>
        <time>2022-08-27T02:11:06Z</time>
      </trkpt>
      <trkpt lat="45.73904" lon="6.78684">
        <ele>2489</ele>
        <time>2022-08-27T02:11:09Z</time>
      </trkpt>
      <trkpt lat="45.73904" lon="6.78688">
        <ele>2490</ele>
        <time>2022-08-27T02:11:12Z</time>
      </trkpt>
      <trkpt lat="45.73904" lon="6.7869">
        <ele>2490</ele>
        <time>2022-08-27T02:11:14Z</time>
      </trkpt>
      <trkpt lat="45.73904" lon="6.78693">
        <ele>2490</ele>
        <time>2022-08-27T02:11:16Z</time>
      </trkpt>
      <trkpt lat="45.73904" lon="6.78697">
        <ele>2491</ele>
        <time>2022-08-27T02:11:19Z</time>
      </trkpt>
      <trkpt lat="45.73904" lon="6.787">
        <ele>2491</ele>
        <time>2022-08-27T02:11:22Z</time>
      </trkpt>
      <trkpt lat="45.73904" lon="6.78704">
        <ele>2492</ele>
        <time>2022-08-27T02:11:25Z</time>
      </trkpt>
      <trkpt lat="45.73904" lon="6.78708">
        <ele>2493</ele>
        <time>2022-08-27T02:11:28Z</time>
      </trkpt>
      <trkpt lat="45.73904" lon="6.78711">
        <ele>2494</ele>
        <time>2022-08-27T02:11:31Z</time>
      </trkpt>
      <trkpt lat="45.73904" lon="6.78715">
        <ele>2494</ele>
        <time>2022-08-27T02:11:34Z</time>
      </trkpt>
      <trkpt lat="45.73904" lon="6.78718">
        <ele>2494</ele>
        <time>2022-08-27T02:11:36Z</time>
      </trkpt>
      <trkpt lat="45.73904" lon="6.78721">
        <ele>2494</ele>
        <time>2022-08-27T02:11:38Z</time>
      </trkpt>
      <trkpt lat="45.73904" lon="6.78724">
        <ele>2495</ele>
        <time>2022-08-27T02:11:40Z</time>
      </trkpt>
      <trkpt lat="45.73904" lon="6.78728">
        <ele>2495</ele>
        <time>2022-08-27T02:11:42Z</time>
      </trkpt>
      <trkpt lat="45.73904" lon="6.78731">
        <ele>2495</ele>
        <time>2022-08-27T02:11:44Z</time>
      </trkpt>
      <trkpt lat="45.73905" lon="6.78734">
        <ele>2496</ele>
        <time>2022-08-27T02:11:46Z</time>
      </trkpt>
      <trkpt lat="45.73906" lon="6.78737">
        <ele>2495</ele>
        <time>2022-08-27T02:11:48Z</time>
      </trkpt>
      <trkpt lat="45.73907" lon="6.78741">
        <ele>2496</ele>
        <time>2022-08-27T02:11:50Z</time>
      </trkpt>
      <trkpt lat="45.73909" lon="6.78743">
        <ele>2496</ele>
        <time>2022-08-27T02:11:52Z</time>
      </trkpt>
      <trkpt lat="45.73911" lon="6.78746">
        <ele>2496</ele>
        <time>2022-08-27T02:11:54Z</time>
      </trkpt>
      <trkpt lat="45.73913" lon="6.78748">
        <ele>2496</ele>
        <time>2022-08-27T02:11:56Z</time>
      </trkpt>
      <trkpt lat="45.73914" lon="6.7875">
        <ele>2496</ele>
        <time>2022-08-27T02:11:58Z</time>
      </trkpt>
      <trkpt lat="45.73915" lon="6.78753">
        <ele>2496</ele>
        <time>2022-08-27T02:12:01Z</time>
      </trkpt>
      <trkpt lat="45.73916" lon="6.78755">
        <ele>2496</ele>
        <time>2022-08-27T02:12:03Z</time>
      </trkpt>
      <trkpt lat="45.73917" lon="6.78757">
        <ele>2498</ele>
        <time>2022-08-27T02:12:05Z</time>
      </trkpt>
      <trkpt lat="45.73918" lon="6.7876">
        <ele>2498</ele>
        <time>2022-08-27T02:12:07Z</time>
      </trkpt>
      <trkpt lat="45.73919" lon="6.78762">
        <ele>2498</ele>
        <time>2022-08-27T02:12:09Z</time>
      </trkpt>
      <trkpt lat="45.7392" lon="6.78764">
        <ele>2499</ele>
        <time>2022-08-27T02:12:11Z</time>
      </trkpt>
      <trkpt lat="45.7392" lon="6.78767">
        <ele>2499</ele>
        <time>2022-08-27T02:12:13Z</time>
      </trkpt>
      <trkpt lat="45.73921" lon="6.78769">
        <ele>2499</ele>
        <time>2022-08-27T02:12:15Z</time>
      </trkpt>
      <trkpt lat="45.73923" lon="6.78772">
        <ele>2500</ele>
        <time>2022-08-27T02:12:17Z</time>
      </trkpt>
      <trkpt lat="45.73925" lon="6.78774">
        <ele>2500</ele>
        <time>2022-08-27T02:12:19Z</time>
      </trkpt>
      <trkpt lat="45.73926" lon="6.78777">
        <ele>2500</ele>
        <time>2022-08-27T02:12:21Z</time>
      </trkpt>
      <trkpt lat="45.73928" lon="6.78779">
        <ele>2500</ele>
        <time>2022-08-27T02:12:23Z</time>
      </trkpt>
      <trkpt lat="45.73929" lon="6.78782">
        <ele>2500</ele>
        <time>2022-08-27T02:12:25Z</time>
      </trkpt>
      <trkpt lat="45.7393" lon="6.78785">
        <ele>2500</ele>
        <time>2022-08-27T02:12:27Z</time>
      </trkpt>
      <trkpt lat="45.73931" lon="6.7879">
        <ele>2500</ele>
        <time>2022-08-27T02:12:29Z</time>
      </trkpt>
      <trkpt lat="45.73933" lon="6.78794">
        <ele>2500</ele>
        <time>2022-08-27T02:12:31Z</time>
      </trkpt>
      <trkpt lat="45.73935" lon="6.78798">
        <ele>2500</ele>
        <time>2022-08-27T02:12:33Z</time>
      </trkpt>
      <trkpt lat="45.73935" lon="6.78801">
        <ele>2500</ele>
        <time>2022-08-27T02:12:34Z</time>
      </trkpt>
      <trkpt lat="45.73936" lon="6.78803">
        <ele>2499</ele>
        <time>2022-08-27T02:12:35Z</time>
      </trkpt>
      <trkpt lat="45.73937" lon="6.78806">
        <ele>2498</ele>
        <time>2022-08-27T02:12:36Z</time>
      </trkpt>
      <trkpt lat="45.73938" lon="6.78808">
        <ele>2498</ele>
        <time>2022-08-27T02:12:37Z</time>
      </trkpt>
      <trkpt lat="45.73939" lon="6.7881">
        <ele>2498</ele>
        <time>2022-08-27T02:12:38Z</time>
      </trkpt>
      <trkpt lat="45.7394" lon="6.78813">
        <ele>2498</ele>
        <time>2022-08-27T02:12:39Z</time>
      </trkpt>
      <trkpt lat="45.73941" lon="6.78817">
        <ele>2498</ele>
        <time>2022-08-27T02:12:40Z</time>
      </trkpt>
      <trkpt lat="45.73941" lon="6.78818">
        <ele>2498</ele>
        <time>2022-08-27T02:12:41Z</time>
      </trkpt>
      <trkpt lat="45.73941" lon="6.78821">
        <ele>2498</ele>
        <time>2022-08-27T02:12:42Z</time>
      </trkpt>
      <trkpt lat="45.73941" lon="6.78824">
        <ele>2498</ele>
        <time>2022-08-27T02:12:43Z</time>
      </trkpt>
      <trkpt lat="45.7394" lon="6.78826">
        <ele>2496</ele>
        <time>2022-08-27T02:12:44Z</time>
      </trkpt>
      <trkpt lat="45.7394" lon="6.78829">
        <ele>2496</ele>
        <time>2022-08-27T02:12:45Z</time>
      </trkpt>
      <trkpt lat="45.7394" lon="6.78832">
        <ele>2496</ele>
        <time>2022-08-27T02:12:46Z</time>
      </trkpt>
      <trkpt lat="45.73939" lon="6.78836">
        <ele>2496</ele>
        <time>2022-08-27T02:12:47Z</time>
      </trkpt>
      <trkpt lat="45.73939" lon="6.78837">
        <ele>2496</ele>
        <time>2022-08-27T02:12:48Z</time>
      </trkpt>
      <trkpt lat="45.73939" lon="6.78842">
        <ele>2496</ele>
        <time>2022-08-27T02:12:50Z</time>
      </trkpt>
      <trkpt lat="45.73941" lon="6.78847">
        <ele>2496</ele>
        <time>2022-08-27T02:12:52Z</time>
      </trkpt>
      <trkpt lat="45.73943" lon="6.7885">
        <ele>2495</ele>
        <time>2022-08-27T02:12:54Z</time>
      </trkpt>
      <trkpt lat="45.73944" lon="6.78851">
        <ele>2496</ele>
        <time>2022-08-27T02:12:56Z</time>
      </trkpt>
      <trkpt lat="45.73946" lon="6.78853">
        <ele>2496</ele>
        <time>2022-08-27T02:12:58Z</time>
      </trkpt>
      <trkpt lat="45.73947" lon="6.78856">
        <ele>2496</ele>
        <time>2022-08-27T02:13:00Z</time>
      </trkpt>
      <trkpt lat="45.73948" lon="6.7886">
        <ele>2496</ele>
        <time>2022-08-27T02:13:02Z</time>
      </trkpt>
      <trkpt lat="45.73949" lon="6.78863">
        <ele>2496</ele>
        <time>2022-08-27T02:13:04Z</time>
      </trkpt>
      <trkpt lat="45.73951" lon="6.78866">
        <ele>2496</ele>
        <time>2022-08-27T02:13:06Z</time>
      </trkpt>
      <trkpt lat="45.73952" lon="6.78869">
        <ele>2496</ele>
        <time>2022-08-27T02:13:08Z</time>
      </trkpt>
      <trkpt lat="45.73953" lon="6.78873">
        <ele>2496</ele>
        <time>2022-08-27T02:13:10Z</time>
      </trkpt>
      <trkpt lat="45.73955" lon="6.78879">
        <ele>2498</ele>
        <time>2022-08-27T02:13:12Z</time>
      </trkpt>
      <trkpt lat="45.73955" lon="6.7888">
        <ele>2496</ele>
        <time>2022-08-27T02:13:13Z</time>
      </trkpt>
      <trkpt lat="45.73956" lon="6.78883">
        <ele>2496</ele>
        <time>2022-08-27T02:13:14Z</time>
      </trkpt>
      <trkpt lat="45.73957" lon="6.78885">
        <ele>2496</ele>
        <time>2022-08-27T02:13:15Z</time>
      </trkpt>
      <trkpt lat="45.73958" lon="6.78888">
        <ele>2496</ele>
        <time>2022-08-27T02:13:16Z</time>
      </trkpt>
      <trkpt lat="45.7396" lon="6.78891">
        <ele>2496</ele>
        <time>2022-08-27T02:13:17Z</time>
      </trkpt>
      <trkpt lat="45.73962" lon="6.78893">
        <ele>2495</ele>
        <time>2022-08-27T02:13:18Z</time>
      </trkpt>
      <trkpt lat="45.73962" lon="6.78896">
        <ele>2495</ele>
        <time>2022-08-27T02:13:19Z</time>
      </trkpt>
      <trkpt lat="45.73963" lon="6.789">
        <ele>2495</ele>
        <time>2022-08-27T02:13:21Z</time>
      </trkpt>
      <trkpt lat="45.73964" lon="6.78903">
        <ele>2495</ele>
        <time>2022-08-27T02:13:22Z</time>
      </trkpt>
      <trkpt lat="45.73964" lon="6.78906">
        <ele>2495</ele>
        <time>2022-08-27T02:13:23Z</time>
      </trkpt>
      <trkpt lat="45.73964" lon="6.78911">
        <ele>2495</ele>
        <time>2022-08-27T02:13:25Z</time>
      </trkpt>
      <trkpt lat="45.73964" lon="6.78914">
        <ele>2495</ele>
        <time>2022-08-27T02:13:26Z</time>
      </trkpt>
      <trkpt lat="45.73965" lon="6.78917">
        <ele>2495</ele>
        <time>2022-08-27T02:13:27Z</time>
      </trkpt>
      <trkpt lat="45.73965" lon="6.78919">
        <ele>2495</ele>
        <time>2022-08-27T02:13:28Z</time>
      </trkpt>
      <trkpt lat="45.73967" lon="6.78924">
        <ele>2495</ele>
        <time>2022-08-27T02:13:30Z</time>
      </trkpt>
      <trkpt lat="45.73967" lon="6.78927">
        <ele>2493</ele>
        <time>2022-08-27T02:13:32Z</time>
      </trkpt>
      <trkpt lat="45.73968" lon="6.7893">
        <ele>2493</ele>
        <time>2022-08-27T02:13:34Z</time>
      </trkpt>
      <trkpt lat="45.7397" lon="6.78934">
        <ele>2493</ele>
        <time>2022-08-27T02:13:36Z</time>
      </trkpt>
      <trkpt lat="45.73971" lon="6.78936">
        <ele>2493</ele>
        <time>2022-08-27T02:13:38Z</time>
      </trkpt>
      <trkpt lat="45.73972" lon="6.78939">
        <ele>2493</ele>
        <time>2022-08-27T02:13:40Z</time>
      </trkpt>
      <trkpt lat="45.73973" lon="6.78944">
        <ele>2494</ele>
        <time>2022-08-27T02:13:43Z</time>
      </trkpt>
      <trkpt lat="45.73974" lon="6.78946">
        <ele>2494</ele>
        <time>2022-08-27T02:13:45Z</time>
      </trkpt>
      <trkpt lat="45.73976" lon="6.78947">
        <ele>2494</ele>
        <time>2022-08-27T02:13:47Z</time>
      </trkpt>
      <trkpt lat="45.73978" lon="6.78947">
        <ele>2494</ele>
        <time>2022-08-27T02:13:50Z</time>
      </trkpt>
      <trkpt lat="45.7398" lon="6.78944">
        <ele>2494</ele>
        <time>2022-08-27T02:13:54Z</time>
      </trkpt>
      <trkpt lat="45.73982" lon="6.78941">
        <ele>2494</ele>
        <time>2022-08-27T02:13:56Z</time>
      </trkpt>
      <trkpt lat="45.73982" lon="6.78938">
        <ele>2493</ele>
        <time>2022-08-27T02:13:58Z</time>
      </trkpt>
      <trkpt lat="45.73984" lon="6.78935">
        <ele>2493</ele>
        <time>2022-08-27T02:14:00Z</time>
      </trkpt>
      <trkpt lat="45.73986" lon="6.78933">
        <ele>2494</ele>
        <time>2022-08-27T02:14:02Z</time>
      </trkpt>
      <trkpt lat="45.73988" lon="6.78932">
        <ele>2495</ele>
        <time>2022-08-27T02:14:04Z</time>
      </trkpt>
      <trkpt lat="45.7399" lon="6.7893">
        <ele>2495</ele>
        <time>2022-08-27T02:14:06Z</time>
      </trkpt>
      <trkpt lat="45.73992" lon="6.78929">
        <ele>2495</ele>
        <time>2022-08-27T02:14:08Z</time>
      </trkpt>
      <trkpt lat="45.73993" lon="6.78927">
        <ele>2496</ele>
        <time>2022-08-27T02:14:10Z</time>
      </trkpt>
      <trkpt lat="45.73995" lon="6.78925">
        <ele>2496</ele>
        <time>2022-08-27T02:14:12Z</time>
      </trkpt>
      <trkpt lat="45.73996" lon="6.78923">
        <ele>2496</ele>
        <time>2022-08-27T02:14:14Z</time>
      </trkpt>
      <trkpt lat="45.73998" lon="6.78922">
        <ele>2496</ele>
        <time>2022-08-27T02:14:16Z</time>
      </trkpt>
      <trkpt lat="45.74" lon="6.78921">
        <ele>2498</ele>
        <time>2022-08-27T02:14:18Z</time>
      </trkpt>
      <trkpt lat="45.74002" lon="6.78919">
        <ele>2498</ele>
        <time>2022-08-27T02:14:20Z</time>
      </trkpt>
      <trkpt lat="45.74004" lon="6.78918">
        <ele>2498</ele>
        <time>2022-08-27T02:14:22Z</time>
      </trkpt>
      <trkpt lat="45.74006" lon="6.78917">
        <ele>2499</ele>
        <time>2022-08-27T02:14:24Z</time>
      </trkpt>
      <trkpt lat="45.74008" lon="6.78916">
        <ele>2499</ele>
        <time>2022-08-27T02:14:26Z</time>
      </trkpt>
      <trkpt lat="45.74011" lon="6.78915">
        <ele>2499</ele>
        <time>2022-08-27T02:14:28Z</time>
      </trkpt>
      <trkpt lat="45.74013" lon="6.78916">
        <ele>2499</ele>
        <time>2022-08-27T02:14:30Z</time>
      </trkpt>
      <trkpt lat="45.74015" lon="6.78917">
        <ele>2500</ele>
        <time>2022-08-27T02:14:32Z</time>
      </trkpt>
      <trkpt lat="45.74017" lon="6.78918">
        <ele>2500</ele>
        <time>2022-08-27T02:14:34Z</time>
      </trkpt>
      <trkpt lat="45.74019" lon="6.78919">
        <ele>2500</ele>
        <time>2022-08-27T02:14:36Z</time>
      </trkpt>
      <trkpt lat="45.74021" lon="6.7892">
        <ele>2501</ele>
        <time>2022-08-27T02:14:38Z</time>
      </trkpt>
      <trkpt lat="45.74022" lon="6.78921">
        <ele>2501</ele>
        <time>2022-08-27T02:14:40Z</time>
      </trkpt>
      <trkpt lat="45.74025" lon="6.78921">
        <ele>2502</ele>
        <time>2022-08-27T02:14:43Z</time>
      </trkpt>
      <trkpt lat="45.74027" lon="6.78919">
        <ele>2502</ele>
        <time>2022-08-27T02:14:46Z</time>
      </trkpt>
      <trkpt lat="45.74029" lon="6.78918">
        <ele>2503</ele>
        <time>2022-08-27T02:14:49Z</time>
      </trkpt>
      <trkpt lat="45.74032" lon="6.78916">
        <ele>2503</ele>
        <time>2022-08-27T02:14:52Z</time>
      </trkpt>
      <trkpt lat="45.74034" lon="6.78915">
        <ele>2504</ele>
        <time>2022-08-27T02:14:55Z</time>
      </trkpt>
      <trkpt lat="45.74036" lon="6.78914">
        <ele>2505</ele>
        <time>2022-08-27T02:14:58Z</time>
      </trkpt>
      <trkpt lat="45.74038" lon="6.78914">
        <ele>2505</ele>
        <time>2022-08-27T02:15:00Z</time>
      </trkpt>
      <trkpt lat="45.7404" lon="6.78914">
        <ele>2506</ele>
        <time>2022-08-27T02:15:03Z</time>
      </trkpt>
      <trkpt lat="45.74043" lon="6.78916">
        <ele>2507</ele>
        <time>2022-08-27T02:15:06Z</time>
      </trkpt>
      <trkpt lat="45.74044" lon="6.78917">
        <ele>2507</ele>
        <time>2022-08-27T02:15:09Z</time>
      </trkpt>
      <trkpt lat="45.74046" lon="6.78919">
        <ele>2508</ele>
        <time>2022-08-27T02:15:12Z</time>
      </trkpt>
      <trkpt lat="45.74049" lon="6.78919">
        <ele>2508</ele>
        <time>2022-08-27T02:15:15Z</time>
      </trkpt>
      <trkpt lat="45.74051" lon="6.78919">
        <ele>2510</ele>
        <time>2022-08-27T02:15:18Z</time>
      </trkpt>
      <trkpt lat="45.74053" lon="6.78916">
        <ele>2510</ele>
        <time>2022-08-27T02:15:21Z</time>
      </trkpt>
      <trkpt lat="45.74054" lon="6.78914">
        <ele>2511</ele>
        <time>2022-08-27T02:15:23Z</time>
      </trkpt>
      <trkpt lat="45.74055" lon="6.78911">
        <ele>2512</ele>
        <time>2022-08-27T02:15:26Z</time>
      </trkpt>
      <trkpt lat="45.74056" lon="6.78909">
        <ele>2512</ele>
        <time>2022-08-27T02:15:29Z</time>
      </trkpt>
      <trkpt lat="45.74059" lon="6.78907">
        <ele>2513</ele>
        <time>2022-08-27T02:15:32Z</time>
      </trkpt>
      <trkpt lat="45.74061" lon="6.78906">
        <ele>2513</ele>
        <time>2022-08-27T02:15:34Z</time>
      </trkpt>
      <trkpt lat="45.74063" lon="6.78906">
        <ele>2513</ele>
        <time>2022-08-27T02:15:37Z</time>
      </trkpt>
      <trkpt lat="45.74066" lon="6.78907">
        <ele>2514</ele>
        <time>2022-08-27T02:15:40Z</time>
      </trkpt>
      <trkpt lat="45.74068" lon="6.7891">
        <ele>2515</ele>
        <time>2022-08-27T02:15:43Z</time>
      </trkpt>
      <trkpt lat="45.74069" lon="6.78912">
        <ele>2515</ele>
        <time>2022-08-27T02:15:45Z</time>
      </trkpt>
      <trkpt lat="45.74071" lon="6.78916">
        <ele>2515</ele>
        <time>2022-08-27T02:15:47Z</time>
      </trkpt>
      <trkpt lat="45.74073" lon="6.78918">
        <ele>2514</ele>
        <time>2022-08-27T02:15:49Z</time>
      </trkpt>
      <trkpt lat="45.74075" lon="6.7892">
        <ele>2514</ele>
        <time>2022-08-27T02:15:51Z</time>
      </trkpt>
      <trkpt lat="45.74077" lon="6.78923">
        <ele>2514</ele>
        <time>2022-08-27T02:15:53Z</time>
      </trkpt>
      <trkpt lat="45.7408" lon="6.78924">
        <ele>2514</ele>
        <time>2022-08-27T02:15:55Z</time>
      </trkpt>
      <trkpt lat="45.74082" lon="6.78925">
        <ele>2515</ele>
        <time>2022-08-27T02:15:57Z</time>
      </trkpt>
      <trkpt lat="45.74085" lon="6.78925">
        <ele>2515</ele>
        <time>2022-08-27T02:15:59Z</time>
      </trkpt>
      <trkpt lat="45.74087" lon="6.78926">
        <ele>2515</ele>
        <time>2022-08-27T02:16:01Z</time>
      </trkpt>
      <trkpt lat="45.7409" lon="6.78926">
        <ele>2515</ele>
        <time>2022-08-27T02:16:03Z</time>
      </trkpt>
      <trkpt lat="45.74092" lon="6.78927">
        <ele>2516</ele>
        <time>2022-08-27T02:16:05Z</time>
      </trkpt>
      <trkpt lat="45.74095" lon="6.78927">
        <ele>2516</ele>
        <time>2022-08-27T02:16:07Z</time>
      </trkpt>
      <trkpt lat="45.74097" lon="6.78927">
        <ele>2516</ele>
        <time>2022-08-27T02:16:09Z</time>
      </trkpt>
      <trkpt lat="45.74099" lon="6.78928">
        <ele>2516</ele>
        <time>2022-08-27T02:16:11Z</time>
      </trkpt>
      <trkpt lat="45.74101" lon="6.78929">
        <ele>2517</ele>
        <time>2022-08-27T02:16:13Z</time>
      </trkpt>
      <trkpt lat="45.74104" lon="6.7893">
        <ele>2517</ele>
        <time>2022-08-27T02:16:15Z</time>
      </trkpt>
      <trkpt lat="45.74105" lon="6.78931">
        <ele>2517</ele>
        <time>2022-08-27T02:16:17Z</time>
      </trkpt>
      <trkpt lat="45.74108" lon="6.78933">
        <ele>2517</ele>
        <time>2022-08-27T02:16:19Z</time>
      </trkpt>
      <trkpt lat="45.7411" lon="6.78935">
        <ele>2518</ele>
        <time>2022-08-27T02:16:22Z</time>
      </trkpt>
      <trkpt lat="45.74112" lon="6.78936">
        <ele>2518</ele>
        <time>2022-08-27T02:16:23Z</time>
      </trkpt>
      <trkpt lat="45.74113" lon="6.78938">
        <ele>2518</ele>
        <time>2022-08-27T02:16:25Z</time>
      </trkpt>
      <trkpt lat="45.74115" lon="6.78941">
        <ele>2518</ele>
        <time>2022-08-27T02:16:27Z</time>
      </trkpt>
      <trkpt lat="45.74116" lon="6.78943">
        <ele>2518</ele>
        <time>2022-08-27T02:16:29Z</time>
      </trkpt>
      <trkpt lat="45.74117" lon="6.78946">
        <ele>2518</ele>
        <time>2022-08-27T02:16:31Z</time>
      </trkpt>
      <trkpt lat="45.74118" lon="6.78949">
        <ele>2518</ele>
        <time>2022-08-27T02:16:33Z</time>
      </trkpt>
      <trkpt lat="45.74119" lon="6.78951">
        <ele>2519</ele>
        <time>2022-08-27T02:16:35Z</time>
      </trkpt>
      <trkpt lat="45.74121" lon="6.78952">
        <ele>2519</ele>
        <time>2022-08-27T02:16:37Z</time>
      </trkpt>
      <trkpt lat="45.74123" lon="6.78955">
        <ele>2519</ele>
        <time>2022-08-27T02:16:39Z</time>
      </trkpt>
      <trkpt lat="45.74124" lon="6.78957">
        <ele>2519</ele>
        <time>2022-08-27T02:16:41Z</time>
      </trkpt>
      <trkpt lat="45.74126" lon="6.7896">
        <ele>2519</ele>
        <time>2022-08-27T02:16:43Z</time>
      </trkpt>
      <trkpt lat="45.74127" lon="6.78962">
        <ele>2520</ele>
        <time>2022-08-27T02:16:45Z</time>
      </trkpt>
      <trkpt lat="45.74128" lon="6.78964">
        <ele>2520</ele>
        <time>2022-08-27T02:16:47Z</time>
      </trkpt>
      <trkpt lat="45.74129" lon="6.78967">
        <ele>2522</ele>
        <time>2022-08-27T02:16:50Z</time>
      </trkpt>
      <trkpt lat="45.74131" lon="6.7897">
        <ele>2523</ele>
        <time>2022-08-27T02:16:52Z</time>
      </trkpt>
      <trkpt lat="45.74132" lon="6.78972">
        <ele>2523</ele>
        <time>2022-08-27T02:16:54Z</time>
      </trkpt>
      <trkpt lat="45.74134" lon="6.78974">
        <ele>2523</ele>
        <time>2022-08-27T02:16:56Z</time>
      </trkpt>
      <trkpt lat="45.74136" lon="6.78976">
        <ele>2523</ele>
        <time>2022-08-27T02:16:58Z</time>
      </trkpt>
      <trkpt lat="45.74137" lon="6.78978">
        <ele>2523</ele>
        <time>2022-08-27T02:17:00Z</time>
      </trkpt>
      <trkpt lat="45.74138" lon="6.7898">
        <ele>2523</ele>
        <time>2022-08-27T02:17:02Z</time>
      </trkpt>
      <trkpt lat="45.74139" lon="6.78983">
        <ele>2524</ele>
        <time>2022-08-27T02:17:04Z</time>
      </trkpt>
      <trkpt lat="45.7414" lon="6.78985">
        <ele>2525</ele>
        <time>2022-08-27T02:17:06Z</time>
      </trkpt>
      <trkpt lat="45.74142" lon="6.78988">
        <ele>2526</ele>
        <time>2022-08-27T02:17:09Z</time>
      </trkpt>
      <trkpt lat="45.74143" lon="6.7899">
        <ele>2526</ele>
        <time>2022-08-27T02:17:11Z</time>
      </trkpt>
      <trkpt lat="45.74144" lon="6.78992">
        <ele>2526</ele>
        <time>2022-08-27T02:17:13Z</time>
      </trkpt>
      <trkpt lat="45.74146" lon="6.78995">
        <ele>2526</ele>
        <time>2022-08-27T02:17:15Z</time>
      </trkpt>
      <trkpt lat="45.74147" lon="6.78997">
        <ele>2526</ele>
        <time>2022-08-27T02:17:17Z</time>
      </trkpt>
      <trkpt lat="45.74147" lon="6.79">
        <ele>2527</ele>
        <time>2022-08-27T02:17:19Z</time>
      </trkpt>
      <trkpt lat="45.74147" lon="6.79002">
        <ele>2527</ele>
        <time>2022-08-27T02:17:21Z</time>
      </trkpt>
      <trkpt lat="45.74148" lon="6.79005">
        <ele>2527</ele>
        <time>2022-08-27T02:17:23Z</time>
      </trkpt>
      <trkpt lat="45.74148" lon="6.79008">
        <ele>2527</ele>
        <time>2022-08-27T02:17:25Z</time>
      </trkpt>
      <trkpt lat="45.74147" lon="6.79011">
        <ele>2528</ele>
        <time>2022-08-27T02:17:27Z</time>
      </trkpt>
      <trkpt lat="45.74147" lon="6.79014">
        <ele>2528</ele>
        <time>2022-08-27T02:17:29Z</time>
      </trkpt>
      <trkpt lat="45.74147" lon="6.79016">
        <ele>2528</ele>
        <time>2022-08-27T02:17:31Z</time>
      </trkpt>
      <trkpt lat="45.74147" lon="6.79019">
        <ele>2529</ele>
        <time>2022-08-27T02:17:33Z</time>
      </trkpt>
      <trkpt lat="45.74147" lon="6.79022">
        <ele>2529</ele>
        <time>2022-08-27T02:17:35Z</time>
      </trkpt>
      <trkpt lat="45.74147" lon="6.79026">
        <ele>2529</ele>
        <time>2022-08-27T02:17:37Z</time>
      </trkpt>
      <trkpt lat="45.74147" lon="6.79029">
        <ele>2529</ele>
        <time>2022-08-27T02:17:39Z</time>
      </trkpt>
      <trkpt lat="45.74148" lon="6.79032">
        <ele>2530</ele>
        <time>2022-08-27T02:17:41Z</time>
      </trkpt>
      <trkpt lat="45.74148" lon="6.79035">
        <ele>2531</ele>
        <time>2022-08-27T02:17:43Z</time>
      </trkpt>
      <trkpt lat="45.74149" lon="6.79038">
        <ele>2531</ele>
        <time>2022-08-27T02:17:45Z</time>
      </trkpt>
      <trkpt lat="45.74149" lon="6.79041">
        <ele>2532</ele>
        <time>2022-08-27T02:17:48Z</time>
      </trkpt>
      <trkpt lat="45.7415" lon="6.79045">
        <ele>2532</ele>
        <time>2022-08-27T02:17:51Z</time>
      </trkpt>
      <trkpt lat="45.74151" lon="6.79048">
        <ele>2533</ele>
        <time>2022-08-27T02:17:54Z</time>
      </trkpt>
      <trkpt lat="45.74152" lon="6.79052">
        <ele>2535</ele>
        <time>2022-08-27T02:17:57Z</time>
      </trkpt>
      <trkpt lat="45.74154" lon="6.79055">
        <ele>2536</ele>
        <time>2022-08-27T02:18:00Z</time>
      </trkpt>
      <trkpt lat="45.74155" lon="6.79058">
        <ele>2536</ele>
        <time>2022-08-27T02:18:03Z</time>
      </trkpt>
      <trkpt lat="45.74156" lon="6.7906">
        <ele>2536</ele>
        <time>2022-08-27T02:18:05Z</time>
      </trkpt>
      <trkpt lat="45.74157" lon="6.79064">
        <ele>2537</ele>
        <time>2022-08-27T02:18:08Z</time>
      </trkpt>
      <trkpt lat="45.74158" lon="6.79066">
        <ele>2538</ele>
        <time>2022-08-27T02:18:10Z</time>
      </trkpt>
      <trkpt lat="45.74159" lon="6.7907">
        <ele>2538</ele>
        <time>2022-08-27T02:18:13Z</time>
      </trkpt>
      <trkpt lat="45.74159" lon="6.79073">
        <ele>2538</ele>
        <time>2022-08-27T02:18:16Z</time>
      </trkpt>
      <trkpt lat="45.74161" lon="6.79076">
        <ele>2538</ele>
        <time>2022-08-27T02:18:19Z</time>
      </trkpt>
      <trkpt lat="45.74162" lon="6.7908">
        <ele>2539</ele>
        <time>2022-08-27T02:18:22Z</time>
      </trkpt>
      <trkpt lat="45.74163" lon="6.79083">
        <ele>2539</ele>
        <time>2022-08-27T02:18:24Z</time>
      </trkpt>
      <trkpt lat="45.74164" lon="6.79085">
        <ele>2540</ele>
        <time>2022-08-27T02:18:26Z</time>
      </trkpt>
      <trkpt lat="45.74165" lon="6.79089">
        <ele>2541</ele>
        <time>2022-08-27T02:18:29Z</time>
      </trkpt>
      <trkpt lat="45.74166" lon="6.79092">
        <ele>2541</ele>
        <time>2022-08-27T02:18:31Z</time>
      </trkpt>
      <trkpt lat="45.74167" lon="6.79094">
        <ele>2541</ele>
        <time>2022-08-27T02:18:33Z</time>
      </trkpt>
      <trkpt lat="45.74168" lon="6.79096">
        <ele>2541</ele>
        <time>2022-08-27T02:18:35Z</time>
      </trkpt>
      <trkpt lat="45.74168" lon="6.79099">
        <ele>2541</ele>
        <time>2022-08-27T02:18:37Z</time>
      </trkpt>
      <trkpt lat="45.74169" lon="6.79102">
        <ele>2541</ele>
        <time>2022-08-27T02:18:39Z</time>
      </trkpt>
      <trkpt lat="45.74169" lon="6.79104">
        <ele>2541</ele>
        <time>2022-08-27T02:18:41Z</time>
      </trkpt>
      <trkpt lat="45.7417" lon="6.79107">
        <ele>2542</ele>
        <time>2022-08-27T02:18:43Z</time>
      </trkpt>
      <trkpt lat="45.74171" lon="6.79111">
        <ele>2543</ele>
        <time>2022-08-27T02:18:46Z</time>
      </trkpt>
      <trkpt lat="45.74172" lon="6.79113">
        <ele>2543</ele>
        <time>2022-08-27T02:18:48Z</time>
      </trkpt>
      <trkpt lat="45.74173" lon="6.79116">
        <ele>2543</ele>
        <time>2022-08-27T02:18:51Z</time>
      </trkpt>
      <trkpt lat="45.74174" lon="6.79119">
        <ele>2545</ele>
        <time>2022-08-27T02:18:54Z</time>
      </trkpt>
      <trkpt lat="45.74176" lon="6.79121">
        <ele>2545</ele>
        <time>2022-08-27T02:18:56Z</time>
      </trkpt>
      <trkpt lat="45.74177" lon="6.79123">
        <ele>2545</ele>
        <time>2022-08-27T02:18:58Z</time>
      </trkpt>
      <trkpt lat="45.74178" lon="6.79126">
        <ele>2547</ele>
        <time>2022-08-27T02:19:00Z</time>
      </trkpt>
      <trkpt lat="45.7418" lon="6.79128">
        <ele>2547</ele>
        <time>2022-08-27T02:19:03Z</time>
      </trkpt>
      <trkpt lat="45.74182" lon="6.7913">
        <ele>2548</ele>
        <time>2022-08-27T02:19:05Z</time>
      </trkpt>
      <trkpt lat="45.74183" lon="6.79133">
        <ele>2548</ele>
        <time>2022-08-27T02:19:07Z</time>
      </trkpt>
      <trkpt lat="45.74184" lon="6.79136">
        <ele>2548</ele>
        <time>2022-08-27T02:19:09Z</time>
      </trkpt>
      <trkpt lat="45.74185" lon="6.79139">
        <ele>2548</ele>
        <time>2022-08-27T02:19:11Z</time>
      </trkpt>
      <trkpt lat="45.74186" lon="6.79141">
        <ele>2548</ele>
        <time>2022-08-27T02:19:13Z</time>
      </trkpt>
      <trkpt lat="45.74186" lon="6.79145">
        <ele>2548</ele>
        <time>2022-08-27T02:19:15Z</time>
      </trkpt>
      <trkpt lat="45.74187" lon="6.79147">
        <ele>2548</ele>
        <time>2022-08-27T02:19:17Z</time>
      </trkpt>
      <trkpt lat="45.74188" lon="6.7915">
        <ele>2549</ele>
        <time>2022-08-27T02:19:19Z</time>
      </trkpt>
      <trkpt lat="45.74188" lon="6.79153">
        <ele>2550</ele>
        <time>2022-08-27T02:19:21Z</time>
      </trkpt>
      <trkpt lat="45.74188" lon="6.79156">
        <ele>2550</ele>
        <time>2022-08-27T02:19:23Z</time>
      </trkpt>
      <trkpt lat="45.74189" lon="6.79159">
        <ele>2550</ele>
        <time>2022-08-27T02:19:25Z</time>
      </trkpt>
      <trkpt lat="45.74189" lon="6.79162">
        <ele>2550</ele>
        <time>2022-08-27T02:19:27Z</time>
      </trkpt>
      <trkpt lat="45.74189" lon="6.79165">
        <ele>2551</ele>
        <time>2022-08-27T02:19:29Z</time>
      </trkpt>
      <trkpt lat="45.74189" lon="6.79169">
        <ele>2551</ele>
        <time>2022-08-27T02:19:31Z</time>
      </trkpt>
      <trkpt lat="45.74189" lon="6.79171">
        <ele>2551</ele>
        <time>2022-08-27T02:19:33Z</time>
      </trkpt>
      <trkpt lat="45.74191" lon="6.79173">
        <ele>2551</ele>
        <time>2022-08-27T02:19:35Z</time>
      </trkpt>
      <trkpt lat="45.74192" lon="6.79174">
        <ele>2552</ele>
        <time>2022-08-27T02:19:37Z</time>
      </trkpt>
      <trkpt lat="45.74194" lon="6.79173">
        <ele>2552</ele>
        <time>2022-08-27T02:19:39Z</time>
      </trkpt>
      <trkpt lat="45.74197" lon="6.79171">
        <ele>2552</ele>
        <time>2022-08-27T02:19:41Z</time>
      </trkpt>
      <trkpt lat="45.74199" lon="6.79173">
        <ele>2552</ele>
        <time>2022-08-27T02:19:43Z</time>
      </trkpt>
      <trkpt lat="45.742" lon="6.79175">
        <ele>2552</ele>
        <time>2022-08-27T02:19:45Z</time>
      </trkpt>
      <trkpt lat="45.742" lon="6.79178">
        <ele>2552</ele>
        <time>2022-08-27T02:19:47Z</time>
      </trkpt>
      <trkpt lat="45.74199" lon="6.79181">
        <ele>2553</ele>
        <time>2022-08-27T02:19:50Z</time>
      </trkpt>
      <trkpt lat="45.74199" lon="6.79184">
        <ele>2554</ele>
        <time>2022-08-27T02:19:52Z</time>
      </trkpt>
      <trkpt lat="45.74199" lon="6.79188">
        <ele>2554</ele>
        <time>2022-08-27T02:19:55Z</time>
      </trkpt>
      <trkpt lat="45.74199" lon="6.7919">
        <ele>2554</ele>
        <time>2022-08-27T02:19:58Z</time>
      </trkpt>
      <trkpt lat="45.74199" lon="6.79194">
        <ele>2555</ele>
        <time>2022-08-27T02:20:01Z</time>
      </trkpt>
      <trkpt lat="45.74199" lon="6.79196">
        <ele>2556</ele>
        <time>2022-08-27T02:20:04Z</time>
      </trkpt>
      <trkpt lat="45.74198" lon="6.79199">
        <ele>2557</ele>
        <time>2022-08-27T02:20:07Z</time>
      </trkpt>
      <trkpt lat="45.74199" lon="6.79202">
        <ele>2557</ele>
        <time>2022-08-27T02:20:10Z</time>
      </trkpt>
      <trkpt lat="45.74199" lon="6.79205">
        <ele>2559</ele>
        <time>2022-08-27T02:20:13Z</time>
      </trkpt>
      <trkpt lat="45.74198" lon="6.79208">
        <ele>2560</ele>
        <time>2022-08-27T02:20:16Z</time>
      </trkpt>
      <trkpt lat="45.74197" lon="6.7921">
        <ele>2560</ele>
        <time>2022-08-27T02:20:19Z</time>
      </trkpt>
      <trkpt lat="45.74196" lon="6.79213">
        <ele>2561</ele>
        <time>2022-08-27T02:20:22Z</time>
      </trkpt>
      <trkpt lat="45.74197" lon="6.79215">
        <ele>2561</ele>
        <time>2022-08-27T02:20:25Z</time>
      </trkpt>
      <trkpt lat="45.74199" lon="6.79217">
        <ele>2562</ele>
        <time>2022-08-27T02:20:28Z</time>
      </trkpt>
      <trkpt lat="45.74201" lon="6.7922">
        <ele>2562</ele>
        <time>2022-08-27T02:20:31Z</time>
      </trkpt>
      <trkpt lat="45.74203" lon="6.79222">
        <ele>2563</ele>
        <time>2022-08-27T02:20:34Z</time>
      </trkpt>
      <trkpt lat="45.74205" lon="6.79224">
        <ele>2564</ele>
        <time>2022-08-27T02:20:37Z</time>
      </trkpt>
      <trkpt lat="45.74207" lon="6.79226">
        <ele>2564</ele>
        <time>2022-08-27T02:20:40Z</time>
      </trkpt>
      <trkpt lat="45.74208" lon="6.79227">
        <ele>2565</ele>
        <time>2022-08-27T02:20:43Z</time>
      </trkpt>
      <trkpt lat="45.7421" lon="6.79229">
        <ele>2565</ele>
        <time>2022-08-27T02:20:46Z</time>
      </trkpt>
      <trkpt lat="45.74212" lon="6.79231">
        <ele>2566</ele>
        <time>2022-08-27T02:20:49Z</time>
      </trkpt>
      <trkpt lat="45.74213" lon="6.79234">
        <ele>2566</ele>
        <time>2022-08-27T02:20:53Z</time>
      </trkpt>
      <trkpt lat="45.74215" lon="6.79235">
        <ele>2567</ele>
        <time>2022-08-27T02:20:56Z</time>
      </trkpt>
      <trkpt lat="45.74217" lon="6.79237">
        <ele>2568</ele>
        <time>2022-08-27T02:20:59Z</time>
      </trkpt>
      <trkpt lat="45.7422" lon="6.79239">
        <ele>2569</ele>
        <time>2022-08-27T02:21:03Z</time>
      </trkpt>
      <trkpt lat="45.74221" lon="6.79241">
        <ele>2569</ele>
        <time>2022-08-27T02:21:06Z</time>
      </trkpt>
      <trkpt lat="45.74223" lon="6.79242">
        <ele>2571</ele>
        <time>2022-08-27T02:21:09Z</time>
      </trkpt>
      <trkpt lat="45.74224" lon="6.79244">
        <ele>2571</ele>
        <time>2022-08-27T02:21:12Z</time>
      </trkpt>
      <trkpt lat="45.74226" lon="6.79246">
        <ele>2572</ele>
        <time>2022-08-27T02:21:15Z</time>
      </trkpt>
      <trkpt lat="45.74228" lon="6.79248">
        <ele>2573</ele>
        <time>2022-08-27T02:21:19Z</time>
      </trkpt>
      <trkpt lat="45.7423" lon="6.79249">
        <ele>2574</ele>
        <time>2022-08-27T02:21:22Z</time>
      </trkpt>
      <trkpt lat="45.74231" lon="6.79251">
        <ele>2574</ele>
        <time>2022-08-27T02:21:25Z</time>
      </trkpt>
      <trkpt lat="45.74233" lon="6.79253">
        <ele>2574</ele>
        <time>2022-08-27T02:21:28Z</time>
      </trkpt>
      <trkpt lat="45.74234" lon="6.79255">
        <ele>2575</ele>
        <time>2022-08-27T02:21:31Z</time>
      </trkpt>
      <trkpt lat="45.74237" lon="6.79257">
        <ele>2575</ele>
        <time>2022-08-27T02:21:35Z</time>
      </trkpt>
      <trkpt lat="45.74239" lon="6.79258">
        <ele>2577</ele>
        <time>2022-08-27T02:21:38Z</time>
      </trkpt>
      <trkpt lat="45.74241" lon="6.79258">
        <ele>2578</ele>
        <time>2022-08-27T02:21:41Z</time>
      </trkpt>
      <trkpt lat="45.74243" lon="6.79259">
        <ele>2578</ele>
        <time>2022-08-27T02:21:44Z</time>
      </trkpt>
      <trkpt lat="45.74245" lon="6.79259">
        <ele>2579</ele>
        <time>2022-08-27T02:21:47Z</time>
      </trkpt>
      <trkpt lat="45.74247" lon="6.7926">
        <ele>2579</ele>
        <time>2022-08-27T02:21:50Z</time>
      </trkpt>
      <trkpt lat="45.74249" lon="6.79262">
        <ele>2579</ele>
        <time>2022-08-27T02:21:53Z</time>
      </trkpt>
      <trkpt lat="45.74251" lon="6.79263">
        <ele>2580</ele>
        <time>2022-08-27T02:21:56Z</time>
      </trkpt>
      <trkpt lat="45.74252" lon="6.79264">
        <ele>2580</ele>
        <time>2022-08-27T02:21:59Z</time>
      </trkpt>
      <trkpt lat="45.74255" lon="6.79267">
        <ele>2581</ele>
        <time>2022-08-27T02:22:02Z</time>
      </trkpt>
      <trkpt lat="45.74256" lon="6.7927">
        <ele>2581</ele>
        <time>2022-08-27T02:22:04Z</time>
      </trkpt>
      <trkpt lat="45.74257" lon="6.79272">
        <ele>2581</ele>
        <time>2022-08-27T02:22:06Z</time>
      </trkpt>
      <trkpt lat="45.74258" lon="6.79275">
        <ele>2583</ele>
        <time>2022-08-27T02:22:08Z</time>
      </trkpt>
      <trkpt lat="45.74259" lon="6.79277">
        <ele>2583</ele>
        <time>2022-08-27T02:22:10Z</time>
      </trkpt>
      <trkpt lat="45.7426" lon="6.79279">
        <ele>2583</ele>
        <time>2022-08-27T02:22:12Z</time>
      </trkpt>
      <trkpt lat="45.74262" lon="6.79283">
        <ele>2584</ele>
        <time>2022-08-27T02:22:15Z</time>
      </trkpt>
      <trkpt lat="45.74263" lon="6.79285">
        <ele>2584</ele>
        <time>2022-08-27T02:22:17Z</time>
      </trkpt>
      <trkpt lat="45.74264" lon="6.79288">
        <ele>2585</ele>
        <time>2022-08-27T02:22:20Z</time>
      </trkpt>
      <trkpt lat="45.74266" lon="6.7929">
        <ele>2585</ele>
        <time>2022-08-27T02:22:22Z</time>
      </trkpt>
      <trkpt lat="45.74268" lon="6.79291">
        <ele>2585</ele>
        <time>2022-08-27T02:22:25Z</time>
      </trkpt>
      <trkpt lat="45.74271" lon="6.79291">
        <ele>2585</ele>
        <time>2022-08-27T02:22:27Z</time>
      </trkpt>
      <trkpt lat="45.74273" lon="6.79292">
        <ele>2585</ele>
        <time>2022-08-27T02:22:30Z</time>
      </trkpt>
      <trkpt lat="45.74275" lon="6.79294">
        <ele>2586</ele>
        <time>2022-08-27T02:22:33Z</time>
      </trkpt>
      <trkpt lat="45.74276" lon="6.79296">
        <ele>2587</ele>
        <time>2022-08-27T02:22:36Z</time>
      </trkpt>
      <trkpt lat="45.74278" lon="6.79298">
        <ele>2587</ele>
        <time>2022-08-27T02:22:39Z</time>
      </trkpt>
      <trkpt lat="45.7428" lon="6.79299">
        <ele>2587</ele>
        <time>2022-08-27T02:22:42Z</time>
      </trkpt>
      <trkpt lat="45.74282" lon="6.79301">
        <ele>2588</ele>
        <time>2022-08-27T02:22:45Z</time>
      </trkpt>
      <trkpt lat="45.74284" lon="6.793">
        <ele>2588</ele>
        <time>2022-08-27T02:22:47Z</time>
      </trkpt>
      <trkpt lat="45.74287" lon="6.793">
        <ele>2588</ele>
        <time>2022-08-27T02:22:49Z</time>
      </trkpt>
      <trkpt lat="45.74289" lon="6.79298">
        <ele>2589</ele>
        <time>2022-08-27T02:22:51Z</time>
      </trkpt>
      <trkpt lat="45.74291" lon="6.79297">
        <ele>2589</ele>
        <time>2022-08-27T02:22:53Z</time>
      </trkpt>
      <trkpt lat="45.74293" lon="6.79296">
        <ele>2589</ele>
        <time>2022-08-27T02:22:55Z</time>
      </trkpt>
      <trkpt lat="45.74295" lon="6.79294">
        <ele>2590</ele>
        <time>2022-08-27T02:22:58Z</time>
      </trkpt>
      <trkpt lat="45.74297" lon="6.79292">
        <ele>2590</ele>
        <time>2022-08-27T02:23:01Z</time>
      </trkpt>
      <trkpt lat="45.74299" lon="6.79293">
        <ele>2591</ele>
        <time>2022-08-27T02:23:04Z</time>
      </trkpt>
      <trkpt lat="45.743" lon="6.79297">
        <ele>2591</ele>
        <time>2022-08-27T02:23:07Z</time>
      </trkpt>
      <trkpt lat="45.74301" lon="6.79301">
        <ele>2592</ele>
        <time>2022-08-27T02:23:10Z</time>
      </trkpt>
      <trkpt lat="45.74302" lon="6.79304">
        <ele>2592</ele>
        <time>2022-08-27T02:23:13Z</time>
      </trkpt>
      <trkpt lat="45.74302" lon="6.79308">
        <ele>2593</ele>
        <time>2022-08-27T02:23:16Z</time>
      </trkpt>
      <trkpt lat="45.74302" lon="6.79311">
        <ele>2593</ele>
        <time>2022-08-27T02:23:19Z</time>
      </trkpt>
      <trkpt lat="45.74303" lon="6.79314">
        <ele>2593</ele>
        <time>2022-08-27T02:23:22Z</time>
      </trkpt>
      <trkpt lat="45.74304" lon="6.79317">
        <ele>2595</ele>
        <time>2022-08-27T02:23:24Z</time>
      </trkpt>
      <trkpt lat="45.74305" lon="6.79318">
        <ele>2595</ele>
        <time>2022-08-27T02:23:26Z</time>
      </trkpt>
      <trkpt lat="45.74307" lon="6.7932">
        <ele>2595</ele>
        <time>2022-08-27T02:23:28Z</time>
      </trkpt>
      <trkpt lat="45.74309" lon="6.79322">
        <ele>2596</ele>
        <time>2022-08-27T02:23:31Z</time>
      </trkpt>
      <trkpt lat="45.74311" lon="6.79322">
        <ele>2596</ele>
        <time>2022-08-27T02:23:34Z</time>
      </trkpt>
      <trkpt lat="45.74313" lon="6.79323">
        <ele>2597</ele>
        <time>2022-08-27T02:23:36Z</time>
      </trkpt>
      <trkpt lat="45.74315" lon="6.79324">
        <ele>2597</ele>
        <time>2022-08-27T02:23:39Z</time>
      </trkpt>
      <trkpt lat="45.74318" lon="6.79325">
        <ele>2598</ele>
        <time>2022-08-27T02:23:42Z</time>
      </trkpt>
      <trkpt lat="45.7432" lon="6.79327">
        <ele>2599</ele>
        <time>2022-08-27T02:23:45Z</time>
      </trkpt>
      <trkpt lat="45.74322" lon="6.79329">
        <ele>2599</ele>
        <time>2022-08-27T02:23:48Z</time>
      </trkpt>
      <trkpt lat="45.74323" lon="6.79331">
        <ele>2600</ele>
        <time>2022-08-27T02:23:51Z</time>
      </trkpt>
      <trkpt lat="45.74326" lon="6.79332">
        <ele>2600</ele>
        <time>2022-08-27T02:23:54Z</time>
      </trkpt>
      <trkpt lat="45.74327" lon="6.79333">
        <ele>2601</ele>
        <time>2022-08-27T02:23:57Z</time>
      </trkpt>
      <trkpt lat="45.7433" lon="6.79332">
        <ele>2602</ele>
        <time>2022-08-27T02:24:00Z</time>
      </trkpt>
      <trkpt lat="45.74332" lon="6.79333">
        <ele>2602</ele>
        <time>2022-08-27T02:24:03Z</time>
      </trkpt>
      <trkpt lat="45.74334" lon="6.79333">
        <ele>2603</ele>
        <time>2022-08-27T02:24:06Z</time>
      </trkpt>
      <trkpt lat="45.74336" lon="6.79331">
        <ele>2603</ele>
        <time>2022-08-27T02:24:09Z</time>
      </trkpt>
      <trkpt lat="45.74336" lon="6.79328">
        <ele>2603</ele>
        <time>2022-08-27T02:24:11Z</time>
      </trkpt>
      <trkpt lat="45.74337" lon="6.79326">
        <ele>2604</ele>
        <time>2022-08-27T02:24:13Z</time>
      </trkpt>
      <trkpt lat="45.7434" lon="6.79324">
        <ele>2604</ele>
        <time>2022-08-27T02:24:16Z</time>
      </trkpt>
      <trkpt lat="45.74342" lon="6.79325">
        <ele>2604</ele>
        <time>2022-08-27T02:24:18Z</time>
      </trkpt>
      <trkpt lat="45.74344" lon="6.79327">
        <ele>2605</ele>
        <time>2022-08-27T02:24:21Z</time>
      </trkpt>
      <trkpt lat="45.74346" lon="6.79327">
        <ele>2607</ele>
        <time>2022-08-27T02:24:23Z</time>
      </trkpt>
      <trkpt lat="45.74348" lon="6.79326">
        <ele>2607</ele>
        <time>2022-08-27T02:24:26Z</time>
      </trkpt>
      <trkpt lat="45.7435" lon="6.79325">
        <ele>2608</ele>
        <time>2022-08-27T02:24:28Z</time>
      </trkpt>
      <trkpt lat="45.74352" lon="6.79323">
        <ele>2608</ele>
        <time>2022-08-27T02:24:30Z</time>
      </trkpt>
      <trkpt lat="45.74353" lon="6.7932">
        <ele>2608</ele>
        <time>2022-08-27T02:24:33Z</time>
      </trkpt>
      <trkpt lat="45.74354" lon="6.79317">
        <ele>2608</ele>
        <time>2022-08-27T02:24:36Z</time>
      </trkpt>
      <trkpt lat="45.74354" lon="6.79313">
        <ele>2609</ele>
        <time>2022-08-27T02:24:39Z</time>
      </trkpt>
      <trkpt lat="45.74354" lon="6.7931">
        <ele>2609</ele>
        <time>2022-08-27T02:24:42Z</time>
      </trkpt>
      <trkpt lat="45.74354" lon="6.79307">
        <ele>2610</ele>
        <time>2022-08-27T02:24:45Z</time>
      </trkpt>
      <trkpt lat="45.74354" lon="6.79304">
        <ele>2610</ele>
        <time>2022-08-27T02:24:47Z</time>
      </trkpt>
      <trkpt lat="45.74354" lon="6.793">
        <ele>2611</ele>
        <time>2022-08-27T02:24:50Z</time>
      </trkpt>
      <trkpt lat="45.74356" lon="6.79298">
        <ele>2612</ele>
        <time>2022-08-27T02:24:53Z</time>
      </trkpt>
      <trkpt lat="45.74358" lon="6.79297">
        <ele>2612</ele>
        <time>2022-08-27T02:24:55Z</time>
      </trkpt>
      <trkpt lat="45.74359" lon="6.79297">
        <ele>2612</ele>
        <time>2022-08-27T02:24:57Z</time>
      </trkpt>
      <trkpt lat="45.74362" lon="6.79297">
        <ele>2613</ele>
        <time>2022-08-27T02:24:59Z</time>
      </trkpt>
      <trkpt lat="45.74364" lon="6.79297">
        <ele>2613</ele>
        <time>2022-08-27T02:25:01Z</time>
      </trkpt>
      <trkpt lat="45.74367" lon="6.79297">
        <ele>2613</ele>
        <time>2022-08-27T02:25:03Z</time>
      </trkpt>
      <trkpt lat="45.74369" lon="6.79297">
        <ele>2613</ele>
        <time>2022-08-27T02:25:05Z</time>
      </trkpt>
      <trkpt lat="45.74372" lon="6.79296">
        <ele>2613</ele>
        <time>2022-08-27T02:25:07Z</time>
      </trkpt>
      <trkpt lat="45.74374" lon="6.79295">
        <ele>2613</ele>
        <time>2022-08-27T02:25:09Z</time>
      </trkpt>
      <trkpt lat="45.74376" lon="6.79293">
        <ele>2613</ele>
        <time>2022-08-27T02:25:11Z</time>
      </trkpt>
      <trkpt lat="45.74378" lon="6.7929">
        <ele>2613</ele>
        <time>2022-08-27T02:25:13Z</time>
      </trkpt>
      <trkpt lat="45.7438" lon="6.79287">
        <ele>2613</ele>
        <time>2022-08-27T02:25:15Z</time>
      </trkpt>
      <trkpt lat="45.74381" lon="6.79285">
        <ele>2614</ele>
        <time>2022-08-27T02:25:17Z</time>
      </trkpt>
      <trkpt lat="45.74383" lon="6.79282">
        <ele>2614</ele>
        <time>2022-08-27T02:25:19Z</time>
      </trkpt>
      <trkpt lat="45.74384" lon="6.79279">
        <ele>2614</ele>
        <time>2022-08-27T02:25:21Z</time>
      </trkpt>
      <trkpt lat="45.74385" lon="6.79275">
        <ele>2614</ele>
        <time>2022-08-27T02:25:23Z</time>
      </trkpt>
      <trkpt lat="45.74386" lon="6.79272">
        <ele>2614</ele>
        <time>2022-08-27T02:25:25Z</time>
      </trkpt>
      <trkpt lat="45.74387" lon="6.79269">
        <ele>2614</ele>
        <time>2022-08-27T02:25:27Z</time>
      </trkpt>
      <trkpt lat="45.74388" lon="6.79266">
        <ele>2614</ele>
        <time>2022-08-27T02:25:29Z</time>
      </trkpt>
      <trkpt lat="45.74389" lon="6.79263">
        <ele>2615</ele>
        <time>2022-08-27T02:25:32Z</time>
      </trkpt>
      <trkpt lat="45.7439" lon="6.7926">
        <ele>2616</ele>
        <time>2022-08-27T02:25:34Z</time>
      </trkpt>
      <trkpt lat="45.7439" lon="6.79258">
        <ele>2616</ele>
        <time>2022-08-27T02:25:36Z</time>
      </trkpt>
      <trkpt lat="45.74391" lon="6.79255">
        <ele>2616</ele>
        <time>2022-08-27T02:25:38Z</time>
      </trkpt>
      <trkpt lat="45.74392" lon="6.79252">
        <ele>2616</ele>
        <time>2022-08-27T02:25:40Z</time>
      </trkpt>
      <trkpt lat="45.74393" lon="6.79249">
        <ele>2617</ele>
        <time>2022-08-27T02:25:43Z</time>
      </trkpt>
      <trkpt lat="45.74394" lon="6.79246">
        <ele>2619</ele>
        <time>2022-08-27T02:25:45Z</time>
      </trkpt>
      <trkpt lat="45.74394" lon="6.79244">
        <ele>2619</ele>
        <time>2022-08-27T02:25:47Z</time>
      </trkpt>
      <trkpt lat="45.74395" lon="6.79241">
        <ele>2619</ele>
        <time>2022-08-27T02:25:49Z</time>
      </trkpt>
      <trkpt lat="45.74395" lon="6.79238">
        <ele>2620</ele>
        <time>2022-08-27T02:25:51Z</time>
      </trkpt>
      <trkpt lat="45.74396" lon="6.79235">
        <ele>2620</ele>
        <time>2022-08-27T02:25:53Z</time>
      </trkpt>
      <trkpt lat="45.74397" lon="6.79232">
        <ele>2620</ele>
        <time>2022-08-27T02:25:55Z</time>
      </trkpt>
      <trkpt lat="45.74398" lon="6.79229">
        <ele>2620</ele>
        <time>2022-08-27T02:25:57Z</time>
      </trkpt>
      <trkpt lat="45.74399" lon="6.79226">
        <ele>2621</ele>
        <time>2022-08-27T02:25:59Z</time>
      </trkpt>
      <trkpt lat="45.744" lon="6.79223">
        <ele>2622</ele>
        <time>2022-08-27T02:26:01Z</time>
      </trkpt>
      <trkpt lat="45.74401" lon="6.79221">
        <ele>2622</ele>
        <time>2022-08-27T02:26:03Z</time>
      </trkpt>
      <trkpt lat="45.74402" lon="6.79218">
        <ele>2622</ele>
        <time>2022-08-27T02:26:05Z</time>
      </trkpt>
      <trkpt lat="45.74404" lon="6.79216">
        <ele>2622</ele>
        <time>2022-08-27T02:26:07Z</time>
      </trkpt>
      <trkpt lat="45.74406" lon="6.79215">
        <ele>2622</ele>
        <time>2022-08-27T02:26:09Z</time>
      </trkpt>
      <trkpt lat="45.74408" lon="6.79213">
        <ele>2622</ele>
        <time>2022-08-27T02:26:11Z</time>
      </trkpt>
      <trkpt lat="45.7441" lon="6.79212">
        <ele>2622</ele>
        <time>2022-08-27T02:26:13Z</time>
      </trkpt>
      <trkpt lat="45.74411" lon="6.7921">
        <ele>2622</ele>
        <time>2022-08-27T02:26:15Z</time>
      </trkpt>
      <trkpt lat="45.74413" lon="6.79209">
        <ele>2623</ele>
        <time>2022-08-27T02:26:17Z</time>
      </trkpt>
      <trkpt lat="45.74414" lon="6.79207">
        <ele>2623</ele>
        <time>2022-08-27T02:26:19Z</time>
      </trkpt>
      <trkpt lat="45.74416" lon="6.79205">
        <ele>2623</ele>
        <time>2022-08-27T02:26:21Z</time>
      </trkpt>
      <trkpt lat="45.74418" lon="6.79203">
        <ele>2624</ele>
        <time>2022-08-27T02:26:24Z</time>
      </trkpt>
      <trkpt lat="45.74421" lon="6.79201">
        <ele>2625</ele>
        <time>2022-08-27T02:26:27Z</time>
      </trkpt>
      <trkpt lat="45.74423" lon="6.79199">
        <ele>2625</ele>
        <time>2022-08-27T02:26:30Z</time>
      </trkpt>
      <trkpt lat="45.74425" lon="6.79197">
        <ele>2626</ele>
        <time>2022-08-27T02:26:33Z</time>
      </trkpt>
      <trkpt lat="45.74427" lon="6.79195">
        <ele>2627</ele>
        <time>2022-08-27T02:26:36Z</time>
      </trkpt>
      <trkpt lat="45.74429" lon="6.79193">
        <ele>2627</ele>
        <time>2022-08-27T02:26:39Z</time>
      </trkpt>
      <trkpt lat="45.74431" lon="6.79191">
        <ele>2627</ele>
        <time>2022-08-27T02:26:42Z</time>
      </trkpt>
      <trkpt lat="45.74433" lon="6.7919">
        <ele>2628</ele>
        <time>2022-08-27T02:26:45Z</time>
      </trkpt>
      <trkpt lat="45.74436" lon="6.79188">
        <ele>2628</ele>
        <time>2022-08-27T02:26:48Z</time>
      </trkpt>
      <trkpt lat="45.74438" lon="6.79186">
        <ele>2629</ele>
        <time>2022-08-27T02:26:51Z</time>
      </trkpt>
      <trkpt lat="45.74439" lon="6.79185">
        <ele>2629</ele>
        <time>2022-08-27T02:26:53Z</time>
      </trkpt>
      <trkpt lat="45.74441" lon="6.79184">
        <ele>2631</ele>
        <time>2022-08-27T02:26:55Z</time>
      </trkpt>
      <trkpt lat="45.74443" lon="6.79181">
        <ele>2631</ele>
        <time>2022-08-27T02:26:58Z</time>
      </trkpt>
      <trkpt lat="45.74445" lon="6.7918">
        <ele>2632</ele>
        <time>2022-08-27T02:27:00Z</time>
      </trkpt>
      <trkpt lat="45.74447" lon="6.79179">
        <ele>2632</ele>
        <time>2022-08-27T02:27:03Z</time>
      </trkpt>
      <trkpt lat="45.74449" lon="6.79179">
        <ele>2633</ele>
        <time>2022-08-27T02:27:05Z</time>
      </trkpt>
      <trkpt lat="45.74451" lon="6.79178">
        <ele>2633</ele>
        <time>2022-08-27T02:27:07Z</time>
      </trkpt>
      <trkpt lat="45.74453" lon="6.79176">
        <ele>2633</ele>
        <time>2022-08-27T02:27:09Z</time>
      </trkpt>
      <trkpt lat="45.74455" lon="6.79175">
        <ele>2633</ele>
        <time>2022-08-27T02:27:11Z</time>
      </trkpt>
      <trkpt lat="45.74457" lon="6.79174">
        <ele>2634</ele>
        <time>2022-08-27T02:27:14Z</time>
      </trkpt>
      <trkpt lat="45.74459" lon="6.79173">
        <ele>2634</ele>
        <time>2022-08-27T02:27:16Z</time>
      </trkpt>
      <trkpt lat="45.74461" lon="6.79173">
        <ele>2634</ele>
        <time>2022-08-27T02:27:18Z</time>
      </trkpt>
      <trkpt lat="45.74463" lon="6.79172">
        <ele>2635</ele>
        <time>2022-08-27T02:27:20Z</time>
      </trkpt>
      <trkpt lat="45.74465" lon="6.79171">
        <ele>2635</ele>
        <time>2022-08-27T02:27:22Z</time>
      </trkpt>
      <trkpt lat="45.74466" lon="6.7917">
        <ele>2636</ele>
        <time>2022-08-27T02:27:24Z</time>
      </trkpt>
      <trkpt lat="45.74468" lon="6.79169">
        <ele>2636</ele>
        <time>2022-08-27T02:27:26Z</time>
      </trkpt>
      <trkpt lat="45.7447" lon="6.79168">
        <ele>2636</ele>
        <time>2022-08-27T02:27:28Z</time>
      </trkpt>
      <trkpt lat="45.74472" lon="6.79167">
        <ele>2637</ele>
        <time>2022-08-27T02:27:30Z</time>
      </trkpt>
      <trkpt lat="45.74474" lon="6.79166">
        <ele>2637</ele>
        <time>2022-08-27T02:27:32Z</time>
      </trkpt>
      <trkpt lat="45.74475" lon="6.79164">
        <ele>2637</ele>
        <time>2022-08-27T02:27:34Z</time>
      </trkpt>
      <trkpt lat="45.74477" lon="6.79163">
        <ele>2637</ele>
        <time>2022-08-27T02:27:36Z</time>
      </trkpt>
      <trkpt lat="45.74479" lon="6.79161">
        <ele>2637</ele>
        <time>2022-08-27T02:27:38Z</time>
      </trkpt>
      <trkpt lat="45.7448" lon="6.7916">
        <ele>2637</ele>
        <time>2022-08-27T02:27:40Z</time>
      </trkpt>
      <trkpt lat="45.74482" lon="6.79158">
        <ele>2639</ele>
        <time>2022-08-27T02:27:42Z</time>
      </trkpt>
      <trkpt lat="45.74484" lon="6.79156">
        <ele>2639</ele>
        <time>2022-08-27T02:27:45Z</time>
      </trkpt>
      <trkpt lat="45.74487" lon="6.79155">
        <ele>2639</ele>
        <time>2022-08-27T02:27:48Z</time>
      </trkpt>
      <trkpt lat="45.74489" lon="6.79154">
        <ele>2639</ele>
        <time>2022-08-27T02:27:51Z</time>
      </trkpt>
      <trkpt lat="45.74492" lon="6.79154">
        <ele>2640</ele>
        <time>2022-08-27T02:27:54Z</time>
      </trkpt>
      <trkpt lat="45.74495" lon="6.79154">
        <ele>2641</ele>
        <time>2022-08-27T02:27:57Z</time>
      </trkpt>
      <trkpt lat="45.74497" lon="6.79153">
        <ele>2641</ele>
        <time>2022-08-27T02:28:00Z</time>
      </trkpt>
      <trkpt lat="45.745" lon="6.79153">
        <ele>2642</ele>
        <time>2022-08-27T02:28:03Z</time>
      </trkpt>
      <trkpt lat="45.74502" lon="6.79153">
        <ele>2642</ele>
        <time>2022-08-27T02:28:06Z</time>
      </trkpt>
      <trkpt lat="45.74505" lon="6.79152">
        <ele>2644</ele>
        <time>2022-08-27T02:28:08Z</time>
      </trkpt>
      <trkpt lat="45.74506" lon="6.79151">
        <ele>2644</ele>
        <time>2022-08-27T02:28:10Z</time>
      </trkpt>
      <trkpt lat="45.74508" lon="6.7915">
        <ele>2644</ele>
        <time>2022-08-27T02:28:12Z</time>
      </trkpt>
      <trkpt lat="45.7451" lon="6.79148">
        <ele>2644</ele>
        <time>2022-08-27T02:28:14Z</time>
      </trkpt>
      <trkpt lat="45.74511" lon="6.79145">
        <ele>2644</ele>
        <time>2022-08-27T02:28:16Z</time>
      </trkpt>
      <trkpt lat="45.74513" lon="6.79143">
        <ele>2645</ele>
        <time>2022-08-27T02:28:18Z</time>
      </trkpt>
      <trkpt lat="45.74514" lon="6.79141">
        <ele>2645</ele>
        <time>2022-08-27T02:28:20Z</time>
      </trkpt>
      <trkpt lat="45.74516" lon="6.79138">
        <ele>2645</ele>
        <time>2022-08-27T02:28:23Z</time>
      </trkpt>
      <trkpt lat="45.74518" lon="6.79135">
        <ele>2646</ele>
        <time>2022-08-27T02:28:26Z</time>
      </trkpt>
      <trkpt lat="45.74519" lon="6.79133">
        <ele>2647</ele>
        <time>2022-08-27T02:28:28Z</time>
      </trkpt>
      <trkpt lat="45.74521" lon="6.79132">
        <ele>2647</ele>
        <time>2022-08-27T02:28:30Z</time>
      </trkpt>
      <trkpt lat="45.74523" lon="6.79131">
        <ele>2647</ele>
        <time>2022-08-27T02:28:32Z</time>
      </trkpt>
      <trkpt lat="45.74525" lon="6.79131">
        <ele>2647</ele>
        <time>2022-08-27T02:28:34Z</time>
      </trkpt>
      <trkpt lat="45.74527" lon="6.79131">
        <ele>2648</ele>
        <time>2022-08-27T02:28:36Z</time>
      </trkpt>
      <trkpt lat="45.74529" lon="6.79132">
        <ele>2648</ele>
        <time>2022-08-27T02:28:38Z</time>
      </trkpt>
      <trkpt lat="45.74531" lon="6.79133">
        <ele>2648</ele>
        <time>2022-08-27T02:28:41Z</time>
      </trkpt>
      <trkpt lat="45.74534" lon="6.79135">
        <ele>2649</ele>
        <time>2022-08-27T02:28:44Z</time>
      </trkpt>
      <trkpt lat="45.74536" lon="6.79136">
        <ele>2649</ele>
        <time>2022-08-27T02:28:47Z</time>
      </trkpt>
      <trkpt lat="45.74538" lon="6.79138">
        <ele>2650</ele>
        <time>2022-08-27T02:28:50Z</time>
      </trkpt>
      <trkpt lat="45.7454" lon="6.79139">
        <ele>2650</ele>
        <time>2022-08-27T02:28:53Z</time>
      </trkpt>
      <trkpt lat="45.74543" lon="6.7914">
        <ele>2650</ele>
        <time>2022-08-27T02:28:56Z</time>
      </trkpt>
      <trkpt lat="45.74545" lon="6.7914">
        <ele>2651</ele>
        <time>2022-08-27T02:28:59Z</time>
      </trkpt>
      <trkpt lat="45.74547" lon="6.79142">
        <ele>2651</ele>
        <time>2022-08-27T02:29:02Z</time>
      </trkpt>
      <trkpt lat="45.74549" lon="6.79143">
        <ele>2653</ele>
        <time>2022-08-27T02:29:05Z</time>
      </trkpt>
      <trkpt lat="45.74551" lon="6.79144">
        <ele>2653</ele>
        <time>2022-08-27T02:29:08Z</time>
      </trkpt>
      <trkpt lat="45.74554" lon="6.79145">
        <ele>2654</ele>
        <time>2022-08-27T02:29:11Z</time>
      </trkpt>
      <trkpt lat="45.74556" lon="6.79145">
        <ele>2654</ele>
        <time>2022-08-27T02:29:14Z</time>
      </trkpt>
      <trkpt lat="45.74559" lon="6.79145">
        <ele>2654</ele>
        <time>2022-08-27T02:29:17Z</time>
      </trkpt>
      <trkpt lat="45.7456" lon="6.79146">
        <ele>2654</ele>
        <time>2022-08-27T02:29:19Z</time>
      </trkpt>
      <trkpt lat="45.74562" lon="6.79146">
        <ele>2654</ele>
        <time>2022-08-27T02:29:21Z</time>
      </trkpt>
      <trkpt lat="45.74565" lon="6.79146">
        <ele>2656</ele>
        <time>2022-08-27T02:29:24Z</time>
      </trkpt>
      <trkpt lat="45.74567" lon="6.79146">
        <ele>2657</ele>
        <time>2022-08-27T02:29:27Z</time>
      </trkpt>
      <trkpt lat="45.7457" lon="6.79147">
        <ele>2657</ele>
        <time>2022-08-27T02:29:30Z</time>
      </trkpt>
      <trkpt lat="45.74572" lon="6.79148">
        <ele>2657</ele>
        <time>2022-08-27T02:29:33Z</time>
      </trkpt>
      <trkpt lat="45.74574" lon="6.7915">
        <ele>2659</ele>
        <time>2022-08-27T02:29:36Z</time>
      </trkpt>
      <trkpt lat="45.74576" lon="6.79152">
        <ele>2659</ele>
        <time>2022-08-27T02:29:39Z</time>
      </trkpt>
      <trkpt lat="45.74577" lon="6.79153">
        <ele>2659</ele>
        <time>2022-08-27T02:29:41Z</time>
      </trkpt>
      <trkpt lat="45.74579" lon="6.79156">
        <ele>2659</ele>
        <time>2022-08-27T02:29:44Z</time>
      </trkpt>
      <trkpt lat="45.74581" lon="6.79158">
        <ele>2660</ele>
        <time>2022-08-27T02:29:47Z</time>
      </trkpt>
      <trkpt lat="45.74582" lon="6.7916">
        <ele>2661</ele>
        <time>2022-08-27T02:29:50Z</time>
      </trkpt>
      <trkpt lat="45.74584" lon="6.79162">
        <ele>2661</ele>
        <time>2022-08-27T02:29:53Z</time>
      </trkpt>
      <trkpt lat="45.74585" lon="6.79164">
        <ele>2662</ele>
        <time>2022-08-27T02:29:56Z</time>
      </trkpt>
      <trkpt lat="45.74587" lon="6.79166">
        <ele>2662</ele>
        <time>2022-08-27T02:29:59Z</time>
      </trkpt>
      <trkpt lat="45.74589" lon="6.79168">
        <ele>2663</ele>
        <time>2022-08-27T02:30:02Z</time>
      </trkpt>
      <trkpt lat="45.74592" lon="6.7917">
        <ele>2663</ele>
        <time>2022-08-27T02:30:05Z</time>
      </trkpt>
      <trkpt lat="45.74594" lon="6.79171">
        <ele>2664</ele>
        <time>2022-08-27T02:30:07Z</time>
      </trkpt>
      <trkpt lat="45.74595" lon="6.79172">
        <ele>2664</ele>
        <time>2022-08-27T02:30:09Z</time>
      </trkpt>
      <trkpt lat="45.74597" lon="6.79175">
        <ele>2664</ele>
        <time>2022-08-27T02:30:12Z</time>
      </trkpt>
      <trkpt lat="45.74599" lon="6.79177">
        <ele>2665</ele>
        <time>2022-08-27T02:30:15Z</time>
      </trkpt>
      <trkpt lat="45.746" lon="6.7918">
        <ele>2665</ele>
        <time>2022-08-27T02:30:18Z</time>
      </trkpt>
      <trkpt lat="45.74602" lon="6.79183">
        <ele>2666</ele>
        <time>2022-08-27T02:30:21Z</time>
      </trkpt>
      <trkpt lat="45.74602" lon="6.79186">
        <ele>2666</ele>
        <time>2022-08-27T02:30:23Z</time>
      </trkpt>
      <trkpt lat="45.74603" lon="6.79188">
        <ele>2666</ele>
        <time>2022-08-27T02:30:25Z</time>
      </trkpt>
      <trkpt lat="45.74603" lon="6.79192">
        <ele>2668</ele>
        <time>2022-08-27T02:30:28Z</time>
      </trkpt>
      <trkpt lat="45.74604" lon="6.79195">
        <ele>2668</ele>
        <time>2022-08-27T02:30:31Z</time>
      </trkpt>
      <trkpt lat="45.74604" lon="6.79198">
        <ele>2669</ele>
        <time>2022-08-27T02:30:34Z</time>
      </trkpt>
      <trkpt lat="45.74604" lon="6.79202">
        <ele>2669</ele>
        <time>2022-08-27T02:30:37Z</time>
      </trkpt>
      <trkpt lat="45.74604" lon="6.79205">
        <ele>2670</ele>
        <time>2022-08-27T02:30:40Z</time>
      </trkpt>
      <trkpt lat="45.74603" lon="6.79209">
        <ele>2670</ele>
        <time>2022-08-27T02:30:43Z</time>
      </trkpt>
      <trkpt lat="45.74603" lon="6.79212">
        <ele>2671</ele>
        <time>2022-08-27T02:30:46Z</time>
      </trkpt>
      <trkpt lat="45.74602" lon="6.79215">
        <ele>2671</ele>
        <time>2022-08-27T02:30:49Z</time>
      </trkpt>
      <trkpt lat="45.74603" lon="6.79218">
        <ele>2672</ele>
        <time>2022-08-27T02:30:52Z</time>
      </trkpt>
      <trkpt lat="45.74603" lon="6.79221">
        <ele>2672</ele>
        <time>2022-08-27T02:30:55Z</time>
      </trkpt>
      <trkpt lat="45.74604" lon="6.79224">
        <ele>2672</ele>
        <time>2022-08-27T02:30:58Z</time>
      </trkpt>
      <trkpt lat="45.74604" lon="6.79228">
        <ele>2673</ele>
        <time>2022-08-27T02:31:01Z</time>
      </trkpt>
      <trkpt lat="45.74605" lon="6.79231">
        <ele>2674</ele>
        <time>2022-08-27T02:31:04Z</time>
      </trkpt>
      <trkpt lat="45.74605" lon="6.79234">
        <ele>2675</ele>
        <time>2022-08-27T02:31:07Z</time>
      </trkpt>
      <trkpt lat="45.74606" lon="6.79236">
        <ele>2675</ele>
        <time>2022-08-27T02:31:10Z</time>
      </trkpt>
      <trkpt lat="45.74606" lon="6.79239">
        <ele>2675</ele>
        <time>2022-08-27T02:31:13Z</time>
      </trkpt>
      <trkpt lat="45.74606" lon="6.79242">
        <ele>2676</ele>
        <time>2022-08-27T02:31:16Z</time>
      </trkpt>
      <trkpt lat="45.74607" lon="6.79245">
        <ele>2677</ele>
        <time>2022-08-27T02:31:19Z</time>
      </trkpt>
      <trkpt lat="45.74607" lon="6.79248">
        <ele>2677</ele>
        <time>2022-08-27T02:31:22Z</time>
      </trkpt>
      <trkpt lat="45.74608" lon="6.79251">
        <ele>2678</ele>
        <time>2022-08-27T02:31:25Z</time>
      </trkpt>
      <trkpt lat="45.74609" lon="6.79254">
        <ele>2678</ele>
        <time>2022-08-27T02:31:28Z</time>
      </trkpt>
      <trkpt lat="45.74609" lon="6.79258">
        <ele>2680</ele>
        <time>2022-08-27T02:31:31Z</time>
      </trkpt>
      <trkpt lat="45.74609" lon="6.79261">
        <ele>2680</ele>
        <time>2022-08-27T02:31:34Z</time>
      </trkpt>
      <trkpt lat="45.74609" lon="6.79264">
        <ele>2680</ele>
        <time>2022-08-27T02:31:36Z</time>
      </trkpt>
      <trkpt lat="45.74609" lon="6.79267">
        <ele>2681</ele>
        <time>2022-08-27T02:31:39Z</time>
      </trkpt>
      <trkpt lat="45.7461" lon="6.7927">
        <ele>2681</ele>
        <time>2022-08-27T02:31:42Z</time>
      </trkpt>
      <trkpt lat="45.74612" lon="6.79273">
        <ele>2682</ele>
        <time>2022-08-27T02:31:45Z</time>
      </trkpt>
      <trkpt lat="45.74613" lon="6.79276">
        <ele>2682</ele>
        <time>2022-08-27T02:31:48Z</time>
      </trkpt>
      <trkpt lat="45.74613" lon="6.79279">
        <ele>2683</ele>
        <time>2022-08-27T02:31:51Z</time>
      </trkpt>
      <trkpt lat="45.74614" lon="6.79282">
        <ele>2683</ele>
        <time>2022-08-27T02:31:54Z</time>
      </trkpt>
      <trkpt lat="45.74615" lon="6.79285">
        <ele>2683</ele>
        <time>2022-08-27T02:31:57Z</time>
      </trkpt>
      <trkpt lat="45.74617" lon="6.79287">
        <ele>2683</ele>
        <time>2022-08-27T02:32:00Z</time>
      </trkpt>
      <trkpt lat="45.74618" lon="6.7929">
        <ele>2683</ele>
        <time>2022-08-27T02:32:03Z</time>
      </trkpt>
      <trkpt lat="45.74619" lon="6.79293">
        <ele>2684</ele>
        <time>2022-08-27T02:32:06Z</time>
      </trkpt>
      <trkpt lat="45.7462" lon="6.79296">
        <ele>2685</ele>
        <time>2022-08-27T02:32:09Z</time>
      </trkpt>
      <trkpt lat="45.74621" lon="6.79299">
        <ele>2685</ele>
        <time>2022-08-27T02:32:12Z</time>
      </trkpt>
      <trkpt lat="45.74623" lon="6.79302">
        <ele>2686</ele>
        <time>2022-08-27T02:32:15Z</time>
      </trkpt>
      <trkpt lat="45.74624" lon="6.79304">
        <ele>2686</ele>
        <time>2022-08-27T02:32:17Z</time>
      </trkpt>
      <trkpt lat="45.74625" lon="6.79307">
        <ele>2686</ele>
        <time>2022-08-27T02:32:20Z</time>
      </trkpt>
      <trkpt lat="45.74625" lon="6.79311">
        <ele>2686</ele>
        <time>2022-08-27T02:32:23Z</time>
      </trkpt>
      <trkpt lat="45.74626" lon="6.79314">
        <ele>2687</ele>
        <time>2022-08-27T02:32:26Z</time>
      </trkpt>
      <trkpt lat="45.74626" lon="6.79318">
        <ele>2687</ele>
        <time>2022-08-27T02:32:29Z</time>
      </trkpt>
      <trkpt lat="45.74627" lon="6.79321">
        <ele>2688</ele>
        <time>2022-08-27T02:32:32Z</time>
      </trkpt>
      <trkpt lat="45.74626" lon="6.79324">
        <ele>2688</ele>
        <time>2022-08-27T02:32:35Z</time>
      </trkpt>
      <trkpt lat="45.74626" lon="6.79327">
        <ele>2688</ele>
        <time>2022-08-27T02:32:38Z</time>
      </trkpt>
      <trkpt lat="45.74627" lon="6.7933">
        <ele>2688</ele>
        <time>2022-08-27T02:32:41Z</time>
      </trkpt>
      <trkpt lat="45.74627" lon="6.79333">
        <ele>2689</ele>
        <time>2022-08-27T02:32:44Z</time>
      </trkpt>
      <trkpt lat="45.74629" lon="6.79336">
        <ele>2689</ele>
        <time>2022-08-27T02:32:47Z</time>
      </trkpt>
      <trkpt lat="45.7463" lon="6.79338">
        <ele>2690</ele>
        <time>2022-08-27T02:32:50Z</time>
      </trkpt>
      <trkpt lat="45.74631" lon="6.79341">
        <ele>2690</ele>
        <time>2022-08-27T02:32:53Z</time>
      </trkpt>
      <trkpt lat="45.74632" lon="6.79344">
        <ele>2692</ele>
        <time>2022-08-27T02:32:56Z</time>
      </trkpt>
      <trkpt lat="45.74632" lon="6.79347">
        <ele>2693</ele>
        <time>2022-08-27T02:32:59Z</time>
      </trkpt>
      <trkpt lat="45.74632" lon="6.7935">
        <ele>2693</ele>
        <time>2022-08-27T02:33:02Z</time>
      </trkpt>
      <trkpt lat="45.74633" lon="6.79353">
        <ele>2694</ele>
        <time>2022-08-27T02:33:06Z</time>
      </trkpt>
      <trkpt lat="45.74635" lon="6.79355">
        <ele>2694</ele>
        <time>2022-08-27T02:33:09Z</time>
      </trkpt>
      <trkpt lat="45.74636" lon="6.79357">
        <ele>2695</ele>
        <time>2022-08-27T02:33:12Z</time>
      </trkpt>
      <trkpt lat="45.74637" lon="6.7936">
        <ele>2695</ele>
        <time>2022-08-27T02:33:15Z</time>
      </trkpt>
      <trkpt lat="45.74638" lon="6.79362">
        <ele>2695</ele>
        <time>2022-08-27T02:33:18Z</time>
      </trkpt>
      <trkpt lat="45.74639" lon="6.79365">
        <ele>2695</ele>
        <time>2022-08-27T02:33:21Z</time>
      </trkpt>
      <trkpt lat="45.7464" lon="6.79368">
        <ele>2696</ele>
        <time>2022-08-27T02:33:24Z</time>
      </trkpt>
      <trkpt lat="45.74642" lon="6.79371">
        <ele>2696</ele>
        <time>2022-08-27T02:33:27Z</time>
      </trkpt>
      <trkpt lat="45.74643" lon="6.79373">
        <ele>2696</ele>
        <time>2022-08-27T02:33:30Z</time>
      </trkpt>
      <trkpt lat="45.74645" lon="6.79376">
        <ele>2697</ele>
        <time>2022-08-27T02:33:33Z</time>
      </trkpt>
      <trkpt lat="45.74646" lon="6.79378">
        <ele>2697</ele>
        <time>2022-08-27T02:33:36Z</time>
      </trkpt>
      <trkpt lat="45.74648" lon="6.7938">
        <ele>2697</ele>
        <time>2022-08-27T02:33:38Z</time>
      </trkpt>
      <trkpt lat="45.74649" lon="6.79382">
        <ele>2697</ele>
        <time>2022-08-27T02:33:41Z</time>
      </trkpt>
      <trkpt lat="45.74651" lon="6.79386">
        <ele>2699</ele>
        <time>2022-08-27T02:33:44Z</time>
      </trkpt>
      <trkpt lat="45.74651" lon="6.79389">
        <ele>2699</ele>
        <time>2022-08-27T02:33:47Z</time>
      </trkpt>
      <trkpt lat="45.74653" lon="6.79391">
        <ele>2699</ele>
        <time>2022-08-27T02:33:49Z</time>
      </trkpt>
      <trkpt lat="45.74654" lon="6.79394">
        <ele>2699</ele>
        <time>2022-08-27T02:33:52Z</time>
      </trkpt>
      <trkpt lat="45.74654" lon="6.79397">
        <ele>2699</ele>
        <time>2022-08-27T02:33:55Z</time>
      </trkpt>
      <trkpt lat="45.74655" lon="6.794">
        <ele>2701</ele>
        <time>2022-08-27T02:33:58Z</time>
      </trkpt>
      <trkpt lat="45.74656" lon="6.79403">
        <ele>2701</ele>
        <time>2022-08-27T02:34:01Z</time>
      </trkpt>
      <trkpt lat="45.74658" lon="6.79406">
        <ele>2702</ele>
        <time>2022-08-27T02:34:04Z</time>
      </trkpt>
      <trkpt lat="45.74659" lon="6.79408">
        <ele>2702</ele>
        <time>2022-08-27T02:34:06Z</time>
      </trkpt>
      <trkpt lat="45.74661" lon="6.79411">
        <ele>2702</ele>
        <time>2022-08-27T02:34:09Z</time>
      </trkpt>
      <trkpt lat="45.74662" lon="6.79414">
        <ele>2702</ele>
        <time>2022-08-27T02:34:12Z</time>
      </trkpt>
      <trkpt lat="45.74662" lon="6.79416">
        <ele>2702</ele>
        <time>2022-08-27T02:34:15Z</time>
      </trkpt>
      <trkpt lat="45.74663" lon="6.79419">
        <ele>2704</ele>
        <time>2022-08-27T02:34:18Z</time>
      </trkpt>
      <trkpt lat="45.74664" lon="6.79422">
        <ele>2704</ele>
        <time>2022-08-27T02:34:21Z</time>
      </trkpt>
      <trkpt lat="45.74665" lon="6.79425">
        <ele>2705</ele>
        <time>2022-08-27T02:34:24Z</time>
      </trkpt>
      <trkpt lat="45.74666" lon="6.79428">
        <ele>2705</ele>
        <time>2022-08-27T02:34:27Z</time>
      </trkpt>
      <trkpt lat="45.74667" lon="6.7943">
        <ele>2706</ele>
        <time>2022-08-27T02:34:29Z</time>
      </trkpt>
      <trkpt lat="45.74667" lon="6.79434">
        <ele>2706</ele>
        <time>2022-08-27T02:34:32Z</time>
      </trkpt>
      <trkpt lat="45.74667" lon="6.79437">
        <ele>2707</ele>
        <time>2022-08-27T02:34:35Z</time>
      </trkpt>
      <trkpt lat="45.74668" lon="6.7944">
        <ele>2707</ele>
        <time>2022-08-27T02:34:38Z</time>
      </trkpt>
      <trkpt lat="45.74669" lon="6.79442">
        <ele>2708</ele>
        <time>2022-08-27T02:34:40Z</time>
      </trkpt>
      <trkpt lat="45.74669" lon="6.79446">
        <ele>2708</ele>
        <time>2022-08-27T02:34:43Z</time>
      </trkpt>
      <trkpt lat="45.74669" lon="6.79449">
        <ele>2709</ele>
        <time>2022-08-27T02:34:46Z</time>
      </trkpt>
      <trkpt lat="45.7467" lon="6.79452">
        <ele>2710</ele>
        <time>2022-08-27T02:34:49Z</time>
      </trkpt>
      <trkpt lat="45.7467" lon="6.79455">
        <ele>2710</ele>
        <time>2022-08-27T02:34:52Z</time>
      </trkpt>
      <trkpt lat="45.74671" lon="6.79458">
        <ele>2710</ele>
        <time>2022-08-27T02:34:55Z</time>
      </trkpt>
      <trkpt lat="45.74672" lon="6.79461">
        <ele>2711</ele>
        <time>2022-08-27T02:34:58Z</time>
      </trkpt>
      <trkpt lat="45.74674" lon="6.79464">
        <ele>2711</ele>
        <time>2022-08-27T02:35:01Z</time>
      </trkpt>
      <trkpt lat="45.74675" lon="6.79467">
        <ele>2713</ele>
        <time>2022-08-27T02:35:04Z</time>
      </trkpt>
      <trkpt lat="45.74675" lon="6.7947">
        <ele>2713</ele>
        <time>2022-08-27T02:35:07Z</time>
      </trkpt>
      <trkpt lat="45.74676" lon="6.79473">
        <ele>2713</ele>
        <time>2022-08-27T02:35:10Z</time>
      </trkpt>
      <trkpt lat="45.74677" lon="6.79477">
        <ele>2713</ele>
        <time>2022-08-27T02:35:13Z</time>
      </trkpt>
      <trkpt lat="45.74677" lon="6.7948">
        <ele>2713</ele>
        <time>2022-08-27T02:35:16Z</time>
      </trkpt>
      <trkpt lat="45.74678" lon="6.79482">
        <ele>2714</ele>
        <time>2022-08-27T02:35:18Z</time>
      </trkpt>
      <trkpt lat="45.74679" lon="6.79485">
        <ele>2714</ele>
        <time>2022-08-27T02:35:21Z</time>
      </trkpt>
      <trkpt lat="45.7468" lon="6.79488">
        <ele>2714</ele>
        <time>2022-08-27T02:35:23Z</time>
      </trkpt>
      <trkpt lat="45.74681" lon="6.79491">
        <ele>2716</ele>
        <time>2022-08-27T02:35:26Z</time>
      </trkpt>
      <trkpt lat="45.74682" lon="6.79494">
        <ele>2716</ele>
        <time>2022-08-27T02:35:29Z</time>
      </trkpt>
      <trkpt lat="45.74683" lon="6.79497">
        <ele>2716</ele>
        <time>2022-08-27T02:35:32Z</time>
      </trkpt>
      <trkpt lat="45.74683" lon="6.795">
        <ele>2717</ele>
        <time>2022-08-27T02:35:35Z</time>
      </trkpt>
      <trkpt lat="45.74684" lon="6.79504">
        <ele>2717</ele>
        <time>2022-08-27T02:35:38Z</time>
      </trkpt>
      <trkpt lat="45.74685" lon="6.79506">
        <ele>2717</ele>
        <time>2022-08-27T02:35:40Z</time>
      </trkpt>
      <trkpt lat="45.74686" lon="6.79509">
        <ele>2718</ele>
        <time>2022-08-27T02:35:43Z</time>
      </trkpt>
      <trkpt lat="45.74688" lon="6.79512">
        <ele>2718</ele>
        <time>2022-08-27T02:35:46Z</time>
      </trkpt>
      <trkpt lat="45.74689" lon="6.79515">
        <ele>2719</ele>
        <time>2022-08-27T02:35:49Z</time>
      </trkpt>
      <trkpt lat="45.7469" lon="6.79518">
        <ele>2720</ele>
        <time>2022-08-27T02:35:53Z</time>
      </trkpt>
      <trkpt lat="45.74692" lon="6.79521">
        <ele>2720</ele>
        <time>2022-08-27T02:35:56Z</time>
      </trkpt>
      <trkpt lat="45.74694" lon="6.79523">
        <ele>2721</ele>
        <time>2022-08-27T02:35:59Z</time>
      </trkpt>
      <trkpt lat="45.74696" lon="6.79525">
        <ele>2721</ele>
        <time>2022-08-27T02:36:01Z</time>
      </trkpt>
      <trkpt lat="45.74697" lon="6.79527">
        <ele>2721</ele>
        <time>2022-08-27T02:36:03Z</time>
      </trkpt>
      <trkpt lat="45.74699" lon="6.7953">
        <ele>2722</ele>
        <time>2022-08-27T02:36:06Z</time>
      </trkpt>
      <trkpt lat="45.74701" lon="6.79533">
        <ele>2722</ele>
        <time>2022-08-27T02:36:09Z</time>
      </trkpt>
      <trkpt lat="45.74702" lon="6.79534">
        <ele>2722</ele>
        <time>2022-08-27T02:36:11Z</time>
      </trkpt>
      <trkpt lat="45.74703" lon="6.79537">
        <ele>2723</ele>
        <time>2022-08-27T02:36:13Z</time>
      </trkpt>
      <trkpt lat="45.74705" lon="6.7954">
        <ele>2723</ele>
        <time>2022-08-27T02:36:16Z</time>
      </trkpt>
      <trkpt lat="45.74706" lon="6.79543">
        <ele>2723</ele>
        <time>2022-08-27T02:36:19Z</time>
      </trkpt>
      <trkpt lat="45.74708" lon="6.79545">
        <ele>2723</ele>
        <time>2022-08-27T02:36:21Z</time>
      </trkpt>
      <trkpt lat="45.7471" lon="6.79548">
        <ele>2725</ele>
        <time>2022-08-27T02:36:24Z</time>
      </trkpt>
      <trkpt lat="45.74711" lon="6.7955">
        <ele>2725</ele>
        <time>2022-08-27T02:36:26Z</time>
      </trkpt>
      <trkpt lat="45.74712" lon="6.79553">
        <ele>2725</ele>
        <time>2022-08-27T02:36:28Z</time>
      </trkpt>
      <trkpt lat="45.74713" lon="6.79555">
        <ele>2725</ele>
        <time>2022-08-27T02:36:30Z</time>
      </trkpt>
      <trkpt lat="45.74715" lon="6.79558">
        <ele>2725</ele>
        <time>2022-08-27T02:36:33Z</time>
      </trkpt>
      <trkpt lat="45.74716" lon="6.79561">
        <ele>2725</ele>
        <time>2022-08-27T02:36:35Z</time>
      </trkpt>
      <trkpt lat="45.74718" lon="6.79563">
        <ele>2726</ele>
        <time>2022-08-27T02:36:37Z</time>
      </trkpt>
      <trkpt lat="45.74719" lon="6.79565">
        <ele>2726</ele>
        <time>2022-08-27T02:36:39Z</time>
      </trkpt>
      <trkpt lat="45.7472" lon="6.79567">
        <ele>2726</ele>
        <time>2022-08-27T02:36:41Z</time>
      </trkpt>
      <trkpt lat="45.74721" lon="6.79569">
        <ele>2726</ele>
        <time>2022-08-27T02:36:43Z</time>
      </trkpt>
      <trkpt lat="45.74722" lon="6.79572">
        <ele>2726</ele>
        <time>2022-08-27T02:36:45Z</time>
      </trkpt>
      <trkpt lat="45.74723" lon="6.79574">
        <ele>2728</ele>
        <time>2022-08-27T02:36:47Z</time>
      </trkpt>
      <trkpt lat="45.74724" lon="6.79576">
        <ele>2728</ele>
        <time>2022-08-27T02:36:49Z</time>
      </trkpt>
      <trkpt lat="45.74726" lon="6.79579">
        <ele>2728</ele>
        <time>2022-08-27T02:36:51Z</time>
      </trkpt>
      <trkpt lat="45.74727" lon="6.79581">
        <ele>2729</ele>
        <time>2022-08-27T02:36:53Z</time>
      </trkpt>
      <trkpt lat="45.74728" lon="6.79583">
        <ele>2729</ele>
        <time>2022-08-27T02:36:55Z</time>
      </trkpt>
      <trkpt lat="45.74729" lon="6.79586">
        <ele>2729</ele>
        <time>2022-08-27T02:36:57Z</time>
      </trkpt>
      <trkpt lat="45.7473" lon="6.79588">
        <ele>2729</ele>
        <time>2022-08-27T02:36:59Z</time>
      </trkpt>
      <trkpt lat="45.74731" lon="6.79591">
        <ele>2730</ele>
        <time>2022-08-27T02:37:01Z</time>
      </trkpt>
      <trkpt lat="45.74732" lon="6.79593">
        <ele>2730</ele>
        <time>2022-08-27T02:37:03Z</time>
      </trkpt>
      <trkpt lat="45.74733" lon="6.79596">
        <ele>2730</ele>
        <time>2022-08-27T02:37:05Z</time>
      </trkpt>
      <trkpt lat="45.74734" lon="6.79599">
        <ele>2730</ele>
        <time>2022-08-27T02:37:08Z</time>
      </trkpt>
      <trkpt lat="45.74735" lon="6.79603">
        <ele>2731</ele>
        <time>2022-08-27T02:37:11Z</time>
      </trkpt>
      <trkpt lat="45.74736" lon="6.79606">
        <ele>2731</ele>
        <time>2022-08-27T02:37:14Z</time>
      </trkpt>
      <trkpt lat="45.74736" lon="6.79608">
        <ele>2731</ele>
        <time>2022-08-27T02:37:16Z</time>
      </trkpt>
      <trkpt lat="45.74737" lon="6.79612">
        <ele>2732</ele>
        <time>2022-08-27T02:37:19Z</time>
      </trkpt>
      <trkpt lat="45.74737" lon="6.79615">
        <ele>2732</ele>
        <time>2022-08-27T02:37:22Z</time>
      </trkpt>
      <trkpt lat="45.74738" lon="6.79619">
        <ele>2733</ele>
        <time>2022-08-27T02:37:25Z</time>
      </trkpt>
      <trkpt lat="45.74738" lon="6.79623">
        <ele>2734</ele>
        <time>2022-08-27T02:37:28Z</time>
      </trkpt>
      <trkpt lat="45.74739" lon="6.79625">
        <ele>2734</ele>
        <time>2022-08-27T02:37:30Z</time>
      </trkpt>
      <trkpt lat="45.74739" lon="6.79628">
        <ele>2734</ele>
        <time>2022-08-27T02:37:32Z</time>
      </trkpt>
      <trkpt lat="45.7474" lon="6.79631">
        <ele>2734</ele>
        <time>2022-08-27T02:37:35Z</time>
      </trkpt>
      <trkpt lat="45.74742" lon="6.79635">
        <ele>2735</ele>
        <time>2022-08-27T02:37:38Z</time>
      </trkpt>
      <trkpt lat="45.74743" lon="6.79638">
        <ele>2735</ele>
        <time>2022-08-27T02:37:41Z</time>
      </trkpt>
      <trkpt lat="45.74743" lon="6.79641">
        <ele>2735</ele>
        <time>2022-08-27T02:37:43Z</time>
      </trkpt>
      <trkpt lat="45.74744" lon="6.79643">
        <ele>2735</ele>
        <time>2022-08-27T02:37:45Z</time>
      </trkpt>
      <trkpt lat="45.74745" lon="6.79647">
        <ele>2736</ele>
        <time>2022-08-27T02:37:48Z</time>
      </trkpt>
      <trkpt lat="45.74746" lon="6.79649">
        <ele>2736</ele>
        <time>2022-08-27T02:37:50Z</time>
      </trkpt>
      <trkpt lat="45.74747" lon="6.79652">
        <ele>2736</ele>
        <time>2022-08-27T02:37:52Z</time>
      </trkpt>
      <trkpt lat="45.74748" lon="6.79654">
        <ele>2736</ele>
        <time>2022-08-27T02:37:54Z</time>
      </trkpt>
      <trkpt lat="45.74749" lon="6.79656">
        <ele>2737</ele>
        <time>2022-08-27T02:37:56Z</time>
      </trkpt>
      <trkpt lat="45.74751" lon="6.79658">
        <ele>2737</ele>
        <time>2022-08-27T02:37:58Z</time>
      </trkpt>
      <trkpt lat="45.74752" lon="6.79661">
        <ele>2737</ele>
        <time>2022-08-27T02:38:00Z</time>
      </trkpt>
      <trkpt lat="45.74753" lon="6.79663">
        <ele>2738</ele>
        <time>2022-08-27T02:38:02Z</time>
      </trkpt>
      <trkpt lat="45.74755" lon="6.79665">
        <ele>2738</ele>
        <time>2022-08-27T02:38:04Z</time>
      </trkpt>
      <trkpt lat="45.74755" lon="6.79668">
        <ele>2738</ele>
        <time>2022-08-27T02:38:06Z</time>
      </trkpt>
      <trkpt lat="45.74756" lon="6.79671">
        <ele>2740</ele>
        <time>2022-08-27T02:38:09Z</time>
      </trkpt>
      <trkpt lat="45.74758" lon="6.79674">
        <ele>2740</ele>
        <time>2022-08-27T02:38:12Z</time>
      </trkpt>
      <trkpt lat="45.74759" lon="6.79677">
        <ele>2740</ele>
        <time>2022-08-27T02:38:14Z</time>
      </trkpt>
      <trkpt lat="45.7476" lon="6.79679">
        <ele>2740</ele>
        <time>2022-08-27T02:38:16Z</time>
      </trkpt>
      <trkpt lat="45.74761" lon="6.79682">
        <ele>2740</ele>
        <time>2022-08-27T02:38:18Z</time>
      </trkpt>
      <trkpt lat="45.74762" lon="6.79684">
        <ele>2740</ele>
        <time>2022-08-27T02:38:20Z</time>
      </trkpt>
      <trkpt lat="45.74763" lon="6.79687">
        <ele>2741</ele>
        <time>2022-08-27T02:38:22Z</time>
      </trkpt>
      <trkpt lat="45.74764" lon="6.79689">
        <ele>2741</ele>
        <time>2022-08-27T02:38:24Z</time>
      </trkpt>
      <trkpt lat="45.74765" lon="6.79692">
        <ele>2741</ele>
        <time>2022-08-27T02:38:26Z</time>
      </trkpt>
      <trkpt lat="45.74766" lon="6.79694">
        <ele>2742</ele>
        <time>2022-08-27T02:38:28Z</time>
      </trkpt>
      <trkpt lat="45.74767" lon="6.79697">
        <ele>2742</ele>
        <time>2022-08-27T02:38:30Z</time>
      </trkpt>
      <trkpt lat="45.74768" lon="6.79699">
        <ele>2742</ele>
        <time>2022-08-27T02:38:32Z</time>
      </trkpt>
      <trkpt lat="45.74769" lon="6.79702">
        <ele>2742</ele>
        <time>2022-08-27T02:38:34Z</time>
      </trkpt>
      <trkpt lat="45.7477" lon="6.79704">
        <ele>2742</ele>
        <time>2022-08-27T02:38:36Z</time>
      </trkpt>
      <trkpt lat="45.74771" lon="6.79707">
        <ele>2742</ele>
        <time>2022-08-27T02:38:38Z</time>
      </trkpt>
      <trkpt lat="45.74773" lon="6.79709">
        <ele>2743</ele>
        <time>2022-08-27T02:38:40Z</time>
      </trkpt>
      <trkpt lat="45.74774" lon="6.79712">
        <ele>2743</ele>
        <time>2022-08-27T02:38:42Z</time>
      </trkpt>
      <trkpt lat="45.74775" lon="6.79714">
        <ele>2743</ele>
        <time>2022-08-27T02:38:44Z</time>
      </trkpt>
      <trkpt lat="45.74776" lon="6.79716">
        <ele>2743</ele>
        <time>2022-08-27T02:38:46Z</time>
      </trkpt>
      <trkpt lat="45.74777" lon="6.7972">
        <ele>2743</ele>
        <time>2022-08-27T02:38:49Z</time>
      </trkpt>
      <trkpt lat="45.74779" lon="6.79722">
        <ele>2744</ele>
        <time>2022-08-27T02:38:51Z</time>
      </trkpt>
      <trkpt lat="45.7478" lon="6.79725">
        <ele>2744</ele>
        <time>2022-08-27T02:38:54Z</time>
      </trkpt>
      <trkpt lat="45.74781" lon="6.79727">
        <ele>2744</ele>
        <time>2022-08-27T02:38:56Z</time>
      </trkpt>
      <trkpt lat="45.74783" lon="6.79729">
        <ele>2746</ele>
        <time>2022-08-27T02:38:58Z</time>
      </trkpt>
      <trkpt lat="45.74785" lon="6.79731">
        <ele>2746</ele>
        <time>2022-08-27T02:39:01Z</time>
      </trkpt>
      <trkpt lat="45.74786" lon="6.79734">
        <ele>2746</ele>
        <time>2022-08-27T02:39:04Z</time>
      </trkpt>
      <trkpt lat="45.74788" lon="6.79737">
        <ele>2748</ele>
        <time>2022-08-27T02:39:07Z</time>
      </trkpt>
      <trkpt lat="45.74789" lon="6.79739">
        <ele>2748</ele>
        <time>2022-08-27T02:39:10Z</time>
      </trkpt>
      <trkpt lat="45.74791" lon="6.79741">
        <ele>2748</ele>
        <time>2022-08-27T02:39:13Z</time>
      </trkpt>
      <trkpt lat="45.74793" lon="6.79743">
        <ele>2748</ele>
        <time>2022-08-27T02:39:15Z</time>
      </trkpt>
      <trkpt lat="45.74794" lon="6.79745">
        <ele>2749</ele>
        <time>2022-08-27T02:39:17Z</time>
      </trkpt>
      <trkpt lat="45.74795" lon="6.79749">
        <ele>2749</ele>
        <time>2022-08-27T02:39:20Z</time>
      </trkpt>
      <trkpt lat="45.74797" lon="6.79752">
        <ele>2750</ele>
        <time>2022-08-27T02:39:24Z</time>
      </trkpt>
      <trkpt lat="45.74799" lon="6.79754">
        <ele>2751</ele>
        <time>2022-08-27T02:39:27Z</time>
      </trkpt>
      <trkpt lat="45.74801" lon="6.79755">
        <ele>2751</ele>
        <time>2022-08-27T02:39:30Z</time>
      </trkpt>
      <trkpt lat="45.74803" lon="6.79756">
        <ele>2751</ele>
        <time>2022-08-27T02:39:32Z</time>
      </trkpt>
      <trkpt lat="45.74805" lon="6.79758">
        <ele>2753</ele>
        <time>2022-08-27T02:39:35Z</time>
      </trkpt>
      <trkpt lat="45.74807" lon="6.7976">
        <ele>2753</ele>
        <time>2022-08-27T02:39:38Z</time>
      </trkpt>
      <trkpt lat="45.74808" lon="6.79761">
        <ele>2754</ele>
        <time>2022-08-27T02:39:41Z</time>
      </trkpt>
      <trkpt lat="45.7481" lon="6.79763">
        <ele>2755</ele>
        <time>2022-08-27T02:39:44Z</time>
      </trkpt>
      <trkpt lat="45.74812" lon="6.79764">
        <ele>2755</ele>
        <time>2022-08-27T02:39:47Z</time>
      </trkpt>
      <trkpt lat="45.74814" lon="6.79765">
        <ele>2756</ele>
        <time>2022-08-27T02:39:50Z</time>
      </trkpt>
      <trkpt lat="45.74816" lon="6.79766">
        <ele>2756</ele>
        <time>2022-08-27T02:39:54Z</time>
      </trkpt>
      <trkpt lat="45.74818" lon="6.79768">
        <ele>2757</ele>
        <time>2022-08-27T02:39:57Z</time>
      </trkpt>
      <trkpt lat="45.7482" lon="6.7977">
        <ele>2758</ele>
        <time>2022-08-27T02:40:00Z</time>
      </trkpt>
      <trkpt lat="45.74821" lon="6.79772">
        <ele>2759</ele>
        <time>2022-08-27T02:40:05Z</time>
      </trkpt>
      <trkpt lat="45.74823" lon="6.79775">
        <ele>2759</ele>
        <time>2022-08-27T02:40:08Z</time>
      </trkpt>
      <trkpt lat="45.74825" lon="6.79777">
        <ele>2759</ele>
        <time>2022-08-27T02:40:11Z</time>
      </trkpt>
      <trkpt lat="45.74826" lon="6.7978">
        <ele>2760</ele>
        <time>2022-08-27T02:40:14Z</time>
      </trkpt>
      <trkpt lat="45.74828" lon="6.79783">
        <ele>2760</ele>
        <time>2022-08-27T02:40:17Z</time>
      </trkpt>
      <trkpt lat="45.74829" lon="6.79786">
        <ele>2761</ele>
        <time>2022-08-27T02:40:20Z</time>
      </trkpt>
      <trkpt lat="45.7483" lon="6.79789">
        <ele>2761</ele>
        <time>2022-08-27T02:40:23Z</time>
      </trkpt>
      <trkpt lat="45.74831" lon="6.79792">
        <ele>2762</ele>
        <time>2022-08-27T02:40:26Z</time>
      </trkpt>
      <trkpt lat="45.74832" lon="6.79795">
        <ele>2762</ele>
        <time>2022-08-27T02:40:29Z</time>
      </trkpt>
      <trkpt lat="45.74833" lon="6.79798">
        <ele>2762</ele>
        <time>2022-08-27T02:40:31Z</time>
      </trkpt>
      <trkpt lat="45.74834" lon="6.79801">
        <ele>2763</ele>
        <time>2022-08-27T02:40:34Z</time>
      </trkpt>
      <trkpt lat="45.74835" lon="6.79804">
        <ele>2763</ele>
        <time>2022-08-27T02:40:37Z</time>
      </trkpt>
      <trkpt lat="45.74836" lon="6.79807">
        <ele>2765</ele>
        <time>2022-08-27T02:40:40Z</time>
      </trkpt>
      <trkpt lat="45.74838" lon="6.79809">
        <ele>2765</ele>
        <time>2022-08-27T02:40:43Z</time>
      </trkpt>
      <trkpt lat="45.74839" lon="6.79812">
        <ele>2766</ele>
        <time>2022-08-27T02:40:46Z</time>
      </trkpt>
      <trkpt lat="45.7484" lon="6.79814">
        <ele>2766</ele>
        <time>2022-08-27T02:40:49Z</time>
      </trkpt>
      <trkpt lat="45.74842" lon="6.79817">
        <ele>2767</ele>
        <time>2022-08-27T02:40:52Z</time>
      </trkpt>
      <trkpt lat="45.74843" lon="6.7982">
        <ele>2767</ele>
        <time>2022-08-27T02:40:55Z</time>
      </trkpt>
      <trkpt lat="45.74844" lon="6.79823">
        <ele>2768</ele>
        <time>2022-08-27T02:40:58Z</time>
      </trkpt>
      <trkpt lat="45.74846" lon="6.79825">
        <ele>2768</ele>
        <time>2022-08-27T02:41:01Z</time>
      </trkpt>
      <trkpt lat="45.74847" lon="6.79828">
        <ele>2768</ele>
        <time>2022-08-27T02:41:04Z</time>
      </trkpt>
      <trkpt lat="45.74848" lon="6.7983">
        <ele>2770</ele>
        <time>2022-08-27T02:41:08Z</time>
      </trkpt>
      <trkpt lat="45.7485" lon="6.79833">
        <ele>2770</ele>
        <time>2022-08-27T02:41:11Z</time>
      </trkpt>
      <trkpt lat="45.74851" lon="6.79835">
        <ele>2770</ele>
        <time>2022-08-27T02:41:14Z</time>
      </trkpt>
      <trkpt lat="45.74852" lon="6.79838">
        <ele>2771</ele>
        <time>2022-08-27T02:41:17Z</time>
      </trkpt>
      <trkpt lat="45.74853" lon="6.79841">
        <ele>2771</ele>
        <time>2022-08-27T02:41:20Z</time>
      </trkpt>
      <trkpt lat="45.74854" lon="6.79844">
        <ele>2772</ele>
        <time>2022-08-27T02:41:23Z</time>
      </trkpt>
      <trkpt lat="45.74853" lon="6.79846">
        <ele>2773</ele>
        <time>2022-08-27T02:41:26Z</time>
      </trkpt>
      <trkpt lat="45.74854" lon="6.79849">
        <ele>2773</ele>
        <time>2022-08-27T02:41:29Z</time>
      </trkpt>
      <trkpt lat="45.74854" lon="6.79853">
        <ele>2774</ele>
        <time>2022-08-27T02:41:33Z</time>
      </trkpt>
      <trkpt lat="45.74855" lon="6.79856">
        <ele>2774</ele>
        <time>2022-08-27T02:41:36Z</time>
      </trkpt>
      <trkpt lat="45.74855" lon="6.79858">
        <ele>2774</ele>
        <time>2022-08-27T02:41:39Z</time>
      </trkpt>
      <trkpt lat="45.74856" lon="6.79862">
        <ele>2774</ele>
        <time>2022-08-27T02:41:42Z</time>
      </trkpt>
      <trkpt lat="45.74857" lon="6.79865">
        <ele>2775</ele>
        <time>2022-08-27T02:41:45Z</time>
      </trkpt>
      <trkpt lat="45.74858" lon="6.79867">
        <ele>2777</ele>
        <time>2022-08-27T02:41:48Z</time>
      </trkpt>
      <trkpt lat="45.74859" lon="6.7987">
        <ele>2777</ele>
        <time>2022-08-27T02:41:51Z</time>
      </trkpt>
      <trkpt lat="45.74859" lon="6.79874">
        <ele>2778</ele>
        <time>2022-08-27T02:41:54Z</time>
      </trkpt>
      <trkpt lat="45.7486" lon="6.79877">
        <ele>2778</ele>
        <time>2022-08-27T02:41:57Z</time>
      </trkpt>
      <trkpt lat="45.7486" lon="6.79879">
        <ele>2779</ele>
        <time>2022-08-27T02:42:00Z</time>
      </trkpt>
      <trkpt lat="45.74861" lon="6.79883">
        <ele>2780</ele>
        <time>2022-08-27T02:42:03Z</time>
      </trkpt>
      <trkpt lat="45.74862" lon="6.79886">
        <ele>2780</ele>
        <time>2022-08-27T02:42:06Z</time>
      </trkpt>
      <trkpt lat="45.74862" lon="6.79888">
        <ele>2780</ele>
        <time>2022-08-27T02:42:08Z</time>
      </trkpt>
      <trkpt lat="45.74863" lon="6.79891">
        <ele>2781</ele>
        <time>2022-08-27T02:42:11Z</time>
      </trkpt>
      <trkpt lat="45.74864" lon="6.79894">
        <ele>2781</ele>
        <time>2022-08-27T02:42:13Z</time>
      </trkpt>
      <trkpt lat="45.74865" lon="6.79897">
        <ele>2781</ele>
        <time>2022-08-27T02:42:16Z</time>
      </trkpt>
      <trkpt lat="45.74866" lon="6.799">
        <ele>2782</ele>
        <time>2022-08-27T02:42:19Z</time>
      </trkpt>
      <trkpt lat="45.74866" lon="6.79903">
        <ele>2782</ele>
        <time>2022-08-27T02:42:21Z</time>
      </trkpt>
      <trkpt lat="45.74867" lon="6.79906">
        <ele>2782</ele>
        <time>2022-08-27T02:42:23Z</time>
      </trkpt>
      <trkpt lat="45.74868" lon="6.79909">
        <ele>2782</ele>
        <time>2022-08-27T02:42:25Z</time>
      </trkpt>
      <trkpt lat="45.74868" lon="6.79912">
        <ele>2782</ele>
        <time>2022-08-27T02:42:27Z</time>
      </trkpt>
      <trkpt lat="45.74868" lon="6.79915">
        <ele>2783</ele>
        <time>2022-08-27T02:42:29Z</time>
      </trkpt>
      <trkpt lat="45.74869" lon="6.79917">
        <ele>2783</ele>
        <time>2022-08-27T02:42:31Z</time>
      </trkpt>
      <trkpt lat="45.74869" lon="6.7992">
        <ele>2783</ele>
        <time>2022-08-27T02:42:33Z</time>
      </trkpt>
      <trkpt lat="45.74869" lon="6.79923">
        <ele>2783</ele>
        <time>2022-08-27T02:42:35Z</time>
      </trkpt>
      <trkpt lat="45.7487" lon="6.79925">
        <ele>2783</ele>
        <time>2022-08-27T02:42:37Z</time>
      </trkpt>
      <trkpt lat="45.7487" lon="6.79928">
        <ele>2783</ele>
        <time>2022-08-27T02:42:39Z</time>
      </trkpt>
      <trkpt lat="45.74871" lon="6.79931">
        <ele>2784</ele>
        <time>2022-08-27T02:42:41Z</time>
      </trkpt>
      <trkpt lat="45.74871" lon="6.79934">
        <ele>2785</ele>
        <time>2022-08-27T02:42:43Z</time>
      </trkpt>
      <trkpt lat="45.74872" lon="6.79937">
        <ele>2785</ele>
        <time>2022-08-27T02:42:45Z</time>
      </trkpt>
      <trkpt lat="45.74872" lon="6.79939">
        <ele>2785</ele>
        <time>2022-08-27T02:42:47Z</time>
      </trkpt>
      <trkpt lat="45.74873" lon="6.79942">
        <ele>2786</ele>
        <time>2022-08-27T02:42:49Z</time>
      </trkpt>
      <trkpt lat="45.74874" lon="6.79944">
        <ele>2786</ele>
        <time>2022-08-27T02:42:51Z</time>
      </trkpt>
      <trkpt lat="45.74875" lon="6.79947">
        <ele>2786</ele>
        <time>2022-08-27T02:42:53Z</time>
      </trkpt>
      <trkpt lat="45.74876" lon="6.79949">
        <ele>2786</ele>
        <time>2022-08-27T02:42:55Z</time>
      </trkpt>
      <trkpt lat="45.74878" lon="6.79951">
        <ele>2786</ele>
        <time>2022-08-27T02:42:57Z</time>
      </trkpt>
      <trkpt lat="45.74879" lon="6.79954">
        <ele>2786</ele>
        <time>2022-08-27T02:42:59Z</time>
      </trkpt>
      <trkpt lat="45.74881" lon="6.79956">
        <ele>2787</ele>
        <time>2022-08-27T02:43:02Z</time>
      </trkpt>
      <trkpt lat="45.74882" lon="6.79958">
        <ele>2787</ele>
        <time>2022-08-27T02:43:04Z</time>
      </trkpt>
      <trkpt lat="45.74884" lon="6.79961">
        <ele>2787</ele>
        <time>2022-08-27T02:43:06Z</time>
      </trkpt>
      <trkpt lat="45.74885" lon="6.79964">
        <ele>2789</ele>
        <time>2022-08-27T02:43:09Z</time>
      </trkpt>
      <trkpt lat="45.74886" lon="6.79967">
        <ele>2789</ele>
        <time>2022-08-27T02:43:12Z</time>
      </trkpt>
      <trkpt lat="45.74887" lon="6.79969">
        <ele>2790</ele>
        <time>2022-08-27T02:43:15Z</time>
      </trkpt>
      <trkpt lat="45.74888" lon="6.79972">
        <ele>2790</ele>
        <time>2022-08-27T02:43:18Z</time>
      </trkpt>
      <trkpt lat="45.74889" lon="6.79975">
        <ele>2790</ele>
        <time>2022-08-27T02:43:21Z</time>
      </trkpt>
      <trkpt lat="45.74889" lon="6.79978">
        <ele>2791</ele>
        <time>2022-08-27T02:43:24Z</time>
      </trkpt>
      <trkpt lat="45.74889" lon="6.79981">
        <ele>2792</ele>
        <time>2022-08-27T02:43:27Z</time>
      </trkpt>
      <trkpt lat="45.7489" lon="6.79984">
        <ele>2792</ele>
        <time>2022-08-27T02:43:30Z</time>
      </trkpt>
      <trkpt lat="45.7489" lon="6.79986">
        <ele>2793</ele>
        <time>2022-08-27T02:43:33Z</time>
      </trkpt>
      <trkpt lat="45.74891" lon="6.79989">
        <ele>2793</ele>
        <time>2022-08-27T02:43:36Z</time>
      </trkpt>
      <trkpt lat="45.74892" lon="6.79992">
        <ele>2794</ele>
        <time>2022-08-27T02:43:39Z</time>
      </trkpt>
      <trkpt lat="45.74893" lon="6.79994">
        <ele>2794</ele>
        <time>2022-08-27T02:43:42Z</time>
      </trkpt>
      <trkpt lat="45.74895" lon="6.79997">
        <ele>2795</ele>
        <time>2022-08-27T02:43:45Z</time>
      </trkpt>
      <trkpt lat="45.74896" lon="6.8">
        <ele>2795</ele>
        <time>2022-08-27T02:43:48Z</time>
      </trkpt>
      <trkpt lat="45.74897" lon="6.80003">
        <ele>2796</ele>
        <time>2022-08-27T02:43:51Z</time>
      </trkpt>
      <trkpt lat="45.74899" lon="6.80006">
        <ele>2796</ele>
        <time>2022-08-27T02:43:54Z</time>
      </trkpt>
      <trkpt lat="45.749" lon="6.80009">
        <ele>2797</ele>
        <time>2022-08-27T02:43:57Z</time>
      </trkpt>
      <trkpt lat="45.74902" lon="6.80011">
        <ele>2798</ele>
        <time>2022-08-27T02:44:00Z</time>
      </trkpt>
      <trkpt lat="45.74903" lon="6.80014">
        <ele>2798</ele>
        <time>2022-08-27T02:44:03Z</time>
      </trkpt>
      <trkpt lat="45.74904" lon="6.80017">
        <ele>2799</ele>
        <time>2022-08-27T02:44:06Z</time>
      </trkpt>
      <trkpt lat="45.74906" lon="6.80021">
        <ele>2799</ele>
        <time>2022-08-27T02:44:09Z</time>
      </trkpt>
      <trkpt lat="45.74907" lon="6.80024">
        <ele>2799</ele>
        <time>2022-08-27T02:44:12Z</time>
      </trkpt>
      <trkpt lat="45.74908" lon="6.80027">
        <ele>2801</ele>
        <time>2022-08-27T02:44:15Z</time>
      </trkpt>
      <trkpt lat="45.74909" lon="6.80031">
        <ele>2801</ele>
        <time>2022-08-27T02:44:18Z</time>
      </trkpt>
      <trkpt lat="45.74909" lon="6.80034">
        <ele>2801</ele>
        <time>2022-08-27T02:44:21Z</time>
      </trkpt>
      <trkpt lat="45.7491" lon="6.80037">
        <ele>2802</ele>
        <time>2022-08-27T02:44:23Z</time>
      </trkpt>
      <trkpt lat="45.74912" lon="6.8004">
        <ele>2802</ele>
        <time>2022-08-27T02:44:26Z</time>
      </trkpt>
      <trkpt lat="45.74913" lon="6.80043">
        <ele>2802</ele>
        <time>2022-08-27T02:44:29Z</time>
      </trkpt>
      <trkpt lat="45.74914" lon="6.80047">
        <ele>2803</ele>
        <time>2022-08-27T02:44:32Z</time>
      </trkpt>
      <trkpt lat="45.74915" lon="6.8005">
        <ele>2803</ele>
        <time>2022-08-27T02:44:35Z</time>
      </trkpt>
      <trkpt lat="45.74916" lon="6.80053">
        <ele>2804</ele>
        <time>2022-08-27T02:44:38Z</time>
      </trkpt>
      <trkpt lat="45.74917" lon="6.80056">
        <ele>2804</ele>
        <time>2022-08-27T02:44:41Z</time>
      </trkpt>
      <trkpt lat="45.74918" lon="6.80059">
        <ele>2805</ele>
        <time>2022-08-27T02:44:44Z</time>
      </trkpt>
      <trkpt lat="45.7492" lon="6.80062">
        <ele>2805</ele>
        <time>2022-08-27T02:44:47Z</time>
      </trkpt>
      <trkpt lat="45.7492" lon="6.80065">
        <ele>2806</ele>
        <time>2022-08-27T02:44:50Z</time>
      </trkpt>
      <trkpt lat="45.74921" lon="6.80069">
        <ele>2806</ele>
        <time>2022-08-27T02:44:53Z</time>
      </trkpt>
      <trkpt lat="45.74922" lon="6.80072">
        <ele>2807</ele>
        <time>2022-08-27T02:44:56Z</time>
      </trkpt>
      <trkpt lat="45.74923" lon="6.80075">
        <ele>2807</ele>
        <time>2022-08-27T02:44:59Z</time>
      </trkpt>
      <trkpt lat="45.74925" lon="6.80078">
        <ele>2808</ele>
        <time>2022-08-27T02:45:02Z</time>
      </trkpt>
      <trkpt lat="45.74925" lon="6.80081">
        <ele>2808</ele>
        <time>2022-08-27T02:45:05Z</time>
      </trkpt>
      <trkpt lat="45.74927" lon="6.80084">
        <ele>2809</ele>
        <time>2022-08-27T02:45:08Z</time>
      </trkpt>
      <trkpt lat="45.74928" lon="6.80087">
        <ele>2809</ele>
        <time>2022-08-27T02:45:11Z</time>
      </trkpt>
      <trkpt lat="45.74929" lon="6.8009">
        <ele>2810</ele>
        <time>2022-08-27T02:45:14Z</time>
      </trkpt>
      <trkpt lat="45.7493" lon="6.80092">
        <ele>2810</ele>
        <time>2022-08-27T02:45:17Z</time>
      </trkpt>
      <trkpt lat="45.74931" lon="6.80095">
        <ele>2810</ele>
        <time>2022-08-27T02:45:19Z</time>
      </trkpt>
      <trkpt lat="45.74931" lon="6.80097">
        <ele>2810</ele>
        <time>2022-08-27T02:45:21Z</time>
      </trkpt>
      <trkpt lat="45.74932" lon="6.801">
        <ele>2810</ele>
        <time>2022-08-27T02:45:23Z</time>
      </trkpt>
      <trkpt lat="45.74933" lon="6.80103">
        <ele>2811</ele>
        <time>2022-08-27T02:45:26Z</time>
      </trkpt>
      <trkpt lat="45.74934" lon="6.80107">
        <ele>2811</ele>
        <time>2022-08-27T02:45:29Z</time>
      </trkpt>
      <trkpt lat="45.74936" lon="6.8011">
        <ele>2811</ele>
        <time>2022-08-27T02:45:32Z</time>
      </trkpt>
      <trkpt lat="45.74937" lon="6.80113">
        <ele>2813</ele>
        <time>2022-08-27T02:45:35Z</time>
      </trkpt>
      <trkpt lat="45.74938" lon="6.80116">
        <ele>2814</ele>
        <time>2022-08-27T02:45:37Z</time>
      </trkpt>
      <trkpt lat="45.74939" lon="6.80119">
        <ele>2814</ele>
        <time>2022-08-27T02:45:40Z</time>
      </trkpt>
      <trkpt lat="45.7494" lon="6.80122">
        <ele>2814</ele>
        <time>2022-08-27T02:45:42Z</time>
      </trkpt>
      <trkpt lat="45.74941" lon="6.80125">
        <ele>2814</ele>
        <time>2022-08-27T02:45:45Z</time>
      </trkpt>
      <trkpt lat="45.74942" lon="6.80127">
        <ele>2814</ele>
        <time>2022-08-27T02:45:47Z</time>
      </trkpt>
      <trkpt lat="45.74943" lon="6.80129">
        <ele>2814</ele>
        <time>2022-08-27T02:45:49Z</time>
      </trkpt>
      <trkpt lat="45.74944" lon="6.80132">
        <ele>2815</ele>
        <time>2022-08-27T02:45:51Z</time>
      </trkpt>
      <trkpt lat="45.74945" lon="6.80134">
        <ele>2815</ele>
        <time>2022-08-27T02:45:53Z</time>
      </trkpt>
      <trkpt lat="45.74945" lon="6.80137">
        <ele>2815</ele>
        <time>2022-08-27T02:45:55Z</time>
      </trkpt>
      <trkpt lat="45.74946" lon="6.8014">
        <ele>2816</ele>
        <time>2022-08-27T02:45:57Z</time>
      </trkpt>
      <trkpt lat="45.74946" lon="6.80143">
        <ele>2816</ele>
        <time>2022-08-27T02:45:59Z</time>
      </trkpt>
      <trkpt lat="45.74947" lon="6.80146">
        <ele>2816</ele>
        <time>2022-08-27T02:46:01Z</time>
      </trkpt>
      <trkpt lat="45.74947" lon="6.80149">
        <ele>2816</ele>
        <time>2022-08-27T02:46:03Z</time>
      </trkpt>
      <trkpt lat="45.74947" lon="6.80152">
        <ele>2816</ele>
        <time>2022-08-27T02:46:05Z</time>
      </trkpt>
      <trkpt lat="45.74947" lon="6.80155">
        <ele>2816</ele>
        <time>2022-08-27T02:46:07Z</time>
      </trkpt>
      <trkpt lat="45.74947" lon="6.80158">
        <ele>2816</ele>
        <time>2022-08-27T02:46:09Z</time>
      </trkpt>
      <trkpt lat="45.74947" lon="6.80161">
        <ele>2817</ele>
        <time>2022-08-27T02:46:12Z</time>
      </trkpt>
      <trkpt lat="45.74947" lon="6.80164">
        <ele>2817</ele>
        <time>2022-08-27T02:46:14Z</time>
      </trkpt>
      <trkpt lat="45.74946" lon="6.80168">
        <ele>2818</ele>
        <time>2022-08-27T02:46:17Z</time>
      </trkpt>
      <trkpt lat="45.74946" lon="6.8017">
        <ele>2819</ele>
        <time>2022-08-27T02:46:19Z</time>
      </trkpt>
      <trkpt lat="45.74946" lon="6.80173">
        <ele>2819</ele>
        <time>2022-08-27T02:46:22Z</time>
      </trkpt>
      <trkpt lat="45.74947" lon="6.80177">
        <ele>2819</ele>
        <time>2022-08-27T02:46:25Z</time>
      </trkpt>
      <trkpt lat="45.74947" lon="6.8018">
        <ele>2819</ele>
        <time>2022-08-27T02:46:27Z</time>
      </trkpt>
      <trkpt lat="45.74947" lon="6.80183">
        <ele>2819</ele>
        <time>2022-08-27T02:46:30Z</time>
      </trkpt>
      <trkpt lat="45.74948" lon="6.80187">
        <ele>2820</ele>
        <time>2022-08-27T02:46:33Z</time>
      </trkpt>
      <trkpt lat="45.74949" lon="6.8019">
        <ele>2820</ele>
        <time>2022-08-27T02:46:36Z</time>
      </trkpt>
      <trkpt lat="45.74951" lon="6.80193">
        <ele>2820</ele>
        <time>2022-08-27T02:46:39Z</time>
      </trkpt>
      <trkpt lat="45.74953" lon="6.80196">
        <ele>2821</ele>
        <time>2022-08-27T02:46:42Z</time>
      </trkpt>
      <trkpt lat="45.74954" lon="6.80199">
        <ele>2822</ele>
        <time>2022-08-27T02:46:45Z</time>
      </trkpt>
      <trkpt lat="45.74955" lon="6.80201">
        <ele>2822</ele>
        <time>2022-08-27T02:46:47Z</time>
      </trkpt>
      <trkpt lat="45.74957" lon="6.80204">
        <ele>2822</ele>
        <time>2022-08-27T02:46:50Z</time>
      </trkpt>
      <trkpt lat="45.74958" lon="6.80207">
        <ele>2823</ele>
        <time>2022-08-27T02:46:53Z</time>
      </trkpt>
      <trkpt lat="45.74959" lon="6.8021">
        <ele>2823</ele>
        <time>2022-08-27T02:46:56Z</time>
      </trkpt>
      <trkpt lat="45.7496" lon="6.80212">
        <ele>2825</ele>
        <time>2022-08-27T02:46:58Z</time>
      </trkpt>
      <trkpt lat="45.74961" lon="6.80215">
        <ele>2825</ele>
        <time>2022-08-27T02:47:01Z</time>
      </trkpt>
      <trkpt lat="45.74962" lon="6.80219">
        <ele>2825</ele>
        <time>2022-08-27T02:47:04Z</time>
      </trkpt>
      <trkpt lat="45.74962" lon="6.80222">
        <ele>2826</ele>
        <time>2022-08-27T02:47:07Z</time>
      </trkpt>
      <trkpt lat="45.74963" lon="6.80226">
        <ele>2826</ele>
        <time>2022-08-27T02:47:10Z</time>
      </trkpt>
      <trkpt lat="45.74964" lon="6.80229">
        <ele>2827</ele>
        <time>2022-08-27T02:47:13Z</time>
      </trkpt>
      <trkpt lat="45.74965" lon="6.80232">
        <ele>2827</ele>
        <time>2022-08-27T02:47:15Z</time>
      </trkpt>
      <trkpt lat="45.74966" lon="6.80235">
        <ele>2828</ele>
        <time>2022-08-27T02:47:18Z</time>
      </trkpt>
      <trkpt lat="45.74967" lon="6.80238">
        <ele>2828</ele>
        <time>2022-08-27T02:47:21Z</time>
      </trkpt>
      <trkpt lat="45.74968" lon="6.80242">
        <ele>2828</ele>
        <time>2022-08-27T02:47:24Z</time>
      </trkpt>
      <trkpt lat="45.74969" lon="6.80245">
        <ele>2829</ele>
        <time>2022-08-27T02:47:27Z</time>
      </trkpt>
      <trkpt lat="45.7497" lon="6.80249">
        <ele>2830</ele>
        <time>2022-08-27T02:47:30Z</time>
      </trkpt>
      <trkpt lat="45.74972" lon="6.80252">
        <ele>2830</ele>
        <time>2022-08-27T02:47:33Z</time>
      </trkpt>
      <trkpt lat="45.74972" lon="6.80255">
        <ele>2830</ele>
        <time>2022-08-27T02:47:36Z</time>
      </trkpt>
      <trkpt lat="45.74973" lon="6.80259">
        <ele>2830</ele>
        <time>2022-08-27T02:47:39Z</time>
      </trkpt>
      <trkpt lat="45.74975" lon="6.80262">
        <ele>2831</ele>
        <time>2022-08-27T02:47:42Z</time>
      </trkpt>
      <trkpt lat="45.74976" lon="6.80265">
        <ele>2831</ele>
        <time>2022-08-27T02:47:45Z</time>
      </trkpt>
      <trkpt lat="45.74977" lon="6.80268">
        <ele>2831</ele>
        <time>2022-08-27T02:47:47Z</time>
      </trkpt>
      <trkpt lat="45.74978" lon="6.80271">
        <ele>2831</ele>
        <time>2022-08-27T02:47:50Z</time>
      </trkpt>
      <trkpt lat="45.7498" lon="6.80274">
        <ele>2832</ele>
        <time>2022-08-27T02:47:53Z</time>
      </trkpt>
      <trkpt lat="45.74981" lon="6.80276">
        <ele>2832</ele>
        <time>2022-08-27T02:47:55Z</time>
      </trkpt>
      <trkpt lat="45.74982" lon="6.8028">
        <ele>2833</ele>
        <time>2022-08-27T02:47:58Z</time>
      </trkpt>
      <trkpt lat="45.74983" lon="6.80283">
        <ele>2833</ele>
        <time>2022-08-27T02:48:01Z</time>
      </trkpt>
      <trkpt lat="45.74984" lon="6.80286">
        <ele>2834</ele>
        <time>2022-08-27T02:48:04Z</time>
      </trkpt>
      <trkpt lat="45.74985" lon="6.80289">
        <ele>2834</ele>
        <time>2022-08-27T02:48:06Z</time>
      </trkpt>
      <trkpt lat="45.74986" lon="6.80292">
        <ele>2834</ele>
        <time>2022-08-27T02:48:09Z</time>
      </trkpt>
      <trkpt lat="45.74988" lon="6.80296">
        <ele>2834</ele>
        <time>2022-08-27T02:48:12Z</time>
      </trkpt>
      <trkpt lat="45.74989" lon="6.80298">
        <ele>2835</ele>
        <time>2022-08-27T02:48:14Z</time>
      </trkpt>
      <trkpt lat="45.7499" lon="6.803">
        <ele>2835</ele>
        <time>2022-08-27T02:48:16Z</time>
      </trkpt>
      <trkpt lat="45.74991" lon="6.80303">
        <ele>2837</ele>
        <time>2022-08-27T02:48:18Z</time>
      </trkpt>
      <trkpt lat="45.74992" lon="6.80305">
        <ele>2837</ele>
        <time>2022-08-27T02:48:20Z</time>
      </trkpt>
      <trkpt lat="45.74993" lon="6.80308">
        <ele>2837</ele>
        <time>2022-08-27T02:48:22Z</time>
      </trkpt>
      <trkpt lat="45.74994" lon="6.80311">
        <ele>2837</ele>
        <time>2022-08-27T02:48:24Z</time>
      </trkpt>
      <trkpt lat="45.74995" lon="6.80313">
        <ele>2838</ele>
        <time>2022-08-27T02:48:26Z</time>
      </trkpt>
      <trkpt lat="45.74996" lon="6.80315">
        <ele>2838</ele>
        <time>2022-08-27T02:48:28Z</time>
      </trkpt>
      <trkpt lat="45.74997" lon="6.80318">
        <ele>2838</ele>
        <time>2022-08-27T02:48:30Z</time>
      </trkpt>
      <trkpt lat="45.74998" lon="6.8032">
        <ele>2838</ele>
        <time>2022-08-27T02:48:32Z</time>
      </trkpt>
      <trkpt lat="45.75" lon="6.80322">
        <ele>2838</ele>
        <time>2022-08-27T02:48:34Z</time>
      </trkpt>
      <trkpt lat="45.75001" lon="6.80324">
        <ele>2838</ele>
        <time>2022-08-27T02:48:36Z</time>
      </trkpt>
      <trkpt lat="45.75002" lon="6.80327">
        <ele>2839</ele>
        <time>2022-08-27T02:48:39Z</time>
      </trkpt>
      <trkpt lat="45.75004" lon="6.80329">
        <ele>2839</ele>
        <time>2022-08-27T02:48:42Z</time>
      </trkpt>
      <trkpt lat="45.75006" lon="6.80332">
        <ele>2840</ele>
        <time>2022-08-27T02:48:45Z</time>
      </trkpt>
      <trkpt lat="45.75007" lon="6.80335">
        <ele>2840</ele>
        <time>2022-08-27T02:48:48Z</time>
      </trkpt>
      <trkpt lat="45.75008" lon="6.80338">
        <ele>2841</ele>
        <time>2022-08-27T02:48:51Z</time>
      </trkpt>
      <trkpt lat="45.75009" lon="6.80341">
        <ele>2841</ele>
        <time>2022-08-27T02:48:53Z</time>
      </trkpt>
      <trkpt lat="45.7501" lon="6.80343">
        <ele>2841</ele>
        <time>2022-08-27T02:48:55Z</time>
      </trkpt>
      <trkpt lat="45.75011" lon="6.80346">
        <ele>2841</ele>
        <time>2022-08-27T02:48:57Z</time>
      </trkpt>
      <trkpt lat="45.75012" lon="6.80349">
        <ele>2842</ele>
        <time>2022-08-27T02:49:00Z</time>
      </trkpt>
      <trkpt lat="45.75013" lon="6.80351">
        <ele>2842</ele>
        <time>2022-08-27T02:49:02Z</time>
      </trkpt>
      <trkpt lat="45.75014" lon="6.80354">
        <ele>2842</ele>
        <time>2022-08-27T02:49:04Z</time>
      </trkpt>
      <trkpt lat="45.75016" lon="6.80356">
        <ele>2842</ele>
        <time>2022-08-27T02:49:06Z</time>
      </trkpt>
      <trkpt lat="45.75017" lon="6.80358">
        <ele>2842</ele>
        <time>2022-08-27T02:49:08Z</time>
      </trkpt>
      <trkpt lat="45.75018" lon="6.80361">
        <ele>2842</ele>
        <time>2022-08-27T02:49:10Z</time>
      </trkpt>
      <trkpt lat="45.75019" lon="6.80363">
        <ele>2842</ele>
        <time>2022-08-27T02:49:12Z</time>
      </trkpt>
      <trkpt lat="45.7502" lon="6.80367">
        <ele>2842</ele>
        <time>2022-08-27T02:49:14Z</time>
      </trkpt>
      <trkpt lat="45.75022" lon="6.8037">
        <ele>2842</ele>
        <time>2022-08-27T02:49:16Z</time>
      </trkpt>
      <trkpt lat="45.75023" lon="6.80372">
        <ele>2842</ele>
        <time>2022-08-27T02:49:18Z</time>
      </trkpt>
      <trkpt lat="45.75024" lon="6.80374">
        <ele>2843</ele>
        <time>2022-08-27T02:49:20Z</time>
      </trkpt>
      <trkpt lat="45.75026" lon="6.80377">
        <ele>2843</ele>
        <time>2022-08-27T02:49:23Z</time>
      </trkpt>
      <trkpt lat="45.75027" lon="6.80379">
        <ele>2843</ele>
        <time>2022-08-27T02:49:25Z</time>
      </trkpt>
      <trkpt lat="45.75028" lon="6.80382">
        <ele>2844</ele>
        <time>2022-08-27T02:49:27Z</time>
      </trkpt>
      <trkpt lat="45.7503" lon="6.80384">
        <ele>2844</ele>
        <time>2022-08-27T02:49:29Z</time>
      </trkpt>
      <trkpt lat="45.75031" lon="6.80387">
        <ele>2844</ele>
        <time>2022-08-27T02:49:31Z</time>
      </trkpt>
      <trkpt lat="45.75032" lon="6.80389">
        <ele>2845</ele>
        <time>2022-08-27T02:49:33Z</time>
      </trkpt>
      <trkpt lat="45.75034" lon="6.80391">
        <ele>2845</ele>
        <time>2022-08-27T02:49:35Z</time>
      </trkpt>
      <trkpt lat="45.75035" lon="6.80394">
        <ele>2845</ele>
        <time>2022-08-27T02:49:37Z</time>
      </trkpt>
      <trkpt lat="45.75035" lon="6.80397">
        <ele>2845</ele>
        <time>2022-08-27T02:49:39Z</time>
      </trkpt>
      <trkpt lat="45.75037" lon="6.80399">
        <ele>2845</ele>
        <time>2022-08-27T02:49:41Z</time>
      </trkpt>
      <trkpt lat="45.75038" lon="6.80402">
        <ele>2846</ele>
        <time>2022-08-27T02:49:43Z</time>
      </trkpt>
      <trkpt lat="45.75038" lon="6.80404">
        <ele>2846</ele>
        <time>2022-08-27T02:49:45Z</time>
      </trkpt>
      <trkpt lat="45.75039" lon="6.80407">
        <ele>2847</ele>
        <time>2022-08-27T02:49:47Z</time>
      </trkpt>
      <trkpt lat="45.7504" lon="6.80409">
        <ele>2847</ele>
        <time>2022-08-27T02:49:49Z</time>
      </trkpt>
      <trkpt lat="45.75041" lon="6.80412">
        <ele>2847</ele>
        <time>2022-08-27T02:49:51Z</time>
      </trkpt>
      <trkpt lat="45.75042" lon="6.80415">
        <ele>2847</ele>
        <time>2022-08-27T02:49:53Z</time>
      </trkpt>
      <trkpt lat="45.75044" lon="6.80417">
        <ele>2847</ele>
        <time>2022-08-27T02:49:55Z</time>
      </trkpt>
      <trkpt lat="45.75045" lon="6.8042">
        <ele>2847</ele>
        <time>2022-08-27T02:49:57Z</time>
      </trkpt>
      <trkpt lat="45.75047" lon="6.80422">
        <ele>2849</ele>
        <time>2022-08-27T02:49:59Z</time>
      </trkpt>
      <trkpt lat="45.75048" lon="6.80425">
        <ele>2849</ele>
        <time>2022-08-27T02:50:01Z</time>
      </trkpt>
      <trkpt lat="45.7505" lon="6.80428">
        <ele>2849</ele>
        <time>2022-08-27T02:50:03Z</time>
      </trkpt>
      <trkpt lat="45.75051" lon="6.8043">
        <ele>2849</ele>
        <time>2022-08-27T02:50:05Z</time>
      </trkpt>
      <trkpt lat="45.75052" lon="6.80433">
        <ele>2849</ele>
        <time>2022-08-27T02:50:07Z</time>
      </trkpt>
      <trkpt lat="45.75054" lon="6.80435">
        <ele>2850</ele>
        <time>2022-08-27T02:50:09Z</time>
      </trkpt>
      <trkpt lat="45.75055" lon="6.80438">
        <ele>2850</ele>
        <time>2022-08-27T02:50:11Z</time>
      </trkpt>
      <trkpt lat="45.75057" lon="6.80439">
        <ele>2850</ele>
        <time>2022-08-27T02:50:13Z</time>
      </trkpt>
      <trkpt lat="45.75059" lon="6.80442">
        <ele>2850</ele>
        <time>2022-08-27T02:50:15Z</time>
      </trkpt>
      <trkpt lat="45.7506" lon="6.80444">
        <ele>2850</ele>
        <time>2022-08-27T02:50:17Z</time>
      </trkpt>
      <trkpt lat="45.75061" lon="6.80446">
        <ele>2850</ele>
        <time>2022-08-27T02:50:19Z</time>
      </trkpt>
      <trkpt lat="45.75063" lon="6.80449">
        <ele>2850</ele>
        <time>2022-08-27T02:50:21Z</time>
      </trkpt>
      <trkpt lat="45.75064" lon="6.80451">
        <ele>2850</ele>
        <time>2022-08-27T02:50:23Z</time>
      </trkpt>
      <trkpt lat="45.75066" lon="6.80454">
        <ele>2850</ele>
        <time>2022-08-27T02:50:25Z</time>
      </trkpt>
      <trkpt lat="45.75067" lon="6.80456">
        <ele>2850</ele>
        <time>2022-08-27T02:50:27Z</time>
      </trkpt>
      <trkpt lat="45.75068" lon="6.80459">
        <ele>2850</ele>
        <time>2022-08-27T02:50:29Z</time>
      </trkpt>
      <trkpt lat="45.75069" lon="6.80461">
        <ele>2851</ele>
        <time>2022-08-27T02:50:31Z</time>
      </trkpt>
      <trkpt lat="45.7507" lon="6.80463">
        <ele>2852</ele>
        <time>2022-08-27T02:50:33Z</time>
      </trkpt>
      <trkpt lat="45.75072" lon="6.80466">
        <ele>2852</ele>
        <time>2022-08-27T02:50:36Z</time>
      </trkpt>
      <trkpt lat="45.75073" lon="6.80469">
        <ele>2853</ele>
        <time>2022-08-27T02:50:38Z</time>
      </trkpt>
      <trkpt lat="45.75073" lon="6.80471">
        <ele>2853</ele>
        <time>2022-08-27T02:50:40Z</time>
      </trkpt>
      <trkpt lat="45.75074" lon="6.80474">
        <ele>2853</ele>
        <time>2022-08-27T02:50:42Z</time>
      </trkpt>
      <trkpt lat="45.75074" lon="6.80477">
        <ele>2853</ele>
        <time>2022-08-27T02:50:44Z</time>
      </trkpt>
      <trkpt lat="45.75075" lon="6.8048">
        <ele>2854</ele>
        <time>2022-08-27T02:50:46Z</time>
      </trkpt>
      <trkpt lat="45.75076" lon="6.80483">
        <ele>2854</ele>
        <time>2022-08-27T02:50:48Z</time>
      </trkpt>
      <trkpt lat="45.75077" lon="6.80485">
        <ele>2854</ele>
        <time>2022-08-27T02:50:50Z</time>
      </trkpt>
      <trkpt lat="45.75077" lon="6.80488">
        <ele>2854</ele>
        <time>2022-08-27T02:50:52Z</time>
      </trkpt>
      <trkpt lat="45.75077" lon="6.80491">
        <ele>2854</ele>
        <time>2022-08-27T02:50:54Z</time>
      </trkpt>
      <trkpt lat="45.75078" lon="6.80494">
        <ele>2855</ele>
        <time>2022-08-27T02:50:56Z</time>
      </trkpt>
      <trkpt lat="45.75079" lon="6.80496">
        <ele>2855</ele>
        <time>2022-08-27T02:50:58Z</time>
      </trkpt>
      <trkpt lat="45.7508" lon="6.80499">
        <ele>2855</ele>
        <time>2022-08-27T02:51:00Z</time>
      </trkpt>
      <trkpt lat="45.7508" lon="6.80502">
        <ele>2855</ele>
        <time>2022-08-27T02:51:02Z</time>
      </trkpt>
      <trkpt lat="45.75081" lon="6.80505">
        <ele>2856</ele>
        <time>2022-08-27T02:51:04Z</time>
      </trkpt>
      <trkpt lat="45.75082" lon="6.80508">
        <ele>2856</ele>
        <time>2022-08-27T02:51:07Z</time>
      </trkpt>
      <trkpt lat="45.75083" lon="6.80511">
        <ele>2856</ele>
        <time>2022-08-27T02:51:09Z</time>
      </trkpt>
      <trkpt lat="45.75084" lon="6.80513">
        <ele>2856</ele>
        <time>2022-08-27T02:51:11Z</time>
      </trkpt>
      <trkpt lat="45.75085" lon="6.80515">
        <ele>2857</ele>
        <time>2022-08-27T02:51:13Z</time>
      </trkpt>
      <trkpt lat="45.75086" lon="6.80518">
        <ele>2857</ele>
        <time>2022-08-27T02:51:16Z</time>
      </trkpt>
      <trkpt lat="45.75087" lon="6.80522">
        <ele>2858</ele>
        <time>2022-08-27T02:51:19Z</time>
      </trkpt>
      <trkpt lat="45.75089" lon="6.80525">
        <ele>2859</ele>
        <time>2022-08-27T02:51:22Z</time>
      </trkpt>
      <trkpt lat="45.7509" lon="6.80528">
        <ele>2859</ele>
        <time>2022-08-27T02:51:24Z</time>
      </trkpt>
      <trkpt lat="45.75091" lon="6.8053">
        <ele>2859</ele>
        <time>2022-08-27T02:51:26Z</time>
      </trkpt>
      <trkpt lat="45.75092" lon="6.80532">
        <ele>2859</ele>
        <time>2022-08-27T02:51:28Z</time>
      </trkpt>
      <trkpt lat="45.75094" lon="6.80534">
        <ele>2859</ele>
        <time>2022-08-27T02:51:30Z</time>
      </trkpt>
      <trkpt lat="45.75095" lon="6.80537">
        <ele>2860</ele>
        <time>2022-08-27T02:51:32Z</time>
      </trkpt>
      <trkpt lat="45.75096" lon="6.80539">
        <ele>2860</ele>
        <time>2022-08-27T02:51:34Z</time>
      </trkpt>
      <trkpt lat="45.75097" lon="6.80541">
        <ele>2860</ele>
        <time>2022-08-27T02:51:36Z</time>
      </trkpt>
      <trkpt lat="45.75099" lon="6.80544">
        <ele>2860</ele>
        <time>2022-08-27T02:51:38Z</time>
      </trkpt>
      <trkpt lat="45.751" lon="6.80546">
        <ele>2860</ele>
        <time>2022-08-27T02:51:40Z</time>
      </trkpt>
      <trkpt lat="45.75101" lon="6.80548">
        <ele>2860</ele>
        <time>2022-08-27T02:51:42Z</time>
      </trkpt>
      <trkpt lat="45.75103" lon="6.80551">
        <ele>2863</ele>
        <time>2022-08-27T02:51:45Z</time>
      </trkpt>
      <trkpt lat="45.75104" lon="6.80553">
        <ele>2863</ele>
        <time>2022-08-27T02:51:47Z</time>
      </trkpt>
      <trkpt lat="45.75106" lon="6.80555">
        <ele>2863</ele>
        <time>2022-08-27T02:51:49Z</time>
      </trkpt>
      <trkpt lat="45.75107" lon="6.80557">
        <ele>2863</ele>
        <time>2022-08-27T02:51:51Z</time>
      </trkpt>
      <trkpt lat="45.75108" lon="6.8056">
        <ele>2863</ele>
        <time>2022-08-27T02:51:53Z</time>
      </trkpt>
      <trkpt lat="45.7511" lon="6.80562">
        <ele>2864</ele>
        <time>2022-08-27T02:51:55Z</time>
      </trkpt>
      <trkpt lat="45.75111" lon="6.80564">
        <ele>2864</ele>
        <time>2022-08-27T02:51:57Z</time>
      </trkpt>
      <trkpt lat="45.75113" lon="6.80566">
        <ele>2864</ele>
        <time>2022-08-27T02:51:59Z</time>
      </trkpt>
      <trkpt lat="45.75114" lon="6.80568">
        <ele>2864</ele>
        <time>2022-08-27T02:52:01Z</time>
      </trkpt>
      <trkpt lat="45.75116" lon="6.80569">
        <ele>2864</ele>
        <time>2022-08-27T02:52:03Z</time>
      </trkpt>
      <trkpt lat="45.75118" lon="6.80571">
        <ele>2865</ele>
        <time>2022-08-27T02:52:05Z</time>
      </trkpt>
      <trkpt lat="45.75119" lon="6.80573">
        <ele>2865</ele>
        <time>2022-08-27T02:52:08Z</time>
      </trkpt>
      <trkpt lat="45.75121" lon="6.80576">
        <ele>2866</ele>
        <time>2022-08-27T02:52:10Z</time>
      </trkpt>
      <trkpt lat="45.75122" lon="6.80578">
        <ele>2866</ele>
        <time>2022-08-27T02:52:12Z</time>
      </trkpt>
      <trkpt lat="45.75123" lon="6.8058">
        <ele>2866</ele>
        <time>2022-08-27T02:52:14Z</time>
      </trkpt>
      <trkpt lat="45.75124" lon="6.80583">
        <ele>2866</ele>
        <time>2022-08-27T02:52:16Z</time>
      </trkpt>
      <trkpt lat="45.75125" lon="6.80587">
        <ele>2867</ele>
        <time>2022-08-27T02:52:19Z</time>
      </trkpt>
      <trkpt lat="45.75126" lon="6.8059">
        <ele>2867</ele>
        <time>2022-08-27T02:52:21Z</time>
      </trkpt>
      <trkpt lat="45.75126" lon="6.80592">
        <ele>2867</ele>
        <time>2022-08-27T02:52:23Z</time>
      </trkpt>
      <trkpt lat="45.75127" lon="6.80595">
        <ele>2868</ele>
        <time>2022-08-27T02:52:25Z</time>
      </trkpt>
      <trkpt lat="45.75128" lon="6.80598">
        <ele>2868</ele>
        <time>2022-08-27T02:52:27Z</time>
      </trkpt>
      <trkpt lat="45.75129" lon="6.806">
        <ele>2867</ele>
        <time>2022-08-27T02:52:29Z</time>
      </trkpt>
      <trkpt lat="45.75129" lon="6.80603">
        <ele>2868</ele>
        <time>2022-08-27T02:52:31Z</time>
      </trkpt>
      <trkpt lat="45.75131" lon="6.80606">
        <ele>2868</ele>
        <time>2022-08-27T02:52:34Z</time>
      </trkpt>
      <trkpt lat="45.75132" lon="6.80609">
        <ele>2869</ele>
        <time>2022-08-27T02:52:36Z</time>
      </trkpt>
      <trkpt lat="45.75133" lon="6.80611">
        <ele>2869</ele>
        <time>2022-08-27T02:52:38Z</time>
      </trkpt>
      <trkpt lat="45.75134" lon="6.80613">
        <ele>2869</ele>
        <time>2022-08-27T02:52:40Z</time>
      </trkpt>
      <trkpt lat="45.75135" lon="6.80615">
        <ele>2869</ele>
        <time>2022-08-27T02:52:42Z</time>
      </trkpt>
      <trkpt lat="45.75136" lon="6.80617">
        <ele>2870</ele>
        <time>2022-08-27T02:52:44Z</time>
      </trkpt>
      <trkpt lat="45.75137" lon="6.8062">
        <ele>2870</ele>
        <time>2022-08-27T02:52:46Z</time>
      </trkpt>
      <trkpt lat="45.75139" lon="6.80622">
        <ele>2870</ele>
        <time>2022-08-27T02:52:48Z</time>
      </trkpt>
      <trkpt lat="45.7514" lon="6.80624">
        <ele>2870</ele>
        <time>2022-08-27T02:52:50Z</time>
      </trkpt>
      <trkpt lat="45.75143" lon="6.80626">
        <ele>2871</ele>
        <time>2022-08-27T02:52:53Z</time>
      </trkpt>
      <trkpt lat="45.75144" lon="6.80628">
        <ele>2872</ele>
        <time>2022-08-27T02:52:55Z</time>
      </trkpt>
      <trkpt lat="45.75145" lon="6.80631">
        <ele>2872</ele>
        <time>2022-08-27T02:52:57Z</time>
      </trkpt>
      <trkpt lat="45.75146" lon="6.80633">
        <ele>2872</ele>
        <time>2022-08-27T02:52:59Z</time>
      </trkpt>
      <trkpt lat="45.75146" lon="6.80637">
        <ele>2872</ele>
        <time>2022-08-27T02:53:01Z</time>
      </trkpt>
      <trkpt lat="45.75147" lon="6.8064">
        <ele>2872</ele>
        <time>2022-08-27T02:53:03Z</time>
      </trkpt>
      <trkpt lat="45.75147" lon="6.80643">
        <ele>2874</ele>
        <time>2022-08-27T02:53:05Z</time>
      </trkpt>
      <trkpt lat="45.75147" lon="6.80646">
        <ele>2874</ele>
        <time>2022-08-27T02:53:07Z</time>
      </trkpt>
      <trkpt lat="45.75147" lon="6.80649">
        <ele>2874</ele>
        <time>2022-08-27T02:53:09Z</time>
      </trkpt>
      <trkpt lat="45.75148" lon="6.80652">
        <ele>2874</ele>
        <time>2022-08-27T02:53:11Z</time>
      </trkpt>
      <trkpt lat="45.75148" lon="6.80655">
        <ele>2874</ele>
        <time>2022-08-27T02:53:13Z</time>
      </trkpt>
      <trkpt lat="45.75148" lon="6.80658">
        <ele>2874</ele>
        <time>2022-08-27T02:53:15Z</time>
      </trkpt>
      <trkpt lat="45.75148" lon="6.80661">
        <ele>2874</ele>
        <time>2022-08-27T02:53:17Z</time>
      </trkpt>
      <trkpt lat="45.75148" lon="6.80664">
        <ele>2874</ele>
        <time>2022-08-27T02:53:24Z</time>
      </trkpt>
      <trkpt lat="45.75149" lon="6.80667">
        <ele>2875</ele>
        <time>2022-08-27T02:53:27Z</time>
      </trkpt>
      <trkpt lat="45.75149" lon="6.8067">
        <ele>2875</ele>
        <time>2022-08-27T02:53:29Z</time>
      </trkpt>
      <trkpt lat="45.75149" lon="6.80673">
        <ele>2875</ele>
        <time>2022-08-27T02:53:31Z</time>
      </trkpt>
      <trkpt lat="45.75149" lon="6.80676">
        <ele>2875</ele>
        <time>2022-08-27T02:53:33Z</time>
      </trkpt>
      <trkpt lat="45.75149" lon="6.8068">
        <ele>2875</ele>
        <time>2022-08-27T02:53:35Z</time>
      </trkpt>
      <trkpt lat="45.75148" lon="6.80683">
        <ele>2875</ele>
        <time>2022-08-27T02:53:37Z</time>
      </trkpt>
      <trkpt lat="45.75147" lon="6.80687">
        <ele>2875</ele>
        <time>2022-08-27T02:53:39Z</time>
      </trkpt>
      <trkpt lat="45.75147" lon="6.8069">
        <ele>2875</ele>
        <time>2022-08-27T02:53:41Z</time>
      </trkpt>
      <trkpt lat="45.75146" lon="6.80693">
        <ele>2875</ele>
        <time>2022-08-27T02:53:43Z</time>
      </trkpt>
      <trkpt lat="45.75145" lon="6.80697">
        <ele>2874</ele>
        <time>2022-08-27T02:53:45Z</time>
      </trkpt>
      <trkpt lat="45.75144" lon="6.80701">
        <ele>2875</ele>
        <time>2022-08-27T02:53:47Z</time>
      </trkpt>
      <trkpt lat="45.75143" lon="6.80704">
        <ele>2875</ele>
        <time>2022-08-27T02:53:49Z</time>
      </trkpt>
      <trkpt lat="45.75142" lon="6.80707">
        <ele>2875</ele>
        <time>2022-08-27T02:53:51Z</time>
      </trkpt>
      <trkpt lat="45.75141" lon="6.8071">
        <ele>2875</ele>
        <time>2022-08-27T02:53:53Z</time>
      </trkpt>
      <trkpt lat="45.75141" lon="6.80713">
        <ele>2876</ele>
        <time>2022-08-27T02:53:55Z</time>
      </trkpt>
      <trkpt lat="45.7514" lon="6.80716">
        <ele>2876</ele>
        <time>2022-08-27T02:53:57Z</time>
      </trkpt>
      <trkpt lat="45.7514" lon="6.80716">
        <ele>2876</ele>
        <time>2022-08-27T02:54:16Z</time>
      </trkpt>
      <trkpt lat="45.7514" lon="6.80716">
        <ele>2876</ele>
        <time>2022-08-27T02:54:34Z</time>
      </trkpt>
      <trkpt lat="45.7514" lon="6.80719">
        <ele>2876</ele>
        <time>2022-08-27T02:54:52Z</time>
      </trkpt>
      <trkpt lat="45.75139" lon="6.80722">
        <ele>2876</ele>
        <time>2022-08-27T02:54:54Z</time>
      </trkpt>
      <trkpt lat="45.75138" lon="6.80725">
        <ele>2876</ele>
        <time>2022-08-27T02:54:56Z</time>
      </trkpt>
      <trkpt lat="45.75137" lon="6.80727">
        <ele>2876</ele>
        <time>2022-08-27T02:54:58Z</time>
      </trkpt>
      <trkpt lat="45.75135" lon="6.8073">
        <ele>2875</ele>
        <time>2022-08-27T02:55:00Z</time>
      </trkpt>
      <trkpt lat="45.75134" lon="6.80733">
        <ele>2876</ele>
        <time>2022-08-27T02:55:02Z</time>
      </trkpt>
      <trkpt lat="45.75133" lon="6.80736">
        <ele>2876</ele>
        <time>2022-08-27T02:55:04Z</time>
      </trkpt>
      <trkpt lat="45.75131" lon="6.80739">
        <ele>2876</ele>
        <time>2022-08-27T02:55:06Z</time>
      </trkpt>
      <trkpt lat="45.75129" lon="6.80741">
        <ele>2875</ele>
        <time>2022-08-27T02:55:08Z</time>
      </trkpt>
      <trkpt lat="45.75127" lon="6.80743">
        <ele>2875</ele>
        <time>2022-08-27T02:55:10Z</time>
      </trkpt>
      <trkpt lat="45.75126" lon="6.80746">
        <ele>2875</ele>
        <time>2022-08-27T02:55:12Z</time>
      </trkpt>
      <trkpt lat="45.75125" lon="6.80749">
        <ele>2874</ele>
        <time>2022-08-27T02:55:14Z</time>
      </trkpt>
      <trkpt lat="45.75124" lon="6.80752">
        <ele>2874</ele>
        <time>2022-08-27T02:55:16Z</time>
      </trkpt>
      <trkpt lat="45.75124" lon="6.80755">
        <ele>2874</ele>
        <time>2022-08-27T02:55:18Z</time>
      </trkpt>
      <trkpt lat="45.75123" lon="6.80759">
        <ele>2872</ele>
        <time>2022-08-27T02:55:20Z</time>
      </trkpt>
      <trkpt lat="45.75123" lon="6.80762">
        <ele>2872</ele>
        <time>2022-08-27T02:55:22Z</time>
      </trkpt>
      <trkpt lat="45.75122" lon="6.80765">
        <ele>2871</ele>
        <time>2022-08-27T02:55:24Z</time>
      </trkpt>
      <trkpt lat="45.75119" lon="6.80769">
        <ele>2871</ele>
        <time>2022-08-27T02:55:26Z</time>
      </trkpt>
      <trkpt lat="45.75118" lon="6.80769">
        <ele>2871</ele>
        <time>2022-08-27T02:55:27Z</time>
      </trkpt>
      <trkpt lat="45.75117" lon="6.8077">
        <ele>2870</ele>
        <time>2022-08-27T02:55:28Z</time>
      </trkpt>
      <trkpt lat="45.75115" lon="6.80771">
        <ele>2870</ele>
        <time>2022-08-27T02:55:29Z</time>
      </trkpt>
      <trkpt lat="45.75113" lon="6.80771">
        <ele>2870</ele>
        <time>2022-08-27T02:55:30Z</time>
      </trkpt>
      <trkpt lat="45.7511" lon="6.80773">
        <ele>2870</ele>
        <time>2022-08-27T02:55:32Z</time>
      </trkpt>
      <trkpt lat="45.75108" lon="6.80774">
        <ele>2869</ele>
        <time>2022-08-27T02:55:33Z</time>
      </trkpt>
      <trkpt lat="45.75106" lon="6.80775">
        <ele>2869</ele>
        <time>2022-08-27T02:55:34Z</time>
      </trkpt>
      <trkpt lat="45.75104" lon="6.80776">
        <ele>2869</ele>
        <time>2022-08-27T02:55:35Z</time>
      </trkpt>
      <trkpt lat="45.75102" lon="6.80777">
        <ele>2869</ele>
        <time>2022-08-27T02:55:36Z</time>
      </trkpt>
      <trkpt lat="45.75101" lon="6.80778">
        <ele>2868</ele>
        <time>2022-08-27T02:55:37Z</time>
      </trkpt>
      <trkpt lat="45.75099" lon="6.80779">
        <ele>2868</ele>
        <time>2022-08-27T02:55:38Z</time>
      </trkpt>
      <trkpt lat="45.75097" lon="6.80781">
        <ele>2868</ele>
        <time>2022-08-27T02:55:39Z</time>
      </trkpt>
      <trkpt lat="45.75095" lon="6.80784">
        <ele>2867</ele>
        <time>2022-08-27T02:55:41Z</time>
      </trkpt>
      <trkpt lat="45.75094" lon="6.80787">
        <ele>2867</ele>
        <time>2022-08-27T02:55:42Z</time>
      </trkpt>
      <trkpt lat="45.75094" lon="6.80789">
        <ele>2867</ele>
        <time>2022-08-27T02:55:43Z</time>
      </trkpt>
      <trkpt lat="45.75094" lon="6.80792">
        <ele>2866</ele>
        <time>2022-08-27T02:55:44Z</time>
      </trkpt>
      <trkpt lat="45.75093" lon="6.80795">
        <ele>2866</ele>
        <time>2022-08-27T02:55:45Z</time>
      </trkpt>
      <trkpt lat="45.75093" lon="6.80798">
        <ele>2866</ele>
        <time>2022-08-27T02:55:46Z</time>
      </trkpt>
      <trkpt lat="45.75093" lon="6.80802">
        <ele>2866</ele>
        <time>2022-08-27T02:55:47Z</time>
      </trkpt>
      <trkpt lat="45.75094" lon="6.80804">
        <ele>2866</ele>
        <time>2022-08-27T02:55:48Z</time>
      </trkpt>
      <trkpt lat="45.75094" lon="6.80806">
        <ele>2866</ele>
        <time>2022-08-27T02:55:49Z</time>
      </trkpt>
      <trkpt lat="45.75095" lon="6.80809">
        <ele>2865</ele>
        <time>2022-08-27T02:55:50Z</time>
      </trkpt>
      <trkpt lat="45.75096" lon="6.80813">
        <ele>2865</ele>
        <time>2022-08-27T02:55:52Z</time>
      </trkpt>
      <trkpt lat="45.75099" lon="6.80816">
        <ele>2864</ele>
        <time>2022-08-27T02:55:54Z</time>
      </trkpt>
      <trkpt lat="45.751" lon="6.80818">
        <ele>2864</ele>
        <time>2022-08-27T02:55:55Z</time>
      </trkpt>
      <trkpt lat="45.75103" lon="6.80824">
        <ele>2864</ele>
        <time>2022-08-27T02:55:57Z</time>
      </trkpt>
      <trkpt lat="45.75103" lon="6.80825">
        <ele>2864</ele>
        <time>2022-08-27T02:55:58Z</time>
      </trkpt>
      <trkpt lat="45.75104" lon="6.80827">
        <ele>2864</ele>
        <time>2022-08-27T02:55:59Z</time>
      </trkpt>
      <trkpt lat="45.75105" lon="6.80829">
        <ele>2862</ele>
        <time>2022-08-27T02:56:00Z</time>
      </trkpt>
      <trkpt lat="45.75107" lon="6.80833">
        <ele>2862</ele>
        <time>2022-08-27T02:56:02Z</time>
      </trkpt>
      <trkpt lat="45.75109" lon="6.80837">
        <ele>2860</ele>
        <time>2022-08-27T02:56:04Z</time>
      </trkpt>
      <trkpt lat="45.75109" lon="6.8084">
        <ele>2860</ele>
        <time>2022-08-27T02:56:05Z</time>
      </trkpt>
      <trkpt lat="45.7511" lon="6.80842">
        <ele>2860</ele>
        <time>2022-08-27T02:56:06Z</time>
      </trkpt>
      <trkpt lat="45.75111" lon="6.80845">
        <ele>2860</ele>
        <time>2022-08-27T02:56:07Z</time>
      </trkpt>
      <trkpt lat="45.75112" lon="6.80847">
        <ele>2859</ele>
        <time>2022-08-27T02:56:08Z</time>
      </trkpt>
      <trkpt lat="45.75113" lon="6.80849">
        <ele>2859</ele>
        <time>2022-08-27T02:56:09Z</time>
      </trkpt>
      <trkpt lat="45.75115" lon="6.80853">
        <ele>2859</ele>
        <time>2022-08-27T02:56:11Z</time>
      </trkpt>
      <trkpt lat="45.75117" lon="6.80858">
        <ele>2858</ele>
        <time>2022-08-27T02:56:13Z</time>
      </trkpt>
      <trkpt lat="45.75118" lon="6.80862">
        <ele>2858</ele>
        <time>2022-08-27T02:56:15Z</time>
      </trkpt>
      <trkpt lat="45.75119" lon="6.80866">
        <ele>2858</ele>
        <time>2022-08-27T02:56:17Z</time>
      </trkpt>
      <trkpt lat="45.7512" lon="6.8087">
        <ele>2857</ele>
        <time>2022-08-27T02:56:19Z</time>
      </trkpt>
      <trkpt lat="45.75122" lon="6.80874">
        <ele>2857</ele>
        <time>2022-08-27T02:56:21Z</time>
      </trkpt>
      <trkpt lat="45.75123" lon="6.80876">
        <ele>2857</ele>
        <time>2022-08-27T02:56:22Z</time>
      </trkpt>
      <trkpt lat="45.75124" lon="6.8088">
        <ele>2857</ele>
        <time>2022-08-27T02:56:24Z</time>
      </trkpt>
      <trkpt lat="45.75123" lon="6.80885">
        <ele>2856</ele>
        <time>2022-08-27T02:56:26Z</time>
      </trkpt>
      <trkpt lat="45.75123" lon="6.80889">
        <ele>2856</ele>
        <time>2022-08-27T02:56:28Z</time>
      </trkpt>
      <trkpt lat="45.75122" lon="6.80894">
        <ele>2856</ele>
        <time>2022-08-27T02:56:30Z</time>
      </trkpt>
      <trkpt lat="45.75121" lon="6.80899">
        <ele>2855</ele>
        <time>2022-08-27T02:56:32Z</time>
      </trkpt>
      <trkpt lat="45.75121" lon="6.80902">
        <ele>2855</ele>
        <time>2022-08-27T02:56:33Z</time>
      </trkpt>
      <trkpt lat="45.75122" lon="6.80908">
        <ele>2854</ele>
        <time>2022-08-27T02:56:35Z</time>
      </trkpt>
      <trkpt lat="45.75122" lon="6.80909">
        <ele>2854</ele>
        <time>2022-08-27T02:56:36Z</time>
      </trkpt>
      <trkpt lat="45.75123" lon="6.80913">
        <ele>2853</ele>
        <time>2022-08-27T02:56:38Z</time>
      </trkpt>
      <trkpt lat="45.75124" lon="6.80918">
        <ele>2853</ele>
        <time>2022-08-27T02:56:40Z</time>
      </trkpt>
      <trkpt lat="45.75125" lon="6.80922">
        <ele>2853</ele>
        <time>2022-08-27T02:56:42Z</time>
      </trkpt>
      <trkpt lat="45.75127" lon="6.80926">
        <ele>2853</ele>
        <time>2022-08-27T02:56:44Z</time>
      </trkpt>
      <trkpt lat="45.75128" lon="6.8093">
        <ele>2852</ele>
        <time>2022-08-27T02:56:46Z</time>
      </trkpt>
      <trkpt lat="45.7513" lon="6.80933">
        <ele>2852</ele>
        <time>2022-08-27T02:56:48Z</time>
      </trkpt>
      <trkpt lat="45.75132" lon="6.80936">
        <ele>2851</ele>
        <time>2022-08-27T02:56:50Z</time>
      </trkpt>
      <trkpt lat="45.75133" lon="6.8094">
        <ele>2851</ele>
        <time>2022-08-27T02:56:52Z</time>
      </trkpt>
      <trkpt lat="45.75133" lon="6.80945">
        <ele>2851</ele>
        <time>2022-08-27T02:56:54Z</time>
      </trkpt>
      <trkpt lat="45.75134" lon="6.80949">
        <ele>2849</ele>
        <time>2022-08-27T02:56:56Z</time>
      </trkpt>
      <trkpt lat="45.75134" lon="6.80953">
        <ele>2849</ele>
        <time>2022-08-27T02:56:58Z</time>
      </trkpt>
      <trkpt lat="45.75135" lon="6.80956">
        <ele>2847</ele>
        <time>2022-08-27T02:57:00Z</time>
      </trkpt>
      <trkpt lat="45.75135" lon="6.8096">
        <ele>2846</ele>
        <time>2022-08-27T02:57:02Z</time>
      </trkpt>
      <trkpt lat="45.75135" lon="6.80963">
        <ele>2845</ele>
        <time>2022-08-27T02:57:04Z</time>
      </trkpt>
      <trkpt lat="45.75135" lon="6.80967">
        <ele>2845</ele>
        <time>2022-08-27T02:57:06Z</time>
      </trkpt>
      <trkpt lat="45.75135" lon="6.8097">
        <ele>2843</ele>
        <time>2022-08-27T02:57:08Z</time>
      </trkpt>
      <trkpt lat="45.75136" lon="6.80975">
        <ele>2842</ele>
        <time>2022-08-27T02:57:10Z</time>
      </trkpt>
      <trkpt lat="45.75137" lon="6.80977">
        <ele>2842</ele>
        <time>2022-08-27T02:57:11Z</time>
      </trkpt>
      <trkpt lat="45.75138" lon="6.80979">
        <ele>2842</ele>
        <time>2022-08-27T02:57:12Z</time>
      </trkpt>
      <trkpt lat="45.7514" lon="6.80982">
        <ele>2842</ele>
        <time>2022-08-27T02:57:14Z</time>
      </trkpt>
      <trkpt lat="45.75142" lon="6.80984">
        <ele>2842</ele>
        <time>2022-08-27T02:57:15Z</time>
      </trkpt>
      <trkpt lat="45.75144" lon="6.80987">
        <ele>2842</ele>
        <time>2022-08-27T02:57:17Z</time>
      </trkpt>
      <trkpt lat="45.75146" lon="6.80991">
        <ele>2842</ele>
        <time>2022-08-27T02:57:19Z</time>
      </trkpt>
      <trkpt lat="45.75147" lon="6.80993">
        <ele>2842</ele>
        <time>2022-08-27T02:57:20Z</time>
      </trkpt>
      <trkpt lat="45.75148" lon="6.80995">
        <ele>2842</ele>
        <time>2022-08-27T02:57:21Z</time>
      </trkpt>
      <trkpt lat="45.75149" lon="6.80998">
        <ele>2842</ele>
        <time>2022-08-27T02:57:22Z</time>
      </trkpt>
      <trkpt lat="45.7515" lon="6.81001">
        <ele>2841</ele>
        <time>2022-08-27T02:57:23Z</time>
      </trkpt>
      <trkpt lat="45.75151" lon="6.81003">
        <ele>2841</ele>
        <time>2022-08-27T02:57:24Z</time>
      </trkpt>
      <trkpt lat="45.75152" lon="6.81007">
        <ele>2841</ele>
        <time>2022-08-27T02:57:25Z</time>
      </trkpt>
      <trkpt lat="45.75152" lon="6.81009">
        <ele>2841</ele>
        <time>2022-08-27T02:57:26Z</time>
      </trkpt>
      <trkpt lat="45.75152" lon="6.81012">
        <ele>2841</ele>
        <time>2022-08-27T02:57:27Z</time>
      </trkpt>
      <trkpt lat="45.75153" lon="6.81015">
        <ele>2840</ele>
        <time>2022-08-27T02:57:28Z</time>
      </trkpt>
      <trkpt lat="45.75153" lon="6.81017">
        <ele>2840</ele>
        <time>2022-08-27T02:57:29Z</time>
      </trkpt>
      <trkpt lat="45.75155" lon="6.81022">
        <ele>2840</ele>
        <time>2022-08-27T02:57:31Z</time>
      </trkpt>
      <trkpt lat="45.75155" lon="6.81025">
        <ele>2839</ele>
        <time>2022-08-27T02:57:32Z</time>
      </trkpt>
      <trkpt lat="45.75157" lon="6.81029">
        <ele>2838</ele>
        <time>2022-08-27T02:57:34Z</time>
      </trkpt>
      <trkpt lat="45.75158" lon="6.81033">
        <ele>2838</ele>
        <time>2022-08-27T02:57:36Z</time>
      </trkpt>
      <trkpt lat="45.7516" lon="6.81037">
        <ele>2838</ele>
        <time>2022-08-27T02:57:38Z</time>
      </trkpt>
      <trkpt lat="45.75161" lon="6.8104">
        <ele>2837</ele>
        <time>2022-08-27T02:57:40Z</time>
      </trkpt>
      <trkpt lat="45.75161" lon="6.81044">
        <ele>2835</ele>
        <time>2022-08-27T02:57:42Z</time>
      </trkpt>
      <trkpt lat="45.75159" lon="6.81048">
        <ele>2834</ele>
        <time>2022-08-27T02:57:44Z</time>
      </trkpt>
      <trkpt lat="45.75158" lon="6.81053">
        <ele>2833</ele>
        <time>2022-08-27T02:57:46Z</time>
      </trkpt>
      <trkpt lat="45.75158" lon="6.81056">
        <ele>2833</ele>
        <time>2022-08-27T02:57:47Z</time>
      </trkpt>
      <trkpt lat="45.75157" lon="6.81059">
        <ele>2833</ele>
        <time>2022-08-27T02:57:48Z</time>
      </trkpt>
      <trkpt lat="45.75157" lon="6.81062">
        <ele>2832</ele>
        <time>2022-08-27T02:57:49Z</time>
      </trkpt>
      <trkpt lat="45.75157" lon="6.81064">
        <ele>2832</ele>
        <time>2022-08-27T02:57:50Z</time>
      </trkpt>
      <trkpt lat="45.75157" lon="6.81067">
        <ele>2832</ele>
        <time>2022-08-27T02:57:51Z</time>
      </trkpt>
      <trkpt lat="45.75157" lon="6.81069">
        <ele>2832</ele>
        <time>2022-08-27T02:57:52Z</time>
      </trkpt>
      <trkpt lat="45.75158" lon="6.81073">
        <ele>2831</ele>
        <time>2022-08-27T02:57:54Z</time>
      </trkpt>
      <trkpt lat="45.7516" lon="6.81077">
        <ele>2831</ele>
        <time>2022-08-27T02:57:56Z</time>
      </trkpt>
      <trkpt lat="45.75162" lon="6.81081">
        <ele>2830</ele>
        <time>2022-08-27T02:57:58Z</time>
      </trkpt>
      <trkpt lat="45.75164" lon="6.81086">
        <ele>2829</ele>
        <time>2022-08-27T02:58:00Z</time>
      </trkpt>
      <trkpt lat="45.75164" lon="6.81088">
        <ele>2829</ele>
        <time>2022-08-27T02:58:01Z</time>
      </trkpt>
      <trkpt lat="45.75164" lon="6.81091">
        <ele>2829</ele>
        <time>2022-08-27T02:58:02Z</time>
      </trkpt>
      <trkpt lat="45.75165" lon="6.81093">
        <ele>2829</ele>
        <time>2022-08-27T02:58:03Z</time>
      </trkpt>
      <trkpt lat="45.75166" lon="6.81096">
        <ele>2829</ele>
        <time>2022-08-27T02:58:04Z</time>
      </trkpt>
      <trkpt lat="45.75167" lon="6.811">
        <ele>2829</ele>
        <time>2022-08-27T02:58:06Z</time>
      </trkpt>
      <trkpt lat="45.75168" lon="6.81105">
        <ele>2829</ele>
        <time>2022-08-27T02:58:08Z</time>
      </trkpt>
      <trkpt lat="45.75169" lon="6.81109">
        <ele>2828</ele>
        <time>2022-08-27T02:58:10Z</time>
      </trkpt>
      <trkpt lat="45.7517" lon="6.81113">
        <ele>2827</ele>
        <time>2022-08-27T02:58:12Z</time>
      </trkpt>
      <trkpt lat="45.75171" lon="6.81118">
        <ele>2827</ele>
        <time>2022-08-27T02:58:14Z</time>
      </trkpt>
      <trkpt lat="45.75171" lon="6.81122">
        <ele>2825</ele>
        <time>2022-08-27T02:58:16Z</time>
      </trkpt>
      <trkpt lat="45.75171" lon="6.81127">
        <ele>2825</ele>
        <time>2022-08-27T02:58:18Z</time>
      </trkpt>
      <trkpt lat="45.75171" lon="6.81131">
        <ele>2823</ele>
        <time>2022-08-27T02:58:20Z</time>
      </trkpt>
      <trkpt lat="45.7517" lon="6.81136">
        <ele>2823</ele>
        <time>2022-08-27T02:58:22Z</time>
      </trkpt>
      <trkpt lat="45.7517" lon="6.8114">
        <ele>2822</ele>
        <time>2022-08-27T02:58:24Z</time>
      </trkpt>
      <trkpt lat="45.75172" lon="6.81144">
        <ele>2821</ele>
        <time>2022-08-27T02:58:26Z</time>
      </trkpt>
      <trkpt lat="45.75173" lon="6.81148">
        <ele>2821</ele>
        <time>2022-08-27T02:58:28Z</time>
      </trkpt>
      <trkpt lat="45.75175" lon="6.81152">
        <ele>2820</ele>
        <time>2022-08-27T02:58:30Z</time>
      </trkpt>
      <trkpt lat="45.75176" lon="6.81156">
        <ele>2819</ele>
        <time>2022-08-27T02:58:32Z</time>
      </trkpt>
      <trkpt lat="45.75176" lon="6.8116">
        <ele>2819</ele>
        <time>2022-08-27T02:58:34Z</time>
      </trkpt>
      <trkpt lat="45.75176" lon="6.81163">
        <ele>2818</ele>
        <time>2022-08-27T02:58:36Z</time>
      </trkpt>
      <trkpt lat="45.75176" lon="6.81166">
        <ele>2817</ele>
        <time>2022-08-27T02:58:38Z</time>
      </trkpt>
      <trkpt lat="45.75177" lon="6.81169">
        <ele>2817</ele>
        <time>2022-08-27T02:58:40Z</time>
      </trkpt>
      <trkpt lat="45.75177" lon="6.81173">
        <ele>2816</ele>
        <time>2022-08-27T02:58:42Z</time>
      </trkpt>
      <trkpt lat="45.75176" lon="6.81177">
        <ele>2816</ele>
        <time>2022-08-27T02:58:44Z</time>
      </trkpt>
      <trkpt lat="45.75175" lon="6.81181">
        <ele>2816</ele>
        <time>2022-08-27T02:58:46Z</time>
      </trkpt>
      <trkpt lat="45.75174" lon="6.81185">
        <ele>2815</ele>
        <time>2022-08-27T02:58:48Z</time>
      </trkpt>
      <trkpt lat="45.75171" lon="6.81189">
        <ele>2813</ele>
        <time>2022-08-27T02:58:50Z</time>
      </trkpt>
      <trkpt lat="45.75169" lon="6.8119">
        <ele>2813</ele>
        <time>2022-08-27T02:58:51Z</time>
      </trkpt>
      <trkpt lat="45.75168" lon="6.81191">
        <ele>2813</ele>
        <time>2022-08-27T02:58:52Z</time>
      </trkpt>
      <trkpt lat="45.75166" lon="6.81193">
        <ele>2813</ele>
        <time>2022-08-27T02:58:53Z</time>
      </trkpt>
      <trkpt lat="45.75164" lon="6.81194">
        <ele>2811</ele>
        <time>2022-08-27T02:58:54Z</time>
      </trkpt>
      <trkpt lat="45.75163" lon="6.81195">
        <ele>2811</ele>
        <time>2022-08-27T02:58:55Z</time>
      </trkpt>
      <trkpt lat="45.7516" lon="6.81198">
        <ele>2810</ele>
        <time>2022-08-27T02:58:57Z</time>
      </trkpt>
      <trkpt lat="45.75159" lon="6.812">
        <ele>2809</ele>
        <time>2022-08-27T02:58:58Z</time>
      </trkpt>
      <trkpt lat="45.75157" lon="6.81204">
        <ele>2808</ele>
        <time>2022-08-27T02:59:00Z</time>
      </trkpt>
      <trkpt lat="45.75155" lon="6.81207">
        <ele>2809</ele>
        <time>2022-08-27T02:59:02Z</time>
      </trkpt>
      <trkpt lat="45.75154" lon="6.81211">
        <ele>2809</ele>
        <time>2022-08-27T02:59:04Z</time>
      </trkpt>
      <trkpt lat="45.75153" lon="6.81214">
        <ele>2809</ele>
        <time>2022-08-27T02:59:06Z</time>
      </trkpt>
      <trkpt lat="45.75153" lon="6.81219">
        <ele>2807</ele>
        <time>2022-08-27T02:59:08Z</time>
      </trkpt>
      <trkpt lat="45.75154" lon="6.81223">
        <ele>2806</ele>
        <time>2022-08-27T02:59:10Z</time>
      </trkpt>
      <trkpt lat="45.75153" lon="6.81227">
        <ele>2806</ele>
        <time>2022-08-27T02:59:12Z</time>
      </trkpt>
      <trkpt lat="45.75153" lon="6.81232">
        <ele>2805</ele>
        <time>2022-08-27T02:59:14Z</time>
      </trkpt>
      <trkpt lat="45.75154" lon="6.81235">
        <ele>2805</ele>
        <time>2022-08-27T02:59:16Z</time>
      </trkpt>
      <trkpt lat="45.75155" lon="6.81239">
        <ele>2804</ele>
        <time>2022-08-27T02:59:18Z</time>
      </trkpt>
      <trkpt lat="45.75155" lon="6.81243">
        <ele>2803</ele>
        <time>2022-08-27T02:59:20Z</time>
      </trkpt>
      <trkpt lat="45.75156" lon="6.81248">
        <ele>2803</ele>
        <time>2022-08-27T02:59:22Z</time>
      </trkpt>
      <trkpt lat="45.75157" lon="6.8125">
        <ele>2803</ele>
        <time>2022-08-27T02:59:23Z</time>
      </trkpt>
      <trkpt lat="45.75157" lon="6.81253">
        <ele>2803</ele>
        <time>2022-08-27T02:59:24Z</time>
      </trkpt>
      <trkpt lat="45.75158" lon="6.81256">
        <ele>2802</ele>
        <time>2022-08-27T02:59:25Z</time>
      </trkpt>
      <trkpt lat="45.75159" lon="6.8126">
        <ele>2802</ele>
        <time>2022-08-27T02:59:26Z</time>
      </trkpt>
      <trkpt lat="45.75159" lon="6.81261">
        <ele>2799</ele>
        <time>2022-08-27T02:59:27Z</time>
      </trkpt>
      <trkpt lat="45.7516" lon="6.81266">
        <ele>2799</ele>
        <time>2022-08-27T02:59:29Z</time>
      </trkpt>
      <trkpt lat="45.7516" lon="6.8127">
        <ele>2799</ele>
        <time>2022-08-27T02:59:31Z</time>
      </trkpt>
      <trkpt lat="45.75161" lon="6.81274">
        <ele>2799</ele>
        <time>2022-08-27T02:59:33Z</time>
      </trkpt>
      <trkpt lat="45.75162" lon="6.81279">
        <ele>2798</ele>
        <time>2022-08-27T02:59:35Z</time>
      </trkpt>
      <trkpt lat="45.75163" lon="6.81284">
        <ele>2798</ele>
        <time>2022-08-27T02:59:37Z</time>
      </trkpt>
      <trkpt lat="45.75163" lon="6.81288">
        <ele>2798</ele>
        <time>2022-08-27T02:59:39Z</time>
      </trkpt>
      <trkpt lat="45.75164" lon="6.81293">
        <ele>2797</ele>
        <time>2022-08-27T02:59:41Z</time>
      </trkpt>
      <trkpt lat="45.75165" lon="6.81297">
        <ele>2797</ele>
        <time>2022-08-27T02:59:43Z</time>
      </trkpt>
      <trkpt lat="45.75166" lon="6.81303">
        <ele>2797</ele>
        <time>2022-08-27T02:59:45Z</time>
      </trkpt>
      <trkpt lat="45.75166" lon="6.81304">
        <ele>2795</ele>
        <time>2022-08-27T02:59:46Z</time>
      </trkpt>
      <trkpt lat="45.75166" lon="6.81307">
        <ele>2795</ele>
        <time>2022-08-27T02:59:47Z</time>
      </trkpt>
      <trkpt lat="45.75168" lon="6.81311">
        <ele>2795</ele>
        <time>2022-08-27T02:59:49Z</time>
      </trkpt>
      <trkpt lat="45.75169" lon="6.81315">
        <ele>2794</ele>
        <time>2022-08-27T02:59:51Z</time>
      </trkpt>
      <trkpt lat="45.7517" lon="6.81318">
        <ele>2794</ele>
        <time>2022-08-27T02:59:52Z</time>
      </trkpt>
      <trkpt lat="45.75171" lon="6.8132">
        <ele>2794</ele>
        <time>2022-08-27T02:59:53Z</time>
      </trkpt>
      <trkpt lat="45.75172" lon="6.81322">
        <ele>2793</ele>
        <time>2022-08-27T02:59:54Z</time>
      </trkpt>
      <trkpt lat="45.75174" lon="6.81326">
        <ele>2793</ele>
        <time>2022-08-27T02:59:56Z</time>
      </trkpt>
      <trkpt lat="45.75175" lon="6.8133">
        <ele>2793</ele>
        <time>2022-08-27T02:59:58Z</time>
      </trkpt>
      <trkpt lat="45.75177" lon="6.81333">
        <ele>2792</ele>
        <time>2022-08-27T03:00:00Z</time>
      </trkpt>
      <trkpt lat="45.75178" lon="6.81337">
        <ele>2790</ele>
        <time>2022-08-27T03:00:02Z</time>
      </trkpt>
      <trkpt lat="45.75178" lon="6.81341">
        <ele>2789</ele>
        <time>2022-08-27T03:00:04Z</time>
      </trkpt>
      <trkpt lat="45.75178" lon="6.81345">
        <ele>2789</ele>
        <time>2022-08-27T03:00:06Z</time>
      </trkpt>
      <trkpt lat="45.75178" lon="6.81349">
        <ele>2789</ele>
        <time>2022-08-27T03:00:08Z</time>
      </trkpt>
      <trkpt lat="45.75179" lon="6.81353">
        <ele>2789</ele>
        <time>2022-08-27T03:00:10Z</time>
      </trkpt>
      <trkpt lat="45.7518" lon="6.81357">
        <ele>2787</ele>
        <time>2022-08-27T03:00:12Z</time>
      </trkpt>
      <trkpt lat="45.75182" lon="6.8136">
        <ele>2787</ele>
        <time>2022-08-27T03:00:14Z</time>
      </trkpt>
      <trkpt lat="45.75183" lon="6.81364">
        <ele>2786</ele>
        <time>2022-08-27T03:00:16Z</time>
      </trkpt>
      <trkpt lat="45.75184" lon="6.81367">
        <ele>2784</ele>
        <time>2022-08-27T03:00:18Z</time>
      </trkpt>
      <trkpt lat="45.75185" lon="6.81371">
        <ele>2784</ele>
        <time>2022-08-27T03:00:20Z</time>
      </trkpt>
      <trkpt lat="45.75188" lon="6.81374">
        <ele>2783</ele>
        <time>2022-08-27T03:00:22Z</time>
      </trkpt>
      <trkpt lat="45.75189" lon="6.81377">
        <ele>2783</ele>
        <time>2022-08-27T03:00:24Z</time>
      </trkpt>
      <trkpt lat="45.75189" lon="6.8138">
        <ele>2782</ele>
        <time>2022-08-27T03:00:26Z</time>
      </trkpt>
      <trkpt lat="45.7519" lon="6.81384">
        <ele>2782</ele>
        <time>2022-08-27T03:00:28Z</time>
      </trkpt>
      <trkpt lat="45.75191" lon="6.81387">
        <ele>2782</ele>
        <time>2022-08-27T03:00:30Z</time>
      </trkpt>
      <trkpt lat="45.75191" lon="6.81391">
        <ele>2781</ele>
        <time>2022-08-27T03:00:32Z</time>
      </trkpt>
      <trkpt lat="45.75192" lon="6.81394">
        <ele>2780</ele>
        <time>2022-08-27T03:00:34Z</time>
      </trkpt>
      <trkpt lat="45.75192" lon="6.81397">
        <ele>2780</ele>
        <time>2022-08-27T03:00:36Z</time>
      </trkpt>
      <trkpt lat="45.75194" lon="6.81401">
        <ele>2779</ele>
        <time>2022-08-27T03:00:38Z</time>
      </trkpt>
      <trkpt lat="45.75195" lon="6.81405">
        <ele>2778</ele>
        <time>2022-08-27T03:00:40Z</time>
      </trkpt>
      <trkpt lat="45.75197" lon="6.81409">
        <ele>2778</ele>
        <time>2022-08-27T03:00:42Z</time>
      </trkpt>
      <trkpt lat="45.75199" lon="6.81411">
        <ele>2777</ele>
        <time>2022-08-27T03:00:44Z</time>
      </trkpt>
      <trkpt lat="45.75201" lon="6.81414">
        <ele>2777</ele>
        <time>2022-08-27T03:00:46Z</time>
      </trkpt>
      <trkpt lat="45.75202" lon="6.81417">
        <ele>2775</ele>
        <time>2022-08-27T03:00:48Z</time>
      </trkpt>
      <trkpt lat="45.75203" lon="6.81419">
        <ele>2775</ele>
        <time>2022-08-27T03:00:50Z</time>
      </trkpt>
      <trkpt lat="45.75205" lon="6.81423">
        <ele>2775</ele>
        <time>2022-08-27T03:00:52Z</time>
      </trkpt>
      <trkpt lat="45.75207" lon="6.81426">
        <ele>2774</ele>
        <time>2022-08-27T03:00:54Z</time>
      </trkpt>
      <trkpt lat="45.75208" lon="6.81429">
        <ele>2773</ele>
        <time>2022-08-27T03:00:56Z</time>
      </trkpt>
      <trkpt lat="45.75208" lon="6.81433">
        <ele>2772</ele>
        <time>2022-08-27T03:00:58Z</time>
      </trkpt>
      <trkpt lat="45.75209" lon="6.81436">
        <ele>2772</ele>
        <time>2022-08-27T03:01:00Z</time>
      </trkpt>
      <trkpt lat="45.75209" lon="6.8144">
        <ele>2770</ele>
        <time>2022-08-27T03:01:02Z</time>
      </trkpt>
      <trkpt lat="45.7521" lon="6.81444">
        <ele>2770</ele>
        <time>2022-08-27T03:01:04Z</time>
      </trkpt>
      <trkpt lat="45.75212" lon="6.81447">
        <ele>2770</ele>
        <time>2022-08-27T03:01:06Z</time>
      </trkpt>
      <trkpt lat="45.75214" lon="6.81449">
        <ele>2770</ele>
        <time>2022-08-27T03:01:08Z</time>
      </trkpt>
      <trkpt lat="45.75216" lon="6.81452">
        <ele>2769</ele>
        <time>2022-08-27T03:01:10Z</time>
      </trkpt>
      <trkpt lat="45.75217" lon="6.81455">
        <ele>2767</ele>
        <time>2022-08-27T03:01:12Z</time>
      </trkpt>
      <trkpt lat="45.75219" lon="6.81458">
        <ele>2767</ele>
        <time>2022-08-27T03:01:14Z</time>
      </trkpt>
      <trkpt lat="45.75221" lon="6.81461">
        <ele>2766</ele>
        <time>2022-08-27T03:01:16Z</time>
      </trkpt>
      <trkpt lat="45.75224" lon="6.81463">
        <ele>2765</ele>
        <time>2022-08-27T03:01:18Z</time>
      </trkpt>
      <trkpt lat="45.75226" lon="6.81465">
        <ele>2765</ele>
        <time>2022-08-27T03:01:20Z</time>
      </trkpt>
      <trkpt lat="45.75227" lon="6.81469">
        <ele>2763</ele>
        <time>2022-08-27T03:01:22Z</time>
      </trkpt>
      <trkpt lat="45.75229" lon="6.81471">
        <ele>2762</ele>
        <time>2022-08-27T03:01:24Z</time>
      </trkpt>
      <trkpt lat="45.7523" lon="6.81475">
        <ele>2762</ele>
        <time>2022-08-27T03:01:26Z</time>
      </trkpt>
      <trkpt lat="45.75232" lon="6.81478">
        <ele>2762</ele>
        <time>2022-08-27T03:01:28Z</time>
      </trkpt>
      <trkpt lat="45.75234" lon="6.8148">
        <ele>2761</ele>
        <time>2022-08-27T03:01:29Z</time>
      </trkpt>
      <trkpt lat="45.75235" lon="6.81482">
        <ele>2761</ele>
        <time>2022-08-27T03:01:30Z</time>
      </trkpt>
      <trkpt lat="45.75237" lon="6.81486">
        <ele>2761</ele>
        <time>2022-08-27T03:01:32Z</time>
      </trkpt>
      <trkpt lat="45.75238" lon="6.81488">
        <ele>2761</ele>
        <time>2022-08-27T03:01:33Z</time>
      </trkpt>
      <trkpt lat="45.75239" lon="6.81491">
        <ele>2761</ele>
        <time>2022-08-27T03:01:34Z</time>
      </trkpt>
      <trkpt lat="45.75241" lon="6.81494">
        <ele>2760</ele>
        <time>2022-08-27T03:01:36Z</time>
      </trkpt>
      <trkpt lat="45.75242" lon="6.81498">
        <ele>2760</ele>
        <time>2022-08-27T03:01:38Z</time>
      </trkpt>
      <trkpt lat="45.75244" lon="6.81502">
        <ele>2759</ele>
        <time>2022-08-27T03:01:40Z</time>
      </trkpt>
      <trkpt lat="45.75246" lon="6.81506">
        <ele>2758</ele>
        <time>2022-08-27T03:01:42Z</time>
      </trkpt>
      <trkpt lat="45.75248" lon="6.8151">
        <ele>2757</ele>
        <time>2022-08-27T03:01:44Z</time>
      </trkpt>
      <trkpt lat="45.7525" lon="6.81513">
        <ele>2756</ele>
        <time>2022-08-27T03:01:46Z</time>
      </trkpt>
      <trkpt lat="45.75251" lon="6.81516">
        <ele>2756</ele>
        <time>2022-08-27T03:01:48Z</time>
      </trkpt>
      <trkpt lat="45.75252" lon="6.8152">
        <ele>2755</ele>
        <time>2022-08-27T03:01:50Z</time>
      </trkpt>
      <trkpt lat="45.75253" lon="6.81524">
        <ele>2754</ele>
        <time>2022-08-27T03:01:52Z</time>
      </trkpt>
      <trkpt lat="45.75253" lon="6.81527">
        <ele>2754</ele>
        <time>2022-08-27T03:01:54Z</time>
      </trkpt>
      <trkpt lat="45.75254" lon="6.8153">
        <ele>2753</ele>
        <time>2022-08-27T03:01:56Z</time>
      </trkpt>
      <trkpt lat="45.75255" lon="6.81533">
        <ele>2751</ele>
        <time>2022-08-27T03:01:58Z</time>
      </trkpt>
      <trkpt lat="45.75255" lon="6.81537">
        <ele>2750</ele>
        <time>2022-08-27T03:02:00Z</time>
      </trkpt>
      <trkpt lat="45.75256" lon="6.8154">
        <ele>2750</ele>
        <time>2022-08-27T03:02:02Z</time>
      </trkpt>
      <trkpt lat="45.75258" lon="6.81544">
        <ele>2750</ele>
        <time>2022-08-27T03:02:04Z</time>
      </trkpt>
      <trkpt lat="45.7526" lon="6.81546">
        <ele>2749</ele>
        <time>2022-08-27T03:02:06Z</time>
      </trkpt>
      <trkpt lat="45.75262" lon="6.81546">
        <ele>2749</ele>
        <time>2022-08-27T03:02:08Z</time>
      </trkpt>
      <trkpt lat="45.75264" lon="6.81547">
        <ele>2748</ele>
        <time>2022-08-27T03:02:11Z</time>
      </trkpt>
      <trkpt lat="45.75266" lon="6.81549">
        <ele>2747</ele>
        <time>2022-08-27T03:02:14Z</time>
      </trkpt>
      <trkpt lat="45.75268" lon="6.8155">
        <ele>2746</ele>
        <time>2022-08-27T03:02:16Z</time>
      </trkpt>
      <trkpt lat="45.7527" lon="6.81553">
        <ele>2745</ele>
        <time>2022-08-27T03:02:18Z</time>
      </trkpt>
      <trkpt lat="45.75269" lon="6.81557">
        <ele>2744</ele>
        <time>2022-08-27T03:02:20Z</time>
      </trkpt>
      <trkpt lat="45.75266" lon="6.8156">
        <ele>2743</ele>
        <time>2022-08-27T03:02:22Z</time>
      </trkpt>
      <trkpt lat="45.75264" lon="6.81563">
        <ele>2742</ele>
        <time>2022-08-27T03:02:24Z</time>
      </trkpt>
      <trkpt lat="45.75263" lon="6.81565">
        <ele>2741</ele>
        <time>2022-08-27T03:02:26Z</time>
      </trkpt>
      <trkpt lat="45.75261" lon="6.81568">
        <ele>2741</ele>
        <time>2022-08-27T03:02:29Z</time>
      </trkpt>
      <trkpt lat="45.75262" lon="6.81571">
        <ele>2740</ele>
        <time>2022-08-27T03:02:32Z</time>
      </trkpt>
      <trkpt lat="45.75262" lon="6.81574">
        <ele>2738</ele>
        <time>2022-08-27T03:02:34Z</time>
      </trkpt>
      <trkpt lat="45.75263" lon="6.81577">
        <ele>2737</ele>
        <time>2022-08-27T03:02:36Z</time>
      </trkpt>
      <trkpt lat="45.75262" lon="6.81579">
        <ele>2737</ele>
        <time>2022-08-27T03:02:38Z</time>
      </trkpt>
      <trkpt lat="45.7526" lon="6.81581">
        <ele>2735</ele>
        <time>2022-08-27T03:02:40Z</time>
      </trkpt>
      <trkpt lat="45.75258" lon="6.81583">
        <ele>2735</ele>
        <time>2022-08-27T03:02:42Z</time>
      </trkpt>
      <trkpt lat="45.75255" lon="6.81583">
        <ele>2734</ele>
        <time>2022-08-27T03:02:44Z</time>
      </trkpt>
      <trkpt lat="45.75253" lon="6.81583">
        <ele>2733</ele>
        <time>2022-08-27T03:02:46Z</time>
      </trkpt>
      <trkpt lat="45.75251" lon="6.81585">
        <ele>2733</ele>
        <time>2022-08-27T03:02:48Z</time>
      </trkpt>
      <trkpt lat="45.7525" lon="6.81588">
        <ele>2732</ele>
        <time>2022-08-27T03:02:51Z</time>
      </trkpt>
      <trkpt lat="45.75251" lon="6.81591">
        <ele>2731</ele>
        <time>2022-08-27T03:02:54Z</time>
      </trkpt>
      <trkpt lat="45.75253" lon="6.81594">
        <ele>2729</ele>
        <time>2022-08-27T03:02:56Z</time>
      </trkpt>
      <trkpt lat="45.75255" lon="6.81596">
        <ele>2729</ele>
        <time>2022-08-27T03:02:57Z</time>
      </trkpt>
      <trkpt lat="45.75257" lon="6.81599">
        <ele>2729</ele>
        <time>2022-08-27T03:02:59Z</time>
      </trkpt>
      <trkpt lat="45.75258" lon="6.81602">
        <ele>2729</ele>
        <time>2022-08-27T03:03:01Z</time>
      </trkpt>
      <trkpt lat="45.75258" lon="6.81605">
        <ele>2729</ele>
        <time>2022-08-27T03:03:03Z</time>
      </trkpt>
      <trkpt lat="45.75257" lon="6.81608">
        <ele>2728</ele>
        <time>2022-08-27T03:03:05Z</time>
      </trkpt>
      <trkpt lat="45.75256" lon="6.81611">
        <ele>2725</ele>
        <time>2022-08-27T03:03:08Z</time>
      </trkpt>
      <trkpt lat="45.75258" lon="6.81613">
        <ele>2725</ele>
        <time>2022-08-27T03:03:10Z</time>
      </trkpt>
      <trkpt lat="45.7526" lon="6.81617">
        <ele>2724</ele>
        <time>2022-08-27T03:03:12Z</time>
      </trkpt>
      <trkpt lat="45.75262" lon="6.8162">
        <ele>2724</ele>
        <time>2022-08-27T03:03:14Z</time>
      </trkpt>
      <trkpt lat="45.75263" lon="6.81624">
        <ele>2722</ele>
        <time>2022-08-27T03:03:16Z</time>
      </trkpt>
      <trkpt lat="45.75265" lon="6.81627">
        <ele>2722</ele>
        <time>2022-08-27T03:03:18Z</time>
      </trkpt>
      <trkpt lat="45.75266" lon="6.8163">
        <ele>2721</ele>
        <time>2022-08-27T03:03:20Z</time>
      </trkpt>
      <trkpt lat="45.75268" lon="6.81636">
        <ele>2720</ele>
        <time>2022-08-27T03:03:22Z</time>
      </trkpt>
      <trkpt lat="45.75268" lon="6.81638">
        <ele>2719</ele>
        <time>2022-08-27T03:03:23Z</time>
      </trkpt>
      <trkpt lat="45.75268" lon="6.8164">
        <ele>2719</ele>
        <time>2022-08-27T03:03:24Z</time>
      </trkpt>
      <trkpt lat="45.75267" lon="6.81643">
        <ele>2719</ele>
        <time>2022-08-27T03:03:25Z</time>
      </trkpt>
      <trkpt lat="45.75266" lon="6.81647">
        <ele>2719</ele>
        <time>2022-08-27T03:03:26Z</time>
      </trkpt>
      <trkpt lat="45.75266" lon="6.81648">
        <ele>2719</ele>
        <time>2022-08-27T03:03:27Z</time>
      </trkpt>
      <trkpt lat="45.75265" lon="6.81652">
        <ele>2718</ele>
        <time>2022-08-27T03:03:29Z</time>
      </trkpt>
      <trkpt lat="45.75263" lon="6.81656">
        <ele>2718</ele>
        <time>2022-08-27T03:03:31Z</time>
      </trkpt>
      <trkpt lat="45.75262" lon="6.81659">
        <ele>2717</ele>
        <time>2022-08-27T03:03:33Z</time>
      </trkpt>
      <trkpt lat="45.75262" lon="6.81663">
        <ele>2716</ele>
        <time>2022-08-27T03:03:35Z</time>
      </trkpt>
      <trkpt lat="45.75262" lon="6.81667">
        <ele>2716</ele>
        <time>2022-08-27T03:03:37Z</time>
      </trkpt>
      <trkpt lat="45.75261" lon="6.81671">
        <ele>2714</ele>
        <time>2022-08-27T03:03:39Z</time>
      </trkpt>
      <trkpt lat="45.7526" lon="6.81675">
        <ele>2713</ele>
        <time>2022-08-27T03:03:41Z</time>
      </trkpt>
      <trkpt lat="45.7526" lon="6.81678">
        <ele>2712</ele>
        <time>2022-08-27T03:03:43Z</time>
      </trkpt>
      <trkpt lat="45.75261" lon="6.81682">
        <ele>2711</ele>
        <time>2022-08-27T03:03:45Z</time>
      </trkpt>
      <trkpt lat="45.75261" lon="6.81686">
        <ele>2711</ele>
        <time>2022-08-27T03:03:47Z</time>
      </trkpt>
      <trkpt lat="45.75262" lon="6.8169">
        <ele>2710</ele>
        <time>2022-08-27T03:03:49Z</time>
      </trkpt>
      <trkpt lat="45.75263" lon="6.81693">
        <ele>2710</ele>
        <time>2022-08-27T03:03:51Z</time>
      </trkpt>
      <trkpt lat="45.75263" lon="6.81697">
        <ele>2709</ele>
        <time>2022-08-27T03:03:53Z</time>
      </trkpt>
      <trkpt lat="45.75264" lon="6.81699">
        <ele>2707</ele>
        <time>2022-08-27T03:03:55Z</time>
      </trkpt>
      <trkpt lat="45.75265" lon="6.81703">
        <ele>2707</ele>
        <time>2022-08-27T03:03:57Z</time>
      </trkpt>
      <trkpt lat="45.75265" lon="6.81706">
        <ele>2707</ele>
        <time>2022-08-27T03:03:59Z</time>
      </trkpt>
      <trkpt lat="45.75263" lon="6.8171">
        <ele>2706</ele>
        <time>2022-08-27T03:04:01Z</time>
      </trkpt>
      <trkpt lat="45.75263" lon="6.81714">
        <ele>2706</ele>
        <time>2022-08-27T03:04:03Z</time>
      </trkpt>
      <trkpt lat="45.75264" lon="6.81718">
        <ele>2705</ele>
        <time>2022-08-27T03:04:05Z</time>
      </trkpt>
      <trkpt lat="45.75263" lon="6.81722">
        <ele>2704</ele>
        <time>2022-08-27T03:04:07Z</time>
      </trkpt>
      <trkpt lat="45.75262" lon="6.81726">
        <ele>2702</ele>
        <time>2022-08-27T03:04:09Z</time>
      </trkpt>
      <trkpt lat="45.75261" lon="6.81729">
        <ele>2702</ele>
        <time>2022-08-27T03:04:11Z</time>
      </trkpt>
      <trkpt lat="45.7526" lon="6.81731">
        <ele>2701</ele>
        <time>2022-08-27T03:04:13Z</time>
      </trkpt>
      <trkpt lat="45.75259" lon="6.81734">
        <ele>2701</ele>
        <time>2022-08-27T03:04:15Z</time>
      </trkpt>
      <trkpt lat="45.7526" lon="6.81737">
        <ele>2700</ele>
        <time>2022-08-27T03:04:17Z</time>
      </trkpt>
      <trkpt lat="45.75262" lon="6.81739">
        <ele>2700</ele>
        <time>2022-08-27T03:04:19Z</time>
      </trkpt>
      <trkpt lat="45.75264" lon="6.81742">
        <ele>2698</ele>
        <time>2022-08-27T03:04:21Z</time>
      </trkpt>
      <trkpt lat="45.75265" lon="6.81745">
        <ele>2698</ele>
        <time>2022-08-27T03:04:23Z</time>
      </trkpt>
      <trkpt lat="45.75264" lon="6.81749">
        <ele>2697</ele>
        <time>2022-08-27T03:04:25Z</time>
      </trkpt>
      <trkpt lat="45.75264" lon="6.81752">
        <ele>2696</ele>
        <time>2022-08-27T03:04:27Z</time>
      </trkpt>
      <trkpt lat="45.75263" lon="6.81754">
        <ele>2696</ele>
        <time>2022-08-27T03:04:29Z</time>
      </trkpt>
      <trkpt lat="45.75261" lon="6.81757">
        <ele>2695</ele>
        <time>2022-08-27T03:04:31Z</time>
      </trkpt>
      <trkpt lat="45.7526" lon="6.8176">
        <ele>2694</ele>
        <time>2022-08-27T03:04:33Z</time>
      </trkpt>
      <trkpt lat="45.7526" lon="6.81763">
        <ele>2693</ele>
        <time>2022-08-27T03:04:35Z</time>
      </trkpt>
      <trkpt lat="45.75262" lon="6.81766">
        <ele>2693</ele>
        <time>2022-08-27T03:04:37Z</time>
      </trkpt>
      <trkpt lat="45.75264" lon="6.81769">
        <ele>2692</ele>
        <time>2022-08-27T03:04:39Z</time>
      </trkpt>
      <trkpt lat="45.75265" lon="6.81773">
        <ele>2692</ele>
        <time>2022-08-27T03:04:41Z</time>
      </trkpt>
      <trkpt lat="45.75266" lon="6.81776">
        <ele>2690</ele>
        <time>2022-08-27T03:04:43Z</time>
      </trkpt>
      <trkpt lat="45.75267" lon="6.8178">
        <ele>2689</ele>
        <time>2022-08-27T03:04:45Z</time>
      </trkpt>
      <trkpt lat="45.75268" lon="6.81784">
        <ele>2689</ele>
        <time>2022-08-27T03:04:47Z</time>
      </trkpt>
      <trkpt lat="45.7527" lon="6.81788">
        <ele>2688</ele>
        <time>2022-08-27T03:04:49Z</time>
      </trkpt>
      <trkpt lat="45.7527" lon="6.81793">
        <ele>2686</ele>
        <time>2022-08-27T03:04:51Z</time>
      </trkpt>
      <trkpt lat="45.75269" lon="6.81797">
        <ele>2686</ele>
        <time>2022-08-27T03:04:53Z</time>
      </trkpt>
      <trkpt lat="45.75269" lon="6.81801">
        <ele>2685</ele>
        <time>2022-08-27T03:04:55Z</time>
      </trkpt>
      <trkpt lat="45.7527" lon="6.81803">
        <ele>2685</ele>
        <time>2022-08-27T03:04:57Z</time>
      </trkpt>
      <trkpt lat="45.75271" lon="6.81806">
        <ele>2684</ele>
        <time>2022-08-27T03:04:59Z</time>
      </trkpt>
      <trkpt lat="45.75271" lon="6.81809">
        <ele>2684</ele>
        <time>2022-08-27T03:05:01Z</time>
      </trkpt>
      <trkpt lat="45.75271" lon="6.81813">
        <ele>2684</ele>
        <time>2022-08-27T03:05:03Z</time>
      </trkpt>
      <trkpt lat="45.75272" lon="6.81815">
        <ele>2683</ele>
        <time>2022-08-27T03:05:05Z</time>
      </trkpt>
      <trkpt lat="45.75275" lon="6.81816">
        <ele>2682</ele>
        <time>2022-08-27T03:05:07Z</time>
      </trkpt>
      <trkpt lat="45.75278" lon="6.81815">
        <ele>2681</ele>
        <time>2022-08-27T03:05:09Z</time>
      </trkpt>
      <trkpt lat="45.7528" lon="6.81815">
        <ele>2681</ele>
        <time>2022-08-27T03:05:10Z</time>
      </trkpt>
      <trkpt lat="45.75284" lon="6.81815">
        <ele>2680</ele>
        <time>2022-08-27T03:05:12Z</time>
      </trkpt>
      <trkpt lat="45.75287" lon="6.81816">
        <ele>2678</ele>
        <time>2022-08-27T03:05:14Z</time>
      </trkpt>
      <trkpt lat="45.7529" lon="6.81817">
        <ele>2677</ele>
        <time>2022-08-27T03:05:16Z</time>
      </trkpt>
      <trkpt lat="45.75291" lon="6.81818">
        <ele>2676</ele>
        <time>2022-08-27T03:05:17Z</time>
      </trkpt>
      <trkpt lat="45.75294" lon="6.81819">
        <ele>2676</ele>
        <time>2022-08-27T03:05:19Z</time>
      </trkpt>
      <trkpt lat="45.75296" lon="6.8182">
        <ele>2676</ele>
        <time>2022-08-27T03:05:20Z</time>
      </trkpt>
      <trkpt lat="45.75299" lon="6.81822">
        <ele>2676</ele>
        <time>2022-08-27T03:05:22Z</time>
      </trkpt>
      <trkpt lat="45.75302" lon="6.81824">
        <ele>2676</ele>
        <time>2022-08-27T03:05:24Z</time>
      </trkpt>
      <trkpt lat="45.75304" lon="6.81825">
        <ele>2676</ele>
        <time>2022-08-27T03:05:25Z</time>
      </trkpt>
      <trkpt lat="45.75306" lon="6.81826">
        <ele>2675</ele>
        <time>2022-08-27T03:05:26Z</time>
      </trkpt>
      <trkpt lat="45.75308" lon="6.81827">
        <ele>2675</ele>
        <time>2022-08-27T03:05:27Z</time>
      </trkpt>
      <trkpt lat="45.7531" lon="6.81828">
        <ele>2674</ele>
        <time>2022-08-27T03:05:29Z</time>
      </trkpt>
      <trkpt lat="45.75313" lon="6.81829">
        <ele>2674</ele>
        <time>2022-08-27T03:05:31Z</time>
      </trkpt>
      <trkpt lat="45.75314" lon="6.81828">
        <ele>2674</ele>
        <time>2022-08-27T03:05:33Z</time>
      </trkpt>
      <trkpt lat="45.75317" lon="6.81828">
        <ele>2674</ele>
        <time>2022-08-27T03:05:35Z</time>
      </trkpt>
      <trkpt lat="45.75319" lon="6.81829">
        <ele>2673</ele>
        <time>2022-08-27T03:05:37Z</time>
      </trkpt>
      <trkpt lat="45.75322" lon="6.81828">
        <ele>2673</ele>
        <time>2022-08-27T03:05:39Z</time>
      </trkpt>
      <trkpt lat="45.75325" lon="6.81826">
        <ele>2672</ele>
        <time>2022-08-27T03:05:41Z</time>
      </trkpt>
      <trkpt lat="45.75328" lon="6.81824">
        <ele>2672</ele>
        <time>2022-08-27T03:05:43Z</time>
      </trkpt>
      <trkpt lat="45.7533" lon="6.81823">
        <ele>2671</ele>
        <time>2022-08-27T03:05:45Z</time>
      </trkpt>
      <trkpt lat="45.75332" lon="6.81822">
        <ele>2671</ele>
        <time>2022-08-27T03:05:47Z</time>
      </trkpt>
      <trkpt lat="45.75335" lon="6.8182">
        <ele>2670</ele>
        <time>2022-08-27T03:05:49Z</time>
      </trkpt>
      <trkpt lat="45.75336" lon="6.81817">
        <ele>2670</ele>
        <time>2022-08-27T03:05:51Z</time>
      </trkpt>
      <trkpt lat="45.75338" lon="6.81816">
        <ele>2669</ele>
        <time>2022-08-27T03:05:52Z</time>
      </trkpt>
      <trkpt lat="45.7534" lon="6.81816">
        <ele>2669</ele>
        <time>2022-08-27T03:05:53Z</time>
      </trkpt>
      <trkpt lat="45.75343" lon="6.81817">
        <ele>2669</ele>
        <time>2022-08-27T03:05:55Z</time>
      </trkpt>
      <trkpt lat="45.75344" lon="6.81819">
        <ele>2669</ele>
        <time>2022-08-27T03:05:57Z</time>
      </trkpt>
      <trkpt lat="45.75346" lon="6.81821">
        <ele>2669</ele>
        <time>2022-08-27T03:05:59Z</time>
      </trkpt>
      <trkpt lat="45.75347" lon="6.81824">
        <ele>2669</ele>
        <time>2022-08-27T03:06:01Z</time>
      </trkpt>
      <trkpt lat="45.75349" lon="6.81827">
        <ele>2669</ele>
        <time>2022-08-27T03:06:03Z</time>
      </trkpt>
      <trkpt lat="45.75351" lon="6.8183">
        <ele>2669</ele>
        <time>2022-08-27T03:06:05Z</time>
      </trkpt>
      <trkpt lat="45.75354" lon="6.81833">
        <ele>2668</ele>
        <time>2022-08-27T03:06:07Z</time>
      </trkpt>
      <trkpt lat="45.75356" lon="6.81837">
        <ele>2668</ele>
        <time>2022-08-27T03:06:09Z</time>
      </trkpt>
      <trkpt lat="45.75357" lon="6.81838">
        <ele>2668</ele>
        <time>2022-08-27T03:06:10Z</time>
      </trkpt>
      <trkpt lat="45.75359" lon="6.8184">
        <ele>2668</ele>
        <time>2022-08-27T03:06:11Z</time>
      </trkpt>
      <trkpt lat="45.75361" lon="6.81841">
        <ele>2668</ele>
        <time>2022-08-27T03:06:12Z</time>
      </trkpt>
      <trkpt lat="45.75363" lon="6.81843">
        <ele>2666</ele>
        <time>2022-08-27T03:06:13Z</time>
      </trkpt>
      <trkpt lat="45.75364" lon="6.81844">
        <ele>2666</ele>
        <time>2022-08-27T03:06:14Z</time>
      </trkpt>
      <trkpt lat="45.75367" lon="6.81847">
        <ele>2666</ele>
        <time>2022-08-27T03:06:15Z</time>
      </trkpt>
      <trkpt lat="45.75367" lon="6.81848">
        <ele>2665</ele>
        <time>2022-08-27T03:06:16Z</time>
      </trkpt>
      <trkpt lat="45.75369" lon="6.8185">
        <ele>2665</ele>
        <time>2022-08-27T03:06:17Z</time>
      </trkpt>
      <trkpt lat="45.7537" lon="6.81852">
        <ele>2665</ele>
        <time>2022-08-27T03:06:18Z</time>
      </trkpt>
      <trkpt lat="45.75372" lon="6.81854">
        <ele>2665</ele>
        <time>2022-08-27T03:06:19Z</time>
      </trkpt>
      <trkpt lat="45.75374" lon="6.81857">
        <ele>2665</ele>
        <time>2022-08-27T03:06:21Z</time>
      </trkpt>
      <trkpt lat="45.75375" lon="6.81859">
        <ele>2665</ele>
        <time>2022-08-27T03:06:22Z</time>
      </trkpt>
      <trkpt lat="45.75379" lon="6.81864">
        <ele>2665</ele>
        <time>2022-08-27T03:06:24Z</time>
      </trkpt>
      <trkpt lat="45.75379" lon="6.81865">
        <ele>2663</ele>
        <time>2022-08-27T03:06:25Z</time>
      </trkpt>
      <trkpt lat="45.75381" lon="6.81868">
        <ele>2663</ele>
        <time>2022-08-27T03:06:26Z</time>
      </trkpt>
      <trkpt lat="45.75382" lon="6.81869">
        <ele>2664</ele>
        <time>2022-08-27T03:06:27Z</time>
      </trkpt>
      <trkpt lat="45.75383" lon="6.81871">
        <ele>2664</ele>
        <time>2022-08-27T03:06:28Z</time>
      </trkpt>
      <trkpt lat="45.75384" lon="6.81873">
        <ele>2664</ele>
        <time>2022-08-27T03:06:29Z</time>
      </trkpt>
      <trkpt lat="45.75386" lon="6.81877">
        <ele>2663</ele>
        <time>2022-08-27T03:06:31Z</time>
      </trkpt>
      <trkpt lat="45.75387" lon="6.8188">
        <ele>2663</ele>
        <time>2022-08-27T03:06:32Z</time>
      </trkpt>
      <trkpt lat="45.75388" lon="6.81882">
        <ele>2663</ele>
        <time>2022-08-27T03:06:33Z</time>
      </trkpt>
      <trkpt lat="45.7539" lon="6.81886">
        <ele>2663</ele>
        <time>2022-08-27T03:06:34Z</time>
      </trkpt>
      <trkpt lat="45.75391" lon="6.81887">
        <ele>2663</ele>
        <time>2022-08-27T03:06:35Z</time>
      </trkpt>
      <trkpt lat="45.75392" lon="6.81889">
        <ele>2663</ele>
        <time>2022-08-27T03:06:36Z</time>
      </trkpt>
      <trkpt lat="45.75394" lon="6.81892">
        <ele>2663</ele>
        <time>2022-08-27T03:06:38Z</time>
      </trkpt>
      <trkpt lat="45.75397" lon="6.81895">
        <ele>2663</ele>
        <time>2022-08-27T03:06:40Z</time>
      </trkpt>
      <trkpt lat="45.75399" lon="6.81895">
        <ele>2663</ele>
        <time>2022-08-27T03:06:42Z</time>
      </trkpt>
      <trkpt lat="45.75402" lon="6.81894">
        <ele>2662</ele>
        <time>2022-08-27T03:06:44Z</time>
      </trkpt>
      <trkpt lat="45.75405" lon="6.81893">
        <ele>2661</ele>
        <time>2022-08-27T03:06:46Z</time>
      </trkpt>
      <trkpt lat="45.75408" lon="6.81892">
        <ele>2661</ele>
        <time>2022-08-27T03:06:48Z</time>
      </trkpt>
      <trkpt lat="45.75411" lon="6.81892">
        <ele>2661</ele>
        <time>2022-08-27T03:06:50Z</time>
      </trkpt>
      <trkpt lat="45.75414" lon="6.81894">
        <ele>2660</ele>
        <time>2022-08-27T03:06:52Z</time>
      </trkpt>
      <trkpt lat="45.75415" lon="6.81897">
        <ele>2660</ele>
        <time>2022-08-27T03:06:54Z</time>
      </trkpt>
      <trkpt lat="45.75417" lon="6.81901">
        <ele>2659</ele>
        <time>2022-08-27T03:06:56Z</time>
      </trkpt>
      <trkpt lat="45.75419" lon="6.81904">
        <ele>2659</ele>
        <time>2022-08-27T03:06:58Z</time>
      </trkpt>
      <trkpt lat="45.75421" lon="6.81908">
        <ele>2659</ele>
        <time>2022-08-27T03:07:00Z</time>
      </trkpt>
      <trkpt lat="45.75422" lon="6.81911">
        <ele>2659</ele>
        <time>2022-08-27T03:07:02Z</time>
      </trkpt>
      <trkpt lat="45.75423" lon="6.81913">
        <ele>2659</ele>
        <time>2022-08-27T03:07:04Z</time>
      </trkpt>
      <trkpt lat="45.75425" lon="6.81915">
        <ele>2659</ele>
        <time>2022-08-27T03:07:07Z</time>
      </trkpt>
      <trkpt lat="45.75426" lon="6.81917">
        <ele>2661</ele>
        <time>2022-08-27T03:07:10Z</time>
      </trkpt>
      <trkpt lat="45.75427" lon="6.81921">
        <ele>2662</ele>
        <time>2022-08-27T03:07:14Z</time>
      </trkpt>
      <trkpt lat="45.75429" lon="6.81921">
        <ele>2662</ele>
        <time>2022-08-27T03:07:19Z</time>
      </trkpt>
      <trkpt lat="45.75431" lon="6.8192">
        <ele>2662</ele>
        <time>2022-08-27T03:07:23Z</time>
      </trkpt>
      <trkpt lat="45.75433" lon="6.81921">
        <ele>2663</ele>
        <time>2022-08-27T03:07:27Z</time>
      </trkpt>
      <trkpt lat="45.75434" lon="6.81918">
        <ele>2665</ele>
        <time>2022-08-27T03:07:34Z</time>
      </trkpt>
      <trkpt lat="45.75435" lon="6.81915">
        <ele>2665</ele>
        <time>2022-08-27T03:07:37Z</time>
      </trkpt>
      <trkpt lat="45.75436" lon="6.81913">
        <ele>2665</ele>
        <time>2022-08-27T03:07:39Z</time>
      </trkpt>
      <trkpt lat="45.75437" lon="6.81909">
        <ele>2666</ele>
        <time>2022-08-27T03:07:42Z</time>
      </trkpt>
      <trkpt lat="45.75438" lon="6.81907">
        <ele>2666</ele>
        <time>2022-08-27T03:07:44Z</time>
      </trkpt>
      <trkpt lat="45.7544" lon="6.81904">
        <ele>2668</ele>
        <time>2022-08-27T03:07:47Z</time>
      </trkpt>
      <trkpt lat="45.75442" lon="6.81902">
        <ele>2668</ele>
        <time>2022-08-27T03:07:50Z</time>
      </trkpt>
      <trkpt lat="45.75444" lon="6.81901">
        <ele>2668</ele>
        <time>2022-08-27T03:07:53Z</time>
      </trkpt>
      <trkpt lat="45.75445" lon="6.81899">
        <ele>2668</ele>
        <time>2022-08-27T03:07:56Z</time>
      </trkpt>
      <trkpt lat="45.75447" lon="6.81897">
        <ele>2669</ele>
        <time>2022-08-27T03:07:59Z</time>
      </trkpt>
      <trkpt lat="45.75448" lon="6.81894">
        <ele>2669</ele>
        <time>2022-08-27T03:08:03Z</time>
      </trkpt>
      <trkpt lat="45.7545" lon="6.81892">
        <ele>2669</ele>
        <time>2022-08-27T03:08:06Z</time>
      </trkpt>
      <trkpt lat="45.75452" lon="6.81891">
        <ele>2670</ele>
        <time>2022-08-27T03:08:09Z</time>
      </trkpt>
      <trkpt lat="45.75453" lon="6.81888">
        <ele>2671</ele>
        <time>2022-08-27T03:08:12Z</time>
      </trkpt>
      <trkpt lat="45.75454" lon="6.81885">
        <ele>2672</ele>
        <time>2022-08-27T03:08:15Z</time>
      </trkpt>
      <trkpt lat="45.75452" lon="6.81881">
        <ele>2673</ele>
        <time>2022-08-27T03:08:18Z</time>
      </trkpt>
      <trkpt lat="45.75452" lon="6.81878">
        <ele>2673</ele>
        <time>2022-08-27T03:08:21Z</time>
      </trkpt>
      <trkpt lat="45.75453" lon="6.81875">
        <ele>2674</ele>
        <time>2022-08-27T03:08:24Z</time>
      </trkpt>
      <trkpt lat="45.75454" lon="6.81871">
        <ele>2674</ele>
        <time>2022-08-27T03:08:27Z</time>
      </trkpt>
      <trkpt lat="45.75455" lon="6.81869">
        <ele>2674</ele>
        <time>2022-08-27T03:08:29Z</time>
      </trkpt>
      <trkpt lat="45.75456" lon="6.81866">
        <ele>2674</ele>
        <time>2022-08-27T03:08:32Z</time>
      </trkpt>
      <trkpt lat="45.75457" lon="6.81864">
        <ele>2675</ele>
        <time>2022-08-27T03:08:34Z</time>
      </trkpt>
      <trkpt lat="45.75458" lon="6.81862">
        <ele>2674</ele>
        <time>2022-08-27T03:08:36Z</time>
      </trkpt>
      <trkpt lat="45.75459" lon="6.81859">
        <ele>2675</ele>
        <time>2022-08-27T03:08:39Z</time>
      </trkpt>
      <trkpt lat="45.75461" lon="6.81855">
        <ele>2676</ele>
        <time>2022-08-27T03:08:42Z</time>
      </trkpt>
      <trkpt lat="45.75462" lon="6.81852">
        <ele>2677</ele>
        <time>2022-08-27T03:08:45Z</time>
      </trkpt>
      <trkpt lat="45.75464" lon="6.8185">
        <ele>2677</ele>
        <time>2022-08-27T03:08:47Z</time>
      </trkpt>
      <trkpt lat="45.75465" lon="6.81847">
        <ele>2676</ele>
        <time>2022-08-27T03:08:50Z</time>
      </trkpt>
      <trkpt lat="45.75466" lon="6.81844">
        <ele>2677</ele>
        <time>2022-08-27T03:08:52Z</time>
      </trkpt>
      <trkpt lat="45.75467" lon="6.81842">
        <ele>2677</ele>
        <time>2022-08-27T03:08:54Z</time>
      </trkpt>
      <trkpt lat="45.75468" lon="6.81839">
        <ele>2678</ele>
        <time>2022-08-27T03:08:56Z</time>
      </trkpt>
      <trkpt lat="45.75468" lon="6.81836">
        <ele>2678</ele>
        <time>2022-08-27T03:08:58Z</time>
      </trkpt>
      <trkpt lat="45.75469" lon="6.81833">
        <ele>2678</ele>
        <time>2022-08-27T03:09:00Z</time>
      </trkpt>
      <trkpt lat="45.7547" lon="6.81831">
        <ele>2680</ele>
        <time>2022-08-27T03:09:02Z</time>
      </trkpt>
      <trkpt lat="45.75471" lon="6.81828">
        <ele>2680</ele>
        <time>2022-08-27T03:09:04Z</time>
      </trkpt>
      <trkpt lat="45.75472" lon="6.81826">
        <ele>2680</ele>
        <time>2022-08-27T03:09:06Z</time>
      </trkpt>
      <trkpt lat="45.75473" lon="6.81823">
        <ele>2680</ele>
        <time>2022-08-27T03:09:08Z</time>
      </trkpt>
      <trkpt lat="45.75475" lon="6.8182">
        <ele>2680</ele>
        <time>2022-08-27T03:09:11Z</time>
      </trkpt>
      <trkpt lat="45.75477" lon="6.81818">
        <ele>2680</ele>
        <time>2022-08-27T03:09:14Z</time>
      </trkpt>
      <trkpt lat="45.75478" lon="6.81815">
        <ele>2681</ele>
        <time>2022-08-27T03:09:17Z</time>
      </trkpt>
      <trkpt lat="45.75479" lon="6.81812">
        <ele>2682</ele>
        <time>2022-08-27T03:09:20Z</time>
      </trkpt>
      <trkpt lat="45.75481" lon="6.8181">
        <ele>2682</ele>
        <time>2022-08-27T03:09:22Z</time>
      </trkpt>
      <trkpt lat="45.75483" lon="6.81809">
        <ele>2682</ele>
        <time>2022-08-27T03:09:24Z</time>
      </trkpt>
      <trkpt lat="45.75485" lon="6.81808">
        <ele>2682</ele>
        <time>2022-08-27T03:09:26Z</time>
      </trkpt>
      <trkpt lat="45.75486" lon="6.81805">
        <ele>2682</ele>
        <time>2022-08-27T03:09:29Z</time>
      </trkpt>
      <trkpt lat="45.75487" lon="6.81801">
        <ele>2682</ele>
        <time>2022-08-27T03:09:31Z</time>
      </trkpt>
      <trkpt lat="45.75488" lon="6.81798">
        <ele>2683</ele>
        <time>2022-08-27T03:09:34Z</time>
      </trkpt>
      <trkpt lat="45.75489" lon="6.81796">
        <ele>2684</ele>
        <time>2022-08-27T03:09:37Z</time>
      </trkpt>
      <trkpt lat="45.75491" lon="6.81794">
        <ele>2684</ele>
        <time>2022-08-27T03:09:39Z</time>
      </trkpt>
      <trkpt lat="45.75493" lon="6.81792">
        <ele>2684</ele>
        <time>2022-08-27T03:09:42Z</time>
      </trkpt>
      <trkpt lat="45.75495" lon="6.81791">
        <ele>2684</ele>
        <time>2022-08-27T03:09:45Z</time>
      </trkpt>
      <trkpt lat="45.75497" lon="6.8179">
        <ele>2686</ele>
        <time>2022-08-27T03:09:48Z</time>
      </trkpt>
      <trkpt lat="45.75499" lon="6.81788">
        <ele>2686</ele>
        <time>2022-08-27T03:09:52Z</time>
      </trkpt>
      <trkpt lat="45.75502" lon="6.81789">
        <ele>2687</ele>
        <time>2022-08-27T03:09:55Z</time>
      </trkpt>
      <trkpt lat="45.75504" lon="6.81789">
        <ele>2688</ele>
        <time>2022-08-27T03:09:59Z</time>
      </trkpt>
      <trkpt lat="45.75506" lon="6.81789">
        <ele>2688</ele>
        <time>2022-08-27T03:10:02Z</time>
      </trkpt>
      <trkpt lat="45.75508" lon="6.8179">
        <ele>2688</ele>
        <time>2022-08-27T03:10:05Z</time>
      </trkpt>
      <trkpt lat="45.7551" lon="6.8179">
        <ele>2689</ele>
        <time>2022-08-27T03:10:09Z</time>
      </trkpt>
      <trkpt lat="45.75512" lon="6.81789">
        <ele>2690</ele>
        <time>2022-08-27T03:10:13Z</time>
      </trkpt>
      <trkpt lat="45.75514" lon="6.81788">
        <ele>2690</ele>
        <time>2022-08-27T03:10:17Z</time>
      </trkpt>
      <trkpt lat="45.75517" lon="6.81787">
        <ele>2692</ele>
        <time>2022-08-27T03:10:21Z</time>
      </trkpt>
      <trkpt lat="45.75519" lon="6.81787">
        <ele>2692</ele>
        <time>2022-08-27T03:10:24Z</time>
      </trkpt>
      <trkpt lat="45.75521" lon="6.81787">
        <ele>2694</ele>
        <time>2022-08-27T03:10:27Z</time>
      </trkpt>
      <trkpt lat="45.75523" lon="6.81786">
        <ele>2694</ele>
        <time>2022-08-27T03:10:30Z</time>
      </trkpt>
      <trkpt lat="45.75525" lon="6.81786">
        <ele>2694</ele>
        <time>2022-08-27T03:10:33Z</time>
      </trkpt>
      <trkpt lat="45.75527" lon="6.81784">
        <ele>2695</ele>
        <time>2022-08-27T03:10:36Z</time>
      </trkpt>
      <trkpt lat="45.75528" lon="6.81784">
        <ele>2695</ele>
        <time>2022-08-27T03:10:39Z</time>
      </trkpt>
      <trkpt lat="45.75531" lon="6.81783">
        <ele>2697</ele>
        <time>2022-08-27T03:10:43Z</time>
      </trkpt>
      <trkpt lat="45.75533" lon="6.81783">
        <ele>2698</ele>
        <time>2022-08-27T03:10:46Z</time>
      </trkpt>
      <trkpt lat="45.75535" lon="6.81781">
        <ele>2698</ele>
        <time>2022-08-27T03:10:49Z</time>
      </trkpt>
      <trkpt lat="45.75537" lon="6.8178">
        <ele>2698</ele>
        <time>2022-08-27T03:10:52Z</time>
      </trkpt>
      <trkpt lat="45.75539" lon="6.81779">
        <ele>2698</ele>
        <time>2022-08-27T03:10:55Z</time>
      </trkpt>
      <trkpt lat="45.75541" lon="6.81777">
        <ele>2699</ele>
        <time>2022-08-27T03:10:58Z</time>
      </trkpt>
      <trkpt lat="45.75542" lon="6.81774">
        <ele>2700</ele>
        <time>2022-08-27T03:11:01Z</time>
      </trkpt>
      <trkpt lat="45.75544" lon="6.81771">
        <ele>2700</ele>
        <time>2022-08-27T03:11:04Z</time>
      </trkpt>
      <trkpt lat="45.75545" lon="6.81769">
        <ele>2700</ele>
        <time>2022-08-27T03:11:07Z</time>
      </trkpt>
      <trkpt lat="45.75547" lon="6.81767">
        <ele>2701</ele>
        <time>2022-08-27T03:11:10Z</time>
      </trkpt>
      <trkpt lat="45.75549" lon="6.81765">
        <ele>2702</ele>
        <time>2022-08-27T03:11:14Z</time>
      </trkpt>
      <trkpt lat="45.75551" lon="6.81764">
        <ele>2702</ele>
        <time>2022-08-27T03:11:17Z</time>
      </trkpt>
      <trkpt lat="45.75552" lon="6.81761">
        <ele>2704</ele>
        <time>2022-08-27T03:11:20Z</time>
      </trkpt>
      <trkpt lat="45.75553" lon="6.81759">
        <ele>2705</ele>
        <time>2022-08-27T03:11:24Z</time>
      </trkpt>
      <trkpt lat="45.75553" lon="6.81756">
        <ele>2705</ele>
        <time>2022-08-27T03:11:28Z</time>
      </trkpt>
      <trkpt lat="45.75554" lon="6.81753">
        <ele>2706</ele>
        <time>2022-08-27T03:11:31Z</time>
      </trkpt>
      <trkpt lat="45.75555" lon="6.8175">
        <ele>2706</ele>
        <time>2022-08-27T03:11:35Z</time>
      </trkpt>
      <trkpt lat="45.75557" lon="6.81747">
        <ele>2707</ele>
        <time>2022-08-27T03:11:38Z</time>
      </trkpt>
      <trkpt lat="45.75558" lon="6.81746">
        <ele>2707</ele>
        <time>2022-08-27T03:11:42Z</time>
      </trkpt>
      <trkpt lat="45.75561" lon="6.81745">
        <ele>2708</ele>
        <time>2022-08-27T03:11:46Z</time>
      </trkpt>
      <trkpt lat="45.75561" lon="6.81743">
        <ele>2710</ele>
        <time>2022-08-27T03:11:51Z</time>
      </trkpt>
      <trkpt lat="45.75561" lon="6.8174">
        <ele>2710</ele>
        <time>2022-08-27T03:11:54Z</time>
      </trkpt>
      <trkpt lat="45.75562" lon="6.81737">
        <ele>2711</ele>
        <time>2022-08-27T03:11:57Z</time>
      </trkpt>
      <trkpt lat="45.75561" lon="6.81734">
        <ele>2711</ele>
        <time>2022-08-27T03:12:00Z</time>
      </trkpt>
      <trkpt lat="45.75561" lon="6.8173">
        <ele>2711</ele>
        <time>2022-08-27T03:12:03Z</time>
      </trkpt>
      <trkpt lat="45.75561" lon="6.81727">
        <ele>2712</ele>
        <time>2022-08-27T03:12:06Z</time>
      </trkpt>
      <trkpt lat="45.75562" lon="6.81723">
        <ele>2712</ele>
        <time>2022-08-27T03:12:10Z</time>
      </trkpt>
      <trkpt lat="45.75563" lon="6.8172">
        <ele>2713</ele>
        <time>2022-08-27T03:12:13Z</time>
      </trkpt>
      <trkpt lat="45.75564" lon="6.81717">
        <ele>2713</ele>
        <time>2022-08-27T03:12:16Z</time>
      </trkpt>
      <trkpt lat="45.75565" lon="6.81713">
        <ele>2714</ele>
        <time>2022-08-27T03:12:19Z</time>
      </trkpt>
      <trkpt lat="45.75565" lon="6.8171">
        <ele>2714</ele>
        <time>2022-08-27T03:12:22Z</time>
      </trkpt>
      <trkpt lat="45.75565" lon="6.81707">
        <ele>2716</ele>
        <time>2022-08-27T03:12:28Z</time>
      </trkpt>
      <trkpt lat="45.75564" lon="6.81705">
        <ele>2716</ele>
        <time>2022-08-27T03:12:30Z</time>
      </trkpt>
      <trkpt lat="45.75562" lon="6.81703">
        <ele>2716</ele>
        <time>2022-08-27T03:12:32Z</time>
      </trkpt>
      <trkpt lat="45.7556" lon="6.81702">
        <ele>2716</ele>
        <time>2022-08-27T03:12:34Z</time>
      </trkpt>
      <trkpt lat="45.75559" lon="6.817">
        <ele>2717</ele>
        <time>2022-08-27T03:12:36Z</time>
      </trkpt>
      <trkpt lat="45.75558" lon="6.81697">
        <ele>2717</ele>
        <time>2022-08-27T03:12:38Z</time>
      </trkpt>
      <trkpt lat="45.75558" lon="6.81694">
        <ele>2718</ele>
        <time>2022-08-27T03:12:41Z</time>
      </trkpt>
      <trkpt lat="45.75558" lon="6.81691">
        <ele>2718</ele>
        <time>2022-08-27T03:12:45Z</time>
      </trkpt>
      <trkpt lat="45.75558" lon="6.81688">
        <ele>2719</ele>
        <time>2022-08-27T03:12:48Z</time>
      </trkpt>
      <trkpt lat="45.75558" lon="6.81685">
        <ele>2719</ele>
        <time>2022-08-27T03:12:50Z</time>
      </trkpt>
      <trkpt lat="45.75558" lon="6.81681">
        <ele>2719</ele>
        <time>2022-08-27T03:12:53Z</time>
      </trkpt>
      <trkpt lat="45.75557" lon="6.81679">
        <ele>2719</ele>
        <time>2022-08-27T03:12:55Z</time>
      </trkpt>
      <trkpt lat="45.75555" lon="6.81677">
        <ele>2720</ele>
        <time>2022-08-27T03:12:57Z</time>
      </trkpt>
      <trkpt lat="45.75554" lon="6.81675">
        <ele>2720</ele>
        <time>2022-08-27T03:12:59Z</time>
      </trkpt>
      <trkpt lat="45.75554" lon="6.81672">
        <ele>2719</ele>
        <time>2022-08-27T03:13:01Z</time>
      </trkpt>
      <trkpt lat="45.75554" lon="6.81668">
        <ele>2719</ele>
        <time>2022-08-27T03:13:04Z</time>
      </trkpt>
      <trkpt lat="45.75554" lon="6.81666">
        <ele>2719</ele>
        <time>2022-08-27T03:13:06Z</time>
      </trkpt>
      <trkpt lat="45.75553" lon="6.81663">
        <ele>2720</ele>
        <time>2022-08-27T03:13:08Z</time>
      </trkpt>
      <trkpt lat="45.75552" lon="6.81659">
        <ele>2720</ele>
        <time>2022-08-27T03:13:11Z</time>
      </trkpt>
      <trkpt lat="45.75552" lon="6.81656">
        <ele>2720</ele>
        <time>2022-08-27T03:13:13Z</time>
      </trkpt>
      <trkpt lat="45.75552" lon="6.81653">
        <ele>2720</ele>
        <time>2022-08-27T03:13:15Z</time>
      </trkpt>
      <trkpt lat="45.75553" lon="6.81651">
        <ele>2720</ele>
        <time>2022-08-27T03:13:17Z</time>
      </trkpt>
      <trkpt lat="45.75554" lon="6.81648">
        <ele>2720</ele>
        <time>2022-08-27T03:13:19Z</time>
      </trkpt>
      <trkpt lat="45.75554" lon="6.81645">
        <ele>2720</ele>
        <time>2022-08-27T03:13:21Z</time>
      </trkpt>
      <trkpt lat="45.75554" lon="6.81642">
        <ele>2720</ele>
        <time>2022-08-27T03:13:23Z</time>
      </trkpt>
      <trkpt lat="45.75554" lon="6.81638">
        <ele>2720</ele>
        <time>2022-08-27T03:13:25Z</time>
      </trkpt>
      <trkpt lat="45.75553" lon="6.81636">
        <ele>2721</ele>
        <time>2022-08-27T03:13:27Z</time>
      </trkpt>
      <trkpt lat="45.75553" lon="6.81633">
        <ele>2722</ele>
        <time>2022-08-27T03:13:29Z</time>
      </trkpt>
      <trkpt lat="45.75552" lon="6.8163">
        <ele>2722</ele>
        <time>2022-08-27T03:13:32Z</time>
      </trkpt>
      <trkpt lat="45.75551" lon="6.81627">
        <ele>2722</ele>
        <time>2022-08-27T03:13:35Z</time>
      </trkpt>
      <trkpt lat="45.75551" lon="6.81624">
        <ele>2722</ele>
        <time>2022-08-27T03:13:38Z</time>
      </trkpt>
      <trkpt lat="45.75552" lon="6.8162">
        <ele>2722</ele>
        <time>2022-08-27T03:13:41Z</time>
      </trkpt>
      <trkpt lat="45.75553" lon="6.81617">
        <ele>2723</ele>
        <time>2022-08-27T03:13:44Z</time>
      </trkpt>
      <trkpt lat="45.75554" lon="6.81614">
        <ele>2723</ele>
        <time>2022-08-27T03:13:46Z</time>
      </trkpt>
      <trkpt lat="45.75555" lon="6.81612">
        <ele>2724</ele>
        <time>2022-08-27T03:13:48Z</time>
      </trkpt>
      <trkpt lat="45.75555" lon="6.81609">
        <ele>2724</ele>
        <time>2022-08-27T03:13:50Z</time>
      </trkpt>
      <trkpt lat="45.75557" lon="6.81608">
        <ele>2722</ele>
        <time>2022-08-27T03:13:53Z</time>
      </trkpt>
      <trkpt lat="45.75559" lon="6.81607">
        <ele>2722</ele>
        <time>2022-08-27T03:13:56Z</time>
      </trkpt>
      <trkpt lat="45.75561" lon="6.81604">
        <ele>2722</ele>
        <time>2022-08-27T03:13:59Z</time>
      </trkpt>
      <trkpt lat="45.75562" lon="6.81602">
        <ele>2723</ele>
        <time>2022-08-27T03:14:02Z</time>
      </trkpt>
      <trkpt lat="45.75564" lon="6.81601">
        <ele>2724</ele>
        <time>2022-08-27T03:14:05Z</time>
      </trkpt>
      <trkpt lat="45.75566" lon="6.81601">
        <ele>2725</ele>
        <time>2022-08-27T03:14:09Z</time>
      </trkpt>
      <trkpt lat="45.75568" lon="6.816">
        <ele>2728</ele>
        <time>2022-08-27T03:14:14Z</time>
      </trkpt>
      <trkpt lat="45.75571" lon="6.81601">
        <ele>2729</ele>
        <time>2022-08-27T03:14:20Z</time>
      </trkpt>
      <trkpt lat="45.75573" lon="6.81603">
        <ele>2730</ele>
        <time>2022-08-27T03:14:22Z</time>
      </trkpt>
      <trkpt lat="45.75572" lon="6.81606">
        <ele>2731</ele>
        <time>2022-08-27T03:14:26Z</time>
      </trkpt>
      <trkpt lat="45.75572" lon="6.81609">
        <ele>2731</ele>
        <time>2022-08-27T03:14:29Z</time>
      </trkpt>
      <trkpt lat="45.75573" lon="6.81611">
        <ele>2732</ele>
        <time>2022-08-27T03:14:32Z</time>
      </trkpt>
      <trkpt lat="45.75573" lon="6.81614">
        <ele>2733</ele>
        <time>2022-08-27T03:14:35Z</time>
      </trkpt>
      <trkpt lat="45.75575" lon="6.81616">
        <ele>2733</ele>
        <time>2022-08-27T03:14:39Z</time>
      </trkpt>
      <trkpt lat="45.75577" lon="6.81616">
        <ele>2733</ele>
        <time>2022-08-27T03:14:42Z</time>
      </trkpt>
      <trkpt lat="45.75579" lon="6.81614">
        <ele>2734</ele>
        <time>2022-08-27T03:14:46Z</time>
      </trkpt>
      <trkpt lat="45.7558" lon="6.81612">
        <ele>2735</ele>
        <time>2022-08-27T03:14:50Z</time>
      </trkpt>
      <trkpt lat="45.75582" lon="6.8161">
        <ele>2736</ele>
        <time>2022-08-27T03:14:53Z</time>
      </trkpt>
      <trkpt lat="45.75583" lon="6.8161">
        <ele>2734</ele>
        <time>2022-08-27T03:14:57Z</time>
      </trkpt>
      <trkpt lat="45.75585" lon="6.81612">
        <ele>2736</ele>
        <time>2022-08-27T03:15:01Z</time>
      </trkpt>
      <trkpt lat="45.75586" lon="6.81614">
        <ele>2737</ele>
        <time>2022-08-27T03:15:04Z</time>
      </trkpt>
      <trkpt lat="45.75588" lon="6.81617">
        <ele>2738</ele>
        <time>2022-08-27T03:15:08Z</time>
      </trkpt>
      <trkpt lat="45.7559" lon="6.81618">
        <ele>2740</ele>
        <time>2022-08-27T03:15:11Z</time>
      </trkpt>
      <trkpt lat="45.75592" lon="6.81617">
        <ele>2738</ele>
        <time>2022-08-27T03:15:15Z</time>
      </trkpt>
      <trkpt lat="45.75594" lon="6.81616">
        <ele>2738</ele>
        <time>2022-08-27T03:15:18Z</time>
      </trkpt>
      <trkpt lat="45.75596" lon="6.81614">
        <ele>2741</ele>
        <time>2022-08-27T03:15:21Z</time>
      </trkpt>
      <trkpt lat="45.75598" lon="6.81612">
        <ele>2742</ele>
        <time>2022-08-27T03:15:24Z</time>
      </trkpt>
      <trkpt lat="45.756" lon="6.81611">
        <ele>2742</ele>
        <time>2022-08-27T03:15:27Z</time>
      </trkpt>
      <trkpt lat="45.75602" lon="6.81613">
        <ele>2742</ele>
        <time>2022-08-27T03:15:30Z</time>
      </trkpt>
      <trkpt lat="45.75604" lon="6.81615">
        <ele>2743</ele>
        <time>2022-08-27T03:15:34Z</time>
      </trkpt>
      <trkpt lat="45.75605" lon="6.81618">
        <ele>2744</ele>
        <time>2022-08-27T03:15:37Z</time>
      </trkpt>
      <trkpt lat="45.75607" lon="6.8162">
        <ele>2744</ele>
        <time>2022-08-27T03:15:40Z</time>
      </trkpt>
      <trkpt lat="45.75609" lon="6.81621">
        <ele>2744</ele>
        <time>2022-08-27T03:15:42Z</time>
      </trkpt>
      <trkpt lat="45.75611" lon="6.81622">
        <ele>2744</ele>
        <time>2022-08-27T03:15:45Z</time>
      </trkpt>
      <trkpt lat="45.75613" lon="6.81623">
        <ele>2744</ele>
        <time>2022-08-27T03:15:48Z</time>
      </trkpt>
      <trkpt lat="45.75615" lon="6.81624">
        <ele>2746</ele>
        <time>2022-08-27T03:15:51Z</time>
      </trkpt>
      <trkpt lat="45.75616" lon="6.81626">
        <ele>2746</ele>
        <time>2022-08-27T03:15:54Z</time>
      </trkpt>
      <trkpt lat="45.75618" lon="6.81628">
        <ele>2746</ele>
        <time>2022-08-27T03:15:57Z</time>
      </trkpt>
      <trkpt lat="45.7562" lon="6.8163">
        <ele>2747</ele>
        <time>2022-08-27T03:16:00Z</time>
      </trkpt>
      <trkpt lat="45.75621" lon="6.81631">
        <ele>2747</ele>
        <time>2022-08-27T03:16:03Z</time>
      </trkpt>
      <trkpt lat="45.75624" lon="6.8163">
        <ele>2747</ele>
        <time>2022-08-27T03:16:06Z</time>
      </trkpt>
      <trkpt lat="45.75626" lon="6.8163">
        <ele>2748</ele>
        <time>2022-08-27T03:16:09Z</time>
      </trkpt>
      <trkpt lat="45.75628" lon="6.8163">
        <ele>2750</ele>
        <time>2022-08-27T03:16:14Z</time>
      </trkpt>
      <trkpt lat="45.75629" lon="6.81633">
        <ele>2751</ele>
        <time>2022-08-27T03:16:19Z</time>
      </trkpt>
      <trkpt lat="45.7563" lon="6.81635">
        <ele>2751</ele>
        <time>2022-08-27T03:16:24Z</time>
      </trkpt>
      <trkpt lat="45.75632" lon="6.81637">
        <ele>2751</ele>
        <time>2022-08-27T03:16:28Z</time>
      </trkpt>
      <trkpt lat="45.75633" lon="6.81635">
        <ele>2754</ele>
        <time>2022-08-27T03:16:35Z</time>
      </trkpt>
      <trkpt lat="45.75634" lon="6.81633">
        <ele>2755</ele>
        <time>2022-08-27T03:16:39Z</time>
      </trkpt>
      <trkpt lat="45.75635" lon="6.81629">
        <ele>2755</ele>
        <time>2022-08-27T03:16:42Z</time>
      </trkpt>
      <trkpt lat="45.75636" lon="6.81627">
        <ele>2756</ele>
        <time>2022-08-27T03:16:45Z</time>
      </trkpt>
      <trkpt lat="45.75638" lon="6.81626">
        <ele>2756</ele>
        <time>2022-08-27T03:16:49Z</time>
      </trkpt>
      <trkpt lat="45.7564" lon="6.81627">
        <ele>2757</ele>
        <time>2022-08-27T03:16:52Z</time>
      </trkpt>
      <trkpt lat="45.75641" lon="6.81624">
        <ele>2758</ele>
        <time>2022-08-27T03:16:59Z</time>
      </trkpt>
      <trkpt lat="45.75642" lon="6.81622">
        <ele>2758</ele>
        <time>2022-08-27T03:17:02Z</time>
      </trkpt>
      <trkpt lat="45.75644" lon="6.81622">
        <ele>2758</ele>
        <time>2022-08-27T03:17:05Z</time>
      </trkpt>
      <trkpt lat="45.75646" lon="6.81622">
        <ele>2758</ele>
        <time>2022-08-27T03:17:08Z</time>
      </trkpt>
      <trkpt lat="45.75648" lon="6.81623">
        <ele>2760</ele>
        <time>2022-08-27T03:17:12Z</time>
      </trkpt>
      <trkpt lat="45.7565" lon="6.81625">
        <ele>2760</ele>
        <time>2022-08-27T03:17:16Z</time>
      </trkpt>
      <trkpt lat="45.75651" lon="6.81626">
        <ele>2761</ele>
        <time>2022-08-27T03:17:22Z</time>
      </trkpt>
      <trkpt lat="45.75653" lon="6.81626">
        <ele>2761</ele>
        <time>2022-08-27T03:17:25Z</time>
      </trkpt>
      <trkpt lat="45.75655" lon="6.81627">
        <ele>2761</ele>
        <time>2022-08-27T03:17:29Z</time>
      </trkpt>
      <trkpt lat="45.75657" lon="6.81629">
        <ele>2762</ele>
        <time>2022-08-27T03:17:33Z</time>
      </trkpt>
      <trkpt lat="45.75658" lon="6.8163">
        <ele>2765</ele>
        <time>2022-08-27T03:17:37Z</time>
      </trkpt>
      <trkpt lat="45.7566" lon="6.8163">
        <ele>2766</ele>
        <time>2022-08-27T03:17:41Z</time>
      </trkpt>
      <trkpt lat="45.75662" lon="6.8163">
        <ele>2766</ele>
        <time>2022-08-27T03:17:44Z</time>
      </trkpt>
      <trkpt lat="45.75664" lon="6.81631">
        <ele>2767</ele>
        <time>2022-08-27T03:17:47Z</time>
      </trkpt>
      <trkpt lat="45.75665" lon="6.81634">
        <ele>2767</ele>
        <time>2022-08-27T03:17:50Z</time>
      </trkpt>
      <trkpt lat="45.75666" lon="6.81636">
        <ele>2767</ele>
        <time>2022-08-27T03:17:53Z</time>
      </trkpt>
      <trkpt lat="45.75667" lon="6.81638">
        <ele>2767</ele>
        <time>2022-08-27T03:17:56Z</time>
      </trkpt>
      <trkpt lat="45.75669" lon="6.81639">
        <ele>2768</ele>
        <time>2022-08-27T03:17:59Z</time>
      </trkpt>
      <trkpt lat="45.75671" lon="6.81639">
        <ele>2768</ele>
        <time>2022-08-27T03:18:02Z</time>
      </trkpt>
      <trkpt lat="45.75673" lon="6.8164">
        <ele>2769</ele>
        <time>2022-08-27T03:18:05Z</time>
      </trkpt>
      <trkpt lat="45.75675" lon="6.8164">
        <ele>2770</ele>
        <time>2022-08-27T03:18:08Z</time>
      </trkpt>
      <trkpt lat="45.75678" lon="6.81639">
        <ele>2770</ele>
        <time>2022-08-27T03:18:11Z</time>
      </trkpt>
      <trkpt lat="45.7568" lon="6.8164">
        <ele>2771</ele>
        <time>2022-08-27T03:18:14Z</time>
      </trkpt>
      <trkpt lat="45.75682" lon="6.81641">
        <ele>2771</ele>
        <time>2022-08-27T03:18:17Z</time>
      </trkpt>
      <trkpt lat="45.75684" lon="6.81643">
        <ele>2771</ele>
        <time>2022-08-27T03:18:20Z</time>
      </trkpt>
      <trkpt lat="45.75685" lon="6.81646">
        <ele>2771</ele>
        <time>2022-08-27T03:18:23Z</time>
      </trkpt>
      <trkpt lat="45.75686" lon="6.8165">
        <ele>2771</ele>
        <time>2022-08-27T03:18:26Z</time>
      </trkpt>
      <trkpt lat="45.75687" lon="6.81653">
        <ele>2772</ele>
        <time>2022-08-27T03:18:29Z</time>
      </trkpt>
      <trkpt lat="45.75688" lon="6.81656">
        <ele>2772</ele>
        <time>2022-08-27T03:18:31Z</time>
      </trkpt>
      <trkpt lat="45.75688" lon="6.81659">
        <ele>2772</ele>
        <time>2022-08-27T03:18:33Z</time>
      </trkpt>
      <trkpt lat="45.75689" lon="6.81661">
        <ele>2772</ele>
        <time>2022-08-27T03:18:35Z</time>
      </trkpt>
      <trkpt lat="45.7569" lon="6.81663">
        <ele>2772</ele>
        <time>2022-08-27T03:18:37Z</time>
      </trkpt>
      <trkpt lat="45.75691" lon="6.81666">
        <ele>2772</ele>
        <time>2022-08-27T03:18:40Z</time>
      </trkpt>
      <trkpt lat="45.75692" lon="6.81668">
        <ele>2772</ele>
        <time>2022-08-27T03:18:43Z</time>
      </trkpt>
      <trkpt lat="45.75693" lon="6.8167">
        <ele>2773</ele>
        <time>2022-08-27T03:18:46Z</time>
      </trkpt>
      <trkpt lat="45.75695" lon="6.81672">
        <ele>2773</ele>
        <time>2022-08-27T03:18:48Z</time>
      </trkpt>
      <trkpt lat="45.75696" lon="6.81674">
        <ele>2774</ele>
        <time>2022-08-27T03:18:50Z</time>
      </trkpt>
      <trkpt lat="45.75698" lon="6.81676">
        <ele>2774</ele>
        <time>2022-08-27T03:18:53Z</time>
      </trkpt>
      <trkpt lat="45.757" lon="6.81678">
        <ele>2774</ele>
        <time>2022-08-27T03:18:56Z</time>
      </trkpt>
      <trkpt lat="45.75702" lon="6.8168">
        <ele>2775</ele>
        <time>2022-08-27T03:19:00Z</time>
      </trkpt>
      <trkpt lat="45.75703" lon="6.81681">
        <ele>2777</ele>
        <time>2022-08-27T03:19:04Z</time>
      </trkpt>
      <trkpt lat="45.75705" lon="6.81682">
        <ele>2777</ele>
        <time>2022-08-27T03:19:07Z</time>
      </trkpt>
      <trkpt lat="45.75706" lon="6.81684">
        <ele>2778</ele>
        <time>2022-08-27T03:19:11Z</time>
      </trkpt>
      <trkpt lat="45.75708" lon="6.81685">
        <ele>2779</ele>
        <time>2022-08-27T03:19:15Z</time>
      </trkpt>
      <trkpt lat="45.7571" lon="6.81685">
        <ele>2779</ele>
        <time>2022-08-27T03:19:19Z</time>
      </trkpt>
      <trkpt lat="45.75712" lon="6.81687">
        <ele>2780</ele>
        <time>2022-08-27T03:19:24Z</time>
      </trkpt>
      <trkpt lat="45.75714" lon="6.81688">
        <ele>2781</ele>
        <time>2022-08-27T03:19:30Z</time>
      </trkpt>
      <trkpt lat="45.75716" lon="6.81689">
        <ele>2782</ele>
        <time>2022-08-27T03:19:34Z</time>
      </trkpt>
      <trkpt lat="45.75718" lon="6.8169">
        <ele>2782</ele>
        <time>2022-08-27T03:19:38Z</time>
      </trkpt>
      <trkpt lat="45.75719" lon="6.81692">
        <ele>2783</ele>
        <time>2022-08-27T03:19:41Z</time>
      </trkpt>
      <trkpt lat="45.7572" lon="6.81695">
        <ele>2783</ele>
        <time>2022-08-27T03:19:44Z</time>
      </trkpt>
      <trkpt lat="45.75721" lon="6.81699">
        <ele>2785</ele>
        <time>2022-08-27T03:19:47Z</time>
      </trkpt>
      <trkpt lat="45.75721" lon="6.81702">
        <ele>2785</ele>
        <time>2022-08-27T03:19:50Z</time>
      </trkpt>
      <trkpt lat="45.75722" lon="6.81706">
        <ele>2786</ele>
        <time>2022-08-27T03:19:54Z</time>
      </trkpt>
      <trkpt lat="45.75723" lon="6.81708">
        <ele>2786</ele>
        <time>2022-08-27T03:19:57Z</time>
      </trkpt>
      <trkpt lat="45.75723" lon="6.81711">
        <ele>2786</ele>
        <time>2022-08-27T03:19:59Z</time>
      </trkpt>
      <trkpt lat="45.75723" lon="6.81714">
        <ele>2786</ele>
        <time>2022-08-27T03:20:02Z</time>
      </trkpt>
      <trkpt lat="45.75724" lon="6.81717">
        <ele>2787</ele>
        <time>2022-08-27T03:20:05Z</time>
      </trkpt>
      <trkpt lat="45.75725" lon="6.8172">
        <ele>2789</ele>
        <time>2022-08-27T03:20:08Z</time>
      </trkpt>
      <trkpt lat="45.75726" lon="6.81723">
        <ele>2789</ele>
        <time>2022-08-27T03:20:11Z</time>
      </trkpt>
      <trkpt lat="45.75726" lon="6.81726">
        <ele>2789</ele>
        <time>2022-08-27T03:20:13Z</time>
      </trkpt>
      <trkpt lat="45.75726" lon="6.81728">
        <ele>2789</ele>
        <time>2022-08-27T03:20:15Z</time>
      </trkpt>
      <trkpt lat="45.75727" lon="6.81731">
        <ele>2789</ele>
        <time>2022-08-27T03:20:17Z</time>
      </trkpt>
      <trkpt lat="45.75728" lon="6.81734">
        <ele>2789</ele>
        <time>2022-08-27T03:20:20Z</time>
      </trkpt>
      <trkpt lat="45.75728" lon="6.81737">
        <ele>2789</ele>
        <time>2022-08-27T03:20:23Z</time>
      </trkpt>
      <trkpt lat="45.75729" lon="6.8174">
        <ele>2789</ele>
        <time>2022-08-27T03:20:26Z</time>
      </trkpt>
      <trkpt lat="45.75729" lon="6.81744">
        <ele>2789</ele>
        <time>2022-08-27T03:20:30Z</time>
      </trkpt>
      <trkpt lat="45.75731" lon="6.81745">
        <ele>2789</ele>
        <time>2022-08-27T03:20:33Z</time>
      </trkpt>
      <trkpt lat="45.75732" lon="6.81749">
        <ele>2789</ele>
        <time>2022-08-27T03:20:36Z</time>
      </trkpt>
      <trkpt lat="45.75733" lon="6.81752">
        <ele>2789</ele>
        <time>2022-08-27T03:20:38Z</time>
      </trkpt>
      <trkpt lat="45.75734" lon="6.81755">
        <ele>2787</ele>
        <time>2022-08-27T03:20:41Z</time>
      </trkpt>
      <trkpt lat="45.75734" lon="6.81757">
        <ele>2787</ele>
        <time>2022-08-27T03:20:45Z</time>
      </trkpt>
      <trkpt lat="45.75735" lon="6.8176">
        <ele>2787</ele>
        <time>2022-08-27T03:20:48Z</time>
      </trkpt>
      <trkpt lat="45.75736" lon="6.81763">
        <ele>2787</ele>
        <time>2022-08-27T03:20:51Z</time>
      </trkpt>
      <trkpt lat="45.75738" lon="6.81767">
        <ele>2787</ele>
        <time>2022-08-27T03:20:56Z</time>
      </trkpt>
      <trkpt lat="45.75738" lon="6.8177">
        <ele>2787</ele>
        <time>2022-08-27T03:20:59Z</time>
      </trkpt>
      <trkpt lat="45.75739" lon="6.81773">
        <ele>2789</ele>
        <time>2022-08-27T03:21:02Z</time>
      </trkpt>
      <trkpt lat="45.7574" lon="6.81776">
        <ele>2789</ele>
        <time>2022-08-27T03:21:06Z</time>
      </trkpt>
      <trkpt lat="45.75741" lon="6.81779">
        <ele>2790</ele>
        <time>2022-08-27T03:21:09Z</time>
      </trkpt>
      <trkpt lat="45.75743" lon="6.81781">
        <ele>2790</ele>
        <time>2022-08-27T03:21:12Z</time>
      </trkpt>
      <trkpt lat="45.75744" lon="6.81783">
        <ele>2791</ele>
        <time>2022-08-27T03:21:15Z</time>
      </trkpt>
      <trkpt lat="45.75746" lon="6.81785">
        <ele>2792</ele>
        <time>2022-08-27T03:21:18Z</time>
      </trkpt>
      <trkpt lat="45.75747" lon="6.81789">
        <ele>2792</ele>
        <time>2022-08-27T03:21:22Z</time>
      </trkpt>
      <trkpt lat="45.75747" lon="6.81792">
        <ele>2793</ele>
        <time>2022-08-27T03:21:24Z</time>
      </trkpt>
      <trkpt lat="45.75746" lon="6.81795">
        <ele>2793</ele>
        <time>2022-08-27T03:21:27Z</time>
      </trkpt>
      <trkpt lat="45.75747" lon="6.81798">
        <ele>2793</ele>
        <time>2022-08-27T03:21:30Z</time>
      </trkpt>
      <trkpt lat="45.75746" lon="6.81801">
        <ele>2794</ele>
        <time>2022-08-27T03:21:33Z</time>
      </trkpt>
      <trkpt lat="45.75748" lon="6.81803">
        <ele>2795</ele>
        <time>2022-08-27T03:21:38Z</time>
      </trkpt>
      <trkpt lat="45.75749" lon="6.81805">
        <ele>2795</ele>
        <time>2022-08-27T03:21:42Z</time>
      </trkpt>
      <trkpt lat="45.7575" lon="6.81808">
        <ele>2797</ele>
        <time>2022-08-27T03:21:46Z</time>
      </trkpt>
      <trkpt lat="45.75751" lon="6.8181">
        <ele>2797</ele>
        <time>2022-08-27T03:21:49Z</time>
      </trkpt>
      <trkpt lat="45.75753" lon="6.81812">
        <ele>2797</ele>
        <time>2022-08-27T03:21:52Z</time>
      </trkpt>
      <trkpt lat="45.75755" lon="6.81815">
        <ele>2798</ele>
        <time>2022-08-27T03:21:56Z</time>
      </trkpt>
      <trkpt lat="45.75756" lon="6.81817">
        <ele>2799</ele>
        <time>2022-08-27T03:22:00Z</time>
      </trkpt>
      <trkpt lat="45.75758" lon="6.81819">
        <ele>2799</ele>
        <time>2022-08-27T03:22:03Z</time>
      </trkpt>
      <trkpt lat="45.7576" lon="6.81821">
        <ele>2799</ele>
        <time>2022-08-27T03:22:06Z</time>
      </trkpt>
      <trkpt lat="45.75761" lon="6.81824">
        <ele>2799</ele>
        <time>2022-08-27T03:22:09Z</time>
      </trkpt>
      <trkpt lat="45.75762" lon="6.81826">
        <ele>2801</ele>
        <time>2022-08-27T03:22:12Z</time>
      </trkpt>
      <trkpt lat="45.75765" lon="6.81828">
        <ele>2801</ele>
        <time>2022-08-27T03:22:15Z</time>
      </trkpt>
      <trkpt lat="45.75767" lon="6.81829">
        <ele>2802</ele>
        <time>2022-08-27T03:22:17Z</time>
      </trkpt>
      <trkpt lat="45.75769" lon="6.81829">
        <ele>2802</ele>
        <time>2022-08-27T03:22:19Z</time>
      </trkpt>
      <trkpt lat="45.75771" lon="6.8183">
        <ele>2802</ele>
        <time>2022-08-27T03:22:22Z</time>
      </trkpt>
      <trkpt lat="45.75773" lon="6.81832">
        <ele>2803</ele>
        <time>2022-08-27T03:22:25Z</time>
      </trkpt>
      <trkpt lat="45.75774" lon="6.81835">
        <ele>2804</ele>
        <time>2022-08-27T03:22:28Z</time>
      </trkpt>
      <trkpt lat="45.75776" lon="6.81838">
        <ele>2805</ele>
        <time>2022-08-27T03:22:31Z</time>
      </trkpt>
      <trkpt lat="45.75777" lon="6.81841">
        <ele>2805</ele>
        <time>2022-08-27T03:22:33Z</time>
      </trkpt>
      <trkpt lat="45.75778" lon="6.81844">
        <ele>2804</ele>
        <time>2022-08-27T03:22:36Z</time>
      </trkpt>
      <trkpt lat="45.7578" lon="6.81847">
        <ele>2805</ele>
        <time>2022-08-27T03:22:39Z</time>
      </trkpt>
      <trkpt lat="45.75781" lon="6.8185">
        <ele>2806</ele>
        <time>2022-08-27T03:22:42Z</time>
      </trkpt>
      <trkpt lat="45.75783" lon="6.81852">
        <ele>2806</ele>
        <time>2022-08-27T03:22:45Z</time>
      </trkpt>
      <trkpt lat="45.75784" lon="6.81854">
        <ele>2806</ele>
        <time>2022-08-27T03:22:48Z</time>
      </trkpt>
      <trkpt lat="45.75785" lon="6.81857">
        <ele>2806</ele>
        <time>2022-08-27T03:22:50Z</time>
      </trkpt>
      <trkpt lat="45.75786" lon="6.81859">
        <ele>2807</ele>
        <time>2022-08-27T03:22:52Z</time>
      </trkpt>
      <trkpt lat="45.75787" lon="6.81862">
        <ele>2807</ele>
        <time>2022-08-27T03:22:55Z</time>
      </trkpt>
      <trkpt lat="45.75788" lon="6.81865">
        <ele>2808</ele>
        <time>2022-08-27T03:22:58Z</time>
      </trkpt>
      <trkpt lat="45.75789" lon="6.81868">
        <ele>2808</ele>
        <time>2022-08-27T03:23:01Z</time>
      </trkpt>
      <trkpt lat="45.75789" lon="6.81871">
        <ele>2809</ele>
        <time>2022-08-27T03:23:04Z</time>
      </trkpt>
      <trkpt lat="45.75791" lon="6.81874">
        <ele>2809</ele>
        <time>2022-08-27T03:23:07Z</time>
      </trkpt>
      <trkpt lat="45.75792" lon="6.81876">
        <ele>2809</ele>
        <time>2022-08-27T03:23:10Z</time>
      </trkpt>
      <trkpt lat="45.75794" lon="6.81879">
        <ele>2810</ele>
        <time>2022-08-27T03:23:14Z</time>
      </trkpt>
      <trkpt lat="45.75795" lon="6.81881">
        <ele>2810</ele>
        <time>2022-08-27T03:23:17Z</time>
      </trkpt>
      <trkpt lat="45.75796" lon="6.81883">
        <ele>2813</ele>
        <time>2022-08-27T03:23:21Z</time>
      </trkpt>
      <trkpt lat="45.75797" lon="6.81881">
        <ele>2814</ele>
        <time>2022-08-27T03:23:24Z</time>
      </trkpt>
      <trkpt lat="45.75799" lon="6.81879">
        <ele>2814</ele>
        <time>2022-08-27T03:23:26Z</time>
      </trkpt>
      <trkpt lat="45.75801" lon="6.81876">
        <ele>2814</ele>
        <time>2022-08-27T03:23:29Z</time>
      </trkpt>
      <trkpt lat="45.75802" lon="6.81874">
        <ele>2815</ele>
        <time>2022-08-27T03:23:32Z</time>
      </trkpt>
      <trkpt lat="45.75804" lon="6.81873">
        <ele>2815</ele>
        <time>2022-08-27T03:23:35Z</time>
      </trkpt>
      <trkpt lat="45.75806" lon="6.81872">
        <ele>2815</ele>
        <time>2022-08-27T03:23:37Z</time>
      </trkpt>
      <trkpt lat="45.75808" lon="6.81872">
        <ele>2815</ele>
        <time>2022-08-27T03:23:39Z</time>
      </trkpt>
      <trkpt lat="45.7581" lon="6.81873">
        <ele>2815</ele>
        <time>2022-08-27T03:23:41Z</time>
      </trkpt>
      <trkpt lat="45.75812" lon="6.81874">
        <ele>2816</ele>
        <time>2022-08-27T03:23:44Z</time>
      </trkpt>
      <trkpt lat="45.75814" lon="6.81875">
        <ele>2816</ele>
        <time>2022-08-27T03:23:47Z</time>
      </trkpt>
      <trkpt lat="45.75815" lon="6.81876">
        <ele>2816</ele>
        <time>2022-08-27T03:23:49Z</time>
      </trkpt>
      <trkpt lat="45.75818" lon="6.81878">
        <ele>2817</ele>
        <time>2022-08-27T03:23:52Z</time>
      </trkpt>
      <trkpt lat="45.7582" lon="6.8188">
        <ele>2818</ele>
        <time>2022-08-27T03:23:55Z</time>
      </trkpt>
      <trkpt lat="45.75823" lon="6.8188">
        <ele>2818</ele>
        <time>2022-08-27T03:23:58Z</time>
      </trkpt>
      <trkpt lat="45.75823" lon="6.8188">
        <ele>2818</ele>
        <time>2022-08-27T03:23:59Z</time>
      </trkpt>
      <trkpt lat="45.75824" lon="6.8188">
        <ele>2818</ele>
        <time>2022-08-27T03:24:00Z</time>
      </trkpt>
      <trkpt lat="45.75825" lon="6.81881">
        <ele>2818</ele>
        <time>2022-08-27T03:24:01Z</time>
      </trkpt>
      <trkpt lat="45.75826" lon="6.81881">
        <ele>2818</ele>
        <time>2022-08-27T03:24:03Z</time>
      </trkpt>
      <trkpt lat="45.75827" lon="6.81882">
        <ele>2818</ele>
        <time>2022-08-27T03:24:04Z</time>
      </trkpt>
      <trkpt lat="45.75828" lon="6.81882">
        <ele>2819</ele>
        <time>2022-08-27T03:24:05Z</time>
      </trkpt>
      <trkpt lat="45.75829" lon="6.81882">
        <ele>2819</ele>
        <time>2022-08-27T03:24:07Z</time>
      </trkpt>
      <trkpt lat="45.7583" lon="6.81883">
        <ele>2819</ele>
        <time>2022-08-27T03:24:08Z</time>
      </trkpt>
      <trkpt lat="45.75831" lon="6.81883">
        <ele>2820</ele>
        <time>2022-08-27T03:24:09Z</time>
      </trkpt>
      <trkpt lat="45.75833" lon="6.81884">
        <ele>2820</ele>
        <time>2022-08-27T03:24:12Z</time>
      </trkpt>
      <trkpt lat="45.75835" lon="6.81885">
        <ele>2820</ele>
        <time>2022-08-27T03:24:15Z</time>
      </trkpt>
      <trkpt lat="45.75837" lon="6.81885">
        <ele>2821</ele>
        <time>2022-08-27T03:24:18Z</time>
      </trkpt>
      <trkpt lat="45.75839" lon="6.81887">
        <ele>2822</ele>
        <time>2022-08-27T03:24:21Z</time>
      </trkpt>
      <trkpt lat="45.75847" lon="6.81888">
        <ele>2823</ele>
        <time>2022-08-27T03:24:33Z</time>
      </trkpt>
      <trkpt lat="45.75849" lon="6.81888">
        <ele>2825</ele>
        <time>2022-08-27T03:24:36Z</time>
      </trkpt>
      <trkpt lat="45.7585" lon="6.81889">
        <ele>2825</ele>
        <time>2022-08-27T03:24:38Z</time>
      </trkpt>
      <trkpt lat="45.7585" lon="6.8189">
        <ele>2825</ele>
        <time>2022-08-27T03:24:39Z</time>
      </trkpt>
      <trkpt lat="45.75851" lon="6.81891">
        <ele>2825</ele>
        <time>2022-08-27T03:24:40Z</time>
      </trkpt>
      <trkpt lat="45.75852" lon="6.81892">
        <ele>2826</ele>
        <time>2022-08-27T03:24:41Z</time>
      </trkpt>
      <trkpt lat="45.75852" lon="6.81892">
        <ele>2826</ele>
        <time>2022-08-27T03:24:43Z</time>
      </trkpt>
      <trkpt lat="45.75853" lon="6.81893">
        <ele>2826</ele>
        <time>2022-08-27T03:24:45Z</time>
      </trkpt>
      <trkpt lat="45.75854" lon="6.81894">
        <ele>2827</ele>
        <time>2022-08-27T03:24:47Z</time>
      </trkpt>
      <trkpt lat="45.75854" lon="6.81895">
        <ele>2827</ele>
        <time>2022-08-27T03:24:49Z</time>
      </trkpt>
      <trkpt lat="45.75855" lon="6.81896">
        <ele>2827</ele>
        <time>2022-08-27T03:24:50Z</time>
      </trkpt>
      <trkpt lat="45.75855" lon="6.81896">
        <ele>2827</ele>
        <time>2022-08-27T03:24:51Z</time>
      </trkpt>
      <trkpt lat="45.75856" lon="6.81897">
        <ele>2827</ele>
        <time>2022-08-27T03:24:52Z</time>
      </trkpt>
      <trkpt lat="45.75857" lon="6.81898">
        <ele>2827</ele>
        <time>2022-08-27T03:24:53Z</time>
      </trkpt>
      <trkpt lat="45.75858" lon="6.81898">
        <ele>2828</ele>
        <time>2022-08-27T03:24:54Z</time>
      </trkpt>
      <trkpt lat="45.75859" lon="6.81899">
        <ele>2828</ele>
        <time>2022-08-27T03:24:55Z</time>
      </trkpt>
      <trkpt lat="45.75859" lon="6.81899">
        <ele>2828</ele>
        <time>2022-08-27T03:24:57Z</time>
      </trkpt>
      <trkpt lat="45.7586" lon="6.819">
        <ele>2828</ele>
        <time>2022-08-27T03:24:58Z</time>
      </trkpt>
      <trkpt lat="45.75861" lon="6.819">
        <ele>2828</ele>
        <time>2022-08-27T03:24:59Z</time>
      </trkpt>
      <trkpt lat="45.75862" lon="6.81901">
        <ele>2828</ele>
        <time>2022-08-27T03:25:00Z</time>
      </trkpt>
      <trkpt lat="45.75864" lon="6.81901">
        <ele>2829</ele>
        <time>2022-08-27T03:25:03Z</time>
      </trkpt>
      <trkpt lat="45.75866" lon="6.81901">
        <ele>2829</ele>
        <time>2022-08-27T03:25:06Z</time>
      </trkpt>
      <trkpt lat="45.75868" lon="6.81902">
        <ele>2830</ele>
        <time>2022-08-27T03:25:09Z</time>
      </trkpt>
      <trkpt lat="45.75868" lon="6.81904">
        <ele>2830</ele>
        <time>2022-08-27T03:25:11Z</time>
      </trkpt>
      <trkpt lat="45.75867" lon="6.81906">
        <ele>2830</ele>
        <time>2022-08-27T03:25:13Z</time>
      </trkpt>
      <trkpt lat="45.75865" lon="6.81908">
        <ele>2831</ele>
        <time>2022-08-27T03:25:16Z</time>
      </trkpt>
      <trkpt lat="45.75863" lon="6.81909">
        <ele>2831</ele>
        <time>2022-08-27T03:25:18Z</time>
      </trkpt>
      <trkpt lat="45.75861" lon="6.81911">
        <ele>2832</ele>
        <time>2022-08-27T03:25:23Z</time>
      </trkpt>
      <trkpt lat="45.75863" lon="6.81912">
        <ele>2833</ele>
        <time>2022-08-27T03:25:27Z</time>
      </trkpt>
      <trkpt lat="45.75867" lon="6.81912">
        <ele>2834</ele>
        <time>2022-08-27T03:25:32Z</time>
      </trkpt>
      <trkpt lat="45.75869" lon="6.81914">
        <ele>2834</ele>
        <time>2022-08-27T03:25:35Z</time>
      </trkpt>
      <trkpt lat="45.75871" lon="6.81916">
        <ele>2834</ele>
        <time>2022-08-27T03:25:38Z</time>
      </trkpt>
      <trkpt lat="45.75872" lon="6.81918">
        <ele>2835</ele>
        <time>2022-08-27T03:25:41Z</time>
      </trkpt>
      <trkpt lat="45.75872" lon="6.81922">
        <ele>2837</ele>
        <time>2022-08-27T03:25:45Z</time>
      </trkpt>
      <trkpt lat="45.75874" lon="6.81924">
        <ele>2837</ele>
        <time>2022-08-27T03:25:48Z</time>
      </trkpt>
      <trkpt lat="45.75874" lon="6.81926">
        <ele>2838</ele>
        <time>2022-08-27T03:25:51Z</time>
      </trkpt>
      <trkpt lat="45.75871" lon="6.81927">
        <ele>2838</ele>
        <time>2022-08-27T03:25:54Z</time>
      </trkpt>
      <trkpt lat="45.75871" lon="6.8193">
        <ele>2839</ele>
        <time>2022-08-27T03:26:00Z</time>
      </trkpt>
      <trkpt lat="45.75872" lon="6.81932">
        <ele>2839</ele>
        <time>2022-08-27T03:26:03Z</time>
      </trkpt>
      <trkpt lat="45.75873" lon="6.81935">
        <ele>2840</ele>
        <time>2022-08-27T03:26:06Z</time>
      </trkpt>
      <trkpt lat="45.75875" lon="6.81938">
        <ele>2840</ele>
        <time>2022-08-27T03:26:09Z</time>
      </trkpt>
      <trkpt lat="45.75875" lon="6.81941">
        <ele>2840</ele>
        <time>2022-08-27T03:26:12Z</time>
      </trkpt>
      <trkpt lat="45.75876" lon="6.81943">
        <ele>2841</ele>
        <time>2022-08-27T03:26:15Z</time>
      </trkpt>
      <trkpt lat="45.75877" lon="6.81946">
        <ele>2842</ele>
        <time>2022-08-27T03:26:18Z</time>
      </trkpt>
      <trkpt lat="45.75878" lon="6.81949">
        <ele>2842</ele>
        <time>2022-08-27T03:26:21Z</time>
      </trkpt>
      <trkpt lat="45.75878" lon="6.81952">
        <ele>2842</ele>
        <time>2022-08-27T03:26:24Z</time>
      </trkpt>
      <trkpt lat="45.75879" lon="6.81956">
        <ele>2842</ele>
        <time>2022-08-27T03:26:27Z</time>
      </trkpt>
      <trkpt lat="45.75881" lon="6.81958">
        <ele>2843</ele>
        <time>2022-08-27T03:26:29Z</time>
      </trkpt>
      <trkpt lat="45.75882" lon="6.8196">
        <ele>2843</ele>
        <time>2022-08-27T03:26:31Z</time>
      </trkpt>
      <trkpt lat="45.75885" lon="6.81962">
        <ele>2843</ele>
        <time>2022-08-27T03:26:33Z</time>
      </trkpt>
      <trkpt lat="45.75886" lon="6.81964">
        <ele>2843</ele>
        <time>2022-08-27T03:26:35Z</time>
      </trkpt>
      <trkpt lat="45.75888" lon="6.81965">
        <ele>2843</ele>
        <time>2022-08-27T03:26:37Z</time>
      </trkpt>
      <trkpt lat="45.7589" lon="6.81966">
        <ele>2843</ele>
        <time>2022-08-27T03:26:39Z</time>
      </trkpt>
      <trkpt lat="45.75893" lon="6.81966">
        <ele>2842</ele>
        <time>2022-08-27T03:26:41Z</time>
      </trkpt>
      <trkpt lat="45.75895" lon="6.81966">
        <ele>2842</ele>
        <time>2022-08-27T03:26:43Z</time>
      </trkpt>
      <trkpt lat="45.75897" lon="6.81964">
        <ele>2842</ele>
        <time>2022-08-27T03:26:45Z</time>
      </trkpt>
      <trkpt lat="45.75899" lon="6.81963">
        <ele>2842</ele>
        <time>2022-08-27T03:26:47Z</time>
      </trkpt>
      <trkpt lat="45.759" lon="6.81962">
        <ele>2842</ele>
        <time>2022-08-27T03:26:49Z</time>
      </trkpt>
      <trkpt lat="45.75901" lon="6.81961">
        <ele>2842</ele>
        <time>2022-08-27T03:26:51Z</time>
      </trkpt>
      <trkpt lat="45.75903" lon="6.8196">
        <ele>2841</ele>
        <time>2022-08-27T03:26:52Z</time>
      </trkpt>
      <trkpt lat="45.75904" lon="6.8196">
        <ele>2841</ele>
        <time>2022-08-27T03:26:53Z</time>
      </trkpt>
      <trkpt lat="45.75905" lon="6.81959">
        <ele>2841</ele>
        <time>2022-08-27T03:26:54Z</time>
      </trkpt>
      <trkpt lat="45.75906" lon="6.81958">
        <ele>2841</ele>
        <time>2022-08-27T03:26:56Z</time>
      </trkpt>
      <trkpt lat="45.75907" lon="6.81958">
        <ele>2841</ele>
        <time>2022-08-27T03:26:57Z</time>
      </trkpt>
      <trkpt lat="45.75909" lon="6.81957">
        <ele>2841</ele>
        <time>2022-08-27T03:26:58Z</time>
      </trkpt>
      <trkpt lat="45.75909" lon="6.81956">
        <ele>2841</ele>
        <time>2022-08-27T03:27:00Z</time>
      </trkpt>
      <trkpt lat="45.7591" lon="6.81955">
        <ele>2841</ele>
        <time>2022-08-27T03:27:01Z</time>
      </trkpt>
      <trkpt lat="45.7591" lon="6.81953">
        <ele>2841</ele>
        <time>2022-08-27T03:27:02Z</time>
      </trkpt>
      <trkpt lat="45.75911" lon="6.81952">
        <ele>2841</ele>
        <time>2022-08-27T03:27:03Z</time>
      </trkpt>
      <trkpt lat="45.75911" lon="6.81951">
        <ele>2842</ele>
        <time>2022-08-27T03:27:05Z</time>
      </trkpt>
      <trkpt lat="45.75912" lon="6.8195">
        <ele>2842</ele>
        <time>2022-08-27T03:27:06Z</time>
      </trkpt>
      <trkpt lat="45.75913" lon="6.81949">
        <ele>2842</ele>
        <time>2022-08-27T03:27:07Z</time>
      </trkpt>
      <trkpt lat="45.75913" lon="6.81947">
        <ele>2842</ele>
        <time>2022-08-27T03:27:08Z</time>
      </trkpt>
      <trkpt lat="45.75914" lon="6.81946">
        <ele>2842</ele>
        <time>2022-08-27T03:27:09Z</time>
      </trkpt>
      <trkpt lat="45.75914" lon="6.81945">
        <ele>2842</ele>
        <time>2022-08-27T03:27:10Z</time>
      </trkpt>
      <trkpt lat="45.75915" lon="6.81943">
        <ele>2842</ele>
        <time>2022-08-27T03:27:11Z</time>
      </trkpt>
      <trkpt lat="45.75916" lon="6.81942">
        <ele>2842</ele>
        <time>2022-08-27T03:27:12Z</time>
      </trkpt>
      <trkpt lat="45.75917" lon="6.8194">
        <ele>2842</ele>
        <time>2022-08-27T03:27:13Z</time>
      </trkpt>
      <trkpt lat="45.75917" lon="6.81939">
        <ele>2842</ele>
        <time>2022-08-27T03:27:15Z</time>
      </trkpt>
      <trkpt lat="45.75918" lon="6.81937">
        <ele>2842</ele>
        <time>2022-08-27T03:27:17Z</time>
      </trkpt>
      <trkpt lat="45.75919" lon="6.81936">
        <ele>2842</ele>
        <time>2022-08-27T03:27:18Z</time>
      </trkpt>
      <trkpt lat="45.7592" lon="6.81934">
        <ele>2842</ele>
        <time>2022-08-27T03:27:19Z</time>
      </trkpt>
      <trkpt lat="45.75921" lon="6.81933">
        <ele>2842</ele>
        <time>2022-08-27T03:27:21Z</time>
      </trkpt>
      <trkpt lat="45.75922" lon="6.81931">
        <ele>2842</ele>
        <time>2022-08-27T03:27:23Z</time>
      </trkpt>
      <trkpt lat="45.75923" lon="6.8193">
        <ele>2842</ele>
        <time>2022-08-27T03:27:24Z</time>
      </trkpt>
      <trkpt lat="45.75923" lon="6.81928">
        <ele>2842</ele>
        <time>2022-08-27T03:27:25Z</time>
      </trkpt>
      <trkpt lat="45.75924" lon="6.81927">
        <ele>2842</ele>
        <time>2022-08-27T03:27:26Z</time>
      </trkpt>
      <trkpt lat="45.75925" lon="6.81925">
        <ele>2842</ele>
        <time>2022-08-27T03:27:28Z</time>
      </trkpt>
      <trkpt lat="45.75926" lon="6.81924">
        <ele>2842</ele>
        <time>2022-08-27T03:27:29Z</time>
      </trkpt>
      <trkpt lat="45.75931" lon="6.81912">
        <ele>2842</ele>
        <time>2022-08-27T03:27:38Z</time>
      </trkpt>
      <trkpt lat="45.75932" lon="6.81911">
        <ele>2842</ele>
        <time>2022-08-27T03:27:40Z</time>
      </trkpt>
      <trkpt lat="45.75933" lon="6.8191">
        <ele>2842</ele>
        <time>2022-08-27T03:27:41Z</time>
      </trkpt>
      <trkpt lat="45.75934" lon="6.8191">
        <ele>2842</ele>
        <time>2022-08-27T03:27:43Z</time>
      </trkpt>
      <trkpt lat="45.75935" lon="6.81909">
        <ele>2842</ele>
        <time>2022-08-27T03:27:45Z</time>
      </trkpt>
      <trkpt lat="45.75936" lon="6.81908">
        <ele>2842</ele>
        <time>2022-08-27T03:27:46Z</time>
      </trkpt>
      <trkpt lat="45.75937" lon="6.81907">
        <ele>2842</ele>
        <time>2022-08-27T03:27:47Z</time>
      </trkpt>
      <trkpt lat="45.75938" lon="6.81906">
        <ele>2842</ele>
        <time>2022-08-27T03:27:48Z</time>
      </trkpt>
      <trkpt lat="45.75939" lon="6.81906">
        <ele>2842</ele>
        <time>2022-08-27T03:27:49Z</time>
      </trkpt>
      <trkpt lat="45.75939" lon="6.81905">
        <ele>2842</ele>
        <time>2022-08-27T03:27:50Z</time>
      </trkpt>
      <trkpt lat="45.75941" lon="6.81904">
        <ele>2842</ele>
        <time>2022-08-27T03:27:51Z</time>
      </trkpt>
      <trkpt lat="45.75942" lon="6.81904">
        <ele>2843</ele>
        <time>2022-08-27T03:27:53Z</time>
      </trkpt>
      <trkpt lat="45.75943" lon="6.81904">
        <ele>2843</ele>
        <time>2022-08-27T03:27:55Z</time>
      </trkpt>
      <trkpt lat="45.75944" lon="6.81903">
        <ele>2843</ele>
        <time>2022-08-27T03:27:56Z</time>
      </trkpt>
      <trkpt lat="45.75945" lon="6.81903">
        <ele>2843</ele>
        <time>2022-08-27T03:27:57Z</time>
      </trkpt>
      <trkpt lat="45.75946" lon="6.81903">
        <ele>2843</ele>
        <time>2022-08-27T03:27:59Z</time>
      </trkpt>
      <trkpt lat="45.75947" lon="6.81902">
        <ele>2843</ele>
        <time>2022-08-27T03:28:00Z</time>
      </trkpt>
      <trkpt lat="45.75948" lon="6.81902">
        <ele>2844</ele>
        <time>2022-08-27T03:28:01Z</time>
      </trkpt>
      <trkpt lat="45.75955" lon="6.81893">
        <ele>2845</ele>
        <time>2022-08-27T03:28:14Z</time>
      </trkpt>
      <trkpt lat="45.75956" lon="6.81892">
        <ele>2845</ele>
        <time>2022-08-27T03:28:15Z</time>
      </trkpt>
      <trkpt lat="45.75956" lon="6.81891">
        <ele>2845</ele>
        <time>2022-08-27T03:28:16Z</time>
      </trkpt>
      <trkpt lat="45.75957" lon="6.8189">
        <ele>2845</ele>
        <time>2022-08-27T03:28:17Z</time>
      </trkpt>
      <trkpt lat="45.75958" lon="6.81889">
        <ele>2845</ele>
        <time>2022-08-27T03:28:19Z</time>
      </trkpt>
      <trkpt lat="45.75959" lon="6.81888">
        <ele>2845</ele>
        <time>2022-08-27T03:28:21Z</time>
      </trkpt>
      <trkpt lat="45.75959" lon="6.81888">
        <ele>2845</ele>
        <time>2022-08-27T03:28:22Z</time>
      </trkpt>
      <trkpt lat="45.7596" lon="6.81887">
        <ele>2845</ele>
        <time>2022-08-27T03:28:23Z</time>
      </trkpt>
      <trkpt lat="45.75961" lon="6.81886">
        <ele>2845</ele>
        <time>2022-08-27T03:28:24Z</time>
      </trkpt>
      <trkpt lat="45.75962" lon="6.81885">
        <ele>2845</ele>
        <time>2022-08-27T03:28:26Z</time>
      </trkpt>
      <trkpt lat="45.75962" lon="6.81884">
        <ele>2845</ele>
        <time>2022-08-27T03:28:27Z</time>
      </trkpt>
      <trkpt lat="45.75963" lon="6.81883">
        <ele>2845</ele>
        <time>2022-08-27T03:28:28Z</time>
      </trkpt>
      <trkpt lat="45.75964" lon="6.81883">
        <ele>2845</ele>
        <time>2022-08-27T03:28:29Z</time>
      </trkpt>
      <trkpt lat="45.75964" lon="6.81882">
        <ele>2846</ele>
        <time>2022-08-27T03:28:31Z</time>
      </trkpt>
      <trkpt lat="45.75965" lon="6.81881">
        <ele>2846</ele>
        <time>2022-08-27T03:28:33Z</time>
      </trkpt>
      <trkpt lat="45.75965" lon="6.8188">
        <ele>2847</ele>
        <time>2022-08-27T03:28:35Z</time>
      </trkpt>
      <trkpt lat="45.75966" lon="6.8188">
        <ele>2847</ele>
        <time>2022-08-27T03:28:37Z</time>
      </trkpt>
      <trkpt lat="45.75967" lon="6.81879">
        <ele>2847</ele>
        <time>2022-08-27T03:28:38Z</time>
      </trkpt>
      <trkpt lat="45.75967" lon="6.81878">
        <ele>2847</ele>
        <time>2022-08-27T03:28:39Z</time>
      </trkpt>
      <trkpt lat="45.75968" lon="6.81877">
        <ele>2847</ele>
        <time>2022-08-27T03:28:40Z</time>
      </trkpt>
      <trkpt lat="45.75968" lon="6.81877">
        <ele>2847</ele>
        <time>2022-08-27T03:28:42Z</time>
      </trkpt>
      <trkpt lat="45.75969" lon="6.81876">
        <ele>2847</ele>
        <time>2022-08-27T03:28:43Z</time>
      </trkpt>
      <trkpt lat="45.7597" lon="6.81875">
        <ele>2847</ele>
        <time>2022-08-27T03:28:44Z</time>
      </trkpt>
      <trkpt lat="45.7597" lon="6.81874">
        <ele>2847</ele>
        <time>2022-08-27T03:28:45Z</time>
      </trkpt>
      <trkpt lat="45.7597" lon="6.81874">
        <ele>2847</ele>
        <time>2022-08-27T03:28:47Z</time>
      </trkpt>
      <trkpt lat="45.7597" lon="6.81873">
        <ele>2847</ele>
        <time>2022-08-27T03:28:48Z</time>
      </trkpt>
      <trkpt lat="45.75971" lon="6.81873">
        <ele>2847</ele>
        <time>2022-08-27T03:28:49Z</time>
      </trkpt>
      <trkpt lat="45.75971" lon="6.81872">
        <ele>2847</ele>
        <time>2022-08-27T03:28:50Z</time>
      </trkpt>
      <trkpt lat="45.75971" lon="6.81871">
        <ele>2849</ele>
        <time>2022-08-27T03:28:52Z</time>
      </trkpt>
      <trkpt lat="45.75972" lon="6.81871">
        <ele>2849</ele>
        <time>2022-08-27T03:28:54Z</time>
      </trkpt>
      <trkpt lat="45.75972" lon="6.8187">
        <ele>2849</ele>
        <time>2022-08-27T03:28:55Z</time>
      </trkpt>
      <trkpt lat="45.75972" lon="6.8187">
        <ele>2849</ele>
        <time>2022-08-27T03:28:56Z</time>
      </trkpt>
      <trkpt lat="45.75973" lon="6.81869">
        <ele>2849</ele>
        <time>2022-08-27T03:28:57Z</time>
      </trkpt>
      <trkpt lat="45.75977" lon="6.81862">
        <ele>2850</ele>
        <time>2022-08-27T03:28:58Z</time>
      </trkpt>
      <trkpt lat="45.75977" lon="6.81862">
        <ele>2850</ele>
        <time>2022-08-27T03:28:59Z</time>
      </trkpt>
      <trkpt lat="45.75978" lon="6.81862">
        <ele>2850</ele>
        <time>2022-08-27T03:29:00Z</time>
      </trkpt>
      <trkpt lat="45.75979" lon="6.81861">
        <ele>2850</ele>
        <time>2022-08-27T03:29:01Z</time>
      </trkpt>
      <trkpt lat="45.75979" lon="6.81861">
        <ele>2850</ele>
        <time>2022-08-27T03:29:02Z</time>
      </trkpt>
      <trkpt lat="45.7598" lon="6.8186">
        <ele>2851</ele>
        <time>2022-08-27T03:29:03Z</time>
      </trkpt>
      <trkpt lat="45.75981" lon="6.8186">
        <ele>2851</ele>
        <time>2022-08-27T03:29:04Z</time>
      </trkpt>
      <trkpt lat="45.75981" lon="6.81859">
        <ele>2851</ele>
        <time>2022-08-27T03:29:05Z</time>
      </trkpt>
      <trkpt lat="45.75982" lon="6.81859">
        <ele>2851</ele>
        <time>2022-08-27T03:29:06Z</time>
      </trkpt>
      <trkpt lat="45.75982" lon="6.81858">
        <ele>2851</ele>
        <time>2022-08-27T03:29:07Z</time>
      </trkpt>
      <trkpt lat="45.75983" lon="6.81858">
        <ele>2852</ele>
        <time>2022-08-27T03:29:09Z</time>
      </trkpt>
      <trkpt lat="45.75984" lon="6.81857">
        <ele>2852</ele>
        <time>2022-08-27T03:29:10Z</time>
      </trkpt>
      <trkpt lat="45.75984" lon="6.81857">
        <ele>2852</ele>
        <time>2022-08-27T03:29:11Z</time>
      </trkpt>
      <trkpt lat="45.75985" lon="6.81856">
        <ele>2852</ele>
        <time>2022-08-27T03:29:13Z</time>
      </trkpt>
      <trkpt lat="45.75986" lon="6.81855">
        <ele>2853</ele>
        <time>2022-08-27T03:29:14Z</time>
      </trkpt>
      <trkpt lat="45.75986" lon="6.81854">
        <ele>2853</ele>
        <time>2022-08-27T03:29:15Z</time>
      </trkpt>
      <trkpt lat="45.75987" lon="6.81853">
        <ele>2853</ele>
        <time>2022-08-27T03:29:16Z</time>
      </trkpt>
      <trkpt lat="45.75988" lon="6.81853">
        <ele>2853</ele>
        <time>2022-08-27T03:29:17Z</time>
      </trkpt>
      <trkpt lat="45.75988" lon="6.81852">
        <ele>2853</ele>
        <time>2022-08-27T03:29:18Z</time>
      </trkpt>
      <trkpt lat="45.75989" lon="6.81851">
        <ele>2853</ele>
        <time>2022-08-27T03:29:19Z</time>
      </trkpt>
      <trkpt lat="45.7599" lon="6.8185">
        <ele>2853</ele>
        <time>2022-08-27T03:29:20Z</time>
      </trkpt>
      <trkpt lat="45.7599" lon="6.81849">
        <ele>2853</ele>
        <time>2022-08-27T03:29:21Z</time>
      </trkpt>
      <trkpt lat="45.75991" lon="6.81848">
        <ele>2853</ele>
        <time>2022-08-27T03:29:22Z</time>
      </trkpt>
      <trkpt lat="45.75991" lon="6.81847">
        <ele>2853</ele>
        <time>2022-08-27T03:29:23Z</time>
      </trkpt>
      <trkpt lat="45.75992" lon="6.81846">
        <ele>2853</ele>
        <time>2022-08-27T03:29:24Z</time>
      </trkpt>
      <trkpt lat="45.75993" lon="6.81844">
        <ele>2853</ele>
        <time>2022-08-27T03:29:25Z</time>
      </trkpt>
      <trkpt lat="45.75993" lon="6.81843">
        <ele>2853</ele>
        <time>2022-08-27T03:29:26Z</time>
      </trkpt>
      <trkpt lat="45.75994" lon="6.81841">
        <ele>2853</ele>
        <time>2022-08-27T03:29:28Z</time>
      </trkpt>
      <trkpt lat="45.75995" lon="6.8184">
        <ele>2853</ele>
        <time>2022-08-27T03:29:30Z</time>
      </trkpt>
      <trkpt lat="45.75995" lon="6.81838">
        <ele>2853</ele>
        <time>2022-08-27T03:29:31Z</time>
      </trkpt>
      <trkpt lat="45.75996" lon="6.81837">
        <ele>2853</ele>
        <time>2022-08-27T03:29:32Z</time>
      </trkpt>
      <trkpt lat="45.75997" lon="6.81835">
        <ele>2853</ele>
        <time>2022-08-27T03:29:33Z</time>
      </trkpt>
      <trkpt lat="45.75998" lon="6.81822">
        <ele>2856</ele>
        <time>2022-08-27T03:29:47Z</time>
      </trkpt>
      <trkpt lat="45.75999" lon="6.81822">
        <ele>2856</ele>
        <time>2022-08-27T03:29:49Z</time>
      </trkpt>
      <trkpt lat="45.75999" lon="6.81821">
        <ele>2856</ele>
        <time>2022-08-27T03:29:50Z</time>
      </trkpt>
      <trkpt lat="45.76" lon="6.8182">
        <ele>2856</ele>
        <time>2022-08-27T03:29:51Z</time>
      </trkpt>
      <trkpt lat="45.76001" lon="6.81819">
        <ele>2856</ele>
        <time>2022-08-27T03:29:52Z</time>
      </trkpt>
      <trkpt lat="45.76001" lon="6.81818">
        <ele>2856</ele>
        <time>2022-08-27T03:29:53Z</time>
      </trkpt>
      <trkpt lat="45.76002" lon="6.81817">
        <ele>2857</ele>
        <time>2022-08-27T03:29:54Z</time>
      </trkpt>
      <trkpt lat="45.76002" lon="6.81816">
        <ele>2857</ele>
        <time>2022-08-27T03:29:55Z</time>
      </trkpt>
      <trkpt lat="45.76003" lon="6.81816">
        <ele>2857</ele>
        <time>2022-08-27T03:29:56Z</time>
      </trkpt>
      <trkpt lat="45.76003" lon="6.81815">
        <ele>2858</ele>
        <time>2022-08-27T03:29:58Z</time>
      </trkpt>
      <trkpt lat="45.76004" lon="6.81814">
        <ele>2858</ele>
        <time>2022-08-27T03:29:59Z</time>
      </trkpt>
      <trkpt lat="45.76004" lon="6.81813">
        <ele>2858</ele>
        <time>2022-08-27T03:30:00Z</time>
      </trkpt>
      <trkpt lat="45.76005" lon="6.81812">
        <ele>2858</ele>
        <time>2022-08-27T03:30:01Z</time>
      </trkpt>
      <trkpt lat="45.76005" lon="6.81812">
        <ele>2858</ele>
        <time>2022-08-27T03:30:02Z</time>
      </trkpt>
      <trkpt lat="45.76006" lon="6.81812">
        <ele>2858</ele>
        <time>2022-08-27T03:30:03Z</time>
      </trkpt>
      <trkpt lat="45.76006" lon="6.81811">
        <ele>2858</ele>
        <time>2022-08-27T03:30:04Z</time>
      </trkpt>
      <trkpt lat="45.76007" lon="6.81811">
        <ele>2859</ele>
        <time>2022-08-27T03:30:06Z</time>
      </trkpt>
      <trkpt lat="45.76008" lon="6.81811">
        <ele>2859</ele>
        <time>2022-08-27T03:30:08Z</time>
      </trkpt>
      <trkpt lat="45.76008" lon="6.81811">
        <ele>2859</ele>
        <time>2022-08-27T03:30:09Z</time>
      </trkpt>
      <trkpt lat="45.76009" lon="6.8181">
        <ele>2859</ele>
        <time>2022-08-27T03:30:10Z</time>
      </trkpt>
      <trkpt lat="45.76009" lon="6.8181">
        <ele>2859</ele>
        <time>2022-08-27T03:30:11Z</time>
      </trkpt>
      <trkpt lat="45.7601" lon="6.8181">
        <ele>2860</ele>
        <time>2022-08-27T03:30:13Z</time>
      </trkpt>
      <trkpt lat="45.7601" lon="6.81809">
        <ele>2860</ele>
        <time>2022-08-27T03:30:14Z</time>
      </trkpt>
      <trkpt lat="45.76011" lon="6.81809">
        <ele>2860</ele>
        <time>2022-08-27T03:30:15Z</time>
      </trkpt>
      <trkpt lat="45.76011" lon="6.81809">
        <ele>2862</ele>
        <time>2022-08-27T03:30:16Z</time>
      </trkpt>
      <trkpt lat="45.76012" lon="6.81809">
        <ele>2862</ele>
        <time>2022-08-27T03:30:17Z</time>
      </trkpt>
      <trkpt lat="45.76012" lon="6.81808">
        <ele>2862</ele>
        <time>2022-08-27T03:30:18Z</time>
      </trkpt>
      <trkpt lat="45.76013" lon="6.81808">
        <ele>2862</ele>
        <time>2022-08-27T03:30:19Z</time>
      </trkpt>
      <trkpt lat="45.76014" lon="6.81808">
        <ele>2862</ele>
        <time>2022-08-27T03:30:20Z</time>
      </trkpt>
      <trkpt lat="45.76014" lon="6.81807">
        <ele>2862</ele>
        <time>2022-08-27T03:30:21Z</time>
      </trkpt>
      <trkpt lat="45.76015" lon="6.81806">
        <ele>2863</ele>
        <time>2022-08-27T03:30:23Z</time>
      </trkpt>
      <trkpt lat="45.76015" lon="6.81805">
        <ele>2863</ele>
        <time>2022-08-27T03:30:24Z</time>
      </trkpt>
      <trkpt lat="45.76016" lon="6.81805">
        <ele>2863</ele>
        <time>2022-08-27T03:30:25Z</time>
      </trkpt>
      <trkpt lat="45.76016" lon="6.81804">
        <ele>2863</ele>
        <time>2022-08-27T03:30:27Z</time>
      </trkpt>
      <trkpt lat="45.76017" lon="6.81803">
        <ele>2864</ele>
        <time>2022-08-27T03:30:28Z</time>
      </trkpt>
      <trkpt lat="45.76018" lon="6.81802">
        <ele>2864</ele>
        <time>2022-08-27T03:30:29Z</time>
      </trkpt>
      <trkpt lat="45.76018" lon="6.81802">
        <ele>2864</ele>
        <time>2022-08-27T03:30:31Z</time>
      </trkpt>
      <trkpt lat="45.76019" lon="6.81801">
        <ele>2864</ele>
        <time>2022-08-27T03:30:32Z</time>
      </trkpt>
      <trkpt lat="45.76019" lon="6.818">
        <ele>2864</ele>
        <time>2022-08-27T03:30:34Z</time>
      </trkpt>
      <trkpt lat="45.7602" lon="6.81799">
        <ele>2865</ele>
        <time>2022-08-27T03:30:36Z</time>
      </trkpt>
      <trkpt lat="45.7602" lon="6.81799">
        <ele>2865</ele>
        <time>2022-08-27T03:30:37Z</time>
      </trkpt>
      <trkpt lat="45.76029" lon="6.81804">
        <ele>2868</ele>
        <time>2022-08-27T03:30:53Z</time>
      </trkpt>
      <trkpt lat="45.7603" lon="6.81804">
        <ele>2868</ele>
        <time>2022-08-27T03:30:54Z</time>
      </trkpt>
      <trkpt lat="45.7603" lon="6.81803">
        <ele>2869</ele>
        <time>2022-08-27T03:30:55Z</time>
      </trkpt>
      <trkpt lat="45.76031" lon="6.81803">
        <ele>2869</ele>
        <time>2022-08-27T03:30:56Z</time>
      </trkpt>
      <trkpt lat="45.76031" lon="6.81803">
        <ele>2869</ele>
        <time>2022-08-27T03:30:58Z</time>
      </trkpt>
      <trkpt lat="45.76032" lon="6.81803">
        <ele>2869</ele>
        <time>2022-08-27T03:30:59Z</time>
      </trkpt>
      <trkpt lat="45.76032" lon="6.81802">
        <ele>2869</ele>
        <time>2022-08-27T03:31:00Z</time>
      </trkpt>
      <trkpt lat="45.76033" lon="6.81802">
        <ele>2869</ele>
        <time>2022-08-27T03:31:01Z</time>
      </trkpt>
      <trkpt lat="45.76033" lon="6.81802">
        <ele>2870</ele>
        <time>2022-08-27T03:31:03Z</time>
      </trkpt>
      <trkpt lat="45.76034" lon="6.81802">
        <ele>2870</ele>
        <time>2022-08-27T03:31:05Z</time>
      </trkpt>
      <trkpt lat="45.76034" lon="6.81801">
        <ele>2870</ele>
        <time>2022-08-27T03:31:06Z</time>
      </trkpt>
      <trkpt lat="45.76035" lon="6.81801">
        <ele>2871</ele>
        <time>2022-08-27T03:31:07Z</time>
      </trkpt>
      <trkpt lat="45.76036" lon="6.81801">
        <ele>2871</ele>
        <time>2022-08-27T03:31:09Z</time>
      </trkpt>
      <trkpt lat="45.76036" lon="6.81801">
        <ele>2872</ele>
        <time>2022-08-27T03:31:10Z</time>
      </trkpt>
      <trkpt lat="45.76037" lon="6.818">
        <ele>2872</ele>
        <time>2022-08-27T03:31:11Z</time>
      </trkpt>
      <trkpt lat="45.76037" lon="6.818">
        <ele>2872</ele>
        <time>2022-08-27T03:31:12Z</time>
      </trkpt>
      <trkpt lat="45.76038" lon="6.818">
        <ele>2872</ele>
        <time>2022-08-27T03:31:13Z</time>
      </trkpt>
      <trkpt lat="45.76038" lon="6.818">
        <ele>2872</ele>
        <time>2022-08-27T03:31:14Z</time>
      </trkpt>
      <trkpt lat="45.76045" lon="6.81791">
        <ele>2874</ele>
        <time>2022-08-27T03:31:26Z</time>
      </trkpt>
      <trkpt lat="45.76046" lon="6.8179">
        <ele>2874</ele>
        <time>2022-08-27T03:31:27Z</time>
      </trkpt>
      <trkpt lat="45.76046" lon="6.81789">
        <ele>2875</ele>
        <time>2022-08-27T03:31:28Z</time>
      </trkpt>
      <trkpt lat="45.76046" lon="6.81788">
        <ele>2875</ele>
        <time>2022-08-27T03:31:29Z</time>
      </trkpt>
      <trkpt lat="45.76047" lon="6.81787">
        <ele>2875</ele>
        <time>2022-08-27T03:31:31Z</time>
      </trkpt>
      <trkpt lat="45.76047" lon="6.81786">
        <ele>2876</ele>
        <time>2022-08-27T03:31:32Z</time>
      </trkpt>
      <trkpt lat="45.76048" lon="6.81786">
        <ele>2876</ele>
        <time>2022-08-27T03:31:33Z</time>
      </trkpt>
      <trkpt lat="45.76048" lon="6.81785">
        <ele>2876</ele>
        <time>2022-08-27T03:31:34Z</time>
      </trkpt>
      <trkpt lat="45.76049" lon="6.81784">
        <ele>2876</ele>
        <time>2022-08-27T03:31:36Z</time>
      </trkpt>
      <trkpt lat="45.76049" lon="6.81783">
        <ele>2876</ele>
        <time>2022-08-27T03:31:37Z</time>
      </trkpt>
      <trkpt lat="45.76049" lon="6.81782">
        <ele>2877</ele>
        <time>2022-08-27T03:31:38Z</time>
      </trkpt>
      <trkpt lat="45.7605" lon="6.81781">
        <ele>2877</ele>
        <time>2022-08-27T03:31:39Z</time>
      </trkpt>
      <trkpt lat="45.7605" lon="6.8178">
        <ele>2876</ele>
        <time>2022-08-27T03:31:41Z</time>
      </trkpt>
      <trkpt lat="45.76051" lon="6.81779">
        <ele>2877</ele>
        <time>2022-08-27T03:31:42Z</time>
      </trkpt>
      <trkpt lat="45.76051" lon="6.81779">
        <ele>2877</ele>
        <time>2022-08-27T03:31:43Z</time>
      </trkpt>
      <trkpt lat="45.76052" lon="6.81778">
        <ele>2877</ele>
        <time>2022-08-27T03:31:44Z</time>
      </trkpt>
      <trkpt lat="45.76052" lon="6.81777">
        <ele>2877</ele>
        <time>2022-08-27T03:31:45Z</time>
      </trkpt>
      <trkpt lat="45.76053" lon="6.81776">
        <ele>2877</ele>
        <time>2022-08-27T03:31:47Z</time>
      </trkpt>
      <trkpt lat="45.76053" lon="6.81776">
        <ele>2877</ele>
        <time>2022-08-27T03:31:48Z</time>
      </trkpt>
      <trkpt lat="45.76054" lon="6.81775">
        <ele>2877</ele>
        <time>2022-08-27T03:31:49Z</time>
      </trkpt>
      <trkpt lat="45.76054" lon="6.81774">
        <ele>2877</ele>
        <time>2022-08-27T03:31:50Z</time>
      </trkpt>
      <trkpt lat="45.76055" lon="6.81773">
        <ele>2877</ele>
        <time>2022-08-27T03:31:52Z</time>
      </trkpt>
      <trkpt lat="45.76055" lon="6.81773">
        <ele>2877</ele>
        <time>2022-08-27T03:31:53Z</time>
      </trkpt>
      <trkpt lat="45.76056" lon="6.81772">
        <ele>2878</ele>
        <time>2022-08-27T03:31:54Z</time>
      </trkpt>
      <trkpt lat="45.76056" lon="6.81771">
        <ele>2878</ele>
        <time>2022-08-27T03:31:55Z</time>
      </trkpt>
      <trkpt lat="45.76057" lon="6.81771">
        <ele>2879</ele>
        <time>2022-08-27T03:31:57Z</time>
      </trkpt>
      <trkpt lat="45.76057" lon="6.8177">
        <ele>2879</ele>
        <time>2022-08-27T03:31:58Z</time>
      </trkpt>
      <trkpt lat="45.76058" lon="6.81769">
        <ele>2879</ele>
        <time>2022-08-27T03:31:59Z</time>
      </trkpt>
      <trkpt lat="45.76059" lon="6.81767">
        <ele>2879</ele>
        <time>2022-08-27T03:32:00Z</time>
      </trkpt>
      <trkpt lat="45.7606" lon="6.81766">
        <ele>2879</ele>
        <time>2022-08-27T03:32:02Z</time>
      </trkpt>
      <trkpt lat="45.76061" lon="6.81765">
        <ele>2879</ele>
        <time>2022-08-27T03:32:04Z</time>
      </trkpt>
      <trkpt lat="45.76062" lon="6.81764">
        <ele>2880</ele>
        <time>2022-08-27T03:32:05Z</time>
      </trkpt>
      <trkpt lat="45.76063" lon="6.81762">
        <ele>2880</ele>
        <time>2022-08-27T03:32:06Z</time>
      </trkpt>
      <trkpt lat="45.76064" lon="6.81761">
        <ele>2880</ele>
        <time>2022-08-27T03:32:07Z</time>
      </trkpt>
      <trkpt lat="45.76064" lon="6.81759">
        <ele>2880</ele>
        <time>2022-08-27T03:32:09Z</time>
      </trkpt>
      <trkpt lat="45.76065" lon="6.81757">
        <ele>2880</ele>
        <time>2022-08-27T03:32:10Z</time>
      </trkpt>
      <trkpt lat="45.76065" lon="6.81755">
        <ele>2880</ele>
        <time>2022-08-27T03:32:11Z</time>
      </trkpt>
      <trkpt lat="45.76066" lon="6.81754">
        <ele>2880</ele>
        <time>2022-08-27T03:32:12Z</time>
      </trkpt>
      <trkpt lat="45.76066" lon="6.81752">
        <ele>2880</ele>
        <time>2022-08-27T03:32:14Z</time>
      </trkpt>
      <trkpt lat="45.76067" lon="6.8175">
        <ele>2880</ele>
        <time>2022-08-27T03:32:15Z</time>
      </trkpt>
      <trkpt lat="45.76067" lon="6.81748">
        <ele>2880</ele>
        <time>2022-08-27T03:32:16Z</time>
      </trkpt>
      <trkpt lat="45.76068" lon="6.81747">
        <ele>2880</ele>
        <time>2022-08-27T03:32:17Z</time>
      </trkpt>
      <trkpt lat="45.76069" lon="6.81746">
        <ele>2880</ele>
        <time>2022-08-27T03:32:19Z</time>
      </trkpt>
      <trkpt lat="45.76069" lon="6.81744">
        <ele>2880</ele>
        <time>2022-08-27T03:32:21Z</time>
      </trkpt>
      <trkpt lat="45.7607" lon="6.81743">
        <ele>2880</ele>
        <time>2022-08-27T03:32:22Z</time>
      </trkpt>
      <trkpt lat="45.7607" lon="6.81742">
        <ele>2880</ele>
        <time>2022-08-27T03:32:23Z</time>
      </trkpt>
      <trkpt lat="45.76071" lon="6.81741">
        <ele>2880</ele>
        <time>2022-08-27T03:32:24Z</time>
      </trkpt>
      <trkpt lat="45.76072" lon="6.8174">
        <ele>2880</ele>
        <time>2022-08-27T03:32:25Z</time>
      </trkpt>
      <trkpt lat="45.76072" lon="6.81738">
        <ele>2880</ele>
        <time>2022-08-27T03:32:26Z</time>
      </trkpt>
      <trkpt lat="45.76073" lon="6.81737">
        <ele>2880</ele>
        <time>2022-08-27T03:32:27Z</time>
      </trkpt>
      <trkpt lat="45.76073" lon="6.81736">
        <ele>2880</ele>
        <time>2022-08-27T03:32:28Z</time>
      </trkpt>
      <trkpt lat="45.76074" lon="6.81736">
        <ele>2880</ele>
        <time>2022-08-27T03:32:30Z</time>
      </trkpt>
      <trkpt lat="45.76075" lon="6.81735">
        <ele>2880</ele>
        <time>2022-08-27T03:32:31Z</time>
      </trkpt>
      <trkpt lat="45.76076" lon="6.81735">
        <ele>2880</ele>
        <time>2022-08-27T03:32:32Z</time>
      </trkpt>
      <trkpt lat="45.76077" lon="6.81735">
        <ele>2880</ele>
        <time>2022-08-27T03:32:33Z</time>
      </trkpt>
      <trkpt lat="45.76078" lon="6.81734">
        <ele>2881</ele>
        <time>2022-08-27T03:32:35Z</time>
      </trkpt>
      <trkpt lat="45.76079" lon="6.81734">
        <ele>2881</ele>
        <time>2022-08-27T03:32:36Z</time>
      </trkpt>
      <trkpt lat="45.7608" lon="6.81734">
        <ele>2881</ele>
        <time>2022-08-27T03:32:37Z</time>
      </trkpt>
      <trkpt lat="45.7608" lon="6.81733">
        <ele>2881</ele>
        <time>2022-08-27T03:32:38Z</time>
      </trkpt>
      <trkpt lat="45.76081" lon="6.81733">
        <ele>2881</ele>
        <time>2022-08-27T03:32:39Z</time>
      </trkpt>
      <trkpt lat="45.76082" lon="6.81733">
        <ele>2881</ele>
        <time>2022-08-27T03:32:40Z</time>
      </trkpt>
      <trkpt lat="45.76083" lon="6.81732">
        <ele>2882</ele>
        <time>2022-08-27T03:32:41Z</time>
      </trkpt>
      <trkpt lat="45.76084" lon="6.81731">
        <ele>2882</ele>
        <time>2022-08-27T03:32:42Z</time>
      </trkpt>
      <trkpt lat="45.76084" lon="6.81731">
        <ele>2882</ele>
        <time>2022-08-27T03:32:43Z</time>
      </trkpt>
      <trkpt lat="45.76085" lon="6.8173">
        <ele>2883</ele>
        <time>2022-08-27T03:32:45Z</time>
      </trkpt>
      <trkpt lat="45.76086" lon="6.81729">
        <ele>2883</ele>
        <time>2022-08-27T03:32:46Z</time>
      </trkpt>
      <trkpt lat="45.76086" lon="6.81728">
        <ele>2883</ele>
        <time>2022-08-27T03:32:47Z</time>
      </trkpt>
      <trkpt lat="45.76087" lon="6.81728">
        <ele>2883</ele>
        <time>2022-08-27T03:32:48Z</time>
      </trkpt>
      <trkpt lat="45.76088" lon="6.81727">
        <ele>2883</ele>
        <time>2022-08-27T03:32:50Z</time>
      </trkpt>
      <trkpt lat="45.76089" lon="6.81726">
        <ele>2883</ele>
        <time>2022-08-27T03:32:51Z</time>
      </trkpt>
      <trkpt lat="45.76089" lon="6.81725">
        <ele>2884</ele>
        <time>2022-08-27T03:32:53Z</time>
      </trkpt>
      <trkpt lat="45.7609" lon="6.81725">
        <ele>2884</ele>
        <time>2022-08-27T03:32:54Z</time>
      </trkpt>
      <trkpt lat="45.76099" lon="6.81721">
        <ele>2886</ele>
        <time>2022-08-27T03:33:08Z</time>
      </trkpt>
      <trkpt lat="45.761" lon="6.81721">
        <ele>2886</ele>
        <time>2022-08-27T03:33:09Z</time>
      </trkpt>
      <trkpt lat="45.76101" lon="6.8172">
        <ele>2886</ele>
        <time>2022-08-27T03:33:10Z</time>
      </trkpt>
      <trkpt lat="45.76102" lon="6.8172">
        <ele>2886</ele>
        <time>2022-08-27T03:33:11Z</time>
      </trkpt>
      <trkpt lat="45.76103" lon="6.8172">
        <ele>2887</ele>
        <time>2022-08-27T03:33:13Z</time>
      </trkpt>
      <trkpt lat="45.76104" lon="6.81719">
        <ele>2887</ele>
        <time>2022-08-27T03:33:14Z</time>
      </trkpt>
      <trkpt lat="45.76105" lon="6.81719">
        <ele>2887</ele>
        <time>2022-08-27T03:33:15Z</time>
      </trkpt>
      <trkpt lat="45.76106" lon="6.81719">
        <ele>2887</ele>
        <time>2022-08-27T03:33:16Z</time>
      </trkpt>
      <trkpt lat="45.76107" lon="6.81718">
        <ele>2887</ele>
        <time>2022-08-27T03:33:18Z</time>
      </trkpt>
      <trkpt lat="45.76108" lon="6.81718">
        <ele>2887</ele>
        <time>2022-08-27T03:33:19Z</time>
      </trkpt>
      <trkpt lat="45.76109" lon="6.81718">
        <ele>2888</ele>
        <time>2022-08-27T03:33:20Z</time>
      </trkpt>
      <trkpt lat="45.76109" lon="6.81717">
        <ele>2888</ele>
        <time>2022-08-27T03:33:21Z</time>
      </trkpt>
      <trkpt lat="45.7611" lon="6.81716">
        <ele>2888</ele>
        <time>2022-08-27T03:33:22Z</time>
      </trkpt>
      <trkpt lat="45.76111" lon="6.81715">
        <ele>2888</ele>
        <time>2022-08-27T03:33:23Z</time>
      </trkpt>
      <trkpt lat="45.76111" lon="6.81714">
        <ele>2888</ele>
        <time>2022-08-27T03:33:24Z</time>
      </trkpt>
      <trkpt lat="45.76112" lon="6.81714">
        <ele>2888</ele>
        <time>2022-08-27T03:33:25Z</time>
      </trkpt>
      <trkpt lat="45.76113" lon="6.81713">
        <ele>2888</ele>
        <time>2022-08-27T03:33:26Z</time>
      </trkpt>
      <trkpt lat="45.76113" lon="6.81712">
        <ele>2888</ele>
        <time>2022-08-27T03:33:27Z</time>
      </trkpt>
      <trkpt lat="45.76114" lon="6.81711">
        <ele>2888</ele>
        <time>2022-08-27T03:33:28Z</time>
      </trkpt>
      <trkpt lat="45.76115" lon="6.8171">
        <ele>2889</ele>
        <time>2022-08-27T03:33:30Z</time>
      </trkpt>
      <trkpt lat="45.76115" lon="6.8171">
        <ele>2889</ele>
        <time>2022-08-27T03:33:31Z</time>
      </trkpt>
      <trkpt lat="45.76116" lon="6.81709">
        <ele>2889</ele>
        <time>2022-08-27T03:33:32Z</time>
      </trkpt>
      <trkpt lat="45.76117" lon="6.81708">
        <ele>2889</ele>
        <time>2022-08-27T03:33:33Z</time>
      </trkpt>
      <trkpt lat="45.76118" lon="6.81708">
        <ele>2890</ele>
        <time>2022-08-27T03:33:35Z</time>
      </trkpt>
      <trkpt lat="45.76119" lon="6.81707">
        <ele>2890</ele>
        <time>2022-08-27T03:33:37Z</time>
      </trkpt>
      <trkpt lat="45.76119" lon="6.81707">
        <ele>2890</ele>
        <time>2022-08-27T03:33:38Z</time>
      </trkpt>
      <trkpt lat="45.7612" lon="6.81707">
        <ele>2890</ele>
        <time>2022-08-27T03:33:39Z</time>
      </trkpt>
      <trkpt lat="45.76121" lon="6.81706">
        <ele>2890</ele>
        <time>2022-08-27T03:33:41Z</time>
      </trkpt>
      <trkpt lat="45.76122" lon="6.81706">
        <ele>2890</ele>
        <time>2022-08-27T03:33:42Z</time>
      </trkpt>
      <trkpt lat="45.76123" lon="6.81705">
        <ele>2891</ele>
        <time>2022-08-27T03:33:43Z</time>
      </trkpt>
      <trkpt lat="45.76124" lon="6.81705">
        <ele>2891</ele>
        <time>2022-08-27T03:33:44Z</time>
      </trkpt>
      <trkpt lat="45.76124" lon="6.81704">
        <ele>2891</ele>
        <time>2022-08-27T03:33:46Z</time>
      </trkpt>
      <trkpt lat="45.76125" lon="6.81704">
        <ele>2891</ele>
        <time>2022-08-27T03:33:47Z</time>
      </trkpt>
      <trkpt lat="45.76126" lon="6.81703">
        <ele>2891</ele>
        <time>2022-08-27T03:33:48Z</time>
      </trkpt>
      <trkpt lat="45.76127" lon="6.81702">
        <ele>2892</ele>
        <time>2022-08-27T03:33:49Z</time>
      </trkpt>
      <trkpt lat="45.76127" lon="6.81701">
        <ele>2892</ele>
        <time>2022-08-27T03:33:50Z</time>
      </trkpt>
      <trkpt lat="45.76128" lon="6.81701">
        <ele>2892</ele>
        <time>2022-08-27T03:33:52Z</time>
      </trkpt>
      <trkpt lat="45.76129" lon="6.817">
        <ele>2892</ele>
        <time>2022-08-27T03:33:53Z</time>
      </trkpt>
      <trkpt lat="45.76129" lon="6.81699">
        <ele>2892</ele>
        <time>2022-08-27T03:33:54Z</time>
      </trkpt>
      <trkpt lat="45.7613" lon="6.81698">
        <ele>2893</ele>
        <time>2022-08-27T03:33:56Z</time>
      </trkpt>
      <trkpt lat="45.76131" lon="6.81697">
        <ele>2893</ele>
        <time>2022-08-27T03:33:58Z</time>
      </trkpt>
      <trkpt lat="45.76131" lon="6.81696">
        <ele>2893</ele>
        <time>2022-08-27T03:34:00Z</time>
      </trkpt>
      <trkpt lat="45.76132" lon="6.81695">
        <ele>2893</ele>
        <time>2022-08-27T03:34:01Z</time>
      </trkpt>
      <trkpt lat="45.76133" lon="6.81695">
        <ele>2894</ele>
        <time>2022-08-27T03:34:02Z</time>
      </trkpt>
      <trkpt lat="45.76133" lon="6.81695">
        <ele>2894</ele>
        <time>2022-08-27T03:34:03Z</time>
      </trkpt>
      <trkpt lat="45.76134" lon="6.81694">
        <ele>2894</ele>
        <time>2022-08-27T03:34:05Z</time>
      </trkpt>
      <trkpt lat="45.76135" lon="6.81694">
        <ele>2894</ele>
        <time>2022-08-27T03:34:06Z</time>
      </trkpt>
      <trkpt lat="45.76136" lon="6.81693">
        <ele>2894</ele>
        <time>2022-08-27T03:34:07Z</time>
      </trkpt>
      <trkpt lat="45.76136" lon="6.81693">
        <ele>2895</ele>
        <time>2022-08-27T03:34:08Z</time>
      </trkpt>
      <trkpt lat="45.76137" lon="6.81692">
        <ele>2895</ele>
        <time>2022-08-27T03:34:10Z</time>
      </trkpt>
      <trkpt lat="45.76138" lon="6.81692">
        <ele>2895</ele>
        <time>2022-08-27T03:34:11Z</time>
      </trkpt>
      <trkpt lat="45.76138" lon="6.81691">
        <ele>2895</ele>
        <time>2022-08-27T03:34:12Z</time>
      </trkpt>
      <trkpt lat="45.76139" lon="6.81691">
        <ele>2896</ele>
        <time>2022-08-27T03:34:13Z</time>
      </trkpt>
      <trkpt lat="45.7614" lon="6.8169">
        <ele>2896</ele>
        <time>2022-08-27T03:34:14Z</time>
      </trkpt>
      <trkpt lat="45.76141" lon="6.8169">
        <ele>2896</ele>
        <time>2022-08-27T03:34:15Z</time>
      </trkpt>
      <trkpt lat="45.76144" lon="6.81688">
        <ele>2896</ele>
        <time>2022-08-27T03:34:20Z</time>
      </trkpt>
      <trkpt lat="45.76146" lon="6.81686">
        <ele>2898</ele>
        <time>2022-08-27T03:34:23Z</time>
      </trkpt>
      <trkpt lat="45.76149" lon="6.81685">
        <ele>2898</ele>
        <time>2022-08-27T03:34:26Z</time>
      </trkpt>
      <trkpt lat="45.7615" lon="6.81684">
        <ele>2898</ele>
        <time>2022-08-27T03:34:29Z</time>
      </trkpt>
      <trkpt lat="45.76153" lon="6.81684">
        <ele>2899</ele>
        <time>2022-08-27T03:34:31Z</time>
      </trkpt>
      <trkpt lat="45.76155" lon="6.81683">
        <ele>2899</ele>
        <time>2022-08-27T03:34:34Z</time>
      </trkpt>
      <trkpt lat="45.76157" lon="6.81682">
        <ele>2900</ele>
        <time>2022-08-27T03:34:37Z</time>
      </trkpt>
      <trkpt lat="45.76159" lon="6.81681">
        <ele>2900</ele>
        <time>2022-08-27T03:34:40Z</time>
      </trkpt>
      <trkpt lat="45.76161" lon="6.81679">
        <ele>2900</ele>
        <time>2022-08-27T03:34:43Z</time>
      </trkpt>
      <trkpt lat="45.76163" lon="6.81677">
        <ele>2901</ele>
        <time>2022-08-27T03:34:46Z</time>
      </trkpt>
      <trkpt lat="45.76165" lon="6.81676">
        <ele>2902</ele>
        <time>2022-08-27T03:34:49Z</time>
      </trkpt>
      <trkpt lat="45.76167" lon="6.81675">
        <ele>2902</ele>
        <time>2022-08-27T03:34:52Z</time>
      </trkpt>
      <trkpt lat="45.76169" lon="6.81675">
        <ele>2902</ele>
        <time>2022-08-27T03:34:54Z</time>
      </trkpt>
      <trkpt lat="45.76171" lon="6.81675">
        <ele>2902</ele>
        <time>2022-08-27T03:34:57Z</time>
      </trkpt>
      <trkpt lat="45.76173" lon="6.81675">
        <ele>2902</ele>
        <time>2022-08-27T03:35:00Z</time>
      </trkpt>
      <trkpt lat="45.76175" lon="6.81675">
        <ele>2903</ele>
        <time>2022-08-27T03:35:03Z</time>
      </trkpt>
      <trkpt lat="45.76177" lon="6.81676">
        <ele>2903</ele>
        <time>2022-08-27T03:35:07Z</time>
      </trkpt>
      <trkpt lat="45.76179" lon="6.81677">
        <ele>2904</ele>
        <time>2022-08-27T03:35:11Z</time>
      </trkpt>
      <trkpt lat="45.76181" lon="6.81678">
        <ele>2904</ele>
        <time>2022-08-27T03:35:14Z</time>
      </trkpt>
      <trkpt lat="45.76183" lon="6.8168">
        <ele>2905</ele>
        <time>2022-08-27T03:35:17Z</time>
      </trkpt>
      <trkpt lat="45.76185" lon="6.81682">
        <ele>2905</ele>
        <time>2022-08-27T03:35:20Z</time>
      </trkpt>
      <trkpt lat="45.76187" lon="6.81683">
        <ele>2906</ele>
        <time>2022-08-27T03:35:23Z</time>
      </trkpt>
      <trkpt lat="45.76189" lon="6.81684">
        <ele>2906</ele>
        <time>2022-08-27T03:35:26Z</time>
      </trkpt>
      <trkpt lat="45.76191" lon="6.81686">
        <ele>2907</ele>
        <time>2022-08-27T03:35:29Z</time>
      </trkpt>
      <trkpt lat="45.76193" lon="6.81688">
        <ele>2907</ele>
        <time>2022-08-27T03:35:32Z</time>
      </trkpt>
      <trkpt lat="45.76195" lon="6.8169">
        <ele>2907</ele>
        <time>2022-08-27T03:35:35Z</time>
      </trkpt>
      <trkpt lat="45.76198" lon="6.81691">
        <ele>2907</ele>
        <time>2022-08-27T03:35:38Z</time>
      </trkpt>
      <trkpt lat="45.762" lon="6.81693">
        <ele>2908</ele>
        <time>2022-08-27T03:35:41Z</time>
      </trkpt>
      <trkpt lat="45.76202" lon="6.81694">
        <ele>2908</ele>
        <time>2022-08-27T03:35:44Z</time>
      </trkpt>
      <trkpt lat="45.76203" lon="6.81696">
        <ele>2908</ele>
        <time>2022-08-27T03:35:46Z</time>
      </trkpt>
      <trkpt lat="45.76205" lon="6.81697">
        <ele>2910</ele>
        <time>2022-08-27T03:35:49Z</time>
      </trkpt>
      <trkpt lat="45.76207" lon="6.81699">
        <ele>2908</ele>
        <time>2022-08-27T03:35:52Z</time>
      </trkpt>
      <trkpt lat="45.76208" lon="6.817">
        <ele>2908</ele>
        <time>2022-08-27T03:35:54Z</time>
      </trkpt>
      <trkpt lat="45.76209" lon="6.817">
        <ele>2910</ele>
        <time>2022-08-27T03:35:55Z</time>
      </trkpt>
      <trkpt lat="45.76209" lon="6.81701">
        <ele>2910</ele>
        <time>2022-08-27T03:35:56Z</time>
      </trkpt>
      <trkpt lat="45.7621" lon="6.81701">
        <ele>2910</ele>
        <time>2022-08-27T03:35:57Z</time>
      </trkpt>
      <trkpt lat="45.7621" lon="6.81702">
        <ele>2910</ele>
        <time>2022-08-27T03:35:59Z</time>
      </trkpt>
      <trkpt lat="45.76211" lon="6.81702">
        <ele>2910</ele>
        <time>2022-08-27T03:36:00Z</time>
      </trkpt>
      <trkpt lat="45.76211" lon="6.81703">
        <ele>2910</ele>
        <time>2022-08-27T03:36:01Z</time>
      </trkpt>
      <trkpt lat="45.76212" lon="6.81704">
        <ele>2910</ele>
        <time>2022-08-27T03:36:02Z</time>
      </trkpt>
      <trkpt lat="45.76213" lon="6.81704">
        <ele>2911</ele>
        <time>2022-08-27T03:36:04Z</time>
      </trkpt>
      <trkpt lat="45.76213" lon="6.81705">
        <ele>2911</ele>
        <time>2022-08-27T03:36:05Z</time>
      </trkpt>
      <trkpt lat="45.76214" lon="6.81705">
        <ele>2911</ele>
        <time>2022-08-27T03:36:06Z</time>
      </trkpt>
      <trkpt lat="45.76214" lon="6.81706">
        <ele>2911</ele>
        <time>2022-08-27T03:36:07Z</time>
      </trkpt>
      <trkpt lat="45.76215" lon="6.81708">
        <ele>2911</ele>
        <time>2022-08-27T03:36:09Z</time>
      </trkpt>
      <trkpt lat="45.76217" lon="6.8171">
        <ele>2912</ele>
        <time>2022-08-27T03:36:14Z</time>
      </trkpt>
      <trkpt lat="45.76219" lon="6.8171">
        <ele>2912</ele>
        <time>2022-08-27T03:36:19Z</time>
      </trkpt>
      <trkpt lat="45.76221" lon="6.81711">
        <ele>2913</ele>
        <time>2022-08-27T03:36:22Z</time>
      </trkpt>
      <trkpt lat="45.76223" lon="6.81711">
        <ele>2914</ele>
        <time>2022-08-27T03:36:26Z</time>
      </trkpt>
      <trkpt lat="45.76225" lon="6.81712">
        <ele>2915</ele>
        <time>2022-08-27T03:36:30Z</time>
      </trkpt>
      <trkpt lat="45.76227" lon="6.81713">
        <ele>2915</ele>
        <time>2022-08-27T03:36:34Z</time>
      </trkpt>
      <trkpt lat="45.76229" lon="6.81714">
        <ele>2916</ele>
        <time>2022-08-27T03:36:39Z</time>
      </trkpt>
      <trkpt lat="45.76231" lon="6.81713">
        <ele>2917</ele>
        <time>2022-08-27T03:36:43Z</time>
      </trkpt>
      <trkpt lat="45.76232" lon="6.81712">
        <ele>2917</ele>
        <time>2022-08-27T03:36:46Z</time>
      </trkpt>
      <trkpt lat="45.76235" lon="6.81713">
        <ele>2917</ele>
        <time>2022-08-27T03:36:49Z</time>
      </trkpt>
      <trkpt lat="45.76236" lon="6.81716">
        <ele>2917</ele>
        <time>2022-08-27T03:36:52Z</time>
      </trkpt>
      <trkpt lat="45.76238" lon="6.81714">
        <ele>2918</ele>
        <time>2022-08-27T03:36:57Z</time>
      </trkpt>
      <trkpt lat="45.76239" lon="6.81712">
        <ele>2919</ele>
        <time>2022-08-27T03:37:03Z</time>
      </trkpt>
      <trkpt lat="45.76242" lon="6.81711">
        <ele>2919</ele>
        <time>2022-08-27T03:37:06Z</time>
      </trkpt>
      <trkpt lat="45.76243" lon="6.81713">
        <ele>2920</ele>
        <time>2022-08-27T03:37:09Z</time>
      </trkpt>
      <trkpt lat="45.76245" lon="6.81716">
        <ele>2922</ele>
        <time>2022-08-27T03:37:16Z</time>
      </trkpt>
      <trkpt lat="45.76245" lon="6.81718">
        <ele>2922</ele>
        <time>2022-08-27T03:37:17Z</time>
      </trkpt>
      <trkpt lat="45.76245" lon="6.81719">
        <ele>2922</ele>
        <time>2022-08-27T03:37:18Z</time>
      </trkpt>
      <trkpt lat="45.76245" lon="6.8172">
        <ele>2922</ele>
        <time>2022-08-27T03:37:20Z</time>
      </trkpt>
      <trkpt lat="45.76246" lon="6.81721">
        <ele>2922</ele>
        <time>2022-08-27T03:37:21Z</time>
      </trkpt>
      <trkpt lat="45.76246" lon="6.81722">
        <ele>2923</ele>
        <time>2022-08-27T03:37:22Z</time>
      </trkpt>
      <trkpt lat="45.76246" lon="6.81723">
        <ele>2923</ele>
        <time>2022-08-27T03:37:23Z</time>
      </trkpt>
      <trkpt lat="45.76246" lon="6.81724">
        <ele>2923</ele>
        <time>2022-08-27T03:37:24Z</time>
      </trkpt>
      <trkpt lat="45.76246" lon="6.81726">
        <ele>2923</ele>
        <time>2022-08-27T03:37:25Z</time>
      </trkpt>
      <trkpt lat="45.76247" lon="6.81728">
        <ele>2923</ele>
        <time>2022-08-27T03:37:26Z</time>
      </trkpt>
      <trkpt lat="45.76248" lon="6.81731">
        <ele>2923</ele>
        <time>2022-08-27T03:37:29Z</time>
      </trkpt>
      <trkpt lat="45.76248" lon="6.81734">
        <ele>2924</ele>
        <time>2022-08-27T03:37:32Z</time>
      </trkpt>
      <trkpt lat="45.76248" lon="6.81734">
        <ele>2927</ele>
        <time>2022-08-27T03:37:46Z</time>
      </trkpt>
      <trkpt lat="45.76248" lon="6.81747">
        <ele>2927</ele>
        <time>2022-08-27T03:37:48Z</time>
      </trkpt>
      <trkpt lat="45.7625" lon="6.81745">
        <ele>2929</ele>
        <time>2022-08-27T03:37:55Z</time>
      </trkpt>
      <trkpt lat="45.76253" lon="6.81741">
        <ele>2929</ele>
        <time>2022-08-27T03:37:58Z</time>
      </trkpt>
      <trkpt lat="45.76254" lon="6.8174">
        <ele>2929</ele>
        <time>2022-08-27T03:38:01Z</time>
      </trkpt>
      <trkpt lat="45.76256" lon="6.81741">
        <ele>2930</ele>
        <time>2022-08-27T03:38:04Z</time>
      </trkpt>
      <trkpt lat="45.76256" lon="6.81738">
        <ele>2931</ele>
        <time>2022-08-27T03:38:07Z</time>
      </trkpt>
      <trkpt lat="45.76258" lon="6.81735">
        <ele>2931</ele>
        <time>2022-08-27T03:38:10Z</time>
      </trkpt>
      <trkpt lat="45.76259" lon="6.81733">
        <ele>2932</ele>
        <time>2022-08-27T03:38:12Z</time>
      </trkpt>
      <trkpt lat="45.76261" lon="6.81733">
        <ele>2932</ele>
        <time>2022-08-27T03:38:15Z</time>
      </trkpt>
      <trkpt lat="45.76262" lon="6.81736">
        <ele>2932</ele>
        <time>2022-08-27T03:38:18Z</time>
      </trkpt>
      <trkpt lat="45.76262" lon="6.8174">
        <ele>2934</ele>
        <time>2022-08-27T03:38:20Z</time>
      </trkpt>
      <trkpt lat="45.76262" lon="6.81741">
        <ele>2935</ele>
        <time>2022-08-27T03:38:22Z</time>
      </trkpt>
      <trkpt lat="45.76262" lon="6.81742">
        <ele>2935</ele>
        <time>2022-08-27T03:38:23Z</time>
      </trkpt>
      <trkpt lat="45.76263" lon="6.81743">
        <ele>2934</ele>
        <time>2022-08-27T03:38:24Z</time>
      </trkpt>
      <trkpt lat="45.76263" lon="6.81744">
        <ele>2935</ele>
        <time>2022-08-27T03:38:25Z</time>
      </trkpt>
      <trkpt lat="45.76263" lon="6.81745">
        <ele>2935</ele>
        <time>2022-08-27T03:38:27Z</time>
      </trkpt>
      <trkpt lat="45.76263" lon="6.81746">
        <ele>2935</ele>
        <time>2022-08-27T03:38:28Z</time>
      </trkpt>
      <trkpt lat="45.76263" lon="6.81748">
        <ele>2935</ele>
        <time>2022-08-27T03:38:29Z</time>
      </trkpt>
      <trkpt lat="45.76263" lon="6.81749">
        <ele>2936</ele>
        <time>2022-08-27T03:38:30Z</time>
      </trkpt>
      <trkpt lat="45.76263" lon="6.81752">
        <ele>2936</ele>
        <time>2022-08-27T03:38:32Z</time>
      </trkpt>
      <trkpt lat="45.76262" lon="6.81755">
        <ele>2936</ele>
        <time>2022-08-27T03:38:34Z</time>
      </trkpt>
      <trkpt lat="45.76262" lon="6.81758">
        <ele>2937</ele>
        <time>2022-08-27T03:38:37Z</time>
      </trkpt>
      <trkpt lat="45.76262" lon="6.81761">
        <ele>2937</ele>
        <time>2022-08-27T03:38:40Z</time>
      </trkpt>
      <trkpt lat="45.76263" lon="6.81764">
        <ele>2938</ele>
        <time>2022-08-27T03:38:43Z</time>
      </trkpt>
      <trkpt lat="45.76264" lon="6.81767">
        <ele>2938</ele>
        <time>2022-08-27T03:38:46Z</time>
      </trkpt>
      <trkpt lat="45.76264" lon="6.81771">
        <ele>2939</ele>
        <time>2022-08-27T03:38:49Z</time>
      </trkpt>
      <trkpt lat="45.76265" lon="6.81774">
        <ele>2940</ele>
        <time>2022-08-27T03:38:52Z</time>
      </trkpt>
      <trkpt lat="45.76266" lon="6.81777">
        <ele>2940</ele>
        <time>2022-08-27T03:38:55Z</time>
      </trkpt>
      <trkpt lat="45.76268" lon="6.81779">
        <ele>2940</ele>
        <time>2022-08-27T03:38:58Z</time>
      </trkpt>
      <trkpt lat="45.7627" lon="6.81781">
        <ele>2940</ele>
        <time>2022-08-27T03:39:01Z</time>
      </trkpt>
      <trkpt lat="45.76273" lon="6.81782">
        <ele>2940</ele>
        <time>2022-08-27T03:39:04Z</time>
      </trkpt>
      <trkpt lat="45.76275" lon="6.81783">
        <ele>2940</ele>
        <time>2022-08-27T03:39:07Z</time>
      </trkpt>
      <trkpt lat="45.76277" lon="6.81785">
        <ele>2940</ele>
        <time>2022-08-27T03:39:09Z</time>
      </trkpt>
      <trkpt lat="45.76278" lon="6.81787">
        <ele>2940</ele>
        <time>2022-08-27T03:39:11Z</time>
      </trkpt>
      <trkpt lat="45.7628" lon="6.81789">
        <ele>2940</ele>
        <time>2022-08-27T03:39:13Z</time>
      </trkpt>
      <trkpt lat="45.76282" lon="6.8179">
        <ele>2939</ele>
        <time>2022-08-27T03:39:15Z</time>
      </trkpt>
      <trkpt lat="45.76284" lon="6.81791">
        <ele>2938</ele>
        <time>2022-08-27T03:39:17Z</time>
      </trkpt>
      <trkpt lat="45.76286" lon="6.81794">
        <ele>2938</ele>
        <time>2022-08-27T03:39:19Z</time>
      </trkpt>
      <trkpt lat="45.76288" lon="6.81795">
        <ele>2937</ele>
        <time>2022-08-27T03:39:21Z</time>
      </trkpt>
      <trkpt lat="45.7629" lon="6.81798">
        <ele>2936</ele>
        <time>2022-08-27T03:39:23Z</time>
      </trkpt>
      <trkpt lat="45.76292" lon="6.81799">
        <ele>2936</ele>
        <time>2022-08-27T03:39:25Z</time>
      </trkpt>
      <trkpt lat="45.76294" lon="6.81797">
        <ele>2936</ele>
        <time>2022-08-27T03:39:27Z</time>
      </trkpt>
      <trkpt lat="45.76297" lon="6.81796">
        <ele>2936</ele>
        <time>2022-08-27T03:39:29Z</time>
      </trkpt>
      <trkpt lat="45.76299" lon="6.81798">
        <ele>2936</ele>
        <time>2022-08-27T03:39:31Z</time>
      </trkpt>
      <trkpt lat="45.76301" lon="6.81799">
        <ele>2936</ele>
        <time>2022-08-27T03:39:33Z</time>
      </trkpt>
      <trkpt lat="45.76303" lon="6.81798">
        <ele>2936</ele>
        <time>2022-08-27T03:39:35Z</time>
      </trkpt>
      <trkpt lat="45.76305" lon="6.81799">
        <ele>2936</ele>
        <time>2022-08-27T03:39:38Z</time>
      </trkpt>
      <trkpt lat="45.76308" lon="6.818">
        <ele>2936</ele>
        <time>2022-08-27T03:39:40Z</time>
      </trkpt>
      <trkpt lat="45.7631" lon="6.818">
        <ele>2936</ele>
        <time>2022-08-27T03:39:42Z</time>
      </trkpt>
      <trkpt lat="45.76312" lon="6.81801">
        <ele>2936</ele>
        <time>2022-08-27T03:39:45Z</time>
      </trkpt>
      <trkpt lat="45.76315" lon="6.81802">
        <ele>2936</ele>
        <time>2022-08-27T03:39:48Z</time>
      </trkpt>
      <trkpt lat="45.76317" lon="6.81803">
        <ele>2936</ele>
        <time>2022-08-27T03:39:50Z</time>
      </trkpt>
      <trkpt lat="45.7632" lon="6.81803">
        <ele>2936</ele>
        <time>2022-08-27T03:39:52Z</time>
      </trkpt>
      <trkpt lat="45.76322" lon="6.81803">
        <ele>2936</ele>
        <time>2022-08-27T03:39:54Z</time>
      </trkpt>
      <trkpt lat="45.76325" lon="6.81804">
        <ele>2936</ele>
        <time>2022-08-27T03:39:56Z</time>
      </trkpt>
      <trkpt lat="45.76327" lon="6.81805">
        <ele>2936</ele>
        <time>2022-08-27T03:39:58Z</time>
      </trkpt>
      <trkpt lat="45.7633" lon="6.81806">
        <ele>2936</ele>
        <time>2022-08-27T03:40:00Z</time>
      </trkpt>
      <trkpt lat="45.76333" lon="6.81808">
        <ele>2936</ele>
        <time>2022-08-27T03:40:02Z</time>
      </trkpt>
      <trkpt lat="45.76335" lon="6.81807">
        <ele>2936</ele>
        <time>2022-08-27T03:40:04Z</time>
      </trkpt>
      <trkpt lat="45.76337" lon="6.81807">
        <ele>2937</ele>
        <time>2022-08-27T03:40:06Z</time>
      </trkpt>
      <trkpt lat="45.7634" lon="6.81808">
        <ele>2937</ele>
        <time>2022-08-27T03:40:08Z</time>
      </trkpt>
      <trkpt lat="45.76343" lon="6.81809">
        <ele>2937</ele>
        <time>2022-08-27T03:40:10Z</time>
      </trkpt>
      <trkpt lat="45.76345" lon="6.8181">
        <ele>2937</ele>
        <time>2022-08-27T03:40:12Z</time>
      </trkpt>
      <trkpt lat="45.76348" lon="6.81811">
        <ele>2937</ele>
        <time>2022-08-27T03:40:14Z</time>
      </trkpt>
      <trkpt lat="45.7635" lon="6.81812">
        <ele>2937</ele>
        <time>2022-08-27T03:40:16Z</time>
      </trkpt>
      <trkpt lat="45.76353" lon="6.81813">
        <ele>2937</ele>
        <time>2022-08-27T03:40:18Z</time>
      </trkpt>
      <trkpt lat="45.76355" lon="6.81815">
        <ele>2936</ele>
        <time>2022-08-27T03:40:20Z</time>
      </trkpt>
      <trkpt lat="45.76359" lon="6.81816">
        <ele>2937</ele>
        <time>2022-08-27T03:40:22Z</time>
      </trkpt>
      <trkpt lat="45.76361" lon="6.81817">
        <ele>2937</ele>
        <time>2022-08-27T03:40:23Z</time>
      </trkpt>
      <trkpt lat="45.76362" lon="6.81817">
        <ele>2937</ele>
        <time>2022-08-27T03:40:24Z</time>
      </trkpt>
      <trkpt lat="45.76366" lon="6.81817">
        <ele>2937</ele>
        <time>2022-08-27T03:40:26Z</time>
      </trkpt>
      <trkpt lat="45.76369" lon="6.81817">
        <ele>2937</ele>
        <time>2022-08-27T03:40:28Z</time>
      </trkpt>
      <trkpt lat="45.76373" lon="6.81816">
        <ele>2937</ele>
        <time>2022-08-27T03:40:30Z</time>
      </trkpt>
      <trkpt lat="45.76375" lon="6.81814">
        <ele>2937</ele>
        <time>2022-08-27T03:40:32Z</time>
      </trkpt>
      <trkpt lat="45.76378" lon="6.81812">
        <ele>2937</ele>
        <time>2022-08-27T03:40:34Z</time>
      </trkpt>
      <trkpt lat="45.76381" lon="6.81811">
        <ele>2937</ele>
        <time>2022-08-27T03:40:36Z</time>
      </trkpt>
      <trkpt lat="45.76384" lon="6.8181">
        <ele>2937</ele>
        <time>2022-08-27T03:40:38Z</time>
      </trkpt>
      <trkpt lat="45.76388" lon="6.81808">
        <ele>2937</ele>
        <time>2022-08-27T03:40:40Z</time>
      </trkpt>
      <trkpt lat="45.76391" lon="6.81806">
        <ele>2937</ele>
        <time>2022-08-27T03:40:42Z</time>
      </trkpt>
      <trkpt lat="45.76394" lon="6.81804">
        <ele>2937</ele>
        <time>2022-08-27T03:40:44Z</time>
      </trkpt>
      <trkpt lat="45.76396" lon="6.81802">
        <ele>2937</ele>
        <time>2022-08-27T03:40:46Z</time>
      </trkpt>
      <trkpt lat="45.76399" lon="6.818">
        <ele>2937</ele>
        <time>2022-08-27T03:40:48Z</time>
      </trkpt>
      <trkpt lat="45.76401" lon="6.81798">
        <ele>2937</ele>
        <time>2022-08-27T03:40:50Z</time>
      </trkpt>
      <trkpt lat="45.76403" lon="6.81796">
        <ele>2937</ele>
        <time>2022-08-27T03:40:52Z</time>
      </trkpt>
      <trkpt lat="45.76405" lon="6.81795">
        <ele>2937</ele>
        <time>2022-08-27T03:40:54Z</time>
      </trkpt>
      <trkpt lat="45.76408" lon="6.81795">
        <ele>2937</ele>
        <time>2022-08-27T03:40:56Z</time>
      </trkpt>
      <trkpt lat="45.7641" lon="6.81797">
        <ele>2937</ele>
        <time>2022-08-27T03:40:58Z</time>
      </trkpt>
      <trkpt lat="45.76412" lon="6.81799">
        <ele>2938</ele>
        <time>2022-08-27T03:41:00Z</time>
      </trkpt>
      <trkpt lat="45.76414" lon="6.81801">
        <ele>2938</ele>
        <time>2022-08-27T03:41:02Z</time>
      </trkpt>
      <trkpt lat="45.76417" lon="6.81802">
        <ele>2937</ele>
        <time>2022-08-27T03:41:04Z</time>
      </trkpt>
      <trkpt lat="45.7642" lon="6.81801">
        <ele>2936</ele>
        <time>2022-08-27T03:41:06Z</time>
      </trkpt>
      <trkpt lat="45.76423" lon="6.818">
        <ele>2936</ele>
        <time>2022-08-27T03:41:08Z</time>
      </trkpt>
      <trkpt lat="45.76426" lon="6.81799">
        <ele>2936</ele>
        <time>2022-08-27T03:41:10Z</time>
      </trkpt>
      <trkpt lat="45.76427" lon="6.81798">
        <ele>2936</ele>
        <time>2022-08-27T03:41:11Z</time>
      </trkpt>
      <trkpt lat="45.76429" lon="6.81797">
        <ele>2936</ele>
        <time>2022-08-27T03:41:12Z</time>
      </trkpt>
      <trkpt lat="45.7643" lon="6.81796">
        <ele>2936</ele>
        <time>2022-08-27T03:41:13Z</time>
      </trkpt>
      <trkpt lat="45.76433" lon="6.81796">
        <ele>2935</ele>
        <time>2022-08-27T03:41:15Z</time>
      </trkpt>
      <trkpt lat="45.76436" lon="6.81797">
        <ele>2935</ele>
        <time>2022-08-27T03:41:17Z</time>
      </trkpt>
      <trkpt lat="45.76438" lon="6.81797">
        <ele>2935</ele>
        <time>2022-08-27T03:41:19Z</time>
      </trkpt>
      <trkpt lat="45.7644" lon="6.81798">
        <ele>2934</ele>
        <time>2022-08-27T03:41:22Z</time>
      </trkpt>
      <trkpt lat="45.76443" lon="6.81798">
        <ele>2934</ele>
        <time>2022-08-27T03:41:26Z</time>
      </trkpt>
      <trkpt lat="45.76445" lon="6.81798">
        <ele>2934</ele>
        <time>2022-08-27T03:41:29Z</time>
      </trkpt>
      <trkpt lat="45.76447" lon="6.81798">
        <ele>2934</ele>
        <time>2022-08-27T03:41:32Z</time>
      </trkpt>
      <trkpt lat="45.76449" lon="6.81798">
        <ele>2932</ele>
        <time>2022-08-27T03:41:35Z</time>
      </trkpt>
      <trkpt lat="45.76452" lon="6.81798">
        <ele>2932</ele>
        <time>2022-08-27T03:41:38Z</time>
      </trkpt>
      <trkpt lat="45.76453" lon="6.818">
        <ele>2932</ele>
        <time>2022-08-27T03:41:41Z</time>
      </trkpt>
      <trkpt lat="45.76451" lon="6.81803">
        <ele>2931</ele>
        <time>2022-08-27T03:41:44Z</time>
      </trkpt>
      <trkpt lat="45.76449" lon="6.81805">
        <ele>2931</ele>
        <time>2022-08-27T03:41:48Z</time>
      </trkpt>
      <trkpt lat="45.76447" lon="6.81805">
        <ele>2930</ele>
        <time>2022-08-27T03:41:57Z</time>
      </trkpt>
      <trkpt lat="45.76445" lon="6.81806">
        <ele>2930</ele>
        <time>2022-08-27T03:42:00Z</time>
      </trkpt>
      <trkpt lat="45.76443" lon="6.81807">
        <ele>2930</ele>
        <time>2022-08-27T03:42:03Z</time>
      </trkpt>
      <trkpt lat="45.76441" lon="6.81808">
        <ele>2930</ele>
        <time>2022-08-27T03:42:06Z</time>
      </trkpt>
      <trkpt lat="45.76439" lon="6.8181">
        <ele>2930</ele>
        <time>2022-08-27T03:42:09Z</time>
      </trkpt>
      <trkpt lat="45.7644" lon="6.81812">
        <ele>2929</ele>
        <time>2022-08-27T03:42:14Z</time>
      </trkpt>
      <trkpt lat="45.76442" lon="6.81813">
        <ele>2927</ele>
        <time>2022-08-27T03:42:17Z</time>
      </trkpt>
      <trkpt lat="45.76445" lon="6.81813">
        <ele>2927</ele>
        <time>2022-08-27T03:42:20Z</time>
      </trkpt>
      <trkpt lat="45.76447" lon="6.81814">
        <ele>2927</ele>
        <time>2022-08-27T03:42:23Z</time>
      </trkpt>
      <trkpt lat="45.76449" lon="6.81814">
        <ele>2927</ele>
        <time>2022-08-27T03:42:26Z</time>
      </trkpt>
      <trkpt lat="45.76451" lon="6.81815">
        <ele>2927</ele>
        <time>2022-08-27T03:42:29Z</time>
      </trkpt>
      <trkpt lat="45.76454" lon="6.81816">
        <ele>2926</ele>
        <time>2022-08-27T03:42:32Z</time>
      </trkpt>
      <trkpt lat="45.76456" lon="6.81818">
        <ele>2926</ele>
        <time>2022-08-27T03:42:35Z</time>
      </trkpt>
      <trkpt lat="45.76457" lon="6.8182">
        <ele>2926</ele>
        <time>2022-08-27T03:42:37Z</time>
      </trkpt>
      <trkpt lat="45.76459" lon="6.81821">
        <ele>2925</ele>
        <time>2022-08-27T03:42:40Z</time>
      </trkpt>
      <trkpt lat="45.76462" lon="6.81822">
        <ele>2925</ele>
        <time>2022-08-27T03:42:43Z</time>
      </trkpt>
      <trkpt lat="45.76464" lon="6.81824">
        <ele>2924</ele>
        <time>2022-08-27T03:42:46Z</time>
      </trkpt>
      <trkpt lat="45.76466" lon="6.81826">
        <ele>2924</ele>
        <time>2022-08-27T03:42:49Z</time>
      </trkpt>
      <trkpt lat="45.76467" lon="6.81829">
        <ele>2924</ele>
        <time>2022-08-27T03:42:52Z</time>
      </trkpt>
      <trkpt lat="45.7647" lon="6.81831">
        <ele>2923</ele>
        <time>2022-08-27T03:42:55Z</time>
      </trkpt>
      <trkpt lat="45.76472" lon="6.81832">
        <ele>2923</ele>
        <time>2022-08-27T03:42:58Z</time>
      </trkpt>
      <trkpt lat="45.76475" lon="6.81832">
        <ele>2922</ele>
        <time>2022-08-27T03:43:01Z</time>
      </trkpt>
      <trkpt lat="45.76476" lon="6.81834">
        <ele>2922</ele>
        <time>2022-08-27T03:43:04Z</time>
      </trkpt>
      <trkpt lat="45.76476" lon="6.81837">
        <ele>2922</ele>
        <time>2022-08-27T03:43:06Z</time>
      </trkpt>
      <trkpt lat="45.76474" lon="6.81839">
        <ele>2922</ele>
        <time>2022-08-27T03:43:08Z</time>
      </trkpt>
      <trkpt lat="45.76472" lon="6.8184">
        <ele>2920</ele>
        <time>2022-08-27T03:43:11Z</time>
      </trkpt>
      <trkpt lat="45.7647" lon="6.8184">
        <ele>2920</ele>
        <time>2022-08-27T03:43:14Z</time>
      </trkpt>
      <trkpt lat="45.76467" lon="6.8184">
        <ele>2920</ele>
        <time>2022-08-27T03:43:16Z</time>
      </trkpt>
      <trkpt lat="45.76466" lon="6.8184">
        <ele>2920</ele>
        <time>2022-08-27T03:43:18Z</time>
      </trkpt>
      <trkpt lat="45.76463" lon="6.81841">
        <ele>2920</ele>
        <time>2022-08-27T03:43:20Z</time>
      </trkpt>
      <trkpt lat="45.76461" lon="6.81842">
        <ele>2919</ele>
        <time>2022-08-27T03:43:23Z</time>
      </trkpt>
      <trkpt lat="45.76461" lon="6.81845">
        <ele>2918</ele>
        <time>2022-08-27T03:43:28Z</time>
      </trkpt>
      <trkpt lat="45.76462" lon="6.81848">
        <ele>2918</ele>
        <time>2022-08-27T03:43:32Z</time>
      </trkpt>
      <trkpt lat="45.76462" lon="6.8185">
        <ele>2916</ele>
        <time>2022-08-27T03:43:37Z</time>
      </trkpt>
      <trkpt lat="45.76464" lon="6.81852">
        <ele>2915</ele>
        <time>2022-08-27T03:43:40Z</time>
      </trkpt>
      <trkpt lat="45.76466" lon="6.81853">
        <ele>2915</ele>
        <time>2022-08-27T03:43:43Z</time>
      </trkpt>
      <trkpt lat="45.76468" lon="6.81854">
        <ele>2915</ele>
        <time>2022-08-27T03:43:46Z</time>
      </trkpt>
      <trkpt lat="45.7647" lon="6.81856">
        <ele>2915</ele>
        <time>2022-08-27T03:43:49Z</time>
      </trkpt>
      <trkpt lat="45.76473" lon="6.81857">
        <ele>2914</ele>
        <time>2022-08-27T03:43:53Z</time>
      </trkpt>
      <trkpt lat="45.76474" lon="6.8186">
        <ele>2914</ele>
        <time>2022-08-27T03:43:56Z</time>
      </trkpt>
      <trkpt lat="45.76473" lon="6.81862">
        <ele>2912</ele>
        <time>2022-08-27T03:44:00Z</time>
      </trkpt>
      <trkpt lat="45.76471" lon="6.81864">
        <ele>2912</ele>
        <time>2022-08-27T03:44:03Z</time>
      </trkpt>
      <trkpt lat="45.76469" lon="6.81864">
        <ele>2912</ele>
        <time>2022-08-27T03:44:05Z</time>
      </trkpt>
      <trkpt lat="45.76467" lon="6.81865">
        <ele>2911</ele>
        <time>2022-08-27T03:44:09Z</time>
      </trkpt>
      <trkpt lat="45.76465" lon="6.81866">
        <ele>2911</ele>
        <time>2022-08-27T03:44:13Z</time>
      </trkpt>
      <trkpt lat="45.76463" lon="6.81866">
        <ele>2910</ele>
        <time>2022-08-27T03:44:15Z</time>
      </trkpt>
      <trkpt lat="45.76461" lon="6.81867">
        <ele>2910</ele>
        <time>2022-08-27T03:44:18Z</time>
      </trkpt>
      <trkpt lat="45.76462" lon="6.81868">
        <ele>2908</ele>
        <time>2022-08-27T03:44:26Z</time>
      </trkpt>
      <trkpt lat="45.76464" lon="6.81869">
        <ele>2908</ele>
        <time>2022-08-27T03:44:29Z</time>
      </trkpt>
      <trkpt lat="45.76466" lon="6.8187">
        <ele>2908</ele>
        <time>2022-08-27T03:44:33Z</time>
      </trkpt>
      <trkpt lat="45.76468" lon="6.8187">
        <ele>2907</ele>
        <time>2022-08-27T03:44:36Z</time>
      </trkpt>
      <trkpt lat="45.76468" lon="6.81873">
        <ele>2907</ele>
        <time>2022-08-27T03:44:39Z</time>
      </trkpt>
      <trkpt lat="45.76466" lon="6.81874">
        <ele>2906</ele>
        <time>2022-08-27T03:44:42Z</time>
      </trkpt>
      <trkpt lat="45.76464" lon="6.81875">
        <ele>2905</ele>
        <time>2022-08-27T03:44:47Z</time>
      </trkpt>
      <trkpt lat="45.76464" lon="6.81878">
        <ele>2904</ele>
        <time>2022-08-27T03:44:51Z</time>
      </trkpt>
      <trkpt lat="45.76465" lon="6.8188">
        <ele>2904</ele>
        <time>2022-08-27T03:44:54Z</time>
      </trkpt>
      <trkpt lat="45.76466" lon="6.81883">
        <ele>2903</ele>
        <time>2022-08-27T03:44:58Z</time>
      </trkpt>
      <trkpt lat="45.76468" lon="6.81885">
        <ele>2902</ele>
        <time>2022-08-27T03:45:03Z</time>
      </trkpt>
      <trkpt lat="45.76469" lon="6.81887">
        <ele>2902</ele>
        <time>2022-08-27T03:45:06Z</time>
      </trkpt>
      <trkpt lat="45.76471" lon="6.8189">
        <ele>2901</ele>
        <time>2022-08-27T03:45:09Z</time>
      </trkpt>
      <trkpt lat="45.76472" lon="6.81891">
        <ele>2901</ele>
        <time>2022-08-27T03:45:11Z</time>
      </trkpt>
      <trkpt lat="45.76474" lon="6.81894">
        <ele>2900</ele>
        <time>2022-08-27T03:45:14Z</time>
      </trkpt>
      <trkpt lat="45.76476" lon="6.81896">
        <ele>2899</ele>
        <time>2022-08-27T03:45:17Z</time>
      </trkpt>
      <trkpt lat="45.76478" lon="6.81898">
        <ele>2899</ele>
        <time>2022-08-27T03:45:20Z</time>
      </trkpt>
      <trkpt lat="45.7648" lon="6.819">
        <ele>2898</ele>
        <time>2022-08-27T03:45:23Z</time>
      </trkpt>
      <trkpt lat="45.76481" lon="6.81902">
        <ele>2898</ele>
        <time>2022-08-27T03:45:26Z</time>
      </trkpt>
      <trkpt lat="45.76483" lon="6.81903">
        <ele>2896</ele>
        <time>2022-08-27T03:45:28Z</time>
      </trkpt>
      <trkpt lat="45.76485" lon="6.81904">
        <ele>2896</ele>
        <time>2022-08-27T03:45:31Z</time>
      </trkpt>
      <trkpt lat="45.76487" lon="6.81905">
        <ele>2896</ele>
        <time>2022-08-27T03:45:34Z</time>
      </trkpt>
      <trkpt lat="45.76489" lon="6.81907">
        <ele>2895</ele>
        <time>2022-08-27T03:45:37Z</time>
      </trkpt>
      <trkpt lat="45.76491" lon="6.8191">
        <ele>2895</ele>
        <time>2022-08-27T03:45:42Z</time>
      </trkpt>
      <trkpt lat="45.76493" lon="6.81912">
        <ele>2895</ele>
        <time>2022-08-27T03:45:45Z</time>
      </trkpt>
      <trkpt lat="45.76495" lon="6.81913">
        <ele>2895</ele>
        <time>2022-08-27T03:45:47Z</time>
      </trkpt>
      <trkpt lat="45.76496" lon="6.81916">
        <ele>2895</ele>
        <time>2022-08-27T03:45:50Z</time>
      </trkpt>
      <trkpt lat="45.76497" lon="6.81919">
        <ele>2895</ele>
        <time>2022-08-27T03:45:53Z</time>
      </trkpt>
      <trkpt lat="45.76497" lon="6.81922">
        <ele>2895</ele>
        <time>2022-08-27T03:45:55Z</time>
      </trkpt>
      <trkpt lat="45.76498" lon="6.81925">
        <ele>2895</ele>
        <time>2022-08-27T03:45:57Z</time>
      </trkpt>
      <trkpt lat="45.76498" lon="6.81929">
        <ele>2895</ele>
        <time>2022-08-27T03:45:59Z</time>
      </trkpt>
      <trkpt lat="45.76498" lon="6.81932">
        <ele>2895</ele>
        <time>2022-08-27T03:46:01Z</time>
      </trkpt>
      <trkpt lat="45.76499" lon="6.81935">
        <ele>2895</ele>
        <time>2022-08-27T03:46:03Z</time>
      </trkpt>
      <trkpt lat="45.76499" lon="6.81938">
        <ele>2895</ele>
        <time>2022-08-27T03:46:05Z</time>
      </trkpt>
      <trkpt lat="45.76499" lon="6.81941">
        <ele>2895</ele>
        <time>2022-08-27T03:46:07Z</time>
      </trkpt>
      <trkpt lat="45.76499" lon="6.81945">
        <ele>2895</ele>
        <time>2022-08-27T03:46:09Z</time>
      </trkpt>
      <trkpt lat="45.76499" lon="6.8195">
        <ele>2895</ele>
        <time>2022-08-27T03:46:11Z</time>
      </trkpt>
      <trkpt lat="45.76499" lon="6.81954">
        <ele>2895</ele>
        <time>2022-08-27T03:46:13Z</time>
      </trkpt>
      <trkpt lat="45.76499" lon="6.81958">
        <ele>2895</ele>
        <time>2022-08-27T03:46:15Z</time>
      </trkpt>
      <trkpt lat="45.76499" lon="6.81963">
        <ele>2894</ele>
        <time>2022-08-27T03:46:17Z</time>
      </trkpt>
      <trkpt lat="45.76498" lon="6.81967">
        <ele>2894</ele>
        <time>2022-08-27T03:46:19Z</time>
      </trkpt>
      <trkpt lat="45.76498" lon="6.81972">
        <ele>2893</ele>
        <time>2022-08-27T03:46:21Z</time>
      </trkpt>
      <trkpt lat="45.76498" lon="6.81976">
        <ele>2892</ele>
        <time>2022-08-27T03:46:23Z</time>
      </trkpt>
      <trkpt lat="45.76498" lon="6.8198">
        <ele>2892</ele>
        <time>2022-08-27T03:46:25Z</time>
      </trkpt>
      <trkpt lat="45.76498" lon="6.81983">
        <ele>2892</ele>
        <time>2022-08-27T03:46:27Z</time>
      </trkpt>
      <trkpt lat="45.76499" lon="6.81987">
        <ele>2891</ele>
        <time>2022-08-27T03:46:29Z</time>
      </trkpt>
      <trkpt lat="45.76499" lon="6.8199">
        <ele>2891</ele>
        <time>2022-08-27T03:46:31Z</time>
      </trkpt>
      <trkpt lat="45.76499" lon="6.81993">
        <ele>2891</ele>
        <time>2022-08-27T03:46:33Z</time>
      </trkpt>
      <trkpt lat="45.76499" lon="6.81996">
        <ele>2891</ele>
        <time>2022-08-27T03:46:35Z</time>
      </trkpt>
      <trkpt lat="45.76498" lon="6.81999">
        <ele>2891</ele>
        <time>2022-08-27T03:46:37Z</time>
      </trkpt>
      <trkpt lat="45.76496" lon="6.82003">
        <ele>2890</ele>
        <time>2022-08-27T03:46:40Z</time>
      </trkpt>
      <trkpt lat="45.76496" lon="6.82006">
        <ele>2890</ele>
        <time>2022-08-27T03:46:42Z</time>
      </trkpt>
      <trkpt lat="45.76494" lon="6.82009">
        <ele>2889</ele>
        <time>2022-08-27T03:46:44Z</time>
      </trkpt>
      <trkpt lat="45.76493" lon="6.82013">
        <ele>2889</ele>
        <time>2022-08-27T03:46:46Z</time>
      </trkpt>
      <trkpt lat="45.76493" lon="6.82016">
        <ele>2889</ele>
        <time>2022-08-27T03:46:48Z</time>
      </trkpt>
      <trkpt lat="45.76492" lon="6.8202">
        <ele>2888</ele>
        <time>2022-08-27T03:46:50Z</time>
      </trkpt>
      <trkpt lat="45.76492" lon="6.82024">
        <ele>2888</ele>
        <time>2022-08-27T03:46:52Z</time>
      </trkpt>
      <trkpt lat="45.76491" lon="6.82028">
        <ele>2887</ele>
        <time>2022-08-27T03:46:54Z</time>
      </trkpt>
      <trkpt lat="45.7649" lon="6.82031">
        <ele>2887</ele>
        <time>2022-08-27T03:46:56Z</time>
      </trkpt>
      <trkpt lat="45.76489" lon="6.82035">
        <ele>2887</ele>
        <time>2022-08-27T03:46:58Z</time>
      </trkpt>
      <trkpt lat="45.76488" lon="6.82038">
        <ele>2886</ele>
        <time>2022-08-27T03:47:00Z</time>
      </trkpt>
      <trkpt lat="45.76487" lon="6.82041">
        <ele>2886</ele>
        <time>2022-08-27T03:47:02Z</time>
      </trkpt>
      <trkpt lat="45.76487" lon="6.82044">
        <ele>2886</ele>
        <time>2022-08-27T03:47:04Z</time>
      </trkpt>
      <trkpt lat="45.76486" lon="6.82047">
        <ele>2884</ele>
        <time>2022-08-27T03:47:06Z</time>
      </trkpt>
      <trkpt lat="45.76486" lon="6.82051">
        <ele>2884</ele>
        <time>2022-08-27T03:47:08Z</time>
      </trkpt>
      <trkpt lat="45.76485" lon="6.82055">
        <ele>2883</ele>
        <time>2022-08-27T03:47:10Z</time>
      </trkpt>
      <trkpt lat="45.76485" lon="6.82058">
        <ele>2883</ele>
        <time>2022-08-27T03:47:12Z</time>
      </trkpt>
      <trkpt lat="45.76486" lon="6.82062">
        <ele>2883</ele>
        <time>2022-08-27T03:47:14Z</time>
      </trkpt>
      <trkpt lat="45.76486" lon="6.82065">
        <ele>2882</ele>
        <time>2022-08-27T03:47:16Z</time>
      </trkpt>
      <trkpt lat="45.76483" lon="6.82062">
        <ele>2882</ele>
        <time>2022-08-27T03:47:18Z</time>
      </trkpt>
      <trkpt lat="45.76482" lon="6.82061">
        <ele>2881</ele>
        <time>2022-08-27T03:47:19Z</time>
      </trkpt>
      <trkpt lat="45.76482" lon="6.8206">
        <ele>2881</ele>
        <time>2022-08-27T03:47:20Z</time>
      </trkpt>
      <trkpt lat="45.76481" lon="6.82059">
        <ele>2881</ele>
        <time>2022-08-27T03:47:21Z</time>
      </trkpt>
      <trkpt lat="45.76481" lon="6.82058">
        <ele>2881</ele>
        <time>2022-08-27T03:47:22Z</time>
      </trkpt>
      <trkpt lat="45.76481" lon="6.82057">
        <ele>2881</ele>
        <time>2022-08-27T03:47:23Z</time>
      </trkpt>
      <trkpt lat="45.7648" lon="6.82054">
        <ele>2881</ele>
        <time>2022-08-27T03:47:24Z</time>
      </trkpt>
      <trkpt lat="45.76478" lon="6.8205">
        <ele>2881</ele>
        <time>2022-08-27T03:47:26Z</time>
      </trkpt>
      <trkpt lat="45.76477" lon="6.82046">
        <ele>2881</ele>
        <time>2022-08-27T03:47:28Z</time>
      </trkpt>
      <trkpt lat="45.76476" lon="6.82042">
        <ele>2880</ele>
        <time>2022-08-27T03:47:30Z</time>
      </trkpt>
      <trkpt lat="45.76475" lon="6.82038">
        <ele>2880</ele>
        <time>2022-08-27T03:47:32Z</time>
      </trkpt>
      <trkpt lat="45.76474" lon="6.82035">
        <ele>2880</ele>
        <time>2022-08-27T03:47:34Z</time>
      </trkpt>
      <trkpt lat="45.76473" lon="6.82033">
        <ele>2879</ele>
        <time>2022-08-27T03:47:36Z</time>
      </trkpt>
      <trkpt lat="45.76472" lon="6.82029">
        <ele>2879</ele>
        <time>2022-08-27T03:47:38Z</time>
      </trkpt>
      <trkpt lat="45.76471" lon="6.82026">
        <ele>2878</ele>
        <time>2022-08-27T03:47:40Z</time>
      </trkpt>
      <trkpt lat="45.7647" lon="6.82022">
        <ele>2878</ele>
        <time>2022-08-27T03:47:42Z</time>
      </trkpt>
      <trkpt lat="45.76469" lon="6.82019">
        <ele>2877</ele>
        <time>2022-08-27T03:47:44Z</time>
      </trkpt>
      <trkpt lat="45.76469" lon="6.82016">
        <ele>2877</ele>
        <time>2022-08-27T03:47:46Z</time>
      </trkpt>
      <trkpt lat="45.76468" lon="6.82013">
        <ele>2876</ele>
        <time>2022-08-27T03:47:48Z</time>
      </trkpt>
      <trkpt lat="45.76467" lon="6.8201">
        <ele>2876</ele>
        <time>2022-08-27T03:47:50Z</time>
      </trkpt>
      <trkpt lat="45.76466" lon="6.82007">
        <ele>2876</ele>
        <time>2022-08-27T03:47:52Z</time>
      </trkpt>
      <trkpt lat="45.76465" lon="6.82004">
        <ele>2875</ele>
        <time>2022-08-27T03:47:54Z</time>
      </trkpt>
      <trkpt lat="45.76464" lon="6.82001">
        <ele>2875</ele>
        <time>2022-08-27T03:47:56Z</time>
      </trkpt>
      <trkpt lat="45.76463" lon="6.81998">
        <ele>2875</ele>
        <time>2022-08-27T03:47:58Z</time>
      </trkpt>
      <trkpt lat="45.76462" lon="6.81995">
        <ele>2875</ele>
        <time>2022-08-27T03:48:00Z</time>
      </trkpt>
      <trkpt lat="45.76461" lon="6.81993">
        <ele>2875</ele>
        <time>2022-08-27T03:48:03Z</time>
      </trkpt>
      <trkpt lat="45.7646" lon="6.81996">
        <ele>2874</ele>
        <time>2022-08-27T03:48:06Z</time>
      </trkpt>
      <trkpt lat="45.7646" lon="6.81999">
        <ele>2874</ele>
        <time>2022-08-27T03:48:08Z</time>
      </trkpt>
      <trkpt lat="45.7646" lon="6.82002">
        <ele>2874</ele>
        <time>2022-08-27T03:48:10Z</time>
      </trkpt>
      <trkpt lat="45.76459" lon="6.82006">
        <ele>2871</ele>
        <time>2022-08-27T03:48:13Z</time>
      </trkpt>
      <trkpt lat="45.76459" lon="6.82008">
        <ele>2871</ele>
        <time>2022-08-27T03:48:15Z</time>
      </trkpt>
      <trkpt lat="45.76458" lon="6.82012">
        <ele>2871</ele>
        <time>2022-08-27T03:48:18Z</time>
      </trkpt>
      <trkpt lat="45.76457" lon="6.82015">
        <ele>2870</ele>
        <time>2022-08-27T03:48:22Z</time>
      </trkpt>
      <trkpt lat="45.76457" lon="6.82018">
        <ele>2870</ele>
        <time>2022-08-27T03:48:25Z</time>
      </trkpt>
      <trkpt lat="45.76457" lon="6.82021">
        <ele>2870</ele>
        <time>2022-08-27T03:48:27Z</time>
      </trkpt>
      <trkpt lat="45.76456" lon="6.82024">
        <ele>2870</ele>
        <time>2022-08-27T03:48:29Z</time>
      </trkpt>
      <trkpt lat="45.76456" lon="6.82027">
        <ele>2869</ele>
        <time>2022-08-27T03:48:32Z</time>
      </trkpt>
      <trkpt lat="45.76455" lon="6.82031">
        <ele>2869</ele>
        <time>2022-08-27T03:48:35Z</time>
      </trkpt>
      <trkpt lat="45.76453" lon="6.82035">
        <ele>2869</ele>
        <time>2022-08-27T03:48:38Z</time>
      </trkpt>
      <trkpt lat="45.76453" lon="6.82038">
        <ele>2868</ele>
        <time>2022-08-27T03:48:40Z</time>
      </trkpt>
      <trkpt lat="45.76452" lon="6.82042">
        <ele>2868</ele>
        <time>2022-08-27T03:48:43Z</time>
      </trkpt>
      <trkpt lat="45.76452" lon="6.82045">
        <ele>2867</ele>
        <time>2022-08-27T03:48:45Z</time>
      </trkpt>
      <trkpt lat="45.76451" lon="6.82048">
        <ele>2867</ele>
        <time>2022-08-27T03:48:47Z</time>
      </trkpt>
      <trkpt lat="45.7645" lon="6.82051">
        <ele>2867</ele>
        <time>2022-08-27T03:48:49Z</time>
      </trkpt>
      <trkpt lat="45.7645" lon="6.82054">
        <ele>2866</ele>
        <time>2022-08-27T03:48:51Z</time>
      </trkpt>
      <trkpt lat="45.76449" lon="6.82058">
        <ele>2866</ele>
        <time>2022-08-27T03:48:53Z</time>
      </trkpt>
      <trkpt lat="45.76448" lon="6.8206">
        <ele>2866</ele>
        <time>2022-08-27T03:48:55Z</time>
      </trkpt>
      <trkpt lat="45.76448" lon="6.82063">
        <ele>2866</ele>
        <time>2022-08-27T03:48:57Z</time>
      </trkpt>
      <trkpt lat="45.76448" lon="6.82066">
        <ele>2865</ele>
        <time>2022-08-27T03:49:00Z</time>
      </trkpt>
      <trkpt lat="45.76447" lon="6.8207">
        <ele>2864</ele>
        <time>2022-08-27T03:49:03Z</time>
      </trkpt>
      <trkpt lat="45.76446" lon="6.82073">
        <ele>2864</ele>
        <time>2022-08-27T03:49:06Z</time>
      </trkpt>
      <trkpt lat="45.76446" lon="6.82076">
        <ele>2863</ele>
        <time>2022-08-27T03:49:09Z</time>
      </trkpt>
      <trkpt lat="45.76446" lon="6.8208">
        <ele>2862</ele>
        <time>2022-08-27T03:49:12Z</time>
      </trkpt>
      <trkpt lat="45.76447" lon="6.82083">
        <ele>2862</ele>
        <time>2022-08-27T03:49:15Z</time>
      </trkpt>
      <trkpt lat="45.76448" lon="6.82086">
        <ele>2862</ele>
        <time>2022-08-27T03:49:18Z</time>
      </trkpt>
      <trkpt lat="45.76449" lon="6.82089">
        <ele>2862</ele>
        <time>2022-08-27T03:49:21Z</time>
      </trkpt>
      <trkpt lat="45.76448" lon="6.82091">
        <ele>2862</ele>
        <time>2022-08-27T03:49:23Z</time>
      </trkpt>
      <trkpt lat="45.76448" lon="6.82095">
        <ele>2860</ele>
        <time>2022-08-27T03:49:26Z</time>
      </trkpt>
      <trkpt lat="45.76448" lon="6.82098">
        <ele>2860</ele>
        <time>2022-08-27T03:49:28Z</time>
      </trkpt>
      <trkpt lat="45.76448" lon="6.82101">
        <ele>2859</ele>
        <time>2022-08-27T03:49:30Z</time>
      </trkpt>
      <trkpt lat="45.76449" lon="6.82104">
        <ele>2859</ele>
        <time>2022-08-27T03:49:32Z</time>
      </trkpt>
      <trkpt lat="45.76449" lon="6.82107">
        <ele>2859</ele>
        <time>2022-08-27T03:49:34Z</time>
      </trkpt>
      <trkpt lat="45.76449" lon="6.8211">
        <ele>2859</ele>
        <time>2022-08-27T03:49:36Z</time>
      </trkpt>
      <trkpt lat="45.76449" lon="6.82114">
        <ele>2859</ele>
        <time>2022-08-27T03:49:38Z</time>
      </trkpt>
      <trkpt lat="45.7645" lon="6.82117">
        <ele>2858</ele>
        <time>2022-08-27T03:49:40Z</time>
      </trkpt>
      <trkpt lat="45.7645" lon="6.82121">
        <ele>2857</ele>
        <time>2022-08-27T03:49:42Z</time>
      </trkpt>
      <trkpt lat="45.76451" lon="6.82124">
        <ele>2857</ele>
        <time>2022-08-27T03:49:44Z</time>
      </trkpt>
      <trkpt lat="45.7645" lon="6.82127">
        <ele>2857</ele>
        <time>2022-08-27T03:49:47Z</time>
      </trkpt>
      <trkpt lat="45.7645" lon="6.82131">
        <ele>2857</ele>
        <time>2022-08-27T03:49:49Z</time>
      </trkpt>
      <trkpt lat="45.7645" lon="6.82135">
        <ele>2856</ele>
        <time>2022-08-27T03:49:52Z</time>
      </trkpt>
      <trkpt lat="45.76451" lon="6.82138">
        <ele>2855</ele>
        <time>2022-08-27T03:49:55Z</time>
      </trkpt>
      <trkpt lat="45.76452" lon="6.8214">
        <ele>2855</ele>
        <time>2022-08-27T03:49:57Z</time>
      </trkpt>
      <trkpt lat="45.76452" lon="6.82144">
        <ele>2855</ele>
        <time>2022-08-27T03:49:59Z</time>
      </trkpt>
      <trkpt lat="45.76452" lon="6.82147">
        <ele>2854</ele>
        <time>2022-08-27T03:50:01Z</time>
      </trkpt>
      <trkpt lat="45.76452" lon="6.8215">
        <ele>2854</ele>
        <time>2022-08-27T03:50:03Z</time>
      </trkpt>
      <trkpt lat="45.76452" lon="6.82153">
        <ele>2854</ele>
        <time>2022-08-27T03:50:05Z</time>
      </trkpt>
      <trkpt lat="45.76451" lon="6.82156">
        <ele>2854</ele>
        <time>2022-08-27T03:50:07Z</time>
      </trkpt>
      <trkpt lat="45.76451" lon="6.82159">
        <ele>2853</ele>
        <time>2022-08-27T03:50:09Z</time>
      </trkpt>
      <trkpt lat="45.76451" lon="6.82163">
        <ele>2853</ele>
        <time>2022-08-27T03:50:11Z</time>
      </trkpt>
      <trkpt lat="45.76451" lon="6.82167">
        <ele>2853</ele>
        <time>2022-08-27T03:50:13Z</time>
      </trkpt>
      <trkpt lat="45.76452" lon="6.8217">
        <ele>2852</ele>
        <time>2022-08-27T03:50:15Z</time>
      </trkpt>
      <trkpt lat="45.76452" lon="6.82174">
        <ele>2852</ele>
        <time>2022-08-27T03:50:18Z</time>
      </trkpt>
      <trkpt lat="45.76453" lon="6.82177">
        <ele>2851</ele>
        <time>2022-08-27T03:50:20Z</time>
      </trkpt>
      <trkpt lat="45.76454" lon="6.82181">
        <ele>2851</ele>
        <time>2022-08-27T03:50:22Z</time>
      </trkpt>
      <trkpt lat="45.76455" lon="6.82184">
        <ele>2851</ele>
        <time>2022-08-27T03:50:24Z</time>
      </trkpt>
      <trkpt lat="45.76456" lon="6.82187">
        <ele>2849</ele>
        <time>2022-08-27T03:50:26Z</time>
      </trkpt>
      <trkpt lat="45.76456" lon="6.82191">
        <ele>2849</ele>
        <time>2022-08-27T03:50:28Z</time>
      </trkpt>
      <trkpt lat="45.76457" lon="6.82195">
        <ele>2849</ele>
        <time>2022-08-27T03:50:30Z</time>
      </trkpt>
      <trkpt lat="45.76458" lon="6.82197">
        <ele>2849</ele>
        <time>2022-08-27T03:50:32Z</time>
      </trkpt>
      <trkpt lat="45.76458" lon="6.822">
        <ele>2849</ele>
        <time>2022-08-27T03:50:34Z</time>
      </trkpt>
      <trkpt lat="45.76459" lon="6.82203">
        <ele>2849</ele>
        <time>2022-08-27T03:50:36Z</time>
      </trkpt>
      <trkpt lat="45.7646" lon="6.82206">
        <ele>2847</ele>
        <time>2022-08-27T03:50:38Z</time>
      </trkpt>
      <trkpt lat="45.7646" lon="6.8221">
        <ele>2847</ele>
        <time>2022-08-27T03:50:40Z</time>
      </trkpt>
      <trkpt lat="45.7646" lon="6.82213">
        <ele>2847</ele>
        <time>2022-08-27T03:50:42Z</time>
      </trkpt>
      <trkpt lat="45.7646" lon="6.82216">
        <ele>2847</ele>
        <time>2022-08-27T03:50:44Z</time>
      </trkpt>
      <trkpt lat="45.7646" lon="6.8222">
        <ele>2845</ele>
        <time>2022-08-27T03:50:47Z</time>
      </trkpt>
      <trkpt lat="45.76459" lon="6.82222">
        <ele>2845</ele>
        <time>2022-08-27T03:50:49Z</time>
      </trkpt>
      <trkpt lat="45.76459" lon="6.82225">
        <ele>2845</ele>
        <time>2022-08-27T03:50:51Z</time>
      </trkpt>
      <trkpt lat="45.76458" lon="6.82229">
        <ele>2844</ele>
        <time>2022-08-27T03:50:54Z</time>
      </trkpt>
      <trkpt lat="45.76457" lon="6.82232">
        <ele>2844</ele>
        <time>2022-08-27T03:50:56Z</time>
      </trkpt>
      <trkpt lat="45.76458" lon="6.82236">
        <ele>2844</ele>
        <time>2022-08-27T03:50:59Z</time>
      </trkpt>
      <trkpt lat="45.76458" lon="6.82239">
        <ele>2844</ele>
        <time>2022-08-27T03:51:01Z</time>
      </trkpt>
      <trkpt lat="45.76457" lon="6.82243">
        <ele>2843</ele>
        <time>2022-08-27T03:51:03Z</time>
      </trkpt>
      <trkpt lat="45.76457" lon="6.82246">
        <ele>2842</ele>
        <time>2022-08-27T03:51:05Z</time>
      </trkpt>
      <trkpt lat="45.76457" lon="6.8225">
        <ele>2842</ele>
        <time>2022-08-27T03:51:07Z</time>
      </trkpt>
      <trkpt lat="45.76458" lon="6.82254">
        <ele>2842</ele>
        <time>2022-08-27T03:51:09Z</time>
      </trkpt>
      <trkpt lat="45.76458" lon="6.82257">
        <ele>2842</ele>
        <time>2022-08-27T03:51:11Z</time>
      </trkpt>
      <trkpt lat="45.76458" lon="6.82259">
        <ele>2841</ele>
        <time>2022-08-27T03:51:13Z</time>
      </trkpt>
      <trkpt lat="45.76458" lon="6.82262">
        <ele>2841</ele>
        <time>2022-08-27T03:51:15Z</time>
      </trkpt>
      <trkpt lat="45.76459" lon="6.82265">
        <ele>2840</ele>
        <time>2022-08-27T03:51:18Z</time>
      </trkpt>
      <trkpt lat="45.76459" lon="6.82268">
        <ele>2841</ele>
        <time>2022-08-27T03:51:21Z</time>
      </trkpt>
      <trkpt lat="45.76459" lon="6.82271">
        <ele>2840</ele>
        <time>2022-08-27T03:51:23Z</time>
      </trkpt>
      <trkpt lat="45.76459" lon="6.82274">
        <ele>2840</ele>
        <time>2022-08-27T03:51:25Z</time>
      </trkpt>
      <trkpt lat="45.7646" lon="6.82278">
        <ele>2840</ele>
        <time>2022-08-27T03:51:27Z</time>
      </trkpt>
      <trkpt lat="45.76459" lon="6.82281">
        <ele>2839</ele>
        <time>2022-08-27T03:51:29Z</time>
      </trkpt>
      <trkpt lat="45.76459" lon="6.82284">
        <ele>2839</ele>
        <time>2022-08-27T03:51:31Z</time>
      </trkpt>
      <trkpt lat="45.76459" lon="6.82287">
        <ele>2839</ele>
        <time>2022-08-27T03:51:33Z</time>
      </trkpt>
      <trkpt lat="45.76459" lon="6.8229">
        <ele>2838</ele>
        <time>2022-08-27T03:51:36Z</time>
      </trkpt>
      <trkpt lat="45.76459" lon="6.82293">
        <ele>2838</ele>
        <time>2022-08-27T03:51:38Z</time>
      </trkpt>
      <trkpt lat="45.7646" lon="6.82297">
        <ele>2838</ele>
        <time>2022-08-27T03:51:41Z</time>
      </trkpt>
      <trkpt lat="45.7646" lon="6.82299">
        <ele>2838</ele>
        <time>2022-08-27T03:51:43Z</time>
      </trkpt>
      <trkpt lat="45.76459" lon="6.82303">
        <ele>2837</ele>
        <time>2022-08-27T03:51:46Z</time>
      </trkpt>
      <trkpt lat="45.7646" lon="6.82305">
        <ele>2837</ele>
        <time>2022-08-27T03:51:48Z</time>
      </trkpt>
      <trkpt lat="45.7646" lon="6.82309">
        <ele>2835</ele>
        <time>2022-08-27T03:51:50Z</time>
      </trkpt>
      <trkpt lat="45.76461" lon="6.82311">
        <ele>2835</ele>
        <time>2022-08-27T03:51:52Z</time>
      </trkpt>
      <trkpt lat="45.76461" lon="6.82315">
        <ele>2835</ele>
        <time>2022-08-27T03:51:55Z</time>
      </trkpt>
      <trkpt lat="45.76461" lon="6.82318">
        <ele>2835</ele>
        <time>2022-08-27T03:51:57Z</time>
      </trkpt>
      <trkpt lat="45.7646" lon="6.82321">
        <ele>2835</ele>
        <time>2022-08-27T03:51:59Z</time>
      </trkpt>
      <trkpt lat="45.7646" lon="6.82324">
        <ele>2833</ele>
        <time>2022-08-27T03:52:01Z</time>
      </trkpt>
      <trkpt lat="45.7646" lon="6.82327">
        <ele>2833</ele>
        <time>2022-08-27T03:52:04Z</time>
      </trkpt>
      <trkpt lat="45.76459" lon="6.82331">
        <ele>2833</ele>
        <time>2022-08-27T03:52:07Z</time>
      </trkpt>
      <trkpt lat="45.76459" lon="6.82333">
        <ele>2833</ele>
        <time>2022-08-27T03:52:09Z</time>
      </trkpt>
      <trkpt lat="45.76458" lon="6.82336">
        <ele>2833</ele>
        <time>2022-08-27T03:52:12Z</time>
      </trkpt>
      <trkpt lat="45.76458" lon="6.8234">
        <ele>2832</ele>
        <time>2022-08-27T03:52:15Z</time>
      </trkpt>
      <trkpt lat="45.76458" lon="6.82343">
        <ele>2832</ele>
        <time>2022-08-27T03:52:17Z</time>
      </trkpt>
      <trkpt lat="45.76458" lon="6.82346">
        <ele>2832</ele>
        <time>2022-08-27T03:52:19Z</time>
      </trkpt>
      <trkpt lat="45.76457" lon="6.82349">
        <ele>2831</ele>
        <time>2022-08-27T03:52:21Z</time>
      </trkpt>
      <trkpt lat="45.76457" lon="6.82352">
        <ele>2831</ele>
        <time>2022-08-27T03:52:23Z</time>
      </trkpt>
      <trkpt lat="45.76457" lon="6.82356">
        <ele>2830</ele>
        <time>2022-08-27T03:52:26Z</time>
      </trkpt>
      <trkpt lat="45.76458" lon="6.82359">
        <ele>2830</ele>
        <time>2022-08-27T03:52:28Z</time>
      </trkpt>
      <trkpt lat="45.76458" lon="6.82361">
        <ele>2830</ele>
        <time>2022-08-27T03:52:30Z</time>
      </trkpt>
      <trkpt lat="45.76459" lon="6.82364">
        <ele>2829</ele>
        <time>2022-08-27T03:52:35Z</time>
      </trkpt>
      <trkpt lat="45.76459" lon="6.82368">
        <ele>2829</ele>
        <time>2022-08-27T03:52:37Z</time>
      </trkpt>
      <trkpt lat="45.76459" lon="6.8237">
        <ele>2829</ele>
        <time>2022-08-27T03:52:39Z</time>
      </trkpt>
      <trkpt lat="45.7646" lon="6.82373">
        <ele>2829</ele>
        <time>2022-08-27T03:52:41Z</time>
      </trkpt>
      <trkpt lat="45.7646" lon="6.82376">
        <ele>2829</ele>
        <time>2022-08-27T03:52:43Z</time>
      </trkpt>
      <trkpt lat="45.7646" lon="6.8238">
        <ele>2827</ele>
        <time>2022-08-27T03:52:46Z</time>
      </trkpt>
      <trkpt lat="45.7646" lon="6.82383">
        <ele>2827</ele>
        <time>2022-08-27T03:52:48Z</time>
      </trkpt>
      <trkpt lat="45.7646" lon="6.82386">
        <ele>2827</ele>
        <time>2022-08-27T03:52:50Z</time>
      </trkpt>
      <trkpt lat="45.76461" lon="6.82388">
        <ele>2827</ele>
        <time>2022-08-27T03:52:52Z</time>
      </trkpt>
      <trkpt lat="45.76461" lon="6.82392">
        <ele>2827</ele>
        <time>2022-08-27T03:52:54Z</time>
      </trkpt>
      <trkpt lat="45.76461" lon="6.82394">
        <ele>2826</ele>
        <time>2022-08-27T03:52:56Z</time>
      </trkpt>
      <trkpt lat="45.76461" lon="6.82397">
        <ele>2826</ele>
        <time>2022-08-27T03:52:58Z</time>
      </trkpt>
      <trkpt lat="45.76461" lon="6.824">
        <ele>2826</ele>
        <time>2022-08-27T03:53:00Z</time>
      </trkpt>
      <trkpt lat="45.76461" lon="6.82403">
        <ele>2825</ele>
        <time>2022-08-27T03:53:02Z</time>
      </trkpt>
      <trkpt lat="45.76461" lon="6.82406">
        <ele>2825</ele>
        <time>2022-08-27T03:53:04Z</time>
      </trkpt>
      <trkpt lat="45.76462" lon="6.82409">
        <ele>2823</ele>
        <time>2022-08-27T03:53:06Z</time>
      </trkpt>
      <trkpt lat="45.76462" lon="6.82412">
        <ele>2823</ele>
        <time>2022-08-27T03:53:08Z</time>
      </trkpt>
      <trkpt lat="45.76462" lon="6.82415">
        <ele>2823</ele>
        <time>2022-08-27T03:53:10Z</time>
      </trkpt>
      <trkpt lat="45.76462" lon="6.82418">
        <ele>2823</ele>
        <time>2022-08-27T03:53:12Z</time>
      </trkpt>
      <trkpt lat="45.76462" lon="6.82422">
        <ele>2823</ele>
        <time>2022-08-27T03:53:14Z</time>
      </trkpt>
      <trkpt lat="45.76462" lon="6.82425">
        <ele>2822</ele>
        <time>2022-08-27T03:53:16Z</time>
      </trkpt>
      <trkpt lat="45.76462" lon="6.82428">
        <ele>2822</ele>
        <time>2022-08-27T03:53:18Z</time>
      </trkpt>
      <trkpt lat="45.76462" lon="6.82431">
        <ele>2822</ele>
        <time>2022-08-27T03:53:20Z</time>
      </trkpt>
      <trkpt lat="45.76463" lon="6.82435">
        <ele>2821</ele>
        <time>2022-08-27T03:53:22Z</time>
      </trkpt>
      <trkpt lat="45.76463" lon="6.82438">
        <ele>2821</ele>
        <time>2022-08-27T03:53:24Z</time>
      </trkpt>
      <trkpt lat="45.76463" lon="6.82442">
        <ele>2821</ele>
        <time>2022-08-27T03:53:26Z</time>
      </trkpt>
      <trkpt lat="45.76463" lon="6.82446">
        <ele>2820</ele>
        <time>2022-08-27T03:53:28Z</time>
      </trkpt>
      <trkpt lat="45.76464" lon="6.8245">
        <ele>2820</ele>
        <time>2022-08-27T03:53:30Z</time>
      </trkpt>
      <trkpt lat="45.76464" lon="6.82453">
        <ele>2820</ele>
        <time>2022-08-27T03:53:32Z</time>
      </trkpt>
      <trkpt lat="45.76463" lon="6.82456">
        <ele>2820</ele>
        <time>2022-08-27T03:53:34Z</time>
      </trkpt>
      <trkpt lat="45.76464" lon="6.82459">
        <ele>2818</ele>
        <time>2022-08-27T03:53:36Z</time>
      </trkpt>
      <trkpt lat="45.76463" lon="6.82462">
        <ele>2818</ele>
        <time>2022-08-27T03:53:38Z</time>
      </trkpt>
      <trkpt lat="45.76464" lon="6.82464">
        <ele>2818</ele>
        <time>2022-08-27T03:53:40Z</time>
      </trkpt>
      <trkpt lat="45.76465" lon="6.82467">
        <ele>2818</ele>
        <time>2022-08-27T03:53:42Z</time>
      </trkpt>
      <trkpt lat="45.76465" lon="6.8247">
        <ele>2817</ele>
        <time>2022-08-27T03:53:44Z</time>
      </trkpt>
      <trkpt lat="45.76466" lon="6.82473">
        <ele>2817</ele>
        <time>2022-08-27T03:53:46Z</time>
      </trkpt>
      <trkpt lat="45.76466" lon="6.82477">
        <ele>2816</ele>
        <time>2022-08-27T03:53:48Z</time>
      </trkpt>
      <trkpt lat="45.76466" lon="6.82481">
        <ele>2816</ele>
        <time>2022-08-27T03:53:50Z</time>
      </trkpt>
      <trkpt lat="45.76466" lon="6.82484">
        <ele>2816</ele>
        <time>2022-08-27T03:53:52Z</time>
      </trkpt>
      <trkpt lat="45.76466" lon="6.82487">
        <ele>2816</ele>
        <time>2022-08-27T03:53:54Z</time>
      </trkpt>
      <trkpt lat="45.76466" lon="6.8249">
        <ele>2815</ele>
        <time>2022-08-27T03:53:57Z</time>
      </trkpt>
      <trkpt lat="45.76467" lon="6.82493">
        <ele>2815</ele>
        <time>2022-08-27T03:53:59Z</time>
      </trkpt>
      <trkpt lat="45.76468" lon="6.82496">
        <ele>2814</ele>
        <time>2022-08-27T03:54:01Z</time>
      </trkpt>
      <trkpt lat="45.76468" lon="6.82499">
        <ele>2814</ele>
        <time>2022-08-27T03:54:03Z</time>
      </trkpt>
      <trkpt lat="45.76469" lon="6.82502">
        <ele>2814</ele>
        <time>2022-08-27T03:54:05Z</time>
      </trkpt>
      <trkpt lat="45.76469" lon="6.82505">
        <ele>2814</ele>
        <time>2022-08-27T03:54:07Z</time>
      </trkpt>
      <trkpt lat="45.76469" lon="6.82507">
        <ele>2813</ele>
        <time>2022-08-27T03:54:09Z</time>
      </trkpt>
      <trkpt lat="45.76469" lon="6.8251">
        <ele>2813</ele>
        <time>2022-08-27T03:54:11Z</time>
      </trkpt>
      <trkpt lat="45.76468" lon="6.82513">
        <ele>2813</ele>
        <time>2022-08-27T03:54:13Z</time>
      </trkpt>
      <trkpt lat="45.76469" lon="6.82517">
        <ele>2811</ele>
        <time>2022-08-27T03:54:17Z</time>
      </trkpt>
      <trkpt lat="45.76469" lon="6.8252">
        <ele>2811</ele>
        <time>2022-08-27T03:54:20Z</time>
      </trkpt>
      <trkpt lat="45.76469" lon="6.82523">
        <ele>2811</ele>
        <time>2022-08-27T03:54:23Z</time>
      </trkpt>
      <trkpt lat="45.7647" lon="6.82526">
        <ele>2811</ele>
        <time>2022-08-27T03:54:25Z</time>
      </trkpt>
      <trkpt lat="45.7647" lon="6.82529">
        <ele>2810</ele>
        <time>2022-08-27T03:54:27Z</time>
      </trkpt>
      <trkpt lat="45.7647" lon="6.82533">
        <ele>2809</ele>
        <time>2022-08-27T03:54:29Z</time>
      </trkpt>
      <trkpt lat="45.7647" lon="6.82536">
        <ele>2809</ele>
        <time>2022-08-27T03:54:31Z</time>
      </trkpt>
      <trkpt lat="45.7647" lon="6.82539">
        <ele>2809</ele>
        <time>2022-08-27T03:54:33Z</time>
      </trkpt>
      <trkpt lat="45.7647" lon="6.82542">
        <ele>2809</ele>
        <time>2022-08-27T03:54:35Z</time>
      </trkpt>
      <trkpt lat="45.76469" lon="6.82546">
        <ele>2809</ele>
        <time>2022-08-27T03:54:37Z</time>
      </trkpt>
      <trkpt lat="45.76468" lon="6.82549">
        <ele>2808</ele>
        <time>2022-08-27T03:54:39Z</time>
      </trkpt>
      <trkpt lat="45.76466" lon="6.82552">
        <ele>2808</ele>
        <time>2022-08-27T03:54:41Z</time>
      </trkpt>
      <trkpt lat="45.76466" lon="6.82555">
        <ele>2808</ele>
        <time>2022-08-27T03:54:43Z</time>
      </trkpt>
      <trkpt lat="45.76465" lon="6.82559">
        <ele>2808</ele>
        <time>2022-08-27T03:54:45Z</time>
      </trkpt>
      <trkpt lat="45.76464" lon="6.82562">
        <ele>2808</ele>
        <time>2022-08-27T03:54:47Z</time>
      </trkpt>
      <trkpt lat="45.76464" lon="6.82567">
        <ele>2807</ele>
        <time>2022-08-27T03:54:49Z</time>
      </trkpt>
      <trkpt lat="45.76463" lon="6.82571">
        <ele>2807</ele>
        <time>2022-08-27T03:54:51Z</time>
      </trkpt>
      <trkpt lat="45.76463" lon="6.82575">
        <ele>2805</ele>
        <time>2022-08-27T03:54:53Z</time>
      </trkpt>
      <trkpt lat="45.76463" lon="6.82579">
        <ele>2805</ele>
        <time>2022-08-27T03:54:55Z</time>
      </trkpt>
      <trkpt lat="45.76463" lon="6.82583">
        <ele>2805</ele>
        <time>2022-08-27T03:54:57Z</time>
      </trkpt>
      <trkpt lat="45.76463" lon="6.82588">
        <ele>2804</ele>
        <time>2022-08-27T03:54:59Z</time>
      </trkpt>
      <trkpt lat="45.76463" lon="6.82592">
        <ele>2803</ele>
        <time>2022-08-27T03:55:01Z</time>
      </trkpt>
      <trkpt lat="45.76462" lon="6.82596">
        <ele>2803</ele>
        <time>2022-08-27T03:55:03Z</time>
      </trkpt>
      <trkpt lat="45.76462" lon="6.82599">
        <ele>2803</ele>
        <time>2022-08-27T03:55:05Z</time>
      </trkpt>
      <trkpt lat="45.76462" lon="6.82604">
        <ele>2803</ele>
        <time>2022-08-27T03:55:07Z</time>
      </trkpt>
      <trkpt lat="45.76464" lon="6.82607">
        <ele>2802</ele>
        <time>2022-08-27T03:55:09Z</time>
      </trkpt>
      <trkpt lat="45.76466" lon="6.8261">
        <ele>2802</ele>
        <time>2022-08-27T03:55:11Z</time>
      </trkpt>
      <trkpt lat="45.76468" lon="6.82613">
        <ele>2801</ele>
        <time>2022-08-27T03:55:13Z</time>
      </trkpt>
      <trkpt lat="45.76469" lon="6.82617">
        <ele>2799</ele>
        <time>2022-08-27T03:55:15Z</time>
      </trkpt>
      <trkpt lat="45.76469" lon="6.82621">
        <ele>2798</ele>
        <time>2022-08-27T03:55:17Z</time>
      </trkpt>
      <trkpt lat="45.7647" lon="6.82624">
        <ele>2798</ele>
        <time>2022-08-27T03:55:19Z</time>
      </trkpt>
      <trkpt lat="45.7647" lon="6.82628">
        <ele>2798</ele>
        <time>2022-08-27T03:55:21Z</time>
      </trkpt>
      <trkpt lat="45.76471" lon="6.82631">
        <ele>2798</ele>
        <time>2022-08-27T03:55:23Z</time>
      </trkpt>
      <trkpt lat="45.76472" lon="6.82635">
        <ele>2798</ele>
        <time>2022-08-27T03:55:25Z</time>
      </trkpt>
      <trkpt lat="45.76472" lon="6.82638">
        <ele>2797</ele>
        <time>2022-08-27T03:55:26Z</time>
      </trkpt>
      <trkpt lat="45.76473" lon="6.82642">
        <ele>2797</ele>
        <time>2022-08-27T03:55:28Z</time>
      </trkpt>
      <trkpt lat="45.76474" lon="6.82645">
        <ele>2794</ele>
        <time>2022-08-27T03:55:30Z</time>
      </trkpt>
      <trkpt lat="45.76475" lon="6.82647">
        <ele>2794</ele>
        <time>2022-08-27T03:55:32Z</time>
      </trkpt>
      <trkpt lat="45.76476" lon="6.8265">
        <ele>2795</ele>
        <time>2022-08-27T03:55:37Z</time>
      </trkpt>
      <trkpt lat="45.76475" lon="6.82653">
        <ele>2794</ele>
        <time>2022-08-27T03:55:39Z</time>
      </trkpt>
      <trkpt lat="45.76475" lon="6.82656">
        <ele>2794</ele>
        <time>2022-08-27T03:55:41Z</time>
      </trkpt>
      <trkpt lat="45.76476" lon="6.8266">
        <ele>2794</ele>
        <time>2022-08-27T03:55:43Z</time>
      </trkpt>
      <trkpt lat="45.76476" lon="6.82663">
        <ele>2793</ele>
        <time>2022-08-27T03:55:45Z</time>
      </trkpt>
      <trkpt lat="45.76476" lon="6.82666">
        <ele>2793</ele>
        <time>2022-08-27T03:55:47Z</time>
      </trkpt>
      <trkpt lat="45.76477" lon="6.8267">
        <ele>2791</ele>
        <time>2022-08-27T03:55:49Z</time>
      </trkpt>
      <trkpt lat="45.76477" lon="6.82674">
        <ele>2791</ele>
        <time>2022-08-27T03:55:51Z</time>
      </trkpt>
      <trkpt lat="45.76477" lon="6.82677">
        <ele>2791</ele>
        <time>2022-08-27T03:55:53Z</time>
      </trkpt>
      <trkpt lat="45.76477" lon="6.8268">
        <ele>2791</ele>
        <time>2022-08-27T03:55:55Z</time>
      </trkpt>
      <trkpt lat="45.76477" lon="6.82685">
        <ele>2791</ele>
        <time>2022-08-27T03:55:57Z</time>
      </trkpt>
      <trkpt lat="45.76478" lon="6.82689">
        <ele>2791</ele>
        <time>2022-08-27T03:55:59Z</time>
      </trkpt>
      <trkpt lat="45.76478" lon="6.82693">
        <ele>2790</ele>
        <time>2022-08-27T03:56:01Z</time>
      </trkpt>
      <trkpt lat="45.76477" lon="6.82697">
        <ele>2789</ele>
        <time>2022-08-27T03:56:03Z</time>
      </trkpt>
      <trkpt lat="45.76478" lon="6.82701">
        <ele>2789</ele>
        <time>2022-08-27T03:56:05Z</time>
      </trkpt>
      <trkpt lat="45.76477" lon="6.82705">
        <ele>2789</ele>
        <time>2022-08-27T03:56:07Z</time>
      </trkpt>
      <trkpt lat="45.76477" lon="6.82709">
        <ele>2787</ele>
        <time>2022-08-27T03:56:09Z</time>
      </trkpt>
      <trkpt lat="45.76477" lon="6.82713">
        <ele>2786</ele>
        <time>2022-08-27T03:56:11Z</time>
      </trkpt>
      <trkpt lat="45.76478" lon="6.82717">
        <ele>2786</ele>
        <time>2022-08-27T03:56:13Z</time>
      </trkpt>
      <trkpt lat="45.76479" lon="6.82721">
        <ele>2786</ele>
        <time>2022-08-27T03:56:15Z</time>
      </trkpt>
      <trkpt lat="45.7648" lon="6.82725">
        <ele>2786</ele>
        <time>2022-08-27T03:56:17Z</time>
      </trkpt>
      <trkpt lat="45.76482" lon="6.82728">
        <ele>2785</ele>
        <time>2022-08-27T03:56:19Z</time>
      </trkpt>
      <trkpt lat="45.76483" lon="6.82731">
        <ele>2785</ele>
        <time>2022-08-27T03:56:21Z</time>
      </trkpt>
      <trkpt lat="45.76485" lon="6.82733">
        <ele>2784</ele>
        <time>2022-08-27T03:56:23Z</time>
      </trkpt>
      <trkpt lat="45.76486" lon="6.82736">
        <ele>2784</ele>
        <time>2022-08-27T03:56:25Z</time>
      </trkpt>
      <trkpt lat="45.76487" lon="6.82739">
        <ele>2783</ele>
        <time>2022-08-27T03:56:27Z</time>
      </trkpt>
      <trkpt lat="45.76487" lon="6.82742">
        <ele>2783</ele>
        <time>2022-08-27T03:56:29Z</time>
      </trkpt>
      <trkpt lat="45.76489" lon="6.82744">
        <ele>2783</ele>
        <time>2022-08-27T03:56:32Z</time>
      </trkpt>
      <trkpt lat="45.7649" lon="6.82747">
        <ele>2783</ele>
        <time>2022-08-27T03:56:34Z</time>
      </trkpt>
      <trkpt lat="45.76491" lon="6.8275">
        <ele>2783</ele>
        <time>2022-08-27T03:56:36Z</time>
      </trkpt>
      <trkpt lat="45.76491" lon="6.82752">
        <ele>2783</ele>
        <time>2022-08-27T03:56:38Z</time>
      </trkpt>
      <trkpt lat="45.76492" lon="6.82754">
        <ele>2782</ele>
        <time>2022-08-27T03:56:40Z</time>
      </trkpt>
      <trkpt lat="45.76493" lon="6.82757">
        <ele>2782</ele>
        <time>2022-08-27T03:56:42Z</time>
      </trkpt>
      <trkpt lat="45.76494" lon="6.8276">
        <ele>2782</ele>
        <time>2022-08-27T03:56:44Z</time>
      </trkpt>
      <trkpt lat="45.76494" lon="6.82764">
        <ele>2781</ele>
        <time>2022-08-27T03:56:47Z</time>
      </trkpt>
      <trkpt lat="45.76495" lon="6.82767">
        <ele>2781</ele>
        <time>2022-08-27T03:56:50Z</time>
      </trkpt>
      <trkpt lat="45.76496" lon="6.8277">
        <ele>2781</ele>
        <time>2022-08-27T03:56:52Z</time>
      </trkpt>
      <trkpt lat="45.76497" lon="6.82772">
        <ele>2780</ele>
        <time>2022-08-27T03:56:54Z</time>
      </trkpt>
      <trkpt lat="45.76498" lon="6.82776">
        <ele>2780</ele>
        <time>2022-08-27T03:56:56Z</time>
      </trkpt>
      <trkpt lat="45.76499" lon="6.82778">
        <ele>2780</ele>
        <time>2022-08-27T03:56:58Z</time>
      </trkpt>
      <trkpt lat="45.76501" lon="6.82781">
        <ele>2779</ele>
        <time>2022-08-27T03:57:00Z</time>
      </trkpt>
      <trkpt lat="45.76502" lon="6.82785">
        <ele>2779</ele>
        <time>2022-08-27T03:57:02Z</time>
      </trkpt>
      <trkpt lat="45.76503" lon="6.82789">
        <ele>2779</ele>
        <time>2022-08-27T03:57:04Z</time>
      </trkpt>
      <trkpt lat="45.76505" lon="6.82792">
        <ele>2777</ele>
        <time>2022-08-27T03:57:06Z</time>
      </trkpt>
      <trkpt lat="45.76506" lon="6.82795">
        <ele>2777</ele>
        <time>2022-08-27T03:57:08Z</time>
      </trkpt>
      <trkpt lat="45.76508" lon="6.82798">
        <ele>2777</ele>
        <time>2022-08-27T03:57:10Z</time>
      </trkpt>
      <trkpt lat="45.76509" lon="6.828">
        <ele>2777</ele>
        <time>2022-08-27T03:57:12Z</time>
      </trkpt>
      <trkpt lat="45.76509" lon="6.82803">
        <ele>2777</ele>
        <time>2022-08-27T03:57:14Z</time>
      </trkpt>
      <trkpt lat="45.7651" lon="6.82807">
        <ele>2777</ele>
        <time>2022-08-27T03:57:16Z</time>
      </trkpt>
      <trkpt lat="45.76511" lon="6.8281">
        <ele>2775</ele>
        <time>2022-08-27T03:57:18Z</time>
      </trkpt>
      <trkpt lat="45.76513" lon="6.82813">
        <ele>2775</ele>
        <time>2022-08-27T03:57:20Z</time>
      </trkpt>
      <trkpt lat="45.76514" lon="6.82817">
        <ele>2773</ele>
        <time>2022-08-27T03:57:22Z</time>
      </trkpt>
      <trkpt lat="45.76515" lon="6.8282">
        <ele>2773</ele>
        <time>2022-08-27T03:57:24Z</time>
      </trkpt>
      <trkpt lat="45.76517" lon="6.82823">
        <ele>2773</ele>
        <time>2022-08-27T03:57:26Z</time>
      </trkpt>
      <trkpt lat="45.76519" lon="6.82825">
        <ele>2772</ele>
        <time>2022-08-27T03:57:28Z</time>
      </trkpt>
      <trkpt lat="45.7652" lon="6.82827">
        <ele>2772</ele>
        <time>2022-08-27T03:57:30Z</time>
      </trkpt>
      <trkpt lat="45.76522" lon="6.82829">
        <ele>2772</ele>
        <time>2022-08-27T03:57:32Z</time>
      </trkpt>
      <trkpt lat="45.76524" lon="6.82831">
        <ele>2771</ele>
        <time>2022-08-27T03:57:34Z</time>
      </trkpt>
      <trkpt lat="45.76525" lon="6.82833">
        <ele>2771</ele>
        <time>2022-08-27T03:57:36Z</time>
      </trkpt>
      <trkpt lat="45.76527" lon="6.82836">
        <ele>2771</ele>
        <time>2022-08-27T03:57:38Z</time>
      </trkpt>
      <trkpt lat="45.76529" lon="6.82838">
        <ele>2771</ele>
        <time>2022-08-27T03:57:40Z</time>
      </trkpt>
      <trkpt lat="45.76531" lon="6.8284">
        <ele>2771</ele>
        <time>2022-08-27T03:57:42Z</time>
      </trkpt>
      <trkpt lat="45.76534" lon="6.82842">
        <ele>2769</ele>
        <time>2022-08-27T03:57:44Z</time>
      </trkpt>
      <trkpt lat="45.76536" lon="6.82845">
        <ele>2769</ele>
        <time>2022-08-27T03:57:46Z</time>
      </trkpt>
      <trkpt lat="45.76538" lon="6.82847">
        <ele>2769</ele>
        <time>2022-08-27T03:57:48Z</time>
      </trkpt>
      <trkpt lat="45.7654" lon="6.8285">
        <ele>2769</ele>
        <time>2022-08-27T03:57:50Z</time>
      </trkpt>
      <trkpt lat="45.76542" lon="6.82852">
        <ele>2769</ele>
        <time>2022-08-27T03:57:52Z</time>
      </trkpt>
      <trkpt lat="45.76544" lon="6.82855">
        <ele>2769</ele>
        <time>2022-08-27T03:57:54Z</time>
      </trkpt>
      <trkpt lat="45.76546" lon="6.82858">
        <ele>2767</ele>
        <time>2022-08-27T03:57:56Z</time>
      </trkpt>
      <trkpt lat="45.76548" lon="6.82862">
        <ele>2767</ele>
        <time>2022-08-27T03:57:58Z</time>
      </trkpt>
      <trkpt lat="45.7655" lon="6.82865">
        <ele>2767</ele>
        <time>2022-08-27T03:58:00Z</time>
      </trkpt>
      <trkpt lat="45.76552" lon="6.82867">
        <ele>2766</ele>
        <time>2022-08-27T03:58:02Z</time>
      </trkpt>
      <trkpt lat="45.76554" lon="6.8287">
        <ele>2766</ele>
        <time>2022-08-27T03:58:04Z</time>
      </trkpt>
      <trkpt lat="45.76555" lon="6.82873">
        <ele>2766</ele>
        <time>2022-08-27T03:58:06Z</time>
      </trkpt>
      <trkpt lat="45.76556" lon="6.82877">
        <ele>2766</ele>
        <time>2022-08-27T03:58:08Z</time>
      </trkpt>
      <trkpt lat="45.76558" lon="6.8288">
        <ele>2765</ele>
        <time>2022-08-27T03:58:10Z</time>
      </trkpt>
      <trkpt lat="45.76559" lon="6.82882">
        <ele>2765</ele>
        <time>2022-08-27T03:58:11Z</time>
      </trkpt>
      <trkpt lat="45.76561" lon="6.82885">
        <ele>2763</ele>
        <time>2022-08-27T03:58:13Z</time>
      </trkpt>
      <trkpt lat="45.76562" lon="6.82888">
        <ele>2763</ele>
        <time>2022-08-27T03:58:19Z</time>
      </trkpt>
      <trkpt lat="45.76564" lon="6.82891">
        <ele>2761</ele>
        <time>2022-08-27T03:58:21Z</time>
      </trkpt>
      <trkpt lat="45.76565" lon="6.82894">
        <ele>2761</ele>
        <time>2022-08-27T03:58:23Z</time>
      </trkpt>
      <trkpt lat="45.76567" lon="6.82897">
        <ele>2761</ele>
        <time>2022-08-27T03:58:25Z</time>
      </trkpt>
      <trkpt lat="45.76569" lon="6.829">
        <ele>2761</ele>
        <time>2022-08-27T03:58:27Z</time>
      </trkpt>
      <trkpt lat="45.7657" lon="6.82902">
        <ele>2760</ele>
        <time>2022-08-27T03:58:29Z</time>
      </trkpt>
      <trkpt lat="45.76572" lon="6.82905">
        <ele>2759</ele>
        <time>2022-08-27T03:58:31Z</time>
      </trkpt>
      <trkpt lat="45.76574" lon="6.82908">
        <ele>2759</ele>
        <time>2022-08-27T03:58:35Z</time>
      </trkpt>
      <trkpt lat="45.76576" lon="6.82911">
        <ele>2759</ele>
        <time>2022-08-27T03:58:37Z</time>
      </trkpt>
      <trkpt lat="45.76578" lon="6.82914">
        <ele>2758</ele>
        <time>2022-08-27T03:58:39Z</time>
      </trkpt>
      <trkpt lat="45.7658" lon="6.82916">
        <ele>2758</ele>
        <time>2022-08-27T03:58:41Z</time>
      </trkpt>
      <trkpt lat="45.76582" lon="6.82919">
        <ele>2758</ele>
        <time>2022-08-27T03:58:43Z</time>
      </trkpt>
      <trkpt lat="45.76584" lon="6.82921">
        <ele>2758</ele>
        <time>2022-08-27T03:58:45Z</time>
      </trkpt>
      <trkpt lat="45.76586" lon="6.82924">
        <ele>2757</ele>
        <time>2022-08-27T03:58:49Z</time>
      </trkpt>
      <trkpt lat="45.76588" lon="6.82927">
        <ele>2757</ele>
        <time>2022-08-27T03:58:51Z</time>
      </trkpt>
      <trkpt lat="45.7659" lon="6.8293">
        <ele>2756</ele>
        <time>2022-08-27T03:58:53Z</time>
      </trkpt>
      <trkpt lat="45.76592" lon="6.82933">
        <ele>2756</ele>
        <time>2022-08-27T03:58:55Z</time>
      </trkpt>
      <trkpt lat="45.76594" lon="6.82935">
        <ele>2756</ele>
        <time>2022-08-27T03:58:57Z</time>
      </trkpt>
      <trkpt lat="45.76597" lon="6.82938">
        <ele>2755</ele>
        <time>2022-08-27T03:58:59Z</time>
      </trkpt>
      <trkpt lat="45.766" lon="6.8294">
        <ele>2755</ele>
        <time>2022-08-27T03:59:01Z</time>
      </trkpt>
      <trkpt lat="45.76602" lon="6.82943">
        <ele>2755</ele>
        <time>2022-08-27T03:59:03Z</time>
      </trkpt>
      <trkpt lat="45.76603" lon="6.82946">
        <ele>2754</ele>
        <time>2022-08-27T03:59:05Z</time>
      </trkpt>
      <trkpt lat="45.76605" lon="6.82947">
        <ele>2754</ele>
        <time>2022-08-27T03:59:07Z</time>
      </trkpt>
      <trkpt lat="45.76608" lon="6.82946">
        <ele>2753</ele>
        <time>2022-08-27T03:59:09Z</time>
      </trkpt>
      <trkpt lat="45.7661" lon="6.82944">
        <ele>2753</ele>
        <time>2022-08-27T03:59:10Z</time>
      </trkpt>
      <trkpt lat="45.76612" lon="6.82943">
        <ele>2751</ele>
        <time>2022-08-27T03:59:11Z</time>
      </trkpt>
      <trkpt lat="45.76615" lon="6.82944">
        <ele>2751</ele>
        <time>2022-08-27T03:59:13Z</time>
      </trkpt>
      <trkpt lat="45.76618" lon="6.82945">
        <ele>2751</ele>
        <time>2022-08-27T03:59:15Z</time>
      </trkpt>
      <trkpt lat="45.76621" lon="6.82946">
        <ele>2750</ele>
        <time>2022-08-27T03:59:17Z</time>
      </trkpt>
      <trkpt lat="45.76624" lon="6.82949">
        <ele>2750</ele>
        <time>2022-08-27T03:59:19Z</time>
      </trkpt>
      <trkpt lat="45.76626" lon="6.82951">
        <ele>2749</ele>
        <time>2022-08-27T03:59:21Z</time>
      </trkpt>
      <trkpt lat="45.76629" lon="6.82952">
        <ele>2749</ele>
        <time>2022-08-27T03:59:23Z</time>
      </trkpt>
      <trkpt lat="45.76631" lon="6.82951">
        <ele>2749</ele>
        <time>2022-08-27T03:59:25Z</time>
      </trkpt>
      <trkpt lat="45.76633" lon="6.82947">
        <ele>2749</ele>
        <time>2022-08-27T03:59:27Z</time>
      </trkpt>
      <trkpt lat="45.76635" lon="6.82944">
        <ele>2749</ele>
        <time>2022-08-27T03:59:29Z</time>
      </trkpt>
      <trkpt lat="45.76636" lon="6.82942">
        <ele>2749</ele>
        <time>2022-08-27T03:59:31Z</time>
      </trkpt>
      <trkpt lat="45.76638" lon="6.82938">
        <ele>2749</ele>
        <time>2022-08-27T03:59:33Z</time>
      </trkpt>
      <trkpt lat="45.76639" lon="6.82935">
        <ele>2748</ele>
        <time>2022-08-27T03:59:35Z</time>
      </trkpt>
      <trkpt lat="45.7664" lon="6.82932">
        <ele>2747</ele>
        <time>2022-08-27T03:59:37Z</time>
      </trkpt>
      <trkpt lat="45.76641" lon="6.82929">
        <ele>2747</ele>
        <time>2022-08-27T03:59:39Z</time>
      </trkpt>
      <trkpt lat="45.76644" lon="6.82929">
        <ele>2746</ele>
        <time>2022-08-27T03:59:41Z</time>
      </trkpt>
      <trkpt lat="45.76644" lon="6.82933">
        <ele>2746</ele>
        <time>2022-08-27T03:59:43Z</time>
      </trkpt>
      <trkpt lat="45.76645" lon="6.82937">
        <ele>2745</ele>
        <time>2022-08-27T03:59:45Z</time>
      </trkpt>
      <trkpt lat="45.76645" lon="6.8294">
        <ele>2744</ele>
        <time>2022-08-27T03:59:46Z</time>
      </trkpt>
      <trkpt lat="45.76645" lon="6.82945">
        <ele>2744</ele>
        <time>2022-08-27T03:59:48Z</time>
      </trkpt>
      <trkpt lat="45.76644" lon="6.8295">
        <ele>2743</ele>
        <time>2022-08-27T03:59:50Z</time>
      </trkpt>
      <trkpt lat="45.76644" lon="6.82954">
        <ele>2743</ele>
        <time>2022-08-27T03:59:52Z</time>
      </trkpt>
      <trkpt lat="45.76643" lon="6.82958">
        <ele>2743</ele>
        <time>2022-08-27T03:59:54Z</time>
      </trkpt>
      <trkpt lat="45.76643" lon="6.82963">
        <ele>2741</ele>
        <time>2022-08-27T03:59:56Z</time>
      </trkpt>
      <trkpt lat="45.76643" lon="6.82967">
        <ele>2741</ele>
        <time>2022-08-27T03:59:58Z</time>
      </trkpt>
      <trkpt lat="45.76642" lon="6.8297">
        <ele>2741</ele>
        <time>2022-08-27T03:59:59Z</time>
      </trkpt>
      <trkpt lat="45.76641" lon="6.82974">
        <ele>2741</ele>
        <time>2022-08-27T04:00:01Z</time>
      </trkpt>
      <trkpt lat="45.76641" lon="6.82979">
        <ele>2740</ele>
        <time>2022-08-27T04:00:03Z</time>
      </trkpt>
      <trkpt lat="45.7664" lon="6.82983">
        <ele>2740</ele>
        <time>2022-08-27T04:00:05Z</time>
      </trkpt>
      <trkpt lat="45.76637" lon="6.82986">
        <ele>2740</ele>
        <time>2022-08-27T04:00:07Z</time>
      </trkpt>
      <trkpt lat="45.76635" lon="6.82987">
        <ele>2740</ele>
        <time>2022-08-27T04:00:08Z</time>
      </trkpt>
      <trkpt lat="45.76633" lon="6.82986">
        <ele>2740</ele>
        <time>2022-08-27T04:00:09Z</time>
      </trkpt>
      <trkpt lat="45.76631" lon="6.82986">
        <ele>2740</ele>
        <time>2022-08-27T04:00:10Z</time>
      </trkpt>
      <trkpt lat="45.76629" lon="6.82986">
        <ele>2738</ele>
        <time>2022-08-27T04:00:11Z</time>
      </trkpt>
      <trkpt lat="45.76627" lon="6.82986">
        <ele>2738</ele>
        <time>2022-08-27T04:00:12Z</time>
      </trkpt>
      <trkpt lat="45.76626" lon="6.82986">
        <ele>2738</ele>
        <time>2022-08-27T04:00:13Z</time>
      </trkpt>
      <trkpt lat="45.76622" lon="6.82985">
        <ele>2738</ele>
        <time>2022-08-27T04:00:15Z</time>
      </trkpt>
      <trkpt lat="45.76619" lon="6.82985">
        <ele>2737</ele>
        <time>2022-08-27T04:00:17Z</time>
      </trkpt>
      <trkpt lat="45.76617" lon="6.82986">
        <ele>2737</ele>
        <time>2022-08-27T04:00:19Z</time>
      </trkpt>
      <trkpt lat="45.76614" lon="6.82987">
        <ele>2736</ele>
        <time>2022-08-27T04:00:21Z</time>
      </trkpt>
      <trkpt lat="45.76611" lon="6.82989">
        <ele>2736</ele>
        <time>2022-08-27T04:00:23Z</time>
      </trkpt>
      <trkpt lat="45.76609" lon="6.82992">
        <ele>2735</ele>
        <time>2022-08-27T04:00:25Z</time>
      </trkpt>
      <trkpt lat="45.76606" lon="6.82993">
        <ele>2735</ele>
        <time>2022-08-27T04:00:27Z</time>
      </trkpt>
      <trkpt lat="45.76603" lon="6.82992">
        <ele>2735</ele>
        <time>2022-08-27T04:00:29Z</time>
      </trkpt>
      <trkpt lat="45.766" lon="6.82992">
        <ele>2734</ele>
        <time>2022-08-27T04:00:31Z</time>
      </trkpt>
      <trkpt lat="45.76597" lon="6.82992">
        <ele>2733</ele>
        <time>2022-08-27T04:00:33Z</time>
      </trkpt>
      <trkpt lat="45.76594" lon="6.82991">
        <ele>2732</ele>
        <time>2022-08-27T04:00:35Z</time>
      </trkpt>
      <trkpt lat="45.76591" lon="6.82991">
        <ele>2732</ele>
        <time>2022-08-27T04:00:37Z</time>
      </trkpt>
      <trkpt lat="45.76588" lon="6.8299">
        <ele>2732</ele>
        <time>2022-08-27T04:00:39Z</time>
      </trkpt>
      <trkpt lat="45.76586" lon="6.8299">
        <ele>2732</ele>
        <time>2022-08-27T04:00:41Z</time>
      </trkpt>
      <trkpt lat="45.76583" lon="6.82989">
        <ele>2731</ele>
        <time>2022-08-27T04:00:43Z</time>
      </trkpt>
      <trkpt lat="45.7658" lon="6.82988">
        <ele>2731</ele>
        <time>2022-08-27T04:00:45Z</time>
      </trkpt>
      <trkpt lat="45.76577" lon="6.82987">
        <ele>2731</ele>
        <time>2022-08-27T04:00:47Z</time>
      </trkpt>
      <trkpt lat="45.76574" lon="6.82986">
        <ele>2730</ele>
        <time>2022-08-27T04:00:49Z</time>
      </trkpt>
      <trkpt lat="45.76571" lon="6.82985">
        <ele>2730</ele>
        <time>2022-08-27T04:00:51Z</time>
      </trkpt>
      <trkpt lat="45.76569" lon="6.82984">
        <ele>2730</ele>
        <time>2022-08-27T04:00:53Z</time>
      </trkpt>
      <trkpt lat="45.76566" lon="6.82983">
        <ele>2730</ele>
        <time>2022-08-27T04:00:55Z</time>
      </trkpt>
      <trkpt lat="45.76564" lon="6.82981">
        <ele>2729</ele>
        <time>2022-08-27T04:00:57Z</time>
      </trkpt>
      <trkpt lat="45.76561" lon="6.8298">
        <ele>2729</ele>
        <time>2022-08-27T04:00:59Z</time>
      </trkpt>
      <trkpt lat="45.76559" lon="6.82979">
        <ele>2728</ele>
        <time>2022-08-27T04:01:01Z</time>
      </trkpt>
      <trkpt lat="45.76556" lon="6.82979">
        <ele>2728</ele>
        <time>2022-08-27T04:01:03Z</time>
      </trkpt>
      <trkpt lat="45.76554" lon="6.82982">
        <ele>2728</ele>
        <time>2022-08-27T04:01:05Z</time>
      </trkpt>
      <trkpt lat="45.76552" lon="6.82985">
        <ele>2728</ele>
        <time>2022-08-27T04:01:07Z</time>
      </trkpt>
      <trkpt lat="45.76551" lon="6.82989">
        <ele>2728</ele>
        <time>2022-08-27T04:01:09Z</time>
      </trkpt>
      <trkpt lat="45.76549" lon="6.82993">
        <ele>2728</ele>
        <time>2022-08-27T04:01:11Z</time>
      </trkpt>
      <trkpt lat="45.76547" lon="6.82996">
        <ele>2726</ele>
        <time>2022-08-27T04:01:13Z</time>
      </trkpt>
      <trkpt lat="45.76545" lon="6.82999">
        <ele>2725</ele>
        <time>2022-08-27T04:01:15Z</time>
      </trkpt>
      <trkpt lat="45.76545" lon="6.83003">
        <ele>2725</ele>
        <time>2022-08-27T04:01:17Z</time>
      </trkpt>
      <trkpt lat="45.76548" lon="6.83005">
        <ele>2724</ele>
        <time>2022-08-27T04:01:19Z</time>
      </trkpt>
      <trkpt lat="45.76548" lon="6.83008">
        <ele>2723</ele>
        <time>2022-08-27T04:01:21Z</time>
      </trkpt>
      <trkpt lat="45.76547" lon="6.83011">
        <ele>2723</ele>
        <time>2022-08-27T04:01:23Z</time>
      </trkpt>
      <trkpt lat="45.76548" lon="6.83013">
        <ele>2722</ele>
        <time>2022-08-27T04:01:26Z</time>
      </trkpt>
      <trkpt lat="45.7655" lon="6.83015">
        <ele>2721</ele>
        <time>2022-08-27T04:01:28Z</time>
      </trkpt>
      <trkpt lat="45.76551" lon="6.83019">
        <ele>2720</ele>
        <time>2022-08-27T04:01:30Z</time>
      </trkpt>
      <trkpt lat="45.76552" lon="6.83022">
        <ele>2719</ele>
        <time>2022-08-27T04:01:32Z</time>
      </trkpt>
      <trkpt lat="45.76553" lon="6.83026">
        <ele>2718</ele>
        <time>2022-08-27T04:01:34Z</time>
      </trkpt>
      <trkpt lat="45.76554" lon="6.83029">
        <ele>2717</ele>
        <time>2022-08-27T04:01:36Z</time>
      </trkpt>
      <trkpt lat="45.76555" lon="6.83033">
        <ele>2717</ele>
        <time>2022-08-27T04:01:38Z</time>
      </trkpt>
      <trkpt lat="45.76556" lon="6.83036">
        <ele>2716</ele>
        <time>2022-08-27T04:01:40Z</time>
      </trkpt>
      <trkpt lat="45.76558" lon="6.83039">
        <ele>2714</ele>
        <time>2022-08-27T04:01:42Z</time>
      </trkpt>
      <trkpt lat="45.7656" lon="6.83041">
        <ele>2714</ele>
        <time>2022-08-27T04:01:44Z</time>
      </trkpt>
      <trkpt lat="45.76561" lon="6.83045">
        <ele>2713</ele>
        <time>2022-08-27T04:01:46Z</time>
      </trkpt>
      <trkpt lat="45.76561" lon="6.83048">
        <ele>2712</ele>
        <time>2022-08-27T04:01:48Z</time>
      </trkpt>
      <trkpt lat="45.76562" lon="6.83052">
        <ele>2711</ele>
        <time>2022-08-27T04:01:50Z</time>
      </trkpt>
      <trkpt lat="45.76564" lon="6.83055">
        <ele>2711</ele>
        <time>2022-08-27T04:01:52Z</time>
      </trkpt>
      <trkpt lat="45.76565" lon="6.83058">
        <ele>2710</ele>
        <time>2022-08-27T04:01:54Z</time>
      </trkpt>
      <trkpt lat="45.76566" lon="6.83061">
        <ele>2710</ele>
        <time>2022-08-27T04:01:56Z</time>
      </trkpt>
      <trkpt lat="45.76568" lon="6.83063">
        <ele>2710</ele>
        <time>2022-08-27T04:01:58Z</time>
      </trkpt>
      <trkpt lat="45.7657" lon="6.83064">
        <ele>2708</ele>
        <time>2022-08-27T04:02:00Z</time>
      </trkpt>
      <trkpt lat="45.76572" lon="6.83067">
        <ele>2708</ele>
        <time>2022-08-27T04:02:02Z</time>
      </trkpt>
      <trkpt lat="45.76572" lon="6.83071">
        <ele>2707</ele>
        <time>2022-08-27T04:02:04Z</time>
      </trkpt>
      <trkpt lat="45.76573" lon="6.83073">
        <ele>2707</ele>
        <time>2022-08-27T04:02:06Z</time>
      </trkpt>
      <trkpt lat="45.76573" lon="6.83076">
        <ele>2707</ele>
        <time>2022-08-27T04:02:08Z</time>
      </trkpt>
      <trkpt lat="45.76574" lon="6.83078">
        <ele>2705</ele>
        <time>2022-08-27T04:02:10Z</time>
      </trkpt>
      <trkpt lat="45.76574" lon="6.83083">
        <ele>2704</ele>
        <time>2022-08-27T04:02:12Z</time>
      </trkpt>
      <trkpt lat="45.76575" lon="6.83086">
        <ele>2704</ele>
        <time>2022-08-27T04:02:14Z</time>
      </trkpt>
      <trkpt lat="45.76575" lon="6.83089">
        <ele>2704</ele>
        <time>2022-08-27T04:02:16Z</time>
      </trkpt>
      <trkpt lat="45.76576" lon="6.83093">
        <ele>2704</ele>
        <time>2022-08-27T04:02:18Z</time>
      </trkpt>
      <trkpt lat="45.76576" lon="6.83096">
        <ele>2702</ele>
        <time>2022-08-27T04:02:20Z</time>
      </trkpt>
      <trkpt lat="45.76576" lon="6.831">
        <ele>2701</ele>
        <time>2022-08-27T04:02:22Z</time>
      </trkpt>
      <trkpt lat="45.76577" lon="6.83102">
        <ele>2701</ele>
        <time>2022-08-27T04:02:24Z</time>
      </trkpt>
      <trkpt lat="45.76577" lon="6.83106">
        <ele>2700</ele>
        <time>2022-08-27T04:02:26Z</time>
      </trkpt>
      <trkpt lat="45.76577" lon="6.83108">
        <ele>2699</ele>
        <time>2022-08-27T04:02:28Z</time>
      </trkpt>
      <trkpt lat="45.76579" lon="6.83111">
        <ele>2699</ele>
        <time>2022-08-27T04:02:30Z</time>
      </trkpt>
      <trkpt lat="45.7658" lon="6.83115">
        <ele>2698</ele>
        <time>2022-08-27T04:02:32Z</time>
      </trkpt>
      <trkpt lat="45.76581" lon="6.83118">
        <ele>2698</ele>
        <time>2022-08-27T04:02:34Z</time>
      </trkpt>
      <trkpt lat="45.76583" lon="6.8312">
        <ele>2697</ele>
        <time>2022-08-27T04:02:37Z</time>
      </trkpt>
      <trkpt lat="45.76584" lon="6.83123">
        <ele>2697</ele>
        <time>2022-08-27T04:02:39Z</time>
      </trkpt>
      <trkpt lat="45.76586" lon="6.83125">
        <ele>2696</ele>
        <time>2022-08-27T04:02:41Z</time>
      </trkpt>
      <trkpt lat="45.76587" lon="6.83129">
        <ele>2695</ele>
        <time>2022-08-27T04:02:43Z</time>
      </trkpt>
      <trkpt lat="45.76589" lon="6.83133">
        <ele>2694</ele>
        <time>2022-08-27T04:02:45Z</time>
      </trkpt>
      <trkpt lat="45.7659" lon="6.83137">
        <ele>2693</ele>
        <time>2022-08-27T04:02:47Z</time>
      </trkpt>
      <trkpt lat="45.7659" lon="6.8314">
        <ele>2692</ele>
        <time>2022-08-27T04:02:49Z</time>
      </trkpt>
      <trkpt lat="45.76591" lon="6.83144">
        <ele>2692</ele>
        <time>2022-08-27T04:02:51Z</time>
      </trkpt>
      <trkpt lat="45.76592" lon="6.83147">
        <ele>2690</ele>
        <time>2022-08-27T04:02:53Z</time>
      </trkpt>
      <trkpt lat="45.76594" lon="6.8315">
        <ele>2690</ele>
        <time>2022-08-27T04:02:55Z</time>
      </trkpt>
      <trkpt lat="45.76595" lon="6.83153">
        <ele>2689</ele>
        <time>2022-08-27T04:02:57Z</time>
      </trkpt>
      <trkpt lat="45.76596" lon="6.83155">
        <ele>2689</ele>
        <time>2022-08-27T04:02:58Z</time>
      </trkpt>
      <trkpt lat="45.76597" lon="6.83159">
        <ele>2688</ele>
        <time>2022-08-27T04:03:00Z</time>
      </trkpt>
      <trkpt lat="45.76599" lon="6.83162">
        <ele>2688</ele>
        <time>2022-08-27T04:03:02Z</time>
      </trkpt>
      <trkpt lat="45.76601" lon="6.83165">
        <ele>2687</ele>
        <time>2022-08-27T04:03:04Z</time>
      </trkpt>
      <trkpt lat="45.76603" lon="6.83168">
        <ele>2685</ele>
        <time>2022-08-27T04:03:06Z</time>
      </trkpt>
      <trkpt lat="45.76605" lon="6.83171">
        <ele>2685</ele>
        <time>2022-08-27T04:03:08Z</time>
      </trkpt>
      <trkpt lat="45.76606" lon="6.83173">
        <ele>2685</ele>
        <time>2022-08-27T04:03:10Z</time>
      </trkpt>
      <trkpt lat="45.76608" lon="6.83177">
        <ele>2685</ele>
        <time>2022-08-27T04:03:12Z</time>
      </trkpt>
      <trkpt lat="45.76609" lon="6.83179">
        <ele>2685</ele>
        <time>2022-08-27T04:03:14Z</time>
      </trkpt>
      <trkpt lat="45.7661" lon="6.83182">
        <ele>2684</ele>
        <time>2022-08-27T04:03:16Z</time>
      </trkpt>
      <trkpt lat="45.76611" lon="6.83186">
        <ele>2683</ele>
        <time>2022-08-27T04:03:18Z</time>
      </trkpt>
      <trkpt lat="45.76611" lon="6.83191">
        <ele>2683</ele>
        <time>2022-08-27T04:03:20Z</time>
      </trkpt>
      <trkpt lat="45.76612" lon="6.83196">
        <ele>2682</ele>
        <time>2022-08-27T04:03:22Z</time>
      </trkpt>
      <trkpt lat="45.76613" lon="6.832">
        <ele>2682</ele>
        <time>2022-08-27T04:03:24Z</time>
      </trkpt>
      <trkpt lat="45.76613" lon="6.83205">
        <ele>2682</ele>
        <time>2022-08-27T04:03:26Z</time>
      </trkpt>
      <trkpt lat="45.76614" lon="6.8321">
        <ele>2681</ele>
        <time>2022-08-27T04:03:28Z</time>
      </trkpt>
      <trkpt lat="45.76614" lon="6.83214">
        <ele>2681</ele>
        <time>2022-08-27T04:03:30Z</time>
      </trkpt>
      <trkpt lat="45.76615" lon="6.83219">
        <ele>2680</ele>
        <time>2022-08-27T04:03:32Z</time>
      </trkpt>
      <trkpt lat="45.76616" lon="6.83223">
        <ele>2680</ele>
        <time>2022-08-27T04:03:34Z</time>
      </trkpt>
      <trkpt lat="45.76616" lon="6.83228">
        <ele>2680</ele>
        <time>2022-08-27T04:03:36Z</time>
      </trkpt>
      <trkpt lat="45.76617" lon="6.83233">
        <ele>2678</ele>
        <time>2022-08-27T04:03:38Z</time>
      </trkpt>
      <trkpt lat="45.76617" lon="6.83237">
        <ele>2678</ele>
        <time>2022-08-27T04:03:40Z</time>
      </trkpt>
      <trkpt lat="45.76617" lon="6.83241">
        <ele>2677</ele>
        <time>2022-08-27T04:03:42Z</time>
      </trkpt>
      <trkpt lat="45.76618" lon="6.83245">
        <ele>2677</ele>
        <time>2022-08-27T04:03:44Z</time>
      </trkpt>
      <trkpt lat="45.76618" lon="6.83249">
        <ele>2677</ele>
        <time>2022-08-27T04:03:46Z</time>
      </trkpt>
      <trkpt lat="45.76618" lon="6.83252">
        <ele>2677</ele>
        <time>2022-08-27T04:03:48Z</time>
      </trkpt>
      <trkpt lat="45.76618" lon="6.83254">
        <ele>2677</ele>
        <time>2022-08-27T04:03:50Z</time>
      </trkpt>
      <trkpt lat="45.76619" lon="6.83258">
        <ele>2675</ele>
        <time>2022-08-27T04:03:52Z</time>
      </trkpt>
      <trkpt lat="45.76618" lon="6.83262">
        <ele>2675</ele>
        <time>2022-08-27T04:03:54Z</time>
      </trkpt>
      <trkpt lat="45.76618" lon="6.83266">
        <ele>2675</ele>
        <time>2022-08-27T04:03:56Z</time>
      </trkpt>
      <trkpt lat="45.76617" lon="6.8327">
        <ele>2674</ele>
        <time>2022-08-27T04:03:58Z</time>
      </trkpt>
      <trkpt lat="45.76617" lon="6.83274">
        <ele>2674</ele>
        <time>2022-08-27T04:04:00Z</time>
      </trkpt>
      <trkpt lat="45.76616" lon="6.83278">
        <ele>2673</ele>
        <time>2022-08-27T04:04:02Z</time>
      </trkpt>
      <trkpt lat="45.76614" lon="6.83282">
        <ele>2672</ele>
        <time>2022-08-27T04:04:04Z</time>
      </trkpt>
      <trkpt lat="45.76612" lon="6.83284">
        <ele>2672</ele>
        <time>2022-08-27T04:04:06Z</time>
      </trkpt>
      <trkpt lat="45.7661" lon="6.83287">
        <ele>2672</ele>
        <time>2022-08-27T04:04:08Z</time>
      </trkpt>
      <trkpt lat="45.76608" lon="6.8329">
        <ele>2672</ele>
        <time>2022-08-27T04:04:10Z</time>
      </trkpt>
      <trkpt lat="45.76608" lon="6.83294">
        <ele>2671</ele>
        <time>2022-08-27T04:04:13Z</time>
      </trkpt>
      <trkpt lat="45.76611" lon="6.83293">
        <ele>2671</ele>
        <time>2022-08-27T04:04:15Z</time>
      </trkpt>
      <trkpt lat="45.76614" lon="6.83291">
        <ele>2670</ele>
        <time>2022-08-27T04:04:17Z</time>
      </trkpt>
      <trkpt lat="45.76617" lon="6.83291">
        <ele>2669</ele>
        <time>2022-08-27T04:04:19Z</time>
      </trkpt>
      <trkpt lat="45.7662" lon="6.83291">
        <ele>2669</ele>
        <time>2022-08-27T04:04:21Z</time>
      </trkpt>
      <trkpt lat="45.76622" lon="6.8329">
        <ele>2668</ele>
        <time>2022-08-27T04:04:23Z</time>
      </trkpt>
      <trkpt lat="45.76625" lon="6.8329">
        <ele>2668</ele>
        <time>2022-08-27T04:04:25Z</time>
      </trkpt>
      <trkpt lat="45.76628" lon="6.8329">
        <ele>2666</ele>
        <time>2022-08-27T04:04:27Z</time>
      </trkpt>
      <trkpt lat="45.7663" lon="6.83288">
        <ele>2666</ele>
        <time>2022-08-27T04:04:29Z</time>
      </trkpt>
      <trkpt lat="45.76631" lon="6.83285">
        <ele>2666</ele>
        <time>2022-08-27T04:04:31Z</time>
      </trkpt>
      <trkpt lat="45.76632" lon="6.83281">
        <ele>2665</ele>
        <time>2022-08-27T04:04:33Z</time>
      </trkpt>
      <trkpt lat="45.76632" lon="6.83277">
        <ele>2665</ele>
        <time>2022-08-27T04:04:35Z</time>
      </trkpt>
      <trkpt lat="45.76634" lon="6.83273">
        <ele>2664</ele>
        <time>2022-08-27T04:04:37Z</time>
      </trkpt>
      <trkpt lat="45.76636" lon="6.83271">
        <ele>2664</ele>
        <time>2022-08-27T04:04:39Z</time>
      </trkpt>
      <trkpt lat="45.76639" lon="6.8327">
        <ele>2664</ele>
        <time>2022-08-27T04:04:41Z</time>
      </trkpt>
      <trkpt lat="45.76641" lon="6.83269">
        <ele>2663</ele>
        <time>2022-08-27T04:04:43Z</time>
      </trkpt>
      <trkpt lat="45.76644" lon="6.83269">
        <ele>2662</ele>
        <time>2022-08-27T04:04:45Z</time>
      </trkpt>
      <trkpt lat="45.76646" lon="6.83268">
        <ele>2662</ele>
        <time>2022-08-27T04:04:47Z</time>
      </trkpt>
      <trkpt lat="45.76648" lon="6.83266">
        <ele>2662</ele>
        <time>2022-08-27T04:04:49Z</time>
      </trkpt>
      <trkpt lat="45.76651" lon="6.83266">
        <ele>2661</ele>
        <time>2022-08-27T04:04:51Z</time>
      </trkpt>
      <trkpt lat="45.76653" lon="6.83265">
        <ele>2661</ele>
        <time>2022-08-27T04:04:53Z</time>
      </trkpt>
      <trkpt lat="45.76655" lon="6.83263">
        <ele>2661</ele>
        <time>2022-08-27T04:04:55Z</time>
      </trkpt>
      <trkpt lat="45.76658" lon="6.83262">
        <ele>2661</ele>
        <time>2022-08-27T04:04:57Z</time>
      </trkpt>
      <trkpt lat="45.76661" lon="6.83262">
        <ele>2661</ele>
        <time>2022-08-27T04:04:59Z</time>
      </trkpt>
      <trkpt lat="45.76664" lon="6.83263">
        <ele>2660</ele>
        <time>2022-08-27T04:05:01Z</time>
      </trkpt>
      <trkpt lat="45.76667" lon="6.83261">
        <ele>2659</ele>
        <time>2022-08-27T04:05:03Z</time>
      </trkpt>
      <trkpt lat="45.7667" lon="6.8326">
        <ele>2659</ele>
        <time>2022-08-27T04:05:05Z</time>
      </trkpt>
      <trkpt lat="45.76673" lon="6.83261">
        <ele>2659</ele>
        <time>2022-08-27T04:05:07Z</time>
      </trkpt>
      <trkpt lat="45.76675" lon="6.83263">
        <ele>2658</ele>
        <time>2022-08-27T04:05:09Z</time>
      </trkpt>
      <trkpt lat="45.76677" lon="6.83265">
        <ele>2658</ele>
        <time>2022-08-27T04:05:11Z</time>
      </trkpt>
      <trkpt lat="45.76679" lon="6.83268">
        <ele>2658</ele>
        <time>2022-08-27T04:05:13Z</time>
      </trkpt>
      <trkpt lat="45.7668" lon="6.83271">
        <ele>2657</ele>
        <time>2022-08-27T04:05:15Z</time>
      </trkpt>
      <trkpt lat="45.7668" lon="6.83276">
        <ele>2657</ele>
        <time>2022-08-27T04:05:17Z</time>
      </trkpt>
      <trkpt lat="45.76679" lon="6.8328">
        <ele>2657</ele>
        <time>2022-08-27T04:05:19Z</time>
      </trkpt>
      <trkpt lat="45.76677" lon="6.83283">
        <ele>2656</ele>
        <time>2022-08-27T04:05:23Z</time>
      </trkpt>
      <trkpt lat="45.76674" lon="6.83285">
        <ele>2656</ele>
        <time>2022-08-27T04:05:25Z</time>
      </trkpt>
      <trkpt lat="45.76672" lon="6.83287">
        <ele>2656</ele>
        <time>2022-08-27T04:05:27Z</time>
      </trkpt>
      <trkpt lat="45.7667" lon="6.83291">
        <ele>2654</ele>
        <time>2022-08-27T04:05:29Z</time>
      </trkpt>
      <trkpt lat="45.76668" lon="6.83294">
        <ele>2653</ele>
        <time>2022-08-27T04:05:31Z</time>
      </trkpt>
      <trkpt lat="45.76668" lon="6.83298">
        <ele>2653</ele>
        <time>2022-08-27T04:05:33Z</time>
      </trkpt>
      <trkpt lat="45.76667" lon="6.83302">
        <ele>2653</ele>
        <time>2022-08-27T04:05:35Z</time>
      </trkpt>
      <trkpt lat="45.76667" lon="6.83306">
        <ele>2652</ele>
        <time>2022-08-27T04:05:37Z</time>
      </trkpt>
      <trkpt lat="45.76667" lon="6.8331">
        <ele>2652</ele>
        <time>2022-08-27T04:05:39Z</time>
      </trkpt>
      <trkpt lat="45.76667" lon="6.83314">
        <ele>2651</ele>
        <time>2022-08-27T04:05:41Z</time>
      </trkpt>
      <trkpt lat="45.76665" lon="6.83318">
        <ele>2651</ele>
        <time>2022-08-27T04:05:43Z</time>
      </trkpt>
      <trkpt lat="45.76665" lon="6.83322">
        <ele>2651</ele>
        <time>2022-08-27T04:05:45Z</time>
      </trkpt>
      <trkpt lat="45.76665" lon="6.83325">
        <ele>2650</ele>
        <time>2022-08-27T04:05:47Z</time>
      </trkpt>
      <trkpt lat="45.76665" lon="6.83329">
        <ele>2650</ele>
        <time>2022-08-27T04:05:49Z</time>
      </trkpt>
      <trkpt lat="45.76665" lon="6.83332">
        <ele>2649</ele>
        <time>2022-08-27T04:05:51Z</time>
      </trkpt>
      <trkpt lat="45.76665" lon="6.83337">
        <ele>2649</ele>
        <time>2022-08-27T04:05:53Z</time>
      </trkpt>
      <trkpt lat="45.76665" lon="6.83341">
        <ele>2648</ele>
        <time>2022-08-27T04:05:55Z</time>
      </trkpt>
      <trkpt lat="45.76664" lon="6.83345">
        <ele>2647</ele>
        <time>2022-08-27T04:05:57Z</time>
      </trkpt>
      <trkpt lat="45.76664" lon="6.83349">
        <ele>2647</ele>
        <time>2022-08-27T04:05:59Z</time>
      </trkpt>
      <trkpt lat="45.76664" lon="6.83353">
        <ele>2646</ele>
        <time>2022-08-27T04:06:01Z</time>
      </trkpt>
      <trkpt lat="45.76663" lon="6.83358">
        <ele>2646</ele>
        <time>2022-08-27T04:06:03Z</time>
      </trkpt>
      <trkpt lat="45.7666" lon="6.83361">
        <ele>2646</ele>
        <time>2022-08-27T04:06:05Z</time>
      </trkpt>
      <trkpt lat="45.76657" lon="6.83362">
        <ele>2646</ele>
        <time>2022-08-27T04:06:07Z</time>
      </trkpt>
      <trkpt lat="45.76654" lon="6.83361">
        <ele>2646</ele>
        <time>2022-08-27T04:06:09Z</time>
      </trkpt>
      <trkpt lat="45.76651" lon="6.83362">
        <ele>2645</ele>
        <time>2022-08-27T04:06:11Z</time>
      </trkpt>
      <trkpt lat="45.76649" lon="6.83363">
        <ele>2645</ele>
        <time>2022-08-27T04:06:13Z</time>
      </trkpt>
      <trkpt lat="45.76647" lon="6.83366">
        <ele>2645</ele>
        <time>2022-08-27T04:06:15Z</time>
      </trkpt>
      <trkpt lat="45.76645" lon="6.83369">
        <ele>2644</ele>
        <time>2022-08-27T04:06:17Z</time>
      </trkpt>
      <trkpt lat="45.76644" lon="6.83372">
        <ele>2644</ele>
        <time>2022-08-27T04:06:19Z</time>
      </trkpt>
      <trkpt lat="45.76644" lon="6.83375">
        <ele>2644</ele>
        <time>2022-08-27T04:06:21Z</time>
      </trkpt>
      <trkpt lat="45.76644" lon="6.83378">
        <ele>2642</ele>
        <time>2022-08-27T04:06:23Z</time>
      </trkpt>
      <trkpt lat="45.76643" lon="6.83381">
        <ele>2642</ele>
        <time>2022-08-27T04:06:25Z</time>
      </trkpt>
      <trkpt lat="45.76642" lon="6.83386">
        <ele>2641</ele>
        <time>2022-08-27T04:06:27Z</time>
      </trkpt>
      <trkpt lat="45.76642" lon="6.8339">
        <ele>2641</ele>
        <time>2022-08-27T04:06:29Z</time>
      </trkpt>
      <trkpt lat="45.76642" lon="6.83394">
        <ele>2640</ele>
        <time>2022-08-27T04:06:31Z</time>
      </trkpt>
      <trkpt lat="45.76642" lon="6.83398">
        <ele>2641</ele>
        <time>2022-08-27T04:06:33Z</time>
      </trkpt>
      <trkpt lat="45.76642" lon="6.83402">
        <ele>2640</ele>
        <time>2022-08-27T04:06:35Z</time>
      </trkpt>
      <trkpt lat="45.76643" lon="6.83406">
        <ele>2640</ele>
        <time>2022-08-27T04:06:37Z</time>
      </trkpt>
      <trkpt lat="45.76642" lon="6.83411">
        <ele>2640</ele>
        <time>2022-08-27T04:06:39Z</time>
      </trkpt>
      <trkpt lat="45.76642" lon="6.83415">
        <ele>2639</ele>
        <time>2022-08-27T04:06:41Z</time>
      </trkpt>
      <trkpt lat="45.76643" lon="6.83418">
        <ele>2639</ele>
        <time>2022-08-27T04:06:44Z</time>
      </trkpt>
      <trkpt lat="45.76644" lon="6.83421">
        <ele>2639</ele>
        <time>2022-08-27T04:06:46Z</time>
      </trkpt>
      <trkpt lat="45.76643" lon="6.83425">
        <ele>2638</ele>
        <time>2022-08-27T04:06:48Z</time>
      </trkpt>
      <trkpt lat="45.76642" lon="6.83428">
        <ele>2638</ele>
        <time>2022-08-27T04:06:50Z</time>
      </trkpt>
      <trkpt lat="45.76642" lon="6.83433">
        <ele>2637</ele>
        <time>2022-08-27T04:06:52Z</time>
      </trkpt>
      <trkpt lat="45.76642" lon="6.83437">
        <ele>2637</ele>
        <time>2022-08-27T04:06:54Z</time>
      </trkpt>
      <trkpt lat="45.76642" lon="6.83441">
        <ele>2637</ele>
        <time>2022-08-27T04:06:56Z</time>
      </trkpt>
      <trkpt lat="45.76642" lon="6.83445">
        <ele>2636</ele>
        <time>2022-08-27T04:06:58Z</time>
      </trkpt>
      <trkpt lat="45.76642" lon="6.83449">
        <ele>2635</ele>
        <time>2022-08-27T04:07:00Z</time>
      </trkpt>
      <trkpt lat="45.76642" lon="6.83452">
        <ele>2635</ele>
        <time>2022-08-27T04:07:02Z</time>
      </trkpt>
      <trkpt lat="45.76642" lon="6.83455">
        <ele>2634</ele>
        <time>2022-08-27T04:07:04Z</time>
      </trkpt>
      <trkpt lat="45.76643" lon="6.83452">
        <ele>2633</ele>
        <time>2022-08-27T04:07:09Z</time>
      </trkpt>
      <trkpt lat="45.76645" lon="6.83449">
        <ele>2632</ele>
        <time>2022-08-27T04:07:11Z</time>
      </trkpt>
      <trkpt lat="45.76646" lon="6.83445">
        <ele>2632</ele>
        <time>2022-08-27T04:07:13Z</time>
      </trkpt>
      <trkpt lat="45.76647" lon="6.83443">
        <ele>2632</ele>
        <time>2022-08-27T04:07:14Z</time>
      </trkpt>
      <trkpt lat="45.76647" lon="6.8344">
        <ele>2632</ele>
        <time>2022-08-27T04:07:15Z</time>
      </trkpt>
      <trkpt lat="45.76648" lon="6.83438">
        <ele>2632</ele>
        <time>2022-08-27T04:07:16Z</time>
      </trkpt>
      <trkpt lat="45.76649" lon="6.83434">
        <ele>2631</ele>
        <time>2022-08-27T04:07:18Z</time>
      </trkpt>
      <trkpt lat="45.7665" lon="6.8343">
        <ele>2631</ele>
        <time>2022-08-27T04:07:20Z</time>
      </trkpt>
      <trkpt lat="45.76651" lon="6.83425">
        <ele>2629</ele>
        <time>2022-08-27T04:07:22Z</time>
      </trkpt>
      <trkpt lat="45.76652" lon="6.83421">
        <ele>2629</ele>
        <time>2022-08-27T04:07:24Z</time>
      </trkpt>
      <trkpt lat="45.76654" lon="6.83417">
        <ele>2629</ele>
        <time>2022-08-27T04:07:26Z</time>
      </trkpt>
      <trkpt lat="45.76655" lon="6.83414">
        <ele>2629</ele>
        <time>2022-08-27T04:07:27Z</time>
      </trkpt>
      <trkpt lat="45.76657" lon="6.83413">
        <ele>2629</ele>
        <time>2022-08-27T04:07:28Z</time>
      </trkpt>
      <trkpt lat="45.7666" lon="6.83413">
        <ele>2629</ele>
        <time>2022-08-27T04:07:30Z</time>
      </trkpt>
      <trkpt lat="45.76662" lon="6.83412">
        <ele>2628</ele>
        <time>2022-08-27T04:07:32Z</time>
      </trkpt>
      <trkpt lat="45.76664" lon="6.8341">
        <ele>2628</ele>
        <time>2022-08-27T04:07:34Z</time>
      </trkpt>
      <trkpt lat="45.76666" lon="6.8341">
        <ele>2628</ele>
        <time>2022-08-27T04:07:36Z</time>
      </trkpt>
      <trkpt lat="45.76668" lon="6.83412">
        <ele>2627</ele>
        <time>2022-08-27T04:07:38Z</time>
      </trkpt>
      <trkpt lat="45.76671" lon="6.83414">
        <ele>2627</ele>
        <time>2022-08-27T04:07:40Z</time>
      </trkpt>
      <trkpt lat="45.76674" lon="6.83413">
        <ele>2626</ele>
        <time>2022-08-27T04:07:42Z</time>
      </trkpt>
      <trkpt lat="45.76677" lon="6.83412">
        <ele>2625</ele>
        <time>2022-08-27T04:07:44Z</time>
      </trkpt>
      <trkpt lat="45.7668" lon="6.83411">
        <ele>2625</ele>
        <time>2022-08-27T04:07:46Z</time>
      </trkpt>
      <trkpt lat="45.76684" lon="6.8341">
        <ele>2625</ele>
        <time>2022-08-27T04:07:48Z</time>
      </trkpt>
      <trkpt lat="45.76687" lon="6.83409">
        <ele>2625</ele>
        <time>2022-08-27T04:07:50Z</time>
      </trkpt>
      <trkpt lat="45.7669" lon="6.83408">
        <ele>2624</ele>
        <time>2022-08-27T04:07:52Z</time>
      </trkpt>
      <trkpt lat="45.76693" lon="6.83409">
        <ele>2624</ele>
        <time>2022-08-27T04:07:54Z</time>
      </trkpt>
      <trkpt lat="45.76693" lon="6.83414">
        <ele>2623</ele>
        <time>2022-08-27T04:07:56Z</time>
      </trkpt>
      <trkpt lat="45.7669" lon="6.83417">
        <ele>2622</ele>
        <time>2022-08-27T04:07:58Z</time>
      </trkpt>
      <trkpt lat="45.76688" lon="6.8342">
        <ele>2621</ele>
        <time>2022-08-27T04:08:00Z</time>
      </trkpt>
      <trkpt lat="45.76685" lon="6.83423">
        <ele>2621</ele>
        <time>2022-08-27T04:08:02Z</time>
      </trkpt>
      <trkpt lat="45.76683" lon="6.83426">
        <ele>2621</ele>
        <time>2022-08-27T04:08:04Z</time>
      </trkpt>
      <trkpt lat="45.76681" lon="6.83429">
        <ele>2620</ele>
        <time>2022-08-27T04:08:06Z</time>
      </trkpt>
      <trkpt lat="45.76678" lon="6.8343">
        <ele>2620</ele>
        <time>2022-08-27T04:08:08Z</time>
      </trkpt>
      <trkpt lat="45.76676" lon="6.83432">
        <ele>2619</ele>
        <time>2022-08-27T04:08:10Z</time>
      </trkpt>
      <trkpt lat="45.76675" lon="6.83435">
        <ele>2619</ele>
        <time>2022-08-27T04:08:12Z</time>
      </trkpt>
      <trkpt lat="45.76675" lon="6.8344">
        <ele>2617</ele>
        <time>2022-08-27T04:08:14Z</time>
      </trkpt>
      <trkpt lat="45.76674" lon="6.83444">
        <ele>2617</ele>
        <time>2022-08-27T04:08:16Z</time>
      </trkpt>
      <trkpt lat="45.76673" lon="6.83448">
        <ele>2616</ele>
        <time>2022-08-27T04:08:18Z</time>
      </trkpt>
      <trkpt lat="45.76672" lon="6.83452">
        <ele>2616</ele>
        <time>2022-08-27T04:08:20Z</time>
      </trkpt>
      <trkpt lat="45.76672" lon="6.83457">
        <ele>2615</ele>
        <time>2022-08-27T04:08:22Z</time>
      </trkpt>
      <trkpt lat="45.76673" lon="6.83461">
        <ele>2615</ele>
        <time>2022-08-27T04:08:24Z</time>
      </trkpt>
      <trkpt lat="45.76673" lon="6.83465">
        <ele>2615</ele>
        <time>2022-08-27T04:08:26Z</time>
      </trkpt>
      <trkpt lat="45.76672" lon="6.83469">
        <ele>2613</ele>
        <time>2022-08-27T04:08:28Z</time>
      </trkpt>
      <trkpt lat="45.76672" lon="6.83472">
        <ele>2612</ele>
        <time>2022-08-27T04:08:30Z</time>
      </trkpt>
      <trkpt lat="45.76671" lon="6.83475">
        <ele>2612</ele>
        <time>2022-08-27T04:08:32Z</time>
      </trkpt>
      <trkpt lat="45.76671" lon="6.83479">
        <ele>2612</ele>
        <time>2022-08-27T04:08:35Z</time>
      </trkpt>
      <trkpt lat="45.76671" lon="6.83483">
        <ele>2612</ele>
        <time>2022-08-27T04:08:37Z</time>
      </trkpt>
      <trkpt lat="45.76672" lon="6.83486">
        <ele>2612</ele>
        <time>2022-08-27T04:08:39Z</time>
      </trkpt>
      <trkpt lat="45.76672" lon="6.83488">
        <ele>2612</ele>
        <time>2022-08-27T04:08:41Z</time>
      </trkpt>
      <trkpt lat="45.76672" lon="6.83492">
        <ele>2611</ele>
        <time>2022-08-27T04:08:43Z</time>
      </trkpt>
      <trkpt lat="45.76673" lon="6.83494">
        <ele>2611</ele>
        <time>2022-08-27T04:08:45Z</time>
      </trkpt>
      <trkpt lat="45.76673" lon="6.83498">
        <ele>2611</ele>
        <time>2022-08-27T04:08:47Z</time>
      </trkpt>
      <trkpt lat="45.76673" lon="6.83502">
        <ele>2610</ele>
        <time>2022-08-27T04:08:49Z</time>
      </trkpt>
      <trkpt lat="45.76673" lon="6.83505">
        <ele>2610</ele>
        <time>2022-08-27T04:08:51Z</time>
      </trkpt>
      <trkpt lat="45.76673" lon="6.83509">
        <ele>2610</ele>
        <time>2022-08-27T04:08:54Z</time>
      </trkpt>
      <trkpt lat="45.76673" lon="6.83513">
        <ele>2609</ele>
        <time>2022-08-27T04:08:56Z</time>
      </trkpt>
      <trkpt lat="45.76673" lon="6.83517">
        <ele>2609</ele>
        <time>2022-08-27T04:08:58Z</time>
      </trkpt>
      <trkpt lat="45.76673" lon="6.83521">
        <ele>2609</ele>
        <time>2022-08-27T04:09:00Z</time>
      </trkpt>
      <trkpt lat="45.76673" lon="6.83525">
        <ele>2607</ele>
        <time>2022-08-27T04:09:02Z</time>
      </trkpt>
      <trkpt lat="45.76673" lon="6.83529">
        <ele>2607</ele>
        <time>2022-08-27T04:09:04Z</time>
      </trkpt>
      <trkpt lat="45.76673" lon="6.83533">
        <ele>2607</ele>
        <time>2022-08-27T04:09:06Z</time>
      </trkpt>
      <trkpt lat="45.76673" lon="6.83536">
        <ele>2607</ele>
        <time>2022-08-27T04:09:07Z</time>
      </trkpt>
      <trkpt lat="45.76673" lon="6.83539">
        <ele>2605</ele>
        <time>2022-08-27T04:09:08Z</time>
      </trkpt>
      <trkpt lat="45.76672" lon="6.83542">
        <ele>2605</ele>
        <time>2022-08-27T04:09:09Z</time>
      </trkpt>
      <trkpt lat="45.76673" lon="6.83545">
        <ele>2604</ele>
        <time>2022-08-27T04:09:10Z</time>
      </trkpt>
      <trkpt lat="45.76673" lon="6.8355">
        <ele>2604</ele>
        <time>2022-08-27T04:09:12Z</time>
      </trkpt>
      <trkpt lat="45.76672" lon="6.83554">
        <ele>2604</ele>
        <time>2022-08-27T04:09:14Z</time>
      </trkpt>
      <trkpt lat="45.76671" lon="6.83559">
        <ele>2603</ele>
        <time>2022-08-27T04:09:16Z</time>
      </trkpt>
      <trkpt lat="45.7667" lon="6.83563">
        <ele>2603</ele>
        <time>2022-08-27T04:09:18Z</time>
      </trkpt>
      <trkpt lat="45.76668" lon="6.83567">
        <ele>2603</ele>
        <time>2022-08-27T04:09:20Z</time>
      </trkpt>
      <trkpt lat="45.76667" lon="6.8357">
        <ele>2603</ele>
        <time>2022-08-27T04:09:22Z</time>
      </trkpt>
      <trkpt lat="45.76665" lon="6.83573">
        <ele>2602</ele>
        <time>2022-08-27T04:09:24Z</time>
      </trkpt>
      <trkpt lat="45.76663" lon="6.83574">
        <ele>2601</ele>
        <time>2022-08-27T04:09:26Z</time>
      </trkpt>
      <trkpt lat="45.76662" lon="6.83576">
        <ele>2601</ele>
        <time>2022-08-27T04:09:28Z</time>
      </trkpt>
      <trkpt lat="45.7666" lon="6.83578">
        <ele>2601</ele>
        <time>2022-08-27T04:09:30Z</time>
      </trkpt>
      <trkpt lat="45.76659" lon="6.8358">
        <ele>2601</ele>
        <time>2022-08-27T04:09:31Z</time>
      </trkpt>
      <trkpt lat="45.76657" lon="6.83581">
        <ele>2601</ele>
        <time>2022-08-27T04:09:33Z</time>
      </trkpt>
      <trkpt lat="45.76654" lon="6.83582">
        <ele>2600</ele>
        <time>2022-08-27T04:09:35Z</time>
      </trkpt>
      <trkpt lat="45.76656" lon="6.83584">
        <ele>2599</ele>
        <time>2022-08-27T04:09:41Z</time>
      </trkpt>
      <trkpt lat="45.76659" lon="6.83585">
        <ele>2598</ele>
        <time>2022-08-27T04:09:43Z</time>
      </trkpt>
      <trkpt lat="45.76663" lon="6.83586">
        <ele>2598</ele>
        <time>2022-08-27T04:09:47Z</time>
      </trkpt>
      <trkpt lat="45.76665" lon="6.83587">
        <ele>2597</ele>
        <time>2022-08-27T04:09:49Z</time>
      </trkpt>
      <trkpt lat="45.76668" lon="6.83587">
        <ele>2596</ele>
        <time>2022-08-27T04:09:51Z</time>
      </trkpt>
      <trkpt lat="45.7667" lon="6.83585">
        <ele>2596</ele>
        <time>2022-08-27T04:09:53Z</time>
      </trkpt>
      <trkpt lat="45.76672" lon="6.83584">
        <ele>2595</ele>
        <time>2022-08-27T04:09:55Z</time>
      </trkpt>
      <trkpt lat="45.76673" lon="6.83588">
        <ele>2595</ele>
        <time>2022-08-27T04:09:57Z</time>
      </trkpt>
      <trkpt lat="45.76672" lon="6.8359">
        <ele>2595</ele>
        <time>2022-08-27T04:09:59Z</time>
      </trkpt>
      <trkpt lat="45.7667" lon="6.83593">
        <ele>2593</ele>
        <time>2022-08-27T04:10:00Z</time>
      </trkpt>
      <trkpt lat="45.76668" lon="6.83596">
        <ele>2593</ele>
        <time>2022-08-27T04:10:02Z</time>
      </trkpt>
      <trkpt lat="45.76666" lon="6.83598">
        <ele>2593</ele>
        <time>2022-08-27T04:10:04Z</time>
      </trkpt>
      <trkpt lat="45.76663" lon="6.83599">
        <ele>2592</ele>
        <time>2022-08-27T04:10:06Z</time>
      </trkpt>
      <trkpt lat="45.76661" lon="6.83599">
        <ele>2592</ele>
        <time>2022-08-27T04:10:08Z</time>
      </trkpt>
      <trkpt lat="45.76658" lon="6.83599">
        <ele>2592</ele>
        <time>2022-08-27T04:10:10Z</time>
      </trkpt>
      <trkpt lat="45.76655" lon="6.83601">
        <ele>2591</ele>
        <time>2022-08-27T04:10:12Z</time>
      </trkpt>
      <trkpt lat="45.76653" lon="6.83604">
        <ele>2591</ele>
        <time>2022-08-27T04:10:14Z</time>
      </trkpt>
      <trkpt lat="45.76655" lon="6.83605">
        <ele>2591</ele>
        <time>2022-08-27T04:10:16Z</time>
      </trkpt>
      <trkpt lat="45.76658" lon="6.83606">
        <ele>2591</ele>
        <time>2022-08-27T04:10:18Z</time>
      </trkpt>
      <trkpt lat="45.76659" lon="6.83607">
        <ele>2590</ele>
        <time>2022-08-27T04:10:19Z</time>
      </trkpt>
      <trkpt lat="45.76662" lon="6.83609">
        <ele>2590</ele>
        <time>2022-08-27T04:10:21Z</time>
      </trkpt>
      <trkpt lat="45.76665" lon="6.83611">
        <ele>2587</ele>
        <time>2022-08-27T04:10:23Z</time>
      </trkpt>
      <trkpt lat="45.76667" lon="6.83613">
        <ele>2587</ele>
        <time>2022-08-27T04:10:25Z</time>
      </trkpt>
      <trkpt lat="45.7667" lon="6.83613">
        <ele>2587</ele>
        <time>2022-08-27T04:10:27Z</time>
      </trkpt>
      <trkpt lat="45.76673" lon="6.83613">
        <ele>2587</ele>
        <time>2022-08-27T04:10:29Z</time>
      </trkpt>
      <trkpt lat="45.76675" lon="6.83612">
        <ele>2587</ele>
        <time>2022-08-27T04:10:31Z</time>
      </trkpt>
      <trkpt lat="45.76678" lon="6.8361">
        <ele>2587</ele>
        <time>2022-08-27T04:10:33Z</time>
      </trkpt>
      <trkpt lat="45.7668" lon="6.83607">
        <ele>2586</ele>
        <time>2022-08-27T04:10:35Z</time>
      </trkpt>
      <trkpt lat="45.76682" lon="6.83603">
        <ele>2586</ele>
        <time>2022-08-27T04:10:37Z</time>
      </trkpt>
      <trkpt lat="45.76684" lon="6.83599">
        <ele>2586</ele>
        <time>2022-08-27T04:10:39Z</time>
      </trkpt>
      <trkpt lat="45.76686" lon="6.83595">
        <ele>2585</ele>
        <time>2022-08-27T04:10:41Z</time>
      </trkpt>
      <trkpt lat="45.76688" lon="6.83591">
        <ele>2585</ele>
        <time>2022-08-27T04:10:43Z</time>
      </trkpt>
      <trkpt lat="45.7669" lon="6.83587">
        <ele>2584</ele>
        <time>2022-08-27T04:10:45Z</time>
      </trkpt>
      <trkpt lat="45.76692" lon="6.83585">
        <ele>2583</ele>
        <time>2022-08-27T04:10:47Z</time>
      </trkpt>
      <trkpt lat="45.76695" lon="6.83581">
        <ele>2583</ele>
        <time>2022-08-27T04:10:49Z</time>
      </trkpt>
      <trkpt lat="45.76697" lon="6.83579">
        <ele>2583</ele>
        <time>2022-08-27T04:10:51Z</time>
      </trkpt>
      <trkpt lat="45.76699" lon="6.83581">
        <ele>2581</ele>
        <time>2022-08-27T04:10:53Z</time>
      </trkpt>
      <trkpt lat="45.76699" lon="6.83586">
        <ele>2580</ele>
        <time>2022-08-27T04:10:55Z</time>
      </trkpt>
      <trkpt lat="45.76698" lon="6.8359">
        <ele>2580</ele>
        <time>2022-08-27T04:10:57Z</time>
      </trkpt>
      <trkpt lat="45.76698" lon="6.83594">
        <ele>2580</ele>
        <time>2022-08-27T04:10:59Z</time>
      </trkpt>
      <trkpt lat="45.76699" lon="6.83599">
        <ele>2580</ele>
        <time>2022-08-27T04:11:01Z</time>
      </trkpt>
      <trkpt lat="45.76698" lon="6.83602">
        <ele>2579</ele>
        <time>2022-08-27T04:11:03Z</time>
      </trkpt>
      <trkpt lat="45.76698" lon="6.83606">
        <ele>2579</ele>
        <time>2022-08-27T04:11:05Z</time>
      </trkpt>
      <trkpt lat="45.76698" lon="6.83611">
        <ele>2579</ele>
        <time>2022-08-27T04:11:07Z</time>
      </trkpt>
      <trkpt lat="45.76698" lon="6.83615">
        <ele>2578</ele>
        <time>2022-08-27T04:11:09Z</time>
      </trkpt>
      <trkpt lat="45.76698" lon="6.83619">
        <ele>2577</ele>
        <time>2022-08-27T04:11:11Z</time>
      </trkpt>
      <trkpt lat="45.76697" lon="6.83623">
        <ele>2577</ele>
        <time>2022-08-27T04:11:13Z</time>
      </trkpt>
      <trkpt lat="45.76697" lon="6.83628">
        <ele>2576</ele>
        <time>2022-08-27T04:11:15Z</time>
      </trkpt>
      <trkpt lat="45.76697" lon="6.83635">
        <ele>2576</ele>
        <time>2022-08-27T04:11:18Z</time>
      </trkpt>
      <trkpt lat="45.76697" lon="6.8364">
        <ele>2573</ele>
        <time>2022-08-27T04:11:20Z</time>
      </trkpt>
      <trkpt lat="45.76696" lon="6.83641">
        <ele>2574</ele>
        <time>2022-08-27T04:11:21Z</time>
      </trkpt>
      <trkpt lat="45.76696" lon="6.83642">
        <ele>2574</ele>
        <time>2022-08-27T04:11:23Z</time>
      </trkpt>
      <trkpt lat="45.76695" lon="6.83644">
        <ele>2574</ele>
        <time>2022-08-27T04:11:24Z</time>
      </trkpt>
      <trkpt lat="45.76695" lon="6.83645">
        <ele>2574</ele>
        <time>2022-08-27T04:11:25Z</time>
      </trkpt>
      <trkpt lat="45.76694" lon="6.83649">
        <ele>2574</ele>
        <time>2022-08-27T04:11:26Z</time>
      </trkpt>
      <trkpt lat="45.76694" lon="6.83654">
        <ele>2573</ele>
        <time>2022-08-27T04:11:28Z</time>
      </trkpt>
      <trkpt lat="45.76694" lon="6.83658">
        <ele>2572</ele>
        <time>2022-08-27T04:11:30Z</time>
      </trkpt>
      <trkpt lat="45.76695" lon="6.83663">
        <ele>2572</ele>
        <time>2022-08-27T04:11:32Z</time>
      </trkpt>
      <trkpt lat="45.76695" lon="6.83668">
        <ele>2571</ele>
        <time>2022-08-27T04:11:34Z</time>
      </trkpt>
      <trkpt lat="45.76694" lon="6.83672">
        <ele>2571</ele>
        <time>2022-08-27T04:11:36Z</time>
      </trkpt>
      <trkpt lat="45.76693" lon="6.83677">
        <ele>2569</ele>
        <time>2022-08-27T04:11:38Z</time>
      </trkpt>
      <trkpt lat="45.76692" lon="6.83681">
        <ele>2569</ele>
        <time>2022-08-27T04:11:40Z</time>
      </trkpt>
      <trkpt lat="45.76691" lon="6.83685">
        <ele>2568</ele>
        <time>2022-08-27T04:11:42Z</time>
      </trkpt>
      <trkpt lat="45.76689" lon="6.83688">
        <ele>2568</ele>
        <time>2022-08-27T04:11:44Z</time>
      </trkpt>
      <trkpt lat="45.76689" lon="6.83691">
        <ele>2568</ele>
        <time>2022-08-27T04:11:46Z</time>
      </trkpt>
      <trkpt lat="45.7669" lon="6.83696">
        <ele>2567</ele>
        <time>2022-08-27T04:11:48Z</time>
      </trkpt>
      <trkpt lat="45.7669" lon="6.83698">
        <ele>2567</ele>
        <time>2022-08-27T04:11:49Z</time>
      </trkpt>
      <trkpt lat="45.7669" lon="6.83703">
        <ele>2566</ele>
        <time>2022-08-27T04:11:51Z</time>
      </trkpt>
      <trkpt lat="45.7669" lon="6.83706">
        <ele>2566</ele>
        <time>2022-08-27T04:11:53Z</time>
      </trkpt>
      <trkpt lat="45.7669" lon="6.83709">
        <ele>2566</ele>
        <time>2022-08-27T04:11:55Z</time>
      </trkpt>
      <trkpt lat="45.76689" lon="6.83712">
        <ele>2564</ele>
        <time>2022-08-27T04:11:57Z</time>
      </trkpt>
      <trkpt lat="45.76688" lon="6.83715">
        <ele>2563</ele>
        <time>2022-08-27T04:11:59Z</time>
      </trkpt>
      <trkpt lat="45.76688" lon="6.83718">
        <ele>2563</ele>
        <time>2022-08-27T04:12:02Z</time>
      </trkpt>
      <trkpt lat="45.7669" lon="6.8372">
        <ele>2562</ele>
        <time>2022-08-27T04:12:04Z</time>
      </trkpt>
      <trkpt lat="45.7669" lon="6.83723">
        <ele>2561</ele>
        <time>2022-08-27T04:12:06Z</time>
      </trkpt>
      <trkpt lat="45.76691" lon="6.83725">
        <ele>2561</ele>
        <time>2022-08-27T04:12:08Z</time>
      </trkpt>
      <trkpt lat="45.7669" lon="6.83727">
        <ele>2560</ele>
        <time>2022-08-27T04:12:11Z</time>
      </trkpt>
      <trkpt lat="45.76683" lon="6.83734">
        <ele>2557</ele>
        <time>2022-08-27T04:12:19Z</time>
      </trkpt>
      <trkpt lat="45.76681" lon="6.83733">
        <ele>2555</ele>
        <time>2022-08-27T04:12:21Z</time>
      </trkpt>
      <trkpt lat="45.76677" lon="6.83731">
        <ele>2555</ele>
        <time>2022-08-27T04:12:23Z</time>
      </trkpt>
      <trkpt lat="45.76675" lon="6.8373">
        <ele>2554</ele>
        <time>2022-08-27T04:12:25Z</time>
      </trkpt>
      <trkpt lat="45.76672" lon="6.83729">
        <ele>2553</ele>
        <time>2022-08-27T04:12:27Z</time>
      </trkpt>
      <trkpt lat="45.76669" lon="6.83729">
        <ele>2552</ele>
        <time>2022-08-27T04:12:29Z</time>
      </trkpt>
      <trkpt lat="45.76667" lon="6.83729">
        <ele>2551</ele>
        <time>2022-08-27T04:12:31Z</time>
      </trkpt>
      <trkpt lat="45.76666" lon="6.83732">
        <ele>2551</ele>
        <time>2022-08-27T04:12:34Z</time>
      </trkpt>
      <trkpt lat="45.76663" lon="6.83734">
        <ele>2548</ele>
        <time>2022-08-27T04:12:36Z</time>
      </trkpt>
      <trkpt lat="45.7666" lon="6.83735">
        <ele>2548</ele>
        <time>2022-08-27T04:12:38Z</time>
      </trkpt>
      <trkpt lat="45.76658" lon="6.83736">
        <ele>2547</ele>
        <time>2022-08-27T04:12:40Z</time>
      </trkpt>
      <trkpt lat="45.76656" lon="6.83737">
        <ele>2547</ele>
        <time>2022-08-27T04:12:42Z</time>
      </trkpt>
      <trkpt lat="45.76657" lon="6.8374">
        <ele>2544</ele>
        <time>2022-08-27T04:12:45Z</time>
      </trkpt>
      <trkpt lat="45.76658" lon="6.83741">
        <ele>2544</ele>
        <time>2022-08-27T04:12:47Z</time>
      </trkpt>
      <trkpt lat="45.76659" lon="6.83744">
        <ele>2544</ele>
        <time>2022-08-27T04:12:49Z</time>
      </trkpt>
      <trkpt lat="45.76659" lon="6.83748">
        <ele>2543</ele>
        <time>2022-08-27T04:12:51Z</time>
      </trkpt>
      <trkpt lat="45.76657" lon="6.83752">
        <ele>2543</ele>
        <time>2022-08-27T04:12:53Z</time>
      </trkpt>
      <trkpt lat="45.76656" lon="6.83755">
        <ele>2542</ele>
        <time>2022-08-27T04:12:55Z</time>
      </trkpt>
      <trkpt lat="45.76656" lon="6.83758">
        <ele>2541</ele>
        <time>2022-08-27T04:12:57Z</time>
      </trkpt>
      <trkpt lat="45.76657" lon="6.83762">
        <ele>2541</ele>
        <time>2022-08-27T04:12:59Z</time>
      </trkpt>
      <trkpt lat="45.76657" lon="6.83766">
        <ele>2540</ele>
        <time>2022-08-27T04:13:01Z</time>
      </trkpt>
      <trkpt lat="45.76657" lon="6.83769">
        <ele>2539</ele>
        <time>2022-08-27T04:13:03Z</time>
      </trkpt>
      <trkpt lat="45.76656" lon="6.83773">
        <ele>2539</ele>
        <time>2022-08-27T04:13:05Z</time>
      </trkpt>
      <trkpt lat="45.76655" lon="6.83776">
        <ele>2539</ele>
        <time>2022-08-27T04:13:07Z</time>
      </trkpt>
      <trkpt lat="45.76652" lon="6.83778">
        <ele>2538</ele>
        <time>2022-08-27T04:13:09Z</time>
      </trkpt>
      <trkpt lat="45.7665" lon="6.83781">
        <ele>2538</ele>
        <time>2022-08-27T04:13:11Z</time>
      </trkpt>
      <trkpt lat="45.76648" lon="6.83784">
        <ele>2537</ele>
        <time>2022-08-27T04:13:13Z</time>
      </trkpt>
      <trkpt lat="45.76645" lon="6.83787">
        <ele>2537</ele>
        <time>2022-08-27T04:13:15Z</time>
      </trkpt>
      <trkpt lat="45.76642" lon="6.83787">
        <ele>2535</ele>
        <time>2022-08-27T04:13:17Z</time>
      </trkpt>
      <trkpt lat="45.7664" lon="6.83787">
        <ele>2535</ele>
        <time>2022-08-27T04:13:18Z</time>
      </trkpt>
      <trkpt lat="45.76637" lon="6.83787">
        <ele>2535</ele>
        <time>2022-08-27T04:13:20Z</time>
      </trkpt>
      <trkpt lat="45.76634" lon="6.83788">
        <ele>2535</ele>
        <time>2022-08-27T04:13:22Z</time>
      </trkpt>
      <trkpt lat="45.76632" lon="6.8379">
        <ele>2533</ele>
        <time>2022-08-27T04:13:24Z</time>
      </trkpt>
      <trkpt lat="45.76629" lon="6.83791">
        <ele>2533</ele>
        <time>2022-08-27T04:13:26Z</time>
      </trkpt>
      <trkpt lat="45.76627" lon="6.83793">
        <ele>2531</ele>
        <time>2022-08-27T04:13:28Z</time>
      </trkpt>
      <trkpt lat="45.76625" lon="6.83796">
        <ele>2531</ele>
        <time>2022-08-27T04:13:30Z</time>
      </trkpt>
      <trkpt lat="45.76623" lon="6.83798">
        <ele>2531</ele>
        <time>2022-08-27T04:13:32Z</time>
      </trkpt>
      <trkpt lat="45.76624" lon="6.83802">
        <ele>2530</ele>
        <time>2022-08-27T04:13:34Z</time>
      </trkpt>
      <trkpt lat="45.76626" lon="6.83805">
        <ele>2530</ele>
        <time>2022-08-27T04:13:36Z</time>
      </trkpt>
      <trkpt lat="45.76629" lon="6.83805">
        <ele>2528</ele>
        <time>2022-08-27T04:13:38Z</time>
      </trkpt>
      <trkpt lat="45.7663" lon="6.83807">
        <ele>2528</ele>
        <time>2022-08-27T04:13:40Z</time>
      </trkpt>
      <trkpt lat="45.7663" lon="6.8381">
        <ele>2528</ele>
        <time>2022-08-27T04:13:42Z</time>
      </trkpt>
      <trkpt lat="45.76628" lon="6.83812">
        <ele>2527</ele>
        <time>2022-08-27T04:13:44Z</time>
      </trkpt>
      <trkpt lat="45.76626" lon="6.83813">
        <ele>2526</ele>
        <time>2022-08-27T04:13:46Z</time>
      </trkpt>
      <trkpt lat="45.76625" lon="6.83817">
        <ele>2526</ele>
        <time>2022-08-27T04:13:48Z</time>
      </trkpt>
      <trkpt lat="45.76625" lon="6.83821">
        <ele>2525</ele>
        <time>2022-08-27T04:13:50Z</time>
      </trkpt>
      <trkpt lat="45.76624" lon="6.83825">
        <ele>2525</ele>
        <time>2022-08-27T04:13:52Z</time>
      </trkpt>
      <trkpt lat="45.76624" lon="6.83829">
        <ele>2524</ele>
        <time>2022-08-27T04:13:54Z</time>
      </trkpt>
      <trkpt lat="45.76624" lon="6.83832">
        <ele>2523</ele>
        <time>2022-08-27T04:13:56Z</time>
      </trkpt>
      <trkpt lat="45.76623" lon="6.83835">
        <ele>2523</ele>
        <time>2022-08-27T04:13:58Z</time>
      </trkpt>
      <trkpt lat="45.76622" lon="6.83838">
        <ele>2522</ele>
        <time>2022-08-27T04:14:00Z</time>
      </trkpt>
      <trkpt lat="45.76621" lon="6.83843">
        <ele>2522</ele>
        <time>2022-08-27T04:14:03Z</time>
      </trkpt>
      <trkpt lat="45.76618" lon="6.83844">
        <ele>2520</ele>
        <time>2022-08-27T04:14:05Z</time>
      </trkpt>
      <trkpt lat="45.76616" lon="6.83845">
        <ele>2520</ele>
        <time>2022-08-27T04:14:07Z</time>
      </trkpt>
      <trkpt lat="45.76615" lon="6.83848">
        <ele>2519</ele>
        <time>2022-08-27T04:14:09Z</time>
      </trkpt>
      <trkpt lat="45.76614" lon="6.83852">
        <ele>2516</ele>
        <time>2022-08-27T04:14:11Z</time>
      </trkpt>
      <trkpt lat="45.76614" lon="6.83857">
        <ele>2516</ele>
        <time>2022-08-27T04:14:13Z</time>
      </trkpt>
      <trkpt lat="45.76614" lon="6.83861">
        <ele>2515</ele>
        <time>2022-08-27T04:14:15Z</time>
      </trkpt>
      <trkpt lat="45.76615" lon="6.83866">
        <ele>2515</ele>
        <time>2022-08-27T04:14:17Z</time>
      </trkpt>
      <trkpt lat="45.76615" lon="6.83869">
        <ele>2515</ele>
        <time>2022-08-27T04:14:18Z</time>
      </trkpt>
      <trkpt lat="45.76615" lon="6.83871">
        <ele>2515</ele>
        <time>2022-08-27T04:14:19Z</time>
      </trkpt>
      <trkpt lat="45.76614" lon="6.83876">
        <ele>2515</ele>
        <time>2022-08-27T04:14:21Z</time>
      </trkpt>
      <trkpt lat="45.76612" lon="6.83877">
        <ele>2515</ele>
        <time>2022-08-27T04:14:23Z</time>
      </trkpt>
      <trkpt lat="45.76607" lon="6.83876">
        <ele>2515</ele>
        <time>2022-08-27T04:14:25Z</time>
      </trkpt>
      <trkpt lat="45.76606" lon="6.83876">
        <ele>2514</ele>
        <time>2022-08-27T04:14:26Z</time>
      </trkpt>
      <trkpt lat="45.76605" lon="6.83875">
        <ele>2514</ele>
        <time>2022-08-27T04:14:27Z</time>
      </trkpt>
      <trkpt lat="45.76603" lon="6.83874">
        <ele>2514</ele>
        <time>2022-08-27T04:14:28Z</time>
      </trkpt>
      <trkpt lat="45.76602" lon="6.83872">
        <ele>2514</ele>
        <time>2022-08-27T04:14:29Z</time>
      </trkpt>
      <trkpt lat="45.76599" lon="6.83869">
        <ele>2513</ele>
        <time>2022-08-27T04:14:31Z</time>
      </trkpt>
      <trkpt lat="45.76596" lon="6.83867">
        <ele>2513</ele>
        <time>2022-08-27T04:14:33Z</time>
      </trkpt>
      <trkpt lat="45.76593" lon="6.83865">
        <ele>2512</ele>
        <time>2022-08-27T04:14:35Z</time>
      </trkpt>
      <trkpt lat="45.7659" lon="6.83862">
        <ele>2512</ele>
        <time>2022-08-27T04:14:37Z</time>
      </trkpt>
      <trkpt lat="45.76587" lon="6.83861">
        <ele>2512</ele>
        <time>2022-08-27T04:14:38Z</time>
      </trkpt>
      <trkpt lat="45.76586" lon="6.83861">
        <ele>2511</ele>
        <time>2022-08-27T04:14:39Z</time>
      </trkpt>
      <trkpt lat="45.76584" lon="6.8386">
        <ele>2511</ele>
        <time>2022-08-27T04:14:40Z</time>
      </trkpt>
      <trkpt lat="45.76582" lon="6.8386">
        <ele>2511</ele>
        <time>2022-08-27T04:14:41Z</time>
      </trkpt>
      <trkpt lat="45.76579" lon="6.83858">
        <ele>2511</ele>
        <time>2022-08-27T04:14:43Z</time>
      </trkpt>
      <trkpt lat="45.76576" lon="6.83858">
        <ele>2510</ele>
        <time>2022-08-27T04:14:45Z</time>
      </trkpt>
      <trkpt lat="45.76573" lon="6.83859">
        <ele>2510</ele>
        <time>2022-08-27T04:14:47Z</time>
      </trkpt>
      <trkpt lat="45.7657" lon="6.83858">
        <ele>2508</ele>
        <time>2022-08-27T04:14:49Z</time>
      </trkpt>
      <trkpt lat="45.76568" lon="6.83858">
        <ele>2508</ele>
        <time>2022-08-27T04:14:50Z</time>
      </trkpt>
      <trkpt lat="45.76565" lon="6.83856">
        <ele>2508</ele>
        <time>2022-08-27T04:14:52Z</time>
      </trkpt>
      <trkpt lat="45.76562" lon="6.83855">
        <ele>2508</ele>
        <time>2022-08-27T04:14:54Z</time>
      </trkpt>
      <trkpt lat="45.7656" lon="6.83857">
        <ele>2508</ele>
        <time>2022-08-27T04:14:56Z</time>
      </trkpt>
      <trkpt lat="45.76558" lon="6.83858">
        <ele>2508</ele>
        <time>2022-08-27T04:14:57Z</time>
      </trkpt>
      <trkpt lat="45.76555" lon="6.83858">
        <ele>2508</ele>
        <time>2022-08-27T04:14:59Z</time>
      </trkpt>
      <trkpt lat="45.76553" lon="6.8386">
        <ele>2508</ele>
        <time>2022-08-27T04:15:01Z</time>
      </trkpt>
      <trkpt lat="45.7655" lon="6.83863">
        <ele>2508</ele>
        <time>2022-08-27T04:15:03Z</time>
      </trkpt>
      <trkpt lat="45.76549" lon="6.83865">
        <ele>2508</ele>
        <time>2022-08-27T04:15:04Z</time>
      </trkpt>
      <trkpt lat="45.76548" lon="6.83867">
        <ele>2508</ele>
        <time>2022-08-27T04:15:05Z</time>
      </trkpt>
      <trkpt lat="45.76546" lon="6.83869">
        <ele>2508</ele>
        <time>2022-08-27T04:15:06Z</time>
      </trkpt>
      <trkpt lat="45.76545" lon="6.83872">
        <ele>2508</ele>
        <time>2022-08-27T04:15:07Z</time>
      </trkpt>
      <trkpt lat="45.76544" lon="6.83873">
        <ele>2506</ele>
        <time>2022-08-27T04:15:08Z</time>
      </trkpt>
      <trkpt lat="45.76543" lon="6.83876">
        <ele>2506</ele>
        <time>2022-08-27T04:15:09Z</time>
      </trkpt>
      <trkpt lat="45.76542" lon="6.83878">
        <ele>2506</ele>
        <time>2022-08-27T04:15:10Z</time>
      </trkpt>
      <trkpt lat="45.76541" lon="6.8388">
        <ele>2507</ele>
        <time>2022-08-27T04:15:11Z</time>
      </trkpt>
      <trkpt lat="45.76539" lon="6.83882">
        <ele>2507</ele>
        <time>2022-08-27T04:15:12Z</time>
      </trkpt>
      <trkpt lat="45.76539" lon="6.83884">
        <ele>2507</ele>
        <time>2022-08-27T04:15:13Z</time>
      </trkpt>
      <trkpt lat="45.76537" lon="6.83889">
        <ele>2507</ele>
        <time>2022-08-27T04:15:15Z</time>
      </trkpt>
      <trkpt lat="45.76536" lon="6.83892">
        <ele>2507</ele>
        <time>2022-08-27T04:15:16Z</time>
      </trkpt>
      <trkpt lat="45.76535" lon="6.83895">
        <ele>2507</ele>
        <time>2022-08-27T04:15:17Z</time>
      </trkpt>
      <trkpt lat="45.76535" lon="6.83898">
        <ele>2507</ele>
        <time>2022-08-27T04:15:18Z</time>
      </trkpt>
      <trkpt lat="45.76534" lon="6.83902">
        <ele>2507</ele>
        <time>2022-08-27T04:15:19Z</time>
      </trkpt>
      <trkpt lat="45.76534" lon="6.83903">
        <ele>2507</ele>
        <time>2022-08-27T04:15:20Z</time>
      </trkpt>
      <trkpt lat="45.76533" lon="6.83906">
        <ele>2507</ele>
        <time>2022-08-27T04:15:21Z</time>
      </trkpt>
      <trkpt lat="45.76532" lon="6.83911">
        <ele>2507</ele>
        <time>2022-08-27T04:15:23Z</time>
      </trkpt>
      <trkpt lat="45.76532" lon="6.83916">
        <ele>2507</ele>
        <time>2022-08-27T04:15:25Z</time>
      </trkpt>
      <trkpt lat="45.76531" lon="6.83919">
        <ele>2507</ele>
        <time>2022-08-27T04:15:26Z</time>
      </trkpt>
      <trkpt lat="45.7653" lon="6.83924">
        <ele>2507</ele>
        <time>2022-08-27T04:15:28Z</time>
      </trkpt>
      <trkpt lat="45.7653" lon="6.83926">
        <ele>2507</ele>
        <time>2022-08-27T04:15:29Z</time>
      </trkpt>
      <trkpt lat="45.76529" lon="6.83931">
        <ele>2506</ele>
        <time>2022-08-27T04:15:31Z</time>
      </trkpt>
      <trkpt lat="45.76528" lon="6.83936">
        <ele>2506</ele>
        <time>2022-08-27T04:15:33Z</time>
      </trkpt>
      <trkpt lat="45.76527" lon="6.83942">
        <ele>2506</ele>
        <time>2022-08-27T04:15:35Z</time>
      </trkpt>
      <trkpt lat="45.76527" lon="6.83944">
        <ele>2506</ele>
        <time>2022-08-27T04:15:36Z</time>
      </trkpt>
      <trkpt lat="45.76526" lon="6.83946">
        <ele>2506</ele>
        <time>2022-08-27T04:15:37Z</time>
      </trkpt>
      <trkpt lat="45.76526" lon="6.83947">
        <ele>2506</ele>
        <time>2022-08-27T04:15:38Z</time>
      </trkpt>
      <trkpt lat="45.76526" lon="6.8395">
        <ele>2506</ele>
        <time>2022-08-27T04:15:39Z</time>
      </trkpt>
      <trkpt lat="45.76526" lon="6.83955">
        <ele>2506</ele>
        <time>2022-08-27T04:15:41Z</time>
      </trkpt>
      <trkpt lat="45.76524" lon="6.83961">
        <ele>2506</ele>
        <time>2022-08-27T04:15:43Z</time>
      </trkpt>
      <trkpt lat="45.76524" lon="6.83962">
        <ele>2506</ele>
        <time>2022-08-27T04:15:44Z</time>
      </trkpt>
      <trkpt lat="45.76523" lon="6.83967">
        <ele>2506</ele>
        <time>2022-08-27T04:15:46Z</time>
      </trkpt>
      <trkpt lat="45.76522" lon="6.8397">
        <ele>2506</ele>
        <time>2022-08-27T04:15:47Z</time>
      </trkpt>
      <trkpt lat="45.76522" lon="6.83972">
        <ele>2506</ele>
        <time>2022-08-27T04:15:48Z</time>
      </trkpt>
      <trkpt lat="45.76522" lon="6.83975">
        <ele>2506</ele>
        <time>2022-08-27T04:15:49Z</time>
      </trkpt>
      <trkpt lat="45.76522" lon="6.8398">
        <ele>2506</ele>
        <time>2022-08-27T04:15:51Z</time>
      </trkpt>
      <trkpt lat="45.76521" lon="6.83985">
        <ele>2505</ele>
        <time>2022-08-27T04:15:53Z</time>
      </trkpt>
      <trkpt lat="45.7652" lon="6.8399">
        <ele>2505</ele>
        <time>2022-08-27T04:15:55Z</time>
      </trkpt>
      <trkpt lat="45.7652" lon="6.83994">
        <ele>2505</ele>
        <time>2022-08-27T04:15:57Z</time>
      </trkpt>
      <trkpt lat="45.76518" lon="6.83997">
        <ele>2505</ele>
        <time>2022-08-27T04:15:59Z</time>
      </trkpt>
      <trkpt lat="45.76517" lon="6.84">
        <ele>2505</ele>
        <time>2022-08-27T04:16:00Z</time>
      </trkpt>
      <trkpt lat="45.76515" lon="6.84004">
        <ele>2505</ele>
        <time>2022-08-27T04:16:02Z</time>
      </trkpt>
      <trkpt lat="45.76514" lon="6.84009">
        <ele>2505</ele>
        <time>2022-08-27T04:16:04Z</time>
      </trkpt>
      <trkpt lat="45.76513" lon="6.84011">
        <ele>2505</ele>
        <time>2022-08-27T04:16:05Z</time>
      </trkpt>
      <trkpt lat="45.76512" lon="6.84013">
        <ele>2504</ele>
        <time>2022-08-27T04:16:06Z</time>
      </trkpt>
      <trkpt lat="45.7651" lon="6.84016">
        <ele>2505</ele>
        <time>2022-08-27T04:16:08Z</time>
      </trkpt>
      <trkpt lat="45.76508" lon="6.84021">
        <ele>2505</ele>
        <time>2022-08-27T04:16:10Z</time>
      </trkpt>
      <trkpt lat="45.76506" lon="6.84025">
        <ele>2505</ele>
        <time>2022-08-27T04:16:12Z</time>
      </trkpt>
      <trkpt lat="45.76505" lon="6.8403">
        <ele>2505</ele>
        <time>2022-08-27T04:16:14Z</time>
      </trkpt>
      <trkpt lat="45.76504" lon="6.84035">
        <ele>2505</ele>
        <time>2022-08-27T04:16:16Z</time>
      </trkpt>
      <trkpt lat="45.76503" lon="6.84039">
        <ele>2505</ele>
        <time>2022-08-27T04:16:18Z</time>
      </trkpt>
      <trkpt lat="45.76502" lon="6.84043">
        <ele>2505</ele>
        <time>2022-08-27T04:16:20Z</time>
      </trkpt>
      <trkpt lat="45.765" lon="6.84046">
        <ele>2505</ele>
        <time>2022-08-27T04:16:22Z</time>
      </trkpt>
      <trkpt lat="45.76497" lon="6.84048">
        <ele>2504</ele>
        <time>2022-08-27T04:16:24Z</time>
      </trkpt>
      <trkpt lat="45.76496" lon="6.84051">
        <ele>2504</ele>
        <time>2022-08-27T04:16:26Z</time>
      </trkpt>
      <trkpt lat="45.76495" lon="6.84055">
        <ele>2504</ele>
        <time>2022-08-27T04:16:29Z</time>
      </trkpt>
      <trkpt lat="45.76494" lon="6.84059">
        <ele>2504</ele>
        <time>2022-08-27T04:16:31Z</time>
      </trkpt>
      <trkpt lat="45.76494" lon="6.84064">
        <ele>2504</ele>
        <time>2022-08-27T04:16:33Z</time>
      </trkpt>
      <trkpt lat="45.76494" lon="6.84067">
        <ele>2504</ele>
        <time>2022-08-27T04:16:34Z</time>
      </trkpt>
      <trkpt lat="45.76495" lon="6.84069">
        <ele>2504</ele>
        <time>2022-08-27T04:16:35Z</time>
      </trkpt>
      <trkpt lat="45.76495" lon="6.84071">
        <ele>2504</ele>
        <time>2022-08-27T04:16:36Z</time>
      </trkpt>
      <trkpt lat="45.76495" lon="6.84076">
        <ele>2504</ele>
        <time>2022-08-27T04:16:38Z</time>
      </trkpt>
      <trkpt lat="45.76495" lon="6.8408">
        <ele>2504</ele>
        <time>2022-08-27T04:16:40Z</time>
      </trkpt>
      <trkpt lat="45.76496" lon="6.84085">
        <ele>2504</ele>
        <time>2022-08-27T04:16:42Z</time>
      </trkpt>
      <trkpt lat="45.76499" lon="6.8409">
        <ele>2504</ele>
        <time>2022-08-27T04:16:44Z</time>
      </trkpt>
      <trkpt lat="45.76499" lon="6.84091">
        <ele>2504</ele>
        <time>2022-08-27T04:16:45Z</time>
      </trkpt>
      <trkpt lat="45.76502" lon="6.84093">
        <ele>2503</ele>
        <time>2022-08-27T04:16:47Z</time>
      </trkpt>
      <trkpt lat="45.76503" lon="6.84094">
        <ele>2503</ele>
        <time>2022-08-27T04:16:48Z</time>
      </trkpt>
      <trkpt lat="45.76506" lon="6.84096">
        <ele>2502</ele>
        <time>2022-08-27T04:16:50Z</time>
      </trkpt>
      <trkpt lat="45.76509" lon="6.84099">
        <ele>2502</ele>
        <time>2022-08-27T04:16:52Z</time>
      </trkpt>
      <trkpt lat="45.7651" lon="6.84103">
        <ele>2502</ele>
        <time>2022-08-27T04:16:54Z</time>
      </trkpt>
      <trkpt lat="45.76512" lon="6.84107">
        <ele>2502</ele>
        <time>2022-08-27T04:16:56Z</time>
      </trkpt>
      <trkpt lat="45.76513" lon="6.8411">
        <ele>2501</ele>
        <time>2022-08-27T04:16:58Z</time>
      </trkpt>
      <trkpt lat="45.76515" lon="6.84112">
        <ele>2500</ele>
        <time>2022-08-27T04:17:00Z</time>
      </trkpt>
      <trkpt lat="45.76518" lon="6.84114">
        <ele>2499</ele>
        <time>2022-08-27T04:17:02Z</time>
      </trkpt>
      <trkpt lat="45.76519" lon="6.84116">
        <ele>2499</ele>
        <time>2022-08-27T04:17:03Z</time>
      </trkpt>
      <trkpt lat="45.76519" lon="6.84119">
        <ele>2499</ele>
        <time>2022-08-27T04:17:04Z</time>
      </trkpt>
      <trkpt lat="45.7652" lon="6.84123">
        <ele>2499</ele>
        <time>2022-08-27T04:17:06Z</time>
      </trkpt>
      <trkpt lat="45.76521" lon="6.84129">
        <ele>2499</ele>
        <time>2022-08-27T04:17:08Z</time>
      </trkpt>
      <trkpt lat="45.76521" lon="6.84131">
        <ele>2499</ele>
        <time>2022-08-27T04:17:09Z</time>
      </trkpt>
      <trkpt lat="45.76522" lon="6.84133">
        <ele>2499</ele>
        <time>2022-08-27T04:17:10Z</time>
      </trkpt>
      <trkpt lat="45.76522" lon="6.84135">
        <ele>2499</ele>
        <time>2022-08-27T04:17:11Z</time>
      </trkpt>
      <trkpt lat="45.76523" lon="6.84139">
        <ele>2499</ele>
        <time>2022-08-27T04:17:12Z</time>
      </trkpt>
      <trkpt lat="45.76523" lon="6.8414">
        <ele>2498</ele>
        <time>2022-08-27T04:17:13Z</time>
      </trkpt>
      <trkpt lat="45.76524" lon="6.84143">
        <ele>2498</ele>
        <time>2022-08-27T04:17:14Z</time>
      </trkpt>
      <trkpt lat="45.76524" lon="6.84146">
        <ele>2498</ele>
        <time>2022-08-27T04:17:15Z</time>
      </trkpt>
      <trkpt lat="45.76525" lon="6.84148">
        <ele>2498</ele>
        <time>2022-08-27T04:17:16Z</time>
      </trkpt>
      <trkpt lat="45.76527" lon="6.84154">
        <ele>2498</ele>
        <time>2022-08-27T04:17:18Z</time>
      </trkpt>
      <trkpt lat="45.76528" lon="6.84155">
        <ele>2496</ele>
        <time>2022-08-27T04:17:19Z</time>
      </trkpt>
      <trkpt lat="45.76529" lon="6.84159">
        <ele>2496</ele>
        <time>2022-08-27T04:17:21Z</time>
      </trkpt>
      <trkpt lat="45.7653" lon="6.84164">
        <ele>2495</ele>
        <time>2022-08-27T04:17:23Z</time>
      </trkpt>
      <trkpt lat="45.76531" lon="6.84166">
        <ele>2495</ele>
        <time>2022-08-27T04:17:24Z</time>
      </trkpt>
      <trkpt lat="45.76533" lon="6.8417">
        <ele>2494</ele>
        <time>2022-08-27T04:17:26Z</time>
      </trkpt>
      <trkpt lat="45.76534" lon="6.84173">
        <ele>2494</ele>
        <time>2022-08-27T04:17:27Z</time>
      </trkpt>
      <trkpt lat="45.76535" lon="6.84177">
        <ele>2493</ele>
        <time>2022-08-27T04:17:29Z</time>
      </trkpt>
      <trkpt lat="45.76536" lon="6.84179">
        <ele>2493</ele>
        <time>2022-08-27T04:17:30Z</time>
      </trkpt>
      <trkpt lat="45.76537" lon="6.84182">
        <ele>2493</ele>
        <time>2022-08-27T04:17:31Z</time>
      </trkpt>
      <trkpt lat="45.76538" lon="6.84184">
        <ele>2493</ele>
        <time>2022-08-27T04:17:32Z</time>
      </trkpt>
      <trkpt lat="45.76539" lon="6.84187">
        <ele>2493</ele>
        <time>2022-08-27T04:17:33Z</time>
      </trkpt>
      <trkpt lat="45.76539" lon="6.84189">
        <ele>2493</ele>
        <time>2022-08-27T04:17:34Z</time>
      </trkpt>
      <trkpt lat="45.7654" lon="6.84192">
        <ele>2492</ele>
        <time>2022-08-27T04:17:35Z</time>
      </trkpt>
      <trkpt lat="45.7654" lon="6.84195">
        <ele>2492</ele>
        <time>2022-08-27T04:17:36Z</time>
      </trkpt>
      <trkpt lat="45.76541" lon="6.84197">
        <ele>2492</ele>
        <time>2022-08-27T04:17:37Z</time>
      </trkpt>
      <trkpt lat="45.76541" lon="6.842">
        <ele>2492</ele>
        <time>2022-08-27T04:17:38Z</time>
      </trkpt>
      <trkpt lat="45.76542" lon="6.84203">
        <ele>2492</ele>
        <time>2022-08-27T04:17:39Z</time>
      </trkpt>
      <trkpt lat="45.76542" lon="6.84206">
        <ele>2491</ele>
        <time>2022-08-27T04:17:40Z</time>
      </trkpt>
      <trkpt lat="45.76542" lon="6.8421">
        <ele>2491</ele>
        <time>2022-08-27T04:17:41Z</time>
      </trkpt>
      <trkpt lat="45.76542" lon="6.84211">
        <ele>2491</ele>
        <time>2022-08-27T04:17:42Z</time>
      </trkpt>
      <trkpt lat="45.76542" lon="6.84216">
        <ele>2491</ele>
        <time>2022-08-27T04:17:44Z</time>
      </trkpt>
      <trkpt lat="45.76541" lon="6.84221">
        <ele>2491</ele>
        <time>2022-08-27T04:17:46Z</time>
      </trkpt>
      <trkpt lat="45.7654" lon="6.84226">
        <ele>2489</ele>
        <time>2022-08-27T04:17:48Z</time>
      </trkpt>
      <trkpt lat="45.76539" lon="6.84228">
        <ele>2489</ele>
        <time>2022-08-27T04:17:49Z</time>
      </trkpt>
      <trkpt lat="45.76537" lon="6.84229">
        <ele>2489</ele>
        <time>2022-08-27T04:17:50Z</time>
      </trkpt>
      <trkpt lat="45.76536" lon="6.84231">
        <ele>2489</ele>
        <time>2022-08-27T04:17:51Z</time>
      </trkpt>
      <trkpt lat="45.76535" lon="6.84232">
        <ele>2489</ele>
        <time>2022-08-27T04:17:52Z</time>
      </trkpt>
      <trkpt lat="45.76533" lon="6.84234">
        <ele>2489</ele>
        <time>2022-08-27T04:17:53Z</time>
      </trkpt>
      <trkpt lat="45.76532" lon="6.84236">
        <ele>2489</ele>
        <time>2022-08-27T04:17:54Z</time>
      </trkpt>
      <trkpt lat="45.7653" lon="6.84237">
        <ele>2489</ele>
        <time>2022-08-27T04:17:55Z</time>
      </trkpt>
      <trkpt lat="45.76528" lon="6.84241">
        <ele>2489</ele>
        <time>2022-08-27T04:17:57Z</time>
      </trkpt>
      <trkpt lat="45.76526" lon="6.84245">
        <ele>2489</ele>
        <time>2022-08-27T04:17:59Z</time>
      </trkpt>
      <trkpt lat="45.76523" lon="6.84248">
        <ele>2489</ele>
        <time>2022-08-27T04:18:01Z</time>
      </trkpt>
      <trkpt lat="45.76521" lon="6.84252">
        <ele>2488</ele>
        <time>2022-08-27T04:18:03Z</time>
      </trkpt>
      <trkpt lat="45.76519" lon="6.84254">
        <ele>2488</ele>
        <time>2022-08-27T04:18:04Z</time>
      </trkpt>
      <trkpt lat="45.76518" lon="6.84256">
        <ele>2487</ele>
        <time>2022-08-27T04:18:05Z</time>
      </trkpt>
      <trkpt lat="45.76516" lon="6.8426">
        <ele>2487</ele>
        <time>2022-08-27T04:18:07Z</time>
      </trkpt>
      <trkpt lat="45.76515" lon="6.84262">
        <ele>2487</ele>
        <time>2022-08-27T04:18:08Z</time>
      </trkpt>
      <trkpt lat="45.76513" lon="6.84264">
        <ele>2487</ele>
        <time>2022-08-27T04:18:09Z</time>
      </trkpt>
      <trkpt lat="45.76512" lon="6.84267">
        <ele>2486</ele>
        <time>2022-08-27T04:18:10Z</time>
      </trkpt>
      <trkpt lat="45.7651" lon="6.84271">
        <ele>2486</ele>
        <time>2022-08-27T04:18:12Z</time>
      </trkpt>
      <trkpt lat="45.76508" lon="6.84274">
        <ele>2484</ele>
        <time>2022-08-27T04:18:14Z</time>
      </trkpt>
      <trkpt lat="45.76507" lon="6.84276">
        <ele>2483</ele>
        <time>2022-08-27T04:18:15Z</time>
      </trkpt>
      <trkpt lat="45.76506" lon="6.84279">
        <ele>2483</ele>
        <time>2022-08-27T04:18:16Z</time>
      </trkpt>
      <trkpt lat="45.76505" lon="6.84281">
        <ele>2483</ele>
        <time>2022-08-27T04:18:17Z</time>
      </trkpt>
      <trkpt lat="45.76503" lon="6.84285">
        <ele>2482</ele>
        <time>2022-08-27T04:18:19Z</time>
      </trkpt>
      <trkpt lat="45.76502" lon="6.8429">
        <ele>2481</ele>
        <time>2022-08-27T04:18:21Z</time>
      </trkpt>
      <trkpt lat="45.76502" lon="6.84294">
        <ele>2481</ele>
        <time>2022-08-27T04:18:23Z</time>
      </trkpt>
      <trkpt lat="45.76503" lon="6.84298">
        <ele>2480</ele>
        <time>2022-08-27T04:18:25Z</time>
      </trkpt>
      <trkpt lat="45.76504" lon="6.84302">
        <ele>2480</ele>
        <time>2022-08-27T04:18:27Z</time>
      </trkpt>
      <trkpt lat="45.76505" lon="6.84306">
        <ele>2480</ele>
        <time>2022-08-27T04:18:29Z</time>
      </trkpt>
      <trkpt lat="45.76506" lon="6.8431">
        <ele>2479</ele>
        <time>2022-08-27T04:18:31Z</time>
      </trkpt>
      <trkpt lat="45.76506" lon="6.84313">
        <ele>2479</ele>
        <time>2022-08-27T04:18:33Z</time>
      </trkpt>
      <trkpt lat="45.76508" lon="6.84316">
        <ele>2478</ele>
        <time>2022-08-27T04:18:35Z</time>
      </trkpt>
      <trkpt lat="45.76509" lon="6.84319">
        <ele>2478</ele>
        <time>2022-08-27T04:18:37Z</time>
      </trkpt>
      <trkpt lat="45.7651" lon="6.84323">
        <ele>2477</ele>
        <time>2022-08-27T04:18:39Z</time>
      </trkpt>
      <trkpt lat="45.76511" lon="6.84327">
        <ele>2476</ele>
        <time>2022-08-27T04:18:41Z</time>
      </trkpt>
      <trkpt lat="45.76513" lon="6.84331">
        <ele>2475</ele>
        <time>2022-08-27T04:18:43Z</time>
      </trkpt>
      <trkpt lat="45.76514" lon="6.84334">
        <ele>2475</ele>
        <time>2022-08-27T04:18:45Z</time>
      </trkpt>
      <trkpt lat="45.76515" lon="6.84338">
        <ele>2472</ele>
        <time>2022-08-27T04:18:47Z</time>
      </trkpt>
      <trkpt lat="45.76516" lon="6.84341">
        <ele>2471</ele>
        <time>2022-08-27T04:18:49Z</time>
      </trkpt>
      <trkpt lat="45.76516" lon="6.84344">
        <ele>2471</ele>
        <time>2022-08-27T04:18:51Z</time>
      </trkpt>
      <trkpt lat="45.76517" lon="6.84347">
        <ele>2470</ele>
        <time>2022-08-27T04:18:53Z</time>
      </trkpt>
      <trkpt lat="45.76519" lon="6.8435">
        <ele>2470</ele>
        <time>2022-08-27T04:18:56Z</time>
      </trkpt>
      <trkpt lat="45.76519" lon="6.84352">
        <ele>2469</ele>
        <time>2022-08-27T04:19:02Z</time>
      </trkpt>
      <trkpt lat="45.7652" lon="6.84355">
        <ele>2469</ele>
        <time>2022-08-27T04:19:04Z</time>
      </trkpt>
      <trkpt lat="45.76522" lon="6.84357">
        <ele>2469</ele>
        <time>2022-08-27T04:19:07Z</time>
      </trkpt>
      <trkpt lat="45.76522" lon="6.84357">
        <ele>2468</ele>
        <time>2022-08-27T04:19:28Z</time>
      </trkpt>
      <trkpt lat="45.76523" lon="6.84358">
        <ele>2468</ele>
        <time>2022-08-27T04:19:47Z</time>
      </trkpt>
      <trkpt lat="45.76524" lon="6.84361">
        <ele>2468</ele>
        <time>2022-08-27T04:19:50Z</time>
      </trkpt>
      <trkpt lat="45.76524" lon="6.84361">
        <ele>2468</ele>
        <time>2022-08-27T04:20:07Z</time>
      </trkpt>
      <trkpt lat="45.76525" lon="6.84364">
        <ele>2467</ele>
        <time>2022-08-27T04:20:18Z</time>
      </trkpt>
      <trkpt lat="45.76526" lon="6.84367">
        <ele>2467</ele>
        <time>2022-08-27T04:20:21Z</time>
      </trkpt>
      <trkpt lat="45.76527" lon="6.84371">
        <ele>2466</ele>
        <time>2022-08-27T04:20:23Z</time>
      </trkpt>
      <trkpt lat="45.76529" lon="6.84374">
        <ele>2466</ele>
        <time>2022-08-27T04:20:25Z</time>
      </trkpt>
      <trkpt lat="45.7653" lon="6.84377">
        <ele>2466</ele>
        <time>2022-08-27T04:20:27Z</time>
      </trkpt>
      <trkpt lat="45.76532" lon="6.84381">
        <ele>2463</ele>
        <time>2022-08-27T04:20:29Z</time>
      </trkpt>
      <trkpt lat="45.76534" lon="6.84384">
        <ele>2462</ele>
        <time>2022-08-27T04:20:31Z</time>
      </trkpt>
      <trkpt lat="45.76535" lon="6.84388">
        <ele>2462</ele>
        <time>2022-08-27T04:20:33Z</time>
      </trkpt>
      <trkpt lat="45.76537" lon="6.84392">
        <ele>2461</ele>
        <time>2022-08-27T04:20:35Z</time>
      </trkpt>
      <trkpt lat="45.76538" lon="6.84394">
        <ele>2461</ele>
        <time>2022-08-27T04:20:36Z</time>
      </trkpt>
      <trkpt lat="45.76539" lon="6.84396">
        <ele>2461</ele>
        <time>2022-08-27T04:20:37Z</time>
      </trkpt>
      <trkpt lat="45.76541" lon="6.84399">
        <ele>2460</ele>
        <time>2022-08-27T04:20:39Z</time>
      </trkpt>
      <trkpt lat="45.76543" lon="6.84402">
        <ele>2459</ele>
        <time>2022-08-27T04:20:41Z</time>
      </trkpt>
      <trkpt lat="45.76545" lon="6.84405">
        <ele>2458</ele>
        <time>2022-08-27T04:20:43Z</time>
      </trkpt>
      <trkpt lat="45.76547" lon="6.84408">
        <ele>2457</ele>
        <time>2022-08-27T04:20:45Z</time>
      </trkpt>
      <trkpt lat="45.76549" lon="6.84411">
        <ele>2457</ele>
        <time>2022-08-27T04:20:47Z</time>
      </trkpt>
      <trkpt lat="45.76552" lon="6.84414">
        <ele>2456</ele>
        <time>2022-08-27T04:20:49Z</time>
      </trkpt>
      <trkpt lat="45.76554" lon="6.84417">
        <ele>2454</ele>
        <time>2022-08-27T04:20:51Z</time>
      </trkpt>
      <trkpt lat="45.76555" lon="6.84419">
        <ele>2453</ele>
        <time>2022-08-27T04:20:52Z</time>
      </trkpt>
      <trkpt lat="45.76557" lon="6.84424">
        <ele>2453</ele>
        <time>2022-08-27T04:20:54Z</time>
      </trkpt>
      <trkpt lat="45.76559" lon="6.84427">
        <ele>2451</ele>
        <time>2022-08-27T04:20:56Z</time>
      </trkpt>
      <trkpt lat="45.76562" lon="6.8443">
        <ele>2451</ele>
        <time>2022-08-27T04:20:58Z</time>
      </trkpt>
      <trkpt lat="45.76563" lon="6.84431">
        <ele>2451</ele>
        <time>2022-08-27T04:20:59Z</time>
      </trkpt>
      <trkpt lat="45.76564" lon="6.84433">
        <ele>2451</ele>
        <time>2022-08-27T04:21:00Z</time>
      </trkpt>
      <trkpt lat="45.76566" lon="6.84434">
        <ele>2450</ele>
        <time>2022-08-27T04:21:01Z</time>
      </trkpt>
      <trkpt lat="45.76567" lon="6.84435">
        <ele>2449</ele>
        <time>2022-08-27T04:21:02Z</time>
      </trkpt>
      <trkpt lat="45.76569" lon="6.84439">
        <ele>2448</ele>
        <time>2022-08-27T04:21:04Z</time>
      </trkpt>
      <trkpt lat="45.76572" lon="6.84442">
        <ele>2448</ele>
        <time>2022-08-27T04:21:06Z</time>
      </trkpt>
      <trkpt lat="45.76574" lon="6.84446">
        <ele>2447</ele>
        <time>2022-08-27T04:21:08Z</time>
      </trkpt>
      <trkpt lat="45.76576" lon="6.84449">
        <ele>2445</ele>
        <time>2022-08-27T04:21:10Z</time>
      </trkpt>
      <trkpt lat="45.76579" lon="6.84451">
        <ele>2444</ele>
        <time>2022-08-27T04:21:12Z</time>
      </trkpt>
      <trkpt lat="45.76581" lon="6.84455">
        <ele>2443</ele>
        <time>2022-08-27T04:21:14Z</time>
      </trkpt>
      <trkpt lat="45.76583" lon="6.84456">
        <ele>2443</ele>
        <time>2022-08-27T04:21:15Z</time>
      </trkpt>
      <trkpt lat="45.76585" lon="6.8446">
        <ele>2442</ele>
        <time>2022-08-27T04:21:17Z</time>
      </trkpt>
      <trkpt lat="45.76586" lon="6.84462">
        <ele>2441</ele>
        <time>2022-08-27T04:21:18Z</time>
      </trkpt>
      <trkpt lat="45.76588" lon="6.84466">
        <ele>2441</ele>
        <time>2022-08-27T04:21:20Z</time>
      </trkpt>
      <trkpt lat="45.7659" lon="6.8447">
        <ele>2440</ele>
        <time>2022-08-27T04:21:22Z</time>
      </trkpt>
      <trkpt lat="45.76591" lon="6.84472">
        <ele>2439</ele>
        <time>2022-08-27T04:21:23Z</time>
      </trkpt>
      <trkpt lat="45.76592" lon="6.84474">
        <ele>2439</ele>
        <time>2022-08-27T04:21:24Z</time>
      </trkpt>
      <trkpt lat="45.76594" lon="6.84476">
        <ele>2439</ele>
        <time>2022-08-27T04:21:25Z</time>
      </trkpt>
      <trkpt lat="45.76595" lon="6.84478">
        <ele>2438</ele>
        <time>2022-08-27T04:21:26Z</time>
      </trkpt>
      <trkpt lat="45.76597" lon="6.84482">
        <ele>2436</ele>
        <time>2022-08-27T04:21:28Z</time>
      </trkpt>
      <trkpt lat="45.76598" lon="6.84486">
        <ele>2436</ele>
        <time>2022-08-27T04:21:30Z</time>
      </trkpt>
      <trkpt lat="45.766" lon="6.84489">
        <ele>2435</ele>
        <time>2022-08-27T04:21:32Z</time>
      </trkpt>
      <trkpt lat="45.76602" lon="6.84491">
        <ele>2435</ele>
        <time>2022-08-27T04:21:33Z</time>
      </trkpt>
      <trkpt lat="45.76604" lon="6.84495">
        <ele>2434</ele>
        <time>2022-08-27T04:21:35Z</time>
      </trkpt>
      <trkpt lat="45.76606" lon="6.84498">
        <ele>2433</ele>
        <time>2022-08-27T04:21:37Z</time>
      </trkpt>
      <trkpt lat="45.76608" lon="6.84502">
        <ele>2432</ele>
        <time>2022-08-27T04:21:39Z</time>
      </trkpt>
      <trkpt lat="45.76611" lon="6.84506">
        <ele>2432</ele>
        <time>2022-08-27T04:21:41Z</time>
      </trkpt>
      <trkpt lat="45.76612" lon="6.84508">
        <ele>2431</ele>
        <time>2022-08-27T04:21:42Z</time>
      </trkpt>
      <trkpt lat="45.76613" lon="6.8451">
        <ele>2431</ele>
        <time>2022-08-27T04:21:43Z</time>
      </trkpt>
      <trkpt lat="45.76614" lon="6.84512">
        <ele>2430</ele>
        <time>2022-08-27T04:21:44Z</time>
      </trkpt>
      <trkpt lat="45.76616" lon="6.84515">
        <ele>2430</ele>
        <time>2022-08-27T04:21:45Z</time>
      </trkpt>
      <trkpt lat="45.76617" lon="6.84517">
        <ele>2430</ele>
        <time>2022-08-27T04:21:46Z</time>
      </trkpt>
      <trkpt lat="45.76618" lon="6.84522">
        <ele>2427</ele>
        <time>2022-08-27T04:21:48Z</time>
      </trkpt>
      <trkpt lat="45.76619" lon="6.84526">
        <ele>2426</ele>
        <time>2022-08-27T04:21:50Z</time>
      </trkpt>
      <trkpt lat="45.76621" lon="6.84531">
        <ele>2425</ele>
        <time>2022-08-27T04:21:52Z</time>
      </trkpt>
      <trkpt lat="45.76622" lon="6.84535">
        <ele>2424</ele>
        <time>2022-08-27T04:21:54Z</time>
      </trkpt>
      <trkpt lat="45.76624" lon="6.84539">
        <ele>2424</ele>
        <time>2022-08-27T04:21:56Z</time>
      </trkpt>
      <trkpt lat="45.76625" lon="6.84545">
        <ele>2423</ele>
        <time>2022-08-27T04:21:58Z</time>
      </trkpt>
      <trkpt lat="45.76625" lon="6.84546">
        <ele>2423</ele>
        <time>2022-08-27T04:21:59Z</time>
      </trkpt>
      <trkpt lat="45.76627" lon="6.84551">
        <ele>2421</ele>
        <time>2022-08-27T04:22:01Z</time>
      </trkpt>
      <trkpt lat="45.76627" lon="6.84555">
        <ele>2421</ele>
        <time>2022-08-27T04:22:03Z</time>
      </trkpt>
      <trkpt lat="45.76629" lon="6.8456">
        <ele>2420</ele>
        <time>2022-08-27T04:22:05Z</time>
      </trkpt>
      <trkpt lat="45.76631" lon="6.84565">
        <ele>2419</ele>
        <time>2022-08-27T04:22:07Z</time>
      </trkpt>
      <trkpt lat="45.76631" lon="6.84567">
        <ele>2418</ele>
        <time>2022-08-27T04:22:08Z</time>
      </trkpt>
      <trkpt lat="45.76632" lon="6.8457">
        <ele>2418</ele>
        <time>2022-08-27T04:22:09Z</time>
      </trkpt>
      <trkpt lat="45.76633" lon="6.84572">
        <ele>2418</ele>
        <time>2022-08-27T04:22:10Z</time>
      </trkpt>
      <trkpt lat="45.76634" lon="6.84576">
        <ele>2417</ele>
        <time>2022-08-27T04:22:12Z</time>
      </trkpt>
      <trkpt lat="45.76636" lon="6.84579">
        <ele>2415</ele>
        <time>2022-08-27T04:22:14Z</time>
      </trkpt>
      <trkpt lat="45.76638" lon="6.84583">
        <ele>2415</ele>
        <time>2022-08-27T04:22:16Z</time>
      </trkpt>
      <trkpt lat="45.76639" lon="6.84585">
        <ele>2414</ele>
        <time>2022-08-27T04:22:17Z</time>
      </trkpt>
      <trkpt lat="45.76641" lon="6.84589">
        <ele>2413</ele>
        <time>2022-08-27T04:22:19Z</time>
      </trkpt>
      <trkpt lat="45.76643" lon="6.84592">
        <ele>2412</ele>
        <time>2022-08-27T04:22:21Z</time>
      </trkpt>
      <trkpt lat="45.76645" lon="6.84596">
        <ele>2412</ele>
        <time>2022-08-27T04:22:23Z</time>
      </trkpt>
      <trkpt lat="45.76647" lon="6.846">
        <ele>2411</ele>
        <time>2022-08-27T04:22:25Z</time>
      </trkpt>
      <trkpt lat="45.76649" lon="6.84604">
        <ele>2410</ele>
        <time>2022-08-27T04:22:27Z</time>
      </trkpt>
      <trkpt lat="45.76652" lon="6.84607">
        <ele>2408</ele>
        <time>2022-08-27T04:22:29Z</time>
      </trkpt>
      <trkpt lat="45.76654" lon="6.84611">
        <ele>2407</ele>
        <time>2022-08-27T04:22:31Z</time>
      </trkpt>
      <trkpt lat="45.76655" lon="6.84615">
        <ele>2406</ele>
        <time>2022-08-27T04:22:33Z</time>
      </trkpt>
      <trkpt lat="45.76657" lon="6.84618">
        <ele>2405</ele>
        <time>2022-08-27T04:22:35Z</time>
      </trkpt>
      <trkpt lat="45.76659" lon="6.84622">
        <ele>2405</ele>
        <time>2022-08-27T04:22:37Z</time>
      </trkpt>
      <trkpt lat="45.76661" lon="6.84625">
        <ele>2404</ele>
        <time>2022-08-27T04:22:39Z</time>
      </trkpt>
      <trkpt lat="45.76663" lon="6.84629">
        <ele>2404</ele>
        <time>2022-08-27T04:22:41Z</time>
      </trkpt>
      <trkpt lat="45.76665" lon="6.84632">
        <ele>2402</ele>
        <time>2022-08-27T04:22:43Z</time>
      </trkpt>
      <trkpt lat="45.76667" lon="6.84635">
        <ele>2401</ele>
        <time>2022-08-27T04:22:45Z</time>
      </trkpt>
      <trkpt lat="45.76669" lon="6.84639">
        <ele>2399</ele>
        <time>2022-08-27T04:22:47Z</time>
      </trkpt>
      <trkpt lat="45.7667" lon="6.84642">
        <ele>2399</ele>
        <time>2022-08-27T04:22:49Z</time>
      </trkpt>
      <trkpt lat="45.76672" lon="6.84646">
        <ele>2398</ele>
        <time>2022-08-27T04:22:51Z</time>
      </trkpt>
      <trkpt lat="45.76676" lon="6.8465">
        <ele>2397</ele>
        <time>2022-08-27T04:22:53Z</time>
      </trkpt>
      <trkpt lat="45.76677" lon="6.84651">
        <ele>2397</ele>
        <time>2022-08-27T04:22:54Z</time>
      </trkpt>
      <trkpt lat="45.76678" lon="6.84652">
        <ele>2396</ele>
        <time>2022-08-27T04:22:55Z</time>
      </trkpt>
      <trkpt lat="45.7668" lon="6.84653">
        <ele>2395</ele>
        <time>2022-08-27T04:22:56Z</time>
      </trkpt>
      <trkpt lat="45.76681" lon="6.84658">
        <ele>2395</ele>
        <time>2022-08-27T04:22:58Z</time>
      </trkpt>
      <trkpt lat="45.76683" lon="6.84661">
        <ele>2394</ele>
        <time>2022-08-27T04:23:00Z</time>
      </trkpt>
      <trkpt lat="45.76684" lon="6.84666">
        <ele>2393</ele>
        <time>2022-08-27T04:23:02Z</time>
      </trkpt>
      <trkpt lat="45.76685" lon="6.8467">
        <ele>2392</ele>
        <time>2022-08-27T04:23:04Z</time>
      </trkpt>
      <trkpt lat="45.76686" lon="6.84674">
        <ele>2391</ele>
        <time>2022-08-27T04:23:06Z</time>
      </trkpt>
      <trkpt lat="45.76687" lon="6.84677">
        <ele>2390</ele>
        <time>2022-08-27T04:23:07Z</time>
      </trkpt>
      <trkpt lat="45.76688" lon="6.84681">
        <ele>2390</ele>
        <time>2022-08-27T04:23:09Z</time>
      </trkpt>
      <trkpt lat="45.7669" lon="6.84685">
        <ele>2389</ele>
        <time>2022-08-27T04:23:11Z</time>
      </trkpt>
      <trkpt lat="45.76691" lon="6.84689">
        <ele>2388</ele>
        <time>2022-08-27T04:23:13Z</time>
      </trkpt>
      <trkpt lat="45.76692" lon="6.84693">
        <ele>2388</ele>
        <time>2022-08-27T04:23:15Z</time>
      </trkpt>
      <trkpt lat="45.76693" lon="6.84695">
        <ele>2387</ele>
        <time>2022-08-27T04:23:17Z</time>
      </trkpt>
      <trkpt lat="45.76695" lon="6.84698">
        <ele>2387</ele>
        <time>2022-08-27T04:23:19Z</time>
      </trkpt>
      <trkpt lat="45.76697" lon="6.84701">
        <ele>2386</ele>
        <time>2022-08-27T04:23:21Z</time>
      </trkpt>
      <trkpt lat="45.76699" lon="6.84704">
        <ele>2386</ele>
        <time>2022-08-27T04:23:23Z</time>
      </trkpt>
      <trkpt lat="45.76701" lon="6.84707">
        <ele>2385</ele>
        <time>2022-08-27T04:23:25Z</time>
      </trkpt>
      <trkpt lat="45.76703" lon="6.8471">
        <ele>2384</ele>
        <time>2022-08-27T04:23:27Z</time>
      </trkpt>
      <trkpt lat="45.76704" lon="6.84714">
        <ele>2383</ele>
        <time>2022-08-27T04:23:29Z</time>
      </trkpt>
      <trkpt lat="45.76705" lon="6.84718">
        <ele>2382</ele>
        <time>2022-08-27T04:23:31Z</time>
      </trkpt>
      <trkpt lat="45.76706" lon="6.8472">
        <ele>2382</ele>
        <time>2022-08-27T04:23:33Z</time>
      </trkpt>
      <trkpt lat="45.76708" lon="6.84723">
        <ele>2381</ele>
        <time>2022-08-27T04:23:36Z</time>
      </trkpt>
      <trkpt lat="45.76709" lon="6.84727">
        <ele>2381</ele>
        <time>2022-08-27T04:23:38Z</time>
      </trkpt>
      <trkpt lat="45.76709" lon="6.84731">
        <ele>2380</ele>
        <time>2022-08-27T04:23:40Z</time>
      </trkpt>
      <trkpt lat="45.7671" lon="6.84735">
        <ele>2379</ele>
        <time>2022-08-27T04:23:42Z</time>
      </trkpt>
      <trkpt lat="45.76711" lon="6.84739">
        <ele>2378</ele>
        <time>2022-08-27T04:23:44Z</time>
      </trkpt>
      <trkpt lat="45.76712" lon="6.84741">
        <ele>2378</ele>
        <time>2022-08-27T04:23:45Z</time>
      </trkpt>
      <trkpt lat="45.76714" lon="6.84745">
        <ele>2376</ele>
        <time>2022-08-27T04:23:47Z</time>
      </trkpt>
      <trkpt lat="45.76715" lon="6.84748">
        <ele>2375</ele>
        <time>2022-08-27T04:23:49Z</time>
      </trkpt>
      <trkpt lat="45.76717" lon="6.84751">
        <ele>2374</ele>
        <time>2022-08-27T04:23:51Z</time>
      </trkpt>
      <trkpt lat="45.76719" lon="6.84755">
        <ele>2373</ele>
        <time>2022-08-27T04:23:53Z</time>
      </trkpt>
      <trkpt lat="45.7672" lon="6.84759">
        <ele>2373</ele>
        <time>2022-08-27T04:23:55Z</time>
      </trkpt>
      <trkpt lat="45.76722" lon="6.84763">
        <ele>2372</ele>
        <time>2022-08-27T04:23:57Z</time>
      </trkpt>
      <trkpt lat="45.76724" lon="6.84766">
        <ele>2370</ele>
        <time>2022-08-27T04:23:59Z</time>
      </trkpt>
      <trkpt lat="45.76726" lon="6.84768">
        <ele>2369</ele>
        <time>2022-08-27T04:24:01Z</time>
      </trkpt>
      <trkpt lat="45.76728" lon="6.84772">
        <ele>2368</ele>
        <time>2022-08-27T04:24:03Z</time>
      </trkpt>
      <trkpt lat="45.76731" lon="6.84775">
        <ele>2368</ele>
        <time>2022-08-27T04:24:05Z</time>
      </trkpt>
      <trkpt lat="45.76732" lon="6.84779">
        <ele>2368</ele>
        <time>2022-08-27T04:24:07Z</time>
      </trkpt>
      <trkpt lat="45.76734" lon="6.84782">
        <ele>2367</ele>
        <time>2022-08-27T04:24:09Z</time>
      </trkpt>
      <trkpt lat="45.76736" lon="6.84785">
        <ele>2366</ele>
        <time>2022-08-27T04:24:11Z</time>
      </trkpt>
      <trkpt lat="45.76737" lon="6.84788">
        <ele>2366</ele>
        <time>2022-08-27T04:24:12Z</time>
      </trkpt>
      <trkpt lat="45.76737" lon="6.8479">
        <ele>2365</ele>
        <time>2022-08-27T04:24:13Z</time>
      </trkpt>
      <trkpt lat="45.76738" lon="6.848">
        <ele>2364</ele>
        <time>2022-08-27T04:24:17Z</time>
      </trkpt>
      <trkpt lat="45.76739" lon="6.84804">
        <ele>2363</ele>
        <time>2022-08-27T04:24:19Z</time>
      </trkpt>
      <trkpt lat="45.7674" lon="6.84807">
        <ele>2362</ele>
        <time>2022-08-27T04:24:21Z</time>
      </trkpt>
      <trkpt lat="45.76741" lon="6.84811">
        <ele>2362</ele>
        <time>2022-08-27T04:24:23Z</time>
      </trkpt>
      <trkpt lat="45.76742" lon="6.84815">
        <ele>2362</ele>
        <time>2022-08-27T04:24:25Z</time>
      </trkpt>
      <trkpt lat="45.76744" lon="6.84819">
        <ele>2360</ele>
        <time>2022-08-27T04:24:27Z</time>
      </trkpt>
      <trkpt lat="45.76744" lon="6.84823">
        <ele>2359</ele>
        <time>2022-08-27T04:24:28Z</time>
      </trkpt>
      <trkpt lat="45.76745" lon="6.84826">
        <ele>2359</ele>
        <time>2022-08-27T04:24:29Z</time>
      </trkpt>
      <trkpt lat="45.76746" lon="6.8483">
        <ele>2359</ele>
        <time>2022-08-27T04:24:30Z</time>
      </trkpt>
      <trkpt lat="45.76746" lon="6.84831">
        <ele>2359</ele>
        <time>2022-08-27T04:24:31Z</time>
      </trkpt>
      <trkpt lat="45.76747" lon="6.84834">
        <ele>2358</ele>
        <time>2022-08-27T04:24:32Z</time>
      </trkpt>
      <trkpt lat="45.76748" lon="6.84836">
        <ele>2358</ele>
        <time>2022-08-27T04:24:33Z</time>
      </trkpt>
      <trkpt lat="45.76749" lon="6.84838">
        <ele>2358</ele>
        <time>2022-08-27T04:24:34Z</time>
      </trkpt>
      <trkpt lat="45.7675" lon="6.84839">
        <ele>2357</ele>
        <time>2022-08-27T04:24:36Z</time>
      </trkpt>
      <trkpt lat="45.76751" lon="6.84841">
        <ele>2357</ele>
        <time>2022-08-27T04:24:37Z</time>
      </trkpt>
      <trkpt lat="45.76752" lon="6.84842">
        <ele>2357</ele>
        <time>2022-08-27T04:24:38Z</time>
      </trkpt>
      <trkpt lat="45.76755" lon="6.84845">
        <ele>2356</ele>
        <time>2022-08-27T04:24:40Z</time>
      </trkpt>
      <trkpt lat="45.76756" lon="6.84847">
        <ele>2355</ele>
        <time>2022-08-27T04:24:42Z</time>
      </trkpt>
      <trkpt lat="45.76758" lon="6.84848">
        <ele>2355</ele>
        <time>2022-08-27T04:24:44Z</time>
      </trkpt>
      <trkpt lat="45.76761" lon="6.84849">
        <ele>2354</ele>
        <time>2022-08-27T04:24:47Z</time>
      </trkpt>
      <trkpt lat="45.76763" lon="6.84849">
        <ele>2353</ele>
        <time>2022-08-27T04:24:49Z</time>
      </trkpt>
      <trkpt lat="45.76766" lon="6.8485">
        <ele>2352</ele>
        <time>2022-08-27T04:24:51Z</time>
      </trkpt>
      <trkpt lat="45.7677" lon="6.84851">
        <ele>2350</ele>
        <time>2022-08-27T04:24:53Z</time>
      </trkpt>
      <trkpt lat="45.76772" lon="6.84852">
        <ele>2350</ele>
        <time>2022-08-27T04:24:55Z</time>
      </trkpt>
      <trkpt lat="45.76774" lon="6.84855">
        <ele>2348</ele>
        <time>2022-08-27T04:24:57Z</time>
      </trkpt>
      <trkpt lat="45.76777" lon="6.84857">
        <ele>2349</ele>
        <time>2022-08-27T04:24:59Z</time>
      </trkpt>
      <trkpt lat="45.76779" lon="6.84859">
        <ele>2348</ele>
        <time>2022-08-27T04:25:01Z</time>
      </trkpt>
      <trkpt lat="45.76782" lon="6.84862">
        <ele>2348</ele>
        <time>2022-08-27T04:25:03Z</time>
      </trkpt>
      <trkpt lat="45.76784" lon="6.84865">
        <ele>2347</ele>
        <time>2022-08-27T04:25:05Z</time>
      </trkpt>
      <trkpt lat="45.76785" lon="6.84868">
        <ele>2347</ele>
        <time>2022-08-27T04:25:07Z</time>
      </trkpt>
      <trkpt lat="45.76786" lon="6.84872">
        <ele>2346</ele>
        <time>2022-08-27T04:25:09Z</time>
      </trkpt>
      <trkpt lat="45.76787" lon="6.84876">
        <ele>2345</ele>
        <time>2022-08-27T04:25:11Z</time>
      </trkpt>
      <trkpt lat="45.76789" lon="6.84878">
        <ele>2345</ele>
        <time>2022-08-27T04:25:12Z</time>
      </trkpt>
      <trkpt lat="45.7679" lon="6.8488">
        <ele>2345</ele>
        <time>2022-08-27T04:25:13Z</time>
      </trkpt>
      <trkpt lat="45.76791" lon="6.84883">
        <ele>2345</ele>
        <time>2022-08-27T04:25:14Z</time>
      </trkpt>
      <trkpt lat="45.76791" lon="6.84886">
        <ele>2345</ele>
        <time>2022-08-27T04:25:15Z</time>
      </trkpt>
      <trkpt lat="45.76792" lon="6.84889">
        <ele>2344</ele>
        <time>2022-08-27T04:25:16Z</time>
      </trkpt>
      <trkpt lat="45.76792" lon="6.84891">
        <ele>2344</ele>
        <time>2022-08-27T04:25:17Z</time>
      </trkpt>
      <trkpt lat="45.76793" lon="6.84894">
        <ele>2344</ele>
        <time>2022-08-27T04:25:18Z</time>
      </trkpt>
      <trkpt lat="45.76794" lon="6.84897">
        <ele>2344</ele>
        <time>2022-08-27T04:25:19Z</time>
      </trkpt>
      <trkpt lat="45.76795" lon="6.84899">
        <ele>2343</ele>
        <time>2022-08-27T04:25:20Z</time>
      </trkpt>
      <trkpt lat="45.76795" lon="6.84902">
        <ele>2342</ele>
        <time>2022-08-27T04:25:21Z</time>
      </trkpt>
      <trkpt lat="45.76795" lon="6.84904">
        <ele>2342</ele>
        <time>2022-08-27T04:25:22Z</time>
      </trkpt>
      <trkpt lat="45.76796" lon="6.84907">
        <ele>2342</ele>
        <time>2022-08-27T04:25:23Z</time>
      </trkpt>
      <trkpt lat="45.76796" lon="6.8491">
        <ele>2342</ele>
        <time>2022-08-27T04:25:24Z</time>
      </trkpt>
      <trkpt lat="45.76797" lon="6.84912">
        <ele>2342</ele>
        <time>2022-08-27T04:25:25Z</time>
      </trkpt>
      <trkpt lat="45.76798" lon="6.84915">
        <ele>2341</ele>
        <time>2022-08-27T04:25:26Z</time>
      </trkpt>
      <trkpt lat="45.768" lon="6.84918">
        <ele>2341</ele>
        <time>2022-08-27T04:25:27Z</time>
      </trkpt>
      <trkpt lat="45.76801" lon="6.84921">
        <ele>2341</ele>
        <time>2022-08-27T04:25:28Z</time>
      </trkpt>
      <trkpt lat="45.76802" lon="6.84923">
        <ele>2340</ele>
        <time>2022-08-27T04:25:29Z</time>
      </trkpt>
      <trkpt lat="45.76803" lon="6.84925">
        <ele>2340</ele>
        <time>2022-08-27T04:25:30Z</time>
      </trkpt>
      <trkpt lat="45.76804" lon="6.84927">
        <ele>2340</ele>
        <time>2022-08-27T04:25:31Z</time>
      </trkpt>
      <trkpt lat="45.76807" lon="6.8493">
        <ele>2340</ele>
        <time>2022-08-27T04:25:33Z</time>
      </trkpt>
      <trkpt lat="45.7681" lon="6.84934">
        <ele>2339</ele>
        <time>2022-08-27T04:25:35Z</time>
      </trkpt>
      <trkpt lat="45.76812" lon="6.84937">
        <ele>2339</ele>
        <time>2022-08-27T04:25:37Z</time>
      </trkpt>
      <trkpt lat="45.76814" lon="6.84939">
        <ele>2339</ele>
        <time>2022-08-27T04:25:39Z</time>
      </trkpt>
      <trkpt lat="45.76814" lon="6.84942">
        <ele>2339</ele>
        <time>2022-08-27T04:25:41Z</time>
      </trkpt>
      <trkpt lat="45.76816" lon="6.84944">
        <ele>2339</ele>
        <time>2022-08-27T04:25:43Z</time>
      </trkpt>
      <trkpt lat="45.76818" lon="6.84947">
        <ele>2338</ele>
        <time>2022-08-27T04:25:45Z</time>
      </trkpt>
      <trkpt lat="45.7682" lon="6.8495">
        <ele>2338</ele>
        <time>2022-08-27T04:25:47Z</time>
      </trkpt>
      <trkpt lat="45.76822" lon="6.84952">
        <ele>2338</ele>
        <time>2022-08-27T04:25:48Z</time>
      </trkpt>
      <trkpt lat="45.76823" lon="6.84954">
        <ele>2338</ele>
        <time>2022-08-27T04:25:49Z</time>
      </trkpt>
      <trkpt lat="45.76824" lon="6.84957">
        <ele>2338</ele>
        <time>2022-08-27T04:25:50Z</time>
      </trkpt>
      <trkpt lat="45.76826" lon="6.84961">
        <ele>2338</ele>
        <time>2022-08-27T04:25:51Z</time>
      </trkpt>
      <trkpt lat="45.76827" lon="6.84962">
        <ele>2338</ele>
        <time>2022-08-27T04:25:52Z</time>
      </trkpt>
      <trkpt lat="45.76829" lon="6.84965">
        <ele>2338</ele>
        <time>2022-08-27T04:25:53Z</time>
      </trkpt>
      <trkpt lat="45.7683" lon="6.84967">
        <ele>2338</ele>
        <time>2022-08-27T04:25:54Z</time>
      </trkpt>
      <trkpt lat="45.7683" lon="6.8497">
        <ele>2338</ele>
        <time>2022-08-27T04:25:55Z</time>
      </trkpt>
      <trkpt lat="45.76831" lon="6.84972">
        <ele>2338</ele>
        <time>2022-08-27T04:25:56Z</time>
      </trkpt>
      <trkpt lat="45.76832" lon="6.84975">
        <ele>2338</ele>
        <time>2022-08-27T04:25:57Z</time>
      </trkpt>
      <trkpt lat="45.76833" lon="6.84978">
        <ele>2338</ele>
        <time>2022-08-27T04:25:58Z</time>
      </trkpt>
      <trkpt lat="45.76834" lon="6.84981">
        <ele>2338</ele>
        <time>2022-08-27T04:25:59Z</time>
      </trkpt>
      <trkpt lat="45.76834" lon="6.84985">
        <ele>2338</ele>
        <time>2022-08-27T04:26:00Z</time>
      </trkpt>
      <trkpt lat="45.76835" lon="6.84987">
        <ele>2338</ele>
        <time>2022-08-27T04:26:01Z</time>
      </trkpt>
      <trkpt lat="45.76836" lon="6.8499">
        <ele>2338</ele>
        <time>2022-08-27T04:26:02Z</time>
      </trkpt>
      <trkpt lat="45.76837" lon="6.84993">
        <ele>2338</ele>
        <time>2022-08-27T04:26:03Z</time>
      </trkpt>
      <trkpt lat="45.76838" lon="6.84996">
        <ele>2338</ele>
        <time>2022-08-27T04:26:04Z</time>
      </trkpt>
      <trkpt lat="45.76839" lon="6.84999">
        <ele>2338</ele>
        <time>2022-08-27T04:26:05Z</time>
      </trkpt>
      <trkpt lat="45.7684" lon="6.85002">
        <ele>2338</ele>
        <time>2022-08-27T04:26:06Z</time>
      </trkpt>
      <trkpt lat="45.7684" lon="6.85005">
        <ele>2338</ele>
        <time>2022-08-27T04:26:07Z</time>
      </trkpt>
      <trkpt lat="45.76842" lon="6.85008">
        <ele>2338</ele>
        <time>2022-08-27T04:26:08Z</time>
      </trkpt>
      <trkpt lat="45.76842" lon="6.85011">
        <ele>2338</ele>
        <time>2022-08-27T04:26:09Z</time>
      </trkpt>
      <trkpt lat="45.76843" lon="6.85015">
        <ele>2338</ele>
        <time>2022-08-27T04:26:10Z</time>
      </trkpt>
      <trkpt lat="45.76844" lon="6.85017">
        <ele>2338</ele>
        <time>2022-08-27T04:26:11Z</time>
      </trkpt>
      <trkpt lat="45.76845" lon="6.85021">
        <ele>2338</ele>
        <time>2022-08-27T04:26:12Z</time>
      </trkpt>
      <trkpt lat="45.76845" lon="6.85023">
        <ele>2337</ele>
        <time>2022-08-27T04:26:13Z</time>
      </trkpt>
      <trkpt lat="45.76846" lon="6.85026">
        <ele>2337</ele>
        <time>2022-08-27T04:26:14Z</time>
      </trkpt>
      <trkpt lat="45.76847" lon="6.85029">
        <ele>2337</ele>
        <time>2022-08-27T04:26:15Z</time>
      </trkpt>
      <trkpt lat="45.76848" lon="6.85032">
        <ele>2337</ele>
        <time>2022-08-27T04:26:16Z</time>
      </trkpt>
      <trkpt lat="45.76849" lon="6.85034">
        <ele>2337</ele>
        <time>2022-08-27T04:26:17Z</time>
      </trkpt>
      <trkpt lat="45.7685" lon="6.85037">
        <ele>2337</ele>
        <time>2022-08-27T04:26:18Z</time>
      </trkpt>
      <trkpt lat="45.76851" lon="6.8504">
        <ele>2337</ele>
        <time>2022-08-27T04:26:19Z</time>
      </trkpt>
      <trkpt lat="45.76852" lon="6.85042">
        <ele>2337</ele>
        <time>2022-08-27T04:26:20Z</time>
      </trkpt>
      <trkpt lat="45.76854" lon="6.85046">
        <ele>2337</ele>
        <time>2022-08-27T04:26:21Z</time>
      </trkpt>
      <trkpt lat="45.76854" lon="6.85047">
        <ele>2336</ele>
        <time>2022-08-27T04:26:22Z</time>
      </trkpt>
      <trkpt lat="45.76856" lon="6.8505">
        <ele>2336</ele>
        <time>2022-08-27T04:26:23Z</time>
      </trkpt>
      <trkpt lat="45.76857" lon="6.85052">
        <ele>2336</ele>
        <time>2022-08-27T04:26:24Z</time>
      </trkpt>
      <trkpt lat="45.76858" lon="6.85054">
        <ele>2336</ele>
        <time>2022-08-27T04:26:25Z</time>
      </trkpt>
      <trkpt lat="45.76859" lon="6.85057">
        <ele>2336</ele>
        <time>2022-08-27T04:26:26Z</time>
      </trkpt>
      <trkpt lat="45.76861" lon="6.85059">
        <ele>2336</ele>
        <time>2022-08-27T04:26:27Z</time>
      </trkpt>
      <trkpt lat="45.76862" lon="6.85062">
        <ele>2336</ele>
        <time>2022-08-27T04:26:28Z</time>
      </trkpt>
      <trkpt lat="45.76863" lon="6.85064">
        <ele>2336</ele>
        <time>2022-08-27T04:26:29Z</time>
      </trkpt>
      <trkpt lat="45.76864" lon="6.85067">
        <ele>2335</ele>
        <time>2022-08-27T04:26:30Z</time>
      </trkpt>
      <trkpt lat="45.76866" lon="6.85069">
        <ele>2335</ele>
        <time>2022-08-27T04:26:31Z</time>
      </trkpt>
      <trkpt lat="45.76867" lon="6.85072">
        <ele>2335</ele>
        <time>2022-08-27T04:26:32Z</time>
      </trkpt>
      <trkpt lat="45.76869" lon="6.85076">
        <ele>2335</ele>
        <time>2022-08-27T04:26:33Z</time>
      </trkpt>
      <trkpt lat="45.7687" lon="6.85077">
        <ele>2335</ele>
        <time>2022-08-27T04:26:34Z</time>
      </trkpt>
      <trkpt lat="45.76871" lon="6.8508">
        <ele>2335</ele>
        <time>2022-08-27T04:26:35Z</time>
      </trkpt>
      <trkpt lat="45.76872" lon="6.85082">
        <ele>2335</ele>
        <time>2022-08-27T04:26:36Z</time>
      </trkpt>
      <trkpt lat="45.76874" lon="6.85086">
        <ele>2335</ele>
        <time>2022-08-27T04:26:38Z</time>
      </trkpt>
      <trkpt lat="45.76875" lon="6.85091">
        <ele>2335</ele>
        <time>2022-08-27T04:26:40Z</time>
      </trkpt>
      <trkpt lat="45.76877" lon="6.85095">
        <ele>2335</ele>
        <time>2022-08-27T04:26:42Z</time>
      </trkpt>
      <trkpt lat="45.76878" lon="6.85099">
        <ele>2335</ele>
        <time>2022-08-27T04:26:44Z</time>
      </trkpt>
      <trkpt lat="45.7688" lon="6.85102">
        <ele>2335</ele>
        <time>2022-08-27T04:26:46Z</time>
      </trkpt>
      <trkpt lat="45.76882" lon="6.85105">
        <ele>2335</ele>
        <time>2022-08-27T04:26:48Z</time>
      </trkpt>
      <trkpt lat="45.76884" lon="6.85109">
        <ele>2334</ele>
        <time>2022-08-27T04:26:50Z</time>
      </trkpt>
      <trkpt lat="45.76886" lon="6.85112">
        <ele>2334</ele>
        <time>2022-08-27T04:26:52Z</time>
      </trkpt>
      <trkpt lat="45.76888" lon="6.85117">
        <ele>2334</ele>
        <time>2022-08-27T04:26:54Z</time>
      </trkpt>
      <trkpt lat="45.7689" lon="6.8512">
        <ele>2334</ele>
        <time>2022-08-27T04:26:56Z</time>
      </trkpt>
      <trkpt lat="45.76891" lon="6.85124">
        <ele>2334</ele>
        <time>2022-08-27T04:26:58Z</time>
      </trkpt>
      <trkpt lat="45.76892" lon="6.85127">
        <ele>2334</ele>
        <time>2022-08-27T04:27:00Z</time>
      </trkpt>
      <trkpt lat="45.76892" lon="6.8513">
        <ele>2334</ele>
        <time>2022-08-27T04:27:02Z</time>
      </trkpt>
      <trkpt lat="45.76892" lon="6.85133">
        <ele>2334</ele>
        <time>2022-08-27T04:27:04Z</time>
      </trkpt>
      <trkpt lat="45.76891" lon="6.85136">
        <ele>2334</ele>
        <time>2022-08-27T04:27:07Z</time>
      </trkpt>
      <trkpt lat="45.7689" lon="6.85138">
        <ele>2334</ele>
        <time>2022-08-27T04:27:09Z</time>
      </trkpt>
      <trkpt lat="45.76888" lon="6.8514">
        <ele>2333</ele>
        <time>2022-08-27T04:27:12Z</time>
      </trkpt>
      <trkpt lat="45.76885" lon="6.85141">
        <ele>2333</ele>
        <time>2022-08-27T04:27:15Z</time>
      </trkpt>
      <trkpt lat="45.76883" lon="6.85141">
        <ele>2333</ele>
        <time>2022-08-27T04:27:23Z</time>
      </trkpt>
      <trkpt lat="45.76883" lon="6.85138">
        <ele>2333</ele>
        <time>2022-08-27T04:27:30Z</time>
      </trkpt>
      <trkpt lat="45.76883" lon="6.85138">
        <ele>2333</ele>
        <time>2022-08-27T04:27:46Z</time>
      </trkpt>
      <trkpt lat="45.76882" lon="6.85141">
        <ele>2332</ele>
        <time>2022-08-27T04:27:58Z</time>
      </trkpt>
      <trkpt lat="45.76881" lon="6.85144">
        <ele>2332</ele>
        <time>2022-08-27T04:28:01Z</time>
      </trkpt>
      <trkpt lat="45.76881" lon="6.85146">
        <ele>2332</ele>
        <time>2022-08-27T04:28:05Z</time>
      </trkpt>
      <trkpt lat="45.76881" lon="6.85146">
        <ele>2332</ele>
        <time>2022-08-27T04:28:19Z</time>
      </trkpt>
      <trkpt lat="45.76881" lon="6.85146">
        <ele>2332</ele>
        <time>2022-08-27T04:28:37Z</time>
      </trkpt>
      <trkpt lat="45.76881" lon="6.85146">
        <ele>2332</ele>
        <time>2022-08-27T04:28:55Z</time>
      </trkpt>
      <trkpt lat="45.76881" lon="6.85146">
        <ele>2332</ele>
        <time>2022-08-27T04:29:12Z</time>
      </trkpt>
      <trkpt lat="45.76881" lon="6.85146">
        <ele>2333</ele>
        <time>2022-08-27T04:29:29Z</time>
      </trkpt>
      <trkpt lat="45.7688" lon="6.85144">
        <ele>2333</ele>
        <time>2022-08-27T04:29:32Z</time>
      </trkpt>
      <trkpt lat="45.76878" lon="6.85143">
        <ele>2333</ele>
        <time>2022-08-27T04:29:37Z</time>
      </trkpt>
      <trkpt lat="45.76877" lon="6.85141">
        <ele>2333</ele>
        <time>2022-08-27T04:29:41Z</time>
      </trkpt>
      <trkpt lat="45.76877" lon="6.85141">
        <ele>2333</ele>
        <time>2022-08-27T04:29:55Z</time>
      </trkpt>
      <trkpt lat="45.76877" lon="6.85141">
        <ele>2333</ele>
        <time>2022-08-27T04:30:12Z</time>
      </trkpt>
      <trkpt lat="45.76877" lon="6.85141">
        <ele>2333</ele>
        <time>2022-08-27T04:30:29Z</time>
      </trkpt>
      <trkpt lat="45.76877" lon="6.85141">
        <ele>2333</ele>
        <time>2022-08-27T04:30:46Z</time>
      </trkpt>
      <trkpt lat="45.76879" lon="6.85143">
        <ele>2333</ele>
        <time>2022-08-27T04:30:49Z</time>
      </trkpt>
      <trkpt lat="45.7688" lon="6.85145">
        <ele>2333</ele>
        <time>2022-08-27T04:30:53Z</time>
      </trkpt>
      <trkpt lat="45.7688" lon="6.85145">
        <ele>2333</ele>
        <time>2022-08-27T04:31:09Z</time>
      </trkpt>
      <trkpt lat="45.7688" lon="6.85145">
        <ele>2332</ele>
        <time>2022-08-27T04:31:26Z</time>
      </trkpt>
      <trkpt lat="45.7688" lon="6.85145">
        <ele>2333</ele>
        <time>2022-08-27T04:31:45Z</time>
      </trkpt>
      <trkpt lat="45.7688" lon="6.85145">
        <ele>2333</ele>
        <time>2022-08-27T04:32:03Z</time>
      </trkpt>
      <trkpt lat="45.7688" lon="6.85145">
        <ele>2333</ele>
        <time>2022-08-27T04:32:21Z</time>
      </trkpt>
      <trkpt lat="45.7688" lon="6.85145">
        <ele>2334</ele>
        <time>2022-08-27T04:32:40Z</time>
      </trkpt>
      <trkpt lat="45.7688" lon="6.85145">
        <ele>2334</ele>
        <time>2022-08-27T04:32:58Z</time>
      </trkpt>
      <trkpt lat="45.7688" lon="6.85145">
        <ele>2334</ele>
        <time>2022-08-27T04:33:15Z</time>
      </trkpt>
      <trkpt lat="45.7688" lon="6.85145">
        <ele>2334</ele>
        <time>2022-08-27T04:33:32Z</time>
      </trkpt>
      <trkpt lat="45.7688" lon="6.85145">
        <ele>2334</ele>
        <time>2022-08-27T04:33:49Z</time>
      </trkpt>
      <trkpt lat="45.7688" lon="6.85145">
        <ele>2334</ele>
        <time>2022-08-27T04:34:06Z</time>
      </trkpt>
      <trkpt lat="45.7688" lon="6.85145">
        <ele>2334</ele>
        <time>2022-08-27T04:34:26Z</time>
      </trkpt>
      <trkpt lat="45.7688" lon="6.85145">
        <ele>2333</ele>
        <time>2022-08-27T04:34:44Z</time>
      </trkpt>
      <trkpt lat="45.7688" lon="6.85145">
        <ele>2334</ele>
        <time>2022-08-27T04:35:04Z</time>
      </trkpt>
      <trkpt lat="45.7688" lon="6.85145">
        <ele>2334</ele>
        <time>2022-08-27T04:35:26Z</time>
      </trkpt>
      <trkpt lat="45.7688" lon="6.85145">
        <ele>2335</ele>
        <time>2022-08-27T04:35:43Z</time>
      </trkpt>
      <trkpt lat="45.7688" lon="6.85145">
        <ele>2334</ele>
        <time>2022-08-27T04:36:04Z</time>
      </trkpt>
      <trkpt lat="45.7688" lon="6.85145">
        <ele>2334</ele>
        <time>2022-08-27T04:36:24Z</time>
      </trkpt>
      <trkpt lat="45.7688" lon="6.85145">
        <ele>2334</ele>
        <time>2022-08-27T04:36:44Z</time>
      </trkpt>
      <trkpt lat="45.7688" lon="6.85145">
        <ele>2334</ele>
        <time>2022-08-27T04:37:02Z</time>
      </trkpt>
      <trkpt lat="45.7688" lon="6.85145">
        <ele>2334</ele>
        <time>2022-08-27T04:37:19Z</time>
      </trkpt>
      <trkpt lat="45.7688" lon="6.85145">
        <ele>2334</ele>
        <time>2022-08-27T04:37:38Z</time>
      </trkpt>
      <trkpt lat="45.7688" lon="6.85145">
        <ele>2334</ele>
        <time>2022-08-27T04:37:58Z</time>
      </trkpt>
      <trkpt lat="45.7688" lon="6.85145">
        <ele>2334</ele>
        <time>2022-08-27T04:38:17Z</time>
      </trkpt>
      <trkpt lat="45.7688" lon="6.85145">
        <ele>2334</ele>
        <time>2022-08-27T04:38:37Z</time>
      </trkpt>
      <trkpt lat="45.76879" lon="6.85143">
        <ele>2334</ele>
        <time>2022-08-27T04:38:52Z</time>
      </trkpt>
      <trkpt lat="45.76881" lon="6.85141">
        <ele>2335</ele>
        <time>2022-08-27T04:38:58Z</time>
      </trkpt>
      <trkpt lat="45.76883" lon="6.85139">
        <ele>2334</ele>
        <time>2022-08-27T04:39:02Z</time>
      </trkpt>
      <trkpt lat="45.76883" lon="6.85139">
        <ele>2334</ele>
        <time>2022-08-27T04:39:12Z</time>
      </trkpt>
      <trkpt lat="45.76883" lon="6.85139">
        <ele>2334</ele>
        <time>2022-08-27T04:39:33Z</time>
      </trkpt>
      <trkpt lat="45.76883" lon="6.85139">
        <ele>2334</ele>
        <time>2022-08-27T04:39:52Z</time>
      </trkpt>
      <trkpt lat="45.76884" lon="6.85138">
        <ele>2334</ele>
        <time>2022-08-27T04:39:53Z</time>
      </trkpt>
      <trkpt lat="45.76887" lon="6.8514">
        <ele>2334</ele>
        <time>2022-08-27T04:39:55Z</time>
      </trkpt>
      <trkpt lat="45.76887" lon="6.85142">
        <ele>2334</ele>
        <time>2022-08-27T04:39:57Z</time>
      </trkpt>
      <trkpt lat="45.76887" lon="6.85142">
        <ele>2334</ele>
        <time>2022-08-27T04:40:15Z</time>
      </trkpt>
      <trkpt lat="45.76887" lon="6.85142">
        <ele>2334</ele>
        <time>2022-08-27T04:40:32Z</time>
      </trkpt>
      <trkpt lat="45.76889" lon="6.85144">
        <ele>2334</ele>
        <time>2022-08-27T04:40:43Z</time>
      </trkpt>
      <trkpt lat="45.76889" lon="6.85144">
        <ele>2334</ele>
        <time>2022-08-27T04:40:52Z</time>
      </trkpt>
      <trkpt lat="45.76889" lon="6.85144">
        <ele>2334</ele>
        <time>2022-08-27T04:41:10Z</time>
      </trkpt>
      <trkpt lat="45.76889" lon="6.85147">
        <ele>2334</ele>
        <time>2022-08-27T04:41:17Z</time>
      </trkpt>
      <trkpt lat="45.76889" lon="6.85147">
        <ele>2334</ele>
        <time>2022-08-27T04:41:33Z</time>
      </trkpt>
      <trkpt lat="45.76888" lon="6.85145">
        <ele>2334</ele>
        <time>2022-08-27T04:41:50Z</time>
      </trkpt>
      <trkpt lat="45.76888" lon="6.85145">
        <ele>2334</ele>
        <time>2022-08-27T04:41:51Z</time>
      </trkpt>
      <trkpt lat="45.76895" lon="6.85136">
        <ele>2334</ele>
        <time>2022-08-27T04:42:03Z</time>
      </trkpt>
      <trkpt lat="45.76896" lon="6.85137">
        <ele>2334</ele>
        <time>2022-08-27T04:42:05Z</time>
      </trkpt>
      <trkpt lat="45.76897" lon="6.85137">
        <ele>2334</ele>
        <time>2022-08-27T04:42:06Z</time>
      </trkpt>
      <trkpt lat="45.76898" lon="6.85138">
        <ele>2334</ele>
        <time>2022-08-27T04:42:07Z</time>
      </trkpt>
      <trkpt lat="45.76899" lon="6.85139">
        <ele>2334</ele>
        <time>2022-08-27T04:42:08Z</time>
      </trkpt>
      <trkpt lat="45.769" lon="6.8514">
        <ele>2334</ele>
        <time>2022-08-27T04:42:09Z</time>
      </trkpt>
      <trkpt lat="45.76901" lon="6.8514">
        <ele>2334</ele>
        <time>2022-08-27T04:42:10Z</time>
      </trkpt>
      <trkpt lat="45.76903" lon="6.85141">
        <ele>2334</ele>
        <time>2022-08-27T04:42:11Z</time>
      </trkpt>
      <trkpt lat="45.76904" lon="6.85142">
        <ele>2334</ele>
        <time>2022-08-27T04:42:12Z</time>
      </trkpt>
      <trkpt lat="45.76905" lon="6.85143">
        <ele>2334</ele>
        <time>2022-08-27T04:42:13Z</time>
      </trkpt>
      <trkpt lat="45.76906" lon="6.85144">
        <ele>2334</ele>
        <time>2022-08-27T04:42:14Z</time>
      </trkpt>
      <trkpt lat="45.76907" lon="6.85145">
        <ele>2334</ele>
        <time>2022-08-27T04:42:15Z</time>
      </trkpt>
      <trkpt lat="45.76909" lon="6.85147">
        <ele>2334</ele>
        <time>2022-08-27T04:42:16Z</time>
      </trkpt>
      <trkpt lat="45.76911" lon="6.85149">
        <ele>2334</ele>
        <time>2022-08-27T04:42:18Z</time>
      </trkpt>
      <trkpt lat="45.76912" lon="6.85151">
        <ele>2334</ele>
        <time>2022-08-27T04:42:20Z</time>
      </trkpt>
      <trkpt lat="45.76913" lon="6.85153">
        <ele>2334</ele>
        <time>2022-08-27T04:42:21Z</time>
      </trkpt>
      <trkpt lat="45.76914" lon="6.85155">
        <ele>2334</ele>
        <time>2022-08-27T04:42:22Z</time>
      </trkpt>
      <trkpt lat="45.76915" lon="6.85157">
        <ele>2334</ele>
        <time>2022-08-27T04:42:24Z</time>
      </trkpt>
      <trkpt lat="45.76915" lon="6.85158">
        <ele>2334</ele>
        <time>2022-08-27T04:42:25Z</time>
      </trkpt>
      <trkpt lat="45.76916" lon="6.85159">
        <ele>2334</ele>
        <time>2022-08-27T04:42:26Z</time>
      </trkpt>
      <trkpt lat="45.76917" lon="6.8516">
        <ele>2334</ele>
        <time>2022-08-27T04:42:27Z</time>
      </trkpt>
      <trkpt lat="45.76917" lon="6.85161">
        <ele>2334</ele>
        <time>2022-08-27T04:42:28Z</time>
      </trkpt>
      <trkpt lat="45.76918" lon="6.85162">
        <ele>2334</ele>
        <time>2022-08-27T04:42:29Z</time>
      </trkpt>
      <trkpt lat="45.76919" lon="6.85165">
        <ele>2334</ele>
        <time>2022-08-27T04:42:30Z</time>
      </trkpt>
      <trkpt lat="45.7692" lon="6.85167">
        <ele>2334</ele>
        <time>2022-08-27T04:42:32Z</time>
      </trkpt>
      <trkpt lat="45.76922" lon="6.8517">
        <ele>2334</ele>
        <time>2022-08-27T04:42:34Z</time>
      </trkpt>
      <trkpt lat="45.76923" lon="6.85171">
        <ele>2334</ele>
        <time>2022-08-27T04:42:35Z</time>
      </trkpt>
      <trkpt lat="45.76924" lon="6.85173">
        <ele>2334</ele>
        <time>2022-08-27T04:42:36Z</time>
      </trkpt>
      <trkpt lat="45.76925" lon="6.85175">
        <ele>2334</ele>
        <time>2022-08-27T04:42:38Z</time>
      </trkpt>
      <trkpt lat="45.76926" lon="6.85177">
        <ele>2334</ele>
        <time>2022-08-27T04:42:39Z</time>
      </trkpt>
      <trkpt lat="45.76926" lon="6.85178">
        <ele>2334</ele>
        <time>2022-08-27T04:42:40Z</time>
      </trkpt>
      <trkpt lat="45.76929" lon="6.85182">
        <ele>2334</ele>
        <time>2022-08-27T04:42:43Z</time>
      </trkpt>
      <trkpt lat="45.76931" lon="6.85185">
        <ele>2334</ele>
        <time>2022-08-27T04:42:46Z</time>
      </trkpt>
      <trkpt lat="45.76933" lon="6.85188">
        <ele>2334</ele>
        <time>2022-08-27T04:42:48Z</time>
      </trkpt>
      <trkpt lat="45.76934" lon="6.8519">
        <ele>2334</ele>
        <time>2022-08-27T04:42:51Z</time>
      </trkpt>
      <trkpt lat="45.76935" lon="6.85193">
        <ele>2334</ele>
        <time>2022-08-27T04:42:52Z</time>
      </trkpt>
      <trkpt lat="45.76935" lon="6.85195">
        <ele>2334</ele>
        <time>2022-08-27T04:42:54Z</time>
      </trkpt>
      <trkpt lat="45.76936" lon="6.85197">
        <ele>2334</ele>
        <time>2022-08-27T04:42:55Z</time>
      </trkpt>
      <trkpt lat="45.76937" lon="6.852">
        <ele>2334</ele>
        <time>2022-08-27T04:42:56Z</time>
      </trkpt>
      <trkpt lat="45.76939" lon="6.85204">
        <ele>2334</ele>
        <time>2022-08-27T04:42:59Z</time>
      </trkpt>
      <trkpt lat="45.76941" lon="6.85206">
        <ele>2334</ele>
        <time>2022-08-27T04:43:01Z</time>
      </trkpt>
      <trkpt lat="45.76943" lon="6.8521">
        <ele>2334</ele>
        <time>2022-08-27T04:43:04Z</time>
      </trkpt>
      <trkpt lat="45.76944" lon="6.85213">
        <ele>2334</ele>
        <time>2022-08-27T04:43:06Z</time>
      </trkpt>
      <trkpt lat="45.76946" lon="6.85215">
        <ele>2334</ele>
        <time>2022-08-27T04:43:08Z</time>
      </trkpt>
      <trkpt lat="45.76947" lon="6.85216">
        <ele>2334</ele>
        <time>2022-08-27T04:43:10Z</time>
      </trkpt>
      <trkpt lat="45.76949" lon="6.85218">
        <ele>2334</ele>
        <time>2022-08-27T04:43:12Z</time>
      </trkpt>
      <trkpt lat="45.76951" lon="6.8522">
        <ele>2334</ele>
        <time>2022-08-27T04:43:14Z</time>
      </trkpt>
      <trkpt lat="45.76952" lon="6.85224">
        <ele>2334</ele>
        <time>2022-08-27T04:43:16Z</time>
      </trkpt>
      <trkpt lat="45.76953" lon="6.85227">
        <ele>2334</ele>
        <time>2022-08-27T04:43:18Z</time>
      </trkpt>
      <trkpt lat="45.76953" lon="6.8523">
        <ele>2334</ele>
        <time>2022-08-27T04:43:20Z</time>
      </trkpt>
      <trkpt lat="45.76954" lon="6.85234">
        <ele>2334</ele>
        <time>2022-08-27T04:43:22Z</time>
      </trkpt>
      <trkpt lat="45.76955" lon="6.85238">
        <ele>2334</ele>
        <time>2022-08-27T04:43:24Z</time>
      </trkpt>
      <trkpt lat="45.76955" lon="6.85241">
        <ele>2334</ele>
        <time>2022-08-27T04:43:26Z</time>
      </trkpt>
      <trkpt lat="45.76956" lon="6.85244">
        <ele>2334</ele>
        <time>2022-08-27T04:43:28Z</time>
      </trkpt>
      <trkpt lat="45.76957" lon="6.85247">
        <ele>2334</ele>
        <time>2022-08-27T04:43:30Z</time>
      </trkpt>
      <trkpt lat="45.76958" lon="6.85249">
        <ele>2334</ele>
        <time>2022-08-27T04:43:32Z</time>
      </trkpt>
      <trkpt lat="45.76962" lon="6.85261">
        <ele>2334</ele>
        <time>2022-08-27T04:43:40Z</time>
      </trkpt>
      <trkpt lat="45.76963" lon="6.85264">
        <ele>2334</ele>
        <time>2022-08-27T04:43:45Z</time>
      </trkpt>
      <trkpt lat="45.76963" lon="6.85264">
        <ele>2334</ele>
        <time>2022-08-27T04:43:52Z</time>
      </trkpt>
      <trkpt lat="45.76965" lon="6.85267">
        <ele>2334</ele>
        <time>2022-08-27T04:44:02Z</time>
      </trkpt>
      <trkpt lat="45.76966" lon="6.8527">
        <ele>2334</ele>
        <time>2022-08-27T04:44:04Z</time>
      </trkpt>
      <trkpt lat="45.76967" lon="6.85273">
        <ele>2334</ele>
        <time>2022-08-27T04:44:06Z</time>
      </trkpt>
      <trkpt lat="45.76967" lon="6.85277">
        <ele>2334</ele>
        <time>2022-08-27T04:44:08Z</time>
      </trkpt>
      <trkpt lat="45.76968" lon="6.8528">
        <ele>2334</ele>
        <time>2022-08-27T04:44:10Z</time>
      </trkpt>
      <trkpt lat="45.76968" lon="6.85284">
        <ele>2334</ele>
        <time>2022-08-27T04:44:12Z</time>
      </trkpt>
      <trkpt lat="45.76969" lon="6.85287">
        <ele>2334</ele>
        <time>2022-08-27T04:44:14Z</time>
      </trkpt>
      <trkpt lat="45.7697" lon="6.85291">
        <ele>2334</ele>
        <time>2022-08-27T04:44:16Z</time>
      </trkpt>
      <trkpt lat="45.76971" lon="6.85294">
        <ele>2334</ele>
        <time>2022-08-27T04:44:18Z</time>
      </trkpt>
      <trkpt lat="45.76971" lon="6.85297">
        <ele>2334</ele>
        <time>2022-08-27T04:44:20Z</time>
      </trkpt>
      <trkpt lat="45.76972" lon="6.85301">
        <ele>2334</ele>
        <time>2022-08-27T04:44:22Z</time>
      </trkpt>
      <trkpt lat="45.76973" lon="6.85303">
        <ele>2334</ele>
        <time>2022-08-27T04:44:24Z</time>
      </trkpt>
      <trkpt lat="45.76974" lon="6.85306">
        <ele>2334</ele>
        <time>2022-08-27T04:44:26Z</time>
      </trkpt>
      <trkpt lat="45.76975" lon="6.8531">
        <ele>2334</ele>
        <time>2022-08-27T04:44:28Z</time>
      </trkpt>
      <trkpt lat="45.76976" lon="6.85313">
        <ele>2334</ele>
        <time>2022-08-27T04:44:30Z</time>
      </trkpt>
      <trkpt lat="45.76977" lon="6.85316">
        <ele>2334</ele>
        <time>2022-08-27T04:44:32Z</time>
      </trkpt>
      <trkpt lat="45.76978" lon="6.85319">
        <ele>2334</ele>
        <time>2022-08-27T04:44:34Z</time>
      </trkpt>
      <trkpt lat="45.76978" lon="6.85322">
        <ele>2334</ele>
        <time>2022-08-27T04:44:36Z</time>
      </trkpt>
      <trkpt lat="45.76979" lon="6.85325">
        <ele>2334</ele>
        <time>2022-08-27T04:44:38Z</time>
      </trkpt>
      <trkpt lat="45.76979" lon="6.85329">
        <ele>2334</ele>
        <time>2022-08-27T04:44:40Z</time>
      </trkpt>
      <trkpt lat="45.7698" lon="6.85332">
        <ele>2334</ele>
        <time>2022-08-27T04:44:42Z</time>
      </trkpt>
      <trkpt lat="45.76981" lon="6.85335">
        <ele>2334</ele>
        <time>2022-08-27T04:44:44Z</time>
      </trkpt>
      <trkpt lat="45.76982" lon="6.85339">
        <ele>2329</ele>
        <time>2022-08-27T04:44:46Z</time>
      </trkpt>
      <trkpt lat="45.76982" lon="6.85342">
        <ele>2329</ele>
        <time>2022-08-27T04:44:48Z</time>
      </trkpt>
      <trkpt lat="45.76983" lon="6.85345">
        <ele>2329</ele>
        <time>2022-08-27T04:44:50Z</time>
      </trkpt>
      <trkpt lat="45.76984" lon="6.85348">
        <ele>2329</ele>
        <time>2022-08-27T04:44:52Z</time>
      </trkpt>
      <trkpt lat="45.76985" lon="6.85351">
        <ele>2329</ele>
        <time>2022-08-27T04:44:54Z</time>
      </trkpt>
      <trkpt lat="45.76987" lon="6.85355">
        <ele>2329</ele>
        <time>2022-08-27T04:44:56Z</time>
      </trkpt>
      <trkpt lat="45.76988" lon="6.85358">
        <ele>2329</ele>
        <time>2022-08-27T04:44:58Z</time>
      </trkpt>
      <trkpt lat="45.76989" lon="6.85361">
        <ele>2329</ele>
        <time>2022-08-27T04:45:00Z</time>
      </trkpt>
      <trkpt lat="45.7699" lon="6.85364">
        <ele>2328</ele>
        <time>2022-08-27T04:45:02Z</time>
      </trkpt>
      <trkpt lat="45.7699" lon="6.85367">
        <ele>2328</ele>
        <time>2022-08-27T04:45:04Z</time>
      </trkpt>
      <trkpt lat="45.76991" lon="6.85371">
        <ele>2328</ele>
        <time>2022-08-27T04:45:06Z</time>
      </trkpt>
      <trkpt lat="45.76992" lon="6.85374">
        <ele>2328</ele>
        <time>2022-08-27T04:45:08Z</time>
      </trkpt>
      <trkpt lat="45.76993" lon="6.85377">
        <ele>2328</ele>
        <time>2022-08-27T04:45:10Z</time>
      </trkpt>
      <trkpt lat="45.76993" lon="6.8538">
        <ele>2328</ele>
        <time>2022-08-27T04:45:12Z</time>
      </trkpt>
      <trkpt lat="45.76994" lon="6.85384">
        <ele>2328</ele>
        <time>2022-08-27T04:45:14Z</time>
      </trkpt>
      <trkpt lat="45.76995" lon="6.85387">
        <ele>2329</ele>
        <time>2022-08-27T04:45:16Z</time>
      </trkpt>
      <trkpt lat="45.76997" lon="6.8539">
        <ele>2329</ele>
        <time>2022-08-27T04:45:18Z</time>
      </trkpt>
      <trkpt lat="45.76997" lon="6.85393">
        <ele>2329</ele>
        <time>2022-08-27T04:45:20Z</time>
      </trkpt>
      <trkpt lat="45.76998" lon="6.85396">
        <ele>2328</ele>
        <time>2022-08-27T04:45:22Z</time>
      </trkpt>
      <trkpt lat="45.76999" lon="6.854">
        <ele>2328</ele>
        <time>2022-08-27T04:45:24Z</time>
      </trkpt>
      <trkpt lat="45.77" lon="6.85403">
        <ele>2328</ele>
        <time>2022-08-27T04:45:26Z</time>
      </trkpt>
      <trkpt lat="45.77001" lon="6.85405">
        <ele>2328</ele>
        <time>2022-08-27T04:45:28Z</time>
      </trkpt>
      <trkpt lat="45.77002" lon="6.85409">
        <ele>2328</ele>
        <time>2022-08-27T04:45:30Z</time>
      </trkpt>
      <trkpt lat="45.77003" lon="6.85412">
        <ele>2327</ele>
        <time>2022-08-27T04:45:32Z</time>
      </trkpt>
      <trkpt lat="45.77004" lon="6.85416">
        <ele>2328</ele>
        <time>2022-08-27T04:45:34Z</time>
      </trkpt>
      <trkpt lat="45.77004" lon="6.85419">
        <ele>2328</ele>
        <time>2022-08-27T04:45:36Z</time>
      </trkpt>
      <trkpt lat="45.77005" lon="6.85423">
        <ele>2328</ele>
        <time>2022-08-27T04:45:38Z</time>
      </trkpt>
      <trkpt lat="45.77005" lon="6.85426">
        <ele>2328</ele>
        <time>2022-08-27T04:45:40Z</time>
      </trkpt>
      <trkpt lat="45.77006" lon="6.8543">
        <ele>2328</ele>
        <time>2022-08-27T04:45:42Z</time>
      </trkpt>
      <trkpt lat="45.77007" lon="6.85433">
        <ele>2328</ele>
        <time>2022-08-27T04:45:44Z</time>
      </trkpt>
      <trkpt lat="45.77007" lon="6.85436">
        <ele>2328</ele>
        <time>2022-08-27T04:45:46Z</time>
      </trkpt>
      <trkpt lat="45.77008" lon="6.85439">
        <ele>2328</ele>
        <time>2022-08-27T04:45:48Z</time>
      </trkpt>
      <trkpt lat="45.77009" lon="6.85442">
        <ele>2328</ele>
        <time>2022-08-27T04:45:50Z</time>
      </trkpt>
      <trkpt lat="45.7701" lon="6.85446">
        <ele>2327</ele>
        <time>2022-08-27T04:45:52Z</time>
      </trkpt>
      <trkpt lat="45.77011" lon="6.85449">
        <ele>2328</ele>
        <time>2022-08-27T04:45:54Z</time>
      </trkpt>
      <trkpt lat="45.77011" lon="6.85452">
        <ele>2328</ele>
        <time>2022-08-27T04:45:56Z</time>
      </trkpt>
      <trkpt lat="45.77012" lon="6.85454">
        <ele>2328</ele>
        <time>2022-08-27T04:45:58Z</time>
      </trkpt>
      <trkpt lat="45.77013" lon="6.85457">
        <ele>2328</ele>
        <time>2022-08-27T04:46:00Z</time>
      </trkpt>
      <trkpt lat="45.77014" lon="6.85461">
        <ele>2328</ele>
        <time>2022-08-27T04:46:02Z</time>
      </trkpt>
      <trkpt lat="45.77014" lon="6.85465">
        <ele>2328</ele>
        <time>2022-08-27T04:46:04Z</time>
      </trkpt>
      <trkpt lat="45.77015" lon="6.85468">
        <ele>2328</ele>
        <time>2022-08-27T04:46:06Z</time>
      </trkpt>
      <trkpt lat="45.77016" lon="6.85471">
        <ele>2328</ele>
        <time>2022-08-27T04:46:08Z</time>
      </trkpt>
      <trkpt lat="45.77017" lon="6.85474">
        <ele>2327</ele>
        <time>2022-08-27T04:46:10Z</time>
      </trkpt>
      <trkpt lat="45.77018" lon="6.85478">
        <ele>2327</ele>
        <time>2022-08-27T04:46:12Z</time>
      </trkpt>
      <trkpt lat="45.77019" lon="6.85481">
        <ele>2327</ele>
        <time>2022-08-27T04:46:14Z</time>
      </trkpt>
      <trkpt lat="45.7702" lon="6.85484">
        <ele>2327</ele>
        <time>2022-08-27T04:46:16Z</time>
      </trkpt>
      <trkpt lat="45.77021" lon="6.85487">
        <ele>2327</ele>
        <time>2022-08-27T04:46:18Z</time>
      </trkpt>
      <trkpt lat="45.77021" lon="6.8549">
        <ele>2327</ele>
        <time>2022-08-27T04:46:20Z</time>
      </trkpt>
      <trkpt lat="45.77022" lon="6.85494">
        <ele>2326</ele>
        <time>2022-08-27T04:46:22Z</time>
      </trkpt>
      <trkpt lat="45.77023" lon="6.85497">
        <ele>2326</ele>
        <time>2022-08-27T04:46:24Z</time>
      </trkpt>
      <trkpt lat="45.77024" lon="6.85501">
        <ele>2326</ele>
        <time>2022-08-27T04:46:26Z</time>
      </trkpt>
      <trkpt lat="45.77025" lon="6.85504">
        <ele>2326</ele>
        <time>2022-08-27T04:46:28Z</time>
      </trkpt>
      <trkpt lat="45.77025" lon="6.85507">
        <ele>2326</ele>
        <time>2022-08-27T04:46:30Z</time>
      </trkpt>
      <trkpt lat="45.77026" lon="6.85511">
        <ele>2326</ele>
        <time>2022-08-27T04:46:32Z</time>
      </trkpt>
      <trkpt lat="45.77027" lon="6.85515">
        <ele>2326</ele>
        <time>2022-08-27T04:46:34Z</time>
      </trkpt>
      <trkpt lat="45.77029" lon="6.85518">
        <ele>2327</ele>
        <time>2022-08-27T04:46:36Z</time>
      </trkpt>
      <trkpt lat="45.77029" lon="6.85521">
        <ele>2327</ele>
        <time>2022-08-27T04:46:38Z</time>
      </trkpt>
      <trkpt lat="45.7703" lon="6.85525">
        <ele>2326</ele>
        <time>2022-08-27T04:46:40Z</time>
      </trkpt>
      <trkpt lat="45.77031" lon="6.85528">
        <ele>2326</ele>
        <time>2022-08-27T04:46:42Z</time>
      </trkpt>
      <trkpt lat="45.77032" lon="6.85532">
        <ele>2326</ele>
        <time>2022-08-27T04:46:44Z</time>
      </trkpt>
      <trkpt lat="45.77033" lon="6.85536">
        <ele>2326</ele>
        <time>2022-08-27T04:46:46Z</time>
      </trkpt>
      <trkpt lat="45.77034" lon="6.85539">
        <ele>2326</ele>
        <time>2022-08-27T04:46:48Z</time>
      </trkpt>
      <trkpt lat="45.77036" lon="6.85542">
        <ele>2326</ele>
        <time>2022-08-27T04:46:50Z</time>
      </trkpt>
      <trkpt lat="45.77037" lon="6.85546">
        <ele>2326</ele>
        <time>2022-08-27T04:46:52Z</time>
      </trkpt>
      <trkpt lat="45.77038" lon="6.85549">
        <ele>2326</ele>
        <time>2022-08-27T04:46:54Z</time>
      </trkpt>
      <trkpt lat="45.77039" lon="6.85553">
        <ele>2326</ele>
        <time>2022-08-27T04:46:56Z</time>
      </trkpt>
      <trkpt lat="45.7704" lon="6.85557">
        <ele>2326</ele>
        <time>2022-08-27T04:46:58Z</time>
      </trkpt>
      <trkpt lat="45.77041" lon="6.8556">
        <ele>2326</ele>
        <time>2022-08-27T04:47:00Z</time>
      </trkpt>
      <trkpt lat="45.77042" lon="6.85563">
        <ele>2326</ele>
        <time>2022-08-27T04:47:02Z</time>
      </trkpt>
      <trkpt lat="45.77044" lon="6.85566">
        <ele>2326</ele>
        <time>2022-08-27T04:47:04Z</time>
      </trkpt>
      <trkpt lat="45.77045" lon="6.85569">
        <ele>2326</ele>
        <time>2022-08-27T04:47:06Z</time>
      </trkpt>
      <trkpt lat="45.77046" lon="6.85573">
        <ele>2326</ele>
        <time>2022-08-27T04:47:08Z</time>
      </trkpt>
      <trkpt lat="45.77046" lon="6.85576">
        <ele>2326</ele>
        <time>2022-08-27T04:47:10Z</time>
      </trkpt>
      <trkpt lat="45.77047" lon="6.85579">
        <ele>2326</ele>
        <time>2022-08-27T04:47:12Z</time>
      </trkpt>
      <trkpt lat="45.77048" lon="6.85582">
        <ele>2326</ele>
        <time>2022-08-27T04:47:14Z</time>
      </trkpt>
      <trkpt lat="45.77049" lon="6.85585">
        <ele>2326</ele>
        <time>2022-08-27T04:47:16Z</time>
      </trkpt>
      <trkpt lat="45.7705" lon="6.85588">
        <ele>2324</ele>
        <time>2022-08-27T04:47:18Z</time>
      </trkpt>
      <trkpt lat="45.77051" lon="6.85592">
        <ele>2324</ele>
        <time>2022-08-27T04:47:20Z</time>
      </trkpt>
      <trkpt lat="45.77052" lon="6.85595">
        <ele>2324</ele>
        <time>2022-08-27T04:47:22Z</time>
      </trkpt>
      <trkpt lat="45.77053" lon="6.85598">
        <ele>2324</ele>
        <time>2022-08-27T04:47:24Z</time>
      </trkpt>
      <trkpt lat="45.77054" lon="6.85601">
        <ele>2324</ele>
        <time>2022-08-27T04:47:26Z</time>
      </trkpt>
      <trkpt lat="45.77055" lon="6.85605">
        <ele>2324</ele>
        <time>2022-08-27T04:47:28Z</time>
      </trkpt>
      <trkpt lat="45.77056" lon="6.85608">
        <ele>2324</ele>
        <time>2022-08-27T04:47:30Z</time>
      </trkpt>
      <trkpt lat="45.77058" lon="6.85612">
        <ele>2324</ele>
        <time>2022-08-27T04:47:32Z</time>
      </trkpt>
      <trkpt lat="45.77059" lon="6.85616">
        <ele>2324</ele>
        <time>2022-08-27T04:47:34Z</time>
      </trkpt>
      <trkpt lat="45.7706" lon="6.85619">
        <ele>2324</ele>
        <time>2022-08-27T04:47:36Z</time>
      </trkpt>
      <trkpt lat="45.77061" lon="6.85622">
        <ele>2324</ele>
        <time>2022-08-27T04:47:38Z</time>
      </trkpt>
      <trkpt lat="45.77062" lon="6.85625">
        <ele>2324</ele>
        <time>2022-08-27T04:47:40Z</time>
      </trkpt>
      <trkpt lat="45.77063" lon="6.85629">
        <ele>2324</ele>
        <time>2022-08-27T04:47:42Z</time>
      </trkpt>
      <trkpt lat="45.77064" lon="6.85633">
        <ele>2323</ele>
        <time>2022-08-27T04:47:44Z</time>
      </trkpt>
      <trkpt lat="45.77065" lon="6.85636">
        <ele>2324</ele>
        <time>2022-08-27T04:47:46Z</time>
      </trkpt>
      <trkpt lat="45.77067" lon="6.8564">
        <ele>2324</ele>
        <time>2022-08-27T04:47:49Z</time>
      </trkpt>
      <trkpt lat="45.77067" lon="6.85643">
        <ele>2323</ele>
        <time>2022-08-27T04:47:50Z</time>
      </trkpt>
      <trkpt lat="45.77068" lon="6.85645">
        <ele>2324</ele>
        <time>2022-08-27T04:47:52Z</time>
      </trkpt>
      <trkpt lat="45.77069" lon="6.85647">
        <ele>2324</ele>
        <time>2022-08-27T04:47:53Z</time>
      </trkpt>
      <trkpt lat="45.77072" lon="6.85654">
        <ele>2324</ele>
        <time>2022-08-27T04:47:57Z</time>
      </trkpt>
      <trkpt lat="45.77075" lon="6.85666">
        <ele>2323</ele>
        <time>2022-08-27T04:48:04Z</time>
      </trkpt>
      <trkpt lat="45.77075" lon="6.85669">
        <ele>2323</ele>
        <time>2022-08-27T04:48:05Z</time>
      </trkpt>
      <trkpt lat="45.77076" lon="6.85671">
        <ele>2323</ele>
        <time>2022-08-27T04:48:06Z</time>
      </trkpt>
      <trkpt lat="45.77076" lon="6.85673">
        <ele>2323</ele>
        <time>2022-08-27T04:48:07Z</time>
      </trkpt>
      <trkpt lat="45.77077" lon="6.85678">
        <ele>2323</ele>
        <time>2022-08-27T04:48:08Z</time>
      </trkpt>
      <trkpt lat="45.77077" lon="6.85679">
        <ele>2323</ele>
        <time>2022-08-27T04:48:09Z</time>
      </trkpt>
      <trkpt lat="45.77078" lon="6.85682">
        <ele>2323</ele>
        <time>2022-08-27T04:48:10Z</time>
      </trkpt>
      <trkpt lat="45.77079" lon="6.85687">
        <ele>2323</ele>
        <time>2022-08-27T04:48:11Z</time>
      </trkpt>
      <trkpt lat="45.77079" lon="6.85688">
        <ele>2323</ele>
        <time>2022-08-27T04:48:12Z</time>
      </trkpt>
      <trkpt lat="45.7708" lon="6.85691">
        <ele>2323</ele>
        <time>2022-08-27T04:48:13Z</time>
      </trkpt>
      <trkpt lat="45.77081" lon="6.85694">
        <ele>2323</ele>
        <time>2022-08-27T04:48:14Z</time>
      </trkpt>
      <trkpt lat="45.77081" lon="6.85697">
        <ele>2323</ele>
        <time>2022-08-27T04:48:15Z</time>
      </trkpt>
      <trkpt lat="45.77082" lon="6.857">
        <ele>2323</ele>
        <time>2022-08-27T04:48:16Z</time>
      </trkpt>
      <trkpt lat="45.77083" lon="6.85702">
        <ele>2323</ele>
        <time>2022-08-27T04:48:17Z</time>
      </trkpt>
      <trkpt lat="45.77083" lon="6.85705">
        <ele>2324</ele>
        <time>2022-08-27T04:48:18Z</time>
      </trkpt>
      <trkpt lat="45.77084" lon="6.85707">
        <ele>2324</ele>
        <time>2022-08-27T04:48:19Z</time>
      </trkpt>
      <trkpt lat="45.77085" lon="6.85712">
        <ele>2323</ele>
        <time>2022-08-27T04:48:21Z</time>
      </trkpt>
      <trkpt lat="45.77086" lon="6.85715">
        <ele>2323</ele>
        <time>2022-08-27T04:48:22Z</time>
      </trkpt>
      <trkpt lat="45.77087" lon="6.85718">
        <ele>2323</ele>
        <time>2022-08-27T04:48:23Z</time>
      </trkpt>
      <trkpt lat="45.77087" lon="6.85721">
        <ele>2323</ele>
        <time>2022-08-27T04:48:24Z</time>
      </trkpt>
      <trkpt lat="45.77088" lon="6.85725">
        <ele>2323</ele>
        <time>2022-08-27T04:48:25Z</time>
      </trkpt>
      <trkpt lat="45.77088" lon="6.85726">
        <ele>2323</ele>
        <time>2022-08-27T04:48:26Z</time>
      </trkpt>
      <trkpt lat="45.77088" lon="6.85729">
        <ele>2323</ele>
        <time>2022-08-27T04:48:27Z</time>
      </trkpt>
      <trkpt lat="45.77089" lon="6.85732">
        <ele>2323</ele>
        <time>2022-08-27T04:48:28Z</time>
      </trkpt>
      <trkpt lat="45.7709" lon="6.85736">
        <ele>2322</ele>
        <time>2022-08-27T04:48:29Z</time>
      </trkpt>
      <trkpt lat="45.77091" lon="6.85739">
        <ele>2322</ele>
        <time>2022-08-27T04:48:31Z</time>
      </trkpt>
      <trkpt lat="45.77092" lon="6.85742">
        <ele>2322</ele>
        <time>2022-08-27T04:48:32Z</time>
      </trkpt>
      <trkpt lat="45.77093" lon="6.85745">
        <ele>2322</ele>
        <time>2022-08-27T04:48:33Z</time>
      </trkpt>
      <trkpt lat="45.77095" lon="6.8575">
        <ele>2323</ele>
        <time>2022-08-27T04:48:35Z</time>
      </trkpt>
      <trkpt lat="45.77096" lon="6.85752">
        <ele>2323</ele>
        <time>2022-08-27T04:48:36Z</time>
      </trkpt>
      <trkpt lat="45.77097" lon="6.85754">
        <ele>2323</ele>
        <time>2022-08-27T04:48:37Z</time>
      </trkpt>
      <trkpt lat="45.77099" lon="6.8576">
        <ele>2323</ele>
        <time>2022-08-27T04:48:39Z</time>
      </trkpt>
      <trkpt lat="45.77099" lon="6.85761">
        <ele>2322</ele>
        <time>2022-08-27T04:48:40Z</time>
      </trkpt>
      <trkpt lat="45.77103" lon="6.85771">
        <ele>2323</ele>
        <time>2022-08-27T04:48:45Z</time>
      </trkpt>
      <trkpt lat="45.77104" lon="6.85774">
        <ele>2323</ele>
        <time>2022-08-27T04:48:47Z</time>
      </trkpt>
      <trkpt lat="45.77105" lon="6.85778">
        <ele>2323</ele>
        <time>2022-08-27T04:48:49Z</time>
      </trkpt>
      <trkpt lat="45.77107" lon="6.85782">
        <ele>2322</ele>
        <time>2022-08-27T04:48:51Z</time>
      </trkpt>
      <trkpt lat="45.77108" lon="6.85785">
        <ele>2323</ele>
        <time>2022-08-27T04:48:53Z</time>
      </trkpt>
      <trkpt lat="45.77109" lon="6.85789">
        <ele>2323</ele>
        <time>2022-08-27T04:48:55Z</time>
      </trkpt>
      <trkpt lat="45.7711" lon="6.85794">
        <ele>2323</ele>
        <time>2022-08-27T04:48:57Z</time>
      </trkpt>
      <trkpt lat="45.77111" lon="6.85796">
        <ele>2323</ele>
        <time>2022-08-27T04:48:58Z</time>
      </trkpt>
      <trkpt lat="45.77112" lon="6.85798">
        <ele>2323</ele>
        <time>2022-08-27T04:48:59Z</time>
      </trkpt>
      <trkpt lat="45.77114" lon="6.85803">
        <ele>2322</ele>
        <time>2022-08-27T04:49:01Z</time>
      </trkpt>
      <trkpt lat="45.77116" lon="6.85806">
        <ele>2322</ele>
        <time>2022-08-27T04:49:03Z</time>
      </trkpt>
      <trkpt lat="45.77117" lon="6.8581">
        <ele>2322</ele>
        <time>2022-08-27T04:49:05Z</time>
      </trkpt>
      <trkpt lat="45.77118" lon="6.85814">
        <ele>2322</ele>
        <time>2022-08-27T04:49:07Z</time>
      </trkpt>
      <trkpt lat="45.77119" lon="6.85817">
        <ele>2322</ele>
        <time>2022-08-27T04:49:09Z</time>
      </trkpt>
      <trkpt lat="45.7712" lon="6.85821">
        <ele>2323</ele>
        <time>2022-08-27T04:49:11Z</time>
      </trkpt>
      <trkpt lat="45.77121" lon="6.85825">
        <ele>2323</ele>
        <time>2022-08-27T04:49:13Z</time>
      </trkpt>
      <trkpt lat="45.77122" lon="6.85828">
        <ele>2322</ele>
        <time>2022-08-27T04:49:15Z</time>
      </trkpt>
      <trkpt lat="45.77122" lon="6.85832">
        <ele>2322</ele>
        <time>2022-08-27T04:49:17Z</time>
      </trkpt>
      <trkpt lat="45.77121" lon="6.85836">
        <ele>2322</ele>
        <time>2022-08-27T04:49:20Z</time>
      </trkpt>
      <trkpt lat="45.77118" lon="6.85838">
        <ele>2323</ele>
        <time>2022-08-27T04:49:24Z</time>
      </trkpt>
      <trkpt lat="45.77116" lon="6.85841">
        <ele>2324</ele>
        <time>2022-08-27T04:49:29Z</time>
      </trkpt>
      <trkpt lat="45.77114" lon="6.85842">
        <ele>2324</ele>
        <time>2022-08-27T04:49:33Z</time>
      </trkpt>
      <trkpt lat="45.77114" lon="6.85842">
        <ele>2323</ele>
        <time>2022-08-27T04:49:52Z</time>
      </trkpt>
      <trkpt lat="45.77112" lon="6.85843">
        <ele>2324</ele>
        <time>2022-08-27T04:49:58Z</time>
      </trkpt>
      <trkpt lat="45.7711" lon="6.85843">
        <ele>2326</ele>
        <time>2022-08-27T04:50:02Z</time>
      </trkpt>
      <trkpt lat="45.7711" lon="6.85843">
        <ele>2326</ele>
        <time>2022-08-27T04:50:17Z</time>
      </trkpt>
      <trkpt lat="45.7711" lon="6.85843">
        <ele>2324</ele>
        <time>2022-08-27T04:50:36Z</time>
      </trkpt>
      <trkpt lat="45.7711" lon="6.85843">
        <ele>2324</ele>
        <time>2022-08-27T04:50:54Z</time>
      </trkpt>
      <trkpt lat="45.7711" lon="6.85843">
        <ele>2324</ele>
        <time>2022-08-27T04:51:13Z</time>
      </trkpt>
      <trkpt lat="45.7711" lon="6.85843">
        <ele>2323</ele>
        <time>2022-08-27T04:51:33Z</time>
      </trkpt>
      <trkpt lat="45.7711" lon="6.85843">
        <ele>2324</ele>
        <time>2022-08-27T04:51:50Z</time>
      </trkpt>
      <trkpt lat="45.7711" lon="6.85843">
        <ele>2326</ele>
        <time>2022-08-27T04:52:09Z</time>
      </trkpt>
      <trkpt lat="45.77113" lon="6.85842">
        <ele>2326</ele>
        <time>2022-08-27T04:52:26Z</time>
      </trkpt>
      <trkpt lat="45.77113" lon="6.85842">
        <ele>2326</ele>
        <time>2022-08-27T04:52:28Z</time>
      </trkpt>
      <trkpt lat="45.77113" lon="6.85842">
        <ele>2326</ele>
        <time>2022-08-27T04:52:47Z</time>
      </trkpt>
      <trkpt lat="45.77113" lon="6.85842">
        <ele>2326</ele>
        <time>2022-08-27T04:53:06Z</time>
      </trkpt>
      <trkpt lat="45.77113" lon="6.85842">
        <ele>2324</ele>
        <time>2022-08-27T04:53:22Z</time>
      </trkpt>
      <trkpt lat="45.77113" lon="6.85842">
        <ele>2326</ele>
        <time>2022-08-27T04:53:42Z</time>
      </trkpt>
      <trkpt lat="45.77113" lon="6.85842">
        <ele>2326</ele>
        <time>2022-08-27T04:54:01Z</time>
      </trkpt>
      <trkpt lat="45.77113" lon="6.85842">
        <ele>2324</ele>
        <time>2022-08-27T04:54:22Z</time>
      </trkpt>
      <trkpt lat="45.77113" lon="6.85842">
        <ele>2326</ele>
        <time>2022-08-27T04:54:44Z</time>
      </trkpt>
      <trkpt lat="45.77113" lon="6.85842">
        <ele>2326</ele>
        <time>2022-08-27T04:55:05Z</time>
      </trkpt>
      <trkpt lat="45.77113" lon="6.85842">
        <ele>2324</ele>
        <time>2022-08-27T04:55:25Z</time>
      </trkpt>
      <trkpt lat="45.77113" lon="6.85842">
        <ele>2326</ele>
        <time>2022-08-27T04:55:45Z</time>
      </trkpt>
      <trkpt lat="45.77115" lon="6.85842">
        <ele>2326</ele>
        <time>2022-08-27T04:55:48Z</time>
      </trkpt>
      <trkpt lat="45.77118" lon="6.85842">
        <ele>2326</ele>
        <time>2022-08-27T04:55:53Z</time>
      </trkpt>
      <trkpt lat="45.77119" lon="6.85839">
        <ele>2324</ele>
        <time>2022-08-27T04:55:58Z</time>
      </trkpt>
      <trkpt lat="45.7712" lon="6.85837">
        <ele>2324</ele>
        <time>2022-08-27T04:56:01Z</time>
      </trkpt>
      <trkpt lat="45.77128" lon="6.85835">
        <ele>2322</ele>
        <time>2022-08-27T04:56:12Z</time>
      </trkpt>
      <trkpt lat="45.77129" lon="6.85838">
        <ele>2322</ele>
        <time>2022-08-27T04:56:13Z</time>
      </trkpt>
      <trkpt lat="45.7713" lon="6.85841">
        <ele>2322</ele>
        <time>2022-08-27T04:56:14Z</time>
      </trkpt>
      <trkpt lat="45.77131" lon="6.85843">
        <ele>2322</ele>
        <time>2022-08-27T04:56:15Z</time>
      </trkpt>
      <trkpt lat="45.77132" lon="6.85846">
        <ele>2322</ele>
        <time>2022-08-27T04:56:16Z</time>
      </trkpt>
      <trkpt lat="45.77133" lon="6.85849">
        <ele>2322</ele>
        <time>2022-08-27T04:56:17Z</time>
      </trkpt>
      <trkpt lat="45.77134" lon="6.85852">
        <ele>2322</ele>
        <time>2022-08-27T04:56:18Z</time>
      </trkpt>
      <trkpt lat="45.77135" lon="6.85854">
        <ele>2322</ele>
        <time>2022-08-27T04:56:19Z</time>
      </trkpt>
      <trkpt lat="45.77137" lon="6.85858">
        <ele>2322</ele>
        <time>2022-08-27T04:56:20Z</time>
      </trkpt>
      <trkpt lat="45.77137" lon="6.85859">
        <ele>2322</ele>
        <time>2022-08-27T04:56:21Z</time>
      </trkpt>
      <trkpt lat="45.77138" lon="6.85862">
        <ele>2322</ele>
        <time>2022-08-27T04:56:22Z</time>
      </trkpt>
      <trkpt lat="45.77139" lon="6.85865">
        <ele>2321</ele>
        <time>2022-08-27T04:56:23Z</time>
      </trkpt>
      <trkpt lat="45.7714" lon="6.85868">
        <ele>2322</ele>
        <time>2022-08-27T04:56:24Z</time>
      </trkpt>
      <trkpt lat="45.77141" lon="6.85872">
        <ele>2322</ele>
        <time>2022-08-27T04:56:25Z</time>
      </trkpt>
      <trkpt lat="45.77142" lon="6.85873">
        <ele>2322</ele>
        <time>2022-08-27T04:56:26Z</time>
      </trkpt>
      <trkpt lat="45.77143" lon="6.85876">
        <ele>2322</ele>
        <time>2022-08-27T04:56:27Z</time>
      </trkpt>
      <trkpt lat="45.77144" lon="6.85879">
        <ele>2322</ele>
        <time>2022-08-27T04:56:28Z</time>
      </trkpt>
      <trkpt lat="45.77145" lon="6.85882">
        <ele>2322</ele>
        <time>2022-08-27T04:56:29Z</time>
      </trkpt>
      <trkpt lat="45.77146" lon="6.85886">
        <ele>2322</ele>
        <time>2022-08-27T04:56:30Z</time>
      </trkpt>
      <trkpt lat="45.77147" lon="6.85888">
        <ele>2322</ele>
        <time>2022-08-27T04:56:31Z</time>
      </trkpt>
      <trkpt lat="45.77148" lon="6.8589">
        <ele>2322</ele>
        <time>2022-08-27T04:56:32Z</time>
      </trkpt>
      <trkpt lat="45.77149" lon="6.85893">
        <ele>2322</ele>
        <time>2022-08-27T04:56:33Z</time>
      </trkpt>
      <trkpt lat="45.77149" lon="6.85896">
        <ele>2322</ele>
        <time>2022-08-27T04:56:34Z</time>
      </trkpt>
      <trkpt lat="45.77151" lon="6.85901">
        <ele>2321</ele>
        <time>2022-08-27T04:56:36Z</time>
      </trkpt>
      <trkpt lat="45.77152" lon="6.85904">
        <ele>2321</ele>
        <time>2022-08-27T04:56:37Z</time>
      </trkpt>
      <trkpt lat="45.77153" lon="6.85906">
        <ele>2321</ele>
        <time>2022-08-27T04:56:38Z</time>
      </trkpt>
      <trkpt lat="45.77154" lon="6.85909">
        <ele>2321</ele>
        <time>2022-08-27T04:56:39Z</time>
      </trkpt>
      <trkpt lat="45.77155" lon="6.85911">
        <ele>2321</ele>
        <time>2022-08-27T04:56:40Z</time>
      </trkpt>
      <trkpt lat="45.77156" lon="6.85913">
        <ele>2322</ele>
        <time>2022-08-27T04:56:41Z</time>
      </trkpt>
      <trkpt lat="45.77157" lon="6.85916">
        <ele>2322</ele>
        <time>2022-08-27T04:56:42Z</time>
      </trkpt>
      <trkpt lat="45.77158" lon="6.85918">
        <ele>2322</ele>
        <time>2022-08-27T04:56:43Z</time>
      </trkpt>
      <trkpt lat="45.77159" lon="6.8592">
        <ele>2322</ele>
        <time>2022-08-27T04:56:44Z</time>
      </trkpt>
      <trkpt lat="45.7716" lon="6.85923">
        <ele>2322</ele>
        <time>2022-08-27T04:56:45Z</time>
      </trkpt>
      <trkpt lat="45.77162" lon="6.85925">
        <ele>2322</ele>
        <time>2022-08-27T04:56:46Z</time>
      </trkpt>
      <trkpt lat="45.77162" lon="6.85927">
        <ele>2322</ele>
        <time>2022-08-27T04:56:47Z</time>
      </trkpt>
      <trkpt lat="45.77164" lon="6.85931">
        <ele>2322</ele>
        <time>2022-08-27T04:56:49Z</time>
      </trkpt>
      <trkpt lat="45.77165" lon="6.85934">
        <ele>2322</ele>
        <time>2022-08-27T04:56:50Z</time>
      </trkpt>
      <trkpt lat="45.77167" lon="6.85938">
        <ele>2322</ele>
        <time>2022-08-27T04:56:52Z</time>
      </trkpt>
      <trkpt lat="45.77168" lon="6.8594">
        <ele>2322</ele>
        <time>2022-08-27T04:56:53Z</time>
      </trkpt>
      <trkpt lat="45.77169" lon="6.85942">
        <ele>2322</ele>
        <time>2022-08-27T04:56:54Z</time>
      </trkpt>
      <trkpt lat="45.77171" lon="6.85945">
        <ele>2322</ele>
        <time>2022-08-27T04:56:55Z</time>
      </trkpt>
      <trkpt lat="45.77172" lon="6.85947">
        <ele>2321</ele>
        <time>2022-08-27T04:56:56Z</time>
      </trkpt>
      <trkpt lat="45.77173" lon="6.85949">
        <ele>2321</ele>
        <time>2022-08-27T04:56:57Z</time>
      </trkpt>
      <trkpt lat="45.77174" lon="6.85951">
        <ele>2321</ele>
        <time>2022-08-27T04:56:58Z</time>
      </trkpt>
      <trkpt lat="45.77175" lon="6.85954">
        <ele>2321</ele>
        <time>2022-08-27T04:56:59Z</time>
      </trkpt>
      <trkpt lat="45.77176" lon="6.85957">
        <ele>2321</ele>
        <time>2022-08-27T04:57:00Z</time>
      </trkpt>
      <trkpt lat="45.77177" lon="6.85959">
        <ele>2321</ele>
        <time>2022-08-27T04:57:01Z</time>
      </trkpt>
      <trkpt lat="45.77178" lon="6.85962">
        <ele>2321</ele>
        <time>2022-08-27T04:57:02Z</time>
      </trkpt>
      <trkpt lat="45.77179" lon="6.85966">
        <ele>2321</ele>
        <time>2022-08-27T04:57:03Z</time>
      </trkpt>
      <trkpt lat="45.77179" lon="6.85967">
        <ele>2321</ele>
        <time>2022-08-27T04:57:04Z</time>
      </trkpt>
      <trkpt lat="45.77181" lon="6.85969">
        <ele>2321</ele>
        <time>2022-08-27T04:57:05Z</time>
      </trkpt>
      <trkpt lat="45.77181" lon="6.85972">
        <ele>2321</ele>
        <time>2022-08-27T04:57:06Z</time>
      </trkpt>
      <trkpt lat="45.77182" lon="6.85974">
        <ele>2320</ele>
        <time>2022-08-27T04:57:07Z</time>
      </trkpt>
      <trkpt lat="45.77184" lon="6.85978">
        <ele>2320</ele>
        <time>2022-08-27T04:57:08Z</time>
      </trkpt>
      <trkpt lat="45.77185" lon="6.85979">
        <ele>2321</ele>
        <time>2022-08-27T04:57:09Z</time>
      </trkpt>
      <trkpt lat="45.77185" lon="6.85981">
        <ele>2321</ele>
        <time>2022-08-27T04:57:10Z</time>
      </trkpt>
      <trkpt lat="45.77186" lon="6.85984">
        <ele>2321</ele>
        <time>2022-08-27T04:57:11Z</time>
      </trkpt>
      <trkpt lat="45.77187" lon="6.85986">
        <ele>2321</ele>
        <time>2022-08-27T04:57:12Z</time>
      </trkpt>
      <trkpt lat="45.77188" lon="6.85989">
        <ele>2321</ele>
        <time>2022-08-27T04:57:13Z</time>
      </trkpt>
      <trkpt lat="45.7719" lon="6.85991">
        <ele>2321</ele>
        <time>2022-08-27T04:57:14Z</time>
      </trkpt>
      <trkpt lat="45.77193" lon="6.85998">
        <ele>2320</ele>
        <time>2022-08-27T04:57:17Z</time>
      </trkpt>
      <trkpt lat="45.77195" lon="6.86">
        <ele>2320</ele>
        <time>2022-08-27T04:57:18Z</time>
      </trkpt>
      <trkpt lat="45.77196" lon="6.86003">
        <ele>2320</ele>
        <time>2022-08-27T04:57:19Z</time>
      </trkpt>
      <trkpt lat="45.77197" lon="6.86005">
        <ele>2320</ele>
        <time>2022-08-27T04:57:20Z</time>
      </trkpt>
      <trkpt lat="45.77198" lon="6.86009">
        <ele>2320</ele>
        <time>2022-08-27T04:57:21Z</time>
      </trkpt>
      <trkpt lat="45.77199" lon="6.8601">
        <ele>2320</ele>
        <time>2022-08-27T04:57:22Z</time>
      </trkpt>
      <trkpt lat="45.772" lon="6.86012">
        <ele>2321</ele>
        <time>2022-08-27T04:57:23Z</time>
      </trkpt>
      <trkpt lat="45.77202" lon="6.86017">
        <ele>2321</ele>
        <time>2022-08-27T04:57:25Z</time>
      </trkpt>
      <trkpt lat="45.77203" lon="6.86019">
        <ele>2321</ele>
        <time>2022-08-27T04:57:26Z</time>
      </trkpt>
      <trkpt lat="45.77204" lon="6.86021">
        <ele>2321</ele>
        <time>2022-08-27T04:57:27Z</time>
      </trkpt>
      <trkpt lat="45.77206" lon="6.86025">
        <ele>2321</ele>
        <time>2022-08-27T04:57:28Z</time>
      </trkpt>
      <trkpt lat="45.77206" lon="6.86026">
        <ele>2321</ele>
        <time>2022-08-27T04:57:29Z</time>
      </trkpt>
      <trkpt lat="45.77207" lon="6.86029">
        <ele>2321</ele>
        <time>2022-08-27T04:57:30Z</time>
      </trkpt>
      <trkpt lat="45.77208" lon="6.86031">
        <ele>2321</ele>
        <time>2022-08-27T04:57:31Z</time>
      </trkpt>
      <trkpt lat="45.77209" lon="6.86033">
        <ele>2321</ele>
        <time>2022-08-27T04:57:32Z</time>
      </trkpt>
      <trkpt lat="45.7721" lon="6.86037">
        <ele>2321</ele>
        <time>2022-08-27T04:57:33Z</time>
      </trkpt>
      <trkpt lat="45.77211" lon="6.86038">
        <ele>2321</ele>
        <time>2022-08-27T04:57:34Z</time>
      </trkpt>
      <trkpt lat="45.77212" lon="6.8604">
        <ele>2321</ele>
        <time>2022-08-27T04:57:35Z</time>
      </trkpt>
      <trkpt lat="45.77214" lon="6.86043">
        <ele>2321</ele>
        <time>2022-08-27T04:57:36Z</time>
      </trkpt>
      <trkpt lat="45.77214" lon="6.86045">
        <ele>2320</ele>
        <time>2022-08-27T04:57:37Z</time>
      </trkpt>
      <trkpt lat="45.77216" lon="6.86048">
        <ele>2320</ele>
        <time>2022-08-27T04:57:38Z</time>
      </trkpt>
      <trkpt lat="45.77217" lon="6.8605">
        <ele>2320</ele>
        <time>2022-08-27T04:57:39Z</time>
      </trkpt>
      <trkpt lat="45.77218" lon="6.86052">
        <ele>2320</ele>
        <time>2022-08-27T04:57:40Z</time>
      </trkpt>
      <trkpt lat="45.77219" lon="6.86054">
        <ele>2320</ele>
        <time>2022-08-27T04:57:41Z</time>
      </trkpt>
      <trkpt lat="45.7722" lon="6.86057">
        <ele>2320</ele>
        <time>2022-08-27T04:57:42Z</time>
      </trkpt>
      <trkpt lat="45.77222" lon="6.86059">
        <ele>2320</ele>
        <time>2022-08-27T04:57:43Z</time>
      </trkpt>
      <trkpt lat="45.77223" lon="6.86061">
        <ele>2320</ele>
        <time>2022-08-27T04:57:44Z</time>
      </trkpt>
      <trkpt lat="45.77226" lon="6.86064">
        <ele>2320</ele>
        <time>2022-08-27T04:57:45Z</time>
      </trkpt>
      <trkpt lat="45.77226" lon="6.86065">
        <ele>2320</ele>
        <time>2022-08-27T04:57:46Z</time>
      </trkpt>
      <trkpt lat="45.77229" lon="6.86069">
        <ele>2320</ele>
        <time>2022-08-27T04:57:48Z</time>
      </trkpt>
      <trkpt lat="45.7723" lon="6.86071">
        <ele>2320</ele>
        <time>2022-08-27T04:57:49Z</time>
      </trkpt>
      <trkpt lat="45.77233" lon="6.86074">
        <ele>2320</ele>
        <time>2022-08-27T04:57:51Z</time>
      </trkpt>
      <trkpt lat="45.77234" lon="6.86076">
        <ele>2320</ele>
        <time>2022-08-27T04:57:52Z</time>
      </trkpt>
      <trkpt lat="45.77236" lon="6.86078">
        <ele>2320</ele>
        <time>2022-08-27T04:57:53Z</time>
      </trkpt>
      <trkpt lat="45.77237" lon="6.86081">
        <ele>2320</ele>
        <time>2022-08-27T04:57:54Z</time>
      </trkpt>
      <trkpt lat="45.77238" lon="6.86082">
        <ele>2320</ele>
        <time>2022-08-27T04:57:55Z</time>
      </trkpt>
      <trkpt lat="45.77239" lon="6.86084">
        <ele>2320</ele>
        <time>2022-08-27T04:57:56Z</time>
      </trkpt>
      <trkpt lat="45.77241" lon="6.86086">
        <ele>2320</ele>
        <time>2022-08-27T04:57:57Z</time>
      </trkpt>
      <trkpt lat="45.77242" lon="6.86089">
        <ele>2320</ele>
        <time>2022-08-27T04:57:58Z</time>
      </trkpt>
      <trkpt lat="45.77243" lon="6.86092">
        <ele>2320</ele>
        <time>2022-08-27T04:57:59Z</time>
      </trkpt>
      <trkpt lat="45.77244" lon="6.86094">
        <ele>2320</ele>
        <time>2022-08-27T04:58:00Z</time>
      </trkpt>
      <trkpt lat="45.77245" lon="6.86096">
        <ele>2320</ele>
        <time>2022-08-27T04:58:01Z</time>
      </trkpt>
      <trkpt lat="45.77246" lon="6.86098">
        <ele>2320</ele>
        <time>2022-08-27T04:58:02Z</time>
      </trkpt>
      <trkpt lat="45.77247" lon="6.86101">
        <ele>2319</ele>
        <time>2022-08-27T04:58:03Z</time>
      </trkpt>
      <trkpt lat="45.77248" lon="6.86105">
        <ele>2319</ele>
        <time>2022-08-27T04:58:04Z</time>
      </trkpt>
      <trkpt lat="45.77249" lon="6.86107">
        <ele>2319</ele>
        <time>2022-08-27T04:58:05Z</time>
      </trkpt>
      <trkpt lat="45.77249" lon="6.8611">
        <ele>2319</ele>
        <time>2022-08-27T04:58:06Z</time>
      </trkpt>
      <trkpt lat="45.7725" lon="6.86112">
        <ele>2319</ele>
        <time>2022-08-27T04:58:07Z</time>
      </trkpt>
      <trkpt lat="45.77251" lon="6.86115">
        <ele>2319</ele>
        <time>2022-08-27T04:58:08Z</time>
      </trkpt>
      <trkpt lat="45.77252" lon="6.8612">
        <ele>2319</ele>
        <time>2022-08-27T04:58:09Z</time>
      </trkpt>
      <trkpt lat="45.77253" lon="6.86121">
        <ele>2319</ele>
        <time>2022-08-27T04:58:10Z</time>
      </trkpt>
      <trkpt lat="45.77254" lon="6.86124">
        <ele>2319</ele>
        <time>2022-08-27T04:58:11Z</time>
      </trkpt>
      <trkpt lat="45.77254" lon="6.86126">
        <ele>2319</ele>
        <time>2022-08-27T04:58:12Z</time>
      </trkpt>
      <trkpt lat="45.77255" lon="6.86129">
        <ele>2319</ele>
        <time>2022-08-27T04:58:13Z</time>
      </trkpt>
      <trkpt lat="45.77255" lon="6.86134">
        <ele>2319</ele>
        <time>2022-08-27T04:58:14Z</time>
      </trkpt>
      <trkpt lat="45.77255" lon="6.86135">
        <ele>2319</ele>
        <time>2022-08-27T04:58:15Z</time>
      </trkpt>
      <trkpt lat="45.77255" lon="6.86138">
        <ele>2319</ele>
        <time>2022-08-27T04:58:16Z</time>
      </trkpt>
      <trkpt lat="45.77256" lon="6.86141">
        <ele>2320</ele>
        <time>2022-08-27T04:58:17Z</time>
      </trkpt>
      <trkpt lat="45.77257" lon="6.86146">
        <ele>2320</ele>
        <time>2022-08-27T04:58:18Z</time>
      </trkpt>
      <trkpt lat="45.77257" lon="6.86147">
        <ele>2320</ele>
        <time>2022-08-27T04:58:19Z</time>
      </trkpt>
      <trkpt lat="45.77257" lon="6.8615">
        <ele>2320</ele>
        <time>2022-08-27T04:58:20Z</time>
      </trkpt>
      <trkpt lat="45.77257" lon="6.86153">
        <ele>2319</ele>
        <time>2022-08-27T04:58:21Z</time>
      </trkpt>
      <trkpt lat="45.77257" lon="6.86156">
        <ele>2319</ele>
        <time>2022-08-27T04:58:22Z</time>
      </trkpt>
      <trkpt lat="45.77258" lon="6.86159">
        <ele>2319</ele>
        <time>2022-08-27T04:58:23Z</time>
      </trkpt>
      <trkpt lat="45.77258" lon="6.86162">
        <ele>2319</ele>
        <time>2022-08-27T04:58:24Z</time>
      </trkpt>
      <trkpt lat="45.77258" lon="6.86165">
        <ele>2319</ele>
        <time>2022-08-27T04:58:25Z</time>
      </trkpt>
      <trkpt lat="45.77258" lon="6.86168">
        <ele>2319</ele>
        <time>2022-08-27T04:58:26Z</time>
      </trkpt>
      <trkpt lat="45.77258" lon="6.86171">
        <ele>2319</ele>
        <time>2022-08-27T04:58:27Z</time>
      </trkpt>
      <trkpt lat="45.77258" lon="6.86174">
        <ele>2319</ele>
        <time>2022-08-27T04:58:28Z</time>
      </trkpt>
      <trkpt lat="45.77258" lon="6.86177">
        <ele>2319</ele>
        <time>2022-08-27T04:58:29Z</time>
      </trkpt>
      <trkpt lat="45.77258" lon="6.86182">
        <ele>2319</ele>
        <time>2022-08-27T04:58:30Z</time>
      </trkpt>
      <trkpt lat="45.77258" lon="6.86183">
        <ele>2318</ele>
        <time>2022-08-27T04:58:31Z</time>
      </trkpt>
      <trkpt lat="45.77258" lon="6.86186">
        <ele>2318</ele>
        <time>2022-08-27T04:58:32Z</time>
      </trkpt>
      <trkpt lat="45.77258" lon="6.86189">
        <ele>2318</ele>
        <time>2022-08-27T04:58:33Z</time>
      </trkpt>
      <trkpt lat="45.77258" lon="6.86192">
        <ele>2319</ele>
        <time>2022-08-27T04:58:34Z</time>
      </trkpt>
      <trkpt lat="45.77258" lon="6.86195">
        <ele>2319</ele>
        <time>2022-08-27T04:58:35Z</time>
      </trkpt>
      <trkpt lat="45.77257" lon="6.86198">
        <ele>2319</ele>
        <time>2022-08-27T04:58:36Z</time>
      </trkpt>
      <trkpt lat="45.77257" lon="6.86201">
        <ele>2319</ele>
        <time>2022-08-27T04:58:37Z</time>
      </trkpt>
      <trkpt lat="45.77257" lon="6.86204">
        <ele>2319</ele>
        <time>2022-08-27T04:58:38Z</time>
      </trkpt>
      <trkpt lat="45.77256" lon="6.86206">
        <ele>2319</ele>
        <time>2022-08-27T04:58:39Z</time>
      </trkpt>
      <trkpt lat="45.77255" lon="6.86211">
        <ele>2319</ele>
        <time>2022-08-27T04:58:40Z</time>
      </trkpt>
      <trkpt lat="45.77255" lon="6.86212">
        <ele>2319</ele>
        <time>2022-08-27T04:58:41Z</time>
      </trkpt>
      <trkpt lat="45.77255" lon="6.86215">
        <ele>2319</ele>
        <time>2022-08-27T04:58:42Z</time>
      </trkpt>
      <trkpt lat="45.77255" lon="6.86217">
        <ele>2319</ele>
        <time>2022-08-27T04:58:43Z</time>
      </trkpt>
      <trkpt lat="45.77255" lon="6.8622">
        <ele>2319</ele>
        <time>2022-08-27T04:58:44Z</time>
      </trkpt>
      <trkpt lat="45.77254" lon="6.86223">
        <ele>2319</ele>
        <time>2022-08-27T04:58:45Z</time>
      </trkpt>
      <trkpt lat="45.77254" lon="6.86226">
        <ele>2319</ele>
        <time>2022-08-27T04:58:46Z</time>
      </trkpt>
      <trkpt lat="45.77254" lon="6.86229">
        <ele>2319</ele>
        <time>2022-08-27T04:58:47Z</time>
      </trkpt>
      <trkpt lat="45.77254" lon="6.86232">
        <ele>2319</ele>
        <time>2022-08-27T04:58:48Z</time>
      </trkpt>
      <trkpt lat="45.77255" lon="6.86235">
        <ele>2319</ele>
        <time>2022-08-27T04:58:49Z</time>
      </trkpt>
      <trkpt lat="45.77255" lon="6.86238">
        <ele>2319</ele>
        <time>2022-08-27T04:58:50Z</time>
      </trkpt>
      <trkpt lat="45.77255" lon="6.86242">
        <ele>2319</ele>
        <time>2022-08-27T04:58:51Z</time>
      </trkpt>
      <trkpt lat="45.77255" lon="6.86244">
        <ele>2319</ele>
        <time>2022-08-27T04:58:52Z</time>
      </trkpt>
      <trkpt lat="45.77255" lon="6.86246">
        <ele>2318</ele>
        <time>2022-08-27T04:58:53Z</time>
      </trkpt>
      <trkpt lat="45.77255" lon="6.86251">
        <ele>2318</ele>
        <time>2022-08-27T04:58:54Z</time>
      </trkpt>
      <trkpt lat="45.77254" lon="6.86252">
        <ele>2318</ele>
        <time>2022-08-27T04:58:55Z</time>
      </trkpt>
      <trkpt lat="45.77254" lon="6.86255">
        <ele>2318</ele>
        <time>2022-08-27T04:58:56Z</time>
      </trkpt>
      <trkpt lat="45.77254" lon="6.86258">
        <ele>2318</ele>
        <time>2022-08-27T04:58:57Z</time>
      </trkpt>
      <trkpt lat="45.77254" lon="6.86261">
        <ele>2319</ele>
        <time>2022-08-27T04:58:58Z</time>
      </trkpt>
      <trkpt lat="45.77254" lon="6.86265">
        <ele>2319</ele>
        <time>2022-08-27T04:58:59Z</time>
      </trkpt>
      <trkpt lat="45.77254" lon="6.86266">
        <ele>2318</ele>
        <time>2022-08-27T04:59:00Z</time>
      </trkpt>
      <trkpt lat="45.77254" lon="6.86269">
        <ele>2318</ele>
        <time>2022-08-27T04:59:01Z</time>
      </trkpt>
      <trkpt lat="45.77254" lon="6.86272">
        <ele>2318</ele>
        <time>2022-08-27T04:59:02Z</time>
      </trkpt>
      <trkpt lat="45.77254" lon="6.86275">
        <ele>2318</ele>
        <time>2022-08-27T04:59:03Z</time>
      </trkpt>
      <trkpt lat="45.77254" lon="6.86279">
        <ele>2318</ele>
        <time>2022-08-27T04:59:04Z</time>
      </trkpt>
      <trkpt lat="45.77254" lon="6.86281">
        <ele>2318</ele>
        <time>2022-08-27T04:59:05Z</time>
      </trkpt>
      <trkpt lat="45.77254" lon="6.86284">
        <ele>2318</ele>
        <time>2022-08-27T04:59:06Z</time>
      </trkpt>
      <trkpt lat="45.77254" lon="6.86287">
        <ele>2318</ele>
        <time>2022-08-27T04:59:07Z</time>
      </trkpt>
      <trkpt lat="45.77254" lon="6.8629">
        <ele>2318</ele>
        <time>2022-08-27T04:59:08Z</time>
      </trkpt>
      <trkpt lat="45.77254" lon="6.86293">
        <ele>2318</ele>
        <time>2022-08-27T04:59:09Z</time>
      </trkpt>
      <trkpt lat="45.77254" lon="6.86296">
        <ele>2317</ele>
        <time>2022-08-27T04:59:10Z</time>
      </trkpt>
      <trkpt lat="45.77253" lon="6.86299">
        <ele>2317</ele>
        <time>2022-08-27T04:59:11Z</time>
      </trkpt>
      <trkpt lat="45.77253" lon="6.86303">
        <ele>2317</ele>
        <time>2022-08-27T04:59:12Z</time>
      </trkpt>
      <trkpt lat="45.77253" lon="6.86305">
        <ele>2317</ele>
        <time>2022-08-27T04:59:13Z</time>
      </trkpt>
      <trkpt lat="45.77253" lon="6.86308">
        <ele>2317</ele>
        <time>2022-08-27T04:59:14Z</time>
      </trkpt>
      <trkpt lat="45.77254" lon="6.8631">
        <ele>2318</ele>
        <time>2022-08-27T04:59:15Z</time>
      </trkpt>
      <trkpt lat="45.77254" lon="6.86313">
        <ele>2318</ele>
        <time>2022-08-27T04:59:16Z</time>
      </trkpt>
      <trkpt lat="45.77256" lon="6.86317">
        <ele>2318</ele>
        <time>2022-08-27T04:59:17Z</time>
      </trkpt>
      <trkpt lat="45.77256" lon="6.86319">
        <ele>2318</ele>
        <time>2022-08-27T04:59:18Z</time>
      </trkpt>
      <trkpt lat="45.77257" lon="6.86321">
        <ele>2318</ele>
        <time>2022-08-27T04:59:19Z</time>
      </trkpt>
      <trkpt lat="45.77258" lon="6.86324">
        <ele>2318</ele>
        <time>2022-08-27T04:59:20Z</time>
      </trkpt>
      <trkpt lat="45.77259" lon="6.86326">
        <ele>2318</ele>
        <time>2022-08-27T04:59:21Z</time>
      </trkpt>
      <trkpt lat="45.7726" lon="6.86329">
        <ele>2318</ele>
        <time>2022-08-27T04:59:22Z</time>
      </trkpt>
      <trkpt lat="45.7726" lon="6.86332">
        <ele>2317</ele>
        <time>2022-08-27T04:59:23Z</time>
      </trkpt>
      <trkpt lat="45.77261" lon="6.86334">
        <ele>2318</ele>
        <time>2022-08-27T04:59:24Z</time>
      </trkpt>
      <trkpt lat="45.77262" lon="6.86337">
        <ele>2318</ele>
        <time>2022-08-27T04:59:25Z</time>
      </trkpt>
      <trkpt lat="45.77263" lon="6.8634">
        <ele>2318</ele>
        <time>2022-08-27T04:59:26Z</time>
      </trkpt>
      <trkpt lat="45.77264" lon="6.86342">
        <ele>2318</ele>
        <time>2022-08-27T04:59:27Z</time>
      </trkpt>
      <trkpt lat="45.77265" lon="6.86344">
        <ele>2318</ele>
        <time>2022-08-27T04:59:28Z</time>
      </trkpt>
      <trkpt lat="45.77267" lon="6.86348">
        <ele>2318</ele>
        <time>2022-08-27T04:59:29Z</time>
      </trkpt>
      <trkpt lat="45.77267" lon="6.86349">
        <ele>2318</ele>
        <time>2022-08-27T04:59:30Z</time>
      </trkpt>
      <trkpt lat="45.77268" lon="6.86351">
        <ele>2318</ele>
        <time>2022-08-27T04:59:31Z</time>
      </trkpt>
      <trkpt lat="45.77269" lon="6.86353">
        <ele>2318</ele>
        <time>2022-08-27T04:59:32Z</time>
      </trkpt>
      <trkpt lat="45.7727" lon="6.86355">
        <ele>2318</ele>
        <time>2022-08-27T04:59:33Z</time>
      </trkpt>
      <trkpt lat="45.77271" lon="6.86358">
        <ele>2318</ele>
        <time>2022-08-27T04:59:34Z</time>
      </trkpt>
      <trkpt lat="45.77272" lon="6.86361">
        <ele>2318</ele>
        <time>2022-08-27T04:59:35Z</time>
      </trkpt>
      <trkpt lat="45.77273" lon="6.86363">
        <ele>2318</ele>
        <time>2022-08-27T04:59:36Z</time>
      </trkpt>
      <trkpt lat="45.77274" lon="6.86367">
        <ele>2318</ele>
        <time>2022-08-27T04:59:37Z</time>
      </trkpt>
      <trkpt lat="45.77274" lon="6.86368">
        <ele>2318</ele>
        <time>2022-08-27T04:59:38Z</time>
      </trkpt>
      <trkpt lat="45.77275" lon="6.86371">
        <ele>2318</ele>
        <time>2022-08-27T04:59:39Z</time>
      </trkpt>
      <trkpt lat="45.77276" lon="6.86374">
        <ele>2318</ele>
        <time>2022-08-27T04:59:40Z</time>
      </trkpt>
      <trkpt lat="45.77277" lon="6.86377">
        <ele>2318</ele>
        <time>2022-08-27T04:59:41Z</time>
      </trkpt>
      <trkpt lat="45.77278" lon="6.86383">
        <ele>2318</ele>
        <time>2022-08-27T04:59:43Z</time>
      </trkpt>
      <trkpt lat="45.77279" lon="6.86387">
        <ele>2318</ele>
        <time>2022-08-27T04:59:44Z</time>
      </trkpt>
      <trkpt lat="45.77279" lon="6.86388">
        <ele>2318</ele>
        <time>2022-08-27T04:59:45Z</time>
      </trkpt>
      <trkpt lat="45.7728" lon="6.86392">
        <ele>2318</ele>
        <time>2022-08-27T04:59:46Z</time>
      </trkpt>
      <trkpt lat="45.77281" lon="6.86394">
        <ele>2317</ele>
        <time>2022-08-27T04:59:47Z</time>
      </trkpt>
      <trkpt lat="45.77281" lon="6.86397">
        <ele>2317</ele>
        <time>2022-08-27T04:59:48Z</time>
      </trkpt>
      <trkpt lat="45.77282" lon="6.86399">
        <ele>2317</ele>
        <time>2022-08-27T04:59:49Z</time>
      </trkpt>
      <trkpt lat="45.77283" lon="6.86402">
        <ele>2317</ele>
        <time>2022-08-27T04:59:50Z</time>
      </trkpt>
      <trkpt lat="45.77284" lon="6.86404">
        <ele>2317</ele>
        <time>2022-08-27T04:59:51Z</time>
      </trkpt>
      <trkpt lat="45.77285" lon="6.86406">
        <ele>2317</ele>
        <time>2022-08-27T04:59:53Z</time>
      </trkpt>
      <trkpt lat="45.77286" lon="6.86408">
        <ele>2317</ele>
        <time>2022-08-27T04:59:54Z</time>
      </trkpt>
      <trkpt lat="45.77287" lon="6.8641">
        <ele>2317</ele>
        <time>2022-08-27T04:59:55Z</time>
      </trkpt>
      <trkpt lat="45.77287" lon="6.86412">
        <ele>2317</ele>
        <time>2022-08-27T04:59:57Z</time>
      </trkpt>
      <trkpt lat="45.77288" lon="6.86413">
        <ele>2317</ele>
        <time>2022-08-27T04:59:58Z</time>
      </trkpt>
      <trkpt lat="45.77289" lon="6.86415">
        <ele>2317</ele>
        <time>2022-08-27T04:59:59Z</time>
      </trkpt>
      <trkpt lat="45.77291" lon="6.8642">
        <ele>2317</ele>
        <time>2022-08-27T05:00:01Z</time>
      </trkpt>
      <trkpt lat="45.77292" lon="6.86422">
        <ele>2316</ele>
        <time>2022-08-27T05:00:02Z</time>
      </trkpt>
      <trkpt lat="45.77293" lon="6.86424">
        <ele>2316</ele>
        <time>2022-08-27T05:00:03Z</time>
      </trkpt>
      <trkpt lat="45.77294" lon="6.86426">
        <ele>2317</ele>
        <time>2022-08-27T05:00:04Z</time>
      </trkpt>
      <trkpt lat="45.77295" lon="6.86429">
        <ele>2317</ele>
        <time>2022-08-27T05:00:05Z</time>
      </trkpt>
      <trkpt lat="45.77296" lon="6.86431">
        <ele>2317</ele>
        <time>2022-08-27T05:00:06Z</time>
      </trkpt>
      <trkpt lat="45.77298" lon="6.86434">
        <ele>2317</ele>
        <time>2022-08-27T05:00:07Z</time>
      </trkpt>
      <trkpt lat="45.773" lon="6.86436">
        <ele>2317</ele>
        <time>2022-08-27T05:00:09Z</time>
      </trkpt>
      <trkpt lat="45.77301" lon="6.86439">
        <ele>2317</ele>
        <time>2022-08-27T05:00:10Z</time>
      </trkpt>
      <trkpt lat="45.77302" lon="6.8644">
        <ele>2317</ele>
        <time>2022-08-27T05:00:11Z</time>
      </trkpt>
      <trkpt lat="45.77303" lon="6.86442">
        <ele>2317</ele>
        <time>2022-08-27T05:00:12Z</time>
      </trkpt>
      <trkpt lat="45.77304" lon="6.86443">
        <ele>2317</ele>
        <time>2022-08-27T05:00:14Z</time>
      </trkpt>
      <trkpt lat="45.77305" lon="6.86444">
        <ele>2317</ele>
        <time>2022-08-27T05:00:15Z</time>
      </trkpt>
      <trkpt lat="45.77309" lon="6.8645">
        <ele>2317</ele>
        <time>2022-08-27T05:00:16Z</time>
      </trkpt>
      <trkpt lat="45.7731" lon="6.86451">
        <ele>2317</ele>
        <time>2022-08-27T05:00:17Z</time>
      </trkpt>
      <trkpt lat="45.77311" lon="6.86451">
        <ele>2317</ele>
        <time>2022-08-27T05:00:19Z</time>
      </trkpt>
      <trkpt lat="45.77311" lon="6.86451">
        <ele>2317</ele>
        <time>2022-08-27T05:00:20Z</time>
      </trkpt>
      <trkpt lat="45.77312" lon="6.86452">
        <ele>2317</ele>
        <time>2022-08-27T05:00:21Z</time>
      </trkpt>
      <trkpt lat="45.77321" lon="6.86457">
        <ele>2317</ele>
        <time>2022-08-27T05:00:23Z</time>
      </trkpt>
      <trkpt lat="45.77323" lon="6.86458">
        <ele>2317</ele>
        <time>2022-08-27T05:00:24Z</time>
      </trkpt>
      <trkpt lat="45.77325" lon="6.86459">
        <ele>2317</ele>
        <time>2022-08-27T05:00:25Z</time>
      </trkpt>
      <trkpt lat="45.77327" lon="6.86461">
        <ele>2317</ele>
        <time>2022-08-27T05:00:26Z</time>
      </trkpt>
      <trkpt lat="45.77329" lon="6.86462">
        <ele>2317</ele>
        <time>2022-08-27T05:00:27Z</time>
      </trkpt>
      <trkpt lat="45.77331" lon="6.86463">
        <ele>2316</ele>
        <time>2022-08-27T05:00:28Z</time>
      </trkpt>
      <trkpt lat="45.77332" lon="6.86463">
        <ele>2316</ele>
        <time>2022-08-27T05:00:29Z</time>
      </trkpt>
      <trkpt lat="45.77334" lon="6.86464">
        <ele>2317</ele>
        <time>2022-08-27T05:00:30Z</time>
      </trkpt>
      <trkpt lat="45.77336" lon="6.86465">
        <ele>2317</ele>
        <time>2022-08-27T05:00:31Z</time>
      </trkpt>
      <trkpt lat="45.77338" lon="6.86466">
        <ele>2317</ele>
        <time>2022-08-27T05:00:32Z</time>
      </trkpt>
      <trkpt lat="45.77341" lon="6.86468">
        <ele>2317</ele>
        <time>2022-08-27T05:00:34Z</time>
      </trkpt>
      <trkpt lat="45.77343" lon="6.8647">
        <ele>2317</ele>
        <time>2022-08-27T05:00:35Z</time>
      </trkpt>
      <trkpt lat="45.77346" lon="6.86473">
        <ele>2317</ele>
        <time>2022-08-27T05:00:36Z</time>
      </trkpt>
      <trkpt lat="45.77355" lon="6.86477">
        <ele>2316</ele>
        <time>2022-08-27T05:00:40Z</time>
      </trkpt>
      <trkpt lat="45.77355" lon="6.86477">
        <ele>2316</ele>
        <time>2022-08-27T05:00:42Z</time>
      </trkpt>
      <trkpt lat="45.77355" lon="6.86477">
        <ele>2316</ele>
        <time>2022-08-27T05:00:44Z</time>
      </trkpt>
      <trkpt lat="45.77356" lon="6.86477">
        <ele>2316</ele>
        <time>2022-08-27T05:00:46Z</time>
      </trkpt>
      <trkpt lat="45.77356" lon="6.86477">
        <ele>2316</ele>
        <time>2022-08-27T05:00:47Z</time>
      </trkpt>
      <trkpt lat="45.77356" lon="6.86477">
        <ele>2316</ele>
        <time>2022-08-27T05:00:48Z</time>
      </trkpt>
      <trkpt lat="45.77357" lon="6.86476">
        <ele>2316</ele>
        <time>2022-08-27T05:00:49Z</time>
      </trkpt>
      <trkpt lat="45.77357" lon="6.86476">
        <ele>2316</ele>
        <time>2022-08-27T05:00:51Z</time>
      </trkpt>
      <trkpt lat="45.77357" lon="6.86476">
        <ele>2316</ele>
        <time>2022-08-27T05:00:52Z</time>
      </trkpt>
      <trkpt lat="45.77358" lon="6.86476">
        <ele>2316</ele>
        <time>2022-08-27T05:00:53Z</time>
      </trkpt>
      <trkpt lat="45.77358" lon="6.86476">
        <ele>2316</ele>
        <time>2022-08-27T05:00:54Z</time>
      </trkpt>
      <trkpt lat="45.77358" lon="6.86476">
        <ele>2316</ele>
        <time>2022-08-27T05:00:55Z</time>
      </trkpt>
      <trkpt lat="45.77359" lon="6.86476">
        <ele>2316</ele>
        <time>2022-08-27T05:00:56Z</time>
      </trkpt>
      <trkpt lat="45.77359" lon="6.86476">
        <ele>2316</ele>
        <time>2022-08-27T05:00:57Z</time>
      </trkpt>
      <trkpt lat="45.77359" lon="6.86476">
        <ele>2317</ele>
        <time>2022-08-27T05:00:58Z</time>
      </trkpt>
      <trkpt lat="45.7736" lon="6.86476">
        <ele>2317</ele>
        <time>2022-08-27T05:00:59Z</time>
      </trkpt>
      <trkpt lat="45.77361" lon="6.8648">
        <ele>2316</ele>
        <time>2022-08-27T05:01:12Z</time>
      </trkpt>
      <trkpt lat="45.77362" lon="6.86481">
        <ele>2316</ele>
        <time>2022-08-27T05:01:13Z</time>
      </trkpt>
      <trkpt lat="45.77364" lon="6.86483">
        <ele>2316</ele>
        <time>2022-08-27T05:01:14Z</time>
      </trkpt>
      <trkpt lat="45.77365" lon="6.86484">
        <ele>2316</ele>
        <time>2022-08-27T05:01:15Z</time>
      </trkpt>
      <trkpt lat="45.77366" lon="6.86487">
        <ele>2316</ele>
        <time>2022-08-27T05:01:17Z</time>
      </trkpt>
      <trkpt lat="45.77368" lon="6.8649">
        <ele>2316</ele>
        <time>2022-08-27T05:01:19Z</time>
      </trkpt>
      <trkpt lat="45.77369" lon="6.86493">
        <ele>2316</ele>
        <time>2022-08-27T05:01:21Z</time>
      </trkpt>
      <trkpt lat="45.77371" lon="6.86497">
        <ele>2316</ele>
        <time>2022-08-27T05:01:23Z</time>
      </trkpt>
      <trkpt lat="45.77373" lon="6.865">
        <ele>2315</ele>
        <time>2022-08-27T05:01:25Z</time>
      </trkpt>
      <trkpt lat="45.77376" lon="6.86505">
        <ele>2316</ele>
        <time>2022-08-27T05:01:27Z</time>
      </trkpt>
      <trkpt lat="45.77377" lon="6.86507">
        <ele>2316</ele>
        <time>2022-08-27T05:01:28Z</time>
      </trkpt>
      <trkpt lat="45.77378" lon="6.8651">
        <ele>2316</ele>
        <time>2022-08-27T05:01:29Z</time>
      </trkpt>
      <trkpt lat="45.77382" lon="6.86518">
        <ele>2316</ele>
        <time>2022-08-27T05:01:32Z</time>
      </trkpt>
      <trkpt lat="45.77383" lon="6.86522">
        <ele>2316</ele>
        <time>2022-08-27T05:01:33Z</time>
      </trkpt>
      <trkpt lat="45.77384" lon="6.86525">
        <ele>2316</ele>
        <time>2022-08-27T05:01:34Z</time>
      </trkpt>
      <trkpt lat="45.77386" lon="6.86528">
        <ele>2316</ele>
        <time>2022-08-27T05:01:35Z</time>
      </trkpt>
      <trkpt lat="45.77387" lon="6.86532">
        <ele>2316</ele>
        <time>2022-08-27T05:01:36Z</time>
      </trkpt>
      <trkpt lat="45.77387" lon="6.86534">
        <ele>2316</ele>
        <time>2022-08-27T05:01:37Z</time>
      </trkpt>
      <trkpt lat="45.77388" lon="6.86537">
        <ele>2316</ele>
        <time>2022-08-27T05:01:38Z</time>
      </trkpt>
      <trkpt lat="45.77388" lon="6.8654">
        <ele>2316</ele>
        <time>2022-08-27T05:01:39Z</time>
      </trkpt>
      <trkpt lat="45.77388" lon="6.86545">
        <ele>2316</ele>
        <time>2022-08-27T05:01:40Z</time>
      </trkpt>
      <trkpt lat="45.77388" lon="6.86547">
        <ele>2316</ele>
        <time>2022-08-27T05:01:41Z</time>
      </trkpt>
      <trkpt lat="45.77389" lon="6.86551">
        <ele>2316</ele>
        <time>2022-08-27T05:01:42Z</time>
      </trkpt>
      <trkpt lat="45.77389" lon="6.86553">
        <ele>2316</ele>
        <time>2022-08-27T05:01:43Z</time>
      </trkpt>
      <trkpt lat="45.7739" lon="6.86558">
        <ele>2316</ele>
        <time>2022-08-27T05:01:44Z</time>
      </trkpt>
      <trkpt lat="45.7739" lon="6.8656">
        <ele>2316</ele>
        <time>2022-08-27T05:01:45Z</time>
      </trkpt>
      <trkpt lat="45.7739" lon="6.86563">
        <ele>2316</ele>
        <time>2022-08-27T05:01:46Z</time>
      </trkpt>
      <trkpt lat="45.7739" lon="6.86566">
        <ele>2316</ele>
        <time>2022-08-27T05:01:47Z</time>
      </trkpt>
      <trkpt lat="45.77391" lon="6.86569">
        <ele>2316</ele>
        <time>2022-08-27T05:01:48Z</time>
      </trkpt>
      <trkpt lat="45.77391" lon="6.86573">
        <ele>2315</ele>
        <time>2022-08-27T05:01:50Z</time>
      </trkpt>
      <trkpt lat="45.77391" lon="6.86576">
        <ele>2315</ele>
        <time>2022-08-27T05:01:51Z</time>
      </trkpt>
      <trkpt lat="45.77392" lon="6.8658">
        <ele>2315</ele>
        <time>2022-08-27T05:01:52Z</time>
      </trkpt>
      <trkpt lat="45.77392" lon="6.86582">
        <ele>2315</ele>
        <time>2022-08-27T05:01:53Z</time>
      </trkpt>
      <trkpt lat="45.77392" lon="6.86585">
        <ele>2316</ele>
        <time>2022-08-27T05:01:55Z</time>
      </trkpt>
      <trkpt lat="45.77392" lon="6.86587">
        <ele>2316</ele>
        <time>2022-08-27T05:01:56Z</time>
      </trkpt>
      <trkpt lat="45.77392" lon="6.8659">
        <ele>2316</ele>
        <time>2022-08-27T05:01:57Z</time>
      </trkpt>
      <trkpt lat="45.77392" lon="6.86593">
        <ele>2316</ele>
        <time>2022-08-27T05:01:58Z</time>
      </trkpt>
      <trkpt lat="45.7739" lon="6.86607">
        <ele>2316</ele>
        <time>2022-08-27T05:02:03Z</time>
      </trkpt>
      <trkpt lat="45.77389" lon="6.86609">
        <ele>2316</ele>
        <time>2022-08-27T05:02:04Z</time>
      </trkpt>
      <trkpt lat="45.77389" lon="6.86612">
        <ele>2317</ele>
        <time>2022-08-27T05:02:05Z</time>
      </trkpt>
      <trkpt lat="45.77388" lon="6.86615">
        <ele>2317</ele>
        <time>2022-08-27T05:02:06Z</time>
      </trkpt>
      <trkpt lat="45.77388" lon="6.86618">
        <ele>2317</ele>
        <time>2022-08-27T05:02:08Z</time>
      </trkpt>
      <trkpt lat="45.77388" lon="6.8662">
        <ele>2317</ele>
        <time>2022-08-27T05:02:09Z</time>
      </trkpt>
      <trkpt lat="45.77388" lon="6.86622">
        <ele>2317</ele>
        <time>2022-08-27T05:02:10Z</time>
      </trkpt>
      <trkpt lat="45.77388" lon="6.86625">
        <ele>2317</ele>
        <time>2022-08-27T05:02:11Z</time>
      </trkpt>
      <trkpt lat="45.77388" lon="6.86627">
        <ele>2317</ele>
        <time>2022-08-27T05:02:13Z</time>
      </trkpt>
      <trkpt lat="45.77388" lon="6.86629">
        <ele>2317</ele>
        <time>2022-08-27T05:02:15Z</time>
      </trkpt>
      <trkpt lat="45.77388" lon="6.86631">
        <ele>2317</ele>
        <time>2022-08-27T05:02:16Z</time>
      </trkpt>
      <trkpt lat="45.77389" lon="6.86633">
        <ele>2317</ele>
        <time>2022-08-27T05:02:17Z</time>
      </trkpt>
      <trkpt lat="45.77389" lon="6.86635">
        <ele>2318</ele>
        <time>2022-08-27T05:02:18Z</time>
      </trkpt>
      <trkpt lat="45.7739" lon="6.86637">
        <ele>2318</ele>
        <time>2022-08-27T05:02:20Z</time>
      </trkpt>
      <trkpt lat="45.7739" lon="6.8664">
        <ele>2319</ele>
        <time>2022-08-27T05:02:21Z</time>
      </trkpt>
      <trkpt lat="45.77391" lon="6.86642">
        <ele>2319</ele>
        <time>2022-08-27T05:02:22Z</time>
      </trkpt>
      <trkpt lat="45.77392" lon="6.86644">
        <ele>2320</ele>
        <time>2022-08-27T05:02:23Z</time>
      </trkpt>
      <trkpt lat="45.77392" lon="6.86646">
        <ele>2319</ele>
        <time>2022-08-27T05:02:25Z</time>
      </trkpt>
      <trkpt lat="45.77392" lon="6.86648">
        <ele>2319</ele>
        <time>2022-08-27T05:02:27Z</time>
      </trkpt>
      <trkpt lat="45.77393" lon="6.8665">
        <ele>2319</ele>
        <time>2022-08-27T05:02:28Z</time>
      </trkpt>
      <trkpt lat="45.77393" lon="6.86652">
        <ele>2320</ele>
        <time>2022-08-27T05:02:30Z</time>
      </trkpt>
      <trkpt lat="45.77394" lon="6.86655">
        <ele>2320</ele>
        <time>2022-08-27T05:02:31Z</time>
      </trkpt>
      <trkpt lat="45.77394" lon="6.86657">
        <ele>2320</ele>
        <time>2022-08-27T05:02:32Z</time>
      </trkpt>
      <trkpt lat="45.77395" lon="6.86659">
        <ele>2320</ele>
        <time>2022-08-27T05:02:33Z</time>
      </trkpt>
      <trkpt lat="45.77396" lon="6.86662">
        <ele>2320</ele>
        <time>2022-08-27T05:02:34Z</time>
      </trkpt>
      <trkpt lat="45.77397" lon="6.86664">
        <ele>2320</ele>
        <time>2022-08-27T05:02:36Z</time>
      </trkpt>
      <trkpt lat="45.77398" lon="6.86666">
        <ele>2320</ele>
        <time>2022-08-27T05:02:37Z</time>
      </trkpt>
      <trkpt lat="45.77399" lon="6.86669">
        <ele>2320</ele>
        <time>2022-08-27T05:02:38Z</time>
      </trkpt>
      <trkpt lat="45.77401" lon="6.86672">
        <ele>2320</ele>
        <time>2022-08-27T05:02:40Z</time>
      </trkpt>
      <trkpt lat="45.77402" lon="6.86675">
        <ele>2320</ele>
        <time>2022-08-27T05:02:41Z</time>
      </trkpt>
      <trkpt lat="45.77403" lon="6.86677">
        <ele>2320</ele>
        <time>2022-08-27T05:02:43Z</time>
      </trkpt>
      <trkpt lat="45.77404" lon="6.8668">
        <ele>2320</ele>
        <time>2022-08-27T05:02:44Z</time>
      </trkpt>
      <trkpt lat="45.77405" lon="6.86683">
        <ele>2320</ele>
        <time>2022-08-27T05:02:45Z</time>
      </trkpt>
      <trkpt lat="45.77406" lon="6.86686">
        <ele>2320</ele>
        <time>2022-08-27T05:02:46Z</time>
      </trkpt>
      <trkpt lat="45.77408" lon="6.86688">
        <ele>2321</ele>
        <time>2022-08-27T05:02:48Z</time>
      </trkpt>
      <trkpt lat="45.77409" lon="6.86691">
        <ele>2321</ele>
        <time>2022-08-27T05:02:49Z</time>
      </trkpt>
      <trkpt lat="45.7741" lon="6.86693">
        <ele>2321</ele>
        <time>2022-08-27T05:02:50Z</time>
      </trkpt>
      <trkpt lat="45.77411" lon="6.86696">
        <ele>2320</ele>
        <time>2022-08-27T05:02:51Z</time>
      </trkpt>
      <trkpt lat="45.77411" lon="6.86699">
        <ele>2320</ele>
        <time>2022-08-27T05:02:52Z</time>
      </trkpt>
      <trkpt lat="45.77412" lon="6.86702">
        <ele>2320</ele>
        <time>2022-08-27T05:02:53Z</time>
      </trkpt>
      <trkpt lat="45.77412" lon="6.86705">
        <ele>2320</ele>
        <time>2022-08-27T05:02:54Z</time>
      </trkpt>
      <trkpt lat="45.77413" lon="6.86708">
        <ele>2320</ele>
        <time>2022-08-27T05:02:55Z</time>
      </trkpt>
      <trkpt lat="45.77414" lon="6.8671">
        <ele>2320</ele>
        <time>2022-08-27T05:02:56Z</time>
      </trkpt>
      <trkpt lat="45.77416" lon="6.86712">
        <ele>2320</ele>
        <time>2022-08-27T05:02:57Z</time>
      </trkpt>
      <trkpt lat="45.77417" lon="6.86714">
        <ele>2320</ele>
        <time>2022-08-27T05:02:58Z</time>
      </trkpt>
      <trkpt lat="45.77418" lon="6.86716">
        <ele>2320</ele>
        <time>2022-08-27T05:02:59Z</time>
      </trkpt>
      <trkpt lat="45.7742" lon="6.86718">
        <ele>2320</ele>
        <time>2022-08-27T05:03:00Z</time>
      </trkpt>
      <trkpt lat="45.77421" lon="6.8672">
        <ele>2319</ele>
        <time>2022-08-27T05:03:02Z</time>
      </trkpt>
      <trkpt lat="45.77422" lon="6.86722">
        <ele>2320</ele>
        <time>2022-08-27T05:03:03Z</time>
      </trkpt>
      <trkpt lat="45.77423" lon="6.86724">
        <ele>2320</ele>
        <time>2022-08-27T05:03:04Z</time>
      </trkpt>
      <trkpt lat="45.77428" lon="6.86731">
        <ele>2320</ele>
        <time>2022-08-27T05:03:05Z</time>
      </trkpt>
      <trkpt lat="45.77429" lon="6.86733">
        <ele>2320</ele>
        <time>2022-08-27T05:03:07Z</time>
      </trkpt>
      <trkpt lat="45.7743" lon="6.86735">
        <ele>2320</ele>
        <time>2022-08-27T05:03:08Z</time>
      </trkpt>
      <trkpt lat="45.77432" lon="6.86737">
        <ele>2320</ele>
        <time>2022-08-27T05:03:09Z</time>
      </trkpt>
      <trkpt lat="45.77433" lon="6.86739">
        <ele>2320</ele>
        <time>2022-08-27T05:03:10Z</time>
      </trkpt>
      <trkpt lat="45.77435" lon="6.86742">
        <ele>2320</ele>
        <time>2022-08-27T05:03:12Z</time>
      </trkpt>
      <trkpt lat="45.77437" lon="6.86745">
        <ele>2320</ele>
        <time>2022-08-27T05:03:14Z</time>
      </trkpt>
      <trkpt lat="45.77439" lon="6.86748">
        <ele>2320</ele>
        <time>2022-08-27T05:03:15Z</time>
      </trkpt>
      <trkpt lat="45.77441" lon="6.86752">
        <ele>2320</ele>
        <time>2022-08-27T05:03:16Z</time>
      </trkpt>
      <trkpt lat="45.77442" lon="6.86754">
        <ele>2320</ele>
        <time>2022-08-27T05:03:17Z</time>
      </trkpt>
      <trkpt lat="45.77443" lon="6.86756">
        <ele>2320</ele>
        <time>2022-08-27T05:03:18Z</time>
      </trkpt>
      <trkpt lat="45.77445" lon="6.86759">
        <ele>2320</ele>
        <time>2022-08-27T05:03:19Z</time>
      </trkpt>
      <trkpt lat="45.77446" lon="6.86761">
        <ele>2320</ele>
        <time>2022-08-27T05:03:20Z</time>
      </trkpt>
      <trkpt lat="45.77447" lon="6.86763">
        <ele>2320</ele>
        <time>2022-08-27T05:03:21Z</time>
      </trkpt>
      <trkpt lat="45.77448" lon="6.86765">
        <ele>2320</ele>
        <time>2022-08-27T05:03:22Z</time>
      </trkpt>
      <trkpt lat="45.77449" lon="6.86768">
        <ele>2320</ele>
        <time>2022-08-27T05:03:23Z</time>
      </trkpt>
      <trkpt lat="45.77451" lon="6.8677">
        <ele>2320</ele>
        <time>2022-08-27T05:03:24Z</time>
      </trkpt>
      <trkpt lat="45.77452" lon="6.86772">
        <ele>2320</ele>
        <time>2022-08-27T05:03:25Z</time>
      </trkpt>
      <trkpt lat="45.77453" lon="6.86774">
        <ele>2320</ele>
        <time>2022-08-27T05:03:26Z</time>
      </trkpt>
      <trkpt lat="45.77454" lon="6.86776">
        <ele>2320</ele>
        <time>2022-08-27T05:03:27Z</time>
      </trkpt>
      <trkpt lat="45.77455" lon="6.86779">
        <ele>2320</ele>
        <time>2022-08-27T05:03:28Z</time>
      </trkpt>
      <trkpt lat="45.77456" lon="6.86781">
        <ele>2320</ele>
        <time>2022-08-27T05:03:29Z</time>
      </trkpt>
      <trkpt lat="45.77456" lon="6.86784">
        <ele>2320</ele>
        <time>2022-08-27T05:03:30Z</time>
      </trkpt>
      <trkpt lat="45.77457" lon="6.86786">
        <ele>2320</ele>
        <time>2022-08-27T05:03:31Z</time>
      </trkpt>
      <trkpt lat="45.77459" lon="6.86789">
        <ele>2320</ele>
        <time>2022-08-27T05:03:33Z</time>
      </trkpt>
      <trkpt lat="45.7746" lon="6.86792">
        <ele>2320</ele>
        <time>2022-08-27T05:03:35Z</time>
      </trkpt>
      <trkpt lat="45.77462" lon="6.86795">
        <ele>2320</ele>
        <time>2022-08-27T05:03:36Z</time>
      </trkpt>
      <trkpt lat="45.77464" lon="6.86797">
        <ele>2320</ele>
        <time>2022-08-27T05:03:37Z</time>
      </trkpt>
      <trkpt lat="45.77466" lon="6.86801">
        <ele>2320</ele>
        <time>2022-08-27T05:03:38Z</time>
      </trkpt>
      <trkpt lat="45.77468" lon="6.86804">
        <ele>2320</ele>
        <time>2022-08-27T05:03:40Z</time>
      </trkpt>
      <trkpt lat="45.7747" lon="6.86808">
        <ele>2321</ele>
        <time>2022-08-27T05:03:41Z</time>
      </trkpt>
      <trkpt lat="45.77473" lon="6.86813">
        <ele>2320</ele>
        <time>2022-08-27T05:03:43Z</time>
      </trkpt>
      <trkpt lat="45.77476" lon="6.86818">
        <ele>2320</ele>
        <time>2022-08-27T05:03:44Z</time>
      </trkpt>
      <trkpt lat="45.77477" lon="6.86821">
        <ele>2320</ele>
        <time>2022-08-27T05:03:45Z</time>
      </trkpt>
      <trkpt lat="45.77478" lon="6.86823">
        <ele>2320</ele>
        <time>2022-08-27T05:03:46Z</time>
      </trkpt>
      <trkpt lat="45.7748" lon="6.86826">
        <ele>2320</ele>
        <time>2022-08-27T05:03:48Z</time>
      </trkpt>
      <trkpt lat="45.77481" lon="6.86829">
        <ele>2320</ele>
        <time>2022-08-27T05:03:49Z</time>
      </trkpt>
      <trkpt lat="45.77482" lon="6.8683">
        <ele>2320</ele>
        <time>2022-08-27T05:03:50Z</time>
      </trkpt>
      <trkpt lat="45.77483" lon="6.86832">
        <ele>2320</ele>
        <time>2022-08-27T05:03:52Z</time>
      </trkpt>
      <trkpt lat="45.77484" lon="6.86834">
        <ele>2320</ele>
        <time>2022-08-27T05:03:53Z</time>
      </trkpt>
      <trkpt lat="45.77485" lon="6.86835">
        <ele>2320</ele>
        <time>2022-08-27T05:03:54Z</time>
      </trkpt>
      <trkpt lat="45.77486" lon="6.86837">
        <ele>2320</ele>
        <time>2022-08-27T05:03:55Z</time>
      </trkpt>
      <trkpt lat="45.77487" lon="6.86839">
        <ele>2320</ele>
        <time>2022-08-27T05:03:56Z</time>
      </trkpt>
      <trkpt lat="45.77488" lon="6.86841">
        <ele>2320</ele>
        <time>2022-08-27T05:03:57Z</time>
      </trkpt>
      <trkpt lat="45.77488" lon="6.86844">
        <ele>2320</ele>
        <time>2022-08-27T05:03:58Z</time>
      </trkpt>
      <trkpt lat="45.77489" lon="6.86847">
        <ele>2320</ele>
        <time>2022-08-27T05:03:59Z</time>
      </trkpt>
      <trkpt lat="45.77489" lon="6.8685">
        <ele>2320</ele>
        <time>2022-08-27T05:04:00Z</time>
      </trkpt>
      <trkpt lat="45.7749" lon="6.86852">
        <ele>2321</ele>
        <time>2022-08-27T05:04:01Z</time>
      </trkpt>
      <trkpt lat="45.77491" lon="6.86855">
        <ele>2321</ele>
        <time>2022-08-27T05:04:02Z</time>
      </trkpt>
      <trkpt lat="45.77492" lon="6.86858">
        <ele>2321</ele>
        <time>2022-08-27T05:04:03Z</time>
      </trkpt>
      <trkpt lat="45.77494" lon="6.8686">
        <ele>2321</ele>
        <time>2022-08-27T05:04:04Z</time>
      </trkpt>
      <trkpt lat="45.77495" lon="6.86863">
        <ele>2321</ele>
        <time>2022-08-27T05:04:05Z</time>
      </trkpt>
      <trkpt lat="45.77496" lon="6.86865">
        <ele>2321</ele>
        <time>2022-08-27T05:04:06Z</time>
      </trkpt>
      <trkpt lat="45.77497" lon="6.86869">
        <ele>2321</ele>
        <time>2022-08-27T05:04:07Z</time>
      </trkpt>
      <trkpt lat="45.77498" lon="6.86872">
        <ele>2321</ele>
        <time>2022-08-27T05:04:09Z</time>
      </trkpt>
      <trkpt lat="45.77498" lon="6.86875">
        <ele>2321</ele>
        <time>2022-08-27T05:04:10Z</time>
      </trkpt>
      <trkpt lat="45.77499" lon="6.86878">
        <ele>2321</ele>
        <time>2022-08-27T05:04:11Z</time>
      </trkpt>
      <trkpt lat="45.77501" lon="6.86883">
        <ele>2320</ele>
        <time>2022-08-27T05:04:13Z</time>
      </trkpt>
      <trkpt lat="45.77502" lon="6.86887">
        <ele>2321</ele>
        <time>2022-08-27T05:04:14Z</time>
      </trkpt>
      <trkpt lat="45.77504" lon="6.86891">
        <ele>2321</ele>
        <time>2022-08-27T05:04:15Z</time>
      </trkpt>
      <trkpt lat="45.77508" lon="6.86904">
        <ele>2321</ele>
        <time>2022-08-27T05:04:20Z</time>
      </trkpt>
      <trkpt lat="45.77509" lon="6.86906">
        <ele>2321</ele>
        <time>2022-08-27T05:04:21Z</time>
      </trkpt>
      <trkpt lat="45.7751" lon="6.86909">
        <ele>2321</ele>
        <time>2022-08-27T05:04:22Z</time>
      </trkpt>
      <trkpt lat="45.77511" lon="6.86911">
        <ele>2321</ele>
        <time>2022-08-27T05:04:23Z</time>
      </trkpt>
      <trkpt lat="45.77511" lon="6.86913">
        <ele>2321</ele>
        <time>2022-08-27T05:04:24Z</time>
      </trkpt>
      <trkpt lat="45.77512" lon="6.86915">
        <ele>2321</ele>
        <time>2022-08-27T05:04:25Z</time>
      </trkpt>
      <trkpt lat="45.77513" lon="6.86918">
        <ele>2321</ele>
        <time>2022-08-27T05:04:26Z</time>
      </trkpt>
      <trkpt lat="45.77514" lon="6.86921">
        <ele>2321</ele>
        <time>2022-08-27T05:04:27Z</time>
      </trkpt>
      <trkpt lat="45.77515" lon="6.86924">
        <ele>2321</ele>
        <time>2022-08-27T05:04:28Z</time>
      </trkpt>
      <trkpt lat="45.77516" lon="6.86926">
        <ele>2321</ele>
        <time>2022-08-27T05:04:29Z</time>
      </trkpt>
      <trkpt lat="45.77516" lon="6.86929">
        <ele>2321</ele>
        <time>2022-08-27T05:04:30Z</time>
      </trkpt>
      <trkpt lat="45.77519" lon="6.86942">
        <ele>2321</ele>
        <time>2022-08-27T05:04:35Z</time>
      </trkpt>
      <trkpt lat="45.77521" lon="6.86944">
        <ele>2321</ele>
        <time>2022-08-27T05:04:36Z</time>
      </trkpt>
      <trkpt lat="45.77522" lon="6.86946">
        <ele>2321</ele>
        <time>2022-08-27T05:04:37Z</time>
      </trkpt>
      <trkpt lat="45.77523" lon="6.86948">
        <ele>2321</ele>
        <time>2022-08-27T05:04:38Z</time>
      </trkpt>
      <trkpt lat="45.77525" lon="6.8695">
        <ele>2321</ele>
        <time>2022-08-27T05:04:39Z</time>
      </trkpt>
      <trkpt lat="45.77526" lon="6.86952">
        <ele>2321</ele>
        <time>2022-08-27T05:04:40Z</time>
      </trkpt>
      <trkpt lat="45.77527" lon="6.86954">
        <ele>2321</ele>
        <time>2022-08-27T05:04:41Z</time>
      </trkpt>
      <trkpt lat="45.77528" lon="6.86957">
        <ele>2321</ele>
        <time>2022-08-27T05:04:42Z</time>
      </trkpt>
      <trkpt lat="45.77529" lon="6.86959">
        <ele>2321</ele>
        <time>2022-08-27T05:04:43Z</time>
      </trkpt>
      <trkpt lat="45.7753" lon="6.86961">
        <ele>2321</ele>
        <time>2022-08-27T05:04:44Z</time>
      </trkpt>
      <trkpt lat="45.77532" lon="6.86964">
        <ele>2321</ele>
        <time>2022-08-27T05:04:45Z</time>
      </trkpt>
      <trkpt lat="45.77536" lon="6.86976">
        <ele>2321</ele>
        <time>2022-08-27T05:04:49Z</time>
      </trkpt>
      <trkpt lat="45.77536" lon="6.86979">
        <ele>2322</ele>
        <time>2022-08-27T05:04:51Z</time>
      </trkpt>
      <trkpt lat="45.77537" lon="6.86982">
        <ele>2321</ele>
        <time>2022-08-27T05:04:52Z</time>
      </trkpt>
      <trkpt lat="45.77538" lon="6.86985">
        <ele>2321</ele>
        <time>2022-08-27T05:04:53Z</time>
      </trkpt>
      <trkpt lat="45.77539" lon="6.86988">
        <ele>2321</ele>
        <time>2022-08-27T05:04:54Z</time>
      </trkpt>
      <trkpt lat="45.7754" lon="6.8699">
        <ele>2321</ele>
        <time>2022-08-27T05:04:56Z</time>
      </trkpt>
      <trkpt lat="45.7754" lon="6.86991">
        <ele>2321</ele>
        <time>2022-08-27T05:04:57Z</time>
      </trkpt>
      <trkpt lat="45.7754" lon="6.86992">
        <ele>2321</ele>
        <time>2022-08-27T05:04:58Z</time>
      </trkpt>
      <trkpt lat="45.7754" lon="6.86993">
        <ele>2321</ele>
        <time>2022-08-27T05:04:59Z</time>
      </trkpt>
      <trkpt lat="45.77541" lon="6.86995">
        <ele>2321</ele>
        <time>2022-08-27T05:05:01Z</time>
      </trkpt>
      <trkpt lat="45.77541" lon="6.86996">
        <ele>2321</ele>
        <time>2022-08-27T05:05:02Z</time>
      </trkpt>
      <trkpt lat="45.77541" lon="6.86997">
        <ele>2321</ele>
        <time>2022-08-27T05:05:03Z</time>
      </trkpt>
      <trkpt lat="45.77541" lon="6.86998">
        <ele>2321</ele>
        <time>2022-08-27T05:05:04Z</time>
      </trkpt>
      <trkpt lat="45.77542" lon="6.87">
        <ele>2321</ele>
        <time>2022-08-27T05:05:05Z</time>
      </trkpt>
      <trkpt lat="45.77542" lon="6.87001">
        <ele>2321</ele>
        <time>2022-08-27T05:05:06Z</time>
      </trkpt>
      <trkpt lat="45.77543" lon="6.87015">
        <ele>2326</ele>
        <time>2022-08-27T05:05:17Z</time>
      </trkpt>
      <trkpt lat="45.77544" lon="6.87016">
        <ele>2326</ele>
        <time>2022-08-27T05:05:18Z</time>
      </trkpt>
      <trkpt lat="45.77544" lon="6.87018">
        <ele>2326</ele>
        <time>2022-08-27T05:05:19Z</time>
      </trkpt>
      <trkpt lat="45.77545" lon="6.87019">
        <ele>2326</ele>
        <time>2022-08-27T05:05:20Z</time>
      </trkpt>
      <trkpt lat="45.77546" lon="6.87021">
        <ele>2326</ele>
        <time>2022-08-27T05:05:22Z</time>
      </trkpt>
      <trkpt lat="45.77546" lon="6.87022">
        <ele>2326</ele>
        <time>2022-08-27T05:05:23Z</time>
      </trkpt>
      <trkpt lat="45.77547" lon="6.87024">
        <ele>2326</ele>
        <time>2022-08-27T05:05:24Z</time>
      </trkpt>
      <trkpt lat="45.77548" lon="6.87026">
        <ele>2327</ele>
        <time>2022-08-27T05:05:25Z</time>
      </trkpt>
      <trkpt lat="45.77548" lon="6.87028">
        <ele>2327</ele>
        <time>2022-08-27T05:05:27Z</time>
      </trkpt>
      <trkpt lat="45.77548" lon="6.8703">
        <ele>2327</ele>
        <time>2022-08-27T05:05:28Z</time>
      </trkpt>
      <trkpt lat="45.77547" lon="6.87032">
        <ele>2328</ele>
        <time>2022-08-27T05:05:29Z</time>
      </trkpt>
      <trkpt lat="45.77547" lon="6.87035">
        <ele>2328</ele>
        <time>2022-08-27T05:05:30Z</time>
      </trkpt>
      <trkpt lat="45.77547" lon="6.87037">
        <ele>2328</ele>
        <time>2022-08-27T05:05:32Z</time>
      </trkpt>
      <trkpt lat="45.77547" lon="6.87039">
        <ele>2328</ele>
        <time>2022-08-27T05:05:33Z</time>
      </trkpt>
      <trkpt lat="45.77547" lon="6.87041">
        <ele>2328</ele>
        <time>2022-08-27T05:05:34Z</time>
      </trkpt>
      <trkpt lat="45.77547" lon="6.87043">
        <ele>2329</ele>
        <time>2022-08-27T05:05:35Z</time>
      </trkpt>
      <trkpt lat="45.77548" lon="6.87045">
        <ele>2329</ele>
        <time>2022-08-27T05:05:37Z</time>
      </trkpt>
      <trkpt lat="45.77548" lon="6.87046">
        <ele>2329</ele>
        <time>2022-08-27T05:05:38Z</time>
      </trkpt>
      <trkpt lat="45.77548" lon="6.87048">
        <ele>2329</ele>
        <time>2022-08-27T05:05:39Z</time>
      </trkpt>
      <trkpt lat="45.77548" lon="6.8705">
        <ele>2329</ele>
        <time>2022-08-27T05:05:40Z</time>
      </trkpt>
      <trkpt lat="45.77548" lon="6.87052">
        <ele>2329</ele>
        <time>2022-08-27T05:05:42Z</time>
      </trkpt>
      <trkpt lat="45.77548" lon="6.87053">
        <ele>2330</ele>
        <time>2022-08-27T05:05:43Z</time>
      </trkpt>
      <trkpt lat="45.77548" lon="6.87055">
        <ele>2330</ele>
        <time>2022-08-27T05:05:44Z</time>
      </trkpt>
      <trkpt lat="45.77548" lon="6.87056">
        <ele>2330</ele>
        <time>2022-08-27T05:05:46Z</time>
      </trkpt>
      <trkpt lat="45.77548" lon="6.87057">
        <ele>2330</ele>
        <time>2022-08-27T05:05:47Z</time>
      </trkpt>
      <trkpt lat="45.77548" lon="6.87058">
        <ele>2330</ele>
        <time>2022-08-27T05:05:48Z</time>
      </trkpt>
      <trkpt lat="45.77548" lon="6.8706">
        <ele>2332</ele>
        <time>2022-08-27T05:05:50Z</time>
      </trkpt>
      <trkpt lat="45.77548" lon="6.87061">
        <ele>2332</ele>
        <time>2022-08-27T05:05:51Z</time>
      </trkpt>
      <trkpt lat="45.77548" lon="6.87062">
        <ele>2332</ele>
        <time>2022-08-27T05:05:52Z</time>
      </trkpt>
      <trkpt lat="45.77548" lon="6.87063">
        <ele>2332</ele>
        <time>2022-08-27T05:05:53Z</time>
      </trkpt>
      <trkpt lat="45.77548" lon="6.87065">
        <ele>2333</ele>
        <time>2022-08-27T05:05:55Z</time>
      </trkpt>
      <trkpt lat="45.77549" lon="6.87066">
        <ele>2333</ele>
        <time>2022-08-27T05:05:56Z</time>
      </trkpt>
      <trkpt lat="45.77549" lon="6.87067">
        <ele>2333</ele>
        <time>2022-08-27T05:05:57Z</time>
      </trkpt>
      <trkpt lat="45.77549" lon="6.87069">
        <ele>2333</ele>
        <time>2022-08-27T05:05:58Z</time>
      </trkpt>
      <trkpt lat="45.77549" lon="6.87071">
        <ele>2333</ele>
        <time>2022-08-27T05:05:59Z</time>
      </trkpt>
      <trkpt lat="45.77549" lon="6.87072">
        <ele>2333</ele>
        <time>2022-08-27T05:06:00Z</time>
      </trkpt>
      <trkpt lat="45.77549" lon="6.87074">
        <ele>2334</ele>
        <time>2022-08-27T05:06:02Z</time>
      </trkpt>
      <trkpt lat="45.77549" lon="6.87076">
        <ele>2335</ele>
        <time>2022-08-27T05:06:03Z</time>
      </trkpt>
      <trkpt lat="45.77549" lon="6.87077">
        <ele>2335</ele>
        <time>2022-08-27T05:06:05Z</time>
      </trkpt>
      <trkpt lat="45.77549" lon="6.87079">
        <ele>2335</ele>
        <time>2022-08-27T05:06:06Z</time>
      </trkpt>
      <trkpt lat="45.77549" lon="6.87081">
        <ele>2336</ele>
        <time>2022-08-27T05:06:07Z</time>
      </trkpt>
      <trkpt lat="45.77552" lon="6.87094">
        <ele>2337</ele>
        <time>2022-08-27T05:06:17Z</time>
      </trkpt>
      <trkpt lat="45.77552" lon="6.87096">
        <ele>2337</ele>
        <time>2022-08-27T05:06:18Z</time>
      </trkpt>
      <trkpt lat="45.77552" lon="6.87098">
        <ele>2337</ele>
        <time>2022-08-27T05:06:19Z</time>
      </trkpt>
      <trkpt lat="45.77552" lon="6.87099">
        <ele>2337</ele>
        <time>2022-08-27T05:06:20Z</time>
      </trkpt>
      <trkpt lat="45.77552" lon="6.87101">
        <ele>2338</ele>
        <time>2022-08-27T05:06:22Z</time>
      </trkpt>
      <trkpt lat="45.77552" lon="6.87103">
        <ele>2338</ele>
        <time>2022-08-27T05:06:24Z</time>
      </trkpt>
      <trkpt lat="45.77552" lon="6.87104">
        <ele>2338</ele>
        <time>2022-08-27T05:06:26Z</time>
      </trkpt>
      <trkpt lat="45.77552" lon="6.87106">
        <ele>2338</ele>
        <time>2022-08-27T05:06:27Z</time>
      </trkpt>
      <trkpt lat="45.77552" lon="6.87107">
        <ele>2338</ele>
        <time>2022-08-27T05:06:28Z</time>
      </trkpt>
      <trkpt lat="45.77553" lon="6.8712">
        <ele>2341</ele>
        <time>2022-08-27T05:06:38Z</time>
      </trkpt>
      <trkpt lat="45.77554" lon="6.87122">
        <ele>2341</ele>
        <time>2022-08-27T05:06:39Z</time>
      </trkpt>
      <trkpt lat="45.77554" lon="6.87123">
        <ele>2341</ele>
        <time>2022-08-27T05:06:40Z</time>
      </trkpt>
      <trkpt lat="45.77555" lon="6.87124">
        <ele>2341</ele>
        <time>2022-08-27T05:06:41Z</time>
      </trkpt>
      <trkpt lat="45.77555" lon="6.87125">
        <ele>2341</ele>
        <time>2022-08-27T05:06:43Z</time>
      </trkpt>
      <trkpt lat="45.77555" lon="6.87127">
        <ele>2341</ele>
        <time>2022-08-27T05:06:45Z</time>
      </trkpt>
      <trkpt lat="45.77556" lon="6.87128">
        <ele>2342</ele>
        <time>2022-08-27T05:06:46Z</time>
      </trkpt>
      <trkpt lat="45.77556" lon="6.87129">
        <ele>2342</ele>
        <time>2022-08-27T05:06:47Z</time>
      </trkpt>
      <trkpt lat="45.77556" lon="6.8713">
        <ele>2342</ele>
        <time>2022-08-27T05:06:48Z</time>
      </trkpt>
      <trkpt lat="45.77557" lon="6.87132">
        <ele>2342</ele>
        <time>2022-08-27T05:06:50Z</time>
      </trkpt>
      <trkpt lat="45.77557" lon="6.87133">
        <ele>2343</ele>
        <time>2022-08-27T05:06:51Z</time>
      </trkpt>
      <trkpt lat="45.77557" lon="6.87134">
        <ele>2343</ele>
        <time>2022-08-27T05:06:52Z</time>
      </trkpt>
      <trkpt lat="45.77557" lon="6.87136">
        <ele>2343</ele>
        <time>2022-08-27T05:06:53Z</time>
      </trkpt>
      <trkpt lat="45.77557" lon="6.87137">
        <ele>2344</ele>
        <time>2022-08-27T05:06:54Z</time>
      </trkpt>
      <trkpt lat="45.77557" lon="6.87139">
        <ele>2344</ele>
        <time>2022-08-27T05:06:56Z</time>
      </trkpt>
      <trkpt lat="45.77557" lon="6.8714">
        <ele>2344</ele>
        <time>2022-08-27T05:06:58Z</time>
      </trkpt>
      <trkpt lat="45.77557" lon="6.87142">
        <ele>2344</ele>
        <time>2022-08-27T05:06:59Z</time>
      </trkpt>
      <trkpt lat="45.77557" lon="6.87143">
        <ele>2344</ele>
        <time>2022-08-27T05:07:00Z</time>
      </trkpt>
      <trkpt lat="45.77557" lon="6.87145">
        <ele>2344</ele>
        <time>2022-08-27T05:07:02Z</time>
      </trkpt>
      <trkpt lat="45.77557" lon="6.87146">
        <ele>2344</ele>
        <time>2022-08-27T05:07:03Z</time>
      </trkpt>
      <trkpt lat="45.77559" lon="6.87159">
        <ele>2346</ele>
        <time>2022-08-27T05:07:12Z</time>
      </trkpt>
      <trkpt lat="45.7756" lon="6.8716">
        <ele>2346</ele>
        <time>2022-08-27T05:07:13Z</time>
      </trkpt>
      <trkpt lat="45.77561" lon="6.87161">
        <ele>2346</ele>
        <time>2022-08-27T05:07:14Z</time>
      </trkpt>
      <trkpt lat="45.77562" lon="6.87163">
        <ele>2346</ele>
        <time>2022-08-27T05:07:15Z</time>
      </trkpt>
      <trkpt lat="45.77563" lon="6.87164">
        <ele>2347</ele>
        <time>2022-08-27T05:07:17Z</time>
      </trkpt>
      <trkpt lat="45.77564" lon="6.87165">
        <ele>2347</ele>
        <time>2022-08-27T05:07:18Z</time>
      </trkpt>
      <trkpt lat="45.77564" lon="6.87166">
        <ele>2347</ele>
        <time>2022-08-27T05:07:19Z</time>
      </trkpt>
      <trkpt lat="45.77565" lon="6.87168">
        <ele>2348</ele>
        <time>2022-08-27T05:07:21Z</time>
      </trkpt>
      <trkpt lat="45.77566" lon="6.87169">
        <ele>2348</ele>
        <time>2022-08-27T05:07:22Z</time>
      </trkpt>
      <trkpt lat="45.77566" lon="6.8717">
        <ele>2348</ele>
        <time>2022-08-27T05:07:23Z</time>
      </trkpt>
      <trkpt lat="45.77566" lon="6.87171">
        <ele>2349</ele>
        <time>2022-08-27T05:07:25Z</time>
      </trkpt>
      <trkpt lat="45.77566" lon="6.87172">
        <ele>2349</ele>
        <time>2022-08-27T05:07:26Z</time>
      </trkpt>
      <trkpt lat="45.77566" lon="6.87173">
        <ele>2349</ele>
        <time>2022-08-27T05:07:27Z</time>
      </trkpt>
      <trkpt lat="45.77566" lon="6.87174">
        <ele>2349</ele>
        <time>2022-08-27T05:07:28Z</time>
      </trkpt>
      <trkpt lat="45.77566" lon="6.87175">
        <ele>2350</ele>
        <time>2022-08-27T05:07:30Z</time>
      </trkpt>
      <trkpt lat="45.77566" lon="6.87176">
        <ele>2350</ele>
        <time>2022-08-27T05:07:31Z</time>
      </trkpt>
      <trkpt lat="45.77566" lon="6.87177">
        <ele>2350</ele>
        <time>2022-08-27T05:07:32Z</time>
      </trkpt>
      <trkpt lat="45.77566" lon="6.87178">
        <ele>2352</ele>
        <time>2022-08-27T05:07:33Z</time>
      </trkpt>
      <trkpt lat="45.77566" lon="6.87179">
        <ele>2352</ele>
        <time>2022-08-27T05:07:34Z</time>
      </trkpt>
      <trkpt lat="45.77566" lon="6.8718">
        <ele>2352</ele>
        <time>2022-08-27T05:07:35Z</time>
      </trkpt>
      <trkpt lat="45.77564" lon="6.87182">
        <ele>2352</ele>
        <time>2022-08-27T05:07:37Z</time>
      </trkpt>
      <trkpt lat="45.77562" lon="6.87183">
        <ele>2352</ele>
        <time>2022-08-27T05:07:39Z</time>
      </trkpt>
      <trkpt lat="45.77559" lon="6.87185">
        <ele>2354</ele>
        <time>2022-08-27T05:07:43Z</time>
      </trkpt>
      <trkpt lat="45.77558" lon="6.87185">
        <ele>2354</ele>
        <time>2022-08-27T05:07:44Z</time>
      </trkpt>
      <trkpt lat="45.77556" lon="6.87185">
        <ele>2354</ele>
        <time>2022-08-27T05:07:45Z</time>
      </trkpt>
      <trkpt lat="45.77555" lon="6.87185">
        <ele>2354</ele>
        <time>2022-08-27T05:07:47Z</time>
      </trkpt>
      <trkpt lat="45.77553" lon="6.87185">
        <ele>2355</ele>
        <time>2022-08-27T05:07:48Z</time>
      </trkpt>
      <trkpt lat="45.7755" lon="6.87186">
        <ele>2355</ele>
        <time>2022-08-27T05:07:50Z</time>
      </trkpt>
      <trkpt lat="45.77546" lon="6.87187">
        <ele>2355</ele>
        <time>2022-08-27T05:07:52Z</time>
      </trkpt>
      <trkpt lat="45.77543" lon="6.87187">
        <ele>2355</ele>
        <time>2022-08-27T05:07:54Z</time>
      </trkpt>
      <trkpt lat="45.77541" lon="6.87188">
        <ele>2355</ele>
        <time>2022-08-27T05:07:55Z</time>
      </trkpt>
      <trkpt lat="45.77539" lon="6.87189">
        <ele>2355</ele>
        <time>2022-08-27T05:07:56Z</time>
      </trkpt>
      <trkpt lat="45.77538" lon="6.8719">
        <ele>2355</ele>
        <time>2022-08-27T05:07:58Z</time>
      </trkpt>
      <trkpt lat="45.77536" lon="6.87191">
        <ele>2355</ele>
        <time>2022-08-27T05:07:59Z</time>
      </trkpt>
      <trkpt lat="45.77534" lon="6.87192">
        <ele>2355</ele>
        <time>2022-08-27T05:08:01Z</time>
      </trkpt>
      <trkpt lat="45.77534" lon="6.87192">
        <ele>2355</ele>
        <time>2022-08-27T05:08:22Z</time>
      </trkpt>
      <trkpt lat="45.77532" lon="6.87193">
        <ele>2356</ele>
        <time>2022-08-27T05:08:41Z</time>
      </trkpt>
      <trkpt lat="45.7753" lon="6.87195">
        <ele>2356</ele>
        <time>2022-08-27T05:08:43Z</time>
      </trkpt>
      <trkpt lat="45.77527" lon="6.87197">
        <ele>2356</ele>
        <time>2022-08-27T05:08:45Z</time>
      </trkpt>
      <trkpt lat="45.77526" lon="6.87199">
        <ele>2357</ele>
        <time>2022-08-27T05:08:47Z</time>
      </trkpt>
      <trkpt lat="45.77525" lon="6.87203">
        <ele>2357</ele>
        <time>2022-08-27T05:08:49Z</time>
      </trkpt>
      <trkpt lat="45.77523" lon="6.87205">
        <ele>2357</ele>
        <time>2022-08-27T05:08:51Z</time>
      </trkpt>
      <trkpt lat="45.77521" lon="6.87207">
        <ele>2357</ele>
        <time>2022-08-27T05:08:53Z</time>
      </trkpt>
      <trkpt lat="45.77519" lon="6.87209">
        <ele>2357</ele>
        <time>2022-08-27T05:08:55Z</time>
      </trkpt>
      <trkpt lat="45.77518" lon="6.87211">
        <ele>2357</ele>
        <time>2022-08-27T05:08:57Z</time>
      </trkpt>
      <trkpt lat="45.77516" lon="6.87214">
        <ele>2358</ele>
        <time>2022-08-27T05:08:59Z</time>
      </trkpt>
      <trkpt lat="45.77514" lon="6.87216">
        <ele>2358</ele>
        <time>2022-08-27T05:09:01Z</time>
      </trkpt>
      <trkpt lat="45.77513" lon="6.87218">
        <ele>2358</ele>
        <time>2022-08-27T05:09:03Z</time>
      </trkpt>
      <trkpt lat="45.77512" lon="6.87221">
        <ele>2359</ele>
        <time>2022-08-27T05:09:05Z</time>
      </trkpt>
      <trkpt lat="45.77512" lon="6.87224">
        <ele>2359</ele>
        <time>2022-08-27T05:09:07Z</time>
      </trkpt>
      <trkpt lat="45.77511" lon="6.87226">
        <ele>2360</ele>
        <time>2022-08-27T05:09:09Z</time>
      </trkpt>
      <trkpt lat="45.7751" lon="6.87229">
        <ele>2360</ele>
        <time>2022-08-27T05:09:11Z</time>
      </trkpt>
      <trkpt lat="45.77509" lon="6.87232">
        <ele>2361</ele>
        <time>2022-08-27T05:09:13Z</time>
      </trkpt>
      <trkpt lat="45.77508" lon="6.87235">
        <ele>2362</ele>
        <time>2022-08-27T05:09:16Z</time>
      </trkpt>
      <trkpt lat="45.77507" lon="6.87237">
        <ele>2362</ele>
        <time>2022-08-27T05:09:17Z</time>
      </trkpt>
      <trkpt lat="45.77507" lon="6.87238">
        <ele>2362</ele>
        <time>2022-08-27T05:09:19Z</time>
      </trkpt>
      <trkpt lat="45.77506" lon="6.87239">
        <ele>2363</ele>
        <time>2022-08-27T05:09:20Z</time>
      </trkpt>
      <trkpt lat="45.77506" lon="6.87241">
        <ele>2363</ele>
        <time>2022-08-27T05:09:21Z</time>
      </trkpt>
      <trkpt lat="45.77505" lon="6.87242">
        <ele>2363</ele>
        <time>2022-08-27T05:09:22Z</time>
      </trkpt>
      <trkpt lat="45.77505" lon="6.87243">
        <ele>2363</ele>
        <time>2022-08-27T05:09:23Z</time>
      </trkpt>
      <trkpt lat="45.77504" lon="6.87245">
        <ele>2363</ele>
        <time>2022-08-27T05:09:24Z</time>
      </trkpt>
      <trkpt lat="45.77503" lon="6.87248">
        <ele>2364</ele>
        <time>2022-08-27T05:09:26Z</time>
      </trkpt>
      <trkpt lat="45.77502" lon="6.87251">
        <ele>2365</ele>
        <time>2022-08-27T05:09:29Z</time>
      </trkpt>
      <trkpt lat="45.775" lon="6.87254">
        <ele>2365</ele>
        <time>2022-08-27T05:09:31Z</time>
      </trkpt>
      <trkpt lat="45.77498" lon="6.8726">
        <ele>2366</ele>
        <time>2022-08-27T05:09:36Z</time>
      </trkpt>
      <trkpt lat="45.77497" lon="6.87262">
        <ele>2367</ele>
        <time>2022-08-27T05:09:38Z</time>
      </trkpt>
      <trkpt lat="45.77496" lon="6.87265">
        <ele>2367</ele>
        <time>2022-08-27T05:09:41Z</time>
      </trkpt>
      <trkpt lat="45.77495" lon="6.87269">
        <ele>2368</ele>
        <time>2022-08-27T05:09:44Z</time>
      </trkpt>
      <trkpt lat="45.77495" lon="6.87272">
        <ele>2369</ele>
        <time>2022-08-27T05:09:47Z</time>
      </trkpt>
      <trkpt lat="45.77495" lon="6.87275">
        <ele>2369</ele>
        <time>2022-08-27T05:09:49Z</time>
      </trkpt>
      <trkpt lat="45.77495" lon="6.87278">
        <ele>2370</ele>
        <time>2022-08-27T05:09:52Z</time>
      </trkpt>
      <trkpt lat="45.77494" lon="6.8728">
        <ele>2371</ele>
        <time>2022-08-27T05:09:55Z</time>
      </trkpt>
      <trkpt lat="45.77494" lon="6.87282">
        <ele>2371</ele>
        <time>2022-08-27T05:09:56Z</time>
      </trkpt>
      <trkpt lat="45.77494" lon="6.87284">
        <ele>2371</ele>
        <time>2022-08-27T05:09:57Z</time>
      </trkpt>
      <trkpt lat="45.77494" lon="6.87286">
        <ele>2371</ele>
        <time>2022-08-27T05:09:58Z</time>
      </trkpt>
      <trkpt lat="45.77494" lon="6.87288">
        <ele>2371</ele>
        <time>2022-08-27T05:10:00Z</time>
      </trkpt>
      <trkpt lat="45.77493" lon="6.8729">
        <ele>2371</ele>
        <time>2022-08-27T05:10:02Z</time>
      </trkpt>
      <trkpt lat="45.77493" lon="6.87292">
        <ele>2372</ele>
        <time>2022-08-27T05:10:03Z</time>
      </trkpt>
      <trkpt lat="45.77493" lon="6.87295">
        <ele>2372</ele>
        <time>2022-08-27T05:10:05Z</time>
      </trkpt>
      <trkpt lat="45.77494" lon="6.87298">
        <ele>2373</ele>
        <time>2022-08-27T05:10:09Z</time>
      </trkpt>
      <trkpt lat="45.77494" lon="6.87301">
        <ele>2373</ele>
        <time>2022-08-27T05:10:11Z</time>
      </trkpt>
      <trkpt lat="45.77494" lon="6.87304">
        <ele>2374</ele>
        <time>2022-08-27T05:10:13Z</time>
      </trkpt>
      <trkpt lat="45.77494" lon="6.87308">
        <ele>2373</ele>
        <time>2022-08-27T05:10:16Z</time>
      </trkpt>
      <trkpt lat="45.77494" lon="6.87311">
        <ele>2374</ele>
        <time>2022-08-27T05:10:19Z</time>
      </trkpt>
      <trkpt lat="45.77495" lon="6.87314">
        <ele>2375</ele>
        <time>2022-08-27T05:10:22Z</time>
      </trkpt>
      <trkpt lat="45.77495" lon="6.87318">
        <ele>2376</ele>
        <time>2022-08-27T05:10:25Z</time>
      </trkpt>
      <trkpt lat="45.77494" lon="6.87321">
        <ele>2376</ele>
        <time>2022-08-27T05:10:27Z</time>
      </trkpt>
      <trkpt lat="45.77493" lon="6.87323">
        <ele>2376</ele>
        <time>2022-08-27T05:10:29Z</time>
      </trkpt>
      <trkpt lat="45.77493" lon="6.87326">
        <ele>2376</ele>
        <time>2022-08-27T05:10:31Z</time>
      </trkpt>
      <trkpt lat="45.77492" lon="6.87329">
        <ele>2378</ele>
        <time>2022-08-27T05:10:34Z</time>
      </trkpt>
      <trkpt lat="45.77491" lon="6.87332">
        <ele>2379</ele>
        <time>2022-08-27T05:10:37Z</time>
      </trkpt>
      <trkpt lat="45.7749" lon="6.87335">
        <ele>2379</ele>
        <time>2022-08-27T05:10:39Z</time>
      </trkpt>
      <trkpt lat="45.7749" lon="6.87339">
        <ele>2380</ele>
        <time>2022-08-27T05:10:41Z</time>
      </trkpt>
      <trkpt lat="45.7749" lon="6.87342">
        <ele>2380</ele>
        <time>2022-08-27T05:10:43Z</time>
      </trkpt>
      <trkpt lat="45.77489" lon="6.87345">
        <ele>2380</ele>
        <time>2022-08-27T05:10:45Z</time>
      </trkpt>
      <trkpt lat="45.77489" lon="6.87348">
        <ele>2381</ele>
        <time>2022-08-27T05:10:47Z</time>
      </trkpt>
      <trkpt lat="45.77489" lon="6.87351">
        <ele>2382</ele>
        <time>2022-08-27T05:10:49Z</time>
      </trkpt>
      <trkpt lat="45.77489" lon="6.87354">
        <ele>2382</ele>
        <time>2022-08-27T05:10:51Z</time>
      </trkpt>
      <trkpt lat="45.77489" lon="6.87357">
        <ele>2383</ele>
        <time>2022-08-27T05:10:53Z</time>
      </trkpt>
      <trkpt lat="45.77489" lon="6.8736">
        <ele>2383</ele>
        <time>2022-08-27T05:10:55Z</time>
      </trkpt>
      <trkpt lat="45.77489" lon="6.87362">
        <ele>2383</ele>
        <time>2022-08-27T05:10:57Z</time>
      </trkpt>
      <trkpt lat="45.77488" lon="6.87366">
        <ele>2384</ele>
        <time>2022-08-27T05:11:00Z</time>
      </trkpt>
      <trkpt lat="45.77487" lon="6.87368">
        <ele>2385</ele>
        <time>2022-08-27T05:11:02Z</time>
      </trkpt>
      <trkpt lat="45.77486" lon="6.8737">
        <ele>2385</ele>
        <time>2022-08-27T05:11:04Z</time>
      </trkpt>
      <trkpt lat="45.77485" lon="6.87372">
        <ele>2385</ele>
        <time>2022-08-27T05:11:06Z</time>
      </trkpt>
      <trkpt lat="45.77483" lon="6.87375">
        <ele>2386</ele>
        <time>2022-08-27T05:11:09Z</time>
      </trkpt>
      <trkpt lat="45.77482" lon="6.87377">
        <ele>2386</ele>
        <time>2022-08-27T05:11:11Z</time>
      </trkpt>
      <trkpt lat="45.77481" lon="6.8738">
        <ele>2386</ele>
        <time>2022-08-27T05:11:13Z</time>
      </trkpt>
      <trkpt lat="45.7748" lon="6.87382">
        <ele>2387</ele>
        <time>2022-08-27T05:11:15Z</time>
      </trkpt>
      <trkpt lat="45.77478" lon="6.87384">
        <ele>2387</ele>
        <time>2022-08-27T05:11:17Z</time>
      </trkpt>
      <trkpt lat="45.77477" lon="6.87387">
        <ele>2388</ele>
        <time>2022-08-27T05:11:19Z</time>
      </trkpt>
      <trkpt lat="45.77476" lon="6.8739">
        <ele>2388</ele>
        <time>2022-08-27T05:11:21Z</time>
      </trkpt>
      <trkpt lat="45.77476" lon="6.87392">
        <ele>2388</ele>
        <time>2022-08-27T05:11:23Z</time>
      </trkpt>
      <trkpt lat="45.77475" lon="6.87395">
        <ele>2388</ele>
        <time>2022-08-27T05:11:25Z</time>
      </trkpt>
      <trkpt lat="45.77474" lon="6.87398">
        <ele>2389</ele>
        <time>2022-08-27T05:11:27Z</time>
      </trkpt>
      <trkpt lat="45.77474" lon="6.874">
        <ele>2389</ele>
        <time>2022-08-27T05:11:29Z</time>
      </trkpt>
      <trkpt lat="45.77473" lon="6.87403">
        <ele>2389</ele>
        <time>2022-08-27T05:11:32Z</time>
      </trkpt>
      <trkpt lat="45.77473" lon="6.87406">
        <ele>2390</ele>
        <time>2022-08-27T05:11:34Z</time>
      </trkpt>
      <trkpt lat="45.77472" lon="6.87409">
        <ele>2390</ele>
        <time>2022-08-27T05:11:36Z</time>
      </trkpt>
      <trkpt lat="45.77472" lon="6.87412">
        <ele>2390</ele>
        <time>2022-08-27T05:11:38Z</time>
      </trkpt>
      <trkpt lat="45.77471" lon="6.87414">
        <ele>2391</ele>
        <time>2022-08-27T05:11:40Z</time>
      </trkpt>
      <trkpt lat="45.7747" lon="6.87417">
        <ele>2391</ele>
        <time>2022-08-27T05:11:42Z</time>
      </trkpt>
      <trkpt lat="45.77469" lon="6.8742">
        <ele>2391</ele>
        <time>2022-08-27T05:11:44Z</time>
      </trkpt>
      <trkpt lat="45.77469" lon="6.87422">
        <ele>2391</ele>
        <time>2022-08-27T05:11:46Z</time>
      </trkpt>
      <trkpt lat="45.77468" lon="6.87425">
        <ele>2391</ele>
        <time>2022-08-27T05:11:48Z</time>
      </trkpt>
      <trkpt lat="45.77467" lon="6.87427">
        <ele>2392</ele>
        <time>2022-08-27T05:11:50Z</time>
      </trkpt>
      <trkpt lat="45.77466" lon="6.8743">
        <ele>2393</ele>
        <time>2022-08-27T05:11:52Z</time>
      </trkpt>
      <trkpt lat="45.77465" lon="6.87432">
        <ele>2393</ele>
        <time>2022-08-27T05:11:54Z</time>
      </trkpt>
      <trkpt lat="45.77465" lon="6.87436">
        <ele>2394</ele>
        <time>2022-08-27T05:11:57Z</time>
      </trkpt>
      <trkpt lat="45.77465" lon="6.8744">
        <ele>2394</ele>
        <time>2022-08-27T05:12:00Z</time>
      </trkpt>
      <trkpt lat="45.77464" lon="6.87442">
        <ele>2394</ele>
        <time>2022-08-27T05:12:02Z</time>
      </trkpt>
      <trkpt lat="45.77463" lon="6.87445">
        <ele>2395</ele>
        <time>2022-08-27T05:12:04Z</time>
      </trkpt>
      <trkpt lat="45.77462" lon="6.87448">
        <ele>2395</ele>
        <time>2022-08-27T05:12:07Z</time>
      </trkpt>
      <trkpt lat="45.77461" lon="6.87451">
        <ele>2396</ele>
        <time>2022-08-27T05:12:10Z</time>
      </trkpt>
      <trkpt lat="45.7746" lon="6.87454">
        <ele>2398</ele>
        <time>2022-08-27T05:12:13Z</time>
      </trkpt>
      <trkpt lat="45.77459" lon="6.87457">
        <ele>2398</ele>
        <time>2022-08-27T05:12:15Z</time>
      </trkpt>
      <trkpt lat="45.77458" lon="6.87459">
        <ele>2398</ele>
        <time>2022-08-27T05:12:17Z</time>
      </trkpt>
      <trkpt lat="45.77458" lon="6.87462">
        <ele>2399</ele>
        <time>2022-08-27T05:12:20Z</time>
      </trkpt>
      <trkpt lat="45.77458" lon="6.87466">
        <ele>2399</ele>
        <time>2022-08-27T05:12:23Z</time>
      </trkpt>
      <trkpt lat="45.77457" lon="6.87469">
        <ele>2399</ele>
        <time>2022-08-27T05:12:25Z</time>
      </trkpt>
      <trkpt lat="45.77456" lon="6.87471">
        <ele>2400</ele>
        <time>2022-08-27T05:12:27Z</time>
      </trkpt>
      <trkpt lat="45.77456" lon="6.87475">
        <ele>2400</ele>
        <time>2022-08-27T05:12:30Z</time>
      </trkpt>
      <trkpt lat="45.77454" lon="6.87477">
        <ele>2401</ele>
        <time>2022-08-27T05:12:33Z</time>
      </trkpt>
      <trkpt lat="45.77453" lon="6.87479">
        <ele>2402</ele>
        <time>2022-08-27T05:12:37Z</time>
      </trkpt>
      <trkpt lat="45.77453" lon="6.87482">
        <ele>2402</ele>
        <time>2022-08-27T05:12:39Z</time>
      </trkpt>
      <trkpt lat="45.77453" lon="6.87484">
        <ele>2402</ele>
        <time>2022-08-27T05:12:41Z</time>
      </trkpt>
      <trkpt lat="45.77452" lon="6.87486">
        <ele>2402</ele>
        <time>2022-08-27T05:12:42Z</time>
      </trkpt>
      <trkpt lat="45.77452" lon="6.87488">
        <ele>2402</ele>
        <time>2022-08-27T05:12:44Z</time>
      </trkpt>
      <trkpt lat="45.77452" lon="6.87491">
        <ele>2404</ele>
        <time>2022-08-27T05:12:46Z</time>
      </trkpt>
      <trkpt lat="45.77452" lon="6.87493">
        <ele>2405</ele>
        <time>2022-08-27T05:12:48Z</time>
      </trkpt>
      <trkpt lat="45.77451" lon="6.87495">
        <ele>2405</ele>
        <time>2022-08-27T05:12:49Z</time>
      </trkpt>
      <trkpt lat="45.77452" lon="6.87496">
        <ele>2405</ele>
        <time>2022-08-27T05:12:50Z</time>
      </trkpt>
      <trkpt lat="45.77452" lon="6.87498">
        <ele>2405</ele>
        <time>2022-08-27T05:12:51Z</time>
      </trkpt>
      <trkpt lat="45.77452" lon="6.87499">
        <ele>2405</ele>
        <time>2022-08-27T05:12:53Z</time>
      </trkpt>
      <trkpt lat="45.77452" lon="6.875">
        <ele>2405</ele>
        <time>2022-08-27T05:12:54Z</time>
      </trkpt>
      <trkpt lat="45.77452" lon="6.87502">
        <ele>2405</ele>
        <time>2022-08-27T05:12:55Z</time>
      </trkpt>
      <trkpt lat="45.77452" lon="6.87503">
        <ele>2406</ele>
        <time>2022-08-27T05:12:56Z</time>
      </trkpt>
      <trkpt lat="45.77452" lon="6.87504">
        <ele>2407</ele>
        <time>2022-08-27T05:12:58Z</time>
      </trkpt>
      <trkpt lat="45.77452" lon="6.87505">
        <ele>2407</ele>
        <time>2022-08-27T05:12:59Z</time>
      </trkpt>
      <trkpt lat="45.77452" lon="6.87507">
        <ele>2407</ele>
        <time>2022-08-27T05:13:00Z</time>
      </trkpt>
      <trkpt lat="45.77453" lon="6.87508">
        <ele>2407</ele>
        <time>2022-08-27T05:13:01Z</time>
      </trkpt>
      <trkpt lat="45.77453" lon="6.87509">
        <ele>2407</ele>
        <time>2022-08-27T05:13:03Z</time>
      </trkpt>
      <trkpt lat="45.77453" lon="6.8751">
        <ele>2408</ele>
        <time>2022-08-27T05:13:05Z</time>
      </trkpt>
      <trkpt lat="45.77453" lon="6.87511">
        <ele>2408</ele>
        <time>2022-08-27T05:13:06Z</time>
      </trkpt>
      <trkpt lat="45.77453" lon="6.87513">
        <ele>2408</ele>
        <time>2022-08-27T05:13:07Z</time>
      </trkpt>
      <trkpt lat="45.77453" lon="6.87514">
        <ele>2408</ele>
        <time>2022-08-27T05:13:08Z</time>
      </trkpt>
      <trkpt lat="45.77453" lon="6.87515">
        <ele>2409</ele>
        <time>2022-08-27T05:13:10Z</time>
      </trkpt>
      <trkpt lat="45.77453" lon="6.87516">
        <ele>2409</ele>
        <time>2022-08-27T05:13:11Z</time>
      </trkpt>
      <trkpt lat="45.77453" lon="6.87517">
        <ele>2409</ele>
        <time>2022-08-27T05:13:12Z</time>
      </trkpt>
      <trkpt lat="45.77453" lon="6.87518">
        <ele>2409</ele>
        <time>2022-08-27T05:13:13Z</time>
      </trkpt>
      <trkpt lat="45.77453" lon="6.87519">
        <ele>2409</ele>
        <time>2022-08-27T05:13:14Z</time>
      </trkpt>
      <trkpt lat="45.77453" lon="6.87521">
        <ele>2409</ele>
        <time>2022-08-27T05:13:15Z</time>
      </trkpt>
      <trkpt lat="45.77453" lon="6.87522">
        <ele>2409</ele>
        <time>2022-08-27T05:13:16Z</time>
      </trkpt>
      <trkpt lat="45.77454" lon="6.87534">
        <ele>2412</ele>
        <time>2022-08-27T05:13:26Z</time>
      </trkpt>
      <trkpt lat="45.77455" lon="6.87536">
        <ele>2412</ele>
        <time>2022-08-27T05:13:27Z</time>
      </trkpt>
      <trkpt lat="45.77455" lon="6.87537">
        <ele>2412</ele>
        <time>2022-08-27T05:13:28Z</time>
      </trkpt>
      <trkpt lat="45.77455" lon="6.87539">
        <ele>2412</ele>
        <time>2022-08-27T05:13:29Z</time>
      </trkpt>
      <trkpt lat="45.77456" lon="6.8754">
        <ele>2413</ele>
        <time>2022-08-27T05:13:31Z</time>
      </trkpt>
      <trkpt lat="45.77456" lon="6.87541">
        <ele>2413</ele>
        <time>2022-08-27T05:13:32Z</time>
      </trkpt>
      <trkpt lat="45.77456" lon="6.87543">
        <ele>2413</ele>
        <time>2022-08-27T05:13:33Z</time>
      </trkpt>
      <trkpt lat="45.77456" lon="6.87544">
        <ele>2413</ele>
        <time>2022-08-27T05:13:34Z</time>
      </trkpt>
      <trkpt lat="45.77457" lon="6.87546">
        <ele>2413</ele>
        <time>2022-08-27T05:13:36Z</time>
      </trkpt>
      <trkpt lat="45.77457" lon="6.87547">
        <ele>2414</ele>
        <time>2022-08-27T05:13:37Z</time>
      </trkpt>
      <trkpt lat="45.77457" lon="6.87548">
        <ele>2414</ele>
        <time>2022-08-27T05:13:38Z</time>
      </trkpt>
      <trkpt lat="45.77458" lon="6.8755">
        <ele>2414</ele>
        <time>2022-08-27T05:13:39Z</time>
      </trkpt>
      <trkpt lat="45.77458" lon="6.87551">
        <ele>2414</ele>
        <time>2022-08-27T05:13:41Z</time>
      </trkpt>
      <trkpt lat="45.77458" lon="6.87552">
        <ele>2414</ele>
        <time>2022-08-27T05:13:43Z</time>
      </trkpt>
      <trkpt lat="45.77459" lon="6.87554">
        <ele>2414</ele>
        <time>2022-08-27T05:13:44Z</time>
      </trkpt>
      <trkpt lat="45.77459" lon="6.87555">
        <ele>2415</ele>
        <time>2022-08-27T05:13:45Z</time>
      </trkpt>
      <trkpt lat="45.7746" lon="6.87556">
        <ele>2415</ele>
        <time>2022-08-27T05:13:46Z</time>
      </trkpt>
      <trkpt lat="45.7746" lon="6.87557">
        <ele>2415</ele>
        <time>2022-08-27T05:13:48Z</time>
      </trkpt>
      <trkpt lat="45.7746" lon="6.87559">
        <ele>2415</ele>
        <time>2022-08-27T05:13:49Z</time>
      </trkpt>
      <trkpt lat="45.77461" lon="6.8756">
        <ele>2415</ele>
        <time>2022-08-27T05:13:50Z</time>
      </trkpt>
      <trkpt lat="45.77461" lon="6.87561">
        <ele>2416</ele>
        <time>2022-08-27T05:13:51Z</time>
      </trkpt>
      <trkpt lat="45.77462" lon="6.87562">
        <ele>2417</ele>
        <time>2022-08-27T05:13:52Z</time>
      </trkpt>
      <trkpt lat="45.77463" lon="6.87563">
        <ele>2417</ele>
        <time>2022-08-27T05:13:53Z</time>
      </trkpt>
      <trkpt lat="45.77463" lon="6.87564">
        <ele>2417</ele>
        <time>2022-08-27T05:13:55Z</time>
      </trkpt>
      <trkpt lat="45.77464" lon="6.87564">
        <ele>2417</ele>
        <time>2022-08-27T05:13:56Z</time>
      </trkpt>
      <trkpt lat="45.77465" lon="6.87565">
        <ele>2418</ele>
        <time>2022-08-27T05:13:57Z</time>
      </trkpt>
      <trkpt lat="45.77466" lon="6.87566">
        <ele>2418</ele>
        <time>2022-08-27T05:13:58Z</time>
      </trkpt>
      <trkpt lat="45.77466" lon="6.87567">
        <ele>2418</ele>
        <time>2022-08-27T05:14:00Z</time>
      </trkpt>
      <trkpt lat="45.77467" lon="6.87568">
        <ele>2419</ele>
        <time>2022-08-27T05:14:02Z</time>
      </trkpt>
      <trkpt lat="45.77468" lon="6.87569">
        <ele>2419</ele>
        <time>2022-08-27T05:14:03Z</time>
      </trkpt>
      <trkpt lat="45.77469" lon="6.87569">
        <ele>2420</ele>
        <time>2022-08-27T05:14:04Z</time>
      </trkpt>
      <trkpt lat="45.7747" lon="6.8757">
        <ele>2420</ele>
        <time>2022-08-27T05:14:05Z</time>
      </trkpt>
      <trkpt lat="45.77471" lon="6.8757">
        <ele>2420</ele>
        <time>2022-08-27T05:14:07Z</time>
      </trkpt>
      <trkpt lat="45.77472" lon="6.87571">
        <ele>2420</ele>
        <time>2022-08-27T05:14:08Z</time>
      </trkpt>
      <trkpt lat="45.77473" lon="6.87571">
        <ele>2420</ele>
        <time>2022-08-27T05:14:09Z</time>
      </trkpt>
      <trkpt lat="45.77474" lon="6.87571">
        <ele>2420</ele>
        <time>2022-08-27T05:14:10Z</time>
      </trkpt>
      <trkpt lat="45.77475" lon="6.87572">
        <ele>2420</ele>
        <time>2022-08-27T05:14:12Z</time>
      </trkpt>
      <trkpt lat="45.77476" lon="6.87572">
        <ele>2421</ele>
        <time>2022-08-27T05:14:13Z</time>
      </trkpt>
      <trkpt lat="45.77477" lon="6.87573">
        <ele>2421</ele>
        <time>2022-08-27T05:14:14Z</time>
      </trkpt>
      <trkpt lat="45.77478" lon="6.87574">
        <ele>2421</ele>
        <time>2022-08-27T05:14:15Z</time>
      </trkpt>
      <trkpt lat="45.77478" lon="6.87574">
        <ele>2422</ele>
        <time>2022-08-27T05:14:17Z</time>
      </trkpt>
      <trkpt lat="45.77479" lon="6.87575">
        <ele>2422</ele>
        <time>2022-08-27T05:14:19Z</time>
      </trkpt>
      <trkpt lat="45.7748" lon="6.87576">
        <ele>2423</ele>
        <time>2022-08-27T05:14:21Z</time>
      </trkpt>
      <trkpt lat="45.7748" lon="6.87577">
        <ele>2423</ele>
        <time>2022-08-27T05:14:23Z</time>
      </trkpt>
      <trkpt lat="45.77481" lon="6.87578">
        <ele>2423</ele>
        <time>2022-08-27T05:14:24Z</time>
      </trkpt>
      <trkpt lat="45.77482" lon="6.87578">
        <ele>2423</ele>
        <time>2022-08-27T05:14:25Z</time>
      </trkpt>
      <trkpt lat="45.77483" lon="6.87579">
        <ele>2423</ele>
        <time>2022-08-27T05:14:26Z</time>
      </trkpt>
      <trkpt lat="45.77483" lon="6.8758">
        <ele>2423</ele>
        <time>2022-08-27T05:14:27Z</time>
      </trkpt>
      <trkpt lat="45.77484" lon="6.87581">
        <ele>2423</ele>
        <time>2022-08-27T05:14:28Z</time>
      </trkpt>
      <trkpt lat="45.77486" lon="6.87585">
        <ele>2425</ele>
        <time>2022-08-27T05:14:33Z</time>
      </trkpt>
      <trkpt lat="45.77488" lon="6.87588">
        <ele>2426</ele>
        <time>2022-08-27T05:14:37Z</time>
      </trkpt>
      <trkpt lat="45.7749" lon="6.8759">
        <ele>2426</ele>
        <time>2022-08-27T05:14:41Z</time>
      </trkpt>
      <trkpt lat="45.77489" lon="6.87593">
        <ele>2426</ele>
        <time>2022-08-27T05:14:44Z</time>
      </trkpt>
      <trkpt lat="45.77491" lon="6.87595">
        <ele>2427</ele>
        <time>2022-08-27T05:14:48Z</time>
      </trkpt>
      <trkpt lat="45.77491" lon="6.87598">
        <ele>2428</ele>
        <time>2022-08-27T05:14:51Z</time>
      </trkpt>
      <trkpt lat="45.77491" lon="6.87601">
        <ele>2430</ele>
        <time>2022-08-27T05:14:55Z</time>
      </trkpt>
      <trkpt lat="45.77491" lon="6.87604">
        <ele>2430</ele>
        <time>2022-08-27T05:14:58Z</time>
      </trkpt>
      <trkpt lat="45.77491" lon="6.87607">
        <ele>2430</ele>
        <time>2022-08-27T05:15:01Z</time>
      </trkpt>
      <trkpt lat="45.77492" lon="6.8761">
        <ele>2431</ele>
        <time>2022-08-27T05:15:04Z</time>
      </trkpt>
      <trkpt lat="45.77492" lon="6.87613">
        <ele>2431</ele>
        <time>2022-08-27T05:15:06Z</time>
      </trkpt>
      <trkpt lat="45.77492" lon="6.87617">
        <ele>2431</ele>
        <time>2022-08-27T05:15:09Z</time>
      </trkpt>
      <trkpt lat="45.77493" lon="6.87621">
        <ele>2432</ele>
        <time>2022-08-27T05:15:12Z</time>
      </trkpt>
      <trkpt lat="45.77494" lon="6.87623">
        <ele>2432</ele>
        <time>2022-08-27T05:15:14Z</time>
      </trkpt>
      <trkpt lat="45.77495" lon="6.87626">
        <ele>2432</ele>
        <time>2022-08-27T05:15:16Z</time>
      </trkpt>
      <trkpt lat="45.77496" lon="6.87629">
        <ele>2432</ele>
        <time>2022-08-27T05:15:18Z</time>
      </trkpt>
      <trkpt lat="45.77497" lon="6.87632">
        <ele>2432</ele>
        <time>2022-08-27T05:15:20Z</time>
      </trkpt>
      <trkpt lat="45.77498" lon="6.87635">
        <ele>2432</ele>
        <time>2022-08-27T05:15:22Z</time>
      </trkpt>
      <trkpt lat="45.77499" lon="6.87638">
        <ele>2433</ele>
        <time>2022-08-27T05:15:24Z</time>
      </trkpt>
      <trkpt lat="45.77499" lon="6.8764">
        <ele>2433</ele>
        <time>2022-08-27T05:15:26Z</time>
      </trkpt>
      <trkpt lat="45.77501" lon="6.87643">
        <ele>2434</ele>
        <time>2022-08-27T05:15:29Z</time>
      </trkpt>
      <trkpt lat="45.77502" lon="6.87646">
        <ele>2434</ele>
        <time>2022-08-27T05:15:32Z</time>
      </trkpt>
      <trkpt lat="45.77503" lon="6.87648">
        <ele>2435</ele>
        <time>2022-08-27T05:15:34Z</time>
      </trkpt>
      <trkpt lat="45.77505" lon="6.8765">
        <ele>2435</ele>
        <time>2022-08-27T05:15:36Z</time>
      </trkpt>
      <trkpt lat="45.77506" lon="6.87654">
        <ele>2435</ele>
        <time>2022-08-27T05:15:39Z</time>
      </trkpt>
      <trkpt lat="45.77507" lon="6.87657">
        <ele>2435</ele>
        <time>2022-08-27T05:15:42Z</time>
      </trkpt>
      <trkpt lat="45.77508" lon="6.8766">
        <ele>2436</ele>
        <time>2022-08-27T05:15:45Z</time>
      </trkpt>
      <trkpt lat="45.77509" lon="6.87663">
        <ele>2437</ele>
        <time>2022-08-27T05:15:48Z</time>
      </trkpt>
      <trkpt lat="45.7751" lon="6.87665">
        <ele>2438</ele>
        <time>2022-08-27T05:15:51Z</time>
      </trkpt>
      <trkpt lat="45.77511" lon="6.87668">
        <ele>2438</ele>
        <time>2022-08-27T05:15:53Z</time>
      </trkpt>
      <trkpt lat="45.77512" lon="6.87673">
        <ele>2438</ele>
        <time>2022-08-27T05:15:57Z</time>
      </trkpt>
      <trkpt lat="45.77513" lon="6.87675">
        <ele>2438</ele>
        <time>2022-08-27T05:15:59Z</time>
      </trkpt>
      <trkpt lat="45.77512" lon="6.87678">
        <ele>2439</ele>
        <time>2022-08-27T05:16:02Z</time>
      </trkpt>
      <trkpt lat="45.7751" lon="6.8768">
        <ele>2440</ele>
        <time>2022-08-27T05:16:05Z</time>
      </trkpt>
      <trkpt lat="45.77509" lon="6.87683">
        <ele>2440</ele>
        <time>2022-08-27T05:16:08Z</time>
      </trkpt>
      <trkpt lat="45.77507" lon="6.87685">
        <ele>2440</ele>
        <time>2022-08-27T05:16:11Z</time>
      </trkpt>
      <trkpt lat="45.77505" lon="6.87687">
        <ele>2442</ele>
        <time>2022-08-27T05:16:14Z</time>
      </trkpt>
      <trkpt lat="45.77504" lon="6.87689">
        <ele>2442</ele>
        <time>2022-08-27T05:16:18Z</time>
      </trkpt>
      <trkpt lat="45.77503" lon="6.87691">
        <ele>2443</ele>
        <time>2022-08-27T05:16:22Z</time>
      </trkpt>
      <trkpt lat="45.77501" lon="6.87693">
        <ele>2443</ele>
        <time>2022-08-27T05:16:25Z</time>
      </trkpt>
      <trkpt lat="45.77499" lon="6.87694">
        <ele>2444</ele>
        <time>2022-08-27T05:16:31Z</time>
      </trkpt>
      <trkpt lat="45.77497" lon="6.87694">
        <ele>2444</ele>
        <time>2022-08-27T05:16:34Z</time>
      </trkpt>
      <trkpt lat="45.77495" lon="6.87696">
        <ele>2446</ele>
        <time>2022-08-27T05:16:38Z</time>
      </trkpt>
      <trkpt lat="45.77493" lon="6.87697">
        <ele>2446</ele>
        <time>2022-08-27T05:16:42Z</time>
      </trkpt>
      <trkpt lat="45.77491" lon="6.87698">
        <ele>2447</ele>
        <time>2022-08-27T05:16:44Z</time>
      </trkpt>
      <trkpt lat="45.77489" lon="6.87698">
        <ele>2448</ele>
        <time>2022-08-27T05:16:48Z</time>
      </trkpt>
      <trkpt lat="45.77486" lon="6.87696">
        <ele>2449</ele>
        <time>2022-08-27T05:16:52Z</time>
      </trkpt>
      <trkpt lat="45.77483" lon="6.87694">
        <ele>2449</ele>
        <time>2022-08-27T05:16:56Z</time>
      </trkpt>
      <trkpt lat="45.77482" lon="6.87692">
        <ele>2449</ele>
        <time>2022-08-27T05:16:59Z</time>
      </trkpt>
      <trkpt lat="45.7748" lon="6.8769">
        <ele>2450</ele>
        <time>2022-08-27T05:17:02Z</time>
      </trkpt>
      <trkpt lat="45.77478" lon="6.87688">
        <ele>2450</ele>
        <time>2022-08-27T05:17:05Z</time>
      </trkpt>
      <trkpt lat="45.77476" lon="6.87686">
        <ele>2451</ele>
        <time>2022-08-27T05:17:08Z</time>
      </trkpt>
      <trkpt lat="45.77474" lon="6.87684">
        <ele>2452</ele>
        <time>2022-08-27T05:17:11Z</time>
      </trkpt>
      <trkpt lat="45.77472" lon="6.87683">
        <ele>2452</ele>
        <time>2022-08-27T05:17:14Z</time>
      </trkpt>
      <trkpt lat="45.77469" lon="6.87681">
        <ele>2453</ele>
        <time>2022-08-27T05:17:17Z</time>
      </trkpt>
      <trkpt lat="45.77468" lon="6.8768">
        <ele>2453</ele>
        <time>2022-08-27T05:17:20Z</time>
      </trkpt>
      <trkpt lat="45.77465" lon="6.87678">
        <ele>2454</ele>
        <time>2022-08-27T05:17:24Z</time>
      </trkpt>
      <trkpt lat="45.77463" lon="6.87676">
        <ele>2454</ele>
        <time>2022-08-27T05:17:27Z</time>
      </trkpt>
      <trkpt lat="45.77462" lon="6.87675">
        <ele>2454</ele>
        <time>2022-08-27T05:17:30Z</time>
      </trkpt>
      <trkpt lat="45.7746" lon="6.87673">
        <ele>2457</ele>
        <time>2022-08-27T05:17:34Z</time>
      </trkpt>
      <trkpt lat="45.77458" lon="6.87672">
        <ele>2457</ele>
        <time>2022-08-27T05:17:37Z</time>
      </trkpt>
      <trkpt lat="45.77456" lon="6.87671">
        <ele>2458</ele>
        <time>2022-08-27T05:17:41Z</time>
      </trkpt>
      <trkpt lat="45.77454" lon="6.8767">
        <ele>2458</ele>
        <time>2022-08-27T05:17:45Z</time>
      </trkpt>
      <trkpt lat="45.77452" lon="6.87669">
        <ele>2459</ele>
        <time>2022-08-27T05:17:49Z</time>
      </trkpt>
      <trkpt lat="45.7745" lon="6.87668">
        <ele>2460</ele>
        <time>2022-08-27T05:17:53Z</time>
      </trkpt>
      <trkpt lat="45.77448" lon="6.87666">
        <ele>2460</ele>
        <time>2022-08-27T05:17:56Z</time>
      </trkpt>
      <trkpt lat="45.77445" lon="6.87666">
        <ele>2461</ele>
        <time>2022-08-27T05:18:00Z</time>
      </trkpt>
      <trkpt lat="45.77443" lon="6.87664">
        <ele>2461</ele>
        <time>2022-08-27T05:18:03Z</time>
      </trkpt>
      <trkpt lat="45.77442" lon="6.87663">
        <ele>2461</ele>
        <time>2022-08-27T05:18:05Z</time>
      </trkpt>
      <trkpt lat="45.77439" lon="6.87662">
        <ele>2464</ele>
        <time>2022-08-27T05:18:12Z</time>
      </trkpt>
      <trkpt lat="45.77439" lon="6.87662">
        <ele>2464</ele>
        <time>2022-08-27T05:18:13Z</time>
      </trkpt>
      <trkpt lat="45.77438" lon="6.87661">
        <ele>2464</ele>
        <time>2022-08-27T05:18:14Z</time>
      </trkpt>
      <trkpt lat="45.77437" lon="6.87661">
        <ele>2464</ele>
        <time>2022-08-27T05:18:16Z</time>
      </trkpt>
      <trkpt lat="45.77436" lon="6.8766">
        <ele>2465</ele>
        <time>2022-08-27T05:18:17Z</time>
      </trkpt>
      <trkpt lat="45.77435" lon="6.8766">
        <ele>2465</ele>
        <time>2022-08-27T05:18:18Z</time>
      </trkpt>
      <trkpt lat="45.77435" lon="6.87659">
        <ele>2465</ele>
        <time>2022-08-27T05:18:19Z</time>
      </trkpt>
      <trkpt lat="45.77433" lon="6.87661">
        <ele>2466</ele>
        <time>2022-08-27T05:18:27Z</time>
      </trkpt>
      <trkpt lat="45.77433" lon="6.87664">
        <ele>2467</ele>
        <time>2022-08-27T05:18:30Z</time>
      </trkpt>
      <trkpt lat="45.77434" lon="6.87666">
        <ele>2467</ele>
        <time>2022-08-27T05:18:32Z</time>
      </trkpt>
      <trkpt lat="45.77434" lon="6.87667">
        <ele>2467</ele>
        <time>2022-08-27T05:18:33Z</time>
      </trkpt>
      <trkpt lat="45.77434" lon="6.87668">
        <ele>2467</ele>
        <time>2022-08-27T05:18:34Z</time>
      </trkpt>
      <trkpt lat="45.77434" lon="6.87669">
        <ele>2467</ele>
        <time>2022-08-27T05:18:35Z</time>
      </trkpt>
      <trkpt lat="45.77434" lon="6.8767">
        <ele>2467</ele>
        <time>2022-08-27T05:18:36Z</time>
      </trkpt>
      <trkpt lat="45.77435" lon="6.87671">
        <ele>2467</ele>
        <time>2022-08-27T05:18:37Z</time>
      </trkpt>
      <trkpt lat="45.77435" lon="6.87672">
        <ele>2468</ele>
        <time>2022-08-27T05:18:38Z</time>
      </trkpt>
      <trkpt lat="45.77435" lon="6.87673">
        <ele>2468</ele>
        <time>2022-08-27T05:18:40Z</time>
      </trkpt>
      <trkpt lat="45.77435" lon="6.87674">
        <ele>2468</ele>
        <time>2022-08-27T05:18:41Z</time>
      </trkpt>
      <trkpt lat="45.77436" lon="6.87675">
        <ele>2468</ele>
        <time>2022-08-27T05:18:42Z</time>
      </trkpt>
      <trkpt lat="45.77436" lon="6.87676">
        <ele>2468</ele>
        <time>2022-08-27T05:18:43Z</time>
      </trkpt>
      <trkpt lat="45.77436" lon="6.87677">
        <ele>2468</ele>
        <time>2022-08-27T05:18:45Z</time>
      </trkpt>
      <trkpt lat="45.77436" lon="6.87678">
        <ele>2468</ele>
        <time>2022-08-27T05:18:46Z</time>
      </trkpt>
      <trkpt lat="45.77436" lon="6.87679">
        <ele>2469</ele>
        <time>2022-08-27T05:18:47Z</time>
      </trkpt>
      <trkpt lat="45.77435" lon="6.87683">
        <ele>2470</ele>
        <time>2022-08-27T05:18:49Z</time>
      </trkpt>
      <trkpt lat="45.77434" lon="6.87686">
        <ele>2470</ele>
        <time>2022-08-27T05:18:52Z</time>
      </trkpt>
      <trkpt lat="45.77434" lon="6.87689">
        <ele>2471</ele>
        <time>2022-08-27T05:18:56Z</time>
      </trkpt>
      <trkpt lat="45.77433" lon="6.87692">
        <ele>2472</ele>
        <time>2022-08-27T05:18:59Z</time>
      </trkpt>
      <trkpt lat="45.77432" lon="6.87694">
        <ele>2472</ele>
        <time>2022-08-27T05:19:02Z</time>
      </trkpt>
      <trkpt lat="45.77432" lon="6.87698">
        <ele>2472</ele>
        <time>2022-08-27T05:19:05Z</time>
      </trkpt>
      <trkpt lat="45.77432" lon="6.877">
        <ele>2474</ele>
        <time>2022-08-27T05:19:08Z</time>
      </trkpt>
      <trkpt lat="45.77431" lon="6.87704">
        <ele>2475</ele>
        <time>2022-08-27T05:19:12Z</time>
      </trkpt>
      <trkpt lat="45.77431" lon="6.87708">
        <ele>2475</ele>
        <time>2022-08-27T05:19:15Z</time>
      </trkpt>
      <trkpt lat="45.7743" lon="6.87711">
        <ele>2476</ele>
        <time>2022-08-27T05:19:19Z</time>
      </trkpt>
      <trkpt lat="45.7743" lon="6.87714">
        <ele>2477</ele>
        <time>2022-08-27T05:19:23Z</time>
      </trkpt>
      <trkpt lat="45.77429" lon="6.87718">
        <ele>2477</ele>
        <time>2022-08-27T05:19:27Z</time>
      </trkpt>
      <trkpt lat="45.77429" lon="6.87721">
        <ele>2478</ele>
        <time>2022-08-27T05:19:31Z</time>
      </trkpt>
      <trkpt lat="45.77428" lon="6.87724">
        <ele>2478</ele>
        <time>2022-08-27T05:19:35Z</time>
      </trkpt>
      <trkpt lat="45.77428" lon="6.87727">
        <ele>2479</ele>
        <time>2022-08-27T05:19:38Z</time>
      </trkpt>
      <trkpt lat="45.77426" lon="6.87728">
        <ele>2480</ele>
        <time>2022-08-27T05:19:41Z</time>
      </trkpt>
      <trkpt lat="45.77424" lon="6.87727">
        <ele>2481</ele>
        <time>2022-08-27T05:19:44Z</time>
      </trkpt>
      <trkpt lat="45.77422" lon="6.87725">
        <ele>2481</ele>
        <time>2022-08-27T05:19:47Z</time>
      </trkpt>
      <trkpt lat="45.7742" lon="6.87725">
        <ele>2482</ele>
        <time>2022-08-27T05:19:51Z</time>
      </trkpt>
      <trkpt lat="45.77418" lon="6.87726">
        <ele>2483</ele>
        <time>2022-08-27T05:19:54Z</time>
      </trkpt>
      <trkpt lat="45.77418" lon="6.87729">
        <ele>2483</ele>
        <time>2022-08-27T05:19:58Z</time>
      </trkpt>
      <trkpt lat="45.77417" lon="6.87733">
        <ele>2484</ele>
        <time>2022-08-27T05:20:01Z</time>
      </trkpt>
      <trkpt lat="45.77416" lon="6.87735">
        <ele>2484</ele>
        <time>2022-08-27T05:20:03Z</time>
      </trkpt>
      <trkpt lat="45.77414" lon="6.87737">
        <ele>2484</ele>
        <time>2022-08-27T05:20:06Z</time>
      </trkpt>
      <trkpt lat="45.77412" lon="6.87736">
        <ele>2486</ele>
        <time>2022-08-27T05:20:09Z</time>
      </trkpt>
      <trkpt lat="45.77409" lon="6.87735">
        <ele>2486</ele>
        <time>2022-08-27T05:20:12Z</time>
      </trkpt>
      <trkpt lat="45.77407" lon="6.87733">
        <ele>2487</ele>
        <time>2022-08-27T05:20:15Z</time>
      </trkpt>
      <trkpt lat="45.77405" lon="6.87732">
        <ele>2487</ele>
        <time>2022-08-27T05:20:18Z</time>
      </trkpt>
      <trkpt lat="45.77404" lon="6.8773">
        <ele>2488</ele>
        <time>2022-08-27T05:20:21Z</time>
      </trkpt>
      <trkpt lat="45.77402" lon="6.87728">
        <ele>2488</ele>
        <time>2022-08-27T05:20:24Z</time>
      </trkpt>
      <trkpt lat="45.774" lon="6.87726">
        <ele>2489</ele>
        <time>2022-08-27T05:20:27Z</time>
      </trkpt>
      <trkpt lat="45.77398" lon="6.87724">
        <ele>2490</ele>
        <time>2022-08-27T05:20:30Z</time>
      </trkpt>
      <trkpt lat="45.77396" lon="6.87724">
        <ele>2491</ele>
        <time>2022-08-27T05:20:33Z</time>
      </trkpt>
      <trkpt lat="45.77394" lon="6.87726">
        <ele>2491</ele>
        <time>2022-08-27T05:20:36Z</time>
      </trkpt>
      <trkpt lat="45.77392" lon="6.87726">
        <ele>2491</ele>
        <time>2022-08-27T05:20:39Z</time>
      </trkpt>
      <trkpt lat="45.7739" lon="6.87728">
        <ele>2492</ele>
        <time>2022-08-27T05:20:43Z</time>
      </trkpt>
      <trkpt lat="45.77389" lon="6.8773">
        <ele>2493</ele>
        <time>2022-08-27T05:20:46Z</time>
      </trkpt>
      <trkpt lat="45.77388" lon="6.87733">
        <ele>2493</ele>
        <time>2022-08-27T05:20:50Z</time>
      </trkpt>
      <trkpt lat="45.77386" lon="6.87734">
        <ele>2494</ele>
        <time>2022-08-27T05:20:53Z</time>
      </trkpt>
      <trkpt lat="45.77385" lon="6.87736">
        <ele>2494</ele>
        <time>2022-08-27T05:20:56Z</time>
      </trkpt>
      <trkpt lat="45.77383" lon="6.87738">
        <ele>2495</ele>
        <time>2022-08-27T05:21:00Z</time>
      </trkpt>
      <trkpt lat="45.77382" lon="6.87741">
        <ele>2496</ele>
        <time>2022-08-27T05:21:03Z</time>
      </trkpt>
      <trkpt lat="45.77381" lon="6.87744">
        <ele>2496</ele>
        <time>2022-08-27T05:21:06Z</time>
      </trkpt>
      <trkpt lat="45.77381" lon="6.87746">
        <ele>2496</ele>
        <time>2022-08-27T05:21:09Z</time>
      </trkpt>
      <trkpt lat="45.77382" lon="6.87749">
        <ele>2498</ele>
        <time>2022-08-27T05:21:12Z</time>
      </trkpt>
      <trkpt lat="45.77382" lon="6.87752">
        <ele>2499</ele>
        <time>2022-08-27T05:21:15Z</time>
      </trkpt>
      <trkpt lat="45.77382" lon="6.87755">
        <ele>2499</ele>
        <time>2022-08-27T05:21:19Z</time>
      </trkpt>
      <trkpt lat="45.77382" lon="6.87759">
        <ele>2500</ele>
        <time>2022-08-27T05:21:22Z</time>
      </trkpt>
      <trkpt lat="45.77383" lon="6.87762">
        <ele>2500</ele>
        <time>2022-08-27T05:21:24Z</time>
      </trkpt>
      <trkpt lat="45.77382" lon="6.87765">
        <ele>2500</ele>
        <time>2022-08-27T05:21:26Z</time>
      </trkpt>
      <trkpt lat="45.77381" lon="6.87767">
        <ele>2500</ele>
        <time>2022-08-27T05:21:28Z</time>
      </trkpt>
      <trkpt lat="45.7738" lon="6.8777">
        <ele>2501</ele>
        <time>2022-08-27T05:21:31Z</time>
      </trkpt>
      <trkpt lat="45.77379" lon="6.87773">
        <ele>2501</ele>
        <time>2022-08-27T05:21:34Z</time>
      </trkpt>
      <trkpt lat="45.77379" lon="6.87775">
        <ele>2502</ele>
        <time>2022-08-27T05:21:37Z</time>
      </trkpt>
      <trkpt lat="45.77377" lon="6.87777">
        <ele>2502</ele>
        <time>2022-08-27T05:21:40Z</time>
      </trkpt>
      <trkpt lat="45.77375" lon="6.87779">
        <ele>2503</ele>
        <time>2022-08-27T05:21:43Z</time>
      </trkpt>
      <trkpt lat="45.77374" lon="6.87781">
        <ele>2504</ele>
        <time>2022-08-27T05:21:46Z</time>
      </trkpt>
      <trkpt lat="45.77372" lon="6.87782">
        <ele>2504</ele>
        <time>2022-08-27T05:21:49Z</time>
      </trkpt>
      <trkpt lat="45.7737" lon="6.87783">
        <ele>2505</ele>
        <time>2022-08-27T05:21:53Z</time>
      </trkpt>
      <trkpt lat="45.77368" lon="6.87784">
        <ele>2505</ele>
        <time>2022-08-27T05:21:56Z</time>
      </trkpt>
      <trkpt lat="45.77366" lon="6.87787">
        <ele>2506</ele>
        <time>2022-08-27T05:22:00Z</time>
      </trkpt>
      <trkpt lat="45.77365" lon="6.8779">
        <ele>2507</ele>
        <time>2022-08-27T05:22:03Z</time>
      </trkpt>
      <trkpt lat="45.77362" lon="6.87792">
        <ele>2507</ele>
        <time>2022-08-27T05:22:06Z</time>
      </trkpt>
      <trkpt lat="45.77361" lon="6.87793">
        <ele>2507</ele>
        <time>2022-08-27T05:22:08Z</time>
      </trkpt>
      <trkpt lat="45.77359" lon="6.87795">
        <ele>2507</ele>
        <time>2022-08-27T05:22:10Z</time>
      </trkpt>
      <trkpt lat="45.77357" lon="6.87797">
        <ele>2507</ele>
        <time>2022-08-27T05:22:12Z</time>
      </trkpt>
      <trkpt lat="45.77355" lon="6.87799">
        <ele>2507</ele>
        <time>2022-08-27T05:22:14Z</time>
      </trkpt>
      <trkpt lat="45.77354" lon="6.87801">
        <ele>2507</ele>
        <time>2022-08-27T05:22:16Z</time>
      </trkpt>
      <trkpt lat="45.77352" lon="6.87802">
        <ele>2508</ele>
        <time>2022-08-27T05:22:18Z</time>
      </trkpt>
      <trkpt lat="45.7735" lon="6.87804">
        <ele>2508</ele>
        <time>2022-08-27T05:22:20Z</time>
      </trkpt>
      <trkpt lat="45.77349" lon="6.87805">
        <ele>2508</ele>
        <time>2022-08-27T05:22:22Z</time>
      </trkpt>
      <trkpt lat="45.77347" lon="6.87808">
        <ele>2508</ele>
        <time>2022-08-27T05:22:25Z</time>
      </trkpt>
      <trkpt lat="45.77345" lon="6.87811">
        <ele>2510</ele>
        <time>2022-08-27T05:22:28Z</time>
      </trkpt>
      <trkpt lat="45.77344" lon="6.87813">
        <ele>2512</ele>
        <time>2022-08-27T05:22:31Z</time>
      </trkpt>
      <trkpt lat="45.77341" lon="6.87816">
        <ele>2512</ele>
        <time>2022-08-27T05:22:34Z</time>
      </trkpt>
      <trkpt lat="45.77339" lon="6.87817">
        <ele>2513</ele>
        <time>2022-08-27T05:22:37Z</time>
      </trkpt>
      <trkpt lat="45.77337" lon="6.87819">
        <ele>2513</ele>
        <time>2022-08-27T05:22:40Z</time>
      </trkpt>
      <trkpt lat="45.77336" lon="6.87822">
        <ele>2513</ele>
        <time>2022-08-27T05:22:43Z</time>
      </trkpt>
      <trkpt lat="45.77334" lon="6.87825">
        <ele>2513</ele>
        <time>2022-08-27T05:22:46Z</time>
      </trkpt>
      <trkpt lat="45.77332" lon="6.87828">
        <ele>2514</ele>
        <time>2022-08-27T05:22:49Z</time>
      </trkpt>
      <trkpt lat="45.7733" lon="6.8783">
        <ele>2514</ele>
        <time>2022-08-27T05:22:52Z</time>
      </trkpt>
      <trkpt lat="45.7733" lon="6.87833">
        <ele>2515</ele>
        <time>2022-08-27T05:22:55Z</time>
      </trkpt>
      <trkpt lat="45.77329" lon="6.87836">
        <ele>2515</ele>
        <time>2022-08-27T05:22:57Z</time>
      </trkpt>
      <trkpt lat="45.77328" lon="6.87839">
        <ele>2516</ele>
        <time>2022-08-27T05:23:00Z</time>
      </trkpt>
      <trkpt lat="45.77327" lon="6.87842">
        <ele>2517</ele>
        <time>2022-08-27T05:23:03Z</time>
      </trkpt>
      <trkpt lat="45.77326" lon="6.87845">
        <ele>2517</ele>
        <time>2022-08-27T05:23:06Z</time>
      </trkpt>
      <trkpt lat="45.77325" lon="6.87848">
        <ele>2518</ele>
        <time>2022-08-27T05:23:09Z</time>
      </trkpt>
      <trkpt lat="45.77324" lon="6.87852">
        <ele>2518</ele>
        <time>2022-08-27T05:23:12Z</time>
      </trkpt>
      <trkpt lat="45.77323" lon="6.87856">
        <ele>2518</ele>
        <time>2022-08-27T05:23:15Z</time>
      </trkpt>
      <trkpt lat="45.77323" lon="6.87858">
        <ele>2518</ele>
        <time>2022-08-27T05:23:17Z</time>
      </trkpt>
      <trkpt lat="45.77323" lon="6.87861">
        <ele>2518</ele>
        <time>2022-08-27T05:23:19Z</time>
      </trkpt>
      <trkpt lat="45.77324" lon="6.87864">
        <ele>2519</ele>
        <time>2022-08-27T05:23:21Z</time>
      </trkpt>
      <trkpt lat="45.77325" lon="6.87867">
        <ele>2519</ele>
        <time>2022-08-27T05:23:23Z</time>
      </trkpt>
      <trkpt lat="45.77324" lon="6.8787">
        <ele>2519</ele>
        <time>2022-08-27T05:23:25Z</time>
      </trkpt>
      <trkpt lat="45.77323" lon="6.87872">
        <ele>2519</ele>
        <time>2022-08-27T05:23:27Z</time>
      </trkpt>
      <trkpt lat="45.77322" lon="6.87875">
        <ele>2519</ele>
        <time>2022-08-27T05:23:29Z</time>
      </trkpt>
      <trkpt lat="45.77321" lon="6.87878">
        <ele>2520</ele>
        <time>2022-08-27T05:23:31Z</time>
      </trkpt>
      <trkpt lat="45.7732" lon="6.8788">
        <ele>2520</ele>
        <time>2022-08-27T05:23:33Z</time>
      </trkpt>
      <trkpt lat="45.77319" lon="6.87883">
        <ele>2520</ele>
        <time>2022-08-27T05:23:35Z</time>
      </trkpt>
      <trkpt lat="45.77318" lon="6.87886">
        <ele>2520</ele>
        <time>2022-08-27T05:23:37Z</time>
      </trkpt>
      <trkpt lat="45.77316" lon="6.8789">
        <ele>2520</ele>
        <time>2022-08-27T05:23:39Z</time>
      </trkpt>
      <trkpt lat="45.77315" lon="6.87894">
        <ele>2520</ele>
        <time>2022-08-27T05:23:41Z</time>
      </trkpt>
      <trkpt lat="45.77314" lon="6.87899">
        <ele>2520</ele>
        <time>2022-08-27T05:23:44Z</time>
      </trkpt>
      <trkpt lat="45.77313" lon="6.87902">
        <ele>2520</ele>
        <time>2022-08-27T05:23:46Z</time>
      </trkpt>
      <trkpt lat="45.77313" lon="6.87905">
        <ele>2520</ele>
        <time>2022-08-27T05:23:48Z</time>
      </trkpt>
      <trkpt lat="45.77312" lon="6.87907">
        <ele>2520</ele>
        <time>2022-08-27T05:23:49Z</time>
      </trkpt>
      <trkpt lat="45.77311" lon="6.8791">
        <ele>2520</ele>
        <time>2022-08-27T05:23:50Z</time>
      </trkpt>
      <trkpt lat="45.77311" lon="6.87913">
        <ele>2520</ele>
        <time>2022-08-27T05:23:51Z</time>
      </trkpt>
      <trkpt lat="45.7731" lon="6.87916">
        <ele>2520</ele>
        <time>2022-08-27T05:23:53Z</time>
      </trkpt>
      <trkpt lat="45.77309" lon="6.87919">
        <ele>2520</ele>
        <time>2022-08-27T05:23:54Z</time>
      </trkpt>
      <trkpt lat="45.77308" lon="6.87922">
        <ele>2519</ele>
        <time>2022-08-27T05:23:55Z</time>
      </trkpt>
      <trkpt lat="45.77307" lon="6.87925">
        <ele>2519</ele>
        <time>2022-08-27T05:23:56Z</time>
      </trkpt>
      <trkpt lat="45.77306" lon="6.87926">
        <ele>2519</ele>
        <time>2022-08-27T05:23:58Z</time>
      </trkpt>
      <trkpt lat="45.77305" lon="6.87928">
        <ele>2519</ele>
        <time>2022-08-27T05:23:59Z</time>
      </trkpt>
      <trkpt lat="45.77303" lon="6.87929">
        <ele>2519</ele>
        <time>2022-08-27T05:24:00Z</time>
      </trkpt>
      <trkpt lat="45.77302" lon="6.87931">
        <ele>2519</ele>
        <time>2022-08-27T05:24:01Z</time>
      </trkpt>
      <trkpt lat="45.77301" lon="6.87932">
        <ele>2519</ele>
        <time>2022-08-27T05:24:03Z</time>
      </trkpt>
      <trkpt lat="45.773" lon="6.87934">
        <ele>2519</ele>
        <time>2022-08-27T05:24:04Z</time>
      </trkpt>
      <trkpt lat="45.77299" lon="6.87935">
        <ele>2519</ele>
        <time>2022-08-27T05:24:05Z</time>
      </trkpt>
      <trkpt lat="45.77298" lon="6.87935">
        <ele>2520</ele>
        <time>2022-08-27T05:24:06Z</time>
      </trkpt>
      <trkpt lat="45.77297" lon="6.87936">
        <ele>2520</ele>
        <time>2022-08-27T05:24:08Z</time>
      </trkpt>
      <trkpt lat="45.77296" lon="6.87936">
        <ele>2520</ele>
        <time>2022-08-27T05:24:10Z</time>
      </trkpt>
      <trkpt lat="45.77295" lon="6.87937">
        <ele>2520</ele>
        <time>2022-08-27T05:24:11Z</time>
      </trkpt>
      <trkpt lat="45.77294" lon="6.87937">
        <ele>2522</ele>
        <time>2022-08-27T05:24:12Z</time>
      </trkpt>
      <trkpt lat="45.77293" lon="6.87938">
        <ele>2522</ele>
        <time>2022-08-27T05:24:13Z</time>
      </trkpt>
      <trkpt lat="45.77292" lon="6.87938">
        <ele>2522</ele>
        <time>2022-08-27T05:24:15Z</time>
      </trkpt>
      <trkpt lat="45.77291" lon="6.87939">
        <ele>2523</ele>
        <time>2022-08-27T05:24:16Z</time>
      </trkpt>
      <trkpt lat="45.7729" lon="6.87939">
        <ele>2523</ele>
        <time>2022-08-27T05:24:17Z</time>
      </trkpt>
      <trkpt lat="45.7729" lon="6.87941">
        <ele>2523</ele>
        <time>2022-08-27T05:24:18Z</time>
      </trkpt>
      <trkpt lat="45.7729" lon="6.87942">
        <ele>2523</ele>
        <time>2022-08-27T05:24:20Z</time>
      </trkpt>
      <trkpt lat="45.77289" lon="6.87943">
        <ele>2523</ele>
        <time>2022-08-27T05:24:21Z</time>
      </trkpt>
      <trkpt lat="45.77289" lon="6.87945">
        <ele>2523</ele>
        <time>2022-08-27T05:24:22Z</time>
      </trkpt>
      <trkpt lat="45.77289" lon="6.87946">
        <ele>2523</ele>
        <time>2022-08-27T05:24:23Z</time>
      </trkpt>
      <trkpt lat="45.77289" lon="6.87947">
        <ele>2523</ele>
        <time>2022-08-27T05:24:25Z</time>
      </trkpt>
      <trkpt lat="45.77288" lon="6.87949">
        <ele>2523</ele>
        <time>2022-08-27T05:24:27Z</time>
      </trkpt>
      <trkpt lat="45.77288" lon="6.8795">
        <ele>2524</ele>
        <time>2022-08-27T05:24:29Z</time>
      </trkpt>
      <trkpt lat="45.77288" lon="6.87951">
        <ele>2524</ele>
        <time>2022-08-27T05:24:30Z</time>
      </trkpt>
      <trkpt lat="45.77287" lon="6.87952">
        <ele>2524</ele>
        <time>2022-08-27T05:24:31Z</time>
      </trkpt>
      <trkpt lat="45.77288" lon="6.87954">
        <ele>2524</ele>
        <time>2022-08-27T05:24:32Z</time>
      </trkpt>
      <trkpt lat="45.77289" lon="6.87955">
        <ele>2524</ele>
        <time>2022-08-27T05:24:34Z</time>
      </trkpt>
      <trkpt lat="45.77289" lon="6.87956">
        <ele>2524</ele>
        <time>2022-08-27T05:24:36Z</time>
      </trkpt>
      <trkpt lat="45.7729" lon="6.87957">
        <ele>2524</ele>
        <time>2022-08-27T05:24:37Z</time>
      </trkpt>
      <trkpt lat="45.77291" lon="6.87958">
        <ele>2524</ele>
        <time>2022-08-27T05:24:38Z</time>
      </trkpt>
      <trkpt lat="45.77291" lon="6.87959">
        <ele>2525</ele>
        <time>2022-08-27T05:24:39Z</time>
      </trkpt>
      <trkpt lat="45.77292" lon="6.8796">
        <ele>2525</ele>
        <time>2022-08-27T05:24:41Z</time>
      </trkpt>
      <trkpt lat="45.77293" lon="6.87962">
        <ele>2525</ele>
        <time>2022-08-27T05:24:42Z</time>
      </trkpt>
      <trkpt lat="45.77293" lon="6.87963">
        <ele>2526</ele>
        <time>2022-08-27T05:24:43Z</time>
      </trkpt>
      <trkpt lat="45.77293" lon="6.87963">
        <ele>2526</ele>
        <time>2022-08-27T05:24:44Z</time>
      </trkpt>
      <trkpt lat="45.77293" lon="6.87964">
        <ele>2527</ele>
        <time>2022-08-27T05:24:46Z</time>
      </trkpt>
      <trkpt lat="45.77293" lon="6.87965">
        <ele>2527</ele>
        <time>2022-08-27T05:24:47Z</time>
      </trkpt>
      <trkpt lat="45.77293" lon="6.87966">
        <ele>2527</ele>
        <time>2022-08-27T05:24:48Z</time>
      </trkpt>
      <trkpt lat="45.77293" lon="6.87966">
        <ele>2528</ele>
        <time>2022-08-27T05:24:50Z</time>
      </trkpt>
      <trkpt lat="45.77293" lon="6.87967">
        <ele>2528</ele>
        <time>2022-08-27T05:24:51Z</time>
      </trkpt>
      <trkpt lat="45.77294" lon="6.87968">
        <ele>2529</ele>
        <time>2022-08-27T05:24:52Z</time>
      </trkpt>
      <trkpt lat="45.77294" lon="6.87968">
        <ele>2529</ele>
        <time>2022-08-27T05:24:53Z</time>
      </trkpt>
      <trkpt lat="45.77294" lon="6.87969">
        <ele>2529</ele>
        <time>2022-08-27T05:24:55Z</time>
      </trkpt>
      <trkpt lat="45.77294" lon="6.8797">
        <ele>2529</ele>
        <time>2022-08-27T05:24:56Z</time>
      </trkpt>
      <trkpt lat="45.77294" lon="6.87971">
        <ele>2529</ele>
        <time>2022-08-27T05:24:57Z</time>
      </trkpt>
      <trkpt lat="45.77294" lon="6.87971">
        <ele>2529</ele>
        <time>2022-08-27T05:24:58Z</time>
      </trkpt>
      <trkpt lat="45.77294" lon="6.87972">
        <ele>2529</ele>
        <time>2022-08-27T05:25:00Z</time>
      </trkpt>
      <trkpt lat="45.77294" lon="6.87973">
        <ele>2529</ele>
        <time>2022-08-27T05:25:01Z</time>
      </trkpt>
      <trkpt lat="45.77294" lon="6.87974">
        <ele>2529</ele>
        <time>2022-08-27T05:25:02Z</time>
      </trkpt>
      <trkpt lat="45.77294" lon="6.87974">
        <ele>2529</ele>
        <time>2022-08-27T05:25:03Z</time>
      </trkpt>
      <trkpt lat="45.77294" lon="6.87975">
        <ele>2529</ele>
        <time>2022-08-27T05:25:04Z</time>
      </trkpt>
      <trkpt lat="45.77294" lon="6.87976">
        <ele>2529</ele>
        <time>2022-08-27T05:25:05Z</time>
      </trkpt>
      <trkpt lat="45.77293" lon="6.87976">
        <ele>2530</ele>
        <time>2022-08-27T05:25:07Z</time>
      </trkpt>
      <trkpt lat="45.77293" lon="6.87977">
        <ele>2530</ele>
        <time>2022-08-27T05:25:08Z</time>
      </trkpt>
      <trkpt lat="45.77292" lon="6.87977">
        <ele>2530</ele>
        <time>2022-08-27T05:25:09Z</time>
      </trkpt>
      <trkpt lat="45.77291" lon="6.87978">
        <ele>2531</ele>
        <time>2022-08-27T05:25:10Z</time>
      </trkpt>
      <trkpt lat="45.7729" lon="6.87978">
        <ele>2532</ele>
        <time>2022-08-27T05:25:12Z</time>
      </trkpt>
      <trkpt lat="45.7729" lon="6.87979">
        <ele>2532</ele>
        <time>2022-08-27T05:25:13Z</time>
      </trkpt>
      <trkpt lat="45.77289" lon="6.87979">
        <ele>2532</ele>
        <time>2022-08-27T05:25:14Z</time>
      </trkpt>
      <trkpt lat="45.77288" lon="6.8798">
        <ele>2532</ele>
        <time>2022-08-27T05:25:15Z</time>
      </trkpt>
      <trkpt lat="45.77288" lon="6.8798">
        <ele>2532</ele>
        <time>2022-08-27T05:25:17Z</time>
      </trkpt>
      <trkpt lat="45.77287" lon="6.87981">
        <ele>2533</ele>
        <time>2022-08-27T05:25:18Z</time>
      </trkpt>
      <trkpt lat="45.77286" lon="6.87981">
        <ele>2533</ele>
        <time>2022-08-27T05:25:19Z</time>
      </trkpt>
      <trkpt lat="45.77286" lon="6.87982">
        <ele>2533</ele>
        <time>2022-08-27T05:25:20Z</time>
      </trkpt>
      <trkpt lat="45.77285" lon="6.87982">
        <ele>2533</ele>
        <time>2022-08-27T05:25:22Z</time>
      </trkpt>
      <trkpt lat="45.77284" lon="6.87983">
        <ele>2533</ele>
        <time>2022-08-27T05:25:24Z</time>
      </trkpt>
      <trkpt lat="45.77283" lon="6.87983">
        <ele>2533</ele>
        <time>2022-08-27T05:25:25Z</time>
      </trkpt>
      <trkpt lat="45.77282" lon="6.87984">
        <ele>2533</ele>
        <time>2022-08-27T05:25:26Z</time>
      </trkpt>
      <trkpt lat="45.77281" lon="6.87985">
        <ele>2535</ele>
        <time>2022-08-27T05:25:28Z</time>
      </trkpt>
      <trkpt lat="45.77281" lon="6.87985">
        <ele>2535</ele>
        <time>2022-08-27T05:25:29Z</time>
      </trkpt>
      <trkpt lat="45.7728" lon="6.87986">
        <ele>2535</ele>
        <time>2022-08-27T05:25:30Z</time>
      </trkpt>
      <trkpt lat="45.77279" lon="6.87986">
        <ele>2535</ele>
        <time>2022-08-27T05:25:31Z</time>
      </trkpt>
      <trkpt lat="45.77278" lon="6.87987">
        <ele>2535</ele>
        <time>2022-08-27T05:25:33Z</time>
      </trkpt>
      <trkpt lat="45.77277" lon="6.87988">
        <ele>2535</ele>
        <time>2022-08-27T05:25:34Z</time>
      </trkpt>
      <trkpt lat="45.77277" lon="6.87988">
        <ele>2536</ele>
        <time>2022-08-27T05:25:35Z</time>
      </trkpt>
      <trkpt lat="45.77276" lon="6.87989">
        <ele>2536</ele>
        <time>2022-08-27T05:25:36Z</time>
      </trkpt>
      <trkpt lat="45.77276" lon="6.87989">
        <ele>2537</ele>
        <time>2022-08-27T05:25:38Z</time>
      </trkpt>
      <trkpt lat="45.77275" lon="6.8799">
        <ele>2538</ele>
        <time>2022-08-27T05:25:39Z</time>
      </trkpt>
      <trkpt lat="45.77275" lon="6.8799">
        <ele>2538</ele>
        <time>2022-08-27T05:25:40Z</time>
      </trkpt>
      <trkpt lat="45.77274" lon="6.87991">
        <ele>2538</ele>
        <time>2022-08-27T05:25:41Z</time>
      </trkpt>
      <trkpt lat="45.77273" lon="6.87991">
        <ele>2538</ele>
        <time>2022-08-27T05:25:43Z</time>
      </trkpt>
      <trkpt lat="45.77273" lon="6.87992">
        <ele>2539</ele>
        <time>2022-08-27T05:25:45Z</time>
      </trkpt>
      <trkpt lat="45.77272" lon="6.87992">
        <ele>2539</ele>
        <time>2022-08-27T05:25:46Z</time>
      </trkpt>
      <trkpt lat="45.77272" lon="6.87993">
        <ele>2539</ele>
        <time>2022-08-27T05:25:47Z</time>
      </trkpt>
      <trkpt lat="45.77271" lon="6.87993">
        <ele>2539</ele>
        <time>2022-08-27T05:25:48Z</time>
      </trkpt>
      <trkpt lat="45.77271" lon="6.87994">
        <ele>2540</ele>
        <time>2022-08-27T05:25:49Z</time>
      </trkpt>
      <trkpt lat="45.7727" lon="6.87995">
        <ele>2540</ele>
        <time>2022-08-27T05:25:50Z</time>
      </trkpt>
      <trkpt lat="45.77269" lon="6.87995">
        <ele>2540</ele>
        <time>2022-08-27T05:25:51Z</time>
      </trkpt>
      <trkpt lat="45.77269" lon="6.87996">
        <ele>2540</ele>
        <time>2022-08-27T05:25:52Z</time>
      </trkpt>
      <trkpt lat="45.77269" lon="6.87997">
        <ele>2540</ele>
        <time>2022-08-27T05:25:53Z</time>
      </trkpt>
      <trkpt lat="45.77268" lon="6.87998">
        <ele>2540</ele>
        <time>2022-08-27T05:25:54Z</time>
      </trkpt>
      <trkpt lat="45.77268" lon="6.87999">
        <ele>2540</ele>
        <time>2022-08-27T05:25:56Z</time>
      </trkpt>
      <trkpt lat="45.77267" lon="6.88">
        <ele>2541</ele>
        <time>2022-08-27T05:25:57Z</time>
      </trkpt>
      <trkpt lat="45.77267" lon="6.88001">
        <ele>2541</ele>
        <time>2022-08-27T05:25:58Z</time>
      </trkpt>
      <trkpt lat="45.77266" lon="6.88003">
        <ele>2541</ele>
        <time>2022-08-27T05:25:59Z</time>
      </trkpt>
      <trkpt lat="45.77266" lon="6.88004">
        <ele>2541</ele>
        <time>2022-08-27T05:26:01Z</time>
      </trkpt>
      <trkpt lat="45.77265" lon="6.88005">
        <ele>2541</ele>
        <time>2022-08-27T05:26:02Z</time>
      </trkpt>
      <trkpt lat="45.77265" lon="6.88006">
        <ele>2541</ele>
        <time>2022-08-27T05:26:03Z</time>
      </trkpt>
      <trkpt lat="45.77264" lon="6.88007">
        <ele>2542</ele>
        <time>2022-08-27T05:26:04Z</time>
      </trkpt>
      <trkpt lat="45.77263" lon="6.88007">
        <ele>2542</ele>
        <time>2022-08-27T05:26:05Z</time>
      </trkpt>
      <trkpt lat="45.77263" lon="6.88008">
        <ele>2543</ele>
        <time>2022-08-27T05:26:06Z</time>
      </trkpt>
      <trkpt lat="45.77262" lon="6.88009">
        <ele>2543</ele>
        <time>2022-08-27T05:26:07Z</time>
      </trkpt>
      <trkpt lat="45.77261" lon="6.8801">
        <ele>2543</ele>
        <time>2022-08-27T05:26:09Z</time>
      </trkpt>
      <trkpt lat="45.77261" lon="6.8801">
        <ele>2543</ele>
        <time>2022-08-27T05:26:10Z</time>
      </trkpt>
      <trkpt lat="45.7726" lon="6.88011">
        <ele>2544</ele>
        <time>2022-08-27T05:26:11Z</time>
      </trkpt>
      <trkpt lat="45.77259" lon="6.88012">
        <ele>2544</ele>
        <time>2022-08-27T05:26:12Z</time>
      </trkpt>
      <trkpt lat="45.77259" lon="6.88012">
        <ele>2544</ele>
        <time>2022-08-27T05:26:14Z</time>
      </trkpt>
      <trkpt lat="45.77258" lon="6.88013">
        <ele>2544</ele>
        <time>2022-08-27T05:26:15Z</time>
      </trkpt>
      <trkpt lat="45.77257" lon="6.88014">
        <ele>2544</ele>
        <time>2022-08-27T05:26:16Z</time>
      </trkpt>
      <trkpt lat="45.77257" lon="6.88015">
        <ele>2544</ele>
        <time>2022-08-27T05:26:17Z</time>
      </trkpt>
      <trkpt lat="45.77256" lon="6.88015">
        <ele>2545</ele>
        <time>2022-08-27T05:26:19Z</time>
      </trkpt>
      <trkpt lat="45.77255" lon="6.88016">
        <ele>2545</ele>
        <time>2022-08-27T05:26:21Z</time>
      </trkpt>
      <trkpt lat="45.77253" lon="6.88016">
        <ele>2545</ele>
        <time>2022-08-27T05:26:22Z</time>
      </trkpt>
      <trkpt lat="45.77252" lon="6.88017">
        <ele>2545</ele>
        <time>2022-08-27T05:26:23Z</time>
      </trkpt>
      <trkpt lat="45.77251" lon="6.88018">
        <ele>2545</ele>
        <time>2022-08-27T05:26:24Z</time>
      </trkpt>
      <trkpt lat="45.7725" lon="6.88018">
        <ele>2545</ele>
        <time>2022-08-27T05:26:26Z</time>
      </trkpt>
      <trkpt lat="45.77249" lon="6.88019">
        <ele>2547</ele>
        <time>2022-08-27T05:26:27Z</time>
      </trkpt>
      <trkpt lat="45.77248" lon="6.8802">
        <ele>2547</ele>
        <time>2022-08-27T05:26:28Z</time>
      </trkpt>
      <trkpt lat="45.77248" lon="6.8802">
        <ele>2547</ele>
        <time>2022-08-27T05:26:29Z</time>
      </trkpt>
      <trkpt lat="45.77247" lon="6.88021">
        <ele>2548</ele>
        <time>2022-08-27T05:26:31Z</time>
      </trkpt>
      <trkpt lat="45.77247" lon="6.88022">
        <ele>2548</ele>
        <time>2022-08-27T05:26:33Z</time>
      </trkpt>
      <trkpt lat="45.77246" lon="6.88023">
        <ele>2548</ele>
        <time>2022-08-27T05:26:34Z</time>
      </trkpt>
      <trkpt lat="45.77246" lon="6.88024">
        <ele>2549</ele>
        <time>2022-08-27T05:26:36Z</time>
      </trkpt>
      <trkpt lat="45.77245" lon="6.88025">
        <ele>2549</ele>
        <time>2022-08-27T05:26:38Z</time>
      </trkpt>
      <trkpt lat="45.77245" lon="6.88026">
        <ele>2550</ele>
        <time>2022-08-27T05:26:40Z</time>
      </trkpt>
      <trkpt lat="45.77244" lon="6.88026">
        <ele>2550</ele>
        <time>2022-08-27T05:26:41Z</time>
      </trkpt>
      <trkpt lat="45.77244" lon="6.88027">
        <ele>2550</ele>
        <time>2022-08-27T05:26:42Z</time>
      </trkpt>
      <trkpt lat="45.77243" lon="6.88028">
        <ele>2550</ele>
        <time>2022-08-27T05:26:44Z</time>
      </trkpt>
      <trkpt lat="45.77243" lon="6.88029">
        <ele>2551</ele>
        <time>2022-08-27T05:26:45Z</time>
      </trkpt>
      <trkpt lat="45.77242" lon="6.8803">
        <ele>2551</ele>
        <time>2022-08-27T05:26:46Z</time>
      </trkpt>
      <trkpt lat="45.77242" lon="6.88031">
        <ele>2551</ele>
        <time>2022-08-27T05:26:47Z</time>
      </trkpt>
      <trkpt lat="45.77241" lon="6.88032">
        <ele>2551</ele>
        <time>2022-08-27T05:26:49Z</time>
      </trkpt>
      <trkpt lat="45.77241" lon="6.88033">
        <ele>2551</ele>
        <time>2022-08-27T05:26:50Z</time>
      </trkpt>
      <trkpt lat="45.7724" lon="6.88033">
        <ele>2551</ele>
        <time>2022-08-27T05:26:51Z</time>
      </trkpt>
      <trkpt lat="45.7724" lon="6.88034">
        <ele>2552</ele>
        <time>2022-08-27T05:26:52Z</time>
      </trkpt>
      <trkpt lat="45.7724" lon="6.88035">
        <ele>2552</ele>
        <time>2022-08-27T05:26:54Z</time>
      </trkpt>
      <trkpt lat="45.77239" lon="6.88036">
        <ele>2552</ele>
        <time>2022-08-27T05:26:55Z</time>
      </trkpt>
      <trkpt lat="45.77239" lon="6.88037">
        <ele>2553</ele>
        <time>2022-08-27T05:26:56Z</time>
      </trkpt>
      <trkpt lat="45.77238" lon="6.88038">
        <ele>2553</ele>
        <time>2022-08-27T05:26:57Z</time>
      </trkpt>
      <trkpt lat="45.77238" lon="6.88039">
        <ele>2553</ele>
        <time>2022-08-27T05:26:59Z</time>
      </trkpt>
      <trkpt lat="45.77238" lon="6.8804">
        <ele>2553</ele>
        <time>2022-08-27T05:27:01Z</time>
      </trkpt>
      <trkpt lat="45.77237" lon="6.8804">
        <ele>2553</ele>
        <time>2022-08-27T05:27:02Z</time>
      </trkpt>
      <trkpt lat="45.77237" lon="6.88041">
        <ele>2554</ele>
        <time>2022-08-27T05:27:03Z</time>
      </trkpt>
      <trkpt lat="45.77236" lon="6.88042">
        <ele>2554</ele>
        <time>2022-08-27T05:27:04Z</time>
      </trkpt>
      <trkpt lat="45.77236" lon="6.88043">
        <ele>2555</ele>
        <time>2022-08-27T05:27:06Z</time>
      </trkpt>
      <trkpt lat="45.77236" lon="6.88043">
        <ele>2556</ele>
        <time>2022-08-27T05:27:07Z</time>
      </trkpt>
      <trkpt lat="45.77235" lon="6.88044">
        <ele>2556</ele>
        <time>2022-08-27T05:27:08Z</time>
      </trkpt>
      <trkpt lat="45.77235" lon="6.88044">
        <ele>2556</ele>
        <time>2022-08-27T05:27:09Z</time>
      </trkpt>
      <trkpt lat="45.77234" lon="6.88045">
        <ele>2556</ele>
        <time>2022-08-27T05:27:11Z</time>
      </trkpt>
      <trkpt lat="45.77234" lon="6.88046">
        <ele>2556</ele>
        <time>2022-08-27T05:27:12Z</time>
      </trkpt>
      <trkpt lat="45.77234" lon="6.88046">
        <ele>2556</ele>
        <time>2022-08-27T05:27:13Z</time>
      </trkpt>
      <trkpt lat="45.77233" lon="6.88047">
        <ele>2556</ele>
        <time>2022-08-27T05:27:14Z</time>
      </trkpt>
      <trkpt lat="45.77233" lon="6.88047">
        <ele>2557</ele>
        <time>2022-08-27T05:27:15Z</time>
      </trkpt>
      <trkpt lat="45.77233" lon="6.88048">
        <ele>2557</ele>
        <time>2022-08-27T05:27:16Z</time>
      </trkpt>
      <trkpt lat="45.77232" lon="6.88049">
        <ele>2557</ele>
        <time>2022-08-27T05:27:18Z</time>
      </trkpt>
      <trkpt lat="45.77232" lon="6.88049">
        <ele>2557</ele>
        <time>2022-08-27T05:27:19Z</time>
      </trkpt>
      <trkpt lat="45.77231" lon="6.8805">
        <ele>2557</ele>
        <time>2022-08-27T05:27:21Z</time>
      </trkpt>
      <trkpt lat="45.77231" lon="6.8805">
        <ele>2557</ele>
        <time>2022-08-27T05:27:22Z</time>
      </trkpt>
      <trkpt lat="45.77231" lon="6.88051">
        <ele>2557</ele>
        <time>2022-08-27T05:27:23Z</time>
      </trkpt>
      <trkpt lat="45.7723" lon="6.88052">
        <ele>2557</ele>
        <time>2022-08-27T05:27:24Z</time>
      </trkpt>
      <trkpt lat="45.77229" lon="6.88053">
        <ele>2559</ele>
        <time>2022-08-27T05:27:26Z</time>
      </trkpt>
      <trkpt lat="45.77229" lon="6.88054">
        <ele>2559</ele>
        <time>2022-08-27T05:27:27Z</time>
      </trkpt>
      <trkpt lat="45.77228" lon="6.88054">
        <ele>2560</ele>
        <time>2022-08-27T05:27:28Z</time>
      </trkpt>
      <trkpt lat="45.77228" lon="6.88055">
        <ele>2560</ele>
        <time>2022-08-27T05:27:29Z</time>
      </trkpt>
      <trkpt lat="45.77227" lon="6.88056">
        <ele>2560</ele>
        <time>2022-08-27T05:27:31Z</time>
      </trkpt>
      <trkpt lat="45.77226" lon="6.88057">
        <ele>2561</ele>
        <time>2022-08-27T05:27:32Z</time>
      </trkpt>
      <trkpt lat="45.77226" lon="6.88058">
        <ele>2561</ele>
        <time>2022-08-27T05:27:33Z</time>
      </trkpt>
      <trkpt lat="45.77225" lon="6.88058">
        <ele>2561</ele>
        <time>2022-08-27T05:27:34Z</time>
      </trkpt>
      <trkpt lat="45.77224" lon="6.88059">
        <ele>2561</ele>
        <time>2022-08-27T05:27:35Z</time>
      </trkpt>
      <trkpt lat="45.77224" lon="6.8806">
        <ele>2561</ele>
        <time>2022-08-27T05:27:36Z</time>
      </trkpt>
      <trkpt lat="45.77223" lon="6.88061">
        <ele>2562</ele>
        <time>2022-08-27T05:27:37Z</time>
      </trkpt>
      <trkpt lat="45.77222" lon="6.88061">
        <ele>2562</ele>
        <time>2022-08-27T05:27:38Z</time>
      </trkpt>
      <trkpt lat="45.77222" lon="6.88062">
        <ele>2562</ele>
        <time>2022-08-27T05:27:39Z</time>
      </trkpt>
      <trkpt lat="45.77221" lon="6.88062">
        <ele>2562</ele>
        <time>2022-08-27T05:27:41Z</time>
      </trkpt>
      <trkpt lat="45.77221" lon="6.88063">
        <ele>2562</ele>
        <time>2022-08-27T05:27:42Z</time>
      </trkpt>
      <trkpt lat="45.7722" lon="6.88063">
        <ele>2562</ele>
        <time>2022-08-27T05:27:43Z</time>
      </trkpt>
      <trkpt lat="45.77219" lon="6.88064">
        <ele>2562</ele>
        <time>2022-08-27T05:27:44Z</time>
      </trkpt>
      <trkpt lat="45.77219" lon="6.88064">
        <ele>2563</ele>
        <time>2022-08-27T05:27:46Z</time>
      </trkpt>
      <trkpt lat="45.77218" lon="6.88065">
        <ele>2563</ele>
        <time>2022-08-27T05:27:47Z</time>
      </trkpt>
      <trkpt lat="45.77218" lon="6.88065">
        <ele>2563</ele>
        <time>2022-08-27T05:27:48Z</time>
      </trkpt>
      <trkpt lat="45.77217" lon="6.88066">
        <ele>2563</ele>
        <time>2022-08-27T05:27:49Z</time>
      </trkpt>
      <trkpt lat="45.77216" lon="6.88066">
        <ele>2563</ele>
        <time>2022-08-27T05:27:51Z</time>
      </trkpt>
      <trkpt lat="45.77216" lon="6.88067">
        <ele>2564</ele>
        <time>2022-08-27T05:27:52Z</time>
      </trkpt>
      <trkpt lat="45.77215" lon="6.88068">
        <ele>2564</ele>
        <time>2022-08-27T05:27:53Z</time>
      </trkpt>
      <trkpt lat="45.77215" lon="6.88069">
        <ele>2564</ele>
        <time>2022-08-27T05:27:54Z</time>
      </trkpt>
      <trkpt lat="45.77214" lon="6.8807">
        <ele>2564</ele>
        <time>2022-08-27T05:27:56Z</time>
      </trkpt>
      <trkpt lat="45.77213" lon="6.88072">
        <ele>2564</ele>
        <time>2022-08-27T05:27:58Z</time>
      </trkpt>
      <trkpt lat="45.77213" lon="6.88073">
        <ele>2564</ele>
        <time>2022-08-27T05:27:59Z</time>
      </trkpt>
      <trkpt lat="45.77212" lon="6.88074">
        <ele>2564</ele>
        <time>2022-08-27T05:28:00Z</time>
      </trkpt>
      <trkpt lat="45.77212" lon="6.88075">
        <ele>2565</ele>
        <time>2022-08-27T05:28:01Z</time>
      </trkpt>
      <trkpt lat="45.77211" lon="6.88077">
        <ele>2566</ele>
        <time>2022-08-27T05:28:03Z</time>
      </trkpt>
      <trkpt lat="45.7721" lon="6.88078">
        <ele>2566</ele>
        <time>2022-08-27T05:28:04Z</time>
      </trkpt>
      <trkpt lat="45.7721" lon="6.88079">
        <ele>2566</ele>
        <time>2022-08-27T05:28:05Z</time>
      </trkpt>
      <trkpt lat="45.7721" lon="6.8808">
        <ele>2566</ele>
        <time>2022-08-27T05:28:07Z</time>
      </trkpt>
      <trkpt lat="45.7721" lon="6.88081">
        <ele>2566</ele>
        <time>2022-08-27T05:28:08Z</time>
      </trkpt>
      <trkpt lat="45.77209" lon="6.88082">
        <ele>2567</ele>
        <time>2022-08-27T05:28:09Z</time>
      </trkpt>
      <trkpt lat="45.77209" lon="6.88083">
        <ele>2567</ele>
        <time>2022-08-27T05:28:10Z</time>
      </trkpt>
      <trkpt lat="45.77209" lon="6.88084">
        <ele>2567</ele>
        <time>2022-08-27T05:28:12Z</time>
      </trkpt>
      <trkpt lat="45.77209" lon="6.88085">
        <ele>2567</ele>
        <time>2022-08-27T05:28:13Z</time>
      </trkpt>
      <trkpt lat="45.77208" lon="6.88086">
        <ele>2567</ele>
        <time>2022-08-27T05:28:15Z</time>
      </trkpt>
      <trkpt lat="45.77208" lon="6.88087">
        <ele>2567</ele>
        <time>2022-08-27T05:28:16Z</time>
      </trkpt>
      <trkpt lat="45.77208" lon="6.88089">
        <ele>2567</ele>
        <time>2022-08-27T05:28:17Z</time>
      </trkpt>
      <trkpt lat="45.77208" lon="6.8809">
        <ele>2567</ele>
        <time>2022-08-27T05:28:18Z</time>
      </trkpt>
      <trkpt lat="45.77207" lon="6.88091">
        <ele>2568</ele>
        <time>2022-08-27T05:28:19Z</time>
      </trkpt>
      <trkpt lat="45.77207" lon="6.8809">
        <ele>2568</ele>
        <time>2022-08-27T05:28:20Z</time>
      </trkpt>
      <trkpt lat="45.77206" lon="6.88089">
        <ele>2568</ele>
        <time>2022-08-27T05:28:21Z</time>
      </trkpt>
      <trkpt lat="45.77205" lon="6.88089">
        <ele>2568</ele>
        <time>2022-08-27T05:28:22Z</time>
      </trkpt>
      <trkpt lat="45.77204" lon="6.88088">
        <ele>2569</ele>
        <time>2022-08-27T05:28:24Z</time>
      </trkpt>
      <trkpt lat="45.77203" lon="6.88087">
        <ele>2569</ele>
        <time>2022-08-27T05:28:25Z</time>
      </trkpt>
      <trkpt lat="45.77202" lon="6.88086">
        <ele>2569</ele>
        <time>2022-08-27T05:28:26Z</time>
      </trkpt>
      <trkpt lat="45.77201" lon="6.88086">
        <ele>2569</ele>
        <time>2022-08-27T05:28:27Z</time>
      </trkpt>
      <trkpt lat="45.772" lon="6.88085">
        <ele>2571</ele>
        <time>2022-08-27T05:28:29Z</time>
      </trkpt>
      <trkpt lat="45.77199" lon="6.88084">
        <ele>2571</ele>
        <time>2022-08-27T05:28:30Z</time>
      </trkpt>
      <trkpt lat="45.77198" lon="6.88084">
        <ele>2571</ele>
        <time>2022-08-27T05:28:31Z</time>
      </trkpt>
      <trkpt lat="45.77197" lon="6.88083">
        <ele>2571</ele>
        <time>2022-08-27T05:28:32Z</time>
      </trkpt>
      <trkpt lat="45.77197" lon="6.88083">
        <ele>2571</ele>
        <time>2022-08-27T05:28:34Z</time>
      </trkpt>
      <trkpt lat="45.77196" lon="6.88082">
        <ele>2572</ele>
        <time>2022-08-27T05:28:36Z</time>
      </trkpt>
      <trkpt lat="45.77195" lon="6.88081">
        <ele>2572</ele>
        <time>2022-08-27T05:28:37Z</time>
      </trkpt>
      <trkpt lat="45.77194" lon="6.88081">
        <ele>2573</ele>
        <time>2022-08-27T05:28:38Z</time>
      </trkpt>
      <trkpt lat="45.77193" lon="6.8808">
        <ele>2573</ele>
        <time>2022-08-27T05:28:39Z</time>
      </trkpt>
      <trkpt lat="45.77192" lon="6.8808">
        <ele>2573</ele>
        <time>2022-08-27T05:28:41Z</time>
      </trkpt>
      <trkpt lat="45.77191" lon="6.88079">
        <ele>2573</ele>
        <time>2022-08-27T05:28:42Z</time>
      </trkpt>
      <trkpt lat="45.77191" lon="6.88079">
        <ele>2574</ele>
        <time>2022-08-27T05:28:43Z</time>
      </trkpt>
      <trkpt lat="45.77185" lon="6.88089">
        <ele>2575</ele>
        <time>2022-08-27T05:28:53Z</time>
      </trkpt>
      <trkpt lat="45.77177" lon="6.88095">
        <ele>2577</ele>
        <time>2022-08-27T05:29:05Z</time>
      </trkpt>
      <trkpt lat="45.77176" lon="6.88096">
        <ele>2578</ele>
        <time>2022-08-27T05:29:06Z</time>
      </trkpt>
      <trkpt lat="45.77175" lon="6.88097">
        <ele>2578</ele>
        <time>2022-08-27T05:29:07Z</time>
      </trkpt>
      <trkpt lat="45.77174" lon="6.88098">
        <ele>2578</ele>
        <time>2022-08-27T05:29:08Z</time>
      </trkpt>
      <trkpt lat="45.77173" lon="6.88099">
        <ele>2578</ele>
        <time>2022-08-27T05:29:10Z</time>
      </trkpt>
      <trkpt lat="45.77172" lon="6.881">
        <ele>2578</ele>
        <time>2022-08-27T05:29:12Z</time>
      </trkpt>
      <trkpt lat="45.77171" lon="6.881">
        <ele>2578</ele>
        <time>2022-08-27T05:29:14Z</time>
      </trkpt>
      <trkpt lat="45.7717" lon="6.88101">
        <ele>2579</ele>
        <time>2022-08-27T05:29:16Z</time>
      </trkpt>
      <trkpt lat="45.77169" lon="6.88102">
        <ele>2580</ele>
        <time>2022-08-27T05:29:17Z</time>
      </trkpt>
      <trkpt lat="45.77162" lon="6.88112">
        <ele>2584</ele>
        <time>2022-08-27T05:29:31Z</time>
      </trkpt>
      <trkpt lat="45.77162" lon="6.88113">
        <ele>2584</ele>
        <time>2022-08-27T05:29:32Z</time>
      </trkpt>
      <trkpt lat="45.77162" lon="6.88114">
        <ele>2584</ele>
        <time>2022-08-27T05:29:33Z</time>
      </trkpt>
      <trkpt lat="45.77162" lon="6.88115">
        <ele>2584</ele>
        <time>2022-08-27T05:29:34Z</time>
      </trkpt>
      <trkpt lat="45.77162" lon="6.88116">
        <ele>2583</ele>
        <time>2022-08-27T05:29:36Z</time>
      </trkpt>
      <trkpt lat="45.77162" lon="6.88117">
        <ele>2583</ele>
        <time>2022-08-27T05:29:38Z</time>
      </trkpt>
      <trkpt lat="45.77162" lon="6.88118">
        <ele>2583</ele>
        <time>2022-08-27T05:29:39Z</time>
      </trkpt>
      <trkpt lat="45.77162" lon="6.88119">
        <ele>2583</ele>
        <time>2022-08-27T05:29:40Z</time>
      </trkpt>
      <trkpt lat="45.77162" lon="6.8812">
        <ele>2583</ele>
        <time>2022-08-27T05:29:41Z</time>
      </trkpt>
      <trkpt lat="45.77162" lon="6.88121">
        <ele>2584</ele>
        <time>2022-08-27T05:29:43Z</time>
      </trkpt>
      <trkpt lat="45.77162" lon="6.88122">
        <ele>2584</ele>
        <time>2022-08-27T05:29:44Z</time>
      </trkpt>
      <trkpt lat="45.77162" lon="6.88123">
        <ele>2584</ele>
        <time>2022-08-27T05:29:45Z</time>
      </trkpt>
      <trkpt lat="45.77162" lon="6.88124">
        <ele>2584</ele>
        <time>2022-08-27T05:29:46Z</time>
      </trkpt>
      <trkpt lat="45.77162" lon="6.88125">
        <ele>2585</ele>
        <time>2022-08-27T05:29:47Z</time>
      </trkpt>
      <trkpt lat="45.77162" lon="6.88126">
        <ele>2585</ele>
        <time>2022-08-27T05:29:48Z</time>
      </trkpt>
      <trkpt lat="45.77161" lon="6.88128">
        <ele>2585</ele>
        <time>2022-08-27T05:29:50Z</time>
      </trkpt>
      <trkpt lat="45.7716" lon="6.88129">
        <ele>2585</ele>
        <time>2022-08-27T05:29:52Z</time>
      </trkpt>
      <trkpt lat="45.77159" lon="6.8813">
        <ele>2585</ele>
        <time>2022-08-27T05:29:54Z</time>
      </trkpt>
      <trkpt lat="45.77158" lon="6.88132">
        <ele>2586</ele>
        <time>2022-08-27T05:29:55Z</time>
      </trkpt>
      <trkpt lat="45.77157" lon="6.88133">
        <ele>2586</ele>
        <time>2022-08-27T05:29:56Z</time>
      </trkpt>
      <trkpt lat="45.77156" lon="6.88134">
        <ele>2586</ele>
        <time>2022-08-27T05:29:57Z</time>
      </trkpt>
      <trkpt lat="45.77155" lon="6.88135">
        <ele>2587</ele>
        <time>2022-08-27T05:29:59Z</time>
      </trkpt>
      <trkpt lat="45.77154" lon="6.88136">
        <ele>2587</ele>
        <time>2022-08-27T05:30:00Z</time>
      </trkpt>
      <trkpt lat="45.77154" lon="6.88137">
        <ele>2587</ele>
        <time>2022-08-27T05:30:01Z</time>
      </trkpt>
      <trkpt lat="45.77153" lon="6.88138">
        <ele>2588</ele>
        <time>2022-08-27T05:30:02Z</time>
      </trkpt>
      <trkpt lat="45.77152" lon="6.88139">
        <ele>2588</ele>
        <time>2022-08-27T05:30:03Z</time>
      </trkpt>
      <trkpt lat="45.77151" lon="6.8814">
        <ele>2588</ele>
        <time>2022-08-27T05:30:04Z</time>
      </trkpt>
      <trkpt lat="45.77151" lon="6.88142">
        <ele>2588</ele>
        <time>2022-08-27T05:30:06Z</time>
      </trkpt>
      <trkpt lat="45.7715" lon="6.88143">
        <ele>2588</ele>
        <time>2022-08-27T05:30:07Z</time>
      </trkpt>
      <trkpt lat="45.77149" lon="6.88144">
        <ele>2588</ele>
        <time>2022-08-27T05:30:08Z</time>
      </trkpt>
      <trkpt lat="45.77149" lon="6.88145">
        <ele>2588</ele>
        <time>2022-08-27T05:30:09Z</time>
      </trkpt>
      <trkpt lat="45.77148" lon="6.88146">
        <ele>2589</ele>
        <time>2022-08-27T05:30:10Z</time>
      </trkpt>
      <trkpt lat="45.77148" lon="6.88147">
        <ele>2589</ele>
        <time>2022-08-27T05:30:11Z</time>
      </trkpt>
      <trkpt lat="45.77147" lon="6.88148">
        <ele>2589</ele>
        <time>2022-08-27T05:30:13Z</time>
      </trkpt>
      <trkpt lat="45.77147" lon="6.88149">
        <ele>2589</ele>
        <time>2022-08-27T05:30:14Z</time>
      </trkpt>
      <trkpt lat="45.77146" lon="6.8815">
        <ele>2589</ele>
        <time>2022-08-27T05:30:15Z</time>
      </trkpt>
      <trkpt lat="45.77146" lon="6.88151">
        <ele>2589</ele>
        <time>2022-08-27T05:30:16Z</time>
      </trkpt>
      <trkpt lat="45.77145" lon="6.88152">
        <ele>2589</ele>
        <time>2022-08-27T05:30:18Z</time>
      </trkpt>
      <trkpt lat="45.77145" lon="6.88153">
        <ele>2590</ele>
        <time>2022-08-27T05:30:19Z</time>
      </trkpt>
      <trkpt lat="45.77144" lon="6.88154">
        <ele>2590</ele>
        <time>2022-08-27T05:30:20Z</time>
      </trkpt>
      <trkpt lat="45.77143" lon="6.88155">
        <ele>2590</ele>
        <time>2022-08-27T05:30:21Z</time>
      </trkpt>
      <trkpt lat="45.77143" lon="6.88156">
        <ele>2591</ele>
        <time>2022-08-27T05:30:23Z</time>
      </trkpt>
      <trkpt lat="45.77142" lon="6.88158">
        <ele>2591</ele>
        <time>2022-08-27T05:30:24Z</time>
      </trkpt>
      <trkpt lat="45.77142" lon="6.8816">
        <ele>2591</ele>
        <time>2022-08-27T05:30:25Z</time>
      </trkpt>
      <trkpt lat="45.77141" lon="6.88161">
        <ele>2591</ele>
        <time>2022-08-27T05:30:26Z</time>
      </trkpt>
      <trkpt lat="45.7714" lon="6.88163">
        <ele>2592</ele>
        <time>2022-08-27T05:30:28Z</time>
      </trkpt>
      <trkpt lat="45.7714" lon="6.88165">
        <ele>2592</ele>
        <time>2022-08-27T05:30:29Z</time>
      </trkpt>
      <trkpt lat="45.77139" lon="6.88166">
        <ele>2592</ele>
        <time>2022-08-27T05:30:30Z</time>
      </trkpt>
      <trkpt lat="45.77138" lon="6.88167">
        <ele>2593</ele>
        <time>2022-08-27T05:30:31Z</time>
      </trkpt>
      <trkpt lat="45.77138" lon="6.88168">
        <ele>2593</ele>
        <time>2022-08-27T05:30:33Z</time>
      </trkpt>
      <trkpt lat="45.77137" lon="6.88169">
        <ele>2593</ele>
        <time>2022-08-27T05:30:34Z</time>
      </trkpt>
      <trkpt lat="45.77136" lon="6.8817">
        <ele>2593</ele>
        <time>2022-08-27T05:30:35Z</time>
      </trkpt>
      <trkpt lat="45.77136" lon="6.88171">
        <ele>2593</ele>
        <time>2022-08-27T05:30:36Z</time>
      </trkpt>
      <trkpt lat="45.77135" lon="6.88172">
        <ele>2593</ele>
        <time>2022-08-27T05:30:38Z</time>
      </trkpt>
      <trkpt lat="45.77134" lon="6.88172">
        <ele>2593</ele>
        <time>2022-08-27T05:30:39Z</time>
      </trkpt>
      <trkpt lat="45.77133" lon="6.88173">
        <ele>2593</ele>
        <time>2022-08-27T05:30:40Z</time>
      </trkpt>
      <trkpt lat="45.77133" lon="6.88174">
        <ele>2593</ele>
        <time>2022-08-27T05:30:41Z</time>
      </trkpt>
      <trkpt lat="45.77132" lon="6.88175">
        <ele>2593</ele>
        <time>2022-08-27T05:30:42Z</time>
      </trkpt>
      <trkpt lat="45.77131" lon="6.88176">
        <ele>2593</ele>
        <time>2022-08-27T05:30:43Z</time>
      </trkpt>
      <trkpt lat="45.77129" lon="6.88176">
        <ele>2593</ele>
        <time>2022-08-27T05:30:44Z</time>
      </trkpt>
      <trkpt lat="45.77128" lon="6.88177">
        <ele>2593</ele>
        <time>2022-08-27T05:30:45Z</time>
      </trkpt>
      <trkpt lat="45.77127" lon="6.88177">
        <ele>2593</ele>
        <time>2022-08-27T05:30:47Z</time>
      </trkpt>
      <trkpt lat="45.77126" lon="6.88178">
        <ele>2595</ele>
        <time>2022-08-27T05:30:49Z</time>
      </trkpt>
      <trkpt lat="45.77124" lon="6.88178">
        <ele>2595</ele>
        <time>2022-08-27T05:30:50Z</time>
      </trkpt>
      <trkpt lat="45.77123" lon="6.88179">
        <ele>2595</ele>
        <time>2022-08-27T05:30:51Z</time>
      </trkpt>
      <trkpt lat="45.77122" lon="6.88179">
        <ele>2596</ele>
        <time>2022-08-27T05:30:52Z</time>
      </trkpt>
      <trkpt lat="45.77121" lon="6.8818">
        <ele>2596</ele>
        <time>2022-08-27T05:30:54Z</time>
      </trkpt>
      <trkpt lat="45.77121" lon="6.88181">
        <ele>2596</ele>
        <time>2022-08-27T05:30:55Z</time>
      </trkpt>
      <trkpt lat="45.7712" lon="6.88181">
        <ele>2596</ele>
        <time>2022-08-27T05:30:56Z</time>
      </trkpt>
      <trkpt lat="45.77119" lon="6.88182">
        <ele>2596</ele>
        <time>2022-08-27T05:30:57Z</time>
      </trkpt>
      <trkpt lat="45.77118" lon="6.88182">
        <ele>2597</ele>
        <time>2022-08-27T05:30:59Z</time>
      </trkpt>
      <trkpt lat="45.77118" lon="6.88183">
        <ele>2597</ele>
        <time>2022-08-27T05:31:00Z</time>
      </trkpt>
      <trkpt lat="45.77117" lon="6.88183">
        <ele>2597</ele>
        <time>2022-08-27T05:31:01Z</time>
      </trkpt>
      <trkpt lat="45.77116" lon="6.88184">
        <ele>2597</ele>
        <time>2022-08-27T05:31:02Z</time>
      </trkpt>
      <trkpt lat="45.77115" lon="6.88184">
        <ele>2597</ele>
        <time>2022-08-27T05:31:03Z</time>
      </trkpt>
      <trkpt lat="45.77114" lon="6.88185">
        <ele>2597</ele>
        <time>2022-08-27T05:31:04Z</time>
      </trkpt>
      <trkpt lat="45.77106" lon="6.88192">
        <ele>2600</ele>
        <time>2022-08-27T05:31:15Z</time>
      </trkpt>
      <trkpt lat="45.77098" lon="6.882">
        <ele>2601</ele>
        <time>2022-08-27T05:31:25Z</time>
      </trkpt>
      <trkpt lat="45.77097" lon="6.88201">
        <ele>2600</ele>
        <time>2022-08-27T05:31:27Z</time>
      </trkpt>
      <trkpt lat="45.77096" lon="6.88202">
        <ele>2600</ele>
        <time>2022-08-27T05:31:28Z</time>
      </trkpt>
      <trkpt lat="45.77095" lon="6.88203">
        <ele>2600</ele>
        <time>2022-08-27T05:31:29Z</time>
      </trkpt>
      <trkpt lat="45.77093" lon="6.88203">
        <ele>2601</ele>
        <time>2022-08-27T05:31:30Z</time>
      </trkpt>
      <trkpt lat="45.77092" lon="6.88204">
        <ele>2601</ele>
        <time>2022-08-27T05:31:32Z</time>
      </trkpt>
      <trkpt lat="45.77091" lon="6.88205">
        <ele>2601</ele>
        <time>2022-08-27T05:31:33Z</time>
      </trkpt>
      <trkpt lat="45.7709" lon="6.88206">
        <ele>2601</ele>
        <time>2022-08-27T05:31:34Z</time>
      </trkpt>
      <trkpt lat="45.77088" lon="6.88207">
        <ele>2601</ele>
        <time>2022-08-27T05:31:35Z</time>
      </trkpt>
      <trkpt lat="45.77087" lon="6.88208">
        <ele>2601</ele>
        <time>2022-08-27T05:31:37Z</time>
      </trkpt>
      <trkpt lat="45.77086" lon="6.88209">
        <ele>2601</ele>
        <time>2022-08-27T05:31:38Z</time>
      </trkpt>
      <trkpt lat="45.77085" lon="6.8821">
        <ele>2602</ele>
        <time>2022-08-27T05:31:39Z</time>
      </trkpt>
      <trkpt lat="45.77084" lon="6.8821">
        <ele>2602</ele>
        <time>2022-08-27T05:31:40Z</time>
      </trkpt>
      <trkpt lat="45.77083" lon="6.88211">
        <ele>2602</ele>
        <time>2022-08-27T05:31:42Z</time>
      </trkpt>
      <trkpt lat="45.77082" lon="6.88212">
        <ele>2602</ele>
        <time>2022-08-27T05:31:43Z</time>
      </trkpt>
      <trkpt lat="45.77081" lon="6.88212">
        <ele>2602</ele>
        <time>2022-08-27T05:31:44Z</time>
      </trkpt>
      <trkpt lat="45.7708" lon="6.88213">
        <ele>2602</ele>
        <time>2022-08-27T05:31:45Z</time>
      </trkpt>
      <trkpt lat="45.77079" lon="6.88213">
        <ele>2602</ele>
        <time>2022-08-27T05:31:46Z</time>
      </trkpt>
      <trkpt lat="45.77078" lon="6.88213">
        <ele>2602</ele>
        <time>2022-08-27T05:31:48Z</time>
      </trkpt>
      <trkpt lat="45.77077" lon="6.88213">
        <ele>2603</ele>
        <time>2022-08-27T05:31:49Z</time>
      </trkpt>
      <trkpt lat="45.77075" lon="6.88213">
        <ele>2603</ele>
        <time>2022-08-27T05:31:50Z</time>
      </trkpt>
      <trkpt lat="45.77074" lon="6.88214">
        <ele>2603</ele>
        <time>2022-08-27T05:31:51Z</time>
      </trkpt>
      <trkpt lat="45.77073" lon="6.88214">
        <ele>2603</ele>
        <time>2022-08-27T05:31:52Z</time>
      </trkpt>
      <trkpt lat="45.77072" lon="6.88214">
        <ele>2603</ele>
        <time>2022-08-27T05:31:53Z</time>
      </trkpt>
      <trkpt lat="45.77071" lon="6.88214">
        <ele>2603</ele>
        <time>2022-08-27T05:31:54Z</time>
      </trkpt>
      <trkpt lat="45.7707" lon="6.88214">
        <ele>2604</ele>
        <time>2022-08-27T05:31:55Z</time>
      </trkpt>
      <trkpt lat="45.77069" lon="6.88214">
        <ele>2604</ele>
        <time>2022-08-27T05:31:56Z</time>
      </trkpt>
      <trkpt lat="45.77068" lon="6.88214">
        <ele>2604</ele>
        <time>2022-08-27T05:31:58Z</time>
      </trkpt>
      <trkpt lat="45.77067" lon="6.88214">
        <ele>2604</ele>
        <time>2022-08-27T05:31:59Z</time>
      </trkpt>
      <trkpt lat="45.77066" lon="6.88214">
        <ele>2604</ele>
        <time>2022-08-27T05:32:00Z</time>
      </trkpt>
      <trkpt lat="45.77065" lon="6.88214">
        <ele>2605</ele>
        <time>2022-08-27T05:32:01Z</time>
      </trkpt>
      <trkpt lat="45.77064" lon="6.88214">
        <ele>2605</ele>
        <time>2022-08-27T05:32:03Z</time>
      </trkpt>
      <trkpt lat="45.77063" lon="6.88214">
        <ele>2605</ele>
        <time>2022-08-27T05:32:04Z</time>
      </trkpt>
      <trkpt lat="45.77062" lon="6.88214">
        <ele>2605</ele>
        <time>2022-08-27T05:32:05Z</time>
      </trkpt>
      <trkpt lat="45.77061" lon="6.88214">
        <ele>2605</ele>
        <time>2022-08-27T05:32:06Z</time>
      </trkpt>
      <trkpt lat="45.77059" lon="6.88215">
        <ele>2605</ele>
        <time>2022-08-27T05:32:07Z</time>
      </trkpt>
      <trkpt lat="45.77058" lon="6.88215">
        <ele>2605</ele>
        <time>2022-08-27T05:32:08Z</time>
      </trkpt>
      <trkpt lat="45.77056" lon="6.88215">
        <ele>2607</ele>
        <time>2022-08-27T05:32:10Z</time>
      </trkpt>
      <trkpt lat="45.77055" lon="6.88216">
        <ele>2607</ele>
        <time>2022-08-27T05:32:11Z</time>
      </trkpt>
      <trkpt lat="45.77053" lon="6.88216">
        <ele>2607</ele>
        <time>2022-08-27T05:32:12Z</time>
      </trkpt>
      <trkpt lat="45.77052" lon="6.88216">
        <ele>2607</ele>
        <time>2022-08-27T05:32:13Z</time>
      </trkpt>
      <trkpt lat="45.77051" lon="6.88217">
        <ele>2608</ele>
        <time>2022-08-27T05:32:15Z</time>
      </trkpt>
      <trkpt lat="45.7705" lon="6.88217">
        <ele>2608</ele>
        <time>2022-08-27T05:32:16Z</time>
      </trkpt>
      <trkpt lat="45.77049" lon="6.88218">
        <ele>2608</ele>
        <time>2022-08-27T05:32:17Z</time>
      </trkpt>
      <trkpt lat="45.77048" lon="6.88218">
        <ele>2608</ele>
        <time>2022-08-27T05:32:18Z</time>
      </trkpt>
      <trkpt lat="45.77047" lon="6.88219">
        <ele>2608</ele>
        <time>2022-08-27T05:32:20Z</time>
      </trkpt>
      <trkpt lat="45.77046" lon="6.88219">
        <ele>2609</ele>
        <time>2022-08-27T05:32:22Z</time>
      </trkpt>
      <trkpt lat="45.77045" lon="6.8822">
        <ele>2609</ele>
        <time>2022-08-27T05:32:23Z</time>
      </trkpt>
      <trkpt lat="45.77044" lon="6.8822">
        <ele>2609</ele>
        <time>2022-08-27T05:32:24Z</time>
      </trkpt>
      <trkpt lat="45.77043" lon="6.88221">
        <ele>2610</ele>
        <time>2022-08-27T05:32:26Z</time>
      </trkpt>
      <trkpt lat="45.77043" lon="6.88222">
        <ele>2610</ele>
        <time>2022-08-27T05:32:27Z</time>
      </trkpt>
      <trkpt lat="45.77042" lon="6.88223">
        <ele>2610</ele>
        <time>2022-08-27T05:32:28Z</time>
      </trkpt>
      <trkpt lat="45.77041" lon="6.88224">
        <ele>2610</ele>
        <time>2022-08-27T05:32:29Z</time>
      </trkpt>
      <trkpt lat="45.7704" lon="6.88224">
        <ele>2610</ele>
        <time>2022-08-27T05:32:31Z</time>
      </trkpt>
      <trkpt lat="45.7704" lon="6.88225">
        <ele>2611</ele>
        <time>2022-08-27T05:32:32Z</time>
      </trkpt>
      <trkpt lat="45.77039" lon="6.88226">
        <ele>2611</ele>
        <time>2022-08-27T05:32:33Z</time>
      </trkpt>
      <trkpt lat="45.77038" lon="6.88227">
        <ele>2611</ele>
        <time>2022-08-27T05:32:34Z</time>
      </trkpt>
      <trkpt lat="45.77037" lon="6.88228">
        <ele>2611</ele>
        <time>2022-08-27T05:32:36Z</time>
      </trkpt>
      <trkpt lat="45.77037" lon="6.88229">
        <ele>2611</ele>
        <time>2022-08-27T05:32:37Z</time>
      </trkpt>
      <trkpt lat="45.77029" lon="6.88236">
        <ele>2613</ele>
        <time>2022-08-27T05:32:47Z</time>
      </trkpt>
      <trkpt lat="45.77028" lon="6.88237">
        <ele>2613</ele>
        <time>2022-08-27T05:32:48Z</time>
      </trkpt>
      <trkpt lat="45.77027" lon="6.88238">
        <ele>2613</ele>
        <time>2022-08-27T05:32:49Z</time>
      </trkpt>
      <trkpt lat="45.77026" lon="6.88239">
        <ele>2614</ele>
        <time>2022-08-27T05:32:50Z</time>
      </trkpt>
      <trkpt lat="45.77025" lon="6.8824">
        <ele>2614</ele>
        <time>2022-08-27T05:32:52Z</time>
      </trkpt>
      <trkpt lat="45.77024" lon="6.88241">
        <ele>2614</ele>
        <time>2022-08-27T05:32:53Z</time>
      </trkpt>
      <trkpt lat="45.77024" lon="6.88241">
        <ele>2614</ele>
        <time>2022-08-27T05:32:54Z</time>
      </trkpt>
      <trkpt lat="45.77023" lon="6.88242">
        <ele>2614</ele>
        <time>2022-08-27T05:32:55Z</time>
      </trkpt>
      <trkpt lat="45.77022" lon="6.88243">
        <ele>2614</ele>
        <time>2022-08-27T05:32:56Z</time>
      </trkpt>
      <trkpt lat="45.77021" lon="6.88244">
        <ele>2614</ele>
        <time>2022-08-27T05:32:57Z</time>
      </trkpt>
      <trkpt lat="45.7702" lon="6.88245">
        <ele>2615</ele>
        <time>2022-08-27T05:32:59Z</time>
      </trkpt>
      <trkpt lat="45.77018" lon="6.88246">
        <ele>2615</ele>
        <time>2022-08-27T05:33:00Z</time>
      </trkpt>
      <trkpt lat="45.77017" lon="6.88247">
        <ele>2615</ele>
        <time>2022-08-27T05:33:02Z</time>
      </trkpt>
      <trkpt lat="45.77015" lon="6.88248">
        <ele>2615</ele>
        <time>2022-08-27T05:33:04Z</time>
      </trkpt>
      <trkpt lat="45.77014" lon="6.88249">
        <ele>2615</ele>
        <time>2022-08-27T05:33:05Z</time>
      </trkpt>
      <trkpt lat="45.77013" lon="6.8825">
        <ele>2615</ele>
        <time>2022-08-27T05:33:06Z</time>
      </trkpt>
      <trkpt lat="45.77011" lon="6.88251">
        <ele>2615</ele>
        <time>2022-08-27T05:33:07Z</time>
      </trkpt>
      <trkpt lat="45.7701" lon="6.88251">
        <ele>2615</ele>
        <time>2022-08-27T05:33:09Z</time>
      </trkpt>
      <trkpt lat="45.77009" lon="6.88252">
        <ele>2615</ele>
        <time>2022-08-27T05:33:10Z</time>
      </trkpt>
      <trkpt lat="45.77007" lon="6.88252">
        <ele>2615</ele>
        <time>2022-08-27T05:33:11Z</time>
      </trkpt>
      <trkpt lat="45.77006" lon="6.88253">
        <ele>2615</ele>
        <time>2022-08-27T05:33:12Z</time>
      </trkpt>
      <trkpt lat="45.77005" lon="6.88254">
        <ele>2616</ele>
        <time>2022-08-27T05:33:14Z</time>
      </trkpt>
      <trkpt lat="45.77004" lon="6.88254">
        <ele>2616</ele>
        <time>2022-08-27T05:33:15Z</time>
      </trkpt>
      <trkpt lat="45.77003" lon="6.88255">
        <ele>2616</ele>
        <time>2022-08-27T05:33:16Z</time>
      </trkpt>
      <trkpt lat="45.77003" lon="6.88257">
        <ele>2616</ele>
        <time>2022-08-27T05:33:17Z</time>
      </trkpt>
      <trkpt lat="45.77003" lon="6.88258">
        <ele>2616</ele>
        <time>2022-08-27T05:33:19Z</time>
      </trkpt>
      <trkpt lat="45.77002" lon="6.88259">
        <ele>2617</ele>
        <time>2022-08-27T05:33:20Z</time>
      </trkpt>
      <trkpt lat="45.77002" lon="6.8826">
        <ele>2617</ele>
        <time>2022-08-27T05:33:21Z</time>
      </trkpt>
      <trkpt lat="45.77002" lon="6.88261">
        <ele>2617</ele>
        <time>2022-08-27T05:33:22Z</time>
      </trkpt>
      <trkpt lat="45.77001" lon="6.88262">
        <ele>2619</ele>
        <time>2022-08-27T05:33:23Z</time>
      </trkpt>
      <trkpt lat="45.77001" lon="6.88264">
        <ele>2619</ele>
        <time>2022-08-27T05:33:24Z</time>
      </trkpt>
      <trkpt lat="45.77001" lon="6.88265">
        <ele>2619</ele>
        <time>2022-08-27T05:33:26Z</time>
      </trkpt>
      <trkpt lat="45.77" lon="6.88266">
        <ele>2619</ele>
        <time>2022-08-27T05:33:27Z</time>
      </trkpt>
      <trkpt lat="45.77" lon="6.88267">
        <ele>2619</ele>
        <time>2022-08-27T05:33:28Z</time>
      </trkpt>
      <trkpt lat="45.76999" lon="6.8827">
        <ele>2620</ele>
        <time>2022-08-27T05:33:29Z</time>
      </trkpt>
      <trkpt lat="45.76997" lon="6.88272">
        <ele>2620</ele>
        <time>2022-08-27T05:33:31Z</time>
      </trkpt>
      <trkpt lat="45.76996" lon="6.88274">
        <ele>2620</ele>
        <time>2022-08-27T05:33:33Z</time>
      </trkpt>
      <trkpt lat="45.76995" lon="6.88276">
        <ele>2620</ele>
        <time>2022-08-27T05:33:35Z</time>
      </trkpt>
      <trkpt lat="45.76994" lon="6.88277">
        <ele>2621</ele>
        <time>2022-08-27T05:33:36Z</time>
      </trkpt>
      <trkpt lat="45.76993" lon="6.88278">
        <ele>2621</ele>
        <time>2022-08-27T05:33:38Z</time>
      </trkpt>
      <trkpt lat="45.76992" lon="6.88279">
        <ele>2621</ele>
        <time>2022-08-27T05:33:40Z</time>
      </trkpt>
      <trkpt lat="45.76991" lon="6.8828">
        <ele>2621</ele>
        <time>2022-08-27T05:33:41Z</time>
      </trkpt>
      <trkpt lat="45.7699" lon="6.88281">
        <ele>2621</ele>
        <time>2022-08-27T05:33:42Z</time>
      </trkpt>
      <trkpt lat="45.76989" lon="6.88282">
        <ele>2621</ele>
        <time>2022-08-27T05:33:43Z</time>
      </trkpt>
      <trkpt lat="45.76988" lon="6.88284">
        <ele>2622</ele>
        <time>2022-08-27T05:33:45Z</time>
      </trkpt>
      <trkpt lat="45.76987" lon="6.88285">
        <ele>2622</ele>
        <time>2022-08-27T05:33:46Z</time>
      </trkpt>
      <trkpt lat="45.76987" lon="6.88286">
        <ele>2622</ele>
        <time>2022-08-27T05:33:47Z</time>
      </trkpt>
      <trkpt lat="45.76986" lon="6.88286">
        <ele>2622</ele>
        <time>2022-08-27T05:33:48Z</time>
      </trkpt>
      <trkpt lat="45.76985" lon="6.88287">
        <ele>2622</ele>
        <time>2022-08-27T05:33:50Z</time>
      </trkpt>
      <trkpt lat="45.76985" lon="6.88288">
        <ele>2622</ele>
        <time>2022-08-27T05:33:51Z</time>
      </trkpt>
      <trkpt lat="45.76984" lon="6.88289">
        <ele>2622</ele>
        <time>2022-08-27T05:33:52Z</time>
      </trkpt>
      <trkpt lat="45.76983" lon="6.8829">
        <ele>2623</ele>
        <time>2022-08-27T05:33:53Z</time>
      </trkpt>
      <trkpt lat="45.76983" lon="6.88291">
        <ele>2624</ele>
        <time>2022-08-27T05:33:55Z</time>
      </trkpt>
      <trkpt lat="45.76982" lon="6.88292">
        <ele>2624</ele>
        <time>2022-08-27T05:33:57Z</time>
      </trkpt>
      <trkpt lat="45.76981" lon="6.88293">
        <ele>2624</ele>
        <time>2022-08-27T05:33:58Z</time>
      </trkpt>
      <trkpt lat="45.76981" lon="6.88294">
        <ele>2625</ele>
        <time>2022-08-27T05:33:59Z</time>
      </trkpt>
      <trkpt lat="45.76979" lon="6.88296">
        <ele>2625</ele>
        <time>2022-08-27T05:34:01Z</time>
      </trkpt>
      <trkpt lat="45.76977" lon="6.88298">
        <ele>2625</ele>
        <time>2022-08-27T05:34:04Z</time>
      </trkpt>
      <trkpt lat="45.76976" lon="6.883">
        <ele>2626</ele>
        <time>2022-08-27T05:34:06Z</time>
      </trkpt>
      <trkpt lat="45.76974" lon="6.88301">
        <ele>2626</ele>
        <time>2022-08-27T05:34:09Z</time>
      </trkpt>
      <trkpt lat="45.76971" lon="6.88302">
        <ele>2626</ele>
        <time>2022-08-27T05:34:12Z</time>
      </trkpt>
      <trkpt lat="45.76969" lon="6.88304">
        <ele>2626</ele>
        <time>2022-08-27T05:34:15Z</time>
      </trkpt>
      <trkpt lat="45.76967" lon="6.88304">
        <ele>2627</ele>
        <time>2022-08-27T05:34:18Z</time>
      </trkpt>
      <trkpt lat="45.76966" lon="6.88306">
        <ele>2628</ele>
        <time>2022-08-27T05:34:21Z</time>
      </trkpt>
      <trkpt lat="45.76964" lon="6.88307">
        <ele>2628</ele>
        <time>2022-08-27T05:34:24Z</time>
      </trkpt>
      <trkpt lat="45.76962" lon="6.8831">
        <ele>2629</ele>
        <time>2022-08-27T05:34:27Z</time>
      </trkpt>
      <trkpt lat="45.7696" lon="6.88312">
        <ele>2629</ele>
        <time>2022-08-27T05:34:29Z</time>
      </trkpt>
      <trkpt lat="45.76959" lon="6.88313">
        <ele>2631</ele>
        <time>2022-08-27T05:34:31Z</time>
      </trkpt>
      <trkpt lat="45.76957" lon="6.88314">
        <ele>2631</ele>
        <time>2022-08-27T05:34:34Z</time>
      </trkpt>
      <trkpt lat="45.76954" lon="6.88316">
        <ele>2631</ele>
        <time>2022-08-27T05:34:37Z</time>
      </trkpt>
      <trkpt lat="45.76952" lon="6.88317">
        <ele>2632</ele>
        <time>2022-08-27T05:34:40Z</time>
      </trkpt>
      <trkpt lat="45.7695" lon="6.88318">
        <ele>2633</ele>
        <time>2022-08-27T05:34:43Z</time>
      </trkpt>
      <trkpt lat="45.76948" lon="6.88319">
        <ele>2633</ele>
        <time>2022-08-27T05:34:46Z</time>
      </trkpt>
      <trkpt lat="45.76946" lon="6.8832">
        <ele>2634</ele>
        <time>2022-08-27T05:34:50Z</time>
      </trkpt>
      <trkpt lat="45.76944" lon="6.88321">
        <ele>2634</ele>
        <time>2022-08-27T05:34:52Z</time>
      </trkpt>
      <trkpt lat="45.76942" lon="6.8832">
        <ele>2634</ele>
        <time>2022-08-27T05:34:55Z</time>
      </trkpt>
      <trkpt lat="45.7694" lon="6.88319">
        <ele>2635</ele>
        <time>2022-08-27T05:34:57Z</time>
      </trkpt>
      <trkpt lat="45.76939" lon="6.88318">
        <ele>2635</ele>
        <time>2022-08-27T05:34:59Z</time>
      </trkpt>
      <trkpt lat="45.76936" lon="6.88317">
        <ele>2635</ele>
        <time>2022-08-27T05:35:02Z</time>
      </trkpt>
      <trkpt lat="45.76934" lon="6.88317">
        <ele>2636</ele>
        <time>2022-08-27T05:35:05Z</time>
      </trkpt>
      <trkpt lat="45.76932" lon="6.88317">
        <ele>2637</ele>
        <time>2022-08-27T05:35:08Z</time>
      </trkpt>
      <trkpt lat="45.7693" lon="6.88318">
        <ele>2638</ele>
        <time>2022-08-27T05:35:11Z</time>
      </trkpt>
      <trkpt lat="45.76928" lon="6.88318">
        <ele>2638</ele>
        <time>2022-08-27T05:35:13Z</time>
      </trkpt>
      <trkpt lat="45.76926" lon="6.88318">
        <ele>2638</ele>
        <time>2022-08-27T05:35:16Z</time>
      </trkpt>
      <trkpt lat="45.76924" lon="6.88318">
        <ele>2639</ele>
        <time>2022-08-27T05:35:19Z</time>
      </trkpt>
      <trkpt lat="45.76922" lon="6.88317">
        <ele>2640</ele>
        <time>2022-08-27T05:35:22Z</time>
      </trkpt>
      <trkpt lat="45.76919" lon="6.88316">
        <ele>2640</ele>
        <time>2022-08-27T05:35:26Z</time>
      </trkpt>
      <trkpt lat="45.76918" lon="6.88318">
        <ele>2641</ele>
        <time>2022-08-27T05:35:31Z</time>
      </trkpt>
      <trkpt lat="45.76919" lon="6.8832">
        <ele>2641</ele>
        <time>2022-08-27T05:35:33Z</time>
      </trkpt>
      <trkpt lat="45.7692" lon="6.88323">
        <ele>2642</ele>
        <time>2022-08-27T05:35:35Z</time>
      </trkpt>
      <trkpt lat="45.7692" lon="6.88326">
        <ele>2642</ele>
        <time>2022-08-27T05:35:38Z</time>
      </trkpt>
      <trkpt lat="45.76919" lon="6.88329">
        <ele>2642</ele>
        <time>2022-08-27T05:35:41Z</time>
      </trkpt>
      <trkpt lat="45.76917" lon="6.8833">
        <ele>2644</ele>
        <time>2022-08-27T05:35:45Z</time>
      </trkpt>
      <trkpt lat="45.76915" lon="6.88331">
        <ele>2645</ele>
        <time>2022-08-27T05:35:48Z</time>
      </trkpt>
      <trkpt lat="45.76913" lon="6.88331">
        <ele>2645</ele>
        <time>2022-08-27T05:35:52Z</time>
      </trkpt>
      <trkpt lat="45.76911" lon="6.88331">
        <ele>2647</ele>
        <time>2022-08-27T05:35:56Z</time>
      </trkpt>
      <trkpt lat="45.76909" lon="6.88332">
        <ele>2647</ele>
        <time>2022-08-27T05:36:00Z</time>
      </trkpt>
      <trkpt lat="45.76907" lon="6.88332">
        <ele>2648</ele>
        <time>2022-08-27T05:36:03Z</time>
      </trkpt>
      <trkpt lat="45.76905" lon="6.88332">
        <ele>2649</ele>
        <time>2022-08-27T05:36:07Z</time>
      </trkpt>
      <trkpt lat="45.76903" lon="6.88333">
        <ele>2649</ele>
        <time>2022-08-27T05:36:11Z</time>
      </trkpt>
      <trkpt lat="45.76901" lon="6.88335">
        <ele>2649</ele>
        <time>2022-08-27T05:36:14Z</time>
      </trkpt>
      <trkpt lat="45.76899" lon="6.88335">
        <ele>2650</ele>
        <time>2022-08-27T05:36:18Z</time>
      </trkpt>
      <trkpt lat="45.76897" lon="6.88337">
        <ele>2651</ele>
        <time>2022-08-27T05:36:22Z</time>
      </trkpt>
      <trkpt lat="45.76896" lon="6.88339">
        <ele>2651</ele>
        <time>2022-08-27T05:36:26Z</time>
      </trkpt>
      <trkpt lat="45.76894" lon="6.8834">
        <ele>2652</ele>
        <time>2022-08-27T05:36:29Z</time>
      </trkpt>
      <trkpt lat="45.76892" lon="6.88342">
        <ele>2653</ele>
        <time>2022-08-27T05:36:35Z</time>
      </trkpt>
      <trkpt lat="45.76892" lon="6.88342">
        <ele>2653</ele>
        <time>2022-08-27T05:36:36Z</time>
      </trkpt>
      <trkpt lat="45.76891" lon="6.88343">
        <ele>2653</ele>
        <time>2022-08-27T05:36:38Z</time>
      </trkpt>
      <trkpt lat="45.7689" lon="6.88344">
        <ele>2654</ele>
        <time>2022-08-27T05:36:39Z</time>
      </trkpt>
      <trkpt lat="45.7689" lon="6.88345">
        <ele>2654</ele>
        <time>2022-08-27T05:36:40Z</time>
      </trkpt>
      <trkpt lat="45.76889" lon="6.88345">
        <ele>2654</ele>
        <time>2022-08-27T05:36:41Z</time>
      </trkpt>
      <trkpt lat="45.76889" lon="6.88346">
        <ele>2654</ele>
        <time>2022-08-27T05:36:42Z</time>
      </trkpt>
      <trkpt lat="45.76888" lon="6.88347">
        <ele>2656</ele>
        <time>2022-08-27T05:36:43Z</time>
      </trkpt>
      <trkpt lat="45.76886" lon="6.88348">
        <ele>2656</ele>
        <time>2022-08-27T05:36:46Z</time>
      </trkpt>
      <trkpt lat="45.76884" lon="6.88348">
        <ele>2656</ele>
        <time>2022-08-27T05:36:49Z</time>
      </trkpt>
      <trkpt lat="45.76882" lon="6.88349">
        <ele>2658</ele>
        <time>2022-08-27T05:36:54Z</time>
      </trkpt>
      <trkpt lat="45.76881" lon="6.88352">
        <ele>2658</ele>
        <time>2022-08-27T05:36:57Z</time>
      </trkpt>
      <trkpt lat="45.76881" lon="6.88355">
        <ele>2658</ele>
        <time>2022-08-27T05:37:00Z</time>
      </trkpt>
      <trkpt lat="45.76882" lon="6.88358">
        <ele>2659</ele>
        <time>2022-08-27T05:37:03Z</time>
      </trkpt>
      <trkpt lat="45.76884" lon="6.8836">
        <ele>2659</ele>
        <time>2022-08-27T05:37:06Z</time>
      </trkpt>
      <trkpt lat="45.76886" lon="6.88362">
        <ele>2659</ele>
        <time>2022-08-27T05:37:09Z</time>
      </trkpt>
      <trkpt lat="45.76888" lon="6.88363">
        <ele>2660</ele>
        <time>2022-08-27T05:37:12Z</time>
      </trkpt>
      <trkpt lat="45.7689" lon="6.88364">
        <ele>2660</ele>
        <time>2022-08-27T05:37:15Z</time>
      </trkpt>
      <trkpt lat="45.76891" lon="6.88367">
        <ele>2661</ele>
        <time>2022-08-27T05:37:18Z</time>
      </trkpt>
      <trkpt lat="45.7689" lon="6.88369">
        <ele>2661</ele>
        <time>2022-08-27T05:37:20Z</time>
      </trkpt>
      <trkpt lat="45.76889" lon="6.88372">
        <ele>2663</ele>
        <time>2022-08-27T05:37:24Z</time>
      </trkpt>
      <trkpt lat="45.76888" lon="6.88375">
        <ele>2663</ele>
        <time>2022-08-27T05:37:27Z</time>
      </trkpt>
      <trkpt lat="45.76887" lon="6.88377">
        <ele>2663</ele>
        <time>2022-08-27T05:37:30Z</time>
      </trkpt>
      <trkpt lat="45.76885" lon="6.88379">
        <ele>2663</ele>
        <time>2022-08-27T05:37:33Z</time>
      </trkpt>
      <trkpt lat="45.76884" lon="6.88382">
        <ele>2664</ele>
        <time>2022-08-27T05:37:36Z</time>
      </trkpt>
      <trkpt lat="45.76884" lon="6.88384">
        <ele>2664</ele>
        <time>2022-08-27T05:37:39Z</time>
      </trkpt>
      <trkpt lat="45.76884" lon="6.88387">
        <ele>2664</ele>
        <time>2022-08-27T05:37:42Z</time>
      </trkpt>
      <trkpt lat="45.76882" lon="6.8839">
        <ele>2665</ele>
        <time>2022-08-27T05:37:45Z</time>
      </trkpt>
      <trkpt lat="45.76881" lon="6.88393">
        <ele>2665</ele>
        <time>2022-08-27T05:37:49Z</time>
      </trkpt>
      <trkpt lat="45.76879" lon="6.88395">
        <ele>2666</ele>
        <time>2022-08-27T05:37:52Z</time>
      </trkpt>
      <trkpt lat="45.76878" lon="6.88398">
        <ele>2666</ele>
        <time>2022-08-27T05:37:55Z</time>
      </trkpt>
      <trkpt lat="45.76877" lon="6.884">
        <ele>2666</ele>
        <time>2022-08-27T05:37:57Z</time>
      </trkpt>
      <trkpt lat="45.76876" lon="6.88403">
        <ele>2668</ele>
        <time>2022-08-27T05:37:59Z</time>
      </trkpt>
      <trkpt lat="45.76874" lon="6.88405">
        <ele>2668</ele>
        <time>2022-08-27T05:38:02Z</time>
      </trkpt>
      <trkpt lat="45.76872" lon="6.88406">
        <ele>2668</ele>
        <time>2022-08-27T05:38:05Z</time>
      </trkpt>
      <trkpt lat="45.76871" lon="6.88408">
        <ele>2669</ele>
        <time>2022-08-27T05:38:08Z</time>
      </trkpt>
      <trkpt lat="45.76869" lon="6.88411">
        <ele>2669</ele>
        <time>2022-08-27T05:38:10Z</time>
      </trkpt>
      <trkpt lat="45.76868" lon="6.88412">
        <ele>2669</ele>
        <time>2022-08-27T05:38:12Z</time>
      </trkpt>
      <trkpt lat="45.76867" lon="6.88415">
        <ele>2669</ele>
        <time>2022-08-27T05:38:14Z</time>
      </trkpt>
      <trkpt lat="45.76865" lon="6.88417">
        <ele>2670</ele>
        <time>2022-08-27T05:38:16Z</time>
      </trkpt>
      <trkpt lat="45.76864" lon="6.88419">
        <ele>2670</ele>
        <time>2022-08-27T05:38:18Z</time>
      </trkpt>
      <trkpt lat="45.76863" lon="6.88421">
        <ele>2670</ele>
        <time>2022-08-27T05:38:20Z</time>
      </trkpt>
      <trkpt lat="45.76861" lon="6.88424">
        <ele>2670</ele>
        <time>2022-08-27T05:38:23Z</time>
      </trkpt>
      <trkpt lat="45.7686" lon="6.88426">
        <ele>2671</ele>
        <time>2022-08-27T05:38:26Z</time>
      </trkpt>
      <trkpt lat="45.76859" lon="6.88429">
        <ele>2671</ele>
        <time>2022-08-27T05:38:29Z</time>
      </trkpt>
      <trkpt lat="45.76858" lon="6.88432">
        <ele>2672</ele>
        <time>2022-08-27T05:38:32Z</time>
      </trkpt>
      <trkpt lat="45.76857" lon="6.88435">
        <ele>2673</ele>
        <time>2022-08-27T05:38:35Z</time>
      </trkpt>
      <trkpt lat="45.76856" lon="6.88438">
        <ele>2673</ele>
        <time>2022-08-27T05:38:38Z</time>
      </trkpt>
      <trkpt lat="45.76855" lon="6.88441">
        <ele>2673</ele>
        <time>2022-08-27T05:38:40Z</time>
      </trkpt>
      <trkpt lat="45.76855" lon="6.88444">
        <ele>2673</ele>
        <time>2022-08-27T05:38:42Z</time>
      </trkpt>
      <trkpt lat="45.76854" lon="6.88447">
        <ele>2674</ele>
        <time>2022-08-27T05:38:45Z</time>
      </trkpt>
      <trkpt lat="45.76853" lon="6.8845">
        <ele>2674</ele>
        <time>2022-08-27T05:38:47Z</time>
      </trkpt>
      <trkpt lat="45.76852" lon="6.88452">
        <ele>2674</ele>
        <time>2022-08-27T05:38:49Z</time>
      </trkpt>
      <trkpt lat="45.76851" lon="6.88455">
        <ele>2674</ele>
        <time>2022-08-27T05:38:52Z</time>
      </trkpt>
      <trkpt lat="45.7685" lon="6.88459">
        <ele>2674</ele>
        <time>2022-08-27T05:38:55Z</time>
      </trkpt>
      <trkpt lat="45.76849" lon="6.88462">
        <ele>2674</ele>
        <time>2022-08-27T05:38:57Z</time>
      </trkpt>
      <trkpt lat="45.76848" lon="6.88464">
        <ele>2674</ele>
        <time>2022-08-27T05:38:59Z</time>
      </trkpt>
      <trkpt lat="45.76847" lon="6.88467">
        <ele>2675</ele>
        <time>2022-08-27T05:39:01Z</time>
      </trkpt>
      <trkpt lat="45.76847" lon="6.8847">
        <ele>2675</ele>
        <time>2022-08-27T05:39:03Z</time>
      </trkpt>
      <trkpt lat="45.76845" lon="6.88473">
        <ele>2675</ele>
        <time>2022-08-27T05:39:06Z</time>
      </trkpt>
      <trkpt lat="45.76845" lon="6.88476">
        <ele>2675</ele>
        <time>2022-08-27T05:39:08Z</time>
      </trkpt>
      <trkpt lat="45.76844" lon="6.88479">
        <ele>2676</ele>
        <time>2022-08-27T05:39:10Z</time>
      </trkpt>
      <trkpt lat="45.76844" lon="6.88481">
        <ele>2676</ele>
        <time>2022-08-27T05:39:12Z</time>
      </trkpt>
      <trkpt lat="45.76842" lon="6.88484">
        <ele>2677</ele>
        <time>2022-08-27T05:39:15Z</time>
      </trkpt>
      <trkpt lat="45.76841" lon="6.88486">
        <ele>2677</ele>
        <time>2022-08-27T05:39:17Z</time>
      </trkpt>
      <trkpt lat="45.7684" lon="6.88489">
        <ele>2677</ele>
        <time>2022-08-27T05:39:20Z</time>
      </trkpt>
      <trkpt lat="45.76838" lon="6.88491">
        <ele>2680</ele>
        <time>2022-08-27T05:39:23Z</time>
      </trkpt>
      <trkpt lat="45.76837" lon="6.88493">
        <ele>2678</ele>
        <time>2022-08-27T05:39:26Z</time>
      </trkpt>
      <trkpt lat="45.76837" lon="6.88495">
        <ele>2680</ele>
        <time>2022-08-27T05:39:31Z</time>
      </trkpt>
      <trkpt lat="45.76839" lon="6.88497">
        <ele>2680</ele>
        <time>2022-08-27T05:39:35Z</time>
      </trkpt>
      <trkpt lat="45.76839" lon="6.885">
        <ele>2681</ele>
        <time>2022-08-27T05:39:38Z</time>
      </trkpt>
      <trkpt lat="45.76839" lon="6.88503">
        <ele>2682</ele>
        <time>2022-08-27T05:39:41Z</time>
      </trkpt>
      <trkpt lat="45.76838" lon="6.88506">
        <ele>2682</ele>
        <time>2022-08-27T05:39:45Z</time>
      </trkpt>
      <trkpt lat="45.76837" lon="6.88508">
        <ele>2682</ele>
        <time>2022-08-27T05:39:47Z</time>
      </trkpt>
      <trkpt lat="45.76837" lon="6.88511">
        <ele>2682</ele>
        <time>2022-08-27T05:39:50Z</time>
      </trkpt>
      <trkpt lat="45.76836" lon="6.88514">
        <ele>2682</ele>
        <time>2022-08-27T05:39:52Z</time>
      </trkpt>
      <trkpt lat="45.76837" lon="6.88518">
        <ele>2683</ele>
        <time>2022-08-27T05:39:55Z</time>
      </trkpt>
      <trkpt lat="45.76837" lon="6.88521">
        <ele>2683</ele>
        <time>2022-08-27T05:39:58Z</time>
      </trkpt>
      <trkpt lat="45.76836" lon="6.88525">
        <ele>2684</ele>
        <time>2022-08-27T05:40:01Z</time>
      </trkpt>
      <trkpt lat="45.76835" lon="6.88528">
        <ele>2684</ele>
        <time>2022-08-27T05:40:04Z</time>
      </trkpt>
      <trkpt lat="45.76834" lon="6.88531">
        <ele>2685</ele>
        <time>2022-08-27T05:40:07Z</time>
      </trkpt>
      <trkpt lat="45.76833" lon="6.88534">
        <ele>2686</ele>
        <time>2022-08-27T05:40:10Z</time>
      </trkpt>
      <trkpt lat="45.76832" lon="6.88537">
        <ele>2686</ele>
        <time>2022-08-27T05:40:13Z</time>
      </trkpt>
      <trkpt lat="45.76831" lon="6.8854">
        <ele>2687</ele>
        <time>2022-08-27T05:40:16Z</time>
      </trkpt>
      <trkpt lat="45.76831" lon="6.88543">
        <ele>2687</ele>
        <time>2022-08-27T05:40:19Z</time>
      </trkpt>
      <trkpt lat="45.7683" lon="6.88546">
        <ele>2688</ele>
        <time>2022-08-27T05:40:22Z</time>
      </trkpt>
      <trkpt lat="45.76829" lon="6.88549">
        <ele>2688</ele>
        <time>2022-08-27T05:40:24Z</time>
      </trkpt>
      <trkpt lat="45.76827" lon="6.88552">
        <ele>2688</ele>
        <time>2022-08-27T05:40:27Z</time>
      </trkpt>
      <trkpt lat="45.76826" lon="6.88554">
        <ele>2688</ele>
        <time>2022-08-27T05:40:29Z</time>
      </trkpt>
      <trkpt lat="45.76824" lon="6.88555">
        <ele>2688</ele>
        <time>2022-08-27T05:40:31Z</time>
      </trkpt>
      <trkpt lat="45.76822" lon="6.88557">
        <ele>2688</ele>
        <time>2022-08-27T05:40:33Z</time>
      </trkpt>
      <trkpt lat="45.7682" lon="6.88558">
        <ele>2688</ele>
        <time>2022-08-27T05:40:35Z</time>
      </trkpt>
      <trkpt lat="45.76818" lon="6.88561">
        <ele>2688</ele>
        <time>2022-08-27T05:40:37Z</time>
      </trkpt>
      <trkpt lat="45.76817" lon="6.88563">
        <ele>2688</ele>
        <time>2022-08-27T05:40:39Z</time>
      </trkpt>
      <trkpt lat="45.76815" lon="6.88565">
        <ele>2689</ele>
        <time>2022-08-27T05:40:41Z</time>
      </trkpt>
      <trkpt lat="45.76813" lon="6.88566">
        <ele>2689</ele>
        <time>2022-08-27T05:40:43Z</time>
      </trkpt>
      <trkpt lat="45.76811" lon="6.88568">
        <ele>2689</ele>
        <time>2022-08-27T05:40:45Z</time>
      </trkpt>
      <trkpt lat="45.7681" lon="6.8857">
        <ele>2689</ele>
        <time>2022-08-27T05:40:47Z</time>
      </trkpt>
      <trkpt lat="45.76809" lon="6.88572">
        <ele>2689</ele>
        <time>2022-08-27T05:40:49Z</time>
      </trkpt>
      <trkpt lat="45.76808" lon="6.88575">
        <ele>2690</ele>
        <time>2022-08-27T05:40:52Z</time>
      </trkpt>
      <trkpt lat="45.76806" lon="6.88578">
        <ele>2692</ele>
        <time>2022-08-27T05:40:56Z</time>
      </trkpt>
      <trkpt lat="45.76805" lon="6.8858">
        <ele>2690</ele>
        <time>2022-08-27T05:40:58Z</time>
      </trkpt>
      <trkpt lat="45.76804" lon="6.88581">
        <ele>2692</ele>
        <time>2022-08-27T05:41:00Z</time>
      </trkpt>
      <trkpt lat="45.76802" lon="6.88584">
        <ele>2693</ele>
        <time>2022-08-27T05:41:03Z</time>
      </trkpt>
      <trkpt lat="45.76802" lon="6.88587">
        <ele>2693</ele>
        <time>2022-08-27T05:41:06Z</time>
      </trkpt>
      <trkpt lat="45.768" lon="6.8859">
        <ele>2694</ele>
        <time>2022-08-27T05:41:11Z</time>
      </trkpt>
      <trkpt lat="45.76799" lon="6.88592">
        <ele>2694</ele>
        <time>2022-08-27T05:41:13Z</time>
      </trkpt>
      <trkpt lat="45.76798" lon="6.88594">
        <ele>2694</ele>
        <time>2022-08-27T05:41:15Z</time>
      </trkpt>
      <trkpt lat="45.76796" lon="6.88597">
        <ele>2694</ele>
        <time>2022-08-27T05:41:17Z</time>
      </trkpt>
      <trkpt lat="45.76795" lon="6.886">
        <ele>2695</ele>
        <time>2022-08-27T05:41:20Z</time>
      </trkpt>
      <trkpt lat="45.76794" lon="6.88603">
        <ele>2695</ele>
        <time>2022-08-27T05:41:23Z</time>
      </trkpt>
      <trkpt lat="45.76792" lon="6.88605">
        <ele>2695</ele>
        <time>2022-08-27T05:41:25Z</time>
      </trkpt>
      <trkpt lat="45.76791" lon="6.88608">
        <ele>2695</ele>
        <time>2022-08-27T05:41:28Z</time>
      </trkpt>
      <trkpt lat="45.7679" lon="6.88611">
        <ele>2696</ele>
        <time>2022-08-27T05:41:31Z</time>
      </trkpt>
      <trkpt lat="45.76788" lon="6.88615">
        <ele>2696</ele>
        <time>2022-08-27T05:41:34Z</time>
      </trkpt>
      <trkpt lat="45.76787" lon="6.88617">
        <ele>2697</ele>
        <time>2022-08-27T05:41:37Z</time>
      </trkpt>
      <trkpt lat="45.76785" lon="6.8862">
        <ele>2697</ele>
        <time>2022-08-27T05:41:40Z</time>
      </trkpt>
      <trkpt lat="45.76784" lon="6.88623">
        <ele>2698</ele>
        <time>2022-08-27T05:41:43Z</time>
      </trkpt>
      <trkpt lat="45.76783" lon="6.88625">
        <ele>2698</ele>
        <time>2022-08-27T05:41:46Z</time>
      </trkpt>
      <trkpt lat="45.76781" lon="6.88627">
        <ele>2698</ele>
        <time>2022-08-27T05:41:48Z</time>
      </trkpt>
      <trkpt lat="45.7678" lon="6.8863">
        <ele>2698</ele>
        <time>2022-08-27T05:41:51Z</time>
      </trkpt>
      <trkpt lat="45.7678" lon="6.88633">
        <ele>2699</ele>
        <time>2022-08-27T05:41:54Z</time>
      </trkpt>
      <trkpt lat="45.76779" lon="6.88636">
        <ele>2699</ele>
        <time>2022-08-27T05:41:56Z</time>
      </trkpt>
      <trkpt lat="45.76777" lon="6.88639">
        <ele>2700</ele>
        <time>2022-08-27T05:41:59Z</time>
      </trkpt>
      <trkpt lat="45.76776" lon="6.88642">
        <ele>2700</ele>
        <time>2022-08-27T05:42:02Z</time>
      </trkpt>
      <trkpt lat="45.76776" lon="6.88646">
        <ele>2701</ele>
        <time>2022-08-27T05:42:05Z</time>
      </trkpt>
      <trkpt lat="45.76774" lon="6.88648">
        <ele>2701</ele>
        <time>2022-08-27T05:42:08Z</time>
      </trkpt>
      <trkpt lat="45.76774" lon="6.88651">
        <ele>2701</ele>
        <time>2022-08-27T05:42:11Z</time>
      </trkpt>
      <trkpt lat="45.76773" lon="6.88653">
        <ele>2702</ele>
        <time>2022-08-27T05:42:13Z</time>
      </trkpt>
      <trkpt lat="45.76772" lon="6.88656">
        <ele>2702</ele>
        <time>2022-08-27T05:42:16Z</time>
      </trkpt>
      <trkpt lat="45.76771" lon="6.88659">
        <ele>2704</ele>
        <time>2022-08-27T05:42:19Z</time>
      </trkpt>
      <trkpt lat="45.7677" lon="6.88663">
        <ele>2704</ele>
        <time>2022-08-27T05:42:22Z</time>
      </trkpt>
      <trkpt lat="45.76769" lon="6.88665">
        <ele>2704</ele>
        <time>2022-08-27T05:42:24Z</time>
      </trkpt>
      <trkpt lat="45.76767" lon="6.88667">
        <ele>2704</ele>
        <time>2022-08-27T05:42:26Z</time>
      </trkpt>
      <trkpt lat="45.76766" lon="6.88669">
        <ele>2705</ele>
        <time>2022-08-27T05:42:29Z</time>
      </trkpt>
      <trkpt lat="45.76766" lon="6.88672">
        <ele>2705</ele>
        <time>2022-08-27T05:42:32Z</time>
      </trkpt>
      <trkpt lat="45.76765" lon="6.88676">
        <ele>2706</ele>
        <time>2022-08-27T05:42:35Z</time>
      </trkpt>
      <trkpt lat="45.76765" lon="6.88679">
        <ele>2706</ele>
        <time>2022-08-27T05:42:38Z</time>
      </trkpt>
      <trkpt lat="45.76767" lon="6.8868">
        <ele>2706</ele>
        <time>2022-08-27T05:42:43Z</time>
      </trkpt>
      <trkpt lat="45.76769" lon="6.88679">
        <ele>2708</ele>
        <time>2022-08-27T05:42:46Z</time>
      </trkpt>
      <trkpt lat="45.76772" lon="6.88677">
        <ele>2708</ele>
        <time>2022-08-27T05:42:49Z</time>
      </trkpt>
      <trkpt lat="45.76775" lon="6.88676">
        <ele>2709</ele>
        <time>2022-08-27T05:42:52Z</time>
      </trkpt>
      <trkpt lat="45.76777" lon="6.88676">
        <ele>2709</ele>
        <time>2022-08-27T05:42:56Z</time>
      </trkpt>
      <trkpt lat="45.76779" lon="6.88674">
        <ele>2709</ele>
        <time>2022-08-27T05:43:00Z</time>
      </trkpt>
      <trkpt lat="45.76781" lon="6.88672">
        <ele>2710</ele>
        <time>2022-08-27T05:43:03Z</time>
      </trkpt>
      <trkpt lat="45.76783" lon="6.88673">
        <ele>2710</ele>
        <time>2022-08-27T05:43:06Z</time>
      </trkpt>
      <trkpt lat="45.76786" lon="6.88673">
        <ele>2711</ele>
        <time>2022-08-27T05:43:09Z</time>
      </trkpt>
      <trkpt lat="45.76788" lon="6.88672">
        <ele>2711</ele>
        <time>2022-08-27T05:43:12Z</time>
      </trkpt>
      <trkpt lat="45.7679" lon="6.88671">
        <ele>2712</ele>
        <time>2022-08-27T05:43:14Z</time>
      </trkpt>
      <trkpt lat="45.76792" lon="6.8867">
        <ele>2712</ele>
        <time>2022-08-27T05:43:17Z</time>
      </trkpt>
      <trkpt lat="45.76795" lon="6.88671">
        <ele>2713</ele>
        <time>2022-08-27T05:43:20Z</time>
      </trkpt>
      <trkpt lat="45.76796" lon="6.88671">
        <ele>2713</ele>
        <time>2022-08-27T05:43:22Z</time>
      </trkpt>
      <trkpt lat="45.76799" lon="6.8867">
        <ele>2714</ele>
        <time>2022-08-27T05:43:25Z</time>
      </trkpt>
      <trkpt lat="45.76802" lon="6.8867">
        <ele>2714</ele>
        <time>2022-08-27T05:43:28Z</time>
      </trkpt>
      <trkpt lat="45.76804" lon="6.8867">
        <ele>2716</ele>
        <time>2022-08-27T05:43:32Z</time>
      </trkpt>
      <trkpt lat="45.76806" lon="6.8867">
        <ele>2717</ele>
        <time>2022-08-27T05:43:35Z</time>
      </trkpt>
      <trkpt lat="45.76808" lon="6.88671">
        <ele>2717</ele>
        <time>2022-08-27T05:43:37Z</time>
      </trkpt>
      <trkpt lat="45.7681" lon="6.88671">
        <ele>2717</ele>
        <time>2022-08-27T05:43:39Z</time>
      </trkpt>
      <trkpt lat="45.76812" lon="6.88672">
        <ele>2717</ele>
        <time>2022-08-27T05:43:41Z</time>
      </trkpt>
      <trkpt lat="45.76814" lon="6.88673">
        <ele>2717</ele>
        <time>2022-08-27T05:43:44Z</time>
      </trkpt>
      <trkpt lat="45.76816" lon="6.88675">
        <ele>2718</ele>
        <time>2022-08-27T05:43:46Z</time>
      </trkpt>
      <trkpt lat="45.76817" lon="6.88676">
        <ele>2718</ele>
        <time>2022-08-27T05:43:48Z</time>
      </trkpt>
      <trkpt lat="45.76819" lon="6.88678">
        <ele>2719</ele>
        <time>2022-08-27T05:43:51Z</time>
      </trkpt>
      <trkpt lat="45.76821" lon="6.8868">
        <ele>2719</ele>
        <time>2022-08-27T05:43:54Z</time>
      </trkpt>
      <trkpt lat="45.76823" lon="6.88681">
        <ele>2720</ele>
        <time>2022-08-27T05:43:56Z</time>
      </trkpt>
      <trkpt lat="45.76825" lon="6.88682">
        <ele>2720</ele>
        <time>2022-08-27T05:43:59Z</time>
      </trkpt>
      <trkpt lat="45.76828" lon="6.88683">
        <ele>2721</ele>
        <time>2022-08-27T05:44:02Z</time>
      </trkpt>
      <trkpt lat="45.76829" lon="6.88685">
        <ele>2722</ele>
        <time>2022-08-27T05:44:05Z</time>
      </trkpt>
      <trkpt lat="45.76832" lon="6.88686">
        <ele>2722</ele>
        <time>2022-08-27T05:44:08Z</time>
      </trkpt>
      <trkpt lat="45.76834" lon="6.88688">
        <ele>2722</ele>
        <time>2022-08-27T05:44:11Z</time>
      </trkpt>
      <trkpt lat="45.76835" lon="6.88691">
        <ele>2722</ele>
        <time>2022-08-27T05:44:14Z</time>
      </trkpt>
      <trkpt lat="45.76837" lon="6.88692">
        <ele>2723</ele>
        <time>2022-08-27T05:44:18Z</time>
      </trkpt>
      <trkpt lat="45.76839" lon="6.88691">
        <ele>2724</ele>
        <time>2022-08-27T05:44:21Z</time>
      </trkpt>
      <trkpt lat="45.76841" lon="6.8869">
        <ele>2724</ele>
        <time>2022-08-27T05:44:24Z</time>
      </trkpt>
      <trkpt lat="45.76843" lon="6.88689">
        <ele>2725</ele>
        <time>2022-08-27T05:44:27Z</time>
      </trkpt>
      <trkpt lat="45.76845" lon="6.88688">
        <ele>2725</ele>
        <time>2022-08-27T05:44:30Z</time>
      </trkpt>
      <trkpt lat="45.76847" lon="6.88687">
        <ele>2725</ele>
        <time>2022-08-27T05:44:33Z</time>
      </trkpt>
      <trkpt lat="45.76848" lon="6.88686">
        <ele>2726</ele>
        <time>2022-08-27T05:44:35Z</time>
      </trkpt>
      <trkpt lat="45.76851" lon="6.88685">
        <ele>2728</ele>
        <time>2022-08-27T05:44:38Z</time>
      </trkpt>
      <trkpt lat="45.76853" lon="6.88685">
        <ele>2728</ele>
        <time>2022-08-27T05:44:41Z</time>
      </trkpt>
      <trkpt lat="45.76855" lon="6.88683">
        <ele>2729</ele>
        <time>2022-08-27T05:44:44Z</time>
      </trkpt>
      <trkpt lat="45.76856" lon="6.88681">
        <ele>2729</ele>
        <time>2022-08-27T05:44:47Z</time>
      </trkpt>
      <trkpt lat="45.76858" lon="6.88679">
        <ele>2730</ele>
        <time>2022-08-27T05:44:49Z</time>
      </trkpt>
      <trkpt lat="45.7686" lon="6.88677">
        <ele>2730</ele>
        <time>2022-08-27T05:44:52Z</time>
      </trkpt>
      <trkpt lat="45.76862" lon="6.88676">
        <ele>2730</ele>
        <time>2022-08-27T05:44:55Z</time>
      </trkpt>
      <trkpt lat="45.76865" lon="6.88676">
        <ele>2731</ele>
        <time>2022-08-27T05:44:58Z</time>
      </trkpt>
      <trkpt lat="45.76867" lon="6.88674">
        <ele>2732</ele>
        <time>2022-08-27T05:45:02Z</time>
      </trkpt>
      <trkpt lat="45.76869" lon="6.88673">
        <ele>2732</ele>
        <time>2022-08-27T05:45:05Z</time>
      </trkpt>
      <trkpt lat="45.7687" lon="6.88675">
        <ele>2733</ele>
        <time>2022-08-27T05:45:08Z</time>
      </trkpt>
      <trkpt lat="45.76872" lon="6.88676">
        <ele>2734</ele>
        <time>2022-08-27T05:45:13Z</time>
      </trkpt>
      <trkpt lat="45.76874" lon="6.88674">
        <ele>2734</ele>
        <time>2022-08-27T05:45:15Z</time>
      </trkpt>
      <trkpt lat="45.76875" lon="6.88673">
        <ele>2735</ele>
        <time>2022-08-27T05:45:17Z</time>
      </trkpt>
      <trkpt lat="45.76878" lon="6.88672">
        <ele>2735</ele>
        <time>2022-08-27T05:45:19Z</time>
      </trkpt>
      <trkpt lat="45.7688" lon="6.88671">
        <ele>2734</ele>
        <time>2022-08-27T05:45:22Z</time>
      </trkpt>
      <trkpt lat="45.76882" lon="6.88671">
        <ele>2734</ele>
        <time>2022-08-27T05:45:24Z</time>
      </trkpt>
      <trkpt lat="45.76885" lon="6.88671">
        <ele>2735</ele>
        <time>2022-08-27T05:45:26Z</time>
      </trkpt>
      <trkpt lat="45.76887" lon="6.8867">
        <ele>2735</ele>
        <time>2022-08-27T05:45:29Z</time>
      </trkpt>
      <trkpt lat="45.76889" lon="6.88669">
        <ele>2736</ele>
        <time>2022-08-27T05:45:31Z</time>
      </trkpt>
      <trkpt lat="45.76892" lon="6.88667">
        <ele>2736</ele>
        <time>2022-08-27T05:45:33Z</time>
      </trkpt>
      <trkpt lat="45.76894" lon="6.88667">
        <ele>2737</ele>
        <time>2022-08-27T05:45:35Z</time>
      </trkpt>
      <trkpt lat="45.76896" lon="6.88667">
        <ele>2738</ele>
        <time>2022-08-27T05:45:38Z</time>
      </trkpt>
      <trkpt lat="45.76898" lon="6.88668">
        <ele>2737</ele>
        <time>2022-08-27T05:45:41Z</time>
      </trkpt>
      <trkpt lat="45.769" lon="6.88668">
        <ele>2737</ele>
        <time>2022-08-27T05:45:44Z</time>
      </trkpt>
      <trkpt lat="45.76903" lon="6.88668">
        <ele>2738</ele>
        <time>2022-08-27T05:45:47Z</time>
      </trkpt>
      <trkpt lat="45.76904" lon="6.88667">
        <ele>2738</ele>
        <time>2022-08-27T05:45:49Z</time>
      </trkpt>
      <trkpt lat="45.76906" lon="6.88667">
        <ele>2738</ele>
        <time>2022-08-27T05:45:51Z</time>
      </trkpt>
      <trkpt lat="45.76908" lon="6.88667">
        <ele>2740</ele>
        <time>2022-08-27T05:45:53Z</time>
      </trkpt>
      <trkpt lat="45.76911" lon="6.88667">
        <ele>2740</ele>
        <time>2022-08-27T05:45:56Z</time>
      </trkpt>
      <trkpt lat="45.76913" lon="6.88667">
        <ele>2741</ele>
        <time>2022-08-27T05:45:58Z</time>
      </trkpt>
      <trkpt lat="45.76915" lon="6.88665">
        <ele>2741</ele>
        <time>2022-08-27T05:46:00Z</time>
      </trkpt>
      <trkpt lat="45.76917" lon="6.88664">
        <ele>2741</ele>
        <time>2022-08-27T05:46:03Z</time>
      </trkpt>
      <trkpt lat="45.76919" lon="6.88663">
        <ele>2741</ele>
        <time>2022-08-27T05:46:04Z</time>
      </trkpt>
      <trkpt lat="45.76922" lon="6.88661">
        <ele>2741</ele>
        <time>2022-08-27T05:46:06Z</time>
      </trkpt>
      <trkpt lat="45.76925" lon="6.8866">
        <ele>2741</ele>
        <time>2022-08-27T05:46:08Z</time>
      </trkpt>
      <trkpt lat="45.76928" lon="6.88661">
        <ele>2741</ele>
        <time>2022-08-27T05:46:10Z</time>
      </trkpt>
      <trkpt lat="45.7693" lon="6.88662">
        <ele>2741</ele>
        <time>2022-08-27T05:46:12Z</time>
      </trkpt>
      <trkpt lat="45.76932" lon="6.88664">
        <ele>2741</ele>
        <time>2022-08-27T05:46:14Z</time>
      </trkpt>
      <trkpt lat="45.76933" lon="6.88666">
        <ele>2741</ele>
        <time>2022-08-27T05:46:16Z</time>
      </trkpt>
      <trkpt lat="45.76935" lon="6.88668">
        <ele>2741</ele>
        <time>2022-08-27T05:46:18Z</time>
      </trkpt>
      <trkpt lat="45.76936" lon="6.88671">
        <ele>2742</ele>
        <time>2022-08-27T05:46:20Z</time>
      </trkpt>
      <trkpt lat="45.76937" lon="6.88673">
        <ele>2742</ele>
        <time>2022-08-27T05:46:22Z</time>
      </trkpt>
      <trkpt lat="45.76938" lon="6.88676">
        <ele>2742</ele>
        <time>2022-08-27T05:46:24Z</time>
      </trkpt>
      <trkpt lat="45.76938" lon="6.88681">
        <ele>2742</ele>
        <time>2022-08-27T05:46:27Z</time>
      </trkpt>
      <trkpt lat="45.76938" lon="6.88685">
        <ele>2742</ele>
        <time>2022-08-27T05:46:30Z</time>
      </trkpt>
      <trkpt lat="45.76939" lon="6.88688">
        <ele>2742</ele>
        <time>2022-08-27T05:46:32Z</time>
      </trkpt>
      <trkpt lat="45.76939" lon="6.8869">
        <ele>2742</ele>
        <time>2022-08-27T05:46:34Z</time>
      </trkpt>
      <trkpt lat="45.7694" lon="6.88693">
        <ele>2741</ele>
        <time>2022-08-27T05:46:36Z</time>
      </trkpt>
      <trkpt lat="45.7694" lon="6.88696">
        <ele>2741</ele>
        <time>2022-08-27T05:46:38Z</time>
      </trkpt>
      <trkpt lat="45.76941" lon="6.88699">
        <ele>2742</ele>
        <time>2022-08-27T05:46:40Z</time>
      </trkpt>
      <trkpt lat="45.76942" lon="6.88701">
        <ele>2742</ele>
        <time>2022-08-27T05:46:42Z</time>
      </trkpt>
      <trkpt lat="45.76944" lon="6.88704">
        <ele>2742</ele>
        <time>2022-08-27T05:46:47Z</time>
      </trkpt>
      <trkpt lat="45.76945" lon="6.88707">
        <ele>2742</ele>
        <time>2022-08-27T05:46:49Z</time>
      </trkpt>
      <trkpt lat="45.76947" lon="6.8871">
        <ele>2742</ele>
        <time>2022-08-27T05:46:51Z</time>
      </trkpt>
      <trkpt lat="45.76948" lon="6.88713">
        <ele>2742</ele>
        <time>2022-08-27T05:46:53Z</time>
      </trkpt>
      <trkpt lat="45.7695" lon="6.88716">
        <ele>2742</ele>
        <time>2022-08-27T05:46:55Z</time>
      </trkpt>
      <trkpt lat="45.76952" lon="6.88719">
        <ele>2742</ele>
        <time>2022-08-27T05:46:57Z</time>
      </trkpt>
      <trkpt lat="45.76954" lon="6.88722">
        <ele>2742</ele>
        <time>2022-08-27T05:46:59Z</time>
      </trkpt>
      <trkpt lat="45.76955" lon="6.88726">
        <ele>2741</ele>
        <time>2022-08-27T05:47:01Z</time>
      </trkpt>
      <trkpt lat="45.76957" lon="6.88729">
        <ele>2741</ele>
        <time>2022-08-27T05:47:03Z</time>
      </trkpt>
      <trkpt lat="45.76958" lon="6.88732">
        <ele>2741</ele>
        <time>2022-08-27T05:47:05Z</time>
      </trkpt>
      <trkpt lat="45.76959" lon="6.88736">
        <ele>2741</ele>
        <time>2022-08-27T05:47:07Z</time>
      </trkpt>
      <trkpt lat="45.76959" lon="6.88739">
        <ele>2742</ele>
        <time>2022-08-27T05:47:09Z</time>
      </trkpt>
      <trkpt lat="45.7696" lon="6.88743">
        <ele>2742</ele>
        <time>2022-08-27T05:47:11Z</time>
      </trkpt>
      <trkpt lat="45.76961" lon="6.88747">
        <ele>2742</ele>
        <time>2022-08-27T05:47:13Z</time>
      </trkpt>
      <trkpt lat="45.76962" lon="6.88751">
        <ele>2742</ele>
        <time>2022-08-27T05:47:15Z</time>
      </trkpt>
      <trkpt lat="45.76963" lon="6.88754">
        <ele>2742</ele>
        <time>2022-08-27T05:47:17Z</time>
      </trkpt>
      <trkpt lat="45.76964" lon="6.88757">
        <ele>2742</ele>
        <time>2022-08-27T05:47:19Z</time>
      </trkpt>
      <trkpt lat="45.76966" lon="6.88761">
        <ele>2742</ele>
        <time>2022-08-27T05:47:22Z</time>
      </trkpt>
      <trkpt lat="45.76968" lon="6.88763">
        <ele>2742</ele>
        <time>2022-08-27T05:47:24Z</time>
      </trkpt>
      <trkpt lat="45.76969" lon="6.88766">
        <ele>2742</ele>
        <time>2022-08-27T05:47:26Z</time>
      </trkpt>
      <trkpt lat="45.7697" lon="6.8877">
        <ele>2743</ele>
        <time>2022-08-27T05:47:28Z</time>
      </trkpt>
      <trkpt lat="45.7697" lon="6.88773">
        <ele>2743</ele>
        <time>2022-08-27T05:47:30Z</time>
      </trkpt>
      <trkpt lat="45.76971" lon="6.88775">
        <ele>2743</ele>
        <time>2022-08-27T05:47:32Z</time>
      </trkpt>
      <trkpt lat="45.76972" lon="6.88778">
        <ele>2743</ele>
        <time>2022-08-27T05:47:34Z</time>
      </trkpt>
      <trkpt lat="45.76974" lon="6.8878">
        <ele>2745</ele>
        <time>2022-08-27T05:47:36Z</time>
      </trkpt>
      <trkpt lat="45.76976" lon="6.88782">
        <ele>2745</ele>
        <time>2022-08-27T05:47:38Z</time>
      </trkpt>
      <trkpt lat="45.76977" lon="6.88784">
        <ele>2745</ele>
        <time>2022-08-27T05:47:40Z</time>
      </trkpt>
      <trkpt lat="45.76979" lon="6.88786">
        <ele>2746</ele>
        <time>2022-08-27T05:47:42Z</time>
      </trkpt>
      <trkpt lat="45.76981" lon="6.88789">
        <ele>2746</ele>
        <time>2022-08-27T05:47:45Z</time>
      </trkpt>
      <trkpt lat="45.76982" lon="6.88792">
        <ele>2746</ele>
        <time>2022-08-27T05:47:47Z</time>
      </trkpt>
      <trkpt lat="45.76983" lon="6.88794">
        <ele>2747</ele>
        <time>2022-08-27T05:47:49Z</time>
      </trkpt>
      <trkpt lat="45.76984" lon="6.88795">
        <ele>2747</ele>
        <time>2022-08-27T05:47:51Z</time>
      </trkpt>
      <trkpt lat="45.76986" lon="6.88797">
        <ele>2747</ele>
        <time>2022-08-27T05:47:53Z</time>
      </trkpt>
      <trkpt lat="45.76988" lon="6.88799">
        <ele>2746</ele>
        <time>2022-08-27T05:47:55Z</time>
      </trkpt>
      <trkpt lat="45.7699" lon="6.88802">
        <ele>2746</ele>
        <time>2022-08-27T05:47:57Z</time>
      </trkpt>
      <trkpt lat="45.76992" lon="6.88805">
        <ele>2746</ele>
        <time>2022-08-27T05:47:59Z</time>
      </trkpt>
      <trkpt lat="45.76993" lon="6.88808">
        <ele>2747</ele>
        <time>2022-08-27T05:48:01Z</time>
      </trkpt>
      <trkpt lat="45.76995" lon="6.8881">
        <ele>2747</ele>
        <time>2022-08-27T05:48:03Z</time>
      </trkpt>
      <trkpt lat="45.76997" lon="6.8881">
        <ele>2747</ele>
        <time>2022-08-27T05:48:05Z</time>
      </trkpt>
      <trkpt lat="45.76999" lon="6.88811">
        <ele>2747</ele>
        <time>2022-08-27T05:48:07Z</time>
      </trkpt>
      <trkpt lat="45.77001" lon="6.88811">
        <ele>2748</ele>
        <time>2022-08-27T05:48:09Z</time>
      </trkpt>
      <trkpt lat="45.77002" lon="6.88812">
        <ele>2749</ele>
        <time>2022-08-27T05:48:11Z</time>
      </trkpt>
      <trkpt lat="45.77004" lon="6.88815">
        <ele>2749</ele>
        <time>2022-08-27T05:48:14Z</time>
      </trkpt>
      <trkpt lat="45.77006" lon="6.88817">
        <ele>2749</ele>
        <time>2022-08-27T05:48:16Z</time>
      </trkpt>
      <trkpt lat="45.77007" lon="6.88819">
        <ele>2749</ele>
        <time>2022-08-27T05:48:19Z</time>
      </trkpt>
      <trkpt lat="45.7701" lon="6.88821">
        <ele>2749</ele>
        <time>2022-08-27T05:48:22Z</time>
      </trkpt>
      <trkpt lat="45.77012" lon="6.88822">
        <ele>2750</ele>
        <time>2022-08-27T05:48:24Z</time>
      </trkpt>
      <trkpt lat="45.77014" lon="6.88824">
        <ele>2750</ele>
        <time>2022-08-27T05:48:26Z</time>
      </trkpt>
      <trkpt lat="45.77016" lon="6.88826">
        <ele>2750</ele>
        <time>2022-08-27T05:48:28Z</time>
      </trkpt>
      <trkpt lat="45.77018" lon="6.88828">
        <ele>2751</ele>
        <time>2022-08-27T05:48:31Z</time>
      </trkpt>
      <trkpt lat="45.77019" lon="6.8883">
        <ele>2751</ele>
        <time>2022-08-27T05:48:33Z</time>
      </trkpt>
      <trkpt lat="45.77021" lon="6.88831">
        <ele>2751</ele>
        <time>2022-08-27T05:48:35Z</time>
      </trkpt>
      <trkpt lat="45.77023" lon="6.88833">
        <ele>2753</ele>
        <time>2022-08-27T05:48:38Z</time>
      </trkpt>
      <trkpt lat="45.77025" lon="6.88834">
        <ele>2753</ele>
        <time>2022-08-27T05:48:40Z</time>
      </trkpt>
      <trkpt lat="45.77028" lon="6.88835">
        <ele>2754</ele>
        <time>2022-08-27T05:48:42Z</time>
      </trkpt>
      <trkpt lat="45.77029" lon="6.88836">
        <ele>2754</ele>
        <time>2022-08-27T05:48:44Z</time>
      </trkpt>
      <trkpt lat="45.77031" lon="6.88838">
        <ele>2754</ele>
        <time>2022-08-27T05:48:46Z</time>
      </trkpt>
      <trkpt lat="45.77033" lon="6.8884">
        <ele>2754</ele>
        <time>2022-08-27T05:48:48Z</time>
      </trkpt>
      <trkpt lat="45.77035" lon="6.88842">
        <ele>2754</ele>
        <time>2022-08-27T05:48:50Z</time>
      </trkpt>
      <trkpt lat="45.77036" lon="6.88844">
        <ele>2754</ele>
        <time>2022-08-27T05:48:52Z</time>
      </trkpt>
      <trkpt lat="45.77037" lon="6.88846">
        <ele>2754</ele>
        <time>2022-08-27T05:48:54Z</time>
      </trkpt>
      <trkpt lat="45.77038" lon="6.88849">
        <ele>2755</ele>
        <time>2022-08-27T05:48:56Z</time>
      </trkpt>
      <trkpt lat="45.7704" lon="6.88851">
        <ele>2756</ele>
        <time>2022-08-27T05:48:59Z</time>
      </trkpt>
      <trkpt lat="45.77042" lon="6.88853">
        <ele>2756</ele>
        <time>2022-08-27T05:49:02Z</time>
      </trkpt>
      <trkpt lat="45.77043" lon="6.88855">
        <ele>2758</ele>
        <time>2022-08-27T05:49:05Z</time>
      </trkpt>
      <trkpt lat="45.77046" lon="6.88857">
        <ele>2758</ele>
        <time>2022-08-27T05:49:09Z</time>
      </trkpt>
      <trkpt lat="45.77047" lon="6.88859">
        <ele>2758</ele>
        <time>2022-08-27T05:49:11Z</time>
      </trkpt>
      <trkpt lat="45.77049" lon="6.88861">
        <ele>2758</ele>
        <time>2022-08-27T05:49:13Z</time>
      </trkpt>
      <trkpt lat="45.77051" lon="6.88864">
        <ele>2759</ele>
        <time>2022-08-27T05:49:16Z</time>
      </trkpt>
      <trkpt lat="45.77052" lon="6.88866">
        <ele>2759</ele>
        <time>2022-08-27T05:49:19Z</time>
      </trkpt>
      <trkpt lat="45.77053" lon="6.88868">
        <ele>2759</ele>
        <time>2022-08-27T05:49:22Z</time>
      </trkpt>
      <trkpt lat="45.77055" lon="6.8887">
        <ele>2760</ele>
        <time>2022-08-27T05:49:25Z</time>
      </trkpt>
      <trkpt lat="45.77057" lon="6.88872">
        <ele>2761</ele>
        <time>2022-08-27T05:49:28Z</time>
      </trkpt>
      <trkpt lat="45.77058" lon="6.88874">
        <ele>2762</ele>
        <time>2022-08-27T05:49:31Z</time>
      </trkpt>
      <trkpt lat="45.77059" lon="6.88878">
        <ele>2762</ele>
        <time>2022-08-27T05:49:34Z</time>
      </trkpt>
      <trkpt lat="45.77061" lon="6.8888">
        <ele>2763</ele>
        <time>2022-08-27T05:49:36Z</time>
      </trkpt>
      <trkpt lat="45.77062" lon="6.88884">
        <ele>2763</ele>
        <time>2022-08-27T05:49:39Z</time>
      </trkpt>
      <trkpt lat="45.77063" lon="6.88887">
        <ele>2763</ele>
        <time>2022-08-27T05:49:42Z</time>
      </trkpt>
      <trkpt lat="45.77066" lon="6.88889">
        <ele>2765</ele>
        <time>2022-08-27T05:49:45Z</time>
      </trkpt>
      <trkpt lat="45.77068" lon="6.88891">
        <ele>2765</ele>
        <time>2022-08-27T05:49:47Z</time>
      </trkpt>
      <trkpt lat="45.7707" lon="6.88893">
        <ele>2765</ele>
        <time>2022-08-27T05:49:49Z</time>
      </trkpt>
      <trkpt lat="45.77072" lon="6.88896">
        <ele>2765</ele>
        <time>2022-08-27T05:49:52Z</time>
      </trkpt>
      <trkpt lat="45.77073" lon="6.88898">
        <ele>2766</ele>
        <time>2022-08-27T05:49:55Z</time>
      </trkpt>
      <trkpt lat="45.77075" lon="6.88901">
        <ele>2767</ele>
        <time>2022-08-27T05:49:58Z</time>
      </trkpt>
      <trkpt lat="45.77076" lon="6.88904">
        <ele>2767</ele>
        <time>2022-08-27T05:50:01Z</time>
      </trkpt>
      <trkpt lat="45.77077" lon="6.88906">
        <ele>2767</ele>
        <time>2022-08-27T05:50:05Z</time>
      </trkpt>
      <trkpt lat="45.77078" lon="6.88909">
        <ele>2768</ele>
        <time>2022-08-27T05:50:08Z</time>
      </trkpt>
      <trkpt lat="45.7708" lon="6.8891">
        <ele>2768</ele>
        <time>2022-08-27T05:50:11Z</time>
      </trkpt>
      <trkpt lat="45.77082" lon="6.88911">
        <ele>2769</ele>
        <time>2022-08-27T05:50:13Z</time>
      </trkpt>
      <trkpt lat="45.77083" lon="6.88913">
        <ele>2769</ele>
        <time>2022-08-27T05:50:15Z</time>
      </trkpt>
      <trkpt lat="45.77085" lon="6.88913">
        <ele>2770</ele>
        <time>2022-08-27T05:50:19Z</time>
      </trkpt>
      <trkpt lat="45.77087" lon="6.88914">
        <ele>2771</ele>
        <time>2022-08-27T05:50:22Z</time>
      </trkpt>
      <trkpt lat="45.77089" lon="6.88916">
        <ele>2771</ele>
        <time>2022-08-27T05:50:25Z</time>
      </trkpt>
      <trkpt lat="45.77091" lon="6.88918">
        <ele>2771</ele>
        <time>2022-08-27T05:50:28Z</time>
      </trkpt>
      <trkpt lat="45.77093" lon="6.88919">
        <ele>2772</ele>
        <time>2022-08-27T05:50:31Z</time>
      </trkpt>
      <trkpt lat="45.77095" lon="6.88919">
        <ele>2773</ele>
        <time>2022-08-27T05:50:34Z</time>
      </trkpt>
      <trkpt lat="45.77098" lon="6.88919">
        <ele>2773</ele>
        <time>2022-08-27T05:50:37Z</time>
      </trkpt>
      <trkpt lat="45.771" lon="6.8892">
        <ele>2774</ele>
        <time>2022-08-27T05:50:40Z</time>
      </trkpt>
      <trkpt lat="45.77101" lon="6.88921">
        <ele>2774</ele>
        <time>2022-08-27T05:50:43Z</time>
      </trkpt>
      <trkpt lat="45.77103" lon="6.88922">
        <ele>2774</ele>
        <time>2022-08-27T05:50:46Z</time>
      </trkpt>
      <trkpt lat="45.77106" lon="6.88923">
        <ele>2775</ele>
        <time>2022-08-27T05:50:49Z</time>
      </trkpt>
      <trkpt lat="45.77108" lon="6.88924">
        <ele>2777</ele>
        <time>2022-08-27T05:50:52Z</time>
      </trkpt>
      <trkpt lat="45.7711" lon="6.88924">
        <ele>2777</ele>
        <time>2022-08-27T05:50:55Z</time>
      </trkpt>
      <trkpt lat="45.77112" lon="6.88924">
        <ele>2778</ele>
        <time>2022-08-27T05:50:57Z</time>
      </trkpt>
      <trkpt lat="45.77114" lon="6.88925">
        <ele>2778</ele>
        <time>2022-08-27T05:51:00Z</time>
      </trkpt>
      <trkpt lat="45.77117" lon="6.88925">
        <ele>2778</ele>
        <time>2022-08-27T05:51:03Z</time>
      </trkpt>
      <trkpt lat="45.77119" lon="6.88925">
        <ele>2779</ele>
        <time>2022-08-27T05:51:06Z</time>
      </trkpt>
      <trkpt lat="45.77121" lon="6.88924">
        <ele>2780</ele>
        <time>2022-08-27T05:51:08Z</time>
      </trkpt>
      <trkpt lat="45.77123" lon="6.88924">
        <ele>2780</ele>
        <time>2022-08-27T05:51:10Z</time>
      </trkpt>
      <trkpt lat="45.77125" lon="6.88924">
        <ele>2780</ele>
        <time>2022-08-27T05:51:13Z</time>
      </trkpt>
      <trkpt lat="45.77127" lon="6.88924">
        <ele>2781</ele>
        <time>2022-08-27T05:51:16Z</time>
      </trkpt>
      <trkpt lat="45.7713" lon="6.88924">
        <ele>2781</ele>
        <time>2022-08-27T05:51:20Z</time>
      </trkpt>
      <trkpt lat="45.77132" lon="6.88925">
        <ele>2781</ele>
        <time>2022-08-27T05:51:23Z</time>
      </trkpt>
      <trkpt lat="45.77133" lon="6.88926">
        <ele>2782</ele>
        <time>2022-08-27T05:51:26Z</time>
      </trkpt>
      <trkpt lat="45.77136" lon="6.88927">
        <ele>2783</ele>
        <time>2022-08-27T05:51:30Z</time>
      </trkpt>
      <trkpt lat="45.77138" lon="6.88927">
        <ele>2784</ele>
        <time>2022-08-27T05:51:33Z</time>
      </trkpt>
      <trkpt lat="45.7714" lon="6.88927">
        <ele>2784</ele>
        <time>2022-08-27T05:51:36Z</time>
      </trkpt>
      <trkpt lat="45.77142" lon="6.88929">
        <ele>2785</ele>
        <time>2022-08-27T05:51:38Z</time>
      </trkpt>
      <trkpt lat="45.77144" lon="6.8893">
        <ele>2785</ele>
        <time>2022-08-27T05:51:41Z</time>
      </trkpt>
      <trkpt lat="45.77146" lon="6.88931">
        <ele>2785</ele>
        <time>2022-08-27T05:51:43Z</time>
      </trkpt>
      <trkpt lat="45.77148" lon="6.8893">
        <ele>2785</ele>
        <time>2022-08-27T05:51:46Z</time>
      </trkpt>
      <trkpt lat="45.7715" lon="6.8893">
        <ele>2786</ele>
        <time>2022-08-27T05:51:48Z</time>
      </trkpt>
      <trkpt lat="45.77152" lon="6.8893">
        <ele>2786</ele>
        <time>2022-08-27T05:51:51Z</time>
      </trkpt>
      <trkpt lat="45.77154" lon="6.88932">
        <ele>2786</ele>
        <time>2022-08-27T05:51:54Z</time>
      </trkpt>
      <trkpt lat="45.77156" lon="6.88933">
        <ele>2787</ele>
        <time>2022-08-27T05:51:57Z</time>
      </trkpt>
      <trkpt lat="45.77159" lon="6.88934">
        <ele>2789</ele>
        <time>2022-08-27T05:52:00Z</time>
      </trkpt>
      <trkpt lat="45.7716" lon="6.88936">
        <ele>2787</ele>
        <time>2022-08-27T05:52:02Z</time>
      </trkpt>
      <trkpt lat="45.77162" lon="6.88938">
        <ele>2789</ele>
        <time>2022-08-27T05:52:04Z</time>
      </trkpt>
      <trkpt lat="45.77164" lon="6.88939">
        <ele>2789</ele>
        <time>2022-08-27T05:52:07Z</time>
      </trkpt>
      <trkpt lat="45.77166" lon="6.8894">
        <ele>2790</ele>
        <time>2022-08-27T05:52:10Z</time>
      </trkpt>
      <trkpt lat="45.77169" lon="6.88941">
        <ele>2791</ele>
        <time>2022-08-27T05:52:13Z</time>
      </trkpt>
      <trkpt lat="45.77171" lon="6.88943">
        <ele>2791</ele>
        <time>2022-08-27T05:52:16Z</time>
      </trkpt>
      <trkpt lat="45.77173" lon="6.88944">
        <ele>2791</ele>
        <time>2022-08-27T05:52:18Z</time>
      </trkpt>
      <trkpt lat="45.77175" lon="6.88944">
        <ele>2792</ele>
        <time>2022-08-27T05:52:21Z</time>
      </trkpt>
      <trkpt lat="45.77177" lon="6.88944">
        <ele>2792</ele>
        <time>2022-08-27T05:52:24Z</time>
      </trkpt>
      <trkpt lat="45.77179" lon="6.88944">
        <ele>2793</ele>
        <time>2022-08-27T05:52:27Z</time>
      </trkpt>
      <trkpt lat="45.77182" lon="6.88945">
        <ele>2794</ele>
        <time>2022-08-27T05:52:30Z</time>
      </trkpt>
      <trkpt lat="45.77184" lon="6.88945">
        <ele>2794</ele>
        <time>2022-08-27T05:52:34Z</time>
      </trkpt>
      <trkpt lat="45.77187" lon="6.88946">
        <ele>2795</ele>
        <time>2022-08-27T05:52:37Z</time>
      </trkpt>
      <trkpt lat="45.77189" lon="6.88947">
        <ele>2795</ele>
        <time>2022-08-27T05:52:40Z</time>
      </trkpt>
      <trkpt lat="45.77191" lon="6.88948">
        <ele>2795</ele>
        <time>2022-08-27T05:52:43Z</time>
      </trkpt>
      <trkpt lat="45.77193" lon="6.8895">
        <ele>2796</ele>
        <time>2022-08-27T05:52:46Z</time>
      </trkpt>
      <trkpt lat="45.77196" lon="6.88952">
        <ele>2797</ele>
        <time>2022-08-27T05:52:49Z</time>
      </trkpt>
      <trkpt lat="45.77198" lon="6.88955">
        <ele>2797</ele>
        <time>2022-08-27T05:52:52Z</time>
      </trkpt>
      <trkpt lat="45.772" lon="6.88956">
        <ele>2798</ele>
        <time>2022-08-27T05:52:54Z</time>
      </trkpt>
      <trkpt lat="45.77201" lon="6.88958">
        <ele>2798</ele>
        <time>2022-08-27T05:52:56Z</time>
      </trkpt>
      <trkpt lat="45.77203" lon="6.8896">
        <ele>2797</ele>
        <time>2022-08-27T05:52:58Z</time>
      </trkpt>
      <trkpt lat="45.77204" lon="6.88962">
        <ele>2797</ele>
        <time>2022-08-27T05:53:00Z</time>
      </trkpt>
      <trkpt lat="45.77206" lon="6.88963">
        <ele>2798</ele>
        <time>2022-08-27T05:53:02Z</time>
      </trkpt>
      <trkpt lat="45.77207" lon="6.88965">
        <ele>2798</ele>
        <time>2022-08-27T05:53:04Z</time>
      </trkpt>
      <trkpt lat="45.77209" lon="6.88967">
        <ele>2799</ele>
        <time>2022-08-27T05:53:07Z</time>
      </trkpt>
      <trkpt lat="45.77211" lon="6.88969">
        <ele>2799</ele>
        <time>2022-08-27T05:53:09Z</time>
      </trkpt>
      <trkpt lat="45.77213" lon="6.8897">
        <ele>2799</ele>
        <time>2022-08-27T05:53:12Z</time>
      </trkpt>
      <trkpt lat="45.77214" lon="6.88972">
        <ele>2801</ele>
        <time>2022-08-27T05:53:15Z</time>
      </trkpt>
      <trkpt lat="45.77216" lon="6.88974">
        <ele>2801</ele>
        <time>2022-08-27T05:53:22Z</time>
      </trkpt>
      <trkpt lat="45.77216" lon="6.88974">
        <ele>2801</ele>
        <time>2022-08-27T05:53:30Z</time>
      </trkpt>
      <trkpt lat="45.77216" lon="6.88974">
        <ele>2801</ele>
        <time>2022-08-27T05:53:48Z</time>
      </trkpt>
      <trkpt lat="45.77217" lon="6.88977">
        <ele>2801</ele>
        <time>2022-08-27T05:53:54Z</time>
      </trkpt>
      <trkpt lat="45.77218" lon="6.88978">
        <ele>2802</ele>
        <time>2022-08-27T05:53:57Z</time>
      </trkpt>
      <trkpt lat="45.7722" lon="6.88981">
        <ele>2801</ele>
        <time>2022-08-27T05:54:05Z</time>
      </trkpt>
      <trkpt lat="45.77221" lon="6.88984">
        <ele>2801</ele>
        <time>2022-08-27T05:54:07Z</time>
      </trkpt>
      <trkpt lat="45.77222" lon="6.88986">
        <ele>2801</ele>
        <time>2022-08-27T05:54:09Z</time>
      </trkpt>
      <trkpt lat="45.77223" lon="6.88989">
        <ele>2801</ele>
        <time>2022-08-27T05:54:11Z</time>
      </trkpt>
      <trkpt lat="45.77223" lon="6.88991">
        <ele>2801</ele>
        <time>2022-08-27T05:54:13Z</time>
      </trkpt>
      <trkpt lat="45.77223" lon="6.88991">
        <ele>2799</ele>
        <time>2022-08-27T05:54:32Z</time>
      </trkpt>
      <trkpt lat="45.77223" lon="6.88991">
        <ele>2801</ele>
        <time>2022-08-27T05:54:51Z</time>
      </trkpt>
      <trkpt lat="45.77223" lon="6.88991">
        <ele>2801</ele>
        <time>2022-08-27T05:55:07Z</time>
      </trkpt>
      <trkpt lat="45.77223" lon="6.88991">
        <ele>2801</ele>
        <time>2022-08-27T05:55:24Z</time>
      </trkpt>
      <trkpt lat="45.77223" lon="6.88991">
        <ele>2801</ele>
        <time>2022-08-27T05:55:41Z</time>
      </trkpt>
      <trkpt lat="45.77223" lon="6.88991">
        <ele>2801</ele>
        <time>2022-08-27T05:55:58Z</time>
      </trkpt>
      <trkpt lat="45.77223" lon="6.88991">
        <ele>2802</ele>
        <time>2022-08-27T05:56:15Z</time>
      </trkpt>
      <trkpt lat="45.77223" lon="6.88991">
        <ele>2802</ele>
        <time>2022-08-27T05:56:32Z</time>
      </trkpt>
      <trkpt lat="45.77223" lon="6.88991">
        <ele>2801</ele>
        <time>2022-08-27T05:56:49Z</time>
      </trkpt>
      <trkpt lat="45.77223" lon="6.88991">
        <ele>2801</ele>
        <time>2022-08-27T05:57:08Z</time>
      </trkpt>
      <trkpt lat="45.77223" lon="6.88989">
        <ele>2801</ele>
        <time>2022-08-27T05:57:14Z</time>
      </trkpt>
      <trkpt lat="45.77221" lon="6.88987">
        <ele>2802</ele>
        <time>2022-08-27T05:57:18Z</time>
      </trkpt>
      <trkpt lat="45.77221" lon="6.88987">
        <ele>2802</ele>
        <time>2022-08-27T05:57:32Z</time>
      </trkpt>
      <trkpt lat="45.77221" lon="6.88987">
        <ele>2802</ele>
        <time>2022-08-27T05:57:49Z</time>
      </trkpt>
      <trkpt lat="45.77223" lon="6.88988">
        <ele>2801</ele>
        <time>2022-08-27T05:58:08Z</time>
      </trkpt>
      <trkpt lat="45.77223" lon="6.88988">
        <ele>2801</ele>
        <time>2022-08-27T05:58:09Z</time>
      </trkpt>
      <trkpt lat="45.77225" lon="6.88991">
        <ele>2801</ele>
        <time>2022-08-27T05:58:10Z</time>
      </trkpt>
      <trkpt lat="45.77226" lon="6.88995">
        <ele>2801</ele>
        <time>2022-08-27T05:58:12Z</time>
      </trkpt>
      <trkpt lat="45.77227" lon="6.88999">
        <ele>2801</ele>
        <time>2022-08-27T05:58:14Z</time>
      </trkpt>
      <trkpt lat="45.77227" lon="6.89004">
        <ele>2801</ele>
        <time>2022-08-27T05:58:16Z</time>
      </trkpt>
      <trkpt lat="45.77227" lon="6.89007">
        <ele>2799</ele>
        <time>2022-08-27T05:58:18Z</time>
      </trkpt>
      <trkpt lat="45.77226" lon="6.8901">
        <ele>2798</ele>
        <time>2022-08-27T05:58:20Z</time>
      </trkpt>
      <trkpt lat="45.77225" lon="6.89013">
        <ele>2797</ele>
        <time>2022-08-27T05:58:22Z</time>
      </trkpt>
      <trkpt lat="45.77225" lon="6.89016">
        <ele>2797</ele>
        <time>2022-08-27T05:58:24Z</time>
      </trkpt>
      <trkpt lat="45.77224" lon="6.89019">
        <ele>2797</ele>
        <time>2022-08-27T05:58:26Z</time>
      </trkpt>
      <trkpt lat="45.77223" lon="6.89021">
        <ele>2797</ele>
        <time>2022-08-27T05:58:28Z</time>
      </trkpt>
      <trkpt lat="45.77222" lon="6.89025">
        <ele>2796</ele>
        <time>2022-08-27T05:58:31Z</time>
      </trkpt>
      <trkpt lat="45.77221" lon="6.89028">
        <ele>2796</ele>
        <time>2022-08-27T05:58:34Z</time>
      </trkpt>
      <trkpt lat="45.77221" lon="6.89031">
        <ele>2795</ele>
        <time>2022-08-27T05:58:37Z</time>
      </trkpt>
      <trkpt lat="45.7722" lon="6.89033">
        <ele>2795</ele>
        <time>2022-08-27T05:58:44Z</time>
      </trkpt>
      <trkpt lat="45.77219" lon="6.89036">
        <ele>2794</ele>
        <time>2022-08-27T05:58:46Z</time>
      </trkpt>
      <trkpt lat="45.77217" lon="6.89039">
        <ele>2794</ele>
        <time>2022-08-27T05:58:48Z</time>
      </trkpt>
      <trkpt lat="45.77216" lon="6.89043">
        <ele>2793</ele>
        <time>2022-08-27T05:58:50Z</time>
      </trkpt>
      <trkpt lat="45.77216" lon="6.89047">
        <ele>2792</ele>
        <time>2022-08-27T05:58:52Z</time>
      </trkpt>
      <trkpt lat="45.77214" lon="6.8905">
        <ele>2792</ele>
        <time>2022-08-27T05:58:54Z</time>
      </trkpt>
      <trkpt lat="45.77212" lon="6.89053">
        <ele>2792</ele>
        <time>2022-08-27T05:58:56Z</time>
      </trkpt>
      <trkpt lat="45.7721" lon="6.89056">
        <ele>2791</ele>
        <time>2022-08-27T05:58:58Z</time>
      </trkpt>
      <trkpt lat="45.77208" lon="6.89059">
        <ele>2790</ele>
        <time>2022-08-27T05:59:00Z</time>
      </trkpt>
      <trkpt lat="45.77206" lon="6.89061">
        <ele>2790</ele>
        <time>2022-08-27T05:59:02Z</time>
      </trkpt>
      <trkpt lat="45.77203" lon="6.89063">
        <ele>2790</ele>
        <time>2022-08-27T05:59:04Z</time>
      </trkpt>
      <trkpt lat="45.77202" lon="6.89065">
        <ele>2790</ele>
        <time>2022-08-27T05:59:06Z</time>
      </trkpt>
      <trkpt lat="45.772" lon="6.89067">
        <ele>2789</ele>
        <time>2022-08-27T05:59:08Z</time>
      </trkpt>
      <trkpt lat="45.77198" lon="6.8907">
        <ele>2789</ele>
        <time>2022-08-27T05:59:10Z</time>
      </trkpt>
      <trkpt lat="45.77197" lon="6.89073">
        <ele>2787</ele>
        <time>2022-08-27T05:59:12Z</time>
      </trkpt>
      <trkpt lat="45.77195" lon="6.89075">
        <ele>2786</ele>
        <time>2022-08-27T05:59:14Z</time>
      </trkpt>
      <trkpt lat="45.77195" lon="6.89078">
        <ele>2786</ele>
        <time>2022-08-27T05:59:17Z</time>
      </trkpt>
      <trkpt lat="45.77196" lon="6.89079">
        <ele>2786</ele>
        <time>2022-08-27T05:59:19Z</time>
      </trkpt>
      <trkpt lat="45.77199" lon="6.89079">
        <ele>2785</ele>
        <time>2022-08-27T05:59:22Z</time>
      </trkpt>
      <trkpt lat="45.77201" lon="6.89081">
        <ele>2784</ele>
        <time>2022-08-27T05:59:24Z</time>
      </trkpt>
      <trkpt lat="45.77202" lon="6.89083">
        <ele>2783</ele>
        <time>2022-08-27T05:59:26Z</time>
      </trkpt>
      <trkpt lat="45.77204" lon="6.89084">
        <ele>2783</ele>
        <time>2022-08-27T05:59:28Z</time>
      </trkpt>
      <trkpt lat="45.77206" lon="6.89083">
        <ele>2782</ele>
        <time>2022-08-27T05:59:30Z</time>
      </trkpt>
      <trkpt lat="45.77208" lon="6.89081">
        <ele>2782</ele>
        <time>2022-08-27T05:59:32Z</time>
      </trkpt>
      <trkpt lat="45.77209" lon="6.8908">
        <ele>2781</ele>
        <time>2022-08-27T05:59:34Z</time>
      </trkpt>
      <trkpt lat="45.77211" lon="6.89077">
        <ele>2780</ele>
        <time>2022-08-27T05:59:37Z</time>
      </trkpt>
      <trkpt lat="45.77213" lon="6.89078">
        <ele>2780</ele>
        <time>2022-08-27T05:59:40Z</time>
      </trkpt>
      <trkpt lat="45.77215" lon="6.8908">
        <ele>2778</ele>
        <time>2022-08-27T05:59:44Z</time>
      </trkpt>
      <trkpt lat="45.77216" lon="6.89079">
        <ele>2778</ele>
        <time>2022-08-27T05:59:48Z</time>
      </trkpt>
      <trkpt lat="45.77218" lon="6.89078">
        <ele>2778</ele>
        <time>2022-08-27T05:59:49Z</time>
      </trkpt>
      <trkpt lat="45.77221" lon="6.89077">
        <ele>2775</ele>
        <time>2022-08-27T05:59:51Z</time>
      </trkpt>
      <trkpt lat="45.77223" lon="6.89076">
        <ele>2775</ele>
        <time>2022-08-27T05:59:53Z</time>
      </trkpt>
      <trkpt lat="45.77226" lon="6.89075">
        <ele>2774</ele>
        <time>2022-08-27T05:59:56Z</time>
      </trkpt>
      <trkpt lat="45.77228" lon="6.89076">
        <ele>2773</ele>
        <time>2022-08-27T05:59:57Z</time>
      </trkpt>
      <trkpt lat="45.77231" lon="6.89077">
        <ele>2773</ele>
        <time>2022-08-27T05:59:59Z</time>
      </trkpt>
      <trkpt lat="45.77233" lon="6.89076">
        <ele>2773</ele>
        <time>2022-08-27T06:00:01Z</time>
      </trkpt>
      <trkpt lat="45.77236" lon="6.89075">
        <ele>2772</ele>
        <time>2022-08-27T06:00:03Z</time>
      </trkpt>
      <trkpt lat="45.77238" lon="6.89078">
        <ele>2772</ele>
        <time>2022-08-27T06:00:05Z</time>
      </trkpt>
      <trkpt lat="45.7724" lon="6.89081">
        <ele>2771</ele>
        <time>2022-08-27T06:00:07Z</time>
      </trkpt>
      <trkpt lat="45.77242" lon="6.89082">
        <ele>2770</ele>
        <time>2022-08-27T06:00:09Z</time>
      </trkpt>
      <trkpt lat="45.77244" lon="6.89084">
        <ele>2769</ele>
        <time>2022-08-27T06:00:11Z</time>
      </trkpt>
      <trkpt lat="45.77245" lon="6.89085">
        <ele>2769</ele>
        <time>2022-08-27T06:00:13Z</time>
      </trkpt>
      <trkpt lat="45.77247" lon="6.89086">
        <ele>2769</ele>
        <time>2022-08-27T06:00:15Z</time>
      </trkpt>
      <trkpt lat="45.77247" lon="6.89086">
        <ele>2768</ele>
        <time>2022-08-27T06:00:31Z</time>
      </trkpt>
      <trkpt lat="45.77247" lon="6.89086">
        <ele>2768</ele>
        <time>2022-08-27T06:00:50Z</time>
      </trkpt>
      <trkpt lat="45.77249" lon="6.89088">
        <ele>2768</ele>
        <time>2022-08-27T06:01:07Z</time>
      </trkpt>
      <trkpt lat="45.77249" lon="6.89091">
        <ele>2768</ele>
        <time>2022-08-27T06:01:09Z</time>
      </trkpt>
      <trkpt lat="45.77248" lon="6.89095">
        <ele>2767</ele>
        <time>2022-08-27T06:01:12Z</time>
      </trkpt>
      <trkpt lat="45.77247" lon="6.89097">
        <ele>2766</ele>
        <time>2022-08-27T06:01:14Z</time>
      </trkpt>
      <trkpt lat="45.77245" lon="6.89099">
        <ele>2765</ele>
        <time>2022-08-27T06:01:16Z</time>
      </trkpt>
      <trkpt lat="45.77244" lon="6.891">
        <ele>2765</ele>
        <time>2022-08-27T06:01:18Z</time>
      </trkpt>
      <trkpt lat="45.77241" lon="6.891">
        <ele>2765</ele>
        <time>2022-08-27T06:01:21Z</time>
      </trkpt>
      <trkpt lat="45.77238" lon="6.89101">
        <ele>2763</ele>
        <time>2022-08-27T06:01:24Z</time>
      </trkpt>
      <trkpt lat="45.77236" lon="6.89103">
        <ele>2762</ele>
        <time>2022-08-27T06:01:26Z</time>
      </trkpt>
      <trkpt lat="45.77235" lon="6.89103">
        <ele>2762</ele>
        <time>2022-08-27T06:01:28Z</time>
      </trkpt>
      <trkpt lat="45.77234" lon="6.89104">
        <ele>2762</ele>
        <time>2022-08-27T06:01:29Z</time>
      </trkpt>
      <trkpt lat="45.77233" lon="6.89105">
        <ele>2762</ele>
        <time>2022-08-27T06:01:30Z</time>
      </trkpt>
      <trkpt lat="45.77231" lon="6.89106">
        <ele>2761</ele>
        <time>2022-08-27T06:01:32Z</time>
      </trkpt>
      <trkpt lat="45.77229" lon="6.89107">
        <ele>2760</ele>
        <time>2022-08-27T06:01:34Z</time>
      </trkpt>
      <trkpt lat="45.77226" lon="6.89109">
        <ele>2760</ele>
        <time>2022-08-27T06:01:36Z</time>
      </trkpt>
      <trkpt lat="45.77223" lon="6.8911">
        <ele>2759</ele>
        <time>2022-08-27T06:01:38Z</time>
      </trkpt>
      <trkpt lat="45.77221" lon="6.89112">
        <ele>2759</ele>
        <time>2022-08-27T06:01:40Z</time>
      </trkpt>
      <trkpt lat="45.77219" lon="6.89114">
        <ele>2758</ele>
        <time>2022-08-27T06:01:42Z</time>
      </trkpt>
      <trkpt lat="45.77217" lon="6.89116">
        <ele>2757</ele>
        <time>2022-08-27T06:01:44Z</time>
      </trkpt>
      <trkpt lat="45.77215" lon="6.8912">
        <ele>2757</ele>
        <time>2022-08-27T06:01:46Z</time>
      </trkpt>
      <trkpt lat="45.77214" lon="6.89122">
        <ele>2756</ele>
        <time>2022-08-27T06:01:47Z</time>
      </trkpt>
      <trkpt lat="45.77213" lon="6.89125">
        <ele>2756</ele>
        <time>2022-08-27T06:01:48Z</time>
      </trkpt>
      <trkpt lat="45.77211" lon="6.89127">
        <ele>2756</ele>
        <time>2022-08-27T06:01:49Z</time>
      </trkpt>
      <trkpt lat="45.7721" lon="6.89129">
        <ele>2756</ele>
        <time>2022-08-27T06:01:50Z</time>
      </trkpt>
      <trkpt lat="45.77208" lon="6.89131">
        <ele>2756</ele>
        <time>2022-08-27T06:01:52Z</time>
      </trkpt>
      <trkpt lat="45.77206" lon="6.89133">
        <ele>2756</ele>
        <time>2022-08-27T06:01:54Z</time>
      </trkpt>
      <trkpt lat="45.77205" lon="6.89137">
        <ele>2757</ele>
        <time>2022-08-27T06:01:57Z</time>
      </trkpt>
      <trkpt lat="45.77204" lon="6.89138">
        <ele>2757</ele>
        <time>2022-08-27T06:01:59Z</time>
      </trkpt>
      <trkpt lat="45.77202" lon="6.89141">
        <ele>2757</ele>
        <time>2022-08-27T06:02:02Z</time>
      </trkpt>
      <trkpt lat="45.772" lon="6.89143">
        <ele>2756</ele>
        <time>2022-08-27T06:02:04Z</time>
      </trkpt>
      <trkpt lat="45.77199" lon="6.89145">
        <ele>2755</ele>
        <time>2022-08-27T06:02:06Z</time>
      </trkpt>
      <trkpt lat="45.77199" lon="6.89148">
        <ele>2755</ele>
        <time>2022-08-27T06:02:08Z</time>
      </trkpt>
      <trkpt lat="45.77199" lon="6.89152">
        <ele>2751</ele>
        <time>2022-08-27T06:02:10Z</time>
      </trkpt>
      <trkpt lat="45.77196" lon="6.89155">
        <ele>2751</ele>
        <time>2022-08-27T06:02:12Z</time>
      </trkpt>
      <trkpt lat="45.77194" lon="6.89159">
        <ele>2751</ele>
        <time>2022-08-27T06:02:14Z</time>
      </trkpt>
      <trkpt lat="45.77191" lon="6.89161">
        <ele>2748</ele>
        <time>2022-08-27T06:02:16Z</time>
      </trkpt>
      <trkpt lat="45.77188" lon="6.89162">
        <ele>2748</ele>
        <time>2022-08-27T06:02:18Z</time>
      </trkpt>
      <trkpt lat="45.77185" lon="6.89165">
        <ele>2748</ele>
        <time>2022-08-27T06:02:20Z</time>
      </trkpt>
      <trkpt lat="45.77182" lon="6.89167">
        <ele>2747</ele>
        <time>2022-08-27T06:02:22Z</time>
      </trkpt>
      <trkpt lat="45.7718" lon="6.89169">
        <ele>2747</ele>
        <time>2022-08-27T06:02:23Z</time>
      </trkpt>
      <trkpt lat="45.77179" lon="6.8917">
        <ele>2747</ele>
        <time>2022-08-27T06:02:24Z</time>
      </trkpt>
      <trkpt lat="45.77175" lon="6.89175">
        <ele>2746</ele>
        <time>2022-08-27T06:02:26Z</time>
      </trkpt>
      <trkpt lat="45.77174" lon="6.89175">
        <ele>2746</ele>
        <time>2022-08-27T06:02:27Z</time>
      </trkpt>
      <trkpt lat="45.77172" lon="6.89179">
        <ele>2746</ele>
        <time>2022-08-27T06:02:28Z</time>
      </trkpt>
      <trkpt lat="45.77171" lon="6.8918">
        <ele>2745</ele>
        <time>2022-08-27T06:02:29Z</time>
      </trkpt>
      <trkpt lat="45.77169" lon="6.89182">
        <ele>2745</ele>
        <time>2022-08-27T06:02:30Z</time>
      </trkpt>
      <trkpt lat="45.77167" lon="6.89183">
        <ele>2745</ele>
        <time>2022-08-27T06:02:31Z</time>
      </trkpt>
      <trkpt lat="45.77166" lon="6.89184">
        <ele>2745</ele>
        <time>2022-08-27T06:02:32Z</time>
      </trkpt>
      <trkpt lat="45.77162" lon="6.89187">
        <ele>2744</ele>
        <time>2022-08-27T06:02:34Z</time>
      </trkpt>
      <trkpt lat="45.7716" lon="6.89191">
        <ele>2744</ele>
        <time>2022-08-27T06:02:36Z</time>
      </trkpt>
      <trkpt lat="45.77159" lon="6.89193">
        <ele>2743</ele>
        <time>2022-08-27T06:02:37Z</time>
      </trkpt>
      <trkpt lat="45.77158" lon="6.89195">
        <ele>2743</ele>
        <time>2022-08-27T06:02:38Z</time>
      </trkpt>
      <trkpt lat="45.77156" lon="6.89197">
        <ele>2743</ele>
        <time>2022-08-27T06:02:39Z</time>
      </trkpt>
      <trkpt lat="45.77155" lon="6.89199">
        <ele>2743</ele>
        <time>2022-08-27T06:02:40Z</time>
      </trkpt>
      <trkpt lat="45.77153" lon="6.892">
        <ele>2742</ele>
        <time>2022-08-27T06:02:41Z</time>
      </trkpt>
      <trkpt lat="45.77152" lon="6.89202">
        <ele>2742</ele>
        <time>2022-08-27T06:02:42Z</time>
      </trkpt>
      <trkpt lat="45.7715" lon="6.89203">
        <ele>2741</ele>
        <time>2022-08-27T06:02:43Z</time>
      </trkpt>
      <trkpt lat="45.77147" lon="6.89204">
        <ele>2741</ele>
        <time>2022-08-27T06:02:44Z</time>
      </trkpt>
      <trkpt lat="45.77145" lon="6.89206">
        <ele>2741</ele>
        <time>2022-08-27T06:02:45Z</time>
      </trkpt>
      <trkpt lat="45.77143" lon="6.89207">
        <ele>2741</ele>
        <time>2022-08-27T06:02:46Z</time>
      </trkpt>
      <trkpt lat="45.77141" lon="6.89208">
        <ele>2738</ele>
        <time>2022-08-27T06:02:47Z</time>
      </trkpt>
      <trkpt lat="45.77139" lon="6.89209">
        <ele>2738</ele>
        <time>2022-08-27T06:02:48Z</time>
      </trkpt>
      <trkpt lat="45.77137" lon="6.8921">
        <ele>2738</ele>
        <time>2022-08-27T06:02:49Z</time>
      </trkpt>
      <trkpt lat="45.77134" lon="6.89212">
        <ele>2738</ele>
        <time>2022-08-27T06:02:50Z</time>
      </trkpt>
      <trkpt lat="45.77133" lon="6.89212">
        <ele>2738</ele>
        <time>2022-08-27T06:02:51Z</time>
      </trkpt>
      <trkpt lat="45.77131" lon="6.89213">
        <ele>2738</ele>
        <time>2022-08-27T06:02:52Z</time>
      </trkpt>
      <trkpt lat="45.77129" lon="6.89215">
        <ele>2738</ele>
        <time>2022-08-27T06:02:53Z</time>
      </trkpt>
      <trkpt lat="45.77122" lon="6.89225">
        <ele>2736</ele>
        <time>2022-08-27T06:02:59Z</time>
      </trkpt>
      <trkpt lat="45.77121" lon="6.89227">
        <ele>2736</ele>
        <time>2022-08-27T06:03:00Z</time>
      </trkpt>
      <trkpt lat="45.7712" lon="6.89229">
        <ele>2736</ele>
        <time>2022-08-27T06:03:01Z</time>
      </trkpt>
      <trkpt lat="45.77118" lon="6.89232">
        <ele>2736</ele>
        <time>2022-08-27T06:03:02Z</time>
      </trkpt>
      <trkpt lat="45.77116" lon="6.89235">
        <ele>2736</ele>
        <time>2022-08-27T06:03:03Z</time>
      </trkpt>
      <trkpt lat="45.77115" lon="6.89237">
        <ele>2735</ele>
        <time>2022-08-27T06:03:04Z</time>
      </trkpt>
      <trkpt lat="45.77113" lon="6.89239">
        <ele>2734</ele>
        <time>2022-08-27T06:03:05Z</time>
      </trkpt>
      <trkpt lat="45.77111" lon="6.89242">
        <ele>2734</ele>
        <time>2022-08-27T06:03:06Z</time>
      </trkpt>
      <trkpt lat="45.7711" lon="6.89243">
        <ele>2734</ele>
        <time>2022-08-27T06:03:07Z</time>
      </trkpt>
      <trkpt lat="45.77108" lon="6.89245">
        <ele>2734</ele>
        <time>2022-08-27T06:03:08Z</time>
      </trkpt>
      <trkpt lat="45.77107" lon="6.89246">
        <ele>2734</ele>
        <time>2022-08-27T06:03:09Z</time>
      </trkpt>
      <trkpt lat="45.77104" lon="6.8925">
        <ele>2734</ele>
        <time>2022-08-27T06:03:11Z</time>
      </trkpt>
      <trkpt lat="45.77102" lon="6.89252">
        <ele>2734</ele>
        <time>2022-08-27T06:03:12Z</time>
      </trkpt>
      <trkpt lat="45.77101" lon="6.89254">
        <ele>2734</ele>
        <time>2022-08-27T06:03:13Z</time>
      </trkpt>
      <trkpt lat="45.77099" lon="6.89258">
        <ele>2734</ele>
        <time>2022-08-27T06:03:15Z</time>
      </trkpt>
      <trkpt lat="45.77098" lon="6.89262">
        <ele>2732</ele>
        <time>2022-08-27T06:03:17Z</time>
      </trkpt>
      <trkpt lat="45.77097" lon="6.89266">
        <ele>2732</ele>
        <time>2022-08-27T06:03:18Z</time>
      </trkpt>
      <trkpt lat="45.77097" lon="6.89268">
        <ele>2732</ele>
        <time>2022-08-27T06:03:19Z</time>
      </trkpt>
      <trkpt lat="45.77094" lon="6.89271">
        <ele>2731</ele>
        <time>2022-08-27T06:03:21Z</time>
      </trkpt>
      <trkpt lat="45.77091" lon="6.89274">
        <ele>2731</ele>
        <time>2022-08-27T06:03:23Z</time>
      </trkpt>
      <trkpt lat="45.77089" lon="6.89277">
        <ele>2731</ele>
        <time>2022-08-27T06:03:26Z</time>
      </trkpt>
      <trkpt lat="45.77088" lon="6.89281">
        <ele>2731</ele>
        <time>2022-08-27T06:03:27Z</time>
      </trkpt>
      <trkpt lat="45.77088" lon="6.89286">
        <ele>2730</ele>
        <time>2022-08-27T06:03:29Z</time>
      </trkpt>
      <trkpt lat="45.77087" lon="6.89289">
        <ele>2730</ele>
        <time>2022-08-27T06:03:30Z</time>
      </trkpt>
      <trkpt lat="45.77086" lon="6.89292">
        <ele>2729</ele>
        <time>2022-08-27T06:03:31Z</time>
      </trkpt>
      <trkpt lat="45.77085" lon="6.89294">
        <ele>2729</ele>
        <time>2022-08-27T06:03:32Z</time>
      </trkpt>
      <trkpt lat="45.77084" lon="6.89296">
        <ele>2729</ele>
        <time>2022-08-27T06:03:33Z</time>
      </trkpt>
      <trkpt lat="45.77082" lon="6.89298">
        <ele>2729</ele>
        <time>2022-08-27T06:03:34Z</time>
      </trkpt>
      <trkpt lat="45.77081" lon="6.893">
        <ele>2728</ele>
        <time>2022-08-27T06:03:35Z</time>
      </trkpt>
      <trkpt lat="45.77078" lon="6.89304">
        <ele>2726</ele>
        <time>2022-08-27T06:03:37Z</time>
      </trkpt>
      <trkpt lat="45.77077" lon="6.89307">
        <ele>2726</ele>
        <time>2022-08-27T06:03:38Z</time>
      </trkpt>
      <trkpt lat="45.77076" lon="6.89311">
        <ele>2726</ele>
        <time>2022-08-27T06:03:40Z</time>
      </trkpt>
      <trkpt lat="45.77075" lon="6.89313">
        <ele>2726</ele>
        <time>2022-08-27T06:03:41Z</time>
      </trkpt>
      <trkpt lat="45.77074" lon="6.89315">
        <ele>2726</ele>
        <time>2022-08-27T06:03:42Z</time>
      </trkpt>
      <trkpt lat="45.77073" lon="6.89318">
        <ele>2726</ele>
        <time>2022-08-27T06:03:43Z</time>
      </trkpt>
      <trkpt lat="45.77072" lon="6.8932">
        <ele>2726</ele>
        <time>2022-08-27T06:03:44Z</time>
      </trkpt>
      <trkpt lat="45.77071" lon="6.89322">
        <ele>2725</ele>
        <time>2022-08-27T06:03:45Z</time>
      </trkpt>
      <trkpt lat="45.77068" lon="6.89329">
        <ele>2725</ele>
        <time>2022-08-27T06:03:48Z</time>
      </trkpt>
      <trkpt lat="45.77067" lon="6.89331">
        <ele>2725</ele>
        <time>2022-08-27T06:03:49Z</time>
      </trkpt>
      <trkpt lat="45.77066" lon="6.89335">
        <ele>2725</ele>
        <time>2022-08-27T06:03:51Z</time>
      </trkpt>
      <trkpt lat="45.77065" lon="6.8934">
        <ele>2725</ele>
        <time>2022-08-27T06:03:53Z</time>
      </trkpt>
      <trkpt lat="45.77064" lon="6.89343">
        <ele>2725</ele>
        <time>2022-08-27T06:03:54Z</time>
      </trkpt>
      <trkpt lat="45.77063" lon="6.89346">
        <ele>2725</ele>
        <time>2022-08-27T06:03:55Z</time>
      </trkpt>
      <trkpt lat="45.77062" lon="6.89348">
        <ele>2725</ele>
        <time>2022-08-27T06:03:56Z</time>
      </trkpt>
      <trkpt lat="45.77062" lon="6.89351">
        <ele>2725</ele>
        <time>2022-08-27T06:03:57Z</time>
      </trkpt>
      <trkpt lat="45.77061" lon="6.89354">
        <ele>2724</ele>
        <time>2022-08-27T06:03:58Z</time>
      </trkpt>
      <trkpt lat="45.77061" lon="6.89356">
        <ele>2724</ele>
        <time>2022-08-27T06:03:59Z</time>
      </trkpt>
      <trkpt lat="45.7706" lon="6.89361">
        <ele>2723</ele>
        <time>2022-08-27T06:04:01Z</time>
      </trkpt>
      <trkpt lat="45.77061" lon="6.89365">
        <ele>2723</ele>
        <time>2022-08-27T06:04:03Z</time>
      </trkpt>
      <trkpt lat="45.77062" lon="6.89369">
        <ele>2722</ele>
        <time>2022-08-27T06:04:05Z</time>
      </trkpt>
      <trkpt lat="45.77062" lon="6.89374">
        <ele>2722</ele>
        <time>2022-08-27T06:04:07Z</time>
      </trkpt>
      <trkpt lat="45.77062" lon="6.89379">
        <ele>2721</ele>
        <time>2022-08-27T06:04:09Z</time>
      </trkpt>
      <trkpt lat="45.77061" lon="6.89382">
        <ele>2720</ele>
        <time>2022-08-27T06:04:10Z</time>
      </trkpt>
      <trkpt lat="45.7706" lon="6.89384">
        <ele>2720</ele>
        <time>2022-08-27T06:04:11Z</time>
      </trkpt>
      <trkpt lat="45.77059" lon="6.89386">
        <ele>2720</ele>
        <time>2022-08-27T06:04:12Z</time>
      </trkpt>
      <trkpt lat="45.77058" lon="6.89388">
        <ele>2719</ele>
        <time>2022-08-27T06:04:13Z</time>
      </trkpt>
      <trkpt lat="45.77057" lon="6.8939">
        <ele>2719</ele>
        <time>2022-08-27T06:04:14Z</time>
      </trkpt>
      <trkpt lat="45.77055" lon="6.89392">
        <ele>2719</ele>
        <time>2022-08-27T06:04:15Z</time>
      </trkpt>
      <trkpt lat="45.77054" lon="6.89394">
        <ele>2719</ele>
        <time>2022-08-27T06:04:16Z</time>
      </trkpt>
      <trkpt lat="45.77053" lon="6.89397">
        <ele>2719</ele>
        <time>2022-08-27T06:04:17Z</time>
      </trkpt>
      <trkpt lat="45.77052" lon="6.89401">
        <ele>2719</ele>
        <time>2022-08-27T06:04:19Z</time>
      </trkpt>
      <trkpt lat="45.77052" lon="6.89404">
        <ele>2719</ele>
        <time>2022-08-27T06:04:20Z</time>
      </trkpt>
      <trkpt lat="45.7705" lon="6.89411">
        <ele>2718</ele>
        <time>2022-08-27T06:04:23Z</time>
      </trkpt>
      <trkpt lat="45.77049" lon="6.89414">
        <ele>2718</ele>
        <time>2022-08-27T06:04:24Z</time>
      </trkpt>
      <trkpt lat="45.77049" lon="6.89417">
        <ele>2718</ele>
        <time>2022-08-27T06:04:25Z</time>
      </trkpt>
      <trkpt lat="45.77048" lon="6.8942">
        <ele>2718</ele>
        <time>2022-08-27T06:04:26Z</time>
      </trkpt>
      <trkpt lat="45.77047" lon="6.89424">
        <ele>2718</ele>
        <time>2022-08-27T06:04:27Z</time>
      </trkpt>
      <trkpt lat="45.77047" lon="6.89425">
        <ele>2718</ele>
        <time>2022-08-27T06:04:28Z</time>
      </trkpt>
      <trkpt lat="45.77046" lon="6.89428">
        <ele>2718</ele>
        <time>2022-08-27T06:04:29Z</time>
      </trkpt>
      <trkpt lat="45.77045" lon="6.89431">
        <ele>2717</ele>
        <time>2022-08-27T06:04:30Z</time>
      </trkpt>
      <trkpt lat="45.77044" lon="6.89435">
        <ele>2717</ele>
        <time>2022-08-27T06:04:32Z</time>
      </trkpt>
      <trkpt lat="45.77043" lon="6.89439">
        <ele>2717</ele>
        <time>2022-08-27T06:04:34Z</time>
      </trkpt>
      <trkpt lat="45.77042" lon="6.89444">
        <ele>2716</ele>
        <time>2022-08-27T06:04:36Z</time>
      </trkpt>
      <trkpt lat="45.77042" lon="6.89446">
        <ele>2716</ele>
        <time>2022-08-27T06:04:37Z</time>
      </trkpt>
      <trkpt lat="45.77041" lon="6.89449">
        <ele>2714</ele>
        <time>2022-08-27T06:04:38Z</time>
      </trkpt>
      <trkpt lat="45.77041" lon="6.89454">
        <ele>2713</ele>
        <time>2022-08-27T06:04:40Z</time>
      </trkpt>
      <trkpt lat="45.77042" lon="6.89458">
        <ele>2713</ele>
        <time>2022-08-27T06:04:42Z</time>
      </trkpt>
      <trkpt lat="45.77043" lon="6.89463">
        <ele>2713</ele>
        <time>2022-08-27T06:04:44Z</time>
      </trkpt>
      <trkpt lat="45.77043" lon="6.89466">
        <ele>2712</ele>
        <time>2022-08-27T06:04:45Z</time>
      </trkpt>
      <trkpt lat="45.77044" lon="6.89469">
        <ele>2712</ele>
        <time>2022-08-27T06:04:46Z</time>
      </trkpt>
      <trkpt lat="45.77044" lon="6.89471">
        <ele>2712</ele>
        <time>2022-08-27T06:04:47Z</time>
      </trkpt>
      <trkpt lat="45.77045" lon="6.89477">
        <ele>2711</ele>
        <time>2022-08-27T06:04:49Z</time>
      </trkpt>
      <trkpt lat="45.77044" lon="6.89479">
        <ele>2710</ele>
        <time>2022-08-27T06:04:50Z</time>
      </trkpt>
      <trkpt lat="45.77043" lon="6.89482">
        <ele>2709</ele>
        <time>2022-08-27T06:04:51Z</time>
      </trkpt>
      <trkpt lat="45.77043" lon="6.89485">
        <ele>2709</ele>
        <time>2022-08-27T06:04:52Z</time>
      </trkpt>
      <trkpt lat="45.77042" lon="6.8949">
        <ele>2709</ele>
        <time>2022-08-27T06:04:54Z</time>
      </trkpt>
      <trkpt lat="45.77041" lon="6.89495">
        <ele>2708</ele>
        <time>2022-08-27T06:04:56Z</time>
      </trkpt>
      <trkpt lat="45.77041" lon="6.89498">
        <ele>2708</ele>
        <time>2022-08-27T06:04:57Z</time>
      </trkpt>
      <trkpt lat="45.77041" lon="6.89501">
        <ele>2708</ele>
        <time>2022-08-27T06:04:58Z</time>
      </trkpt>
      <trkpt lat="45.7704" lon="6.89504">
        <ele>2708</ele>
        <time>2022-08-27T06:04:59Z</time>
      </trkpt>
      <trkpt lat="45.7704" lon="6.89507">
        <ele>2707</ele>
        <time>2022-08-27T06:05:01Z</time>
      </trkpt>
      <trkpt lat="45.7704" lon="6.89512">
        <ele>2707</ele>
        <time>2022-08-27T06:05:02Z</time>
      </trkpt>
      <trkpt lat="45.77039" lon="6.89516">
        <ele>2706</ele>
        <time>2022-08-27T06:05:04Z</time>
      </trkpt>
      <trkpt lat="45.77038" lon="6.89521">
        <ele>2705</ele>
        <time>2022-08-27T06:05:06Z</time>
      </trkpt>
      <trkpt lat="45.77037" lon="6.89525">
        <ele>2705</ele>
        <time>2022-08-27T06:05:07Z</time>
      </trkpt>
      <trkpt lat="45.77036" lon="6.89527">
        <ele>2705</ele>
        <time>2022-08-27T06:05:08Z</time>
      </trkpt>
      <trkpt lat="45.77036" lon="6.89532">
        <ele>2705</ele>
        <time>2022-08-27T06:05:09Z</time>
      </trkpt>
      <trkpt lat="45.77036" lon="6.89533">
        <ele>2704</ele>
        <time>2022-08-27T06:05:10Z</time>
      </trkpt>
      <trkpt lat="45.77035" lon="6.89536">
        <ele>2704</ele>
        <time>2022-08-27T06:05:11Z</time>
      </trkpt>
      <trkpt lat="45.77034" lon="6.89541">
        <ele>2704</ele>
        <time>2022-08-27T06:05:12Z</time>
      </trkpt>
      <trkpt lat="45.77034" lon="6.89542">
        <ele>2704</ele>
        <time>2022-08-27T06:05:13Z</time>
      </trkpt>
      <trkpt lat="45.77033" lon="6.89547">
        <ele>2704</ele>
        <time>2022-08-27T06:05:14Z</time>
      </trkpt>
      <trkpt lat="45.77032" lon="6.89548">
        <ele>2702</ele>
        <time>2022-08-27T06:05:15Z</time>
      </trkpt>
      <trkpt lat="45.77031" lon="6.89551">
        <ele>2702</ele>
        <time>2022-08-27T06:05:16Z</time>
      </trkpt>
      <trkpt lat="45.7703" lon="6.89558">
        <ele>2702</ele>
        <time>2022-08-27T06:05:18Z</time>
      </trkpt>
      <trkpt lat="45.7703" lon="6.89559">
        <ele>2701</ele>
        <time>2022-08-27T06:05:19Z</time>
      </trkpt>
      <trkpt lat="45.77029" lon="6.89565">
        <ele>2701</ele>
        <time>2022-08-27T06:05:21Z</time>
      </trkpt>
      <trkpt lat="45.77029" lon="6.89569">
        <ele>2701</ele>
        <time>2022-08-27T06:05:22Z</time>
      </trkpt>
      <trkpt lat="45.77028" lon="6.89575">
        <ele>2700</ele>
        <time>2022-08-27T06:05:24Z</time>
      </trkpt>
      <trkpt lat="45.77028" lon="6.89578">
        <ele>2700</ele>
        <time>2022-08-27T06:05:25Z</time>
      </trkpt>
      <trkpt lat="45.77028" lon="6.89581">
        <ele>2700</ele>
        <time>2022-08-27T06:05:26Z</time>
      </trkpt>
      <trkpt lat="45.77027" lon="6.89584">
        <ele>2700</ele>
        <time>2022-08-27T06:05:27Z</time>
      </trkpt>
      <trkpt lat="45.77027" lon="6.89587">
        <ele>2700</ele>
        <time>2022-08-27T06:05:28Z</time>
      </trkpt>
      <trkpt lat="45.77026" lon="6.89589">
        <ele>2700</ele>
        <time>2022-08-27T06:05:29Z</time>
      </trkpt>
      <trkpt lat="45.77026" lon="6.89592">
        <ele>2700</ele>
        <time>2022-08-27T06:05:30Z</time>
      </trkpt>
      <trkpt lat="45.77026" lon="6.896">
        <ele>2701</ele>
        <time>2022-08-27T06:05:33Z</time>
      </trkpt>
      <trkpt lat="45.77026" lon="6.89602">
        <ele>2701</ele>
        <time>2022-08-27T06:05:34Z</time>
      </trkpt>
      <trkpt lat="45.77025" lon="6.89607">
        <ele>2701</ele>
        <time>2022-08-27T06:05:36Z</time>
      </trkpt>
      <trkpt lat="45.77025" lon="6.89611">
        <ele>2700</ele>
        <time>2022-08-27T06:05:38Z</time>
      </trkpt>
      <trkpt lat="45.77026" lon="6.89615">
        <ele>2701</ele>
        <time>2022-08-27T06:05:40Z</time>
      </trkpt>
      <trkpt lat="45.77027" lon="6.89619">
        <ele>2701</ele>
        <time>2022-08-27T06:05:42Z</time>
      </trkpt>
      <trkpt lat="45.77028" lon="6.89624">
        <ele>2701</ele>
        <time>2022-08-27T06:05:44Z</time>
      </trkpt>
      <trkpt lat="45.77028" lon="6.89627">
        <ele>2701</ele>
        <time>2022-08-27T06:05:45Z</time>
      </trkpt>
      <trkpt lat="45.77029" lon="6.89629">
        <ele>2701</ele>
        <time>2022-08-27T06:05:46Z</time>
      </trkpt>
      <trkpt lat="45.7703" lon="6.89633">
        <ele>2701</ele>
        <time>2022-08-27T06:05:48Z</time>
      </trkpt>
      <trkpt lat="45.77031" lon="6.89636">
        <ele>2701</ele>
        <time>2022-08-27T06:05:51Z</time>
      </trkpt>
      <trkpt lat="45.77032" lon="6.89641">
        <ele>2701</ele>
        <time>2022-08-27T06:05:53Z</time>
      </trkpt>
      <trkpt lat="45.77033" lon="6.89644">
        <ele>2701</ele>
        <time>2022-08-27T06:05:55Z</time>
      </trkpt>
      <trkpt lat="45.77034" lon="6.89647">
        <ele>2701</ele>
        <time>2022-08-27T06:05:57Z</time>
      </trkpt>
      <trkpt lat="45.77035" lon="6.89651">
        <ele>2701</ele>
        <time>2022-08-27T06:05:59Z</time>
      </trkpt>
      <trkpt lat="45.77035" lon="6.89655">
        <ele>2701</ele>
        <time>2022-08-27T06:06:01Z</time>
      </trkpt>
      <trkpt lat="45.77035" lon="6.89659">
        <ele>2701</ele>
        <time>2022-08-27T06:06:03Z</time>
      </trkpt>
      <trkpt lat="45.77036" lon="6.89662">
        <ele>2702</ele>
        <time>2022-08-27T06:06:05Z</time>
      </trkpt>
      <trkpt lat="45.77037" lon="6.89665">
        <ele>2702</ele>
        <time>2022-08-27T06:06:07Z</time>
      </trkpt>
      <trkpt lat="45.77038" lon="6.89667">
        <ele>2702</ele>
        <time>2022-08-27T06:06:08Z</time>
      </trkpt>
      <trkpt lat="45.77039" lon="6.89669">
        <ele>2702</ele>
        <time>2022-08-27T06:06:09Z</time>
      </trkpt>
      <trkpt lat="45.7704" lon="6.89671">
        <ele>2702</ele>
        <time>2022-08-27T06:06:10Z</time>
      </trkpt>
      <trkpt lat="45.77043" lon="6.89674">
        <ele>2702</ele>
        <time>2022-08-27T06:06:12Z</time>
      </trkpt>
      <trkpt lat="45.77045" lon="6.89677">
        <ele>2702</ele>
        <time>2022-08-27T06:06:15Z</time>
      </trkpt>
      <trkpt lat="45.77047" lon="6.8968">
        <ele>2702</ele>
        <time>2022-08-27T06:06:16Z</time>
      </trkpt>
      <trkpt lat="45.7705" lon="6.89683">
        <ele>2702</ele>
        <time>2022-08-27T06:06:20Z</time>
      </trkpt>
      <trkpt lat="45.77052" lon="6.89685">
        <ele>2702</ele>
        <time>2022-08-27T06:06:21Z</time>
      </trkpt>
      <trkpt lat="45.77052" lon="6.89689">
        <ele>2702</ele>
        <time>2022-08-27T06:06:23Z</time>
      </trkpt>
      <trkpt lat="45.77053" lon="6.89693">
        <ele>2702</ele>
        <time>2022-08-27T06:06:25Z</time>
      </trkpt>
      <trkpt lat="45.77054" lon="6.89696">
        <ele>2702</ele>
        <time>2022-08-27T06:06:27Z</time>
      </trkpt>
      <trkpt lat="45.77054" lon="6.897">
        <ele>2702</ele>
        <time>2022-08-27T06:06:29Z</time>
      </trkpt>
      <trkpt lat="45.77054" lon="6.89704">
        <ele>2702</ele>
        <time>2022-08-27T06:06:31Z</time>
      </trkpt>
      <trkpt lat="45.77055" lon="6.89707">
        <ele>2704</ele>
        <time>2022-08-27T06:06:34Z</time>
      </trkpt>
      <trkpt lat="45.77056" lon="6.89711">
        <ele>2704</ele>
        <time>2022-08-27T06:06:35Z</time>
      </trkpt>
      <trkpt lat="45.77059" lon="6.89714">
        <ele>2704</ele>
        <time>2022-08-27T06:06:37Z</time>
      </trkpt>
      <trkpt lat="45.7706" lon="6.89715">
        <ele>2704</ele>
        <time>2022-08-27T06:06:38Z</time>
      </trkpt>
      <trkpt lat="45.77062" lon="6.89717">
        <ele>2704</ele>
        <time>2022-08-27T06:06:39Z</time>
      </trkpt>
      <trkpt lat="45.77063" lon="6.8972">
        <ele>2705</ele>
        <time>2022-08-27T06:06:40Z</time>
      </trkpt>
      <trkpt lat="45.77064" lon="6.89722">
        <ele>2705</ele>
        <time>2022-08-27T06:06:41Z</time>
      </trkpt>
      <trkpt lat="45.77066" lon="6.89727">
        <ele>2705</ele>
        <time>2022-08-27T06:06:43Z</time>
      </trkpt>
      <trkpt lat="45.77067" lon="6.8973">
        <ele>2704</ele>
        <time>2022-08-27T06:06:46Z</time>
      </trkpt>
      <trkpt lat="45.77068" lon="6.89733">
        <ele>2704</ele>
        <time>2022-08-27T06:06:47Z</time>
      </trkpt>
      <trkpt lat="45.77069" lon="6.89736">
        <ele>2704</ele>
        <time>2022-08-27T06:06:49Z</time>
      </trkpt>
      <trkpt lat="45.7707" lon="6.89739">
        <ele>2704</ele>
        <time>2022-08-27T06:06:51Z</time>
      </trkpt>
      <trkpt lat="45.77072" lon="6.89742">
        <ele>2704</ele>
        <time>2022-08-27T06:06:53Z</time>
      </trkpt>
      <trkpt lat="45.77073" lon="6.89745">
        <ele>2704</ele>
        <time>2022-08-27T06:06:55Z</time>
      </trkpt>
      <trkpt lat="45.77074" lon="6.89747">
        <ele>2704</ele>
        <time>2022-08-27T06:06:57Z</time>
      </trkpt>
      <trkpt lat="45.77075" lon="6.89749">
        <ele>2704</ele>
        <time>2022-08-27T06:07:00Z</time>
      </trkpt>
      <trkpt lat="45.77076" lon="6.89752">
        <ele>2704</ele>
        <time>2022-08-27T06:07:01Z</time>
      </trkpt>
      <trkpt lat="45.77076" lon="6.89755">
        <ele>2705</ele>
        <time>2022-08-27T06:07:03Z</time>
      </trkpt>
      <trkpt lat="45.77078" lon="6.89757">
        <ele>2705</ele>
        <time>2022-08-27T06:07:05Z</time>
      </trkpt>
      <trkpt lat="45.77081" lon="6.8976">
        <ele>2706</ele>
        <time>2022-08-27T06:07:07Z</time>
      </trkpt>
      <trkpt lat="45.77082" lon="6.89765">
        <ele>2706</ele>
        <time>2022-08-27T06:07:09Z</time>
      </trkpt>
      <trkpt lat="45.77082" lon="6.89768">
        <ele>2706</ele>
        <time>2022-08-27T06:07:11Z</time>
      </trkpt>
      <trkpt lat="45.77083" lon="6.89771">
        <ele>2706</ele>
        <time>2022-08-27T06:07:13Z</time>
      </trkpt>
      <trkpt lat="45.77084" lon="6.89774">
        <ele>2706</ele>
        <time>2022-08-27T06:07:15Z</time>
      </trkpt>
      <trkpt lat="45.77085" lon="6.89777">
        <ele>2706</ele>
        <time>2022-08-27T06:07:17Z</time>
      </trkpt>
      <trkpt lat="45.77086" lon="6.8978">
        <ele>2707</ele>
        <time>2022-08-27T06:07:19Z</time>
      </trkpt>
      <trkpt lat="45.77088" lon="6.89783">
        <ele>2707</ele>
        <time>2022-08-27T06:07:21Z</time>
      </trkpt>
      <trkpt lat="45.77089" lon="6.89786">
        <ele>2707</ele>
        <time>2022-08-27T06:07:23Z</time>
      </trkpt>
      <trkpt lat="45.77091" lon="6.89789">
        <ele>2708</ele>
        <time>2022-08-27T06:07:25Z</time>
      </trkpt>
      <trkpt lat="45.77091" lon="6.89792">
        <ele>2708</ele>
        <time>2022-08-27T06:07:27Z</time>
      </trkpt>
      <trkpt lat="45.77093" lon="6.89795">
        <ele>2709</ele>
        <time>2022-08-27T06:07:30Z</time>
      </trkpt>
      <trkpt lat="45.77094" lon="6.89798">
        <ele>2708</ele>
        <time>2022-08-27T06:07:33Z</time>
      </trkpt>
      <trkpt lat="45.77095" lon="6.89801">
        <ele>2708</ele>
        <time>2022-08-27T06:07:34Z</time>
      </trkpt>
      <trkpt lat="45.77096" lon="6.89804">
        <ele>2709</ele>
        <time>2022-08-27T06:07:36Z</time>
      </trkpt>
      <trkpt lat="45.77097" lon="6.89807">
        <ele>2709</ele>
        <time>2022-08-27T06:07:38Z</time>
      </trkpt>
      <trkpt lat="45.77098" lon="6.89809">
        <ele>2709</ele>
        <time>2022-08-27T06:07:40Z</time>
      </trkpt>
      <trkpt lat="45.77099" lon="6.89812">
        <ele>2710</ele>
        <time>2022-08-27T06:07:42Z</time>
      </trkpt>
      <trkpt lat="45.771" lon="6.89815">
        <ele>2710</ele>
        <time>2022-08-27T06:07:45Z</time>
      </trkpt>
      <trkpt lat="45.771" lon="6.89817">
        <ele>2711</ele>
        <time>2022-08-27T06:07:46Z</time>
      </trkpt>
      <trkpt lat="45.77101" lon="6.8982">
        <ele>2711</ele>
        <time>2022-08-27T06:07:49Z</time>
      </trkpt>
      <trkpt lat="45.77102" lon="6.89822">
        <ele>2711</ele>
        <time>2022-08-27T06:07:51Z</time>
      </trkpt>
      <trkpt lat="45.77104" lon="6.89825">
        <ele>2712</ele>
        <time>2022-08-27T06:07:53Z</time>
      </trkpt>
      <trkpt lat="45.77104" lon="6.89828">
        <ele>2712</ele>
        <time>2022-08-27T06:07:55Z</time>
      </trkpt>
      <trkpt lat="45.77104" lon="6.89831">
        <ele>2713</ele>
        <time>2022-08-27T06:07:57Z</time>
      </trkpt>
      <trkpt lat="45.77105" lon="6.89834">
        <ele>2713</ele>
        <time>2022-08-27T06:08:00Z</time>
      </trkpt>
      <trkpt lat="45.77105" lon="6.89837">
        <ele>2713</ele>
        <time>2022-08-27T06:08:01Z</time>
      </trkpt>
      <trkpt lat="45.77105" lon="6.89839">
        <ele>2714</ele>
        <time>2022-08-27T06:08:03Z</time>
      </trkpt>
      <trkpt lat="45.77106" lon="6.89842">
        <ele>2714</ele>
        <time>2022-08-27T06:08:05Z</time>
      </trkpt>
      <trkpt lat="45.77107" lon="6.89846">
        <ele>2714</ele>
        <time>2022-08-27T06:08:08Z</time>
      </trkpt>
      <trkpt lat="45.77109" lon="6.89849">
        <ele>2714</ele>
        <time>2022-08-27T06:08:10Z</time>
      </trkpt>
      <trkpt lat="45.7711" lon="6.89852">
        <ele>2714</ele>
        <time>2022-08-27T06:08:12Z</time>
      </trkpt>
      <trkpt lat="45.77111" lon="6.89855">
        <ele>2716</ele>
        <time>2022-08-27T06:08:14Z</time>
      </trkpt>
      <trkpt lat="45.77113" lon="6.89857">
        <ele>2716</ele>
        <time>2022-08-27T06:08:16Z</time>
      </trkpt>
      <trkpt lat="45.77114" lon="6.8986">
        <ele>2716</ele>
        <time>2022-08-27T06:08:18Z</time>
      </trkpt>
      <trkpt lat="45.77114" lon="6.89863">
        <ele>2717</ele>
        <time>2022-08-27T06:08:21Z</time>
      </trkpt>
      <trkpt lat="45.77115" lon="6.89866">
        <ele>2717</ele>
        <time>2022-08-27T06:08:23Z</time>
      </trkpt>
      <trkpt lat="45.77117" lon="6.89868">
        <ele>2718</ele>
        <time>2022-08-27T06:08:26Z</time>
      </trkpt>
      <trkpt lat="45.77116" lon="6.89871">
        <ele>2718</ele>
        <time>2022-08-27T06:08:29Z</time>
      </trkpt>
      <trkpt lat="45.77114" lon="6.89874">
        <ele>2720</ele>
        <time>2022-08-27T06:08:33Z</time>
      </trkpt>
      <trkpt lat="45.77115" lon="6.89878">
        <ele>2720</ele>
        <time>2022-08-27T06:08:35Z</time>
      </trkpt>
      <trkpt lat="45.77115" lon="6.89881">
        <ele>2720</ele>
        <time>2022-08-27T06:08:38Z</time>
      </trkpt>
      <trkpt lat="45.77116" lon="6.89884">
        <ele>2720</ele>
        <time>2022-08-27T06:08:40Z</time>
      </trkpt>
      <trkpt lat="45.77116" lon="6.89887">
        <ele>2720</ele>
        <time>2022-08-27T06:08:42Z</time>
      </trkpt>
      <trkpt lat="45.77116" lon="6.8989">
        <ele>2720</ele>
        <time>2022-08-27T06:08:45Z</time>
      </trkpt>
      <trkpt lat="45.77116" lon="6.89894">
        <ele>2720</ele>
        <time>2022-08-27T06:08:46Z</time>
      </trkpt>
      <trkpt lat="45.77115" lon="6.89897">
        <ele>2721</ele>
        <time>2022-08-27T06:08:49Z</time>
      </trkpt>
      <trkpt lat="45.77114" lon="6.899">
        <ele>2721</ele>
        <time>2022-08-27T06:08:50Z</time>
      </trkpt>
      <trkpt lat="45.77115" lon="6.89903">
        <ele>2721</ele>
        <time>2022-08-27T06:08:52Z</time>
      </trkpt>
      <trkpt lat="45.77115" lon="6.89907">
        <ele>2721</ele>
        <time>2022-08-27T06:08:54Z</time>
      </trkpt>
      <trkpt lat="45.77116" lon="6.8991">
        <ele>2721</ele>
        <time>2022-08-27T06:08:56Z</time>
      </trkpt>
      <trkpt lat="45.77117" lon="6.89913">
        <ele>2722</ele>
        <time>2022-08-27T06:08:58Z</time>
      </trkpt>
      <trkpt lat="45.77118" lon="6.89916">
        <ele>2722</ele>
        <time>2022-08-27T06:09:00Z</time>
      </trkpt>
      <trkpt lat="45.77119" lon="6.89919">
        <ele>2722</ele>
        <time>2022-08-27T06:09:03Z</time>
      </trkpt>
      <trkpt lat="45.7712" lon="6.89923">
        <ele>2722</ele>
        <time>2022-08-27T06:09:04Z</time>
      </trkpt>
      <trkpt lat="45.77121" lon="6.89926">
        <ele>2722</ele>
        <time>2022-08-27T06:09:06Z</time>
      </trkpt>
      <trkpt lat="45.77122" lon="6.8993">
        <ele>2722</ele>
        <time>2022-08-27T06:09:08Z</time>
      </trkpt>
      <trkpt lat="45.77123" lon="6.89933">
        <ele>2722</ele>
        <time>2022-08-27T06:09:10Z</time>
      </trkpt>
      <trkpt lat="45.77125" lon="6.89937">
        <ele>2722</ele>
        <time>2022-08-27T06:09:12Z</time>
      </trkpt>
      <trkpt lat="45.77126" lon="6.8994">
        <ele>2722</ele>
        <time>2022-08-27T06:09:14Z</time>
      </trkpt>
      <trkpt lat="45.77128" lon="6.89942">
        <ele>2722</ele>
        <time>2022-08-27T06:09:16Z</time>
      </trkpt>
      <trkpt lat="45.7713" lon="6.89944">
        <ele>2722</ele>
        <time>2022-08-27T06:09:18Z</time>
      </trkpt>
      <trkpt lat="45.77131" lon="6.89946">
        <ele>2722</ele>
        <time>2022-08-27T06:09:20Z</time>
      </trkpt>
      <trkpt lat="45.77133" lon="6.89949">
        <ele>2721</ele>
        <time>2022-08-27T06:09:23Z</time>
      </trkpt>
      <trkpt lat="45.77134" lon="6.89953">
        <ele>2721</ele>
        <time>2022-08-27T06:09:24Z</time>
      </trkpt>
      <trkpt lat="45.77134" lon="6.8996">
        <ele>2721</ele>
        <time>2022-08-27T06:09:26Z</time>
      </trkpt>
      <trkpt lat="45.77134" lon="6.89961">
        <ele>2720</ele>
        <time>2022-08-27T06:09:27Z</time>
      </trkpt>
      <trkpt lat="45.77134" lon="6.89966">
        <ele>2720</ele>
        <time>2022-08-27T06:09:29Z</time>
      </trkpt>
      <trkpt lat="45.77136" lon="6.89969">
        <ele>2719</ele>
        <time>2022-08-27T06:09:31Z</time>
      </trkpt>
      <trkpt lat="45.77139" lon="6.89972">
        <ele>2718</ele>
        <time>2022-08-27T06:09:33Z</time>
      </trkpt>
      <trkpt lat="45.7714" lon="6.89974">
        <ele>2718</ele>
        <time>2022-08-27T06:09:34Z</time>
      </trkpt>
      <trkpt lat="45.77141" lon="6.89976">
        <ele>2718</ele>
        <time>2022-08-27T06:09:35Z</time>
      </trkpt>
      <trkpt lat="45.77143" lon="6.89978">
        <ele>2717</ele>
        <time>2022-08-27T06:09:36Z</time>
      </trkpt>
      <trkpt lat="45.77144" lon="6.8998">
        <ele>2716</ele>
        <time>2022-08-27T06:09:37Z</time>
      </trkpt>
      <trkpt lat="45.77145" lon="6.89981">
        <ele>2716</ele>
        <time>2022-08-27T06:09:38Z</time>
      </trkpt>
      <trkpt lat="45.77148" lon="6.89985">
        <ele>2716</ele>
        <time>2022-08-27T06:09:40Z</time>
      </trkpt>
      <trkpt lat="45.77149" lon="6.89987">
        <ele>2716</ele>
        <time>2022-08-27T06:09:41Z</time>
      </trkpt>
      <trkpt lat="45.7715" lon="6.89989">
        <ele>2714</ele>
        <time>2022-08-27T06:09:42Z</time>
      </trkpt>
      <trkpt lat="45.77151" lon="6.89991">
        <ele>2714</ele>
        <time>2022-08-27T06:09:43Z</time>
      </trkpt>
      <trkpt lat="45.77152" lon="6.89994">
        <ele>2714</ele>
        <time>2022-08-27T06:09:44Z</time>
      </trkpt>
      <trkpt lat="45.77152" lon="6.89996">
        <ele>2714</ele>
        <time>2022-08-27T06:09:45Z</time>
      </trkpt>
      <trkpt lat="45.77154" lon="6.9">
        <ele>2713</ele>
        <time>2022-08-27T06:09:47Z</time>
      </trkpt>
      <trkpt lat="45.77156" lon="6.90004">
        <ele>2711</ele>
        <time>2022-08-27T06:09:49Z</time>
      </trkpt>
      <trkpt lat="45.77157" lon="6.90007">
        <ele>2711</ele>
        <time>2022-08-27T06:09:50Z</time>
      </trkpt>
      <trkpt lat="45.77158" lon="6.90009">
        <ele>2711</ele>
        <time>2022-08-27T06:09:51Z</time>
      </trkpt>
      <trkpt lat="45.77159" lon="6.90013">
        <ele>2711</ele>
        <time>2022-08-27T06:09:52Z</time>
      </trkpt>
      <trkpt lat="45.77159" lon="6.90015">
        <ele>2711</ele>
        <time>2022-08-27T06:09:53Z</time>
      </trkpt>
      <trkpt lat="45.7716" lon="6.90017">
        <ele>2711</ele>
        <time>2022-08-27T06:09:54Z</time>
      </trkpt>
      <trkpt lat="45.77161" lon="6.90022">
        <ele>2710</ele>
        <time>2022-08-27T06:09:55Z</time>
      </trkpt>
      <trkpt lat="45.77162" lon="6.90024">
        <ele>2710</ele>
        <time>2022-08-27T06:09:56Z</time>
      </trkpt>
      <trkpt lat="45.77162" lon="6.90026">
        <ele>2710</ele>
        <time>2022-08-27T06:09:57Z</time>
      </trkpt>
      <trkpt lat="45.77163" lon="6.90028">
        <ele>2710</ele>
        <time>2022-08-27T06:09:58Z</time>
      </trkpt>
      <trkpt lat="45.77164" lon="6.9003">
        <ele>2709</ele>
        <time>2022-08-27T06:09:59Z</time>
      </trkpt>
      <trkpt lat="45.77165" lon="6.90033">
        <ele>2708</ele>
        <time>2022-08-27T06:10:00Z</time>
      </trkpt>
      <trkpt lat="45.77167" lon="6.90038">
        <ele>2708</ele>
        <time>2022-08-27T06:10:02Z</time>
      </trkpt>
      <trkpt lat="45.77168" lon="6.90039">
        <ele>2708</ele>
        <time>2022-08-27T06:10:03Z</time>
      </trkpt>
      <trkpt lat="45.77171" lon="6.90043">
        <ele>2707</ele>
        <time>2022-08-27T06:10:05Z</time>
      </trkpt>
      <trkpt lat="45.77173" lon="6.90044">
        <ele>2707</ele>
        <time>2022-08-27T06:10:06Z</time>
      </trkpt>
      <trkpt lat="45.77178" lon="6.90047">
        <ele>2707</ele>
        <time>2022-08-27T06:10:08Z</time>
      </trkpt>
      <trkpt lat="45.7718" lon="6.90048">
        <ele>2707</ele>
        <time>2022-08-27T06:10:09Z</time>
      </trkpt>
      <trkpt lat="45.77181" lon="6.90049">
        <ele>2707</ele>
        <time>2022-08-27T06:10:10Z</time>
      </trkpt>
      <trkpt lat="45.77185" lon="6.90051">
        <ele>2708</ele>
        <time>2022-08-27T06:10:12Z</time>
      </trkpt>
      <trkpt lat="45.77187" lon="6.90051">
        <ele>2708</ele>
        <time>2022-08-27T06:10:13Z</time>
      </trkpt>
      <trkpt lat="45.77189" lon="6.90052">
        <ele>2708</ele>
        <time>2022-08-27T06:10:14Z</time>
      </trkpt>
      <trkpt lat="45.7719" lon="6.90053">
        <ele>2708</ele>
        <time>2022-08-27T06:10:15Z</time>
      </trkpt>
      <trkpt lat="45.77192" lon="6.90053">
        <ele>2708</ele>
        <time>2022-08-27T06:10:16Z</time>
      </trkpt>
      <trkpt lat="45.77195" lon="6.90055">
        <ele>2708</ele>
        <time>2022-08-27T06:10:18Z</time>
      </trkpt>
      <trkpt lat="45.77198" lon="6.90056">
        <ele>2708</ele>
        <time>2022-08-27T06:10:20Z</time>
      </trkpt>
      <trkpt lat="45.772" lon="6.90057">
        <ele>2708</ele>
        <time>2022-08-27T06:10:21Z</time>
      </trkpt>
      <trkpt lat="45.77202" lon="6.90058">
        <ele>2708</ele>
        <time>2022-08-27T06:10:22Z</time>
      </trkpt>
      <trkpt lat="45.77205" lon="6.90059">
        <ele>2708</ele>
        <time>2022-08-27T06:10:24Z</time>
      </trkpt>
      <trkpt lat="45.77208" lon="6.9006">
        <ele>2708</ele>
        <time>2022-08-27T06:10:26Z</time>
      </trkpt>
      <trkpt lat="45.77211" lon="6.90062">
        <ele>2708</ele>
        <time>2022-08-27T06:10:28Z</time>
      </trkpt>
      <trkpt lat="45.77213" lon="6.90064">
        <ele>2709</ele>
        <time>2022-08-27T06:10:29Z</time>
      </trkpt>
      <trkpt lat="45.77214" lon="6.90065">
        <ele>2709</ele>
        <time>2022-08-27T06:10:30Z</time>
      </trkpt>
      <trkpt lat="45.77215" lon="6.90067">
        <ele>2709</ele>
        <time>2022-08-27T06:10:31Z</time>
      </trkpt>
      <trkpt lat="45.77217" lon="6.90071">
        <ele>2709</ele>
        <time>2022-08-27T06:10:32Z</time>
      </trkpt>
      <trkpt lat="45.77218" lon="6.90073">
        <ele>2708</ele>
        <time>2022-08-27T06:10:33Z</time>
      </trkpt>
      <trkpt lat="45.77219" lon="6.90075">
        <ele>2708</ele>
        <time>2022-08-27T06:10:34Z</time>
      </trkpt>
      <trkpt lat="45.7722" lon="6.90078">
        <ele>2707</ele>
        <time>2022-08-27T06:10:35Z</time>
      </trkpt>
      <trkpt lat="45.77221" lon="6.9008">
        <ele>2707</ele>
        <time>2022-08-27T06:10:36Z</time>
      </trkpt>
      <trkpt lat="45.77222" lon="6.90082">
        <ele>2707</ele>
        <time>2022-08-27T06:10:37Z</time>
      </trkpt>
      <trkpt lat="45.77224" lon="6.90086">
        <ele>2707</ele>
        <time>2022-08-27T06:10:39Z</time>
      </trkpt>
      <trkpt lat="45.77225" lon="6.90088">
        <ele>2707</ele>
        <time>2022-08-27T06:10:40Z</time>
      </trkpt>
      <trkpt lat="45.77226" lon="6.9009">
        <ele>2707</ele>
        <time>2022-08-27T06:10:41Z</time>
      </trkpt>
      <trkpt lat="45.77228" lon="6.90094">
        <ele>2706</ele>
        <time>2022-08-27T06:10:43Z</time>
      </trkpt>
      <trkpt lat="45.77229" lon="6.90096">
        <ele>2706</ele>
        <time>2022-08-27T06:10:44Z</time>
      </trkpt>
      <trkpt lat="45.7723" lon="6.90098">
        <ele>2706</ele>
        <time>2022-08-27T06:10:45Z</time>
      </trkpt>
      <trkpt lat="45.77231" lon="6.90101">
        <ele>2706</ele>
        <time>2022-08-27T06:10:46Z</time>
      </trkpt>
      <trkpt lat="45.77232" lon="6.90105">
        <ele>2706</ele>
        <time>2022-08-27T06:10:47Z</time>
      </trkpt>
      <trkpt lat="45.77232" lon="6.90106">
        <ele>2705</ele>
        <time>2022-08-27T06:10:48Z</time>
      </trkpt>
      <trkpt lat="45.77233" lon="6.90109">
        <ele>2705</ele>
        <time>2022-08-27T06:10:49Z</time>
      </trkpt>
      <trkpt lat="45.77234" lon="6.90112">
        <ele>2704</ele>
        <time>2022-08-27T06:10:50Z</time>
      </trkpt>
      <trkpt lat="45.77235" lon="6.90114">
        <ele>2704</ele>
        <time>2022-08-27T06:10:51Z</time>
      </trkpt>
      <trkpt lat="45.77237" lon="6.90118">
        <ele>2704</ele>
        <time>2022-08-27T06:10:53Z</time>
      </trkpt>
      <trkpt lat="45.77238" lon="6.90121">
        <ele>2704</ele>
        <time>2022-08-27T06:10:54Z</time>
      </trkpt>
      <trkpt lat="45.77239" lon="6.90122">
        <ele>2704</ele>
        <time>2022-08-27T06:10:55Z</time>
      </trkpt>
      <trkpt lat="45.77241" lon="6.90125">
        <ele>2704</ele>
        <time>2022-08-27T06:10:56Z</time>
      </trkpt>
      <trkpt lat="45.77243" lon="6.90128">
        <ele>2704</ele>
        <time>2022-08-27T06:10:58Z</time>
      </trkpt>
      <trkpt lat="45.77246" lon="6.90128">
        <ele>2704</ele>
        <time>2022-08-27T06:11:00Z</time>
      </trkpt>
      <trkpt lat="45.77249" lon="6.90129">
        <ele>2704</ele>
        <time>2022-08-27T06:11:02Z</time>
      </trkpt>
      <trkpt lat="45.77252" lon="6.90129">
        <ele>2704</ele>
        <time>2022-08-27T06:11:04Z</time>
      </trkpt>
      <trkpt lat="45.77254" lon="6.90131">
        <ele>2704</ele>
        <time>2022-08-27T06:11:06Z</time>
      </trkpt>
      <trkpt lat="45.77256" lon="6.90134">
        <ele>2705</ele>
        <time>2022-08-27T06:11:08Z</time>
      </trkpt>
      <trkpt lat="45.77257" lon="6.90137">
        <ele>2705</ele>
        <time>2022-08-27T06:11:10Z</time>
      </trkpt>
      <trkpt lat="45.77258" lon="6.90142">
        <ele>2705</ele>
        <time>2022-08-27T06:11:13Z</time>
      </trkpt>
      <trkpt lat="45.77261" lon="6.90145">
        <ele>2705</ele>
        <time>2022-08-27T06:11:14Z</time>
      </trkpt>
      <trkpt lat="45.77264" lon="6.90148">
        <ele>2705</ele>
        <time>2022-08-27T06:11:16Z</time>
      </trkpt>
      <trkpt lat="45.77267" lon="6.90154">
        <ele>2705</ele>
        <time>2022-08-27T06:11:18Z</time>
      </trkpt>
      <trkpt lat="45.77268" lon="6.90155">
        <ele>2705</ele>
        <time>2022-08-27T06:11:19Z</time>
      </trkpt>
      <trkpt lat="45.77268" lon="6.90158">
        <ele>2704</ele>
        <time>2022-08-27T06:11:20Z</time>
      </trkpt>
      <trkpt lat="45.77269" lon="6.9016">
        <ele>2702</ele>
        <time>2022-08-27T06:11:21Z</time>
      </trkpt>
      <trkpt lat="45.77271" lon="6.90165">
        <ele>2702</ele>
        <time>2022-08-27T06:11:22Z</time>
      </trkpt>
      <trkpt lat="45.77271" lon="6.90166">
        <ele>2702</ele>
        <time>2022-08-27T06:11:23Z</time>
      </trkpt>
      <trkpt lat="45.77273" lon="6.90172">
        <ele>2700</ele>
        <time>2022-08-27T06:11:25Z</time>
      </trkpt>
      <trkpt lat="45.77274" lon="6.90175">
        <ele>2700</ele>
        <time>2022-08-27T06:11:26Z</time>
      </trkpt>
      <trkpt lat="45.77275" lon="6.90178">
        <ele>2700</ele>
        <time>2022-08-27T06:11:27Z</time>
      </trkpt>
      <trkpt lat="45.77275" lon="6.90182">
        <ele>2700</ele>
        <time>2022-08-27T06:11:28Z</time>
      </trkpt>
      <trkpt lat="45.77276" lon="6.90188">
        <ele>2700</ele>
        <time>2022-08-27T06:11:30Z</time>
      </trkpt>
      <trkpt lat="45.77276" lon="6.90191">
        <ele>2700</ele>
        <time>2022-08-27T06:11:31Z</time>
      </trkpt>
      <trkpt lat="45.77277" lon="6.90194">
        <ele>2700</ele>
        <time>2022-08-27T06:11:32Z</time>
      </trkpt>
      <trkpt lat="45.77277" lon="6.90196">
        <ele>2700</ele>
        <time>2022-08-27T06:11:33Z</time>
      </trkpt>
      <trkpt lat="45.77277" lon="6.90199">
        <ele>2700</ele>
        <time>2022-08-27T06:11:34Z</time>
      </trkpt>
      <trkpt lat="45.77277" lon="6.90203">
        <ele>2700</ele>
        <time>2022-08-27T06:11:36Z</time>
      </trkpt>
      <trkpt lat="45.77278" lon="6.90206">
        <ele>2700</ele>
        <time>2022-08-27T06:11:38Z</time>
      </trkpt>
      <trkpt lat="45.77277" lon="6.9021">
        <ele>2699</ele>
        <time>2022-08-27T06:11:40Z</time>
      </trkpt>
      <trkpt lat="45.77275" lon="6.90213">
        <ele>2699</ele>
        <time>2022-08-27T06:11:42Z</time>
      </trkpt>
      <trkpt lat="45.77275" lon="6.90217">
        <ele>2698</ele>
        <time>2022-08-27T06:11:44Z</time>
      </trkpt>
      <trkpt lat="45.77277" lon="6.9022">
        <ele>2698</ele>
        <time>2022-08-27T06:11:46Z</time>
      </trkpt>
      <trkpt lat="45.77279" lon="6.90221">
        <ele>2698</ele>
        <time>2022-08-27T06:11:48Z</time>
      </trkpt>
      <trkpt lat="45.77282" lon="6.90224">
        <ele>2698</ele>
        <time>2022-08-27T06:11:50Z</time>
      </trkpt>
      <trkpt lat="45.77284" lon="6.90225">
        <ele>2698</ele>
        <time>2022-08-27T06:11:51Z</time>
      </trkpt>
      <trkpt lat="45.77285" lon="6.90227">
        <ele>2697</ele>
        <time>2022-08-27T06:11:52Z</time>
      </trkpt>
      <trkpt lat="45.77288" lon="6.9023">
        <ele>2697</ele>
        <time>2022-08-27T06:11:54Z</time>
      </trkpt>
      <trkpt lat="45.77288" lon="6.90232">
        <ele>2697</ele>
        <time>2022-08-27T06:11:55Z</time>
      </trkpt>
      <trkpt lat="45.77289" lon="6.90237">
        <ele>2697</ele>
        <time>2022-08-27T06:11:57Z</time>
      </trkpt>
      <trkpt lat="45.77291" lon="6.90241">
        <ele>2697</ele>
        <time>2022-08-27T06:11:59Z</time>
      </trkpt>
      <trkpt lat="45.77294" lon="6.90244">
        <ele>2696</ele>
        <time>2022-08-27T06:12:01Z</time>
      </trkpt>
      <trkpt lat="45.77295" lon="6.90246">
        <ele>2696</ele>
        <time>2022-08-27T06:12:02Z</time>
      </trkpt>
      <trkpt lat="45.77299" lon="6.90249">
        <ele>2696</ele>
        <time>2022-08-27T06:12:04Z</time>
      </trkpt>
      <trkpt lat="45.77301" lon="6.9025">
        <ele>2696</ele>
        <time>2022-08-27T06:12:05Z</time>
      </trkpt>
      <trkpt lat="45.77304" lon="6.90252">
        <ele>2695</ele>
        <time>2022-08-27T06:12:07Z</time>
      </trkpt>
      <trkpt lat="45.77306" lon="6.90254">
        <ele>2695</ele>
        <time>2022-08-27T06:12:08Z</time>
      </trkpt>
      <trkpt lat="45.77307" lon="6.90255">
        <ele>2695</ele>
        <time>2022-08-27T06:12:09Z</time>
      </trkpt>
      <trkpt lat="45.77308" lon="6.90257">
        <ele>2695</ele>
        <time>2022-08-27T06:12:10Z</time>
      </trkpt>
      <trkpt lat="45.7731" lon="6.9026">
        <ele>2695</ele>
        <time>2022-08-27T06:12:11Z</time>
      </trkpt>
      <trkpt lat="45.77311" lon="6.90262">
        <ele>2695</ele>
        <time>2022-08-27T06:12:12Z</time>
      </trkpt>
      <trkpt lat="45.77315" lon="6.90268">
        <ele>2694</ele>
        <time>2022-08-27T06:12:14Z</time>
      </trkpt>
      <trkpt lat="45.77316" lon="6.90269">
        <ele>2694</ele>
        <time>2022-08-27T06:12:15Z</time>
      </trkpt>
      <trkpt lat="45.77317" lon="6.90271">
        <ele>2694</ele>
        <time>2022-08-27T06:12:16Z</time>
      </trkpt>
      <trkpt lat="45.77319" lon="6.90272">
        <ele>2694</ele>
        <time>2022-08-27T06:12:17Z</time>
      </trkpt>
      <trkpt lat="45.77321" lon="6.90274">
        <ele>2694</ele>
        <time>2022-08-27T06:12:18Z</time>
      </trkpt>
      <trkpt lat="45.77323" lon="6.90276">
        <ele>2694</ele>
        <time>2022-08-27T06:12:19Z</time>
      </trkpt>
      <trkpt lat="45.77324" lon="6.90278">
        <ele>2694</ele>
        <time>2022-08-27T06:12:20Z</time>
      </trkpt>
      <trkpt lat="45.77326" lon="6.90279">
        <ele>2694</ele>
        <time>2022-08-27T06:12:21Z</time>
      </trkpt>
      <trkpt lat="45.77327" lon="6.90281">
        <ele>2694</ele>
        <time>2022-08-27T06:12:22Z</time>
      </trkpt>
      <trkpt lat="45.77329" lon="6.90282">
        <ele>2694</ele>
        <time>2022-08-27T06:12:23Z</time>
      </trkpt>
      <trkpt lat="45.77331" lon="6.90284">
        <ele>2694</ele>
        <time>2022-08-27T06:12:24Z</time>
      </trkpt>
      <trkpt lat="45.77333" lon="6.90285">
        <ele>2694</ele>
        <time>2022-08-27T06:12:25Z</time>
      </trkpt>
      <trkpt lat="45.77336" lon="6.90288">
        <ele>2694</ele>
        <time>2022-08-27T06:12:27Z</time>
      </trkpt>
      <trkpt lat="45.77337" lon="6.9029">
        <ele>2694</ele>
        <time>2022-08-27T06:12:28Z</time>
      </trkpt>
      <trkpt lat="45.7734" lon="6.90293">
        <ele>2694</ele>
        <time>2022-08-27T06:12:30Z</time>
      </trkpt>
      <trkpt lat="45.77343" lon="6.90296">
        <ele>2695</ele>
        <time>2022-08-27T06:12:32Z</time>
      </trkpt>
      <trkpt lat="45.77344" lon="6.90297">
        <ele>2695</ele>
        <time>2022-08-27T06:12:33Z</time>
      </trkpt>
      <trkpt lat="45.77347" lon="6.903">
        <ele>2695</ele>
        <time>2022-08-27T06:12:35Z</time>
      </trkpt>
      <trkpt lat="45.77348" lon="6.90302">
        <ele>2695</ele>
        <time>2022-08-27T06:12:37Z</time>
      </trkpt>
      <trkpt lat="45.77351" lon="6.90305">
        <ele>2694</ele>
        <time>2022-08-27T06:12:38Z</time>
      </trkpt>
      <trkpt lat="45.77352" lon="6.90308">
        <ele>2694</ele>
        <time>2022-08-27T06:12:40Z</time>
      </trkpt>
      <trkpt lat="45.77355" lon="6.90312">
        <ele>2694</ele>
        <time>2022-08-27T06:12:42Z</time>
      </trkpt>
      <trkpt lat="45.77356" lon="6.90314">
        <ele>2694</ele>
        <time>2022-08-27T06:12:43Z</time>
      </trkpt>
      <trkpt lat="45.77358" lon="6.90316">
        <ele>2694</ele>
        <time>2022-08-27T06:12:44Z</time>
      </trkpt>
      <trkpt lat="45.7736" lon="6.90319">
        <ele>2693</ele>
        <time>2022-08-27T06:12:45Z</time>
      </trkpt>
      <trkpt lat="45.77361" lon="6.9032">
        <ele>2693</ele>
        <time>2022-08-27T06:12:46Z</time>
      </trkpt>
      <trkpt lat="45.77363" lon="6.90321">
        <ele>2693</ele>
        <time>2022-08-27T06:12:47Z</time>
      </trkpt>
      <trkpt lat="45.77365" lon="6.90321">
        <ele>2693</ele>
        <time>2022-08-27T06:12:48Z</time>
      </trkpt>
      <trkpt lat="45.77367" lon="6.90321">
        <ele>2693</ele>
        <time>2022-08-27T06:12:49Z</time>
      </trkpt>
      <trkpt lat="45.77369" lon="6.90321">
        <ele>2693</ele>
        <time>2022-08-27T06:12:50Z</time>
      </trkpt>
      <trkpt lat="45.77373" lon="6.9032">
        <ele>2692</ele>
        <time>2022-08-27T06:12:52Z</time>
      </trkpt>
      <trkpt lat="45.77375" lon="6.9032">
        <ele>2692</ele>
        <time>2022-08-27T06:12:53Z</time>
      </trkpt>
      <trkpt lat="45.77378" lon="6.90318">
        <ele>2693</ele>
        <time>2022-08-27T06:12:56Z</time>
      </trkpt>
      <trkpt lat="45.7738" lon="6.90317">
        <ele>2693</ele>
        <time>2022-08-27T06:12:58Z</time>
      </trkpt>
      <trkpt lat="45.77382" lon="6.90316">
        <ele>2693</ele>
        <time>2022-08-27T06:12:59Z</time>
      </trkpt>
      <trkpt lat="45.77385" lon="6.90314">
        <ele>2693</ele>
        <time>2022-08-27T06:13:00Z</time>
      </trkpt>
      <trkpt lat="45.77387" lon="6.90312">
        <ele>2693</ele>
        <time>2022-08-27T06:13:02Z</time>
      </trkpt>
      <trkpt lat="45.77389" lon="6.9031">
        <ele>2693</ele>
        <time>2022-08-27T06:13:04Z</time>
      </trkpt>
      <trkpt lat="45.77391" lon="6.9031">
        <ele>2693</ele>
        <time>2022-08-27T06:13:06Z</time>
      </trkpt>
      <trkpt lat="45.77394" lon="6.90309">
        <ele>2692</ele>
        <time>2022-08-27T06:13:08Z</time>
      </trkpt>
      <trkpt lat="45.77396" lon="6.90308">
        <ele>2692</ele>
        <time>2022-08-27T06:13:10Z</time>
      </trkpt>
      <trkpt lat="45.77399" lon="6.90308">
        <ele>2692</ele>
        <time>2022-08-27T06:13:12Z</time>
      </trkpt>
      <trkpt lat="45.77401" lon="6.90309">
        <ele>2692</ele>
        <time>2022-08-27T06:13:14Z</time>
      </trkpt>
      <trkpt lat="45.77404" lon="6.9031">
        <ele>2692</ele>
        <time>2022-08-27T06:13:16Z</time>
      </trkpt>
      <trkpt lat="45.77407" lon="6.90312">
        <ele>2692</ele>
        <time>2022-08-27T06:13:18Z</time>
      </trkpt>
      <trkpt lat="45.77409" lon="6.90313">
        <ele>2692</ele>
        <time>2022-08-27T06:13:19Z</time>
      </trkpt>
      <trkpt lat="45.77412" lon="6.90315">
        <ele>2692</ele>
        <time>2022-08-27T06:13:21Z</time>
      </trkpt>
      <trkpt lat="45.77414" lon="6.90316">
        <ele>2692</ele>
        <time>2022-08-27T06:13:22Z</time>
      </trkpt>
      <trkpt lat="45.77416" lon="6.90318">
        <ele>2692</ele>
        <time>2022-08-27T06:13:24Z</time>
      </trkpt>
      <trkpt lat="45.77418" lon="6.90319">
        <ele>2692</ele>
        <time>2022-08-27T06:13:25Z</time>
      </trkpt>
      <trkpt lat="45.7742" lon="6.90321">
        <ele>2692</ele>
        <time>2022-08-27T06:13:26Z</time>
      </trkpt>
      <trkpt lat="45.77423" lon="6.90322">
        <ele>2692</ele>
        <time>2022-08-27T06:13:28Z</time>
      </trkpt>
      <trkpt lat="45.77426" lon="6.90325">
        <ele>2692</ele>
        <time>2022-08-27T06:13:30Z</time>
      </trkpt>
      <trkpt lat="45.77428" lon="6.90326">
        <ele>2692</ele>
        <time>2022-08-27T06:13:31Z</time>
      </trkpt>
      <trkpt lat="45.77433" lon="6.90329">
        <ele>2689</ele>
        <time>2022-08-27T06:13:34Z</time>
      </trkpt>
      <trkpt lat="45.77436" lon="6.90331">
        <ele>2689</ele>
        <time>2022-08-27T06:13:35Z</time>
      </trkpt>
      <trkpt lat="45.77437" lon="6.90331">
        <ele>2689</ele>
        <time>2022-08-27T06:13:36Z</time>
      </trkpt>
      <trkpt lat="45.77439" lon="6.90332">
        <ele>2689</ele>
        <time>2022-08-27T06:13:37Z</time>
      </trkpt>
      <trkpt lat="45.77441" lon="6.90334">
        <ele>2689</ele>
        <time>2022-08-27T06:13:38Z</time>
      </trkpt>
      <trkpt lat="45.77443" lon="6.90335">
        <ele>2689</ele>
        <time>2022-08-27T06:13:39Z</time>
      </trkpt>
      <trkpt lat="45.77444" lon="6.90336">
        <ele>2689</ele>
        <time>2022-08-27T06:13:40Z</time>
      </trkpt>
      <trkpt lat="45.77446" lon="6.90338">
        <ele>2689</ele>
        <time>2022-08-27T06:13:41Z</time>
      </trkpt>
      <trkpt lat="45.77448" lon="6.90339">
        <ele>2688</ele>
        <time>2022-08-27T06:13:42Z</time>
      </trkpt>
      <trkpt lat="45.77451" lon="6.90342">
        <ele>2688</ele>
        <time>2022-08-27T06:13:44Z</time>
      </trkpt>
      <trkpt lat="45.77452" lon="6.90343">
        <ele>2688</ele>
        <time>2022-08-27T06:13:45Z</time>
      </trkpt>
      <trkpt lat="45.77454" lon="6.90345">
        <ele>2688</ele>
        <time>2022-08-27T06:13:46Z</time>
      </trkpt>
      <trkpt lat="45.77456" lon="6.90346">
        <ele>2687</ele>
        <time>2022-08-27T06:13:47Z</time>
      </trkpt>
      <trkpt lat="45.77458" lon="6.90347">
        <ele>2687</ele>
        <time>2022-08-27T06:13:48Z</time>
      </trkpt>
      <trkpt lat="45.7746" lon="6.90348">
        <ele>2687</ele>
        <time>2022-08-27T06:13:49Z</time>
      </trkpt>
      <trkpt lat="45.77462" lon="6.9035">
        <ele>2687</ele>
        <time>2022-08-27T06:13:50Z</time>
      </trkpt>
      <trkpt lat="45.77463" lon="6.90351">
        <ele>2687</ele>
        <time>2022-08-27T06:13:51Z</time>
      </trkpt>
      <trkpt lat="45.77466" lon="6.90354">
        <ele>2686</ele>
        <time>2022-08-27T06:13:53Z</time>
      </trkpt>
      <trkpt lat="45.77469" lon="6.90356">
        <ele>2685</ele>
        <time>2022-08-27T06:13:55Z</time>
      </trkpt>
      <trkpt lat="45.77471" lon="6.90357">
        <ele>2685</ele>
        <time>2022-08-27T06:13:56Z</time>
      </trkpt>
      <trkpt lat="45.77473" lon="6.90357">
        <ele>2684</ele>
        <time>2022-08-27T06:13:58Z</time>
      </trkpt>
      <trkpt lat="45.77476" lon="6.90359">
        <ele>2684</ele>
        <time>2022-08-27T06:13:59Z</time>
      </trkpt>
      <trkpt lat="45.77479" lon="6.90361">
        <ele>2684</ele>
        <time>2022-08-27T06:14:01Z</time>
      </trkpt>
      <trkpt lat="45.77481" lon="6.90362">
        <ele>2684</ele>
        <time>2022-08-27T06:14:02Z</time>
      </trkpt>
      <trkpt lat="45.77484" lon="6.90364">
        <ele>2683</ele>
        <time>2022-08-27T06:14:04Z</time>
      </trkpt>
      <trkpt lat="45.77487" lon="6.90367">
        <ele>2683</ele>
        <time>2022-08-27T06:14:06Z</time>
      </trkpt>
      <trkpt lat="45.7749" lon="6.9037">
        <ele>2682</ele>
        <time>2022-08-27T06:14:08Z</time>
      </trkpt>
      <trkpt lat="45.77491" lon="6.90371">
        <ele>2682</ele>
        <time>2022-08-27T06:14:09Z</time>
      </trkpt>
      <trkpt lat="45.77493" lon="6.90373">
        <ele>2682</ele>
        <time>2022-08-27T06:14:10Z</time>
      </trkpt>
      <trkpt lat="45.77495" lon="6.90376">
        <ele>2682</ele>
        <time>2022-08-27T06:14:11Z</time>
      </trkpt>
      <trkpt lat="45.77495" lon="6.90377">
        <ele>2681</ele>
        <time>2022-08-27T06:14:12Z</time>
      </trkpt>
      <trkpt lat="45.77497" lon="6.90379">
        <ele>2681</ele>
        <time>2022-08-27T06:14:13Z</time>
      </trkpt>
      <trkpt lat="45.77498" lon="6.90381">
        <ele>2681</ele>
        <time>2022-08-27T06:14:14Z</time>
      </trkpt>
      <trkpt lat="45.77499" lon="6.90383">
        <ele>2681</ele>
        <time>2022-08-27T06:14:15Z</time>
      </trkpt>
      <trkpt lat="45.77501" lon="6.90385">
        <ele>2678</ele>
        <time>2022-08-27T06:14:17Z</time>
      </trkpt>
      <trkpt lat="45.77503" lon="6.90389">
        <ele>2678</ele>
        <time>2022-08-27T06:14:18Z</time>
      </trkpt>
      <trkpt lat="45.77504" lon="6.90393">
        <ele>2677</ele>
        <time>2022-08-27T06:14:20Z</time>
      </trkpt>
      <trkpt lat="45.77504" lon="6.90398">
        <ele>2677</ele>
        <time>2022-08-27T06:14:22Z</time>
      </trkpt>
      <trkpt lat="45.77504" lon="6.90401">
        <ele>2677</ele>
        <time>2022-08-27T06:14:25Z</time>
      </trkpt>
      <trkpt lat="45.77504" lon="6.90405">
        <ele>2677</ele>
        <time>2022-08-27T06:14:26Z</time>
      </trkpt>
      <trkpt lat="45.77505" lon="6.90409">
        <ele>2675</ele>
        <time>2022-08-27T06:14:28Z</time>
      </trkpt>
      <trkpt lat="45.77506" lon="6.90413">
        <ele>2672</ele>
        <time>2022-08-27T06:14:31Z</time>
      </trkpt>
      <trkpt lat="45.77506" lon="6.90418">
        <ele>2672</ele>
        <time>2022-08-27T06:14:32Z</time>
      </trkpt>
      <trkpt lat="45.77507" lon="6.90422">
        <ele>2672</ele>
        <time>2022-08-27T06:14:34Z</time>
      </trkpt>
      <trkpt lat="45.77507" lon="6.90427">
        <ele>2672</ele>
        <time>2022-08-27T06:14:36Z</time>
      </trkpt>
      <trkpt lat="45.77508" lon="6.90431">
        <ele>2672</ele>
        <time>2022-08-27T06:14:38Z</time>
      </trkpt>
      <trkpt lat="45.77509" lon="6.90436">
        <ele>2671</ele>
        <time>2022-08-27T06:14:40Z</time>
      </trkpt>
      <trkpt lat="45.77509" lon="6.9044">
        <ele>2670</ele>
        <time>2022-08-27T06:14:42Z</time>
      </trkpt>
      <trkpt lat="45.77511" lon="6.90446">
        <ele>2669</ele>
        <time>2022-08-27T06:14:44Z</time>
      </trkpt>
      <trkpt lat="45.77511" lon="6.90447">
        <ele>2669</ele>
        <time>2022-08-27T06:14:45Z</time>
      </trkpt>
      <trkpt lat="45.77512" lon="6.90449">
        <ele>2669</ele>
        <time>2022-08-27T06:14:46Z</time>
      </trkpt>
      <trkpt lat="45.77512" lon="6.9045">
        <ele>2669</ele>
        <time>2022-08-27T06:14:47Z</time>
      </trkpt>
      <trkpt lat="45.77513" lon="6.90452">
        <ele>2668</ele>
        <time>2022-08-27T06:14:48Z</time>
      </trkpt>
      <trkpt lat="45.77513" lon="6.90459">
        <ele>2668</ele>
        <time>2022-08-27T06:14:49Z</time>
      </trkpt>
      <trkpt lat="45.77513" lon="6.9046">
        <ele>2666</ele>
        <time>2022-08-27T06:14:50Z</time>
      </trkpt>
      <trkpt lat="45.77514" lon="6.90462">
        <ele>2666</ele>
        <time>2022-08-27T06:14:51Z</time>
      </trkpt>
      <trkpt lat="45.77515" lon="6.90465">
        <ele>2666</ele>
        <time>2022-08-27T06:14:52Z</time>
      </trkpt>
      <trkpt lat="45.77516" lon="6.90469">
        <ele>2666</ele>
        <time>2022-08-27T06:14:54Z</time>
      </trkpt>
      <trkpt lat="45.77518" lon="6.90473">
        <ele>2666</ele>
        <time>2022-08-27T06:14:56Z</time>
      </trkpt>
      <trkpt lat="45.7752" lon="6.90476">
        <ele>2664</ele>
        <time>2022-08-27T06:14:58Z</time>
      </trkpt>
      <trkpt lat="45.7752" lon="6.9048">
        <ele>2664</ele>
        <time>2022-08-27T06:15:00Z</time>
      </trkpt>
      <trkpt lat="45.7752" lon="6.90484">
        <ele>2662</ele>
        <time>2022-08-27T06:15:02Z</time>
      </trkpt>
      <trkpt lat="45.77519" lon="6.90489">
        <ele>2662</ele>
        <time>2022-08-27T06:15:04Z</time>
      </trkpt>
      <trkpt lat="45.77519" lon="6.90492">
        <ele>2662</ele>
        <time>2022-08-27T06:15:06Z</time>
      </trkpt>
      <trkpt lat="45.77519" lon="6.90495">
        <ele>2662</ele>
        <time>2022-08-27T06:15:08Z</time>
      </trkpt>
      <trkpt lat="45.77519" lon="6.90499">
        <ele>2662</ele>
        <time>2022-08-27T06:15:10Z</time>
      </trkpt>
      <trkpt lat="45.7752" lon="6.90503">
        <ele>2663</ele>
        <time>2022-08-27T06:15:12Z</time>
      </trkpt>
      <trkpt lat="45.7752" lon="6.90506">
        <ele>2662</ele>
        <time>2022-08-27T06:15:14Z</time>
      </trkpt>
      <trkpt lat="45.77521" lon="6.9051">
        <ele>2662</ele>
        <time>2022-08-27T06:15:16Z</time>
      </trkpt>
      <trkpt lat="45.77523" lon="6.90513">
        <ele>2662</ele>
        <time>2022-08-27T06:15:18Z</time>
      </trkpt>
      <trkpt lat="45.77526" lon="6.90518">
        <ele>2662</ele>
        <time>2022-08-27T06:15:20Z</time>
      </trkpt>
      <trkpt lat="45.77529" lon="6.90519">
        <ele>2662</ele>
        <time>2022-08-27T06:15:22Z</time>
      </trkpt>
      <trkpt lat="45.7753" lon="6.90519">
        <ele>2662</ele>
        <time>2022-08-27T06:15:23Z</time>
      </trkpt>
      <trkpt lat="45.77534" lon="6.90519">
        <ele>2662</ele>
        <time>2022-08-27T06:15:25Z</time>
      </trkpt>
      <trkpt lat="45.77536" lon="6.90519">
        <ele>2662</ele>
        <time>2022-08-27T06:15:26Z</time>
      </trkpt>
      <trkpt lat="45.77538" lon="6.90518">
        <ele>2662</ele>
        <time>2022-08-27T06:15:27Z</time>
      </trkpt>
      <trkpt lat="45.77541" lon="6.90517">
        <ele>2661</ele>
        <time>2022-08-27T06:15:29Z</time>
      </trkpt>
      <trkpt lat="45.77544" lon="6.90516">
        <ele>2661</ele>
        <time>2022-08-27T06:15:31Z</time>
      </trkpt>
      <trkpt lat="45.77546" lon="6.90515">
        <ele>2661</ele>
        <time>2022-08-27T06:15:33Z</time>
      </trkpt>
      <trkpt lat="45.77548" lon="6.90514">
        <ele>2661</ele>
        <time>2022-08-27T06:15:36Z</time>
      </trkpt>
      <trkpt lat="45.7755" lon="6.90513">
        <ele>2661</ele>
        <time>2022-08-27T06:15:37Z</time>
      </trkpt>
      <trkpt lat="45.77553" lon="6.90513">
        <ele>2661</ele>
        <time>2022-08-27T06:15:39Z</time>
      </trkpt>
      <trkpt lat="45.77556" lon="6.90514">
        <ele>2661</ele>
        <time>2022-08-27T06:15:41Z</time>
      </trkpt>
      <trkpt lat="45.77558" lon="6.90516">
        <ele>2661</ele>
        <time>2022-08-27T06:15:43Z</time>
      </trkpt>
      <trkpt lat="45.7756" lon="6.90516">
        <ele>2661</ele>
        <time>2022-08-27T06:15:45Z</time>
      </trkpt>
      <trkpt lat="45.77563" lon="6.90517">
        <ele>2661</ele>
        <time>2022-08-27T06:15:47Z</time>
      </trkpt>
      <trkpt lat="45.77565" lon="6.90517">
        <ele>2662</ele>
        <time>2022-08-27T06:15:49Z</time>
      </trkpt>
      <trkpt lat="45.77567" lon="6.90518">
        <ele>2662</ele>
        <time>2022-08-27T06:15:51Z</time>
      </trkpt>
      <trkpt lat="45.7757" lon="6.90519">
        <ele>2662</ele>
        <time>2022-08-27T06:15:54Z</time>
      </trkpt>
      <trkpt lat="45.77572" lon="6.9052">
        <ele>2662</ele>
        <time>2022-08-27T06:15:55Z</time>
      </trkpt>
      <trkpt lat="45.77574" lon="6.90521">
        <ele>2662</ele>
        <time>2022-08-27T06:15:57Z</time>
      </trkpt>
      <trkpt lat="45.77577" lon="6.90521">
        <ele>2663</ele>
        <time>2022-08-27T06:15:59Z</time>
      </trkpt>
      <trkpt lat="45.7758" lon="6.90521">
        <ele>2663</ele>
        <time>2022-08-27T06:16:01Z</time>
      </trkpt>
      <trkpt lat="45.77582" lon="6.90522">
        <ele>2663</ele>
        <time>2022-08-27T06:16:04Z</time>
      </trkpt>
      <trkpt lat="45.77585" lon="6.90522">
        <ele>2663</ele>
        <time>2022-08-27T06:16:06Z</time>
      </trkpt>
      <trkpt lat="45.77587" lon="6.90523">
        <ele>2663</ele>
        <time>2022-08-27T06:16:07Z</time>
      </trkpt>
      <trkpt lat="45.77589" lon="6.90523">
        <ele>2663</ele>
        <time>2022-08-27T06:16:09Z</time>
      </trkpt>
      <trkpt lat="45.77591" lon="6.90522">
        <ele>2663</ele>
        <time>2022-08-27T06:16:11Z</time>
      </trkpt>
      <trkpt lat="45.77594" lon="6.90522">
        <ele>2663</ele>
        <time>2022-08-27T06:16:13Z</time>
      </trkpt>
      <trkpt lat="45.77596" lon="6.90524">
        <ele>2664</ele>
        <time>2022-08-27T06:16:16Z</time>
      </trkpt>
      <trkpt lat="45.77598" lon="6.90526">
        <ele>2664</ele>
        <time>2022-08-27T06:16:17Z</time>
      </trkpt>
      <trkpt lat="45.776" lon="6.90527">
        <ele>2665</ele>
        <time>2022-08-27T06:16:19Z</time>
      </trkpt>
      <trkpt lat="45.77602" lon="6.90529">
        <ele>2664</ele>
        <time>2022-08-27T06:16:21Z</time>
      </trkpt>
      <trkpt lat="45.77605" lon="6.9053">
        <ele>2664</ele>
        <time>2022-08-27T06:16:23Z</time>
      </trkpt>
      <trkpt lat="45.77608" lon="6.9053">
        <ele>2664</ele>
        <time>2022-08-27T06:16:25Z</time>
      </trkpt>
      <trkpt lat="45.77611" lon="6.9053">
        <ele>2664</ele>
        <time>2022-08-27T06:16:27Z</time>
      </trkpt>
      <trkpt lat="45.77614" lon="6.90531">
        <ele>2664</ele>
        <time>2022-08-27T06:16:29Z</time>
      </trkpt>
      <trkpt lat="45.77616" lon="6.90532">
        <ele>2665</ele>
        <time>2022-08-27T06:16:31Z</time>
      </trkpt>
      <trkpt lat="45.77618" lon="6.90534">
        <ele>2665</ele>
        <time>2022-08-27T06:16:33Z</time>
      </trkpt>
      <trkpt lat="45.77621" lon="6.90536">
        <ele>2665</ele>
        <time>2022-08-27T06:16:36Z</time>
      </trkpt>
      <trkpt lat="45.77624" lon="6.90538">
        <ele>2665</ele>
        <time>2022-08-27T06:16:37Z</time>
      </trkpt>
      <trkpt lat="45.77627" lon="6.9054">
        <ele>2665</ele>
        <time>2022-08-27T06:16:39Z</time>
      </trkpt>
      <trkpt lat="45.77629" lon="6.90542">
        <ele>2665</ele>
        <time>2022-08-27T06:16:40Z</time>
      </trkpt>
      <trkpt lat="45.7763" lon="6.90543">
        <ele>2665</ele>
        <time>2022-08-27T06:16:41Z</time>
      </trkpt>
      <trkpt lat="45.77632" lon="6.90545">
        <ele>2665</ele>
        <time>2022-08-27T06:16:42Z</time>
      </trkpt>
      <trkpt lat="45.77633" lon="6.90548">
        <ele>2665</ele>
        <time>2022-08-27T06:16:43Z</time>
      </trkpt>
      <trkpt lat="45.77634" lon="6.9055">
        <ele>2665</ele>
        <time>2022-08-27T06:16:44Z</time>
      </trkpt>
      <trkpt lat="45.77637" lon="6.90554">
        <ele>2665</ele>
        <time>2022-08-27T06:16:45Z</time>
      </trkpt>
      <trkpt lat="45.77637" lon="6.90555">
        <ele>2665</ele>
        <time>2022-08-27T06:16:46Z</time>
      </trkpt>
      <trkpt lat="45.77639" lon="6.90558">
        <ele>2664</ele>
        <time>2022-08-27T06:16:47Z</time>
      </trkpt>
      <trkpt lat="45.77641" lon="6.90561">
        <ele>2664</ele>
        <time>2022-08-27T06:16:48Z</time>
      </trkpt>
      <trkpt lat="45.77642" lon="6.90563">
        <ele>2664</ele>
        <time>2022-08-27T06:16:49Z</time>
      </trkpt>
      <trkpt lat="45.77645" lon="6.90567">
        <ele>2664</ele>
        <time>2022-08-27T06:16:50Z</time>
      </trkpt>
      <trkpt lat="45.77646" lon="6.90568">
        <ele>2664</ele>
        <time>2022-08-27T06:16:51Z</time>
      </trkpt>
      <trkpt lat="45.77648" lon="6.90571">
        <ele>2664</ele>
        <time>2022-08-27T06:16:52Z</time>
      </trkpt>
      <trkpt lat="45.77648" lon="6.90572">
        <ele>2664</ele>
        <time>2022-08-27T06:16:53Z</time>
      </trkpt>
      <trkpt lat="45.77651" lon="6.90576">
        <ele>2664</ele>
        <time>2022-08-27T06:16:55Z</time>
      </trkpt>
      <trkpt lat="45.77653" lon="6.90577">
        <ele>2664</ele>
        <time>2022-08-27T06:16:56Z</time>
      </trkpt>
      <trkpt lat="45.77657" lon="6.90581">
        <ele>2664</ele>
        <time>2022-08-27T06:16:58Z</time>
      </trkpt>
      <trkpt lat="45.77658" lon="6.90582">
        <ele>2664</ele>
        <time>2022-08-27T06:16:59Z</time>
      </trkpt>
      <trkpt lat="45.77661" lon="6.90584">
        <ele>2664</ele>
        <time>2022-08-27T06:17:00Z</time>
      </trkpt>
      <trkpt lat="45.77662" lon="6.90585">
        <ele>2663</ele>
        <time>2022-08-27T06:17:01Z</time>
      </trkpt>
      <trkpt lat="45.77666" lon="6.90587">
        <ele>2663</ele>
        <time>2022-08-27T06:17:03Z</time>
      </trkpt>
      <trkpt lat="45.77668" lon="6.9059">
        <ele>2663</ele>
        <time>2022-08-27T06:17:04Z</time>
      </trkpt>
      <trkpt lat="45.77669" lon="6.9059">
        <ele>2663</ele>
        <time>2022-08-27T06:17:05Z</time>
      </trkpt>
      <trkpt lat="45.77672" lon="6.90592">
        <ele>2662</ele>
        <time>2022-08-27T06:17:06Z</time>
      </trkpt>
      <trkpt lat="45.77673" lon="6.90593">
        <ele>2662</ele>
        <time>2022-08-27T06:17:07Z</time>
      </trkpt>
      <trkpt lat="45.77676" lon="6.90595">
        <ele>2662</ele>
        <time>2022-08-27T06:17:09Z</time>
      </trkpt>
      <trkpt lat="45.77679" lon="6.90598">
        <ele>2661</ele>
        <time>2022-08-27T06:17:11Z</time>
      </trkpt>
      <trkpt lat="45.7768" lon="6.90601">
        <ele>2661</ele>
        <time>2022-08-27T06:17:13Z</time>
      </trkpt>
      <trkpt lat="45.77682" lon="6.90603">
        <ele>2661</ele>
        <time>2022-08-27T06:17:15Z</time>
      </trkpt>
      <trkpt lat="45.77685" lon="6.90603">
        <ele>2660</ele>
        <time>2022-08-27T06:17:17Z</time>
      </trkpt>
      <trkpt lat="45.77687" lon="6.90603">
        <ele>2659</ele>
        <time>2022-08-27T06:17:20Z</time>
      </trkpt>
      <trkpt lat="45.7769" lon="6.90604">
        <ele>2659</ele>
        <time>2022-08-27T06:17:21Z</time>
      </trkpt>
      <trkpt lat="45.77693" lon="6.90604">
        <ele>2656</ele>
        <time>2022-08-27T06:17:23Z</time>
      </trkpt>
      <trkpt lat="45.77695" lon="6.90604">
        <ele>2656</ele>
        <time>2022-08-27T06:17:24Z</time>
      </trkpt>
      <trkpt lat="45.77698" lon="6.90604">
        <ele>2656</ele>
        <time>2022-08-27T06:17:26Z</time>
      </trkpt>
      <trkpt lat="45.77701" lon="6.90605">
        <ele>2654</ele>
        <time>2022-08-27T06:17:28Z</time>
      </trkpt>
      <trkpt lat="45.77704" lon="6.90606">
        <ele>2652</ele>
        <time>2022-08-27T06:17:31Z</time>
      </trkpt>
      <trkpt lat="45.77707" lon="6.90608">
        <ele>2652</ele>
        <time>2022-08-27T06:17:32Z</time>
      </trkpt>
      <trkpt lat="45.7771" lon="6.90609">
        <ele>2652</ele>
        <time>2022-08-27T06:17:34Z</time>
      </trkpt>
      <trkpt lat="45.77715" lon="6.9061">
        <ele>2651</ele>
        <time>2022-08-27T06:17:36Z</time>
      </trkpt>
      <trkpt lat="45.77717" lon="6.90611">
        <ele>2650</ele>
        <time>2022-08-27T06:17:37Z</time>
      </trkpt>
      <trkpt lat="45.7772" lon="6.90612">
        <ele>2650</ele>
        <time>2022-08-27T06:17:38Z</time>
      </trkpt>
      <trkpt lat="45.77722" lon="6.90613">
        <ele>2650</ele>
        <time>2022-08-27T06:17:39Z</time>
      </trkpt>
      <trkpt lat="45.77724" lon="6.90614">
        <ele>2650</ele>
        <time>2022-08-27T06:17:40Z</time>
      </trkpt>
      <trkpt lat="45.77726" lon="6.90615">
        <ele>2649</ele>
        <time>2022-08-27T06:17:41Z</time>
      </trkpt>
      <trkpt lat="45.77728" lon="6.90616">
        <ele>2649</ele>
        <time>2022-08-27T06:17:42Z</time>
      </trkpt>
      <trkpt lat="45.77731" lon="6.90615">
        <ele>2649</ele>
        <time>2022-08-27T06:17:44Z</time>
      </trkpt>
      <trkpt lat="45.77734" lon="6.90613">
        <ele>2647</ele>
        <time>2022-08-27T06:17:46Z</time>
      </trkpt>
      <trkpt lat="45.77737" lon="6.9061">
        <ele>2647</ele>
        <time>2022-08-27T06:17:48Z</time>
      </trkpt>
      <trkpt lat="45.7774" lon="6.90607">
        <ele>2647</ele>
        <time>2022-08-27T06:17:50Z</time>
      </trkpt>
      <trkpt lat="45.77742" lon="6.90607">
        <ele>2647</ele>
        <time>2022-08-27T06:17:51Z</time>
      </trkpt>
      <trkpt lat="45.77744" lon="6.90607">
        <ele>2647</ele>
        <time>2022-08-27T06:17:52Z</time>
      </trkpt>
      <trkpt lat="45.77748" lon="6.90608">
        <ele>2647</ele>
        <time>2022-08-27T06:17:54Z</time>
      </trkpt>
      <trkpt lat="45.7775" lon="6.90607">
        <ele>2646</ele>
        <time>2022-08-27T06:17:55Z</time>
      </trkpt>
      <trkpt lat="45.77753" lon="6.90607">
        <ele>2645</ele>
        <time>2022-08-27T06:17:56Z</time>
      </trkpt>
      <trkpt lat="45.77756" lon="6.90607">
        <ele>2645</ele>
        <time>2022-08-27T06:17:57Z</time>
      </trkpt>
      <trkpt lat="45.77757" lon="6.90607">
        <ele>2645</ele>
        <time>2022-08-27T06:17:58Z</time>
      </trkpt>
      <trkpt lat="45.7776" lon="6.90608">
        <ele>2645</ele>
        <time>2022-08-27T06:17:59Z</time>
      </trkpt>
      <trkpt lat="45.77761" lon="6.90609">
        <ele>2644</ele>
        <time>2022-08-27T06:18:00Z</time>
      </trkpt>
      <trkpt lat="45.77764" lon="6.90611">
        <ele>2644</ele>
        <time>2022-08-27T06:18:01Z</time>
      </trkpt>
      <trkpt lat="45.77765" lon="6.90611">
        <ele>2644</ele>
        <time>2022-08-27T06:18:02Z</time>
      </trkpt>
      <trkpt lat="45.77768" lon="6.90612">
        <ele>2644</ele>
        <time>2022-08-27T06:18:03Z</time>
      </trkpt>
      <trkpt lat="45.77771" lon="6.90612">
        <ele>2642</ele>
        <time>2022-08-27T06:18:04Z</time>
      </trkpt>
      <trkpt lat="45.77772" lon="6.90612">
        <ele>2641</ele>
        <time>2022-08-27T06:18:05Z</time>
      </trkpt>
      <trkpt lat="45.77776" lon="6.90612">
        <ele>2641</ele>
        <time>2022-08-27T06:18:06Z</time>
      </trkpt>
      <trkpt lat="45.77777" lon="6.90612">
        <ele>2641</ele>
        <time>2022-08-27T06:18:07Z</time>
      </trkpt>
      <trkpt lat="45.77779" lon="6.90612">
        <ele>2640</ele>
        <time>2022-08-27T06:18:08Z</time>
      </trkpt>
      <trkpt lat="45.77781" lon="6.90612">
        <ele>2639</ele>
        <time>2022-08-27T06:18:09Z</time>
      </trkpt>
      <trkpt lat="45.77783" lon="6.90612">
        <ele>2639</ele>
        <time>2022-08-27T06:18:10Z</time>
      </trkpt>
      <trkpt lat="45.77785" lon="6.90613">
        <ele>2639</ele>
        <time>2022-08-27T06:18:11Z</time>
      </trkpt>
      <trkpt lat="45.7779" lon="6.90615">
        <ele>2639</ele>
        <time>2022-08-27T06:18:13Z</time>
      </trkpt>
      <trkpt lat="45.77791" lon="6.90616">
        <ele>2638</ele>
        <time>2022-08-27T06:18:14Z</time>
      </trkpt>
      <trkpt lat="45.77793" lon="6.90617">
        <ele>2638</ele>
        <time>2022-08-27T06:18:15Z</time>
      </trkpt>
      <trkpt lat="45.77796" lon="6.90619">
        <ele>2638</ele>
        <time>2022-08-27T06:18:16Z</time>
      </trkpt>
      <trkpt lat="45.77797" lon="6.9062">
        <ele>2637</ele>
        <time>2022-08-27T06:18:17Z</time>
      </trkpt>
      <trkpt lat="45.778" lon="6.90622">
        <ele>2637</ele>
        <time>2022-08-27T06:18:18Z</time>
      </trkpt>
      <trkpt lat="45.77801" lon="6.90623">
        <ele>2635</ele>
        <time>2022-08-27T06:18:19Z</time>
      </trkpt>
      <trkpt lat="45.77803" lon="6.90625">
        <ele>2635</ele>
        <time>2022-08-27T06:18:20Z</time>
      </trkpt>
      <trkpt lat="45.77805" lon="6.90626">
        <ele>2635</ele>
        <time>2022-08-27T06:18:21Z</time>
      </trkpt>
      <trkpt lat="45.77807" lon="6.90628">
        <ele>2635</ele>
        <time>2022-08-27T06:18:22Z</time>
      </trkpt>
      <trkpt lat="45.7781" lon="6.9063">
        <ele>2635</ele>
        <time>2022-08-27T06:18:23Z</time>
      </trkpt>
      <trkpt lat="45.77811" lon="6.90631">
        <ele>2635</ele>
        <time>2022-08-27T06:18:24Z</time>
      </trkpt>
      <trkpt lat="45.77812" lon="6.90632">
        <ele>2635</ele>
        <time>2022-08-27T06:18:25Z</time>
      </trkpt>
      <trkpt lat="45.77814" lon="6.90634">
        <ele>2634</ele>
        <time>2022-08-27T06:18:26Z</time>
      </trkpt>
      <trkpt lat="45.77816" lon="6.90636">
        <ele>2633</ele>
        <time>2022-08-27T06:18:27Z</time>
      </trkpt>
      <trkpt lat="45.7782" lon="6.9064">
        <ele>2633</ele>
        <time>2022-08-27T06:18:29Z</time>
      </trkpt>
      <trkpt lat="45.77822" lon="6.90643">
        <ele>2632</ele>
        <time>2022-08-27T06:18:30Z</time>
      </trkpt>
      <trkpt lat="45.77824" lon="6.90645">
        <ele>2632</ele>
        <time>2022-08-27T06:18:31Z</time>
      </trkpt>
      <trkpt lat="45.77826" lon="6.90647">
        <ele>2632</ele>
        <time>2022-08-27T06:18:32Z</time>
      </trkpt>
      <trkpt lat="45.77829" lon="6.90651">
        <ele>2632</ele>
        <time>2022-08-27T06:18:34Z</time>
      </trkpt>
      <trkpt lat="45.7783" lon="6.90653">
        <ele>2632</ele>
        <time>2022-08-27T06:18:35Z</time>
      </trkpt>
      <trkpt lat="45.77832" lon="6.90655">
        <ele>2632</ele>
        <time>2022-08-27T06:18:36Z</time>
      </trkpt>
      <trkpt lat="45.77835" lon="6.90658">
        <ele>2632</ele>
        <time>2022-08-27T06:18:38Z</time>
      </trkpt>
      <trkpt lat="45.77836" lon="6.9066">
        <ele>2632</ele>
        <time>2022-08-27T06:18:39Z</time>
      </trkpt>
      <trkpt lat="45.7784" lon="6.90662">
        <ele>2631</ele>
        <time>2022-08-27T06:18:41Z</time>
      </trkpt>
      <trkpt lat="45.77843" lon="6.90664">
        <ele>2631</ele>
        <time>2022-08-27T06:18:43Z</time>
      </trkpt>
      <trkpt lat="45.77846" lon="6.90665">
        <ele>2631</ele>
        <time>2022-08-27T06:18:44Z</time>
      </trkpt>
      <trkpt lat="45.77847" lon="6.90666">
        <ele>2629</ele>
        <time>2022-08-27T06:18:45Z</time>
      </trkpt>
      <trkpt lat="45.77849" lon="6.90667">
        <ele>2629</ele>
        <time>2022-08-27T06:18:46Z</time>
      </trkpt>
      <trkpt lat="45.77851" lon="6.90668">
        <ele>2629</ele>
        <time>2022-08-27T06:18:47Z</time>
      </trkpt>
      <trkpt lat="45.77854" lon="6.90673">
        <ele>2629</ele>
        <time>2022-08-27T06:18:49Z</time>
      </trkpt>
      <trkpt lat="45.77855" lon="6.90674">
        <ele>2628</ele>
        <time>2022-08-27T06:18:50Z</time>
      </trkpt>
      <trkpt lat="45.77856" lon="6.90677">
        <ele>2628</ele>
        <time>2022-08-27T06:18:51Z</time>
      </trkpt>
      <trkpt lat="45.77857" lon="6.90679">
        <ele>2627</ele>
        <time>2022-08-27T06:18:52Z</time>
      </trkpt>
      <trkpt lat="45.77858" lon="6.90681">
        <ele>2627</ele>
        <time>2022-08-27T06:18:53Z</time>
      </trkpt>
      <trkpt lat="45.77859" lon="6.90683">
        <ele>2627</ele>
        <time>2022-08-27T06:18:55Z</time>
      </trkpt>
      <trkpt lat="45.77861" lon="6.90688">
        <ele>2626</ele>
        <time>2022-08-27T06:18:56Z</time>
      </trkpt>
      <trkpt lat="45.77862" lon="6.9069">
        <ele>2626</ele>
        <time>2022-08-27T06:18:57Z</time>
      </trkpt>
      <trkpt lat="45.77864" lon="6.90694">
        <ele>2626</ele>
        <time>2022-08-27T06:18:59Z</time>
      </trkpt>
      <trkpt lat="45.77865" lon="6.90698">
        <ele>2626</ele>
        <time>2022-08-27T06:19:01Z</time>
      </trkpt>
      <trkpt lat="45.77865" lon="6.907">
        <ele>2625</ele>
        <time>2022-08-27T06:19:05Z</time>
      </trkpt>
      <trkpt lat="45.77866" lon="6.90701">
        <ele>2625</ele>
        <time>2022-08-27T06:19:07Z</time>
      </trkpt>
      <trkpt lat="45.77866" lon="6.90701">
        <ele>2625</ele>
        <time>2022-08-27T06:19:08Z</time>
      </trkpt>
      <trkpt lat="45.77866" lon="6.90701">
        <ele>2625</ele>
        <time>2022-08-27T06:19:09Z</time>
      </trkpt>
      <trkpt lat="45.77866" lon="6.90701">
        <ele>2625</ele>
        <time>2022-08-27T06:19:10Z</time>
      </trkpt>
      <trkpt lat="45.77866" lon="6.90702">
        <ele>2625</ele>
        <time>2022-08-27T06:19:11Z</time>
      </trkpt>
      <trkpt lat="45.77866" lon="6.90702">
        <ele>2625</ele>
        <time>2022-08-27T06:19:12Z</time>
      </trkpt>
      <trkpt lat="45.77866" lon="6.90702">
        <ele>2625</ele>
        <time>2022-08-27T06:19:14Z</time>
      </trkpt>
      <trkpt lat="45.77866" lon="6.90702">
        <ele>2625</ele>
        <time>2022-08-27T06:19:15Z</time>
      </trkpt>
      <trkpt lat="45.77866" lon="6.90703">
        <ele>2625</ele>
        <time>2022-08-27T06:19:16Z</time>
      </trkpt>
      <trkpt lat="45.77867" lon="6.90703">
        <ele>2625</ele>
        <time>2022-08-27T06:19:17Z</time>
      </trkpt>
      <trkpt lat="45.77867" lon="6.90703">
        <ele>2625</ele>
        <time>2022-08-27T06:19:18Z</time>
      </trkpt>
      <trkpt lat="45.77867" lon="6.90703">
        <ele>2625</ele>
        <time>2022-08-27T06:19:19Z</time>
      </trkpt>
      <trkpt lat="45.77867" lon="6.90704">
        <ele>2625</ele>
        <time>2022-08-27T06:19:20Z</time>
      </trkpt>
      <trkpt lat="45.77867" lon="6.90704">
        <ele>2625</ele>
        <time>2022-08-27T06:19:21Z</time>
      </trkpt>
      <trkpt lat="45.77867" lon="6.90704">
        <ele>2625</ele>
        <time>2022-08-27T06:19:23Z</time>
      </trkpt>
      <trkpt lat="45.77867" lon="6.90704">
        <ele>2625</ele>
        <time>2022-08-27T06:19:24Z</time>
      </trkpt>
      <trkpt lat="45.77867" lon="6.90705">
        <ele>2625</ele>
        <time>2022-08-27T06:19:25Z</time>
      </trkpt>
      <trkpt lat="45.77867" lon="6.90705">
        <ele>2625</ele>
        <time>2022-08-27T06:19:26Z</time>
      </trkpt>
      <trkpt lat="45.77867" lon="6.90705">
        <ele>2625</ele>
        <time>2022-08-27T06:19:28Z</time>
      </trkpt>
      <trkpt lat="45.77868" lon="6.90705">
        <ele>2625</ele>
        <time>2022-08-27T06:19:29Z</time>
      </trkpt>
      <trkpt lat="45.77868" lon="6.90706">
        <ele>2625</ele>
        <time>2022-08-27T06:19:30Z</time>
      </trkpt>
      <trkpt lat="45.77868" lon="6.90706">
        <ele>2625</ele>
        <time>2022-08-27T06:19:31Z</time>
      </trkpt>
      <trkpt lat="45.77869" lon="6.90708">
        <ele>2625</ele>
        <time>2022-08-27T06:19:32Z</time>
      </trkpt>
      <trkpt lat="45.77871" lon="6.9071">
        <ele>2625</ele>
        <time>2022-08-27T06:19:33Z</time>
      </trkpt>
      <trkpt lat="45.77874" lon="6.90713">
        <ele>2625</ele>
        <time>2022-08-27T06:19:34Z</time>
      </trkpt>
      <trkpt lat="45.77874" lon="6.90714">
        <ele>2624</ele>
        <time>2022-08-27T06:19:35Z</time>
      </trkpt>
      <trkpt lat="45.77876" lon="6.90716">
        <ele>2624</ele>
        <time>2022-08-27T06:19:36Z</time>
      </trkpt>
      <trkpt lat="45.77879" lon="6.90719">
        <ele>2623</ele>
        <time>2022-08-27T06:19:38Z</time>
      </trkpt>
      <trkpt lat="45.77881" lon="6.90721">
        <ele>2623</ele>
        <time>2022-08-27T06:19:39Z</time>
      </trkpt>
      <trkpt lat="45.77882" lon="6.90722">
        <ele>2623</ele>
        <time>2022-08-27T06:19:40Z</time>
      </trkpt>
      <trkpt lat="45.77884" lon="6.90724">
        <ele>2623</ele>
        <time>2022-08-27T06:19:41Z</time>
      </trkpt>
      <trkpt lat="45.77886" lon="6.90725">
        <ele>2623</ele>
        <time>2022-08-27T06:19:42Z</time>
      </trkpt>
      <trkpt lat="45.77887" lon="6.90727">
        <ele>2623</ele>
        <time>2022-08-27T06:19:43Z</time>
      </trkpt>
      <trkpt lat="45.77889" lon="6.90729">
        <ele>2623</ele>
        <time>2022-08-27T06:19:44Z</time>
      </trkpt>
      <trkpt lat="45.77891" lon="6.90731">
        <ele>2623</ele>
        <time>2022-08-27T06:19:45Z</time>
      </trkpt>
      <trkpt lat="45.77892" lon="6.90733">
        <ele>2622</ele>
        <time>2022-08-27T06:19:46Z</time>
      </trkpt>
      <trkpt lat="45.77895" lon="6.90736">
        <ele>2621</ele>
        <time>2022-08-27T06:19:47Z</time>
      </trkpt>
      <trkpt lat="45.77896" lon="6.90737">
        <ele>2621</ele>
        <time>2022-08-27T06:19:48Z</time>
      </trkpt>
      <trkpt lat="45.77897" lon="6.90738">
        <ele>2621</ele>
        <time>2022-08-27T06:19:49Z</time>
      </trkpt>
      <trkpt lat="45.779" lon="6.90743">
        <ele>2619</ele>
        <time>2022-08-27T06:19:51Z</time>
      </trkpt>
      <trkpt lat="45.77901" lon="6.90745">
        <ele>2617</ele>
        <time>2022-08-27T06:19:52Z</time>
      </trkpt>
      <trkpt lat="45.77902" lon="6.90748">
        <ele>2617</ele>
        <time>2022-08-27T06:19:53Z</time>
      </trkpt>
      <trkpt lat="45.77903" lon="6.9075">
        <ele>2617</ele>
        <time>2022-08-27T06:19:54Z</time>
      </trkpt>
      <trkpt lat="45.77904" lon="6.90753">
        <ele>2617</ele>
        <time>2022-08-27T06:19:55Z</time>
      </trkpt>
      <trkpt lat="45.77905" lon="6.90756">
        <ele>2617</ele>
        <time>2022-08-27T06:19:56Z</time>
      </trkpt>
      <trkpt lat="45.77907" lon="6.90761">
        <ele>2617</ele>
        <time>2022-08-27T06:19:57Z</time>
      </trkpt>
      <trkpt lat="45.77908" lon="6.90762">
        <ele>2616</ele>
        <time>2022-08-27T06:19:58Z</time>
      </trkpt>
      <trkpt lat="45.77909" lon="6.90764">
        <ele>2616</ele>
        <time>2022-08-27T06:19:59Z</time>
      </trkpt>
      <trkpt lat="45.7791" lon="6.90767">
        <ele>2614</ele>
        <time>2022-08-27T06:20:00Z</time>
      </trkpt>
      <trkpt lat="45.77911" lon="6.9077">
        <ele>2614</ele>
        <time>2022-08-27T06:20:01Z</time>
      </trkpt>
      <trkpt lat="45.77914" lon="6.90775">
        <ele>2614</ele>
        <time>2022-08-27T06:20:03Z</time>
      </trkpt>
      <trkpt lat="45.77916" lon="6.90779">
        <ele>2614</ele>
        <time>2022-08-27T06:20:04Z</time>
      </trkpt>
      <trkpt lat="45.77917" lon="6.9078">
        <ele>2613</ele>
        <time>2022-08-27T06:20:05Z</time>
      </trkpt>
      <trkpt lat="45.77918" lon="6.90783">
        <ele>2613</ele>
        <time>2022-08-27T06:20:06Z</time>
      </trkpt>
      <trkpt lat="45.77919" lon="6.90786">
        <ele>2613</ele>
        <time>2022-08-27T06:20:07Z</time>
      </trkpt>
      <trkpt lat="45.77921" lon="6.90789">
        <ele>2612</ele>
        <time>2022-08-27T06:20:08Z</time>
      </trkpt>
      <trkpt lat="45.77922" lon="6.90792">
        <ele>2612</ele>
        <time>2022-08-27T06:20:09Z</time>
      </trkpt>
      <trkpt lat="45.77923" lon="6.90795">
        <ele>2612</ele>
        <time>2022-08-27T06:20:10Z</time>
      </trkpt>
      <trkpt lat="45.77925" lon="6.90798">
        <ele>2611</ele>
        <time>2022-08-27T06:20:11Z</time>
      </trkpt>
      <trkpt lat="45.77927" lon="6.90803">
        <ele>2610</ele>
        <time>2022-08-27T06:20:13Z</time>
      </trkpt>
      <trkpt lat="45.77928" lon="6.90808">
        <ele>2610</ele>
        <time>2022-08-27T06:20:14Z</time>
      </trkpt>
      <trkpt lat="45.77929" lon="6.9081">
        <ele>2610</ele>
        <time>2022-08-27T06:20:15Z</time>
      </trkpt>
      <trkpt lat="45.7793" lon="6.90812">
        <ele>2609</ele>
        <time>2022-08-27T06:20:16Z</time>
      </trkpt>
      <trkpt lat="45.77931" lon="6.90815">
        <ele>2609</ele>
        <time>2022-08-27T06:20:17Z</time>
      </trkpt>
      <trkpt lat="45.77933" lon="6.90818">
        <ele>2609</ele>
        <time>2022-08-27T06:20:18Z</time>
      </trkpt>
      <trkpt lat="45.77936" lon="6.90823">
        <ele>2608</ele>
        <time>2022-08-27T06:20:20Z</time>
      </trkpt>
      <trkpt lat="45.77938" lon="6.90826">
        <ele>2608</ele>
        <time>2022-08-27T06:20:21Z</time>
      </trkpt>
      <trkpt lat="45.77939" lon="6.90829">
        <ele>2608</ele>
        <time>2022-08-27T06:20:22Z</time>
      </trkpt>
      <trkpt lat="45.7794" lon="6.90831">
        <ele>2608</ele>
        <time>2022-08-27T06:20:23Z</time>
      </trkpt>
      <trkpt lat="45.77943" lon="6.90835">
        <ele>2607</ele>
        <time>2022-08-27T06:20:25Z</time>
      </trkpt>
      <trkpt lat="45.77944" lon="6.90838">
        <ele>2607</ele>
        <time>2022-08-27T06:20:26Z</time>
      </trkpt>
      <trkpt lat="45.77946" lon="6.9084">
        <ele>2607</ele>
        <time>2022-08-27T06:20:27Z</time>
      </trkpt>
      <trkpt lat="45.77947" lon="6.90842">
        <ele>2607</ele>
        <time>2022-08-27T06:20:28Z</time>
      </trkpt>
      <trkpt lat="45.7795" lon="6.90848">
        <ele>2607</ele>
        <time>2022-08-27T06:20:30Z</time>
      </trkpt>
      <trkpt lat="45.77951" lon="6.90851">
        <ele>2607</ele>
        <time>2022-08-27T06:20:31Z</time>
      </trkpt>
      <trkpt lat="45.77953" lon="6.90854">
        <ele>2604</ele>
        <time>2022-08-27T06:20:32Z</time>
      </trkpt>
      <trkpt lat="45.77954" lon="6.90856">
        <ele>2604</ele>
        <time>2022-08-27T06:20:33Z</time>
      </trkpt>
      <trkpt lat="45.77956" lon="6.90861">
        <ele>2604</ele>
        <time>2022-08-27T06:20:34Z</time>
      </trkpt>
      <trkpt lat="45.77957" lon="6.90863">
        <ele>2604</ele>
        <time>2022-08-27T06:20:35Z</time>
      </trkpt>
      <trkpt lat="45.77958" lon="6.90865">
        <ele>2604</ele>
        <time>2022-08-27T06:20:36Z</time>
      </trkpt>
      <trkpt lat="45.77959" lon="6.90867">
        <ele>2603</ele>
        <time>2022-08-27T06:20:37Z</time>
      </trkpt>
      <trkpt lat="45.7796" lon="6.90869">
        <ele>2603</ele>
        <time>2022-08-27T06:20:38Z</time>
      </trkpt>
      <trkpt lat="45.77962" lon="6.90872">
        <ele>2603</ele>
        <time>2022-08-27T06:20:39Z</time>
      </trkpt>
      <trkpt lat="45.77964" lon="6.90875">
        <ele>2603</ele>
        <time>2022-08-27T06:20:40Z</time>
      </trkpt>
      <trkpt lat="45.77965" lon="6.90876">
        <ele>2602</ele>
        <time>2022-08-27T06:20:41Z</time>
      </trkpt>
      <trkpt lat="45.77966" lon="6.90879">
        <ele>2602</ele>
        <time>2022-08-27T06:20:42Z</time>
      </trkpt>
      <trkpt lat="45.77968" lon="6.90881">
        <ele>2602</ele>
        <time>2022-08-27T06:20:43Z</time>
      </trkpt>
      <trkpt lat="45.77969" lon="6.90884">
        <ele>2601</ele>
        <time>2022-08-27T06:20:44Z</time>
      </trkpt>
      <trkpt lat="45.77972" lon="6.90888">
        <ele>2601</ele>
        <time>2022-08-27T06:20:46Z</time>
      </trkpt>
      <trkpt lat="45.77973" lon="6.90891">
        <ele>2601</ele>
        <time>2022-08-27T06:20:47Z</time>
      </trkpt>
      <trkpt lat="45.77975" lon="6.90894">
        <ele>2601</ele>
        <time>2022-08-27T06:20:48Z</time>
      </trkpt>
      <trkpt lat="45.77976" lon="6.90895">
        <ele>2601</ele>
        <time>2022-08-27T06:20:49Z</time>
      </trkpt>
      <trkpt lat="45.77979" lon="6.90898">
        <ele>2601</ele>
        <time>2022-08-27T06:20:50Z</time>
      </trkpt>
      <trkpt lat="45.7798" lon="6.90899">
        <ele>2600</ele>
        <time>2022-08-27T06:20:51Z</time>
      </trkpt>
      <trkpt lat="45.77982" lon="6.90901">
        <ele>2600</ele>
        <time>2022-08-27T06:20:52Z</time>
      </trkpt>
      <trkpt lat="45.77983" lon="6.90903">
        <ele>2600</ele>
        <time>2022-08-27T06:20:53Z</time>
      </trkpt>
      <trkpt lat="45.77984" lon="6.90906">
        <ele>2599</ele>
        <time>2022-08-27T06:20:54Z</time>
      </trkpt>
      <trkpt lat="45.77986" lon="6.9091">
        <ele>2599</ele>
        <time>2022-08-27T06:20:55Z</time>
      </trkpt>
      <trkpt lat="45.77987" lon="6.90911">
        <ele>2599</ele>
        <time>2022-08-27T06:20:56Z</time>
      </trkpt>
      <trkpt lat="45.77988" lon="6.90914">
        <ele>2599</ele>
        <time>2022-08-27T06:20:57Z</time>
      </trkpt>
      <trkpt lat="45.77989" lon="6.90916">
        <ele>2599</ele>
        <time>2022-08-27T06:20:58Z</time>
      </trkpt>
      <trkpt lat="45.7799" lon="6.90919">
        <ele>2598</ele>
        <time>2022-08-27T06:20:59Z</time>
      </trkpt>
      <trkpt lat="45.77992" lon="6.90924">
        <ele>2597</ele>
        <time>2022-08-27T06:21:01Z</time>
      </trkpt>
      <trkpt lat="45.77994" lon="6.90928">
        <ele>2597</ele>
        <time>2022-08-27T06:21:02Z</time>
      </trkpt>
      <trkpt lat="45.77995" lon="6.90929">
        <ele>2597</ele>
        <time>2022-08-27T06:21:03Z</time>
      </trkpt>
      <trkpt lat="45.77996" lon="6.90932">
        <ele>2596</ele>
        <time>2022-08-27T06:21:04Z</time>
      </trkpt>
      <trkpt lat="45.77996" lon="6.90935">
        <ele>2596</ele>
        <time>2022-08-27T06:21:05Z</time>
      </trkpt>
      <trkpt lat="45.77997" lon="6.90938">
        <ele>2596</ele>
        <time>2022-08-27T06:21:06Z</time>
      </trkpt>
      <trkpt lat="45.77997" lon="6.90941">
        <ele>2596</ele>
        <time>2022-08-27T06:21:07Z</time>
      </trkpt>
      <trkpt lat="45.77997" lon="6.90944">
        <ele>2595</ele>
        <time>2022-08-27T06:21:08Z</time>
      </trkpt>
      <trkpt lat="45.77997" lon="6.90947">
        <ele>2593</ele>
        <time>2022-08-27T06:21:09Z</time>
      </trkpt>
      <trkpt lat="45.77997" lon="6.90949">
        <ele>2592</ele>
        <time>2022-08-27T06:21:10Z</time>
      </trkpt>
      <trkpt lat="45.77998" lon="6.90952">
        <ele>2591</ele>
        <time>2022-08-27T06:21:11Z</time>
      </trkpt>
      <trkpt lat="45.77999" lon="6.90957">
        <ele>2591</ele>
        <time>2022-08-27T06:21:12Z</time>
      </trkpt>
      <trkpt lat="45.77999" lon="6.90958">
        <ele>2590</ele>
        <time>2022-08-27T06:21:13Z</time>
      </trkpt>
      <trkpt lat="45.78" lon="6.90961">
        <ele>2589</ele>
        <time>2022-08-27T06:21:14Z</time>
      </trkpt>
      <trkpt lat="45.78001" lon="6.90965">
        <ele>2589</ele>
        <time>2022-08-27T06:21:15Z</time>
      </trkpt>
      <trkpt lat="45.78001" lon="6.90967">
        <ele>2589</ele>
        <time>2022-08-27T06:21:16Z</time>
      </trkpt>
      <trkpt lat="45.78002" lon="6.90971">
        <ele>2589</ele>
        <time>2022-08-27T06:21:17Z</time>
      </trkpt>
      <trkpt lat="45.78003" lon="6.90973">
        <ele>2587</ele>
        <time>2022-08-27T06:21:18Z</time>
      </trkpt>
      <trkpt lat="45.78004" lon="6.90976">
        <ele>2587</ele>
        <time>2022-08-27T06:21:19Z</time>
      </trkpt>
      <trkpt lat="45.78005" lon="6.90979">
        <ele>2587</ele>
        <time>2022-08-27T06:21:20Z</time>
      </trkpt>
      <trkpt lat="45.78006" lon="6.90984">
        <ele>2587</ele>
        <time>2022-08-27T06:21:21Z</time>
      </trkpt>
      <trkpt lat="45.78006" lon="6.90985">
        <ele>2586</ele>
        <time>2022-08-27T06:21:22Z</time>
      </trkpt>
      <trkpt lat="45.78007" lon="6.90988">
        <ele>2585</ele>
        <time>2022-08-27T06:21:23Z</time>
      </trkpt>
      <trkpt lat="45.78007" lon="6.90991">
        <ele>2585</ele>
        <time>2022-08-27T06:21:24Z</time>
      </trkpt>
      <trkpt lat="45.78008" lon="6.90995">
        <ele>2584</ele>
        <time>2022-08-27T06:21:25Z</time>
      </trkpt>
      <trkpt lat="45.7801" lon="6.91001">
        <ele>2584</ele>
        <time>2022-08-27T06:21:27Z</time>
      </trkpt>
      <trkpt lat="45.78011" lon="6.91004">
        <ele>2584</ele>
        <time>2022-08-27T06:21:28Z</time>
      </trkpt>
      <trkpt lat="45.78011" lon="6.91007">
        <ele>2583</ele>
        <time>2022-08-27T06:21:29Z</time>
      </trkpt>
      <trkpt lat="45.78012" lon="6.9101">
        <ele>2583</ele>
        <time>2022-08-27T06:21:30Z</time>
      </trkpt>
      <trkpt lat="45.78013" lon="6.91013">
        <ele>2581</ele>
        <time>2022-08-27T06:21:31Z</time>
      </trkpt>
      <trkpt lat="45.78013" lon="6.91016">
        <ele>2581</ele>
        <time>2022-08-27T06:21:32Z</time>
      </trkpt>
      <trkpt lat="45.78014" lon="6.9102">
        <ele>2581</ele>
        <time>2022-08-27T06:21:33Z</time>
      </trkpt>
      <trkpt lat="45.78015" lon="6.91022">
        <ele>2579</ele>
        <time>2022-08-27T06:21:34Z</time>
      </trkpt>
      <trkpt lat="45.78015" lon="6.91024">
        <ele>2579</ele>
        <time>2022-08-27T06:21:35Z</time>
      </trkpt>
      <trkpt lat="45.78015" lon="6.91027">
        <ele>2579</ele>
        <time>2022-08-27T06:21:36Z</time>
      </trkpt>
      <trkpt lat="45.78015" lon="6.91032">
        <ele>2579</ele>
        <time>2022-08-27T06:21:38Z</time>
      </trkpt>
      <trkpt lat="45.78013" lon="6.91037">
        <ele>2577</ele>
        <time>2022-08-27T06:21:40Z</time>
      </trkpt>
      <trkpt lat="45.78012" lon="6.9104">
        <ele>2577</ele>
        <time>2022-08-27T06:21:41Z</time>
      </trkpt>
      <trkpt lat="45.7801" lon="6.91045">
        <ele>2576</ele>
        <time>2022-08-27T06:21:43Z</time>
      </trkpt>
      <trkpt lat="45.78009" lon="6.91047">
        <ele>2575</ele>
        <time>2022-08-27T06:21:44Z</time>
      </trkpt>
      <trkpt lat="45.78009" lon="6.91049">
        <ele>2575</ele>
        <time>2022-08-27T06:21:45Z</time>
      </trkpt>
      <trkpt lat="45.78008" lon="6.91052">
        <ele>2575</ele>
        <time>2022-08-27T06:21:46Z</time>
      </trkpt>
      <trkpt lat="45.78006" lon="6.91056">
        <ele>2575</ele>
        <time>2022-08-27T06:21:47Z</time>
      </trkpt>
      <trkpt lat="45.78005" lon="6.91057">
        <ele>2574</ele>
        <time>2022-08-27T06:21:48Z</time>
      </trkpt>
      <trkpt lat="45.78004" lon="6.91059">
        <ele>2574</ele>
        <time>2022-08-27T06:21:49Z</time>
      </trkpt>
      <trkpt lat="45.78002" lon="6.91063">
        <ele>2574</ele>
        <time>2022-08-27T06:21:50Z</time>
      </trkpt>
      <trkpt lat="45.78001" lon="6.91064">
        <ele>2574</ele>
        <time>2022-08-27T06:21:51Z</time>
      </trkpt>
      <trkpt lat="45.78" lon="6.91066">
        <ele>2574</ele>
        <time>2022-08-27T06:21:52Z</time>
      </trkpt>
      <trkpt lat="45.78" lon="6.91072">
        <ele>2572</ele>
        <time>2022-08-27T06:21:54Z</time>
      </trkpt>
      <trkpt lat="45.77999" lon="6.91076">
        <ele>2571</ele>
        <time>2022-08-27T06:21:55Z</time>
      </trkpt>
      <trkpt lat="45.77999" lon="6.91078">
        <ele>2571</ele>
        <time>2022-08-27T06:21:56Z</time>
      </trkpt>
      <trkpt lat="45.77998" lon="6.91081">
        <ele>2571</ele>
        <time>2022-08-27T06:21:57Z</time>
      </trkpt>
      <trkpt lat="45.77997" lon="6.91083">
        <ele>2571</ele>
        <time>2022-08-27T06:21:58Z</time>
      </trkpt>
      <trkpt lat="45.77996" lon="6.91086">
        <ele>2569</ele>
        <time>2022-08-27T06:21:59Z</time>
      </trkpt>
      <trkpt lat="45.77995" lon="6.91089">
        <ele>2569</ele>
        <time>2022-08-27T06:22:00Z</time>
      </trkpt>
      <trkpt lat="45.77994" lon="6.91093">
        <ele>2569</ele>
        <time>2022-08-27T06:22:01Z</time>
      </trkpt>
      <trkpt lat="45.77994" lon="6.91098">
        <ele>2569</ele>
        <time>2022-08-27T06:22:02Z</time>
      </trkpt>
      <trkpt lat="45.77994" lon="6.91099">
        <ele>2569</ele>
        <time>2022-08-27T06:22:03Z</time>
      </trkpt>
      <trkpt lat="45.77996" lon="6.91104">
        <ele>2569</ele>
        <time>2022-08-27T06:22:05Z</time>
      </trkpt>
      <trkpt lat="45.77999" lon="6.91107">
        <ele>2568</ele>
        <time>2022-08-27T06:22:07Z</time>
      </trkpt>
      <trkpt lat="45.78001" lon="6.91108">
        <ele>2568</ele>
        <time>2022-08-27T06:22:08Z</time>
      </trkpt>
      <trkpt lat="45.78003" lon="6.91109">
        <ele>2568</ele>
        <time>2022-08-27T06:22:09Z</time>
      </trkpt>
      <trkpt lat="45.78005" lon="6.9111">
        <ele>2568</ele>
        <time>2022-08-27T06:22:10Z</time>
      </trkpt>
      <trkpt lat="45.78007" lon="6.9111">
        <ele>2568</ele>
        <time>2022-08-27T06:22:11Z</time>
      </trkpt>
      <trkpt lat="45.78009" lon="6.91111">
        <ele>2568</ele>
        <time>2022-08-27T06:22:12Z</time>
      </trkpt>
      <trkpt lat="45.78011" lon="6.91112">
        <ele>2568</ele>
        <time>2022-08-27T06:22:13Z</time>
      </trkpt>
      <trkpt lat="45.78015" lon="6.91114">
        <ele>2568</ele>
        <time>2022-08-27T06:22:15Z</time>
      </trkpt>
      <trkpt lat="45.78016" lon="6.91115">
        <ele>2568</ele>
        <time>2022-08-27T06:22:16Z</time>
      </trkpt>
      <trkpt lat="45.78018" lon="6.91116">
        <ele>2568</ele>
        <time>2022-08-27T06:22:17Z</time>
      </trkpt>
      <trkpt lat="45.7802" lon="6.91118">
        <ele>2568</ele>
        <time>2022-08-27T06:22:18Z</time>
      </trkpt>
      <trkpt lat="45.78021" lon="6.91119">
        <ele>2568</ele>
        <time>2022-08-27T06:22:19Z</time>
      </trkpt>
      <trkpt lat="45.78023" lon="6.91121">
        <ele>2568</ele>
        <time>2022-08-27T06:22:20Z</time>
      </trkpt>
      <trkpt lat="45.78024" lon="6.91123">
        <ele>2568</ele>
        <time>2022-08-27T06:22:21Z</time>
      </trkpt>
      <trkpt lat="45.78025" lon="6.91125">
        <ele>2568</ele>
        <time>2022-08-27T06:22:22Z</time>
      </trkpt>
      <trkpt lat="45.78025" lon="6.91128">
        <ele>2568</ele>
        <time>2022-08-27T06:22:23Z</time>
      </trkpt>
      <trkpt lat="45.78026" lon="6.91131">
        <ele>2567</ele>
        <time>2022-08-27T06:22:24Z</time>
      </trkpt>
      <trkpt lat="45.78026" lon="6.91136">
        <ele>2567</ele>
        <time>2022-08-27T06:22:25Z</time>
      </trkpt>
      <trkpt lat="45.78027" lon="6.91137">
        <ele>2566</ele>
        <time>2022-08-27T06:22:26Z</time>
      </trkpt>
      <trkpt lat="45.78028" lon="6.9114">
        <ele>2566</ele>
        <time>2022-08-27T06:22:27Z</time>
      </trkpt>
      <trkpt lat="45.7803" lon="6.91145">
        <ele>2565</ele>
        <time>2022-08-27T06:22:29Z</time>
      </trkpt>
      <trkpt lat="45.78032" lon="6.91147">
        <ele>2565</ele>
        <time>2022-08-27T06:22:30Z</time>
      </trkpt>
      <trkpt lat="45.78033" lon="6.9115">
        <ele>2565</ele>
        <time>2022-08-27T06:22:31Z</time>
      </trkpt>
      <trkpt lat="45.78034" lon="6.91152">
        <ele>2565</ele>
        <time>2022-08-27T06:22:32Z</time>
      </trkpt>
      <trkpt lat="45.78035" lon="6.91155">
        <ele>2565</ele>
        <time>2022-08-27T06:22:33Z</time>
      </trkpt>
      <trkpt lat="45.78037" lon="6.91158">
        <ele>2564</ele>
        <time>2022-08-27T06:22:34Z</time>
      </trkpt>
      <trkpt lat="45.78038" lon="6.9116">
        <ele>2564</ele>
        <time>2022-08-27T06:22:35Z</time>
      </trkpt>
      <trkpt lat="45.78039" lon="6.91163">
        <ele>2564</ele>
        <time>2022-08-27T06:22:36Z</time>
      </trkpt>
      <trkpt lat="45.7804" lon="6.91166">
        <ele>2564</ele>
        <time>2022-08-27T06:22:37Z</time>
      </trkpt>
      <trkpt lat="45.78041" lon="6.91168">
        <ele>2563</ele>
        <time>2022-08-27T06:22:38Z</time>
      </trkpt>
      <trkpt lat="45.78043" lon="6.91169">
        <ele>2563</ele>
        <time>2022-08-27T06:22:39Z</time>
      </trkpt>
      <trkpt lat="45.78046" lon="6.9117">
        <ele>2563</ele>
        <time>2022-08-27T06:22:41Z</time>
      </trkpt>
      <trkpt lat="45.7805" lon="6.9117">
        <ele>2562</ele>
        <time>2022-08-27T06:22:43Z</time>
      </trkpt>
      <trkpt lat="45.78052" lon="6.91171">
        <ele>2562</ele>
        <time>2022-08-27T06:22:45Z</time>
      </trkpt>
      <trkpt lat="45.78055" lon="6.9117">
        <ele>2562</ele>
        <time>2022-08-27T06:22:46Z</time>
      </trkpt>
      <trkpt lat="45.78058" lon="6.91169">
        <ele>2562</ele>
        <time>2022-08-27T06:22:48Z</time>
      </trkpt>
      <trkpt lat="45.78061" lon="6.91168">
        <ele>2562</ele>
        <time>2022-08-27T06:22:50Z</time>
      </trkpt>
      <trkpt lat="45.78064" lon="6.91168">
        <ele>2562</ele>
        <time>2022-08-27T06:22:52Z</time>
      </trkpt>
      <trkpt lat="45.78067" lon="6.91168">
        <ele>2562</ele>
        <time>2022-08-27T06:22:54Z</time>
      </trkpt>
      <trkpt lat="45.78069" lon="6.91169">
        <ele>2562</ele>
        <time>2022-08-27T06:22:56Z</time>
      </trkpt>
      <trkpt lat="45.78072" lon="6.91169">
        <ele>2562</ele>
        <time>2022-08-27T06:22:58Z</time>
      </trkpt>
      <trkpt lat="45.78074" lon="6.91169">
        <ele>2563</ele>
        <time>2022-08-27T06:23:00Z</time>
      </trkpt>
      <trkpt lat="45.78077" lon="6.91169">
        <ele>2563</ele>
        <time>2022-08-27T06:23:03Z</time>
      </trkpt>
      <trkpt lat="45.7808" lon="6.91168">
        <ele>2562</ele>
        <time>2022-08-27T06:23:04Z</time>
      </trkpt>
      <trkpt lat="45.78083" lon="6.91168">
        <ele>2562</ele>
        <time>2022-08-27T06:23:06Z</time>
      </trkpt>
      <trkpt lat="45.78086" lon="6.91168">
        <ele>2562</ele>
        <time>2022-08-27T06:23:08Z</time>
      </trkpt>
      <trkpt lat="45.78088" lon="6.91169">
        <ele>2562</ele>
        <time>2022-08-27T06:23:10Z</time>
      </trkpt>
      <trkpt lat="45.78091" lon="6.91171">
        <ele>2562</ele>
        <time>2022-08-27T06:23:12Z</time>
      </trkpt>
      <trkpt lat="45.78093" lon="6.91173">
        <ele>2563</ele>
        <time>2022-08-27T06:23:14Z</time>
      </trkpt>
      <trkpt lat="45.78095" lon="6.91175">
        <ele>2563</ele>
        <time>2022-08-27T06:23:16Z</time>
      </trkpt>
      <trkpt lat="45.78098" lon="6.91177">
        <ele>2563</ele>
        <time>2022-08-27T06:23:18Z</time>
      </trkpt>
      <trkpt lat="45.781" lon="6.9118">
        <ele>2563</ele>
        <time>2022-08-27T06:23:21Z</time>
      </trkpt>
      <trkpt lat="45.78102" lon="6.91183">
        <ele>2563</ele>
        <time>2022-08-27T06:23:22Z</time>
      </trkpt>
      <trkpt lat="45.78103" lon="6.91188">
        <ele>2560</ele>
        <time>2022-08-27T06:23:24Z</time>
      </trkpt>
      <trkpt lat="45.78103" lon="6.91192">
        <ele>2560</ele>
        <time>2022-08-27T06:23:26Z</time>
      </trkpt>
      <trkpt lat="45.78103" lon="6.91196">
        <ele>2560</ele>
        <time>2022-08-27T06:23:28Z</time>
      </trkpt>
      <trkpt lat="45.78102" lon="6.91199">
        <ele>2559</ele>
        <time>2022-08-27T06:23:29Z</time>
      </trkpt>
      <trkpt lat="45.78102" lon="6.91203">
        <ele>2557</ele>
        <time>2022-08-27T06:23:31Z</time>
      </trkpt>
      <trkpt lat="45.78101" lon="6.91208">
        <ele>2556</ele>
        <time>2022-08-27T06:23:33Z</time>
      </trkpt>
      <trkpt lat="45.78101" lon="6.91211">
        <ele>2556</ele>
        <time>2022-08-27T06:23:34Z</time>
      </trkpt>
      <trkpt lat="45.78101" lon="6.91214">
        <ele>2556</ele>
        <time>2022-08-27T06:23:35Z</time>
      </trkpt>
      <trkpt lat="45.781" lon="6.91218">
        <ele>2556</ele>
        <time>2022-08-27T06:23:36Z</time>
      </trkpt>
      <trkpt lat="45.781" lon="6.9122">
        <ele>2555</ele>
        <time>2022-08-27T06:23:37Z</time>
      </trkpt>
      <trkpt lat="45.781" lon="6.91222">
        <ele>2554</ele>
        <time>2022-08-27T06:23:38Z</time>
      </trkpt>
      <trkpt lat="45.781" lon="6.91225">
        <ele>2554</ele>
        <time>2022-08-27T06:23:39Z</time>
      </trkpt>
      <trkpt lat="45.78099" lon="6.91227">
        <ele>2553</ele>
        <time>2022-08-27T06:23:40Z</time>
      </trkpt>
      <trkpt lat="45.78099" lon="6.9123">
        <ele>2553</ele>
        <time>2022-08-27T06:23:41Z</time>
      </trkpt>
      <trkpt lat="45.78098" lon="6.91233">
        <ele>2552</ele>
        <time>2022-08-27T06:23:42Z</time>
      </trkpt>
      <trkpt lat="45.78098" lon="6.91236">
        <ele>2552</ele>
        <time>2022-08-27T06:23:43Z</time>
      </trkpt>
      <trkpt lat="45.78098" lon="6.91239">
        <ele>2552</ele>
        <time>2022-08-27T06:23:44Z</time>
      </trkpt>
      <trkpt lat="45.78097" lon="6.91241">
        <ele>2551</ele>
        <time>2022-08-27T06:23:45Z</time>
      </trkpt>
      <trkpt lat="45.78096" lon="6.91244">
        <ele>2551</ele>
        <time>2022-08-27T06:23:46Z</time>
      </trkpt>
      <trkpt lat="45.78095" lon="6.91247">
        <ele>2551</ele>
        <time>2022-08-27T06:23:47Z</time>
      </trkpt>
      <trkpt lat="45.78095" lon="6.91251">
        <ele>2551</ele>
        <time>2022-08-27T06:23:48Z</time>
      </trkpt>
      <trkpt lat="45.78095" lon="6.91253">
        <ele>2549</ele>
        <time>2022-08-27T06:23:49Z</time>
      </trkpt>
      <trkpt lat="45.78094" lon="6.91256">
        <ele>2549</ele>
        <time>2022-08-27T06:23:50Z</time>
      </trkpt>
      <trkpt lat="45.78093" lon="6.91262">
        <ele>2549</ele>
        <time>2022-08-27T06:23:51Z</time>
      </trkpt>
      <trkpt lat="45.78092" lon="6.91263">
        <ele>2548</ele>
        <time>2022-08-27T06:23:52Z</time>
      </trkpt>
      <trkpt lat="45.78092" lon="6.91267">
        <ele>2548</ele>
        <time>2022-08-27T06:23:53Z</time>
      </trkpt>
      <trkpt lat="45.78092" lon="6.91271">
        <ele>2548</ele>
        <time>2022-08-27T06:23:54Z</time>
      </trkpt>
      <trkpt lat="45.78092" lon="6.91275">
        <ele>2547</ele>
        <time>2022-08-27T06:23:55Z</time>
      </trkpt>
      <trkpt lat="45.78093" lon="6.9128">
        <ele>2547</ele>
        <time>2022-08-27T06:23:56Z</time>
      </trkpt>
      <trkpt lat="45.78093" lon="6.91282">
        <ele>2547</ele>
        <time>2022-08-27T06:23:57Z</time>
      </trkpt>
      <trkpt lat="45.78093" lon="6.91285">
        <ele>2547</ele>
        <time>2022-08-27T06:23:58Z</time>
      </trkpt>
      <trkpt lat="45.78094" lon="6.91288">
        <ele>2547</ele>
        <time>2022-08-27T06:23:59Z</time>
      </trkpt>
      <trkpt lat="45.78095" lon="6.91292">
        <ele>2547</ele>
        <time>2022-08-27T06:24:00Z</time>
      </trkpt>
      <trkpt lat="45.78095" lon="6.91295">
        <ele>2547</ele>
        <time>2022-08-27T06:24:01Z</time>
      </trkpt>
      <trkpt lat="45.78096" lon="6.91298">
        <ele>2545</ele>
        <time>2022-08-27T06:24:02Z</time>
      </trkpt>
      <trkpt lat="45.78097" lon="6.91301">
        <ele>2547</ele>
        <time>2022-08-27T06:24:03Z</time>
      </trkpt>
      <trkpt lat="45.78097" lon="6.91304">
        <ele>2547</ele>
        <time>2022-08-27T06:24:04Z</time>
      </trkpt>
      <trkpt lat="45.78098" lon="6.91306">
        <ele>2547</ele>
        <time>2022-08-27T06:24:05Z</time>
      </trkpt>
      <trkpt lat="45.78098" lon="6.91309">
        <ele>2547</ele>
        <time>2022-08-27T06:24:06Z</time>
      </trkpt>
      <trkpt lat="45.78099" lon="6.91312">
        <ele>2547</ele>
        <time>2022-08-27T06:24:07Z</time>
      </trkpt>
      <trkpt lat="45.781" lon="6.91315">
        <ele>2547</ele>
        <time>2022-08-27T06:24:08Z</time>
      </trkpt>
      <trkpt lat="45.78102" lon="6.91321">
        <ele>2547</ele>
        <time>2022-08-27T06:24:10Z</time>
      </trkpt>
      <trkpt lat="45.78103" lon="6.91323">
        <ele>2547</ele>
        <time>2022-08-27T06:24:11Z</time>
      </trkpt>
      <trkpt lat="45.78105" lon="6.91328">
        <ele>2547</ele>
        <time>2022-08-27T06:24:12Z</time>
      </trkpt>
      <trkpt lat="45.78105" lon="6.91329">
        <ele>2547</ele>
        <time>2022-08-27T06:24:13Z</time>
      </trkpt>
      <trkpt lat="45.78107" lon="6.91335">
        <ele>2545</ele>
        <time>2022-08-27T06:24:15Z</time>
      </trkpt>
      <trkpt lat="45.78108" lon="6.91338">
        <ele>2545</ele>
        <time>2022-08-27T06:24:16Z</time>
      </trkpt>
      <trkpt lat="45.78109" lon="6.91341">
        <ele>2545</ele>
        <time>2022-08-27T06:24:17Z</time>
      </trkpt>
      <trkpt lat="45.7811" lon="6.91343">
        <ele>2545</ele>
        <time>2022-08-27T06:24:18Z</time>
      </trkpt>
      <trkpt lat="45.7811" lon="6.91345">
        <ele>2545</ele>
        <time>2022-08-27T06:24:19Z</time>
      </trkpt>
      <trkpt lat="45.78112" lon="6.9135">
        <ele>2544</ele>
        <time>2022-08-27T06:24:21Z</time>
      </trkpt>
      <trkpt lat="45.78114" lon="6.91356">
        <ele>2544</ele>
        <time>2022-08-27T06:24:23Z</time>
      </trkpt>
      <trkpt lat="45.78114" lon="6.91357">
        <ele>2544</ele>
        <time>2022-08-27T06:24:24Z</time>
      </trkpt>
      <trkpt lat="45.78115" lon="6.9136">
        <ele>2545</ele>
        <time>2022-08-27T06:24:25Z</time>
      </trkpt>
      <trkpt lat="45.78117" lon="6.91364">
        <ele>2544</ele>
        <time>2022-08-27T06:24:27Z</time>
      </trkpt>
      <trkpt lat="45.78119" lon="6.91367">
        <ele>2544</ele>
        <time>2022-08-27T06:24:28Z</time>
      </trkpt>
      <trkpt lat="45.78119" lon="6.91368">
        <ele>2544</ele>
        <time>2022-08-27T06:24:29Z</time>
      </trkpt>
      <trkpt lat="45.78121" lon="6.91371">
        <ele>2544</ele>
        <time>2022-08-27T06:24:30Z</time>
      </trkpt>
      <trkpt lat="45.78122" lon="6.91374">
        <ele>2544</ele>
        <time>2022-08-27T06:24:31Z</time>
      </trkpt>
      <trkpt lat="45.78123" lon="6.91376">
        <ele>2544</ele>
        <time>2022-08-27T06:24:32Z</time>
      </trkpt>
      <trkpt lat="45.78124" lon="6.91379">
        <ele>2544</ele>
        <time>2022-08-27T06:24:34Z</time>
      </trkpt>
      <trkpt lat="45.78126" lon="6.91383">
        <ele>2544</ele>
        <time>2022-08-27T06:24:35Z</time>
      </trkpt>
      <trkpt lat="45.78128" lon="6.91387">
        <ele>2544</ele>
        <time>2022-08-27T06:24:36Z</time>
      </trkpt>
      <trkpt lat="45.78129" lon="6.91388">
        <ele>2544</ele>
        <time>2022-08-27T06:24:37Z</time>
      </trkpt>
      <trkpt lat="45.78131" lon="6.91394">
        <ele>2543</ele>
        <time>2022-08-27T06:24:39Z</time>
      </trkpt>
      <trkpt lat="45.78132" lon="6.91397">
        <ele>2543</ele>
        <time>2022-08-27T06:24:40Z</time>
      </trkpt>
      <trkpt lat="45.78134" lon="6.91402">
        <ele>2544</ele>
        <time>2022-08-27T06:24:42Z</time>
      </trkpt>
      <trkpt lat="45.78135" lon="6.91405">
        <ele>2544</ele>
        <time>2022-08-27T06:24:43Z</time>
      </trkpt>
      <trkpt lat="45.78136" lon="6.91407">
        <ele>2543</ele>
        <time>2022-08-27T06:24:44Z</time>
      </trkpt>
      <trkpt lat="45.78138" lon="6.91411">
        <ele>2543</ele>
        <time>2022-08-27T06:24:45Z</time>
      </trkpt>
      <trkpt lat="45.78138" lon="6.91413">
        <ele>2543</ele>
        <time>2022-08-27T06:24:46Z</time>
      </trkpt>
      <trkpt lat="45.7814" lon="6.91417">
        <ele>2543</ele>
        <time>2022-08-27T06:24:47Z</time>
      </trkpt>
      <trkpt lat="45.7814" lon="6.91418">
        <ele>2542</ele>
        <time>2022-08-27T06:24:48Z</time>
      </trkpt>
      <trkpt lat="45.78142" lon="6.9142">
        <ele>2542</ele>
        <time>2022-08-27T06:24:49Z</time>
      </trkpt>
      <trkpt lat="45.78143" lon="6.91422">
        <ele>2542</ele>
        <time>2022-08-27T06:24:50Z</time>
      </trkpt>
      <trkpt lat="45.78145" lon="6.91425">
        <ele>2542</ele>
        <time>2022-08-27T06:24:51Z</time>
      </trkpt>
      <trkpt lat="45.78148" lon="6.9143">
        <ele>2542</ele>
        <time>2022-08-27T06:24:53Z</time>
      </trkpt>
      <trkpt lat="45.78149" lon="6.91432">
        <ele>2542</ele>
        <time>2022-08-27T06:24:54Z</time>
      </trkpt>
      <trkpt lat="45.78151" lon="6.91435">
        <ele>2542</ele>
        <time>2022-08-27T06:24:55Z</time>
      </trkpt>
      <trkpt lat="45.78152" lon="6.91436">
        <ele>2541</ele>
        <time>2022-08-27T06:24:56Z</time>
      </trkpt>
      <trkpt lat="45.78154" lon="6.91441">
        <ele>2541</ele>
        <time>2022-08-27T06:24:58Z</time>
      </trkpt>
      <trkpt lat="45.78156" lon="6.91443">
        <ele>2541</ele>
        <time>2022-08-27T06:24:59Z</time>
      </trkpt>
      <trkpt lat="45.78158" lon="6.91446">
        <ele>2540</ele>
        <time>2022-08-27T06:25:01Z</time>
      </trkpt>
      <trkpt lat="45.7816" lon="6.91448">
        <ele>2540</ele>
        <time>2022-08-27T06:25:02Z</time>
      </trkpt>
      <trkpt lat="45.78162" lon="6.91449">
        <ele>2539</ele>
        <time>2022-08-27T06:25:03Z</time>
      </trkpt>
      <trkpt lat="45.78165" lon="6.91453">
        <ele>2539</ele>
        <time>2022-08-27T06:25:04Z</time>
      </trkpt>
      <trkpt lat="45.78166" lon="6.91455">
        <ele>2539</ele>
        <time>2022-08-27T06:25:05Z</time>
      </trkpt>
      <trkpt lat="45.78167" lon="6.91457">
        <ele>2539</ele>
        <time>2022-08-27T06:25:06Z</time>
      </trkpt>
      <trkpt lat="45.78168" lon="6.9146">
        <ele>2539</ele>
        <time>2022-08-27T06:25:07Z</time>
      </trkpt>
      <trkpt lat="45.7817" lon="6.91462">
        <ele>2539</ele>
        <time>2022-08-27T06:25:08Z</time>
      </trkpt>
      <trkpt lat="45.78171" lon="6.91464">
        <ele>2539</ele>
        <time>2022-08-27T06:25:09Z</time>
      </trkpt>
      <trkpt lat="45.78174" lon="6.91467">
        <ele>2539</ele>
        <time>2022-08-27T06:25:10Z</time>
      </trkpt>
      <trkpt lat="45.78175" lon="6.91468">
        <ele>2539</ele>
        <time>2022-08-27T06:25:11Z</time>
      </trkpt>
      <trkpt lat="45.78176" lon="6.9147">
        <ele>2538</ele>
        <time>2022-08-27T06:25:12Z</time>
      </trkpt>
      <trkpt lat="45.78178" lon="6.91472">
        <ele>2538</ele>
        <time>2022-08-27T06:25:13Z</time>
      </trkpt>
      <trkpt lat="45.7818" lon="6.91475">
        <ele>2538</ele>
        <time>2022-08-27T06:25:14Z</time>
      </trkpt>
      <trkpt lat="45.78181" lon="6.91476">
        <ele>2538</ele>
        <time>2022-08-27T06:25:15Z</time>
      </trkpt>
      <trkpt lat="45.78183" lon="6.91478">
        <ele>2537</ele>
        <time>2022-08-27T06:25:16Z</time>
      </trkpt>
      <trkpt lat="45.78185" lon="6.9148">
        <ele>2536</ele>
        <time>2022-08-27T06:25:17Z</time>
      </trkpt>
      <trkpt lat="45.78187" lon="6.91483">
        <ele>2536</ele>
        <time>2022-08-27T06:25:18Z</time>
      </trkpt>
      <trkpt lat="45.78188" lon="6.91484">
        <ele>2536</ele>
        <time>2022-08-27T06:25:19Z</time>
      </trkpt>
      <trkpt lat="45.7819" lon="6.91485">
        <ele>2536</ele>
        <time>2022-08-27T06:25:20Z</time>
      </trkpt>
      <trkpt lat="45.78191" lon="6.91487">
        <ele>2535</ele>
        <time>2022-08-27T06:25:21Z</time>
      </trkpt>
      <trkpt lat="45.78193" lon="6.9149">
        <ele>2535</ele>
        <time>2022-08-27T06:25:22Z</time>
      </trkpt>
      <trkpt lat="45.78196" lon="6.91492">
        <ele>2535</ele>
        <time>2022-08-27T06:25:23Z</time>
      </trkpt>
      <trkpt lat="45.78197" lon="6.91493">
        <ele>2535</ele>
        <time>2022-08-27T06:25:24Z</time>
      </trkpt>
      <trkpt lat="45.78198" lon="6.91494">
        <ele>2535</ele>
        <time>2022-08-27T06:25:25Z</time>
      </trkpt>
      <trkpt lat="45.78201" lon="6.91497">
        <ele>2535</ele>
        <time>2022-08-27T06:25:27Z</time>
      </trkpt>
      <trkpt lat="45.78203" lon="6.91498">
        <ele>2535</ele>
        <time>2022-08-27T06:25:28Z</time>
      </trkpt>
      <trkpt lat="45.78204" lon="6.915">
        <ele>2535</ele>
        <time>2022-08-27T06:25:29Z</time>
      </trkpt>
      <trkpt lat="45.78206" lon="6.91501">
        <ele>2535</ele>
        <time>2022-08-27T06:25:30Z</time>
      </trkpt>
      <trkpt lat="45.78208" lon="6.91503">
        <ele>2535</ele>
        <time>2022-08-27T06:25:32Z</time>
      </trkpt>
      <trkpt lat="45.78211" lon="6.91505">
        <ele>2535</ele>
        <time>2022-08-27T06:25:34Z</time>
      </trkpt>
      <trkpt lat="45.78213" lon="6.91506">
        <ele>2535</ele>
        <time>2022-08-27T06:25:36Z</time>
      </trkpt>
      <trkpt lat="45.78216" lon="6.91507">
        <ele>2535</ele>
        <time>2022-08-27T06:25:38Z</time>
      </trkpt>
      <trkpt lat="45.78219" lon="6.91508">
        <ele>2535</ele>
        <time>2022-08-27T06:25:40Z</time>
      </trkpt>
      <trkpt lat="45.78222" lon="6.91509">
        <ele>2535</ele>
        <time>2022-08-27T06:25:42Z</time>
      </trkpt>
      <trkpt lat="45.78225" lon="6.91511">
        <ele>2537</ele>
        <time>2022-08-27T06:25:44Z</time>
      </trkpt>
      <trkpt lat="45.78226" lon="6.91511">
        <ele>2537</ele>
        <time>2022-08-27T06:25:45Z</time>
      </trkpt>
      <trkpt lat="45.78231" lon="6.91514">
        <ele>2537</ele>
        <time>2022-08-27T06:25:47Z</time>
      </trkpt>
      <trkpt lat="45.78232" lon="6.91515">
        <ele>2537</ele>
        <time>2022-08-27T06:25:48Z</time>
      </trkpt>
      <trkpt lat="45.78235" lon="6.91518">
        <ele>2535</ele>
        <time>2022-08-27T06:25:50Z</time>
      </trkpt>
      <trkpt lat="45.78236" lon="6.9152">
        <ele>2535</ele>
        <time>2022-08-27T06:25:51Z</time>
      </trkpt>
      <trkpt lat="45.78237" lon="6.91524">
        <ele>2535</ele>
        <time>2022-08-27T06:25:53Z</time>
      </trkpt>
      <trkpt lat="45.78241" lon="6.91526">
        <ele>2535</ele>
        <time>2022-08-27T06:25:55Z</time>
      </trkpt>
      <trkpt lat="45.78243" lon="6.91526">
        <ele>2535</ele>
        <time>2022-08-27T06:25:56Z</time>
      </trkpt>
      <trkpt lat="45.78246" lon="6.91527">
        <ele>2536</ele>
        <time>2022-08-27T06:25:58Z</time>
      </trkpt>
      <trkpt lat="45.78249" lon="6.91527">
        <ele>2536</ele>
        <time>2022-08-27T06:26:00Z</time>
      </trkpt>
      <trkpt lat="45.78253" lon="6.91527">
        <ele>2536</ele>
        <time>2022-08-27T06:26:02Z</time>
      </trkpt>
      <trkpt lat="45.78255" lon="6.91528">
        <ele>2536</ele>
        <time>2022-08-27T06:26:03Z</time>
      </trkpt>
      <trkpt lat="45.78259" lon="6.91533">
        <ele>2536</ele>
        <time>2022-08-27T06:26:05Z</time>
      </trkpt>
      <trkpt lat="45.7826" lon="6.91534">
        <ele>2536</ele>
        <time>2022-08-27T06:26:06Z</time>
      </trkpt>
      <trkpt lat="45.78261" lon="6.91535">
        <ele>2536</ele>
        <time>2022-08-27T06:26:07Z</time>
      </trkpt>
      <trkpt lat="45.78264" lon="6.91537">
        <ele>2536</ele>
        <time>2022-08-27T06:26:08Z</time>
      </trkpt>
      <trkpt lat="45.78265" lon="6.91538">
        <ele>2536</ele>
        <time>2022-08-27T06:26:09Z</time>
      </trkpt>
      <trkpt lat="45.78266" lon="6.91539">
        <ele>2536</ele>
        <time>2022-08-27T06:26:10Z</time>
      </trkpt>
      <trkpt lat="45.78268" lon="6.91541">
        <ele>2536</ele>
        <time>2022-08-27T06:26:11Z</time>
      </trkpt>
      <trkpt lat="45.78269" lon="6.91543">
        <ele>2536</ele>
        <time>2022-08-27T06:26:12Z</time>
      </trkpt>
      <trkpt lat="45.78272" lon="6.91546">
        <ele>2536</ele>
        <time>2022-08-27T06:26:14Z</time>
      </trkpt>
      <trkpt lat="45.78274" lon="6.91548">
        <ele>2536</ele>
        <time>2022-08-27T06:26:15Z</time>
      </trkpt>
      <trkpt lat="45.78275" lon="6.91549">
        <ele>2536</ele>
        <time>2022-08-27T06:26:16Z</time>
      </trkpt>
      <trkpt lat="45.78277" lon="6.91551">
        <ele>2536</ele>
        <time>2022-08-27T06:26:17Z</time>
      </trkpt>
      <trkpt lat="45.78278" lon="6.91552">
        <ele>2536</ele>
        <time>2022-08-27T06:26:18Z</time>
      </trkpt>
      <trkpt lat="45.78279" lon="6.91553">
        <ele>2535</ele>
        <time>2022-08-27T06:26:19Z</time>
      </trkpt>
      <trkpt lat="45.7828" lon="6.91556">
        <ele>2535</ele>
        <time>2022-08-27T06:26:20Z</time>
      </trkpt>
      <trkpt lat="45.78282" lon="6.91558">
        <ele>2535</ele>
        <time>2022-08-27T06:26:21Z</time>
      </trkpt>
      <trkpt lat="45.78283" lon="6.91561">
        <ele>2535</ele>
        <time>2022-08-27T06:26:22Z</time>
      </trkpt>
      <trkpt lat="45.78286" lon="6.91565">
        <ele>2535</ele>
        <time>2022-08-27T06:26:24Z</time>
      </trkpt>
      <trkpt lat="45.78287" lon="6.91567">
        <ele>2535</ele>
        <time>2022-08-27T06:26:25Z</time>
      </trkpt>
      <trkpt lat="45.78288" lon="6.91569">
        <ele>2533</ele>
        <time>2022-08-27T06:26:26Z</time>
      </trkpt>
      <trkpt lat="45.78289" lon="6.91571">
        <ele>2533</ele>
        <time>2022-08-27T06:26:27Z</time>
      </trkpt>
      <trkpt lat="45.78291" lon="6.91574">
        <ele>2533</ele>
        <time>2022-08-27T06:26:28Z</time>
      </trkpt>
      <trkpt lat="45.78292" lon="6.91576">
        <ele>2533</ele>
        <time>2022-08-27T06:26:29Z</time>
      </trkpt>
      <trkpt lat="45.78293" lon="6.91579">
        <ele>2533</ele>
        <time>2022-08-27T06:26:30Z</time>
      </trkpt>
      <trkpt lat="45.78294" lon="6.91581">
        <ele>2533</ele>
        <time>2022-08-27T06:26:31Z</time>
      </trkpt>
      <trkpt lat="45.78297" lon="6.91584">
        <ele>2533</ele>
        <time>2022-08-27T06:26:33Z</time>
      </trkpt>
      <trkpt lat="45.78298" lon="6.91586">
        <ele>2533</ele>
        <time>2022-08-27T06:26:34Z</time>
      </trkpt>
      <trkpt lat="45.783" lon="6.91588">
        <ele>2533</ele>
        <time>2022-08-27T06:26:35Z</time>
      </trkpt>
      <trkpt lat="45.78303" lon="6.91592">
        <ele>2533</ele>
        <time>2022-08-27T06:26:37Z</time>
      </trkpt>
      <trkpt lat="45.78305" lon="6.91595">
        <ele>2533</ele>
        <time>2022-08-27T06:26:39Z</time>
      </trkpt>
      <trkpt lat="45.78307" lon="6.91598">
        <ele>2533</ele>
        <time>2022-08-27T06:26:40Z</time>
      </trkpt>
      <trkpt lat="45.78309" lon="6.91603">
        <ele>2532</ele>
        <time>2022-08-27T06:26:42Z</time>
      </trkpt>
      <trkpt lat="45.7831" lon="6.91606">
        <ele>2533</ele>
        <time>2022-08-27T06:26:43Z</time>
      </trkpt>
      <trkpt lat="45.78312" lon="6.9161">
        <ele>2533</ele>
        <time>2022-08-27T06:26:45Z</time>
      </trkpt>
      <trkpt lat="45.78313" lon="6.91613">
        <ele>2533</ele>
        <time>2022-08-27T06:26:47Z</time>
      </trkpt>
      <trkpt lat="45.78316" lon="6.91614">
        <ele>2533</ele>
        <time>2022-08-27T06:26:49Z</time>
      </trkpt>
      <trkpt lat="45.78319" lon="6.91616">
        <ele>2533</ele>
        <time>2022-08-27T06:26:52Z</time>
      </trkpt>
      <trkpt lat="45.7832" lon="6.91618">
        <ele>2533</ele>
        <time>2022-08-27T06:26:53Z</time>
      </trkpt>
      <trkpt lat="45.78321" lon="6.91623">
        <ele>2532</ele>
        <time>2022-08-27T06:26:55Z</time>
      </trkpt>
      <trkpt lat="45.78321" lon="6.91627">
        <ele>2532</ele>
        <time>2022-08-27T06:26:57Z</time>
      </trkpt>
      <trkpt lat="45.78321" lon="6.9163">
        <ele>2532</ele>
        <time>2022-08-27T06:26:59Z</time>
      </trkpt>
      <trkpt lat="45.7832" lon="6.91632">
        <ele>2533</ele>
        <time>2022-08-27T06:27:01Z</time>
      </trkpt>
      <trkpt lat="45.78321" lon="6.91636">
        <ele>2533</ele>
        <time>2022-08-27T06:27:03Z</time>
      </trkpt>
      <trkpt lat="45.78322" lon="6.91639">
        <ele>2533</ele>
        <time>2022-08-27T06:27:05Z</time>
      </trkpt>
      <trkpt lat="45.78324" lon="6.91642">
        <ele>2533</ele>
        <time>2022-08-27T06:27:07Z</time>
      </trkpt>
      <trkpt lat="45.78326" lon="6.91645">
        <ele>2533</ele>
        <time>2022-08-27T06:27:09Z</time>
      </trkpt>
      <trkpt lat="45.78329" lon="6.91648">
        <ele>2533</ele>
        <time>2022-08-27T06:27:11Z</time>
      </trkpt>
      <trkpt lat="45.78332" lon="6.91651">
        <ele>2533</ele>
        <time>2022-08-27T06:27:13Z</time>
      </trkpt>
      <trkpt lat="45.78333" lon="6.91653">
        <ele>2533</ele>
        <time>2022-08-27T06:27:14Z</time>
      </trkpt>
      <trkpt lat="45.78336" lon="6.91656">
        <ele>2533</ele>
        <time>2022-08-27T06:27:15Z</time>
      </trkpt>
      <trkpt lat="45.78337" lon="6.91657">
        <ele>2533</ele>
        <time>2022-08-27T06:27:16Z</time>
      </trkpt>
      <trkpt lat="45.78339" lon="6.91659">
        <ele>2533</ele>
        <time>2022-08-27T06:27:17Z</time>
      </trkpt>
      <trkpt lat="45.78341" lon="6.9166">
        <ele>2533</ele>
        <time>2022-08-27T06:27:18Z</time>
      </trkpt>
      <trkpt lat="45.78343" lon="6.91662">
        <ele>2532</ele>
        <time>2022-08-27T06:27:19Z</time>
      </trkpt>
      <trkpt lat="45.78346" lon="6.91666">
        <ele>2531</ele>
        <time>2022-08-27T06:27:21Z</time>
      </trkpt>
      <trkpt lat="45.78349" lon="6.91669">
        <ele>2531</ele>
        <time>2022-08-27T06:27:22Z</time>
      </trkpt>
      <trkpt lat="45.7835" lon="6.9167">
        <ele>2532</ele>
        <time>2022-08-27T06:27:23Z</time>
      </trkpt>
      <trkpt lat="45.78351" lon="6.91673">
        <ele>2532</ele>
        <time>2022-08-27T06:27:24Z</time>
      </trkpt>
      <trkpt lat="45.78352" lon="6.91675">
        <ele>2531</ele>
        <time>2022-08-27T06:27:25Z</time>
      </trkpt>
      <trkpt lat="45.78354" lon="6.91677">
        <ele>2531</ele>
        <time>2022-08-27T06:27:26Z</time>
      </trkpt>
      <trkpt lat="45.78355" lon="6.9168">
        <ele>2531</ele>
        <time>2022-08-27T06:27:27Z</time>
      </trkpt>
      <trkpt lat="45.78357" lon="6.91682">
        <ele>2531</ele>
        <time>2022-08-27T06:27:28Z</time>
      </trkpt>
      <trkpt lat="45.78358" lon="6.91684">
        <ele>2531</ele>
        <time>2022-08-27T06:27:29Z</time>
      </trkpt>
      <trkpt lat="45.78359" lon="6.91687">
        <ele>2530</ele>
        <time>2022-08-27T06:27:30Z</time>
      </trkpt>
      <trkpt lat="45.78361" lon="6.91689">
        <ele>2530</ele>
        <time>2022-08-27T06:27:31Z</time>
      </trkpt>
      <trkpt lat="45.78362" lon="6.91692">
        <ele>2530</ele>
        <time>2022-08-27T06:27:32Z</time>
      </trkpt>
      <trkpt lat="45.78363" lon="6.91697">
        <ele>2530</ele>
        <time>2022-08-27T06:27:34Z</time>
      </trkpt>
      <trkpt lat="45.78364" lon="6.917">
        <ele>2530</ele>
        <time>2022-08-27T06:27:35Z</time>
      </trkpt>
      <trkpt lat="45.78365" lon="6.91703">
        <ele>2530</ele>
        <time>2022-08-27T06:27:36Z</time>
      </trkpt>
      <trkpt lat="45.78365" lon="6.91706">
        <ele>2530</ele>
        <time>2022-08-27T06:27:37Z</time>
      </trkpt>
      <trkpt lat="45.78365" lon="6.91709">
        <ele>2530</ele>
        <time>2022-08-27T06:27:38Z</time>
      </trkpt>
      <trkpt lat="45.78367" lon="6.91715">
        <ele>2530</ele>
        <time>2022-08-27T06:27:40Z</time>
      </trkpt>
      <trkpt lat="45.78368" lon="6.91718">
        <ele>2530</ele>
        <time>2022-08-27T06:27:41Z</time>
      </trkpt>
      <trkpt lat="45.78369" lon="6.9172">
        <ele>2530</ele>
        <time>2022-08-27T06:27:42Z</time>
      </trkpt>
      <trkpt lat="45.7837" lon="6.91723">
        <ele>2530</ele>
        <time>2022-08-27T06:27:43Z</time>
      </trkpt>
      <trkpt lat="45.7837" lon="6.91726">
        <ele>2530</ele>
        <time>2022-08-27T06:27:44Z</time>
      </trkpt>
      <trkpt lat="45.78371" lon="6.91729">
        <ele>2530</ele>
        <time>2022-08-27T06:27:46Z</time>
      </trkpt>
      <trkpt lat="45.78372" lon="6.91732">
        <ele>2531</ele>
        <time>2022-08-27T06:27:48Z</time>
      </trkpt>
      <trkpt lat="45.78373" lon="6.91736">
        <ele>2532</ele>
        <time>2022-08-27T06:27:50Z</time>
      </trkpt>
      <trkpt lat="45.78374" lon="6.91739">
        <ele>2532</ele>
        <time>2022-08-27T06:27:52Z</time>
      </trkpt>
      <trkpt lat="45.78375" lon="6.91742">
        <ele>2532</ele>
        <time>2022-08-27T06:27:54Z</time>
      </trkpt>
      <trkpt lat="45.78376" lon="6.91746">
        <ele>2533</ele>
        <time>2022-08-27T06:27:56Z</time>
      </trkpt>
      <trkpt lat="45.78377" lon="6.91749">
        <ele>2533</ele>
        <time>2022-08-27T06:27:57Z</time>
      </trkpt>
      <trkpt lat="45.78378" lon="6.91752">
        <ele>2533</ele>
        <time>2022-08-27T06:27:59Z</time>
      </trkpt>
      <trkpt lat="45.78379" lon="6.91754">
        <ele>2533</ele>
        <time>2022-08-27T06:28:00Z</time>
      </trkpt>
      <trkpt lat="45.7838" lon="6.91759">
        <ele>2533</ele>
        <time>2022-08-27T06:28:02Z</time>
      </trkpt>
      <trkpt lat="45.78381" lon="6.91761">
        <ele>2532</ele>
        <time>2022-08-27T06:28:03Z</time>
      </trkpt>
      <trkpt lat="45.78382" lon="6.91763">
        <ele>2532</ele>
        <time>2022-08-27T06:28:04Z</time>
      </trkpt>
      <trkpt lat="45.78384" lon="6.91767">
        <ele>2532</ele>
        <time>2022-08-27T06:28:06Z</time>
      </trkpt>
      <trkpt lat="45.78385" lon="6.91771">
        <ele>2532</ele>
        <time>2022-08-27T06:28:08Z</time>
      </trkpt>
      <trkpt lat="45.78386" lon="6.91776">
        <ele>2532</ele>
        <time>2022-08-27T06:28:10Z</time>
      </trkpt>
      <trkpt lat="45.78387" lon="6.91779">
        <ele>2532</ele>
        <time>2022-08-27T06:28:12Z</time>
      </trkpt>
      <trkpt lat="45.78388" lon="6.91784">
        <ele>2532</ele>
        <time>2022-08-27T06:28:14Z</time>
      </trkpt>
      <trkpt lat="45.78389" lon="6.91788">
        <ele>2532</ele>
        <time>2022-08-27T06:28:16Z</time>
      </trkpt>
      <trkpt lat="45.78391" lon="6.91791">
        <ele>2532</ele>
        <time>2022-08-27T06:28:18Z</time>
      </trkpt>
      <trkpt lat="45.78392" lon="6.91794">
        <ele>2532</ele>
        <time>2022-08-27T06:28:20Z</time>
      </trkpt>
      <trkpt lat="45.78394" lon="6.91796">
        <ele>2533</ele>
        <time>2022-08-27T06:28:22Z</time>
      </trkpt>
      <trkpt lat="45.78395" lon="6.91799">
        <ele>2533</ele>
        <time>2022-08-27T06:28:25Z</time>
      </trkpt>
      <trkpt lat="45.78395" lon="6.91802">
        <ele>2533</ele>
        <time>2022-08-27T06:28:26Z</time>
      </trkpt>
      <trkpt lat="45.78396" lon="6.91805">
        <ele>2535</ele>
        <time>2022-08-27T06:28:28Z</time>
      </trkpt>
      <trkpt lat="45.78397" lon="6.91808">
        <ele>2535</ele>
        <time>2022-08-27T06:28:30Z</time>
      </trkpt>
      <trkpt lat="45.78399" lon="6.91811">
        <ele>2535</ele>
        <time>2022-08-27T06:28:32Z</time>
      </trkpt>
      <trkpt lat="45.78401" lon="6.91814">
        <ele>2535</ele>
        <time>2022-08-27T06:28:34Z</time>
      </trkpt>
      <trkpt lat="45.78402" lon="6.91818">
        <ele>2535</ele>
        <time>2022-08-27T06:28:36Z</time>
      </trkpt>
      <trkpt lat="45.78402" lon="6.91821">
        <ele>2535</ele>
        <time>2022-08-27T06:28:38Z</time>
      </trkpt>
      <trkpt lat="45.78401" lon="6.91824">
        <ele>2535</ele>
        <time>2022-08-27T06:28:41Z</time>
      </trkpt>
      <trkpt lat="45.78401" lon="6.91824">
        <ele>2536</ele>
        <time>2022-08-27T06:28:59Z</time>
      </trkpt>
      <trkpt lat="45.78401" lon="6.91824">
        <ele>2535</ele>
        <time>2022-08-27T06:29:20Z</time>
      </trkpt>
      <trkpt lat="45.78401" lon="6.91824">
        <ele>2535</ele>
        <time>2022-08-27T06:29:38Z</time>
      </trkpt>
      <trkpt lat="45.78399" lon="6.91824">
        <ele>2535</ele>
        <time>2022-08-27T06:29:45Z</time>
      </trkpt>
      <trkpt lat="45.78399" lon="6.91824">
        <ele>2536</ele>
        <time>2022-08-27T06:30:00Z</time>
      </trkpt>
      <trkpt lat="45.78399" lon="6.91824">
        <ele>2536</ele>
        <time>2022-08-27T06:30:20Z</time>
      </trkpt>
      <trkpt lat="45.78399" lon="6.91824">
        <ele>2537</ele>
        <time>2022-08-27T06:30:38Z</time>
      </trkpt>
      <trkpt lat="45.784" lon="6.91827">
        <ele>2536</ele>
        <time>2022-08-27T06:30:43Z</time>
      </trkpt>
      <trkpt lat="45.78401" lon="6.9183">
        <ele>2536</ele>
        <time>2022-08-27T06:30:45Z</time>
      </trkpt>
      <trkpt lat="45.78402" lon="6.91834">
        <ele>2536</ele>
        <time>2022-08-27T06:30:47Z</time>
      </trkpt>
      <trkpt lat="45.78402" lon="6.91838">
        <ele>2535</ele>
        <time>2022-08-27T06:30:49Z</time>
      </trkpt>
      <trkpt lat="45.78403" lon="6.91841">
        <ele>2535</ele>
        <time>2022-08-27T06:30:52Z</time>
      </trkpt>
      <trkpt lat="45.78404" lon="6.91844">
        <ele>2535</ele>
        <time>2022-08-27T06:30:53Z</time>
      </trkpt>
      <trkpt lat="45.78405" lon="6.91847">
        <ele>2535</ele>
        <time>2022-08-27T06:30:55Z</time>
      </trkpt>
      <trkpt lat="45.78406" lon="6.91851">
        <ele>2531</ele>
        <time>2022-08-27T06:30:58Z</time>
      </trkpt>
      <trkpt lat="45.78408" lon="6.91856">
        <ele>2530</ele>
        <time>2022-08-27T06:31:00Z</time>
      </trkpt>
      <trkpt lat="45.78409" lon="6.9186">
        <ele>2530</ele>
        <time>2022-08-27T06:31:02Z</time>
      </trkpt>
      <trkpt lat="45.7841" lon="6.91864">
        <ele>2530</ele>
        <time>2022-08-27T06:31:03Z</time>
      </trkpt>
      <trkpt lat="45.78413" lon="6.91867">
        <ele>2529</ele>
        <time>2022-08-27T06:31:05Z</time>
      </trkpt>
      <trkpt lat="45.78414" lon="6.91869">
        <ele>2529</ele>
        <time>2022-08-27T06:31:06Z</time>
      </trkpt>
      <trkpt lat="45.78416" lon="6.91872">
        <ele>2529</ele>
        <time>2022-08-27T06:31:08Z</time>
      </trkpt>
      <trkpt lat="45.78418" lon="6.91873">
        <ele>2528</ele>
        <time>2022-08-27T06:31:10Z</time>
      </trkpt>
      <trkpt lat="45.7842" lon="6.91877">
        <ele>2528</ele>
        <time>2022-08-27T06:31:11Z</time>
      </trkpt>
      <trkpt lat="45.78422" lon="6.91881">
        <ele>2526</ele>
        <time>2022-08-27T06:31:13Z</time>
      </trkpt>
      <trkpt lat="45.78424" lon="6.91883">
        <ele>2525</ele>
        <time>2022-08-27T06:31:14Z</time>
      </trkpt>
      <trkpt lat="45.78425" lon="6.91884">
        <ele>2525</ele>
        <time>2022-08-27T06:31:15Z</time>
      </trkpt>
      <trkpt lat="45.78427" lon="6.91886">
        <ele>2525</ele>
        <time>2022-08-27T06:31:16Z</time>
      </trkpt>
      <trkpt lat="45.78429" lon="6.91889">
        <ele>2525</ele>
        <time>2022-08-27T06:31:18Z</time>
      </trkpt>
      <trkpt lat="45.78431" lon="6.91891">
        <ele>2523</ele>
        <time>2022-08-27T06:31:21Z</time>
      </trkpt>
      <trkpt lat="45.78433" lon="6.91894">
        <ele>2522</ele>
        <time>2022-08-27T06:31:23Z</time>
      </trkpt>
      <trkpt lat="45.78436" lon="6.91896">
        <ele>2522</ele>
        <time>2022-08-27T06:31:24Z</time>
      </trkpt>
      <trkpt lat="45.78439" lon="6.919">
        <ele>2520</ele>
        <time>2022-08-27T06:31:26Z</time>
      </trkpt>
      <trkpt lat="45.7844" lon="6.91902">
        <ele>2519</ele>
        <time>2022-08-27T06:31:27Z</time>
      </trkpt>
      <trkpt lat="45.78441" lon="6.91903">
        <ele>2519</ele>
        <time>2022-08-27T06:31:28Z</time>
      </trkpt>
      <trkpt lat="45.78443" lon="6.91905">
        <ele>2519</ele>
        <time>2022-08-27T06:31:29Z</time>
      </trkpt>
      <trkpt lat="45.78444" lon="6.91907">
        <ele>2518</ele>
        <time>2022-08-27T06:31:30Z</time>
      </trkpt>
      <trkpt lat="45.78446" lon="6.91908">
        <ele>2518</ele>
        <time>2022-08-27T06:31:31Z</time>
      </trkpt>
      <trkpt lat="45.78447" lon="6.9191">
        <ele>2517</ele>
        <time>2022-08-27T06:31:32Z</time>
      </trkpt>
      <trkpt lat="45.78449" lon="6.91912">
        <ele>2517</ele>
        <time>2022-08-27T06:31:33Z</time>
      </trkpt>
      <trkpt lat="45.78451" lon="6.91916">
        <ele>2517</ele>
        <time>2022-08-27T06:31:34Z</time>
      </trkpt>
      <trkpt lat="45.78451" lon="6.91917">
        <ele>2517</ele>
        <time>2022-08-27T06:31:35Z</time>
      </trkpt>
      <trkpt lat="45.78452" lon="6.91919">
        <ele>2517</ele>
        <time>2022-08-27T06:31:36Z</time>
      </trkpt>
      <trkpt lat="45.78453" lon="6.91922">
        <ele>2516</ele>
        <time>2022-08-27T06:31:37Z</time>
      </trkpt>
      <trkpt lat="45.78454" lon="6.91924">
        <ele>2515</ele>
        <time>2022-08-27T06:31:38Z</time>
      </trkpt>
      <trkpt lat="45.78455" lon="6.91926">
        <ele>2514</ele>
        <time>2022-08-27T06:31:39Z</time>
      </trkpt>
      <trkpt lat="45.78457" lon="6.91928">
        <ele>2514</ele>
        <time>2022-08-27T06:31:40Z</time>
      </trkpt>
      <trkpt lat="45.78458" lon="6.9193">
        <ele>2514</ele>
        <time>2022-08-27T06:31:41Z</time>
      </trkpt>
      <trkpt lat="45.78459" lon="6.91935">
        <ele>2514</ele>
        <time>2022-08-27T06:31:43Z</time>
      </trkpt>
      <trkpt lat="45.78461" lon="6.91939">
        <ele>2514</ele>
        <time>2022-08-27T06:31:45Z</time>
      </trkpt>
      <trkpt lat="45.78463" lon="6.91943">
        <ele>2513</ele>
        <time>2022-08-27T06:31:47Z</time>
      </trkpt>
      <trkpt lat="45.78466" lon="6.91946">
        <ele>2511</ele>
        <time>2022-08-27T06:31:49Z</time>
      </trkpt>
      <trkpt lat="45.78469" lon="6.91949">
        <ele>2508</ele>
        <time>2022-08-27T06:31:51Z</time>
      </trkpt>
      <trkpt lat="45.78473" lon="6.91951">
        <ele>2508</ele>
        <time>2022-08-27T06:31:54Z</time>
      </trkpt>
      <trkpt lat="45.78476" lon="6.91953">
        <ele>2508</ele>
        <time>2022-08-27T06:31:56Z</time>
      </trkpt>
      <trkpt lat="45.78478" lon="6.91955">
        <ele>2508</ele>
        <time>2022-08-27T06:31:57Z</time>
      </trkpt>
      <trkpt lat="45.78479" lon="6.91956">
        <ele>2507</ele>
        <time>2022-08-27T06:31:58Z</time>
      </trkpt>
      <trkpt lat="45.78481" lon="6.9196">
        <ele>2505</ele>
        <time>2022-08-27T06:32:00Z</time>
      </trkpt>
      <trkpt lat="45.78483" lon="6.91963">
        <ele>2505</ele>
        <time>2022-08-27T06:32:02Z</time>
      </trkpt>
      <trkpt lat="45.78485" lon="6.91966">
        <ele>2505</ele>
        <time>2022-08-27T06:32:04Z</time>
      </trkpt>
      <trkpt lat="45.78487" lon="6.91968">
        <ele>2505</ele>
        <time>2022-08-27T06:32:06Z</time>
      </trkpt>
      <trkpt lat="45.78489" lon="6.91971">
        <ele>2504</ele>
        <time>2022-08-27T06:32:08Z</time>
      </trkpt>
      <trkpt lat="45.7849" lon="6.91973">
        <ele>2504</ele>
        <time>2022-08-27T06:32:10Z</time>
      </trkpt>
      <trkpt lat="45.78492" lon="6.91976">
        <ele>2504</ele>
        <time>2022-08-27T06:32:12Z</time>
      </trkpt>
      <trkpt lat="45.78494" lon="6.91979">
        <ele>2503</ele>
        <time>2022-08-27T06:32:14Z</time>
      </trkpt>
      <trkpt lat="45.78496" lon="6.91982">
        <ele>2503</ele>
        <time>2022-08-27T06:32:16Z</time>
      </trkpt>
      <trkpt lat="45.78497" lon="6.91985">
        <ele>2503</ele>
        <time>2022-08-27T06:32:18Z</time>
      </trkpt>
      <trkpt lat="45.78498" lon="6.91989">
        <ele>2503</ele>
        <time>2022-08-27T06:32:20Z</time>
      </trkpt>
      <trkpt lat="45.785" lon="6.91993">
        <ele>2503</ele>
        <time>2022-08-27T06:32:21Z</time>
      </trkpt>
      <trkpt lat="45.785" lon="6.91994">
        <ele>2503</ele>
        <time>2022-08-27T06:32:22Z</time>
      </trkpt>
      <trkpt lat="45.78501" lon="6.91997">
        <ele>2503</ele>
        <time>2022-08-27T06:32:23Z</time>
      </trkpt>
      <trkpt lat="45.78503" lon="6.92001">
        <ele>2503</ele>
        <time>2022-08-27T06:32:24Z</time>
      </trkpt>
      <trkpt lat="45.78503" lon="6.92002">
        <ele>2502</ele>
        <time>2022-08-27T06:32:25Z</time>
      </trkpt>
      <trkpt lat="45.78504" lon="6.92005">
        <ele>2502</ele>
        <time>2022-08-27T06:32:26Z</time>
      </trkpt>
      <trkpt lat="45.78505" lon="6.92009">
        <ele>2501</ele>
        <time>2022-08-27T06:32:28Z</time>
      </trkpt>
      <trkpt lat="45.78506" lon="6.92012">
        <ele>2500</ele>
        <time>2022-08-27T06:32:30Z</time>
      </trkpt>
      <trkpt lat="45.78508" lon="6.92013">
        <ele>2500</ele>
        <time>2022-08-27T06:32:31Z</time>
      </trkpt>
      <trkpt lat="45.7851" lon="6.92014">
        <ele>2500</ele>
        <time>2022-08-27T06:32:32Z</time>
      </trkpt>
      <trkpt lat="45.78511" lon="6.92016">
        <ele>2500</ele>
        <time>2022-08-27T06:32:33Z</time>
      </trkpt>
      <trkpt lat="45.78513" lon="6.92018">
        <ele>2499</ele>
        <time>2022-08-27T06:32:34Z</time>
      </trkpt>
      <trkpt lat="45.78515" lon="6.9202">
        <ele>2499</ele>
        <time>2022-08-27T06:32:35Z</time>
      </trkpt>
      <trkpt lat="45.78516" lon="6.92023">
        <ele>2499</ele>
        <time>2022-08-27T06:32:36Z</time>
      </trkpt>
      <trkpt lat="45.78517" lon="6.92025">
        <ele>2499</ele>
        <time>2022-08-27T06:32:37Z</time>
      </trkpt>
      <trkpt lat="45.78519" lon="6.92027">
        <ele>2500</ele>
        <time>2022-08-27T06:32:38Z</time>
      </trkpt>
      <trkpt lat="45.7852" lon="6.92031">
        <ele>2500</ele>
        <time>2022-08-27T06:32:40Z</time>
      </trkpt>
      <trkpt lat="45.78522" lon="6.92035">
        <ele>2501</ele>
        <time>2022-08-27T06:32:43Z</time>
      </trkpt>
      <trkpt lat="45.78524" lon="6.92039">
        <ele>2501</ele>
        <time>2022-08-27T06:32:44Z</time>
      </trkpt>
      <trkpt lat="45.78527" lon="6.92043">
        <ele>2501</ele>
        <time>2022-08-27T06:32:46Z</time>
      </trkpt>
      <trkpt lat="45.78528" lon="6.92045">
        <ele>2502</ele>
        <time>2022-08-27T06:32:47Z</time>
      </trkpt>
      <trkpt lat="45.7853" lon="6.9205">
        <ele>2502</ele>
        <time>2022-08-27T06:32:49Z</time>
      </trkpt>
      <trkpt lat="45.78531" lon="6.92052">
        <ele>2502</ele>
        <time>2022-08-27T06:32:50Z</time>
      </trkpt>
      <trkpt lat="45.78532" lon="6.92054">
        <ele>2501</ele>
        <time>2022-08-27T06:32:51Z</time>
      </trkpt>
      <trkpt lat="45.78533" lon="6.92056">
        <ele>2501</ele>
        <time>2022-08-27T06:32:52Z</time>
      </trkpt>
      <trkpt lat="45.78535" lon="6.92058">
        <ele>2501</ele>
        <time>2022-08-27T06:32:53Z</time>
      </trkpt>
      <trkpt lat="45.78536" lon="6.9206">
        <ele>2501</ele>
        <time>2022-08-27T06:32:54Z</time>
      </trkpt>
      <trkpt lat="45.78538" lon="6.92064">
        <ele>2500</ele>
        <time>2022-08-27T06:32:56Z</time>
      </trkpt>
      <trkpt lat="45.7854" lon="6.92067">
        <ele>2500</ele>
        <time>2022-08-27T06:32:57Z</time>
      </trkpt>
      <trkpt lat="45.78541" lon="6.92068">
        <ele>2500</ele>
        <time>2022-08-27T06:32:58Z</time>
      </trkpt>
      <trkpt lat="45.78544" lon="6.92072">
        <ele>2500</ele>
        <time>2022-08-27T06:33:00Z</time>
      </trkpt>
      <trkpt lat="45.78545" lon="6.92073">
        <ele>2500</ele>
        <time>2022-08-27T06:33:01Z</time>
      </trkpt>
      <trkpt lat="45.78546" lon="6.92075">
        <ele>2499</ele>
        <time>2022-08-27T06:33:02Z</time>
      </trkpt>
      <trkpt lat="45.78547" lon="6.92076">
        <ele>2499</ele>
        <time>2022-08-27T06:33:03Z</time>
      </trkpt>
      <trkpt lat="45.78548" lon="6.92077">
        <ele>2499</ele>
        <time>2022-08-27T06:33:04Z</time>
      </trkpt>
      <trkpt lat="45.78551" lon="6.9208">
        <ele>2498</ele>
        <time>2022-08-27T06:33:05Z</time>
      </trkpt>
      <trkpt lat="45.78554" lon="6.92082">
        <ele>2496</ele>
        <time>2022-08-27T06:33:07Z</time>
      </trkpt>
      <trkpt lat="45.78557" lon="6.92083">
        <ele>2496</ele>
        <time>2022-08-27T06:33:09Z</time>
      </trkpt>
      <trkpt lat="45.7856" lon="6.92085">
        <ele>2495</ele>
        <time>2022-08-27T06:33:11Z</time>
      </trkpt>
      <trkpt lat="45.78563" lon="6.92088">
        <ele>2494</ele>
        <time>2022-08-27T06:33:13Z</time>
      </trkpt>
      <trkpt lat="45.78565" lon="6.92089">
        <ele>2493</ele>
        <time>2022-08-27T06:33:15Z</time>
      </trkpt>
      <trkpt lat="45.78568" lon="6.92091">
        <ele>2492</ele>
        <time>2022-08-27T06:33:17Z</time>
      </trkpt>
      <trkpt lat="45.78571" lon="6.92093">
        <ele>2492</ele>
        <time>2022-08-27T06:33:19Z</time>
      </trkpt>
      <trkpt lat="45.78573" lon="6.92094">
        <ele>2491</ele>
        <time>2022-08-27T06:33:20Z</time>
      </trkpt>
      <trkpt lat="45.78574" lon="6.92096">
        <ele>2491</ele>
        <time>2022-08-27T06:33:21Z</time>
      </trkpt>
      <trkpt lat="45.78576" lon="6.92099">
        <ele>2490</ele>
        <time>2022-08-27T06:33:23Z</time>
      </trkpt>
      <trkpt lat="45.78578" lon="6.92102">
        <ele>2489</ele>
        <time>2022-08-27T06:33:25Z</time>
      </trkpt>
      <trkpt lat="45.78581" lon="6.92106">
        <ele>2488</ele>
        <time>2022-08-27T06:33:27Z</time>
      </trkpt>
      <trkpt lat="45.78583" lon="6.9211">
        <ele>2488</ele>
        <time>2022-08-27T06:33:28Z</time>
      </trkpt>
      <trkpt lat="45.78583" lon="6.92111">
        <ele>2488</ele>
        <time>2022-08-27T06:33:29Z</time>
      </trkpt>
      <trkpt lat="45.78585" lon="6.92113">
        <ele>2487</ele>
        <time>2022-08-27T06:33:30Z</time>
      </trkpt>
      <trkpt lat="45.78586" lon="6.92115">
        <ele>2486</ele>
        <time>2022-08-27T06:33:31Z</time>
      </trkpt>
      <trkpt lat="45.78587" lon="6.92118">
        <ele>2486</ele>
        <time>2022-08-27T06:33:32Z</time>
      </trkpt>
      <trkpt lat="45.78588" lon="6.9212">
        <ele>2486</ele>
        <time>2022-08-27T06:33:33Z</time>
      </trkpt>
      <trkpt lat="45.78589" lon="6.92123">
        <ele>2484</ele>
        <time>2022-08-27T06:33:34Z</time>
      </trkpt>
      <trkpt lat="45.7859" lon="6.92127">
        <ele>2483</ele>
        <time>2022-08-27T06:33:37Z</time>
      </trkpt>
      <trkpt lat="45.78591" lon="6.92132">
        <ele>2482</ele>
        <time>2022-08-27T06:33:38Z</time>
      </trkpt>
      <trkpt lat="45.78592" lon="6.92136">
        <ele>2481</ele>
        <time>2022-08-27T06:33:40Z</time>
      </trkpt>
      <trkpt lat="45.78594" lon="6.92141">
        <ele>2481</ele>
        <time>2022-08-27T06:33:42Z</time>
      </trkpt>
      <trkpt lat="45.78595" lon="6.92143">
        <ele>2480</ele>
        <time>2022-08-27T06:33:43Z</time>
      </trkpt>
      <trkpt lat="45.78596" lon="6.92148">
        <ele>2479</ele>
        <time>2022-08-27T06:33:45Z</time>
      </trkpt>
      <trkpt lat="45.78597" lon="6.92153">
        <ele>2479</ele>
        <time>2022-08-27T06:33:47Z</time>
      </trkpt>
      <trkpt lat="45.78598" lon="6.9216">
        <ele>2478</ele>
        <time>2022-08-27T06:33:50Z</time>
      </trkpt>
      <trkpt lat="45.786" lon="6.92163">
        <ele>2476</ele>
        <time>2022-08-27T06:33:52Z</time>
      </trkpt>
      <trkpt lat="45.78601" lon="6.92167">
        <ele>2476</ele>
        <time>2022-08-27T06:33:53Z</time>
      </trkpt>
      <trkpt lat="45.78603" lon="6.92172">
        <ele>2476</ele>
        <time>2022-08-27T06:33:55Z</time>
      </trkpt>
      <trkpt lat="45.78604" lon="6.92174">
        <ele>2476</ele>
        <time>2022-08-27T06:33:56Z</time>
      </trkpt>
      <trkpt lat="45.78605" lon="6.92176">
        <ele>2474</ele>
        <time>2022-08-27T06:33:57Z</time>
      </trkpt>
      <trkpt lat="45.78607" lon="6.92178">
        <ele>2474</ele>
        <time>2022-08-27T06:33:58Z</time>
      </trkpt>
      <trkpt lat="45.78608" lon="6.92181">
        <ele>2474</ele>
        <time>2022-08-27T06:33:59Z</time>
      </trkpt>
      <trkpt lat="45.78609" lon="6.92184">
        <ele>2474</ele>
        <time>2022-08-27T06:34:00Z</time>
      </trkpt>
      <trkpt lat="45.7861" lon="6.92187">
        <ele>2471</ele>
        <time>2022-08-27T06:34:01Z</time>
      </trkpt>
      <trkpt lat="45.78611" lon="6.92192">
        <ele>2471</ele>
        <time>2022-08-27T06:34:02Z</time>
      </trkpt>
      <trkpt lat="45.78611" lon="6.92194">
        <ele>2471</ele>
        <time>2022-08-27T06:34:03Z</time>
      </trkpt>
      <trkpt lat="45.78612" lon="6.922">
        <ele>2471</ele>
        <time>2022-08-27T06:34:05Z</time>
      </trkpt>
      <trkpt lat="45.78613" lon="6.92204">
        <ele>2471</ele>
        <time>2022-08-27T06:34:06Z</time>
      </trkpt>
      <trkpt lat="45.78613" lon="6.92205">
        <ele>2470</ele>
        <time>2022-08-27T06:34:07Z</time>
      </trkpt>
      <trkpt lat="45.78615" lon="6.92211">
        <ele>2469</ele>
        <time>2022-08-27T06:34:09Z</time>
      </trkpt>
      <trkpt lat="45.78615" lon="6.92214">
        <ele>2469</ele>
        <time>2022-08-27T06:34:10Z</time>
      </trkpt>
      <trkpt lat="45.78616" lon="6.92219">
        <ele>2470</ele>
        <time>2022-08-27T06:34:12Z</time>
      </trkpt>
      <trkpt lat="45.78616" lon="6.92223">
        <ele>2470</ele>
        <time>2022-08-27T06:34:14Z</time>
      </trkpt>
      <trkpt lat="45.78618" lon="6.92227">
        <ele>2470</ele>
        <time>2022-08-27T06:34:16Z</time>
      </trkpt>
      <trkpt lat="45.78619" lon="6.92231">
        <ele>2470</ele>
        <time>2022-08-27T06:34:18Z</time>
      </trkpt>
      <trkpt lat="45.78621" lon="6.92235">
        <ele>2470</ele>
        <time>2022-08-27T06:34:20Z</time>
      </trkpt>
      <trkpt lat="45.78622" lon="6.92239">
        <ele>2468</ele>
        <time>2022-08-27T06:34:22Z</time>
      </trkpt>
      <trkpt lat="45.78623" lon="6.92241">
        <ele>2468</ele>
        <time>2022-08-27T06:34:23Z</time>
      </trkpt>
      <trkpt lat="45.78626" lon="6.92248">
        <ele>2467</ele>
        <time>2022-08-27T06:34:26Z</time>
      </trkpt>
      <trkpt lat="45.78627" lon="6.9225">
        <ele>2467</ele>
        <time>2022-08-27T06:34:27Z</time>
      </trkpt>
      <trkpt lat="45.78628" lon="6.92253">
        <ele>2466</ele>
        <time>2022-08-27T06:34:28Z</time>
      </trkpt>
      <trkpt lat="45.78629" lon="6.92255">
        <ele>2465</ele>
        <time>2022-08-27T06:34:29Z</time>
      </trkpt>
      <trkpt lat="45.78631" lon="6.92259">
        <ele>2465</ele>
        <time>2022-08-27T06:34:30Z</time>
      </trkpt>
      <trkpt lat="45.78631" lon="6.9226">
        <ele>2465</ele>
        <time>2022-08-27T06:34:31Z</time>
      </trkpt>
      <trkpt lat="45.78632" lon="6.92262">
        <ele>2465</ele>
        <time>2022-08-27T06:34:32Z</time>
      </trkpt>
      <trkpt lat="45.78635" lon="6.92265">
        <ele>2465</ele>
        <time>2022-08-27T06:34:34Z</time>
      </trkpt>
      <trkpt lat="45.78636" lon="6.92267">
        <ele>2464</ele>
        <time>2022-08-27T06:34:35Z</time>
      </trkpt>
      <trkpt lat="45.78637" lon="6.92269">
        <ele>2464</ele>
        <time>2022-08-27T06:34:36Z</time>
      </trkpt>
      <trkpt lat="45.78638" lon="6.92271">
        <ele>2464</ele>
        <time>2022-08-27T06:34:37Z</time>
      </trkpt>
      <trkpt lat="45.78639" lon="6.92273">
        <ele>2463</ele>
        <time>2022-08-27T06:34:38Z</time>
      </trkpt>
      <trkpt lat="45.7864" lon="6.92275">
        <ele>2462</ele>
        <time>2022-08-27T06:34:39Z</time>
      </trkpt>
      <trkpt lat="45.78642" lon="6.92279">
        <ele>2461</ele>
        <time>2022-08-27T06:34:41Z</time>
      </trkpt>
      <trkpt lat="45.78644" lon="6.92282">
        <ele>2460</ele>
        <time>2022-08-27T06:34:43Z</time>
      </trkpt>
      <trkpt lat="45.78645" lon="6.92287">
        <ele>2459</ele>
        <time>2022-08-27T06:34:45Z</time>
      </trkpt>
      <trkpt lat="45.78647" lon="6.92291">
        <ele>2458</ele>
        <time>2022-08-27T06:34:47Z</time>
      </trkpt>
      <trkpt lat="45.78648" lon="6.92293">
        <ele>2458</ele>
        <time>2022-08-27T06:34:48Z</time>
      </trkpt>
      <trkpt lat="45.78649" lon="6.92296">
        <ele>2457</ele>
        <time>2022-08-27T06:34:49Z</time>
      </trkpt>
      <trkpt lat="45.78651" lon="6.92298">
        <ele>2457</ele>
        <time>2022-08-27T06:34:50Z</time>
      </trkpt>
      <trkpt lat="45.78652" lon="6.92301">
        <ele>2456</ele>
        <time>2022-08-27T06:34:51Z</time>
      </trkpt>
      <trkpt lat="45.78653" lon="6.92303">
        <ele>2456</ele>
        <time>2022-08-27T06:34:52Z</time>
      </trkpt>
      <trkpt lat="45.78654" lon="6.92306">
        <ele>2456</ele>
        <time>2022-08-27T06:34:53Z</time>
      </trkpt>
      <trkpt lat="45.78655" lon="6.9231">
        <ele>2456</ele>
        <time>2022-08-27T06:34:55Z</time>
      </trkpt>
      <trkpt lat="45.78657" lon="6.92314">
        <ele>2453</ele>
        <time>2022-08-27T06:34:57Z</time>
      </trkpt>
      <trkpt lat="45.78658" lon="6.92317">
        <ele>2452</ele>
        <time>2022-08-27T06:34:58Z</time>
      </trkpt>
      <trkpt lat="45.78659" lon="6.92319">
        <ele>2452</ele>
        <time>2022-08-27T06:34:59Z</time>
      </trkpt>
      <trkpt lat="45.78661" lon="6.92324">
        <ele>2452</ele>
        <time>2022-08-27T06:35:01Z</time>
      </trkpt>
      <trkpt lat="45.78662" lon="6.92326">
        <ele>2452</ele>
        <time>2022-08-27T06:35:02Z</time>
      </trkpt>
      <trkpt lat="45.78663" lon="6.92329">
        <ele>2451</ele>
        <time>2022-08-27T06:35:04Z</time>
      </trkpt>
      <trkpt lat="45.78664" lon="6.92332">
        <ele>2451</ele>
        <time>2022-08-27T06:35:05Z</time>
      </trkpt>
      <trkpt lat="45.78666" lon="6.92335">
        <ele>2450</ele>
        <time>2022-08-27T06:35:07Z</time>
      </trkpt>
      <trkpt lat="45.78668" lon="6.92337">
        <ele>2449</ele>
        <time>2022-08-27T06:35:08Z</time>
      </trkpt>
      <trkpt lat="45.7867" lon="6.9234">
        <ele>2449</ele>
        <time>2022-08-27T06:35:10Z</time>
      </trkpt>
      <trkpt lat="45.78672" lon="6.92343">
        <ele>2447</ele>
        <time>2022-08-27T06:35:12Z</time>
      </trkpt>
      <trkpt lat="45.78674" lon="6.92346">
        <ele>2446</ele>
        <time>2022-08-27T06:35:14Z</time>
      </trkpt>
      <trkpt lat="45.78675" lon="6.92343">
        <ele>2444</ele>
        <time>2022-08-27T06:35:17Z</time>
      </trkpt>
      <trkpt lat="45.78677" lon="6.9234">
        <ele>2443</ele>
        <time>2022-08-27T06:35:19Z</time>
      </trkpt>
      <trkpt lat="45.78678" lon="6.92343">
        <ele>2443</ele>
        <time>2022-08-27T06:35:20Z</time>
      </trkpt>
      <trkpt lat="45.7868" lon="6.92345">
        <ele>2443</ele>
        <time>2022-08-27T06:35:22Z</time>
      </trkpt>
      <trkpt lat="45.78682" lon="6.92348">
        <ele>2442</ele>
        <time>2022-08-27T06:35:23Z</time>
      </trkpt>
      <trkpt lat="45.78682" lon="6.9235">
        <ele>2441</ele>
        <time>2022-08-27T06:35:24Z</time>
      </trkpt>
      <trkpt lat="45.78684" lon="6.92352">
        <ele>2441</ele>
        <time>2022-08-27T06:35:25Z</time>
      </trkpt>
      <trkpt lat="45.78685" lon="6.92354">
        <ele>2441</ele>
        <time>2022-08-27T06:35:26Z</time>
      </trkpt>
      <trkpt lat="45.78687" lon="6.92358">
        <ele>2440</ele>
        <time>2022-08-27T06:35:28Z</time>
      </trkpt>
      <trkpt lat="45.78689" lon="6.9236">
        <ele>2440</ele>
        <time>2022-08-27T06:35:29Z</time>
      </trkpt>
      <trkpt lat="45.7869" lon="6.92363">
        <ele>2439</ele>
        <time>2022-08-27T06:35:30Z</time>
      </trkpt>
      <trkpt lat="45.78691" lon="6.92365">
        <ele>2438</ele>
        <time>2022-08-27T06:35:31Z</time>
      </trkpt>
      <trkpt lat="45.78692" lon="6.92368">
        <ele>2438</ele>
        <time>2022-08-27T06:35:32Z</time>
      </trkpt>
      <trkpt lat="45.78693" lon="6.9237">
        <ele>2437</ele>
        <time>2022-08-27T06:35:33Z</time>
      </trkpt>
      <trkpt lat="45.78696" lon="6.92374">
        <ele>2437</ele>
        <time>2022-08-27T06:35:34Z</time>
      </trkpt>
      <trkpt lat="45.78696" lon="6.92376">
        <ele>2435</ele>
        <time>2022-08-27T06:35:35Z</time>
      </trkpt>
      <trkpt lat="45.78697" lon="6.92379">
        <ele>2435</ele>
        <time>2022-08-27T06:35:36Z</time>
      </trkpt>
      <trkpt lat="45.78699" lon="6.92384">
        <ele>2435</ele>
        <time>2022-08-27T06:35:37Z</time>
      </trkpt>
      <trkpt lat="45.787" lon="6.92385">
        <ele>2434</ele>
        <time>2022-08-27T06:35:38Z</time>
      </trkpt>
      <trkpt lat="45.78701" lon="6.9239">
        <ele>2434</ele>
        <time>2022-08-27T06:35:39Z</time>
      </trkpt>
      <trkpt lat="45.78701" lon="6.92391">
        <ele>2433</ele>
        <time>2022-08-27T06:35:40Z</time>
      </trkpt>
      <trkpt lat="45.78702" lon="6.92394">
        <ele>2433</ele>
        <time>2022-08-27T06:35:41Z</time>
      </trkpt>
      <trkpt lat="45.78704" lon="6.92398">
        <ele>2432</ele>
        <time>2022-08-27T06:35:43Z</time>
      </trkpt>
      <trkpt lat="45.78706" lon="6.924">
        <ele>2431</ele>
        <time>2022-08-27T06:35:44Z</time>
      </trkpt>
      <trkpt lat="45.78708" lon="6.92405">
        <ele>2431</ele>
        <time>2022-08-27T06:35:45Z</time>
      </trkpt>
      <trkpt lat="45.78709" lon="6.92406">
        <ele>2431</ele>
        <time>2022-08-27T06:35:46Z</time>
      </trkpt>
      <trkpt lat="45.7871" lon="6.92408">
        <ele>2431</ele>
        <time>2022-08-27T06:35:47Z</time>
      </trkpt>
      <trkpt lat="45.78712" lon="6.92412">
        <ele>2428</ele>
        <time>2022-08-27T06:35:49Z</time>
      </trkpt>
      <trkpt lat="45.78713" lon="6.92416">
        <ele>2428</ele>
        <time>2022-08-27T06:35:51Z</time>
      </trkpt>
      <trkpt lat="45.78716" lon="6.9242">
        <ele>2427</ele>
        <time>2022-08-27T06:35:53Z</time>
      </trkpt>
      <trkpt lat="45.78718" lon="6.92424">
        <ele>2426</ele>
        <time>2022-08-27T06:35:55Z</time>
      </trkpt>
      <trkpt lat="45.78719" lon="6.92426">
        <ele>2425</ele>
        <time>2022-08-27T06:35:56Z</time>
      </trkpt>
      <trkpt lat="45.78721" lon="6.92428">
        <ele>2425</ele>
        <time>2022-08-27T06:35:57Z</time>
      </trkpt>
      <trkpt lat="45.78722" lon="6.92431">
        <ele>2424</ele>
        <time>2022-08-27T06:35:58Z</time>
      </trkpt>
      <trkpt lat="45.78723" lon="6.92434">
        <ele>2424</ele>
        <time>2022-08-27T06:35:59Z</time>
      </trkpt>
      <trkpt lat="45.78724" lon="6.92436">
        <ele>2424</ele>
        <time>2022-08-27T06:36:00Z</time>
      </trkpt>
      <trkpt lat="45.78725" lon="6.92439">
        <ele>2423</ele>
        <time>2022-08-27T06:36:01Z</time>
      </trkpt>
      <trkpt lat="45.78728" lon="6.92442">
        <ele>2423</ele>
        <time>2022-08-27T06:36:03Z</time>
      </trkpt>
      <trkpt lat="45.7873" lon="6.92444">
        <ele>2423</ele>
        <time>2022-08-27T06:36:04Z</time>
      </trkpt>
      <trkpt lat="45.78732" lon="6.92447">
        <ele>2421</ele>
        <time>2022-08-27T06:36:06Z</time>
      </trkpt>
      <trkpt lat="45.78734" lon="6.92449">
        <ele>2420</ele>
        <time>2022-08-27T06:36:07Z</time>
      </trkpt>
      <trkpt lat="45.78735" lon="6.92451">
        <ele>2420</ele>
        <time>2022-08-27T06:36:08Z</time>
      </trkpt>
      <trkpt lat="45.78737" lon="6.92455">
        <ele>2420</ele>
        <time>2022-08-27T06:36:09Z</time>
      </trkpt>
      <trkpt lat="45.78737" lon="6.92456">
        <ele>2420</ele>
        <time>2022-08-27T06:36:10Z</time>
      </trkpt>
      <trkpt lat="45.78739" lon="6.92459">
        <ele>2419</ele>
        <time>2022-08-27T06:36:11Z</time>
      </trkpt>
      <trkpt lat="45.78739" lon="6.92461">
        <ele>2419</ele>
        <time>2022-08-27T06:36:12Z</time>
      </trkpt>
      <trkpt lat="45.78741" lon="6.92464">
        <ele>2419</ele>
        <time>2022-08-27T06:36:13Z</time>
      </trkpt>
      <trkpt lat="45.78743" lon="6.92468">
        <ele>2419</ele>
        <time>2022-08-27T06:36:15Z</time>
      </trkpt>
      <trkpt lat="45.78744" lon="6.92469">
        <ele>2418</ele>
        <time>2022-08-27T06:36:16Z</time>
      </trkpt>
      <trkpt lat="45.78745" lon="6.92472">
        <ele>2418</ele>
        <time>2022-08-27T06:36:17Z</time>
      </trkpt>
      <trkpt lat="45.78746" lon="6.92475">
        <ele>2417</ele>
        <time>2022-08-27T06:36:18Z</time>
      </trkpt>
      <trkpt lat="45.78748" lon="6.92479">
        <ele>2417</ele>
        <time>2022-08-27T06:36:19Z</time>
      </trkpt>
      <trkpt lat="45.78748" lon="6.9248">
        <ele>2416</ele>
        <time>2022-08-27T06:36:20Z</time>
      </trkpt>
      <trkpt lat="45.78749" lon="6.92483">
        <ele>2416</ele>
        <time>2022-08-27T06:36:21Z</time>
      </trkpt>
      <trkpt lat="45.7875" lon="6.92485">
        <ele>2415</ele>
        <time>2022-08-27T06:36:22Z</time>
      </trkpt>
      <trkpt lat="45.78751" lon="6.92488">
        <ele>2415</ele>
        <time>2022-08-27T06:36:23Z</time>
      </trkpt>
      <trkpt lat="45.78754" lon="6.92492">
        <ele>2414</ele>
        <time>2022-08-27T06:36:25Z</time>
      </trkpt>
      <trkpt lat="45.78755" lon="6.92495">
        <ele>2413</ele>
        <time>2022-08-27T06:36:26Z</time>
      </trkpt>
      <trkpt lat="45.78756" lon="6.92497">
        <ele>2413</ele>
        <time>2022-08-27T06:36:27Z</time>
      </trkpt>
      <trkpt lat="45.78757" lon="6.92499">
        <ele>2413</ele>
        <time>2022-08-27T06:36:28Z</time>
      </trkpt>
      <trkpt lat="45.78759" lon="6.92503">
        <ele>2412</ele>
        <time>2022-08-27T06:36:30Z</time>
      </trkpt>
      <trkpt lat="45.78761" lon="6.92508">
        <ele>2411</ele>
        <time>2022-08-27T06:36:32Z</time>
      </trkpt>
      <trkpt lat="45.78763" lon="6.9251">
        <ele>2410</ele>
        <time>2022-08-27T06:36:34Z</time>
      </trkpt>
      <trkpt lat="45.78765" lon="6.92513">
        <ele>2409</ele>
        <time>2022-08-27T06:36:36Z</time>
      </trkpt>
      <trkpt lat="45.78767" lon="6.92514">
        <ele>2409</ele>
        <time>2022-08-27T06:36:37Z</time>
      </trkpt>
      <trkpt lat="45.78769" lon="6.92518">
        <ele>2409</ele>
        <time>2022-08-27T06:36:39Z</time>
      </trkpt>
      <trkpt lat="45.7877" lon="6.92519">
        <ele>2409</ele>
        <time>2022-08-27T06:36:40Z</time>
      </trkpt>
      <trkpt lat="45.78771" lon="6.92521">
        <ele>2406</ele>
        <time>2022-08-27T06:36:41Z</time>
      </trkpt>
      <trkpt lat="45.78775" lon="6.92524">
        <ele>2406</ele>
        <time>2022-08-27T06:36:43Z</time>
      </trkpt>
      <trkpt lat="45.78777" lon="6.92528">
        <ele>2406</ele>
        <time>2022-08-27T06:36:45Z</time>
      </trkpt>
      <trkpt lat="45.78779" lon="6.9253">
        <ele>2406</ele>
        <time>2022-08-27T06:36:46Z</time>
      </trkpt>
      <trkpt lat="45.7878" lon="6.92531">
        <ele>2405</ele>
        <time>2022-08-27T06:36:47Z</time>
      </trkpt>
      <trkpt lat="45.78781" lon="6.92533">
        <ele>2404</ele>
        <time>2022-08-27T06:36:48Z</time>
      </trkpt>
      <trkpt lat="45.78782" lon="6.92534">
        <ele>2402</ele>
        <time>2022-08-27T06:36:49Z</time>
      </trkpt>
      <trkpt lat="45.78784" lon="6.92536">
        <ele>2402</ele>
        <time>2022-08-27T06:36:50Z</time>
      </trkpt>
      <trkpt lat="45.78785" lon="6.92538">
        <ele>2401</ele>
        <time>2022-08-27T06:36:51Z</time>
      </trkpt>
      <trkpt lat="45.78787" lon="6.9254">
        <ele>2401</ele>
        <time>2022-08-27T06:36:52Z</time>
      </trkpt>
      <trkpt lat="45.78788" lon="6.92542">
        <ele>2401</ele>
        <time>2022-08-27T06:36:53Z</time>
      </trkpt>
      <trkpt lat="45.7879" lon="6.92544">
        <ele>2401</ele>
        <time>2022-08-27T06:36:54Z</time>
      </trkpt>
      <trkpt lat="45.78791" lon="6.92546">
        <ele>2401</ele>
        <time>2022-08-27T06:36:55Z</time>
      </trkpt>
      <trkpt lat="45.78792" lon="6.9255">
        <ele>2401</ele>
        <time>2022-08-27T06:36:57Z</time>
      </trkpt>
      <trkpt lat="45.78795" lon="6.92557">
        <ele>2397</ele>
        <time>2022-08-27T06:37:00Z</time>
      </trkpt>
      <trkpt lat="45.78796" lon="6.92559">
        <ele>2397</ele>
        <time>2022-08-27T06:37:01Z</time>
      </trkpt>
      <trkpt lat="45.78797" lon="6.92562">
        <ele>2397</ele>
        <time>2022-08-27T06:37:02Z</time>
      </trkpt>
      <trkpt lat="45.78798" lon="6.92564">
        <ele>2397</ele>
        <time>2022-08-27T06:37:03Z</time>
      </trkpt>
      <trkpt lat="45.788" lon="6.92568">
        <ele>2397</ele>
        <time>2022-08-27T06:37:04Z</time>
      </trkpt>
      <trkpt lat="45.78801" lon="6.9257">
        <ele>2397</ele>
        <time>2022-08-27T06:37:05Z</time>
      </trkpt>
      <trkpt lat="45.78802" lon="6.92573">
        <ele>2397</ele>
        <time>2022-08-27T06:37:06Z</time>
      </trkpt>
      <trkpt lat="45.78804" lon="6.92575">
        <ele>2395</ele>
        <time>2022-08-27T06:37:07Z</time>
      </trkpt>
      <trkpt lat="45.78805" lon="6.92579">
        <ele>2395</ele>
        <time>2022-08-27T06:37:08Z</time>
      </trkpt>
      <trkpt lat="45.78806" lon="6.9258">
        <ele>2394</ele>
        <time>2022-08-27T06:37:09Z</time>
      </trkpt>
      <trkpt lat="45.78808" lon="6.92584">
        <ele>2394</ele>
        <time>2022-08-27T06:37:11Z</time>
      </trkpt>
      <trkpt lat="45.78809" lon="6.92586">
        <ele>2394</ele>
        <time>2022-08-27T06:37:12Z</time>
      </trkpt>
      <trkpt lat="45.78811" lon="6.92592">
        <ele>2393</ele>
        <time>2022-08-27T06:37:14Z</time>
      </trkpt>
      <trkpt lat="45.78812" lon="6.92594">
        <ele>2392</ele>
        <time>2022-08-27T06:37:15Z</time>
      </trkpt>
      <trkpt lat="45.78814" lon="6.92597">
        <ele>2392</ele>
        <time>2022-08-27T06:37:16Z</time>
      </trkpt>
      <trkpt lat="45.78815" lon="6.92598">
        <ele>2392</ele>
        <time>2022-08-27T06:37:17Z</time>
      </trkpt>
      <trkpt lat="45.78819" lon="6.92601">
        <ele>2390</ele>
        <time>2022-08-27T06:37:19Z</time>
      </trkpt>
      <trkpt lat="45.7882" lon="6.92602">
        <ele>2389</ele>
        <time>2022-08-27T06:37:20Z</time>
      </trkpt>
      <trkpt lat="45.78821" lon="6.92603">
        <ele>2389</ele>
        <time>2022-08-27T06:37:21Z</time>
      </trkpt>
      <trkpt lat="45.78822" lon="6.92604">
        <ele>2389</ele>
        <time>2022-08-27T06:37:22Z</time>
      </trkpt>
      <trkpt lat="45.78824" lon="6.92607">
        <ele>2389</ele>
        <time>2022-08-27T06:37:23Z</time>
      </trkpt>
      <trkpt lat="45.78825" lon="6.92608">
        <ele>2388</ele>
        <time>2022-08-27T06:37:24Z</time>
      </trkpt>
      <trkpt lat="45.78826" lon="6.9261">
        <ele>2388</ele>
        <time>2022-08-27T06:37:25Z</time>
      </trkpt>
      <trkpt lat="45.78828" lon="6.92612">
        <ele>2388</ele>
        <time>2022-08-27T06:37:26Z</time>
      </trkpt>
      <trkpt lat="45.78829" lon="6.92614">
        <ele>2387</ele>
        <time>2022-08-27T06:37:27Z</time>
      </trkpt>
      <trkpt lat="45.7883" lon="6.92616">
        <ele>2387</ele>
        <time>2022-08-27T06:37:28Z</time>
      </trkpt>
      <trkpt lat="45.78832" lon="6.92618">
        <ele>2387</ele>
        <time>2022-08-27T06:37:29Z</time>
      </trkpt>
      <trkpt lat="45.78834" lon="6.92621">
        <ele>2387</ele>
        <time>2022-08-27T06:37:30Z</time>
      </trkpt>
      <trkpt lat="45.78835" lon="6.92622">
        <ele>2387</ele>
        <time>2022-08-27T06:37:31Z</time>
      </trkpt>
      <trkpt lat="45.78836" lon="6.92625">
        <ele>2387</ele>
        <time>2022-08-27T06:37:32Z</time>
      </trkpt>
      <trkpt lat="45.78838" lon="6.92627">
        <ele>2387</ele>
        <time>2022-08-27T06:37:33Z</time>
      </trkpt>
      <trkpt lat="45.78839" lon="6.9263">
        <ele>2387</ele>
        <time>2022-08-27T06:37:34Z</time>
      </trkpt>
      <trkpt lat="45.78841" lon="6.92632">
        <ele>2387</ele>
        <time>2022-08-27T06:37:35Z</time>
      </trkpt>
      <trkpt lat="45.78843" lon="6.92634">
        <ele>2386</ele>
        <time>2022-08-27T06:37:36Z</time>
      </trkpt>
      <trkpt lat="45.78845" lon="6.92638">
        <ele>2385</ele>
        <time>2022-08-27T06:37:38Z</time>
      </trkpt>
      <trkpt lat="45.78847" lon="6.9264">
        <ele>2385</ele>
        <time>2022-08-27T06:37:39Z</time>
      </trkpt>
      <trkpt lat="45.7885" lon="6.92644">
        <ele>2384</ele>
        <time>2022-08-27T06:37:41Z</time>
      </trkpt>
      <trkpt lat="45.78852" lon="6.92649">
        <ele>2384</ele>
        <time>2022-08-27T06:37:43Z</time>
      </trkpt>
      <trkpt lat="45.78855" lon="6.92653">
        <ele>2384</ele>
        <time>2022-08-27T06:37:44Z</time>
      </trkpt>
      <trkpt lat="45.78855" lon="6.92654">
        <ele>2383</ele>
        <time>2022-08-27T06:37:45Z</time>
      </trkpt>
      <trkpt lat="45.78857" lon="6.92657">
        <ele>2382</ele>
        <time>2022-08-27T06:37:46Z</time>
      </trkpt>
      <trkpt lat="45.78859" lon="6.92659">
        <ele>2382</ele>
        <time>2022-08-27T06:37:47Z</time>
      </trkpt>
      <trkpt lat="45.78861" lon="6.9266">
        <ele>2382</ele>
        <time>2022-08-27T06:37:48Z</time>
      </trkpt>
      <trkpt lat="45.78862" lon="6.92663">
        <ele>2382</ele>
        <time>2022-08-27T06:37:49Z</time>
      </trkpt>
      <trkpt lat="45.78864" lon="6.92665">
        <ele>2382</ele>
        <time>2022-08-27T06:37:50Z</time>
      </trkpt>
      <trkpt lat="45.78865" lon="6.92667">
        <ele>2382</ele>
        <time>2022-08-27T06:37:51Z</time>
      </trkpt>
      <trkpt lat="45.78867" lon="6.92671">
        <ele>2381</ele>
        <time>2022-08-27T06:37:52Z</time>
      </trkpt>
      <trkpt lat="45.78868" lon="6.92673">
        <ele>2381</ele>
        <time>2022-08-27T06:37:53Z</time>
      </trkpt>
      <trkpt lat="45.78869" lon="6.92675">
        <ele>2380</ele>
        <time>2022-08-27T06:37:55Z</time>
      </trkpt>
      <trkpt lat="45.78871" lon="6.92681">
        <ele>2378</ele>
        <time>2022-08-27T06:37:56Z</time>
      </trkpt>
      <trkpt lat="45.78872" lon="6.92685">
        <ele>2378</ele>
        <time>2022-08-27T06:37:57Z</time>
      </trkpt>
      <trkpt lat="45.78873" lon="6.92686">
        <ele>2376</ele>
        <time>2022-08-27T06:37:58Z</time>
      </trkpt>
      <trkpt lat="45.78874" lon="6.92689">
        <ele>2376</ele>
        <time>2022-08-27T06:37:59Z</time>
      </trkpt>
      <trkpt lat="45.78875" lon="6.92692">
        <ele>2376</ele>
        <time>2022-08-27T06:38:00Z</time>
      </trkpt>
      <trkpt lat="45.78876" lon="6.92695">
        <ele>2376</ele>
        <time>2022-08-27T06:38:01Z</time>
      </trkpt>
      <trkpt lat="45.78878" lon="6.92699">
        <ele>2376</ele>
        <time>2022-08-27T06:38:02Z</time>
      </trkpt>
      <trkpt lat="45.78878" lon="6.92701">
        <ele>2376</ele>
        <time>2022-08-27T06:38:03Z</time>
      </trkpt>
      <trkpt lat="45.78879" lon="6.92703">
        <ele>2376</ele>
        <time>2022-08-27T06:38:04Z</time>
      </trkpt>
      <trkpt lat="45.7888" lon="6.92707">
        <ele>2376</ele>
        <time>2022-08-27T06:38:05Z</time>
      </trkpt>
      <trkpt lat="45.78881" lon="6.9271">
        <ele>2376</ele>
        <time>2022-08-27T06:38:06Z</time>
      </trkpt>
      <trkpt lat="45.78882" lon="6.92716">
        <ele>2375</ele>
        <time>2022-08-27T06:38:08Z</time>
      </trkpt>
      <trkpt lat="45.78883" lon="6.92719">
        <ele>2375</ele>
        <time>2022-08-27T06:38:09Z</time>
      </trkpt>
      <trkpt lat="45.78884" lon="6.92722">
        <ele>2375</ele>
        <time>2022-08-27T06:38:10Z</time>
      </trkpt>
      <trkpt lat="45.78885" lon="6.92724">
        <ele>2375</ele>
        <time>2022-08-27T06:38:11Z</time>
      </trkpt>
      <trkpt lat="45.78887" lon="6.92727">
        <ele>2375</ele>
        <time>2022-08-27T06:38:12Z</time>
      </trkpt>
      <trkpt lat="45.78888" lon="6.9273">
        <ele>2375</ele>
        <time>2022-08-27T06:38:13Z</time>
      </trkpt>
      <trkpt lat="45.78889" lon="6.92732">
        <ele>2375</ele>
        <time>2022-08-27T06:38:14Z</time>
      </trkpt>
      <trkpt lat="45.78891" lon="6.92735">
        <ele>2375</ele>
        <time>2022-08-27T06:38:15Z</time>
      </trkpt>
      <trkpt lat="45.78892" lon="6.92737">
        <ele>2374</ele>
        <time>2022-08-27T06:38:16Z</time>
      </trkpt>
      <trkpt lat="45.78894" lon="6.92739">
        <ele>2374</ele>
        <time>2022-08-27T06:38:17Z</time>
      </trkpt>
      <trkpt lat="45.78899" lon="6.92745">
        <ele>2373</ele>
        <time>2022-08-27T06:38:19Z</time>
      </trkpt>
      <trkpt lat="45.789" lon="6.92746">
        <ele>2372</ele>
        <time>2022-08-27T06:38:20Z</time>
      </trkpt>
      <trkpt lat="45.78901" lon="6.92749">
        <ele>2372</ele>
        <time>2022-08-27T06:38:21Z</time>
      </trkpt>
      <trkpt lat="45.78903" lon="6.92751">
        <ele>2372</ele>
        <time>2022-08-27T06:38:22Z</time>
      </trkpt>
      <trkpt lat="45.78904" lon="6.92753">
        <ele>2371</ele>
        <time>2022-08-27T06:38:23Z</time>
      </trkpt>
      <trkpt lat="45.78906" lon="6.92755">
        <ele>2371</ele>
        <time>2022-08-27T06:38:24Z</time>
      </trkpt>
      <trkpt lat="45.78907" lon="6.92758">
        <ele>2371</ele>
        <time>2022-08-27T06:38:25Z</time>
      </trkpt>
      <trkpt lat="45.78908" lon="6.9276">
        <ele>2371</ele>
        <time>2022-08-27T06:38:26Z</time>
      </trkpt>
      <trkpt lat="45.78911" lon="6.92764">
        <ele>2371</ele>
        <time>2022-08-27T06:38:27Z</time>
      </trkpt>
      <trkpt lat="45.78911" lon="6.92765">
        <ele>2370</ele>
        <time>2022-08-27T06:38:28Z</time>
      </trkpt>
      <trkpt lat="45.78913" lon="6.92768">
        <ele>2370</ele>
        <time>2022-08-27T06:38:29Z</time>
      </trkpt>
      <trkpt lat="45.78914" lon="6.92771">
        <ele>2369</ele>
        <time>2022-08-27T06:38:30Z</time>
      </trkpt>
      <trkpt lat="45.78915" lon="6.92773">
        <ele>2369</ele>
        <time>2022-08-27T06:38:31Z</time>
      </trkpt>
      <trkpt lat="45.78916" lon="6.92776">
        <ele>2369</ele>
        <time>2022-08-27T06:38:33Z</time>
      </trkpt>
      <trkpt lat="45.78919" lon="6.9278">
        <ele>2368</ele>
        <time>2022-08-27T06:38:34Z</time>
      </trkpt>
      <trkpt lat="45.78921" lon="6.92783">
        <ele>2367</ele>
        <time>2022-08-27T06:38:35Z</time>
      </trkpt>
      <trkpt lat="45.78922" lon="6.92785">
        <ele>2367</ele>
        <time>2022-08-27T06:38:36Z</time>
      </trkpt>
      <trkpt lat="45.78924" lon="6.92789">
        <ele>2367</ele>
        <time>2022-08-27T06:38:37Z</time>
      </trkpt>
      <trkpt lat="45.78925" lon="6.9279">
        <ele>2367</ele>
        <time>2022-08-27T06:38:38Z</time>
      </trkpt>
      <trkpt lat="45.78926" lon="6.92793">
        <ele>2367</ele>
        <time>2022-08-27T06:38:39Z</time>
      </trkpt>
      <trkpt lat="45.78927" lon="6.92795">
        <ele>2367</ele>
        <time>2022-08-27T06:38:40Z</time>
      </trkpt>
      <trkpt lat="45.7893" lon="6.92799">
        <ele>2367</ele>
        <time>2022-08-27T06:38:41Z</time>
      </trkpt>
      <trkpt lat="45.7893" lon="6.928">
        <ele>2367</ele>
        <time>2022-08-27T06:38:42Z</time>
      </trkpt>
      <trkpt lat="45.78932" lon="6.92802">
        <ele>2366</ele>
        <time>2022-08-27T06:38:43Z</time>
      </trkpt>
      <trkpt lat="45.78933" lon="6.92804">
        <ele>2366</ele>
        <time>2022-08-27T06:38:44Z</time>
      </trkpt>
      <trkpt lat="45.78935" lon="6.92806">
        <ele>2366</ele>
        <time>2022-08-27T06:38:45Z</time>
      </trkpt>
      <trkpt lat="45.78936" lon="6.92808">
        <ele>2366</ele>
        <time>2022-08-27T06:38:46Z</time>
      </trkpt>
      <trkpt lat="45.78938" lon="6.9281">
        <ele>2365</ele>
        <time>2022-08-27T06:38:47Z</time>
      </trkpt>
      <trkpt lat="45.78941" lon="6.92813">
        <ele>2365</ele>
        <time>2022-08-27T06:38:49Z</time>
      </trkpt>
      <trkpt lat="45.78945" lon="6.92818">
        <ele>2364</ele>
        <time>2022-08-27T06:38:52Z</time>
      </trkpt>
      <trkpt lat="45.78947" lon="6.92822">
        <ele>2361</ele>
        <time>2022-08-27T06:38:54Z</time>
      </trkpt>
      <trkpt lat="45.78949" lon="6.92823">
        <ele>2361</ele>
        <time>2022-08-27T06:38:55Z</time>
      </trkpt>
      <trkpt lat="45.7895" lon="6.92826">
        <ele>2361</ele>
        <time>2022-08-27T06:38:56Z</time>
      </trkpt>
      <trkpt lat="45.78952" lon="6.92828">
        <ele>2360</ele>
        <time>2022-08-27T06:38:57Z</time>
      </trkpt>
      <trkpt lat="45.78954" lon="6.92832">
        <ele>2360</ele>
        <time>2022-08-27T06:38:58Z</time>
      </trkpt>
      <trkpt lat="45.78955" lon="6.92833">
        <ele>2359</ele>
        <time>2022-08-27T06:38:59Z</time>
      </trkpt>
      <trkpt lat="45.78956" lon="6.92836">
        <ele>2359</ele>
        <time>2022-08-27T06:39:00Z</time>
      </trkpt>
      <trkpt lat="45.78957" lon="6.92838">
        <ele>2359</ele>
        <time>2022-08-27T06:39:01Z</time>
      </trkpt>
      <trkpt lat="45.78958" lon="6.92841">
        <ele>2358</ele>
        <time>2022-08-27T06:39:02Z</time>
      </trkpt>
      <trkpt lat="45.7896" lon="6.92844">
        <ele>2358</ele>
        <time>2022-08-27T06:39:03Z</time>
      </trkpt>
      <trkpt lat="45.78961" lon="6.92846">
        <ele>2358</ele>
        <time>2022-08-27T06:39:04Z</time>
      </trkpt>
      <trkpt lat="45.78963" lon="6.92849">
        <ele>2358</ele>
        <time>2022-08-27T06:39:05Z</time>
      </trkpt>
      <trkpt lat="45.78964" lon="6.9285">
        <ele>2357</ele>
        <time>2022-08-27T06:39:06Z</time>
      </trkpt>
      <trkpt lat="45.78966" lon="6.92853">
        <ele>2357</ele>
        <time>2022-08-27T06:39:07Z</time>
      </trkpt>
      <trkpt lat="45.78968" lon="6.92855">
        <ele>2356</ele>
        <time>2022-08-27T06:39:08Z</time>
      </trkpt>
      <trkpt lat="45.78969" lon="6.92857">
        <ele>2355</ele>
        <time>2022-08-27T06:39:09Z</time>
      </trkpt>
      <trkpt lat="45.78971" lon="6.92861">
        <ele>2355</ele>
        <time>2022-08-27T06:39:10Z</time>
      </trkpt>
      <trkpt lat="45.78972" lon="6.92862">
        <ele>2354</ele>
        <time>2022-08-27T06:39:11Z</time>
      </trkpt>
      <trkpt lat="45.78973" lon="6.92865">
        <ele>2353</ele>
        <time>2022-08-27T06:39:12Z</time>
      </trkpt>
      <trkpt lat="45.78975" lon="6.92868">
        <ele>2352</ele>
        <time>2022-08-27T06:39:13Z</time>
      </trkpt>
      <trkpt lat="45.78976" lon="6.92871">
        <ele>2352</ele>
        <time>2022-08-27T06:39:14Z</time>
      </trkpt>
      <trkpt lat="45.78977" lon="6.92874">
        <ele>2352</ele>
        <time>2022-08-27T06:39:15Z</time>
      </trkpt>
      <trkpt lat="45.78978" lon="6.92877">
        <ele>2352</ele>
        <time>2022-08-27T06:39:16Z</time>
      </trkpt>
      <trkpt lat="45.7898" lon="6.92881">
        <ele>2352</ele>
        <time>2022-08-27T06:39:17Z</time>
      </trkpt>
      <trkpt lat="45.7898" lon="6.92882">
        <ele>2349</ele>
        <time>2022-08-27T06:39:18Z</time>
      </trkpt>
      <trkpt lat="45.78981" lon="6.92885">
        <ele>2349</ele>
        <time>2022-08-27T06:39:19Z</time>
      </trkpt>
      <trkpt lat="45.78982" lon="6.9289">
        <ele>2348</ele>
        <time>2022-08-27T06:39:20Z</time>
      </trkpt>
      <trkpt lat="45.78982" lon="6.92891">
        <ele>2347</ele>
        <time>2022-08-27T06:39:21Z</time>
      </trkpt>
      <trkpt lat="45.78984" lon="6.92896">
        <ele>2347</ele>
        <time>2022-08-27T06:39:22Z</time>
      </trkpt>
      <trkpt lat="45.78985" lon="6.92897">
        <ele>2347</ele>
        <time>2022-08-27T06:39:23Z</time>
      </trkpt>
      <trkpt lat="45.78985" lon="6.92901">
        <ele>2347</ele>
        <time>2022-08-27T06:39:24Z</time>
      </trkpt>
      <trkpt lat="45.78987" lon="6.92905">
        <ele>2347</ele>
        <time>2022-08-27T06:39:25Z</time>
      </trkpt>
      <trkpt lat="45.78987" lon="6.92907">
        <ele>2346</ele>
        <time>2022-08-27T06:39:26Z</time>
      </trkpt>
      <trkpt lat="45.7899" lon="6.92914">
        <ele>2346</ele>
        <time>2022-08-27T06:39:28Z</time>
      </trkpt>
      <trkpt lat="45.7899" lon="6.92915">
        <ele>2346</ele>
        <time>2022-08-27T06:39:29Z</time>
      </trkpt>
      <trkpt lat="45.78991" lon="6.92918">
        <ele>2346</ele>
        <time>2022-08-27T06:39:30Z</time>
      </trkpt>
      <trkpt lat="45.78993" lon="6.92922">
        <ele>2346</ele>
        <time>2022-08-27T06:39:31Z</time>
      </trkpt>
      <trkpt lat="45.78993" lon="6.92924">
        <ele>2345</ele>
        <time>2022-08-27T06:39:32Z</time>
      </trkpt>
      <trkpt lat="45.78994" lon="6.92927">
        <ele>2344</ele>
        <time>2022-08-27T06:39:33Z</time>
      </trkpt>
      <trkpt lat="45.78995" lon="6.9293">
        <ele>2344</ele>
        <time>2022-08-27T06:39:34Z</time>
      </trkpt>
      <trkpt lat="45.78996" lon="6.92932">
        <ele>2343</ele>
        <time>2022-08-27T06:39:35Z</time>
      </trkpt>
      <trkpt lat="45.78997" lon="6.92934">
        <ele>2343</ele>
        <time>2022-08-27T06:39:36Z</time>
      </trkpt>
      <trkpt lat="45.78998" lon="6.9294">
        <ele>2343</ele>
        <time>2022-08-27T06:39:38Z</time>
      </trkpt>
      <trkpt lat="45.78999" lon="6.92943">
        <ele>2343</ele>
        <time>2022-08-27T06:39:39Z</time>
      </trkpt>
      <trkpt lat="45.79" lon="6.92946">
        <ele>2342</ele>
        <time>2022-08-27T06:39:40Z</time>
      </trkpt>
      <trkpt lat="45.79001" lon="6.92952">
        <ele>2341</ele>
        <time>2022-08-27T06:39:42Z</time>
      </trkpt>
      <trkpt lat="45.79001" lon="6.92955">
        <ele>2341</ele>
        <time>2022-08-27T06:39:43Z</time>
      </trkpt>
      <trkpt lat="45.79002" lon="6.92958">
        <ele>2341</ele>
        <time>2022-08-27T06:39:44Z</time>
      </trkpt>
      <trkpt lat="45.79002" lon="6.92961">
        <ele>2341</ele>
        <time>2022-08-27T06:39:45Z</time>
      </trkpt>
      <trkpt lat="45.79003" lon="6.92966">
        <ele>2341</ele>
        <time>2022-08-27T06:39:46Z</time>
      </trkpt>
      <trkpt lat="45.79004" lon="6.92967">
        <ele>2340</ele>
        <time>2022-08-27T06:39:47Z</time>
      </trkpt>
      <trkpt lat="45.79005" lon="6.92972">
        <ele>2340</ele>
        <time>2022-08-27T06:39:48Z</time>
      </trkpt>
      <trkpt lat="45.79005" lon="6.92973">
        <ele>2340</ele>
        <time>2022-08-27T06:39:49Z</time>
      </trkpt>
      <trkpt lat="45.79007" lon="6.92981">
        <ele>2340</ele>
        <time>2022-08-27T06:39:51Z</time>
      </trkpt>
      <trkpt lat="45.79007" lon="6.92983">
        <ele>2339</ele>
        <time>2022-08-27T06:39:52Z</time>
      </trkpt>
      <trkpt lat="45.79008" lon="6.92986">
        <ele>2339</ele>
        <time>2022-08-27T06:39:53Z</time>
      </trkpt>
      <trkpt lat="45.7901" lon="6.92989">
        <ele>2339</ele>
        <time>2022-08-27T06:39:54Z</time>
      </trkpt>
      <trkpt lat="45.7901" lon="6.92992">
        <ele>2339</ele>
        <time>2022-08-27T06:39:55Z</time>
      </trkpt>
      <trkpt lat="45.79011" lon="6.92994">
        <ele>2338</ele>
        <time>2022-08-27T06:39:56Z</time>
      </trkpt>
      <trkpt lat="45.79012" lon="6.92997">
        <ele>2338</ele>
        <time>2022-08-27T06:39:57Z</time>
      </trkpt>
      <trkpt lat="45.79014" lon="6.93001">
        <ele>2337</ele>
        <time>2022-08-27T06:39:59Z</time>
      </trkpt>
      <trkpt lat="45.79015" lon="6.93004">
        <ele>2336</ele>
        <time>2022-08-27T06:40:00Z</time>
      </trkpt>
      <trkpt lat="45.79015" lon="6.93006">
        <ele>2336</ele>
        <time>2022-08-27T06:40:01Z</time>
      </trkpt>
      <trkpt lat="45.79016" lon="6.9301">
        <ele>2336</ele>
        <time>2022-08-27T06:40:02Z</time>
      </trkpt>
      <trkpt lat="45.79016" lon="6.93012">
        <ele>2335</ele>
        <time>2022-08-27T06:40:03Z</time>
      </trkpt>
      <trkpt lat="45.79016" lon="6.93015">
        <ele>2335</ele>
        <time>2022-08-27T06:40:04Z</time>
      </trkpt>
      <trkpt lat="45.79016" lon="6.93019">
        <ele>2335</ele>
        <time>2022-08-27T06:40:05Z</time>
      </trkpt>
      <trkpt lat="45.79017" lon="6.93021">
        <ele>2335</ele>
        <time>2022-08-27T06:40:06Z</time>
      </trkpt>
      <trkpt lat="45.79018" lon="6.93024">
        <ele>2335</ele>
        <time>2022-08-27T06:40:07Z</time>
      </trkpt>
      <trkpt lat="45.79018" lon="6.93029">
        <ele>2333</ele>
        <time>2022-08-27T06:40:09Z</time>
      </trkpt>
      <trkpt lat="45.7902" lon="6.93032">
        <ele>2332</ele>
        <time>2022-08-27T06:40:10Z</time>
      </trkpt>
      <trkpt lat="45.79021" lon="6.93034">
        <ele>2332</ele>
        <time>2022-08-27T06:40:11Z</time>
      </trkpt>
      <trkpt lat="45.79023" lon="6.93038">
        <ele>2332</ele>
        <time>2022-08-27T06:40:12Z</time>
      </trkpt>
      <trkpt lat="45.79023" lon="6.93039">
        <ele>2332</ele>
        <time>2022-08-27T06:40:13Z</time>
      </trkpt>
      <trkpt lat="45.79024" lon="6.93041">
        <ele>2332</ele>
        <time>2022-08-27T06:40:14Z</time>
      </trkpt>
      <trkpt lat="45.79026" lon="6.93045">
        <ele>2331</ele>
        <time>2022-08-27T06:40:16Z</time>
      </trkpt>
      <trkpt lat="45.79028" lon="6.93047">
        <ele>2331</ele>
        <time>2022-08-27T06:40:17Z</time>
      </trkpt>
      <trkpt lat="45.79031" lon="6.93053">
        <ele>2329</ele>
        <time>2022-08-27T06:40:20Z</time>
      </trkpt>
      <trkpt lat="45.79031" lon="6.93056">
        <ele>2329</ele>
        <time>2022-08-27T06:40:21Z</time>
      </trkpt>
      <trkpt lat="45.79032" lon="6.93059">
        <ele>2328</ele>
        <time>2022-08-27T06:40:22Z</time>
      </trkpt>
      <trkpt lat="45.79033" lon="6.93062">
        <ele>2327</ele>
        <time>2022-08-27T06:40:23Z</time>
      </trkpt>
      <trkpt lat="45.79036" lon="6.93067">
        <ele>2327</ele>
        <time>2022-08-27T06:40:25Z</time>
      </trkpt>
      <trkpt lat="45.79037" lon="6.93071">
        <ele>2327</ele>
        <time>2022-08-27T06:40:26Z</time>
      </trkpt>
      <trkpt lat="45.79038" lon="6.93073">
        <ele>2327</ele>
        <time>2022-08-27T06:40:27Z</time>
      </trkpt>
      <trkpt lat="45.7904" lon="6.93078">
        <ele>2324</ele>
        <time>2022-08-27T06:40:29Z</time>
      </trkpt>
      <trkpt lat="45.79042" lon="6.93081">
        <ele>2324</ele>
        <time>2022-08-27T06:40:30Z</time>
      </trkpt>
      <trkpt lat="45.79043" lon="6.93082">
        <ele>2324</ele>
        <time>2022-08-27T06:40:31Z</time>
      </trkpt>
      <trkpt lat="45.79044" lon="6.93084">
        <ele>2324</ele>
        <time>2022-08-27T06:40:32Z</time>
      </trkpt>
      <trkpt lat="45.79047" lon="6.93087">
        <ele>2324</ele>
        <time>2022-08-27T06:40:34Z</time>
      </trkpt>
      <trkpt lat="45.79049" lon="6.93088">
        <ele>2324</ele>
        <time>2022-08-27T06:40:35Z</time>
      </trkpt>
      <trkpt lat="45.79052" lon="6.93089">
        <ele>2324</ele>
        <time>2022-08-27T06:40:37Z</time>
      </trkpt>
      <trkpt lat="45.79055" lon="6.9309">
        <ele>2324</ele>
        <time>2022-08-27T06:40:38Z</time>
      </trkpt>
      <trkpt lat="45.79057" lon="6.93091">
        <ele>2324</ele>
        <time>2022-08-27T06:40:39Z</time>
      </trkpt>
      <trkpt lat="45.79058" lon="6.93091">
        <ele>2324</ele>
        <time>2022-08-27T06:40:40Z</time>
      </trkpt>
      <trkpt lat="45.79059" lon="6.93093">
        <ele>2323</ele>
        <time>2022-08-27T06:40:41Z</time>
      </trkpt>
      <trkpt lat="45.7906" lon="6.93094">
        <ele>2322</ele>
        <time>2022-08-27T06:40:42Z</time>
      </trkpt>
      <trkpt lat="45.79061" lon="6.93096">
        <ele>2322</ele>
        <time>2022-08-27T06:40:43Z</time>
      </trkpt>
      <trkpt lat="45.79062" lon="6.93099">
        <ele>2322</ele>
        <time>2022-08-27T06:40:44Z</time>
      </trkpt>
      <trkpt lat="45.79064" lon="6.93103">
        <ele>2321</ele>
        <time>2022-08-27T06:40:46Z</time>
      </trkpt>
      <trkpt lat="45.79065" lon="6.93106">
        <ele>2320</ele>
        <time>2022-08-27T06:40:48Z</time>
      </trkpt>
      <trkpt lat="45.79067" lon="6.9311">
        <ele>2318</ele>
        <time>2022-08-27T06:40:50Z</time>
      </trkpt>
      <trkpt lat="45.79069" lon="6.93112">
        <ele>2318</ele>
        <time>2022-08-27T06:40:52Z</time>
      </trkpt>
      <trkpt lat="45.79071" lon="6.93113">
        <ele>2318</ele>
        <time>2022-08-27T06:40:54Z</time>
      </trkpt>
      <trkpt lat="45.79073" lon="6.93115">
        <ele>2317</ele>
        <time>2022-08-27T06:40:57Z</time>
      </trkpt>
      <trkpt lat="45.79073" lon="6.93118">
        <ele>2317</ele>
        <time>2022-08-27T06:41:03Z</time>
      </trkpt>
      <trkpt lat="45.79073" lon="6.93118">
        <ele>2318</ele>
        <time>2022-08-27T06:41:14Z</time>
      </trkpt>
      <trkpt lat="45.79073" lon="6.93118">
        <ele>2318</ele>
        <time>2022-08-27T06:41:31Z</time>
      </trkpt>
      <trkpt lat="45.79074" lon="6.93121">
        <ele>2318</ele>
        <time>2022-08-27T06:41:45Z</time>
      </trkpt>
      <trkpt lat="45.79076" lon="6.93123">
        <ele>2317</ele>
        <time>2022-08-27T06:41:47Z</time>
      </trkpt>
      <trkpt lat="45.79077" lon="6.93125">
        <ele>2317</ele>
        <time>2022-08-27T06:41:49Z</time>
      </trkpt>
      <trkpt lat="45.79079" lon="6.93127">
        <ele>2317</ele>
        <time>2022-08-27T06:41:51Z</time>
      </trkpt>
      <trkpt lat="45.79081" lon="6.93129">
        <ele>2317</ele>
        <time>2022-08-27T06:41:53Z</time>
      </trkpt>
      <trkpt lat="45.79083" lon="6.93132">
        <ele>2317</ele>
        <time>2022-08-27T06:41:55Z</time>
      </trkpt>
      <trkpt lat="45.79085" lon="6.93133">
        <ele>2317</ele>
        <time>2022-08-27T06:41:57Z</time>
      </trkpt>
      <trkpt lat="45.79087" lon="6.93134">
        <ele>2317</ele>
        <time>2022-08-27T06:41:59Z</time>
      </trkpt>
      <trkpt lat="45.79089" lon="6.93136">
        <ele>2317</ele>
        <time>2022-08-27T06:42:01Z</time>
      </trkpt>
      <trkpt lat="45.79091" lon="6.93138">
        <ele>2317</ele>
        <time>2022-08-27T06:42:03Z</time>
      </trkpt>
      <trkpt lat="45.79092" lon="6.93141">
        <ele>2316</ele>
        <time>2022-08-27T06:42:05Z</time>
      </trkpt>
      <trkpt lat="45.79093" lon="6.93144">
        <ele>2316</ele>
        <time>2022-08-27T06:42:07Z</time>
      </trkpt>
      <trkpt lat="45.79095" lon="6.93148">
        <ele>2316</ele>
        <time>2022-08-27T06:42:09Z</time>
      </trkpt>
      <trkpt lat="45.79095" lon="6.93152">
        <ele>2315</ele>
        <time>2022-08-27T06:42:12Z</time>
      </trkpt>
      <trkpt lat="45.79096" lon="6.93156">
        <ele>2315</ele>
        <time>2022-08-27T06:42:13Z</time>
      </trkpt>
      <trkpt lat="45.79097" lon="6.93159">
        <ele>2314</ele>
        <time>2022-08-27T06:42:15Z</time>
      </trkpt>
      <trkpt lat="45.79098" lon="6.93163">
        <ele>2314</ele>
        <time>2022-08-27T06:42:17Z</time>
      </trkpt>
      <trkpt lat="45.79098" lon="6.93166">
        <ele>2314</ele>
        <time>2022-08-27T06:42:19Z</time>
      </trkpt>
      <trkpt lat="45.79098" lon="6.93169">
        <ele>2314</ele>
        <time>2022-08-27T06:42:20Z</time>
      </trkpt>
      <trkpt lat="45.79099" lon="6.93172">
        <ele>2313</ele>
        <time>2022-08-27T06:42:21Z</time>
      </trkpt>
      <trkpt lat="45.791" lon="6.93176">
        <ele>2311</ele>
        <time>2022-08-27T06:42:23Z</time>
      </trkpt>
      <trkpt lat="45.79101" lon="6.9318">
        <ele>2311</ele>
        <time>2022-08-27T06:42:25Z</time>
      </trkpt>
      <trkpt lat="45.79101" lon="6.93184">
        <ele>2312</ele>
        <time>2022-08-27T06:42:27Z</time>
      </trkpt>
      <trkpt lat="45.79102" lon="6.93188">
        <ele>2312</ele>
        <time>2022-08-27T06:42:29Z</time>
      </trkpt>
      <trkpt lat="45.79102" lon="6.93191">
        <ele>2312</ele>
        <time>2022-08-27T06:42:31Z</time>
      </trkpt>
      <trkpt lat="45.79103" lon="6.93195">
        <ele>2312</ele>
        <time>2022-08-27T06:42:33Z</time>
      </trkpt>
      <trkpt lat="45.79103" lon="6.93199">
        <ele>2313</ele>
        <time>2022-08-27T06:42:36Z</time>
      </trkpt>
      <trkpt lat="45.79103" lon="6.93202">
        <ele>2313</ele>
        <time>2022-08-27T06:42:37Z</time>
      </trkpt>
      <trkpt lat="45.79103" lon="6.93206">
        <ele>2313</ele>
        <time>2022-08-27T06:42:39Z</time>
      </trkpt>
      <trkpt lat="45.79103" lon="6.9321">
        <ele>2313</ele>
        <time>2022-08-27T06:42:41Z</time>
      </trkpt>
      <trkpt lat="45.79103" lon="6.93213">
        <ele>2313</ele>
        <time>2022-08-27T06:42:43Z</time>
      </trkpt>
      <trkpt lat="45.79103" lon="6.93217">
        <ele>2313</ele>
        <time>2022-08-27T06:42:45Z</time>
      </trkpt>
      <trkpt lat="45.79103" lon="6.9322">
        <ele>2313</ele>
        <time>2022-08-27T06:42:47Z</time>
      </trkpt>
      <trkpt lat="45.79103" lon="6.93224">
        <ele>2314</ele>
        <time>2022-08-27T06:42:49Z</time>
      </trkpt>
      <trkpt lat="45.79104" lon="6.93227">
        <ele>2314</ele>
        <time>2022-08-27T06:42:51Z</time>
      </trkpt>
      <trkpt lat="45.79104" lon="6.9323">
        <ele>2314</ele>
        <time>2022-08-27T06:42:53Z</time>
      </trkpt>
      <trkpt lat="45.79104" lon="6.93233">
        <ele>2314</ele>
        <time>2022-08-27T06:42:56Z</time>
      </trkpt>
      <trkpt lat="45.79105" lon="6.93236">
        <ele>2314</ele>
        <time>2022-08-27T06:42:57Z</time>
      </trkpt>
      <trkpt lat="45.79105" lon="6.9324">
        <ele>2314</ele>
        <time>2022-08-27T06:42:59Z</time>
      </trkpt>
      <trkpt lat="45.79106" lon="6.93243">
        <ele>2314</ele>
        <time>2022-08-27T06:43:01Z</time>
      </trkpt>
      <trkpt lat="45.79107" lon="6.93247">
        <ele>2315</ele>
        <time>2022-08-27T06:43:04Z</time>
      </trkpt>
      <trkpt lat="45.79107" lon="6.93251">
        <ele>2315</ele>
        <time>2022-08-27T06:43:05Z</time>
      </trkpt>
      <trkpt lat="45.79108" lon="6.93254">
        <ele>2315</ele>
        <time>2022-08-27T06:43:07Z</time>
      </trkpt>
      <trkpt lat="45.79108" lon="6.93257">
        <ele>2315</ele>
        <time>2022-08-27T06:43:09Z</time>
      </trkpt>
      <trkpt lat="45.79108" lon="6.9326">
        <ele>2315</ele>
        <time>2022-08-27T06:43:11Z</time>
      </trkpt>
      <trkpt lat="45.79108" lon="6.93263">
        <ele>2316</ele>
        <time>2022-08-27T06:43:13Z</time>
      </trkpt>
      <trkpt lat="45.79109" lon="6.93267">
        <ele>2317</ele>
        <time>2022-08-27T06:43:15Z</time>
      </trkpt>
      <trkpt lat="45.79109" lon="6.9327">
        <ele>2317</ele>
        <time>2022-08-27T06:43:18Z</time>
      </trkpt>
      <trkpt lat="45.7911" lon="6.93273">
        <ele>2317</ele>
        <time>2022-08-27T06:43:19Z</time>
      </trkpt>
      <trkpt lat="45.79111" lon="6.93277">
        <ele>2317</ele>
        <time>2022-08-27T06:43:21Z</time>
      </trkpt>
      <trkpt lat="45.79112" lon="6.9328">
        <ele>2318</ele>
        <time>2022-08-27T06:43:23Z</time>
      </trkpt>
      <trkpt lat="45.79113" lon="6.93284">
        <ele>2318</ele>
        <time>2022-08-27T06:43:25Z</time>
      </trkpt>
      <trkpt lat="45.79114" lon="6.93287">
        <ele>2318</ele>
        <time>2022-08-27T06:43:27Z</time>
      </trkpt>
      <trkpt lat="45.79114" lon="6.9329">
        <ele>2318</ele>
        <time>2022-08-27T06:43:30Z</time>
      </trkpt>
      <trkpt lat="45.79116" lon="6.93294">
        <ele>2318</ele>
        <time>2022-08-27T06:43:31Z</time>
      </trkpt>
      <trkpt lat="45.79117" lon="6.93297">
        <ele>2318</ele>
        <time>2022-08-27T06:43:33Z</time>
      </trkpt>
      <trkpt lat="45.79118" lon="6.933">
        <ele>2317</ele>
        <time>2022-08-27T06:43:35Z</time>
      </trkpt>
      <trkpt lat="45.79118" lon="6.93303">
        <ele>2317</ele>
        <time>2022-08-27T06:43:37Z</time>
      </trkpt>
      <trkpt lat="45.79119" lon="6.93306">
        <ele>2317</ele>
        <time>2022-08-27T06:43:39Z</time>
      </trkpt>
      <trkpt lat="45.7912" lon="6.93309">
        <ele>2316</ele>
        <time>2022-08-27T06:43:41Z</time>
      </trkpt>
      <trkpt lat="45.79122" lon="6.93312">
        <ele>2316</ele>
        <time>2022-08-27T06:43:43Z</time>
      </trkpt>
      <trkpt lat="45.79122" lon="6.93316">
        <ele>2316</ele>
        <time>2022-08-27T06:43:45Z</time>
      </trkpt>
      <trkpt lat="45.79123" lon="6.93319">
        <ele>2315</ele>
        <time>2022-08-27T06:43:47Z</time>
      </trkpt>
      <trkpt lat="45.79123" lon="6.93322">
        <ele>2315</ele>
        <time>2022-08-27T06:43:49Z</time>
      </trkpt>
      <trkpt lat="45.79123" lon="6.93326">
        <ele>2315</ele>
        <time>2022-08-27T06:43:51Z</time>
      </trkpt>
      <trkpt lat="45.79124" lon="6.93329">
        <ele>2315</ele>
        <time>2022-08-27T06:43:53Z</time>
      </trkpt>
      <trkpt lat="45.79124" lon="6.93333">
        <ele>2315</ele>
        <time>2022-08-27T06:43:55Z</time>
      </trkpt>
      <trkpt lat="45.79124" lon="6.93337">
        <ele>2312</ele>
        <time>2022-08-27T06:43:58Z</time>
      </trkpt>
      <trkpt lat="45.79125" lon="6.93341">
        <ele>2312</ele>
        <time>2022-08-27T06:43:59Z</time>
      </trkpt>
      <trkpt lat="45.79126" lon="6.93347">
        <ele>2312</ele>
        <time>2022-08-27T06:44:01Z</time>
      </trkpt>
      <trkpt lat="45.79126" lon="6.93348">
        <ele>2311</ele>
        <time>2022-08-27T06:44:02Z</time>
      </trkpt>
      <trkpt lat="45.79127" lon="6.9335">
        <ele>2310</ele>
        <time>2022-08-27T06:44:03Z</time>
      </trkpt>
      <trkpt lat="45.79127" lon="6.93353">
        <ele>2310</ele>
        <time>2022-08-27T06:44:04Z</time>
      </trkpt>
      <trkpt lat="45.79128" lon="6.93356">
        <ele>2309</ele>
        <time>2022-08-27T06:44:05Z</time>
      </trkpt>
      <trkpt lat="45.79128" lon="6.93359">
        <ele>2309</ele>
        <time>2022-08-27T06:44:06Z</time>
      </trkpt>
      <trkpt lat="45.79129" lon="6.93362">
        <ele>2309</ele>
        <time>2022-08-27T06:44:07Z</time>
      </trkpt>
      <trkpt lat="45.79129" lon="6.93365">
        <ele>2308</ele>
        <time>2022-08-27T06:44:08Z</time>
      </trkpt>
      <trkpt lat="45.7913" lon="6.93367">
        <ele>2307</ele>
        <time>2022-08-27T06:44:09Z</time>
      </trkpt>
      <trkpt lat="45.7913" lon="6.9337">
        <ele>2306</ele>
        <time>2022-08-27T06:44:10Z</time>
      </trkpt>
      <trkpt lat="45.79131" lon="6.93376">
        <ele>2305</ele>
        <time>2022-08-27T06:44:12Z</time>
      </trkpt>
      <trkpt lat="45.79131" lon="6.9338">
        <ele>2305</ele>
        <time>2022-08-27T06:44:13Z</time>
      </trkpt>
      <trkpt lat="45.79131" lon="6.93384">
        <ele>2305</ele>
        <time>2022-08-27T06:44:14Z</time>
      </trkpt>
      <trkpt lat="45.79131" lon="6.93386">
        <ele>2304</ele>
        <time>2022-08-27T06:44:15Z</time>
      </trkpt>
      <trkpt lat="45.79132" lon="6.93392">
        <ele>2303</ele>
        <time>2022-08-27T06:44:17Z</time>
      </trkpt>
      <trkpt lat="45.79132" lon="6.93395">
        <ele>2302</ele>
        <time>2022-08-27T06:44:18Z</time>
      </trkpt>
      <trkpt lat="45.79133" lon="6.93398">
        <ele>2301</ele>
        <time>2022-08-27T06:44:19Z</time>
      </trkpt>
      <trkpt lat="45.79133" lon="6.93401">
        <ele>2301</ele>
        <time>2022-08-27T06:44:20Z</time>
      </trkpt>
      <trkpt lat="45.79134" lon="6.93404">
        <ele>2300</ele>
        <time>2022-08-27T06:44:21Z</time>
      </trkpt>
      <trkpt lat="45.79135" lon="6.93406">
        <ele>2298</ele>
        <time>2022-08-27T06:44:22Z</time>
      </trkpt>
      <trkpt lat="45.79135" lon="6.93409">
        <ele>2298</ele>
        <time>2022-08-27T06:44:23Z</time>
      </trkpt>
      <trkpt lat="45.79135" lon="6.93412">
        <ele>2298</ele>
        <time>2022-08-27T06:44:24Z</time>
      </trkpt>
      <trkpt lat="45.79136" lon="6.93417">
        <ele>2298</ele>
        <time>2022-08-27T06:44:25Z</time>
      </trkpt>
      <trkpt lat="45.79136" lon="6.93419">
        <ele>2297</ele>
        <time>2022-08-27T06:44:26Z</time>
      </trkpt>
      <trkpt lat="45.79136" lon="6.93423">
        <ele>2296</ele>
        <time>2022-08-27T06:44:27Z</time>
      </trkpt>
      <trkpt lat="45.79137" lon="6.93428">
        <ele>2295</ele>
        <time>2022-08-27T06:44:28Z</time>
      </trkpt>
      <trkpt lat="45.79137" lon="6.9343">
        <ele>2294</ele>
        <time>2022-08-27T06:44:29Z</time>
      </trkpt>
      <trkpt lat="45.79137" lon="6.93435">
        <ele>2294</ele>
        <time>2022-08-27T06:44:30Z</time>
      </trkpt>
      <trkpt lat="45.79138" lon="6.93437">
        <ele>2293</ele>
        <time>2022-08-27T06:44:31Z</time>
      </trkpt>
      <trkpt lat="45.79137" lon="6.93441">
        <ele>2293</ele>
        <time>2022-08-27T06:44:32Z</time>
      </trkpt>
      <trkpt lat="45.79137" lon="6.93448">
        <ele>2292</ele>
        <time>2022-08-27T06:44:34Z</time>
      </trkpt>
      <trkpt lat="45.79137" lon="6.93452">
        <ele>2292</ele>
        <time>2022-08-27T06:44:35Z</time>
      </trkpt>
      <trkpt lat="45.79137" lon="6.93455">
        <ele>2291</ele>
        <time>2022-08-27T06:44:36Z</time>
      </trkpt>
      <trkpt lat="45.79138" lon="6.9346">
        <ele>2291</ele>
        <time>2022-08-27T06:44:37Z</time>
      </trkpt>
      <trkpt lat="45.79138" lon="6.93462">
        <ele>2290</ele>
        <time>2022-08-27T06:44:38Z</time>
      </trkpt>
      <trkpt lat="45.79138" lon="6.93465">
        <ele>2289</ele>
        <time>2022-08-27T06:44:39Z</time>
      </trkpt>
      <trkpt lat="45.79138" lon="6.93471">
        <ele>2289</ele>
        <time>2022-08-27T06:44:40Z</time>
      </trkpt>
      <trkpt lat="45.79139" lon="6.93473">
        <ele>2289</ele>
        <time>2022-08-27T06:44:41Z</time>
      </trkpt>
      <trkpt lat="45.79139" lon="6.93478">
        <ele>2289</ele>
        <time>2022-08-27T06:44:42Z</time>
      </trkpt>
      <trkpt lat="45.7914" lon="6.9348">
        <ele>2287</ele>
        <time>2022-08-27T06:44:43Z</time>
      </trkpt>
      <trkpt lat="45.7914" lon="6.93484">
        <ele>2287</ele>
        <time>2022-08-27T06:44:44Z</time>
      </trkpt>
      <trkpt lat="45.79141" lon="6.93489">
        <ele>2287</ele>
        <time>2022-08-27T06:44:45Z</time>
      </trkpt>
      <trkpt lat="45.79141" lon="6.93491">
        <ele>2286</ele>
        <time>2022-08-27T06:44:46Z</time>
      </trkpt>
      <trkpt lat="45.79142" lon="6.93494">
        <ele>2286</ele>
        <time>2022-08-27T06:44:47Z</time>
      </trkpt>
      <trkpt lat="45.79143" lon="6.93497">
        <ele>2286</ele>
        <time>2022-08-27T06:44:48Z</time>
      </trkpt>
      <trkpt lat="45.79143" lon="6.93501">
        <ele>2286</ele>
        <time>2022-08-27T06:44:49Z</time>
      </trkpt>
      <trkpt lat="45.79144" lon="6.93506">
        <ele>2286</ele>
        <time>2022-08-27T06:44:50Z</time>
      </trkpt>
      <trkpt lat="45.79144" lon="6.93508">
        <ele>2285</ele>
        <time>2022-08-27T06:44:51Z</time>
      </trkpt>
      <trkpt lat="45.79146" lon="6.93512">
        <ele>2285</ele>
        <time>2022-08-27T06:44:52Z</time>
      </trkpt>
      <trkpt lat="45.79146" lon="6.93514">
        <ele>2284</ele>
        <time>2022-08-27T06:44:53Z</time>
      </trkpt>
      <trkpt lat="45.79147" lon="6.93519">
        <ele>2284</ele>
        <time>2022-08-27T06:44:54Z</time>
      </trkpt>
      <trkpt lat="45.79148" lon="6.93521">
        <ele>2282</ele>
        <time>2022-08-27T06:44:55Z</time>
      </trkpt>
      <trkpt lat="45.7915" lon="6.93525">
        <ele>2282</ele>
        <time>2022-08-27T06:44:56Z</time>
      </trkpt>
      <trkpt lat="45.7915" lon="6.93526">
        <ele>2283</ele>
        <time>2022-08-27T06:44:57Z</time>
      </trkpt>
      <trkpt lat="45.79152" lon="6.93529">
        <ele>2283</ele>
        <time>2022-08-27T06:44:58Z</time>
      </trkpt>
      <trkpt lat="45.79153" lon="6.93531">
        <ele>2282</ele>
        <time>2022-08-27T06:44:59Z</time>
      </trkpt>
      <trkpt lat="45.79154" lon="6.93534">
        <ele>2282</ele>
        <time>2022-08-27T06:45:00Z</time>
      </trkpt>
      <trkpt lat="45.79156" lon="6.93537">
        <ele>2282</ele>
        <time>2022-08-27T06:45:01Z</time>
      </trkpt>
      <trkpt lat="45.79157" lon="6.93538">
        <ele>2281</ele>
        <time>2022-08-27T06:45:02Z</time>
      </trkpt>
      <trkpt lat="45.79159" lon="6.93541">
        <ele>2281</ele>
        <time>2022-08-27T06:45:03Z</time>
      </trkpt>
      <trkpt lat="45.79162" lon="6.93543">
        <ele>2281</ele>
        <time>2022-08-27T06:45:04Z</time>
      </trkpt>
      <trkpt lat="45.79163" lon="6.93544">
        <ele>2281</ele>
        <time>2022-08-27T06:45:05Z</time>
      </trkpt>
      <trkpt lat="45.79166" lon="6.93545">
        <ele>2281</ele>
        <time>2022-08-27T06:45:06Z</time>
      </trkpt>
      <trkpt lat="45.79168" lon="6.93546">
        <ele>2281</ele>
        <time>2022-08-27T06:45:07Z</time>
      </trkpt>
      <trkpt lat="45.79171" lon="6.93548">
        <ele>2281</ele>
        <time>2022-08-27T06:45:08Z</time>
      </trkpt>
      <trkpt lat="45.79173" lon="6.9355">
        <ele>2281</ele>
        <time>2022-08-27T06:45:09Z</time>
      </trkpt>
      <trkpt lat="45.79175" lon="6.93552">
        <ele>2280</ele>
        <time>2022-08-27T06:45:10Z</time>
      </trkpt>
      <trkpt lat="45.79178" lon="6.93554">
        <ele>2280</ele>
        <time>2022-08-27T06:45:11Z</time>
      </trkpt>
      <trkpt lat="45.79179" lon="6.93555">
        <ele>2279</ele>
        <time>2022-08-27T06:45:12Z</time>
      </trkpt>
      <trkpt lat="45.79181" lon="6.93556">
        <ele>2279</ele>
        <time>2022-08-27T06:45:13Z</time>
      </trkpt>
      <trkpt lat="45.79183" lon="6.93557">
        <ele>2278</ele>
        <time>2022-08-27T06:45:14Z</time>
      </trkpt>
      <trkpt lat="45.79185" lon="6.93558">
        <ele>2278</ele>
        <time>2022-08-27T06:45:15Z</time>
      </trkpt>
      <trkpt lat="45.79187" lon="6.93559">
        <ele>2277</ele>
        <time>2022-08-27T06:45:16Z</time>
      </trkpt>
      <trkpt lat="45.79189" lon="6.9356">
        <ele>2276</ele>
        <time>2022-08-27T06:45:17Z</time>
      </trkpt>
      <trkpt lat="45.79198" lon="6.93566">
        <ele>2274</ele>
        <time>2022-08-27T06:45:22Z</time>
      </trkpt>
      <trkpt lat="45.792" lon="6.93568">
        <ele>2274</ele>
        <time>2022-08-27T06:45:23Z</time>
      </trkpt>
      <trkpt lat="45.79202" lon="6.93569">
        <ele>2272</ele>
        <time>2022-08-27T06:45:24Z</time>
      </trkpt>
      <trkpt lat="45.79204" lon="6.9357">
        <ele>2271</ele>
        <time>2022-08-27T06:45:25Z</time>
      </trkpt>
      <trkpt lat="45.79208" lon="6.93574">
        <ele>2270</ele>
        <time>2022-08-27T06:45:27Z</time>
      </trkpt>
      <trkpt lat="45.79212" lon="6.93577">
        <ele>2270</ele>
        <time>2022-08-27T06:45:28Z</time>
      </trkpt>
      <trkpt lat="45.79213" lon="6.93578">
        <ele>2269</ele>
        <time>2022-08-27T06:45:29Z</time>
      </trkpt>
      <trkpt lat="45.79215" lon="6.93581">
        <ele>2269</ele>
        <time>2022-08-27T06:45:30Z</time>
      </trkpt>
      <trkpt lat="45.79216" lon="6.93582">
        <ele>2269</ele>
        <time>2022-08-27T06:45:31Z</time>
      </trkpt>
      <trkpt lat="45.79219" lon="6.93585">
        <ele>2269</ele>
        <time>2022-08-27T06:45:32Z</time>
      </trkpt>
      <trkpt lat="45.79219" lon="6.93586">
        <ele>2267</ele>
        <time>2022-08-27T06:45:33Z</time>
      </trkpt>
      <trkpt lat="45.79221" lon="6.93589">
        <ele>2267</ele>
        <time>2022-08-27T06:45:34Z</time>
      </trkpt>
      <trkpt lat="45.79222" lon="6.93591">
        <ele>2266</ele>
        <time>2022-08-27T06:45:35Z</time>
      </trkpt>
      <trkpt lat="45.79223" lon="6.93594">
        <ele>2265</ele>
        <time>2022-08-27T06:45:36Z</time>
      </trkpt>
      <trkpt lat="45.79224" lon="6.93596">
        <ele>2265</ele>
        <time>2022-08-27T06:45:37Z</time>
      </trkpt>
      <trkpt lat="45.79225" lon="6.93598">
        <ele>2264</ele>
        <time>2022-08-27T06:45:38Z</time>
      </trkpt>
      <trkpt lat="45.79228" lon="6.936">
        <ele>2264</ele>
        <time>2022-08-27T06:45:39Z</time>
      </trkpt>
      <trkpt lat="45.79229" lon="6.93601">
        <ele>2264</ele>
        <time>2022-08-27T06:45:40Z</time>
      </trkpt>
      <trkpt lat="45.79231" lon="6.93602">
        <ele>2263</ele>
        <time>2022-08-27T06:45:41Z</time>
      </trkpt>
      <trkpt lat="45.79235" lon="6.93603">
        <ele>2263</ele>
        <time>2022-08-27T06:45:42Z</time>
      </trkpt>
      <trkpt lat="45.79236" lon="6.93603">
        <ele>2263</ele>
        <time>2022-08-27T06:45:43Z</time>
      </trkpt>
      <trkpt lat="45.7924" lon="6.93605">
        <ele>2263</ele>
        <time>2022-08-27T06:45:45Z</time>
      </trkpt>
      <trkpt lat="45.79242" lon="6.93605">
        <ele>2263</ele>
        <time>2022-08-27T06:45:46Z</time>
      </trkpt>
      <trkpt lat="45.79244" lon="6.93606">
        <ele>2263</ele>
        <time>2022-08-27T06:45:47Z</time>
      </trkpt>
      <trkpt lat="45.79246" lon="6.93606">
        <ele>2263</ele>
        <time>2022-08-27T06:45:48Z</time>
      </trkpt>
      <trkpt lat="45.79249" lon="6.93609">
        <ele>2263</ele>
        <time>2022-08-27T06:45:50Z</time>
      </trkpt>
      <trkpt lat="45.7925" lon="6.9361">
        <ele>2263</ele>
        <time>2022-08-27T06:45:51Z</time>
      </trkpt>
      <trkpt lat="45.79251" lon="6.93612">
        <ele>2262</ele>
        <time>2022-08-27T06:45:52Z</time>
      </trkpt>
      <trkpt lat="45.79254" lon="6.93616">
        <ele>2262</ele>
        <time>2022-08-27T06:45:53Z</time>
      </trkpt>
      <trkpt lat="45.79257" lon="6.93619">
        <ele>2262</ele>
        <time>2022-08-27T06:45:54Z</time>
      </trkpt>
      <trkpt lat="45.79258" lon="6.9362">
        <ele>2262</ele>
        <time>2022-08-27T06:45:55Z</time>
      </trkpt>
      <trkpt lat="45.79259" lon="6.93621">
        <ele>2262</ele>
        <time>2022-08-27T06:45:56Z</time>
      </trkpt>
      <trkpt lat="45.79261" lon="6.93623">
        <ele>2262</ele>
        <time>2022-08-27T06:45:57Z</time>
      </trkpt>
      <trkpt lat="45.79262" lon="6.93624">
        <ele>2262</ele>
        <time>2022-08-27T06:45:58Z</time>
      </trkpt>
      <trkpt lat="45.79263" lon="6.93626">
        <ele>2262</ele>
        <time>2022-08-27T06:45:59Z</time>
      </trkpt>
      <trkpt lat="45.79265" lon="6.93627">
        <ele>2262</ele>
        <time>2022-08-27T06:46:00Z</time>
      </trkpt>
      <trkpt lat="45.79267" lon="6.93629">
        <ele>2262</ele>
        <time>2022-08-27T06:46:01Z</time>
      </trkpt>
      <trkpt lat="45.79269" lon="6.93631">
        <ele>2262</ele>
        <time>2022-08-27T06:46:02Z</time>
      </trkpt>
      <trkpt lat="45.79271" lon="6.93633">
        <ele>2261</ele>
        <time>2022-08-27T06:46:03Z</time>
      </trkpt>
      <trkpt lat="45.79273" lon="6.93635">
        <ele>2261</ele>
        <time>2022-08-27T06:46:04Z</time>
      </trkpt>
      <trkpt lat="45.79275" lon="6.93637">
        <ele>2260</ele>
        <time>2022-08-27T06:46:05Z</time>
      </trkpt>
      <trkpt lat="45.79276" lon="6.93638">
        <ele>2260</ele>
        <time>2022-08-27T06:46:06Z</time>
      </trkpt>
      <trkpt lat="45.79283" lon="6.93644">
        <ele>2259</ele>
        <time>2022-08-27T06:46:09Z</time>
      </trkpt>
      <trkpt lat="45.79285" lon="6.93645">
        <ele>2259</ele>
        <time>2022-08-27T06:46:10Z</time>
      </trkpt>
      <trkpt lat="45.79287" lon="6.93648">
        <ele>2259</ele>
        <time>2022-08-27T06:46:11Z</time>
      </trkpt>
      <trkpt lat="45.79288" lon="6.9365">
        <ele>2258</ele>
        <time>2022-08-27T06:46:13Z</time>
      </trkpt>
      <trkpt lat="45.7929" lon="6.93653">
        <ele>2258</ele>
        <time>2022-08-27T06:46:14Z</time>
      </trkpt>
      <trkpt lat="45.79292" lon="6.93655">
        <ele>2258</ele>
        <time>2022-08-27T06:46:15Z</time>
      </trkpt>
      <trkpt lat="45.79295" lon="6.93658">
        <ele>2258</ele>
        <time>2022-08-27T06:46:16Z</time>
      </trkpt>
      <trkpt lat="45.79297" lon="6.9366">
        <ele>2257</ele>
        <time>2022-08-27T06:46:17Z</time>
      </trkpt>
      <trkpt lat="45.79299" lon="6.93662">
        <ele>2257</ele>
        <time>2022-08-27T06:46:18Z</time>
      </trkpt>
      <trkpt lat="45.79302" lon="6.93667">
        <ele>2257</ele>
        <time>2022-08-27T06:46:20Z</time>
      </trkpt>
      <trkpt lat="45.79304" lon="6.93669">
        <ele>2257</ele>
        <time>2022-08-27T06:46:21Z</time>
      </trkpt>
      <trkpt lat="45.79306" lon="6.93671">
        <ele>2256</ele>
        <time>2022-08-27T06:46:22Z</time>
      </trkpt>
      <trkpt lat="45.79308" lon="6.93673">
        <ele>2256</ele>
        <time>2022-08-27T06:46:23Z</time>
      </trkpt>
      <trkpt lat="45.79317" lon="6.93682">
        <ele>2256</ele>
        <time>2022-08-27T06:46:28Z</time>
      </trkpt>
      <trkpt lat="45.79326" lon="6.93688">
        <ele>2255</ele>
        <time>2022-08-27T06:46:32Z</time>
      </trkpt>
      <trkpt lat="45.79322" lon="6.9369">
        <ele>2253</ele>
        <time>2022-08-27T06:46:38Z</time>
      </trkpt>
      <trkpt lat="45.79321" lon="6.93688">
        <ele>2253</ele>
        <time>2022-08-27T06:46:39Z</time>
      </trkpt>
      <trkpt lat="45.79317" lon="6.93688">
        <ele>2253</ele>
        <time>2022-08-27T06:46:40Z</time>
      </trkpt>
      <trkpt lat="45.79316" lon="6.93688">
        <ele>2252</ele>
        <time>2022-08-27T06:46:41Z</time>
      </trkpt>
      <trkpt lat="45.79314" lon="6.93687">
        <ele>2251</ele>
        <time>2022-08-27T06:46:42Z</time>
      </trkpt>
      <trkpt lat="45.79311" lon="6.93688">
        <ele>2251</ele>
        <time>2022-08-27T06:46:43Z</time>
      </trkpt>
      <trkpt lat="45.79309" lon="6.93688">
        <ele>2251</ele>
        <time>2022-08-27T06:46:44Z</time>
      </trkpt>
      <trkpt lat="45.79308" lon="6.93688">
        <ele>2251</ele>
        <time>2022-08-27T06:46:46Z</time>
      </trkpt>
      <trkpt lat="45.79306" lon="6.93688">
        <ele>2250</ele>
        <time>2022-08-27T06:46:47Z</time>
      </trkpt>
      <trkpt lat="45.79301" lon="6.93688">
        <ele>2250</ele>
        <time>2022-08-27T06:46:48Z</time>
      </trkpt>
      <trkpt lat="45.79291" lon="6.93688">
        <ele>2249</ele>
        <time>2022-08-27T06:46:51Z</time>
      </trkpt>
      <trkpt lat="45.79282" lon="6.93689">
        <ele>2248</ele>
        <time>2022-08-27T06:46:56Z</time>
      </trkpt>
      <trkpt lat="45.79279" lon="6.9369">
        <ele>2246</ele>
        <time>2022-08-27T06:46:57Z</time>
      </trkpt>
      <trkpt lat="45.79277" lon="6.93692">
        <ele>2246</ele>
        <time>2022-08-27T06:46:58Z</time>
      </trkpt>
      <trkpt lat="45.79275" lon="6.93694">
        <ele>2245</ele>
        <time>2022-08-27T06:46:59Z</time>
      </trkpt>
      <trkpt lat="45.79274" lon="6.93695">
        <ele>2245</ele>
        <time>2022-08-27T06:47:01Z</time>
      </trkpt>
      <trkpt lat="45.79273" lon="6.93697">
        <ele>2244</ele>
        <time>2022-08-27T06:47:02Z</time>
      </trkpt>
      <trkpt lat="45.79272" lon="6.93699">
        <ele>2244</ele>
        <time>2022-08-27T06:47:03Z</time>
      </trkpt>
      <trkpt lat="45.79271" lon="6.93701">
        <ele>2244</ele>
        <time>2022-08-27T06:47:04Z</time>
      </trkpt>
      <trkpt lat="45.7927" lon="6.93702">
        <ele>2244</ele>
        <time>2022-08-27T06:47:05Z</time>
      </trkpt>
      <trkpt lat="45.79268" lon="6.93704">
        <ele>2244</ele>
        <time>2022-08-27T06:47:06Z</time>
      </trkpt>
      <trkpt lat="45.79266" lon="6.93709">
        <ele>2241</ele>
        <time>2022-08-27T06:47:07Z</time>
      </trkpt>
      <trkpt lat="45.79265" lon="6.93711">
        <ele>2241</ele>
        <time>2022-08-27T06:47:08Z</time>
      </trkpt>
      <trkpt lat="45.79263" lon="6.93713">
        <ele>2241</ele>
        <time>2022-08-27T06:47:09Z</time>
      </trkpt>
      <trkpt lat="45.79261" lon="6.93718">
        <ele>2241</ele>
        <time>2022-08-27T06:47:11Z</time>
      </trkpt>
      <trkpt lat="45.79259" lon="6.93721">
        <ele>2241</ele>
        <time>2022-08-27T06:47:12Z</time>
      </trkpt>
      <trkpt lat="45.79258" lon="6.93723">
        <ele>2241</ele>
        <time>2022-08-27T06:47:13Z</time>
      </trkpt>
      <trkpt lat="45.79255" lon="6.93728">
        <ele>2240</ele>
        <time>2022-08-27T06:47:15Z</time>
      </trkpt>
      <trkpt lat="45.79253" lon="6.9373">
        <ele>2240</ele>
        <time>2022-08-27T06:47:16Z</time>
      </trkpt>
      <trkpt lat="45.79252" lon="6.93732">
        <ele>2239</ele>
        <time>2022-08-27T06:47:17Z</time>
      </trkpt>
      <trkpt lat="45.7925" lon="6.93733">
        <ele>2238</ele>
        <time>2022-08-27T06:47:18Z</time>
      </trkpt>
      <trkpt lat="45.79247" lon="6.93736">
        <ele>2238</ele>
        <time>2022-08-27T06:47:20Z</time>
      </trkpt>
      <trkpt lat="45.79245" lon="6.93737">
        <ele>2238</ele>
        <time>2022-08-27T06:47:21Z</time>
      </trkpt>
      <trkpt lat="45.79243" lon="6.93737">
        <ele>2237</ele>
        <time>2022-08-27T06:47:22Z</time>
      </trkpt>
      <trkpt lat="45.7924" lon="6.93738">
        <ele>2237</ele>
        <time>2022-08-27T06:47:23Z</time>
      </trkpt>
      <trkpt lat="45.79237" lon="6.9374">
        <ele>2237</ele>
        <time>2022-08-27T06:47:24Z</time>
      </trkpt>
      <trkpt lat="45.79236" lon="6.9374">
        <ele>2236</ele>
        <time>2022-08-27T06:47:25Z</time>
      </trkpt>
      <trkpt lat="45.79234" lon="6.93742">
        <ele>2236</ele>
        <time>2022-08-27T06:47:26Z</time>
      </trkpt>
      <trkpt lat="45.7923" lon="6.93745">
        <ele>2234</ele>
        <time>2022-08-27T06:47:28Z</time>
      </trkpt>
      <trkpt lat="45.79228" lon="6.93746">
        <ele>2234</ele>
        <time>2022-08-27T06:47:29Z</time>
      </trkpt>
      <trkpt lat="45.79226" lon="6.93749">
        <ele>2233</ele>
        <time>2022-08-27T06:47:30Z</time>
      </trkpt>
      <trkpt lat="45.79225" lon="6.9375">
        <ele>2233</ele>
        <time>2022-08-27T06:47:31Z</time>
      </trkpt>
      <trkpt lat="45.79223" lon="6.93752">
        <ele>2233</ele>
        <time>2022-08-27T06:47:32Z</time>
      </trkpt>
      <trkpt lat="45.79221" lon="6.93754">
        <ele>2233</ele>
        <time>2022-08-27T06:47:33Z</time>
      </trkpt>
      <trkpt lat="45.79218" lon="6.93756">
        <ele>2232</ele>
        <time>2022-08-27T06:47:35Z</time>
      </trkpt>
      <trkpt lat="45.79215" lon="6.93758">
        <ele>2232</ele>
        <time>2022-08-27T06:47:37Z</time>
      </trkpt>
      <trkpt lat="45.79212" lon="6.93759">
        <ele>2231</ele>
        <time>2022-08-27T06:47:39Z</time>
      </trkpt>
      <trkpt lat="45.7921" lon="6.9376">
        <ele>2231</ele>
        <time>2022-08-27T06:47:40Z</time>
      </trkpt>
      <trkpt lat="45.79208" lon="6.9376">
        <ele>2230</ele>
        <time>2022-08-27T06:47:41Z</time>
      </trkpt>
      <trkpt lat="45.79207" lon="6.9376">
        <ele>2230</ele>
        <time>2022-08-27T06:47:42Z</time>
      </trkpt>
      <trkpt lat="45.79203" lon="6.93761">
        <ele>2230</ele>
        <time>2022-08-27T06:47:43Z</time>
      </trkpt>
      <trkpt lat="45.79202" lon="6.93761">
        <ele>2230</ele>
        <time>2022-08-27T06:47:44Z</time>
      </trkpt>
      <trkpt lat="45.79199" lon="6.93761">
        <ele>2230</ele>
        <time>2022-08-27T06:47:45Z</time>
      </trkpt>
      <trkpt lat="45.79198" lon="6.93761">
        <ele>2228</ele>
        <time>2022-08-27T06:47:46Z</time>
      </trkpt>
      <trkpt lat="45.79195" lon="6.93762">
        <ele>2227</ele>
        <time>2022-08-27T06:47:47Z</time>
      </trkpt>
      <trkpt lat="45.79193" lon="6.93762">
        <ele>2226</ele>
        <time>2022-08-27T06:47:48Z</time>
      </trkpt>
      <trkpt lat="45.79191" lon="6.93763">
        <ele>2225</ele>
        <time>2022-08-27T06:47:49Z</time>
      </trkpt>
      <trkpt lat="45.79185" lon="6.93764">
        <ele>2224</ele>
        <time>2022-08-27T06:47:51Z</time>
      </trkpt>
      <trkpt lat="45.79184" lon="6.93765">
        <ele>2223</ele>
        <time>2022-08-27T06:47:52Z</time>
      </trkpt>
      <trkpt lat="45.79182" lon="6.93765">
        <ele>2223</ele>
        <time>2022-08-27T06:47:53Z</time>
      </trkpt>
      <trkpt lat="45.79179" lon="6.93766">
        <ele>2222</ele>
        <time>2022-08-27T06:47:54Z</time>
      </trkpt>
      <trkpt lat="45.79177" lon="6.93766">
        <ele>2222</ele>
        <time>2022-08-27T06:47:55Z</time>
      </trkpt>
      <trkpt lat="45.79173" lon="6.93767">
        <ele>2222</ele>
        <time>2022-08-27T06:47:56Z</time>
      </trkpt>
      <trkpt lat="45.79172" lon="6.93767">
        <ele>2220</ele>
        <time>2022-08-27T06:47:57Z</time>
      </trkpt>
      <trkpt lat="45.79169" lon="6.93768">
        <ele>2220</ele>
        <time>2022-08-27T06:47:58Z</time>
      </trkpt>
      <trkpt lat="45.79167" lon="6.93768">
        <ele>2219</ele>
        <time>2022-08-27T06:47:59Z</time>
      </trkpt>
      <trkpt lat="45.79165" lon="6.93768">
        <ele>2218</ele>
        <time>2022-08-27T06:48:00Z</time>
      </trkpt>
      <trkpt lat="45.79163" lon="6.9377">
        <ele>2218</ele>
        <time>2022-08-27T06:48:01Z</time>
      </trkpt>
      <trkpt lat="45.79161" lon="6.93773">
        <ele>2218</ele>
        <time>2022-08-27T06:48:03Z</time>
      </trkpt>
      <trkpt lat="45.79161" lon="6.93778">
        <ele>2217</ele>
        <time>2022-08-27T06:48:05Z</time>
      </trkpt>
      <trkpt lat="45.79162" lon="6.93782">
        <ele>2217</ele>
        <time>2022-08-27T06:48:06Z</time>
      </trkpt>
      <trkpt lat="45.79162" lon="6.93783">
        <ele>2216</ele>
        <time>2022-08-27T06:48:07Z</time>
      </trkpt>
      <trkpt lat="45.79162" lon="6.93786">
        <ele>2216</ele>
        <time>2022-08-27T06:48:08Z</time>
      </trkpt>
      <trkpt lat="45.79162" lon="6.93789">
        <ele>2216</ele>
        <time>2022-08-27T06:48:09Z</time>
      </trkpt>
      <trkpt lat="45.79163" lon="6.93792">
        <ele>2215</ele>
        <time>2022-08-27T06:48:10Z</time>
      </trkpt>
      <trkpt lat="45.79165" lon="6.93796">
        <ele>2215</ele>
        <time>2022-08-27T06:48:11Z</time>
      </trkpt>
      <trkpt lat="45.79166" lon="6.93797">
        <ele>2214</ele>
        <time>2022-08-27T06:48:12Z</time>
      </trkpt>
      <trkpt lat="45.79168" lon="6.93799">
        <ele>2214</ele>
        <time>2022-08-27T06:48:13Z</time>
      </trkpt>
      <trkpt lat="45.79169" lon="6.93801">
        <ele>2213</ele>
        <time>2022-08-27T06:48:14Z</time>
      </trkpt>
      <trkpt lat="45.79171" lon="6.93805">
        <ele>2213</ele>
        <time>2022-08-27T06:48:15Z</time>
      </trkpt>
      <trkpt lat="45.79172" lon="6.93806">
        <ele>2212</ele>
        <time>2022-08-27T06:48:16Z</time>
      </trkpt>
      <trkpt lat="45.79173" lon="6.93809">
        <ele>2212</ele>
        <time>2022-08-27T06:48:17Z</time>
      </trkpt>
      <trkpt lat="45.79175" lon="6.93811">
        <ele>2211</ele>
        <time>2022-08-27T06:48:18Z</time>
      </trkpt>
      <trkpt lat="45.79176" lon="6.93814">
        <ele>2211</ele>
        <time>2022-08-27T06:48:19Z</time>
      </trkpt>
      <trkpt lat="45.79179" lon="6.9382">
        <ele>2210</ele>
        <time>2022-08-27T06:48:21Z</time>
      </trkpt>
      <trkpt lat="45.7918" lon="6.93821">
        <ele>2210</ele>
        <time>2022-08-27T06:48:22Z</time>
      </trkpt>
      <trkpt lat="45.79183" lon="6.93825">
        <ele>2209</ele>
        <time>2022-08-27T06:48:24Z</time>
      </trkpt>
      <trkpt lat="45.79186" lon="6.93828">
        <ele>2209</ele>
        <time>2022-08-27T06:48:25Z</time>
      </trkpt>
      <trkpt lat="45.79187" lon="6.9383">
        <ele>2208</ele>
        <time>2022-08-27T06:48:26Z</time>
      </trkpt>
      <trkpt lat="45.79189" lon="6.93832">
        <ele>2208</ele>
        <time>2022-08-27T06:48:27Z</time>
      </trkpt>
      <trkpt lat="45.7919" lon="6.93834">
        <ele>2207</ele>
        <time>2022-08-27T06:48:28Z</time>
      </trkpt>
      <trkpt lat="45.79192" lon="6.93836">
        <ele>2206</ele>
        <time>2022-08-27T06:48:29Z</time>
      </trkpt>
      <trkpt lat="45.79194" lon="6.93838">
        <ele>2206</ele>
        <time>2022-08-27T06:48:30Z</time>
      </trkpt>
      <trkpt lat="45.79195" lon="6.9384">
        <ele>2205</ele>
        <time>2022-08-27T06:48:31Z</time>
      </trkpt>
      <trkpt lat="45.79197" lon="6.93842">
        <ele>2205</ele>
        <time>2022-08-27T06:48:32Z</time>
      </trkpt>
      <trkpt lat="45.79198" lon="6.93844">
        <ele>2205</ele>
        <time>2022-08-27T06:48:33Z</time>
      </trkpt>
      <trkpt lat="45.79199" lon="6.93846">
        <ele>2204</ele>
        <time>2022-08-27T06:48:34Z</time>
      </trkpt>
      <trkpt lat="45.79201" lon="6.9385">
        <ele>2204</ele>
        <time>2022-08-27T06:48:35Z</time>
      </trkpt>
      <trkpt lat="45.79202" lon="6.93851">
        <ele>2204</ele>
        <time>2022-08-27T06:48:36Z</time>
      </trkpt>
      <trkpt lat="45.79203" lon="6.93853">
        <ele>2204</ele>
        <time>2022-08-27T06:48:37Z</time>
      </trkpt>
      <trkpt lat="45.79204" lon="6.93856">
        <ele>2203</ele>
        <time>2022-08-27T06:48:38Z</time>
      </trkpt>
      <trkpt lat="45.79205" lon="6.93858">
        <ele>2203</ele>
        <time>2022-08-27T06:48:39Z</time>
      </trkpt>
      <trkpt lat="45.79207" lon="6.93861">
        <ele>2203</ele>
        <time>2022-08-27T06:48:40Z</time>
      </trkpt>
      <trkpt lat="45.79208" lon="6.93864">
        <ele>2202</ele>
        <time>2022-08-27T06:48:41Z</time>
      </trkpt>
      <trkpt lat="45.79209" lon="6.93867">
        <ele>2201</ele>
        <time>2022-08-27T06:48:42Z</time>
      </trkpt>
      <trkpt lat="45.7921" lon="6.93869">
        <ele>2200</ele>
        <time>2022-08-27T06:48:43Z</time>
      </trkpt>
      <trkpt lat="45.79211" lon="6.93872">
        <ele>2199</ele>
        <time>2022-08-27T06:48:44Z</time>
      </trkpt>
      <trkpt lat="45.79213" lon="6.93875">
        <ele>2199</ele>
        <time>2022-08-27T06:48:45Z</time>
      </trkpt>
      <trkpt lat="45.79214" lon="6.93877">
        <ele>2199</ele>
        <time>2022-08-27T06:48:46Z</time>
      </trkpt>
      <trkpt lat="45.79215" lon="6.9388">
        <ele>2199</ele>
        <time>2022-08-27T06:48:47Z</time>
      </trkpt>
      <trkpt lat="45.79216" lon="6.93882">
        <ele>2199</ele>
        <time>2022-08-27T06:48:48Z</time>
      </trkpt>
      <trkpt lat="45.79216" lon="6.93885">
        <ele>2199</ele>
        <time>2022-08-27T06:48:49Z</time>
      </trkpt>
      <trkpt lat="45.79218" lon="6.9389">
        <ele>2198</ele>
        <time>2022-08-27T06:48:51Z</time>
      </trkpt>
      <trkpt lat="45.79219" lon="6.93893">
        <ele>2197</ele>
        <time>2022-08-27T06:48:52Z</time>
      </trkpt>
      <trkpt lat="45.7922" lon="6.93895">
        <ele>2197</ele>
        <time>2022-08-27T06:48:53Z</time>
      </trkpt>
      <trkpt lat="45.79221" lon="6.93898">
        <ele>2196</ele>
        <time>2022-08-27T06:48:54Z</time>
      </trkpt>
      <trkpt lat="45.79222" lon="6.939">
        <ele>2196</ele>
        <time>2022-08-27T06:48:56Z</time>
      </trkpt>
      <trkpt lat="45.79223" lon="6.93905">
        <ele>2196</ele>
        <time>2022-08-27T06:48:57Z</time>
      </trkpt>
      <trkpt lat="45.79223" lon="6.93907">
        <ele>2194</ele>
        <time>2022-08-27T06:48:58Z</time>
      </trkpt>
      <trkpt lat="45.79224" lon="6.9391">
        <ele>2194</ele>
        <time>2022-08-27T06:48:59Z</time>
      </trkpt>
      <trkpt lat="45.79224" lon="6.93913">
        <ele>2193</ele>
        <time>2022-08-27T06:49:00Z</time>
      </trkpt>
      <trkpt lat="45.79224" lon="6.93918">
        <ele>2192</ele>
        <time>2022-08-27T06:49:02Z</time>
      </trkpt>
      <trkpt lat="45.79224" lon="6.93923">
        <ele>2191</ele>
        <time>2022-08-27T06:49:04Z</time>
      </trkpt>
      <trkpt lat="45.79224" lon="6.93926">
        <ele>2190</ele>
        <time>2022-08-27T06:49:05Z</time>
      </trkpt>
      <trkpt lat="45.79224" lon="6.93929">
        <ele>2190</ele>
        <time>2022-08-27T06:49:06Z</time>
      </trkpt>
      <trkpt lat="45.79224" lon="6.93933">
        <ele>2190</ele>
        <time>2022-08-27T06:49:07Z</time>
      </trkpt>
      <trkpt lat="45.79223" lon="6.93935">
        <ele>2188</ele>
        <time>2022-08-27T06:49:08Z</time>
      </trkpt>
      <trkpt lat="45.79223" lon="6.93938">
        <ele>2188</ele>
        <time>2022-08-27T06:49:09Z</time>
      </trkpt>
      <trkpt lat="45.79222" lon="6.93942">
        <ele>2188</ele>
        <time>2022-08-27T06:49:10Z</time>
      </trkpt>
      <trkpt lat="45.79222" lon="6.93945">
        <ele>2187</ele>
        <time>2022-08-27T06:49:11Z</time>
      </trkpt>
      <trkpt lat="45.79222" lon="6.93951">
        <ele>2186</ele>
        <time>2022-08-27T06:49:13Z</time>
      </trkpt>
      <trkpt lat="45.79222" lon="6.93955">
        <ele>2186</ele>
        <time>2022-08-27T06:49:14Z</time>
      </trkpt>
      <trkpt lat="45.79221" lon="6.9396">
        <ele>2186</ele>
        <time>2022-08-27T06:49:15Z</time>
      </trkpt>
      <trkpt lat="45.79221" lon="6.93961">
        <ele>2185</ele>
        <time>2022-08-27T06:49:16Z</time>
      </trkpt>
      <trkpt lat="45.7922" lon="6.93969">
        <ele>2184</ele>
        <time>2022-08-27T06:49:18Z</time>
      </trkpt>
      <trkpt lat="45.79219" lon="6.9397">
        <ele>2184</ele>
        <time>2022-08-27T06:49:19Z</time>
      </trkpt>
      <trkpt lat="45.79218" lon="6.93975">
        <ele>2184</ele>
        <time>2022-08-27T06:49:20Z</time>
      </trkpt>
      <trkpt lat="45.79218" lon="6.93977">
        <ele>2182</ele>
        <time>2022-08-27T06:49:21Z</time>
      </trkpt>
      <trkpt lat="45.79217" lon="6.93982">
        <ele>2182</ele>
        <time>2022-08-27T06:49:22Z</time>
      </trkpt>
      <trkpt lat="45.79217" lon="6.93984">
        <ele>2182</ele>
        <time>2022-08-27T06:49:23Z</time>
      </trkpt>
      <trkpt lat="45.79216" lon="6.93989">
        <ele>2182</ele>
        <time>2022-08-27T06:49:24Z</time>
      </trkpt>
      <trkpt lat="45.79216" lon="6.9399">
        <ele>2181</ele>
        <time>2022-08-27T06:49:25Z</time>
      </trkpt>
      <trkpt lat="45.79215" lon="6.93993">
        <ele>2181</ele>
        <time>2022-08-27T06:49:26Z</time>
      </trkpt>
      <trkpt lat="45.79215" lon="6.93997">
        <ele>2181</ele>
        <time>2022-08-27T06:49:27Z</time>
      </trkpt>
      <trkpt lat="45.79214" lon="6.94">
        <ele>2181</ele>
        <time>2022-08-27T06:49:28Z</time>
      </trkpt>
      <trkpt lat="45.79213" lon="6.94005">
        <ele>2181</ele>
        <time>2022-08-27T06:49:29Z</time>
      </trkpt>
      <trkpt lat="45.79213" lon="6.94006">
        <ele>2180</ele>
        <time>2022-08-27T06:49:30Z</time>
      </trkpt>
      <trkpt lat="45.79212" lon="6.94009">
        <ele>2179</ele>
        <time>2022-08-27T06:49:31Z</time>
      </trkpt>
      <trkpt lat="45.7921" lon="6.94012">
        <ele>2179</ele>
        <time>2022-08-27T06:49:32Z</time>
      </trkpt>
      <trkpt lat="45.79209" lon="6.94015">
        <ele>2179</ele>
        <time>2022-08-27T06:49:33Z</time>
      </trkpt>
      <trkpt lat="45.79206" lon="6.94021">
        <ele>2178</ele>
        <time>2022-08-27T06:49:35Z</time>
      </trkpt>
      <trkpt lat="45.79206" lon="6.94024">
        <ele>2177</ele>
        <time>2022-08-27T06:49:36Z</time>
      </trkpt>
      <trkpt lat="45.79205" lon="6.94029">
        <ele>2177</ele>
        <time>2022-08-27T06:49:37Z</time>
      </trkpt>
      <trkpt lat="45.79205" lon="6.9403">
        <ele>2177</ele>
        <time>2022-08-27T06:49:38Z</time>
      </trkpt>
      <trkpt lat="45.79203" lon="6.94036">
        <ele>2176</ele>
        <time>2022-08-27T06:49:40Z</time>
      </trkpt>
      <trkpt lat="45.79202" lon="6.94038">
        <ele>2175</ele>
        <time>2022-08-27T06:49:41Z</time>
      </trkpt>
      <trkpt lat="45.79202" lon="6.94041">
        <ele>2175</ele>
        <time>2022-08-27T06:49:42Z</time>
      </trkpt>
      <trkpt lat="45.79201" lon="6.94044">
        <ele>2174</ele>
        <time>2022-08-27T06:49:43Z</time>
      </trkpt>
      <trkpt lat="45.79201" lon="6.94047">
        <ele>2174</ele>
        <time>2022-08-27T06:49:44Z</time>
      </trkpt>
      <trkpt lat="45.79201" lon="6.9405">
        <ele>2172</ele>
        <time>2022-08-27T06:49:45Z</time>
      </trkpt>
      <trkpt lat="45.79201" lon="6.94053">
        <ele>2172</ele>
        <time>2022-08-27T06:49:46Z</time>
      </trkpt>
      <trkpt lat="45.79201" lon="6.94056">
        <ele>2172</ele>
        <time>2022-08-27T06:49:47Z</time>
      </trkpt>
      <trkpt lat="45.792" lon="6.94059">
        <ele>2172</ele>
        <time>2022-08-27T06:49:48Z</time>
      </trkpt>
      <trkpt lat="45.79199" lon="6.94061">
        <ele>2172</ele>
        <time>2022-08-27T06:49:49Z</time>
      </trkpt>
      <trkpt lat="45.79197" lon="6.9406">
        <ele>2171</ele>
        <time>2022-08-27T06:49:50Z</time>
      </trkpt>
      <trkpt lat="45.79196" lon="6.9406">
        <ele>2171</ele>
        <time>2022-08-27T06:49:51Z</time>
      </trkpt>
      <trkpt lat="45.79195" lon="6.94059">
        <ele>2171</ele>
        <time>2022-08-27T06:49:52Z</time>
      </trkpt>
      <trkpt lat="45.79194" lon="6.94058">
        <ele>2168</ele>
        <time>2022-08-27T06:49:53Z</time>
      </trkpt>
      <trkpt lat="45.79191" lon="6.94056">
        <ele>2168</ele>
        <time>2022-08-27T06:49:54Z</time>
      </trkpt>
      <trkpt lat="45.79189" lon="6.94054">
        <ele>2168</ele>
        <time>2022-08-27T06:49:55Z</time>
      </trkpt>
      <trkpt lat="45.79186" lon="6.94051">
        <ele>2168</ele>
        <time>2022-08-27T06:49:56Z</time>
      </trkpt>
      <trkpt lat="45.79185" lon="6.9405">
        <ele>2167</ele>
        <time>2022-08-27T06:49:57Z</time>
      </trkpt>
      <trkpt lat="45.79182" lon="6.94047">
        <ele>2167</ele>
        <time>2022-08-27T06:49:58Z</time>
      </trkpt>
      <trkpt lat="45.79181" lon="6.94046">
        <ele>2167</ele>
        <time>2022-08-27T06:49:59Z</time>
      </trkpt>
      <trkpt lat="45.79178" lon="6.94043">
        <ele>2167</ele>
        <time>2022-08-27T06:50:00Z</time>
      </trkpt>
      <trkpt lat="45.79177" lon="6.94042">
        <ele>2167</ele>
        <time>2022-08-27T06:50:01Z</time>
      </trkpt>
      <trkpt lat="45.79175" lon="6.94041">
        <ele>2167</ele>
        <time>2022-08-27T06:50:02Z</time>
      </trkpt>
      <trkpt lat="45.79173" lon="6.94038">
        <ele>2167</ele>
        <time>2022-08-27T06:50:03Z</time>
      </trkpt>
      <trkpt lat="45.79172" lon="6.94036">
        <ele>2166</ele>
        <time>2022-08-27T06:50:04Z</time>
      </trkpt>
      <trkpt lat="45.7917" lon="6.94035">
        <ele>2166</ele>
        <time>2022-08-27T06:50:05Z</time>
      </trkpt>
      <trkpt lat="45.79169" lon="6.94033">
        <ele>2165</ele>
        <time>2022-08-27T06:50:06Z</time>
      </trkpt>
      <trkpt lat="45.79167" lon="6.94032">
        <ele>2165</ele>
        <time>2022-08-27T06:50:07Z</time>
      </trkpt>
      <trkpt lat="45.79165" lon="6.9403">
        <ele>2165</ele>
        <time>2022-08-27T06:50:08Z</time>
      </trkpt>
      <trkpt lat="45.79164" lon="6.94028">
        <ele>2164</ele>
        <time>2022-08-27T06:50:09Z</time>
      </trkpt>
      <trkpt lat="45.79159" lon="6.94025">
        <ele>2164</ele>
        <time>2022-08-27T06:50:11Z</time>
      </trkpt>
      <trkpt lat="45.79158" lon="6.94025">
        <ele>2164</ele>
        <time>2022-08-27T06:50:12Z</time>
      </trkpt>
      <trkpt lat="45.79156" lon="6.94024">
        <ele>2163</ele>
        <time>2022-08-27T06:50:13Z</time>
      </trkpt>
      <trkpt lat="45.79154" lon="6.94023">
        <ele>2163</ele>
        <time>2022-08-27T06:50:14Z</time>
      </trkpt>
      <trkpt lat="45.79152" lon="6.94023">
        <ele>2163</ele>
        <time>2022-08-27T06:50:15Z</time>
      </trkpt>
      <trkpt lat="45.7915" lon="6.94023">
        <ele>2163</ele>
        <time>2022-08-27T06:50:16Z</time>
      </trkpt>
      <trkpt lat="45.79145" lon="6.94025">
        <ele>2161</ele>
        <time>2022-08-27T06:50:18Z</time>
      </trkpt>
      <trkpt lat="45.79142" lon="6.94026">
        <ele>2161</ele>
        <time>2022-08-27T06:50:19Z</time>
      </trkpt>
      <trkpt lat="45.79141" lon="6.94026">
        <ele>2160</ele>
        <time>2022-08-27T06:50:20Z</time>
      </trkpt>
      <trkpt lat="45.79138" lon="6.94027">
        <ele>2159</ele>
        <time>2022-08-27T06:50:21Z</time>
      </trkpt>
      <trkpt lat="45.79135" lon="6.94027">
        <ele>2159</ele>
        <time>2022-08-27T06:50:22Z</time>
      </trkpt>
      <trkpt lat="45.79134" lon="6.94028">
        <ele>2159</ele>
        <time>2022-08-27T06:50:23Z</time>
      </trkpt>
      <trkpt lat="45.79131" lon="6.94028">
        <ele>2159</ele>
        <time>2022-08-27T06:50:24Z</time>
      </trkpt>
      <trkpt lat="45.79129" lon="6.94028">
        <ele>2158</ele>
        <time>2022-08-27T06:50:25Z</time>
      </trkpt>
      <trkpt lat="45.79127" lon="6.94029">
        <ele>2158</ele>
        <time>2022-08-27T06:50:26Z</time>
      </trkpt>
      <trkpt lat="45.79124" lon="6.9403">
        <ele>2158</ele>
        <time>2022-08-27T06:50:27Z</time>
      </trkpt>
      <trkpt lat="45.79123" lon="6.9403">
        <ele>2158</ele>
        <time>2022-08-27T06:50:28Z</time>
      </trkpt>
      <trkpt lat="45.79118" lon="6.94029">
        <ele>2157</ele>
        <time>2022-08-27T06:50:30Z</time>
      </trkpt>
      <trkpt lat="45.79116" lon="6.94028">
        <ele>2157</ele>
        <time>2022-08-27T06:50:31Z</time>
      </trkpt>
      <trkpt lat="45.79114" lon="6.94026">
        <ele>2156</ele>
        <time>2022-08-27T06:50:32Z</time>
      </trkpt>
      <trkpt lat="45.79112" lon="6.94024">
        <ele>2156</ele>
        <time>2022-08-27T06:50:33Z</time>
      </trkpt>
      <trkpt lat="45.7911" lon="6.94022">
        <ele>2156</ele>
        <time>2022-08-27T06:50:34Z</time>
      </trkpt>
      <trkpt lat="45.79109" lon="6.9402">
        <ele>2156</ele>
        <time>2022-08-27T06:50:35Z</time>
      </trkpt>
      <trkpt lat="45.79106" lon="6.94017">
        <ele>2156</ele>
        <time>2022-08-27T06:50:36Z</time>
      </trkpt>
      <trkpt lat="45.79106" lon="6.94016">
        <ele>2155</ele>
        <time>2022-08-27T06:50:37Z</time>
      </trkpt>
      <trkpt lat="45.79103" lon="6.94012">
        <ele>2155</ele>
        <time>2022-08-27T06:50:38Z</time>
      </trkpt>
      <trkpt lat="45.79103" lon="6.94011">
        <ele>2154</ele>
        <time>2022-08-27T06:50:39Z</time>
      </trkpt>
      <trkpt lat="45.79101" lon="6.94008">
        <ele>2154</ele>
        <time>2022-08-27T06:50:40Z</time>
      </trkpt>
      <trkpt lat="45.791" lon="6.94006">
        <ele>2154</ele>
        <time>2022-08-27T06:50:41Z</time>
      </trkpt>
      <trkpt lat="45.79099" lon="6.94003">
        <ele>2154</ele>
        <time>2022-08-27T06:50:42Z</time>
      </trkpt>
      <trkpt lat="45.79097" lon="6.94001">
        <ele>2154</ele>
        <time>2022-08-27T06:50:43Z</time>
      </trkpt>
      <trkpt lat="45.79096" lon="6.93998">
        <ele>2152</ele>
        <time>2022-08-27T06:50:44Z</time>
      </trkpt>
      <trkpt lat="45.79095" lon="6.93996">
        <ele>2152</ele>
        <time>2022-08-27T06:50:45Z</time>
      </trkpt>
      <trkpt lat="45.79093" lon="6.93991">
        <ele>2152</ele>
        <time>2022-08-27T06:50:46Z</time>
      </trkpt>
      <trkpt lat="45.79093" lon="6.9399">
        <ele>2151</ele>
        <time>2022-08-27T06:50:47Z</time>
      </trkpt>
      <trkpt lat="45.7909" lon="6.93985">
        <ele>2150</ele>
        <time>2022-08-27T06:50:49Z</time>
      </trkpt>
      <trkpt lat="45.79089" lon="6.93983">
        <ele>2149</ele>
        <time>2022-08-27T06:50:50Z</time>
      </trkpt>
      <trkpt lat="45.79088" lon="6.9398">
        <ele>2149</ele>
        <time>2022-08-27T06:50:51Z</time>
      </trkpt>
      <trkpt lat="45.79087" lon="6.93978">
        <ele>2148</ele>
        <time>2022-08-27T06:50:52Z</time>
      </trkpt>
      <trkpt lat="45.79083" lon="6.93972">
        <ele>2148</ele>
        <time>2022-08-27T06:50:54Z</time>
      </trkpt>
      <trkpt lat="45.79082" lon="6.9397">
        <ele>2148</ele>
        <time>2022-08-27T06:50:55Z</time>
      </trkpt>
      <trkpt lat="45.79081" lon="6.93968">
        <ele>2146</ele>
        <time>2022-08-27T06:50:56Z</time>
      </trkpt>
      <trkpt lat="45.79079" lon="6.93966">
        <ele>2145</ele>
        <time>2022-08-27T06:50:57Z</time>
      </trkpt>
      <trkpt lat="45.79078" lon="6.93964">
        <ele>2145</ele>
        <time>2022-08-27T06:50:58Z</time>
      </trkpt>
      <trkpt lat="45.79076" lon="6.93962">
        <ele>2145</ele>
        <time>2022-08-27T06:50:59Z</time>
      </trkpt>
      <trkpt lat="45.79074" lon="6.93961">
        <ele>2145</ele>
        <time>2022-08-27T06:51:00Z</time>
      </trkpt>
      <trkpt lat="45.79071" lon="6.93958">
        <ele>2145</ele>
        <time>2022-08-27T06:51:01Z</time>
      </trkpt>
      <trkpt lat="45.7907" lon="6.93957">
        <ele>2144</ele>
        <time>2022-08-27T06:51:02Z</time>
      </trkpt>
      <trkpt lat="45.79068" lon="6.93955">
        <ele>2144</ele>
        <time>2022-08-27T06:51:03Z</time>
      </trkpt>
      <trkpt lat="45.79066" lon="6.93953">
        <ele>2144</ele>
        <time>2022-08-27T06:51:04Z</time>
      </trkpt>
      <trkpt lat="45.79064" lon="6.93951">
        <ele>2144</ele>
        <time>2022-08-27T06:51:05Z</time>
      </trkpt>
      <trkpt lat="45.7906" lon="6.93949">
        <ele>2144</ele>
        <time>2022-08-27T06:51:07Z</time>
      </trkpt>
      <trkpt lat="45.79058" lon="6.93948">
        <ele>2142</ele>
        <time>2022-08-27T06:51:08Z</time>
      </trkpt>
      <trkpt lat="45.79055" lon="6.93948">
        <ele>2142</ele>
        <time>2022-08-27T06:51:09Z</time>
      </trkpt>
      <trkpt lat="45.79054" lon="6.93948">
        <ele>2142</ele>
        <time>2022-08-27T06:51:10Z</time>
      </trkpt>
      <trkpt lat="45.79052" lon="6.93948">
        <ele>2142</ele>
        <time>2022-08-27T06:51:11Z</time>
      </trkpt>
      <trkpt lat="45.7905" lon="6.93949">
        <ele>2142</ele>
        <time>2022-08-27T06:51:12Z</time>
      </trkpt>
      <trkpt lat="45.79048" lon="6.9395">
        <ele>2142</ele>
        <time>2022-08-27T06:51:13Z</time>
      </trkpt>
      <trkpt lat="45.79045" lon="6.93955">
        <ele>2142</ele>
        <time>2022-08-27T06:51:15Z</time>
      </trkpt>
      <trkpt lat="45.79043" lon="6.93959">
        <ele>2142</ele>
        <time>2022-08-27T06:51:16Z</time>
      </trkpt>
      <trkpt lat="45.79043" lon="6.93961">
        <ele>2141</ele>
        <time>2022-08-27T06:51:17Z</time>
      </trkpt>
      <trkpt lat="45.79044" lon="6.93965">
        <ele>2141</ele>
        <time>2022-08-27T06:51:18Z</time>
      </trkpt>
      <trkpt lat="45.79044" lon="6.93967">
        <ele>2140</ele>
        <time>2022-08-27T06:51:19Z</time>
      </trkpt>
      <trkpt lat="45.79045" lon="6.9397">
        <ele>2139</ele>
        <time>2022-08-27T06:51:20Z</time>
      </trkpt>
      <trkpt lat="45.79046" lon="6.93973">
        <ele>2138</ele>
        <time>2022-08-27T06:51:21Z</time>
      </trkpt>
      <trkpt lat="45.79047" lon="6.93975">
        <ele>2138</ele>
        <time>2022-08-27T06:51:22Z</time>
      </trkpt>
      <trkpt lat="45.7905" lon="6.9398">
        <ele>2137</ele>
        <time>2022-08-27T06:51:24Z</time>
      </trkpt>
      <trkpt lat="45.79052" lon="6.93983">
        <ele>2137</ele>
        <time>2022-08-27T06:51:25Z</time>
      </trkpt>
      <trkpt lat="45.79054" lon="6.93987">
        <ele>2137</ele>
        <time>2022-08-27T06:51:26Z</time>
      </trkpt>
      <trkpt lat="45.79055" lon="6.93988">
        <ele>2136</ele>
        <time>2022-08-27T06:51:27Z</time>
      </trkpt>
      <trkpt lat="45.79057" lon="6.93991">
        <ele>2136</ele>
        <time>2022-08-27T06:51:28Z</time>
      </trkpt>
      <trkpt lat="45.79058" lon="6.93992">
        <ele>2134</ele>
        <time>2022-08-27T06:51:29Z</time>
      </trkpt>
      <trkpt lat="45.79059" lon="6.93995">
        <ele>2134</ele>
        <time>2022-08-27T06:51:30Z</time>
      </trkpt>
      <trkpt lat="45.79061" lon="6.94001">
        <ele>2134</ele>
        <time>2022-08-27T06:51:32Z</time>
      </trkpt>
      <trkpt lat="45.79062" lon="6.94005">
        <ele>2134</ele>
        <time>2022-08-27T06:51:33Z</time>
      </trkpt>
      <trkpt lat="45.79062" lon="6.94006">
        <ele>2132</ele>
        <time>2022-08-27T06:51:34Z</time>
      </trkpt>
      <trkpt lat="45.79062" lon="6.94009">
        <ele>2132</ele>
        <time>2022-08-27T06:51:35Z</time>
      </trkpt>
      <trkpt lat="45.79063" lon="6.94015">
        <ele>2131</ele>
        <time>2022-08-27T06:51:37Z</time>
      </trkpt>
      <trkpt lat="45.79062" lon="6.9402">
        <ele>2131</ele>
        <time>2022-08-27T06:51:39Z</time>
      </trkpt>
      <trkpt lat="45.79062" lon="6.94024">
        <ele>2131</ele>
        <time>2022-08-27T06:51:40Z</time>
      </trkpt>
      <trkpt lat="45.79062" lon="6.94025">
        <ele>2130</ele>
        <time>2022-08-27T06:51:41Z</time>
      </trkpt>
      <trkpt lat="45.79062" lon="6.94028">
        <ele>2130</ele>
        <time>2022-08-27T06:51:42Z</time>
      </trkpt>
      <trkpt lat="45.79061" lon="6.9403">
        <ele>2129</ele>
        <time>2022-08-27T06:51:43Z</time>
      </trkpt>
      <trkpt lat="45.79061" lon="6.94033">
        <ele>2128</ele>
        <time>2022-08-27T06:51:44Z</time>
      </trkpt>
      <trkpt lat="45.79061" lon="6.94036">
        <ele>2128</ele>
        <time>2022-08-27T06:51:45Z</time>
      </trkpt>
      <trkpt lat="45.79061" lon="6.94039">
        <ele>2128</ele>
        <time>2022-08-27T06:51:46Z</time>
      </trkpt>
      <trkpt lat="45.79061" lon="6.94044">
        <ele>2127</ele>
        <time>2022-08-27T06:51:48Z</time>
      </trkpt>
      <trkpt lat="45.7906" lon="6.94047">
        <ele>2126</ele>
        <time>2022-08-27T06:51:49Z</time>
      </trkpt>
      <trkpt lat="45.7906" lon="6.9405">
        <ele>2126</ele>
        <time>2022-08-27T06:51:50Z</time>
      </trkpt>
      <trkpt lat="45.7906" lon="6.94053">
        <ele>2125</ele>
        <time>2022-08-27T06:51:51Z</time>
      </trkpt>
      <trkpt lat="45.79059" lon="6.94055">
        <ele>2125</ele>
        <time>2022-08-27T06:51:52Z</time>
      </trkpt>
      <trkpt lat="45.79058" lon="6.94058">
        <ele>2125</ele>
        <time>2022-08-27T06:51:53Z</time>
      </trkpt>
      <trkpt lat="45.79058" lon="6.94061">
        <ele>2125</ele>
        <time>2022-08-27T06:51:54Z</time>
      </trkpt>
      <trkpt lat="45.79057" lon="6.94064">
        <ele>2125</ele>
        <time>2022-08-27T06:51:55Z</time>
      </trkpt>
      <trkpt lat="45.79057" lon="6.94066">
        <ele>2124</ele>
        <time>2022-08-27T06:51:56Z</time>
      </trkpt>
      <trkpt lat="45.79055" lon="6.94072">
        <ele>2123</ele>
        <time>2022-08-27T06:51:58Z</time>
      </trkpt>
      <trkpt lat="45.79055" lon="6.94075">
        <ele>2122</ele>
        <time>2022-08-27T06:51:59Z</time>
      </trkpt>
      <trkpt lat="45.79054" lon="6.94077">
        <ele>2120</ele>
        <time>2022-08-27T06:52:00Z</time>
      </trkpt>
      <trkpt lat="45.79053" lon="6.9408">
        <ele>2120</ele>
        <time>2022-08-27T06:52:01Z</time>
      </trkpt>
      <trkpt lat="45.79052" lon="6.94085">
        <ele>2120</ele>
        <time>2022-08-27T06:52:03Z</time>
      </trkpt>
      <trkpt lat="45.79051" lon="6.94087">
        <ele>2120</ele>
        <time>2022-08-27T06:52:04Z</time>
      </trkpt>
      <trkpt lat="45.79051" lon="6.9409">
        <ele>2120</ele>
        <time>2022-08-27T06:52:05Z</time>
      </trkpt>
      <trkpt lat="45.79051" lon="6.94093">
        <ele>2119</ele>
        <time>2022-08-27T06:52:06Z</time>
      </trkpt>
      <trkpt lat="45.79051" lon="6.94095">
        <ele>2119</ele>
        <time>2022-08-27T06:52:07Z</time>
      </trkpt>
      <trkpt lat="45.79051" lon="6.94098">
        <ele>2116</ele>
        <time>2022-08-27T06:52:08Z</time>
      </trkpt>
      <trkpt lat="45.7905" lon="6.94102">
        <ele>2116</ele>
        <time>2022-08-27T06:52:09Z</time>
      </trkpt>
      <trkpt lat="45.7905" lon="6.94104">
        <ele>2116</ele>
        <time>2022-08-27T06:52:10Z</time>
      </trkpt>
      <trkpt lat="45.7905" lon="6.94109">
        <ele>2115</ele>
        <time>2022-08-27T06:52:12Z</time>
      </trkpt>
      <trkpt lat="45.7905" lon="6.94114">
        <ele>2115</ele>
        <time>2022-08-27T06:52:13Z</time>
      </trkpt>
      <trkpt lat="45.7905" lon="6.94115">
        <ele>2114</ele>
        <time>2022-08-27T06:52:14Z</time>
      </trkpt>
      <trkpt lat="45.79051" lon="6.94118">
        <ele>2114</ele>
        <time>2022-08-27T06:52:15Z</time>
      </trkpt>
      <trkpt lat="45.79052" lon="6.94121">
        <ele>2113</ele>
        <time>2022-08-27T06:52:16Z</time>
      </trkpt>
      <trkpt lat="45.79053" lon="6.94124">
        <ele>2113</ele>
        <time>2022-08-27T06:52:17Z</time>
      </trkpt>
      <trkpt lat="45.79054" lon="6.94129">
        <ele>2113</ele>
        <time>2022-08-27T06:52:18Z</time>
      </trkpt>
      <trkpt lat="45.79055" lon="6.9413">
        <ele>2113</ele>
        <time>2022-08-27T06:52:19Z</time>
      </trkpt>
      <trkpt lat="45.79056" lon="6.94133">
        <ele>2113</ele>
        <time>2022-08-27T06:52:20Z</time>
      </trkpt>
      <trkpt lat="45.79057" lon="6.94136">
        <ele>2113</ele>
        <time>2022-08-27T06:52:21Z</time>
      </trkpt>
      <trkpt lat="45.79059" lon="6.94139">
        <ele>2112</ele>
        <time>2022-08-27T06:52:22Z</time>
      </trkpt>
      <trkpt lat="45.79061" lon="6.94143">
        <ele>2112</ele>
        <time>2022-08-27T06:52:23Z</time>
      </trkpt>
      <trkpt lat="45.79062" lon="6.94144">
        <ele>2112</ele>
        <time>2022-08-27T06:52:24Z</time>
      </trkpt>
      <trkpt lat="45.79063" lon="6.94147">
        <ele>2111</ele>
        <time>2022-08-27T06:52:25Z</time>
      </trkpt>
      <trkpt lat="45.79065" lon="6.94149">
        <ele>2111</ele>
        <time>2022-08-27T06:52:26Z</time>
      </trkpt>
      <trkpt lat="45.79066" lon="6.94152">
        <ele>2111</ele>
        <time>2022-08-27T06:52:27Z</time>
      </trkpt>
      <trkpt lat="45.79068" lon="6.94157">
        <ele>2111</ele>
        <time>2022-08-27T06:52:28Z</time>
      </trkpt>
      <trkpt lat="45.79069" lon="6.94158">
        <ele>2110</ele>
        <time>2022-08-27T06:52:29Z</time>
      </trkpt>
      <trkpt lat="45.7907" lon="6.94161">
        <ele>2110</ele>
        <time>2022-08-27T06:52:30Z</time>
      </trkpt>
      <trkpt lat="45.79071" lon="6.94164">
        <ele>2108</ele>
        <time>2022-08-27T06:52:31Z</time>
      </trkpt>
      <trkpt lat="45.79072" lon="6.94167">
        <ele>2107</ele>
        <time>2022-08-27T06:52:32Z</time>
      </trkpt>
      <trkpt lat="45.79073" lon="6.94171">
        <ele>2107</ele>
        <time>2022-08-27T06:52:33Z</time>
      </trkpt>
      <trkpt lat="45.79073" lon="6.94177">
        <ele>2107</ele>
        <time>2022-08-27T06:52:35Z</time>
      </trkpt>
      <trkpt lat="45.79074" lon="6.9418">
        <ele>2107</ele>
        <time>2022-08-27T06:52:36Z</time>
      </trkpt>
      <trkpt lat="45.79074" lon="6.94184">
        <ele>2106</ele>
        <time>2022-08-27T06:52:37Z</time>
      </trkpt>
      <trkpt lat="45.79075" lon="6.94188">
        <ele>2106</ele>
        <time>2022-08-27T06:52:38Z</time>
      </trkpt>
      <trkpt lat="45.79075" lon="6.9419">
        <ele>2106</ele>
        <time>2022-08-27T06:52:39Z</time>
      </trkpt>
      <trkpt lat="45.79076" lon="6.94193">
        <ele>2106</ele>
        <time>2022-08-27T06:52:40Z</time>
      </trkpt>
      <trkpt lat="45.79076" lon="6.94196">
        <ele>2106</ele>
        <time>2022-08-27T06:52:41Z</time>
      </trkpt>
      <trkpt lat="45.79077" lon="6.94199">
        <ele>2106</ele>
        <time>2022-08-27T06:52:42Z</time>
      </trkpt>
      <trkpt lat="45.79078" lon="6.94204">
        <ele>2106</ele>
        <time>2022-08-27T06:52:43Z</time>
      </trkpt>
      <trkpt lat="45.79078" lon="6.94205">
        <ele>2106</ele>
        <time>2022-08-27T06:52:44Z</time>
      </trkpt>
      <trkpt lat="45.79078" lon="6.94209">
        <ele>2106</ele>
        <time>2022-08-27T06:52:45Z</time>
      </trkpt>
      <trkpt lat="45.79079" lon="6.94213">
        <ele>2106</ele>
        <time>2022-08-27T06:52:46Z</time>
      </trkpt>
      <trkpt lat="45.7908" lon="6.94215">
        <ele>2106</ele>
        <time>2022-08-27T06:52:47Z</time>
      </trkpt>
      <trkpt lat="45.7908" lon="6.94217">
        <ele>2105</ele>
        <time>2022-08-27T06:52:48Z</time>
      </trkpt>
      <trkpt lat="45.79081" lon="6.94221">
        <ele>2104</ele>
        <time>2022-08-27T06:52:49Z</time>
      </trkpt>
      <trkpt lat="45.79082" lon="6.94224">
        <ele>2104</ele>
        <time>2022-08-27T06:52:50Z</time>
      </trkpt>
      <trkpt lat="45.79084" lon="6.94228">
        <ele>2104</ele>
        <time>2022-08-27T06:52:51Z</time>
      </trkpt>
      <trkpt lat="45.79084" lon="6.9423">
        <ele>2104</ele>
        <time>2022-08-27T06:52:52Z</time>
      </trkpt>
      <trkpt lat="45.79086" lon="6.94233">
        <ele>2104</ele>
        <time>2022-08-27T06:52:53Z</time>
      </trkpt>
      <trkpt lat="45.79087" lon="6.94236">
        <ele>2104</ele>
        <time>2022-08-27T06:52:54Z</time>
      </trkpt>
      <trkpt lat="45.79088" lon="6.94239">
        <ele>2104</ele>
        <time>2022-08-27T06:52:55Z</time>
      </trkpt>
      <trkpt lat="45.79088" lon="6.94242">
        <ele>2104</ele>
        <time>2022-08-27T06:52:56Z</time>
      </trkpt>
      <trkpt lat="45.79089" lon="6.94245">
        <ele>2103</ele>
        <time>2022-08-27T06:52:57Z</time>
      </trkpt>
      <trkpt lat="45.7909" lon="6.94248">
        <ele>2103</ele>
        <time>2022-08-27T06:52:58Z</time>
      </trkpt>
      <trkpt lat="45.79091" lon="6.9425">
        <ele>2103</ele>
        <time>2022-08-27T06:52:59Z</time>
      </trkpt>
      <trkpt lat="45.79093" lon="6.94253">
        <ele>2103</ele>
        <time>2022-08-27T06:53:00Z</time>
      </trkpt>
      <trkpt lat="45.79095" lon="6.94258">
        <ele>2103</ele>
        <time>2022-08-27T06:53:01Z</time>
      </trkpt>
      <trkpt lat="45.79096" lon="6.94259">
        <ele>2103</ele>
        <time>2022-08-27T06:53:02Z</time>
      </trkpt>
      <trkpt lat="45.79097" lon="6.94262">
        <ele>2102</ele>
        <time>2022-08-27T06:53:03Z</time>
      </trkpt>
      <trkpt lat="45.79098" lon="6.94265">
        <ele>2102</ele>
        <time>2022-08-27T06:53:04Z</time>
      </trkpt>
      <trkpt lat="45.79099" lon="6.94267">
        <ele>2102</ele>
        <time>2022-08-27T06:53:05Z</time>
      </trkpt>
      <trkpt lat="45.79102" lon="6.94272">
        <ele>2102</ele>
        <time>2022-08-27T06:53:07Z</time>
      </trkpt>
      <trkpt lat="45.79103" lon="6.94274">
        <ele>2102</ele>
        <time>2022-08-27T06:53:08Z</time>
      </trkpt>
      <trkpt lat="45.79104" lon="6.94277">
        <ele>2101</ele>
        <time>2022-08-27T06:53:09Z</time>
      </trkpt>
      <trkpt lat="45.79105" lon="6.9428">
        <ele>2101</ele>
        <time>2022-08-27T06:53:10Z</time>
      </trkpt>
      <trkpt lat="45.79106" lon="6.94282">
        <ele>2101</ele>
        <time>2022-08-27T06:53:11Z</time>
      </trkpt>
      <trkpt lat="45.79108" lon="6.94285">
        <ele>2100</ele>
        <time>2022-08-27T06:53:12Z</time>
      </trkpt>
      <trkpt lat="45.79109" lon="6.94287">
        <ele>2100</ele>
        <time>2022-08-27T06:53:13Z</time>
      </trkpt>
      <trkpt lat="45.79112" lon="6.94292">
        <ele>2100</ele>
        <time>2022-08-27T06:53:15Z</time>
      </trkpt>
      <trkpt lat="45.79113" lon="6.94294">
        <ele>2100</ele>
        <time>2022-08-27T06:53:16Z</time>
      </trkpt>
      <trkpt lat="45.79114" lon="6.94296">
        <ele>2100</ele>
        <time>2022-08-27T06:53:17Z</time>
      </trkpt>
      <trkpt lat="45.79116" lon="6.94298">
        <ele>2100</ele>
        <time>2022-08-27T06:53:18Z</time>
      </trkpt>
      <trkpt lat="45.79118" lon="6.943">
        <ele>2099</ele>
        <time>2022-08-27T06:53:19Z</time>
      </trkpt>
      <trkpt lat="45.7912" lon="6.94302">
        <ele>2099</ele>
        <time>2022-08-27T06:53:20Z</time>
      </trkpt>
      <trkpt lat="45.79122" lon="6.94303">
        <ele>2099</ele>
        <time>2022-08-27T06:53:21Z</time>
      </trkpt>
      <trkpt lat="45.79123" lon="6.94305">
        <ele>2098</ele>
        <time>2022-08-27T06:53:22Z</time>
      </trkpt>
      <trkpt lat="45.79125" lon="6.94307">
        <ele>2098</ele>
        <time>2022-08-27T06:53:23Z</time>
      </trkpt>
      <trkpt lat="45.79127" lon="6.94309">
        <ele>2098</ele>
        <time>2022-08-27T06:53:24Z</time>
      </trkpt>
      <trkpt lat="45.7913" lon="6.94312">
        <ele>2098</ele>
        <time>2022-08-27T06:53:25Z</time>
      </trkpt>
      <trkpt lat="45.79131" lon="6.94313">
        <ele>2098</ele>
        <time>2022-08-27T06:53:26Z</time>
      </trkpt>
      <trkpt lat="45.79133" lon="6.94315">
        <ele>2098</ele>
        <time>2022-08-27T06:53:27Z</time>
      </trkpt>
      <trkpt lat="45.79134" lon="6.94317">
        <ele>2097</ele>
        <time>2022-08-27T06:53:28Z</time>
      </trkpt>
      <trkpt lat="45.79136" lon="6.9432">
        <ele>2097</ele>
        <time>2022-08-27T06:53:29Z</time>
      </trkpt>
      <trkpt lat="45.79138" lon="6.94322">
        <ele>2097</ele>
        <time>2022-08-27T06:53:30Z</time>
      </trkpt>
      <trkpt lat="45.79139" lon="6.94324">
        <ele>2097</ele>
        <time>2022-08-27T06:53:31Z</time>
      </trkpt>
      <trkpt lat="45.79141" lon="6.94328">
        <ele>2096</ele>
        <time>2022-08-27T06:53:32Z</time>
      </trkpt>
      <trkpt lat="45.79142" lon="6.94329">
        <ele>2096</ele>
        <time>2022-08-27T06:53:33Z</time>
      </trkpt>
      <trkpt lat="45.79144" lon="6.94333">
        <ele>2096</ele>
        <time>2022-08-27T06:53:34Z</time>
      </trkpt>
      <trkpt lat="45.79145" lon="6.94334">
        <ele>2095</ele>
        <time>2022-08-27T06:53:35Z</time>
      </trkpt>
      <trkpt lat="45.79146" lon="6.94337">
        <ele>2095</ele>
        <time>2022-08-27T06:53:36Z</time>
      </trkpt>
      <trkpt lat="45.79147" lon="6.9434">
        <ele>2095</ele>
        <time>2022-08-27T06:53:37Z</time>
      </trkpt>
      <trkpt lat="45.79148" lon="6.94342">
        <ele>2094</ele>
        <time>2022-08-27T06:53:38Z</time>
      </trkpt>
      <trkpt lat="45.79149" lon="6.94345">
        <ele>2093</ele>
        <time>2022-08-27T06:53:39Z</time>
      </trkpt>
      <trkpt lat="45.7915" lon="6.94347">
        <ele>2092</ele>
        <time>2022-08-27T06:53:40Z</time>
      </trkpt>
      <trkpt lat="45.79152" lon="6.94351">
        <ele>2092</ele>
        <time>2022-08-27T06:53:41Z</time>
      </trkpt>
      <trkpt lat="45.79152" lon="6.94352">
        <ele>2092</ele>
        <time>2022-08-27T06:53:42Z</time>
      </trkpt>
      <trkpt lat="45.79153" lon="6.94355">
        <ele>2092</ele>
        <time>2022-08-27T06:53:43Z</time>
      </trkpt>
      <trkpt lat="45.79153" lon="6.94358">
        <ele>2092</ele>
        <time>2022-08-27T06:53:44Z</time>
      </trkpt>
      <trkpt lat="45.79154" lon="6.9436">
        <ele>2090</ele>
        <time>2022-08-27T06:53:45Z</time>
      </trkpt>
      <trkpt lat="45.79155" lon="6.94365">
        <ele>2089</ele>
        <time>2022-08-27T06:53:47Z</time>
      </trkpt>
      <trkpt lat="45.79155" lon="6.94369">
        <ele>2089</ele>
        <time>2022-08-27T06:53:48Z</time>
      </trkpt>
      <trkpt lat="45.79155" lon="6.94371">
        <ele>2087</ele>
        <time>2022-08-27T06:53:49Z</time>
      </trkpt>
      <trkpt lat="45.79154" lon="6.94374">
        <ele>2086</ele>
        <time>2022-08-27T06:53:50Z</time>
      </trkpt>
      <trkpt lat="45.79154" lon="6.94379">
        <ele>2086</ele>
        <time>2022-08-27T06:53:51Z</time>
      </trkpt>
      <trkpt lat="45.79154" lon="6.9438">
        <ele>2086</ele>
        <time>2022-08-27T06:53:52Z</time>
      </trkpt>
      <trkpt lat="45.79153" lon="6.94385">
        <ele>2086</ele>
        <time>2022-08-27T06:53:53Z</time>
      </trkpt>
      <trkpt lat="45.79153" lon="6.94386">
        <ele>2084</ele>
        <time>2022-08-27T06:53:54Z</time>
      </trkpt>
      <trkpt lat="45.79152" lon="6.94389">
        <ele>2084</ele>
        <time>2022-08-27T06:53:55Z</time>
      </trkpt>
      <trkpt lat="45.79151" lon="6.94393">
        <ele>2084</ele>
        <time>2022-08-27T06:53:56Z</time>
      </trkpt>
      <trkpt lat="45.7915" lon="6.94397">
        <ele>2083</ele>
        <time>2022-08-27T06:53:57Z</time>
      </trkpt>
      <trkpt lat="45.79147" lon="6.94405">
        <ele>2082</ele>
        <time>2022-08-27T06:53:59Z</time>
      </trkpt>
      <trkpt lat="45.79147" lon="6.94407">
        <ele>2081</ele>
        <time>2022-08-27T06:54:00Z</time>
      </trkpt>
      <trkpt lat="45.79145" lon="6.9441">
        <ele>2081</ele>
        <time>2022-08-27T06:54:01Z</time>
      </trkpt>
      <trkpt lat="45.79144" lon="6.94413">
        <ele>2081</ele>
        <time>2022-08-27T06:54:02Z</time>
      </trkpt>
      <trkpt lat="45.79143" lon="6.94418">
        <ele>2081</ele>
        <time>2022-08-27T06:54:03Z</time>
      </trkpt>
      <trkpt lat="45.79143" lon="6.94419">
        <ele>2081</ele>
        <time>2022-08-27T06:54:04Z</time>
      </trkpt>
      <trkpt lat="45.79142" lon="6.94424">
        <ele>2081</ele>
        <time>2022-08-27T06:54:05Z</time>
      </trkpt>
      <trkpt lat="45.79142" lon="6.94426">
        <ele>2080</ele>
        <time>2022-08-27T06:54:06Z</time>
      </trkpt>
      <trkpt lat="45.79142" lon="6.94429">
        <ele>2080</ele>
        <time>2022-08-27T06:54:07Z</time>
      </trkpt>
      <trkpt lat="45.79141" lon="6.94435">
        <ele>2079</ele>
        <time>2022-08-27T06:54:09Z</time>
      </trkpt>
      <trkpt lat="45.7914" lon="6.94438">
        <ele>2078</ele>
        <time>2022-08-27T06:54:10Z</time>
      </trkpt>
      <trkpt lat="45.7914" lon="6.94441">
        <ele>2078</ele>
        <time>2022-08-27T06:54:11Z</time>
      </trkpt>
      <trkpt lat="45.79138" lon="6.94446">
        <ele>2078</ele>
        <time>2022-08-27T06:54:12Z</time>
      </trkpt>
      <trkpt lat="45.79137" lon="6.94448">
        <ele>2077</ele>
        <time>2022-08-27T06:54:13Z</time>
      </trkpt>
      <trkpt lat="45.79137" lon="6.94451">
        <ele>2077</ele>
        <time>2022-08-27T06:54:14Z</time>
      </trkpt>
      <trkpt lat="45.79136" lon="6.94454">
        <ele>2076</ele>
        <time>2022-08-27T06:54:15Z</time>
      </trkpt>
      <trkpt lat="45.79136" lon="6.94457">
        <ele>2076</ele>
        <time>2022-08-27T06:54:16Z</time>
      </trkpt>
      <trkpt lat="45.79136" lon="6.9446">
        <ele>2076</ele>
        <time>2022-08-27T06:54:17Z</time>
      </trkpt>
      <trkpt lat="45.79136" lon="6.94462">
        <ele>2075</ele>
        <time>2022-08-27T06:54:18Z</time>
      </trkpt>
      <trkpt lat="45.79136" lon="6.94466">
        <ele>2074</ele>
        <time>2022-08-27T06:54:19Z</time>
      </trkpt>
      <trkpt lat="45.79137" lon="6.94471">
        <ele>2074</ele>
        <time>2022-08-27T06:54:20Z</time>
      </trkpt>
      <trkpt lat="45.79137" lon="6.94473">
        <ele>2074</ele>
        <time>2022-08-27T06:54:21Z</time>
      </trkpt>
      <trkpt lat="45.79137" lon="6.94475">
        <ele>2073</ele>
        <time>2022-08-27T06:54:22Z</time>
      </trkpt>
      <trkpt lat="45.79137" lon="6.94478">
        <ele>2073</ele>
        <time>2022-08-27T06:54:23Z</time>
      </trkpt>
      <trkpt lat="45.79137" lon="6.94485">
        <ele>2072</ele>
        <time>2022-08-27T06:54:25Z</time>
      </trkpt>
      <trkpt lat="45.79137" lon="6.94488">
        <ele>2072</ele>
        <time>2022-08-27T06:54:26Z</time>
      </trkpt>
      <trkpt lat="45.79137" lon="6.94491">
        <ele>2071</ele>
        <time>2022-08-27T06:54:27Z</time>
      </trkpt>
      <trkpt lat="45.79136" lon="6.94495">
        <ele>2070</ele>
        <time>2022-08-27T06:54:28Z</time>
      </trkpt>
      <trkpt lat="45.79137" lon="6.94498">
        <ele>2070</ele>
        <time>2022-08-27T06:54:29Z</time>
      </trkpt>
      <trkpt lat="45.79137" lon="6.94501">
        <ele>2069</ele>
        <time>2022-08-27T06:54:30Z</time>
      </trkpt>
      <trkpt lat="45.79137" lon="6.94505">
        <ele>2069</ele>
        <time>2022-08-27T06:54:31Z</time>
      </trkpt>
      <trkpt lat="45.79137" lon="6.94507">
        <ele>2069</ele>
        <time>2022-08-27T06:54:32Z</time>
      </trkpt>
      <trkpt lat="45.79137" lon="6.9451">
        <ele>2068</ele>
        <time>2022-08-27T06:54:33Z</time>
      </trkpt>
      <trkpt lat="45.79137" lon="6.94513">
        <ele>2067</ele>
        <time>2022-08-27T06:54:34Z</time>
      </trkpt>
      <trkpt lat="45.79137" lon="6.94517">
        <ele>2066</ele>
        <time>2022-08-27T06:54:35Z</time>
      </trkpt>
      <trkpt lat="45.79138" lon="6.94521">
        <ele>2066</ele>
        <time>2022-08-27T06:54:36Z</time>
      </trkpt>
      <trkpt lat="45.79138" lon="6.94523">
        <ele>2066</ele>
        <time>2022-08-27T06:54:37Z</time>
      </trkpt>
      <trkpt lat="45.79138" lon="6.94527">
        <ele>2066</ele>
        <time>2022-08-27T06:54:38Z</time>
      </trkpt>
      <trkpt lat="45.79138" lon="6.94532">
        <ele>2066</ele>
        <time>2022-08-27T06:54:39Z</time>
      </trkpt>
      <trkpt lat="45.79138" lon="6.94534">
        <ele>2066</ele>
        <time>2022-08-27T06:54:40Z</time>
      </trkpt>
      <trkpt lat="45.79138" lon="6.94539">
        <ele>2066</ele>
        <time>2022-08-27T06:54:41Z</time>
      </trkpt>
      <trkpt lat="45.79138" lon="6.94541">
        <ele>2064</ele>
        <time>2022-08-27T06:54:42Z</time>
      </trkpt>
      <trkpt lat="45.79138" lon="6.94544">
        <ele>2064</ele>
        <time>2022-08-27T06:54:43Z</time>
      </trkpt>
      <trkpt lat="45.79137" lon="6.94551">
        <ele>2063</ele>
        <time>2022-08-27T06:54:45Z</time>
      </trkpt>
      <trkpt lat="45.79137" lon="6.94554">
        <ele>2063</ele>
        <time>2022-08-27T06:54:46Z</time>
      </trkpt>
      <trkpt lat="45.79136" lon="6.94557">
        <ele>2063</ele>
        <time>2022-08-27T06:54:47Z</time>
      </trkpt>
      <trkpt lat="45.79135" lon="6.94561">
        <ele>2063</ele>
        <time>2022-08-27T06:54:48Z</time>
      </trkpt>
      <trkpt lat="45.79134" lon="6.94564">
        <ele>2063</ele>
        <time>2022-08-27T06:54:49Z</time>
      </trkpt>
      <trkpt lat="45.79133" lon="6.94566">
        <ele>2063</ele>
        <time>2022-08-27T06:54:50Z</time>
      </trkpt>
      <trkpt lat="45.79131" lon="6.9457">
        <ele>2063</ele>
        <time>2022-08-27T06:54:51Z</time>
      </trkpt>
      <trkpt lat="45.79131" lon="6.94571">
        <ele>2063</ele>
        <time>2022-08-27T06:54:52Z</time>
      </trkpt>
      <trkpt lat="45.7913" lon="6.94576">
        <ele>2063</ele>
        <time>2022-08-27T06:54:54Z</time>
      </trkpt>
      <trkpt lat="45.79131" lon="6.9458">
        <ele>2061</ele>
        <time>2022-08-27T06:54:56Z</time>
      </trkpt>
      <trkpt lat="45.79132" lon="6.94583">
        <ele>2061</ele>
        <time>2022-08-27T06:54:58Z</time>
      </trkpt>
      <trkpt lat="45.79134" lon="6.94587">
        <ele>2062</ele>
        <time>2022-08-27T06:55:00Z</time>
      </trkpt>
      <trkpt lat="45.79134" lon="6.94591">
        <ele>2062</ele>
        <time>2022-08-27T06:55:02Z</time>
      </trkpt>
      <trkpt lat="45.79135" lon="6.94594">
        <ele>2062</ele>
        <time>2022-08-27T06:55:04Z</time>
      </trkpt>
      <trkpt lat="45.79136" lon="6.94599">
        <ele>2063</ele>
        <time>2022-08-27T06:55:06Z</time>
      </trkpt>
      <trkpt lat="45.79137" lon="6.94601">
        <ele>2063</ele>
        <time>2022-08-27T06:55:07Z</time>
      </trkpt>
      <trkpt lat="45.79137" lon="6.94602">
        <ele>2063</ele>
        <time>2022-08-27T06:55:08Z</time>
      </trkpt>
      <trkpt lat="45.79138" lon="6.94604">
        <ele>2063</ele>
        <time>2022-08-27T06:55:09Z</time>
      </trkpt>
      <trkpt lat="45.79138" lon="6.94607">
        <ele>2063</ele>
        <time>2022-08-27T06:55:10Z</time>
      </trkpt>
      <trkpt lat="45.79139" lon="6.94609">
        <ele>2063</ele>
        <time>2022-08-27T06:55:11Z</time>
      </trkpt>
      <trkpt lat="45.7914" lon="6.94612">
        <ele>2063</ele>
        <time>2022-08-27T06:55:12Z</time>
      </trkpt>
      <trkpt lat="45.79141" lon="6.94615">
        <ele>2063</ele>
        <time>2022-08-27T06:55:13Z</time>
      </trkpt>
      <trkpt lat="45.79141" lon="6.94618">
        <ele>2063</ele>
        <time>2022-08-27T06:55:14Z</time>
      </trkpt>
      <trkpt lat="45.79142" lon="6.94621">
        <ele>2063</ele>
        <time>2022-08-27T06:55:15Z</time>
      </trkpt>
      <trkpt lat="45.79144" lon="6.94627">
        <ele>2064</ele>
        <time>2022-08-27T06:55:17Z</time>
      </trkpt>
      <trkpt lat="45.79145" lon="6.9463">
        <ele>2064</ele>
        <time>2022-08-27T06:55:18Z</time>
      </trkpt>
      <trkpt lat="45.79146" lon="6.94636">
        <ele>2064</ele>
        <time>2022-08-27T06:55:20Z</time>
      </trkpt>
      <trkpt lat="45.79146" lon="6.94639">
        <ele>2064</ele>
        <time>2022-08-27T06:55:21Z</time>
      </trkpt>
      <trkpt lat="45.79147" lon="6.94641">
        <ele>2064</ele>
        <time>2022-08-27T06:55:22Z</time>
      </trkpt>
      <trkpt lat="45.79148" lon="6.94645">
        <ele>2064</ele>
        <time>2022-08-27T06:55:23Z</time>
      </trkpt>
      <trkpt lat="45.79149" lon="6.94646">
        <ele>2064</ele>
        <time>2022-08-27T06:55:24Z</time>
      </trkpt>
      <trkpt lat="45.7915" lon="6.94649">
        <ele>2064</ele>
        <time>2022-08-27T06:55:25Z</time>
      </trkpt>
      <trkpt lat="45.7915" lon="6.94652">
        <ele>2064</ele>
        <time>2022-08-27T06:55:26Z</time>
      </trkpt>
      <trkpt lat="45.79151" lon="6.94656">
        <ele>2064</ele>
        <time>2022-08-27T06:55:28Z</time>
      </trkpt>
      <trkpt lat="45.79152" lon="6.9466">
        <ele>2063</ele>
        <time>2022-08-27T06:55:30Z</time>
      </trkpt>
      <trkpt lat="45.79152" lon="6.94664">
        <ele>2063</ele>
        <time>2022-08-27T06:55:32Z</time>
      </trkpt>
      <trkpt lat="45.79152" lon="6.94669">
        <ele>2064</ele>
        <time>2022-08-27T06:55:34Z</time>
      </trkpt>
      <trkpt lat="45.79153" lon="6.94673">
        <ele>2064</ele>
        <time>2022-08-27T06:55:37Z</time>
      </trkpt>
      <trkpt lat="45.79153" lon="6.94676">
        <ele>2064</ele>
        <time>2022-08-27T06:55:38Z</time>
      </trkpt>
      <trkpt lat="45.79152" lon="6.94679">
        <ele>2064</ele>
        <time>2022-08-27T06:55:40Z</time>
      </trkpt>
      <trkpt lat="45.79152" lon="6.94684">
        <ele>2063</ele>
        <time>2022-08-27T06:55:42Z</time>
      </trkpt>
      <trkpt lat="45.79152" lon="6.94688">
        <ele>2064</ele>
        <time>2022-08-27T06:55:44Z</time>
      </trkpt>
      <trkpt lat="45.79153" lon="6.94693">
        <ele>2064</ele>
        <time>2022-08-27T06:55:46Z</time>
      </trkpt>
      <trkpt lat="45.79153" lon="6.94695">
        <ele>2063</ele>
        <time>2022-08-27T06:55:47Z</time>
      </trkpt>
      <trkpt lat="45.79154" lon="6.94697">
        <ele>2063</ele>
        <time>2022-08-27T06:55:48Z</time>
      </trkpt>
      <trkpt lat="45.79154" lon="6.94699">
        <ele>2063</ele>
        <time>2022-08-27T06:55:49Z</time>
      </trkpt>
      <trkpt lat="45.79156" lon="6.94702">
        <ele>2063</ele>
        <time>2022-08-27T06:55:51Z</time>
      </trkpt>
      <trkpt lat="45.79156" lon="6.94706">
        <ele>2063</ele>
        <time>2022-08-27T06:55:53Z</time>
      </trkpt>
      <trkpt lat="45.79157" lon="6.9471">
        <ele>2063</ele>
        <time>2022-08-27T06:55:55Z</time>
      </trkpt>
      <trkpt lat="45.79157" lon="6.94714">
        <ele>2063</ele>
        <time>2022-08-27T06:55:57Z</time>
      </trkpt>
      <trkpt lat="45.79156" lon="6.94719">
        <ele>2064</ele>
        <time>2022-08-27T06:55:59Z</time>
      </trkpt>
      <trkpt lat="45.79157" lon="6.94722">
        <ele>2064</ele>
        <time>2022-08-27T06:56:01Z</time>
      </trkpt>
      <trkpt lat="45.79159" lon="6.94726">
        <ele>2064</ele>
        <time>2022-08-27T06:56:03Z</time>
      </trkpt>
      <trkpt lat="45.79159" lon="6.94728">
        <ele>2064</ele>
        <time>2022-08-27T06:56:04Z</time>
      </trkpt>
      <trkpt lat="45.79159" lon="6.9473">
        <ele>2064</ele>
        <time>2022-08-27T06:56:05Z</time>
      </trkpt>
      <trkpt lat="45.7916" lon="6.94731">
        <ele>2064</ele>
        <time>2022-08-27T06:56:06Z</time>
      </trkpt>
      <trkpt lat="45.7916" lon="6.94735">
        <ele>2064</ele>
        <time>2022-08-27T06:56:08Z</time>
      </trkpt>
      <trkpt lat="45.79161" lon="6.9474">
        <ele>2064</ele>
        <time>2022-08-27T06:56:10Z</time>
      </trkpt>
      <trkpt lat="45.79161" lon="6.94744">
        <ele>2064</ele>
        <time>2022-08-27T06:56:12Z</time>
      </trkpt>
      <trkpt lat="45.79162" lon="6.94748">
        <ele>2064</ele>
        <time>2022-08-27T06:56:14Z</time>
      </trkpt>
      <trkpt lat="45.79163" lon="6.94752">
        <ele>2064</ele>
        <time>2022-08-27T06:56:16Z</time>
      </trkpt>
      <trkpt lat="45.79164" lon="6.94755">
        <ele>2064</ele>
        <time>2022-08-27T06:56:18Z</time>
      </trkpt>
      <trkpt lat="45.79165" lon="6.94759">
        <ele>2064</ele>
        <time>2022-08-27T06:56:20Z</time>
      </trkpt>
      <trkpt lat="45.79166" lon="6.94763">
        <ele>2064</ele>
        <time>2022-08-27T06:56:22Z</time>
      </trkpt>
      <trkpt lat="45.79167" lon="6.94767">
        <ele>2064</ele>
        <time>2022-08-27T06:56:24Z</time>
      </trkpt>
      <trkpt lat="45.7917" lon="6.94769">
        <ele>2064</ele>
        <time>2022-08-27T06:56:29Z</time>
      </trkpt>
      <trkpt lat="45.79176" lon="6.94768">
        <ele>2062</ele>
        <time>2022-08-27T06:56:34Z</time>
      </trkpt>
      <trkpt lat="45.79178" lon="6.9477">
        <ele>2062</ele>
        <time>2022-08-27T06:56:35Z</time>
      </trkpt>
      <trkpt lat="45.79181" lon="6.94775">
        <ele>2061</ele>
        <time>2022-08-27T06:56:37Z</time>
      </trkpt>
      <trkpt lat="45.79182" lon="6.94777">
        <ele>2060</ele>
        <time>2022-08-27T06:56:38Z</time>
      </trkpt>
      <trkpt lat="45.79183" lon="6.9478">
        <ele>2060</ele>
        <time>2022-08-27T06:56:39Z</time>
      </trkpt>
      <trkpt lat="45.79184" lon="6.94783">
        <ele>2060</ele>
        <time>2022-08-27T06:56:40Z</time>
      </trkpt>
      <trkpt lat="45.79185" lon="6.94785">
        <ele>2060</ele>
        <time>2022-08-27T06:56:41Z</time>
      </trkpt>
      <trkpt lat="45.79186" lon="6.94788">
        <ele>2059</ele>
        <time>2022-08-27T06:56:42Z</time>
      </trkpt>
      <trkpt lat="45.79187" lon="6.94791">
        <ele>2059</ele>
        <time>2022-08-27T06:56:44Z</time>
      </trkpt>
      <trkpt lat="45.79188" lon="6.94793">
        <ele>2059</ele>
        <time>2022-08-27T06:56:45Z</time>
      </trkpt>
      <trkpt lat="45.79189" lon="6.94796">
        <ele>2058</ele>
        <time>2022-08-27T06:56:46Z</time>
      </trkpt>
      <trkpt lat="45.7919" lon="6.94798">
        <ele>2058</ele>
        <time>2022-08-27T06:56:47Z</time>
      </trkpt>
      <trkpt lat="45.7919" lon="6.948">
        <ele>2057</ele>
        <time>2022-08-27T06:56:48Z</time>
      </trkpt>
      <trkpt lat="45.79191" lon="6.94802">
        <ele>2057</ele>
        <time>2022-08-27T06:56:49Z</time>
      </trkpt>
      <trkpt lat="45.79192" lon="6.94809">
        <ele>2055</ele>
        <time>2022-08-27T06:56:51Z</time>
      </trkpt>
      <trkpt lat="45.79191" lon="6.9481">
        <ele>2055</ele>
        <time>2022-08-27T06:56:52Z</time>
      </trkpt>
      <trkpt lat="45.79191" lon="6.94812">
        <ele>2054</ele>
        <time>2022-08-27T06:56:53Z</time>
      </trkpt>
      <trkpt lat="45.7919" lon="6.94813">
        <ele>2054</ele>
        <time>2022-08-27T06:56:54Z</time>
      </trkpt>
      <trkpt lat="45.79189" lon="6.94814">
        <ele>2054</ele>
        <time>2022-08-27T06:56:55Z</time>
      </trkpt>
      <trkpt lat="45.79186" lon="6.94814">
        <ele>2051</ele>
        <time>2022-08-27T06:56:57Z</time>
      </trkpt>
      <trkpt lat="45.79183" lon="6.94814">
        <ele>2050</ele>
        <time>2022-08-27T06:56:59Z</time>
      </trkpt>
      <trkpt lat="45.7918" lon="6.94814">
        <ele>2049</ele>
        <time>2022-08-27T06:57:01Z</time>
      </trkpt>
      <trkpt lat="45.7918" lon="6.94818">
        <ele>2049</ele>
        <time>2022-08-27T06:57:03Z</time>
      </trkpt>
      <trkpt lat="45.79181" lon="6.94822">
        <ele>2047</ele>
        <time>2022-08-27T06:57:05Z</time>
      </trkpt>
      <trkpt lat="45.79182" lon="6.94824">
        <ele>2046</ele>
        <time>2022-08-27T06:57:06Z</time>
      </trkpt>
      <trkpt lat="45.79183" lon="6.94825">
        <ele>2046</ele>
        <time>2022-08-27T06:57:07Z</time>
      </trkpt>
      <trkpt lat="45.79184" lon="6.94827">
        <ele>2045</ele>
        <time>2022-08-27T06:57:09Z</time>
      </trkpt>
      <trkpt lat="45.79185" lon="6.94828">
        <ele>2045</ele>
        <time>2022-08-27T06:57:10Z</time>
      </trkpt>
      <trkpt lat="45.79186" lon="6.9483">
        <ele>2045</ele>
        <time>2022-08-27T06:57:11Z</time>
      </trkpt>
      <trkpt lat="45.79188" lon="6.94832">
        <ele>2044</ele>
        <time>2022-08-27T06:57:12Z</time>
      </trkpt>
      <trkpt lat="45.79187" lon="6.94836">
        <ele>2043</ele>
        <time>2022-08-27T06:57:14Z</time>
      </trkpt>
      <trkpt lat="45.79186" lon="6.94838">
        <ele>2040</ele>
        <time>2022-08-27T06:57:16Z</time>
      </trkpt>
      <trkpt lat="45.79186" lon="6.9484">
        <ele>2041</ele>
        <time>2022-08-27T06:57:17Z</time>
      </trkpt>
      <trkpt lat="45.79185" lon="6.94842">
        <ele>2041</ele>
        <time>2022-08-27T06:57:19Z</time>
      </trkpt>
      <trkpt lat="45.79185" lon="6.94843">
        <ele>2040</ele>
        <time>2022-08-27T06:57:21Z</time>
      </trkpt>
      <trkpt lat="45.79184" lon="6.94845">
        <ele>2038</ele>
        <time>2022-08-27T06:57:22Z</time>
      </trkpt>
      <trkpt lat="45.79184" lon="6.94847">
        <ele>2038</ele>
        <time>2022-08-27T06:57:23Z</time>
      </trkpt>
      <trkpt lat="45.79183" lon="6.94849">
        <ele>2038</ele>
        <time>2022-08-27T06:57:24Z</time>
      </trkpt>
      <trkpt lat="45.79183" lon="6.9485">
        <ele>2037</ele>
        <time>2022-08-27T06:57:25Z</time>
      </trkpt>
      <trkpt lat="45.79182" lon="6.94852">
        <ele>2037</ele>
        <time>2022-08-27T06:57:26Z</time>
      </trkpt>
      <trkpt lat="45.79182" lon="6.94854">
        <ele>2036</ele>
        <time>2022-08-27T06:57:27Z</time>
      </trkpt>
      <trkpt lat="45.79182" lon="6.94856">
        <ele>2036</ele>
        <time>2022-08-27T06:57:28Z</time>
      </trkpt>
      <trkpt lat="45.79182" lon="6.9486">
        <ele>2036</ele>
        <time>2022-08-27T06:57:29Z</time>
      </trkpt>
      <trkpt lat="45.79179" lon="6.94861">
        <ele>2035</ele>
        <time>2022-08-27T06:57:33Z</time>
      </trkpt>
      <trkpt lat="45.79177" lon="6.94859">
        <ele>2034</ele>
        <time>2022-08-27T06:57:36Z</time>
      </trkpt>
      <trkpt lat="45.79176" lon="6.94857">
        <ele>2032</ele>
        <time>2022-08-27T06:57:38Z</time>
      </trkpt>
      <trkpt lat="45.79173" lon="6.94855">
        <ele>2031</ele>
        <time>2022-08-27T06:57:40Z</time>
      </trkpt>
      <trkpt lat="45.7917" lon="6.94854">
        <ele>2029</ele>
        <time>2022-08-27T06:57:42Z</time>
      </trkpt>
      <trkpt lat="45.79168" lon="6.94853">
        <ele>2029</ele>
        <time>2022-08-27T06:57:45Z</time>
      </trkpt>
      <trkpt lat="45.79165" lon="6.94855">
        <ele>2027</ele>
        <time>2022-08-27T06:57:48Z</time>
      </trkpt>
      <trkpt lat="45.79162" lon="6.94854">
        <ele>2026</ele>
        <time>2022-08-27T06:57:50Z</time>
      </trkpt>
      <trkpt lat="45.79159" lon="6.94856">
        <ele>2026</ele>
        <time>2022-08-27T06:57:52Z</time>
      </trkpt>
      <trkpt lat="45.79158" lon="6.94858">
        <ele>2024</ele>
        <time>2022-08-27T06:57:54Z</time>
      </trkpt>
      <trkpt lat="45.79158" lon="6.9486">
        <ele>2024</ele>
        <time>2022-08-27T06:57:55Z</time>
      </trkpt>
      <trkpt lat="45.79158" lon="6.94861">
        <ele>2024</ele>
        <time>2022-08-27T06:57:56Z</time>
      </trkpt>
      <trkpt lat="45.79158" lon="6.94863">
        <ele>2023</ele>
        <time>2022-08-27T06:57:57Z</time>
      </trkpt>
      <trkpt lat="45.79157" lon="6.94865">
        <ele>2022</ele>
        <time>2022-08-27T06:57:59Z</time>
      </trkpt>
      <trkpt lat="45.79157" lon="6.94867">
        <ele>2020</ele>
        <time>2022-08-27T06:58:00Z</time>
      </trkpt>
      <trkpt lat="45.79154" lon="6.94865">
        <ele>2020</ele>
        <time>2022-08-27T06:58:02Z</time>
      </trkpt>
      <trkpt lat="45.79153" lon="6.94865">
        <ele>2019</ele>
        <time>2022-08-27T06:58:04Z</time>
      </trkpt>
      <trkpt lat="45.79153" lon="6.94867">
        <ele>2019</ele>
        <time>2022-08-27T06:58:05Z</time>
      </trkpt>
      <trkpt lat="45.79154" lon="6.94868">
        <ele>2018</ele>
        <time>2022-08-27T06:58:06Z</time>
      </trkpt>
      <trkpt lat="45.79154" lon="6.94869">
        <ele>2018</ele>
        <time>2022-08-27T06:58:07Z</time>
      </trkpt>
      <trkpt lat="45.79155" lon="6.94871">
        <ele>2017</ele>
        <time>2022-08-27T06:58:09Z</time>
      </trkpt>
      <trkpt lat="45.79155" lon="6.94872">
        <ele>2017</ele>
        <time>2022-08-27T06:58:11Z</time>
      </trkpt>
      <trkpt lat="45.79156" lon="6.94874">
        <ele>2016</ele>
        <time>2022-08-27T06:58:12Z</time>
      </trkpt>
      <trkpt lat="45.79156" lon="6.94875">
        <ele>2015</ele>
        <time>2022-08-27T06:58:13Z</time>
      </trkpt>
      <trkpt lat="45.79157" lon="6.94876">
        <ele>2014</ele>
        <time>2022-08-27T06:58:15Z</time>
      </trkpt>
      <trkpt lat="45.79157" lon="6.94878">
        <ele>2012</ele>
        <time>2022-08-27T06:58:16Z</time>
      </trkpt>
      <trkpt lat="45.79158" lon="6.94881">
        <ele>2012</ele>
        <time>2022-08-27T06:58:17Z</time>
      </trkpt>
      <trkpt lat="45.79159" lon="6.94885">
        <ele>2012</ele>
        <time>2022-08-27T06:58:18Z</time>
      </trkpt>
      <trkpt lat="45.79159" lon="6.94888">
        <ele>2012</ele>
        <time>2022-08-27T06:58:19Z</time>
      </trkpt>
      <trkpt lat="45.7916" lon="6.94892">
        <ele>2010</ele>
        <time>2022-08-27T06:58:20Z</time>
      </trkpt>
      <trkpt lat="45.79164" lon="6.94904">
        <ele>2011</ele>
        <time>2022-08-27T06:58:25Z</time>
      </trkpt>
      <trkpt lat="45.79165" lon="6.94906">
        <ele>2011</ele>
        <time>2022-08-27T06:58:26Z</time>
      </trkpt>
      <trkpt lat="45.79166" lon="6.94909">
        <ele>2011</ele>
        <time>2022-08-27T06:58:27Z</time>
      </trkpt>
      <trkpt lat="45.79166" lon="6.94912">
        <ele>2011</ele>
        <time>2022-08-27T06:58:28Z</time>
      </trkpt>
      <trkpt lat="45.79167" lon="6.94915">
        <ele>2011</ele>
        <time>2022-08-27T06:58:29Z</time>
      </trkpt>
      <trkpt lat="45.79168" lon="6.94917">
        <ele>2011</ele>
        <time>2022-08-27T06:58:30Z</time>
      </trkpt>
      <trkpt lat="45.79169" lon="6.94921">
        <ele>2012</ele>
        <time>2022-08-27T06:58:32Z</time>
      </trkpt>
      <trkpt lat="45.79169" lon="6.94924">
        <ele>2012</ele>
        <time>2022-08-27T06:58:33Z</time>
      </trkpt>
      <trkpt lat="45.7917" lon="6.94927">
        <ele>2012</ele>
        <time>2022-08-27T06:58:34Z</time>
      </trkpt>
      <trkpt lat="45.79171" lon="6.94931">
        <ele>2012</ele>
        <time>2022-08-27T06:58:35Z</time>
      </trkpt>
      <trkpt lat="45.79171" lon="6.94933">
        <ele>2011</ele>
        <time>2022-08-27T06:58:37Z</time>
      </trkpt>
      <trkpt lat="45.79171" lon="6.94936">
        <ele>2010</ele>
        <time>2022-08-27T06:58:38Z</time>
      </trkpt>
      <trkpt lat="45.79171" lon="6.94939">
        <ele>2010</ele>
        <time>2022-08-27T06:58:39Z</time>
      </trkpt>
      <trkpt lat="45.79171" lon="6.94942">
        <ele>2010</ele>
        <time>2022-08-27T06:58:40Z</time>
      </trkpt>
      <trkpt lat="45.79171" lon="6.94945">
        <ele>2010</ele>
        <time>2022-08-27T06:58:41Z</time>
      </trkpt>
      <trkpt lat="45.79171" lon="6.94948">
        <ele>2009</ele>
        <time>2022-08-27T06:58:42Z</time>
      </trkpt>
      <trkpt lat="45.79171" lon="6.94952">
        <ele>2008</ele>
        <time>2022-08-27T06:58:43Z</time>
      </trkpt>
      <trkpt lat="45.79171" lon="6.94955">
        <ele>2008</ele>
        <time>2022-08-27T06:58:44Z</time>
      </trkpt>
      <trkpt lat="45.79171" lon="6.94958">
        <ele>2008</ele>
        <time>2022-08-27T06:58:45Z</time>
      </trkpt>
      <trkpt lat="45.79171" lon="6.94961">
        <ele>2008</ele>
        <time>2022-08-27T06:58:47Z</time>
      </trkpt>
      <trkpt lat="45.79171" lon="6.94963">
        <ele>2007</ele>
        <time>2022-08-27T06:58:49Z</time>
      </trkpt>
      <trkpt lat="45.79171" lon="6.94966">
        <ele>2007</ele>
        <time>2022-08-27T06:58:50Z</time>
      </trkpt>
      <trkpt lat="45.79171" lon="6.94968">
        <ele>2006</ele>
        <time>2022-08-27T06:58:51Z</time>
      </trkpt>
      <trkpt lat="45.79171" lon="6.94971">
        <ele>2006</ele>
        <time>2022-08-27T06:58:52Z</time>
      </trkpt>
      <trkpt lat="45.79171" lon="6.94973">
        <ele>2005</ele>
        <time>2022-08-27T06:58:53Z</time>
      </trkpt>
      <trkpt lat="45.79172" lon="6.94976">
        <ele>2004</ele>
        <time>2022-08-27T06:58:54Z</time>
      </trkpt>
      <trkpt lat="45.79172" lon="6.94979">
        <ele>2004</ele>
        <time>2022-08-27T06:58:55Z</time>
      </trkpt>
      <trkpt lat="45.79172" lon="6.94981">
        <ele>2003</ele>
        <time>2022-08-27T06:58:56Z</time>
      </trkpt>
      <trkpt lat="45.79172" lon="6.94984">
        <ele>2003</ele>
        <time>2022-08-27T06:58:58Z</time>
      </trkpt>
      <trkpt lat="45.79173" lon="6.94986">
        <ele>2003</ele>
        <time>2022-08-27T06:58:59Z</time>
      </trkpt>
      <trkpt lat="45.79173" lon="6.94988">
        <ele>2003</ele>
        <time>2022-08-27T06:59:00Z</time>
      </trkpt>
      <trkpt lat="45.79174" lon="6.9499">
        <ele>2003</ele>
        <time>2022-08-27T06:59:01Z</time>
      </trkpt>
      <trkpt lat="45.79174" lon="6.94992">
        <ele>2001</ele>
        <time>2022-08-27T06:59:03Z</time>
      </trkpt>
      <trkpt lat="45.79175" lon="6.94994">
        <ele>2001</ele>
        <time>2022-08-27T06:59:04Z</time>
      </trkpt>
      <trkpt lat="45.79175" lon="6.94997">
        <ele>1999</ele>
        <time>2022-08-27T06:59:06Z</time>
      </trkpt>
      <trkpt lat="45.79174" lon="6.95002">
        <ele>1999</ele>
        <time>2022-08-27T06:59:08Z</time>
      </trkpt>
      <trkpt lat="45.79174" lon="6.95003">
        <ele>1999</ele>
        <time>2022-08-27T06:59:09Z</time>
      </trkpt>
      <trkpt lat="45.79174" lon="6.95004">
        <ele>1997</ele>
        <time>2022-08-27T06:59:11Z</time>
      </trkpt>
      <trkpt lat="45.79174" lon="6.95006">
        <ele>1997</ele>
        <time>2022-08-27T06:59:12Z</time>
      </trkpt>
      <trkpt lat="45.79174" lon="6.95007">
        <ele>1996</ele>
        <time>2022-08-27T06:59:13Z</time>
      </trkpt>
      <trkpt lat="45.79174" lon="6.95011">
        <ele>1995</ele>
        <time>2022-08-27T06:59:14Z</time>
      </trkpt>
      <trkpt lat="45.79174" lon="6.95013">
        <ele>1995</ele>
        <time>2022-08-27T06:59:15Z</time>
      </trkpt>
      <trkpt lat="45.79174" lon="6.95016">
        <ele>1994</ele>
        <time>2022-08-27T06:59:16Z</time>
      </trkpt>
      <trkpt lat="45.79174" lon="6.95019">
        <ele>1993</ele>
        <time>2022-08-27T06:59:18Z</time>
      </trkpt>
      <trkpt lat="45.79174" lon="6.95021">
        <ele>1993</ele>
        <time>2022-08-27T06:59:19Z</time>
      </trkpt>
      <trkpt lat="45.79174" lon="6.95024">
        <ele>1993</ele>
        <time>2022-08-27T06:59:20Z</time>
      </trkpt>
      <trkpt lat="45.79174" lon="6.95028">
        <ele>1992</ele>
        <time>2022-08-27T06:59:22Z</time>
      </trkpt>
      <trkpt lat="45.79174" lon="6.95029">
        <ele>1989</ele>
        <time>2022-08-27T06:59:25Z</time>
      </trkpt>
      <trkpt lat="45.79174" lon="6.9503">
        <ele>1988</ele>
        <time>2022-08-27T06:59:27Z</time>
      </trkpt>
      <trkpt lat="45.79174" lon="6.95031">
        <ele>1986</ele>
        <time>2022-08-27T06:59:28Z</time>
      </trkpt>
      <trkpt lat="45.79174" lon="6.95033">
        <ele>1986</ele>
        <time>2022-08-27T06:59:29Z</time>
      </trkpt>
      <trkpt lat="45.79174" lon="6.95034">
        <ele>1985</ele>
        <time>2022-08-27T06:59:31Z</time>
      </trkpt>
      <trkpt lat="45.79175" lon="6.95035">
        <ele>1985</ele>
        <time>2022-08-27T06:59:32Z</time>
      </trkpt>
      <trkpt lat="45.79176" lon="6.95042">
        <ele>1984</ele>
        <time>2022-08-27T06:59:33Z</time>
      </trkpt>
      <trkpt lat="45.79174" lon="6.95056">
        <ele>1981</ele>
        <time>2022-08-27T06:59:41Z</time>
      </trkpt>
      <trkpt lat="45.79174" lon="6.95061">
        <ele>1979</ele>
        <time>2022-08-27T06:59:44Z</time>
      </trkpt>
      <trkpt lat="45.79174" lon="6.95063">
        <ele>1979</ele>
        <time>2022-08-27T06:59:46Z</time>
      </trkpt>
      <trkpt lat="45.79174" lon="6.95065">
        <ele>1976</ele>
        <time>2022-08-27T06:59:48Z</time>
      </trkpt>
      <trkpt lat="45.79175" lon="6.95067">
        <ele>1976</ele>
        <time>2022-08-27T06:59:49Z</time>
      </trkpt>
      <trkpt lat="45.79175" lon="6.95069">
        <ele>1976</ele>
        <time>2022-08-27T06:59:50Z</time>
      </trkpt>
      <trkpt lat="45.79175" lon="6.95072">
        <ele>1976</ele>
        <time>2022-08-27T06:59:51Z</time>
      </trkpt>
      <trkpt lat="45.79175" lon="6.95074">
        <ele>1975</ele>
        <time>2022-08-27T06:59:52Z</time>
      </trkpt>
      <trkpt lat="45.79175" lon="6.95078">
        <ele>1974</ele>
        <time>2022-08-27T06:59:53Z</time>
      </trkpt>
      <trkpt lat="45.79176" lon="6.95081">
        <ele>1974</ele>
        <time>2022-08-27T06:59:54Z</time>
      </trkpt>
      <trkpt lat="45.79176" lon="6.95083">
        <ele>1974</ele>
        <time>2022-08-27T06:59:55Z</time>
      </trkpt>
      <trkpt lat="45.79177" lon="6.95086">
        <ele>1972</ele>
        <time>2022-08-27T06:59:57Z</time>
      </trkpt>
      <trkpt lat="45.79177" lon="6.95088">
        <ele>1972</ele>
        <time>2022-08-27T06:59:58Z</time>
      </trkpt>
      <trkpt lat="45.79177" lon="6.95091">
        <ele>1972</ele>
        <time>2022-08-27T06:59:59Z</time>
      </trkpt>
      <trkpt lat="45.79178" lon="6.95093">
        <ele>1971</ele>
        <time>2022-08-27T07:00:01Z</time>
      </trkpt>
      <trkpt lat="45.79178" lon="6.95096">
        <ele>1970</ele>
        <time>2022-08-27T07:00:02Z</time>
      </trkpt>
      <trkpt lat="45.79178" lon="6.95099">
        <ele>1970</ele>
        <time>2022-08-27T07:00:04Z</time>
      </trkpt>
      <trkpt lat="45.79178" lon="6.95102">
        <ele>1970</ele>
        <time>2022-08-27T07:00:05Z</time>
      </trkpt>
      <trkpt lat="45.79178" lon="6.95104">
        <ele>1969</ele>
        <time>2022-08-27T07:00:06Z</time>
      </trkpt>
      <trkpt lat="45.79179" lon="6.95107">
        <ele>1969</ele>
        <time>2022-08-27T07:00:07Z</time>
      </trkpt>
      <trkpt lat="45.79179" lon="6.9511">
        <ele>1968</ele>
        <time>2022-08-27T07:00:09Z</time>
      </trkpt>
      <trkpt lat="45.79179" lon="6.95113">
        <ele>1967</ele>
        <time>2022-08-27T07:00:10Z</time>
      </trkpt>
      <trkpt lat="45.79179" lon="6.95116">
        <ele>1967</ele>
        <time>2022-08-27T07:00:11Z</time>
      </trkpt>
      <trkpt lat="45.7918" lon="6.95118">
        <ele>1967</ele>
        <time>2022-08-27T07:00:12Z</time>
      </trkpt>
      <trkpt lat="45.7918" lon="6.95121">
        <ele>1967</ele>
        <time>2022-08-27T07:00:14Z</time>
      </trkpt>
      <trkpt lat="45.79181" lon="6.95123">
        <ele>1966</ele>
        <time>2022-08-27T07:00:15Z</time>
      </trkpt>
      <trkpt lat="45.79182" lon="6.95125">
        <ele>1966</ele>
        <time>2022-08-27T07:00:16Z</time>
      </trkpt>
      <trkpt lat="45.79182" lon="6.95127">
        <ele>1966</ele>
        <time>2022-08-27T07:00:17Z</time>
      </trkpt>
      <trkpt lat="45.79183" lon="6.9513">
        <ele>1966</ele>
        <time>2022-08-27T07:00:18Z</time>
      </trkpt>
      <trkpt lat="45.79184" lon="6.95132">
        <ele>1965</ele>
        <time>2022-08-27T07:00:19Z</time>
      </trkpt>
      <trkpt lat="45.79184" lon="6.95135">
        <ele>1965</ele>
        <time>2022-08-27T07:00:20Z</time>
      </trkpt>
      <trkpt lat="45.79185" lon="6.95138">
        <ele>1965</ele>
        <time>2022-08-27T07:00:21Z</time>
      </trkpt>
      <trkpt lat="45.79185" lon="6.9514">
        <ele>1965</ele>
        <time>2022-08-27T07:00:22Z</time>
      </trkpt>
      <trkpt lat="45.79186" lon="6.95143">
        <ele>1965</ele>
        <time>2022-08-27T07:00:23Z</time>
      </trkpt>
      <trkpt lat="45.79186" lon="6.95146">
        <ele>1965</ele>
        <time>2022-08-27T07:00:24Z</time>
      </trkpt>
      <trkpt lat="45.79186" lon="6.95148">
        <ele>1964</ele>
        <time>2022-08-27T07:00:26Z</time>
      </trkpt>
      <trkpt lat="45.79186" lon="6.9515">
        <ele>1963</ele>
        <time>2022-08-27T07:00:27Z</time>
      </trkpt>
      <trkpt lat="45.79186" lon="6.95153">
        <ele>1963</ele>
        <time>2022-08-27T07:00:28Z</time>
      </trkpt>
      <trkpt lat="45.79186" lon="6.95155">
        <ele>1963</ele>
        <time>2022-08-27T07:00:29Z</time>
      </trkpt>
      <trkpt lat="45.79186" lon="6.95158">
        <ele>1963</ele>
        <time>2022-08-27T07:00:30Z</time>
      </trkpt>
      <trkpt lat="45.79186" lon="6.9516">
        <ele>1963</ele>
        <time>2022-08-27T07:00:31Z</time>
      </trkpt>
      <trkpt lat="45.79186" lon="6.95165">
        <ele>1962</ele>
        <time>2022-08-27T07:00:32Z</time>
      </trkpt>
      <trkpt lat="45.79187" lon="6.95169">
        <ele>1962</ele>
        <time>2022-08-27T07:00:33Z</time>
      </trkpt>
      <trkpt lat="45.79187" lon="6.95171">
        <ele>1962</ele>
        <time>2022-08-27T07:00:34Z</time>
      </trkpt>
      <trkpt lat="45.79187" lon="6.95174">
        <ele>1962</ele>
        <time>2022-08-27T07:00:35Z</time>
      </trkpt>
      <trkpt lat="45.79188" lon="6.95178">
        <ele>1960</ele>
        <time>2022-08-27T07:00:37Z</time>
      </trkpt>
      <trkpt lat="45.79189" lon="6.95182">
        <ele>1959</ele>
        <time>2022-08-27T07:00:38Z</time>
      </trkpt>
      <trkpt lat="45.7919" lon="6.95187">
        <ele>1959</ele>
        <time>2022-08-27T07:00:39Z</time>
      </trkpt>
      <trkpt lat="45.79191" lon="6.9519">
        <ele>1959</ele>
        <time>2022-08-27T07:00:41Z</time>
      </trkpt>
      <trkpt lat="45.79192" lon="6.95193">
        <ele>1959</ele>
        <time>2022-08-27T07:00:43Z</time>
      </trkpt>
      <trkpt lat="45.79193" lon="6.95196">
        <ele>1959</ele>
        <time>2022-08-27T07:00:44Z</time>
      </trkpt>
      <trkpt lat="45.79194" lon="6.952">
        <ele>1958</ele>
        <time>2022-08-27T07:00:45Z</time>
      </trkpt>
      <trkpt lat="45.79194" lon="6.95204">
        <ele>1957</ele>
        <time>2022-08-27T07:00:47Z</time>
      </trkpt>
      <trkpt lat="45.79193" lon="6.95208">
        <ele>1957</ele>
        <time>2022-08-27T07:00:48Z</time>
      </trkpt>
      <trkpt lat="45.79193" lon="6.95211">
        <ele>1956</ele>
        <time>2022-08-27T07:00:49Z</time>
      </trkpt>
      <trkpt lat="45.79194" lon="6.95214">
        <ele>1955</ele>
        <time>2022-08-27T07:00:52Z</time>
      </trkpt>
      <trkpt lat="45.79194" lon="6.95217">
        <ele>1955</ele>
        <time>2022-08-27T07:00:53Z</time>
      </trkpt>
      <trkpt lat="45.79194" lon="6.95221">
        <ele>1955</ele>
        <time>2022-08-27T07:00:54Z</time>
      </trkpt>
      <trkpt lat="45.79194" lon="6.95224">
        <ele>1954</ele>
        <time>2022-08-27T07:00:55Z</time>
      </trkpt>
      <trkpt lat="45.79194" lon="6.95227">
        <ele>1953</ele>
        <time>2022-08-27T07:00:56Z</time>
      </trkpt>
      <trkpt lat="45.79195" lon="6.9523">
        <ele>1951</ele>
        <time>2022-08-27T07:01:01Z</time>
      </trkpt>
      <trkpt lat="45.79193" lon="6.95232">
        <ele>1950</ele>
        <time>2022-08-27T07:01:03Z</time>
      </trkpt>
      <trkpt lat="45.79192" lon="6.95235">
        <ele>1949</ele>
        <time>2022-08-27T07:01:05Z</time>
      </trkpt>
      <trkpt lat="45.79191" lon="6.95238">
        <ele>1949</ele>
        <time>2022-08-27T07:01:07Z</time>
      </trkpt>
      <trkpt lat="45.79191" lon="6.95242">
        <ele>1948</ele>
        <time>2022-08-27T07:01:09Z</time>
      </trkpt>
      <trkpt lat="45.7919" lon="6.95244">
        <ele>1946</ele>
        <time>2022-08-27T07:01:12Z</time>
      </trkpt>
      <trkpt lat="45.79189" lon="6.95247">
        <ele>1946</ele>
        <time>2022-08-27T07:01:13Z</time>
      </trkpt>
      <trkpt lat="45.79187" lon="6.95251">
        <ele>1945</ele>
        <time>2022-08-27T07:01:15Z</time>
      </trkpt>
      <trkpt lat="45.79186" lon="6.95254">
        <ele>1943</ele>
        <time>2022-08-27T07:01:17Z</time>
      </trkpt>
      <trkpt lat="45.79186" lon="6.95257">
        <ele>1942</ele>
        <time>2022-08-27T07:01:19Z</time>
      </trkpt>
      <trkpt lat="45.79187" lon="6.9526">
        <ele>1941</ele>
        <time>2022-08-27T07:01:22Z</time>
      </trkpt>
      <trkpt lat="45.79185" lon="6.95261">
        <ele>1940</ele>
        <time>2022-08-27T07:01:23Z</time>
      </trkpt>
      <trkpt lat="45.79183" lon="6.95261">
        <ele>1940</ele>
        <time>2022-08-27T07:01:24Z</time>
      </trkpt>
      <trkpt lat="45.79182" lon="6.95262">
        <ele>1940</ele>
        <time>2022-08-27T07:01:25Z</time>
      </trkpt>
      <trkpt lat="45.79179" lon="6.95261">
        <ele>1939</ele>
        <time>2022-08-27T07:01:26Z</time>
      </trkpt>
      <trkpt lat="45.79177" lon="6.95261">
        <ele>1939</ele>
        <time>2022-08-27T07:01:27Z</time>
      </trkpt>
      <trkpt lat="45.79176" lon="6.95259">
        <ele>1938</ele>
        <time>2022-08-27T07:01:28Z</time>
      </trkpt>
      <trkpt lat="45.79174" lon="6.95257">
        <ele>1938</ele>
        <time>2022-08-27T07:01:30Z</time>
      </trkpt>
      <trkpt lat="45.79174" lon="6.9526">
        <ele>1936</ele>
        <time>2022-08-27T07:01:34Z</time>
      </trkpt>
      <trkpt lat="45.79175" lon="6.95262">
        <ele>1935</ele>
        <time>2022-08-27T07:01:36Z</time>
      </trkpt>
      <trkpt lat="45.79176" lon="6.95265">
        <ele>1934</ele>
        <time>2022-08-27T07:01:38Z</time>
      </trkpt>
      <trkpt lat="45.79177" lon="6.95269">
        <ele>1933</ele>
        <time>2022-08-27T07:01:40Z</time>
      </trkpt>
      <trkpt lat="45.79178" lon="6.95273">
        <ele>1931</ele>
        <time>2022-08-27T07:01:43Z</time>
      </trkpt>
      <trkpt lat="45.79178" lon="6.95276">
        <ele>1931</ele>
        <time>2022-08-27T07:01:44Z</time>
      </trkpt>
      <trkpt lat="45.79176" lon="6.95277">
        <ele>1930</ele>
        <time>2022-08-27T07:01:45Z</time>
      </trkpt>
      <trkpt lat="45.79174" lon="6.95277">
        <ele>1930</ele>
        <time>2022-08-27T07:01:46Z</time>
      </trkpt>
      <trkpt lat="45.79172" lon="6.95277">
        <ele>1930</ele>
        <time>2022-08-27T07:01:48Z</time>
      </trkpt>
      <trkpt lat="45.79171" lon="6.9528">
        <ele>1929</ele>
        <time>2022-08-27T07:01:51Z</time>
      </trkpt>
      <trkpt lat="45.7917" lon="6.95283">
        <ele>1926</ele>
        <time>2022-08-27T07:01:53Z</time>
      </trkpt>
      <trkpt lat="45.79169" lon="6.95287">
        <ele>1925</ele>
        <time>2022-08-27T07:01:55Z</time>
      </trkpt>
      <trkpt lat="45.79167" lon="6.95288">
        <ele>1924</ele>
        <time>2022-08-27T07:01:57Z</time>
      </trkpt>
      <trkpt lat="45.79165" lon="6.95291">
        <ele>1924</ele>
        <time>2022-08-27T07:01:59Z</time>
      </trkpt>
      <trkpt lat="45.79162" lon="6.95294">
        <ele>1924</ele>
        <time>2022-08-27T07:02:01Z</time>
      </trkpt>
      <trkpt lat="45.7916" lon="6.95296">
        <ele>1924</ele>
        <time>2022-08-27T07:02:02Z</time>
      </trkpt>
      <trkpt lat="45.79159" lon="6.95298">
        <ele>1923</ele>
        <time>2022-08-27T07:02:03Z</time>
      </trkpt>
      <trkpt lat="45.79154" lon="6.95303">
        <ele>1923</ele>
        <time>2022-08-27T07:02:08Z</time>
      </trkpt>
      <trkpt lat="45.79152" lon="6.95305">
        <ele>1923</ele>
        <time>2022-08-27T07:02:11Z</time>
      </trkpt>
      <trkpt lat="45.79151" lon="6.95308">
        <ele>1922</ele>
        <time>2022-08-27T07:02:13Z</time>
      </trkpt>
      <trkpt lat="45.79151" lon="6.95312">
        <ele>1922</ele>
        <time>2022-08-27T07:02:14Z</time>
      </trkpt>
      <trkpt lat="45.7915" lon="6.95314">
        <ele>1922</ele>
        <time>2022-08-27T07:02:15Z</time>
      </trkpt>
      <trkpt lat="45.79148" lon="6.95316">
        <ele>1922</ele>
        <time>2022-08-27T07:02:17Z</time>
      </trkpt>
      <trkpt lat="45.79147" lon="6.95317">
        <ele>1922</ele>
        <time>2022-08-27T07:02:18Z</time>
      </trkpt>
      <trkpt lat="45.79148" lon="6.9532">
        <ele>1922</ele>
        <time>2022-08-27T07:02:20Z</time>
      </trkpt>
      <trkpt lat="45.79149" lon="6.95323">
        <ele>1922</ele>
        <time>2022-08-27T07:02:23Z</time>
      </trkpt>
      <trkpt lat="45.79149" lon="6.95325">
        <ele>1921</ele>
        <time>2022-08-27T07:02:25Z</time>
      </trkpt>
      <trkpt lat="45.79148" lon="6.95328">
        <ele>1920</ele>
        <time>2022-08-27T07:02:27Z</time>
      </trkpt>
      <trkpt lat="45.79145" lon="6.95329">
        <ele>1919</ele>
        <time>2022-08-27T07:02:29Z</time>
      </trkpt>
      <trkpt lat="45.79145" lon="6.95331">
        <ele>1917</ele>
        <time>2022-08-27T07:02:34Z</time>
      </trkpt>
      <trkpt lat="45.79144" lon="6.95335">
        <ele>1916</ele>
        <time>2022-08-27T07:02:36Z</time>
      </trkpt>
      <trkpt lat="45.79143" lon="6.95337">
        <ele>1916</ele>
        <time>2022-08-27T07:02:38Z</time>
      </trkpt>
      <trkpt lat="45.7914" lon="6.9534">
        <ele>1914</ele>
        <time>2022-08-27T07:02:40Z</time>
      </trkpt>
      <trkpt lat="45.79138" lon="6.95341">
        <ele>1913</ele>
        <time>2022-08-27T07:02:42Z</time>
      </trkpt>
      <trkpt lat="45.79135" lon="6.95345">
        <ele>1912</ele>
        <time>2022-08-27T07:02:44Z</time>
      </trkpt>
      <trkpt lat="45.79133" lon="6.95348">
        <ele>1911</ele>
        <time>2022-08-27T07:02:46Z</time>
      </trkpt>
      <trkpt lat="45.7913" lon="6.95353">
        <ele>1911</ele>
        <time>2022-08-27T07:02:48Z</time>
      </trkpt>
      <trkpt lat="45.79128" lon="6.95356">
        <ele>1910</ele>
        <time>2022-08-27T07:02:50Z</time>
      </trkpt>
      <trkpt lat="45.79126" lon="6.95357">
        <ele>1910</ele>
        <time>2022-08-27T07:02:52Z</time>
      </trkpt>
      <trkpt lat="45.79125" lon="6.95355">
        <ele>1908</ele>
        <time>2022-08-27T07:02:55Z</time>
      </trkpt>
      <trkpt lat="45.79125" lon="6.95352">
        <ele>1907</ele>
        <time>2022-08-27T07:02:56Z</time>
      </trkpt>
      <trkpt lat="45.79125" lon="6.95349">
        <ele>1906</ele>
        <time>2022-08-27T07:02:58Z</time>
      </trkpt>
      <trkpt lat="45.79125" lon="6.95346">
        <ele>1906</ele>
        <time>2022-08-27T07:02:59Z</time>
      </trkpt>
      <trkpt lat="45.79124" lon="6.95342">
        <ele>1906</ele>
        <time>2022-08-27T07:03:01Z</time>
      </trkpt>
      <trkpt lat="45.79123" lon="6.95339">
        <ele>1905</ele>
        <time>2022-08-27T07:03:03Z</time>
      </trkpt>
      <trkpt lat="45.7912" lon="6.95336">
        <ele>1903</ele>
        <time>2022-08-27T07:03:05Z</time>
      </trkpt>
      <trkpt lat="45.79119" lon="6.95334">
        <ele>1902</ele>
        <time>2022-08-27T07:03:08Z</time>
      </trkpt>
      <trkpt lat="45.79117" lon="6.95334">
        <ele>1901</ele>
        <time>2022-08-27T07:03:10Z</time>
      </trkpt>
      <trkpt lat="45.79114" lon="6.95337">
        <ele>1899</ele>
        <time>2022-08-27T07:03:13Z</time>
      </trkpt>
      <trkpt lat="45.79112" lon="6.9534">
        <ele>1899</ele>
        <time>2022-08-27T07:03:15Z</time>
      </trkpt>
      <trkpt lat="45.7911" lon="6.95343">
        <ele>1897</ele>
        <time>2022-08-27T07:03:17Z</time>
      </trkpt>
      <trkpt lat="45.79107" lon="6.95346">
        <ele>1897</ele>
        <time>2022-08-27T07:03:19Z</time>
      </trkpt>
      <trkpt lat="45.79106" lon="6.95349">
        <ele>1898</ele>
        <time>2022-08-27T07:03:21Z</time>
      </trkpt>
      <trkpt lat="45.79104" lon="6.95351">
        <ele>1898</ele>
        <time>2022-08-27T07:03:23Z</time>
      </trkpt>
      <trkpt lat="45.79103" lon="6.95355">
        <ele>1898</ele>
        <time>2022-08-27T07:03:25Z</time>
      </trkpt>
      <trkpt lat="45.79102" lon="6.95358">
        <ele>1897</ele>
        <time>2022-08-27T07:03:27Z</time>
      </trkpt>
      <trkpt lat="45.79102" lon="6.95361">
        <ele>1896</ele>
        <time>2022-08-27T07:03:29Z</time>
      </trkpt>
      <trkpt lat="45.79102" lon="6.95366">
        <ele>1896</ele>
        <time>2022-08-27T07:03:30Z</time>
      </trkpt>
      <trkpt lat="45.79102" lon="6.95368">
        <ele>1896</ele>
        <time>2022-08-27T07:03:31Z</time>
      </trkpt>
      <trkpt lat="45.79102" lon="6.9537">
        <ele>1895</ele>
        <time>2022-08-27T07:03:32Z</time>
      </trkpt>
      <trkpt lat="45.79103" lon="6.95372">
        <ele>1894</ele>
        <time>2022-08-27T07:03:34Z</time>
      </trkpt>
      <trkpt lat="45.79103" lon="6.95375">
        <ele>1892</ele>
        <time>2022-08-27T07:03:36Z</time>
      </trkpt>
      <trkpt lat="45.79103" lon="6.95377">
        <ele>1892</ele>
        <time>2022-08-27T07:03:37Z</time>
      </trkpt>
      <trkpt lat="45.79103" lon="6.95379">
        <ele>1892</ele>
        <time>2022-08-27T07:03:38Z</time>
      </trkpt>
      <trkpt lat="45.79104" lon="6.95383">
        <ele>1892</ele>
        <time>2022-08-27T07:03:39Z</time>
      </trkpt>
      <trkpt lat="45.79104" lon="6.95387">
        <ele>1891</ele>
        <time>2022-08-27T07:03:41Z</time>
      </trkpt>
      <trkpt lat="45.79103" lon="6.95391">
        <ele>1890</ele>
        <time>2022-08-27T07:03:43Z</time>
      </trkpt>
      <trkpt lat="45.79106" lon="6.95399">
        <ele>1889</ele>
        <time>2022-08-27T07:03:48Z</time>
      </trkpt>
      <trkpt lat="45.79107" lon="6.95402">
        <ele>1888</ele>
        <time>2022-08-27T07:03:51Z</time>
      </trkpt>
      <trkpt lat="45.79108" lon="6.95405">
        <ele>1888</ele>
        <time>2022-08-27T07:03:52Z</time>
      </trkpt>
      <trkpt lat="45.79106" lon="6.95408">
        <ele>1888</ele>
        <time>2022-08-27T07:03:54Z</time>
      </trkpt>
      <trkpt lat="45.79105" lon="6.95408">
        <ele>1887</ele>
        <time>2022-08-27T07:03:55Z</time>
      </trkpt>
      <trkpt lat="45.79102" lon="6.95408">
        <ele>1886</ele>
        <time>2022-08-27T07:03:57Z</time>
      </trkpt>
      <trkpt lat="45.79099" lon="6.95407">
        <ele>1884</ele>
        <time>2022-08-27T07:04:00Z</time>
      </trkpt>
      <trkpt lat="45.79096" lon="6.95406">
        <ele>1884</ele>
        <time>2022-08-27T07:04:01Z</time>
      </trkpt>
      <trkpt lat="45.79094" lon="6.95405">
        <ele>1883</ele>
        <time>2022-08-27T07:04:03Z</time>
      </trkpt>
      <trkpt lat="45.79092" lon="6.95406">
        <ele>1881</ele>
        <time>2022-08-27T07:04:05Z</time>
      </trkpt>
      <trkpt lat="45.79089" lon="6.95405">
        <ele>1880</ele>
        <time>2022-08-27T07:04:07Z</time>
      </trkpt>
      <trkpt lat="45.79086" lon="6.95405">
        <ele>1879</ele>
        <time>2022-08-27T07:04:09Z</time>
      </trkpt>
      <trkpt lat="45.79087" lon="6.95406">
        <ele>1878</ele>
        <time>2022-08-27T07:04:12Z</time>
      </trkpt>
      <trkpt lat="45.79087" lon="6.95407">
        <ele>1877</ele>
        <time>2022-08-27T07:04:13Z</time>
      </trkpt>
      <trkpt lat="45.79087" lon="6.95409">
        <ele>1876</ele>
        <time>2022-08-27T07:04:14Z</time>
      </trkpt>
      <trkpt lat="45.79087" lon="6.9541">
        <ele>1876</ele>
        <time>2022-08-27T07:04:16Z</time>
      </trkpt>
      <trkpt lat="45.79087" lon="6.95411">
        <ele>1875</ele>
        <time>2022-08-27T07:04:17Z</time>
      </trkpt>
      <trkpt lat="45.79089" lon="6.95415">
        <ele>1875</ele>
        <time>2022-08-27T07:04:19Z</time>
      </trkpt>
      <trkpt lat="45.79089" lon="6.95418">
        <ele>1873</ele>
        <time>2022-08-27T07:04:21Z</time>
      </trkpt>
      <trkpt lat="45.79092" lon="6.9543">
        <ele>1871</ele>
        <time>2022-08-27T07:04:26Z</time>
      </trkpt>
      <trkpt lat="45.7909" lon="6.95432">
        <ele>1871</ele>
        <time>2022-08-27T07:04:27Z</time>
      </trkpt>
      <trkpt lat="45.79087" lon="6.95433">
        <ele>1870</ele>
        <time>2022-08-27T07:04:29Z</time>
      </trkpt>
      <trkpt lat="45.7909" lon="6.95435">
        <ele>1868</ele>
        <time>2022-08-27T07:04:35Z</time>
      </trkpt>
      <trkpt lat="45.79086" lon="6.95437">
        <ele>1867</ele>
        <time>2022-08-27T07:04:37Z</time>
      </trkpt>
      <trkpt lat="45.79084" lon="6.95437">
        <ele>1866</ele>
        <time>2022-08-27T07:04:38Z</time>
      </trkpt>
      <trkpt lat="45.79082" lon="6.95435">
        <ele>1865</ele>
        <time>2022-08-27T07:04:40Z</time>
      </trkpt>
      <trkpt lat="45.79079" lon="6.95436">
        <ele>1864</ele>
        <time>2022-08-27T07:04:42Z</time>
      </trkpt>
      <trkpt lat="45.79079" lon="6.95439">
        <ele>1863</ele>
        <time>2022-08-27T07:04:44Z</time>
      </trkpt>
      <trkpt lat="45.79078" lon="6.95443">
        <ele>1863</ele>
        <time>2022-08-27T07:04:46Z</time>
      </trkpt>
      <trkpt lat="45.79079" lon="6.95447">
        <ele>1862</ele>
        <time>2022-08-27T07:04:48Z</time>
      </trkpt>
      <trkpt lat="45.79079" lon="6.95448">
        <ele>1862</ele>
        <time>2022-08-27T07:04:50Z</time>
      </trkpt>
      <trkpt lat="45.7908" lon="6.95449">
        <ele>1860</ele>
        <time>2022-08-27T07:04:51Z</time>
      </trkpt>
      <trkpt lat="45.7908" lon="6.9545">
        <ele>1858</ele>
        <time>2022-08-27T07:04:52Z</time>
      </trkpt>
      <trkpt lat="45.79081" lon="6.95451">
        <ele>1857</ele>
        <time>2022-08-27T07:04:54Z</time>
      </trkpt>
      <trkpt lat="45.79081" lon="6.95452">
        <ele>1857</ele>
        <time>2022-08-27T07:04:55Z</time>
      </trkpt>
      <trkpt lat="45.79082" lon="6.95453">
        <ele>1857</ele>
        <time>2022-08-27T07:04:56Z</time>
      </trkpt>
      <trkpt lat="45.79082" lon="6.95453">
        <ele>1856</ele>
        <time>2022-08-27T07:04:57Z</time>
      </trkpt>
      <trkpt lat="45.79082" lon="6.95454">
        <ele>1856</ele>
        <time>2022-08-27T07:04:58Z</time>
      </trkpt>
      <trkpt lat="45.79083" lon="6.95455">
        <ele>1856</ele>
        <time>2022-08-27T07:04:59Z</time>
      </trkpt>
      <trkpt lat="45.79081" lon="6.95456">
        <ele>1855</ele>
        <time>2022-08-27T07:05:00Z</time>
      </trkpt>
      <trkpt lat="45.79079" lon="6.95456">
        <ele>1855</ele>
        <time>2022-08-27T07:05:02Z</time>
      </trkpt>
      <trkpt lat="45.79077" lon="6.95457">
        <ele>1854</ele>
        <time>2022-08-27T07:05:03Z</time>
      </trkpt>
      <trkpt lat="45.79077" lon="6.95459">
        <ele>1853</ele>
        <time>2022-08-27T07:05:06Z</time>
      </trkpt>
      <trkpt lat="45.79073" lon="6.9546">
        <ele>1852</ele>
        <time>2022-08-27T07:05:09Z</time>
      </trkpt>
      <trkpt lat="45.79074" lon="6.95462">
        <ele>1851</ele>
        <time>2022-08-27T07:05:11Z</time>
      </trkpt>
      <trkpt lat="45.79076" lon="6.95465">
        <ele>1851</ele>
        <time>2022-08-27T07:05:13Z</time>
      </trkpt>
      <trkpt lat="45.79072" lon="6.95469">
        <ele>1849</ele>
        <time>2022-08-27T07:05:18Z</time>
      </trkpt>
      <trkpt lat="45.7907" lon="6.9547">
        <ele>1846</ele>
        <time>2022-08-27T07:05:23Z</time>
      </trkpt>
      <trkpt lat="45.79068" lon="6.95468">
        <ele>1846</ele>
        <time>2022-08-27T07:05:24Z</time>
      </trkpt>
      <trkpt lat="45.79066" lon="6.95467">
        <ele>1846</ele>
        <time>2022-08-27T07:05:25Z</time>
      </trkpt>
      <trkpt lat="45.79066" lon="6.95468">
        <ele>1846</ele>
        <time>2022-08-27T07:05:26Z</time>
      </trkpt>
      <trkpt lat="45.79065" lon="6.95469">
        <ele>1846</ele>
        <time>2022-08-27T07:05:28Z</time>
      </trkpt>
      <trkpt lat="45.79064" lon="6.95469">
        <ele>1846</ele>
        <time>2022-08-27T07:05:29Z</time>
      </trkpt>
      <trkpt lat="45.79064" lon="6.9547">
        <ele>1843</ele>
        <time>2022-08-27T07:05:30Z</time>
      </trkpt>
      <trkpt lat="45.79062" lon="6.95468">
        <ele>1843</ele>
        <time>2022-08-27T07:05:34Z</time>
      </trkpt>
      <trkpt lat="45.79059" lon="6.9547">
        <ele>1841</ele>
        <time>2022-08-27T07:05:38Z</time>
      </trkpt>
      <trkpt lat="45.79057" lon="6.95473">
        <ele>1839</ele>
        <time>2022-08-27T07:05:41Z</time>
      </trkpt>
      <trkpt lat="45.79057" lon="6.95476">
        <ele>1838</ele>
        <time>2022-08-27T07:05:44Z</time>
      </trkpt>
      <trkpt lat="45.79054" lon="6.95476">
        <ele>1838</ele>
        <time>2022-08-27T07:05:46Z</time>
      </trkpt>
      <trkpt lat="45.79052" lon="6.95479">
        <ele>1835</ele>
        <time>2022-08-27T07:05:49Z</time>
      </trkpt>
      <trkpt lat="45.79052" lon="6.9548">
        <ele>1834</ele>
        <time>2022-08-27T07:05:50Z</time>
      </trkpt>
      <trkpt lat="45.79054" lon="6.95483">
        <ele>1834</ele>
        <time>2022-08-27T07:05:52Z</time>
      </trkpt>
      <trkpt lat="45.79057" lon="6.95484">
        <ele>1833</ele>
        <time>2022-08-27T07:05:54Z</time>
      </trkpt>
      <trkpt lat="45.79059" lon="6.95487">
        <ele>1832</ele>
        <time>2022-08-27T07:05:56Z</time>
      </trkpt>
      <trkpt lat="45.79062" lon="6.95491">
        <ele>1829</ele>
        <time>2022-08-27T07:06:00Z</time>
      </trkpt>
      <trkpt lat="45.7906" lon="6.95495">
        <ele>1829</ele>
        <time>2022-08-27T07:06:01Z</time>
      </trkpt>
      <trkpt lat="45.79059" lon="6.95495">
        <ele>1828</ele>
        <time>2022-08-27T07:06:02Z</time>
      </trkpt>
      <trkpt lat="45.79058" lon="6.95495">
        <ele>1828</ele>
        <time>2022-08-27T07:06:03Z</time>
      </trkpt>
      <trkpt lat="45.79057" lon="6.95496">
        <ele>1828</ele>
        <time>2022-08-27T07:06:04Z</time>
      </trkpt>
      <trkpt lat="45.79056" lon="6.95496">
        <ele>1828</ele>
        <time>2022-08-27T07:06:05Z</time>
      </trkpt>
      <trkpt lat="45.79053" lon="6.95497">
        <ele>1828</ele>
        <time>2022-08-27T07:06:06Z</time>
      </trkpt>
      <trkpt lat="45.7905" lon="6.95499">
        <ele>1827</ele>
        <time>2022-08-27T07:06:08Z</time>
      </trkpt>
      <trkpt lat="45.79047" lon="6.955">
        <ele>1827</ele>
        <time>2022-08-27T07:06:09Z</time>
      </trkpt>
      <trkpt lat="45.79045" lon="6.955">
        <ele>1826</ele>
        <time>2022-08-27T07:06:10Z</time>
      </trkpt>
      <trkpt lat="45.79043" lon="6.95503">
        <ele>1825</ele>
        <time>2022-08-27T07:06:12Z</time>
      </trkpt>
      <trkpt lat="45.79041" lon="6.95505">
        <ele>1824</ele>
        <time>2022-08-27T07:06:16Z</time>
      </trkpt>
      <trkpt lat="45.79042" lon="6.95502">
        <ele>1823</ele>
        <time>2022-08-27T07:06:18Z</time>
      </trkpt>
      <trkpt lat="45.79044" lon="6.95501">
        <ele>1823</ele>
        <time>2022-08-27T07:06:20Z</time>
      </trkpt>
      <trkpt lat="45.79047" lon="6.95501">
        <ele>1822</ele>
        <time>2022-08-27T07:06:23Z</time>
      </trkpt>
      <trkpt lat="45.79049" lon="6.95502">
        <ele>1822</ele>
        <time>2022-08-27T07:06:24Z</time>
      </trkpt>
      <trkpt lat="45.79051" lon="6.95503">
        <ele>1821</ele>
        <time>2022-08-27T07:06:26Z</time>
      </trkpt>
      <trkpt lat="45.79053" lon="6.95504">
        <ele>1819</ele>
        <time>2022-08-27T07:06:28Z</time>
      </trkpt>
      <trkpt lat="45.79055" lon="6.95507">
        <ele>1818</ele>
        <time>2022-08-27T07:06:30Z</time>
      </trkpt>
      <trkpt lat="45.79058" lon="6.95509">
        <ele>1818</ele>
        <time>2022-08-27T07:06:32Z</time>
      </trkpt>
      <trkpt lat="45.7906" lon="6.95512">
        <ele>1817</ele>
        <time>2022-08-27T07:06:34Z</time>
      </trkpt>
      <trkpt lat="45.79061" lon="6.95514">
        <ele>1814</ele>
        <time>2022-08-27T07:06:37Z</time>
      </trkpt>
      <trkpt lat="45.79062" lon="6.95515">
        <ele>1814</ele>
        <time>2022-08-27T07:06:38Z</time>
      </trkpt>
      <trkpt lat="45.79063" lon="6.95517">
        <ele>1813</ele>
        <time>2022-08-27T07:06:39Z</time>
      </trkpt>
      <trkpt lat="45.79064" lon="6.95519">
        <ele>1813</ele>
        <time>2022-08-27T07:06:40Z</time>
      </trkpt>
      <trkpt lat="45.79065" lon="6.9552">
        <ele>1813</ele>
        <time>2022-08-27T07:06:41Z</time>
      </trkpt>
      <trkpt lat="45.79066" lon="6.95522">
        <ele>1812</ele>
        <time>2022-08-27T07:06:42Z</time>
      </trkpt>
      <trkpt lat="45.79067" lon="6.95525">
        <ele>1812</ele>
        <time>2022-08-27T07:06:44Z</time>
      </trkpt>
      <trkpt lat="45.79068" lon="6.95528">
        <ele>1810</ele>
        <time>2022-08-27T07:06:46Z</time>
      </trkpt>
      <trkpt lat="45.79069" lon="6.95531">
        <ele>1810</ele>
        <time>2022-08-27T07:06:48Z</time>
      </trkpt>
      <trkpt lat="45.7907" lon="6.95534">
        <ele>1809</ele>
        <time>2022-08-27T07:06:49Z</time>
      </trkpt>
      <trkpt lat="45.79074" lon="6.95534">
        <ele>1808</ele>
        <time>2022-08-27T07:06:53Z</time>
      </trkpt>
      <trkpt lat="45.79076" lon="6.95534">
        <ele>1806</ele>
        <time>2022-08-27T07:06:55Z</time>
      </trkpt>
      <trkpt lat="45.79078" lon="6.95534">
        <ele>1805</ele>
        <time>2022-08-27T07:06:58Z</time>
      </trkpt>
      <trkpt lat="45.7908" lon="6.95535">
        <ele>1805</ele>
        <time>2022-08-27T07:06:59Z</time>
      </trkpt>
      <trkpt lat="45.79083" lon="6.95535">
        <ele>1803</ele>
        <time>2022-08-27T07:07:00Z</time>
      </trkpt>
      <trkpt lat="45.79084" lon="6.95535">
        <ele>1803</ele>
        <time>2022-08-27T07:07:01Z</time>
      </trkpt>
      <trkpt lat="45.79085" lon="6.95536">
        <ele>1802</ele>
        <time>2022-08-27T07:07:03Z</time>
      </trkpt>
      <trkpt lat="45.79086" lon="6.95537">
        <ele>1801</ele>
        <time>2022-08-27T07:07:04Z</time>
      </trkpt>
      <trkpt lat="45.79088" lon="6.95537">
        <ele>1801</ele>
        <time>2022-08-27T07:07:05Z</time>
      </trkpt>
      <trkpt lat="45.79089" lon="6.95538">
        <ele>1800</ele>
        <time>2022-08-27T07:07:07Z</time>
      </trkpt>
      <trkpt lat="45.7909" lon="6.95539">
        <ele>1800</ele>
        <time>2022-08-27T07:07:08Z</time>
      </trkpt>
      <trkpt lat="45.79091" lon="6.95539">
        <ele>1800</ele>
        <time>2022-08-27T07:07:09Z</time>
      </trkpt>
      <trkpt lat="45.79092" lon="6.9554">
        <ele>1799</ele>
        <time>2022-08-27T07:07:10Z</time>
      </trkpt>
      <trkpt lat="45.79093" lon="6.9554">
        <ele>1799</ele>
        <time>2022-08-27T07:07:11Z</time>
      </trkpt>
      <trkpt lat="45.79094" lon="6.9554">
        <ele>1798</ele>
        <time>2022-08-27T07:07:12Z</time>
      </trkpt>
      <trkpt lat="45.79095" lon="6.95541">
        <ele>1797</ele>
        <time>2022-08-27T07:07:14Z</time>
      </trkpt>
      <trkpt lat="45.79096" lon="6.95541">
        <ele>1796</ele>
        <time>2022-08-27T07:07:15Z</time>
      </trkpt>
      <trkpt lat="45.79097" lon="6.95542">
        <ele>1795</ele>
        <time>2022-08-27T07:07:16Z</time>
      </trkpt>
      <trkpt lat="45.79099" lon="6.95542">
        <ele>1794</ele>
        <time>2022-08-27T07:07:17Z</time>
      </trkpt>
      <trkpt lat="45.791" lon="6.95542">
        <ele>1794</ele>
        <time>2022-08-27T07:07:18Z</time>
      </trkpt>
      <trkpt lat="45.79101" lon="6.95543">
        <ele>1793</ele>
        <time>2022-08-27T07:07:19Z</time>
      </trkpt>
      <trkpt lat="45.79102" lon="6.95543">
        <ele>1793</ele>
        <time>2022-08-27T07:07:21Z</time>
      </trkpt>
      <trkpt lat="45.79104" lon="6.95542">
        <ele>1793</ele>
        <time>2022-08-27T07:07:22Z</time>
      </trkpt>
      <trkpt lat="45.79105" lon="6.95542">
        <ele>1792</ele>
        <time>2022-08-27T07:07:23Z</time>
      </trkpt>
      <trkpt lat="45.79107" lon="6.95542">
        <ele>1791</ele>
        <time>2022-08-27T07:07:24Z</time>
      </trkpt>
      <trkpt lat="45.79108" lon="6.95542">
        <ele>1791</ele>
        <time>2022-08-27T07:07:25Z</time>
      </trkpt>
      <trkpt lat="45.7911" lon="6.95542">
        <ele>1791</ele>
        <time>2022-08-27T07:07:26Z</time>
      </trkpt>
      <trkpt lat="45.7912" lon="6.95547">
        <ele>1789</ele>
        <time>2022-08-27T07:07:31Z</time>
      </trkpt>
      <trkpt lat="45.79121" lon="6.95547">
        <ele>1788</ele>
        <time>2022-08-27T07:07:32Z</time>
      </trkpt>
      <trkpt lat="45.79122" lon="6.95547">
        <ele>1788</ele>
        <time>2022-08-27T07:07:33Z</time>
      </trkpt>
      <trkpt lat="45.79123" lon="6.95547">
        <ele>1788</ele>
        <time>2022-08-27T07:07:34Z</time>
      </trkpt>
      <trkpt lat="45.79124" lon="6.95547">
        <ele>1786</ele>
        <time>2022-08-27T07:07:36Z</time>
      </trkpt>
      <trkpt lat="45.79125" lon="6.95547">
        <ele>1786</ele>
        <time>2022-08-27T07:07:37Z</time>
      </trkpt>
      <trkpt lat="45.79132" lon="6.95549">
        <ele>1786</ele>
        <time>2022-08-27T07:07:38Z</time>
      </trkpt>
      <trkpt lat="45.79134" lon="6.95549">
        <ele>1785</ele>
        <time>2022-08-27T07:07:39Z</time>
      </trkpt>
      <trkpt lat="45.79136" lon="6.9555">
        <ele>1785</ele>
        <time>2022-08-27T07:07:41Z</time>
      </trkpt>
      <trkpt lat="45.79138" lon="6.95551">
        <ele>1783</ele>
        <time>2022-08-27T07:07:43Z</time>
      </trkpt>
      <trkpt lat="45.7914" lon="6.95551">
        <ele>1783</ele>
        <time>2022-08-27T07:07:44Z</time>
      </trkpt>
      <trkpt lat="45.79142" lon="6.95552">
        <ele>1783</ele>
        <time>2022-08-27T07:07:45Z</time>
      </trkpt>
      <trkpt lat="45.79143" lon="6.95553">
        <ele>1783</ele>
        <time>2022-08-27T07:07:46Z</time>
      </trkpt>
      <trkpt lat="45.79145" lon="6.95554">
        <ele>1783</ele>
        <time>2022-08-27T07:07:47Z</time>
      </trkpt>
      <trkpt lat="45.79147" lon="6.95555">
        <ele>1783</ele>
        <time>2022-08-27T07:07:48Z</time>
      </trkpt>
      <trkpt lat="45.79149" lon="6.95556">
        <ele>1783</ele>
        <time>2022-08-27T07:07:49Z</time>
      </trkpt>
      <trkpt lat="45.7915" lon="6.95557">
        <ele>1781</ele>
        <time>2022-08-27T07:07:50Z</time>
      </trkpt>
      <trkpt lat="45.79157" lon="6.95566">
        <ele>1778</ele>
        <time>2022-08-27T07:07:55Z</time>
      </trkpt>
      <trkpt lat="45.79158" lon="6.95569">
        <ele>1778</ele>
        <time>2022-08-27T07:07:57Z</time>
      </trkpt>
      <trkpt lat="45.79158" lon="6.95572">
        <ele>1777</ele>
        <time>2022-08-27T07:07:58Z</time>
      </trkpt>
      <trkpt lat="45.79159" lon="6.95574">
        <ele>1777</ele>
        <time>2022-08-27T07:08:00Z</time>
      </trkpt>
      <trkpt lat="45.79159" lon="6.95577">
        <ele>1777</ele>
        <time>2022-08-27T07:08:01Z</time>
      </trkpt>
      <trkpt lat="45.7916" lon="6.95579">
        <ele>1775</ele>
        <time>2022-08-27T07:08:02Z</time>
      </trkpt>
      <trkpt lat="45.79158" lon="6.95581">
        <ele>1775</ele>
        <time>2022-08-27T07:08:03Z</time>
      </trkpt>
      <trkpt lat="45.79157" lon="6.95583">
        <ele>1775</ele>
        <time>2022-08-27T07:08:04Z</time>
      </trkpt>
      <trkpt lat="45.79156" lon="6.95585">
        <ele>1775</ele>
        <time>2022-08-27T07:08:05Z</time>
      </trkpt>
      <trkpt lat="45.79154" lon="6.95587">
        <ele>1774</ele>
        <time>2022-08-27T07:08:07Z</time>
      </trkpt>
      <trkpt lat="45.79153" lon="6.95588">
        <ele>1774</ele>
        <time>2022-08-27T07:08:08Z</time>
      </trkpt>
      <trkpt lat="45.79152" lon="6.95589">
        <ele>1773</ele>
        <time>2022-08-27T07:08:09Z</time>
      </trkpt>
      <trkpt lat="45.79152" lon="6.95589">
        <ele>1773</ele>
        <time>2022-08-27T07:08:10Z</time>
      </trkpt>
      <trkpt lat="45.79151" lon="6.9559">
        <ele>1772</ele>
        <time>2022-08-27T07:08:12Z</time>
      </trkpt>
      <trkpt lat="45.79151" lon="6.9559">
        <ele>1772</ele>
        <time>2022-08-27T07:08:13Z</time>
      </trkpt>
      <trkpt lat="45.7915" lon="6.95591">
        <ele>1771</ele>
        <time>2022-08-27T07:08:14Z</time>
      </trkpt>
      <trkpt lat="45.7915" lon="6.95591">
        <ele>1771</ele>
        <time>2022-08-27T07:08:15Z</time>
      </trkpt>
      <trkpt lat="45.79149" lon="6.95592">
        <ele>1770</ele>
        <time>2022-08-27T07:08:17Z</time>
      </trkpt>
      <trkpt lat="45.79148" lon="6.95592">
        <ele>1770</ele>
        <time>2022-08-27T07:08:19Z</time>
      </trkpt>
      <trkpt lat="45.79148" lon="6.95593">
        <ele>1768</ele>
        <time>2022-08-27T07:08:20Z</time>
      </trkpt>
      <trkpt lat="45.79147" lon="6.95593">
        <ele>1767</ele>
        <time>2022-08-27T07:08:21Z</time>
      </trkpt>
      <trkpt lat="45.79147" lon="6.95593">
        <ele>1767</ele>
        <time>2022-08-27T07:08:22Z</time>
      </trkpt>
      <trkpt lat="45.79146" lon="6.95594">
        <ele>1767</ele>
        <time>2022-08-27T07:08:24Z</time>
      </trkpt>
      <trkpt lat="45.79146" lon="6.95594">
        <ele>1767</ele>
        <time>2022-08-27T07:08:25Z</time>
      </trkpt>
      <trkpt lat="45.79145" lon="6.95595">
        <ele>1767</ele>
        <time>2022-08-27T07:08:26Z</time>
      </trkpt>
      <trkpt lat="45.79145" lon="6.95595">
        <ele>1766</ele>
        <time>2022-08-27T07:08:27Z</time>
      </trkpt>
      <trkpt lat="45.79144" lon="6.95596">
        <ele>1765</ele>
        <time>2022-08-27T07:08:29Z</time>
      </trkpt>
      <trkpt lat="45.79143" lon="6.95596">
        <ele>1765</ele>
        <time>2022-08-27T07:08:30Z</time>
      </trkpt>
      <trkpt lat="45.79144" lon="6.95597">
        <ele>1764</ele>
        <time>2022-08-27T07:08:31Z</time>
      </trkpt>
      <trkpt lat="45.79144" lon="6.95598">
        <ele>1764</ele>
        <time>2022-08-27T07:08:32Z</time>
      </trkpt>
      <trkpt lat="45.79144" lon="6.95598">
        <ele>1764</ele>
        <time>2022-08-27T07:08:33Z</time>
      </trkpt>
      <trkpt lat="45.79144" lon="6.95599">
        <ele>1764</ele>
        <time>2022-08-27T07:08:35Z</time>
      </trkpt>
      <trkpt lat="45.79144" lon="6.956">
        <ele>1764</ele>
        <time>2022-08-27T07:08:36Z</time>
      </trkpt>
      <trkpt lat="45.79145" lon="6.956">
        <ele>1764</ele>
        <time>2022-08-27T07:08:38Z</time>
      </trkpt>
      <trkpt lat="45.79145" lon="6.95601">
        <ele>1763</ele>
        <time>2022-08-27T07:08:40Z</time>
      </trkpt>
      <trkpt lat="45.79145" lon="6.95602">
        <ele>1761</ele>
        <time>2022-08-27T07:08:42Z</time>
      </trkpt>
      <trkpt lat="45.79145" lon="6.95603">
        <ele>1760</ele>
        <time>2022-08-27T07:08:43Z</time>
      </trkpt>
      <trkpt lat="45.79145" lon="6.95603">
        <ele>1760</ele>
        <time>2022-08-27T07:08:44Z</time>
      </trkpt>
      <trkpt lat="45.79146" lon="6.95604">
        <ele>1760</ele>
        <time>2022-08-27T07:08:45Z</time>
      </trkpt>
      <trkpt lat="45.79146" lon="6.95605">
        <ele>1759</ele>
        <time>2022-08-27T07:08:47Z</time>
      </trkpt>
      <trkpt lat="45.79146" lon="6.95605">
        <ele>1759</ele>
        <time>2022-08-27T07:08:48Z</time>
      </trkpt>
      <trkpt lat="45.79146" lon="6.95606">
        <ele>1758</ele>
        <time>2022-08-27T07:08:49Z</time>
      </trkpt>
      <trkpt lat="45.79146" lon="6.95607">
        <ele>1758</ele>
        <time>2022-08-27T07:08:50Z</time>
      </trkpt>
      <trkpt lat="45.79147" lon="6.95607">
        <ele>1757</ele>
        <time>2022-08-27T07:08:52Z</time>
      </trkpt>
      <trkpt lat="45.79147" lon="6.95608">
        <ele>1757</ele>
        <time>2022-08-27T07:08:53Z</time>
      </trkpt>
      <trkpt lat="45.79147" lon="6.95609">
        <ele>1757</ele>
        <time>2022-08-27T07:08:54Z</time>
      </trkpt>
      <trkpt lat="45.79148" lon="6.9561">
        <ele>1756</ele>
        <time>2022-08-27T07:08:55Z</time>
      </trkpt>
      <trkpt lat="45.79148" lon="6.9561">
        <ele>1755</ele>
        <time>2022-08-27T07:08:57Z</time>
      </trkpt>
      <trkpt lat="45.79149" lon="6.95611">
        <ele>1755</ele>
        <time>2022-08-27T07:08:58Z</time>
      </trkpt>
      <trkpt lat="45.7915" lon="6.95611">
        <ele>1754</ele>
        <time>2022-08-27T07:08:59Z</time>
      </trkpt>
      <trkpt lat="45.7915" lon="6.95612">
        <ele>1754</ele>
        <time>2022-08-27T07:09:00Z</time>
      </trkpt>
      <trkpt lat="45.79151" lon="6.95613">
        <ele>1754</ele>
        <time>2022-08-27T07:09:01Z</time>
      </trkpt>
      <trkpt lat="45.79152" lon="6.95613">
        <ele>1754</ele>
        <time>2022-08-27T07:09:02Z</time>
      </trkpt>
      <trkpt lat="45.79153" lon="6.95614">
        <ele>1753</ele>
        <time>2022-08-27T07:09:04Z</time>
      </trkpt>
      <trkpt lat="45.79153" lon="6.95614">
        <ele>1753</ele>
        <time>2022-08-27T07:09:05Z</time>
      </trkpt>
      <trkpt lat="45.79154" lon="6.95615">
        <ele>1753</ele>
        <time>2022-08-27T07:09:06Z</time>
      </trkpt>
      <trkpt lat="45.79155" lon="6.95616">
        <ele>1753</ele>
        <time>2022-08-27T07:09:07Z</time>
      </trkpt>
      <trkpt lat="45.79156" lon="6.95617">
        <ele>1752</ele>
        <time>2022-08-27T07:09:09Z</time>
      </trkpt>
      <trkpt lat="45.79157" lon="6.95617">
        <ele>1752</ele>
        <time>2022-08-27T07:09:10Z</time>
      </trkpt>
      <trkpt lat="45.79159" lon="6.95618">
        <ele>1751</ele>
        <time>2022-08-27T07:09:11Z</time>
      </trkpt>
      <trkpt lat="45.7916" lon="6.95619">
        <ele>1750</ele>
        <time>2022-08-27T07:09:12Z</time>
      </trkpt>
      <trkpt lat="45.79161" lon="6.9562">
        <ele>1750</ele>
        <time>2022-08-27T07:09:14Z</time>
      </trkpt>
      <trkpt lat="45.79162" lon="6.95621">
        <ele>1750</ele>
        <time>2022-08-27T07:09:15Z</time>
      </trkpt>
      <trkpt lat="45.79164" lon="6.95622">
        <ele>1750</ele>
        <time>2022-08-27T07:09:16Z</time>
      </trkpt>
      <trkpt lat="45.79157" lon="6.95631">
        <ele>1748</ele>
        <time>2022-08-27T07:09:20Z</time>
      </trkpt>
      <trkpt lat="45.79154" lon="6.95632">
        <ele>1747</ele>
        <time>2022-08-27T07:09:21Z</time>
      </trkpt>
      <trkpt lat="45.79152" lon="6.95633">
        <ele>1747</ele>
        <time>2022-08-27T07:09:22Z</time>
      </trkpt>
      <trkpt lat="45.7915" lon="6.95634">
        <ele>1746</ele>
        <time>2022-08-27T07:09:23Z</time>
      </trkpt>
      <trkpt lat="45.79148" lon="6.95635">
        <ele>1746</ele>
        <time>2022-08-27T07:09:25Z</time>
      </trkpt>
      <trkpt lat="45.79146" lon="6.95636">
        <ele>1745</ele>
        <time>2022-08-27T07:09:26Z</time>
      </trkpt>
      <trkpt lat="45.79145" lon="6.95636">
        <ele>1745</ele>
        <time>2022-08-27T07:09:27Z</time>
      </trkpt>
      <trkpt lat="45.79145" lon="6.95637">
        <ele>1744</ele>
        <time>2022-08-27T07:09:28Z</time>
      </trkpt>
      <trkpt lat="45.79144" lon="6.95637">
        <ele>1744</ele>
        <time>2022-08-27T07:09:29Z</time>
      </trkpt>
      <trkpt lat="45.79144" lon="6.95637">
        <ele>1743</ele>
        <time>2022-08-27T07:09:31Z</time>
      </trkpt>
      <trkpt lat="45.79143" lon="6.95638">
        <ele>1742</ele>
        <time>2022-08-27T07:09:32Z</time>
      </trkpt>
      <trkpt lat="45.79143" lon="6.95638">
        <ele>1742</ele>
        <time>2022-08-27T07:09:33Z</time>
      </trkpt>
      <trkpt lat="45.79135" lon="6.95643">
        <ele>1741</ele>
        <time>2022-08-27T07:09:35Z</time>
      </trkpt>
      <trkpt lat="45.79133" lon="6.95645">
        <ele>1741</ele>
        <time>2022-08-27T07:09:36Z</time>
      </trkpt>
      <trkpt lat="45.79131" lon="6.95646">
        <ele>1740</ele>
        <time>2022-08-27T07:09:37Z</time>
      </trkpt>
      <trkpt lat="45.79129" lon="6.95647">
        <ele>1740</ele>
        <time>2022-08-27T07:09:38Z</time>
      </trkpt>
      <trkpt lat="45.79128" lon="6.95649">
        <ele>1740</ele>
        <time>2022-08-27T07:09:39Z</time>
      </trkpt>
      <trkpt lat="45.79126" lon="6.9565">
        <ele>1739</ele>
        <time>2022-08-27T07:09:40Z</time>
      </trkpt>
      <trkpt lat="45.79125" lon="6.95651">
        <ele>1739</ele>
        <time>2022-08-27T07:09:41Z</time>
      </trkpt>
      <trkpt lat="45.79123" lon="6.95652">
        <ele>1738</ele>
        <time>2022-08-27T07:09:42Z</time>
      </trkpt>
      <trkpt lat="45.79122" lon="6.95653">
        <ele>1737</ele>
        <time>2022-08-27T07:09:44Z</time>
      </trkpt>
      <trkpt lat="45.79121" lon="6.95655">
        <ele>1736</ele>
        <time>2022-08-27T07:09:45Z</time>
      </trkpt>
      <trkpt lat="45.79119" lon="6.95656">
        <ele>1736</ele>
        <time>2022-08-27T07:09:46Z</time>
      </trkpt>
      <trkpt lat="45.79118" lon="6.95657">
        <ele>1736</ele>
        <time>2022-08-27T07:09:47Z</time>
      </trkpt>
      <trkpt lat="45.79117" lon="6.95658">
        <ele>1735</ele>
        <time>2022-08-27T07:09:49Z</time>
      </trkpt>
      <trkpt lat="45.79116" lon="6.95659">
        <ele>1735</ele>
        <time>2022-08-27T07:09:50Z</time>
      </trkpt>
      <trkpt lat="45.79115" lon="6.9566">
        <ele>1734</ele>
        <time>2022-08-27T07:09:51Z</time>
      </trkpt>
      <trkpt lat="45.79114" lon="6.9566">
        <ele>1733</ele>
        <time>2022-08-27T07:09:52Z</time>
      </trkpt>
      <trkpt lat="45.79114" lon="6.95661">
        <ele>1732</ele>
        <time>2022-08-27T07:09:54Z</time>
      </trkpt>
      <trkpt lat="45.79113" lon="6.95662">
        <ele>1730</ele>
        <time>2022-08-27T07:09:56Z</time>
      </trkpt>
      <trkpt lat="45.79112" lon="6.95663">
        <ele>1730</ele>
        <time>2022-08-27T07:09:57Z</time>
      </trkpt>
      <trkpt lat="45.79111" lon="6.95663">
        <ele>1729</ele>
        <time>2022-08-27T07:09:58Z</time>
      </trkpt>
      <trkpt lat="45.7911" lon="6.95663">
        <ele>1728</ele>
        <time>2022-08-27T07:09:59Z</time>
      </trkpt>
      <trkpt lat="45.79109" lon="6.95663">
        <ele>1728</ele>
        <time>2022-08-27T07:10:01Z</time>
      </trkpt>
      <trkpt lat="45.79108" lon="6.95663">
        <ele>1728</ele>
        <time>2022-08-27T07:10:02Z</time>
      </trkpt>
      <trkpt lat="45.79107" lon="6.95663">
        <ele>1728</ele>
        <time>2022-08-27T07:10:03Z</time>
      </trkpt>
      <trkpt lat="45.79106" lon="6.95663">
        <ele>1727</ele>
        <time>2022-08-27T07:10:04Z</time>
      </trkpt>
      <trkpt lat="45.79105" lon="6.95663">
        <ele>1726</ele>
        <time>2022-08-27T07:10:06Z</time>
      </trkpt>
      <trkpt lat="45.79104" lon="6.95663">
        <ele>1725</ele>
        <time>2022-08-27T07:10:08Z</time>
      </trkpt>
      <trkpt lat="45.79103" lon="6.95663">
        <ele>1725</ele>
        <time>2022-08-27T07:10:09Z</time>
      </trkpt>
      <trkpt lat="45.79103" lon="6.95663">
        <ele>1725</ele>
        <time>2022-08-27T07:10:10Z</time>
      </trkpt>
      <trkpt lat="45.79094" lon="6.95668">
        <ele>1723</ele>
        <time>2022-08-27T07:10:13Z</time>
      </trkpt>
      <trkpt lat="45.79091" lon="6.95668">
        <ele>1722</ele>
        <time>2022-08-27T07:10:14Z</time>
      </trkpt>
      <trkpt lat="45.79089" lon="6.95669">
        <ele>1721</ele>
        <time>2022-08-27T07:10:15Z</time>
      </trkpt>
      <trkpt lat="45.79087" lon="6.95669">
        <ele>1721</ele>
        <time>2022-08-27T07:10:17Z</time>
      </trkpt>
      <trkpt lat="45.79084" lon="6.95669">
        <ele>1721</ele>
        <time>2022-08-27T07:10:18Z</time>
      </trkpt>
      <trkpt lat="45.79084" lon="6.9567">
        <ele>1720</ele>
        <time>2022-08-27T07:10:19Z</time>
      </trkpt>
      <trkpt lat="45.79084" lon="6.95671">
        <ele>1720</ele>
        <time>2022-08-27T07:10:20Z</time>
      </trkpt>
      <trkpt lat="45.79083" lon="6.95671">
        <ele>1719</ele>
        <time>2022-08-27T07:10:21Z</time>
      </trkpt>
      <trkpt lat="45.79083" lon="6.95672">
        <ele>1719</ele>
        <time>2022-08-27T07:10:22Z</time>
      </trkpt>
      <trkpt lat="45.79083" lon="6.95672">
        <ele>1718</ele>
        <time>2022-08-27T07:10:23Z</time>
      </trkpt>
      <trkpt lat="45.79082" lon="6.95673">
        <ele>1718</ele>
        <time>2022-08-27T07:10:24Z</time>
      </trkpt>
      <trkpt lat="45.79082" lon="6.95673">
        <ele>1717</ele>
        <time>2022-08-27T07:10:25Z</time>
      </trkpt>
      <trkpt lat="45.79077" lon="6.95682">
        <ele>1716</ele>
        <time>2022-08-27T07:10:27Z</time>
      </trkpt>
      <trkpt lat="45.79076" lon="6.95683">
        <ele>1715</ele>
        <time>2022-08-27T07:10:28Z</time>
      </trkpt>
      <trkpt lat="45.79076" lon="6.95684">
        <ele>1715</ele>
        <time>2022-08-27T07:10:29Z</time>
      </trkpt>
      <trkpt lat="45.79075" lon="6.95685">
        <ele>1715</ele>
        <time>2022-08-27T07:10:30Z</time>
      </trkpt>
      <trkpt lat="45.79075" lon="6.95686">
        <ele>1715</ele>
        <time>2022-08-27T07:10:32Z</time>
      </trkpt>
      <trkpt lat="45.79074" lon="6.95686">
        <ele>1714</ele>
        <time>2022-08-27T07:10:34Z</time>
      </trkpt>
      <trkpt lat="45.79074" lon="6.95687">
        <ele>1713</ele>
        <time>2022-08-27T07:10:35Z</time>
      </trkpt>
      <trkpt lat="45.79073" lon="6.95688">
        <ele>1713</ele>
        <time>2022-08-27T07:10:36Z</time>
      </trkpt>
      <trkpt lat="45.79073" lon="6.95689">
        <ele>1712</ele>
        <time>2022-08-27T07:10:37Z</time>
      </trkpt>
      <trkpt lat="45.79072" lon="6.9569">
        <ele>1712</ele>
        <time>2022-08-27T07:10:39Z</time>
      </trkpt>
      <trkpt lat="45.79072" lon="6.95691">
        <ele>1711</ele>
        <time>2022-08-27T07:10:40Z</time>
      </trkpt>
      <trkpt lat="45.79071" lon="6.95692">
        <ele>1710</ele>
        <time>2022-08-27T07:10:41Z</time>
      </trkpt>
      <trkpt lat="45.79072" lon="6.95693">
        <ele>1709</ele>
        <time>2022-08-27T07:10:42Z</time>
      </trkpt>
      <trkpt lat="45.79073" lon="6.95693">
        <ele>1709</ele>
        <time>2022-08-27T07:10:44Z</time>
      </trkpt>
      <trkpt lat="45.79074" lon="6.95694">
        <ele>1708</ele>
        <time>2022-08-27T07:10:46Z</time>
      </trkpt>
      <trkpt lat="45.79075" lon="6.95694">
        <ele>1708</ele>
        <time>2022-08-27T07:10:47Z</time>
      </trkpt>
      <trkpt lat="45.79075" lon="6.95695">
        <ele>1707</ele>
        <time>2022-08-27T07:10:48Z</time>
      </trkpt>
      <trkpt lat="45.79076" lon="6.95695">
        <ele>1707</ele>
        <time>2022-08-27T07:10:49Z</time>
      </trkpt>
      <trkpt lat="45.79077" lon="6.95696">
        <ele>1707</ele>
        <time>2022-08-27T07:10:51Z</time>
      </trkpt>
      <trkpt lat="45.79078" lon="6.95696">
        <ele>1706</ele>
        <time>2022-08-27T07:10:52Z</time>
      </trkpt>
      <trkpt lat="45.79079" lon="6.95697">
        <ele>1706</ele>
        <time>2022-08-27T07:10:53Z</time>
      </trkpt>
      <trkpt lat="45.7908" lon="6.95697">
        <ele>1706</ele>
        <time>2022-08-27T07:10:54Z</time>
      </trkpt>
      <trkpt lat="45.79081" lon="6.95698">
        <ele>1706</ele>
        <time>2022-08-27T07:10:55Z</time>
      </trkpt>
      <trkpt lat="45.79083" lon="6.95699">
        <ele>1706</ele>
        <time>2022-08-27T07:10:56Z</time>
      </trkpt>
      <trkpt lat="45.79085" lon="6.95699">
        <ele>1706</ele>
        <time>2022-08-27T07:10:57Z</time>
      </trkpt>
      <trkpt lat="45.79087" lon="6.957">
        <ele>1706</ele>
        <time>2022-08-27T07:10:58Z</time>
      </trkpt>
      <trkpt lat="45.79089" lon="6.95701">
        <ele>1706</ele>
        <time>2022-08-27T07:10:59Z</time>
      </trkpt>
      <trkpt lat="45.79092" lon="6.95705">
        <ele>1704</ele>
        <time>2022-08-27T07:11:01Z</time>
      </trkpt>
      <trkpt lat="45.79096" lon="6.95709">
        <ele>1704</ele>
        <time>2022-08-27T07:11:02Z</time>
      </trkpt>
      <trkpt lat="45.79098" lon="6.9571">
        <ele>1704</ele>
        <time>2022-08-27T07:11:03Z</time>
      </trkpt>
      <trkpt lat="45.791" lon="6.95712">
        <ele>1703</ele>
        <time>2022-08-27T07:11:04Z</time>
      </trkpt>
      <trkpt lat="45.79102" lon="6.95713">
        <ele>1701</ele>
        <time>2022-08-27T07:11:06Z</time>
      </trkpt>
      <trkpt lat="45.79104" lon="6.95715">
        <ele>1701</ele>
        <time>2022-08-27T07:11:07Z</time>
      </trkpt>
      <trkpt lat="45.79113" lon="6.95721">
        <ele>1699</ele>
        <time>2022-08-27T07:11:14Z</time>
      </trkpt>
      <trkpt lat="45.79112" lon="6.95722">
        <ele>1699</ele>
        <time>2022-08-27T07:11:15Z</time>
      </trkpt>
      <trkpt lat="45.79111" lon="6.95724">
        <ele>1698</ele>
        <time>2022-08-27T07:11:16Z</time>
      </trkpt>
      <trkpt lat="45.79111" lon="6.95725">
        <ele>1698</ele>
        <time>2022-08-27T07:11:17Z</time>
      </trkpt>
      <trkpt lat="45.7911" lon="6.95727">
        <ele>1697</ele>
        <time>2022-08-27T07:11:19Z</time>
      </trkpt>
      <trkpt lat="45.7911" lon="6.95728">
        <ele>1696</ele>
        <time>2022-08-27T07:11:20Z</time>
      </trkpt>
      <trkpt lat="45.79109" lon="6.9573">
        <ele>1696</ele>
        <time>2022-08-27T07:11:21Z</time>
      </trkpt>
      <trkpt lat="45.79109" lon="6.95731">
        <ele>1696</ele>
        <time>2022-08-27T07:11:22Z</time>
      </trkpt>
      <trkpt lat="45.79108" lon="6.95732">
        <ele>1696</ele>
        <time>2022-08-27T07:11:23Z</time>
      </trkpt>
      <trkpt lat="45.79108" lon="6.95734">
        <ele>1695</ele>
        <time>2022-08-27T07:11:24Z</time>
      </trkpt>
      <trkpt lat="45.79106" lon="6.95735">
        <ele>1695</ele>
        <time>2022-08-27T07:11:25Z</time>
      </trkpt>
      <trkpt lat="45.79104" lon="6.95737">
        <ele>1695</ele>
        <time>2022-08-27T07:11:26Z</time>
      </trkpt>
      <trkpt lat="45.79102" lon="6.95738">
        <ele>1695</ele>
        <time>2022-08-27T07:11:27Z</time>
      </trkpt>
      <trkpt lat="45.79101" lon="6.9574">
        <ele>1695</ele>
        <time>2022-08-27T07:11:28Z</time>
      </trkpt>
      <trkpt lat="45.79099" lon="6.95741">
        <ele>1694</ele>
        <time>2022-08-27T07:11:29Z</time>
      </trkpt>
      <trkpt lat="45.79098" lon="6.95742">
        <ele>1692</ele>
        <time>2022-08-27T07:11:30Z</time>
      </trkpt>
      <trkpt lat="45.79097" lon="6.95742">
        <ele>1691</ele>
        <time>2022-08-27T07:11:31Z</time>
      </trkpt>
      <trkpt lat="45.79096" lon="6.95742">
        <ele>1691</ele>
        <time>2022-08-27T07:11:32Z</time>
      </trkpt>
      <trkpt lat="45.79094" lon="6.95743">
        <ele>1691</ele>
        <time>2022-08-27T07:11:34Z</time>
      </trkpt>
      <trkpt lat="45.79093" lon="6.95743">
        <ele>1691</ele>
        <time>2022-08-27T07:11:35Z</time>
      </trkpt>
      <trkpt lat="45.79088" lon="6.95745">
        <ele>1691</ele>
        <time>2022-08-27T07:11:36Z</time>
      </trkpt>
      <trkpt lat="45.79096" lon="6.95753">
        <ele>1687</ele>
        <time>2022-08-27T07:11:46Z</time>
      </trkpt>
      <trkpt lat="45.79098" lon="6.95754">
        <ele>1686</ele>
        <time>2022-08-27T07:11:48Z</time>
      </trkpt>
      <trkpt lat="45.79099" lon="6.95755">
        <ele>1686</ele>
        <time>2022-08-27T07:11:49Z</time>
      </trkpt>
      <trkpt lat="45.791" lon="6.95756">
        <ele>1685</ele>
        <time>2022-08-27T07:11:50Z</time>
      </trkpt>
      <trkpt lat="45.79101" lon="6.95757">
        <ele>1684</ele>
        <time>2022-08-27T07:11:51Z</time>
      </trkpt>
      <trkpt lat="45.79108" lon="6.95761">
        <ele>1684</ele>
        <time>2022-08-27T07:11:52Z</time>
      </trkpt>
      <trkpt lat="45.79109" lon="6.95762">
        <ele>1683</ele>
        <time>2022-08-27T07:11:53Z</time>
      </trkpt>
      <trkpt lat="45.79111" lon="6.95763">
        <ele>1683</ele>
        <time>2022-08-27T07:11:54Z</time>
      </trkpt>
      <trkpt lat="45.79112" lon="6.95763">
        <ele>1682</ele>
        <time>2022-08-27T07:11:55Z</time>
      </trkpt>
      <trkpt lat="45.79114" lon="6.95764">
        <ele>1682</ele>
        <time>2022-08-27T07:11:56Z</time>
      </trkpt>
      <trkpt lat="45.79115" lon="6.95765">
        <ele>1682</ele>
        <time>2022-08-27T07:11:57Z</time>
      </trkpt>
      <trkpt lat="45.79115" lon="6.95766">
        <ele>1681</ele>
        <time>2022-08-27T07:11:58Z</time>
      </trkpt>
      <trkpt lat="45.79115" lon="6.95768">
        <ele>1679</ele>
        <time>2022-08-27T07:12:00Z</time>
      </trkpt>
      <trkpt lat="45.79115" lon="6.95769">
        <ele>1679</ele>
        <time>2022-08-27T07:12:01Z</time>
      </trkpt>
      <trkpt lat="45.79116" lon="6.95771">
        <ele>1679</ele>
        <time>2022-08-27T07:12:02Z</time>
      </trkpt>
      <trkpt lat="45.79116" lon="6.95772">
        <ele>1679</ele>
        <time>2022-08-27T07:12:03Z</time>
      </trkpt>
      <trkpt lat="45.79116" lon="6.95773">
        <ele>1679</ele>
        <time>2022-08-27T07:12:05Z</time>
      </trkpt>
      <trkpt lat="45.79116" lon="6.95775">
        <ele>1679</ele>
        <time>2022-08-27T07:12:07Z</time>
      </trkpt>
      <trkpt lat="45.79116" lon="6.95776">
        <ele>1677</ele>
        <time>2022-08-27T07:12:08Z</time>
      </trkpt>
      <trkpt lat="45.79116" lon="6.95778">
        <ele>1676</ele>
        <time>2022-08-27T07:12:09Z</time>
      </trkpt>
      <trkpt lat="45.79114" lon="6.9578">
        <ele>1676</ele>
        <time>2022-08-27T07:12:11Z</time>
      </trkpt>
      <trkpt lat="45.79113" lon="6.95782">
        <ele>1676</ele>
        <time>2022-08-27T07:12:12Z</time>
      </trkpt>
      <trkpt lat="45.79111" lon="6.95784">
        <ele>1676</ele>
        <time>2022-08-27T07:12:13Z</time>
      </trkpt>
      <trkpt lat="45.79109" lon="6.95786">
        <ele>1676</ele>
        <time>2022-08-27T07:12:14Z</time>
      </trkpt>
      <trkpt lat="45.79101" lon="6.95795">
        <ele>1673</ele>
        <time>2022-08-27T07:12:19Z</time>
      </trkpt>
      <trkpt lat="45.79092" lon="6.95798">
        <ele>1670</ele>
        <time>2022-08-27T07:12:26Z</time>
      </trkpt>
      <trkpt lat="45.7909" lon="6.958">
        <ele>1669</ele>
        <time>2022-08-27T07:12:28Z</time>
      </trkpt>
      <trkpt lat="45.79087" lon="6.95802">
        <ele>1668</ele>
        <time>2022-08-27T07:12:30Z</time>
      </trkpt>
      <trkpt lat="45.79084" lon="6.95805">
        <ele>1667</ele>
        <time>2022-08-27T07:12:31Z</time>
      </trkpt>
      <trkpt lat="45.79082" lon="6.95807">
        <ele>1667</ele>
        <time>2022-08-27T07:12:32Z</time>
      </trkpt>
      <trkpt lat="45.79079" lon="6.95809">
        <ele>1666</ele>
        <time>2022-08-27T07:12:33Z</time>
      </trkpt>
      <trkpt lat="45.79077" lon="6.9581">
        <ele>1666</ele>
        <time>2022-08-27T07:12:35Z</time>
      </trkpt>
      <trkpt lat="45.79075" lon="6.95812">
        <ele>1665</ele>
        <time>2022-08-27T07:12:36Z</time>
      </trkpt>
      <trkpt lat="45.79074" lon="6.95814">
        <ele>1665</ele>
        <time>2022-08-27T07:12:37Z</time>
      </trkpt>
      <trkpt lat="45.79074" lon="6.95815">
        <ele>1665</ele>
        <time>2022-08-27T07:12:38Z</time>
      </trkpt>
      <trkpt lat="45.79074" lon="6.95817">
        <ele>1664</ele>
        <time>2022-08-27T07:12:39Z</time>
      </trkpt>
      <trkpt lat="45.79073" lon="6.95818">
        <ele>1663</ele>
        <time>2022-08-27T07:12:41Z</time>
      </trkpt>
      <trkpt lat="45.79073" lon="6.9582">
        <ele>1662</ele>
        <time>2022-08-27T07:12:42Z</time>
      </trkpt>
      <trkpt lat="45.7907" lon="6.95828">
        <ele>1661</ele>
        <time>2022-08-27T07:12:43Z</time>
      </trkpt>
      <trkpt lat="45.79069" lon="6.95829">
        <ele>1660</ele>
        <time>2022-08-27T07:12:45Z</time>
      </trkpt>
      <trkpt lat="45.79068" lon="6.95831">
        <ele>1660</ele>
        <time>2022-08-27T07:12:46Z</time>
      </trkpt>
      <trkpt lat="45.79067" lon="6.95832">
        <ele>1660</ele>
        <time>2022-08-27T07:12:47Z</time>
      </trkpt>
      <trkpt lat="45.79062" lon="6.95837">
        <ele>1659</ele>
        <time>2022-08-27T07:12:48Z</time>
      </trkpt>
      <trkpt lat="45.79055" lon="6.95845">
        <ele>1657</ele>
        <time>2022-08-27T07:12:52Z</time>
      </trkpt>
      <trkpt lat="45.79046" lon="6.9585">
        <ele>1656</ele>
        <time>2022-08-27T07:12:57Z</time>
      </trkpt>
      <trkpt lat="45.79044" lon="6.95851">
        <ele>1656</ele>
        <time>2022-08-27T07:12:58Z</time>
      </trkpt>
      <trkpt lat="45.79042" lon="6.95853">
        <ele>1655</ele>
        <time>2022-08-27T07:12:59Z</time>
      </trkpt>
      <trkpt lat="45.7904" lon="6.95854">
        <ele>1653</ele>
        <time>2022-08-27T07:13:00Z</time>
      </trkpt>
      <trkpt lat="45.79039" lon="6.95856">
        <ele>1653</ele>
        <time>2022-08-27T07:13:02Z</time>
      </trkpt>
      <trkpt lat="45.79037" lon="6.95858">
        <ele>1653</ele>
        <time>2022-08-27T07:13:03Z</time>
      </trkpt>
      <trkpt lat="45.79034" lon="6.95858">
        <ele>1652</ele>
        <time>2022-08-27T07:13:04Z</time>
      </trkpt>
      <trkpt lat="45.79032" lon="6.95859">
        <ele>1652</ele>
        <time>2022-08-27T07:13:05Z</time>
      </trkpt>
      <trkpt lat="45.7903" lon="6.9586">
        <ele>1652</ele>
        <time>2022-08-27T07:13:06Z</time>
      </trkpt>
      <trkpt lat="45.79027" lon="6.95861">
        <ele>1651</ele>
        <time>2022-08-27T07:13:07Z</time>
      </trkpt>
      <trkpt lat="45.79026" lon="6.95862">
        <ele>1651</ele>
        <time>2022-08-27T07:13:09Z</time>
      </trkpt>
      <trkpt lat="45.79024" lon="6.95863">
        <ele>1650</ele>
        <time>2022-08-27T07:13:11Z</time>
      </trkpt>
      <trkpt lat="45.79023" lon="6.95864">
        <ele>1649</ele>
        <time>2022-08-27T07:13:12Z</time>
      </trkpt>
      <trkpt lat="45.79017" lon="6.9587">
        <ele>1649</ele>
        <time>2022-08-27T07:13:13Z</time>
      </trkpt>
      <trkpt lat="45.79016" lon="6.95872">
        <ele>1648</ele>
        <time>2022-08-27T07:13:14Z</time>
      </trkpt>
      <trkpt lat="45.79015" lon="6.95875">
        <ele>1648</ele>
        <time>2022-08-27T07:13:16Z</time>
      </trkpt>
      <trkpt lat="45.79014" lon="6.95877">
        <ele>1647</ele>
        <time>2022-08-27T07:13:17Z</time>
      </trkpt>
      <trkpt lat="45.79013" lon="6.95879">
        <ele>1646</ele>
        <time>2022-08-27T07:13:18Z</time>
      </trkpt>
      <trkpt lat="45.79012" lon="6.95881">
        <ele>1646</ele>
        <time>2022-08-27T07:13:19Z</time>
      </trkpt>
      <trkpt lat="45.7901" lon="6.95883">
        <ele>1645</ele>
        <time>2022-08-27T07:13:21Z</time>
      </trkpt>
      <trkpt lat="45.79009" lon="6.95885">
        <ele>1644</ele>
        <time>2022-08-27T07:13:23Z</time>
      </trkpt>
      <trkpt lat="45.79007" lon="6.95887">
        <ele>1644</ele>
        <time>2022-08-27T07:13:24Z</time>
      </trkpt>
      <trkpt lat="45.79005" lon="6.95889">
        <ele>1643</ele>
        <time>2022-08-27T07:13:25Z</time>
      </trkpt>
      <trkpt lat="45.79003" lon="6.95891">
        <ele>1643</ele>
        <time>2022-08-27T07:13:26Z</time>
      </trkpt>
      <trkpt lat="45.79001" lon="6.95893">
        <ele>1642</ele>
        <time>2022-08-27T07:13:27Z</time>
      </trkpt>
      <trkpt lat="45.79" lon="6.95894">
        <ele>1641</ele>
        <time>2022-08-27T07:13:28Z</time>
      </trkpt>
      <trkpt lat="45.78998" lon="6.95896">
        <ele>1641</ele>
        <time>2022-08-27T07:13:29Z</time>
      </trkpt>
      <trkpt lat="45.78997" lon="6.95897">
        <ele>1641</ele>
        <time>2022-08-27T07:13:30Z</time>
      </trkpt>
      <trkpt lat="45.78987" lon="6.95903">
        <ele>1638</ele>
        <time>2022-08-27T07:13:35Z</time>
      </trkpt>
      <trkpt lat="45.78984" lon="6.95904">
        <ele>1638</ele>
        <time>2022-08-27T07:13:36Z</time>
      </trkpt>
      <trkpt lat="45.78981" lon="6.95905">
        <ele>1638</ele>
        <time>2022-08-27T07:13:37Z</time>
      </trkpt>
      <trkpt lat="45.78978" lon="6.95906">
        <ele>1637</ele>
        <time>2022-08-27T07:13:38Z</time>
      </trkpt>
      <trkpt lat="45.78974" lon="6.95906">
        <ele>1637</ele>
        <time>2022-08-27T07:13:40Z</time>
      </trkpt>
      <trkpt lat="45.78971" lon="6.95905">
        <ele>1636</ele>
        <time>2022-08-27T07:13:42Z</time>
      </trkpt>
      <trkpt lat="45.78968" lon="6.95905">
        <ele>1635</ele>
        <time>2022-08-27T07:13:43Z</time>
      </trkpt>
      <trkpt lat="45.78965" lon="6.95905">
        <ele>1635</ele>
        <time>2022-08-27T07:13:44Z</time>
      </trkpt>
      <trkpt lat="45.78963" lon="6.95904">
        <ele>1636</ele>
        <time>2022-08-27T07:13:45Z</time>
      </trkpt>
      <trkpt lat="45.7896" lon="6.95904">
        <ele>1636</ele>
        <time>2022-08-27T07:13:47Z</time>
      </trkpt>
      <trkpt lat="45.78958" lon="6.95904">
        <ele>1636</ele>
        <time>2022-08-27T07:13:48Z</time>
      </trkpt>
      <trkpt lat="45.78955" lon="6.95904">
        <ele>1635</ele>
        <time>2022-08-27T07:13:49Z</time>
      </trkpt>
      <trkpt lat="45.78953" lon="6.95904">
        <ele>1635</ele>
        <time>2022-08-27T07:13:50Z</time>
      </trkpt>
      <trkpt lat="45.78951" lon="6.95904">
        <ele>1635</ele>
        <time>2022-08-27T07:13:51Z</time>
      </trkpt>
      <trkpt lat="45.78949" lon="6.95904">
        <ele>1635</ele>
        <time>2022-08-27T07:13:52Z</time>
      </trkpt>
      <trkpt lat="45.78947" lon="6.95904">
        <ele>1634</ele>
        <time>2022-08-27T07:13:53Z</time>
      </trkpt>
      <trkpt lat="45.78936" lon="6.95903">
        <ele>1632</ele>
        <time>2022-08-27T07:13:58Z</time>
      </trkpt>
      <trkpt lat="45.78936" lon="6.95902">
        <ele>1632</ele>
        <time>2022-08-27T07:13:59Z</time>
      </trkpt>
      <trkpt lat="45.78935" lon="6.95902">
        <ele>1631</ele>
        <time>2022-08-27T07:14:01Z</time>
      </trkpt>
      <trkpt lat="45.78934" lon="6.95902">
        <ele>1631</ele>
        <time>2022-08-27T07:14:02Z</time>
      </trkpt>
      <trkpt lat="45.78933" lon="6.95901">
        <ele>1631</ele>
        <time>2022-08-27T07:14:03Z</time>
      </trkpt>
      <trkpt lat="45.78924" lon="6.95898">
        <ele>1630</ele>
        <time>2022-08-27T07:14:05Z</time>
      </trkpt>
      <trkpt lat="45.78922" lon="6.95897">
        <ele>1630</ele>
        <time>2022-08-27T07:14:06Z</time>
      </trkpt>
      <trkpt lat="45.7892" lon="6.95897">
        <ele>1630</ele>
        <time>2022-08-27T07:14:07Z</time>
      </trkpt>
      <trkpt lat="45.78917" lon="6.95896">
        <ele>1630</ele>
        <time>2022-08-27T07:14:08Z</time>
      </trkpt>
      <trkpt lat="45.78915" lon="6.95897">
        <ele>1630</ele>
        <time>2022-08-27T07:14:10Z</time>
      </trkpt>
      <trkpt lat="45.78913" lon="6.95898">
        <ele>1630</ele>
        <time>2022-08-27T07:14:11Z</time>
      </trkpt>
      <trkpt lat="45.7891" lon="6.95898">
        <ele>1630</ele>
        <time>2022-08-27T07:14:12Z</time>
      </trkpt>
      <trkpt lat="45.78908" lon="6.95899">
        <ele>1630</ele>
        <time>2022-08-27T07:14:13Z</time>
      </trkpt>
      <trkpt lat="45.78906" lon="6.95899">
        <ele>1630</ele>
        <time>2022-08-27T07:14:14Z</time>
      </trkpt>
      <trkpt lat="45.78904" lon="6.959">
        <ele>1630</ele>
        <time>2022-08-27T07:14:15Z</time>
      </trkpt>
      <trkpt lat="45.78902" lon="6.959">
        <ele>1630</ele>
        <time>2022-08-27T07:14:16Z</time>
      </trkpt>
      <trkpt lat="45.789" lon="6.959">
        <ele>1630</ele>
        <time>2022-08-27T07:14:17Z</time>
      </trkpt>
      <trkpt lat="45.78898" lon="6.95901">
        <ele>1630</ele>
        <time>2022-08-27T07:14:18Z</time>
      </trkpt>
      <trkpt lat="45.78896" lon="6.959">
        <ele>1630</ele>
        <time>2022-08-27T07:14:20Z</time>
      </trkpt>
      <trkpt lat="45.78894" lon="6.95899">
        <ele>1630</ele>
        <time>2022-08-27T07:14:21Z</time>
      </trkpt>
      <trkpt lat="45.78892" lon="6.95898">
        <ele>1630</ele>
        <time>2022-08-27T07:14:22Z</time>
      </trkpt>
      <trkpt lat="45.7889" lon="6.95898">
        <ele>1630</ele>
        <time>2022-08-27T07:14:23Z</time>
      </trkpt>
      <trkpt lat="45.78888" lon="6.95897">
        <ele>1630</ele>
        <time>2022-08-27T07:14:24Z</time>
      </trkpt>
      <trkpt lat="45.78878" lon="6.95894">
        <ele>1630</ele>
        <time>2022-08-27T07:14:29Z</time>
      </trkpt>
      <trkpt lat="45.78878" lon="6.95896">
        <ele>1630</ele>
        <time>2022-08-27T07:14:30Z</time>
      </trkpt>
      <trkpt lat="45.78878" lon="6.95897">
        <ele>1630</ele>
        <time>2022-08-27T07:14:31Z</time>
      </trkpt>
      <trkpt lat="45.78878" lon="6.95898">
        <ele>1629</ele>
        <time>2022-08-27T07:14:32Z</time>
      </trkpt>
      <trkpt lat="45.78877" lon="6.959">
        <ele>1629</ele>
        <time>2022-08-27T07:14:34Z</time>
      </trkpt>
      <trkpt lat="45.78877" lon="6.95901">
        <ele>1628</ele>
        <time>2022-08-27T07:14:35Z</time>
      </trkpt>
      <trkpt lat="45.78876" lon="6.95911">
        <ele>1628</ele>
        <time>2022-08-27T07:14:36Z</time>
      </trkpt>
      <trkpt lat="45.78876" lon="6.95914">
        <ele>1628</ele>
        <time>2022-08-27T07:14:37Z</time>
      </trkpt>
      <trkpt lat="45.78876" lon="6.95917">
        <ele>1628</ele>
        <time>2022-08-27T07:14:39Z</time>
      </trkpt>
      <trkpt lat="45.78876" lon="6.95919">
        <ele>1627</ele>
        <time>2022-08-27T07:14:40Z</time>
      </trkpt>
      <trkpt lat="45.78876" lon="6.95922">
        <ele>1627</ele>
        <time>2022-08-27T07:14:41Z</time>
      </trkpt>
      <trkpt lat="45.78876" lon="6.95925">
        <ele>1627</ele>
        <time>2022-08-27T07:14:42Z</time>
      </trkpt>
      <trkpt lat="45.78875" lon="6.95927">
        <ele>1626</ele>
        <time>2022-08-27T07:14:43Z</time>
      </trkpt>
      <trkpt lat="45.78875" lon="6.9593">
        <ele>1625</ele>
        <time>2022-08-27T07:14:45Z</time>
      </trkpt>
      <trkpt lat="45.78874" lon="6.95932">
        <ele>1624</ele>
        <time>2022-08-27T07:14:46Z</time>
      </trkpt>
      <trkpt lat="45.78872" lon="6.95944">
        <ele>1624</ele>
        <time>2022-08-27T07:14:47Z</time>
      </trkpt>
      <trkpt lat="45.78872" lon="6.95947">
        <ele>1623</ele>
        <time>2022-08-27T07:14:48Z</time>
      </trkpt>
      <trkpt lat="45.78871" lon="6.95951">
        <ele>1622</ele>
        <time>2022-08-27T07:14:50Z</time>
      </trkpt>
      <trkpt lat="45.78871" lon="6.95955">
        <ele>1622</ele>
        <time>2022-08-27T07:14:51Z</time>
      </trkpt>
      <trkpt lat="45.78871" lon="6.95956">
        <ele>1622</ele>
        <time>2022-08-27T07:14:52Z</time>
      </trkpt>
      <trkpt lat="45.78871" lon="6.95957">
        <ele>1622</ele>
        <time>2022-08-27T07:14:53Z</time>
      </trkpt>
      <trkpt lat="45.78871" lon="6.95959">
        <ele>1621</ele>
        <time>2022-08-27T07:14:55Z</time>
      </trkpt>
      <trkpt lat="45.78871" lon="6.9596">
        <ele>1620</ele>
        <time>2022-08-27T07:14:56Z</time>
      </trkpt>
      <trkpt lat="45.78872" lon="6.95973">
        <ele>1619</ele>
        <time>2022-08-27T07:14:58Z</time>
      </trkpt>
      <trkpt lat="45.78873" lon="6.95976">
        <ele>1619</ele>
        <time>2022-08-27T07:14:59Z</time>
      </trkpt>
      <trkpt lat="45.78874" lon="6.95979">
        <ele>1619</ele>
        <time>2022-08-27T07:15:00Z</time>
      </trkpt>
      <trkpt lat="45.78874" lon="6.95982">
        <ele>1618</ele>
        <time>2022-08-27T07:15:01Z</time>
      </trkpt>
      <trkpt lat="45.78875" lon="6.95986">
        <ele>1618</ele>
        <time>2022-08-27T07:15:03Z</time>
      </trkpt>
      <trkpt lat="45.78875" lon="6.9599">
        <ele>1618</ele>
        <time>2022-08-27T07:15:04Z</time>
      </trkpt>
      <trkpt lat="45.78876" lon="6.95995">
        <ele>1617</ele>
        <time>2022-08-27T07:15:05Z</time>
      </trkpt>
      <trkpt lat="45.78876" lon="6.9601">
        <ele>1616</ele>
        <time>2022-08-27T07:15:10Z</time>
      </trkpt>
      <trkpt lat="45.78874" lon="6.96023">
        <ele>1614</ele>
        <time>2022-08-27T07:15:15Z</time>
      </trkpt>
      <trkpt lat="45.78874" lon="6.96026">
        <ele>1614</ele>
        <time>2022-08-27T07:15:17Z</time>
      </trkpt>
      <trkpt lat="45.78874" lon="6.96029">
        <ele>1613</ele>
        <time>2022-08-27T07:15:18Z</time>
      </trkpt>
      <trkpt lat="45.78874" lon="6.96033">
        <ele>1613</ele>
        <time>2022-08-27T07:15:19Z</time>
      </trkpt>
      <trkpt lat="45.78874" lon="6.96036">
        <ele>1612</ele>
        <time>2022-08-27T07:15:20Z</time>
      </trkpt>
      <trkpt lat="45.78871" lon="6.9605">
        <ele>1611</ele>
        <time>2022-08-27T07:15:25Z</time>
      </trkpt>
      <trkpt lat="45.78871" lon="6.96052">
        <ele>1611</ele>
        <time>2022-08-27T07:15:26Z</time>
      </trkpt>
      <trkpt lat="45.7887" lon="6.96053">
        <ele>1611</ele>
        <time>2022-08-27T07:15:27Z</time>
      </trkpt>
      <trkpt lat="45.7887" lon="6.96055">
        <ele>1611</ele>
        <time>2022-08-27T07:15:28Z</time>
      </trkpt>
      <trkpt lat="45.78869" lon="6.96057">
        <ele>1611</ele>
        <time>2022-08-27T07:15:30Z</time>
      </trkpt>
      <trkpt lat="45.78869" lon="6.96059">
        <ele>1611</ele>
        <time>2022-08-27T07:15:31Z</time>
      </trkpt>
      <trkpt lat="45.78868" lon="6.9606">
        <ele>1611</ele>
        <time>2022-08-27T07:15:32Z</time>
      </trkpt>
      <trkpt lat="45.78867" lon="6.96062">
        <ele>1609</ele>
        <time>2022-08-27T07:15:33Z</time>
      </trkpt>
      <trkpt lat="45.78868" lon="6.96066">
        <ele>1609</ele>
        <time>2022-08-27T07:15:34Z</time>
      </trkpt>
      <trkpt lat="45.78869" lon="6.9607">
        <ele>1609</ele>
        <time>2022-08-27T07:15:35Z</time>
      </trkpt>
      <trkpt lat="45.7887" lon="6.96073">
        <ele>1609</ele>
        <time>2022-08-27T07:15:36Z</time>
      </trkpt>
      <trkpt lat="45.78873" lon="6.96085">
        <ele>1607</ele>
        <time>2022-08-27T07:15:41Z</time>
      </trkpt>
      <trkpt lat="45.78874" lon="6.96088">
        <ele>1607</ele>
        <time>2022-08-27T07:15:42Z</time>
      </trkpt>
      <trkpt lat="45.78876" lon="6.96092">
        <ele>1607</ele>
        <time>2022-08-27T07:15:44Z</time>
      </trkpt>
      <trkpt lat="45.78877" lon="6.96095">
        <ele>1606</ele>
        <time>2022-08-27T07:15:45Z</time>
      </trkpt>
      <trkpt lat="45.78879" lon="6.96099">
        <ele>1605</ele>
        <time>2022-08-27T07:15:46Z</time>
      </trkpt>
      <trkpt lat="45.7888" lon="6.96101">
        <ele>1605</ele>
        <time>2022-08-27T07:15:48Z</time>
      </trkpt>
      <trkpt lat="45.7888" lon="6.96103">
        <ele>1604</ele>
        <time>2022-08-27T07:15:49Z</time>
      </trkpt>
      <trkpt lat="45.78881" lon="6.96105">
        <ele>1603</ele>
        <time>2022-08-27T07:15:50Z</time>
      </trkpt>
      <trkpt lat="45.78882" lon="6.96108">
        <ele>1603</ele>
        <time>2022-08-27T07:15:51Z</time>
      </trkpt>
      <trkpt lat="45.78885" lon="6.96118">
        <ele>1603</ele>
        <time>2022-08-27T07:15:52Z</time>
      </trkpt>
      <trkpt lat="45.78885" lon="6.96119">
        <ele>1603</ele>
        <time>2022-08-27T07:15:53Z</time>
      </trkpt>
      <trkpt lat="45.78886" lon="6.96122">
        <ele>1603</ele>
        <time>2022-08-27T07:15:54Z</time>
      </trkpt>
      <trkpt lat="45.78888" lon="6.96131">
        <ele>1602</ele>
        <time>2022-08-27T07:15:57Z</time>
      </trkpt>
      <trkpt lat="45.78889" lon="6.96137">
        <ele>1601</ele>
        <time>2022-08-27T07:15:59Z</time>
      </trkpt>
      <trkpt lat="45.7889" lon="6.9614">
        <ele>1600</ele>
        <time>2022-08-27T07:16:00Z</time>
      </trkpt>
      <trkpt lat="45.78891" lon="6.96143">
        <ele>1600</ele>
        <time>2022-08-27T07:16:01Z</time>
      </trkpt>
      <trkpt lat="45.78892" lon="6.9615">
        <ele>1599</ele>
        <time>2022-08-27T07:16:03Z</time>
      </trkpt>
      <trkpt lat="45.78892" lon="6.96154">
        <ele>1599</ele>
        <time>2022-08-27T07:16:05Z</time>
      </trkpt>
      <trkpt lat="45.78893" lon="6.96158">
        <ele>1599</ele>
        <time>2022-08-27T07:16:06Z</time>
      </trkpt>
      <trkpt lat="45.78894" lon="6.96161">
        <ele>1599</ele>
        <time>2022-08-27T07:16:08Z</time>
      </trkpt>
      <trkpt lat="45.78894" lon="6.96164">
        <ele>1598</ele>
        <time>2022-08-27T07:16:10Z</time>
      </trkpt>
      <trkpt lat="45.78894" lon="6.96167">
        <ele>1598</ele>
        <time>2022-08-27T07:16:11Z</time>
      </trkpt>
      <trkpt lat="45.78895" lon="6.9617">
        <ele>1598</ele>
        <time>2022-08-27T07:16:12Z</time>
      </trkpt>
      <trkpt lat="45.78895" lon="6.96173">
        <ele>1598</ele>
        <time>2022-08-27T07:16:13Z</time>
      </trkpt>
      <trkpt lat="45.78896" lon="6.96176">
        <ele>1598</ele>
        <time>2022-08-27T07:16:14Z</time>
      </trkpt>
      <trkpt lat="45.789" lon="6.96191">
        <ele>1595</ele>
        <time>2022-08-27T07:16:18Z</time>
      </trkpt>
      <trkpt lat="45.78901" lon="6.96193">
        <ele>1595</ele>
        <time>2022-08-27T07:16:19Z</time>
      </trkpt>
      <trkpt lat="45.78901" lon="6.96196">
        <ele>1595</ele>
        <time>2022-08-27T07:16:20Z</time>
      </trkpt>
      <trkpt lat="45.78902" lon="6.96198">
        <ele>1595</ele>
        <time>2022-08-27T07:16:21Z</time>
      </trkpt>
      <trkpt lat="45.78903" lon="6.96201">
        <ele>1595</ele>
        <time>2022-08-27T07:16:22Z</time>
      </trkpt>
      <trkpt lat="45.78903" lon="6.96204">
        <ele>1594</ele>
        <time>2022-08-27T07:16:23Z</time>
      </trkpt>
      <trkpt lat="45.78905" lon="6.9621">
        <ele>1593</ele>
        <time>2022-08-27T07:16:24Z</time>
      </trkpt>
      <trkpt lat="45.78906" lon="6.96211">
        <ele>1593</ele>
        <time>2022-08-27T07:16:26Z</time>
      </trkpt>
      <trkpt lat="45.78906" lon="6.96212">
        <ele>1593</ele>
        <time>2022-08-27T07:16:27Z</time>
      </trkpt>
      <trkpt lat="45.78907" lon="6.96213">
        <ele>1593</ele>
        <time>2022-08-27T07:16:28Z</time>
      </trkpt>
      <trkpt lat="45.78907" lon="6.96215">
        <ele>1593</ele>
        <time>2022-08-27T07:16:29Z</time>
      </trkpt>
      <trkpt lat="45.78912" lon="6.96226">
        <ele>1591</ele>
        <time>2022-08-27T07:16:31Z</time>
      </trkpt>
      <trkpt lat="45.78914" lon="6.96229">
        <ele>1591</ele>
        <time>2022-08-27T07:16:33Z</time>
      </trkpt>
      <trkpt lat="45.78915" lon="6.96233">
        <ele>1590</ele>
        <time>2022-08-27T07:16:34Z</time>
      </trkpt>
      <trkpt lat="45.78916" lon="6.96236">
        <ele>1589</ele>
        <time>2022-08-27T07:16:35Z</time>
      </trkpt>
      <trkpt lat="45.78917" lon="6.96242">
        <ele>1589</ele>
        <time>2022-08-27T07:16:37Z</time>
      </trkpt>
      <trkpt lat="45.78919" lon="6.96245">
        <ele>1589</ele>
        <time>2022-08-27T07:16:38Z</time>
      </trkpt>
      <trkpt lat="45.7892" lon="6.96247">
        <ele>1589</ele>
        <time>2022-08-27T07:16:39Z</time>
      </trkpt>
      <trkpt lat="45.78921" lon="6.9625">
        <ele>1588</ele>
        <time>2022-08-27T07:16:40Z</time>
      </trkpt>
      <trkpt lat="45.78923" lon="6.96253">
        <ele>1588</ele>
        <time>2022-08-27T07:16:42Z</time>
      </trkpt>
      <trkpt lat="45.78924" lon="6.96255">
        <ele>1588</ele>
        <time>2022-08-27T07:16:43Z</time>
      </trkpt>
      <trkpt lat="45.78926" lon="6.96258">
        <ele>1588</ele>
        <time>2022-08-27T07:16:44Z</time>
      </trkpt>
      <trkpt lat="45.78929" lon="6.96272">
        <ele>1587</ele>
        <time>2022-08-27T07:16:49Z</time>
      </trkpt>
      <trkpt lat="45.7893" lon="6.96275">
        <ele>1587</ele>
        <time>2022-08-27T07:16:50Z</time>
      </trkpt>
      <trkpt lat="45.78931" lon="6.96278">
        <ele>1586</ele>
        <time>2022-08-27T07:16:52Z</time>
      </trkpt>
      <trkpt lat="45.78933" lon="6.96281">
        <ele>1586</ele>
        <time>2022-08-27T07:16:53Z</time>
      </trkpt>
      <trkpt lat="45.78934" lon="6.96284">
        <ele>1585</ele>
        <time>2022-08-27T07:16:54Z</time>
      </trkpt>
      <trkpt lat="45.78935" lon="6.96285">
        <ele>1585</ele>
        <time>2022-08-27T07:16:56Z</time>
      </trkpt>
      <trkpt lat="45.78936" lon="6.96286">
        <ele>1584</ele>
        <time>2022-08-27T07:16:57Z</time>
      </trkpt>
      <trkpt lat="45.78936" lon="6.96286">
        <ele>1584</ele>
        <time>2022-08-27T07:16:58Z</time>
      </trkpt>
      <trkpt lat="45.78937" lon="6.96287">
        <ele>1584</ele>
        <time>2022-08-27T07:16:59Z</time>
      </trkpt>
      <trkpt lat="45.78946" lon="6.96294">
        <ele>1584</ele>
        <time>2022-08-27T07:17:01Z</time>
      </trkpt>
      <trkpt lat="45.78949" lon="6.96297">
        <ele>1584</ele>
        <time>2022-08-27T07:17:02Z</time>
      </trkpt>
      <trkpt lat="45.78952" lon="6.96299">
        <ele>1583</ele>
        <time>2022-08-27T07:17:03Z</time>
      </trkpt>
      <trkpt lat="45.78953" lon="6.96303">
        <ele>1583</ele>
        <time>2022-08-27T07:17:04Z</time>
      </trkpt>
      <trkpt lat="45.78954" lon="6.96307">
        <ele>1583</ele>
        <time>2022-08-27T07:17:05Z</time>
      </trkpt>
      <trkpt lat="45.78955" lon="6.96311">
        <ele>1583</ele>
        <time>2022-08-27T07:17:06Z</time>
      </trkpt>
      <trkpt lat="45.78956" lon="6.96314">
        <ele>1583</ele>
        <time>2022-08-27T07:17:07Z</time>
      </trkpt>
      <trkpt lat="45.78957" lon="6.96317">
        <ele>1583</ele>
        <time>2022-08-27T07:17:08Z</time>
      </trkpt>
      <trkpt lat="45.78958" lon="6.96321">
        <ele>1583</ele>
        <time>2022-08-27T07:17:09Z</time>
      </trkpt>
      <trkpt lat="45.78961" lon="6.96327">
        <ele>1583</ele>
        <time>2022-08-27T07:17:11Z</time>
      </trkpt>
      <trkpt lat="45.78962" lon="6.9633">
        <ele>1582</ele>
        <time>2022-08-27T07:17:12Z</time>
      </trkpt>
      <trkpt lat="45.78963" lon="6.96332">
        <ele>1581</ele>
        <time>2022-08-27T07:17:13Z</time>
      </trkpt>
      <trkpt lat="45.78964" lon="6.96337">
        <ele>1581</ele>
        <time>2022-08-27T07:17:15Z</time>
      </trkpt>
      <trkpt lat="45.78972" lon="6.96348">
        <ele>1580</ele>
        <time>2022-08-27T07:17:20Z</time>
      </trkpt>
      <trkpt lat="45.78975" lon="6.96363">
        <ele>1579</ele>
        <time>2022-08-27T07:17:25Z</time>
      </trkpt>
      <trkpt lat="45.78976" lon="6.96365">
        <ele>1579</ele>
        <time>2022-08-27T07:17:26Z</time>
      </trkpt>
      <trkpt lat="45.78976" lon="6.96367">
        <ele>1579</ele>
        <time>2022-08-27T07:17:27Z</time>
      </trkpt>
      <trkpt lat="45.78977" lon="6.9637">
        <ele>1578</ele>
        <time>2022-08-27T07:17:28Z</time>
      </trkpt>
      <trkpt lat="45.78978" lon="6.96372">
        <ele>1577</ele>
        <time>2022-08-27T07:17:30Z</time>
      </trkpt>
      <trkpt lat="45.78978" lon="6.96374">
        <ele>1577</ele>
        <time>2022-08-27T07:17:31Z</time>
      </trkpt>
      <trkpt lat="45.78979" lon="6.96377">
        <ele>1576</ele>
        <time>2022-08-27T07:17:32Z</time>
      </trkpt>
      <trkpt lat="45.78981" lon="6.96381">
        <ele>1576</ele>
        <time>2022-08-27T07:17:33Z</time>
      </trkpt>
      <trkpt lat="45.78982" lon="6.96385">
        <ele>1576</ele>
        <time>2022-08-27T07:17:34Z</time>
      </trkpt>
      <trkpt lat="45.78984" lon="6.9639">
        <ele>1576</ele>
        <time>2022-08-27T07:17:35Z</time>
      </trkpt>
      <trkpt lat="45.78986" lon="6.96392">
        <ele>1575</ele>
        <time>2022-08-27T07:17:37Z</time>
      </trkpt>
      <trkpt lat="45.78988" lon="6.96394">
        <ele>1575</ele>
        <time>2022-08-27T07:17:38Z</time>
      </trkpt>
      <trkpt lat="45.78993" lon="6.96401">
        <ele>1574</ele>
        <time>2022-08-27T07:17:39Z</time>
      </trkpt>
      <trkpt lat="45.78994" lon="6.96402">
        <ele>1574</ele>
        <time>2022-08-27T07:17:40Z</time>
      </trkpt>
      <trkpt lat="45.78994" lon="6.96404">
        <ele>1574</ele>
        <time>2022-08-27T07:17:42Z</time>
      </trkpt>
      <trkpt lat="45.78995" lon="6.96405">
        <ele>1574</ele>
        <time>2022-08-27T07:17:43Z</time>
      </trkpt>
      <trkpt lat="45.78997" lon="6.96412">
        <ele>1574</ele>
        <time>2022-08-27T07:17:44Z</time>
      </trkpt>
      <trkpt lat="45.79005" lon="6.9642">
        <ele>1575</ele>
        <time>2022-08-27T07:17:49Z</time>
      </trkpt>
      <trkpt lat="45.79005" lon="6.96422">
        <ele>1575</ele>
        <time>2022-08-27T07:17:50Z</time>
      </trkpt>
      <trkpt lat="45.79006" lon="6.96423">
        <ele>1575</ele>
        <time>2022-08-27T07:17:51Z</time>
      </trkpt>
      <trkpt lat="45.79007" lon="6.96424">
        <ele>1575</ele>
        <time>2022-08-27T07:17:53Z</time>
      </trkpt>
      <trkpt lat="45.79007" lon="6.96426">
        <ele>1575</ele>
        <time>2022-08-27T07:17:54Z</time>
      </trkpt>
      <trkpt lat="45.79008" lon="6.96427">
        <ele>1575</ele>
        <time>2022-08-27T07:17:55Z</time>
      </trkpt>
      <trkpt lat="45.79009" lon="6.96429">
        <ele>1575</ele>
        <time>2022-08-27T07:17:56Z</time>
      </trkpt>
      <trkpt lat="45.79009" lon="6.9643">
        <ele>1576</ele>
        <time>2022-08-27T07:17:58Z</time>
      </trkpt>
      <trkpt lat="45.7901" lon="6.96431">
        <ele>1576</ele>
        <time>2022-08-27T07:17:59Z</time>
      </trkpt>
      <trkpt lat="45.79019" lon="6.96437">
        <ele>1576</ele>
        <time>2022-08-27T07:18:04Z</time>
      </trkpt>
      <trkpt lat="45.79026" lon="6.96445">
        <ele>1576</ele>
        <time>2022-08-27T07:18:08Z</time>
      </trkpt>
      <trkpt lat="45.79028" lon="6.96445">
        <ele>1576</ele>
        <time>2022-08-27T07:18:09Z</time>
      </trkpt>
      <trkpt lat="45.79031" lon="6.96445">
        <ele>1576</ele>
        <time>2022-08-27T07:18:10Z</time>
      </trkpt>
      <trkpt lat="45.79033" lon="6.96446">
        <ele>1576</ele>
        <time>2022-08-27T07:18:12Z</time>
      </trkpt>
      <trkpt lat="45.79036" lon="6.96446">
        <ele>1576</ele>
        <time>2022-08-27T07:18:13Z</time>
      </trkpt>
      <trkpt lat="45.79038" lon="6.96444">
        <ele>1576</ele>
        <time>2022-08-27T07:18:14Z</time>
      </trkpt>
      <trkpt lat="45.7904" lon="6.96442">
        <ele>1576</ele>
        <time>2022-08-27T07:18:15Z</time>
      </trkpt>
      <trkpt lat="45.79042" lon="6.96441">
        <ele>1576</ele>
        <time>2022-08-27T07:18:17Z</time>
      </trkpt>
      <trkpt lat="45.79045" lon="6.96439">
        <ele>1576</ele>
        <time>2022-08-27T07:18:18Z</time>
      </trkpt>
      <trkpt lat="45.79047" lon="6.96438">
        <ele>1576</ele>
        <time>2022-08-27T07:18:19Z</time>
      </trkpt>
      <trkpt lat="45.79049" lon="6.96438">
        <ele>1576</ele>
        <time>2022-08-27T07:18:20Z</time>
      </trkpt>
      <trkpt lat="45.79051" lon="6.96437">
        <ele>1576</ele>
        <time>2022-08-27T07:18:22Z</time>
      </trkpt>
      <trkpt lat="45.79053" lon="6.96437">
        <ele>1576</ele>
        <time>2022-08-27T07:18:23Z</time>
      </trkpt>
      <trkpt lat="45.79055" lon="6.96436">
        <ele>1575</ele>
        <time>2022-08-27T07:18:24Z</time>
      </trkpt>
      <trkpt lat="45.79056" lon="6.96437">
        <ele>1575</ele>
        <time>2022-08-27T07:18:25Z</time>
      </trkpt>
      <trkpt lat="45.79058" lon="6.96438">
        <ele>1575</ele>
        <time>2022-08-27T07:18:27Z</time>
      </trkpt>
      <trkpt lat="45.7906" lon="6.96439">
        <ele>1575</ele>
        <time>2022-08-27T07:18:28Z</time>
      </trkpt>
      <trkpt lat="45.79065" lon="6.96442">
        <ele>1575</ele>
        <time>2022-08-27T07:18:29Z</time>
      </trkpt>
      <trkpt lat="45.79066" lon="6.96442">
        <ele>1574</ele>
        <time>2022-08-27T07:18:31Z</time>
      </trkpt>
      <trkpt lat="45.79067" lon="6.96443">
        <ele>1574</ele>
        <time>2022-08-27T07:18:32Z</time>
      </trkpt>
      <trkpt lat="45.79068" lon="6.96443">
        <ele>1574</ele>
        <time>2022-08-27T07:18:33Z</time>
      </trkpt>
      <trkpt lat="45.79068" lon="6.96443">
        <ele>1574</ele>
        <time>2022-08-27T07:18:34Z</time>
      </trkpt>
      <trkpt lat="45.79077" lon="6.96444">
        <ele>1574</ele>
        <time>2022-08-27T07:18:36Z</time>
      </trkpt>
      <trkpt lat="45.79078" lon="6.96444">
        <ele>1574</ele>
        <time>2022-08-27T07:18:37Z</time>
      </trkpt>
      <trkpt lat="45.79079" lon="6.96444">
        <ele>1574</ele>
        <time>2022-08-27T07:18:38Z</time>
      </trkpt>
      <trkpt lat="45.7908" lon="6.96444">
        <ele>1573</ele>
        <time>2022-08-27T07:18:39Z</time>
      </trkpt>
      <trkpt lat="45.79087" lon="6.96445">
        <ele>1573</ele>
        <time>2022-08-27T07:18:41Z</time>
      </trkpt>
      <trkpt lat="45.79098" lon="6.96448">
        <ele>1572</ele>
        <time>2022-08-27T07:18:46Z</time>
      </trkpt>
      <trkpt lat="45.79101" lon="6.96445">
        <ele>1572</ele>
        <time>2022-08-27T07:18:47Z</time>
      </trkpt>
      <trkpt lat="45.79104" lon="6.96442">
        <ele>1572</ele>
        <time>2022-08-27T07:18:48Z</time>
      </trkpt>
      <trkpt lat="45.79107" lon="6.96439">
        <ele>1572</ele>
        <time>2022-08-27T07:18:49Z</time>
      </trkpt>
      <trkpt lat="45.79109" lon="6.96439">
        <ele>1571</ele>
        <time>2022-08-27T07:18:50Z</time>
      </trkpt>
      <trkpt lat="45.79111" lon="6.96438">
        <ele>1571</ele>
        <time>2022-08-27T07:18:51Z</time>
      </trkpt>
      <trkpt lat="45.79113" lon="6.96437">
        <ele>1571</ele>
        <time>2022-08-27T07:18:52Z</time>
      </trkpt>
      <trkpt lat="45.79115" lon="6.96437">
        <ele>1571</ele>
        <time>2022-08-27T07:18:53Z</time>
      </trkpt>
      <trkpt lat="45.79117" lon="6.96436">
        <ele>1571</ele>
        <time>2022-08-27T07:18:54Z</time>
      </trkpt>
      <trkpt lat="45.79118" lon="6.96436">
        <ele>1571</ele>
        <time>2022-08-27T07:18:55Z</time>
      </trkpt>
      <trkpt lat="45.79119" lon="6.96436">
        <ele>1571</ele>
        <time>2022-08-27T07:18:56Z</time>
      </trkpt>
      <trkpt lat="45.7912" lon="6.96436">
        <ele>1572</ele>
        <time>2022-08-27T07:18:57Z</time>
      </trkpt>
      <trkpt lat="45.79121" lon="6.96436">
        <ele>1572</ele>
        <time>2022-08-27T07:18:59Z</time>
      </trkpt>
      <trkpt lat="45.79122" lon="6.96436">
        <ele>1571</ele>
        <time>2022-08-27T07:19:00Z</time>
      </trkpt>
      <trkpt lat="45.7913" lon="6.96437">
        <ele>1571</ele>
        <time>2022-08-27T07:19:01Z</time>
      </trkpt>
      <trkpt lat="45.79132" lon="6.96436">
        <ele>1571</ele>
        <time>2022-08-27T07:19:02Z</time>
      </trkpt>
      <trkpt lat="45.79135" lon="6.96436">
        <ele>1571</ele>
        <time>2022-08-27T07:19:04Z</time>
      </trkpt>
      <trkpt lat="45.79137" lon="6.96436">
        <ele>1571</ele>
        <time>2022-08-27T07:19:05Z</time>
      </trkpt>
      <trkpt lat="45.79141" lon="6.96433">
        <ele>1571</ele>
        <time>2022-08-27T07:19:07Z</time>
      </trkpt>
      <trkpt lat="45.79144" lon="6.9643">
        <ele>1570</ele>
        <time>2022-08-27T07:19:09Z</time>
      </trkpt>
      <trkpt lat="45.79148" lon="6.96428">
        <ele>1570</ele>
        <time>2022-08-27T07:19:10Z</time>
      </trkpt>
      <trkpt lat="45.79148" lon="6.96427">
        <ele>1570</ele>
        <time>2022-08-27T07:19:11Z</time>
      </trkpt>
      <trkpt lat="45.79149" lon="6.96426">
        <ele>1570</ele>
        <time>2022-08-27T07:19:12Z</time>
      </trkpt>
      <trkpt lat="45.7915" lon="6.96424">
        <ele>1569</ele>
        <time>2022-08-27T07:19:13Z</time>
      </trkpt>
      <trkpt lat="45.79158" lon="6.96417">
        <ele>1570</ele>
        <time>2022-08-27T07:19:15Z</time>
      </trkpt>
      <trkpt lat="45.79159" lon="6.96416">
        <ele>1571</ele>
        <time>2022-08-27T07:19:17Z</time>
      </trkpt>
      <trkpt lat="45.79161" lon="6.96415">
        <ele>1571</ele>
        <time>2022-08-27T07:19:18Z</time>
      </trkpt>
      <trkpt lat="45.79167" lon="6.9641">
        <ele>1571</ele>
        <time>2022-08-27T07:19:19Z</time>
      </trkpt>
      <trkpt lat="45.7917" lon="6.96409">
        <ele>1570</ele>
        <time>2022-08-27T07:19:20Z</time>
      </trkpt>
      <trkpt lat="45.79172" lon="6.96409">
        <ele>1570</ele>
        <time>2022-08-27T07:19:21Z</time>
      </trkpt>
      <trkpt lat="45.79174" lon="6.96408">
        <ele>1570</ele>
        <time>2022-08-27T07:19:22Z</time>
      </trkpt>
      <trkpt lat="45.79178" lon="6.96407">
        <ele>1570</ele>
        <time>2022-08-27T07:19:24Z</time>
      </trkpt>
      <trkpt lat="45.79181" lon="6.96405">
        <ele>1570</ele>
        <time>2022-08-27T07:19:25Z</time>
      </trkpt>
      <trkpt lat="45.79184" lon="6.96404">
        <ele>1570</ele>
        <time>2022-08-27T07:19:26Z</time>
      </trkpt>
      <trkpt lat="45.79187" lon="6.96403">
        <ele>1570</ele>
        <time>2022-08-27T07:19:28Z</time>
      </trkpt>
      <trkpt lat="45.7919" lon="6.96401">
        <ele>1570</ele>
        <time>2022-08-27T07:19:29Z</time>
      </trkpt>
      <trkpt lat="45.79193" lon="6.964">
        <ele>1570</ele>
        <time>2022-08-27T07:19:30Z</time>
      </trkpt>
      <trkpt lat="45.79194" lon="6.96399">
        <ele>1570</ele>
        <time>2022-08-27T07:19:31Z</time>
      </trkpt>
      <trkpt lat="45.79195" lon="6.96398">
        <ele>1569</ele>
        <time>2022-08-27T07:19:32Z</time>
      </trkpt>
      <trkpt lat="45.79197" lon="6.96397">
        <ele>1569</ele>
        <time>2022-08-27T07:19:33Z</time>
      </trkpt>
      <trkpt lat="45.79203" lon="6.96393">
        <ele>1569</ele>
        <time>2022-08-27T07:19:35Z</time>
      </trkpt>
      <trkpt lat="45.79208" lon="6.9638">
        <ele>1569</ele>
        <time>2022-08-27T07:19:37Z</time>
      </trkpt>
      <trkpt lat="45.79218" lon="6.96376">
        <ele>1569</ele>
        <time>2022-08-27T07:19:43Z</time>
      </trkpt>
      <trkpt lat="45.7922" lon="6.96376">
        <ele>1569</ele>
        <time>2022-08-27T07:19:44Z</time>
      </trkpt>
      <trkpt lat="45.79222" lon="6.96376">
        <ele>1569</ele>
        <time>2022-08-27T07:19:45Z</time>
      </trkpt>
      <trkpt lat="45.79224" lon="6.96375">
        <ele>1569</ele>
        <time>2022-08-27T07:19:47Z</time>
      </trkpt>
      <trkpt lat="45.79226" lon="6.96375">
        <ele>1569</ele>
        <time>2022-08-27T07:19:48Z</time>
      </trkpt>
      <trkpt lat="45.79228" lon="6.96374">
        <ele>1569</ele>
        <time>2022-08-27T07:19:49Z</time>
      </trkpt>
      <trkpt lat="45.79233" lon="6.96372">
        <ele>1567</ele>
        <time>2022-08-27T07:19:51Z</time>
      </trkpt>
      <trkpt lat="45.79237" lon="6.96369">
        <ele>1567</ele>
        <time>2022-08-27T07:19:52Z</time>
      </trkpt>
      <trkpt lat="45.79242" lon="6.96366">
        <ele>1567</ele>
        <time>2022-08-27T07:19:53Z</time>
      </trkpt>
      <trkpt lat="45.79245" lon="6.96365">
        <ele>1567</ele>
        <time>2022-08-27T07:19:54Z</time>
      </trkpt>
      <trkpt lat="45.79247" lon="6.96364">
        <ele>1567</ele>
        <time>2022-08-27T07:19:55Z</time>
      </trkpt>
      <trkpt lat="45.7925" lon="6.96361">
        <ele>1567</ele>
        <time>2022-08-27T07:19:57Z</time>
      </trkpt>
      <trkpt lat="45.79252" lon="6.96359">
        <ele>1567</ele>
        <time>2022-08-27T07:19:58Z</time>
      </trkpt>
      <trkpt lat="45.79254" lon="6.96358">
        <ele>1567</ele>
        <time>2022-08-27T07:19:59Z</time>
      </trkpt>
      <trkpt lat="45.79257" lon="6.96356">
        <ele>1567</ele>
        <time>2022-08-27T07:20:01Z</time>
      </trkpt>
      <trkpt lat="45.79259" lon="6.96354">
        <ele>1568</ele>
        <time>2022-08-27T07:20:02Z</time>
      </trkpt>
      <trkpt lat="45.79261" lon="6.96353">
        <ele>1568</ele>
        <time>2022-08-27T07:20:03Z</time>
      </trkpt>
      <trkpt lat="45.79263" lon="6.96351">
        <ele>1568</ele>
        <time>2022-08-27T07:20:04Z</time>
      </trkpt>
      <trkpt lat="45.79267" lon="6.96349">
        <ele>1568</ele>
        <time>2022-08-27T07:20:05Z</time>
      </trkpt>
      <trkpt lat="45.79268" lon="6.96348">
        <ele>1568</ele>
        <time>2022-08-27T07:20:06Z</time>
      </trkpt>
      <trkpt lat="45.7927" lon="6.96348">
        <ele>1568</ele>
        <time>2022-08-27T07:20:07Z</time>
      </trkpt>
      <trkpt lat="45.79273" lon="6.96347">
        <ele>1568</ele>
        <time>2022-08-27T07:20:08Z</time>
      </trkpt>
      <trkpt lat="45.79274" lon="6.96347">
        <ele>1568</ele>
        <time>2022-08-27T07:20:09Z</time>
      </trkpt>
      <trkpt lat="45.79277" lon="6.96346">
        <ele>1568</ele>
        <time>2022-08-27T07:20:11Z</time>
      </trkpt>
      <trkpt lat="45.79279" lon="6.96344">
        <ele>1568</ele>
        <time>2022-08-27T07:20:12Z</time>
      </trkpt>
      <trkpt lat="45.79282" lon="6.96342">
        <ele>1568</ele>
        <time>2022-08-27T07:20:13Z</time>
      </trkpt>
      <trkpt lat="45.79283" lon="6.96342">
        <ele>1568</ele>
        <time>2022-08-27T07:20:14Z</time>
      </trkpt>
      <trkpt lat="45.79285" lon="6.9634">
        <ele>1568</ele>
        <time>2022-08-27T07:20:15Z</time>
      </trkpt>
      <trkpt lat="45.79287" lon="6.96338">
        <ele>1568</ele>
        <time>2022-08-27T07:20:16Z</time>
      </trkpt>
      <trkpt lat="45.79288" lon="6.96337">
        <ele>1568</ele>
        <time>2022-08-27T07:20:17Z</time>
      </trkpt>
      <trkpt lat="45.79292" lon="6.96334">
        <ele>1568</ele>
        <time>2022-08-27T07:20:19Z</time>
      </trkpt>
      <trkpt lat="45.79296" lon="6.96331">
        <ele>1568</ele>
        <time>2022-08-27T07:20:20Z</time>
      </trkpt>
      <trkpt lat="45.79297" lon="6.9633">
        <ele>1568</ele>
        <time>2022-08-27T07:20:21Z</time>
      </trkpt>
      <trkpt lat="45.79298" lon="6.96328">
        <ele>1568</ele>
        <time>2022-08-27T07:20:22Z</time>
      </trkpt>
      <trkpt lat="45.793" lon="6.96327">
        <ele>1568</ele>
        <time>2022-08-27T07:20:23Z</time>
      </trkpt>
      <trkpt lat="45.79302" lon="6.96326">
        <ele>1568</ele>
        <time>2022-08-27T07:20:24Z</time>
      </trkpt>
      <trkpt lat="45.79303" lon="6.96325">
        <ele>1568</ele>
        <time>2022-08-27T07:20:25Z</time>
      </trkpt>
      <trkpt lat="45.79305" lon="6.96324">
        <ele>1568</ele>
        <time>2022-08-27T07:20:26Z</time>
      </trkpt>
      <trkpt lat="45.79307" lon="6.96322">
        <ele>1568</ele>
        <time>2022-08-27T07:20:27Z</time>
      </trkpt>
      <trkpt lat="45.7931" lon="6.96321">
        <ele>1568</ele>
        <time>2022-08-27T07:20:28Z</time>
      </trkpt>
      <trkpt lat="45.79314" lon="6.9632">
        <ele>1568</ele>
        <time>2022-08-27T07:20:29Z</time>
      </trkpt>
      <trkpt lat="45.79315" lon="6.96319">
        <ele>1568</ele>
        <time>2022-08-27T07:20:30Z</time>
      </trkpt>
      <trkpt lat="45.79316" lon="6.96317">
        <ele>1568</ele>
        <time>2022-08-27T07:20:31Z</time>
      </trkpt>
      <trkpt lat="45.79319" lon="6.96316">
        <ele>1568</ele>
        <time>2022-08-27T07:20:32Z</time>
      </trkpt>
      <trkpt lat="45.79321" lon="6.96315">
        <ele>1568</ele>
        <time>2022-08-27T07:20:33Z</time>
      </trkpt>
      <trkpt lat="45.79324" lon="6.96315">
        <ele>1568</ele>
        <time>2022-08-27T07:20:34Z</time>
      </trkpt>
      <trkpt lat="45.79325" lon="6.96315">
        <ele>1568</ele>
        <time>2022-08-27T07:20:35Z</time>
      </trkpt>
      <trkpt lat="45.79328" lon="6.96314">
        <ele>1568</ele>
        <time>2022-08-27T07:20:36Z</time>
      </trkpt>
      <trkpt lat="45.79332" lon="6.96313">
        <ele>1567</ele>
        <time>2022-08-27T07:20:38Z</time>
      </trkpt>
      <trkpt lat="45.79335" lon="6.96314">
        <ele>1567</ele>
        <time>2022-08-27T07:20:39Z</time>
      </trkpt>
      <trkpt lat="45.79336" lon="6.96314">
        <ele>1567</ele>
        <time>2022-08-27T07:20:40Z</time>
      </trkpt>
      <trkpt lat="45.7934" lon="6.96315">
        <ele>1566</ele>
        <time>2022-08-27T07:20:41Z</time>
      </trkpt>
      <trkpt lat="45.79341" lon="6.96315">
        <ele>1566</ele>
        <time>2022-08-27T07:20:42Z</time>
      </trkpt>
      <trkpt lat="45.79344" lon="6.96317">
        <ele>1566</ele>
        <time>2022-08-27T07:20:43Z</time>
      </trkpt>
      <trkpt lat="45.79345" lon="6.96317">
        <ele>1566</ele>
        <time>2022-08-27T07:20:44Z</time>
      </trkpt>
      <trkpt lat="45.79348" lon="6.96317">
        <ele>1566</ele>
        <time>2022-08-27T07:20:45Z</time>
      </trkpt>
      <trkpt lat="45.7935" lon="6.96318">
        <ele>1566</ele>
        <time>2022-08-27T07:20:46Z</time>
      </trkpt>
      <trkpt lat="45.79353" lon="6.96319">
        <ele>1565</ele>
        <time>2022-08-27T07:20:47Z</time>
      </trkpt>
      <trkpt lat="45.79356" lon="6.96319">
        <ele>1565</ele>
        <time>2022-08-27T07:20:48Z</time>
      </trkpt>
      <trkpt lat="45.79357" lon="6.9632">
        <ele>1565</ele>
        <time>2022-08-27T07:20:49Z</time>
      </trkpt>
      <trkpt lat="45.7936" lon="6.9632">
        <ele>1565</ele>
        <time>2022-08-27T07:20:50Z</time>
      </trkpt>
      <trkpt lat="45.79362" lon="6.96321">
        <ele>1565</ele>
        <time>2022-08-27T07:20:51Z</time>
      </trkpt>
      <trkpt lat="45.79364" lon="6.96321">
        <ele>1564</ele>
        <time>2022-08-27T07:20:52Z</time>
      </trkpt>
      <trkpt lat="45.79368" lon="6.96321">
        <ele>1564</ele>
        <time>2022-08-27T07:20:53Z</time>
      </trkpt>
      <trkpt lat="45.79369" lon="6.96321">
        <ele>1564</ele>
        <time>2022-08-27T07:20:54Z</time>
      </trkpt>
      <trkpt lat="45.79371" lon="6.96321">
        <ele>1564</ele>
        <time>2022-08-27T07:20:55Z</time>
      </trkpt>
      <trkpt lat="45.79374" lon="6.96321">
        <ele>1564</ele>
        <time>2022-08-27T07:20:56Z</time>
      </trkpt>
      <trkpt lat="45.79376" lon="6.96321">
        <ele>1564</ele>
        <time>2022-08-27T07:20:57Z</time>
      </trkpt>
      <trkpt lat="45.79378" lon="6.96322">
        <ele>1564</ele>
        <time>2022-08-27T07:20:59Z</time>
      </trkpt>
      <trkpt lat="45.7938" lon="6.96322">
        <ele>1563</ele>
        <time>2022-08-27T07:21:00Z</time>
      </trkpt>
      <trkpt lat="45.79382" lon="6.96323">
        <ele>1563</ele>
        <time>2022-08-27T07:21:01Z</time>
      </trkpt>
      <trkpt lat="45.79384" lon="6.96323">
        <ele>1563</ele>
        <time>2022-08-27T07:21:02Z</time>
      </trkpt>
      <trkpt lat="45.79386" lon="6.96323">
        <ele>1562</ele>
        <time>2022-08-27T07:21:03Z</time>
      </trkpt>
      <trkpt lat="45.79387" lon="6.96325">
        <ele>1562</ele>
        <time>2022-08-27T07:21:04Z</time>
      </trkpt>
      <trkpt lat="45.79388" lon="6.96327">
        <ele>1562</ele>
        <time>2022-08-27T07:21:05Z</time>
      </trkpt>
      <trkpt lat="45.7939" lon="6.96329">
        <ele>1562</ele>
        <time>2022-08-27T07:21:06Z</time>
      </trkpt>
      <trkpt lat="45.79391" lon="6.96331">
        <ele>1562</ele>
        <time>2022-08-27T07:21:07Z</time>
      </trkpt>
      <trkpt lat="45.79392" lon="6.96333">
        <ele>1560</ele>
        <time>2022-08-27T07:21:08Z</time>
      </trkpt>
      <trkpt lat="45.79392" lon="6.96336">
        <ele>1560</ele>
        <time>2022-08-27T07:21:09Z</time>
      </trkpt>
      <trkpt lat="45.79393" lon="6.96338">
        <ele>1560</ele>
        <time>2022-08-27T07:21:10Z</time>
      </trkpt>
      <trkpt lat="45.79393" lon="6.96341">
        <ele>1559</ele>
        <time>2022-08-27T07:21:11Z</time>
      </trkpt>
      <trkpt lat="45.79393" lon="6.96344">
        <ele>1559</ele>
        <time>2022-08-27T07:21:12Z</time>
      </trkpt>
      <trkpt lat="45.79394" lon="6.96346">
        <ele>1558</ele>
        <time>2022-08-27T07:21:13Z</time>
      </trkpt>
      <trkpt lat="45.79395" lon="6.96351">
        <ele>1558</ele>
        <time>2022-08-27T07:21:14Z</time>
      </trkpt>
      <trkpt lat="45.79397" lon="6.96355">
        <ele>1557</ele>
        <time>2022-08-27T07:21:15Z</time>
      </trkpt>
      <trkpt lat="45.79398" lon="6.96359">
        <ele>1557</ele>
        <time>2022-08-27T07:21:16Z</time>
      </trkpt>
      <trkpt lat="45.794" lon="6.96361">
        <ele>1557</ele>
        <time>2022-08-27T07:21:18Z</time>
      </trkpt>
      <trkpt lat="45.79402" lon="6.96364">
        <ele>1556</ele>
        <time>2022-08-27T07:21:19Z</time>
      </trkpt>
      <trkpt lat="45.79404" lon="6.96367">
        <ele>1555</ele>
        <time>2022-08-27T07:21:21Z</time>
      </trkpt>
      <trkpt lat="45.79406" lon="6.96369">
        <ele>1554</ele>
        <time>2022-08-27T07:21:22Z</time>
      </trkpt>
      <trkpt lat="45.79408" lon="6.96369">
        <ele>1554</ele>
        <time>2022-08-27T07:21:23Z</time>
      </trkpt>
      <trkpt lat="45.7941" lon="6.96369">
        <ele>1554</ele>
        <time>2022-08-27T07:21:24Z</time>
      </trkpt>
      <trkpt lat="45.79412" lon="6.96369">
        <ele>1554</ele>
        <time>2022-08-27T07:21:25Z</time>
      </trkpt>
      <trkpt lat="45.79414" lon="6.96369">
        <ele>1554</ele>
        <time>2022-08-27T07:21:26Z</time>
      </trkpt>
      <trkpt lat="45.79415" lon="6.96369">
        <ele>1554</ele>
        <time>2022-08-27T07:21:27Z</time>
      </trkpt>
      <trkpt lat="45.79417" lon="6.96369">
        <ele>1554</ele>
        <time>2022-08-27T07:21:28Z</time>
      </trkpt>
      <trkpt lat="45.7942" lon="6.9637">
        <ele>1554</ele>
        <time>2022-08-27T07:21:29Z</time>
      </trkpt>
      <trkpt lat="45.79423" lon="6.96371">
        <ele>1554</ele>
        <time>2022-08-27T07:21:30Z</time>
      </trkpt>
      <trkpt lat="45.79426" lon="6.96371">
        <ele>1554</ele>
        <time>2022-08-27T07:21:31Z</time>
      </trkpt>
      <trkpt lat="45.79428" lon="6.96372">
        <ele>1553</ele>
        <time>2022-08-27T07:21:33Z</time>
      </trkpt>
      <trkpt lat="45.79429" lon="6.96372">
        <ele>1553</ele>
        <time>2022-08-27T07:21:34Z</time>
      </trkpt>
      <trkpt lat="45.7943" lon="6.96372">
        <ele>1553</ele>
        <time>2022-08-27T07:21:35Z</time>
      </trkpt>
      <trkpt lat="45.79439" lon="6.96375">
        <ele>1553</ele>
        <time>2022-08-27T07:21:37Z</time>
      </trkpt>
      <trkpt lat="45.79441" lon="6.96376">
        <ele>1553</ele>
        <time>2022-08-27T07:21:38Z</time>
      </trkpt>
      <trkpt lat="45.79443" lon="6.96377">
        <ele>1553</ele>
        <time>2022-08-27T07:21:39Z</time>
      </trkpt>
      <trkpt lat="45.79445" lon="6.96378">
        <ele>1553</ele>
        <time>2022-08-27T07:21:40Z</time>
      </trkpt>
      <trkpt lat="45.79448" lon="6.96379">
        <ele>1553</ele>
        <time>2022-08-27T07:21:41Z</time>
      </trkpt>
      <trkpt lat="45.7945" lon="6.9638">
        <ele>1553</ele>
        <time>2022-08-27T07:21:42Z</time>
      </trkpt>
      <trkpt lat="45.79452" lon="6.96381">
        <ele>1553</ele>
        <time>2022-08-27T07:21:43Z</time>
      </trkpt>
      <trkpt lat="45.79454" lon="6.96382">
        <ele>1553</ele>
        <time>2022-08-27T07:21:44Z</time>
      </trkpt>
      <trkpt lat="45.79456" lon="6.96384">
        <ele>1553</ele>
        <time>2022-08-27T07:21:45Z</time>
      </trkpt>
      <trkpt lat="45.79458" lon="6.96384">
        <ele>1553</ele>
        <time>2022-08-27T07:21:46Z</time>
      </trkpt>
      <trkpt lat="45.7946" lon="6.96385">
        <ele>1554</ele>
        <time>2022-08-27T07:21:47Z</time>
      </trkpt>
      <trkpt lat="45.79462" lon="6.96385">
        <ele>1554</ele>
        <time>2022-08-27T07:21:48Z</time>
      </trkpt>
      <trkpt lat="45.79464" lon="6.96386">
        <ele>1554</ele>
        <time>2022-08-27T07:21:49Z</time>
      </trkpt>
      <trkpt lat="45.79466" lon="6.96386">
        <ele>1554</ele>
        <time>2022-08-27T07:21:50Z</time>
      </trkpt>
      <trkpt lat="45.79475" lon="6.96391">
        <ele>1554</ele>
        <time>2022-08-27T07:21:56Z</time>
      </trkpt>
      <trkpt lat="45.79478" lon="6.96405">
        <ele>1553</ele>
        <time>2022-08-27T07:22:01Z</time>
      </trkpt>
      <trkpt lat="45.79479" lon="6.96407">
        <ele>1553</ele>
        <time>2022-08-27T07:22:02Z</time>
      </trkpt>
      <trkpt lat="45.7948" lon="6.96409">
        <ele>1553</ele>
        <time>2022-08-27T07:22:03Z</time>
      </trkpt>
      <trkpt lat="45.79481" lon="6.96412">
        <ele>1552</ele>
        <time>2022-08-27T07:22:04Z</time>
      </trkpt>
      <trkpt lat="45.79481" lon="6.96414">
        <ele>1552</ele>
        <time>2022-08-27T07:22:06Z</time>
      </trkpt>
      <trkpt lat="45.79482" lon="6.96416">
        <ele>1552</ele>
        <time>2022-08-27T07:22:07Z</time>
      </trkpt>
      <trkpt lat="45.79483" lon="6.96418">
        <ele>1552</ele>
        <time>2022-08-27T07:22:08Z</time>
      </trkpt>
      <trkpt lat="45.79482" lon="6.96433">
        <ele>1551</ele>
        <time>2022-08-27T07:22:21Z</time>
      </trkpt>
      <trkpt lat="45.79483" lon="6.96437">
        <ele>1551</ele>
        <time>2022-08-27T07:22:24Z</time>
      </trkpt>
      <trkpt lat="45.79484" lon="6.96441">
        <ele>1551</ele>
        <time>2022-08-27T07:22:25Z</time>
      </trkpt>
      <trkpt lat="45.79484" lon="6.96445">
        <ele>1551</ele>
        <time>2022-08-27T07:22:26Z</time>
      </trkpt>
      <trkpt lat="45.79484" lon="6.96448">
        <ele>1551</ele>
        <time>2022-08-27T07:22:28Z</time>
      </trkpt>
      <trkpt lat="45.79485" lon="6.9645">
        <ele>1551</ele>
        <time>2022-08-27T07:22:29Z</time>
      </trkpt>
      <trkpt lat="45.79485" lon="6.96453">
        <ele>1551</ele>
        <time>2022-08-27T07:22:30Z</time>
      </trkpt>
      <trkpt lat="45.79485" lon="6.96455">
        <ele>1551</ele>
        <time>2022-08-27T07:22:31Z</time>
      </trkpt>
      <trkpt lat="45.79486" lon="6.96458">
        <ele>1551</ele>
        <time>2022-08-27T07:22:33Z</time>
      </trkpt>
      <trkpt lat="45.79486" lon="6.9646">
        <ele>1551</ele>
        <time>2022-08-27T07:22:34Z</time>
      </trkpt>
      <trkpt lat="45.79486" lon="6.96461">
        <ele>1551</ele>
        <time>2022-08-27T07:22:35Z</time>
      </trkpt>
      <trkpt lat="45.79485" lon="6.96461">
        <ele>1551</ele>
        <time>2022-08-27T07:22:36Z</time>
      </trkpt>
      <trkpt lat="45.79485" lon="6.96462">
        <ele>1551</ele>
        <time>2022-08-27T07:22:37Z</time>
      </trkpt>
      <trkpt lat="45.79485" lon="6.96463">
        <ele>1551</ele>
        <time>2022-08-27T07:22:39Z</time>
      </trkpt>
      <trkpt lat="45.79485" lon="6.96463">
        <ele>1551</ele>
        <time>2022-08-27T07:22:40Z</time>
      </trkpt>
      <trkpt lat="45.79485" lon="6.96464">
        <ele>1551</ele>
        <time>2022-08-27T07:22:41Z</time>
      </trkpt>
      <trkpt lat="45.79484" lon="6.96464">
        <ele>1551</ele>
        <time>2022-08-27T07:22:42Z</time>
      </trkpt>
      <trkpt lat="45.79481" lon="6.96473">
        <ele>1551</ele>
        <time>2022-08-27T07:22:44Z</time>
      </trkpt>
      <trkpt lat="45.79478" lon="6.96485">
        <ele>1550</ele>
        <time>2022-08-27T07:22:49Z</time>
      </trkpt>
      <trkpt lat="45.79477" lon="6.96484">
        <ele>1550</ele>
        <time>2022-08-27T07:22:51Z</time>
      </trkpt>
      <trkpt lat="45.79477" lon="6.96483">
        <ele>1550</ele>
        <time>2022-08-27T07:22:53Z</time>
      </trkpt>
      <trkpt lat="45.79477" lon="6.96482">
        <ele>1550</ele>
        <time>2022-08-27T07:22:54Z</time>
      </trkpt>
      <trkpt lat="45.79477" lon="6.9648">
        <ele>1551</ele>
        <time>2022-08-27T07:22:55Z</time>
      </trkpt>
      <trkpt lat="45.79476" lon="6.96479">
        <ele>1551</ele>
        <time>2022-08-27T07:22:57Z</time>
      </trkpt>
      <trkpt lat="45.79476" lon="6.96478">
        <ele>1551</ele>
        <time>2022-08-27T07:22:58Z</time>
      </trkpt>
      <trkpt lat="45.79476" lon="6.96477">
        <ele>1551</ele>
        <time>2022-08-27T07:22:59Z</time>
      </trkpt>
      <trkpt lat="45.79476" lon="6.96476">
        <ele>1551</ele>
        <time>2022-08-27T07:23:00Z</time>
      </trkpt>
      <trkpt lat="45.79475" lon="6.96475">
        <ele>1551</ele>
        <time>2022-08-27T07:23:02Z</time>
      </trkpt>
      <trkpt lat="45.79475" lon="6.96474">
        <ele>1551</ele>
        <time>2022-08-27T07:23:03Z</time>
      </trkpt>
      <trkpt lat="45.79475" lon="6.96473">
        <ele>1551</ele>
        <time>2022-08-27T07:23:04Z</time>
      </trkpt>
      <trkpt lat="45.79475" lon="6.96472">
        <ele>1551</ele>
        <time>2022-08-27T07:23:05Z</time>
      </trkpt>
      <trkpt lat="45.79476" lon="6.9647">
        <ele>1551</ele>
        <time>2022-08-27T07:23:07Z</time>
      </trkpt>
      <trkpt lat="45.79477" lon="6.96468">
        <ele>1551</ele>
        <time>2022-08-27T07:23:08Z</time>
      </trkpt>
      <trkpt lat="45.79478" lon="6.96465">
        <ele>1551</ele>
        <time>2022-08-27T07:23:09Z</time>
      </trkpt>
      <trkpt lat="45.79479" lon="6.96463">
        <ele>1551</ele>
        <time>2022-08-27T07:23:10Z</time>
      </trkpt>
      <trkpt lat="45.79481" lon="6.96461">
        <ele>1551</ele>
        <time>2022-08-27T07:23:11Z</time>
      </trkpt>
      <trkpt lat="45.79481" lon="6.96458">
        <ele>1551</ele>
        <time>2022-08-27T07:23:12Z</time>
      </trkpt>
      <trkpt lat="45.79482" lon="6.96456">
        <ele>1551</ele>
        <time>2022-08-27T07:23:13Z</time>
      </trkpt>
      <trkpt lat="45.79483" lon="6.96453">
        <ele>1551</ele>
        <time>2022-08-27T07:23:14Z</time>
      </trkpt>
      <trkpt lat="45.79484" lon="6.9645">
        <ele>1551</ele>
        <time>2022-08-27T07:23:16Z</time>
      </trkpt>
      <trkpt lat="45.79485" lon="6.96448">
        <ele>1551</ele>
        <time>2022-08-27T07:23:17Z</time>
      </trkpt>
      <trkpt lat="45.79485" lon="6.96446">
        <ele>1551</ele>
        <time>2022-08-27T07:23:18Z</time>
      </trkpt>
      <trkpt lat="45.79486" lon="6.96444">
        <ele>1551</ele>
        <time>2022-08-27T07:23:19Z</time>
      </trkpt>
      <trkpt lat="45.79486" lon="6.96443">
        <ele>1551</ele>
        <time>2022-08-27T07:23:21Z</time>
      </trkpt>
      <trkpt lat="45.79487" lon="6.96441">
        <ele>1551</ele>
        <time>2022-08-27T07:23:22Z</time>
      </trkpt>
      <trkpt lat="45.79487" lon="6.9644">
        <ele>1552</ele>
        <time>2022-08-27T07:23:23Z</time>
      </trkpt>
      <trkpt lat="45.79487" lon="6.96438">
        <ele>1552</ele>
        <time>2022-08-27T07:23:24Z</time>
      </trkpt>
      <trkpt lat="45.79488" lon="6.96436">
        <ele>1552</ele>
        <time>2022-08-27T07:23:25Z</time>
      </trkpt>
      <trkpt lat="45.79488" lon="6.96435">
        <ele>1553</ele>
        <time>2022-08-27T07:23:26Z</time>
      </trkpt>
      <trkpt lat="45.79487" lon="6.96435">
        <ele>1553</ele>
        <time>2022-08-27T07:23:27Z</time>
      </trkpt>
      <trkpt lat="45.79487" lon="6.96435">
        <ele>1553</ele>
        <time>2022-08-27T07:23:28Z</time>
      </trkpt>
      <trkpt lat="45.79486" lon="6.96435">
        <ele>1553</ele>
        <time>2022-08-27T07:23:29Z</time>
      </trkpt>
      <trkpt lat="45.79485" lon="6.96435">
        <ele>1553</ele>
        <time>2022-08-27T07:23:31Z</time>
      </trkpt>
      <trkpt lat="45.79484" lon="6.96435">
        <ele>1553</ele>
        <time>2022-08-27T07:23:32Z</time>
      </trkpt>
      <trkpt lat="45.79484" lon="6.96435">
        <ele>1553</ele>
        <time>2022-08-27T07:23:33Z</time>
      </trkpt>
      <trkpt lat="45.79483" lon="6.96435">
        <ele>1553</ele>
        <time>2022-08-27T07:23:34Z</time>
      </trkpt>
      <trkpt lat="45.79482" lon="6.96436">
        <ele>1554</ele>
        <time>2022-08-27T07:23:36Z</time>
      </trkpt>
      <trkpt lat="45.79481" lon="6.96436">
        <ele>1555</ele>
        <time>2022-08-27T07:23:37Z</time>
      </trkpt>
      <trkpt lat="45.79481" lon="6.96436">
        <ele>1555</ele>
        <time>2022-08-27T07:23:38Z</time>
      </trkpt>
      <trkpt lat="45.7948" lon="6.96436">
        <ele>1555</ele>
        <time>2022-08-27T07:23:39Z</time>
      </trkpt>
      <trkpt lat="45.79479" lon="6.96436">
        <ele>1555</ele>
        <time>2022-08-27T07:23:40Z</time>
      </trkpt>
      <trkpt lat="45.79479" lon="6.96436">
        <ele>1555</ele>
        <time>2022-08-27T07:24:02Z</time>
      </trkpt>
      <trkpt lat="45.79479" lon="6.96436">
        <ele>1555</ele>
        <time>2022-08-27T07:24:23Z</time>
      </trkpt>
      <trkpt lat="45.7947" lon="6.96464">
        <ele>1555</ele>
        <time>2022-08-27T07:24:24Z</time>
      </trkpt>
      <trkpt lat="45.79468" lon="6.96464">
        <ele>1555</ele>
        <time>2022-08-27T07:24:25Z</time>
      </trkpt>
      <trkpt lat="45.79466" lon="6.96463">
        <ele>1556</ele>
        <time>2022-08-27T07:24:26Z</time>
      </trkpt>
      <trkpt lat="45.79463" lon="6.96462">
        <ele>1556</ele>
        <time>2022-08-27T07:24:28Z</time>
      </trkpt>
      <trkpt lat="45.79461" lon="6.96462">
        <ele>1556</ele>
        <time>2022-08-27T07:24:29Z</time>
      </trkpt>
      <trkpt lat="45.79459" lon="6.96461">
        <ele>1556</ele>
        <time>2022-08-27T07:24:31Z</time>
      </trkpt>
      <trkpt lat="45.79457" lon="6.96461">
        <ele>1556</ele>
        <time>2022-08-27T07:24:32Z</time>
      </trkpt>
      <trkpt lat="45.79455" lon="6.9646">
        <ele>1556</ele>
        <time>2022-08-27T07:24:33Z</time>
      </trkpt>
      <trkpt lat="45.79453" lon="6.9646">
        <ele>1556</ele>
        <time>2022-08-27T07:24:34Z</time>
      </trkpt>
      <trkpt lat="45.79451" lon="6.96459">
        <ele>1556</ele>
        <time>2022-08-27T07:24:35Z</time>
      </trkpt>
      <trkpt lat="45.79449" lon="6.96458">
        <ele>1556</ele>
        <time>2022-08-27T07:24:36Z</time>
      </trkpt>
      <trkpt lat="45.79447" lon="6.96458">
        <ele>1556</ele>
        <time>2022-08-27T07:24:37Z</time>
      </trkpt>
      <trkpt lat="45.79446" lon="6.96458">
        <ele>1555</ele>
        <time>2022-08-27T07:24:38Z</time>
      </trkpt>
      <trkpt lat="45.79445" lon="6.96458">
        <ele>1555</ele>
        <time>2022-08-27T07:24:39Z</time>
      </trkpt>
      <trkpt lat="45.79445" lon="6.96458">
        <ele>1556</ele>
        <time>2022-08-27T07:24:40Z</time>
      </trkpt>
      <trkpt lat="45.79444" lon="6.96459">
        <ele>1556</ele>
        <time>2022-08-27T07:24:41Z</time>
      </trkpt>
      <trkpt lat="45.79444" lon="6.96459">
        <ele>1556</ele>
        <time>2022-08-27T07:24:43Z</time>
      </trkpt>
      <trkpt lat="45.79443" lon="6.96459">
        <ele>1556</ele>
        <time>2022-08-27T07:24:44Z</time>
      </trkpt>
      <trkpt lat="45.79435" lon="6.96463">
        <ele>1556</ele>
        <time>2022-08-27T07:24:46Z</time>
      </trkpt>
      <trkpt lat="45.79435" lon="6.96463">
        <ele>1556</ele>
        <time>2022-08-27T07:24:47Z</time>
      </trkpt>
      <trkpt lat="45.79435" lon="6.96463">
        <ele>1556</ele>
        <time>2022-08-27T07:24:48Z</time>
      </trkpt>
      <trkpt lat="45.79434" lon="6.96463">
        <ele>1556</ele>
        <time>2022-08-27T07:24:49Z</time>
      </trkpt>
      <trkpt lat="45.79434" lon="6.96464">
        <ele>1555</ele>
        <time>2022-08-27T07:24:50Z</time>
      </trkpt>
      <trkpt lat="45.79434" lon="6.96464">
        <ele>1555</ele>
        <time>2022-08-27T07:24:52Z</time>
      </trkpt>
      <trkpt lat="45.79433" lon="6.96464">
        <ele>1556</ele>
        <time>2022-08-27T07:24:53Z</time>
      </trkpt>
      <trkpt lat="45.79433" lon="6.96464">
        <ele>1556</ele>
        <time>2022-08-27T07:24:54Z</time>
      </trkpt>
      <trkpt lat="45.79433" lon="6.96465">
        <ele>1556</ele>
        <time>2022-08-27T07:24:55Z</time>
      </trkpt>
      <trkpt lat="45.79433" lon="6.96465">
        <ele>1556</ele>
        <time>2022-08-27T07:24:57Z</time>
      </trkpt>
      <trkpt lat="45.79432" lon="6.96465">
        <ele>1555</ele>
        <time>2022-08-27T07:24:58Z</time>
      </trkpt>
      <trkpt lat="45.79432" lon="6.96466">
        <ele>1555</ele>
        <time>2022-08-27T07:24:59Z</time>
      </trkpt>
      <trkpt lat="45.79432" lon="6.96466">
        <ele>1555</ele>
        <time>2022-08-27T07:25:00Z</time>
      </trkpt>
      <trkpt lat="45.79431" lon="6.96466">
        <ele>1555</ele>
        <time>2022-08-27T07:25:02Z</time>
      </trkpt>
      <trkpt lat="45.79431" lon="6.96466">
        <ele>1555</ele>
        <time>2022-08-27T07:25:03Z</time>
      </trkpt>
      <trkpt lat="45.79431" lon="6.96467">
        <ele>1555</ele>
        <time>2022-08-27T07:25:04Z</time>
      </trkpt>
      <trkpt lat="45.79431" lon="6.96467">
        <ele>1555</ele>
        <time>2022-08-27T07:25:06Z</time>
      </trkpt>
      <trkpt lat="45.7943" lon="6.96467">
        <ele>1554</ele>
        <time>2022-08-27T07:25:07Z</time>
      </trkpt>
      <trkpt lat="45.7943" lon="6.96467">
        <ele>1555</ele>
        <time>2022-08-27T07:25:08Z</time>
      </trkpt>
      <trkpt lat="45.7943" lon="6.96468">
        <ele>1555</ele>
        <time>2022-08-27T07:25:09Z</time>
      </trkpt>
      <trkpt lat="45.79429" lon="6.96468">
        <ele>1555</ele>
        <time>2022-08-27T07:25:11Z</time>
      </trkpt>
      <trkpt lat="45.79429" lon="6.96468">
        <ele>1555</ele>
        <time>2022-08-27T07:25:12Z</time>
      </trkpt>
      <trkpt lat="45.79429" lon="6.96468">
        <ele>1555</ele>
        <time>2022-08-27T07:25:13Z</time>
      </trkpt>
      <trkpt lat="45.79428" lon="6.96469">
        <ele>1555</ele>
        <time>2022-08-27T07:25:14Z</time>
      </trkpt>
      <trkpt lat="45.79428" lon="6.96469">
        <ele>1555</ele>
        <time>2022-08-27T07:25:15Z</time>
      </trkpt>
      <trkpt lat="45.79428" lon="6.96469">
        <ele>1555</ele>
        <time>2022-08-27T07:25:17Z</time>
      </trkpt>
      <trkpt lat="45.79428" lon="6.9647">
        <ele>1555</ele>
        <time>2022-08-27T07:25:19Z</time>
      </trkpt>
      <trkpt lat="45.79427" lon="6.9647">
        <ele>1555</ele>
        <time>2022-08-27T07:25:20Z</time>
      </trkpt>
      <trkpt lat="45.79427" lon="6.9647">
        <ele>1555</ele>
        <time>2022-08-27T07:25:21Z</time>
      </trkpt>
      <trkpt lat="45.79427" lon="6.9647">
        <ele>1555</ele>
        <time>2022-08-27T07:25:22Z</time>
      </trkpt>
      <trkpt lat="45.79426" lon="6.96471">
        <ele>1555</ele>
        <time>2022-08-27T07:25:23Z</time>
      </trkpt>
      <trkpt lat="45.79426" lon="6.96471">
        <ele>1555</ele>
        <time>2022-08-27T07:25:25Z</time>
      </trkpt>
      <trkpt lat="45.79426" lon="6.96471">
        <ele>1555</ele>
        <time>2022-08-27T07:25:26Z</time>
      </trkpt>
      <trkpt lat="45.79426" lon="6.96471">
        <ele>1555</ele>
        <time>2022-08-27T07:25:27Z</time>
      </trkpt>
      <trkpt lat="45.79425" lon="6.96472">
        <ele>1555</ele>
        <time>2022-08-27T07:25:28Z</time>
      </trkpt>
      <trkpt lat="45.79425" lon="6.96472">
        <ele>1555</ele>
        <time>2022-08-27T07:25:29Z</time>
      </trkpt>
      <trkpt lat="45.79427" lon="6.96475">
        <ele>1555</ele>
        <time>2022-08-27T07:25:30Z</time>
      </trkpt>
      <trkpt lat="45.79429" lon="6.96479">
        <ele>1555</ele>
        <time>2022-08-27T07:25:31Z</time>
      </trkpt>
      <trkpt lat="45.79431" lon="6.96482">
        <ele>1555</ele>
        <time>2022-08-27T07:25:32Z</time>
      </trkpt>
      <trkpt lat="45.79431" lon="6.96479">
        <ele>1556</ele>
        <time>2022-08-27T07:25:33Z</time>
      </trkpt>
      <trkpt lat="45.79431" lon="6.96476">
        <ele>1556</ele>
        <time>2022-08-27T07:25:35Z</time>
      </trkpt>
      <trkpt lat="45.79431" lon="6.96473">
        <ele>1556</ele>
        <time>2022-08-27T07:25:36Z</time>
      </trkpt>
      <trkpt lat="45.79431" lon="6.96469">
        <ele>1556</ele>
        <time>2022-08-27T07:25:37Z</time>
      </trkpt>
      <trkpt lat="45.79431" lon="6.96466">
        <ele>1556</ele>
        <time>2022-08-27T07:25:38Z</time>
      </trkpt>
      <trkpt lat="45.79432" lon="6.96463">
        <ele>1556</ele>
        <time>2022-08-27T07:25:39Z</time>
      </trkpt>
      <trkpt lat="45.79432" lon="6.9646">
        <ele>1556</ele>
        <time>2022-08-27T07:25:40Z</time>
      </trkpt>
      <trkpt lat="45.79432" lon="6.96456">
        <ele>1556</ele>
        <time>2022-08-27T07:25:41Z</time>
      </trkpt>
      <trkpt lat="45.79432" lon="6.96453">
        <ele>1556</ele>
        <time>2022-08-27T07:25:42Z</time>
      </trkpt>
      <trkpt lat="45.79433" lon="6.96451">
        <ele>1556</ele>
        <time>2022-08-27T07:25:44Z</time>
      </trkpt>
      <trkpt lat="45.79435" lon="6.96449">
        <ele>1556</ele>
        <time>2022-08-27T07:25:45Z</time>
      </trkpt>
      <trkpt lat="45.79436" lon="6.96446">
        <ele>1556</ele>
        <time>2022-08-27T07:25:46Z</time>
      </trkpt>
      <trkpt lat="45.79437" lon="6.96444">
        <ele>1556</ele>
        <time>2022-08-27T07:25:48Z</time>
      </trkpt>
      <trkpt lat="45.79439" lon="6.96442">
        <ele>1556</ele>
        <time>2022-08-27T07:25:49Z</time>
      </trkpt>
      <trkpt lat="45.7944" lon="6.96439">
        <ele>1556</ele>
        <time>2022-08-27T07:25:50Z</time>
      </trkpt>
      <trkpt lat="45.79441" lon="6.96437">
        <ele>1556</ele>
        <time>2022-08-27T07:25:51Z</time>
      </trkpt>
      <trkpt lat="45.79443" lon="6.96435">
        <ele>1555</ele>
        <time>2022-08-27T07:25:52Z</time>
      </trkpt>
      <trkpt lat="45.79443" lon="6.96437">
        <ele>1555</ele>
        <time>2022-08-27T07:25:53Z</time>
      </trkpt>
      <trkpt lat="45.79443" lon="6.96439">
        <ele>1555</ele>
        <time>2022-08-27T07:25:54Z</time>
      </trkpt>
      <trkpt lat="45.79443" lon="6.96441">
        <ele>1555</ele>
        <time>2022-08-27T07:25:55Z</time>
      </trkpt>
      <trkpt lat="45.79443" lon="6.96443">
        <ele>1555</ele>
        <time>2022-08-27T07:25:56Z</time>
      </trkpt>
      <trkpt lat="45.79444" lon="6.9645">
        <ele>1555</ele>
        <time>2022-08-27T07:25:57Z</time>
      </trkpt>
      <trkpt lat="45.79446" lon="6.96451">
        <ele>1555</ele>
        <time>2022-08-27T07:25:58Z</time>
      </trkpt>
      <trkpt lat="45.79448" lon="6.96451">
        <ele>1555</ele>
        <time>2022-08-27T07:25:59Z</time>
      </trkpt>
      <trkpt lat="45.7945" lon="6.96451">
        <ele>1555</ele>
        <time>2022-08-27T07:26:00Z</time>
      </trkpt>
      <trkpt lat="45.79452" lon="6.96451">
        <ele>1555</ele>
        <time>2022-08-27T07:26:01Z</time>
      </trkpt>
      <trkpt lat="45.79451" lon="6.96451">
        <ele>1555</ele>
        <time>2022-08-27T07:26:03Z</time>
      </trkpt>
      <trkpt lat="45.79451" lon="6.96451">
        <ele>1556</ele>
        <time>2022-08-27T07:26:04Z</time>
      </trkpt>
      <trkpt lat="45.7945" lon="6.9645">
        <ele>1556</ele>
        <time>2022-08-27T07:26:05Z</time>
      </trkpt>
      <trkpt lat="45.7945" lon="6.9645">
        <ele>1556</ele>
        <time>2022-08-27T07:26:07Z</time>
      </trkpt>
      <trkpt lat="45.79449" lon="6.9645">
        <ele>1555</ele>
        <time>2022-08-27T07:26:08Z</time>
      </trkpt>
      <trkpt lat="45.79449" lon="6.96449">
        <ele>1555</ele>
        <time>2022-08-27T07:26:09Z</time>
      </trkpt>
      <trkpt lat="45.79448" lon="6.96449">
        <ele>1555</ele>
        <time>2022-08-27T07:26:10Z</time>
      </trkpt>
      <trkpt lat="45.79448" lon="6.96449">
        <ele>1556</ele>
        <time>2022-08-27T07:26:12Z</time>
      </trkpt>
      <trkpt lat="45.79447" lon="6.96448">
        <ele>1556</ele>
        <time>2022-08-27T07:26:13Z</time>
      </trkpt>
      <trkpt lat="45.79447" lon="6.96448">
        <ele>1556</ele>
        <time>2022-08-27T07:26:14Z</time>
      </trkpt>
      <trkpt lat="45.79446" lon="6.96448">
        <ele>1556</ele>
        <time>2022-08-27T07:26:15Z</time>
      </trkpt>
      <trkpt lat="45.79446" lon="6.96447">
        <ele>1556</ele>
        <time>2022-08-27T07:26:16Z</time>
      </trkpt>
      <trkpt lat="45.79445" lon="6.96447">
        <ele>1556</ele>
        <time>2022-08-27T07:26:17Z</time>
      </trkpt>
      <trkpt lat="45.79445" lon="6.96447">
        <ele>1556</ele>
        <time>2022-08-27T07:26:18Z</time>
      </trkpt>
      <trkpt lat="45.79444" lon="6.96446">
        <ele>1556</ele>
        <time>2022-08-27T07:26:19Z</time>
      </trkpt>
      <trkpt lat="45.79444" lon="6.96446">
        <ele>1556</ele>
        <time>2022-08-27T07:26:21Z</time>
      </trkpt>
      <trkpt lat="45.79443" lon="6.96446">
        <ele>1556</ele>
        <time>2022-08-27T07:26:22Z</time>
      </trkpt>
      <trkpt lat="45.79443" lon="6.96445">
        <ele>1556</ele>
        <time>2022-08-27T07:26:23Z</time>
      </trkpt>
      <trkpt lat="45.79442" lon="6.96445">
        <ele>1556</ele>
        <time>2022-08-27T07:26:24Z</time>
      </trkpt>
      <trkpt lat="45.79442" lon="6.96445">
        <ele>1556</ele>
        <time>2022-08-27T07:26:25Z</time>
      </trkpt>
      <trkpt lat="45.79442" lon="6.96446">
        <ele>1556</ele>
        <time>2022-08-27T07:26:27Z</time>
      </trkpt>
      <trkpt lat="45.79442" lon="6.96446">
        <ele>1556</ele>
        <time>2022-08-27T07:26:28Z</time>
      </trkpt>
      <trkpt lat="45.79442" lon="6.96447">
        <ele>1555</ele>
        <time>2022-08-27T07:26:29Z</time>
      </trkpt>
      <trkpt lat="45.79441" lon="6.96447">
        <ele>1556</ele>
        <time>2022-08-27T07:26:30Z</time>
      </trkpt>
      <trkpt lat="45.79441" lon="6.96448">
        <ele>1556</ele>
        <time>2022-08-27T07:26:32Z</time>
      </trkpt>
      <trkpt lat="45.79441" lon="6.96448">
        <ele>1556</ele>
        <time>2022-08-27T07:26:33Z</time>
      </trkpt>
      <trkpt lat="45.79441" lon="6.96449">
        <ele>1556</ele>
        <time>2022-08-27T07:26:34Z</time>
      </trkpt>
      <trkpt lat="45.79441" lon="6.9645">
        <ele>1556</ele>
        <time>2022-08-27T07:26:36Z</time>
      </trkpt>
      <trkpt lat="45.7944" lon="6.9645">
        <ele>1556</ele>
        <time>2022-08-27T07:26:37Z</time>
      </trkpt>
      <trkpt lat="45.7944" lon="6.96451">
        <ele>1556</ele>
        <time>2022-08-27T07:26:38Z</time>
      </trkpt>
      <trkpt lat="45.7944" lon="6.96451">
        <ele>1556</ele>
        <time>2022-08-27T07:26:39Z</time>
      </trkpt>
      <trkpt lat="45.7944" lon="6.96452">
        <ele>1556</ele>
        <time>2022-08-27T07:26:41Z</time>
      </trkpt>
      <trkpt lat="45.7944" lon="6.96452">
        <ele>1556</ele>
        <time>2022-08-27T07:26:43Z</time>
      </trkpt>
      <trkpt lat="45.7944" lon="6.96453">
        <ele>1556</ele>
        <time>2022-08-27T07:26:44Z</time>
      </trkpt>
      <trkpt lat="45.79439" lon="6.96453">
        <ele>1556</ele>
        <time>2022-08-27T07:26:45Z</time>
      </trkpt>
      <trkpt lat="45.79439" lon="6.96454">
        <ele>1556</ele>
        <time>2022-08-27T07:26:47Z</time>
      </trkpt>
      <trkpt lat="45.79439" lon="6.96454">
        <ele>1556</ele>
        <time>2022-08-27T07:26:48Z</time>
      </trkpt>
      <trkpt lat="45.79439" lon="6.96455">
        <ele>1556</ele>
        <time>2022-08-27T07:26:49Z</time>
      </trkpt>
      <trkpt lat="45.79439" lon="6.96455">
        <ele>1556</ele>
        <time>2022-08-27T07:26:50Z</time>
      </trkpt>
      <trkpt lat="45.79438" lon="6.96456">
        <ele>1556</ele>
        <time>2022-08-27T07:26:51Z</time>
      </trkpt>
      <trkpt lat="45.79438" lon="6.96456">
        <ele>1556</ele>
        <time>2022-08-27T07:26:52Z</time>
      </trkpt>
      <trkpt lat="45.79438" lon="6.96457">
        <ele>1556</ele>
        <time>2022-08-27T07:26:53Z</time>
      </trkpt>
      <trkpt lat="45.79438" lon="6.96457">
        <ele>1556</ele>
        <time>2022-08-27T07:26:54Z</time>
      </trkpt>
      <trkpt lat="45.79438" lon="6.96458">
        <ele>1556</ele>
        <time>2022-08-27T07:26:55Z</time>
      </trkpt>
      <trkpt lat="45.79439" lon="6.9646">
        <ele>1556</ele>
        <time>2022-08-27T07:26:56Z</time>
      </trkpt>
      <trkpt lat="45.7944" lon="6.96463">
        <ele>1556</ele>
        <time>2022-08-27T07:26:57Z</time>
      </trkpt>
      <trkpt lat="45.79441" lon="6.96466">
        <ele>1556</ele>
        <time>2022-08-27T07:26:58Z</time>
      </trkpt>
      <trkpt lat="45.79442" lon="6.96468">
        <ele>1555</ele>
        <time>2022-08-27T07:27:00Z</time>
      </trkpt>
      <trkpt lat="45.79443" lon="6.96471">
        <ele>1555</ele>
        <time>2022-08-27T07:27:01Z</time>
      </trkpt>
      <trkpt lat="45.79445" lon="6.96471">
        <ele>1555</ele>
        <time>2022-08-27T07:27:02Z</time>
      </trkpt>
      <trkpt lat="45.79447" lon="6.9647">
        <ele>1556</ele>
        <time>2022-08-27T07:27:03Z</time>
      </trkpt>
      <trkpt lat="45.79449" lon="6.9647">
        <ele>1556</ele>
        <time>2022-08-27T07:27:04Z</time>
      </trkpt>
      <trkpt lat="45.79451" lon="6.9647">
        <ele>1556</ele>
        <time>2022-08-27T07:27:06Z</time>
      </trkpt>
      <trkpt lat="45.79454" lon="6.96469">
        <ele>1556</ele>
        <time>2022-08-27T07:27:07Z</time>
      </trkpt>
      <trkpt lat="45.79456" lon="6.96469">
        <ele>1556</ele>
        <time>2022-08-27T07:27:08Z</time>
      </trkpt>
      <trkpt lat="45.79458" lon="6.96464">
        <ele>1556</ele>
        <time>2022-08-27T07:27:09Z</time>
      </trkpt>
      <trkpt lat="45.7946" lon="6.96462">
        <ele>1556</ele>
        <time>2022-08-27T07:27:10Z</time>
      </trkpt>
      <trkpt lat="45.79462" lon="6.96459">
        <ele>1556</ele>
        <time>2022-08-27T07:27:11Z</time>
      </trkpt>
      <trkpt lat="45.79464" lon="6.96457">
        <ele>1556</ele>
        <time>2022-08-27T07:27:12Z</time>
      </trkpt>
      <trkpt lat="45.79466" lon="6.96455">
        <ele>1556</ele>
        <time>2022-08-27T07:27:13Z</time>
      </trkpt>
      <trkpt lat="45.79465" lon="6.96453">
        <ele>1556</ele>
        <time>2022-08-27T07:27:14Z</time>
      </trkpt>
      <trkpt lat="45.79465" lon="6.96451">
        <ele>1556</ele>
        <time>2022-08-27T07:27:15Z</time>
      </trkpt>
      <trkpt lat="45.79464" lon="6.96448">
        <ele>1555</ele>
        <time>2022-08-27T07:27:17Z</time>
      </trkpt>
      <trkpt lat="45.79463" lon="6.96446">
        <ele>1555</ele>
        <time>2022-08-27T07:27:18Z</time>
      </trkpt>
      <trkpt lat="45.79462" lon="6.96444">
        <ele>1555</ele>
        <time>2022-08-27T07:27:19Z</time>
      </trkpt>
      <trkpt lat="45.79462" lon="6.96445">
        <ele>1555</ele>
        <time>2022-08-27T07:27:20Z</time>
      </trkpt>
      <trkpt lat="45.79462" lon="6.96447">
        <ele>1555</ele>
        <time>2022-08-27T07:27:21Z</time>
      </trkpt>
      <trkpt lat="45.79462" lon="6.96448">
        <ele>1555</ele>
        <time>2022-08-27T07:27:23Z</time>
      </trkpt>
      <trkpt lat="45.79463" lon="6.96449">
        <ele>1555</ele>
        <time>2022-08-27T07:27:24Z</time>
      </trkpt>
      <trkpt lat="45.79463" lon="6.96451">
        <ele>1555</ele>
        <time>2022-08-27T07:27:25Z</time>
      </trkpt>
      <trkpt lat="45.79463" lon="6.96452">
        <ele>1555</ele>
        <time>2022-08-27T07:27:26Z</time>
      </trkpt>
      <trkpt lat="45.79463" lon="6.96453">
        <ele>1555</ele>
        <time>2022-08-27T07:27:28Z</time>
      </trkpt>
      <trkpt lat="45.79463" lon="6.96455">
        <ele>1555</ele>
        <time>2022-08-27T07:27:29Z</time>
      </trkpt>
      <trkpt lat="45.79463" lon="6.96456">
        <ele>1555</ele>
        <time>2022-08-27T07:27:30Z</time>
      </trkpt>
      <trkpt lat="45.79463" lon="6.96457">
        <ele>1555</ele>
        <time>2022-08-27T07:27:31Z</time>
      </trkpt>
      <trkpt lat="45.79464" lon="6.96459">
        <ele>1556</ele>
        <time>2022-08-27T07:27:32Z</time>
      </trkpt>
      <trkpt lat="45.79465" lon="6.96461">
        <ele>1556</ele>
        <time>2022-08-27T07:27:34Z</time>
      </trkpt>
      <trkpt lat="45.79466" lon="6.96463">
        <ele>1556</ele>
        <time>2022-08-27T07:27:35Z</time>
      </trkpt>
      <trkpt lat="45.79467" lon="6.96466">
        <ele>1556</ele>
        <time>2022-08-27T07:27:37Z</time>
      </trkpt>
      <trkpt lat="45.79468" lon="6.96468">
        <ele>1556</ele>
        <time>2022-08-27T07:27:38Z</time>
      </trkpt>
      <trkpt lat="45.79469" lon="6.9647">
        <ele>1556</ele>
        <time>2022-08-27T07:27:39Z</time>
      </trkpt>
      <trkpt lat="45.79469" lon="6.96471">
        <ele>1556</ele>
        <time>2022-08-27T07:27:40Z</time>
      </trkpt>
      <trkpt lat="45.79469" lon="6.96472">
        <ele>1556</ele>
        <time>2022-08-27T07:27:42Z</time>
      </trkpt>
      <trkpt lat="45.79469" lon="6.96472">
        <ele>1556</ele>
        <time>2022-08-27T07:27:43Z</time>
      </trkpt>
      <trkpt lat="45.79469" lon="6.96473">
        <ele>1556</ele>
        <time>2022-08-27T07:27:44Z</time>
      </trkpt>
      <trkpt lat="45.79468" lon="6.96474">
        <ele>1556</ele>
        <time>2022-08-27T07:27:45Z</time>
      </trkpt>
      <trkpt lat="45.79468" lon="6.96474">
        <ele>1556</ele>
        <time>2022-08-27T07:27:47Z</time>
      </trkpt>
      <trkpt lat="45.79468" lon="6.96475">
        <ele>1556</ele>
        <time>2022-08-27T07:27:48Z</time>
      </trkpt>
      <trkpt lat="45.79468" lon="6.96476">
        <ele>1556</ele>
        <time>2022-08-27T07:27:49Z</time>
      </trkpt>
      <trkpt lat="45.79468" lon="6.96476">
        <ele>1556</ele>
        <time>2022-08-27T07:27:50Z</time>
      </trkpt>
      <trkpt lat="45.79467" lon="6.96477">
        <ele>1555</ele>
        <time>2022-08-27T07:27:51Z</time>
      </trkpt>
      <trkpt lat="45.79465" lon="6.96484">
        <ele>1555</ele>
        <time>2022-08-27T07:27:52Z</time>
      </trkpt>
      <trkpt lat="45.79456" lon="6.96486">
        <ele>1556</ele>
        <time>2022-08-27T07:27:57Z</time>
      </trkpt>
      <trkpt lat="45.79456" lon="6.96485">
        <ele>1556</ele>
        <time>2022-08-27T07:27:58Z</time>
      </trkpt>
      <trkpt lat="45.79456" lon="6.96484">
        <ele>1556</ele>
        <time>2022-08-27T07:27:59Z</time>
      </trkpt>
      <trkpt lat="45.79456" lon="6.96483">
        <ele>1556</ele>
        <time>2022-08-27T07:28:00Z</time>
      </trkpt>
      <trkpt lat="45.79456" lon="6.96482">
        <ele>1556</ele>
        <time>2022-08-27T07:28:02Z</time>
      </trkpt>
      <trkpt lat="45.79456" lon="6.96481">
        <ele>1556</ele>
        <time>2022-08-27T07:28:03Z</time>
      </trkpt>
      <trkpt lat="45.79457" lon="6.9647">
        <ele>1556</ele>
        <time>2022-08-27T07:28:05Z</time>
      </trkpt>
      <trkpt lat="45.79457" lon="6.9647">
        <ele>1556</ele>
        <time>2022-08-27T07:28:06Z</time>
      </trkpt>
      <trkpt lat="45.79457" lon="6.96469">
        <ele>1556</ele>
        <time>2022-08-27T07:28:07Z</time>
      </trkpt>
      <trkpt lat="45.79458" lon="6.96469">
        <ele>1556</ele>
        <time>2022-08-27T07:28:08Z</time>
      </trkpt>
      <trkpt lat="45.79458" lon="6.96468">
        <ele>1556</ele>
        <time>2022-08-27T07:28:09Z</time>
      </trkpt>
      <trkpt lat="45.79458" lon="6.96468">
        <ele>1556</ele>
        <time>2022-08-27T07:28:10Z</time>
      </trkpt>
      <trkpt lat="45.79458" lon="6.96467">
        <ele>1556</ele>
        <time>2022-08-27T07:28:11Z</time>
      </trkpt>
      <trkpt lat="45.79459" lon="6.96467">
        <ele>1556</ele>
        <time>2022-08-27T07:28:12Z</time>
      </trkpt>
      <trkpt lat="45.79459" lon="6.96466">
        <ele>1556</ele>
        <time>2022-08-27T07:28:13Z</time>
      </trkpt>
      <trkpt lat="45.79459" lon="6.96466">
        <ele>1555</ele>
        <time>2022-08-27T07:28:14Z</time>
      </trkpt>
      <trkpt lat="45.79459" lon="6.96466">
        <ele>1555</ele>
        <time>2022-08-27T07:28:16Z</time>
      </trkpt>
      <trkpt lat="45.7946" lon="6.96465">
        <ele>1555</ele>
        <time>2022-08-27T07:28:17Z</time>
      </trkpt>
      <trkpt lat="45.7946" lon="6.96465">
        <ele>1556</ele>
        <time>2022-08-27T07:28:18Z</time>
      </trkpt>
      <trkpt lat="45.7946" lon="6.96464">
        <ele>1556</ele>
        <time>2022-08-27T07:28:19Z</time>
      </trkpt>
      <trkpt lat="45.7946" lon="6.96464">
        <ele>1556</ele>
        <time>2022-08-27T07:28:20Z</time>
      </trkpt>
      <trkpt lat="45.79461" lon="6.96463">
        <ele>1555</ele>
        <time>2022-08-27T07:28:21Z</time>
      </trkpt>
      <trkpt lat="45.79461" lon="6.96463">
        <ele>1555</ele>
        <time>2022-08-27T07:28:22Z</time>
      </trkpt>
      <trkpt lat="45.79461" lon="6.96462">
        <ele>1555</ele>
        <time>2022-08-27T07:28:23Z</time>
      </trkpt>
      <trkpt lat="45.79461" lon="6.96462">
        <ele>1555</ele>
        <time>2022-08-27T07:28:24Z</time>
      </trkpt>
      <trkpt lat="45.79461" lon="6.96462">
        <ele>1555</ele>
        <time>2022-08-27T07:28:25Z</time>
      </trkpt>
      <trkpt lat="45.79462" lon="6.96461">
        <ele>1555</ele>
        <time>2022-08-27T07:28:26Z</time>
      </trkpt>
      <trkpt lat="45.79462" lon="6.96461">
        <ele>1555</ele>
        <time>2022-08-27T07:28:27Z</time>
      </trkpt>
      <trkpt lat="45.79462" lon="6.9646">
        <ele>1555</ele>
        <time>2022-08-27T07:28:28Z</time>
      </trkpt>
      <trkpt lat="45.79462" lon="6.9646">
        <ele>1555</ele>
        <time>2022-08-27T07:28:29Z</time>
      </trkpt>
      <trkpt lat="45.79463" lon="6.96459">
        <ele>1555</ele>
        <time>2022-08-27T07:28:30Z</time>
      </trkpt>
      <trkpt lat="45.79463" lon="6.96459">
        <ele>1555</ele>
        <time>2022-08-27T07:28:31Z</time>
      </trkpt>
      <trkpt lat="45.79463" lon="6.96458">
        <ele>1555</ele>
        <time>2022-08-27T07:28:32Z</time>
      </trkpt>
      <trkpt lat="45.79463" lon="6.96458">
        <ele>1555</ele>
        <time>2022-08-27T07:28:33Z</time>
      </trkpt>
      <trkpt lat="45.79464" lon="6.96457">
        <ele>1555</ele>
        <time>2022-08-27T07:28:35Z</time>
      </trkpt>
      <trkpt lat="45.79464" lon="6.96457">
        <ele>1555</ele>
        <time>2022-08-27T07:28:36Z</time>
      </trkpt>
      <trkpt lat="45.79464" lon="6.96457">
        <ele>1555</ele>
        <time>2022-08-27T07:28:37Z</time>
      </trkpt>
      <trkpt lat="45.79464" lon="6.96456">
        <ele>1555</ele>
        <time>2022-08-27T07:28:38Z</time>
      </trkpt>
      <trkpt lat="45.79465" lon="6.96456">
        <ele>1555</ele>
        <time>2022-08-27T07:28:40Z</time>
      </trkpt>
      <trkpt lat="45.79465" lon="6.96455">
        <ele>1555</ele>
        <time>2022-08-27T07:28:41Z</time>
      </trkpt>
      <trkpt lat="45.79465" lon="6.96455">
        <ele>1555</ele>
        <time>2022-08-27T07:28:42Z</time>
      </trkpt>
      <trkpt lat="45.79466" lon="6.96456">
        <ele>1555</ele>
        <time>2022-08-27T07:28:43Z</time>
      </trkpt>
      <trkpt lat="45.79467" lon="6.96457">
        <ele>1555</ele>
        <time>2022-08-27T07:28:44Z</time>
      </trkpt>
      <trkpt lat="45.79469" lon="6.96457">
        <ele>1556</ele>
        <time>2022-08-27T07:28:45Z</time>
      </trkpt>
      <trkpt lat="45.7947" lon="6.96458">
        <ele>1556</ele>
        <time>2022-08-27T07:28:46Z</time>
      </trkpt>
      <trkpt lat="45.79471" lon="6.96459">
        <ele>1556</ele>
        <time>2022-08-27T07:28:47Z</time>
      </trkpt>
      <trkpt lat="45.79472" lon="6.9646">
        <ele>1556</ele>
        <time>2022-08-27T07:28:49Z</time>
      </trkpt>
      <trkpt lat="45.79473" lon="6.96461">
        <ele>1556</ele>
        <time>2022-08-27T07:28:50Z</time>
      </trkpt>
      <trkpt lat="45.79473" lon="6.96462">
        <ele>1556</ele>
        <time>2022-08-27T07:28:51Z</time>
      </trkpt>
      <trkpt lat="45.79472" lon="6.96463">
        <ele>1556</ele>
        <time>2022-08-27T07:28:52Z</time>
      </trkpt>
      <trkpt lat="45.79472" lon="6.96464">
        <ele>1556</ele>
        <time>2022-08-27T07:28:54Z</time>
      </trkpt>
      <trkpt lat="45.79471" lon="6.96465">
        <ele>1555</ele>
        <time>2022-08-27T07:28:55Z</time>
      </trkpt>
      <trkpt lat="45.7947" lon="6.96466">
        <ele>1554</ele>
        <time>2022-08-27T07:28:56Z</time>
      </trkpt>
      <trkpt lat="45.7947" lon="6.96467">
        <ele>1555</ele>
        <time>2022-08-27T07:28:58Z</time>
      </trkpt>
      <trkpt lat="45.79469" lon="6.96468">
        <ele>1555</ele>
        <time>2022-08-27T07:28:59Z</time>
      </trkpt>
      <trkpt lat="45.79468" lon="6.96469">
        <ele>1555</ele>
        <time>2022-08-27T07:29:00Z</time>
      </trkpt>
      <trkpt lat="45.79468" lon="6.9647">
        <ele>1555</ele>
        <time>2022-08-27T07:29:01Z</time>
      </trkpt>
      <trkpt lat="45.79467" lon="6.96471">
        <ele>1555</ele>
        <time>2022-08-27T07:29:02Z</time>
      </trkpt>
      <trkpt lat="45.79466" lon="6.96472">
        <ele>1555</ele>
        <time>2022-08-27T07:29:04Z</time>
      </trkpt>
      <trkpt lat="45.79466" lon="6.96473">
        <ele>1555</ele>
        <time>2022-08-27T07:29:05Z</time>
      </trkpt>
      <trkpt lat="45.79465" lon="6.96474">
        <ele>1555</ele>
        <time>2022-08-27T07:29:06Z</time>
      </trkpt>
      <trkpt lat="45.79465" lon="6.96475">
        <ele>1555</ele>
        <time>2022-08-27T07:29:07Z</time>
      </trkpt>
      <trkpt lat="45.79464" lon="6.96476">
        <ele>1555</ele>
        <time>2022-08-27T07:29:08Z</time>
      </trkpt>
      <trkpt lat="45.79463" lon="6.96477">
        <ele>1555</ele>
        <time>2022-08-27T07:29:09Z</time>
      </trkpt>
      <trkpt lat="45.79463" lon="6.96478">
        <ele>1556</ele>
        <time>2022-08-27T07:29:10Z</time>
      </trkpt>
      <trkpt lat="45.79462" lon="6.96479">
        <ele>1556</ele>
        <time>2022-08-27T07:29:11Z</time>
      </trkpt>
      <trkpt lat="45.79461" lon="6.9648">
        <ele>1556</ele>
        <time>2022-08-27T07:29:12Z</time>
      </trkpt>
      <trkpt lat="45.79461" lon="6.96481">
        <ele>1556</ele>
        <time>2022-08-27T07:29:13Z</time>
      </trkpt>
      <trkpt lat="45.79461" lon="6.96481">
        <ele>1555</ele>
        <time>2022-08-27T07:29:32Z</time>
      </trkpt>
      <trkpt lat="45.79461" lon="6.96481">
        <ele>1556</ele>
        <time>2022-08-27T07:29:48Z</time>
      </trkpt>
      <trkpt lat="45.79461" lon="6.96481">
        <ele>1556</ele>
        <time>2022-08-27T07:30:06Z</time>
      </trkpt>
      <trkpt lat="45.79461" lon="6.96481">
        <ele>1555</ele>
        <time>2022-08-27T07:30:23Z</time>
      </trkpt>
      <trkpt lat="45.79461" lon="6.96481">
        <ele>1555</ele>
        <time>2022-08-27T07:30:40Z</time>
      </trkpt>
      <trkpt lat="45.79461" lon="6.96481">
        <ele>1555</ele>
        <time>2022-08-27T07:30:58Z</time>
      </trkpt>
      <trkpt lat="45.79461" lon="6.96481">
        <ele>1556</ele>
        <time>2022-08-27T07:31:16Z</time>
      </trkpt>
      <trkpt lat="45.79461" lon="6.96481">
        <ele>1555</ele>
        <time>2022-08-27T07:31:35Z</time>
      </trkpt>
      <trkpt lat="45.79461" lon="6.96481">
        <ele>1556</ele>
        <time>2022-08-27T07:31:55Z</time>
      </trkpt>
      <trkpt lat="45.79463" lon="6.96479">
        <ele>1556</ele>
        <time>2022-08-27T07:32:06Z</time>
      </trkpt>
      <trkpt lat="45.79466" lon="6.96477">
        <ele>1555</ele>
        <time>2022-08-27T07:32:08Z</time>
      </trkpt>
      <trkpt lat="45.79469" lon="6.96475">
        <ele>1555</ele>
        <time>2022-08-27T07:32:09Z</time>
      </trkpt>
      <trkpt lat="45.79471" lon="6.96473">
        <ele>1556</ele>
        <time>2022-08-27T07:32:10Z</time>
      </trkpt>
      <trkpt lat="45.79474" lon="6.96471">
        <ele>1556</ele>
        <time>2022-08-27T07:32:11Z</time>
      </trkpt>
      <trkpt lat="45.79476" lon="6.96469">
        <ele>1556</ele>
        <time>2022-08-27T07:32:12Z</time>
      </trkpt>
      <trkpt lat="45.79479" lon="6.96467">
        <ele>1556</ele>
        <time>2022-08-27T07:32:14Z</time>
      </trkpt>
      <trkpt lat="45.79482" lon="6.96465">
        <ele>1556</ele>
        <time>2022-08-27T07:32:15Z</time>
      </trkpt>
      <trkpt lat="45.79484" lon="6.96463">
        <ele>1556</ele>
        <time>2022-08-27T07:32:16Z</time>
      </trkpt>
      <trkpt lat="45.79487" lon="6.9646">
        <ele>1556</ele>
        <time>2022-08-27T07:32:17Z</time>
      </trkpt>
      <trkpt lat="45.79489" lon="6.96458">
        <ele>1556</ele>
        <time>2022-08-27T07:32:18Z</time>
      </trkpt>
      <trkpt lat="45.79492" lon="6.96456">
        <ele>1556</ele>
        <time>2022-08-27T07:32:19Z</time>
      </trkpt>
      <trkpt lat="45.79495" lon="6.96454">
        <ele>1556</ele>
        <time>2022-08-27T07:32:20Z</time>
      </trkpt>
      <trkpt lat="45.79497" lon="6.96452">
        <ele>1556</ele>
        <time>2022-08-27T07:32:21Z</time>
      </trkpt>
      <trkpt lat="45.795" lon="6.9645">
        <ele>1556</ele>
        <time>2022-08-27T07:32:23Z</time>
      </trkpt>
      <trkpt lat="45.79502" lon="6.96448">
        <ele>1556</ele>
        <time>2022-08-27T07:32:24Z</time>
      </trkpt>
      <trkpt lat="45.79505" lon="6.96446">
        <ele>1556</ele>
        <time>2022-08-27T07:32:25Z</time>
      </trkpt>
      <trkpt lat="45.79508" lon="6.96444">
        <ele>1556</ele>
        <time>2022-08-27T07:32:26Z</time>
      </trkpt>
      <trkpt lat="45.79499" lon="6.96447">
        <ele>1556</ele>
        <time>2022-08-27T07:32:27Z</time>
      </trkpt>
      <trkpt lat="45.79498" lon="6.96447">
        <ele>1556</ele>
        <time>2022-08-27T07:32:28Z</time>
      </trkpt>
      <trkpt lat="45.79498" lon="6.96448">
        <ele>1556</ele>
        <time>2022-08-27T07:32:29Z</time>
      </trkpt>
      <trkpt lat="45.79497" lon="6.96448">
        <ele>1556</ele>
        <time>2022-08-27T07:32:30Z</time>
      </trkpt>
      <trkpt lat="45.79496" lon="6.96448">
        <ele>1556</ele>
        <time>2022-08-27T07:32:31Z</time>
      </trkpt>
      <trkpt lat="45.79496" lon="6.96449">
        <ele>1556</ele>
        <time>2022-08-27T07:32:32Z</time>
      </trkpt>
      <trkpt lat="45.79495" lon="6.96449">
        <ele>1555</ele>
        <time>2022-08-27T07:32:34Z</time>
      </trkpt>
      <trkpt lat="45.79494" lon="6.96449">
        <ele>1556</ele>
        <time>2022-08-27T07:32:35Z</time>
      </trkpt>
      <trkpt lat="45.79494" lon="6.9645">
        <ele>1556</ele>
        <time>2022-08-27T07:32:36Z</time>
      </trkpt>
      <trkpt lat="45.79493" lon="6.9645">
        <ele>1556</ele>
        <time>2022-08-27T07:32:37Z</time>
      </trkpt>
      <trkpt lat="45.79492" lon="6.9645">
        <ele>1556</ele>
        <time>2022-08-27T07:32:38Z</time>
      </trkpt>
      <trkpt lat="45.79491" lon="6.96451">
        <ele>1556</ele>
        <time>2022-08-27T07:32:39Z</time>
      </trkpt>
      <trkpt lat="45.79491" lon="6.96451">
        <ele>1556</ele>
        <time>2022-08-27T07:32:40Z</time>
      </trkpt>
      <trkpt lat="45.7949" lon="6.96451">
        <ele>1556</ele>
        <time>2022-08-27T07:32:42Z</time>
      </trkpt>
      <trkpt lat="45.79489" lon="6.96452">
        <ele>1556</ele>
        <time>2022-08-27T07:32:43Z</time>
      </trkpt>
      <trkpt lat="45.79489" lon="6.96452">
        <ele>1556</ele>
        <time>2022-08-27T07:32:44Z</time>
      </trkpt>
      <trkpt lat="45.79488" lon="6.96453">
        <ele>1556</ele>
        <time>2022-08-27T07:32:45Z</time>
      </trkpt>
      <trkpt lat="45.79487" lon="6.96453">
        <ele>1555</ele>
        <time>2022-08-27T07:32:46Z</time>
      </trkpt>
      <trkpt lat="45.79487" lon="6.96453">
        <ele>1555</ele>
        <time>2022-08-27T07:32:47Z</time>
      </trkpt>
      <trkpt lat="45.79486" lon="6.96454">
        <ele>1556</ele>
        <time>2022-08-27T07:32:48Z</time>
      </trkpt>
      <trkpt lat="45.79485" lon="6.96454">
        <ele>1556</ele>
        <time>2022-08-27T07:32:49Z</time>
      </trkpt>
      <trkpt lat="45.79485" lon="6.96454">
        <ele>1556</ele>
        <time>2022-08-27T07:32:51Z</time>
      </trkpt>
      <trkpt lat="45.79484" lon="6.96455">
        <ele>1556</ele>
        <time>2022-08-27T07:32:52Z</time>
      </trkpt>
      <trkpt lat="45.79483" lon="6.96455">
        <ele>1556</ele>
        <time>2022-08-27T07:32:53Z</time>
      </trkpt>
      <trkpt lat="45.79482" lon="6.96455">
        <ele>1555</ele>
        <time>2022-08-27T07:32:54Z</time>
      </trkpt>
      <trkpt lat="45.79482" lon="6.96456">
        <ele>1555</ele>
        <time>2022-08-27T07:32:55Z</time>
      </trkpt>
      <trkpt lat="45.79481" lon="6.96456">
        <ele>1555</ele>
        <time>2022-08-27T07:32:56Z</time>
      </trkpt>
      <trkpt lat="45.7948" lon="6.96456">
        <ele>1555</ele>
        <time>2022-08-27T07:32:57Z</time>
      </trkpt>
      <trkpt lat="45.7948" lon="6.96457">
        <ele>1555</ele>
        <time>2022-08-27T07:32:58Z</time>
      </trkpt>
      <trkpt lat="45.79479" lon="6.96457">
        <ele>1556</ele>
        <time>2022-08-27T07:32:59Z</time>
      </trkpt>
      <trkpt lat="45.79478" lon="6.96457">
        <ele>1556</ele>
        <time>2022-08-27T07:33:01Z</time>
      </trkpt>
      <trkpt lat="45.79478" lon="6.96458">
        <ele>1555</ele>
        <time>2022-08-27T07:33:02Z</time>
      </trkpt>
      <trkpt lat="45.79477" lon="6.96458">
        <ele>1554</ele>
        <time>2022-08-27T07:33:03Z</time>
      </trkpt>
      <trkpt lat="45.79476" lon="6.96458">
        <ele>1554</ele>
        <time>2022-08-27T07:33:04Z</time>
      </trkpt>
      <trkpt lat="45.79476" lon="6.96459">
        <ele>1554</ele>
        <time>2022-08-27T07:33:05Z</time>
      </trkpt>
      <trkpt lat="45.79475" lon="6.96459">
        <ele>1555</ele>
        <time>2022-08-27T07:33:06Z</time>
      </trkpt>
      <trkpt lat="45.79474" lon="6.96459">
        <ele>1555</ele>
        <time>2022-08-27T07:33:07Z</time>
      </trkpt>
      <trkpt lat="45.79473" lon="6.9646">
        <ele>1555</ele>
        <time>2022-08-27T07:33:08Z</time>
      </trkpt>
      <trkpt lat="45.79473" lon="6.9646">
        <ele>1555</ele>
        <time>2022-08-27T07:33:09Z</time>
      </trkpt>
      <trkpt lat="45.79472" lon="6.9646">
        <ele>1555</ele>
        <time>2022-08-27T07:33:10Z</time>
      </trkpt>
      <trkpt lat="45.79471" lon="6.96461">
        <ele>1555</ele>
        <time>2022-08-27T07:33:11Z</time>
      </trkpt>
      <trkpt lat="45.79471" lon="6.96461">
        <ele>1555</ele>
        <time>2022-08-27T07:33:12Z</time>
      </trkpt>
      <trkpt lat="45.7947" lon="6.96461">
        <ele>1555</ele>
        <time>2022-08-27T07:33:13Z</time>
      </trkpt>
      <trkpt lat="45.79469" lon="6.96462">
        <ele>1555</ele>
        <time>2022-08-27T07:33:14Z</time>
      </trkpt>
      <trkpt lat="45.79469" lon="6.96462">
        <ele>1556</ele>
        <time>2022-08-27T07:33:15Z</time>
      </trkpt>
      <trkpt lat="45.79468" lon="6.96462">
        <ele>1556</ele>
        <time>2022-08-27T07:33:16Z</time>
      </trkpt>
      <trkpt lat="45.79467" lon="6.96463">
        <ele>1556</ele>
        <time>2022-08-27T07:33:17Z</time>
      </trkpt>
      <trkpt lat="45.79468" lon="6.96464">
        <ele>1556</ele>
        <time>2022-08-27T07:33:18Z</time>
      </trkpt>
      <trkpt lat="45.79468" lon="6.96466">
        <ele>1556</ele>
        <time>2022-08-27T07:33:20Z</time>
      </trkpt>
      <trkpt lat="45.79468" lon="6.96468">
        <ele>1556</ele>
        <time>2022-08-27T07:33:21Z</time>
      </trkpt>
      <trkpt lat="45.79469" lon="6.96469">
        <ele>1556</ele>
        <time>2022-08-27T07:33:22Z</time>
      </trkpt>
      <trkpt lat="45.79469" lon="6.96471">
        <ele>1556</ele>
        <time>2022-08-27T07:33:23Z</time>
      </trkpt>
      <trkpt lat="45.7947" lon="6.96473">
        <ele>1556</ele>
        <time>2022-08-27T07:33:24Z</time>
      </trkpt>
      <trkpt lat="45.7947" lon="6.96474">
        <ele>1556</ele>
        <time>2022-08-27T07:33:25Z</time>
      </trkpt>
      <trkpt lat="45.7947" lon="6.96476">
        <ele>1556</ele>
        <time>2022-08-27T07:33:26Z</time>
      </trkpt>
      <trkpt lat="45.79471" lon="6.96475">
        <ele>1556</ele>
        <time>2022-08-27T07:33:27Z</time>
      </trkpt>
      <trkpt lat="45.79472" lon="6.96475">
        <ele>1556</ele>
        <time>2022-08-27T07:33:28Z</time>
      </trkpt>
      <trkpt lat="45.79472" lon="6.96475">
        <ele>1556</ele>
        <time>2022-08-27T07:33:29Z</time>
      </trkpt>
      <trkpt lat="45.79473" lon="6.96474">
        <ele>1555</ele>
        <time>2022-08-27T07:33:30Z</time>
      </trkpt>
      <trkpt lat="45.79473" lon="6.96474">
        <ele>1555</ele>
        <time>2022-08-27T07:33:31Z</time>
      </trkpt>
      <trkpt lat="45.79474" lon="6.96473">
        <ele>1555</ele>
        <time>2022-08-27T07:33:32Z</time>
      </trkpt>
      <trkpt lat="45.79474" lon="6.96473">
        <ele>1555</ele>
        <time>2022-08-27T07:33:33Z</time>
      </trkpt>
      <trkpt lat="45.79475" lon="6.96473">
        <ele>1555</ele>
        <time>2022-08-27T07:33:34Z</time>
      </trkpt>
      <trkpt lat="45.79475" lon="6.96472">
        <ele>1555</ele>
        <time>2022-08-27T07:33:35Z</time>
      </trkpt>
      <trkpt lat="45.79476" lon="6.96472">
        <ele>1555</ele>
        <time>2022-08-27T07:33:36Z</time>
      </trkpt>
      <trkpt lat="45.79477" lon="6.96471">
        <ele>1555</ele>
        <time>2022-08-27T07:33:37Z</time>
      </trkpt>
      <trkpt lat="45.79477" lon="6.96471">
        <ele>1555</ele>
        <time>2022-08-27T07:33:39Z</time>
      </trkpt>
      <trkpt lat="45.79478" lon="6.9647">
        <ele>1555</ele>
        <time>2022-08-27T07:33:40Z</time>
      </trkpt>
      <trkpt lat="45.79478" lon="6.9647">
        <ele>1555</ele>
        <time>2022-08-27T07:33:42Z</time>
      </trkpt>
      <trkpt lat="45.79479" lon="6.9647">
        <ele>1555</ele>
        <time>2022-08-27T07:33:44Z</time>
      </trkpt>
      <trkpt lat="45.79479" lon="6.96469">
        <ele>1555</ele>
        <time>2022-08-27T07:33:45Z</time>
      </trkpt>
      <trkpt lat="45.7948" lon="6.96469">
        <ele>1555</ele>
        <time>2022-08-27T07:33:46Z</time>
      </trkpt>
      <trkpt lat="45.7948" lon="6.96468">
        <ele>1555</ele>
        <time>2022-08-27T07:33:47Z</time>
      </trkpt>
      <trkpt lat="45.79481" lon="6.96468">
        <ele>1555</ele>
        <time>2022-08-27T07:33:48Z</time>
      </trkpt>
      <trkpt lat="45.79481" lon="6.96467">
        <ele>1555</ele>
        <time>2022-08-27T07:33:50Z</time>
      </trkpt>
      <trkpt lat="45.79482" lon="6.96467">
        <ele>1555</ele>
        <time>2022-08-27T07:33:51Z</time>
      </trkpt>
      <trkpt lat="45.79483" lon="6.96467">
        <ele>1555</ele>
        <time>2022-08-27T07:33:52Z</time>
      </trkpt>
      <trkpt lat="45.79483" lon="6.96466">
        <ele>1555</ele>
        <time>2022-08-27T07:33:54Z</time>
      </trkpt>
      <trkpt lat="45.79484" lon="6.96466">
        <ele>1555</ele>
        <time>2022-08-27T07:33:55Z</time>
      </trkpt>
      <trkpt lat="45.79484" lon="6.96465">
        <ele>1555</ele>
        <time>2022-08-27T07:33:56Z</time>
      </trkpt>
      <trkpt lat="45.79485" lon="6.96465">
        <ele>1555</ele>
        <time>2022-08-27T07:33:58Z</time>
      </trkpt>
      <trkpt lat="45.79485" lon="6.96464">
        <ele>1555</ele>
        <time>2022-08-27T07:33:59Z</time>
      </trkpt>
      <trkpt lat="45.79486" lon="6.96464">
        <ele>1554</ele>
        <time>2022-08-27T07:34:00Z</time>
      </trkpt>
      <trkpt lat="45.79486" lon="6.96464">
        <ele>1554</ele>
        <time>2022-08-27T07:34:01Z</time>
      </trkpt>
      <trkpt lat="45.79487" lon="6.96463">
        <ele>1554</ele>
        <time>2022-08-27T07:34:02Z</time>
      </trkpt>
      <trkpt lat="45.79488" lon="6.96463">
        <ele>1554</ele>
        <time>2022-08-27T07:34:03Z</time>
      </trkpt>
      <trkpt lat="45.79488" lon="6.96462">
        <ele>1555</ele>
        <time>2022-08-27T07:34:04Z</time>
      </trkpt>
      <trkpt lat="45.79489" lon="6.96462">
        <ele>1555</ele>
        <time>2022-08-27T07:34:06Z</time>
      </trkpt>
      <trkpt lat="45.79489" lon="6.96461">
        <ele>1555</ele>
        <time>2022-08-27T07:34:07Z</time>
      </trkpt>
      <trkpt lat="45.7949" lon="6.96461">
        <ele>1555</ele>
        <time>2022-08-27T07:34:08Z</time>
      </trkpt>
      <trkpt lat="45.7949" lon="6.96461">
        <ele>1555</ele>
        <time>2022-08-27T07:34:09Z</time>
      </trkpt>
      <trkpt lat="45.79491" lon="6.9646">
        <ele>1555</ele>
        <time>2022-08-27T07:34:10Z</time>
      </trkpt>
      <trkpt lat="45.79491" lon="6.9646">
        <ele>1555</ele>
        <time>2022-08-27T07:34:11Z</time>
      </trkpt>
      <trkpt lat="45.79492" lon="6.96459">
        <ele>1556</ele>
        <time>2022-08-27T07:34:12Z</time>
      </trkpt>
      <trkpt lat="45.79493" lon="6.96459">
        <ele>1556</ele>
        <time>2022-08-27T07:34:13Z</time>
      </trkpt>
      <trkpt lat="45.79493" lon="6.96459">
        <ele>1556</ele>
        <time>2022-08-27T07:34:14Z</time>
      </trkpt>
      <trkpt lat="45.79494" lon="6.96458">
        <ele>1556</ele>
        <time>2022-08-27T07:34:15Z</time>
      </trkpt>
      <trkpt lat="45.79494" lon="6.96458">
        <ele>1556</ele>
        <time>2022-08-27T07:34:17Z</time>
      </trkpt>
      <trkpt lat="45.79495" lon="6.96457">
        <ele>1556</ele>
        <time>2022-08-27T07:34:18Z</time>
      </trkpt>
      <trkpt lat="45.79495" lon="6.96457">
        <ele>1556</ele>
        <time>2022-08-27T07:34:19Z</time>
      </trkpt>
      <trkpt lat="45.79494" lon="6.96455">
        <ele>1556</ele>
        <time>2022-08-27T07:34:20Z</time>
      </trkpt>
      <trkpt lat="45.79493" lon="6.96453">
        <ele>1556</ele>
        <time>2022-08-27T07:34:21Z</time>
      </trkpt>
      <trkpt lat="45.79491" lon="6.96451">
        <ele>1556</ele>
        <time>2022-08-27T07:34:22Z</time>
      </trkpt>
      <trkpt lat="45.7949" lon="6.96449">
        <ele>1556</ele>
        <time>2022-08-27T07:34:23Z</time>
      </trkpt>
      <trkpt lat="45.79488" lon="6.96447">
        <ele>1556</ele>
        <time>2022-08-27T07:34:24Z</time>
      </trkpt>
      <trkpt lat="45.79488" lon="6.96447">
        <ele>1556</ele>
        <time>2022-08-27T07:34:25Z</time>
      </trkpt>
      <trkpt lat="45.79487" lon="6.96446">
        <ele>1556</ele>
        <time>2022-08-27T07:34:26Z</time>
      </trkpt>
      <trkpt lat="45.79486" lon="6.96446">
        <ele>1555</ele>
        <time>2022-08-27T07:34:27Z</time>
      </trkpt>
      <trkpt lat="45.79485" lon="6.96445">
        <ele>1555</ele>
        <time>2022-08-27T07:34:28Z</time>
      </trkpt>
      <trkpt lat="45.79485" lon="6.96445">
        <ele>1556</ele>
        <time>2022-08-27T07:34:29Z</time>
      </trkpt>
      <trkpt lat="45.79484" lon="6.96445">
        <ele>1556</ele>
        <time>2022-08-27T07:34:30Z</time>
      </trkpt>
      <trkpt lat="45.79483" lon="6.96444">
        <ele>1556</ele>
        <time>2022-08-27T07:34:31Z</time>
      </trkpt>
      <trkpt lat="45.79482" lon="6.96444">
        <ele>1557</ele>
        <time>2022-08-27T07:34:33Z</time>
      </trkpt>
      <trkpt lat="45.79482" lon="6.96443">
        <ele>1557</ele>
        <time>2022-08-27T07:34:34Z</time>
      </trkpt>
      <trkpt lat="45.79481" lon="6.96443">
        <ele>1557</ele>
        <time>2022-08-27T07:34:36Z</time>
      </trkpt>
      <trkpt lat="45.7948" lon="6.96442">
        <ele>1556</ele>
        <time>2022-08-27T07:34:37Z</time>
      </trkpt>
      <trkpt lat="45.79479" lon="6.96442">
        <ele>1556</ele>
        <time>2022-08-27T07:34:38Z</time>
      </trkpt>
      <trkpt lat="45.79479" lon="6.96441">
        <ele>1556</ele>
        <time>2022-08-27T07:34:39Z</time>
      </trkpt>
      <trkpt lat="45.79471" lon="6.96451">
        <ele>1557</ele>
        <time>2022-08-27T07:34:44Z</time>
      </trkpt>
      <trkpt lat="45.79462" lon="6.96457">
        <ele>1556</ele>
        <time>2022-08-27T07:34:49Z</time>
      </trkpt>
      <trkpt lat="45.79462" lon="6.96458">
        <ele>1556</ele>
        <time>2022-08-27T07:34:50Z</time>
      </trkpt>
      <trkpt lat="45.79461" lon="6.96459">
        <ele>1556</ele>
        <time>2022-08-27T07:34:51Z</time>
      </trkpt>
      <trkpt lat="45.79461" lon="6.9646">
        <ele>1556</ele>
        <time>2022-08-27T07:34:52Z</time>
      </trkpt>
      <trkpt lat="45.79461" lon="6.96461">
        <ele>1556</ele>
        <time>2022-08-27T07:34:53Z</time>
      </trkpt>
      <trkpt lat="45.7946" lon="6.96462">
        <ele>1556</ele>
        <time>2022-08-27T07:34:55Z</time>
      </trkpt>
      <trkpt lat="45.7946" lon="6.96464">
        <ele>1556</ele>
        <time>2022-08-27T07:34:56Z</time>
      </trkpt>
      <trkpt lat="45.79458" lon="6.9647">
        <ele>1556</ele>
        <time>2022-08-27T07:34:57Z</time>
      </trkpt>
      <trkpt lat="45.79458" lon="6.9647">
        <ele>1556</ele>
        <time>2022-08-27T07:34:59Z</time>
      </trkpt>
      <trkpt lat="45.79458" lon="6.9647">
        <ele>1556</ele>
        <time>2022-08-27T07:35:00Z</time>
      </trkpt>
      <trkpt lat="45.79458" lon="6.9647">
        <ele>1556</ele>
        <time>2022-08-27T07:35:01Z</time>
      </trkpt>
      <trkpt lat="45.79458" lon="6.9647">
        <ele>1556</ele>
        <time>2022-08-27T07:35:02Z</time>
      </trkpt>
      <trkpt lat="45.79458" lon="6.96469">
        <ele>1556</ele>
        <time>2022-08-27T07:35:03Z</time>
      </trkpt>
      <trkpt lat="45.79458" lon="6.96469">
        <ele>1556</ele>
        <time>2022-08-27T07:35:05Z</time>
      </trkpt>
      <trkpt lat="45.79459" lon="6.96469">
        <ele>1556</ele>
        <time>2022-08-27T07:35:06Z</time>
      </trkpt>
      <trkpt lat="45.79459" lon="6.96469">
        <ele>1556</ele>
        <time>2022-08-27T07:35:08Z</time>
      </trkpt>
      <trkpt lat="45.79459" lon="6.96469">
        <ele>1556</ele>
        <time>2022-08-27T07:35:09Z</time>
      </trkpt>
      <trkpt lat="45.79459" lon="6.96468">
        <ele>1556</ele>
        <time>2022-08-27T07:35:10Z</time>
      </trkpt>
      <trkpt lat="45.79459" lon="6.96468">
        <ele>1556</ele>
        <time>2022-08-27T07:35:11Z</time>
      </trkpt>
      <trkpt lat="45.79459" lon="6.96468">
        <ele>1556</ele>
        <time>2022-08-27T07:35:12Z</time>
      </trkpt>
      <trkpt lat="45.79459" lon="6.96468">
        <ele>1555</ele>
        <time>2022-08-27T07:35:14Z</time>
      </trkpt>
      <trkpt lat="45.79459" lon="6.96467">
        <ele>1556</ele>
        <time>2022-08-27T07:35:16Z</time>
      </trkpt>
      <trkpt lat="45.79459" lon="6.96467">
        <ele>1556</ele>
        <time>2022-08-27T07:35:17Z</time>
      </trkpt>
      <trkpt lat="45.79459" lon="6.96467">
        <ele>1556</ele>
        <time>2022-08-27T07:35:18Z</time>
      </trkpt>
      <trkpt lat="45.79459" lon="6.96467">
        <ele>1556</ele>
        <time>2022-08-27T07:35:19Z</time>
      </trkpt>
      <trkpt lat="45.7946" lon="6.96467">
        <ele>1556</ele>
        <time>2022-08-27T07:35:20Z</time>
      </trkpt>
      <trkpt lat="45.7946" lon="6.96466">
        <ele>1555</ele>
        <time>2022-08-27T07:35:21Z</time>
      </trkpt>
      <trkpt lat="45.7946" lon="6.96466">
        <ele>1555</ele>
        <time>2022-08-27T07:35:22Z</time>
      </trkpt>
      <trkpt lat="45.7946" lon="6.96466">
        <ele>1555</ele>
        <time>2022-08-27T07:35:23Z</time>
      </trkpt>
      <trkpt lat="45.7946" lon="6.96466">
        <ele>1555</ele>
        <time>2022-08-27T07:35:24Z</time>
      </trkpt>
      <trkpt lat="45.7946" lon="6.96466">
        <ele>1556</ele>
        <time>2022-08-27T07:35:25Z</time>
      </trkpt>
      <trkpt lat="45.7946" lon="6.96465">
        <ele>1556</ele>
        <time>2022-08-27T07:35:26Z</time>
      </trkpt>
      <trkpt lat="45.7946" lon="6.96465">
        <ele>1556</ele>
        <time>2022-08-27T07:35:27Z</time>
      </trkpt>
      <trkpt lat="45.7946" lon="6.96465">
        <ele>1556</ele>
        <time>2022-08-27T07:35:28Z</time>
      </trkpt>
      <trkpt lat="45.7946" lon="6.96465">
        <ele>1556</ele>
        <time>2022-08-27T07:35:29Z</time>
      </trkpt>
      <trkpt lat="45.7946" lon="6.96465">
        <ele>1556</ele>
        <time>2022-08-27T07:35:30Z</time>
      </trkpt>
      <trkpt lat="45.79461" lon="6.96464">
        <ele>1556</ele>
        <time>2022-08-27T07:35:31Z</time>
      </trkpt>
      <trkpt lat="45.79461" lon="6.96464">
        <ele>1556</ele>
        <time>2022-08-27T07:35:33Z</time>
      </trkpt>
      <trkpt lat="45.79461" lon="6.96464">
        <ele>1556</ele>
        <time>2022-08-27T07:35:34Z</time>
      </trkpt>
      <trkpt lat="45.79461" lon="6.96464">
        <ele>1556</ele>
        <time>2022-08-27T07:35:35Z</time>
      </trkpt>
      <trkpt lat="45.79461" lon="6.96463">
        <ele>1556</ele>
        <time>2022-08-27T07:35:36Z</time>
      </trkpt>
      <trkpt lat="45.79461" lon="6.96463">
        <ele>1556</ele>
        <time>2022-08-27T07:35:37Z</time>
      </trkpt>
      <trkpt lat="45.79461" lon="6.96463">
        <ele>1556</ele>
        <time>2022-08-27T07:35:38Z</time>
      </trkpt>
      <trkpt lat="45.79461" lon="6.96463">
        <ele>1556</ele>
        <time>2022-08-27T07:35:39Z</time>
      </trkpt>
      <trkpt lat="45.79461" lon="6.96463">
        <ele>1556</ele>
        <time>2022-08-27T07:35:40Z</time>
      </trkpt>
      <trkpt lat="45.79461" lon="6.96462">
        <ele>1556</ele>
        <time>2022-08-27T07:35:41Z</time>
      </trkpt>
      <trkpt lat="45.79461" lon="6.96462">
        <ele>1556</ele>
        <time>2022-08-27T07:35:42Z</time>
      </trkpt>
      <trkpt lat="45.79461" lon="6.96462">
        <ele>1556</ele>
        <time>2022-08-27T07:35:43Z</time>
      </trkpt>
      <trkpt lat="45.79462" lon="6.96462">
        <ele>1556</ele>
        <time>2022-08-27T07:35:44Z</time>
      </trkpt>
      <trkpt lat="45.79462" lon="6.96462">
        <ele>1556</ele>
        <time>2022-08-27T07:35:45Z</time>
      </trkpt>
      <trkpt lat="45.79462" lon="6.96461">
        <ele>1556</ele>
        <time>2022-08-27T07:35:46Z</time>
      </trkpt>
      <trkpt lat="45.79462" lon="6.96461">
        <ele>1556</ele>
        <time>2022-08-27T07:35:47Z</time>
      </trkpt>
      <trkpt lat="45.79462" lon="6.96461">
        <ele>1556</ele>
        <time>2022-08-27T07:35:48Z</time>
      </trkpt>
      <trkpt lat="45.79462" lon="6.96461">
        <ele>1556</ele>
        <time>2022-08-27T07:35:49Z</time>
      </trkpt>
      <trkpt lat="45.79462" lon="6.96461">
        <ele>1556</ele>
        <time>2022-08-27T07:35:50Z</time>
      </trkpt>
      <trkpt lat="45.79462" lon="6.9646">
        <ele>1556</ele>
        <time>2022-08-27T07:35:52Z</time>
      </trkpt>
      <trkpt lat="45.79462" lon="6.9646">
        <ele>1556</ele>
        <time>2022-08-27T07:35:53Z</time>
      </trkpt>
      <trkpt lat="45.79462" lon="6.9646">
        <ele>1556</ele>
        <time>2022-08-27T07:35:54Z</time>
      </trkpt>
      <trkpt lat="45.79462" lon="6.9646">
        <ele>1556</ele>
        <time>2022-08-27T07:35:55Z</time>
      </trkpt>
      <trkpt lat="45.79463" lon="6.96459">
        <ele>1556</ele>
        <time>2022-08-27T07:35:56Z</time>
      </trkpt>
      <trkpt lat="45.79463" lon="6.96459">
        <ele>1556</ele>
        <time>2022-08-27T07:35:57Z</time>
      </trkpt>
      <trkpt lat="45.79463" lon="6.96459">
        <ele>1556</ele>
        <time>2022-08-27T07:35:58Z</time>
      </trkpt>
      <trkpt lat="45.79463" lon="6.96459">
        <ele>1556</ele>
        <time>2022-08-27T07:35:59Z</time>
      </trkpt>
      <trkpt lat="45.79463" lon="6.96459">
        <ele>1556</ele>
        <time>2022-08-27T07:36:00Z</time>
      </trkpt>
      <trkpt lat="45.79463" lon="6.96458">
        <ele>1556</ele>
        <time>2022-08-27T07:36:01Z</time>
      </trkpt>
      <trkpt lat="45.79463" lon="6.96458">
        <ele>1556</ele>
        <time>2022-08-27T07:36:02Z</time>
      </trkpt>
      <trkpt lat="45.79463" lon="6.96458">
        <ele>1556</ele>
        <time>2022-08-27T07:36:03Z</time>
      </trkpt>
      <trkpt lat="45.79463" lon="6.96458">
        <ele>1556</ele>
        <time>2022-08-27T07:36:04Z</time>
      </trkpt>
      <trkpt lat="45.79463" lon="6.96458">
        <ele>1556</ele>
        <time>2022-08-27T07:36:05Z</time>
      </trkpt>
      <trkpt lat="45.79463" lon="6.96457">
        <ele>1556</ele>
        <time>2022-08-27T07:36:06Z</time>
      </trkpt>
      <trkpt lat="45.79464" lon="6.96457">
        <ele>1556</ele>
        <time>2022-08-27T07:36:07Z</time>
      </trkpt>
      <trkpt lat="45.79464" lon="6.96457">
        <ele>1556</ele>
        <time>2022-08-27T07:36:08Z</time>
      </trkpt>
      <trkpt lat="45.79464" lon="6.96457">
        <ele>1556</ele>
        <time>2022-08-27T07:36:09Z</time>
      </trkpt>
      <trkpt lat="45.79464" lon="6.96457">
        <ele>1556</ele>
        <time>2022-08-27T07:36:11Z</time>
      </trkpt>
      <trkpt lat="45.79464" lon="6.96456">
        <ele>1556</ele>
        <time>2022-08-27T07:36:12Z</time>
      </trkpt>
      <trkpt lat="45.79464" lon="6.96456">
        <ele>1557</ele>
        <time>2022-08-27T07:36:13Z</time>
      </trkpt>
      <trkpt lat="45.79464" lon="6.96456">
        <ele>1557</ele>
        <time>2022-08-27T07:36:14Z</time>
      </trkpt>
      <trkpt lat="45.79464" lon="6.96456">
        <ele>1556</ele>
        <time>2022-08-27T07:36:15Z</time>
      </trkpt>
      <trkpt lat="45.79464" lon="6.96455">
        <ele>1556</ele>
        <time>2022-08-27T07:36:16Z</time>
      </trkpt>
      <trkpt lat="45.79464" lon="6.96455">
        <ele>1556</ele>
        <time>2022-08-27T07:36:17Z</time>
      </trkpt>
      <trkpt lat="45.79464" lon="6.96455">
        <ele>1556</ele>
        <time>2022-08-27T07:36:18Z</time>
      </trkpt>
      <trkpt lat="45.79465" lon="6.96455">
        <ele>1556</ele>
        <time>2022-08-27T07:36:19Z</time>
      </trkpt>
      <trkpt lat="45.79457" lon="6.96454">
        <ele>1556</ele>
        <time>2022-08-27T07:36:21Z</time>
      </trkpt>
      <trkpt lat="45.79452" lon="6.96443">
        <ele>1556</ele>
        <time>2022-08-27T07:36:23Z</time>
      </trkpt>
      <trkpt lat="45.79451" lon="6.96444">
        <ele>1556</ele>
        <time>2022-08-27T07:36:24Z</time>
      </trkpt>
      <trkpt lat="45.7945" lon="6.96445">
        <ele>1556</ele>
        <time>2022-08-27T07:36:25Z</time>
      </trkpt>
      <trkpt lat="45.79449" lon="6.96446">
        <ele>1556</ele>
        <time>2022-08-27T07:36:26Z</time>
      </trkpt>
      <trkpt lat="45.79447" lon="6.96447">
        <ele>1556</ele>
        <time>2022-08-27T07:36:27Z</time>
      </trkpt>
      <trkpt lat="45.79446" lon="6.96449">
        <ele>1556</ele>
        <time>2022-08-27T07:36:28Z</time>
      </trkpt>
      <trkpt lat="45.79445" lon="6.9645">
        <ele>1556</ele>
        <time>2022-08-27T07:36:30Z</time>
      </trkpt>
      <trkpt lat="45.79444" lon="6.96451">
        <ele>1556</ele>
        <time>2022-08-27T07:36:31Z</time>
      </trkpt>
      <trkpt lat="45.79442" lon="6.96452">
        <ele>1556</ele>
        <time>2022-08-27T07:36:33Z</time>
      </trkpt>
      <trkpt lat="45.79441" lon="6.96454">
        <ele>1556</ele>
        <time>2022-08-27T07:36:34Z</time>
      </trkpt>
      <trkpt lat="45.7944" lon="6.96455">
        <ele>1556</ele>
        <time>2022-08-27T07:36:35Z</time>
      </trkpt>
      <trkpt lat="45.79438" lon="6.96456">
        <ele>1556</ele>
        <time>2022-08-27T07:36:36Z</time>
      </trkpt>
      <trkpt lat="45.79437" lon="6.96457">
        <ele>1556</ele>
        <time>2022-08-27T07:36:37Z</time>
      </trkpt>
      <trkpt lat="45.79436" lon="6.96458">
        <ele>1556</ele>
        <time>2022-08-27T07:36:38Z</time>
      </trkpt>
      <trkpt lat="45.79435" lon="6.9646">
        <ele>1556</ele>
        <time>2022-08-27T07:36:39Z</time>
      </trkpt>
      <trkpt lat="45.79433" lon="6.96461">
        <ele>1556</ele>
        <time>2022-08-27T07:36:40Z</time>
      </trkpt>
      <trkpt lat="45.79432" lon="6.96462">
        <ele>1556</ele>
        <time>2022-08-27T07:36:41Z</time>
      </trkpt>
      <trkpt lat="45.79431" lon="6.96463">
        <ele>1556</ele>
        <time>2022-08-27T07:36:42Z</time>
      </trkpt>
      <trkpt lat="45.79432" lon="6.96462">
        <ele>1556</ele>
        <time>2022-08-27T07:36:43Z</time>
      </trkpt>
      <trkpt lat="45.79433" lon="6.9646">
        <ele>1556</ele>
        <time>2022-08-27T07:36:44Z</time>
      </trkpt>
      <trkpt lat="45.79435" lon="6.96459">
        <ele>1556</ele>
        <time>2022-08-27T07:36:45Z</time>
      </trkpt>
      <trkpt lat="45.79436" lon="6.96457">
        <ele>1556</ele>
        <time>2022-08-27T07:36:46Z</time>
      </trkpt>
      <trkpt lat="45.79437" lon="6.96455">
        <ele>1556</ele>
        <time>2022-08-27T07:36:47Z</time>
      </trkpt>
      <trkpt lat="45.79439" lon="6.96454">
        <ele>1556</ele>
        <time>2022-08-27T07:36:49Z</time>
      </trkpt>
      <trkpt lat="45.7944" lon="6.96452">
        <ele>1556</ele>
        <time>2022-08-27T07:36:50Z</time>
      </trkpt>
      <trkpt lat="45.79441" lon="6.96451">
        <ele>1556</ele>
        <time>2022-08-27T07:36:51Z</time>
      </trkpt>
      <trkpt lat="45.79442" lon="6.96449">
        <ele>1556</ele>
        <time>2022-08-27T07:36:52Z</time>
      </trkpt>
      <trkpt lat="45.79444" lon="6.96448">
        <ele>1556</ele>
        <time>2022-08-27T07:36:53Z</time>
      </trkpt>
      <trkpt lat="45.79445" lon="6.96446">
        <ele>1556</ele>
        <time>2022-08-27T07:36:54Z</time>
      </trkpt>
      <trkpt lat="45.79446" lon="6.96445">
        <ele>1556</ele>
        <time>2022-08-27T07:36:55Z</time>
      </trkpt>
      <trkpt lat="45.79447" lon="6.96443">
        <ele>1556</ele>
        <time>2022-08-27T07:36:56Z</time>
      </trkpt>
      <trkpt lat="45.79448" lon="6.96442">
        <ele>1556</ele>
        <time>2022-08-27T07:36:57Z</time>
      </trkpt>
      <trkpt lat="45.79449" lon="6.9644">
        <ele>1556</ele>
        <time>2022-08-27T07:36:59Z</time>
      </trkpt>
      <trkpt lat="45.7945" lon="6.96438">
        <ele>1556</ele>
        <time>2022-08-27T07:37:00Z</time>
      </trkpt>
      <trkpt lat="45.79451" lon="6.96437">
        <ele>1556</ele>
        <time>2022-08-27T07:37:01Z</time>
      </trkpt>
      <trkpt lat="45.79451" lon="6.96437">
        <ele>1556</ele>
        <time>2022-08-27T07:37:02Z</time>
      </trkpt>
      <trkpt lat="45.79451" lon="6.96437">
        <ele>1556</ele>
        <time>2022-08-27T07:37:03Z</time>
      </trkpt>
      <trkpt lat="45.79451" lon="6.96438">
        <ele>1556</ele>
        <time>2022-08-27T07:37:04Z</time>
      </trkpt>
      <trkpt lat="45.79451" lon="6.96438">
        <ele>1556</ele>
        <time>2022-08-27T07:37:05Z</time>
      </trkpt>
      <trkpt lat="45.79451" lon="6.96438">
        <ele>1556</ele>
        <time>2022-08-27T07:37:06Z</time>
      </trkpt>
      <trkpt lat="45.79451" lon="6.96438">
        <ele>1556</ele>
        <time>2022-08-27T07:37:08Z</time>
      </trkpt>
      <trkpt lat="45.79451" lon="6.96438">
        <ele>1556</ele>
        <time>2022-08-27T07:37:10Z</time>
      </trkpt>
      <trkpt lat="45.79451" lon="6.96439">
        <ele>1556</ele>
        <time>2022-08-27T07:37:11Z</time>
      </trkpt>
      <trkpt lat="45.79451" lon="6.96439">
        <ele>1556</ele>
        <time>2022-08-27T07:37:12Z</time>
      </trkpt>
      <trkpt lat="45.79451" lon="6.96439">
        <ele>1556</ele>
        <time>2022-08-27T07:37:13Z</time>
      </trkpt>
      <trkpt lat="45.79451" lon="6.96439">
        <ele>1556</ele>
        <time>2022-08-27T07:37:14Z</time>
      </trkpt>
      <trkpt lat="45.79451" lon="6.96439">
        <ele>1556</ele>
        <time>2022-08-27T07:37:15Z</time>
      </trkpt>
      <trkpt lat="45.79451" lon="6.9644">
        <ele>1556</ele>
        <time>2022-08-27T07:37:16Z</time>
      </trkpt>
      <trkpt lat="45.79451" lon="6.9644">
        <ele>1556</ele>
        <time>2022-08-27T07:37:17Z</time>
      </trkpt>
      <trkpt lat="45.79451" lon="6.9644">
        <ele>1556</ele>
        <time>2022-08-27T07:37:18Z</time>
      </trkpt>
      <trkpt lat="45.79451" lon="6.9644">
        <ele>1556</ele>
        <time>2022-08-27T07:37:19Z</time>
      </trkpt>
      <trkpt lat="45.79451" lon="6.9644">
        <ele>1556</ele>
        <time>2022-08-27T07:37:20Z</time>
      </trkpt>
      <trkpt lat="45.79451" lon="6.96441">
        <ele>1556</ele>
        <time>2022-08-27T07:37:21Z</time>
      </trkpt>
      <trkpt lat="45.79451" lon="6.96441">
        <ele>1556</ele>
        <time>2022-08-27T07:37:22Z</time>
      </trkpt>
      <trkpt lat="45.79451" lon="6.96441">
        <ele>1556</ele>
        <time>2022-08-27T07:37:23Z</time>
      </trkpt>
      <trkpt lat="45.7945" lon="6.96441">
        <ele>1556</ele>
        <time>2022-08-27T07:37:24Z</time>
      </trkpt>
      <trkpt lat="45.7945" lon="6.96441">
        <ele>1556</ele>
        <time>2022-08-27T07:37:25Z</time>
      </trkpt>
      <trkpt lat="45.7945" lon="6.96442">
        <ele>1556</ele>
        <time>2022-08-27T07:37:27Z</time>
      </trkpt>
      <trkpt lat="45.7945" lon="6.96442">
        <ele>1556</ele>
        <time>2022-08-27T07:37:28Z</time>
      </trkpt>
      <trkpt lat="45.7945" lon="6.96442">
        <ele>1556</ele>
        <time>2022-08-27T07:37:29Z</time>
      </trkpt>
      <trkpt lat="45.7945" lon="6.96442">
        <ele>1556</ele>
        <time>2022-08-27T07:37:30Z</time>
      </trkpt>
      <trkpt lat="45.7945" lon="6.96443">
        <ele>1556</ele>
        <time>2022-08-27T07:37:31Z</time>
      </trkpt>
      <trkpt lat="45.7945" lon="6.96443">
        <ele>1556</ele>
        <time>2022-08-27T07:37:32Z</time>
      </trkpt>
      <trkpt lat="45.7945" lon="6.96443">
        <ele>1556</ele>
        <time>2022-08-27T07:37:33Z</time>
      </trkpt>
      <trkpt lat="45.7945" lon="6.96443">
        <ele>1556</ele>
        <time>2022-08-27T07:37:34Z</time>
      </trkpt>
      <trkpt lat="45.7945" lon="6.96443">
        <ele>1556</ele>
        <time>2022-08-27T07:37:35Z</time>
      </trkpt>
      <trkpt lat="45.7945" lon="6.96444">
        <ele>1556</ele>
        <time>2022-08-27T07:37:36Z</time>
      </trkpt>
      <trkpt lat="45.7945" lon="6.96444">
        <ele>1556</ele>
        <time>2022-08-27T07:37:37Z</time>
      </trkpt>
      <trkpt lat="45.7945" lon="6.96444">
        <ele>1556</ele>
        <time>2022-08-27T07:37:38Z</time>
      </trkpt>
      <trkpt lat="45.7945" lon="6.96444">
        <ele>1556</ele>
        <time>2022-08-27T07:37:39Z</time>
      </trkpt>
      <trkpt lat="45.7945" lon="6.96444">
        <ele>1556</ele>
        <time>2022-08-27T07:37:40Z</time>
      </trkpt>
      <trkpt lat="45.7945" lon="6.96445">
        <ele>1556</ele>
        <time>2022-08-27T07:37:41Z</time>
      </trkpt>
      <trkpt lat="45.7945" lon="6.96445">
        <ele>1556</ele>
        <time>2022-08-27T07:37:42Z</time>
      </trkpt>
      <trkpt lat="45.7945" lon="6.96445">
        <ele>1556</ele>
        <time>2022-08-27T07:37:43Z</time>
      </trkpt>
      <trkpt lat="45.7945" lon="6.96445">
        <ele>1556</ele>
        <time>2022-08-27T07:37:44Z</time>
      </trkpt>
      <trkpt lat="45.7945" lon="6.96445">
        <ele>1556</ele>
        <time>2022-08-27T07:37:46Z</time>
      </trkpt>
      <trkpt lat="45.79449" lon="6.96446">
        <ele>1556</ele>
        <time>2022-08-27T07:37:47Z</time>
      </trkpt>
      <trkpt lat="45.79449" lon="6.96446">
        <ele>1556</ele>
        <time>2022-08-27T07:37:48Z</time>
      </trkpt>
      <trkpt lat="45.79449" lon="6.96446">
        <ele>1556</ele>
        <time>2022-08-27T07:37:49Z</time>
      </trkpt>
      <trkpt lat="45.79449" lon="6.96446">
        <ele>1556</ele>
        <time>2022-08-27T07:37:50Z</time>
      </trkpt>
      <trkpt lat="45.79449" lon="6.96446">
        <ele>1556</ele>
        <time>2022-08-27T07:37:51Z</time>
      </trkpt>
      <trkpt lat="45.79449" lon="6.96447">
        <ele>1556</ele>
        <time>2022-08-27T07:37:52Z</time>
      </trkpt>
      <trkpt lat="45.79449" lon="6.96447">
        <ele>1556</ele>
        <time>2022-08-27T07:37:53Z</time>
      </trkpt>
      <trkpt lat="45.79449" lon="6.96447">
        <ele>1556</ele>
        <time>2022-08-27T07:37:54Z</time>
      </trkpt>
      <trkpt lat="45.79449" lon="6.96447">
        <ele>1556</ele>
        <time>2022-08-27T07:37:55Z</time>
      </trkpt>
      <trkpt lat="45.79449" lon="6.96448">
        <ele>1556</ele>
        <time>2022-08-27T07:37:56Z</time>
      </trkpt>
      <trkpt lat="45.79449" lon="6.96448">
        <ele>1556</ele>
        <time>2022-08-27T07:37:57Z</time>
      </trkpt>
      <trkpt lat="45.79449" lon="6.96448">
        <ele>1556</ele>
        <time>2022-08-27T07:37:58Z</time>
      </trkpt>
      <trkpt lat="45.79449" lon="6.96448">
        <ele>1556</ele>
        <time>2022-08-27T07:37:59Z</time>
      </trkpt>
      <trkpt lat="45.79449" lon="6.96448">
        <ele>1556</ele>
        <time>2022-08-27T07:38:00Z</time>
      </trkpt>
      <trkpt lat="45.79449" lon="6.96449">
        <ele>1556</ele>
        <time>2022-08-27T07:38:01Z</time>
      </trkpt>
      <trkpt lat="45.79449" lon="6.96449">
        <ele>1556</ele>
        <time>2022-08-27T07:38:02Z</time>
      </trkpt>
      <trkpt lat="45.79449" lon="6.96449">
        <ele>1556</ele>
        <time>2022-08-27T07:38:03Z</time>
      </trkpt>
      <trkpt lat="45.79449" lon="6.96449">
        <ele>1556</ele>
        <time>2022-08-27T07:38:05Z</time>
      </trkpt>
      <trkpt lat="45.79449" lon="6.96449">
        <ele>1556</ele>
        <time>2022-08-27T07:38:06Z</time>
      </trkpt>
      <trkpt lat="45.79449" lon="6.9645">
        <ele>1556</ele>
        <time>2022-08-27T07:38:07Z</time>
      </trkpt>
      <trkpt lat="45.79449" lon="6.9645">
        <ele>1556</ele>
        <time>2022-08-27T07:38:08Z</time>
      </trkpt>
      <trkpt lat="45.79448" lon="6.9645">
        <ele>1556</ele>
        <time>2022-08-27T07:38:09Z</time>
      </trkpt>
      <trkpt lat="45.79448" lon="6.9645">
        <ele>1556</ele>
        <time>2022-08-27T07:38:10Z</time>
      </trkpt>
      <trkpt lat="45.79448" lon="6.9645">
        <ele>1556</ele>
        <time>2022-08-27T07:38:11Z</time>
      </trkpt>
      <trkpt lat="45.79448" lon="6.96451">
        <ele>1556</ele>
        <time>2022-08-27T07:38:12Z</time>
      </trkpt>
      <trkpt lat="45.79448" lon="6.96451">
        <ele>1556</ele>
        <time>2022-08-27T07:38:13Z</time>
      </trkpt>
      <trkpt lat="45.79448" lon="6.96451">
        <ele>1556</ele>
        <time>2022-08-27T07:38:14Z</time>
      </trkpt>
      <trkpt lat="45.79448" lon="6.96451">
        <ele>1556</ele>
        <time>2022-08-27T07:38:15Z</time>
      </trkpt>
      <trkpt lat="45.79448" lon="6.96451">
        <ele>1556</ele>
        <time>2022-08-27T07:38:16Z</time>
      </trkpt>
      <trkpt lat="45.79448" lon="6.96452">
        <ele>1556</ele>
        <time>2022-08-27T07:38:17Z</time>
      </trkpt>
      <trkpt lat="45.79448" lon="6.96452">
        <ele>1556</ele>
        <time>2022-08-27T07:38:18Z</time>
      </trkpt>
      <trkpt lat="45.79448" lon="6.96452">
        <ele>1556</ele>
        <time>2022-08-27T07:38:19Z</time>
      </trkpt>
      <trkpt lat="45.79448" lon="6.96452">
        <ele>1556</ele>
        <time>2022-08-27T07:38:20Z</time>
      </trkpt>
      <trkpt lat="45.79448" lon="6.96452">
        <ele>1556</ele>
        <time>2022-08-27T07:38:21Z</time>
      </trkpt>
      <trkpt lat="45.79448" lon="6.96453">
        <ele>1556</ele>
        <time>2022-08-27T07:38:22Z</time>
      </trkpt>
      <trkpt lat="45.79448" lon="6.96453">
        <ele>1556</ele>
        <time>2022-08-27T07:38:24Z</time>
      </trkpt>
      <trkpt lat="45.79448" lon="6.96453">
        <ele>1556</ele>
        <time>2022-08-27T07:38:25Z</time>
      </trkpt>
      <trkpt lat="45.79448" lon="6.96453">
        <ele>1556</ele>
        <time>2022-08-27T07:38:26Z</time>
      </trkpt>
      <trkpt lat="45.79448" lon="6.96454">
        <ele>1556</ele>
        <time>2022-08-27T07:38:27Z</time>
      </trkpt>
      <trkpt lat="45.79448" lon="6.96454">
        <ele>1556</ele>
        <time>2022-08-27T07:38:28Z</time>
      </trkpt>
      <trkpt lat="45.79448" lon="6.96454">
        <ele>1556</ele>
        <time>2022-08-27T07:38:29Z</time>
      </trkpt>
      <trkpt lat="45.79447" lon="6.96454">
        <ele>1556</ele>
        <time>2022-08-27T07:38:30Z</time>
      </trkpt>
      <trkpt lat="45.79447" lon="6.96454">
        <ele>1556</ele>
        <time>2022-08-27T07:38:31Z</time>
      </trkpt>
      <trkpt lat="45.79447" lon="6.96455">
        <ele>1556</ele>
        <time>2022-08-27T07:38:32Z</time>
      </trkpt>
      <trkpt lat="45.79447" lon="6.96455">
        <ele>1556</ele>
        <time>2022-08-27T07:38:33Z</time>
      </trkpt>
      <trkpt lat="45.79447" lon="6.96455">
        <ele>1556</ele>
        <time>2022-08-27T07:38:34Z</time>
      </trkpt>
      <trkpt lat="45.79447" lon="6.96455">
        <ele>1556</ele>
        <time>2022-08-27T07:38:35Z</time>
      </trkpt>
      <trkpt lat="45.79447" lon="6.96455">
        <ele>1556</ele>
        <time>2022-08-27T07:38:36Z</time>
      </trkpt>
      <trkpt lat="45.79447" lon="6.96456">
        <ele>1556</ele>
        <time>2022-08-27T07:38:37Z</time>
      </trkpt>
      <trkpt lat="45.79447" lon="6.96456">
        <ele>1556</ele>
        <time>2022-08-27T07:38:38Z</time>
      </trkpt>
      <trkpt lat="45.79447" lon="6.96456">
        <ele>1556</ele>
        <time>2022-08-27T07:38:39Z</time>
      </trkpt>
      <trkpt lat="45.79447" lon="6.96456">
        <ele>1556</ele>
        <time>2022-08-27T07:38:40Z</time>
      </trkpt>
      <trkpt lat="45.79447" lon="6.96456">
        <ele>1556</ele>
        <time>2022-08-27T07:38:41Z</time>
      </trkpt>
      <trkpt lat="45.79447" lon="6.96457">
        <ele>1556</ele>
        <time>2022-08-27T07:38:43Z</time>
      </trkpt>
      <trkpt lat="45.79447" lon="6.96457">
        <ele>1556</ele>
        <time>2022-08-27T07:38:44Z</time>
      </trkpt>
      <trkpt lat="45.79447" lon="6.96457">
        <ele>1556</ele>
        <time>2022-08-27T07:38:45Z</time>
      </trkpt>
      <trkpt lat="45.79447" lon="6.96457">
        <ele>1556</ele>
        <time>2022-08-27T07:38:46Z</time>
      </trkpt>
      <trkpt lat="45.79447" lon="6.96457">
        <ele>1556</ele>
        <time>2022-08-27T07:38:47Z</time>
      </trkpt>
      <trkpt lat="45.79447" lon="6.96458">
        <ele>1556</ele>
        <time>2022-08-27T07:38:48Z</time>
      </trkpt>
      <trkpt lat="45.79445" lon="6.96462">
        <ele>1556</ele>
        <time>2022-08-27T07:38:49Z</time>
      </trkpt>
      <trkpt lat="45.79443" lon="6.96466">
        <ele>1556</ele>
        <time>2022-08-27T07:38:50Z</time>
      </trkpt>
      <trkpt lat="45.79442" lon="6.9647">
        <ele>1556</ele>
        <time>2022-08-27T07:38:51Z</time>
      </trkpt>
      <trkpt lat="45.79442" lon="6.9647">
        <ele>1556</ele>
        <time>2022-08-27T07:38:52Z</time>
      </trkpt>
      <trkpt lat="45.79442" lon="6.9647">
        <ele>1556</ele>
        <time>2022-08-27T07:38:53Z</time>
      </trkpt>
      <trkpt lat="45.79443" lon="6.96469">
        <ele>1556</ele>
        <time>2022-08-27T07:38:54Z</time>
      </trkpt>
      <trkpt lat="45.79443" lon="6.96469">
        <ele>1556</ele>
        <time>2022-08-27T07:38:55Z</time>
      </trkpt>
      <trkpt lat="45.79443" lon="6.96469">
        <ele>1556</ele>
        <time>2022-08-27T07:38:56Z</time>
      </trkpt>
      <trkpt lat="45.79444" lon="6.96469">
        <ele>1556</ele>
        <time>2022-08-27T07:38:57Z</time>
      </trkpt>
      <trkpt lat="45.79444" lon="6.96469">
        <ele>1556</ele>
        <time>2022-08-27T07:38:58Z</time>
      </trkpt>
      <trkpt lat="45.79444" lon="6.96469">
        <ele>1556</ele>
        <time>2022-08-27T07:38:59Z</time>
      </trkpt>
      <trkpt lat="45.79444" lon="6.96468">
        <ele>1556</ele>
        <time>2022-08-27T07:39:00Z</time>
      </trkpt>
      <trkpt lat="45.79445" lon="6.96468">
        <ele>1556</ele>
        <time>2022-08-27T07:39:02Z</time>
      </trkpt>
      <trkpt lat="45.79445" lon="6.96468">
        <ele>1556</ele>
        <time>2022-08-27T07:39:03Z</time>
      </trkpt>
      <trkpt lat="45.79445" lon="6.96468">
        <ele>1556</ele>
        <time>2022-08-27T07:39:04Z</time>
      </trkpt>
      <trkpt lat="45.79446" lon="6.96468">
        <ele>1556</ele>
        <time>2022-08-27T07:39:05Z</time>
      </trkpt>
      <trkpt lat="45.79446" lon="6.96467">
        <ele>1556</ele>
        <time>2022-08-27T07:39:06Z</time>
      </trkpt>
      <trkpt lat="45.79446" lon="6.96467">
        <ele>1556</ele>
        <time>2022-08-27T07:39:07Z</time>
      </trkpt>
      <trkpt lat="45.79447" lon="6.96467">
        <ele>1556</ele>
        <time>2022-08-27T07:39:08Z</time>
      </trkpt>
      <trkpt lat="45.79447" lon="6.96467">
        <ele>1556</ele>
        <time>2022-08-27T07:39:09Z</time>
      </trkpt>
      <trkpt lat="45.79447" lon="6.96467">
        <ele>1556</ele>
        <time>2022-08-27T07:39:10Z</time>
      </trkpt>
      <trkpt lat="45.79447" lon="6.96466">
        <ele>1556</ele>
        <time>2022-08-27T07:39:11Z</time>
      </trkpt>
      <trkpt lat="45.79448" lon="6.96466">
        <ele>1556</ele>
        <time>2022-08-27T07:39:12Z</time>
      </trkpt>
      <trkpt lat="45.79448" lon="6.96466">
        <ele>1556</ele>
        <time>2022-08-27T07:39:13Z</time>
      </trkpt>
      <trkpt lat="45.79448" lon="6.96466">
        <ele>1556</ele>
        <time>2022-08-27T07:39:14Z</time>
      </trkpt>
      <trkpt lat="45.79449" lon="6.96466">
        <ele>1556</ele>
        <time>2022-08-27T07:39:15Z</time>
      </trkpt>
      <trkpt lat="45.79449" lon="6.96466">
        <ele>1556</ele>
        <time>2022-08-27T07:39:16Z</time>
      </trkpt>
      <trkpt lat="45.79449" lon="6.96465">
        <ele>1556</ele>
        <time>2022-08-27T07:39:18Z</time>
      </trkpt>
      <trkpt lat="45.7945" lon="6.96465">
        <ele>1556</ele>
        <time>2022-08-27T07:39:19Z</time>
      </trkpt>
      <trkpt lat="45.7945" lon="6.96465">
        <ele>1556</ele>
        <time>2022-08-27T07:39:21Z</time>
      </trkpt>
      <trkpt lat="45.7945" lon="6.96465">
        <ele>1556</ele>
        <time>2022-08-27T07:39:23Z</time>
      </trkpt>
      <trkpt lat="45.79451" lon="6.96465">
        <ele>1556</ele>
        <time>2022-08-27T07:39:24Z</time>
      </trkpt>
      <trkpt lat="45.79451" lon="6.96464">
        <ele>1556</ele>
        <time>2022-08-27T07:39:25Z</time>
      </trkpt>
      <trkpt lat="45.79451" lon="6.96464">
        <ele>1556</ele>
        <time>2022-08-27T07:39:26Z</time>
      </trkpt>
      <trkpt lat="45.79451" lon="6.96464">
        <ele>1556</ele>
        <time>2022-08-27T07:39:27Z</time>
      </trkpt>
      <trkpt lat="45.79452" lon="6.96464">
        <ele>1556</ele>
        <time>2022-08-27T07:39:28Z</time>
      </trkpt>
      <trkpt lat="45.79452" lon="6.96464">
        <ele>1556</ele>
        <time>2022-08-27T07:39:29Z</time>
      </trkpt>
      <trkpt lat="45.79452" lon="6.96464">
        <ele>1556</ele>
        <time>2022-08-27T07:39:30Z</time>
      </trkpt>
      <trkpt lat="45.79453" lon="6.96463">
        <ele>1556</ele>
        <time>2022-08-27T07:39:31Z</time>
      </trkpt>
      <trkpt lat="45.79453" lon="6.96463">
        <ele>1556</ele>
        <time>2022-08-27T07:39:32Z</time>
      </trkpt>
      <trkpt lat="45.79453" lon="6.96463">
        <ele>1556</ele>
        <time>2022-08-27T07:39:33Z</time>
      </trkpt>
      <trkpt lat="45.79454" lon="6.96463">
        <ele>1556</ele>
        <time>2022-08-27T07:39:34Z</time>
      </trkpt>
      <trkpt lat="45.79454" lon="6.96463">
        <ele>1556</ele>
        <time>2022-08-27T07:39:35Z</time>
      </trkpt>
      <trkpt lat="45.79454" lon="6.96462">
        <ele>1556</ele>
        <time>2022-08-27T07:39:36Z</time>
      </trkpt>
      <trkpt lat="45.79454" lon="6.96462">
        <ele>1556</ele>
        <time>2022-08-27T07:39:37Z</time>
      </trkpt>
      <trkpt lat="45.79455" lon="6.96462">
        <ele>1556</ele>
        <time>2022-08-27T07:39:38Z</time>
      </trkpt>
      <trkpt lat="45.79455" lon="6.96462">
        <ele>1556</ele>
        <time>2022-08-27T07:39:40Z</time>
      </trkpt>
      <trkpt lat="45.79455" lon="6.96462">
        <ele>1556</ele>
        <time>2022-08-27T07:39:41Z</time>
      </trkpt>
      <trkpt lat="45.79456" lon="6.96462">
        <ele>1556</ele>
        <time>2022-08-27T07:39:42Z</time>
      </trkpt>
      <trkpt lat="45.79456" lon="6.96461">
        <ele>1556</ele>
        <time>2022-08-27T07:39:43Z</time>
      </trkpt>
      <trkpt lat="45.79456" lon="6.96461">
        <ele>1556</ele>
        <time>2022-08-27T07:39:44Z</time>
      </trkpt>
      <trkpt lat="45.79457" lon="6.96461">
        <ele>1556</ele>
        <time>2022-08-27T07:39:45Z</time>
      </trkpt>
      <trkpt lat="45.79457" lon="6.96461">
        <ele>1556</ele>
        <time>2022-08-27T07:39:46Z</time>
      </trkpt>
      <trkpt lat="45.79457" lon="6.96461">
        <ele>1556</ele>
        <time>2022-08-27T07:39:47Z</time>
      </trkpt>
      <trkpt lat="45.79458" lon="6.9646">
        <ele>1556</ele>
        <time>2022-08-27T07:39:48Z</time>
      </trkpt>
      <trkpt lat="45.79458" lon="6.9646">
        <ele>1556</ele>
        <time>2022-08-27T07:39:49Z</time>
      </trkpt>
      <trkpt lat="45.79458" lon="6.9646">
        <ele>1556</ele>
        <time>2022-08-27T07:39:50Z</time>
      </trkpt>
      <trkpt lat="45.79458" lon="6.9646">
        <ele>1556</ele>
        <time>2022-08-27T07:39:51Z</time>
      </trkpt>
      <trkpt lat="45.79459" lon="6.9646">
        <ele>1556</ele>
        <time>2022-08-27T07:39:52Z</time>
      </trkpt>
      <trkpt lat="45.79459" lon="6.9646">
        <ele>1556</ele>
        <time>2022-08-27T07:39:53Z</time>
      </trkpt>
      <trkpt lat="45.79459" lon="6.96459">
        <ele>1556</ele>
        <time>2022-08-27T07:39:54Z</time>
      </trkpt>
      <trkpt lat="45.7946" lon="6.96459">
        <ele>1556</ele>
        <time>2022-08-27T07:39:55Z</time>
      </trkpt>
      <trkpt lat="45.7946" lon="6.96459">
        <ele>1556</ele>
        <time>2022-08-27T07:39:56Z</time>
      </trkpt>
      <trkpt lat="45.7946" lon="6.96459">
        <ele>1556</ele>
        <time>2022-08-27T07:39:57Z</time>
      </trkpt>
      <trkpt lat="45.79461" lon="6.96459">
        <ele>1556</ele>
        <time>2022-08-27T07:39:59Z</time>
      </trkpt>
      <trkpt lat="45.79461" lon="6.96458">
        <ele>1556</ele>
        <time>2022-08-27T07:40:00Z</time>
      </trkpt>
      <trkpt lat="45.79461" lon="6.96458">
        <ele>1556</ele>
        <time>2022-08-27T07:40:01Z</time>
      </trkpt>
      <trkpt lat="45.79461" lon="6.96458">
        <ele>1556</ele>
        <time>2022-08-27T07:40:02Z</time>
      </trkpt>
      <trkpt lat="45.79462" lon="6.96458">
        <ele>1556</ele>
        <time>2022-08-27T07:40:03Z</time>
      </trkpt>
      <trkpt lat="45.79462" lon="6.96458">
        <ele>1556</ele>
        <time>2022-08-27T07:40:04Z</time>
      </trkpt>
      <trkpt lat="45.79462" lon="6.96458">
        <ele>1556</ele>
        <time>2022-08-27T07:40:05Z</time>
      </trkpt>
      <trkpt lat="45.79463" lon="6.96457">
        <ele>1556</ele>
        <time>2022-08-27T07:40:06Z</time>
      </trkpt>
      <trkpt lat="45.79463" lon="6.96457">
        <ele>1556</ele>
        <time>2022-08-27T07:40:07Z</time>
      </trkpt>
      <trkpt lat="45.79463" lon="6.96457">
        <ele>1556</ele>
        <time>2022-08-27T07:40:08Z</time>
      </trkpt>
      <trkpt lat="45.79464" lon="6.96457">
        <ele>1556</ele>
        <time>2022-08-27T07:40:09Z</time>
      </trkpt>
      <trkpt lat="45.79464" lon="6.96457">
        <ele>1556</ele>
        <time>2022-08-27T07:40:10Z</time>
      </trkpt>
      <trkpt lat="45.79464" lon="6.96456">
        <ele>1556</ele>
        <time>2022-08-27T07:40:11Z</time>
      </trkpt>
      <trkpt lat="45.79465" lon="6.96456">
        <ele>1556</ele>
        <time>2022-08-27T07:40:12Z</time>
      </trkpt>
      <trkpt lat="45.79465" lon="6.96456">
        <ele>1556</ele>
        <time>2022-08-27T07:40:13Z</time>
      </trkpt>
      <trkpt lat="45.79465" lon="6.96456">
        <ele>1556</ele>
        <time>2022-08-27T07:40:14Z</time>
      </trkpt>
      <trkpt lat="45.79465" lon="6.96456">
        <ele>1556</ele>
        <time>2022-08-27T07:40:15Z</time>
      </trkpt>
      <trkpt lat="45.79466" lon="6.96456">
        <ele>1556</ele>
        <time>2022-08-27T07:40:16Z</time>
      </trkpt>
      <trkpt lat="45.79466" lon="6.96455">
        <ele>1556</ele>
        <time>2022-08-27T07:40:18Z</time>
      </trkpt>
      <trkpt lat="45.79466" lon="6.96455">
        <ele>1556</ele>
        <time>2022-08-27T07:40:19Z</time>
      </trkpt>
      <trkpt lat="45.79467" lon="6.96455">
        <ele>1556</ele>
        <time>2022-08-27T07:40:20Z</time>
      </trkpt>
      <trkpt lat="45.79467" lon="6.96455">
        <ele>1556</ele>
        <time>2022-08-27T07:40:21Z</time>
      </trkpt>
      <trkpt lat="45.79467" lon="6.96455">
        <ele>1556</ele>
        <time>2022-08-27T07:40:22Z</time>
      </trkpt>
      <trkpt lat="45.79468" lon="6.96454">
        <ele>1556</ele>
        <time>2022-08-27T07:40:23Z</time>
      </trkpt>
      <trkpt lat="45.79468" lon="6.96454">
        <ele>1556</ele>
        <time>2022-08-27T07:40:24Z</time>
      </trkpt>
      <trkpt lat="45.79468" lon="6.96454">
        <ele>1556</ele>
        <time>2022-08-27T07:40:25Z</time>
      </trkpt>
      <trkpt lat="45.79468" lon="6.96454">
        <ele>1556</ele>
        <time>2022-08-27T07:40:26Z</time>
      </trkpt>
      <trkpt lat="45.79469" lon="6.96454">
        <ele>1556</ele>
        <time>2022-08-27T07:40:27Z</time>
      </trkpt>
      <trkpt lat="45.79469" lon="6.96453">
        <ele>1556</ele>
        <time>2022-08-27T07:40:28Z</time>
      </trkpt>
      <trkpt lat="45.79469" lon="6.96453">
        <ele>1556</ele>
        <time>2022-08-27T07:40:29Z</time>
      </trkpt>
      <trkpt lat="45.7947" lon="6.96453">
        <ele>1556</ele>
        <time>2022-08-27T07:40:30Z</time>
      </trkpt>
      <trkpt lat="45.7947" lon="6.96453">
        <ele>1556</ele>
        <time>2022-08-27T07:40:31Z</time>
      </trkpt>
      <trkpt lat="45.7947" lon="6.96453">
        <ele>1556</ele>
        <time>2022-08-27T07:40:32Z</time>
      </trkpt>
      <trkpt lat="45.79471" lon="6.96453">
        <ele>1556</ele>
        <time>2022-08-27T07:40:33Z</time>
      </trkpt>
      <trkpt lat="45.79471" lon="6.96452">
        <ele>1556</ele>
        <time>2022-08-27T07:40:34Z</time>
      </trkpt>
      <trkpt lat="45.79471" lon="6.96452">
        <ele>1556</ele>
        <time>2022-08-27T07:40:35Z</time>
      </trkpt>
      <trkpt lat="45.79472" lon="6.96452">
        <ele>1556</ele>
        <time>2022-08-27T07:40:37Z</time>
      </trkpt>
      <trkpt lat="45.79472" lon="6.96452">
        <ele>1556</ele>
        <time>2022-08-27T07:40:38Z</time>
      </trkpt>
      <trkpt lat="45.79472" lon="6.96452">
        <ele>1556</ele>
        <time>2022-08-27T07:40:39Z</time>
      </trkpt>
      <trkpt lat="45.79472" lon="6.96451">
        <ele>1556</ele>
        <time>2022-08-27T07:40:40Z</time>
      </trkpt>
      <trkpt lat="45.79473" lon="6.96451">
        <ele>1556</ele>
        <time>2022-08-27T07:40:41Z</time>
      </trkpt>
      <trkpt lat="45.79473" lon="6.96451">
        <ele>1556</ele>
        <time>2022-08-27T07:40:42Z</time>
      </trkpt>
      <trkpt lat="45.79473" lon="6.96451">
        <ele>1556</ele>
        <time>2022-08-27T07:40:43Z</time>
      </trkpt>
      <trkpt lat="45.79474" lon="6.96451">
        <ele>1556</ele>
        <time>2022-08-27T07:40:44Z</time>
      </trkpt>
      <trkpt lat="45.79474" lon="6.96451">
        <ele>1556</ele>
        <time>2022-08-27T07:40:45Z</time>
      </trkpt>
      <trkpt lat="45.79474" lon="6.9645">
        <ele>1556</ele>
        <time>2022-08-27T07:40:46Z</time>
      </trkpt>
      <trkpt lat="45.79475" lon="6.9645">
        <ele>1556</ele>
        <time>2022-08-27T07:40:47Z</time>
      </trkpt>
      <trkpt lat="45.79475" lon="6.9645">
        <ele>1556</ele>
        <time>2022-08-27T07:40:48Z</time>
      </trkpt>
      <trkpt lat="45.79475" lon="6.9645">
        <ele>1556</ele>
        <time>2022-08-27T07:40:49Z</time>
      </trkpt>
      <trkpt lat="45.79475" lon="6.9645">
        <ele>1556</ele>
        <time>2022-08-27T07:40:50Z</time>
      </trkpt>
      <trkpt lat="45.79476" lon="6.96449">
        <ele>1556</ele>
        <time>2022-08-27T07:40:51Z</time>
      </trkpt>
      <trkpt lat="45.79476" lon="6.96449">
        <ele>1556</ele>
        <time>2022-08-27T07:40:52Z</time>
      </trkpt>
      <trkpt lat="45.79476" lon="6.96449">
        <ele>1556</ele>
        <time>2022-08-27T07:40:53Z</time>
      </trkpt>
      <trkpt lat="45.79477" lon="6.96449">
        <ele>1556</ele>
        <time>2022-08-27T07:40:54Z</time>
      </trkpt>
      <trkpt lat="45.79477" lon="6.96449">
        <ele>1556</ele>
        <time>2022-08-27T07:40:56Z</time>
      </trkpt>
      <trkpt lat="45.79477" lon="6.96449">
        <ele>1556</ele>
        <time>2022-08-27T07:40:57Z</time>
      </trkpt>
      <trkpt lat="45.79478" lon="6.96448">
        <ele>1556</ele>
        <time>2022-08-27T07:40:58Z</time>
      </trkpt>
      <trkpt lat="45.79478" lon="6.96448">
        <ele>1556</ele>
        <time>2022-08-27T07:40:59Z</time>
      </trkpt>
      <trkpt lat="45.79478" lon="6.96448">
        <ele>1556</ele>
        <time>2022-08-27T07:41:00Z</time>
      </trkpt>
      <trkpt lat="45.79479" lon="6.96448">
        <ele>1556</ele>
        <time>2022-08-27T07:41:01Z</time>
      </trkpt>
      <trkpt lat="45.79479" lon="6.96448">
        <ele>1556</ele>
        <time>2022-08-27T07:41:02Z</time>
      </trkpt>
      <trkpt lat="45.79479" lon="6.96447">
        <ele>1556</ele>
        <time>2022-08-27T07:41:03Z</time>
      </trkpt>
      <trkpt lat="45.79479" lon="6.96447">
        <ele>1556</ele>
        <time>2022-08-27T07:41:04Z</time>
      </trkpt>
      <trkpt lat="45.79479" lon="6.96448">
        <ele>1556</ele>
        <time>2022-08-27T07:41:06Z</time>
      </trkpt>
      <trkpt lat="45.79479" lon="6.96448">
        <ele>1556</ele>
        <time>2022-08-27T07:41:07Z</time>
      </trkpt>
      <trkpt lat="45.79478" lon="6.96449">
        <ele>1556</ele>
        <time>2022-08-27T07:41:08Z</time>
      </trkpt>
      <trkpt lat="45.79478" lon="6.9645">
        <ele>1556</ele>
        <time>2022-08-27T07:41:09Z</time>
      </trkpt>
      <trkpt lat="45.79477" lon="6.9645">
        <ele>1556</ele>
        <time>2022-08-27T07:41:10Z</time>
      </trkpt>
      <trkpt lat="45.79477" lon="6.96451">
        <ele>1556</ele>
        <time>2022-08-27T07:41:11Z</time>
      </trkpt>
      <trkpt lat="45.79476" lon="6.96451">
        <ele>1556</ele>
        <time>2022-08-27T07:41:12Z</time>
      </trkpt>
      <trkpt lat="45.79476" lon="6.96452">
        <ele>1556</ele>
        <time>2022-08-27T07:41:13Z</time>
      </trkpt>
      <trkpt lat="45.79476" lon="6.96452">
        <ele>1556</ele>
        <time>2022-08-27T07:41:15Z</time>
      </trkpt>
      <trkpt lat="45.79475" lon="6.96453">
        <ele>1556</ele>
        <time>2022-08-27T07:41:16Z</time>
      </trkpt>
      <trkpt lat="45.79475" lon="6.96454">
        <ele>1556</ele>
        <time>2022-08-27T07:41:17Z</time>
      </trkpt>
      <trkpt lat="45.79474" lon="6.96454">
        <ele>1556</ele>
        <time>2022-08-27T07:41:18Z</time>
      </trkpt>
      <trkpt lat="45.79474" lon="6.96455">
        <ele>1556</ele>
        <time>2022-08-27T07:41:19Z</time>
      </trkpt>
      <trkpt lat="45.79474" lon="6.96455">
        <ele>1556</ele>
        <time>2022-08-27T07:41:20Z</time>
      </trkpt>
      <trkpt lat="45.79473" lon="6.96456">
        <ele>1556</ele>
        <time>2022-08-27T07:41:21Z</time>
      </trkpt>
      <trkpt lat="45.79473" lon="6.96456">
        <ele>1556</ele>
        <time>2022-08-27T07:41:22Z</time>
      </trkpt>
      <trkpt lat="45.79472" lon="6.96457">
        <ele>1556</ele>
        <time>2022-08-27T07:41:23Z</time>
      </trkpt>
      <trkpt lat="45.79472" lon="6.96458">
        <ele>1556</ele>
        <time>2022-08-27T07:41:24Z</time>
      </trkpt>
      <trkpt lat="45.79471" lon="6.96458">
        <ele>1556</ele>
        <time>2022-08-27T07:41:25Z</time>
      </trkpt>
      <trkpt lat="45.79471" lon="6.96459">
        <ele>1556</ele>
        <time>2022-08-27T07:41:26Z</time>
      </trkpt>
      <trkpt lat="45.79471" lon="6.96459">
        <ele>1556</ele>
        <time>2022-08-27T07:41:27Z</time>
      </trkpt>
      <trkpt lat="45.7947" lon="6.9646">
        <ele>1556</ele>
        <time>2022-08-27T07:41:28Z</time>
      </trkpt>
      <trkpt lat="45.7947" lon="6.9646">
        <ele>1556</ele>
        <time>2022-08-27T07:41:29Z</time>
      </trkpt>
      <trkpt lat="45.79469" lon="6.96461">
        <ele>1556</ele>
        <time>2022-08-27T07:41:30Z</time>
      </trkpt>
      <trkpt lat="45.79469" lon="6.96462">
        <ele>1556</ele>
        <time>2022-08-27T07:41:31Z</time>
      </trkpt>
      <trkpt lat="45.79469" lon="6.96462">
        <ele>1556</ele>
        <time>2022-08-27T07:41:32Z</time>
      </trkpt>
      <trkpt lat="45.79468" lon="6.96463">
        <ele>1556</ele>
        <time>2022-08-27T07:41:34Z</time>
      </trkpt>
      <trkpt lat="45.79468" lon="6.96463">
        <ele>1556</ele>
        <time>2022-08-27T07:41:35Z</time>
      </trkpt>
      <trkpt lat="45.79467" lon="6.96464">
        <ele>1556</ele>
        <time>2022-08-27T07:41:36Z</time>
      </trkpt>
      <trkpt lat="45.79467" lon="6.96464">
        <ele>1556</ele>
        <time>2022-08-27T07:41:37Z</time>
      </trkpt>
      <trkpt lat="45.79466" lon="6.96465">
        <ele>1556</ele>
        <time>2022-08-27T07:41:38Z</time>
      </trkpt>
      <trkpt lat="45.79466" lon="6.96466">
        <ele>1556</ele>
        <time>2022-08-27T07:41:39Z</time>
      </trkpt>
      <trkpt lat="45.79466" lon="6.96466">
        <ele>1556</ele>
        <time>2022-08-27T07:41:40Z</time>
      </trkpt>
      <trkpt lat="45.79465" lon="6.96467">
        <ele>1556</ele>
        <time>2022-08-27T07:41:41Z</time>
      </trkpt>
      <trkpt lat="45.79465" lon="6.96467">
        <ele>1556</ele>
        <time>2022-08-27T07:41:42Z</time>
      </trkpt>
      <trkpt lat="45.79464" lon="6.96468">
        <ele>1556</ele>
        <time>2022-08-27T07:41:43Z</time>
      </trkpt>
      <trkpt lat="45.79464" lon="6.96469">
        <ele>1556</ele>
        <time>2022-08-27T07:41:44Z</time>
      </trkpt>
      <trkpt lat="45.79464" lon="6.96469">
        <ele>1556</ele>
        <time>2022-08-27T07:41:45Z</time>
      </trkpt>
      <trkpt lat="45.79463" lon="6.9647">
        <ele>1556</ele>
        <time>2022-08-27T07:41:46Z</time>
      </trkpt>
      <trkpt lat="45.79463" lon="6.9647">
        <ele>1556</ele>
        <time>2022-08-27T07:41:47Z</time>
      </trkpt>
      <trkpt lat="45.79462" lon="6.96471">
        <ele>1556</ele>
        <time>2022-08-27T07:41:48Z</time>
      </trkpt>
      <trkpt lat="45.79462" lon="6.96471">
        <ele>1556</ele>
        <time>2022-08-27T07:41:49Z</time>
      </trkpt>
      <trkpt lat="45.79461" lon="6.96472">
        <ele>1556</ele>
        <time>2022-08-27T07:41:50Z</time>
      </trkpt>
      <trkpt lat="45.79461" lon="6.96473">
        <ele>1556</ele>
        <time>2022-08-27T07:41:51Z</time>
      </trkpt>
      <trkpt lat="45.79461" lon="6.96473">
        <ele>1556</ele>
        <time>2022-08-27T07:41:53Z</time>
      </trkpt>
      <trkpt lat="45.7946" lon="6.96474">
        <ele>1556</ele>
        <time>2022-08-27T07:41:54Z</time>
      </trkpt>
      <trkpt lat="45.7946" lon="6.96474">
        <ele>1556</ele>
        <time>2022-08-27T07:41:55Z</time>
      </trkpt>
      <trkpt lat="45.79459" lon="6.96475">
        <ele>1556</ele>
        <time>2022-08-27T07:41:56Z</time>
      </trkpt>
      <trkpt lat="45.79459" lon="6.96475">
        <ele>1556</ele>
        <time>2022-08-27T07:41:57Z</time>
      </trkpt>
      <trkpt lat="45.79458" lon="6.96476">
        <ele>1556</ele>
        <time>2022-08-27T07:41:58Z</time>
      </trkpt>
      <trkpt lat="45.79458" lon="6.96477">
        <ele>1556</ele>
        <time>2022-08-27T07:41:59Z</time>
      </trkpt>
      <trkpt lat="45.79458" lon="6.96477">
        <ele>1556</ele>
        <time>2022-08-27T07:42:00Z</time>
      </trkpt>
      <trkpt lat="45.79457" lon="6.96478">
        <ele>1556</ele>
        <time>2022-08-27T07:42:01Z</time>
      </trkpt>
      <trkpt lat="45.79457" lon="6.96478">
        <ele>1556</ele>
        <time>2022-08-27T07:42:02Z</time>
      </trkpt>
      <trkpt lat="45.79456" lon="6.96479">
        <ele>1556</ele>
        <time>2022-08-27T07:42:03Z</time>
      </trkpt>
      <trkpt lat="45.79456" lon="6.96479">
        <ele>1556</ele>
        <time>2022-08-27T07:42:04Z</time>
      </trkpt>
      <trkpt lat="45.79456" lon="6.9648">
        <ele>1556</ele>
        <time>2022-08-27T07:42:05Z</time>
      </trkpt>
      <trkpt lat="45.79455" lon="6.96481">
        <ele>1556</ele>
        <time>2022-08-27T07:42:06Z</time>
      </trkpt>
      <trkpt lat="45.79455" lon="6.96481">
        <ele>1556</ele>
        <time>2022-08-27T07:42:07Z</time>
      </trkpt>
      <trkpt lat="45.79454" lon="6.96482">
        <ele>1556</ele>
        <time>2022-08-27T07:42:08Z</time>
      </trkpt>
      <trkpt lat="45.79454" lon="6.96482">
        <ele>1556</ele>
        <time>2022-08-27T07:42:09Z</time>
      </trkpt>
      <trkpt lat="45.79453" lon="6.96483">
        <ele>1556</ele>
        <time>2022-08-27T07:42:10Z</time>
      </trkpt>
      <trkpt lat="45.79453" lon="6.96483">
        <ele>1556</ele>
        <time>2022-08-27T07:42:12Z</time>
      </trkpt>
      <trkpt lat="45.79453" lon="6.96484">
        <ele>1556</ele>
        <time>2022-08-27T07:42:13Z</time>
      </trkpt>
      <trkpt lat="45.79452" lon="6.96485">
        <ele>1556</ele>
        <time>2022-08-27T07:42:14Z</time>
      </trkpt>
      <trkpt lat="45.79452" lon="6.96485">
        <ele>1556</ele>
        <time>2022-08-27T07:42:15Z</time>
      </trkpt>
      <trkpt lat="45.79451" lon="6.96486">
        <ele>1556</ele>
        <time>2022-08-27T07:42:16Z</time>
      </trkpt>
      <trkpt lat="45.79451" lon="6.96486">
        <ele>1556</ele>
        <time>2022-08-27T07:42:17Z</time>
      </trkpt>
      <trkpt lat="45.79451" lon="6.96487">
        <ele>1556</ele>
        <time>2022-08-27T07:42:19Z</time>
      </trkpt>
      <trkpt lat="45.7945" lon="6.96487">
        <ele>1556</ele>
        <time>2022-08-27T07:42:20Z</time>
      </trkpt>
      <trkpt lat="45.7945" lon="6.96488">
        <ele>1556</ele>
        <time>2022-08-27T07:42:21Z</time>
      </trkpt>
      <trkpt lat="45.79449" lon="6.96489">
        <ele>1556</ele>
        <time>2022-08-27T07:42:22Z</time>
      </trkpt>
      <trkpt lat="45.79449" lon="6.96489">
        <ele>1556</ele>
        <time>2022-08-27T07:42:23Z</time>
      </trkpt>
      <trkpt lat="45.79448" lon="6.9649">
        <ele>1556</ele>
        <time>2022-08-27T07:42:24Z</time>
      </trkpt>
      <trkpt lat="45.79448" lon="6.9649">
        <ele>1556</ele>
        <time>2022-08-27T07:42:25Z</time>
      </trkpt>
      <trkpt lat="45.79448" lon="6.96491">
        <ele>1556</ele>
        <time>2022-08-27T07:42:26Z</time>
      </trkpt>
      <trkpt lat="45.79447" lon="6.96491">
        <ele>1556</ele>
        <time>2022-08-27T07:42:27Z</time>
      </trkpt>
      <trkpt lat="45.79447" lon="6.96492">
        <ele>1556</ele>
        <time>2022-08-27T07:42:28Z</time>
      </trkpt>
      <trkpt lat="45.79446" lon="6.96493">
        <ele>1556</ele>
        <time>2022-08-27T07:42:29Z</time>
      </trkpt>
      <trkpt lat="45.79446" lon="6.96493">
        <ele>1556</ele>
        <time>2022-08-27T07:42:31Z</time>
      </trkpt>
      <trkpt lat="45.79446" lon="6.96494">
        <ele>1556</ele>
        <time>2022-08-27T07:42:32Z</time>
      </trkpt>
      <trkpt lat="45.79445" lon="6.96494">
        <ele>1556</ele>
        <time>2022-08-27T07:42:33Z</time>
      </trkpt>
      <trkpt lat="45.79445" lon="6.96495">
        <ele>1556</ele>
        <time>2022-08-27T07:42:34Z</time>
      </trkpt>
      <trkpt lat="45.79444" lon="6.96495">
        <ele>1556</ele>
        <time>2022-08-27T07:42:35Z</time>
      </trkpt>
      <trkpt lat="45.79444" lon="6.96496">
        <ele>1556</ele>
        <time>2022-08-27T07:42:36Z</time>
      </trkpt>
      <trkpt lat="45.79443" lon="6.96497">
        <ele>1556</ele>
        <time>2022-08-27T07:42:37Z</time>
      </trkpt>
      <trkpt lat="45.79443" lon="6.96497">
        <ele>1556</ele>
        <time>2022-08-27T07:42:38Z</time>
      </trkpt>
      <trkpt lat="45.79443" lon="6.96498">
        <ele>1556</ele>
        <time>2022-08-27T07:42:39Z</time>
      </trkpt>
      <trkpt lat="45.79442" lon="6.96498">
        <ele>1556</ele>
        <time>2022-08-27T07:42:40Z</time>
      </trkpt>
      <trkpt lat="45.79442" lon="6.96499">
        <ele>1556</ele>
        <time>2022-08-27T07:42:41Z</time>
      </trkpt>
      <trkpt lat="45.79441" lon="6.965">
        <ele>1556</ele>
        <time>2022-08-27T07:42:42Z</time>
      </trkpt>
      <trkpt lat="45.79441" lon="6.965">
        <ele>1556</ele>
        <time>2022-08-27T07:42:43Z</time>
      </trkpt>
      <trkpt lat="45.7944" lon="6.96501">
        <ele>1556</ele>
        <time>2022-08-27T07:42:44Z</time>
      </trkpt>
      <trkpt lat="45.7944" lon="6.96501">
        <ele>1556</ele>
        <time>2022-08-27T07:42:45Z</time>
      </trkpt>
      <trkpt lat="45.7944" lon="6.96502">
        <ele>1556</ele>
        <time>2022-08-27T07:42:46Z</time>
      </trkpt>
      <trkpt lat="45.79439" lon="6.96502">
        <ele>1556</ele>
        <time>2022-08-27T07:42:47Z</time>
      </trkpt>
      <trkpt lat="45.79439" lon="6.96503">
        <ele>1556</ele>
        <time>2022-08-27T07:42:48Z</time>
      </trkpt>
      <trkpt lat="45.79438" lon="6.96504">
        <ele>1556</ele>
        <time>2022-08-27T07:42:50Z</time>
      </trkpt>
      <trkpt lat="45.79438" lon="6.96504">
        <ele>1556</ele>
        <time>2022-08-27T07:42:51Z</time>
      </trkpt>
      <trkpt lat="45.79438" lon="6.96505">
        <ele>1556</ele>
        <time>2022-08-27T07:42:52Z</time>
      </trkpt>
      <trkpt lat="45.79437" lon="6.96505">
        <ele>1556</ele>
        <time>2022-08-27T07:42:53Z</time>
      </trkpt>
      <trkpt lat="45.79437" lon="6.96506">
        <ele>1556</ele>
        <time>2022-08-27T07:42:54Z</time>
      </trkpt>
      <trkpt lat="45.79436" lon="6.96506">
        <ele>1556</ele>
        <time>2022-08-27T07:42:55Z</time>
      </trkpt>
      <trkpt lat="45.79436" lon="6.96506">
        <ele>1556</ele>
        <time>2022-08-27T07:42:56Z</time>
      </trkpt>
      <trkpt lat="45.79437" lon="6.96506">
        <ele>1556</ele>
        <time>2022-08-27T07:42:57Z</time>
      </trkpt>
      <trkpt lat="45.79437" lon="6.96506">
        <ele>1556</ele>
        <time>2022-08-27T07:42:58Z</time>
      </trkpt>
      <trkpt lat="45.79437" lon="6.96506">
        <ele>1556</ele>
        <time>2022-08-27T07:42:59Z</time>
      </trkpt>
      <trkpt lat="45.79437" lon="6.96506">
        <ele>1556</ele>
        <time>2022-08-27T07:43:00Z</time>
      </trkpt>
      <trkpt lat="45.79437" lon="6.96505">
        <ele>1556</ele>
        <time>2022-08-27T07:43:01Z</time>
      </trkpt>
      <trkpt lat="45.79437" lon="6.96505">
        <ele>1556</ele>
        <time>2022-08-27T07:43:02Z</time>
      </trkpt>
      <trkpt lat="45.79438" lon="6.96505">
        <ele>1556</ele>
        <time>2022-08-27T07:43:03Z</time>
      </trkpt>
      <trkpt lat="45.79438" lon="6.96505">
        <ele>1556</ele>
        <time>2022-08-27T07:43:04Z</time>
      </trkpt>
      <trkpt lat="45.79438" lon="6.96505">
        <ele>1556</ele>
        <time>2022-08-27T07:43:05Z</time>
      </trkpt>
      <trkpt lat="45.79438" lon="6.96505">
        <ele>1556</ele>
        <time>2022-08-27T07:43:06Z</time>
      </trkpt>
      <trkpt lat="45.79438" lon="6.96505">
        <ele>1556</ele>
        <time>2022-08-27T07:43:07Z</time>
      </trkpt>
      <trkpt lat="45.79438" lon="6.96504">
        <ele>1556</ele>
        <time>2022-08-27T07:43:09Z</time>
      </trkpt>
      <trkpt lat="45.79438" lon="6.96504">
        <ele>1556</ele>
        <time>2022-08-27T07:43:10Z</time>
      </trkpt>
      <trkpt lat="45.79439" lon="6.96504">
        <ele>1556</ele>
        <time>2022-08-27T07:43:11Z</time>
      </trkpt>
      <trkpt lat="45.79439" lon="6.96504">
        <ele>1556</ele>
        <time>2022-08-27T07:43:12Z</time>
      </trkpt>
      <trkpt lat="45.79439" lon="6.96504">
        <ele>1556</ele>
        <time>2022-08-27T07:43:13Z</time>
      </trkpt>
      <trkpt lat="45.79439" lon="6.96504">
        <ele>1556</ele>
        <time>2022-08-27T07:43:14Z</time>
      </trkpt>
      <trkpt lat="45.79439" lon="6.96503">
        <ele>1556</ele>
        <time>2022-08-27T07:43:15Z</time>
      </trkpt>
      <trkpt lat="45.79439" lon="6.96503">
        <ele>1556</ele>
        <time>2022-08-27T07:43:16Z</time>
      </trkpt>
      <trkpt lat="45.7944" lon="6.96503">
        <ele>1556</ele>
        <time>2022-08-27T07:43:17Z</time>
      </trkpt>
      <trkpt lat="45.7944" lon="6.96503">
        <ele>1556</ele>
        <time>2022-08-27T07:43:18Z</time>
      </trkpt>
      <trkpt lat="45.7944" lon="6.96503">
        <ele>1556</ele>
        <time>2022-08-27T07:43:19Z</time>
      </trkpt>
      <trkpt lat="45.7944" lon="6.96503">
        <ele>1556</ele>
        <time>2022-08-27T07:43:20Z</time>
      </trkpt>
      <trkpt lat="45.7944" lon="6.96503">
        <ele>1556</ele>
        <time>2022-08-27T07:43:21Z</time>
      </trkpt>
      <trkpt lat="45.7944" lon="6.96502">
        <ele>1556</ele>
        <time>2022-08-27T07:43:22Z</time>
      </trkpt>
      <trkpt lat="45.79441" lon="6.96502">
        <ele>1556</ele>
        <time>2022-08-27T07:43:23Z</time>
      </trkpt>
      <trkpt lat="45.79441" lon="6.96502">
        <ele>1556</ele>
        <time>2022-08-27T07:43:24Z</time>
      </trkpt>
      <trkpt lat="45.79441" lon="6.96502">
        <ele>1556</ele>
        <time>2022-08-27T07:43:25Z</time>
      </trkpt>
      <trkpt lat="45.79441" lon="6.96502">
        <ele>1556</ele>
        <time>2022-08-27T07:43:26Z</time>
      </trkpt>
      <trkpt lat="45.79441" lon="6.96502">
        <ele>1556</ele>
        <time>2022-08-27T07:43:28Z</time>
      </trkpt>
      <trkpt lat="45.79441" lon="6.96502">
        <ele>1556</ele>
        <time>2022-08-27T07:43:29Z</time>
      </trkpt>
      <trkpt lat="45.79441" lon="6.96501">
        <ele>1556</ele>
        <time>2022-08-27T07:43:30Z</time>
      </trkpt>
      <trkpt lat="45.79442" lon="6.96501">
        <ele>1556</ele>
        <time>2022-08-27T07:43:31Z</time>
      </trkpt>
      <trkpt lat="45.79442" lon="6.96501">
        <ele>1556</ele>
        <time>2022-08-27T07:43:32Z</time>
      </trkpt>
      <trkpt lat="45.79442" lon="6.96501">
        <ele>1556</ele>
        <time>2022-08-27T07:43:33Z</time>
      </trkpt>
      <trkpt lat="45.79442" lon="6.96501">
        <ele>1556</ele>
        <time>2022-08-27T07:43:34Z</time>
      </trkpt>
      <trkpt lat="45.79442" lon="6.96501">
        <ele>1556</ele>
        <time>2022-08-27T07:43:35Z</time>
      </trkpt>
      <trkpt lat="45.79442" lon="6.965">
        <ele>1556</ele>
        <time>2022-08-27T07:43:36Z</time>
      </trkpt>
      <trkpt lat="45.79443" lon="6.965">
        <ele>1556</ele>
        <time>2022-08-27T07:43:37Z</time>
      </trkpt>
      <trkpt lat="45.79443" lon="6.965">
        <ele>1556</ele>
        <time>2022-08-27T07:43:38Z</time>
      </trkpt>
      <trkpt lat="45.79443" lon="6.965">
        <ele>1556</ele>
        <time>2022-08-27T07:43:39Z</time>
      </trkpt>
      <trkpt lat="45.79443" lon="6.965">
        <ele>1556</ele>
        <time>2022-08-27T07:43:40Z</time>
      </trkpt>
      <trkpt lat="45.79443" lon="6.965">
        <ele>1556</ele>
        <time>2022-08-27T07:43:41Z</time>
      </trkpt>
      <trkpt lat="45.79443" lon="6.965">
        <ele>1556</ele>
        <time>2022-08-27T07:43:42Z</time>
      </trkpt>
      <trkpt lat="45.79444" lon="6.96499">
        <ele>1556</ele>
        <time>2022-08-27T07:43:43Z</time>
      </trkpt>
      <trkpt lat="45.79444" lon="6.96499">
        <ele>1556</ele>
        <time>2022-08-27T07:43:44Z</time>
      </trkpt>
      <trkpt lat="45.79444" lon="6.96499">
        <ele>1556</ele>
        <time>2022-08-27T07:43:45Z</time>
      </trkpt>
      <trkpt lat="45.79444" lon="6.96499">
        <ele>1556</ele>
        <time>2022-08-27T07:43:47Z</time>
      </trkpt>
      <trkpt lat="45.79444" lon="6.96499">
        <ele>1556</ele>
        <time>2022-08-27T07:43:48Z</time>
      </trkpt>
      <trkpt lat="45.79444" lon="6.96499">
        <ele>1556</ele>
        <time>2022-08-27T07:43:49Z</time>
      </trkpt>
      <trkpt lat="45.79444" lon="6.96498">
        <ele>1556</ele>
        <time>2022-08-27T07:43:50Z</time>
      </trkpt>
      <trkpt lat="45.79445" lon="6.96498">
        <ele>1556</ele>
        <time>2022-08-27T07:43:51Z</time>
      </trkpt>
      <trkpt lat="45.79445" lon="6.96498">
        <ele>1556</ele>
        <time>2022-08-27T07:43:52Z</time>
      </trkpt>
      <trkpt lat="45.79445" lon="6.96498">
        <ele>1556</ele>
        <time>2022-08-27T07:43:53Z</time>
      </trkpt>
      <trkpt lat="45.79445" lon="6.96498">
        <ele>1556</ele>
        <time>2022-08-27T07:43:54Z</time>
      </trkpt>
      <trkpt lat="45.79445" lon="6.96498">
        <ele>1556</ele>
        <time>2022-08-27T07:43:55Z</time>
      </trkpt>
      <trkpt lat="45.79445" lon="6.96498">
        <ele>1556</ele>
        <time>2022-08-27T07:43:56Z</time>
      </trkpt>
      <trkpt lat="45.79446" lon="6.96497">
        <ele>1556</ele>
        <time>2022-08-27T07:43:57Z</time>
      </trkpt>
      <trkpt lat="45.79446" lon="6.96497">
        <ele>1556</ele>
        <time>2022-08-27T07:43:58Z</time>
      </trkpt>
      <trkpt lat="45.79446" lon="6.96497">
        <ele>1556</ele>
        <time>2022-08-27T07:43:59Z</time>
      </trkpt>
      <trkpt lat="45.79446" lon="6.96497">
        <ele>1556</ele>
        <time>2022-08-27T07:44:00Z</time>
      </trkpt>
      <trkpt lat="45.79446" lon="6.96497">
        <ele>1556</ele>
        <time>2022-08-27T07:44:01Z</time>
      </trkpt>
      <trkpt lat="45.79446" lon="6.96497">
        <ele>1556</ele>
        <time>2022-08-27T07:44:02Z</time>
      </trkpt>
      <trkpt lat="45.79446" lon="6.96496">
        <ele>1556</ele>
        <time>2022-08-27T07:44:03Z</time>
      </trkpt>
      <trkpt lat="45.79447" lon="6.96496">
        <ele>1556</ele>
        <time>2022-08-27T07:44:04Z</time>
      </trkpt>
      <trkpt lat="45.79447" lon="6.96496">
        <ele>1556</ele>
        <time>2022-08-27T07:44:06Z</time>
      </trkpt>
      <trkpt lat="45.79447" lon="6.96496">
        <ele>1556</ele>
        <time>2022-08-27T07:44:07Z</time>
      </trkpt>
      <trkpt lat="45.79447" lon="6.96496">
        <ele>1556</ele>
        <time>2022-08-27T07:44:08Z</time>
      </trkpt>
      <trkpt lat="45.79447" lon="6.96496">
        <ele>1556</ele>
        <time>2022-08-27T07:44:09Z</time>
      </trkpt>
      <trkpt lat="45.79447" lon="6.96496">
        <ele>1556</ele>
        <time>2022-08-27T07:44:10Z</time>
      </trkpt>
      <trkpt lat="45.79448" lon="6.96495">
        <ele>1556</ele>
        <time>2022-08-27T07:44:11Z</time>
      </trkpt>
      <trkpt lat="45.79448" lon="6.96495">
        <ele>1556</ele>
        <time>2022-08-27T07:44:12Z</time>
      </trkpt>
      <trkpt lat="45.79448" lon="6.96495">
        <ele>1556</ele>
        <time>2022-08-27T07:44:13Z</time>
      </trkpt>
      <trkpt lat="45.79448" lon="6.96495">
        <ele>1556</ele>
        <time>2022-08-27T07:44:14Z</time>
      </trkpt>
      <trkpt lat="45.79448" lon="6.96495">
        <ele>1556</ele>
        <time>2022-08-27T07:44:15Z</time>
      </trkpt>
      <trkpt lat="45.79448" lon="6.96495">
        <ele>1556</ele>
        <time>2022-08-27T07:44:16Z</time>
      </trkpt>
      <trkpt lat="45.79449" lon="6.96494">
        <ele>1556</ele>
        <time>2022-08-27T07:44:17Z</time>
      </trkpt>
      <trkpt lat="45.79449" lon="6.96494">
        <ele>1556</ele>
        <time>2022-08-27T07:44:18Z</time>
      </trkpt>
      <trkpt lat="45.79449" lon="6.96494">
        <ele>1556</ele>
        <time>2022-08-27T07:44:19Z</time>
      </trkpt>
      <trkpt lat="45.79449" lon="6.96494">
        <ele>1556</ele>
        <time>2022-08-27T07:44:20Z</time>
      </trkpt>
      <trkpt lat="45.79449" lon="6.96494">
        <ele>1556</ele>
        <time>2022-08-27T07:44:21Z</time>
      </trkpt>
      <trkpt lat="45.79449" lon="6.96494">
        <ele>1556</ele>
        <time>2022-08-27T07:44:22Z</time>
      </trkpt>
      <trkpt lat="45.79449" lon="6.96494">
        <ele>1556</ele>
        <time>2022-08-27T07:44:23Z</time>
      </trkpt>
      <trkpt lat="45.7945" lon="6.96493">
        <ele>1556</ele>
        <time>2022-08-27T07:44:25Z</time>
      </trkpt>
      <trkpt lat="45.7945" lon="6.96493">
        <ele>1556</ele>
        <time>2022-08-27T07:44:26Z</time>
      </trkpt>
      <trkpt lat="45.7945" lon="6.96493">
        <ele>1556</ele>
        <time>2022-08-27T07:44:27Z</time>
      </trkpt>
      <trkpt lat="45.7945" lon="6.96493">
        <ele>1556</ele>
        <time>2022-08-27T07:44:28Z</time>
      </trkpt>
      <trkpt lat="45.7945" lon="6.96493">
        <ele>1556</ele>
        <time>2022-08-27T07:44:29Z</time>
      </trkpt>
      <trkpt lat="45.7945" lon="6.96493">
        <ele>1556</ele>
        <time>2022-08-27T07:44:30Z</time>
      </trkpt>
      <trkpt lat="45.79451" lon="6.96492">
        <ele>1556</ele>
        <time>2022-08-27T07:44:31Z</time>
      </trkpt>
      <trkpt lat="45.79451" lon="6.96492">
        <ele>1556</ele>
        <time>2022-08-27T07:44:32Z</time>
      </trkpt>
      <trkpt lat="45.79451" lon="6.96492">
        <ele>1556</ele>
        <time>2022-08-27T07:44:33Z</time>
      </trkpt>
      <trkpt lat="45.79451" lon="6.96492">
        <ele>1556</ele>
        <time>2022-08-27T07:44:34Z</time>
      </trkpt>
      <trkpt lat="45.79451" lon="6.96492">
        <ele>1556</ele>
        <time>2022-08-27T07:44:35Z</time>
      </trkpt>
      <trkpt lat="45.79451" lon="6.96492">
        <ele>1556</ele>
        <time>2022-08-27T07:44:36Z</time>
      </trkpt>
      <trkpt lat="45.79452" lon="6.96492">
        <ele>1556</ele>
        <time>2022-08-27T07:44:37Z</time>
      </trkpt>
      <trkpt lat="45.79452" lon="6.96491">
        <ele>1556</ele>
        <time>2022-08-27T07:44:38Z</time>
      </trkpt>
      <trkpt lat="45.79452" lon="6.96491">
        <ele>1556</ele>
        <time>2022-08-27T07:44:39Z</time>
      </trkpt>
      <trkpt lat="45.79452" lon="6.96491">
        <ele>1556</ele>
        <time>2022-08-27T07:44:40Z</time>
      </trkpt>
      <trkpt lat="45.79452" lon="6.96491">
        <ele>1556</ele>
        <time>2022-08-27T07:44:41Z</time>
      </trkpt>
      <trkpt lat="45.79452" lon="6.96491">
        <ele>1556</ele>
        <time>2022-08-27T07:44:42Z</time>
      </trkpt>
      <trkpt lat="45.79452" lon="6.96491">
        <ele>1556</ele>
        <time>2022-08-27T07:44:44Z</time>
      </trkpt>
      <trkpt lat="45.79453" lon="6.9649">
        <ele>1556</ele>
        <time>2022-08-27T07:44:45Z</time>
      </trkpt>
      <trkpt lat="45.79453" lon="6.9649">
        <ele>1556</ele>
        <time>2022-08-27T07:44:46Z</time>
      </trkpt>
      <trkpt lat="45.79453" lon="6.9649">
        <ele>1556</ele>
        <time>2022-08-27T07:44:47Z</time>
      </trkpt>
      <trkpt lat="45.79453" lon="6.9649">
        <ele>1556</ele>
        <time>2022-08-27T07:44:48Z</time>
      </trkpt>
      <trkpt lat="45.79453" lon="6.9649">
        <ele>1556</ele>
        <time>2022-08-27T07:44:49Z</time>
      </trkpt>
      <trkpt lat="45.79453" lon="6.9649">
        <ele>1556</ele>
        <time>2022-08-27T07:44:50Z</time>
      </trkpt>
      <trkpt lat="45.79454" lon="6.9649">
        <ele>1556</ele>
        <time>2022-08-27T07:44:51Z</time>
      </trkpt>
      <trkpt lat="45.79454" lon="6.96489">
        <ele>1556</ele>
        <time>2022-08-27T07:44:52Z</time>
      </trkpt>
      <trkpt lat="45.79454" lon="6.96489">
        <ele>1556</ele>
        <time>2022-08-27T07:44:53Z</time>
      </trkpt>
      <trkpt lat="45.79454" lon="6.96489">
        <ele>1556</ele>
        <time>2022-08-27T07:44:54Z</time>
      </trkpt>
      <trkpt lat="45.79454" lon="6.96489">
        <ele>1556</ele>
        <time>2022-08-27T07:44:55Z</time>
      </trkpt>
      <trkpt lat="45.79454" lon="6.96489">
        <ele>1556</ele>
        <time>2022-08-27T07:44:56Z</time>
      </trkpt>
      <trkpt lat="45.79454" lon="6.96489">
        <ele>1556</ele>
        <time>2022-08-27T07:44:57Z</time>
      </trkpt>
      <trkpt lat="45.79455" lon="6.96488">
        <ele>1556</ele>
        <time>2022-08-27T07:44:58Z</time>
      </trkpt>
      <trkpt lat="45.79455" lon="6.96488">
        <ele>1556</ele>
        <time>2022-08-27T07:44:59Z</time>
      </trkpt>
      <trkpt lat="45.79455" lon="6.96488">
        <ele>1556</ele>
        <time>2022-08-27T07:45:00Z</time>
      </trkpt>
      <trkpt lat="45.79455" lon="6.96488">
        <ele>1556</ele>
        <time>2022-08-27T07:45:01Z</time>
      </trkpt>
      <trkpt lat="45.79455" lon="6.96488">
        <ele>1556</ele>
        <time>2022-08-27T07:45:03Z</time>
      </trkpt>
      <trkpt lat="45.79455" lon="6.96488">
        <ele>1556</ele>
        <time>2022-08-27T07:45:04Z</time>
      </trkpt>
      <trkpt lat="45.79456" lon="6.96488">
        <ele>1556</ele>
        <time>2022-08-27T07:45:05Z</time>
      </trkpt>
      <trkpt lat="45.79456" lon="6.96487">
        <ele>1556</ele>
        <time>2022-08-27T07:45:06Z</time>
      </trkpt>
      <trkpt lat="45.79456" lon="6.96487">
        <ele>1556</ele>
        <time>2022-08-27T07:45:07Z</time>
      </trkpt>
      <trkpt lat="45.79456" lon="6.96487">
        <ele>1556</ele>
        <time>2022-08-27T07:45:08Z</time>
      </trkpt>
      <trkpt lat="45.79456" lon="6.96487">
        <ele>1556</ele>
        <time>2022-08-27T07:45:09Z</time>
      </trkpt>
      <trkpt lat="45.79456" lon="6.96487">
        <ele>1556</ele>
        <time>2022-08-27T07:45:10Z</time>
      </trkpt>
      <trkpt lat="45.79457" lon="6.96487">
        <ele>1556</ele>
        <time>2022-08-27T07:45:11Z</time>
      </trkpt>
      <trkpt lat="45.79457" lon="6.96486">
        <ele>1556</ele>
        <time>2022-08-27T07:45:12Z</time>
      </trkpt>
      <trkpt lat="45.79457" lon="6.96486">
        <ele>1556</ele>
        <time>2022-08-27T07:45:13Z</time>
      </trkpt>
      <trkpt lat="45.79457" lon="6.96486">
        <ele>1556</ele>
        <time>2022-08-27T07:45:14Z</time>
      </trkpt>
      <trkpt lat="45.79457" lon="6.96486">
        <ele>1556</ele>
        <time>2022-08-27T07:45:15Z</time>
      </trkpt>
      <trkpt lat="45.79457" lon="6.96486">
        <ele>1556</ele>
        <time>2022-08-27T07:45:16Z</time>
      </trkpt>
      <trkpt lat="45.79457" lon="6.96486">
        <ele>1556</ele>
        <time>2022-08-27T07:45:17Z</time>
      </trkpt>
      <trkpt lat="45.79458" lon="6.96486">
        <ele>1556</ele>
        <time>2022-08-27T07:45:18Z</time>
      </trkpt>
      <trkpt lat="45.79458" lon="6.96485">
        <ele>1556</ele>
        <time>2022-08-27T07:45:19Z</time>
      </trkpt>
      <trkpt lat="45.79458" lon="6.96485">
        <ele>1556</ele>
        <time>2022-08-27T07:45:20Z</time>
      </trkpt>
      <trkpt lat="45.79458" lon="6.96485">
        <ele>1556</ele>
        <time>2022-08-27T07:45:22Z</time>
      </trkpt>
      <trkpt lat="45.79458" lon="6.96485">
        <ele>1556</ele>
        <time>2022-08-27T07:45:23Z</time>
      </trkpt>
      <trkpt lat="45.79458" lon="6.96485">
        <ele>1556</ele>
        <time>2022-08-27T07:45:24Z</time>
      </trkpt>
      <trkpt lat="45.79459" lon="6.96485">
        <ele>1556</ele>
        <time>2022-08-27T07:45:25Z</time>
      </trkpt>
      <trkpt lat="45.79459" lon="6.96485">
        <ele>1556</ele>
        <time>2022-08-27T07:45:26Z</time>
      </trkpt>
      <trkpt lat="45.79459" lon="6.96484">
        <ele>1556</ele>
        <time>2022-08-27T07:45:27Z</time>
      </trkpt>
      <trkpt lat="45.79459" lon="6.96484">
        <ele>1556</ele>
        <time>2022-08-27T07:45:28Z</time>
      </trkpt>
      <trkpt lat="45.79459" lon="6.96484">
        <ele>1556</ele>
        <time>2022-08-27T07:45:29Z</time>
      </trkpt>
      <trkpt lat="45.79459" lon="6.96484">
        <ele>1556</ele>
        <time>2022-08-27T07:45:30Z</time>
      </trkpt>
      <trkpt lat="45.7946" lon="6.96484">
        <ele>1556</ele>
        <time>2022-08-27T07:45:31Z</time>
      </trkpt>
      <trkpt lat="45.7946" lon="6.96484">
        <ele>1556</ele>
        <time>2022-08-27T07:45:32Z</time>
      </trkpt>
      <trkpt lat="45.7946" lon="6.96483">
        <ele>1556</ele>
        <time>2022-08-27T07:45:33Z</time>
      </trkpt>
      <trkpt lat="45.7946" lon="6.96483">
        <ele>1556</ele>
        <time>2022-08-27T07:45:34Z</time>
      </trkpt>
      <trkpt lat="45.7946" lon="6.96483">
        <ele>1556</ele>
        <time>2022-08-27T07:45:35Z</time>
      </trkpt>
      <trkpt lat="45.7946" lon="6.96483">
        <ele>1556</ele>
        <time>2022-08-27T07:45:36Z</time>
      </trkpt>
      <trkpt lat="45.7946" lon="6.96483">
        <ele>1556</ele>
        <time>2022-08-27T07:45:37Z</time>
      </trkpt>
      <trkpt lat="45.79461" lon="6.96483">
        <ele>1556</ele>
        <time>2022-08-27T07:45:38Z</time>
      </trkpt>
      <trkpt lat="45.79461" lon="6.96483">
        <ele>1556</ele>
        <time>2022-08-27T07:45:39Z</time>
      </trkpt>
      <trkpt lat="45.79461" lon="6.96482">
        <ele>1556</ele>
        <time>2022-08-27T07:45:41Z</time>
      </trkpt>
      <trkpt lat="45.79461" lon="6.96482">
        <ele>1556</ele>
        <time>2022-08-27T07:45:42Z</time>
      </trkpt>
      <trkpt lat="45.79461" lon="6.96482">
        <ele>1556</ele>
        <time>2022-08-27T07:45:43Z</time>
      </trkpt>
      <trkpt lat="45.79461" lon="6.96482">
        <ele>1556</ele>
        <time>2022-08-27T07:45:44Z</time>
      </trkpt>
      <trkpt lat="45.79462" lon="6.96482">
        <ele>1556</ele>
        <time>2022-08-27T07:45:45Z</time>
      </trkpt>
      <trkpt lat="45.79462" lon="6.96482">
        <ele>1556</ele>
        <time>2022-08-27T07:45:46Z</time>
      </trkpt>
      <trkpt lat="45.79462" lon="6.96481">
        <ele>1556</ele>
        <time>2022-08-27T07:45:47Z</time>
      </trkpt>
      <trkpt lat="45.79462" lon="6.96481">
        <ele>1556</ele>
        <time>2022-08-27T07:45:48Z</time>
      </trkpt>
      <trkpt lat="45.79462" lon="6.96481">
        <ele>1556</ele>
        <time>2022-08-27T07:45:49Z</time>
      </trkpt>
      <trkpt lat="45.79462" lon="6.96481">
        <ele>1556</ele>
        <time>2022-08-27T07:45:50Z</time>
      </trkpt>
      <trkpt lat="45.79462" lon="6.96481">
        <ele>1556</ele>
        <time>2022-08-27T07:45:51Z</time>
      </trkpt>
      <trkpt lat="45.79463" lon="6.96481">
        <ele>1556</ele>
        <time>2022-08-27T07:45:52Z</time>
      </trkpt>
      <trkpt lat="45.79463" lon="6.96481">
        <ele>1556</ele>
        <time>2022-08-27T07:45:53Z</time>
      </trkpt>
      <trkpt lat="45.79463" lon="6.9648">
        <ele>1556</ele>
        <time>2022-08-27T07:45:54Z</time>
      </trkpt>
      <trkpt lat="45.79463" lon="6.9648">
        <ele>1556</ele>
        <time>2022-08-27T07:45:55Z</time>
      </trkpt>
      <trkpt lat="45.79463" lon="6.9648">
        <ele>1556</ele>
        <time>2022-08-27T07:45:56Z</time>
      </trkpt>
      <trkpt lat="45.79463" lon="6.9648">
        <ele>1556</ele>
        <time>2022-08-27T07:45:57Z</time>
      </trkpt>
      <trkpt lat="45.79464" lon="6.9648">
        <ele>1556</ele>
        <time>2022-08-27T07:45:58Z</time>
      </trkpt>
      <trkpt lat="45.79464" lon="6.9648">
        <ele>1556</ele>
        <time>2022-08-27T07:46:00Z</time>
      </trkpt>
      <trkpt lat="45.79464" lon="6.96479">
        <ele>1556</ele>
        <time>2022-08-27T07:46:01Z</time>
      </trkpt>
      <trkpt lat="45.79464" lon="6.96479">
        <ele>1556</ele>
        <time>2022-08-27T07:46:02Z</time>
      </trkpt>
      <trkpt lat="45.79464" lon="6.96479">
        <ele>1556</ele>
        <time>2022-08-27T07:46:03Z</time>
      </trkpt>
      <trkpt lat="45.79464" lon="6.96479">
        <ele>1556</ele>
        <time>2022-08-27T07:46:04Z</time>
      </trkpt>
      <trkpt lat="45.79465" lon="6.96479">
        <ele>1556</ele>
        <time>2022-08-27T07:46:05Z</time>
      </trkpt>
      <trkpt lat="45.79465" lon="6.96479">
        <ele>1556</ele>
        <time>2022-08-27T07:46:06Z</time>
      </trkpt>
      <trkpt lat="45.79465" lon="6.96479">
        <ele>1556</ele>
        <time>2022-08-27T07:46:07Z</time>
      </trkpt>
      <trkpt lat="45.79465" lon="6.96478">
        <ele>1556</ele>
        <time>2022-08-27T07:46:08Z</time>
      </trkpt>
      <trkpt lat="45.79465" lon="6.96478">
        <ele>1556</ele>
        <time>2022-08-27T07:46:09Z</time>
      </trkpt>
      <trkpt lat="45.79465" lon="6.96478">
        <ele>1556</ele>
        <time>2022-08-27T07:46:10Z</time>
      </trkpt>
      <trkpt lat="45.79465" lon="6.96478">
        <ele>1556</ele>
        <time>2022-08-27T07:46:11Z</time>
      </trkpt>
      <trkpt lat="45.79466" lon="6.96478">
        <ele>1556</ele>
        <time>2022-08-27T07:46:12Z</time>
      </trkpt>
      <trkpt lat="45.79466" lon="6.96478">
        <ele>1556</ele>
        <time>2022-08-27T07:46:13Z</time>
      </trkpt>
      <trkpt lat="45.79466" lon="6.96477">
        <ele>1556</ele>
        <time>2022-08-27T07:46:14Z</time>
      </trkpt>
      <trkpt lat="45.79466" lon="6.96477">
        <ele>1556</ele>
        <time>2022-08-27T07:46:15Z</time>
      </trkpt>
      <trkpt lat="45.79466" lon="6.96477">
        <ele>1556</ele>
        <time>2022-08-27T07:46:16Z</time>
      </trkpt>
      <trkpt lat="45.79466" lon="6.96477">
        <ele>1556</ele>
        <time>2022-08-27T07:46:17Z</time>
      </trkpt>
      <trkpt lat="45.79467" lon="6.96477">
        <ele>1556</ele>
        <time>2022-08-27T07:46:19Z</time>
      </trkpt>
      <trkpt lat="45.79467" lon="6.96477">
        <ele>1556</ele>
        <time>2022-08-27T07:46:20Z</time>
      </trkpt>
      <trkpt lat="45.79467" lon="6.96477">
        <ele>1556</ele>
        <time>2022-08-27T07:46:21Z</time>
      </trkpt>
      <trkpt lat="45.79467" lon="6.96476">
        <ele>1556</ele>
        <time>2022-08-27T07:46:22Z</time>
      </trkpt>
      <trkpt lat="45.79467" lon="6.96476">
        <ele>1556</ele>
        <time>2022-08-27T07:46:23Z</time>
      </trkpt>
      <trkpt lat="45.79467" lon="6.96476">
        <ele>1556</ele>
        <time>2022-08-27T07:46:24Z</time>
      </trkpt>
      <trkpt lat="45.79468" lon="6.96476">
        <ele>1556</ele>
        <time>2022-08-27T07:46:25Z</time>
      </trkpt>
      <trkpt lat="45.79468" lon="6.96476">
        <ele>1556</ele>
        <time>2022-08-27T07:46:26Z</time>
      </trkpt>
      <trkpt lat="45.79468" lon="6.96476">
        <ele>1556</ele>
        <time>2022-08-27T07:46:27Z</time>
      </trkpt>
      <trkpt lat="45.79468" lon="6.96475">
        <ele>1556</ele>
        <time>2022-08-27T07:46:28Z</time>
      </trkpt>
      <trkpt lat="45.79468" lon="6.96475">
        <ele>1556</ele>
        <time>2022-08-27T07:46:29Z</time>
      </trkpt>
      <trkpt lat="45.79468" lon="6.96475">
        <ele>1556</ele>
        <time>2022-08-27T07:46:30Z</time>
      </trkpt>
      <trkpt lat="45.79468" lon="6.96475">
        <ele>1556</ele>
        <time>2022-08-27T07:46:31Z</time>
      </trkpt>
      <trkpt lat="45.79469" lon="6.96475">
        <ele>1556</ele>
        <time>2022-08-27T07:46:32Z</time>
      </trkpt>
      <trkpt lat="45.79469" lon="6.96475">
        <ele>1556</ele>
        <time>2022-08-27T07:46:33Z</time>
      </trkpt>
      <trkpt lat="45.79469" lon="6.96475">
        <ele>1556</ele>
        <time>2022-08-27T07:46:34Z</time>
      </trkpt>
      <trkpt lat="45.79469" lon="6.96474">
        <ele>1556</ele>
        <time>2022-08-27T07:46:35Z</time>
      </trkpt>
      <trkpt lat="45.79469" lon="6.96474">
        <ele>1556</ele>
        <time>2022-08-27T07:46:36Z</time>
      </trkpt>
      <trkpt lat="45.79469" lon="6.96474">
        <ele>1556</ele>
        <time>2022-08-27T07:46:38Z</time>
      </trkpt>
      <trkpt lat="45.7947" lon="6.96474">
        <ele>1556</ele>
        <time>2022-08-27T07:46:39Z</time>
      </trkpt>
      <trkpt lat="45.7947" lon="6.96474">
        <ele>1556</ele>
        <time>2022-08-27T07:46:40Z</time>
      </trkpt>
      <trkpt lat="45.7947" lon="6.96474">
        <ele>1556</ele>
        <time>2022-08-27T07:46:41Z</time>
      </trkpt>
      <trkpt lat="45.7947" lon="6.96473">
        <ele>1556</ele>
        <time>2022-08-27T07:46:42Z</time>
      </trkpt>
      <trkpt lat="45.7947" lon="6.96473">
        <ele>1556</ele>
        <time>2022-08-27T07:46:43Z</time>
      </trkpt>
      <trkpt lat="45.7947" lon="6.96473">
        <ele>1556</ele>
        <time>2022-08-27T07:46:44Z</time>
      </trkpt>
      <trkpt lat="45.7947" lon="6.96473">
        <ele>1556</ele>
        <time>2022-08-27T07:46:45Z</time>
      </trkpt>
      <trkpt lat="45.79471" lon="6.96473">
        <ele>1556</ele>
        <time>2022-08-27T07:46:46Z</time>
      </trkpt>
      <trkpt lat="45.79471" lon="6.96473">
        <ele>1556</ele>
        <time>2022-08-27T07:46:47Z</time>
      </trkpt>
      <trkpt lat="45.79471" lon="6.96473">
        <ele>1556</ele>
        <time>2022-08-27T07:46:48Z</time>
      </trkpt>
      <trkpt lat="45.79471" lon="6.96472">
        <ele>1556</ele>
        <time>2022-08-27T07:46:49Z</time>
      </trkpt>
      <trkpt lat="45.79471" lon="6.96472">
        <ele>1556</ele>
        <time>2022-08-27T07:46:50Z</time>
      </trkpt>
      <trkpt lat="45.79471" lon="6.96472">
        <ele>1556</ele>
        <time>2022-08-27T07:46:51Z</time>
      </trkpt>
      <trkpt lat="45.79472" lon="6.96472">
        <ele>1556</ele>
        <time>2022-08-27T07:46:52Z</time>
      </trkpt>
      <trkpt lat="45.79472" lon="6.96472">
        <ele>1556</ele>
        <time>2022-08-27T07:46:53Z</time>
      </trkpt>
      <trkpt lat="45.79472" lon="6.96472">
        <ele>1556</ele>
        <time>2022-08-27T07:46:54Z</time>
      </trkpt>
      <trkpt lat="45.79472" lon="6.96471">
        <ele>1556</ele>
        <time>2022-08-27T07:46:55Z</time>
      </trkpt>
      <trkpt lat="45.79472" lon="6.96471">
        <ele>1556</ele>
        <time>2022-08-27T07:46:57Z</time>
      </trkpt>
      <trkpt lat="45.79472" lon="6.96471">
        <ele>1556</ele>
        <time>2022-08-27T07:46:58Z</time>
      </trkpt>
      <trkpt lat="45.79473" lon="6.96471">
        <ele>1556</ele>
        <time>2022-08-27T07:46:59Z</time>
      </trkpt>
      <trkpt lat="45.79473" lon="6.96471">
        <ele>1556</ele>
        <time>2022-08-27T07:47:00Z</time>
      </trkpt>
      <trkpt lat="45.79473" lon="6.96471">
        <ele>1556</ele>
        <time>2022-08-27T07:47:01Z</time>
      </trkpt>
      <trkpt lat="45.79473" lon="6.96471">
        <ele>1556</ele>
        <time>2022-08-27T07:47:02Z</time>
      </trkpt>
      <trkpt lat="45.79465" lon="6.96476">
        <ele>1556</ele>
        <time>2022-08-27T07:47:03Z</time>
      </trkpt>
      <trkpt lat="45.79463" lon="6.96477">
        <ele>1556</ele>
        <time>2022-08-27T07:47:04Z</time>
      </trkpt>
      <trkpt lat="45.79456" lon="6.96481">
        <ele>1556</ele>
        <time>2022-08-27T07:47:06Z</time>
      </trkpt>
      <trkpt lat="45.79456" lon="6.96483">
        <ele>1556</ele>
        <time>2022-08-27T07:47:07Z</time>
      </trkpt>
      <trkpt lat="45.79455" lon="6.96484">
        <ele>1556</ele>
        <time>2022-08-27T07:47:08Z</time>
      </trkpt>
      <trkpt lat="45.79455" lon="6.96485">
        <ele>1556</ele>
        <time>2022-08-27T07:47:09Z</time>
      </trkpt>
      <trkpt lat="45.79454" lon="6.96486">
        <ele>1556</ele>
        <time>2022-08-27T07:47:10Z</time>
      </trkpt>
      <trkpt lat="45.79454" lon="6.96487">
        <ele>1556</ele>
        <time>2022-08-27T07:47:11Z</time>
      </trkpt>
      <trkpt lat="45.79454" lon="6.96488">
        <ele>1556</ele>
        <time>2022-08-27T07:47:12Z</time>
      </trkpt>
      <trkpt lat="45.79453" lon="6.9649">
        <ele>1556</ele>
        <time>2022-08-27T07:47:13Z</time>
      </trkpt>
      <trkpt lat="45.79453" lon="6.96491">
        <ele>1556</ele>
        <time>2022-08-27T07:47:14Z</time>
      </trkpt>
      <trkpt lat="45.79452" lon="6.96492">
        <ele>1556</ele>
        <time>2022-08-27T07:47:16Z</time>
      </trkpt>
      <trkpt lat="45.79452" lon="6.96493">
        <ele>1556</ele>
        <time>2022-08-27T07:47:17Z</time>
      </trkpt>
      <trkpt lat="45.79451" lon="6.96494">
        <ele>1556</ele>
        <time>2022-08-27T07:47:18Z</time>
      </trkpt>
      <trkpt lat="45.79451" lon="6.96496">
        <ele>1556</ele>
        <time>2022-08-27T07:47:19Z</time>
      </trkpt>
      <trkpt lat="45.79451" lon="6.96497">
        <ele>1556</ele>
        <time>2022-08-27T07:47:20Z</time>
      </trkpt>
      <trkpt lat="45.7945" lon="6.96498">
        <ele>1556</ele>
        <time>2022-08-27T07:47:21Z</time>
      </trkpt>
      <trkpt lat="45.7945" lon="6.96499">
        <ele>1556</ele>
        <time>2022-08-27T07:47:22Z</time>
      </trkpt>
      <trkpt lat="45.79449" lon="6.965">
        <ele>1556</ele>
        <time>2022-08-27T07:47:23Z</time>
      </trkpt>
      <trkpt lat="45.79449" lon="6.96501">
        <ele>1556</ele>
        <time>2022-08-27T07:47:24Z</time>
      </trkpt>
      <trkpt lat="45.79448" lon="6.96503">
        <ele>1556</ele>
        <time>2022-08-27T07:47:25Z</time>
      </trkpt>
      <trkpt lat="45.79448" lon="6.96504">
        <ele>1556</ele>
        <time>2022-08-27T07:47:26Z</time>
      </trkpt>
      <trkpt lat="45.79447" lon="6.96505">
        <ele>1556</ele>
        <time>2022-08-27T07:47:27Z</time>
      </trkpt>
      <trkpt lat="45.79447" lon="6.96506">
        <ele>1556</ele>
        <time>2022-08-27T07:47:28Z</time>
      </trkpt>
      <trkpt lat="45.79447" lon="6.96507">
        <ele>1556</ele>
        <time>2022-08-27T07:47:29Z</time>
      </trkpt>
      <trkpt lat="45.79446" lon="6.96508">
        <ele>1556</ele>
        <time>2022-08-27T07:47:30Z</time>
      </trkpt>
      <trkpt lat="45.79446" lon="6.9651">
        <ele>1556</ele>
        <time>2022-08-27T07:47:31Z</time>
      </trkpt>
      <trkpt lat="45.79445" lon="6.96511">
        <ele>1556</ele>
        <time>2022-08-27T07:47:32Z</time>
      </trkpt>
      <trkpt lat="45.79445" lon="6.96512">
        <ele>1556</ele>
        <time>2022-08-27T07:47:33Z</time>
      </trkpt>
      <trkpt lat="45.79444" lon="6.96513">
        <ele>1556</ele>
        <time>2022-08-27T07:47:34Z</time>
      </trkpt>
      <trkpt lat="45.79444" lon="6.96514">
        <ele>1556</ele>
        <time>2022-08-27T07:47:36Z</time>
      </trkpt>
      <trkpt lat="45.79451" lon="6.96505">
        <ele>1556</ele>
        <time>2022-08-27T07:47:37Z</time>
      </trkpt>
      <trkpt lat="45.79451" lon="6.96504">
        <ele>1556</ele>
        <time>2022-08-27T07:47:39Z</time>
      </trkpt>
      <trkpt lat="45.79452" lon="6.96503">
        <ele>1556</ele>
        <time>2022-08-27T07:47:40Z</time>
      </trkpt>
      <trkpt lat="45.79452" lon="6.96502">
        <ele>1556</ele>
        <time>2022-08-27T07:47:41Z</time>
      </trkpt>
      <trkpt lat="45.79452" lon="6.96501">
        <ele>1556</ele>
        <time>2022-08-27T07:47:42Z</time>
      </trkpt>
      <trkpt lat="45.79452" lon="6.96501">
        <ele>1556</ele>
        <time>2022-08-27T07:47:43Z</time>
      </trkpt>
      <trkpt lat="45.79452" lon="6.965">
        <ele>1556</ele>
        <time>2022-08-27T07:47:44Z</time>
      </trkpt>
      <trkpt lat="45.79452" lon="6.96499">
        <ele>1556</ele>
        <time>2022-08-27T07:47:45Z</time>
      </trkpt>
      <trkpt lat="45.79452" lon="6.96498">
        <ele>1556</ele>
        <time>2022-08-27T07:47:46Z</time>
      </trkpt>
      <trkpt lat="45.79452" lon="6.96497">
        <ele>1556</ele>
        <time>2022-08-27T07:47:47Z</time>
      </trkpt>
      <trkpt lat="45.79452" lon="6.96496">
        <ele>1556</ele>
        <time>2022-08-27T07:47:48Z</time>
      </trkpt>
      <trkpt lat="45.79452" lon="6.96495">
        <ele>1556</ele>
        <time>2022-08-27T07:47:49Z</time>
      </trkpt>
      <trkpt lat="45.79453" lon="6.96494">
        <ele>1556</ele>
        <time>2022-08-27T07:47:50Z</time>
      </trkpt>
      <trkpt lat="45.79453" lon="6.96493">
        <ele>1556</ele>
        <time>2022-08-27T07:47:51Z</time>
      </trkpt>
      <trkpt lat="45.79453" lon="6.96492">
        <ele>1556</ele>
        <time>2022-08-27T07:47:52Z</time>
      </trkpt>
      <trkpt lat="45.79453" lon="6.96491">
        <ele>1556</ele>
        <time>2022-08-27T07:47:54Z</time>
      </trkpt>
      <trkpt lat="45.79453" lon="6.96491">
        <ele>1556</ele>
        <time>2022-08-27T07:47:55Z</time>
      </trkpt>
      <trkpt lat="45.79453" lon="6.9649">
        <ele>1556</ele>
        <time>2022-08-27T07:47:56Z</time>
      </trkpt>
      <trkpt lat="45.79453" lon="6.96489">
        <ele>1556</ele>
        <time>2022-08-27T07:47:57Z</time>
      </trkpt>
      <trkpt lat="45.79453" lon="6.96488">
        <ele>1556</ele>
        <time>2022-08-27T07:47:58Z</time>
      </trkpt>
      <trkpt lat="45.79453" lon="6.96487">
        <ele>1556</ele>
        <time>2022-08-27T07:47:59Z</time>
      </trkpt>
      <trkpt lat="45.79453" lon="6.96486">
        <ele>1556</ele>
        <time>2022-08-27T07:48:00Z</time>
      </trkpt>
      <trkpt lat="45.79454" lon="6.96485">
        <ele>1556</ele>
        <time>2022-08-27T07:48:01Z</time>
      </trkpt>
      <trkpt lat="45.79454" lon="6.96484">
        <ele>1556</ele>
        <time>2022-08-27T07:48:02Z</time>
      </trkpt>
      <trkpt lat="45.79454" lon="6.96483">
        <ele>1556</ele>
        <time>2022-08-27T07:48:03Z</time>
      </trkpt>
      <trkpt lat="45.79454" lon="6.96482">
        <ele>1556</ele>
        <time>2022-08-27T07:48:04Z</time>
      </trkpt>
      <trkpt lat="45.79454" lon="6.96481">
        <ele>1556</ele>
        <time>2022-08-27T07:48:05Z</time>
      </trkpt>
      <trkpt lat="45.79454" lon="6.96481">
        <ele>1556</ele>
        <time>2022-08-27T07:48:06Z</time>
      </trkpt>
      <trkpt lat="45.79454" lon="6.9648">
        <ele>1556</ele>
        <time>2022-08-27T07:48:07Z</time>
      </trkpt>
      <trkpt lat="45.79454" lon="6.96479">
        <ele>1556</ele>
        <time>2022-08-27T07:48:08Z</time>
      </trkpt>
      <trkpt lat="45.79454" lon="6.96478">
        <ele>1556</ele>
        <time>2022-08-27T07:48:09Z</time>
      </trkpt>
      <trkpt lat="45.79455" lon="6.96477">
        <ele>1556</ele>
        <time>2022-08-27T07:48:10Z</time>
      </trkpt>
      <trkpt lat="45.79455" lon="6.96476">
        <ele>1556</ele>
        <time>2022-08-27T07:48:11Z</time>
      </trkpt>
      <trkpt lat="45.79455" lon="6.96475">
        <ele>1556</ele>
        <time>2022-08-27T07:48:13Z</time>
      </trkpt>
      <trkpt lat="45.79455" lon="6.96474">
        <ele>1556</ele>
        <time>2022-08-27T07:48:14Z</time>
      </trkpt>
      <trkpt lat="45.79455" lon="6.96473">
        <ele>1556</ele>
        <time>2022-08-27T07:48:15Z</time>
      </trkpt>
      <trkpt lat="45.79455" lon="6.96472">
        <ele>1556</ele>
        <time>2022-08-27T07:48:16Z</time>
      </trkpt>
      <trkpt lat="45.79455" lon="6.96471">
        <ele>1556</ele>
        <time>2022-08-27T07:48:17Z</time>
      </trkpt>
      <trkpt lat="45.79455" lon="6.9647">
        <ele>1556</ele>
        <time>2022-08-27T07:48:18Z</time>
      </trkpt>
      <trkpt lat="45.79455" lon="6.9647">
        <ele>1556</ele>
        <time>2022-08-27T07:48:19Z</time>
      </trkpt>
      <trkpt lat="45.79455" lon="6.96469">
        <ele>1556</ele>
        <time>2022-08-27T07:48:20Z</time>
      </trkpt>
      <trkpt lat="45.79456" lon="6.96468">
        <ele>1556</ele>
        <time>2022-08-27T07:48:21Z</time>
      </trkpt>
      <trkpt lat="45.79456" lon="6.96467">
        <ele>1556</ele>
        <time>2022-08-27T07:48:22Z</time>
      </trkpt>
      <trkpt lat="45.79456" lon="6.96466">
        <ele>1556</ele>
        <time>2022-08-27T07:48:23Z</time>
      </trkpt>
      <trkpt lat="45.79456" lon="6.96465">
        <ele>1556</ele>
        <time>2022-08-27T07:48:24Z</time>
      </trkpt>
      <trkpt lat="45.79456" lon="6.96464">
        <ele>1556</ele>
        <time>2022-08-27T07:48:25Z</time>
      </trkpt>
      <trkpt lat="45.79456" lon="6.96463">
        <ele>1556</ele>
        <time>2022-08-27T07:48:26Z</time>
      </trkpt>
      <trkpt lat="45.79456" lon="6.96462">
        <ele>1556</ele>
        <time>2022-08-27T07:48:27Z</time>
      </trkpt>
      <trkpt lat="45.79456" lon="6.96461">
        <ele>1556</ele>
        <time>2022-08-27T07:48:28Z</time>
      </trkpt>
      <trkpt lat="45.79456" lon="6.9646">
        <ele>1556</ele>
        <time>2022-08-27T07:48:29Z</time>
      </trkpt>
      <trkpt lat="45.79457" lon="6.9646">
        <ele>1556</ele>
        <time>2022-08-27T07:48:30Z</time>
      </trkpt>
      <trkpt lat="45.79457" lon="6.96459">
        <ele>1556</ele>
        <time>2022-08-27T07:48:32Z</time>
      </trkpt>
      <trkpt lat="45.79457" lon="6.96458">
        <ele>1556</ele>
        <time>2022-08-27T07:48:33Z</time>
      </trkpt>
      <trkpt lat="45.79457" lon="6.96457">
        <ele>1556</ele>
        <time>2022-08-27T07:48:34Z</time>
      </trkpt>
      <trkpt lat="45.79457" lon="6.96456">
        <ele>1556</ele>
        <time>2022-08-27T07:48:35Z</time>
      </trkpt>
      <trkpt lat="45.79457" lon="6.96455">
        <ele>1556</ele>
        <time>2022-08-27T07:48:36Z</time>
      </trkpt>
      <trkpt lat="45.79457" lon="6.96454">
        <ele>1556</ele>
        <time>2022-08-27T07:48:37Z</time>
      </trkpt>
      <trkpt lat="45.79457" lon="6.96453">
        <ele>1556</ele>
        <time>2022-08-27T07:48:38Z</time>
      </trkpt>
      <trkpt lat="45.79457" lon="6.96452">
        <ele>1556</ele>
        <time>2022-08-27T07:48:39Z</time>
      </trkpt>
      <trkpt lat="45.79457" lon="6.96451">
        <ele>1556</ele>
        <time>2022-08-27T07:48:40Z</time>
      </trkpt>
      <trkpt lat="45.79458" lon="6.9645">
        <ele>1556</ele>
        <time>2022-08-27T07:48:41Z</time>
      </trkpt>
      <trkpt lat="45.79458" lon="6.9645">
        <ele>1556</ele>
        <time>2022-08-27T07:48:42Z</time>
      </trkpt>
      <trkpt lat="45.79458" lon="6.96449">
        <ele>1556</ele>
        <time>2022-08-27T07:48:43Z</time>
      </trkpt>
      <trkpt lat="45.79458" lon="6.96448">
        <ele>1556</ele>
        <time>2022-08-27T07:48:44Z</time>
      </trkpt>
      <trkpt lat="45.79458" lon="6.96447">
        <ele>1556</ele>
        <time>2022-08-27T07:48:45Z</time>
      </trkpt>
      <trkpt lat="45.79458" lon="6.96446">
        <ele>1556</ele>
        <time>2022-08-27T07:48:46Z</time>
      </trkpt>
      <trkpt lat="45.79458" lon="6.96445">
        <ele>1556</ele>
        <time>2022-08-27T07:48:47Z</time>
      </trkpt>
      <trkpt lat="45.79458" lon="6.96444">
        <ele>1556</ele>
        <time>2022-08-27T07:48:48Z</time>
      </trkpt>
      <trkpt lat="45.79458" lon="6.96443">
        <ele>1556</ele>
        <time>2022-08-27T07:48:49Z</time>
      </trkpt>
      <trkpt lat="45.79458" lon="6.96442">
        <ele>1556</ele>
        <time>2022-08-27T07:48:51Z</time>
      </trkpt>
      <trkpt lat="45.79459" lon="6.96441">
        <ele>1556</ele>
        <time>2022-08-27T07:48:52Z</time>
      </trkpt>
      <trkpt lat="45.79459" lon="6.9644">
        <ele>1556</ele>
        <time>2022-08-27T07:48:53Z</time>
      </trkpt>
      <trkpt lat="45.79459" lon="6.9644">
        <ele>1556</ele>
        <time>2022-08-27T07:48:54Z</time>
      </trkpt>
      <trkpt lat="45.79459" lon="6.96439">
        <ele>1556</ele>
        <time>2022-08-27T07:48:55Z</time>
      </trkpt>
      <trkpt lat="45.79459" lon="6.96438">
        <ele>1556</ele>
        <time>2022-08-27T07:48:56Z</time>
      </trkpt>
      <trkpt lat="45.79459" lon="6.96437">
        <ele>1556</ele>
        <time>2022-08-27T07:48:57Z</time>
      </trkpt>
      <trkpt lat="45.79459" lon="6.96436">
        <ele>1556</ele>
        <time>2022-08-27T07:48:58Z</time>
      </trkpt>
      <trkpt lat="45.79459" lon="6.96435">
        <ele>1556</ele>
        <time>2022-08-27T07:48:59Z</time>
      </trkpt>
      <trkpt lat="45.79459" lon="6.96434">
        <ele>1556</ele>
        <time>2022-08-27T07:49:00Z</time>
      </trkpt>
      <trkpt lat="45.7946" lon="6.96433">
        <ele>1556</ele>
        <time>2022-08-27T07:49:01Z</time>
      </trkpt>
      <trkpt lat="45.7946" lon="6.96432">
        <ele>1556</ele>
        <time>2022-08-27T07:49:03Z</time>
      </trkpt>
      <trkpt lat="45.79459" lon="6.96433">
        <ele>1556</ele>
        <time>2022-08-27T07:49:04Z</time>
      </trkpt>
      <trkpt lat="45.79459" lon="6.96435">
        <ele>1556</ele>
        <time>2022-08-27T07:49:05Z</time>
      </trkpt>
      <trkpt lat="45.79459" lon="6.96436">
        <ele>1556</ele>
        <time>2022-08-27T07:49:06Z</time>
      </trkpt>
      <trkpt lat="45.79459" lon="6.96437">
        <ele>1556</ele>
        <time>2022-08-27T07:49:07Z</time>
      </trkpt>
      <trkpt lat="45.79459" lon="6.96438">
        <ele>1556</ele>
        <time>2022-08-27T07:49:08Z</time>
      </trkpt>
      <trkpt lat="45.79459" lon="6.96439">
        <ele>1556</ele>
        <time>2022-08-27T07:49:10Z</time>
      </trkpt>
      <trkpt lat="45.79459" lon="6.9644">
        <ele>1556</ele>
        <time>2022-08-27T07:49:11Z</time>
      </trkpt>
      <trkpt lat="45.79458" lon="6.96441">
        <ele>1556</ele>
        <time>2022-08-27T07:49:12Z</time>
      </trkpt>
      <trkpt lat="45.79458" lon="6.96443">
        <ele>1556</ele>
        <time>2022-08-27T07:49:13Z</time>
      </trkpt>
      <trkpt lat="45.79458" lon="6.96444">
        <ele>1556</ele>
        <time>2022-08-27T07:49:14Z</time>
      </trkpt>
      <trkpt lat="45.79458" lon="6.96445">
        <ele>1556</ele>
        <time>2022-08-27T07:49:15Z</time>
      </trkpt>
      <trkpt lat="45.79458" lon="6.96446">
        <ele>1556</ele>
        <time>2022-08-27T07:49:16Z</time>
      </trkpt>
      <trkpt lat="45.79458" lon="6.96447">
        <ele>1556</ele>
        <time>2022-08-27T07:49:17Z</time>
      </trkpt>
      <trkpt lat="45.79457" lon="6.96448">
        <ele>1556</ele>
        <time>2022-08-27T07:49:18Z</time>
      </trkpt>
      <trkpt lat="45.79457" lon="6.96449">
        <ele>1556</ele>
        <time>2022-08-27T07:49:19Z</time>
      </trkpt>
      <trkpt lat="45.79457" lon="6.9645">
        <ele>1556</ele>
        <time>2022-08-27T07:49:20Z</time>
      </trkpt>
      <trkpt lat="45.79457" lon="6.9645">
        <ele>1556</ele>
        <time>2022-08-27T07:49:23Z</time>
      </trkpt>
      <trkpt lat="45.79457" lon="6.9645">
        <ele>1556</ele>
        <time>2022-08-27T07:49:26Z</time>
      </trkpt>
      <trkpt lat="45.79457" lon="6.9645">
        <ele>1556</ele>
        <time>2022-08-27T07:49:27Z</time>
      </trkpt>
      <trkpt lat="45.79457" lon="6.9645">
        <ele>1556</ele>
        <time>2022-08-27T07:49:29Z</time>
      </trkpt>
      <trkpt lat="45.79457" lon="6.9645">
        <ele>1556</ele>
        <time>2022-08-27T07:49:32Z</time>
      </trkpt>
      <trkpt lat="45.79457" lon="6.9645">
        <ele>1556</ele>
        <time>2022-08-27T07:49:35Z</time>
      </trkpt>
      <trkpt lat="45.79457" lon="6.9645">
        <ele>1556</ele>
        <time>2022-08-27T07:49:37Z</time>
      </trkpt>
      <trkpt lat="45.79457" lon="6.9645">
        <ele>1556</ele>
        <time>2022-08-27T07:49:40Z</time>
      </trkpt>
      <trkpt lat="45.79457" lon="6.9645">
        <ele>1556</ele>
        <time>2022-08-27T07:49:43Z</time>
      </trkpt>
      <trkpt lat="45.79457" lon="6.9645">
        <ele>1556</ele>
        <time>2022-08-27T07:49:45Z</time>
      </trkpt>
      <trkpt lat="45.79457" lon="6.96451">
        <ele>1556</ele>
        <time>2022-08-27T07:49:49Z</time>
      </trkpt>
      <trkpt lat="45.79457" lon="6.96451">
        <ele>1556</ele>
        <time>2022-08-27T07:49:52Z</time>
      </trkpt>
      <trkpt lat="45.79458" lon="6.96451">
        <ele>1556</ele>
        <time>2022-08-27T07:49:53Z</time>
      </trkpt>
      <trkpt lat="45.79458" lon="6.96451">
        <ele>1556</ele>
        <time>2022-08-27T07:49:54Z</time>
      </trkpt>
      <trkpt lat="45.79458" lon="6.96451">
        <ele>1556</ele>
        <time>2022-08-27T07:49:57Z</time>
      </trkpt>
      <trkpt lat="45.79458" lon="6.96451">
        <ele>1556</ele>
        <time>2022-08-27T07:50:00Z</time>
      </trkpt>
      <trkpt lat="45.79458" lon="6.96451">
        <ele>1556</ele>
        <time>2022-08-27T07:50:02Z</time>
      </trkpt>
      <trkpt lat="45.79458" lon="6.96451">
        <ele>1556</ele>
        <time>2022-08-27T07:50:05Z</time>
      </trkpt>
      <trkpt lat="45.79458" lon="6.96451">
        <ele>1556</ele>
        <time>2022-08-27T07:50:09Z</time>
      </trkpt>
      <trkpt lat="45.79458" lon="6.96451">
        <ele>1556</ele>
        <time>2022-08-27T07:50:11Z</time>
      </trkpt>
      <trkpt lat="45.79458" lon="6.96451">
        <ele>1556</ele>
        <time>2022-08-27T07:50:14Z</time>
      </trkpt>
      <trkpt lat="45.79458" lon="6.96452">
        <ele>1556</ele>
        <time>2022-08-27T07:50:17Z</time>
      </trkpt>
      <trkpt lat="45.79458" lon="6.96452">
        <ele>1556</ele>
        <time>2022-08-27T07:50:19Z</time>
      </trkpt>
      <trkpt lat="45.79458" lon="6.96452">
        <ele>1556</ele>
        <time>2022-08-27T07:50:22Z</time>
      </trkpt>
      <trkpt lat="45.79458" lon="6.96452">
        <ele>1556</ele>
        <time>2022-08-27T07:50:24Z</time>
      </trkpt>
      <trkpt lat="45.79458" lon="6.96452">
        <ele>1556</ele>
        <time>2022-08-27T07:50:28Z</time>
      </trkpt>
      <trkpt lat="45.79458" lon="6.96452">
        <ele>1556</ele>
        <time>2022-08-27T07:50:31Z</time>
      </trkpt>
      <trkpt lat="45.79458" lon="6.96452">
        <ele>1556</ele>
        <time>2022-08-27T07:50:32Z</time>
      </trkpt>
      <trkpt lat="45.79458" lon="6.96452">
        <ele>1556</ele>
        <time>2022-08-27T07:50:33Z</time>
      </trkpt>
      <trkpt lat="45.79458" lon="6.96452">
        <ele>1556</ele>
        <time>2022-08-27T07:50:36Z</time>
      </trkpt>
      <trkpt lat="45.79458" lon="6.96452">
        <ele>1556</ele>
        <time>2022-08-27T07:50:39Z</time>
      </trkpt>
      <trkpt lat="45.79458" lon="6.96452">
        <ele>1556</ele>
        <time>2022-08-27T07:50:41Z</time>
      </trkpt>
      <trkpt lat="45.79458" lon="6.96453">
        <ele>1556</ele>
        <time>2022-08-27T07:50:45Z</time>
      </trkpt>
      <trkpt lat="45.79458" lon="6.96453">
        <ele>1556</ele>
        <time>2022-08-27T07:50:48Z</time>
      </trkpt>
      <trkpt lat="45.79458" lon="6.96453">
        <ele>1556</ele>
        <time>2022-08-27T07:50:50Z</time>
      </trkpt>
      <trkpt lat="45.79458" lon="6.96453">
        <ele>1556</ele>
        <time>2022-08-27T07:50:53Z</time>
      </trkpt>
      <trkpt lat="45.79458" lon="6.96453">
        <ele>1556</ele>
        <time>2022-08-27T07:50:56Z</time>
      </trkpt>
      <trkpt lat="45.79458" lon="6.96453">
        <ele>1556</ele>
        <time>2022-08-27T07:50:57Z</time>
      </trkpt>
      <trkpt lat="45.79458" lon="6.96453">
        <ele>1556</ele>
        <time>2022-08-27T07:50:58Z</time>
      </trkpt>
      <trkpt lat="45.79458" lon="6.96453">
        <ele>1556</ele>
        <time>2022-08-27T07:51:01Z</time>
      </trkpt>
      <trkpt lat="45.79458" lon="6.96453">
        <ele>1556</ele>
        <time>2022-08-27T07:51:05Z</time>
      </trkpt>
      <trkpt lat="45.79458" lon="6.96453">
        <ele>1556</ele>
        <time>2022-08-27T07:51:07Z</time>
      </trkpt>
      <trkpt lat="45.79458" lon="6.96453">
        <ele>1556</ele>
        <time>2022-08-27T07:51:10Z</time>
      </trkpt>
      <trkpt lat="45.79458" lon="6.96454">
        <ele>1556</ele>
        <time>2022-08-27T07:51:13Z</time>
      </trkpt>
      <trkpt lat="45.79458" lon="6.96454">
        <ele>1556</ele>
        <time>2022-08-27T07:51:15Z</time>
      </trkpt>
      <trkpt lat="45.79458" lon="6.96454">
        <ele>1556</ele>
        <time>2022-08-27T07:51:18Z</time>
      </trkpt>
      <trkpt lat="45.79458" lon="6.96454">
        <ele>1556</ele>
        <time>2022-08-27T07:51:21Z</time>
      </trkpt>
      <trkpt lat="45.79458" lon="6.96454">
        <ele>1556</ele>
        <time>2022-08-27T07:51:23Z</time>
      </trkpt>
      <trkpt lat="45.79458" lon="6.96454">
        <ele>1556</ele>
        <time>2022-08-27T07:51:24Z</time>
      </trkpt>
      <trkpt lat="45.79458" lon="6.96454">
        <ele>1556</ele>
        <time>2022-08-27T07:51:27Z</time>
      </trkpt>
      <trkpt lat="45.79458" lon="6.96454">
        <ele>1556</ele>
        <time>2022-08-27T07:51:30Z</time>
      </trkpt>
      <trkpt lat="45.79458" lon="6.96454">
        <ele>1556</ele>
        <time>2022-08-27T07:51:32Z</time>
      </trkpt>
      <trkpt lat="45.79458" lon="6.96454">
        <ele>1556</ele>
        <time>2022-08-27T07:51:35Z</time>
      </trkpt>
      <trkpt lat="45.79458" lon="6.96454">
        <ele>1556</ele>
        <time>2022-08-27T07:51:36Z</time>
      </trkpt>
      <trkpt lat="45.79458" lon="6.96454">
        <ele>1556</ele>
        <time>2022-08-27T07:51:38Z</time>
      </trkpt>
      <trkpt lat="45.79458" lon="6.96455">
        <ele>1556</ele>
        <time>2022-08-27T07:51:40Z</time>
      </trkpt>
      <trkpt lat="45.79458" lon="6.96455">
        <ele>1556</ele>
        <time>2022-08-27T07:51:44Z</time>
      </trkpt>
      <trkpt lat="45.79458" lon="6.96455">
        <ele>1556</ele>
        <time>2022-08-27T07:51:47Z</time>
      </trkpt>
      <trkpt lat="45.79458" lon="6.96455">
        <ele>1556</ele>
        <time>2022-08-27T07:51:49Z</time>
      </trkpt>
      <trkpt lat="45.79458" lon="6.96455">
        <ele>1556</ele>
        <time>2022-08-27T07:51:52Z</time>
      </trkpt>
      <trkpt lat="45.79458" lon="6.96455">
        <ele>1556</ele>
        <time>2022-08-27T07:51:55Z</time>
      </trkpt>
      <trkpt lat="45.79458" lon="6.96455">
        <ele>1556</ele>
        <time>2022-08-27T07:51:57Z</time>
      </trkpt>
      <trkpt lat="45.79458" lon="6.96455">
        <ele>1556</ele>
        <time>2022-08-27T07:52:01Z</time>
      </trkpt>
      <trkpt lat="45.79459" lon="6.96455">
        <ele>1556</ele>
        <time>2022-08-27T07:52:02Z</time>
      </trkpt>
      <trkpt lat="45.79459" lon="6.96455">
        <ele>1556</ele>
        <time>2022-08-27T07:52:03Z</time>
      </trkpt>
      <trkpt lat="45.79459" lon="6.96455">
        <ele>1556</ele>
        <time>2022-08-27T07:52:06Z</time>
      </trkpt>
      <trkpt lat="45.79459" lon="6.96456">
        <ele>1556</ele>
        <time>2022-08-27T07:52:09Z</time>
      </trkpt>
      <trkpt lat="45.79459" lon="6.96456">
        <ele>1556</ele>
        <time>2022-08-27T07:52:11Z</time>
      </trkpt>
      <trkpt lat="45.79459" lon="6.96456">
        <ele>1556</ele>
        <time>2022-08-27T07:52:14Z</time>
      </trkpt>
      <trkpt lat="45.79459" lon="6.96456">
        <ele>1556</ele>
        <time>2022-08-27T07:52:17Z</time>
      </trkpt>
      <trkpt lat="45.79459" lon="6.96456">
        <ele>1556</ele>
        <time>2022-08-27T07:52:20Z</time>
      </trkpt>
      <trkpt lat="45.79459" lon="6.96456">
        <ele>1556</ele>
        <time>2022-08-27T07:52:23Z</time>
      </trkpt>
      <trkpt lat="45.79459" lon="6.96456">
        <ele>1556</ele>
        <time>2022-08-27T07:52:26Z</time>
      </trkpt>
      <trkpt lat="45.79459" lon="6.96456">
        <ele>1556</ele>
        <time>2022-08-27T07:52:27Z</time>
      </trkpt>
      <trkpt lat="45.79459" lon="6.96456">
        <ele>1556</ele>
        <time>2022-08-27T07:52:28Z</time>
      </trkpt>
      <trkpt lat="45.79459" lon="6.96456">
        <ele>1556</ele>
        <time>2022-08-27T07:52:31Z</time>
      </trkpt>
      <trkpt lat="45.79459" lon="6.96456">
        <ele>1556</ele>
        <time>2022-08-27T07:52:34Z</time>
      </trkpt>
      <trkpt lat="45.79459" lon="6.96457">
        <ele>1556</ele>
        <time>2022-08-27T07:52:36Z</time>
      </trkpt>
      <trkpt lat="45.79459" lon="6.96457">
        <ele>1556</ele>
        <time>2022-08-27T07:52:40Z</time>
      </trkpt>
      <trkpt lat="45.79459" lon="6.96457">
        <ele>1556</ele>
        <time>2022-08-27T07:52:43Z</time>
      </trkpt>
      <trkpt lat="45.79459" lon="6.96457">
        <ele>1556</ele>
        <time>2022-08-27T07:52:45Z</time>
      </trkpt>
      <trkpt lat="45.79459" lon="6.96457">
        <ele>1556</ele>
        <time>2022-08-27T07:52:48Z</time>
      </trkpt>
      <trkpt lat="45.79459" lon="6.96457">
        <ele>1556</ele>
        <time>2022-08-27T07:52:51Z</time>
      </trkpt>
      <trkpt lat="45.79459" lon="6.96457">
        <ele>1556</ele>
        <time>2022-08-27T07:52:53Z</time>
      </trkpt>
      <trkpt lat="45.79459" lon="6.96457">
        <ele>1556</ele>
        <time>2022-08-27T07:52:56Z</time>
      </trkpt>
      <trkpt lat="45.79459" lon="6.96457">
        <ele>1556</ele>
        <time>2022-08-27T07:53:00Z</time>
      </trkpt>
      <trkpt lat="45.79459" lon="6.96457">
        <ele>1556</ele>
        <time>2022-08-27T07:53:02Z</time>
      </trkpt>
      <trkpt lat="45.79459" lon="6.96458">
        <ele>1556</ele>
        <time>2022-08-27T07:53:05Z</time>
      </trkpt>
      <trkpt lat="45.79459" lon="6.96458">
        <ele>1556</ele>
        <time>2022-08-27T07:53:06Z</time>
      </trkpt>
      <trkpt lat="45.79459" lon="6.96458">
        <ele>1556</ele>
        <time>2022-08-27T07:53:08Z</time>
      </trkpt>
      <trkpt lat="45.79459" lon="6.96458">
        <ele>1556</ele>
        <time>2022-08-27T07:53:10Z</time>
      </trkpt>
      <trkpt lat="45.79459" lon="6.96458">
        <ele>1556</ele>
        <time>2022-08-27T07:53:13Z</time>
      </trkpt>
      <trkpt lat="45.79459" lon="6.96458">
        <ele>1556</ele>
        <time>2022-08-27T07:53:17Z</time>
      </trkpt>
      <trkpt lat="45.79459" lon="6.96458">
        <ele>1556</ele>
        <time>2022-08-27T07:53:19Z</time>
      </trkpt>
      <trkpt lat="45.79459" lon="6.96458">
        <ele>1556</ele>
        <time>2022-08-27T07:53:22Z</time>
      </trkpt>
      <trkpt lat="45.79459" lon="6.96458">
        <ele>1556</ele>
        <time>2022-08-27T07:53:25Z</time>
      </trkpt>
      <trkpt lat="45.79459" lon="6.96458">
        <ele>1556</ele>
        <time>2022-08-27T07:53:27Z</time>
      </trkpt>
      <trkpt lat="45.79459" lon="6.96458">
        <ele>1556</ele>
        <time>2022-08-27T07:53:30Z</time>
      </trkpt>
      <trkpt lat="45.79459" lon="6.96458">
        <ele>1556</ele>
        <time>2022-08-27T07:53:31Z</time>
      </trkpt>
      <trkpt lat="45.79459" lon="6.96459">
        <ele>1556</ele>
        <time>2022-08-27T07:53:33Z</time>
      </trkpt>
      <trkpt lat="45.79459" lon="6.96459">
        <ele>1556</ele>
        <time>2022-08-27T07:53:36Z</time>
      </trkpt>
      <trkpt lat="45.79459" lon="6.96459">
        <ele>1556</ele>
        <time>2022-08-27T07:53:39Z</time>
      </trkpt>
      <trkpt lat="45.79459" lon="6.96459">
        <ele>1556</ele>
        <time>2022-08-27T07:53:41Z</time>
      </trkpt>
      <trkpt lat="45.79459" lon="6.96459">
        <ele>1556</ele>
        <time>2022-08-27T07:53:45Z</time>
      </trkpt>
      <trkpt lat="45.79459" lon="6.96459">
        <ele>1556</ele>
        <time>2022-08-27T07:53:48Z</time>
      </trkpt>
      <trkpt lat="45.79459" lon="6.96459">
        <ele>1556</ele>
        <time>2022-08-27T07:53:50Z</time>
      </trkpt>
      <trkpt lat="45.79459" lon="6.96459">
        <ele>1556</ele>
        <time>2022-08-27T07:53:53Z</time>
      </trkpt>
      <trkpt lat="45.79459" lon="6.96459">
        <ele>1556</ele>
        <time>2022-08-27T07:53:57Z</time>
      </trkpt>
      <trkpt lat="45.79459" lon="6.96459">
        <ele>1556</ele>
        <time>2022-08-27T07:53:59Z</time>
      </trkpt>
      <trkpt lat="45.79459" lon="6.9646">
        <ele>1556</ele>
        <time>2022-08-27T07:54:03Z</time>
      </trkpt>
      <trkpt lat="45.79459" lon="6.9646">
        <ele>1556</ele>
        <time>2022-08-27T07:54:06Z</time>
      </trkpt>
      <trkpt lat="45.79459" lon="6.9646">
        <ele>1556</ele>
        <time>2022-08-27T07:54:08Z</time>
      </trkpt>
      <trkpt lat="45.79459" lon="6.9646">
        <ele>1556</ele>
        <time>2022-08-27T07:54:11Z</time>
      </trkpt>
      <trkpt lat="45.7946" lon="6.9646">
        <ele>1556</ele>
        <time>2022-08-27T07:54:12Z</time>
      </trkpt>
      <trkpt lat="45.7946" lon="6.9646">
        <ele>1556</ele>
        <time>2022-08-27T07:54:15Z</time>
      </trkpt>
      <trkpt lat="45.7946" lon="6.9646">
        <ele>1556</ele>
        <time>2022-08-27T07:54:17Z</time>
      </trkpt>
      <trkpt lat="45.7946" lon="6.9646">
        <ele>1556</ele>
        <time>2022-08-27T07:54:20Z</time>
      </trkpt>
      <trkpt lat="45.7946" lon="6.9646">
        <ele>1556</ele>
        <time>2022-08-27T07:54:23Z</time>
      </trkpt>
      <trkpt lat="45.7946" lon="6.9646">
        <ele>1556</ele>
        <time>2022-08-27T07:54:25Z</time>
      </trkpt>
      <trkpt lat="45.7946" lon="6.9646">
        <ele>1556</ele>
        <time>2022-08-27T07:54:28Z</time>
      </trkpt>
      <trkpt lat="45.7946" lon="6.96461">
        <ele>1556</ele>
        <time>2022-08-27T07:54:31Z</time>
      </trkpt>
      <trkpt lat="45.7946" lon="6.96461">
        <ele>1556</ele>
        <time>2022-08-27T07:54:34Z</time>
      </trkpt>
      <trkpt lat="45.7946" lon="6.96461">
        <ele>1556</ele>
        <time>2022-08-27T07:54:37Z</time>
      </trkpt>
      <trkpt lat="45.7946" lon="6.96461">
        <ele>1556</ele>
        <time>2022-08-27T07:54:38Z</time>
      </trkpt>
      <trkpt lat="45.7946" lon="6.96461">
        <ele>1556</ele>
        <time>2022-08-27T07:54:40Z</time>
      </trkpt>
      <trkpt lat="45.7946" lon="6.96461">
        <ele>1556</ele>
        <time>2022-08-27T07:54:42Z</time>
      </trkpt>
      <trkpt lat="45.7946" lon="6.96461">
        <ele>1556</ele>
        <time>2022-08-27T07:54:45Z</time>
      </trkpt>
      <trkpt lat="45.7946" lon="6.96461">
        <ele>1556</ele>
        <time>2022-08-27T07:54:48Z</time>
      </trkpt>
      <trkpt lat="45.7946" lon="6.96461">
        <ele>1556</ele>
        <time>2022-08-27T07:54:50Z</time>
      </trkpt>
      <trkpt lat="45.7946" lon="6.96461">
        <ele>1556</ele>
        <time>2022-08-27T07:54:54Z</time>
      </trkpt>
      <trkpt lat="45.7946" lon="6.96461">
        <ele>1556</ele>
        <time>2022-08-27T07:54:57Z</time>
      </trkpt>
      <trkpt lat="45.7946" lon="6.96462">
        <ele>1556</ele>
        <time>2022-08-27T07:54:59Z</time>
      </trkpt>
      <trkpt lat="45.7946" lon="6.96462">
        <ele>1556</ele>
        <time>2022-08-27T07:55:02Z</time>
      </trkpt>
      <trkpt lat="45.7946" lon="6.96462">
        <ele>1556</ele>
        <time>2022-08-27T07:55:03Z</time>
      </trkpt>
      <trkpt lat="45.7946" lon="6.96462">
        <ele>1556</ele>
        <time>2022-08-27T07:55:05Z</time>
      </trkpt>
      <trkpt lat="45.7946" lon="6.96462">
        <ele>1556</ele>
        <time>2022-08-27T07:55:07Z</time>
      </trkpt>
      <trkpt lat="45.7946" lon="6.96462">
        <ele>1556</ele>
        <time>2022-08-27T07:55:11Z</time>
      </trkpt>
      <trkpt lat="45.7946" lon="6.96462">
        <ele>1556</ele>
        <time>2022-08-27T07:55:14Z</time>
      </trkpt>
      <trkpt lat="45.7946" lon="6.96462">
        <ele>1556</ele>
        <time>2022-08-27T07:55:16Z</time>
      </trkpt>
      <trkpt lat="45.7946" lon="6.96462">
        <ele>1556</ele>
        <time>2022-08-27T07:55:17Z</time>
      </trkpt>
      <trkpt lat="45.7946" lon="6.96462">
        <ele>1556</ele>
        <time>2022-08-27T07:55:19Z</time>
      </trkpt>
      <trkpt lat="45.7946" lon="6.96462">
        <ele>1556</ele>
        <time>2022-08-27T07:55:21Z</time>
      </trkpt>
      <trkpt lat="45.7946" lon="6.96462">
        <ele>1556</ele>
        <time>2022-08-27T07:55:24Z</time>
      </trkpt>
      <trkpt lat="45.7946" lon="6.96463">
        <ele>1556</ele>
        <time>2022-08-27T07:55:27Z</time>
      </trkpt>
      <trkpt lat="45.7946" lon="6.96463">
        <ele>1556</ele>
        <time>2022-08-27T07:55:30Z</time>
      </trkpt>
      <trkpt lat="45.7946" lon="6.96463">
        <ele>1556</ele>
        <time>2022-08-27T07:55:33Z</time>
      </trkpt>
      <trkpt lat="45.7946" lon="6.96463">
        <ele>1556</ele>
        <time>2022-08-27T07:55:36Z</time>
      </trkpt>
      <trkpt lat="45.7946" lon="6.96463">
        <ele>1556</ele>
        <time>2022-08-27T07:55:38Z</time>
      </trkpt>
      <trkpt lat="45.7946" lon="6.96463">
        <ele>1556</ele>
        <time>2022-08-27T07:55:41Z</time>
      </trkpt>
      <trkpt lat="45.7946" lon="6.96463">
        <ele>1556</ele>
        <time>2022-08-27T07:55:42Z</time>
      </trkpt>
      <trkpt lat="45.7946" lon="6.96463">
        <ele>1556</ele>
        <time>2022-08-27T07:55:44Z</time>
      </trkpt>
      <trkpt lat="45.7946" lon="6.96463">
        <ele>1556</ele>
        <time>2022-08-27T07:55:46Z</time>
      </trkpt>
      <trkpt lat="45.7946" lon="6.96463">
        <ele>1556</ele>
        <time>2022-08-27T07:55:50Z</time>
      </trkpt>
      <trkpt lat="45.7946" lon="6.96463">
        <ele>1556</ele>
        <time>2022-08-27T07:55:53Z</time>
      </trkpt>
      <trkpt lat="45.7946" lon="6.96464">
        <ele>1556</ele>
        <time>2022-08-27T07:55:55Z</time>
      </trkpt>
      <trkpt lat="45.7946" lon="6.96464">
        <ele>1556</ele>
        <time>2022-08-27T07:55:58Z</time>
      </trkpt>
      <trkpt lat="45.7946" lon="6.96464">
        <ele>1556</ele>
        <time>2022-08-27T07:56:01Z</time>
      </trkpt>
      <trkpt lat="45.7946" lon="6.96464">
        <ele>1556</ele>
        <time>2022-08-27T07:56:03Z</time>
      </trkpt>
      <trkpt lat="45.7946" lon="6.96464">
        <ele>1556</ele>
        <time>2022-08-27T07:56:06Z</time>
      </trkpt>
      <trkpt lat="45.7946" lon="6.96464">
        <ele>1556</ele>
        <time>2022-08-27T07:56:08Z</time>
      </trkpt>
      <trkpt lat="45.7946" lon="6.96464">
        <ele>1556</ele>
        <time>2022-08-27T07:56:10Z</time>
      </trkpt>
      <trkpt lat="45.7946" lon="6.96464">
        <ele>1556</ele>
        <time>2022-08-27T07:56:12Z</time>
      </trkpt>
      <trkpt lat="45.7946" lon="6.96464">
        <ele>1556</ele>
        <time>2022-08-27T07:56:15Z</time>
      </trkpt>
      <trkpt lat="45.7946" lon="6.96464">
        <ele>1556</ele>
        <time>2022-08-27T07:56:18Z</time>
      </trkpt>
      <trkpt lat="45.7946" lon="6.96464">
        <ele>1556</ele>
        <time>2022-08-27T07:56:20Z</time>
      </trkpt>
      <trkpt lat="45.79461" lon="6.96464">
        <ele>1556</ele>
        <time>2022-08-27T07:56:21Z</time>
      </trkpt>
      <trkpt lat="45.79461" lon="6.96465">
        <ele>1556</ele>
        <time>2022-08-27T07:56:23Z</time>
      </trkpt>
      <trkpt lat="45.79461" lon="6.96465">
        <ele>1556</ele>
        <time>2022-08-27T07:56:27Z</time>
      </trkpt>
      <trkpt lat="45.79461" lon="6.96465">
        <ele>1556</ele>
        <time>2022-08-27T07:56:29Z</time>
      </trkpt>
      <trkpt lat="45.79461" lon="6.96465">
        <ele>1556</ele>
        <time>2022-08-27T07:56:32Z</time>
      </trkpt>
      <trkpt lat="45.79461" lon="6.96465">
        <ele>1556</ele>
        <time>2022-08-27T07:56:34Z</time>
      </trkpt>
      <trkpt lat="45.79461" lon="6.96465">
        <ele>1556</ele>
        <time>2022-08-27T07:56:35Z</time>
      </trkpt>
      <trkpt lat="45.79461" lon="6.96465">
        <ele>1556</ele>
        <time>2022-08-27T07:56:37Z</time>
      </trkpt>
      <trkpt lat="45.79461" lon="6.96465">
        <ele>1556</ele>
        <time>2022-08-27T07:56:40Z</time>
      </trkpt>
      <trkpt lat="45.79461" lon="6.96465">
        <ele>1556</ele>
        <time>2022-08-27T07:56:43Z</time>
      </trkpt>
      <trkpt lat="45.79461" lon="6.96465">
        <ele>1556</ele>
        <time>2022-08-27T07:56:46Z</time>
      </trkpt>
      <trkpt lat="45.79461" lon="6.96465">
        <ele>1556</ele>
        <time>2022-08-27T07:56:47Z</time>
      </trkpt>
      <trkpt lat="45.79461" lon="6.96465">
        <ele>1556</ele>
        <time>2022-08-27T07:56:49Z</time>
      </trkpt>
      <trkpt lat="45.79461" lon="6.96466">
        <ele>1556</ele>
        <time>2022-08-27T07:56:52Z</time>
      </trkpt>
      <trkpt lat="45.79461" lon="6.96466">
        <ele>1556</ele>
        <time>2022-08-27T07:56:54Z</time>
      </trkpt>
      <trkpt lat="45.79461" lon="6.96466">
        <ele>1556</ele>
        <time>2022-08-27T07:56:57Z</time>
      </trkpt>
      <trkpt lat="45.79461" lon="6.96466">
        <ele>1556</ele>
        <time>2022-08-27T07:56:59Z</time>
      </trkpt>
      <trkpt lat="45.79461" lon="6.96466">
        <ele>1556</ele>
        <time>2022-08-27T07:57:02Z</time>
      </trkpt>
      <trkpt lat="45.79461" lon="6.96466">
        <ele>1556</ele>
        <time>2022-08-27T07:57:06Z</time>
      </trkpt>
      <trkpt lat="45.79461" lon="6.96466">
        <ele>1556</ele>
        <time>2022-08-27T07:57:08Z</time>
      </trkpt>
      <trkpt lat="45.79463" lon="6.96461">
        <ele>1556</ele>
        <time>2022-08-27T07:57:10Z</time>
      </trkpt>
      <trkpt lat="45.79465" lon="6.96455">
        <ele>1556</ele>
        <time>2022-08-27T07:57:11Z</time>
      </trkpt>
      <trkpt lat="45.79466" lon="6.9645">
        <ele>1556</ele>
        <time>2022-08-27T07:57:12Z</time>
      </trkpt>
      <trkpt lat="45.79468" lon="6.96444">
        <ele>1556</ele>
        <time>2022-08-27T07:57:13Z</time>
      </trkpt>
      <trkpt lat="45.7947" lon="6.96439">
        <ele>1556</ele>
        <time>2022-08-27T07:57:14Z</time>
      </trkpt>
      <trkpt lat="45.7947" lon="6.96439">
        <ele>1556</ele>
        <time>2022-08-27T07:57:16Z</time>
      </trkpt>
      <trkpt lat="45.7947" lon="6.96439">
        <ele>1556</ele>
        <time>2022-08-27T07:57:17Z</time>
      </trkpt>
      <trkpt lat="45.7947" lon="6.96439">
        <ele>1556</ele>
        <time>2022-08-27T07:57:19Z</time>
      </trkpt>
      <trkpt lat="45.7947" lon="6.96438">
        <ele>1556</ele>
        <time>2022-08-27T07:57:20Z</time>
      </trkpt>
      <trkpt lat="45.7947" lon="6.96438">
        <ele>1556</ele>
        <time>2022-08-27T07:57:21Z</time>
      </trkpt>
      <trkpt lat="45.79471" lon="6.96438">
        <ele>1556</ele>
        <time>2022-08-27T07:57:22Z</time>
      </trkpt>
      <trkpt lat="45.79471" lon="6.96438">
        <ele>1556</ele>
        <time>2022-08-27T07:57:24Z</time>
      </trkpt>
      <trkpt lat="45.79471" lon="6.96438">
        <ele>1556</ele>
        <time>2022-08-27T07:57:25Z</time>
      </trkpt>
      <trkpt lat="45.79471" lon="6.96438">
        <ele>1556</ele>
        <time>2022-08-27T07:57:26Z</time>
      </trkpt>
      <trkpt lat="45.79471" lon="6.96438">
        <ele>1556</ele>
        <time>2022-08-27T07:57:27Z</time>
      </trkpt>
      <trkpt lat="45.79471" lon="6.96438">
        <ele>1556</ele>
        <time>2022-08-27T07:57:28Z</time>
      </trkpt>
      <trkpt lat="45.79471" lon="6.96438">
        <ele>1556</ele>
        <time>2022-08-27T07:57:29Z</time>
      </trkpt>
      <trkpt lat="45.79471" lon="6.96438">
        <ele>1556</ele>
        <time>2022-08-27T07:57:30Z</time>
      </trkpt>
      <trkpt lat="45.79471" lon="6.96437">
        <ele>1556</ele>
        <time>2022-08-27T07:57:31Z</time>
      </trkpt>
      <trkpt lat="45.79471" lon="6.96437">
        <ele>1556</ele>
        <time>2022-08-27T07:57:32Z</time>
      </trkpt>
      <trkpt lat="45.79471" lon="6.96437">
        <ele>1556</ele>
        <time>2022-08-27T07:57:33Z</time>
      </trkpt>
      <trkpt lat="45.79471" lon="6.96437">
        <ele>1556</ele>
        <time>2022-08-27T07:57:34Z</time>
      </trkpt>
      <trkpt lat="45.79471" lon="6.96437">
        <ele>1556</ele>
        <time>2022-08-27T07:57:35Z</time>
      </trkpt>
      <trkpt lat="45.79471" lon="6.96437">
        <ele>1556</ele>
        <time>2022-08-27T07:57:36Z</time>
      </trkpt>
      <trkpt lat="45.79471" lon="6.96437">
        <ele>1556</ele>
        <time>2022-08-27T07:57:37Z</time>
      </trkpt>
      <trkpt lat="45.79471" lon="6.96437">
        <ele>1556</ele>
        <time>2022-08-27T07:57:38Z</time>
      </trkpt>
      <trkpt lat="45.79471" lon="6.96437">
        <ele>1556</ele>
        <time>2022-08-27T07:57:39Z</time>
      </trkpt>
      <trkpt lat="45.79471" lon="6.96436">
        <ele>1556</ele>
        <time>2022-08-27T07:57:40Z</time>
      </trkpt>
      <trkpt lat="45.79471" lon="6.96436">
        <ele>1556</ele>
        <time>2022-08-27T07:57:41Z</time>
      </trkpt>
      <trkpt lat="45.79472" lon="6.96436">
        <ele>1556</ele>
        <time>2022-08-27T07:57:43Z</time>
      </trkpt>
      <trkpt lat="45.79472" lon="6.96436">
        <ele>1556</ele>
        <time>2022-08-27T07:57:44Z</time>
      </trkpt>
      <trkpt lat="45.79472" lon="6.96436">
        <ele>1556</ele>
        <time>2022-08-27T07:57:45Z</time>
      </trkpt>
      <trkpt lat="45.79472" lon="6.96436">
        <ele>1556</ele>
        <time>2022-08-27T07:57:46Z</time>
      </trkpt>
      <trkpt lat="45.79472" lon="6.96436">
        <ele>1556</ele>
        <time>2022-08-27T07:57:47Z</time>
      </trkpt>
      <trkpt lat="45.79472" lon="6.96436">
        <ele>1556</ele>
        <time>2022-08-27T07:57:48Z</time>
      </trkpt>
      <trkpt lat="45.79472" lon="6.96436">
        <ele>1556</ele>
        <time>2022-08-27T07:57:49Z</time>
      </trkpt>
      <trkpt lat="45.79472" lon="6.96435">
        <ele>1556</ele>
        <time>2022-08-27T07:57:50Z</time>
      </trkpt>
      <trkpt lat="45.79472" lon="6.96435">
        <ele>1556</ele>
        <time>2022-08-27T07:57:51Z</time>
      </trkpt>
      <trkpt lat="45.79472" lon="6.96435">
        <ele>1556</ele>
        <time>2022-08-27T07:57:52Z</time>
      </trkpt>
      <trkpt lat="45.79472" lon="6.96435">
        <ele>1556</ele>
        <time>2022-08-27T07:57:53Z</time>
      </trkpt>
      <trkpt lat="45.79472" lon="6.96435">
        <ele>1556</ele>
        <time>2022-08-27T07:57:54Z</time>
      </trkpt>
      <trkpt lat="45.79472" lon="6.96435">
        <ele>1556</ele>
        <time>2022-08-27T07:57:55Z</time>
      </trkpt>
      <trkpt lat="45.79472" lon="6.96435">
        <ele>1556</ele>
        <time>2022-08-27T07:57:56Z</time>
      </trkpt>
      <trkpt lat="45.79472" lon="6.96435">
        <ele>1556</ele>
        <time>2022-08-27T07:57:57Z</time>
      </trkpt>
      <trkpt lat="45.79472" lon="6.96435">
        <ele>1556</ele>
        <time>2022-08-27T07:57:58Z</time>
      </trkpt>
      <trkpt lat="45.79472" lon="6.96434">
        <ele>1556</ele>
        <time>2022-08-27T07:57:59Z</time>
      </trkpt>
      <trkpt lat="45.79472" lon="6.96434">
        <ele>1556</ele>
        <time>2022-08-27T07:58:00Z</time>
      </trkpt>
      <trkpt lat="45.79472" lon="6.96434">
        <ele>1556</ele>
        <time>2022-08-27T07:58:02Z</time>
      </trkpt>
      <trkpt lat="45.79473" lon="6.96434">
        <ele>1556</ele>
        <time>2022-08-27T07:58:03Z</time>
      </trkpt>
      <trkpt lat="45.79473" lon="6.96434">
        <ele>1556</ele>
        <time>2022-08-27T07:58:04Z</time>
      </trkpt>
      <trkpt lat="45.79473" lon="6.96434">
        <ele>1556</ele>
        <time>2022-08-27T07:58:05Z</time>
      </trkpt>
      <trkpt lat="45.79473" lon="6.96434">
        <ele>1556</ele>
        <time>2022-08-27T07:58:06Z</time>
      </trkpt>
      <trkpt lat="45.79473" lon="6.96434">
        <ele>1556</ele>
        <time>2022-08-27T07:58:07Z</time>
      </trkpt>
      <trkpt lat="45.79473" lon="6.96434">
        <ele>1556</ele>
        <time>2022-08-27T07:58:08Z</time>
      </trkpt>
      <trkpt lat="45.79473" lon="6.96433">
        <ele>1556</ele>
        <time>2022-08-27T07:58:09Z</time>
      </trkpt>
      <trkpt lat="45.79473" lon="6.96433">
        <ele>1556</ele>
        <time>2022-08-27T07:58:10Z</time>
      </trkpt>
      <trkpt lat="45.79473" lon="6.96433">
        <ele>1556</ele>
        <time>2022-08-27T07:58:11Z</time>
      </trkpt>
      <trkpt lat="45.79473" lon="6.96433">
        <ele>1556</ele>
        <time>2022-08-27T07:58:12Z</time>
      </trkpt>
      <trkpt lat="45.79473" lon="6.96433">
        <ele>1556</ele>
        <time>2022-08-27T07:58:13Z</time>
      </trkpt>
      <trkpt lat="45.79473" lon="6.96433">
        <ele>1556</ele>
        <time>2022-08-27T07:58:14Z</time>
      </trkpt>
      <trkpt lat="45.79473" lon="6.96433">
        <ele>1556</ele>
        <time>2022-08-27T07:58:15Z</time>
      </trkpt>
      <trkpt lat="45.79473" lon="6.96433">
        <ele>1556</ele>
        <time>2022-08-27T07:58:16Z</time>
      </trkpt>
      <trkpt lat="45.79473" lon="6.96433">
        <ele>1556</ele>
        <time>2022-08-27T07:58:17Z</time>
      </trkpt>
      <trkpt lat="45.79473" lon="6.96432">
        <ele>1556</ele>
        <time>2022-08-27T07:58:18Z</time>
      </trkpt>
      <trkpt lat="45.79473" lon="6.96432">
        <ele>1556</ele>
        <time>2022-08-27T07:58:19Z</time>
      </trkpt>
      <trkpt lat="45.79473" lon="6.96432">
        <ele>1556</ele>
        <time>2022-08-27T07:58:21Z</time>
      </trkpt>
      <trkpt lat="45.79473" lon="6.96432">
        <ele>1556</ele>
        <time>2022-08-27T07:58:22Z</time>
      </trkpt>
      <trkpt lat="45.79474" lon="6.96432">
        <ele>1556</ele>
        <time>2022-08-27T07:58:23Z</time>
      </trkpt>
      <trkpt lat="45.79474" lon="6.96432">
        <ele>1556</ele>
        <time>2022-08-27T07:58:24Z</time>
      </trkpt>
      <trkpt lat="45.79474" lon="6.96432">
        <ele>1556</ele>
        <time>2022-08-27T07:58:25Z</time>
      </trkpt>
      <trkpt lat="45.79474" lon="6.96432">
        <ele>1556</ele>
        <time>2022-08-27T07:58:26Z</time>
      </trkpt>
      <trkpt lat="45.79474" lon="6.96432">
        <ele>1556</ele>
        <time>2022-08-27T07:58:27Z</time>
      </trkpt>
      <trkpt lat="45.79474" lon="6.96431">
        <ele>1556</ele>
        <time>2022-08-27T07:58:28Z</time>
      </trkpt>
      <trkpt lat="45.79474" lon="6.96431">
        <ele>1556</ele>
        <time>2022-08-27T07:58:29Z</time>
      </trkpt>
      <trkpt lat="45.79474" lon="6.96431">
        <ele>1556</ele>
        <time>2022-08-27T07:58:30Z</time>
      </trkpt>
      <trkpt lat="45.79474" lon="6.96431">
        <ele>1556</ele>
        <time>2022-08-27T07:58:31Z</time>
      </trkpt>
      <trkpt lat="45.79474" lon="6.96431">
        <ele>1556</ele>
        <time>2022-08-27T07:58:32Z</time>
      </trkpt>
      <trkpt lat="45.79474" lon="6.96431">
        <ele>1556</ele>
        <time>2022-08-27T07:58:33Z</time>
      </trkpt>
      <trkpt lat="45.79474" lon="6.96431">
        <ele>1556</ele>
        <time>2022-08-27T07:58:34Z</time>
      </trkpt>
      <trkpt lat="45.79474" lon="6.96431">
        <ele>1556</ele>
        <time>2022-08-27T07:58:35Z</time>
      </trkpt>
      <trkpt lat="45.79474" lon="6.96431">
        <ele>1556</ele>
        <time>2022-08-27T07:58:36Z</time>
      </trkpt>
      <trkpt lat="45.79474" lon="6.9643">
        <ele>1556</ele>
        <time>2022-08-27T07:58:37Z</time>
      </trkpt>
      <trkpt lat="45.79474" lon="6.9643">
        <ele>1556</ele>
        <time>2022-08-27T07:58:38Z</time>
      </trkpt>
      <trkpt lat="45.79474" lon="6.9643">
        <ele>1556</ele>
        <time>2022-08-27T07:58:40Z</time>
      </trkpt>
      <trkpt lat="45.79474" lon="6.9643">
        <ele>1556</ele>
        <time>2022-08-27T07:58:41Z</time>
      </trkpt>
      <trkpt lat="45.79475" lon="6.9643">
        <ele>1556</ele>
        <time>2022-08-27T07:58:42Z</time>
      </trkpt>
      <trkpt lat="45.79475" lon="6.9643">
        <ele>1556</ele>
        <time>2022-08-27T07:58:43Z</time>
      </trkpt>
      <trkpt lat="45.79475" lon="6.9643">
        <ele>1556</ele>
        <time>2022-08-27T07:58:44Z</time>
      </trkpt>
      <trkpt lat="45.79475" lon="6.9643">
        <ele>1556</ele>
        <time>2022-08-27T07:58:45Z</time>
      </trkpt>
      <trkpt lat="45.79475" lon="6.9643">
        <ele>1556</ele>
        <time>2022-08-27T07:58:46Z</time>
      </trkpt>
      <trkpt lat="45.79475" lon="6.96429">
        <ele>1556</ele>
        <time>2022-08-27T07:58:47Z</time>
      </trkpt>
      <trkpt lat="45.79475" lon="6.96429">
        <ele>1556</ele>
        <time>2022-08-27T07:58:48Z</time>
      </trkpt>
      <trkpt lat="45.79475" lon="6.96429">
        <ele>1556</ele>
        <time>2022-08-27T07:58:49Z</time>
      </trkpt>
      <trkpt lat="45.79475" lon="6.96429">
        <ele>1556</ele>
        <time>2022-08-27T07:58:50Z</time>
      </trkpt>
      <trkpt lat="45.79475" lon="6.96429">
        <ele>1556</ele>
        <time>2022-08-27T07:58:51Z</time>
      </trkpt>
      <trkpt lat="45.79475" lon="6.96429">
        <ele>1556</ele>
        <time>2022-08-27T07:58:52Z</time>
      </trkpt>
      <trkpt lat="45.79475" lon="6.96429">
        <ele>1556</ele>
        <time>2022-08-27T07:58:53Z</time>
      </trkpt>
      <trkpt lat="45.79475" lon="6.96429">
        <ele>1556</ele>
        <time>2022-08-27T07:58:54Z</time>
      </trkpt>
      <trkpt lat="45.79475" lon="6.96429">
        <ele>1556</ele>
        <time>2022-08-27T07:58:55Z</time>
      </trkpt>
      <trkpt lat="45.79475" lon="6.96428">
        <ele>1556</ele>
        <time>2022-08-27T07:58:56Z</time>
      </trkpt>
      <trkpt lat="45.79475" lon="6.96428">
        <ele>1556</ele>
        <time>2022-08-27T07:58:57Z</time>
      </trkpt>
      <trkpt lat="45.79475" lon="6.96428">
        <ele>1556</ele>
        <time>2022-08-27T07:58:59Z</time>
      </trkpt>
      <trkpt lat="45.79475" lon="6.96428">
        <ele>1556</ele>
        <time>2022-08-27T07:59:00Z</time>
      </trkpt>
      <trkpt lat="45.79475" lon="6.96428">
        <ele>1556</ele>
        <time>2022-08-27T07:59:01Z</time>
      </trkpt>
      <trkpt lat="45.79476" lon="6.96428">
        <ele>1556</ele>
        <time>2022-08-27T07:59:02Z</time>
      </trkpt>
      <trkpt lat="45.79476" lon="6.96428">
        <ele>1556</ele>
        <time>2022-08-27T07:59:03Z</time>
      </trkpt>
      <trkpt lat="45.79476" lon="6.96428">
        <ele>1556</ele>
        <time>2022-08-27T07:59:04Z</time>
      </trkpt>
      <trkpt lat="45.79476" lon="6.96428">
        <ele>1556</ele>
        <time>2022-08-27T07:59:05Z</time>
      </trkpt>
      <trkpt lat="45.79476" lon="6.96428">
        <ele>1556</ele>
        <time>2022-08-27T07:59:06Z</time>
      </trkpt>
      <trkpt lat="45.79476" lon="6.96427">
        <ele>1556</ele>
        <time>2022-08-27T07:59:07Z</time>
      </trkpt>
      <trkpt lat="45.79476" lon="6.96427">
        <ele>1556</ele>
        <time>2022-08-27T07:59:08Z</time>
      </trkpt>
      <trkpt lat="45.79476" lon="6.96427">
        <ele>1556</ele>
        <time>2022-08-27T07:59:09Z</time>
      </trkpt>
      <trkpt lat="45.79476" lon="6.96427">
        <ele>1556</ele>
        <time>2022-08-27T07:59:10Z</time>
      </trkpt>
      <trkpt lat="45.79476" lon="6.96427">
        <ele>1556</ele>
        <time>2022-08-27T07:59:11Z</time>
      </trkpt>
      <trkpt lat="45.79476" lon="6.96427">
        <ele>1556</ele>
        <time>2022-08-27T07:59:12Z</time>
      </trkpt>
      <trkpt lat="45.79476" lon="6.96427">
        <ele>1556</ele>
        <time>2022-08-27T07:59:13Z</time>
      </trkpt>
      <trkpt lat="45.79476" lon="6.96427">
        <ele>1556</ele>
        <time>2022-08-27T07:59:14Z</time>
      </trkpt>
      <trkpt lat="45.79476" lon="6.96427">
        <ele>1556</ele>
        <time>2022-08-27T07:59:15Z</time>
      </trkpt>
      <trkpt lat="45.79476" lon="6.96426">
        <ele>1556</ele>
        <time>2022-08-27T07:59:16Z</time>
      </trkpt>
      <trkpt lat="45.79476" lon="6.96426">
        <ele>1556</ele>
        <time>2022-08-27T07:59:18Z</time>
      </trkpt>
      <trkpt lat="45.79476" lon="6.96426">
        <ele>1556</ele>
        <time>2022-08-27T07:59:19Z</time>
      </trkpt>
      <trkpt lat="45.79476" lon="6.96426">
        <ele>1556</ele>
        <time>2022-08-27T07:59:20Z</time>
      </trkpt>
      <trkpt lat="45.79476" lon="6.96426">
        <ele>1556</ele>
        <time>2022-08-27T07:59:21Z</time>
      </trkpt>
      <trkpt lat="45.79477" lon="6.96426">
        <ele>1556</ele>
        <time>2022-08-27T07:59:22Z</time>
      </trkpt>
      <trkpt lat="45.79477" lon="6.96426">
        <ele>1556</ele>
        <time>2022-08-27T07:59:23Z</time>
      </trkpt>
      <trkpt lat="45.79477" lon="6.96426">
        <ele>1556</ele>
        <time>2022-08-27T07:59:24Z</time>
      </trkpt>
      <trkpt lat="45.79477" lon="6.96426">
        <ele>1556</ele>
        <time>2022-08-27T07:59:25Z</time>
      </trkpt>
      <trkpt lat="45.79477" lon="6.96425">
        <ele>1556</ele>
        <time>2022-08-27T07:59:26Z</time>
      </trkpt>
      <trkpt lat="45.79477" lon="6.96425">
        <ele>1556</ele>
        <time>2022-08-27T07:59:27Z</time>
      </trkpt>
      <trkpt lat="45.79477" lon="6.96425">
        <ele>1556</ele>
        <time>2022-08-27T07:59:28Z</time>
      </trkpt>
      <trkpt lat="45.79477" lon="6.96425">
        <ele>1556</ele>
        <time>2022-08-27T07:59:29Z</time>
      </trkpt>
      <trkpt lat="45.79477" lon="6.96425">
        <ele>1556</ele>
        <time>2022-08-27T07:59:30Z</time>
      </trkpt>
      <trkpt lat="45.79477" lon="6.96425">
        <ele>1556</ele>
        <time>2022-08-27T07:59:31Z</time>
      </trkpt>
      <trkpt lat="45.79477" lon="6.96425">
        <ele>1556</ele>
        <time>2022-08-27T07:59:32Z</time>
      </trkpt>
      <trkpt lat="45.79477" lon="6.96425">
        <ele>1556</ele>
        <time>2022-08-27T07:59:33Z</time>
      </trkpt>
      <trkpt lat="45.79477" lon="6.96425">
        <ele>1556</ele>
        <time>2022-08-27T07:59:34Z</time>
      </trkpt>
      <trkpt lat="45.79477" lon="6.96424">
        <ele>1556</ele>
        <time>2022-08-27T07:59:35Z</time>
      </trkpt>
      <trkpt lat="45.79477" lon="6.96424">
        <ele>1556</ele>
        <time>2022-08-27T07:59:37Z</time>
      </trkpt>
      <trkpt lat="45.79477" lon="6.96424">
        <ele>1556</ele>
        <time>2022-08-27T07:59:38Z</time>
      </trkpt>
      <trkpt lat="45.79477" lon="6.96424">
        <ele>1556</ele>
        <time>2022-08-27T07:59:39Z</time>
      </trkpt>
      <trkpt lat="45.79477" lon="6.96424">
        <ele>1556</ele>
        <time>2022-08-27T07:59:40Z</time>
      </trkpt>
      <trkpt lat="45.79478" lon="6.96424">
        <ele>1556</ele>
        <time>2022-08-27T07:59:41Z</time>
      </trkpt>
      <trkpt lat="45.79478" lon="6.96424">
        <ele>1556</ele>
        <time>2022-08-27T07:59:42Z</time>
      </trkpt>
      <trkpt lat="45.79478" lon="6.96424">
        <ele>1556</ele>
        <time>2022-08-27T07:59:43Z</time>
      </trkpt>
      <trkpt lat="45.79478" lon="6.96424">
        <ele>1556</ele>
        <time>2022-08-27T07:59:44Z</time>
      </trkpt>
      <trkpt lat="45.79478" lon="6.96423">
        <ele>1556</ele>
        <time>2022-08-27T07:59:45Z</time>
      </trkpt>
      <trkpt lat="45.79478" lon="6.96423">
        <ele>1556</ele>
        <time>2022-08-27T07:59:46Z</time>
      </trkpt>
      <trkpt lat="45.79478" lon="6.96423">
        <ele>1556</ele>
        <time>2022-08-27T07:59:47Z</time>
      </trkpt>
      <trkpt lat="45.79478" lon="6.96423">
        <ele>1556</ele>
        <time>2022-08-27T07:59:48Z</time>
      </trkpt>
      <trkpt lat="45.79478" lon="6.96423">
        <ele>1556</ele>
        <time>2022-08-27T07:59:49Z</time>
      </trkpt>
      <trkpt lat="45.79478" lon="6.96423">
        <ele>1556</ele>
        <time>2022-08-27T07:59:50Z</time>
      </trkpt>
      <trkpt lat="45.79478" lon="6.96423">
        <ele>1556</ele>
        <time>2022-08-27T07:59:51Z</time>
      </trkpt>
      <trkpt lat="45.79478" lon="6.96423">
        <ele>1556</ele>
        <time>2022-08-27T07:59:52Z</time>
      </trkpt>
      <trkpt lat="45.79478" lon="6.96423">
        <ele>1556</ele>
        <time>2022-08-27T07:59:53Z</time>
      </trkpt>
      <trkpt lat="45.79478" lon="6.96422">
        <ele>1556</ele>
        <time>2022-08-27T07:59:54Z</time>
      </trkpt>
      <trkpt lat="45.79478" lon="6.96422">
        <ele>1556</ele>
        <time>2022-08-27T07:59:56Z</time>
      </trkpt>
      <trkpt lat="45.79478" lon="6.96422">
        <ele>1556</ele>
        <time>2022-08-27T07:59:57Z</time>
      </trkpt>
      <trkpt lat="45.79478" lon="6.96422">
        <ele>1556</ele>
        <time>2022-08-27T07:59:58Z</time>
      </trkpt>
      <trkpt lat="45.79478" lon="6.96422">
        <ele>1556</ele>
        <time>2022-08-27T07:59:59Z</time>
      </trkpt>
      <trkpt lat="45.79478" lon="6.96422">
        <ele>1556</ele>
        <time>2022-08-27T08:00:00Z</time>
      </trkpt>
      <trkpt lat="45.79479" lon="6.96422">
        <ele>1556</ele>
        <time>2022-08-27T08:00:01Z</time>
      </trkpt>
      <trkpt lat="45.79479" lon="6.96422">
        <ele>1556</ele>
        <time>2022-08-27T08:00:02Z</time>
      </trkpt>
      <trkpt lat="45.79479" lon="6.96422">
        <ele>1556</ele>
        <time>2022-08-27T08:00:03Z</time>
      </trkpt>
      <trkpt lat="45.79479" lon="6.96421">
        <ele>1556</ele>
        <time>2022-08-27T08:00:04Z</time>
      </trkpt>
      <trkpt lat="45.79479" lon="6.96421">
        <ele>1556</ele>
        <time>2022-08-27T08:00:05Z</time>
      </trkpt>
      <trkpt lat="45.79479" lon="6.96421">
        <ele>1556</ele>
        <time>2022-08-27T08:00:06Z</time>
      </trkpt>
      <trkpt lat="45.79479" lon="6.96421">
        <ele>1556</ele>
        <time>2022-08-27T08:00:07Z</time>
      </trkpt>
      <trkpt lat="45.79479" lon="6.96421">
        <ele>1556</ele>
        <time>2022-08-27T08:00:08Z</time>
      </trkpt>
      <trkpt lat="45.79479" lon="6.96421">
        <ele>1556</ele>
        <time>2022-08-27T08:00:09Z</time>
      </trkpt>
      <trkpt lat="45.79479" lon="6.96421">
        <ele>1556</ele>
        <time>2022-08-27T08:00:10Z</time>
      </trkpt>
      <trkpt lat="45.79479" lon="6.96421">
        <ele>1556</ele>
        <time>2022-08-27T08:00:11Z</time>
      </trkpt>
      <trkpt lat="45.79479" lon="6.96421">
        <ele>1556</ele>
        <time>2022-08-27T08:00:12Z</time>
      </trkpt>
      <trkpt lat="45.79479" lon="6.9642">
        <ele>1556</ele>
        <time>2022-08-27T08:00:13Z</time>
      </trkpt>
      <trkpt lat="45.79479" lon="6.9642">
        <ele>1556</ele>
        <time>2022-08-27T08:00:15Z</time>
      </trkpt>
      <trkpt lat="45.79479" lon="6.9642">
        <ele>1556</ele>
        <time>2022-08-27T08:00:16Z</time>
      </trkpt>
      <trkpt lat="45.79479" lon="6.9642">
        <ele>1556</ele>
        <time>2022-08-27T08:00:17Z</time>
      </trkpt>
      <trkpt lat="45.79479" lon="6.9642">
        <ele>1556</ele>
        <time>2022-08-27T08:00:18Z</time>
      </trkpt>
      <trkpt lat="45.79479" lon="6.9642">
        <ele>1556</ele>
        <time>2022-08-27T08:00:19Z</time>
      </trkpt>
      <trkpt lat="45.79479" lon="6.9642">
        <ele>1556</ele>
        <time>2022-08-27T08:00:20Z</time>
      </trkpt>
      <trkpt lat="45.7948" lon="6.9642">
        <ele>1556</ele>
        <time>2022-08-27T08:00:21Z</time>
      </trkpt>
      <trkpt lat="45.7948" lon="6.9642">
        <ele>1556</ele>
        <time>2022-08-27T08:00:22Z</time>
      </trkpt>
      <trkpt lat="45.7948" lon="6.96419">
        <ele>1556</ele>
        <time>2022-08-27T08:00:23Z</time>
      </trkpt>
      <trkpt lat="45.7948" lon="6.96419">
        <ele>1556</ele>
        <time>2022-08-27T08:00:24Z</time>
      </trkpt>
      <trkpt lat="45.7948" lon="6.96419">
        <ele>1556</ele>
        <time>2022-08-27T08:00:25Z</time>
      </trkpt>
      <trkpt lat="45.7948" lon="6.96419">
        <ele>1556</ele>
        <time>2022-08-27T08:00:26Z</time>
      </trkpt>
      <trkpt lat="45.79479" lon="6.9642">
        <ele>1556</ele>
        <time>2022-08-27T08:00:27Z</time>
      </trkpt>
      <trkpt lat="45.79479" lon="6.96421">
        <ele>1556</ele>
        <time>2022-08-27T08:00:28Z</time>
      </trkpt>
      <trkpt lat="45.79478" lon="6.96422">
        <ele>1556</ele>
        <time>2022-08-27T08:00:29Z</time>
      </trkpt>
      <trkpt lat="45.79477" lon="6.96423">
        <ele>1556</ele>
        <time>2022-08-27T08:00:30Z</time>
      </trkpt>
      <trkpt lat="45.79477" lon="6.96424">
        <ele>1556</ele>
        <time>2022-08-27T08:00:31Z</time>
      </trkpt>
      <trkpt lat="45.79476" lon="6.96424">
        <ele>1556</ele>
        <time>2022-08-27T08:00:32Z</time>
      </trkpt>
      <trkpt lat="45.79475" lon="6.96425">
        <ele>1556</ele>
        <time>2022-08-27T08:00:34Z</time>
      </trkpt>
      <trkpt lat="45.79475" lon="6.96426">
        <ele>1556</ele>
        <time>2022-08-27T08:00:35Z</time>
      </trkpt>
      <trkpt lat="45.79474" lon="6.96427">
        <ele>1556</ele>
        <time>2022-08-27T08:00:36Z</time>
      </trkpt>
      <trkpt lat="45.79474" lon="6.96428">
        <ele>1556</ele>
        <time>2022-08-27T08:00:37Z</time>
      </trkpt>
      <trkpt lat="45.79473" lon="6.96429">
        <ele>1556</ele>
        <time>2022-08-27T08:00:38Z</time>
      </trkpt>
      <trkpt lat="45.79472" lon="6.9643">
        <ele>1556</ele>
        <time>2022-08-27T08:00:39Z</time>
      </trkpt>
      <trkpt lat="45.79472" lon="6.96431">
        <ele>1556</ele>
        <time>2022-08-27T08:00:41Z</time>
      </trkpt>
      <trkpt lat="45.79471" lon="6.96432">
        <ele>1556</ele>
        <time>2022-08-27T08:00:42Z</time>
      </trkpt>
      <trkpt lat="45.79471" lon="6.96432">
        <ele>1556</ele>
        <time>2022-08-27T08:00:43Z</time>
      </trkpt>
      <trkpt lat="45.79471" lon="6.96433">
        <ele>1556</ele>
        <time>2022-08-27T08:00:44Z</time>
      </trkpt>
      <trkpt lat="45.79471" lon="6.96434">
        <ele>1556</ele>
        <time>2022-08-27T08:00:45Z</time>
      </trkpt>
      <trkpt lat="45.79471" lon="6.96434">
        <ele>1556</ele>
        <time>2022-08-27T08:00:46Z</time>
      </trkpt>
      <trkpt lat="45.79471" lon="6.96435">
        <ele>1556</ele>
        <time>2022-08-27T08:00:47Z</time>
      </trkpt>
      <trkpt lat="45.79471" lon="6.96436">
        <ele>1556</ele>
        <time>2022-08-27T08:00:48Z</time>
      </trkpt>
      <trkpt lat="45.79471" lon="6.96436">
        <ele>1556</ele>
        <time>2022-08-27T08:00:49Z</time>
      </trkpt>
      <trkpt lat="45.79471" lon="6.96437">
        <ele>1556</ele>
        <time>2022-08-27T08:00:50Z</time>
      </trkpt>
      <trkpt lat="45.79471" lon="6.96437">
        <ele>1556</ele>
        <time>2022-08-27T08:00:51Z</time>
      </trkpt>
      <trkpt lat="45.79471" lon="6.96438">
        <ele>1556</ele>
        <time>2022-08-27T08:00:53Z</time>
      </trkpt>
      <trkpt lat="45.79471" lon="6.96439">
        <ele>1556</ele>
        <time>2022-08-27T08:00:54Z</time>
      </trkpt>
      <trkpt lat="45.79471" lon="6.96439">
        <ele>1556</ele>
        <time>2022-08-27T08:00:55Z</time>
      </trkpt>
      <trkpt lat="45.79471" lon="6.9644">
        <ele>1556</ele>
        <time>2022-08-27T08:00:56Z</time>
      </trkpt>
      <trkpt lat="45.79471" lon="6.96441">
        <ele>1556</ele>
        <time>2022-08-27T08:00:57Z</time>
      </trkpt>
      <trkpt lat="45.79471" lon="6.96441">
        <ele>1556</ele>
        <time>2022-08-27T08:00:58Z</time>
      </trkpt>
      <trkpt lat="45.79471" lon="6.96442">
        <ele>1556</ele>
        <time>2022-08-27T08:00:59Z</time>
      </trkpt>
      <trkpt lat="45.79471" lon="6.96443">
        <ele>1556</ele>
        <time>2022-08-27T08:01:00Z</time>
      </trkpt>
      <trkpt lat="45.79471" lon="6.96443">
        <ele>1556</ele>
        <time>2022-08-27T08:01:01Z</time>
      </trkpt>
      <trkpt lat="45.79471" lon="6.96444">
        <ele>1556</ele>
        <time>2022-08-27T08:01:02Z</time>
      </trkpt>
      <trkpt lat="45.79471" lon="6.96445">
        <ele>1556</ele>
        <time>2022-08-27T08:01:03Z</time>
      </trkpt>
      <trkpt lat="45.79471" lon="6.96445">
        <ele>1556</ele>
        <time>2022-08-27T08:01:04Z</time>
      </trkpt>
      <trkpt lat="45.79471" lon="6.96446">
        <ele>1556</ele>
        <time>2022-08-27T08:01:05Z</time>
      </trkpt>
      <trkpt lat="45.79471" lon="6.96446">
        <ele>1556</ele>
        <time>2022-08-27T08:01:06Z</time>
      </trkpt>
      <trkpt lat="45.79471" lon="6.96447">
        <ele>1556</ele>
        <time>2022-08-27T08:01:07Z</time>
      </trkpt>
      <trkpt lat="45.79471" lon="6.96448">
        <ele>1556</ele>
        <time>2022-08-27T08:01:08Z</time>
      </trkpt>
      <trkpt lat="45.79471" lon="6.96448">
        <ele>1556</ele>
        <time>2022-08-27T08:01:09Z</time>
      </trkpt>
      <trkpt lat="45.79471" lon="6.96449">
        <ele>1556</ele>
        <time>2022-08-27T08:01:10Z</time>
      </trkpt>
      <trkpt lat="45.79471" lon="6.9645">
        <ele>1556</ele>
        <time>2022-08-27T08:01:12Z</time>
      </trkpt>
      <trkpt lat="45.79471" lon="6.9645">
        <ele>1556</ele>
        <time>2022-08-27T08:01:13Z</time>
      </trkpt>
      <trkpt lat="45.79471" lon="6.96451">
        <ele>1556</ele>
        <time>2022-08-27T08:01:14Z</time>
      </trkpt>
      <trkpt lat="45.79471" lon="6.96451">
        <ele>1556</ele>
        <time>2022-08-27T08:01:15Z</time>
      </trkpt>
      <trkpt lat="45.79471" lon="6.96451">
        <ele>1556</ele>
        <time>2022-08-27T08:01:16Z</time>
      </trkpt>
      <trkpt lat="45.7947" lon="6.96451">
        <ele>1556</ele>
        <time>2022-08-27T08:01:17Z</time>
      </trkpt>
      <trkpt lat="45.7947" lon="6.96451">
        <ele>1556</ele>
        <time>2022-08-27T08:01:18Z</time>
      </trkpt>
      <trkpt lat="45.7947" lon="6.96451">
        <ele>1556</ele>
        <time>2022-08-27T08:01:19Z</time>
      </trkpt>
      <trkpt lat="45.7947" lon="6.96451">
        <ele>1556</ele>
        <time>2022-08-27T08:01:20Z</time>
      </trkpt>
      <trkpt lat="45.79469" lon="6.96451">
        <ele>1556</ele>
        <time>2022-08-27T08:01:21Z</time>
      </trkpt>
      <trkpt lat="45.79469" lon="6.96451">
        <ele>1556</ele>
        <time>2022-08-27T08:01:22Z</time>
      </trkpt>
      <trkpt lat="45.79469" lon="6.96451">
        <ele>1556</ele>
        <time>2022-08-27T08:01:23Z</time>
      </trkpt>
      <trkpt lat="45.79468" lon="6.96451">
        <ele>1556</ele>
        <time>2022-08-27T08:01:24Z</time>
      </trkpt>
      <trkpt lat="45.79468" lon="6.96451">
        <ele>1556</ele>
        <time>2022-08-27T08:01:25Z</time>
      </trkpt>
      <trkpt lat="45.79468" lon="6.96451">
        <ele>1556</ele>
        <time>2022-08-27T08:01:26Z</time>
      </trkpt>
      <trkpt lat="45.79467" lon="6.96452">
        <ele>1556</ele>
        <time>2022-08-27T08:01:27Z</time>
      </trkpt>
      <trkpt lat="45.79467" lon="6.96452">
        <ele>1556</ele>
        <time>2022-08-27T08:01:28Z</time>
      </trkpt>
      <trkpt lat="45.79467" lon="6.96452">
        <ele>1556</ele>
        <time>2022-08-27T08:01:29Z</time>
      </trkpt>
      <trkpt lat="45.79466" lon="6.96452">
        <ele>1556</ele>
        <time>2022-08-27T08:01:31Z</time>
      </trkpt>
      <trkpt lat="45.79466" lon="6.96452">
        <ele>1556</ele>
        <time>2022-08-27T08:01:32Z</time>
      </trkpt>
      <trkpt lat="45.79466" lon="6.96452">
        <ele>1556</ele>
        <time>2022-08-27T08:01:33Z</time>
      </trkpt>
      <trkpt lat="45.79466" lon="6.96452">
        <ele>1556</ele>
        <time>2022-08-27T08:01:34Z</time>
      </trkpt>
      <trkpt lat="45.79465" lon="6.96452">
        <ele>1556</ele>
        <time>2022-08-27T08:01:35Z</time>
      </trkpt>
      <trkpt lat="45.79465" lon="6.96452">
        <ele>1556</ele>
        <time>2022-08-27T08:01:36Z</time>
      </trkpt>
      <trkpt lat="45.79465" lon="6.96452">
        <ele>1556</ele>
        <time>2022-08-27T08:01:37Z</time>
      </trkpt>
      <trkpt lat="45.79464" lon="6.96452">
        <ele>1556</ele>
        <time>2022-08-27T08:01:38Z</time>
      </trkpt>
      <trkpt lat="45.79464" lon="6.96452">
        <ele>1556</ele>
        <time>2022-08-27T08:01:39Z</time>
      </trkpt>
      <trkpt lat="45.79464" lon="6.96452">
        <ele>1556</ele>
        <time>2022-08-27T08:01:40Z</time>
      </trkpt>
      <trkpt lat="45.79463" lon="6.96452">
        <ele>1556</ele>
        <time>2022-08-27T08:01:41Z</time>
      </trkpt>
      <trkpt lat="45.79463" lon="6.96452">
        <ele>1556</ele>
        <time>2022-08-27T08:01:42Z</time>
      </trkpt>
      <trkpt lat="45.79463" lon="6.96452">
        <ele>1556</ele>
        <time>2022-08-27T08:01:43Z</time>
      </trkpt>
      <trkpt lat="45.79462" lon="6.96452">
        <ele>1556</ele>
        <time>2022-08-27T08:01:44Z</time>
      </trkpt>
      <trkpt lat="45.79462" lon="6.96452">
        <ele>1556</ele>
        <time>2022-08-27T08:01:45Z</time>
      </trkpt>
      <trkpt lat="45.79462" lon="6.96452">
        <ele>1556</ele>
        <time>2022-08-27T08:01:46Z</time>
      </trkpt>
      <trkpt lat="45.79462" lon="6.96452">
        <ele>1556</ele>
        <time>2022-08-27T08:01:47Z</time>
      </trkpt>
      <trkpt lat="45.79461" lon="6.96452">
        <ele>1556</ele>
        <time>2022-08-27T08:01:48Z</time>
      </trkpt>
      <trkpt lat="45.79461" lon="6.96452">
        <ele>1556</ele>
        <time>2022-08-27T08:01:50Z</time>
      </trkpt>
      <trkpt lat="45.79461" lon="6.96452">
        <ele>1556</ele>
        <time>2022-08-27T08:01:51Z</time>
      </trkpt>
      <trkpt lat="45.7946" lon="6.96453">
        <ele>1556</ele>
        <time>2022-08-27T08:01:52Z</time>
      </trkpt>
      <trkpt lat="45.7946" lon="6.96453">
        <ele>1556</ele>
        <time>2022-08-27T08:01:53Z</time>
      </trkpt>
      <trkpt lat="45.7946" lon="6.96453">
        <ele>1556</ele>
        <time>2022-08-27T08:01:54Z</time>
      </trkpt>
      <trkpt lat="45.79459" lon="6.96453">
        <ele>1556</ele>
        <time>2022-08-27T08:01:55Z</time>
      </trkpt>
      <trkpt lat="45.79459" lon="6.96453">
        <ele>1556</ele>
        <time>2022-08-27T08:01:56Z</time>
      </trkpt>
      <trkpt lat="45.79459" lon="6.96453">
        <ele>1556</ele>
        <time>2022-08-27T08:01:57Z</time>
      </trkpt>
      <trkpt lat="45.79459" lon="6.96453">
        <ele>1556</ele>
        <time>2022-08-27T08:01:58Z</time>
      </trkpt>
      <trkpt lat="45.79458" lon="6.96453">
        <ele>1556</ele>
        <time>2022-08-27T08:01:59Z</time>
      </trkpt>
      <trkpt lat="45.79458" lon="6.96453">
        <ele>1556</ele>
        <time>2022-08-27T08:02:00Z</time>
      </trkpt>
      <trkpt lat="45.79458" lon="6.96453">
        <ele>1556</ele>
        <time>2022-08-27T08:02:01Z</time>
      </trkpt>
      <trkpt lat="45.79457" lon="6.96453">
        <ele>1556</ele>
        <time>2022-08-27T08:02:02Z</time>
      </trkpt>
      <trkpt lat="45.79457" lon="6.96453">
        <ele>1556</ele>
        <time>2022-08-27T08:02:03Z</time>
      </trkpt>
      <trkpt lat="45.79457" lon="6.96453">
        <ele>1556</ele>
        <time>2022-08-27T08:02:04Z</time>
      </trkpt>
      <trkpt lat="45.79456" lon="6.96453">
        <ele>1556</ele>
        <time>2022-08-27T08:02:05Z</time>
      </trkpt>
      <trkpt lat="45.79456" lon="6.96453">
        <ele>1556</ele>
        <time>2022-08-27T08:02:06Z</time>
      </trkpt>
      <trkpt lat="45.79456" lon="6.96453">
        <ele>1556</ele>
        <time>2022-08-27T08:02:07Z</time>
      </trkpt>
      <trkpt lat="45.79455" lon="6.96453">
        <ele>1556</ele>
        <time>2022-08-27T08:02:08Z</time>
      </trkpt>
      <trkpt lat="45.79458" lon="6.96448">
        <ele>1556</ele>
        <time>2022-08-27T08:02:09Z</time>
      </trkpt>
      <trkpt lat="45.79461" lon="6.96443">
        <ele>1556</ele>
        <time>2022-08-27T08:02:10Z</time>
      </trkpt>
      <trkpt lat="45.79462" lon="6.9644">
        <ele>1556</ele>
        <time>2022-08-27T08:02:11Z</time>
      </trkpt>
      <trkpt lat="45.79463" lon="6.96437">
        <ele>1556</ele>
        <time>2022-08-27T08:02:12Z</time>
      </trkpt>
      <trkpt lat="45.79464" lon="6.96434">
        <ele>1556</ele>
        <time>2022-08-27T08:02:13Z</time>
      </trkpt>
      <trkpt lat="45.79465" lon="6.96431">
        <ele>1556</ele>
        <time>2022-08-27T08:02:14Z</time>
      </trkpt>
      <trkpt lat="45.79464" lon="6.96433">
        <ele>1556</ele>
        <time>2022-08-27T08:02:15Z</time>
      </trkpt>
      <trkpt lat="45.79463" lon="6.96435">
        <ele>1556</ele>
        <time>2022-08-27T08:02:16Z</time>
      </trkpt>
      <trkpt lat="45.79462" lon="6.96437">
        <ele>1556</ele>
        <time>2022-08-27T08:02:17Z</time>
      </trkpt>
      <trkpt lat="45.79461" lon="6.96439">
        <ele>1556</ele>
        <time>2022-08-27T08:02:19Z</time>
      </trkpt>
      <trkpt lat="45.7946" lon="6.96441">
        <ele>1556</ele>
        <time>2022-08-27T08:02:20Z</time>
      </trkpt>
      <trkpt lat="45.79459" lon="6.96443">
        <ele>1556</ele>
        <time>2022-08-27T08:02:21Z</time>
      </trkpt>
      <trkpt lat="45.79458" lon="6.96444">
        <ele>1556</ele>
        <time>2022-08-27T08:02:22Z</time>
      </trkpt>
      <trkpt lat="45.79457" lon="6.96446">
        <ele>1556</ele>
        <time>2022-08-27T08:02:23Z</time>
      </trkpt>
      <trkpt lat="45.79456" lon="6.96448">
        <ele>1556</ele>
        <time>2022-08-27T08:02:24Z</time>
      </trkpt>
      <trkpt lat="45.79455" lon="6.9645">
        <ele>1556</ele>
        <time>2022-08-27T08:02:25Z</time>
      </trkpt>
      <trkpt lat="45.79454" lon="6.96452">
        <ele>1556</ele>
        <time>2022-08-27T08:02:26Z</time>
      </trkpt>
      <trkpt lat="45.79453" lon="6.96454">
        <ele>1556</ele>
        <time>2022-08-27T08:02:28Z</time>
      </trkpt>
      <trkpt lat="45.79452" lon="6.96456">
        <ele>1556</ele>
        <time>2022-08-27T08:02:29Z</time>
      </trkpt>
      <trkpt lat="45.79453" lon="6.96455">
        <ele>1556</ele>
        <time>2022-08-27T08:02:30Z</time>
      </trkpt>
      <trkpt lat="45.79453" lon="6.96454">
        <ele>1556</ele>
        <time>2022-08-27T08:02:31Z</time>
      </trkpt>
      <trkpt lat="45.79454" lon="6.96453">
        <ele>1556</ele>
        <time>2022-08-27T08:02:32Z</time>
      </trkpt>
      <trkpt lat="45.79455" lon="6.96452">
        <ele>1556</ele>
        <time>2022-08-27T08:02:33Z</time>
      </trkpt>
      <trkpt lat="45.79455" lon="6.96451">
        <ele>1556</ele>
        <time>2022-08-27T08:02:34Z</time>
      </trkpt>
      <trkpt lat="45.79456" lon="6.9645">
        <ele>1556</ele>
        <time>2022-08-27T08:02:35Z</time>
      </trkpt>
      <trkpt lat="45.79457" lon="6.96449">
        <ele>1556</ele>
        <time>2022-08-27T08:02:36Z</time>
      </trkpt>
      <trkpt lat="45.79457" lon="6.96449">
        <ele>1556</ele>
        <time>2022-08-27T08:02:37Z</time>
      </trkpt>
      <trkpt lat="45.79462" lon="6.96441">
        <ele>1556</ele>
        <time>2022-08-27T08:02:38Z</time>
      </trkpt>
      <trkpt lat="45.79462" lon="6.96441">
        <ele>1556</ele>
        <time>2022-08-27T08:02:55Z</time>
      </trkpt>
      <trkpt lat="45.79462" lon="6.96441">
        <ele>1556</ele>
        <time>2022-08-27T08:03:12Z</time>
      </trkpt>
      <trkpt lat="45.79462" lon="6.96441">
        <ele>1556</ele>
        <time>2022-08-27T08:03:29Z</time>
      </trkpt>
      <trkpt lat="45.79462" lon="6.96441">
        <ele>1556</ele>
        <time>2022-08-27T08:03:46Z</time>
      </trkpt>
      <trkpt lat="45.79462" lon="6.96441">
        <ele>1556</ele>
        <time>2022-08-27T08:04:04Z</time>
      </trkpt>
      <trkpt lat="45.79462" lon="6.96441">
        <ele>1556</ele>
        <time>2022-08-27T08:04:20Z</time>
      </trkpt>
      <trkpt lat="45.79462" lon="6.96441">
        <ele>1556</ele>
        <time>2022-08-27T08:04:37Z</time>
      </trkpt>
      <trkpt lat="45.79462" lon="6.96441">
        <ele>1556</ele>
        <time>2022-08-27T08:04:55Z</time>
      </trkpt>
      <trkpt lat="45.79462" lon="6.96441">
        <ele>1556</ele>
        <time>2022-08-27T08:05:12Z</time>
      </trkpt>
      <trkpt lat="45.79462" lon="6.96441">
        <ele>1556</ele>
        <time>2022-08-27T08:05:29Z</time>
      </trkpt>
      <trkpt lat="45.79462" lon="6.96441">
        <ele>1556</ele>
        <time>2022-08-27T08:05:46Z</time>
      </trkpt>
      <trkpt lat="45.79462" lon="6.96441">
        <ele>1556</ele>
        <time>2022-08-27T08:06:03Z</time>
      </trkpt>
      <trkpt lat="45.79462" lon="6.96441">
        <ele>1556</ele>
        <time>2022-08-27T08:06:20Z</time>
      </trkpt>
      <trkpt lat="45.79462" lon="6.96441">
        <ele>1556</ele>
        <time>2022-08-27T08:06:37Z</time>
      </trkpt>
      <trkpt lat="45.79462" lon="6.96441">
        <ele>1556</ele>
        <time>2022-08-27T08:06:54Z</time>
      </trkpt>
      <trkpt lat="45.79462" lon="6.96441">
        <ele>1556</ele>
        <time>2022-08-27T08:07:10Z</time>
      </trkpt>
      <trkpt lat="45.79462" lon="6.96441">
        <ele>1556</ele>
        <time>2022-08-27T08:07:27Z</time>
      </trkpt>
      <trkpt lat="45.79462" lon="6.96441">
        <ele>1556</ele>
        <time>2022-08-27T08:07:44Z</time>
      </trkpt>
      <trkpt lat="45.79462" lon="6.96441">
        <ele>1556</ele>
        <time>2022-08-27T08:08:01Z</time>
      </trkpt>
      <trkpt lat="45.79462" lon="6.96441">
        <ele>1556</ele>
        <time>2022-08-27T08:08:19Z</time>
      </trkpt>
      <trkpt lat="45.79462" lon="6.96441">
        <ele>1556</ele>
        <time>2022-08-27T08:08:36Z</time>
      </trkpt>
      <trkpt lat="45.79462" lon="6.96441">
        <ele>1556</ele>
        <time>2022-08-27T08:08:53Z</time>
      </trkpt>
      <trkpt lat="45.79462" lon="6.96441">
        <ele>1556</ele>
        <time>2022-08-27T08:09:11Z</time>
      </trkpt>
      <trkpt lat="45.79462" lon="6.96441">
        <ele>1556</ele>
        <time>2022-08-27T08:09:28Z</time>
      </trkpt>
      <trkpt lat="45.79462" lon="6.96441">
        <ele>1556</ele>
        <time>2022-08-27T08:09:47Z</time>
      </trkpt>
      <trkpt lat="45.79462" lon="6.96441">
        <ele>1556</ele>
        <time>2022-08-27T08:10:05Z</time>
      </trkpt>
      <trkpt lat="45.79462" lon="6.96441">
        <ele>1556</ele>
        <time>2022-08-27T08:10:21Z</time>
      </trkpt>
      <trkpt lat="45.79462" lon="6.96441">
        <ele>1556</ele>
        <time>2022-08-27T08:10:38Z</time>
      </trkpt>
      <trkpt lat="45.79462" lon="6.96441">
        <ele>1556</ele>
        <time>2022-08-27T08:10:56Z</time>
      </trkpt>
      <trkpt lat="45.79462" lon="6.96441">
        <ele>1556</ele>
        <time>2022-08-27T08:11:18Z</time>
      </trkpt>
      <trkpt lat="45.79462" lon="6.96441">
        <ele>1556</ele>
        <time>2022-08-27T08:11:39Z</time>
      </trkpt>
      <trkpt lat="45.79462" lon="6.96441">
        <ele>1556</ele>
        <time>2022-08-27T08:11:58Z</time>
      </trkpt>
      <trkpt lat="45.79463" lon="6.96441">
        <ele>1556</ele>
        <time>2022-08-27T08:12:19Z</time>
      </trkpt>
      <trkpt lat="45.79463" lon="6.96441">
        <ele>1556</ele>
        <time>2022-08-27T08:12:20Z</time>
      </trkpt>
      <trkpt lat="45.79463" lon="6.9644">
        <ele>1556</ele>
        <time>2022-08-27T08:12:21Z</time>
      </trkpt>
      <trkpt lat="45.79463" lon="6.9644">
        <ele>1556</ele>
        <time>2022-08-27T08:12:23Z</time>
      </trkpt>
      <trkpt lat="45.79463" lon="6.9644">
        <ele>1556</ele>
        <time>2022-08-27T08:12:24Z</time>
      </trkpt>
      <trkpt lat="45.79464" lon="6.9644">
        <ele>1556</ele>
        <time>2022-08-27T08:12:25Z</time>
      </trkpt>
      <trkpt lat="45.79464" lon="6.96439">
        <ele>1556</ele>
        <time>2022-08-27T08:12:26Z</time>
      </trkpt>
      <trkpt lat="45.79464" lon="6.96439">
        <ele>1556</ele>
        <time>2022-08-27T08:12:27Z</time>
      </trkpt>
      <trkpt lat="45.79464" lon="6.96439">
        <ele>1556</ele>
        <time>2022-08-27T08:12:29Z</time>
      </trkpt>
      <trkpt lat="45.79464" lon="6.96439">
        <ele>1556</ele>
        <time>2022-08-27T08:12:30Z</time>
      </trkpt>
      <trkpt lat="45.79464" lon="6.96438">
        <ele>1556</ele>
        <time>2022-08-27T08:12:31Z</time>
      </trkpt>
      <trkpt lat="45.79465" lon="6.96438">
        <ele>1556</ele>
        <time>2022-08-27T08:12:32Z</time>
      </trkpt>
      <trkpt lat="45.79465" lon="6.96438">
        <ele>1556</ele>
        <time>2022-08-27T08:12:34Z</time>
      </trkpt>
      <trkpt lat="45.79465" lon="6.96438">
        <ele>1556</ele>
        <time>2022-08-27T08:12:36Z</time>
      </trkpt>
      <trkpt lat="45.79465" lon="6.96437">
        <ele>1556</ele>
        <time>2022-08-27T08:12:37Z</time>
      </trkpt>
      <trkpt lat="45.79465" lon="6.96437">
        <ele>1556</ele>
        <time>2022-08-27T08:12:38Z</time>
      </trkpt>
      <trkpt lat="45.79465" lon="6.96437">
        <ele>1556</ele>
        <time>2022-08-27T08:12:39Z</time>
      </trkpt>
      <trkpt lat="45.79466" lon="6.96437">
        <ele>1556</ele>
        <time>2022-08-27T08:12:41Z</time>
      </trkpt>
      <trkpt lat="45.79466" lon="6.96436">
        <ele>1556</ele>
        <time>2022-08-27T08:12:42Z</time>
      </trkpt>
      <trkpt lat="45.79466" lon="6.96436">
        <ele>1556</ele>
        <time>2022-08-27T08:12:43Z</time>
      </trkpt>
      <trkpt lat="45.79466" lon="6.96436">
        <ele>1556</ele>
        <time>2022-08-27T08:12:44Z</time>
      </trkpt>
      <trkpt lat="45.79466" lon="6.96436">
        <ele>1556</ele>
        <time>2022-08-27T08:12:45Z</time>
      </trkpt>
      <trkpt lat="45.79466" lon="6.96435">
        <ele>1556</ele>
        <time>2022-08-27T08:12:46Z</time>
      </trkpt>
      <trkpt lat="45.79467" lon="6.96435">
        <ele>1556</ele>
        <time>2022-08-27T08:12:47Z</time>
      </trkpt>
      <trkpt lat="45.79467" lon="6.96435">
        <ele>1556</ele>
        <time>2022-08-27T08:12:48Z</time>
      </trkpt>
      <trkpt lat="45.79467" lon="6.96435">
        <ele>1556</ele>
        <time>2022-08-27T08:12:49Z</time>
      </trkpt>
      <trkpt lat="45.79467" lon="6.96434">
        <ele>1556</ele>
        <time>2022-08-27T08:12:50Z</time>
      </trkpt>
      <trkpt lat="45.79467" lon="6.96434">
        <ele>1556</ele>
        <time>2022-08-27T08:12:51Z</time>
      </trkpt>
      <trkpt lat="45.79467" lon="6.96434">
        <ele>1556</ele>
        <time>2022-08-27T08:12:52Z</time>
      </trkpt>
      <trkpt lat="45.79468" lon="6.96434">
        <ele>1556</ele>
        <time>2022-08-27T08:12:53Z</time>
      </trkpt>
      <trkpt lat="45.79468" lon="6.96433">
        <ele>1556</ele>
        <time>2022-08-27T08:12:55Z</time>
      </trkpt>
      <trkpt lat="45.79468" lon="6.96433">
        <ele>1556</ele>
        <time>2022-08-27T08:12:56Z</time>
      </trkpt>
      <trkpt lat="45.79468" lon="6.96433">
        <ele>1556</ele>
        <time>2022-08-27T08:12:57Z</time>
      </trkpt>
      <trkpt lat="45.79468" lon="6.96433">
        <ele>1556</ele>
        <time>2022-08-27T08:12:58Z</time>
      </trkpt>
      <trkpt lat="45.79468" lon="6.96432">
        <ele>1556</ele>
        <time>2022-08-27T08:12:59Z</time>
      </trkpt>
      <trkpt lat="45.79469" lon="6.96432">
        <ele>1556</ele>
        <time>2022-08-27T08:13:00Z</time>
      </trkpt>
      <trkpt lat="45.79469" lon="6.96432">
        <ele>1556</ele>
        <time>2022-08-27T08:13:01Z</time>
      </trkpt>
      <trkpt lat="45.79469" lon="6.96432">
        <ele>1556</ele>
        <time>2022-08-27T08:13:02Z</time>
      </trkpt>
      <trkpt lat="45.79469" lon="6.96431">
        <ele>1556</ele>
        <time>2022-08-27T08:13:03Z</time>
      </trkpt>
      <trkpt lat="45.79469" lon="6.96431">
        <ele>1556</ele>
        <time>2022-08-27T08:13:04Z</time>
      </trkpt>
      <trkpt lat="45.7947" lon="6.96431">
        <ele>1556</ele>
        <time>2022-08-27T08:13:05Z</time>
      </trkpt>
      <trkpt lat="45.7947" lon="6.96431">
        <ele>1556</ele>
        <time>2022-08-27T08:13:06Z</time>
      </trkpt>
      <trkpt lat="45.7947" lon="6.9643">
        <ele>1556</ele>
        <time>2022-08-27T08:13:07Z</time>
      </trkpt>
      <trkpt lat="45.7947" lon="6.9643">
        <ele>1556</ele>
        <time>2022-08-27T08:13:08Z</time>
      </trkpt>
      <trkpt lat="45.7947" lon="6.9643">
        <ele>1556</ele>
        <time>2022-08-27T08:13:09Z</time>
      </trkpt>
      <trkpt lat="45.7947" lon="6.9643">
        <ele>1556</ele>
        <time>2022-08-27T08:13:10Z</time>
      </trkpt>
      <trkpt lat="45.79471" lon="6.96429">
        <ele>1556</ele>
        <time>2022-08-27T08:13:11Z</time>
      </trkpt>
      <trkpt lat="45.79471" lon="6.96429">
        <ele>1556</ele>
        <time>2022-08-27T08:13:12Z</time>
      </trkpt>
      <trkpt lat="45.79471" lon="6.96429">
        <ele>1556</ele>
        <time>2022-08-27T08:13:14Z</time>
      </trkpt>
      <trkpt lat="45.79471" lon="6.96429">
        <ele>1556</ele>
        <time>2022-08-27T08:13:15Z</time>
      </trkpt>
      <trkpt lat="45.79471" lon="6.96428">
        <ele>1556</ele>
        <time>2022-08-27T08:13:16Z</time>
      </trkpt>
      <trkpt lat="45.79471" lon="6.96428">
        <ele>1556</ele>
        <time>2022-08-27T08:13:17Z</time>
      </trkpt>
      <trkpt lat="45.79472" lon="6.96428">
        <ele>1556</ele>
        <time>2022-08-27T08:13:18Z</time>
      </trkpt>
      <trkpt lat="45.79472" lon="6.96428">
        <ele>1556</ele>
        <time>2022-08-27T08:13:19Z</time>
      </trkpt>
      <trkpt lat="45.79472" lon="6.96428">
        <ele>1556</ele>
        <time>2022-08-27T08:13:20Z</time>
      </trkpt>
      <trkpt lat="45.79472" lon="6.96427">
        <ele>1556</ele>
        <time>2022-08-27T08:13:21Z</time>
      </trkpt>
      <trkpt lat="45.79472" lon="6.96427">
        <ele>1556</ele>
        <time>2022-08-27T08:13:22Z</time>
      </trkpt>
      <trkpt lat="45.79472" lon="6.96427">
        <ele>1556</ele>
        <time>2022-08-27T08:13:23Z</time>
      </trkpt>
      <trkpt lat="45.79473" lon="6.96427">
        <ele>1556</ele>
        <time>2022-08-27T08:13:24Z</time>
      </trkpt>
      <trkpt lat="45.79473" lon="6.96426">
        <ele>1556</ele>
        <time>2022-08-27T08:13:25Z</time>
      </trkpt>
      <trkpt lat="45.79473" lon="6.96426">
        <ele>1556</ele>
        <time>2022-08-27T08:13:26Z</time>
      </trkpt>
      <trkpt lat="45.79473" lon="6.96426">
        <ele>1556</ele>
        <time>2022-08-27T08:13:27Z</time>
      </trkpt>
      <trkpt lat="45.79473" lon="6.96426">
        <ele>1556</ele>
        <time>2022-08-27T08:13:28Z</time>
      </trkpt>
      <trkpt lat="45.79473" lon="6.96425">
        <ele>1556</ele>
        <time>2022-08-27T08:13:29Z</time>
      </trkpt>
      <trkpt lat="45.79474" lon="6.96425">
        <ele>1556</ele>
        <time>2022-08-27T08:13:30Z</time>
      </trkpt>
      <trkpt lat="45.79474" lon="6.96425">
        <ele>1556</ele>
        <time>2022-08-27T08:13:31Z</time>
      </trkpt>
      <trkpt lat="45.79474" lon="6.96425">
        <ele>1556</ele>
        <time>2022-08-27T08:13:33Z</time>
      </trkpt>
      <trkpt lat="45.79474" lon="6.96424">
        <ele>1556</ele>
        <time>2022-08-27T08:13:34Z</time>
      </trkpt>
      <trkpt lat="45.79474" lon="6.96424">
        <ele>1556</ele>
        <time>2022-08-27T08:13:35Z</time>
      </trkpt>
      <trkpt lat="45.79474" lon="6.96424">
        <ele>1556</ele>
        <time>2022-08-27T08:13:36Z</time>
      </trkpt>
      <trkpt lat="45.79475" lon="6.96424">
        <ele>1556</ele>
        <time>2022-08-27T08:13:37Z</time>
      </trkpt>
      <trkpt lat="45.79475" lon="6.96423">
        <ele>1556</ele>
        <time>2022-08-27T08:13:38Z</time>
      </trkpt>
      <trkpt lat="45.79475" lon="6.96423">
        <ele>1556</ele>
        <time>2022-08-27T08:13:39Z</time>
      </trkpt>
      <trkpt lat="45.79475" lon="6.96423">
        <ele>1556</ele>
        <time>2022-08-27T08:13:40Z</time>
      </trkpt>
      <trkpt lat="45.79475" lon="6.96423">
        <ele>1556</ele>
        <time>2022-08-27T08:13:41Z</time>
      </trkpt>
      <trkpt lat="45.79476" lon="6.96422">
        <ele>1556</ele>
        <time>2022-08-27T08:13:42Z</time>
      </trkpt>
      <trkpt lat="45.79476" lon="6.96422">
        <ele>1556</ele>
        <time>2022-08-27T08:13:43Z</time>
      </trkpt>
      <trkpt lat="45.79476" lon="6.96422">
        <ele>1556</ele>
        <time>2022-08-27T08:13:44Z</time>
      </trkpt>
      <trkpt lat="45.79476" lon="6.96422">
        <ele>1556</ele>
        <time>2022-08-27T08:13:45Z</time>
      </trkpt>
      <trkpt lat="45.79476" lon="6.96421">
        <ele>1556</ele>
        <time>2022-08-27T08:13:46Z</time>
      </trkpt>
      <trkpt lat="45.79476" lon="6.96421">
        <ele>1556</ele>
        <time>2022-08-27T08:13:47Z</time>
      </trkpt>
      <trkpt lat="45.79477" lon="6.96421">
        <ele>1556</ele>
        <time>2022-08-27T08:13:48Z</time>
      </trkpt>
      <trkpt lat="45.79477" lon="6.96421">
        <ele>1556</ele>
        <time>2022-08-27T08:13:49Z</time>
      </trkpt>
      <trkpt lat="45.79477" lon="6.9642">
        <ele>1556</ele>
        <time>2022-08-27T08:13:50Z</time>
      </trkpt>
      <trkpt lat="45.79477" lon="6.9642">
        <ele>1556</ele>
        <time>2022-08-27T08:13:52Z</time>
      </trkpt>
      <trkpt lat="45.79477" lon="6.9642">
        <ele>1556</ele>
        <time>2022-08-27T08:13:53Z</time>
      </trkpt>
      <trkpt lat="45.79477" lon="6.9642">
        <ele>1556</ele>
        <time>2022-08-27T08:13:54Z</time>
      </trkpt>
      <trkpt lat="45.79478" lon="6.96419">
        <ele>1556</ele>
        <time>2022-08-27T08:13:55Z</time>
      </trkpt>
      <trkpt lat="45.79478" lon="6.96419">
        <ele>1556</ele>
        <time>2022-08-27T08:13:56Z</time>
      </trkpt>
      <trkpt lat="45.79478" lon="6.96419">
        <ele>1556</ele>
        <time>2022-08-27T08:13:57Z</time>
      </trkpt>
      <trkpt lat="45.79478" lon="6.96419">
        <ele>1556</ele>
        <time>2022-08-27T08:13:58Z</time>
      </trkpt>
      <trkpt lat="45.79478" lon="6.96418">
        <ele>1556</ele>
        <time>2022-08-27T08:13:59Z</time>
      </trkpt>
      <trkpt lat="45.79478" lon="6.96418">
        <ele>1556</ele>
        <time>2022-08-27T08:14:00Z</time>
      </trkpt>
      <trkpt lat="45.79479" lon="6.96418">
        <ele>1556</ele>
        <time>2022-08-27T08:14:01Z</time>
      </trkpt>
      <trkpt lat="45.79479" lon="6.96418">
        <ele>1556</ele>
        <time>2022-08-27T08:14:02Z</time>
      </trkpt>
      <trkpt lat="45.79479" lon="6.96417">
        <ele>1556</ele>
        <time>2022-08-27T08:14:03Z</time>
      </trkpt>
      <trkpt lat="45.79479" lon="6.96417">
        <ele>1556</ele>
        <time>2022-08-27T08:14:04Z</time>
      </trkpt>
      <trkpt lat="45.79479" lon="6.96417">
        <ele>1556</ele>
        <time>2022-08-27T08:14:05Z</time>
      </trkpt>
      <trkpt lat="45.79479" lon="6.96417">
        <ele>1556</ele>
        <time>2022-08-27T08:14:06Z</time>
      </trkpt>
      <trkpt lat="45.7948" lon="6.96416">
        <ele>1556</ele>
        <time>2022-08-27T08:14:07Z</time>
      </trkpt>
      <trkpt lat="45.7948" lon="6.96416">
        <ele>1556</ele>
        <time>2022-08-27T08:14:08Z</time>
      </trkpt>
      <trkpt lat="45.7948" lon="6.96416">
        <ele>1556</ele>
        <time>2022-08-27T08:14:09Z</time>
      </trkpt>
      <trkpt lat="45.7948" lon="6.96416">
        <ele>1556</ele>
        <time>2022-08-27T08:14:11Z</time>
      </trkpt>
      <trkpt lat="45.7948" lon="6.96415">
        <ele>1556</ele>
        <time>2022-08-27T08:14:12Z</time>
      </trkpt>
      <trkpt lat="45.79481" lon="6.96415">
        <ele>1556</ele>
        <time>2022-08-27T08:14:13Z</time>
      </trkpt>
      <trkpt lat="45.79481" lon="6.96415">
        <ele>1556</ele>
        <time>2022-08-27T08:14:14Z</time>
      </trkpt>
      <trkpt lat="45.79481" lon="6.96415">
        <ele>1556</ele>
        <time>2022-08-27T08:14:15Z</time>
      </trkpt>
      <trkpt lat="45.79481" lon="6.96414">
        <ele>1556</ele>
        <time>2022-08-27T08:14:16Z</time>
      </trkpt>
      <trkpt lat="45.79481" lon="6.96414">
        <ele>1556</ele>
        <time>2022-08-27T08:14:17Z</time>
      </trkpt>
      <trkpt lat="45.79481" lon="6.96414">
        <ele>1556</ele>
        <time>2022-08-27T08:14:18Z</time>
      </trkpt>
      <trkpt lat="45.79482" lon="6.96414">
        <ele>1556</ele>
        <time>2022-08-27T08:14:19Z</time>
      </trkpt>
      <trkpt lat="45.79482" lon="6.96413">
        <ele>1556</ele>
        <time>2022-08-27T08:14:20Z</time>
      </trkpt>
      <trkpt lat="45.79482" lon="6.96413">
        <ele>1556</ele>
        <time>2022-08-27T08:14:21Z</time>
      </trkpt>
      <trkpt lat="45.79482" lon="6.96413">
        <ele>1556</ele>
        <time>2022-08-27T08:14:22Z</time>
      </trkpt>
      <trkpt lat="45.79482" lon="6.96413">
        <ele>1556</ele>
        <time>2022-08-27T08:14:23Z</time>
      </trkpt>
      <trkpt lat="45.79482" lon="6.96412">
        <ele>1556</ele>
        <time>2022-08-27T08:14:24Z</time>
      </trkpt>
      <trkpt lat="45.79483" lon="6.96412">
        <ele>1556</ele>
        <time>2022-08-27T08:14:25Z</time>
      </trkpt>
      <trkpt lat="45.79483" lon="6.96412">
        <ele>1556</ele>
        <time>2022-08-27T08:14:26Z</time>
      </trkpt>
      <trkpt lat="45.79483" lon="6.96412">
        <ele>1556</ele>
        <time>2022-08-27T08:14:27Z</time>
      </trkpt>
      <trkpt lat="45.79483" lon="6.96411">
        <ele>1556</ele>
        <time>2022-08-27T08:14:28Z</time>
      </trkpt>
      <trkpt lat="45.79483" lon="6.96411">
        <ele>1556</ele>
        <time>2022-08-27T08:14:30Z</time>
      </trkpt>
      <trkpt lat="45.79483" lon="6.96411">
        <ele>1556</ele>
        <time>2022-08-27T08:14:31Z</time>
      </trkpt>
      <trkpt lat="45.79484" lon="6.96411">
        <ele>1556</ele>
        <time>2022-08-27T08:14:32Z</time>
      </trkpt>
      <trkpt lat="45.79484" lon="6.96411">
        <ele>1556</ele>
        <time>2022-08-27T08:14:33Z</time>
      </trkpt>
      <trkpt lat="45.79484" lon="6.9641">
        <ele>1556</ele>
        <time>2022-08-27T08:14:35Z</time>
      </trkpt>
      <trkpt lat="45.79484" lon="6.9641">
        <ele>1556</ele>
        <time>2022-08-27T08:14:36Z</time>
      </trkpt>
      <trkpt lat="45.79484" lon="6.9641">
        <ele>1556</ele>
        <time>2022-08-27T08:14:37Z</time>
      </trkpt>
      <trkpt lat="45.79484" lon="6.9641">
        <ele>1556</ele>
        <time>2022-08-27T08:14:38Z</time>
      </trkpt>
      <trkpt lat="45.79485" lon="6.96409">
        <ele>1556</ele>
        <time>2022-08-27T08:14:39Z</time>
      </trkpt>
      <trkpt lat="45.79485" lon="6.96409">
        <ele>1556</ele>
        <time>2022-08-27T08:14:40Z</time>
      </trkpt>
      <trkpt lat="45.79485" lon="6.96409">
        <ele>1556</ele>
        <time>2022-08-27T08:14:41Z</time>
      </trkpt>
      <trkpt lat="45.79485" lon="6.96409">
        <ele>1556</ele>
        <time>2022-08-27T08:14:42Z</time>
      </trkpt>
      <trkpt lat="45.79485" lon="6.96408">
        <ele>1556</ele>
        <time>2022-08-27T08:14:43Z</time>
      </trkpt>
      <trkpt lat="45.79485" lon="6.96408">
        <ele>1556</ele>
        <time>2022-08-27T08:14:44Z</time>
      </trkpt>
      <trkpt lat="45.79486" lon="6.96408">
        <ele>1556</ele>
        <time>2022-08-27T08:14:45Z</time>
      </trkpt>
      <trkpt lat="45.79486" lon="6.96408">
        <ele>1556</ele>
        <time>2022-08-27T08:14:46Z</time>
      </trkpt>
      <trkpt lat="45.79486" lon="6.96407">
        <ele>1556</ele>
        <time>2022-08-27T08:14:47Z</time>
      </trkpt>
      <trkpt lat="45.79486" lon="6.96407">
        <ele>1556</ele>
        <time>2022-08-27T08:14:49Z</time>
      </trkpt>
      <trkpt lat="45.79486" lon="6.96407">
        <ele>1556</ele>
        <time>2022-08-27T08:14:50Z</time>
      </trkpt>
      <trkpt lat="45.79487" lon="6.96407">
        <ele>1556</ele>
        <time>2022-08-27T08:14:51Z</time>
      </trkpt>
      <trkpt lat="45.79487" lon="6.96406">
        <ele>1556</ele>
        <time>2022-08-27T08:14:52Z</time>
      </trkpt>
      <trkpt lat="45.79487" lon="6.96406">
        <ele>1556</ele>
        <time>2022-08-27T08:14:53Z</time>
      </trkpt>
      <trkpt lat="45.79487" lon="6.96406">
        <ele>1556</ele>
        <time>2022-08-27T08:14:54Z</time>
      </trkpt>
      <trkpt lat="45.79487" lon="6.96406">
        <ele>1556</ele>
        <time>2022-08-27T08:14:55Z</time>
      </trkpt>
      <trkpt lat="45.79487" lon="6.96405">
        <ele>1556</ele>
        <time>2022-08-27T08:14:56Z</time>
      </trkpt>
      <trkpt lat="45.79488" lon="6.96405">
        <ele>1556</ele>
        <time>2022-08-27T08:14:57Z</time>
      </trkpt>
      <trkpt lat="45.79488" lon="6.96405">
        <ele>1556</ele>
        <time>2022-08-27T08:14:58Z</time>
      </trkpt>
      <trkpt lat="45.79488" lon="6.96405">
        <ele>1556</ele>
        <time>2022-08-27T08:14:59Z</time>
      </trkpt>
      <trkpt lat="45.79488" lon="6.96404">
        <ele>1556</ele>
        <time>2022-08-27T08:15:00Z</time>
      </trkpt>
      <trkpt lat="45.79488" lon="6.96404">
        <ele>1556</ele>
        <time>2022-08-27T08:15:01Z</time>
      </trkpt>
      <trkpt lat="45.79488" lon="6.96404">
        <ele>1556</ele>
        <time>2022-08-27T08:15:02Z</time>
      </trkpt>
      <trkpt lat="45.79489" lon="6.96404">
        <ele>1556</ele>
        <time>2022-08-27T08:15:03Z</time>
      </trkpt>
      <trkpt lat="45.79489" lon="6.96403">
        <ele>1556</ele>
        <time>2022-08-27T08:15:04Z</time>
      </trkpt>
      <trkpt lat="45.79489" lon="6.96403">
        <ele>1556</ele>
        <time>2022-08-27T08:15:05Z</time>
      </trkpt>
      <trkpt lat="45.79489" lon="6.96403">
        <ele>1556</ele>
        <time>2022-08-27T08:15:06Z</time>
      </trkpt>
      <trkpt lat="45.79489" lon="6.96403">
        <ele>1556</ele>
        <time>2022-08-27T08:15:08Z</time>
      </trkpt>
      <trkpt lat="45.79489" lon="6.96402">
        <ele>1556</ele>
        <time>2022-08-27T08:15:09Z</time>
      </trkpt>
      <trkpt lat="45.7949" lon="6.96402">
        <ele>1556</ele>
        <time>2022-08-27T08:15:10Z</time>
      </trkpt>
      <trkpt lat="45.7949" lon="6.96402">
        <ele>1556</ele>
        <time>2022-08-27T08:15:11Z</time>
      </trkpt>
      <trkpt lat="45.7949" lon="6.96402">
        <ele>1556</ele>
        <time>2022-08-27T08:15:12Z</time>
      </trkpt>
      <trkpt lat="45.7949" lon="6.96401">
        <ele>1556</ele>
        <time>2022-08-27T08:15:13Z</time>
      </trkpt>
      <trkpt lat="45.7949" lon="6.96401">
        <ele>1556</ele>
        <time>2022-08-27T08:15:14Z</time>
      </trkpt>
      <trkpt lat="45.7949" lon="6.96401">
        <ele>1556</ele>
        <time>2022-08-27T08:15:15Z</time>
      </trkpt>
      <trkpt lat="45.79491" lon="6.96401">
        <ele>1556</ele>
        <time>2022-08-27T08:15:16Z</time>
      </trkpt>
      <trkpt lat="45.79491" lon="6.964">
        <ele>1556</ele>
        <time>2022-08-27T08:15:17Z</time>
      </trkpt>
      <trkpt lat="45.79491" lon="6.964">
        <ele>1556</ele>
        <time>2022-08-27T08:15:18Z</time>
      </trkpt>
      <trkpt lat="45.79491" lon="6.964">
        <ele>1556</ele>
        <time>2022-08-27T08:15:19Z</time>
      </trkpt>
      <trkpt lat="45.79491" lon="6.964">
        <ele>1556</ele>
        <time>2022-08-27T08:15:20Z</time>
      </trkpt>
      <trkpt lat="45.79491" lon="6.96399">
        <ele>1556</ele>
        <time>2022-08-27T08:15:22Z</time>
      </trkpt>
      <trkpt lat="45.79492" lon="6.96399">
        <ele>1556</ele>
        <time>2022-08-27T08:15:24Z</time>
      </trkpt>
      <trkpt lat="45.79492" lon="6.96399">
        <ele>1556</ele>
        <time>2022-08-27T08:15:25Z</time>
      </trkpt>
      <trkpt lat="45.79492" lon="6.96399">
        <ele>1556</ele>
        <time>2022-08-27T08:15:27Z</time>
      </trkpt>
      <trkpt lat="45.79492" lon="6.96398">
        <ele>1556</ele>
        <time>2022-08-27T08:15:28Z</time>
      </trkpt>
      <trkpt lat="45.79492" lon="6.96398">
        <ele>1556</ele>
        <time>2022-08-27T08:15:29Z</time>
      </trkpt>
      <trkpt lat="45.79493" lon="6.96398">
        <ele>1556</ele>
        <time>2022-08-27T08:15:30Z</time>
      </trkpt>
      <trkpt lat="45.79493" lon="6.96398">
        <ele>1556</ele>
        <time>2022-08-27T08:15:32Z</time>
      </trkpt>
      <trkpt lat="45.79493" lon="6.96397">
        <ele>1556</ele>
        <time>2022-08-27T08:15:33Z</time>
      </trkpt>
      <trkpt lat="45.79493" lon="6.96397">
        <ele>1556</ele>
        <time>2022-08-27T08:15:34Z</time>
      </trkpt>
      <trkpt lat="45.79493" lon="6.96397">
        <ele>1556</ele>
        <time>2022-08-27T08:15:35Z</time>
      </trkpt>
      <trkpt lat="45.79493" lon="6.96397">
        <ele>1556</ele>
        <time>2022-08-27T08:15:36Z</time>
      </trkpt>
      <trkpt lat="45.79494" lon="6.96396">
        <ele>1556</ele>
        <time>2022-08-27T08:15:37Z</time>
      </trkpt>
      <trkpt lat="45.79494" lon="6.96396">
        <ele>1556</ele>
        <time>2022-08-27T08:15:38Z</time>
      </trkpt>
      <trkpt lat="45.79494" lon="6.96396">
        <ele>1556</ele>
        <time>2022-08-27T08:15:39Z</time>
      </trkpt>
      <trkpt lat="45.79495" lon="6.96404">
        <ele>1556</ele>
        <time>2022-08-27T08:15:40Z</time>
      </trkpt>
      <trkpt lat="45.79496" lon="6.96411">
        <ele>1556</ele>
        <time>2022-08-27T08:15:41Z</time>
      </trkpt>
      <trkpt lat="45.79499" lon="6.96429">
        <ele>1556</ele>
        <time>2022-08-27T08:15:42Z</time>
      </trkpt>
      <trkpt lat="45.79501" lon="6.96431">
        <ele>1556</ele>
        <time>2022-08-27T08:15:44Z</time>
      </trkpt>
      <trkpt lat="45.79503" lon="6.96433">
        <ele>1556</ele>
        <time>2022-08-27T08:15:46Z</time>
      </trkpt>
      <trkpt lat="45.79505" lon="6.96435">
        <ele>1556</ele>
        <time>2022-08-27T08:15:47Z</time>
      </trkpt>
      <trkpt lat="45.79505" lon="6.9645">
        <ele>1556</ele>
        <time>2022-08-27T08:15:54Z</time>
      </trkpt>
      <trkpt lat="45.79505" lon="6.96451">
        <ele>1556</ele>
        <time>2022-08-27T08:15:55Z</time>
      </trkpt>
      <trkpt lat="45.79506" lon="6.96451">
        <ele>1556</ele>
        <time>2022-08-27T08:15:56Z</time>
      </trkpt>
      <trkpt lat="45.79507" lon="6.96451">
        <ele>1556</ele>
        <time>2022-08-27T08:15:57Z</time>
      </trkpt>
      <trkpt lat="45.79507" lon="6.96451">
        <ele>1556</ele>
        <time>2022-08-27T08:15:58Z</time>
      </trkpt>
      <trkpt lat="45.79508" lon="6.96451">
        <ele>1556</ele>
        <time>2022-08-27T08:15:59Z</time>
      </trkpt>
      <trkpt lat="45.79509" lon="6.96451">
        <ele>1556</ele>
        <time>2022-08-27T08:16:00Z</time>
      </trkpt>
      <trkpt lat="45.7951" lon="6.96451">
        <ele>1556</ele>
        <time>2022-08-27T08:16:01Z</time>
      </trkpt>
      <trkpt lat="45.7951" lon="6.96451">
        <ele>1556</ele>
        <time>2022-08-27T08:16:03Z</time>
      </trkpt>
      <trkpt lat="45.79511" lon="6.96452">
        <ele>1556</ele>
        <time>2022-08-27T08:16:05Z</time>
      </trkpt>
      <trkpt lat="45.79512" lon="6.96452">
        <ele>1556</ele>
        <time>2022-08-27T08:16:06Z</time>
      </trkpt>
      <trkpt lat="45.79512" lon="6.96452">
        <ele>1556</ele>
        <time>2022-08-27T08:16:07Z</time>
      </trkpt>
      <trkpt lat="45.79513" lon="6.96452">
        <ele>1556</ele>
        <time>2022-08-27T08:16:08Z</time>
      </trkpt>
      <trkpt lat="45.79514" lon="6.96452">
        <ele>1556</ele>
        <time>2022-08-27T08:16:09Z</time>
      </trkpt>
      <trkpt lat="45.79513" lon="6.96454">
        <ele>1556</ele>
        <time>2022-08-27T08:16:10Z</time>
      </trkpt>
      <trkpt lat="45.79513" lon="6.96455">
        <ele>1556</ele>
        <time>2022-08-27T08:16:11Z</time>
      </trkpt>
      <trkpt lat="45.79513" lon="6.96457">
        <ele>1556</ele>
        <time>2022-08-27T08:16:12Z</time>
      </trkpt>
      <trkpt lat="45.79513" lon="6.96458">
        <ele>1556</ele>
        <time>2022-08-27T08:16:13Z</time>
      </trkpt>
      <trkpt lat="45.79512" lon="6.9646">
        <ele>1556</ele>
        <time>2022-08-27T08:16:14Z</time>
      </trkpt>
      <trkpt lat="45.79512" lon="6.96461">
        <ele>1556</ele>
        <time>2022-08-27T08:16:15Z</time>
      </trkpt>
      <trkpt lat="45.79512" lon="6.96463">
        <ele>1556</ele>
        <time>2022-08-27T08:16:16Z</time>
      </trkpt>
      <trkpt lat="45.79511" lon="6.96464">
        <ele>1556</ele>
        <time>2022-08-27T08:16:17Z</time>
      </trkpt>
      <trkpt lat="45.79511" lon="6.96466">
        <ele>1556</ele>
        <time>2022-08-27T08:16:18Z</time>
      </trkpt>
      <trkpt lat="45.79511" lon="6.96465">
        <ele>1556</ele>
        <time>2022-08-27T08:16:19Z</time>
      </trkpt>
      <trkpt lat="45.79511" lon="6.96464">
        <ele>1556</ele>
        <time>2022-08-27T08:16:20Z</time>
      </trkpt>
      <trkpt lat="45.79511" lon="6.96463">
        <ele>1556</ele>
        <time>2022-08-27T08:16:21Z</time>
      </trkpt>
      <trkpt lat="45.79512" lon="6.96462">
        <ele>1556</ele>
        <time>2022-08-27T08:16:22Z</time>
      </trkpt>
      <trkpt lat="45.79512" lon="6.96461">
        <ele>1556</ele>
        <time>2022-08-27T08:16:24Z</time>
      </trkpt>
      <trkpt lat="45.79512" lon="6.9646">
        <ele>1556</ele>
        <time>2022-08-27T08:16:25Z</time>
      </trkpt>
      <trkpt lat="45.79512" lon="6.96459">
        <ele>1556</ele>
        <time>2022-08-27T08:16:26Z</time>
      </trkpt>
      <trkpt lat="45.79512" lon="6.96458">
        <ele>1556</ele>
        <time>2022-08-27T08:16:27Z</time>
      </trkpt>
      <trkpt lat="45.79512" lon="6.96457">
        <ele>1556</ele>
        <time>2022-08-27T08:16:28Z</time>
      </trkpt>
      <trkpt lat="45.79512" lon="6.96456">
        <ele>1556</ele>
        <time>2022-08-27T08:16:29Z</time>
      </trkpt>
      <trkpt lat="45.79512" lon="6.96455">
        <ele>1556</ele>
        <time>2022-08-27T08:16:30Z</time>
      </trkpt>
      <trkpt lat="45.79513" lon="6.96455">
        <ele>1556</ele>
        <time>2022-08-27T08:16:31Z</time>
      </trkpt>
      <trkpt lat="45.79513" lon="6.96454">
        <ele>1556</ele>
        <time>2022-08-27T08:16:33Z</time>
      </trkpt>
      <trkpt lat="45.79513" lon="6.96453">
        <ele>1556</ele>
        <time>2022-08-27T08:16:34Z</time>
      </trkpt>
      <trkpt lat="45.79512" lon="6.96455">
        <ele>1556</ele>
        <time>2022-08-27T08:16:35Z</time>
      </trkpt>
      <trkpt lat="45.79511" lon="6.96456">
        <ele>1556</ele>
        <time>2022-08-27T08:16:36Z</time>
      </trkpt>
      <trkpt lat="45.7951" lon="6.96458">
        <ele>1556</ele>
        <time>2022-08-27T08:16:37Z</time>
      </trkpt>
      <trkpt lat="45.79509" lon="6.9646">
        <ele>1556</ele>
        <time>2022-08-27T08:16:38Z</time>
      </trkpt>
      <trkpt lat="45.79508" lon="6.96462">
        <ele>1556</ele>
        <time>2022-08-27T08:16:39Z</time>
      </trkpt>
      <trkpt lat="45.79508" lon="6.96464">
        <ele>1556</ele>
        <time>2022-08-27T08:16:40Z</time>
      </trkpt>
      <trkpt lat="45.79507" lon="6.96465">
        <ele>1556</ele>
        <time>2022-08-27T08:16:41Z</time>
      </trkpt>
      <trkpt lat="45.79506" lon="6.96467">
        <ele>1556</ele>
        <time>2022-08-27T08:16:43Z</time>
      </trkpt>
      <trkpt lat="45.79505" lon="6.96469">
        <ele>1556</ele>
        <time>2022-08-27T08:16:44Z</time>
      </trkpt>
      <trkpt lat="45.79504" lon="6.96468">
        <ele>1556</ele>
        <time>2022-08-27T08:16:45Z</time>
      </trkpt>
      <trkpt lat="45.79503" lon="6.96467">
        <ele>1556</ele>
        <time>2022-08-27T08:16:46Z</time>
      </trkpt>
      <trkpt lat="45.79502" lon="6.96466">
        <ele>1556</ele>
        <time>2022-08-27T08:16:47Z</time>
      </trkpt>
      <trkpt lat="45.79501" lon="6.96466">
        <ele>1556</ele>
        <time>2022-08-27T08:16:48Z</time>
      </trkpt>
      <trkpt lat="45.795" lon="6.96465">
        <ele>1556</ele>
        <time>2022-08-27T08:16:50Z</time>
      </trkpt>
      <trkpt lat="45.79498" lon="6.96464">
        <ele>1556</ele>
        <time>2022-08-27T08:16:51Z</time>
      </trkpt>
      <trkpt lat="45.79497" lon="6.96463">
        <ele>1556</ele>
        <time>2022-08-27T08:16:52Z</time>
      </trkpt>
      <trkpt lat="45.79496" lon="6.96462">
        <ele>1556</ele>
        <time>2022-08-27T08:16:53Z</time>
      </trkpt>
      <trkpt lat="45.79498" lon="6.96461">
        <ele>1556</ele>
        <time>2022-08-27T08:16:55Z</time>
      </trkpt>
      <trkpt lat="45.79499" lon="6.96459">
        <ele>1556</ele>
        <time>2022-08-27T08:16:57Z</time>
      </trkpt>
      <trkpt lat="45.79501" lon="6.96457">
        <ele>1556</ele>
        <time>2022-08-27T08:16:58Z</time>
      </trkpt>
      <trkpt lat="45.79502" lon="6.96455">
        <ele>1556</ele>
        <time>2022-08-27T08:16:59Z</time>
      </trkpt>
      <trkpt lat="45.79504" lon="6.96454">
        <ele>1556</ele>
        <time>2022-08-27T08:17:00Z</time>
      </trkpt>
      <trkpt lat="45.79504" lon="6.96456">
        <ele>1556</ele>
        <time>2022-08-27T08:17:02Z</time>
      </trkpt>
      <trkpt lat="45.79504" lon="6.96459">
        <ele>1556</ele>
        <time>2022-08-27T08:17:03Z</time>
      </trkpt>
      <trkpt lat="45.79504" lon="6.96462">
        <ele>1556</ele>
        <time>2022-08-27T08:17:05Z</time>
      </trkpt>
      <trkpt lat="45.79504" lon="6.96464">
        <ele>1556</ele>
        <time>2022-08-27T08:17:06Z</time>
      </trkpt>
      <trkpt lat="45.79504" lon="6.96467">
        <ele>1556</ele>
        <time>2022-08-27T08:17:07Z</time>
      </trkpt>
      <trkpt lat="45.79503" lon="6.96468">
        <ele>1556</ele>
        <time>2022-08-27T08:17:08Z</time>
      </trkpt>
      <trkpt lat="45.79502" lon="6.96468">
        <ele>1556</ele>
        <time>2022-08-27T08:17:10Z</time>
      </trkpt>
      <trkpt lat="45.79501" lon="6.96469">
        <ele>1556</ele>
        <time>2022-08-27T08:17:12Z</time>
      </trkpt>
      <trkpt lat="45.795" lon="6.9647">
        <ele>1556</ele>
        <time>2022-08-27T08:17:13Z</time>
      </trkpt>
      <trkpt lat="45.79499" lon="6.9647">
        <ele>1556</ele>
        <time>2022-08-27T08:17:14Z</time>
      </trkpt>
      <trkpt lat="45.79498" lon="6.96471">
        <ele>1556</ele>
        <time>2022-08-27T08:17:15Z</time>
      </trkpt>
      <trkpt lat="45.79497" lon="6.96471">
        <ele>1556</ele>
        <time>2022-08-27T08:17:16Z</time>
      </trkpt>
      <trkpt lat="45.79497" lon="6.96472">
        <ele>1556</ele>
        <time>2022-08-27T08:17:17Z</time>
      </trkpt>
      <trkpt lat="45.79496" lon="6.96473">
        <ele>1556</ele>
        <time>2022-08-27T08:17:18Z</time>
      </trkpt>
      <trkpt lat="45.79496" lon="6.96472">
        <ele>1556</ele>
        <time>2022-08-27T08:17:19Z</time>
      </trkpt>
      <trkpt lat="45.79497" lon="6.96472">
        <ele>1556</ele>
        <time>2022-08-27T08:17:21Z</time>
      </trkpt>
      <trkpt lat="45.79497" lon="6.96472">
        <ele>1556</ele>
        <time>2022-08-27T08:17:22Z</time>
      </trkpt>
      <trkpt lat="45.79498" lon="6.96471">
        <ele>1556</ele>
        <time>2022-08-27T08:17:23Z</time>
      </trkpt>
      <trkpt lat="45.79499" lon="6.96471">
        <ele>1556</ele>
        <time>2022-08-27T08:17:24Z</time>
      </trkpt>
      <trkpt lat="45.79499" lon="6.96471">
        <ele>1556</ele>
        <time>2022-08-27T08:17:25Z</time>
      </trkpt>
      <trkpt lat="45.795" lon="6.9647">
        <ele>1556</ele>
        <time>2022-08-27T08:17:26Z</time>
      </trkpt>
      <trkpt lat="45.795" lon="6.9647">
        <ele>1556</ele>
        <time>2022-08-27T08:17:28Z</time>
      </trkpt>
      <trkpt lat="45.79501" lon="6.9647">
        <ele>1556</ele>
        <time>2022-08-27T08:17:29Z</time>
      </trkpt>
      <trkpt lat="45.79501" lon="6.96469">
        <ele>1556</ele>
        <time>2022-08-27T08:17:30Z</time>
      </trkpt>
      <trkpt lat="45.79502" lon="6.96469">
        <ele>1556</ele>
        <time>2022-08-27T08:17:31Z</time>
      </trkpt>
      <trkpt lat="45.79503" lon="6.96469">
        <ele>1556</ele>
        <time>2022-08-27T08:17:32Z</time>
      </trkpt>
      <trkpt lat="45.79503" lon="6.96468">
        <ele>1556</ele>
        <time>2022-08-27T08:17:33Z</time>
      </trkpt>
      <trkpt lat="45.79504" lon="6.96468">
        <ele>1556</ele>
        <time>2022-08-27T08:17:34Z</time>
      </trkpt>
      <trkpt lat="45.79504" lon="6.96468">
        <ele>1556</ele>
        <time>2022-08-27T08:17:35Z</time>
      </trkpt>
      <trkpt lat="45.79505" lon="6.96467">
        <ele>1556</ele>
        <time>2022-08-27T08:17:36Z</time>
      </trkpt>
      <trkpt lat="45.79505" lon="6.96467">
        <ele>1556</ele>
        <time>2022-08-27T08:17:38Z</time>
      </trkpt>
      <trkpt lat="45.79506" lon="6.96467">
        <ele>1556</ele>
        <time>2022-08-27T08:17:39Z</time>
      </trkpt>
      <trkpt lat="45.79507" lon="6.96466">
        <ele>1556</ele>
        <time>2022-08-27T08:17:40Z</time>
      </trkpt>
      <trkpt lat="45.79507" lon="6.96466">
        <ele>1556</ele>
        <time>2022-08-27T08:17:41Z</time>
      </trkpt>
      <trkpt lat="45.79508" lon="6.96466">
        <ele>1556</ele>
        <time>2022-08-27T08:17:42Z</time>
      </trkpt>
      <trkpt lat="45.79512" lon="6.96461">
        <ele>1556</ele>
        <time>2022-08-27T08:17:43Z</time>
      </trkpt>
      <trkpt lat="45.79516" lon="6.96456">
        <ele>1556</ele>
        <time>2022-08-27T08:17:44Z</time>
      </trkpt>
      <trkpt lat="45.79516" lon="6.96456">
        <ele>1556</ele>
        <time>2022-08-27T08:17:45Z</time>
      </trkpt>
      <trkpt lat="45.79516" lon="6.96456">
        <ele>1556</ele>
        <time>2022-08-27T08:17:47Z</time>
      </trkpt>
      <trkpt lat="45.79516" lon="6.96456">
        <ele>1556</ele>
        <time>2022-08-27T08:17:49Z</time>
      </trkpt>
      <trkpt lat="45.79515" lon="6.96456">
        <ele>1556</ele>
        <time>2022-08-27T08:17:50Z</time>
      </trkpt>
      <trkpt lat="45.79515" lon="6.96456">
        <ele>1556</ele>
        <time>2022-08-27T08:17:51Z</time>
      </trkpt>
      <trkpt lat="45.79515" lon="6.96456">
        <ele>1556</ele>
        <time>2022-08-27T08:17:52Z</time>
      </trkpt>
      <trkpt lat="45.79515" lon="6.96456">
        <ele>1556</ele>
        <time>2022-08-27T08:17:53Z</time>
      </trkpt>
      <trkpt lat="45.79515" lon="6.96456">
        <ele>1556</ele>
        <time>2022-08-27T08:17:54Z</time>
      </trkpt>
      <trkpt lat="45.79515" lon="6.96456">
        <ele>1556</ele>
        <time>2022-08-27T08:17:55Z</time>
      </trkpt>
      <trkpt lat="45.79515" lon="6.96456">
        <ele>1556</ele>
        <time>2022-08-27T08:17:56Z</time>
      </trkpt>
      <trkpt lat="45.79515" lon="6.96456">
        <ele>1556</ele>
        <time>2022-08-27T08:17:57Z</time>
      </trkpt>
      <trkpt lat="45.79515" lon="6.96456">
        <ele>1556</ele>
        <time>2022-08-27T08:17:59Z</time>
      </trkpt>
      <trkpt lat="45.79514" lon="6.96456">
        <ele>1556</ele>
        <time>2022-08-27T08:18:00Z</time>
      </trkpt>
      <trkpt lat="45.79514" lon="6.96456">
        <ele>1556</ele>
        <time>2022-08-27T08:18:01Z</time>
      </trkpt>
      <trkpt lat="45.79514" lon="6.96456">
        <ele>1556</ele>
        <time>2022-08-27T08:18:02Z</time>
      </trkpt>
      <trkpt lat="45.79514" lon="6.96456">
        <ele>1556</ele>
        <time>2022-08-27T08:18:04Z</time>
      </trkpt>
      <trkpt lat="45.79514" lon="6.96456">
        <ele>1556</ele>
        <time>2022-08-27T08:18:05Z</time>
      </trkpt>
      <trkpt lat="45.79514" lon="6.96457">
        <ele>1556</ele>
        <time>2022-08-27T08:18:06Z</time>
      </trkpt>
      <trkpt lat="45.79514" lon="6.96457">
        <ele>1556</ele>
        <time>2022-08-27T08:18:07Z</time>
      </trkpt>
      <trkpt lat="45.79514" lon="6.96457">
        <ele>1556</ele>
        <time>2022-08-27T08:18:08Z</time>
      </trkpt>
      <trkpt lat="45.79513" lon="6.96457">
        <ele>1556</ele>
        <time>2022-08-27T08:18:09Z</time>
      </trkpt>
      <trkpt lat="45.79513" lon="6.96457">
        <ele>1556</ele>
        <time>2022-08-27T08:18:10Z</time>
      </trkpt>
      <trkpt lat="45.79513" lon="6.96457">
        <ele>1556</ele>
        <time>2022-08-27T08:18:11Z</time>
      </trkpt>
      <trkpt lat="45.79513" lon="6.96457">
        <ele>1556</ele>
        <time>2022-08-27T08:18:12Z</time>
      </trkpt>
      <trkpt lat="45.79513" lon="6.96457">
        <ele>1556</ele>
        <time>2022-08-27T08:18:13Z</time>
      </trkpt>
      <trkpt lat="45.79513" lon="6.96457">
        <ele>1556</ele>
        <time>2022-08-27T08:18:14Z</time>
      </trkpt>
      <trkpt lat="45.79513" lon="6.96457">
        <ele>1556</ele>
        <time>2022-08-27T08:18:15Z</time>
      </trkpt>
      <trkpt lat="45.79513" lon="6.96457">
        <ele>1556</ele>
        <time>2022-08-27T08:18:16Z</time>
      </trkpt>
      <trkpt lat="45.79513" lon="6.96457">
        <ele>1556</ele>
        <time>2022-08-27T08:18:18Z</time>
      </trkpt>
      <trkpt lat="45.79512" lon="6.96457">
        <ele>1556</ele>
        <time>2022-08-27T08:18:19Z</time>
      </trkpt>
      <trkpt lat="45.79512" lon="6.96457">
        <ele>1556</ele>
        <time>2022-08-27T08:18:20Z</time>
      </trkpt>
      <trkpt lat="45.79512" lon="6.96457">
        <ele>1556</ele>
        <time>2022-08-27T08:18:21Z</time>
      </trkpt>
      <trkpt lat="45.79512" lon="6.96457">
        <ele>1556</ele>
        <time>2022-08-27T08:18:22Z</time>
      </trkpt>
      <trkpt lat="45.79512" lon="6.96457">
        <ele>1556</ele>
        <time>2022-08-27T08:18:23Z</time>
      </trkpt>
      <trkpt lat="45.79512" lon="6.96457">
        <ele>1556</ele>
        <time>2022-08-27T08:18:24Z</time>
      </trkpt>
      <trkpt lat="45.79512" lon="6.96457">
        <ele>1556</ele>
        <time>2022-08-27T08:18:25Z</time>
      </trkpt>
      <trkpt lat="45.79512" lon="6.96457">
        <ele>1556</ele>
        <time>2022-08-27T08:18:26Z</time>
      </trkpt>
      <trkpt lat="45.79511" lon="6.96457">
        <ele>1556</ele>
        <time>2022-08-27T08:18:27Z</time>
      </trkpt>
      <trkpt lat="45.79511" lon="6.96457">
        <ele>1556</ele>
        <time>2022-08-27T08:18:28Z</time>
      </trkpt>
      <trkpt lat="45.79511" lon="6.96457">
        <ele>1556</ele>
        <time>2022-08-27T08:18:29Z</time>
      </trkpt>
      <trkpt lat="45.79511" lon="6.96457">
        <ele>1556</ele>
        <time>2022-08-27T08:18:30Z</time>
      </trkpt>
      <trkpt lat="45.79511" lon="6.96457">
        <ele>1556</ele>
        <time>2022-08-27T08:18:31Z</time>
      </trkpt>
      <trkpt lat="45.79511" lon="6.96457">
        <ele>1556</ele>
        <time>2022-08-27T08:18:32Z</time>
      </trkpt>
      <trkpt lat="45.79511" lon="6.96457">
        <ele>1556</ele>
        <time>2022-08-27T08:18:33Z</time>
      </trkpt>
      <trkpt lat="45.79511" lon="6.96457">
        <ele>1556</ele>
        <time>2022-08-27T08:18:34Z</time>
      </trkpt>
      <trkpt lat="45.7951" lon="6.96458">
        <ele>1556</ele>
        <time>2022-08-27T08:18:35Z</time>
      </trkpt>
      <trkpt lat="45.7951" lon="6.96458">
        <ele>1556</ele>
        <time>2022-08-27T08:18:37Z</time>
      </trkpt>
      <trkpt lat="45.7951" lon="6.96458">
        <ele>1556</ele>
        <time>2022-08-27T08:18:38Z</time>
      </trkpt>
      <trkpt lat="45.7951" lon="6.96458">
        <ele>1556</ele>
        <time>2022-08-27T08:18:39Z</time>
      </trkpt>
      <trkpt lat="45.7951" lon="6.96458">
        <ele>1556</ele>
        <time>2022-08-27T08:18:40Z</time>
      </trkpt>
      <trkpt lat="45.7951" lon="6.96458">
        <ele>1556</ele>
        <time>2022-08-27T08:18:41Z</time>
      </trkpt>
      <trkpt lat="45.7951" lon="6.96458">
        <ele>1556</ele>
        <time>2022-08-27T08:18:42Z</time>
      </trkpt>
      <trkpt lat="45.7951" lon="6.96458">
        <ele>1556</ele>
        <time>2022-08-27T08:18:43Z</time>
      </trkpt>
      <trkpt lat="45.7951" lon="6.96458">
        <ele>1556</ele>
        <time>2022-08-27T08:18:44Z</time>
      </trkpt>
      <trkpt lat="45.79509" lon="6.96458">
        <ele>1556</ele>
        <time>2022-08-27T08:18:45Z</time>
      </trkpt>
      <trkpt lat="45.79509" lon="6.96458">
        <ele>1556</ele>
        <time>2022-08-27T08:18:46Z</time>
      </trkpt>
      <trkpt lat="45.79509" lon="6.96458">
        <ele>1556</ele>
        <time>2022-08-27T08:18:47Z</time>
      </trkpt>
      <trkpt lat="45.79509" lon="6.96458">
        <ele>1556</ele>
        <time>2022-08-27T08:18:48Z</time>
      </trkpt>
      <trkpt lat="45.79509" lon="6.96458">
        <ele>1556</ele>
        <time>2022-08-27T08:18:49Z</time>
      </trkpt>
      <trkpt lat="45.79509" lon="6.96458">
        <ele>1556</ele>
        <time>2022-08-27T08:18:50Z</time>
      </trkpt>
      <trkpt lat="45.79509" lon="6.96458">
        <ele>1556</ele>
        <time>2022-08-27T08:18:51Z</time>
      </trkpt>
      <trkpt lat="45.79509" lon="6.96458">
        <ele>1556</ele>
        <time>2022-08-27T08:18:52Z</time>
      </trkpt>
      <trkpt lat="45.79508" lon="6.96458">
        <ele>1556</ele>
        <time>2022-08-27T08:18:53Z</time>
      </trkpt>
      <trkpt lat="45.79508" lon="6.96458">
        <ele>1556</ele>
        <time>2022-08-27T08:18:54Z</time>
      </trkpt>
      <trkpt lat="45.79508" lon="6.96458">
        <ele>1556</ele>
        <time>2022-08-27T08:18:56Z</time>
      </trkpt>
      <trkpt lat="45.79508" lon="6.96458">
        <ele>1556</ele>
        <time>2022-08-27T08:18:57Z</time>
      </trkpt>
      <trkpt lat="45.79508" lon="6.96458">
        <ele>1556</ele>
        <time>2022-08-27T08:18:58Z</time>
      </trkpt>
      <trkpt lat="45.79508" lon="6.96458">
        <ele>1556</ele>
        <time>2022-08-27T08:18:59Z</time>
      </trkpt>
      <trkpt lat="45.79508" lon="6.96458">
        <ele>1556</ele>
        <time>2022-08-27T08:19:00Z</time>
      </trkpt>
      <trkpt lat="45.79508" lon="6.96458">
        <ele>1556</ele>
        <time>2022-08-27T08:19:01Z</time>
      </trkpt>
      <trkpt lat="45.79508" lon="6.96458">
        <ele>1556</ele>
        <time>2022-08-27T08:19:02Z</time>
      </trkpt>
      <trkpt lat="45.79507" lon="6.96458">
        <ele>1556</ele>
        <time>2022-08-27T08:19:03Z</time>
      </trkpt>
      <trkpt lat="45.79507" lon="6.96458">
        <ele>1556</ele>
        <time>2022-08-27T08:19:04Z</time>
      </trkpt>
      <trkpt lat="45.79507" lon="6.96459">
        <ele>1556</ele>
        <time>2022-08-27T08:19:05Z</time>
      </trkpt>
      <trkpt lat="45.79507" lon="6.96459">
        <ele>1556</ele>
        <time>2022-08-27T08:19:06Z</time>
      </trkpt>
      <trkpt lat="45.79507" lon="6.96459">
        <ele>1556</ele>
        <time>2022-08-27T08:19:08Z</time>
      </trkpt>
      <trkpt lat="45.79507" lon="6.96459">
        <ele>1556</ele>
        <time>2022-08-27T08:19:09Z</time>
      </trkpt>
      <trkpt lat="45.79507" lon="6.96459">
        <ele>1556</ele>
        <time>2022-08-27T08:19:10Z</time>
      </trkpt>
      <trkpt lat="45.79507" lon="6.96459">
        <ele>1556</ele>
        <time>2022-08-27T08:19:11Z</time>
      </trkpt>
      <trkpt lat="45.79506" lon="6.96459">
        <ele>1556</ele>
        <time>2022-08-27T08:19:12Z</time>
      </trkpt>
      <trkpt lat="45.79506" lon="6.96459">
        <ele>1556</ele>
        <time>2022-08-27T08:19:13Z</time>
      </trkpt>
      <trkpt lat="45.79506" lon="6.96459">
        <ele>1556</ele>
        <time>2022-08-27T08:19:15Z</time>
      </trkpt>
      <trkpt lat="45.79506" lon="6.96459">
        <ele>1556</ele>
        <time>2022-08-27T08:19:16Z</time>
      </trkpt>
      <trkpt lat="45.79506" lon="6.96459">
        <ele>1556</ele>
        <time>2022-08-27T08:19:17Z</time>
      </trkpt>
      <trkpt lat="45.79506" lon="6.96459">
        <ele>1556</ele>
        <time>2022-08-27T08:19:18Z</time>
      </trkpt>
      <trkpt lat="45.79506" lon="6.96459">
        <ele>1556</ele>
        <time>2022-08-27T08:19:19Z</time>
      </trkpt>
      <trkpt lat="45.79506" lon="6.96459">
        <ele>1556</ele>
        <time>2022-08-27T08:19:20Z</time>
      </trkpt>
      <trkpt lat="45.79505" lon="6.96459">
        <ele>1556</ele>
        <time>2022-08-27T08:19:21Z</time>
      </trkpt>
      <trkpt lat="45.79505" lon="6.96459">
        <ele>1556</ele>
        <time>2022-08-27T08:19:22Z</time>
      </trkpt>
      <trkpt lat="45.79505" lon="6.96459">
        <ele>1556</ele>
        <time>2022-08-27T08:19:23Z</time>
      </trkpt>
      <trkpt lat="45.79505" lon="6.96459">
        <ele>1556</ele>
        <time>2022-08-27T08:19:24Z</time>
      </trkpt>
      <trkpt lat="45.79505" lon="6.96459">
        <ele>1556</ele>
        <time>2022-08-27T08:19:25Z</time>
      </trkpt>
      <trkpt lat="45.79505" lon="6.96459">
        <ele>1556</ele>
        <time>2022-08-27T08:19:26Z</time>
      </trkpt>
      <trkpt lat="45.79505" lon="6.96459">
        <ele>1556</ele>
        <time>2022-08-27T08:19:27Z</time>
      </trkpt>
      <trkpt lat="45.79505" lon="6.96459">
        <ele>1556</ele>
        <time>2022-08-27T08:19:28Z</time>
      </trkpt>
      <trkpt lat="45.79505" lon="6.96459">
        <ele>1556</ele>
        <time>2022-08-27T08:19:29Z</time>
      </trkpt>
      <trkpt lat="45.79504" lon="6.96459">
        <ele>1556</ele>
        <time>2022-08-27T08:19:30Z</time>
      </trkpt>
      <trkpt lat="45.79504" lon="6.96459">
        <ele>1556</ele>
        <time>2022-08-27T08:19:31Z</time>
      </trkpt>
      <trkpt lat="45.79504" lon="6.96459">
        <ele>1556</ele>
        <time>2022-08-27T08:19:32Z</time>
      </trkpt>
      <trkpt lat="45.79504" lon="6.96459">
        <ele>1556</ele>
        <time>2022-08-27T08:19:34Z</time>
      </trkpt>
      <trkpt lat="45.79504" lon="6.96459">
        <ele>1556</ele>
        <time>2022-08-27T08:19:35Z</time>
      </trkpt>
      <trkpt lat="45.79504" lon="6.9646">
        <ele>1556</ele>
        <time>2022-08-27T08:19:36Z</time>
      </trkpt>
      <trkpt lat="45.79504" lon="6.9646">
        <ele>1556</ele>
        <time>2022-08-27T08:19:37Z</time>
      </trkpt>
      <trkpt lat="45.79504" lon="6.9646">
        <ele>1556</ele>
        <time>2022-08-27T08:19:38Z</time>
      </trkpt>
      <trkpt lat="45.79503" lon="6.9646">
        <ele>1556</ele>
        <time>2022-08-27T08:19:39Z</time>
      </trkpt>
      <trkpt lat="45.79503" lon="6.9646">
        <ele>1556</ele>
        <time>2022-08-27T08:19:40Z</time>
      </trkpt>
      <trkpt lat="45.79503" lon="6.9646">
        <ele>1556</ele>
        <time>2022-08-27T08:19:41Z</time>
      </trkpt>
      <trkpt lat="45.79503" lon="6.9646">
        <ele>1556</ele>
        <time>2022-08-27T08:19:42Z</time>
      </trkpt>
      <trkpt lat="45.79503" lon="6.9646">
        <ele>1556</ele>
        <time>2022-08-27T08:19:43Z</time>
      </trkpt>
      <trkpt lat="45.79503" lon="6.9646">
        <ele>1556</ele>
        <time>2022-08-27T08:19:44Z</time>
      </trkpt>
      <trkpt lat="45.79503" lon="6.9646">
        <ele>1556</ele>
        <time>2022-08-27T08:19:45Z</time>
      </trkpt>
      <trkpt lat="45.79503" lon="6.9646">
        <ele>1556</ele>
        <time>2022-08-27T08:19:46Z</time>
      </trkpt>
      <trkpt lat="45.79503" lon="6.9646">
        <ele>1556</ele>
        <time>2022-08-27T08:19:47Z</time>
      </trkpt>
      <trkpt lat="45.79502" lon="6.9646">
        <ele>1556</ele>
        <time>2022-08-27T08:19:49Z</time>
      </trkpt>
      <trkpt lat="45.79502" lon="6.9646">
        <ele>1556</ele>
        <time>2022-08-27T08:19:50Z</time>
      </trkpt>
      <trkpt lat="45.79502" lon="6.9646">
        <ele>1556</ele>
        <time>2022-08-27T08:19:51Z</time>
      </trkpt>
      <trkpt lat="45.79502" lon="6.9646">
        <ele>1556</ele>
        <time>2022-08-27T08:19:53Z</time>
      </trkpt>
      <trkpt lat="45.79502" lon="6.9646">
        <ele>1556</ele>
        <time>2022-08-27T08:19:54Z</time>
      </trkpt>
      <trkpt lat="45.79502" lon="6.9646">
        <ele>1556</ele>
        <time>2022-08-27T08:19:55Z</time>
      </trkpt>
      <trkpt lat="45.79502" lon="6.9646">
        <ele>1556</ele>
        <time>2022-08-27T08:19:57Z</time>
      </trkpt>
      <trkpt lat="45.79502" lon="6.9646">
        <ele>1556</ele>
        <time>2022-08-27T08:19:58Z</time>
      </trkpt>
      <trkpt lat="45.79501" lon="6.9646">
        <ele>1556</ele>
        <time>2022-08-27T08:19:59Z</time>
      </trkpt>
      <trkpt lat="45.79501" lon="6.9646">
        <ele>1556</ele>
        <time>2022-08-27T08:20:00Z</time>
      </trkpt>
      <trkpt lat="45.79501" lon="6.9646">
        <ele>1556</ele>
        <time>2022-08-27T08:20:01Z</time>
      </trkpt>
      <trkpt lat="45.79501" lon="6.9646">
        <ele>1556</ele>
        <time>2022-08-27T08:20:02Z</time>
      </trkpt>
      <trkpt lat="45.79501" lon="6.9646">
        <ele>1556</ele>
        <time>2022-08-27T08:20:03Z</time>
      </trkpt>
      <trkpt lat="45.79501" lon="6.9646">
        <ele>1556</ele>
        <time>2022-08-27T08:20:04Z</time>
      </trkpt>
      <trkpt lat="45.79501" lon="6.9646">
        <ele>1556</ele>
        <time>2022-08-27T08:20:05Z</time>
      </trkpt>
      <trkpt lat="45.79501" lon="6.9646">
        <ele>1556</ele>
        <time>2022-08-27T08:20:07Z</time>
      </trkpt>
      <trkpt lat="45.795" lon="6.96461">
        <ele>1556</ele>
        <time>2022-08-27T08:20:08Z</time>
      </trkpt>
      <trkpt lat="45.795" lon="6.96461">
        <ele>1556</ele>
        <time>2022-08-27T08:20:09Z</time>
      </trkpt>
      <trkpt lat="45.795" lon="6.96461">
        <ele>1556</ele>
        <time>2022-08-27T08:20:10Z</time>
      </trkpt>
      <trkpt lat="45.795" lon="6.96461">
        <ele>1556</ele>
        <time>2022-08-27T08:20:12Z</time>
      </trkpt>
      <trkpt lat="45.795" lon="6.96461">
        <ele>1556</ele>
        <time>2022-08-27T08:20:13Z</time>
      </trkpt>
      <trkpt lat="45.795" lon="6.96461">
        <ele>1556</ele>
        <time>2022-08-27T08:20:15Z</time>
      </trkpt>
      <trkpt lat="45.795" lon="6.96461">
        <ele>1556</ele>
        <time>2022-08-27T08:20:16Z</time>
      </trkpt>
      <trkpt lat="45.795" lon="6.96461">
        <ele>1556</ele>
        <time>2022-08-27T08:20:18Z</time>
      </trkpt>
      <trkpt lat="45.795" lon="6.96461">
        <ele>1556</ele>
        <time>2022-08-27T08:20:19Z</time>
      </trkpt>
      <trkpt lat="45.79499" lon="6.96461">
        <ele>1556</ele>
        <time>2022-08-27T08:20:20Z</time>
      </trkpt>
      <trkpt lat="45.79499" lon="6.96461">
        <ele>1556</ele>
        <time>2022-08-27T08:20:21Z</time>
      </trkpt>
      <trkpt lat="45.79499" lon="6.96461">
        <ele>1556</ele>
        <time>2022-08-27T08:20:23Z</time>
      </trkpt>
      <trkpt lat="45.79499" lon="6.96461">
        <ele>1556</ele>
        <time>2022-08-27T08:20:24Z</time>
      </trkpt>
      <trkpt lat="45.79499" lon="6.96461">
        <ele>1556</ele>
        <time>2022-08-27T08:20:25Z</time>
      </trkpt>
      <trkpt lat="45.79499" lon="6.96461">
        <ele>1556</ele>
        <time>2022-08-27T08:20:26Z</time>
      </trkpt>
      <trkpt lat="45.79499" lon="6.96461">
        <ele>1556</ele>
        <time>2022-08-27T08:20:27Z</time>
      </trkpt>
      <trkpt lat="45.79499" lon="6.96461">
        <ele>1556</ele>
        <time>2022-08-27T08:20:28Z</time>
      </trkpt>
      <trkpt lat="45.79498" lon="6.96461">
        <ele>1556</ele>
        <time>2022-08-27T08:20:30Z</time>
      </trkpt>
      <trkpt lat="45.79498" lon="6.96461">
        <ele>1556</ele>
        <time>2022-08-27T08:20:31Z</time>
      </trkpt>
      <trkpt lat="45.79498" lon="6.96461">
        <ele>1556</ele>
        <time>2022-08-27T08:20:32Z</time>
      </trkpt>
      <trkpt lat="45.79498" lon="6.96461">
        <ele>1556</ele>
        <time>2022-08-27T08:20:33Z</time>
      </trkpt>
      <trkpt lat="45.79498" lon="6.96461">
        <ele>1556</ele>
        <time>2022-08-27T08:20:34Z</time>
      </trkpt>
      <trkpt lat="45.79498" lon="6.96461">
        <ele>1556</ele>
        <time>2022-08-27T08:20:36Z</time>
      </trkpt>
      <trkpt lat="45.79498" lon="6.96461">
        <ele>1556</ele>
        <time>2022-08-27T08:20:37Z</time>
      </trkpt>
      <trkpt lat="45.79498" lon="6.96461">
        <ele>1556</ele>
        <time>2022-08-27T08:20:38Z</time>
      </trkpt>
      <trkpt lat="45.79497" lon="6.96461">
        <ele>1556</ele>
        <time>2022-08-27T08:20:39Z</time>
      </trkpt>
      <trkpt lat="45.79497" lon="6.96461">
        <ele>1556</ele>
        <time>2022-08-27T08:20:40Z</time>
      </trkpt>
      <trkpt lat="45.79497" lon="6.96461">
        <ele>1556</ele>
        <time>2022-08-27T08:20:41Z</time>
      </trkpt>
      <trkpt lat="45.79497" lon="6.96462">
        <ele>1556</ele>
        <time>2022-08-27T08:20:42Z</time>
      </trkpt>
      <trkpt lat="45.79497" lon="6.96462">
        <ele>1556</ele>
        <time>2022-08-27T08:20:43Z</time>
      </trkpt>
      <trkpt lat="45.79497" lon="6.96462">
        <ele>1556</ele>
        <time>2022-08-27T08:20:44Z</time>
      </trkpt>
      <trkpt lat="45.79497" lon="6.96462">
        <ele>1556</ele>
        <time>2022-08-27T08:20:45Z</time>
      </trkpt>
      <trkpt lat="45.79497" lon="6.96462">
        <ele>1556</ele>
        <time>2022-08-27T08:20:46Z</time>
      </trkpt>
      <trkpt lat="45.79497" lon="6.96462">
        <ele>1556</ele>
        <time>2022-08-27T08:20:47Z</time>
      </trkpt>
      <trkpt lat="45.79496" lon="6.96462">
        <ele>1556</ele>
        <time>2022-08-27T08:20:48Z</time>
      </trkpt>
      <trkpt lat="45.79496" lon="6.96462">
        <ele>1556</ele>
        <time>2022-08-27T08:20:50Z</time>
      </trkpt>
      <trkpt lat="45.79496" lon="6.96462">
        <ele>1556</ele>
        <time>2022-08-27T08:20:51Z</time>
      </trkpt>
      <trkpt lat="45.79496" lon="6.96462">
        <ele>1556</ele>
        <time>2022-08-27T08:20:52Z</time>
      </trkpt>
      <trkpt lat="45.79496" lon="6.96462">
        <ele>1556</ele>
        <time>2022-08-27T08:20:53Z</time>
      </trkpt>
      <trkpt lat="45.79496" lon="6.96462">
        <ele>1556</ele>
        <time>2022-08-27T08:20:54Z</time>
      </trkpt>
      <trkpt lat="45.79496" lon="6.96462">
        <ele>1556</ele>
        <time>2022-08-27T08:20:55Z</time>
      </trkpt>
      <trkpt lat="45.79496" lon="6.96462">
        <ele>1556</ele>
        <time>2022-08-27T08:20:56Z</time>
      </trkpt>
      <trkpt lat="45.79495" lon="6.96462">
        <ele>1556</ele>
        <time>2022-08-27T08:20:57Z</time>
      </trkpt>
      <trkpt lat="45.79495" lon="6.96462">
        <ele>1556</ele>
        <time>2022-08-27T08:20:58Z</time>
      </trkpt>
      <trkpt lat="45.79495" lon="6.96462">
        <ele>1556</ele>
        <time>2022-08-27T08:20:59Z</time>
      </trkpt>
      <trkpt lat="45.79495" lon="6.96462">
        <ele>1556</ele>
        <time>2022-08-27T08:21:00Z</time>
      </trkpt>
      <trkpt lat="45.79495" lon="6.96462">
        <ele>1556</ele>
        <time>2022-08-27T08:21:01Z</time>
      </trkpt>
      <trkpt lat="45.79495" lon="6.96462">
        <ele>1556</ele>
        <time>2022-08-27T08:21:02Z</time>
      </trkpt>
      <trkpt lat="45.79495" lon="6.96462">
        <ele>1556</ele>
        <time>2022-08-27T08:21:03Z</time>
      </trkpt>
      <trkpt lat="45.79495" lon="6.96462">
        <ele>1556</ele>
        <time>2022-08-27T08:21:04Z</time>
      </trkpt>
      <trkpt lat="45.79495" lon="6.96462">
        <ele>1556</ele>
        <time>2022-08-27T08:21:05Z</time>
      </trkpt>
      <trkpt lat="45.79494" lon="6.96462">
        <ele>1556</ele>
        <time>2022-08-27T08:21:06Z</time>
      </trkpt>
      <trkpt lat="45.79494" lon="6.96462">
        <ele>1556</ele>
        <time>2022-08-27T08:21:07Z</time>
      </trkpt>
      <trkpt lat="45.79494" lon="6.96462">
        <ele>1556</ele>
        <time>2022-08-27T08:21:09Z</time>
      </trkpt>
      <trkpt lat="45.79494" lon="6.96462">
        <ele>1556</ele>
        <time>2022-08-27T08:21:10Z</time>
      </trkpt>
      <trkpt lat="45.79494" lon="6.96462">
        <ele>1556</ele>
        <time>2022-08-27T08:21:12Z</time>
      </trkpt>
      <trkpt lat="45.79494" lon="6.96463">
        <ele>1556</ele>
        <time>2022-08-27T08:21:13Z</time>
      </trkpt>
      <trkpt lat="45.79494" lon="6.96463">
        <ele>1556</ele>
        <time>2022-08-27T08:21:14Z</time>
      </trkpt>
      <trkpt lat="45.79494" lon="6.96463">
        <ele>1556</ele>
        <time>2022-08-27T08:21:15Z</time>
      </trkpt>
      <trkpt lat="45.79493" lon="6.96463">
        <ele>1556</ele>
        <time>2022-08-27T08:21:16Z</time>
      </trkpt>
      <trkpt lat="45.79493" lon="6.96463">
        <ele>1556</ele>
        <time>2022-08-27T08:21:17Z</time>
      </trkpt>
      <trkpt lat="45.79493" lon="6.96463">
        <ele>1556</ele>
        <time>2022-08-27T08:21:18Z</time>
      </trkpt>
      <trkpt lat="45.79493" lon="6.96463">
        <ele>1556</ele>
        <time>2022-08-27T08:21:19Z</time>
      </trkpt>
      <trkpt lat="45.79493" lon="6.96463">
        <ele>1556</ele>
        <time>2022-08-27T08:21:20Z</time>
      </trkpt>
      <trkpt lat="45.79493" lon="6.96463">
        <ele>1556</ele>
        <time>2022-08-27T08:21:22Z</time>
      </trkpt>
      <trkpt lat="45.79493" lon="6.96463">
        <ele>1556</ele>
        <time>2022-08-27T08:21:23Z</time>
      </trkpt>
      <trkpt lat="45.79493" lon="6.96463">
        <ele>1556</ele>
        <time>2022-08-27T08:21:24Z</time>
      </trkpt>
      <trkpt lat="45.79492" lon="6.96463">
        <ele>1556</ele>
        <time>2022-08-27T08:21:25Z</time>
      </trkpt>
      <trkpt lat="45.79492" lon="6.96463">
        <ele>1556</ele>
        <time>2022-08-27T08:21:26Z</time>
      </trkpt>
      <trkpt lat="45.79492" lon="6.96463">
        <ele>1556</ele>
        <time>2022-08-27T08:21:28Z</time>
      </trkpt>
      <trkpt lat="45.79492" lon="6.96463">
        <ele>1556</ele>
        <time>2022-08-27T08:21:29Z</time>
      </trkpt>
      <trkpt lat="45.79492" lon="6.96463">
        <ele>1556</ele>
        <time>2022-08-27T08:21:30Z</time>
      </trkpt>
      <trkpt lat="45.79492" lon="6.96463">
        <ele>1556</ele>
        <time>2022-08-27T08:21:31Z</time>
      </trkpt>
      <trkpt lat="45.79492" lon="6.96463">
        <ele>1556</ele>
        <time>2022-08-27T08:21:32Z</time>
      </trkpt>
      <trkpt lat="45.79492" lon="6.96463">
        <ele>1556</ele>
        <time>2022-08-27T08:21:33Z</time>
      </trkpt>
      <trkpt lat="45.79492" lon="6.96463">
        <ele>1556</ele>
        <time>2022-08-27T08:21:34Z</time>
      </trkpt>
      <trkpt lat="45.79491" lon="6.96463">
        <ele>1556</ele>
        <time>2022-08-27T08:21:35Z</time>
      </trkpt>
      <trkpt lat="45.79491" lon="6.96463">
        <ele>1556</ele>
        <time>2022-08-27T08:21:36Z</time>
      </trkpt>
      <trkpt lat="45.79491" lon="6.96463">
        <ele>1556</ele>
        <time>2022-08-27T08:21:38Z</time>
      </trkpt>
      <trkpt lat="45.79491" lon="6.96463">
        <ele>1556</ele>
        <time>2022-08-27T08:21:39Z</time>
      </trkpt>
      <trkpt lat="45.79491" lon="6.96463">
        <ele>1556</ele>
        <time>2022-08-27T08:21:40Z</time>
      </trkpt>
      <trkpt lat="45.79491" lon="6.96463">
        <ele>1556</ele>
        <time>2022-08-27T08:21:41Z</time>
      </trkpt>
      <trkpt lat="45.79491" lon="6.96463">
        <ele>1556</ele>
        <time>2022-08-27T08:21:42Z</time>
      </trkpt>
      <trkpt lat="45.79491" lon="6.96463">
        <ele>1556</ele>
        <time>2022-08-27T08:21:43Z</time>
      </trkpt>
      <trkpt lat="45.7949" lon="6.96464">
        <ele>1556</ele>
        <time>2022-08-27T08:21:44Z</time>
      </trkpt>
      <trkpt lat="45.7949" lon="6.96464">
        <ele>1556</ele>
        <time>2022-08-27T08:21:45Z</time>
      </trkpt>
      <trkpt lat="45.7949" lon="6.96464">
        <ele>1556</ele>
        <time>2022-08-27T08:21:47Z</time>
      </trkpt>
      <trkpt lat="45.7949" lon="6.96464">
        <ele>1556</ele>
        <time>2022-08-27T08:21:48Z</time>
      </trkpt>
      <trkpt lat="45.7949" lon="6.96464">
        <ele>1556</ele>
        <time>2022-08-27T08:21:49Z</time>
      </trkpt>
      <trkpt lat="45.7949" lon="6.96464">
        <ele>1556</ele>
        <time>2022-08-27T08:21:50Z</time>
      </trkpt>
      <trkpt lat="45.7949" lon="6.96464">
        <ele>1556</ele>
        <time>2022-08-27T08:21:51Z</time>
      </trkpt>
      <trkpt lat="45.7949" lon="6.96464">
        <ele>1556</ele>
        <time>2022-08-27T08:21:52Z</time>
      </trkpt>
      <trkpt lat="45.7949" lon="6.96464">
        <ele>1556</ele>
        <time>2022-08-27T08:21:53Z</time>
      </trkpt>
      <trkpt lat="45.79489" lon="6.96464">
        <ele>1556</ele>
        <time>2022-08-27T08:21:54Z</time>
      </trkpt>
      <trkpt lat="45.79489" lon="6.96464">
        <ele>1556</ele>
        <time>2022-08-27T08:21:55Z</time>
      </trkpt>
      <trkpt lat="45.79489" lon="6.96464">
        <ele>1556</ele>
        <time>2022-08-27T08:21:56Z</time>
      </trkpt>
      <trkpt lat="45.79489" lon="6.96464">
        <ele>1556</ele>
        <time>2022-08-27T08:21:57Z</time>
      </trkpt>
      <trkpt lat="45.79489" lon="6.96464">
        <ele>1556</ele>
        <time>2022-08-27T08:21:58Z</time>
      </trkpt>
      <trkpt lat="45.79489" lon="6.96464">
        <ele>1556</ele>
        <time>2022-08-27T08:21:59Z</time>
      </trkpt>
      <trkpt lat="45.79489" lon="6.96464">
        <ele>1556</ele>
        <time>2022-08-27T08:22:00Z</time>
      </trkpt>
      <trkpt lat="45.79489" lon="6.96464">
        <ele>1556</ele>
        <time>2022-08-27T08:22:01Z</time>
      </trkpt>
      <trkpt lat="45.79488" lon="6.96464">
        <ele>1556</ele>
        <time>2022-08-27T08:22:02Z</time>
      </trkpt>
      <trkpt lat="45.79488" lon="6.96464">
        <ele>1556</ele>
        <time>2022-08-27T08:22:03Z</time>
      </trkpt>
      <trkpt lat="45.79488" lon="6.96464">
        <ele>1556</ele>
        <time>2022-08-27T08:22:04Z</time>
      </trkpt>
      <trkpt lat="45.79488" lon="6.96464">
        <ele>1556</ele>
        <time>2022-08-27T08:22:06Z</time>
      </trkpt>
      <trkpt lat="45.79488" lon="6.96464">
        <ele>1556</ele>
        <time>2022-08-27T08:22:07Z</time>
      </trkpt>
      <trkpt lat="45.79488" lon="6.96464">
        <ele>1556</ele>
        <time>2022-08-27T08:22:08Z</time>
      </trkpt>
      <trkpt lat="45.79488" lon="6.96464">
        <ele>1556</ele>
        <time>2022-08-27T08:22:09Z</time>
      </trkpt>
      <trkpt lat="45.79488" lon="6.96464">
        <ele>1556</ele>
        <time>2022-08-27T08:22:10Z</time>
      </trkpt>
      <trkpt lat="45.79487" lon="6.96464">
        <ele>1556</ele>
        <time>2022-08-27T08:22:11Z</time>
      </trkpt>
      <trkpt lat="45.79487" lon="6.96464">
        <ele>1556</ele>
        <time>2022-08-27T08:22:12Z</time>
      </trkpt>
      <trkpt lat="45.79487" lon="6.96464">
        <ele>1556</ele>
        <time>2022-08-27T08:22:13Z</time>
      </trkpt>
      <trkpt lat="45.79487" lon="6.96465">
        <ele>1556</ele>
        <time>2022-08-27T08:22:14Z</time>
      </trkpt>
      <trkpt lat="45.79487" lon="6.96465">
        <ele>1556</ele>
        <time>2022-08-27T08:22:15Z</time>
      </trkpt>
      <trkpt lat="45.79487" lon="6.96465">
        <ele>1556</ele>
        <time>2022-08-27T08:22:16Z</time>
      </trkpt>
      <trkpt lat="45.79487" lon="6.96465">
        <ele>1556</ele>
        <time>2022-08-27T08:22:17Z</time>
      </trkpt>
      <trkpt lat="45.79487" lon="6.96465">
        <ele>1556</ele>
        <time>2022-08-27T08:22:19Z</time>
      </trkpt>
      <trkpt lat="45.79487" lon="6.96465">
        <ele>1556</ele>
        <time>2022-08-27T08:22:21Z</time>
      </trkpt>
      <trkpt lat="45.79486" lon="6.96465">
        <ele>1556</ele>
        <time>2022-08-27T08:22:22Z</time>
      </trkpt>
      <trkpt lat="45.79486" lon="6.96465">
        <ele>1556</ele>
        <time>2022-08-27T08:22:23Z</time>
      </trkpt>
      <trkpt lat="45.79486" lon="6.96465">
        <ele>1556</ele>
        <time>2022-08-27T08:22:25Z</time>
      </trkpt>
      <trkpt lat="45.79486" lon="6.96465">
        <ele>1556</ele>
        <time>2022-08-27T08:22:26Z</time>
      </trkpt>
      <trkpt lat="45.79486" lon="6.96465">
        <ele>1556</ele>
        <time>2022-08-27T08:22:27Z</time>
      </trkpt>
      <trkpt lat="45.79486" lon="6.96465">
        <ele>1556</ele>
        <time>2022-08-27T08:22:28Z</time>
      </trkpt>
      <trkpt lat="45.79486" lon="6.96465">
        <ele>1556</ele>
        <time>2022-08-27T08:22:30Z</time>
      </trkpt>
      <trkpt lat="45.79486" lon="6.96465">
        <ele>1556</ele>
        <time>2022-08-27T08:22:31Z</time>
      </trkpt>
      <trkpt lat="45.79485" lon="6.96465">
        <ele>1556</ele>
        <time>2022-08-27T08:22:32Z</time>
      </trkpt>
      <trkpt lat="45.79485" lon="6.96465">
        <ele>1556</ele>
        <time>2022-08-27T08:22:33Z</time>
      </trkpt>
      <trkpt lat="45.79485" lon="6.96465">
        <ele>1556</ele>
        <time>2022-08-27T08:22:35Z</time>
      </trkpt>
      <trkpt lat="45.79485" lon="6.96465">
        <ele>1556</ele>
        <time>2022-08-27T08:22:36Z</time>
      </trkpt>
      <trkpt lat="45.79493" lon="6.96456">
        <ele>1556</ele>
        <time>2022-08-27T08:22:38Z</time>
      </trkpt>
      <trkpt lat="45.79496" lon="6.96453">
        <ele>1556</ele>
        <time>2022-08-27T08:22:39Z</time>
      </trkpt>
      <trkpt lat="45.79499" lon="6.9645">
        <ele>1556</ele>
        <time>2022-08-27T08:22:40Z</time>
      </trkpt>
      <trkpt lat="45.79499" lon="6.9645">
        <ele>1556</ele>
        <time>2022-08-27T08:23:00Z</time>
      </trkpt>
      <trkpt lat="45.79499" lon="6.9645">
        <ele>1556</ele>
        <time>2022-08-27T08:23:20Z</time>
      </trkpt>
      <trkpt lat="45.79499" lon="6.9645">
        <ele>1556</ele>
        <time>2022-08-27T08:23:41Z</time>
      </trkpt>
      <trkpt lat="45.79394" lon="6.96482">
        <ele>1556</ele>
        <time>2022-08-27T08:23:46Z</time>
      </trkpt>
      <trkpt lat="45.79391" lon="6.96479">
        <ele>1556</ele>
        <time>2022-08-27T08:23:48Z</time>
      </trkpt>
      <trkpt lat="45.79388" lon="6.96477">
        <ele>1556</ele>
        <time>2022-08-27T08:23:49Z</time>
      </trkpt>
      <trkpt lat="45.79384" lon="6.96474">
        <ele>1556</ele>
        <time>2022-08-27T08:23:50Z</time>
      </trkpt>
      <trkpt lat="45.79381" lon="6.96472">
        <ele>1556</ele>
        <time>2022-08-27T08:23:51Z</time>
      </trkpt>
      <trkpt lat="45.79387" lon="6.96484">
        <ele>1551</ele>
        <time>2022-08-27T08:24:03Z</time>
      </trkpt>
      <trkpt lat="45.79392" lon="6.96473">
        <ele>1551</ele>
        <time>2022-08-27T08:24:10Z</time>
      </trkpt>
      <trkpt lat="45.79393" lon="6.96473">
        <ele>1551</ele>
        <time>2022-08-27T08:24:11Z</time>
      </trkpt>
      <trkpt lat="45.79394" lon="6.96473">
        <ele>1551</ele>
        <time>2022-08-27T08:24:12Z</time>
      </trkpt>
      <trkpt lat="45.79395" lon="6.96473">
        <ele>1550</ele>
        <time>2022-08-27T08:24:13Z</time>
      </trkpt>
      <trkpt lat="45.79402" lon="6.96473">
        <ele>1550</ele>
        <time>2022-08-27T08:24:15Z</time>
      </trkpt>
      <trkpt lat="45.79412" lon="6.96479">
        <ele>1550</ele>
        <time>2022-08-27T08:24:17Z</time>
      </trkpt>
      <trkpt lat="45.79412" lon="6.9648">
        <ele>1550</ele>
        <time>2022-08-27T08:24:19Z</time>
      </trkpt>
      <trkpt lat="45.79412" lon="6.96481">
        <ele>1550</ele>
        <time>2022-08-27T08:24:20Z</time>
      </trkpt>
      <trkpt lat="45.79412" lon="6.96482">
        <ele>1550</ele>
        <time>2022-08-27T08:24:21Z</time>
      </trkpt>
      <trkpt lat="45.79412" lon="6.96483">
        <ele>1550</ele>
        <time>2022-08-27T08:24:23Z</time>
      </trkpt>
      <trkpt lat="45.79412" lon="6.96484">
        <ele>1550</ele>
        <time>2022-08-27T08:24:24Z</time>
      </trkpt>
      <trkpt lat="45.79412" lon="6.96485">
        <ele>1550</ele>
        <time>2022-08-27T08:24:25Z</time>
      </trkpt>
      <trkpt lat="45.79411" lon="6.96486">
        <ele>1550</ele>
        <time>2022-08-27T08:24:26Z</time>
      </trkpt>
      <trkpt lat="45.79411" lon="6.96487">
        <ele>1550</ele>
        <time>2022-08-27T08:24:28Z</time>
      </trkpt>
      <trkpt lat="45.79411" lon="6.96488">
        <ele>1550</ele>
        <time>2022-08-27T08:24:29Z</time>
      </trkpt>
      <trkpt lat="45.79411" lon="6.96489">
        <ele>1550</ele>
        <time>2022-08-27T08:24:30Z</time>
      </trkpt>
      <trkpt lat="45.79411" lon="6.9649">
        <ele>1550</ele>
        <time>2022-08-27T08:24:31Z</time>
      </trkpt>
      <trkpt lat="45.79411" lon="6.96491">
        <ele>1550</ele>
        <time>2022-08-27T08:24:33Z</time>
      </trkpt>
      <trkpt lat="45.7941" lon="6.96492">
        <ele>1550</ele>
        <time>2022-08-27T08:24:34Z</time>
      </trkpt>
      <trkpt lat="45.79409" lon="6.96493">
        <ele>1550</ele>
        <time>2022-08-27T08:24:35Z</time>
      </trkpt>
      <trkpt lat="45.79407" lon="6.96494">
        <ele>1550</ele>
        <time>2022-08-27T08:24:36Z</time>
      </trkpt>
      <trkpt lat="45.79405" lon="6.96495">
        <ele>1550</ele>
        <time>2022-08-27T08:24:38Z</time>
      </trkpt>
      <trkpt lat="45.79403" lon="6.96496">
        <ele>1550</ele>
        <time>2022-08-27T08:24:39Z</time>
      </trkpt>
      <trkpt lat="45.79402" lon="6.96497">
        <ele>1550</ele>
        <time>2022-08-27T08:24:40Z</time>
      </trkpt>
      <trkpt lat="45.79404" lon="6.96501">
        <ele>1550</ele>
        <time>2022-08-27T08:24:42Z</time>
      </trkpt>
      <trkpt lat="45.79406" lon="6.96504">
        <ele>1550</ele>
        <time>2022-08-27T08:24:43Z</time>
      </trkpt>
      <trkpt lat="45.79408" lon="6.96508">
        <ele>1550</ele>
        <time>2022-08-27T08:24:44Z</time>
      </trkpt>
      <trkpt lat="45.7941" lon="6.96512">
        <ele>1550</ele>
        <time>2022-08-27T08:24:45Z</time>
      </trkpt>
      <trkpt lat="45.79412" lon="6.96515">
        <ele>1550</ele>
        <time>2022-08-27T08:24:46Z</time>
      </trkpt>
      <trkpt lat="45.79415" lon="6.96519">
        <ele>1550</ele>
        <time>2022-08-27T08:24:47Z</time>
      </trkpt>
      <trkpt lat="45.79405" lon="6.96521">
        <ele>1549</ele>
        <time>2022-08-27T08:24:52Z</time>
      </trkpt>
      <trkpt lat="45.79404" lon="6.96522">
        <ele>1549</ele>
        <time>2022-08-27T08:24:54Z</time>
      </trkpt>
      <trkpt lat="45.79402" lon="6.96523">
        <ele>1549</ele>
        <time>2022-08-27T08:24:55Z</time>
      </trkpt>
      <trkpt lat="45.794" lon="6.96523">
        <ele>1549</ele>
        <time>2022-08-27T08:24:57Z</time>
      </trkpt>
      <trkpt lat="45.79398" lon="6.96524">
        <ele>1549</ele>
        <time>2022-08-27T08:24:59Z</time>
      </trkpt>
      <trkpt lat="45.79396" lon="6.96525">
        <ele>1548</ele>
        <time>2022-08-27T08:25:00Z</time>
      </trkpt>
      <trkpt lat="45.79389" lon="6.96535">
        <ele>1547</ele>
        <time>2022-08-27T08:25:10Z</time>
      </trkpt>
      <trkpt lat="45.79386" lon="6.96535">
        <ele>1547</ele>
        <time>2022-08-27T08:25:12Z</time>
      </trkpt>
      <trkpt lat="45.79383" lon="6.96535">
        <ele>1546</ele>
        <time>2022-08-27T08:25:13Z</time>
      </trkpt>
      <trkpt lat="45.7938" lon="6.96535">
        <ele>1546</ele>
        <time>2022-08-27T08:25:14Z</time>
      </trkpt>
      <trkpt lat="45.79377" lon="6.96534">
        <ele>1545</ele>
        <time>2022-08-27T08:25:16Z</time>
      </trkpt>
      <trkpt lat="45.79374" lon="6.96533">
        <ele>1545</ele>
        <time>2022-08-27T08:25:17Z</time>
      </trkpt>
      <trkpt lat="45.7937" lon="6.96531">
        <ele>1545</ele>
        <time>2022-08-27T08:25:18Z</time>
      </trkpt>
      <trkpt lat="45.79369" lon="6.96531">
        <ele>1545</ele>
        <time>2022-08-27T08:25:19Z</time>
      </trkpt>
      <trkpt lat="45.79367" lon="6.96531">
        <ele>1545</ele>
        <time>2022-08-27T08:25:21Z</time>
      </trkpt>
      <trkpt lat="45.79365" lon="6.96531">
        <ele>1545</ele>
        <time>2022-08-27T08:25:22Z</time>
      </trkpt>
      <trkpt lat="45.79364" lon="6.96531">
        <ele>1545</ele>
        <time>2022-08-27T08:25:23Z</time>
      </trkpt>
      <trkpt lat="45.79362" lon="6.96531">
        <ele>1545</ele>
        <time>2022-08-27T08:25:24Z</time>
      </trkpt>
      <trkpt lat="45.7936" lon="6.96531">
        <ele>1545</ele>
        <time>2022-08-27T08:25:25Z</time>
      </trkpt>
      <trkpt lat="45.7936" lon="6.96531">
        <ele>1545</ele>
        <time>2022-08-27T08:25:26Z</time>
      </trkpt>
      <trkpt lat="45.7936" lon="6.96532">
        <ele>1545</ele>
        <time>2022-08-27T08:25:28Z</time>
      </trkpt>
      <trkpt lat="45.7936" lon="6.96532">
        <ele>1545</ele>
        <time>2022-08-27T08:25:29Z</time>
      </trkpt>
      <trkpt lat="45.79359" lon="6.96533">
        <ele>1545</ele>
        <time>2022-08-27T08:25:30Z</time>
      </trkpt>
      <trkpt lat="45.79359" lon="6.96533">
        <ele>1545</ele>
        <time>2022-08-27T08:25:31Z</time>
      </trkpt>
      <trkpt lat="45.79359" lon="6.96534">
        <ele>1545</ele>
        <time>2022-08-27T08:25:33Z</time>
      </trkpt>
      <trkpt lat="45.79358" lon="6.96534">
        <ele>1545</ele>
        <time>2022-08-27T08:25:35Z</time>
      </trkpt>
      <trkpt lat="45.79358" lon="6.96535">
        <ele>1545</ele>
        <time>2022-08-27T08:25:36Z</time>
      </trkpt>
      <trkpt lat="45.79358" lon="6.96535">
        <ele>1545</ele>
        <time>2022-08-27T08:25:37Z</time>
      </trkpt>
      <trkpt lat="45.79357" lon="6.96536">
        <ele>1545</ele>
        <time>2022-08-27T08:25:39Z</time>
      </trkpt>
      <trkpt lat="45.79357" lon="6.96536">
        <ele>1545</ele>
        <time>2022-08-27T08:25:40Z</time>
      </trkpt>
      <trkpt lat="45.79357" lon="6.96537">
        <ele>1545</ele>
        <time>2022-08-27T08:25:41Z</time>
      </trkpt>
      <trkpt lat="45.79357" lon="6.96537">
        <ele>1545</ele>
        <time>2022-08-27T08:25:42Z</time>
      </trkpt>
      <trkpt lat="45.79356" lon="6.96538">
        <ele>1545</ele>
        <time>2022-08-27T08:25:43Z</time>
      </trkpt>
      <trkpt lat="45.79356" lon="6.96539">
        <ele>1545</ele>
        <time>2022-08-27T08:25:44Z</time>
      </trkpt>
      <trkpt lat="45.79356" lon="6.96539">
        <ele>1545</ele>
        <time>2022-08-27T08:25:45Z</time>
      </trkpt>
      <trkpt lat="45.79355" lon="6.9654">
        <ele>1545</ele>
        <time>2022-08-27T08:25:46Z</time>
      </trkpt>
      <trkpt lat="45.79355" lon="6.9654">
        <ele>1545</ele>
        <time>2022-08-27T08:25:47Z</time>
      </trkpt>
      <trkpt lat="45.79355" lon="6.96541">
        <ele>1545</ele>
        <time>2022-08-27T08:25:49Z</time>
      </trkpt>
      <trkpt lat="45.79354" lon="6.96541">
        <ele>1546</ele>
        <time>2022-08-27T08:25:50Z</time>
      </trkpt>
      <trkpt lat="45.79354" lon="6.96541">
        <ele>1546</ele>
        <time>2022-08-27T08:25:51Z</time>
      </trkpt>
      <trkpt lat="45.79353" lon="6.96541">
        <ele>1546</ele>
        <time>2022-08-27T08:25:52Z</time>
      </trkpt>
      <trkpt lat="45.79352" lon="6.96541">
        <ele>1546</ele>
        <time>2022-08-27T08:25:54Z</time>
      </trkpt>
      <trkpt lat="45.79352" lon="6.96541">
        <ele>1545</ele>
        <time>2022-08-27T08:25:55Z</time>
      </trkpt>
      <trkpt lat="45.79351" lon="6.96541">
        <ele>1544</ele>
        <time>2022-08-27T08:25:56Z</time>
      </trkpt>
      <trkpt lat="45.7935" lon="6.9654">
        <ele>1544</ele>
        <time>2022-08-27T08:25:57Z</time>
      </trkpt>
      <trkpt lat="45.7935" lon="6.9654">
        <ele>1544</ele>
        <time>2022-08-27T08:25:59Z</time>
      </trkpt>
      <trkpt lat="45.79349" lon="6.9654">
        <ele>1544</ele>
        <time>2022-08-27T08:26:00Z</time>
      </trkpt>
      <trkpt lat="45.79348" lon="6.9654">
        <ele>1544</ele>
        <time>2022-08-27T08:26:01Z</time>
      </trkpt>
      <trkpt lat="45.79348" lon="6.9654">
        <ele>1545</ele>
        <time>2022-08-27T08:26:02Z</time>
      </trkpt>
      <trkpt lat="45.79347" lon="6.9654">
        <ele>1545</ele>
        <time>2022-08-27T08:26:03Z</time>
      </trkpt>
      <trkpt lat="45.79346" lon="6.9654">
        <ele>1545</ele>
        <time>2022-08-27T08:26:04Z</time>
      </trkpt>
      <trkpt lat="45.79345" lon="6.9654">
        <ele>1545</ele>
        <time>2022-08-27T08:26:05Z</time>
      </trkpt>
      <trkpt lat="45.79345" lon="6.96539">
        <ele>1545</ele>
        <time>2022-08-27T08:26:06Z</time>
      </trkpt>
      <trkpt lat="45.79343" lon="6.96539">
        <ele>1545</ele>
        <time>2022-08-27T08:26:07Z</time>
      </trkpt>
      <trkpt lat="45.79342" lon="6.96538">
        <ele>1545</ele>
        <time>2022-08-27T08:26:09Z</time>
      </trkpt>
      <trkpt lat="45.7934" lon="6.96537">
        <ele>1545</ele>
        <time>2022-08-27T08:26:10Z</time>
      </trkpt>
      <trkpt lat="45.79339" lon="6.96536">
        <ele>1545</ele>
        <time>2022-08-27T08:26:11Z</time>
      </trkpt>
      <trkpt lat="45.79337" lon="6.96536">
        <ele>1545</ele>
        <time>2022-08-27T08:26:12Z</time>
      </trkpt>
      <trkpt lat="45.79336" lon="6.96535">
        <ele>1545</ele>
        <time>2022-08-27T08:26:13Z</time>
      </trkpt>
      <trkpt lat="45.79335" lon="6.96535">
        <ele>1545</ele>
        <time>2022-08-27T08:26:15Z</time>
      </trkpt>
      <trkpt lat="45.79334" lon="6.96535">
        <ele>1545</ele>
        <time>2022-08-27T08:26:17Z</time>
      </trkpt>
      <trkpt lat="45.79334" lon="6.96534">
        <ele>1545</ele>
        <time>2022-08-27T08:26:18Z</time>
      </trkpt>
      <trkpt lat="45.79333" lon="6.96534">
        <ele>1545</ele>
        <time>2022-08-27T08:26:19Z</time>
      </trkpt>
      <trkpt lat="45.79332" lon="6.96534">
        <ele>1545</ele>
        <time>2022-08-27T08:26:20Z</time>
      </trkpt>
      <trkpt lat="45.79332" lon="6.96534">
        <ele>1545</ele>
        <time>2022-08-27T08:26:22Z</time>
      </trkpt>
      <trkpt lat="45.79331" lon="6.96534">
        <ele>1545</ele>
        <time>2022-08-27T08:26:23Z</time>
      </trkpt>
      <trkpt lat="45.7933" lon="6.96534">
        <ele>1545</ele>
        <time>2022-08-27T08:26:24Z</time>
      </trkpt>
      <trkpt lat="45.7933" lon="6.96533">
        <ele>1545</ele>
        <time>2022-08-27T08:26:25Z</time>
      </trkpt>
      <trkpt lat="45.79329" lon="6.96533">
        <ele>1545</ele>
        <time>2022-08-27T08:26:27Z</time>
      </trkpt>
      <trkpt lat="45.79328" lon="6.96533">
        <ele>1545</ele>
        <time>2022-08-27T08:26:28Z</time>
      </trkpt>
      <trkpt lat="45.79328" lon="6.96533">
        <ele>1545</ele>
        <time>2022-08-27T08:26:29Z</time>
      </trkpt>
      <trkpt lat="45.79327" lon="6.96533">
        <ele>1545</ele>
        <time>2022-08-27T08:26:30Z</time>
      </trkpt>
      <trkpt lat="45.7931" lon="6.96529">
        <ele>1545</ele>
        <time>2022-08-27T08:26:32Z</time>
      </trkpt>
      <trkpt lat="45.79307" lon="6.96529">
        <ele>1545</ele>
        <time>2022-08-27T08:26:34Z</time>
      </trkpt>
      <trkpt lat="45.79305" lon="6.96529">
        <ele>1545</ele>
        <time>2022-08-27T08:26:35Z</time>
      </trkpt>
      <trkpt lat="45.79302" lon="6.96529">
        <ele>1545</ele>
        <time>2022-08-27T08:26:36Z</time>
      </trkpt>
      <trkpt lat="45.79299" lon="6.96529">
        <ele>1545</ele>
        <time>2022-08-27T08:26:37Z</time>
      </trkpt>
      <trkpt lat="45.7929" lon="6.96529">
        <ele>1544</ele>
        <time>2022-08-27T08:26:42Z</time>
      </trkpt>
      <trkpt lat="45.79288" lon="6.96531">
        <ele>1544</ele>
        <time>2022-08-27T08:26:44Z</time>
      </trkpt>
      <trkpt lat="45.79283" lon="6.9653">
        <ele>1545</ele>
        <time>2022-08-27T08:26:47Z</time>
      </trkpt>
      <trkpt lat="45.79281" lon="6.96531">
        <ele>1544</ele>
        <time>2022-08-27T08:26:49Z</time>
      </trkpt>
      <trkpt lat="45.7928" lon="6.96533">
        <ele>1544</ele>
        <time>2022-08-27T08:26:51Z</time>
      </trkpt>
      <trkpt lat="45.79277" lon="6.96534">
        <ele>1544</ele>
        <time>2022-08-27T08:26:53Z</time>
      </trkpt>
      <trkpt lat="45.79274" lon="6.96535">
        <ele>1543</ele>
        <time>2022-08-27T08:26:55Z</time>
      </trkpt>
      <trkpt lat="45.7927" lon="6.96535">
        <ele>1543</ele>
        <time>2022-08-27T08:26:57Z</time>
      </trkpt>
      <trkpt lat="45.79267" lon="6.96536">
        <ele>1543</ele>
        <time>2022-08-27T08:26:59Z</time>
      </trkpt>
      <trkpt lat="45.79265" lon="6.96537">
        <ele>1543</ele>
        <time>2022-08-27T08:27:01Z</time>
      </trkpt>
      <trkpt lat="45.79259" lon="6.96537">
        <ele>1543</ele>
        <time>2022-08-27T08:27:05Z</time>
      </trkpt>
      <trkpt lat="45.79257" lon="6.96538">
        <ele>1543</ele>
        <time>2022-08-27T08:27:07Z</time>
      </trkpt>
      <trkpt lat="45.79254" lon="6.96539">
        <ele>1543</ele>
        <time>2022-08-27T08:27:09Z</time>
      </trkpt>
      <trkpt lat="45.79252" lon="6.9654">
        <ele>1543</ele>
        <time>2022-08-27T08:27:11Z</time>
      </trkpt>
      <trkpt lat="45.79243" lon="6.96539">
        <ele>1542</ele>
        <time>2022-08-27T08:27:17Z</time>
      </trkpt>
      <trkpt lat="45.7924" lon="6.96541">
        <ele>1542</ele>
        <time>2022-08-27T08:27:20Z</time>
      </trkpt>
      <trkpt lat="45.79238" lon="6.96542">
        <ele>1542</ele>
        <time>2022-08-27T08:27:22Z</time>
      </trkpt>
      <trkpt lat="45.79236" lon="6.96541">
        <ele>1542</ele>
        <time>2022-08-27T08:27:24Z</time>
      </trkpt>
      <trkpt lat="45.79234" lon="6.9654">
        <ele>1542</ele>
        <time>2022-08-27T08:27:25Z</time>
      </trkpt>
      <trkpt lat="45.79233" lon="6.9654">
        <ele>1542</ele>
        <time>2022-08-27T08:27:26Z</time>
      </trkpt>
      <trkpt lat="45.79231" lon="6.96539">
        <ele>1542</ele>
        <time>2022-08-27T08:27:28Z</time>
      </trkpt>
      <trkpt lat="45.7923" lon="6.96538">
        <ele>1542</ele>
        <time>2022-08-27T08:27:29Z</time>
      </trkpt>
      <trkpt lat="45.79228" lon="6.96538">
        <ele>1542</ele>
        <time>2022-08-27T08:27:30Z</time>
      </trkpt>
      <trkpt lat="45.79227" lon="6.96537">
        <ele>1542</ele>
        <time>2022-08-27T08:27:31Z</time>
      </trkpt>
      <trkpt lat="45.79226" lon="6.96539">
        <ele>1541</ele>
        <time>2022-08-27T08:27:33Z</time>
      </trkpt>
      <trkpt lat="45.79225" lon="6.96541">
        <ele>1541</ele>
        <time>2022-08-27T08:27:34Z</time>
      </trkpt>
      <trkpt lat="45.79223" lon="6.96542">
        <ele>1541</ele>
        <time>2022-08-27T08:27:35Z</time>
      </trkpt>
      <trkpt lat="45.79222" lon="6.96544">
        <ele>1541</ele>
        <time>2022-08-27T08:27:36Z</time>
      </trkpt>
      <trkpt lat="45.79221" lon="6.96546">
        <ele>1540</ele>
        <time>2022-08-27T08:27:38Z</time>
      </trkpt>
      <trkpt lat="45.7922" lon="6.96548">
        <ele>1540</ele>
        <time>2022-08-27T08:27:39Z</time>
      </trkpt>
      <trkpt lat="45.79221" lon="6.96556">
        <ele>1541</ele>
        <time>2022-08-27T08:27:43Z</time>
      </trkpt>
      <trkpt lat="45.79221" lon="6.96559">
        <ele>1541</ele>
        <time>2022-08-27T08:27:45Z</time>
      </trkpt>
      <trkpt lat="45.7922" lon="6.96562">
        <ele>1540</ele>
        <time>2022-08-27T08:27:46Z</time>
      </trkpt>
      <trkpt lat="45.7922" lon="6.96565">
        <ele>1540</ele>
        <time>2022-08-27T08:27:47Z</time>
      </trkpt>
      <trkpt lat="45.7922" lon="6.96567">
        <ele>1540</ele>
        <time>2022-08-27T08:27:48Z</time>
      </trkpt>
      <trkpt lat="45.7922" lon="6.96571">
        <ele>1540</ele>
        <time>2022-08-27T08:27:51Z</time>
      </trkpt>
      <trkpt lat="45.79221" lon="6.96575">
        <ele>1540</ele>
        <time>2022-08-27T08:27:52Z</time>
      </trkpt>
      <trkpt lat="45.79222" lon="6.96578">
        <ele>1540</ele>
        <time>2022-08-27T08:27:55Z</time>
      </trkpt>
      <trkpt lat="45.79223" lon="6.96581">
        <ele>1540</ele>
        <time>2022-08-27T08:27:56Z</time>
      </trkpt>
      <trkpt lat="45.79223" lon="6.96585">
        <ele>1540</ele>
        <time>2022-08-27T08:27:57Z</time>
      </trkpt>
      <trkpt lat="45.79224" lon="6.96588">
        <ele>1540</ele>
        <time>2022-08-27T08:27:58Z</time>
      </trkpt>
      <trkpt lat="45.79225" lon="6.9659">
        <ele>1540</ele>
        <time>2022-08-27T08:28:00Z</time>
      </trkpt>
      <trkpt lat="45.79225" lon="6.96592">
        <ele>1540</ele>
        <time>2022-08-27T08:28:01Z</time>
      </trkpt>
      <trkpt lat="45.79225" lon="6.96594">
        <ele>1540</ele>
        <time>2022-08-27T08:28:02Z</time>
      </trkpt>
      <trkpt lat="45.79226" lon="6.96596">
        <ele>1540</ele>
        <time>2022-08-27T08:28:03Z</time>
      </trkpt>
      <trkpt lat="45.79226" lon="6.96599">
        <ele>1540</ele>
        <time>2022-08-27T08:28:04Z</time>
      </trkpt>
      <trkpt lat="45.79227" lon="6.96601">
        <ele>1540</ele>
        <time>2022-08-27T08:28:05Z</time>
      </trkpt>
      <trkpt lat="45.79227" lon="6.96605">
        <ele>1540</ele>
        <time>2022-08-27T08:28:06Z</time>
      </trkpt>
      <trkpt lat="45.79228" lon="6.96609">
        <ele>1540</ele>
        <time>2022-08-27T08:28:08Z</time>
      </trkpt>
      <trkpt lat="45.79229" lon="6.96611">
        <ele>1539</ele>
        <time>2022-08-27T08:28:09Z</time>
      </trkpt>
      <trkpt lat="45.7923" lon="6.96613">
        <ele>1539</ele>
        <time>2022-08-27T08:28:10Z</time>
      </trkpt>
      <trkpt lat="45.7923" lon="6.96615">
        <ele>1539</ele>
        <time>2022-08-27T08:28:12Z</time>
      </trkpt>
      <trkpt lat="45.79231" lon="6.96617">
        <ele>1539</ele>
        <time>2022-08-27T08:28:13Z</time>
      </trkpt>
      <trkpt lat="45.79232" lon="6.96619">
        <ele>1539</ele>
        <time>2022-08-27T08:28:14Z</time>
      </trkpt>
      <trkpt lat="45.79233" lon="6.96621">
        <ele>1539</ele>
        <time>2022-08-27T08:28:15Z</time>
      </trkpt>
      <trkpt lat="45.79234" lon="6.96623">
        <ele>1539</ele>
        <time>2022-08-27T08:28:17Z</time>
      </trkpt>
      <trkpt lat="45.79235" lon="6.96625">
        <ele>1538</ele>
        <time>2022-08-27T08:28:18Z</time>
      </trkpt>
      <trkpt lat="45.79236" lon="6.96627">
        <ele>1538</ele>
        <time>2022-08-27T08:28:19Z</time>
      </trkpt>
      <trkpt lat="45.79237" lon="6.96629">
        <ele>1538</ele>
        <time>2022-08-27T08:28:20Z</time>
      </trkpt>
      <trkpt lat="45.79238" lon="6.96631">
        <ele>1538</ele>
        <time>2022-08-27T08:28:21Z</time>
      </trkpt>
      <trkpt lat="45.79237" lon="6.96645">
        <ele>1538</ele>
        <time>2022-08-27T08:28:26Z</time>
      </trkpt>
      <trkpt lat="45.79239" lon="6.96659">
        <ele>1538</ele>
        <time>2022-08-27T08:28:33Z</time>
      </trkpt>
      <trkpt lat="45.7924" lon="6.96661">
        <ele>1538</ele>
        <time>2022-08-27T08:28:34Z</time>
      </trkpt>
      <trkpt lat="45.79241" lon="6.96663">
        <ele>1538</ele>
        <time>2022-08-27T08:28:35Z</time>
      </trkpt>
      <trkpt lat="45.79241" lon="6.96665">
        <ele>1538</ele>
        <time>2022-08-27T08:28:36Z</time>
      </trkpt>
      <trkpt lat="45.79242" lon="6.96666">
        <ele>1538</ele>
        <time>2022-08-27T08:28:38Z</time>
      </trkpt>
      <trkpt lat="45.79243" lon="6.96668">
        <ele>1538</ele>
        <time>2022-08-27T08:28:39Z</time>
      </trkpt>
      <trkpt lat="45.79243" lon="6.9667">
        <ele>1537</ele>
        <time>2022-08-27T08:28:40Z</time>
      </trkpt>
      <trkpt lat="45.79249" lon="6.96683">
        <ele>1538</ele>
        <time>2022-08-27T08:28:45Z</time>
      </trkpt>
      <trkpt lat="45.7925" lon="6.96685">
        <ele>1537</ele>
        <time>2022-08-27T08:28:46Z</time>
      </trkpt>
      <trkpt lat="45.79251" lon="6.96687">
        <ele>1536</ele>
        <time>2022-08-27T08:28:47Z</time>
      </trkpt>
      <trkpt lat="45.79252" lon="6.96689">
        <ele>1537</ele>
        <time>2022-08-27T08:28:48Z</time>
      </trkpt>
      <trkpt lat="45.79254" lon="6.96691">
        <ele>1537</ele>
        <time>2022-08-27T08:28:50Z</time>
      </trkpt>
      <trkpt lat="45.79255" lon="6.96693">
        <ele>1537</ele>
        <time>2022-08-27T08:28:51Z</time>
      </trkpt>
      <trkpt lat="45.79262" lon="6.96704">
        <ele>1538</ele>
        <time>2022-08-27T08:28:56Z</time>
      </trkpt>
      <trkpt lat="45.79264" lon="6.96706">
        <ele>1537</ele>
        <time>2022-08-27T08:28:58Z</time>
      </trkpt>
      <trkpt lat="45.79266" lon="6.96709">
        <ele>1537</ele>
        <time>2022-08-27T08:28:59Z</time>
      </trkpt>
      <trkpt lat="45.79268" lon="6.96711">
        <ele>1537</ele>
        <time>2022-08-27T08:29:00Z</time>
      </trkpt>
      <trkpt lat="45.79269" lon="6.96714">
        <ele>1537</ele>
        <time>2022-08-27T08:29:01Z</time>
      </trkpt>
      <trkpt lat="45.7927" lon="6.96717">
        <ele>1537</ele>
        <time>2022-08-27T08:29:02Z</time>
      </trkpt>
      <trkpt lat="45.79271" lon="6.9672">
        <ele>1537</ele>
        <time>2022-08-27T08:29:04Z</time>
      </trkpt>
      <trkpt lat="45.79271" lon="6.96723">
        <ele>1537</ele>
        <time>2022-08-27T08:29:05Z</time>
      </trkpt>
      <trkpt lat="45.79272" lon="6.96726">
        <ele>1537</ele>
        <time>2022-08-27T08:29:06Z</time>
      </trkpt>
      <trkpt lat="45.79272" lon="6.9673">
        <ele>1537</ele>
        <time>2022-08-27T08:29:08Z</time>
      </trkpt>
      <trkpt lat="45.79271" lon="6.96734">
        <ele>1537</ele>
        <time>2022-08-27T08:29:09Z</time>
      </trkpt>
      <trkpt lat="45.79271" lon="6.96737">
        <ele>1537</ele>
        <time>2022-08-27T08:29:10Z</time>
      </trkpt>
      <trkpt lat="45.79271" lon="6.96741">
        <ele>1537</ele>
        <time>2022-08-27T08:29:11Z</time>
      </trkpt>
      <trkpt lat="45.79272" lon="6.96744">
        <ele>1537</ele>
        <time>2022-08-27T08:29:13Z</time>
      </trkpt>
      <trkpt lat="45.79272" lon="6.96747">
        <ele>1537</ele>
        <time>2022-08-27T08:29:14Z</time>
      </trkpt>
      <trkpt lat="45.79273" lon="6.9675">
        <ele>1537</ele>
        <time>2022-08-27T08:29:15Z</time>
      </trkpt>
      <trkpt lat="45.79274" lon="6.96753">
        <ele>1537</ele>
        <time>2022-08-27T08:29:16Z</time>
      </trkpt>
      <trkpt lat="45.79275" lon="6.96755">
        <ele>1538</ele>
        <time>2022-08-27T08:29:18Z</time>
      </trkpt>
      <trkpt lat="45.79275" lon="6.96757">
        <ele>1538</ele>
        <time>2022-08-27T08:29:19Z</time>
      </trkpt>
      <trkpt lat="45.79276" lon="6.96759">
        <ele>1538</ele>
        <time>2022-08-27T08:29:20Z</time>
      </trkpt>
      <trkpt lat="45.79277" lon="6.96761">
        <ele>1538</ele>
        <time>2022-08-27T08:29:21Z</time>
      </trkpt>
      <trkpt lat="45.79278" lon="6.96763">
        <ele>1538</ele>
        <time>2022-08-27T08:29:22Z</time>
      </trkpt>
      <trkpt lat="45.79278" lon="6.96765">
        <ele>1538</ele>
        <time>2022-08-27T08:29:23Z</time>
      </trkpt>
      <trkpt lat="45.79281" lon="6.96771">
        <ele>1538</ele>
        <time>2022-08-27T08:29:24Z</time>
      </trkpt>
      <trkpt lat="45.79284" lon="6.96776">
        <ele>1538</ele>
        <time>2022-08-27T08:29:25Z</time>
      </trkpt>
      <trkpt lat="45.79283" lon="6.96778">
        <ele>1538</ele>
        <time>2022-08-27T08:29:26Z</time>
      </trkpt>
      <trkpt lat="45.79282" lon="6.96779">
        <ele>1538</ele>
        <time>2022-08-27T08:29:28Z</time>
      </trkpt>
      <trkpt lat="45.79282" lon="6.96781">
        <ele>1538</ele>
        <time>2022-08-27T08:29:30Z</time>
      </trkpt>
      <trkpt lat="45.79281" lon="6.96782">
        <ele>1538</ele>
        <time>2022-08-27T08:29:31Z</time>
      </trkpt>
      <trkpt lat="45.7928" lon="6.96784">
        <ele>1538</ele>
        <time>2022-08-27T08:29:32Z</time>
      </trkpt>
      <trkpt lat="45.79279" lon="6.96786">
        <ele>1538</ele>
        <time>2022-08-27T08:29:33Z</time>
      </trkpt>
      <trkpt lat="45.79279" lon="6.96787">
        <ele>1538</ele>
        <time>2022-08-27T08:29:34Z</time>
      </trkpt>
      <trkpt lat="45.79278" lon="6.96789">
        <ele>1538</ele>
        <time>2022-08-27T08:29:35Z</time>
      </trkpt>
      <trkpt lat="45.79277" lon="6.96791">
        <ele>1539</ele>
        <time>2022-08-27T08:29:36Z</time>
      </trkpt>
      <trkpt lat="45.79275" lon="6.96792">
        <ele>1539</ele>
        <time>2022-08-27T08:29:37Z</time>
      </trkpt>
      <trkpt lat="45.79274" lon="6.96794">
        <ele>1539</ele>
        <time>2022-08-27T08:29:38Z</time>
      </trkpt>
      <trkpt lat="45.79273" lon="6.96796">
        <ele>1539</ele>
        <time>2022-08-27T08:29:40Z</time>
      </trkpt>
      <trkpt lat="45.79272" lon="6.96798">
        <ele>1539</ele>
        <time>2022-08-27T08:29:41Z</time>
      </trkpt>
      <trkpt lat="45.7927" lon="6.968">
        <ele>1539</ele>
        <time>2022-08-27T08:29:42Z</time>
      </trkpt>
      <trkpt lat="45.79269" lon="6.96801">
        <ele>1540</ele>
        <time>2022-08-27T08:29:44Z</time>
      </trkpt>
      <trkpt lat="45.79268" lon="6.96802">
        <ele>1540</ele>
        <time>2022-08-27T08:29:46Z</time>
      </trkpt>
      <trkpt lat="45.79267" lon="6.96803">
        <ele>1540</ele>
        <time>2022-08-27T08:29:47Z</time>
      </trkpt>
      <trkpt lat="45.79266" lon="6.96803">
        <ele>1540</ele>
        <time>2022-08-27T08:29:48Z</time>
      </trkpt>
      <trkpt lat="45.79265" lon="6.96804">
        <ele>1540</ele>
        <time>2022-08-27T08:29:49Z</time>
      </trkpt>
      <trkpt lat="45.79264" lon="6.96805">
        <ele>1540</ele>
        <time>2022-08-27T08:29:51Z</time>
      </trkpt>
      <trkpt lat="45.79263" lon="6.96806">
        <ele>1540</ele>
        <time>2022-08-27T08:29:52Z</time>
      </trkpt>
      <trkpt lat="45.79261" lon="6.96807">
        <ele>1540</ele>
        <time>2022-08-27T08:29:53Z</time>
      </trkpt>
      <trkpt lat="45.7926" lon="6.96808">
        <ele>1540</ele>
        <time>2022-08-27T08:29:54Z</time>
      </trkpt>
      <trkpt lat="45.79258" lon="6.96808">
        <ele>1540</ele>
        <time>2022-08-27T08:29:56Z</time>
      </trkpt>
      <trkpt lat="45.79257" lon="6.96809">
        <ele>1540</ele>
        <time>2022-08-27T08:29:57Z</time>
      </trkpt>
      <trkpt lat="45.79255" lon="6.9681">
        <ele>1540</ele>
        <time>2022-08-27T08:29:58Z</time>
      </trkpt>
      <trkpt lat="45.79254" lon="6.9681">
        <ele>1540</ele>
        <time>2022-08-27T08:29:59Z</time>
      </trkpt>
      <trkpt lat="45.79253" lon="6.96811">
        <ele>1540</ele>
        <time>2022-08-27T08:30:00Z</time>
      </trkpt>
      <trkpt lat="45.79251" lon="6.96812">
        <ele>1540</ele>
        <time>2022-08-27T08:30:01Z</time>
      </trkpt>
      <trkpt lat="45.7925" lon="6.96812">
        <ele>1541</ele>
        <time>2022-08-27T08:30:02Z</time>
      </trkpt>
      <trkpt lat="45.79249" lon="6.96813">
        <ele>1541</ele>
        <time>2022-08-27T08:30:03Z</time>
      </trkpt>
      <trkpt lat="45.79247" lon="6.96813">
        <ele>1541</ele>
        <time>2022-08-27T08:30:04Z</time>
      </trkpt>
      <trkpt lat="45.79246" lon="6.96814">
        <ele>1541</ele>
        <time>2022-08-27T08:30:05Z</time>
      </trkpt>
      <trkpt lat="45.79245" lon="6.96815">
        <ele>1541</ele>
        <time>2022-08-27T08:30:06Z</time>
      </trkpt>
      <trkpt lat="45.79243" lon="6.96815">
        <ele>1542</ele>
        <time>2022-08-27T08:30:08Z</time>
      </trkpt>
      <trkpt lat="45.79241" lon="6.96816">
        <ele>1542</ele>
        <time>2022-08-27T08:30:09Z</time>
      </trkpt>
      <trkpt lat="45.7924" lon="6.96816">
        <ele>1542</ele>
        <time>2022-08-27T08:30:10Z</time>
      </trkpt>
      <trkpt lat="45.79238" lon="6.96817">
        <ele>1542</ele>
        <time>2022-08-27T08:30:11Z</time>
      </trkpt>
      <trkpt lat="45.79237" lon="6.96817">
        <ele>1542</ele>
        <time>2022-08-27T08:30:12Z</time>
      </trkpt>
      <trkpt lat="45.79235" lon="6.96818">
        <ele>1542</ele>
        <time>2022-08-27T08:30:13Z</time>
      </trkpt>
      <trkpt lat="45.79233" lon="6.96819">
        <ele>1542</ele>
        <time>2022-08-27T08:30:14Z</time>
      </trkpt>
      <trkpt lat="45.79231" lon="6.9682">
        <ele>1543</ele>
        <time>2022-08-27T08:30:15Z</time>
      </trkpt>
      <trkpt lat="45.7923" lon="6.96821">
        <ele>1543</ele>
        <time>2022-08-27T08:30:16Z</time>
      </trkpt>
      <trkpt lat="45.79228" lon="6.96823">
        <ele>1543</ele>
        <time>2022-08-27T08:30:17Z</time>
      </trkpt>
      <trkpt lat="45.79226" lon="6.96824">
        <ele>1543</ele>
        <time>2022-08-27T08:30:18Z</time>
      </trkpt>
      <trkpt lat="45.79224" lon="6.96825">
        <ele>1543</ele>
        <time>2022-08-27T08:30:20Z</time>
      </trkpt>
      <trkpt lat="45.79223" lon="6.96826">
        <ele>1543</ele>
        <time>2022-08-27T08:30:21Z</time>
      </trkpt>
      <trkpt lat="45.79221" lon="6.96827">
        <ele>1543</ele>
        <time>2022-08-27T08:30:22Z</time>
      </trkpt>
      <trkpt lat="45.79219" lon="6.96828">
        <ele>1543</ele>
        <time>2022-08-27T08:30:24Z</time>
      </trkpt>
      <trkpt lat="45.79218" lon="6.96829">
        <ele>1543</ele>
        <time>2022-08-27T08:30:25Z</time>
      </trkpt>
      <trkpt lat="45.79216" lon="6.9683">
        <ele>1543</ele>
        <time>2022-08-27T08:30:26Z</time>
      </trkpt>
      <trkpt lat="45.79215" lon="6.9683">
        <ele>1543</ele>
        <time>2022-08-27T08:30:27Z</time>
      </trkpt>
      <trkpt lat="45.79213" lon="6.96831">
        <ele>1544</ele>
        <time>2022-08-27T08:30:29Z</time>
      </trkpt>
      <trkpt lat="45.79211" lon="6.96832">
        <ele>1544</ele>
        <time>2022-08-27T08:30:30Z</time>
      </trkpt>
      <trkpt lat="45.7921" lon="6.96833">
        <ele>1544</ele>
        <time>2022-08-27T08:30:31Z</time>
      </trkpt>
      <trkpt lat="45.79208" lon="6.96833">
        <ele>1544</ele>
        <time>2022-08-27T08:30:32Z</time>
      </trkpt>
      <trkpt lat="45.79199" lon="6.96837">
        <ele>1545</ele>
        <time>2022-08-27T08:30:37Z</time>
      </trkpt>
      <trkpt lat="45.79199" lon="6.96838">
        <ele>1545</ele>
        <time>2022-08-27T08:30:39Z</time>
      </trkpt>
      <trkpt lat="45.79199" lon="6.96839">
        <ele>1545</ele>
        <time>2022-08-27T08:30:40Z</time>
      </trkpt>
      <trkpt lat="45.79199" lon="6.96841">
        <ele>1545</ele>
        <time>2022-08-27T08:30:41Z</time>
      </trkpt>
      <trkpt lat="45.79199" lon="6.96842">
        <ele>1545</ele>
        <time>2022-08-27T08:30:43Z</time>
      </trkpt>
      <trkpt lat="45.79198" lon="6.96843">
        <ele>1545</ele>
        <time>2022-08-27T08:30:44Z</time>
      </trkpt>
      <trkpt lat="45.79198" lon="6.96845">
        <ele>1545</ele>
        <time>2022-08-27T08:30:45Z</time>
      </trkpt>
      <trkpt lat="45.79198" lon="6.96855">
        <ele>1545</ele>
        <time>2022-08-27T08:30:46Z</time>
      </trkpt>
      <trkpt lat="45.79197" lon="6.96857">
        <ele>1545</ele>
        <time>2022-08-27T08:30:48Z</time>
      </trkpt>
      <trkpt lat="45.79197" lon="6.96859">
        <ele>1545</ele>
        <time>2022-08-27T08:30:49Z</time>
      </trkpt>
      <trkpt lat="45.79196" lon="6.96861">
        <ele>1545</ele>
        <time>2022-08-27T08:30:50Z</time>
      </trkpt>
      <trkpt lat="45.79196" lon="6.96864">
        <ele>1546</ele>
        <time>2022-08-27T08:30:51Z</time>
      </trkpt>
      <trkpt lat="45.79196" lon="6.96866">
        <ele>1547</ele>
        <time>2022-08-27T08:30:52Z</time>
      </trkpt>
      <trkpt lat="45.79196" lon="6.96869">
        <ele>1547</ele>
        <time>2022-08-27T08:30:53Z</time>
      </trkpt>
      <trkpt lat="45.79197" lon="6.96872">
        <ele>1547</ele>
        <time>2022-08-27T08:30:55Z</time>
      </trkpt>
      <trkpt lat="45.79198" lon="6.96875">
        <ele>1547</ele>
        <time>2022-08-27T08:30:56Z</time>
      </trkpt>
      <trkpt lat="45.79199" lon="6.96877">
        <ele>1547</ele>
        <time>2022-08-27T08:30:57Z</time>
      </trkpt>
      <trkpt lat="45.792" lon="6.9688">
        <ele>1547</ele>
        <time>2022-08-27T08:30:58Z</time>
      </trkpt>
      <trkpt lat="45.79202" lon="6.96884">
        <ele>1547</ele>
        <time>2022-08-27T08:31:00Z</time>
      </trkpt>
      <trkpt lat="45.79204" lon="6.96888">
        <ele>1547</ele>
        <time>2022-08-27T08:31:01Z</time>
      </trkpt>
      <trkpt lat="45.79207" lon="6.96891">
        <ele>1547</ele>
        <time>2022-08-27T08:31:02Z</time>
      </trkpt>
      <trkpt lat="45.79205" lon="6.96906">
        <ele>1548</ele>
        <time>2022-08-27T08:31:12Z</time>
      </trkpt>
      <trkpt lat="45.79196" lon="6.96903">
        <ele>1548</ele>
        <time>2022-08-27T08:31:17Z</time>
      </trkpt>
      <trkpt lat="45.79193" lon="6.96903">
        <ele>1548</ele>
        <time>2022-08-27T08:31:18Z</time>
      </trkpt>
      <trkpt lat="45.79191" lon="6.96903">
        <ele>1548</ele>
        <time>2022-08-27T08:31:19Z</time>
      </trkpt>
      <trkpt lat="45.79189" lon="6.96902">
        <ele>1549</ele>
        <time>2022-08-27T08:31:20Z</time>
      </trkpt>
      <trkpt lat="45.79187" lon="6.96902">
        <ele>1549</ele>
        <time>2022-08-27T08:31:21Z</time>
      </trkpt>
      <trkpt lat="45.79184" lon="6.96901">
        <ele>1549</ele>
        <time>2022-08-27T08:31:22Z</time>
      </trkpt>
      <trkpt lat="45.79181" lon="6.96901">
        <ele>1549</ele>
        <time>2022-08-27T08:31:23Z</time>
      </trkpt>
      <trkpt lat="45.79178" lon="6.96901">
        <ele>1549</ele>
        <time>2022-08-27T08:31:24Z</time>
      </trkpt>
      <trkpt lat="45.79175" lon="6.96901">
        <ele>1550</ele>
        <time>2022-08-27T08:31:25Z</time>
      </trkpt>
      <trkpt lat="45.79171" lon="6.969">
        <ele>1550</ele>
        <time>2022-08-27T08:31:27Z</time>
      </trkpt>
      <trkpt lat="45.79167" lon="6.96899">
        <ele>1550</ele>
        <time>2022-08-27T08:31:28Z</time>
      </trkpt>
      <trkpt lat="45.79163" lon="6.96898">
        <ele>1550</ele>
        <time>2022-08-27T08:31:29Z</time>
      </trkpt>
      <trkpt lat="45.79159" lon="6.96897">
        <ele>1550</ele>
        <time>2022-08-27T08:31:30Z</time>
      </trkpt>
      <trkpt lat="45.79155" lon="6.96896">
        <ele>1550</ele>
        <time>2022-08-27T08:31:31Z</time>
      </trkpt>
      <trkpt lat="45.79151" lon="6.96895">
        <ele>1550</ele>
        <time>2022-08-27T08:31:33Z</time>
      </trkpt>
      <trkpt lat="45.79147" lon="6.96894">
        <ele>1550</ele>
        <time>2022-08-27T08:31:34Z</time>
      </trkpt>
      <trkpt lat="45.79143" lon="6.96893">
        <ele>1550</ele>
        <time>2022-08-27T08:31:35Z</time>
      </trkpt>
      <trkpt lat="45.79138" lon="6.96889">
        <ele>1550</ele>
        <time>2022-08-27T08:31:36Z</time>
      </trkpt>
      <trkpt lat="45.79135" lon="6.96888">
        <ele>1550</ele>
        <time>2022-08-27T08:31:37Z</time>
      </trkpt>
      <trkpt lat="45.79133" lon="6.96887">
        <ele>1550</ele>
        <time>2022-08-27T08:31:38Z</time>
      </trkpt>
      <trkpt lat="45.79131" lon="6.96886">
        <ele>1550</ele>
        <time>2022-08-27T08:31:39Z</time>
      </trkpt>
      <trkpt lat="45.79129" lon="6.96885">
        <ele>1551</ele>
        <time>2022-08-27T08:31:40Z</time>
      </trkpt>
      <trkpt lat="45.79128" lon="6.96887">
        <ele>1551</ele>
        <time>2022-08-27T08:31:41Z</time>
      </trkpt>
      <trkpt lat="45.79127" lon="6.96888">
        <ele>1552</ele>
        <time>2022-08-27T08:31:42Z</time>
      </trkpt>
      <trkpt lat="45.79126" lon="6.9689">
        <ele>1552</ele>
        <time>2022-08-27T08:31:43Z</time>
      </trkpt>
      <trkpt lat="45.79125" lon="6.96892">
        <ele>1552</ele>
        <time>2022-08-27T08:31:45Z</time>
      </trkpt>
      <trkpt lat="45.79123" lon="6.96893">
        <ele>1552</ele>
        <time>2022-08-27T08:31:46Z</time>
      </trkpt>
      <trkpt lat="45.79122" lon="6.96895">
        <ele>1552</ele>
        <time>2022-08-27T08:31:47Z</time>
      </trkpt>
      <trkpt lat="45.79121" lon="6.96896">
        <ele>1553</ele>
        <time>2022-08-27T08:31:48Z</time>
      </trkpt>
      <trkpt lat="45.79119" lon="6.96897">
        <ele>1553</ele>
        <time>2022-08-27T08:31:49Z</time>
      </trkpt>
      <trkpt lat="45.79117" lon="6.96898">
        <ele>1553</ele>
        <time>2022-08-27T08:31:51Z</time>
      </trkpt>
      <trkpt lat="45.79115" lon="6.96899">
        <ele>1553</ele>
        <time>2022-08-27T08:31:52Z</time>
      </trkpt>
      <trkpt lat="45.79114" lon="6.969">
        <ele>1553</ele>
        <time>2022-08-27T08:31:53Z</time>
      </trkpt>
      <trkpt lat="45.79115" lon="6.96902">
        <ele>1554</ele>
        <time>2022-08-27T08:31:55Z</time>
      </trkpt>
      <trkpt lat="45.79116" lon="6.96904">
        <ele>1554</ele>
        <time>2022-08-27T08:31:56Z</time>
      </trkpt>
      <trkpt lat="45.79118" lon="6.96906">
        <ele>1554</ele>
        <time>2022-08-27T08:31:57Z</time>
      </trkpt>
      <trkpt lat="45.79119" lon="6.96909">
        <ele>1554</ele>
        <time>2022-08-27T08:31:59Z</time>
      </trkpt>
      <trkpt lat="45.7912" lon="6.96911">
        <ele>1554</ele>
        <time>2022-08-27T08:32:00Z</time>
      </trkpt>
      <trkpt lat="45.79123" lon="6.96917">
        <ele>1555</ele>
        <time>2022-08-27T08:32:01Z</time>
      </trkpt>
      <trkpt lat="45.79125" lon="6.96923">
        <ele>1555</ele>
        <time>2022-08-27T08:32:02Z</time>
      </trkpt>
      <trkpt lat="45.79127" lon="6.96928">
        <ele>1555</ele>
        <time>2022-08-27T08:32:04Z</time>
      </trkpt>
      <trkpt lat="45.7913" lon="6.96934">
        <ele>1555</ele>
        <time>2022-08-27T08:32:05Z</time>
      </trkpt>
      <trkpt lat="45.79132" lon="6.9694">
        <ele>1555</ele>
        <time>2022-08-27T08:32:06Z</time>
      </trkpt>
      <trkpt lat="45.79134" lon="6.96946">
        <ele>1555</ele>
        <time>2022-08-27T08:32:08Z</time>
      </trkpt>
      <trkpt lat="45.79137" lon="6.96952">
        <ele>1555</ele>
        <time>2022-08-27T08:32:09Z</time>
      </trkpt>
      <trkpt lat="45.79139" lon="6.96958">
        <ele>1555</ele>
        <time>2022-08-27T08:32:10Z</time>
      </trkpt>
      <trkpt lat="45.79141" lon="6.96963">
        <ele>1555</ele>
        <time>2022-08-27T08:32:11Z</time>
      </trkpt>
      <trkpt lat="45.79144" lon="6.96973">
        <ele>1555</ele>
        <time>2022-08-27T08:32:13Z</time>
      </trkpt>
      <trkpt lat="45.79142" lon="6.96977">
        <ele>1555</ele>
        <time>2022-08-27T08:32:16Z</time>
      </trkpt>
      <trkpt lat="45.79141" lon="6.96981">
        <ele>1555</ele>
        <time>2022-08-27T08:32:18Z</time>
      </trkpt>
      <trkpt lat="45.79139" lon="6.96985">
        <ele>1556</ele>
        <time>2022-08-27T08:32:19Z</time>
      </trkpt>
      <trkpt lat="45.79128" lon="6.96983">
        <ele>1556</ele>
        <time>2022-08-27T08:32:23Z</time>
      </trkpt>
      <trkpt lat="45.79126" lon="6.96984">
        <ele>1556</ele>
        <time>2022-08-27T08:32:24Z</time>
      </trkpt>
      <trkpt lat="45.79124" lon="6.96984">
        <ele>1556</ele>
        <time>2022-08-27T08:32:25Z</time>
      </trkpt>
      <trkpt lat="45.79122" lon="6.96984">
        <ele>1557</ele>
        <time>2022-08-27T08:32:26Z</time>
      </trkpt>
      <trkpt lat="45.7912" lon="6.96985">
        <ele>1557</ele>
        <time>2022-08-27T08:32:28Z</time>
      </trkpt>
      <trkpt lat="45.79118" lon="6.96985">
        <ele>1557</ele>
        <time>2022-08-27T08:32:29Z</time>
      </trkpt>
      <trkpt lat="45.79115" lon="6.96985">
        <ele>1557</ele>
        <time>2022-08-27T08:32:30Z</time>
      </trkpt>
      <trkpt lat="45.79113" lon="6.96986">
        <ele>1557</ele>
        <time>2022-08-27T08:32:31Z</time>
      </trkpt>
      <trkpt lat="45.79111" lon="6.96986">
        <ele>1558</ele>
        <time>2022-08-27T08:32:33Z</time>
      </trkpt>
      <trkpt lat="45.79109" lon="6.96987">
        <ele>1558</ele>
        <time>2022-08-27T08:32:34Z</time>
      </trkpt>
      <trkpt lat="45.79108" lon="6.96988">
        <ele>1558</ele>
        <time>2022-08-27T08:32:35Z</time>
      </trkpt>
      <trkpt lat="45.79107" lon="6.96989">
        <ele>1559</ele>
        <time>2022-08-27T08:32:36Z</time>
      </trkpt>
      <trkpt lat="45.79106" lon="6.9699">
        <ele>1559</ele>
        <time>2022-08-27T08:32:38Z</time>
      </trkpt>
      <trkpt lat="45.79105" lon="6.96992">
        <ele>1559</ele>
        <time>2022-08-27T08:32:39Z</time>
      </trkpt>
      <trkpt lat="45.79104" lon="6.96993">
        <ele>1559</ele>
        <time>2022-08-27T08:32:40Z</time>
      </trkpt>
      <trkpt lat="45.79103" lon="6.96994">
        <ele>1559</ele>
        <time>2022-08-27T08:32:41Z</time>
      </trkpt>
      <trkpt lat="45.79102" lon="6.96995">
        <ele>1559</ele>
        <time>2022-08-27T08:32:42Z</time>
      </trkpt>
      <trkpt lat="45.79101" lon="6.96996">
        <ele>1559</ele>
        <time>2022-08-27T08:32:43Z</time>
      </trkpt>
      <trkpt lat="45.791" lon="6.97012">
        <ele>1560</ele>
        <time>2022-08-27T08:32:50Z</time>
      </trkpt>
      <trkpt lat="45.79095" lon="6.97024">
        <ele>1560</ele>
        <time>2022-08-27T08:33:01Z</time>
      </trkpt>
      <trkpt lat="45.79094" lon="6.97026">
        <ele>1560</ele>
        <time>2022-08-27T08:33:02Z</time>
      </trkpt>
      <trkpt lat="45.79093" lon="6.97029">
        <ele>1560</ele>
        <time>2022-08-27T08:33:03Z</time>
      </trkpt>
      <trkpt lat="45.79093" lon="6.97031">
        <ele>1560</ele>
        <time>2022-08-27T08:33:04Z</time>
      </trkpt>
      <trkpt lat="45.79092" lon="6.97034">
        <ele>1560</ele>
        <time>2022-08-27T08:33:05Z</time>
      </trkpt>
      <trkpt lat="45.79091" lon="6.97036">
        <ele>1560</ele>
        <time>2022-08-27T08:33:06Z</time>
      </trkpt>
      <trkpt lat="45.79082" lon="6.97042">
        <ele>1560</ele>
        <time>2022-08-27T08:33:11Z</time>
      </trkpt>
      <trkpt lat="45.7908" lon="6.97042">
        <ele>1560</ele>
        <time>2022-08-27T08:33:12Z</time>
      </trkpt>
      <trkpt lat="45.79078" lon="6.97043">
        <ele>1560</ele>
        <time>2022-08-27T08:33:13Z</time>
      </trkpt>
      <trkpt lat="45.79076" lon="6.97043">
        <ele>1560</ele>
        <time>2022-08-27T08:33:14Z</time>
      </trkpt>
      <trkpt lat="45.79074" lon="6.97043">
        <ele>1560</ele>
        <time>2022-08-27T08:33:15Z</time>
      </trkpt>
      <trkpt lat="45.79073" lon="6.97044">
        <ele>1560</ele>
        <time>2022-08-27T08:33:16Z</time>
      </trkpt>
      <trkpt lat="45.7907" lon="6.97043">
        <ele>1560</ele>
        <time>2022-08-27T08:33:17Z</time>
      </trkpt>
      <trkpt lat="45.79067" lon="6.97043">
        <ele>1560</ele>
        <time>2022-08-27T08:33:18Z</time>
      </trkpt>
      <trkpt lat="45.79064" lon="6.97042">
        <ele>1560</ele>
        <time>2022-08-27T08:33:19Z</time>
      </trkpt>
      <trkpt lat="45.79061" lon="6.97042">
        <ele>1561</ele>
        <time>2022-08-27T08:33:21Z</time>
      </trkpt>
      <trkpt lat="45.79059" lon="6.97043">
        <ele>1561</ele>
        <time>2022-08-27T08:33:23Z</time>
      </trkpt>
      <trkpt lat="45.79057" lon="6.97043">
        <ele>1561</ele>
        <time>2022-08-27T08:33:24Z</time>
      </trkpt>
      <trkpt lat="45.79054" lon="6.97043">
        <ele>1561</ele>
        <time>2022-08-27T08:33:25Z</time>
      </trkpt>
      <trkpt lat="45.79053" lon="6.97045">
        <ele>1561</ele>
        <time>2022-08-27T08:33:26Z</time>
      </trkpt>
      <trkpt lat="45.79052" lon="6.97047">
        <ele>1560</ele>
        <time>2022-08-27T08:33:28Z</time>
      </trkpt>
      <trkpt lat="45.79052" lon="6.97048">
        <ele>1560</ele>
        <time>2022-08-27T08:33:30Z</time>
      </trkpt>
      <trkpt lat="45.79051" lon="6.9705">
        <ele>1560</ele>
        <time>2022-08-27T08:33:32Z</time>
      </trkpt>
      <trkpt lat="45.7905" lon="6.97052">
        <ele>1560</ele>
        <time>2022-08-27T08:33:33Z</time>
      </trkpt>
      <trkpt lat="45.79049" lon="6.97054">
        <ele>1561</ele>
        <time>2022-08-27T08:33:34Z</time>
      </trkpt>
      <trkpt lat="45.79049" lon="6.97056">
        <ele>1561</ele>
        <time>2022-08-27T08:33:35Z</time>
      </trkpt>
      <trkpt lat="45.79049" lon="6.97059">
        <ele>1561</ele>
        <time>2022-08-27T08:33:37Z</time>
      </trkpt>
      <trkpt lat="45.79049" lon="6.97062">
        <ele>1561</ele>
        <time>2022-08-27T08:33:38Z</time>
      </trkpt>
      <trkpt lat="45.7905" lon="6.97064">
        <ele>1561</ele>
        <time>2022-08-27T08:33:39Z</time>
      </trkpt>
      <trkpt lat="45.7905" lon="6.97067">
        <ele>1561</ele>
        <time>2022-08-27T08:33:40Z</time>
      </trkpt>
      <trkpt lat="45.79046" lon="6.97079">
        <ele>1561</ele>
        <time>2022-08-27T08:33:49Z</time>
      </trkpt>
      <trkpt lat="45.79046" lon="6.97079">
        <ele>1561</ele>
        <time>2022-08-27T08:33:50Z</time>
      </trkpt>
      <trkpt lat="45.79047" lon="6.9708">
        <ele>1561</ele>
        <time>2022-08-27T08:33:51Z</time>
      </trkpt>
      <trkpt lat="45.79047" lon="6.9708">
        <ele>1561</ele>
        <time>2022-08-27T08:33:53Z</time>
      </trkpt>
      <trkpt lat="45.79047" lon="6.97081">
        <ele>1561</ele>
        <time>2022-08-27T08:33:54Z</time>
      </trkpt>
      <trkpt lat="45.79048" lon="6.97081">
        <ele>1561</ele>
        <time>2022-08-27T08:33:55Z</time>
      </trkpt>
      <trkpt lat="45.79048" lon="6.97082">
        <ele>1561</ele>
        <time>2022-08-27T08:33:56Z</time>
      </trkpt>
      <trkpt lat="45.79049" lon="6.97082">
        <ele>1561</ele>
        <time>2022-08-27T08:33:58Z</time>
      </trkpt>
      <trkpt lat="45.79049" lon="6.97083">
        <ele>1561</ele>
        <time>2022-08-27T08:33:59Z</time>
      </trkpt>
      <trkpt lat="45.7905" lon="6.97083">
        <ele>1561</ele>
        <time>2022-08-27T08:34:00Z</time>
      </trkpt>
      <trkpt lat="45.7905" lon="6.97084">
        <ele>1561</ele>
        <time>2022-08-27T08:34:01Z</time>
      </trkpt>
      <trkpt lat="45.79051" lon="6.97084">
        <ele>1562</ele>
        <time>2022-08-27T08:34:03Z</time>
      </trkpt>
      <trkpt lat="45.79051" lon="6.97084">
        <ele>1562</ele>
        <time>2022-08-27T08:34:04Z</time>
      </trkpt>
      <trkpt lat="45.79052" lon="6.97085">
        <ele>1562</ele>
        <time>2022-08-27T08:34:05Z</time>
      </trkpt>
      <trkpt lat="45.79052" lon="6.97085">
        <ele>1562</ele>
        <time>2022-08-27T08:34:06Z</time>
      </trkpt>
      <trkpt lat="45.79052" lon="6.97086">
        <ele>1561</ele>
        <time>2022-08-27T08:34:08Z</time>
      </trkpt>
      <trkpt lat="45.79053" lon="6.97086">
        <ele>1562</ele>
        <time>2022-08-27T08:34:10Z</time>
      </trkpt>
      <trkpt lat="45.79053" lon="6.97087">
        <ele>1562</ele>
        <time>2022-08-27T08:34:11Z</time>
      </trkpt>
      <trkpt lat="45.79054" lon="6.97087">
        <ele>1562</ele>
        <time>2022-08-27T08:34:12Z</time>
      </trkpt>
      <trkpt lat="45.79054" lon="6.97088">
        <ele>1562</ele>
        <time>2022-08-27T08:34:13Z</time>
      </trkpt>
      <trkpt lat="45.79055" lon="6.97088">
        <ele>1562</ele>
        <time>2022-08-27T08:34:14Z</time>
      </trkpt>
      <trkpt lat="45.79055" lon="6.97089">
        <ele>1562</ele>
        <time>2022-08-27T08:34:15Z</time>
      </trkpt>
      <trkpt lat="45.79064" lon="6.97096">
        <ele>1564</ele>
        <time>2022-08-27T08:34:25Z</time>
      </trkpt>
      <trkpt lat="45.79078" lon="6.97113">
        <ele>1564</ele>
        <time>2022-08-27T08:34:26Z</time>
      </trkpt>
      <trkpt lat="45.7908" lon="6.97115">
        <ele>1564</ele>
        <time>2022-08-27T08:34:27Z</time>
      </trkpt>
      <trkpt lat="45.79084" lon="6.9712">
        <ele>1564</ele>
        <time>2022-08-27T08:34:28Z</time>
      </trkpt>
      <trkpt lat="45.79087" lon="6.97125">
        <ele>1564</ele>
        <time>2022-08-27T08:34:29Z</time>
      </trkpt>
      <trkpt lat="45.7909" lon="6.97129">
        <ele>1564</ele>
        <time>2022-08-27T08:34:30Z</time>
      </trkpt>
      <trkpt lat="45.79102" lon="6.97147">
        <ele>1564</ele>
        <time>2022-08-27T08:34:32Z</time>
      </trkpt>
      <trkpt lat="45.79108" lon="6.97159">
        <ele>1564</ele>
        <time>2022-08-27T08:34:34Z</time>
      </trkpt>
      <trkpt lat="45.79102" lon="6.97169">
        <ele>1565</ele>
        <time>2022-08-27T08:34:41Z</time>
      </trkpt>
      <trkpt lat="45.79103" lon="6.97172">
        <ele>1565</ele>
        <time>2022-08-27T08:34:42Z</time>
      </trkpt>
      <trkpt lat="45.79104" lon="6.97174">
        <ele>1565</ele>
        <time>2022-08-27T08:34:43Z</time>
      </trkpt>
      <trkpt lat="45.79105" lon="6.97176">
        <ele>1565</ele>
        <time>2022-08-27T08:34:44Z</time>
      </trkpt>
      <trkpt lat="45.79106" lon="6.97178">
        <ele>1565</ele>
        <time>2022-08-27T08:34:45Z</time>
      </trkpt>
      <trkpt lat="45.79107" lon="6.97181">
        <ele>1565</ele>
        <time>2022-08-27T08:34:46Z</time>
      </trkpt>
      <trkpt lat="45.79098" lon="6.97183">
        <ele>1565</ele>
        <time>2022-08-27T08:34:48Z</time>
      </trkpt>
      <trkpt lat="45.79096" lon="6.97184">
        <ele>1565</ele>
        <time>2022-08-27T08:34:50Z</time>
      </trkpt>
      <trkpt lat="45.79093" lon="6.97186">
        <ele>1565</ele>
        <time>2022-08-27T08:34:51Z</time>
      </trkpt>
      <trkpt lat="45.79091" lon="6.97188">
        <ele>1565</ele>
        <time>2022-08-27T08:34:53Z</time>
      </trkpt>
      <trkpt lat="45.79089" lon="6.9719">
        <ele>1566</ele>
        <time>2022-08-27T08:34:54Z</time>
      </trkpt>
      <trkpt lat="45.79087" lon="6.97191">
        <ele>1566</ele>
        <time>2022-08-27T08:34:55Z</time>
      </trkpt>
      <trkpt lat="45.79086" lon="6.97193">
        <ele>1566</ele>
        <time>2022-08-27T08:34:56Z</time>
      </trkpt>
      <trkpt lat="45.79084" lon="6.97194">
        <ele>1566</ele>
        <time>2022-08-27T08:34:58Z</time>
      </trkpt>
      <trkpt lat="45.79083" lon="6.97195">
        <ele>1567</ele>
        <time>2022-08-27T08:34:59Z</time>
      </trkpt>
      <trkpt lat="45.79081" lon="6.97197">
        <ele>1567</ele>
        <time>2022-08-27T08:35:00Z</time>
      </trkpt>
      <trkpt lat="45.7908" lon="6.97198">
        <ele>1567</ele>
        <time>2022-08-27T08:35:01Z</time>
      </trkpt>
      <trkpt lat="45.79077" lon="6.97199">
        <ele>1567</ele>
        <time>2022-08-27T08:35:02Z</time>
      </trkpt>
      <trkpt lat="45.79075" lon="6.972">
        <ele>1567</ele>
        <time>2022-08-27T08:35:03Z</time>
      </trkpt>
      <trkpt lat="45.79072" lon="6.97201">
        <ele>1567</ele>
        <time>2022-08-27T08:35:05Z</time>
      </trkpt>
      <trkpt lat="45.7907" lon="6.97202">
        <ele>1567</ele>
        <time>2022-08-27T08:35:06Z</time>
      </trkpt>
      <trkpt lat="45.79068" lon="6.97203">
        <ele>1567</ele>
        <time>2022-08-27T08:35:07Z</time>
      </trkpt>
      <trkpt lat="45.79066" lon="6.97203">
        <ele>1567</ele>
        <time>2022-08-27T08:35:09Z</time>
      </trkpt>
      <trkpt lat="45.79065" lon="6.97204">
        <ele>1568</ele>
        <time>2022-08-27T08:35:10Z</time>
      </trkpt>
      <trkpt lat="45.79058" lon="6.97206">
        <ele>1568</ele>
        <time>2022-08-27T08:35:11Z</time>
      </trkpt>
      <trkpt lat="45.79057" lon="6.97206">
        <ele>1568</ele>
        <time>2022-08-27T08:35:12Z</time>
      </trkpt>
      <trkpt lat="45.79055" lon="6.97207">
        <ele>1568</ele>
        <time>2022-08-27T08:35:14Z</time>
      </trkpt>
      <trkpt lat="45.79054" lon="6.97207">
        <ele>1568</ele>
        <time>2022-08-27T08:35:15Z</time>
      </trkpt>
      <trkpt lat="45.79049" lon="6.97209">
        <ele>1568</ele>
        <time>2022-08-27T08:35:16Z</time>
      </trkpt>
      <trkpt lat="45.7904" lon="6.97208">
        <ele>1568</ele>
        <time>2022-08-27T08:35:19Z</time>
      </trkpt>
      <trkpt lat="45.7904" lon="6.9721">
        <ele>1568</ele>
        <time>2022-08-27T08:35:20Z</time>
      </trkpt>
      <trkpt lat="45.79039" lon="6.97211">
        <ele>1568</ele>
        <time>2022-08-27T08:35:21Z</time>
      </trkpt>
      <trkpt lat="45.79039" lon="6.97212">
        <ele>1568</ele>
        <time>2022-08-27T08:35:22Z</time>
      </trkpt>
      <trkpt lat="45.79038" lon="6.97213">
        <ele>1568</ele>
        <time>2022-08-27T08:35:24Z</time>
      </trkpt>
      <trkpt lat="45.79038" lon="6.97215">
        <ele>1568</ele>
        <time>2022-08-27T08:35:26Z</time>
      </trkpt>
      <trkpt lat="45.79038" lon="6.97216">
        <ele>1568</ele>
        <time>2022-08-27T08:35:27Z</time>
      </trkpt>
      <trkpt lat="45.79037" lon="6.97217">
        <ele>1568</ele>
        <time>2022-08-27T08:35:28Z</time>
      </trkpt>
      <trkpt lat="45.79037" lon="6.97219">
        <ele>1568</ele>
        <time>2022-08-27T08:35:29Z</time>
      </trkpt>
      <trkpt lat="45.79036" lon="6.9722">
        <ele>1569</ele>
        <time>2022-08-27T08:35:31Z</time>
      </trkpt>
      <trkpt lat="45.79036" lon="6.97221">
        <ele>1569</ele>
        <time>2022-08-27T08:35:32Z</time>
      </trkpt>
      <trkpt lat="45.79035" lon="6.97222">
        <ele>1569</ele>
        <time>2022-08-27T08:35:33Z</time>
      </trkpt>
      <trkpt lat="45.79034" lon="6.97222">
        <ele>1569</ele>
        <time>2022-08-27T08:35:34Z</time>
      </trkpt>
      <trkpt lat="45.79033" lon="6.97222">
        <ele>1570</ele>
        <time>2022-08-27T08:35:35Z</time>
      </trkpt>
      <trkpt lat="45.79033" lon="6.97223">
        <ele>1570</ele>
        <time>2022-08-27T08:35:37Z</time>
      </trkpt>
      <trkpt lat="45.79032" lon="6.97223">
        <ele>1570</ele>
        <time>2022-08-27T08:35:38Z</time>
      </trkpt>
      <trkpt lat="45.79031" lon="6.97224">
        <ele>1570</ele>
        <time>2022-08-27T08:35:39Z</time>
      </trkpt>
      <trkpt lat="45.79025" lon="6.97227">
        <ele>1571</ele>
        <time>2022-08-27T08:35:40Z</time>
      </trkpt>
      <trkpt lat="45.79023" lon="6.97228">
        <ele>1571</ele>
        <time>2022-08-27T08:35:42Z</time>
      </trkpt>
      <trkpt lat="45.79022" lon="6.97228">
        <ele>1570</ele>
        <time>2022-08-27T08:35:43Z</time>
      </trkpt>
      <trkpt lat="45.79021" lon="6.97229">
        <ele>1571</ele>
        <time>2022-08-27T08:35:44Z</time>
      </trkpt>
      <trkpt lat="45.7902" lon="6.9723">
        <ele>1571</ele>
        <time>2022-08-27T08:35:45Z</time>
      </trkpt>
      <trkpt lat="45.79018" lon="6.9723">
        <ele>1571</ele>
        <time>2022-08-27T08:35:46Z</time>
      </trkpt>
      <trkpt lat="45.79017" lon="6.97231">
        <ele>1571</ele>
        <time>2022-08-27T08:35:47Z</time>
      </trkpt>
      <trkpt lat="45.79014" lon="6.9723">
        <ele>1571</ele>
        <time>2022-08-27T08:35:48Z</time>
      </trkpt>
      <trkpt lat="45.79011" lon="6.97228">
        <ele>1572</ele>
        <time>2022-08-27T08:35:49Z</time>
      </trkpt>
      <trkpt lat="45.79008" lon="6.97227">
        <ele>1572</ele>
        <time>2022-08-27T08:35:50Z</time>
      </trkpt>
      <trkpt lat="45.79008" lon="6.97229">
        <ele>1572</ele>
        <time>2022-08-27T08:35:52Z</time>
      </trkpt>
      <trkpt lat="45.79007" lon="6.9723">
        <ele>1572</ele>
        <time>2022-08-27T08:35:53Z</time>
      </trkpt>
      <trkpt lat="45.79007" lon="6.97232">
        <ele>1572</ele>
        <time>2022-08-27T08:35:54Z</time>
      </trkpt>
      <trkpt lat="45.79006" lon="6.97234">
        <ele>1573</ele>
        <time>2022-08-27T08:35:55Z</time>
      </trkpt>
      <trkpt lat="45.79006" lon="6.97236">
        <ele>1573</ele>
        <time>2022-08-27T08:35:57Z</time>
      </trkpt>
      <trkpt lat="45.79005" lon="6.97237">
        <ele>1573</ele>
        <time>2022-08-27T08:35:58Z</time>
      </trkpt>
      <trkpt lat="45.79004" lon="6.97239">
        <ele>1574</ele>
        <time>2022-08-27T08:35:59Z</time>
      </trkpt>
      <trkpt lat="45.79004" lon="6.97241">
        <ele>1574</ele>
        <time>2022-08-27T08:36:00Z</time>
      </trkpt>
      <trkpt lat="45.79004" lon="6.97243">
        <ele>1574</ele>
        <time>2022-08-27T08:36:02Z</time>
      </trkpt>
      <trkpt lat="45.79003" lon="6.97244">
        <ele>1574</ele>
        <time>2022-08-27T08:36:04Z</time>
      </trkpt>
      <trkpt lat="45.79003" lon="6.97246">
        <ele>1575</ele>
        <time>2022-08-27T08:36:05Z</time>
      </trkpt>
      <trkpt lat="45.79002" lon="6.97248">
        <ele>1575</ele>
        <time>2022-08-27T08:36:06Z</time>
      </trkpt>
      <trkpt lat="45.79002" lon="6.9725">
        <ele>1575</ele>
        <time>2022-08-27T08:36:07Z</time>
      </trkpt>
      <trkpt lat="45.79001" lon="6.97252">
        <ele>1576</ele>
        <time>2022-08-27T08:36:08Z</time>
      </trkpt>
      <trkpt lat="45.79" lon="6.97251">
        <ele>1576</ele>
        <time>2022-08-27T08:36:09Z</time>
      </trkpt>
      <trkpt lat="45.78998" lon="6.9725">
        <ele>1576</ele>
        <time>2022-08-27T08:36:10Z</time>
      </trkpt>
      <trkpt lat="45.78997" lon="6.97249">
        <ele>1576</ele>
        <time>2022-08-27T08:36:11Z</time>
      </trkpt>
      <trkpt lat="45.78995" lon="6.97249">
        <ele>1577</ele>
        <time>2022-08-27T08:36:13Z</time>
      </trkpt>
      <trkpt lat="45.78994" lon="6.97248">
        <ele>1577</ele>
        <time>2022-08-27T08:36:14Z</time>
      </trkpt>
      <trkpt lat="45.78992" lon="6.97247">
        <ele>1577</ele>
        <time>2022-08-27T08:36:15Z</time>
      </trkpt>
      <trkpt lat="45.78993" lon="6.97248">
        <ele>1577</ele>
        <time>2022-08-27T08:36:16Z</time>
      </trkpt>
      <trkpt lat="45.78993" lon="6.97249">
        <ele>1577</ele>
        <time>2022-08-27T08:36:17Z</time>
      </trkpt>
      <trkpt lat="45.78993" lon="6.9725">
        <ele>1577</ele>
        <time>2022-08-27T08:36:18Z</time>
      </trkpt>
      <trkpt lat="45.78994" lon="6.97251">
        <ele>1577</ele>
        <time>2022-08-27T08:36:20Z</time>
      </trkpt>
      <trkpt lat="45.78994" lon="6.97252">
        <ele>1577</ele>
        <time>2022-08-27T08:36:21Z</time>
      </trkpt>
      <trkpt lat="45.78995" lon="6.97253">
        <ele>1577</ele>
        <time>2022-08-27T08:36:22Z</time>
      </trkpt>
      <trkpt lat="45.78995" lon="6.97254">
        <ele>1577</ele>
        <time>2022-08-27T08:36:23Z</time>
      </trkpt>
      <trkpt lat="45.78995" lon="6.97255">
        <ele>1577</ele>
        <time>2022-08-27T08:36:25Z</time>
      </trkpt>
      <trkpt lat="45.78996" lon="6.97256">
        <ele>1578</ele>
        <time>2022-08-27T08:36:26Z</time>
      </trkpt>
      <trkpt lat="45.78996" lon="6.97257">
        <ele>1578</ele>
        <time>2022-08-27T08:36:27Z</time>
      </trkpt>
      <trkpt lat="45.78997" lon="6.97258">
        <ele>1578</ele>
        <time>2022-08-27T08:36:28Z</time>
      </trkpt>
      <trkpt lat="45.79008" lon="6.9727">
        <ele>1578</ele>
        <time>2022-08-27T08:36:30Z</time>
      </trkpt>
      <trkpt lat="45.79009" lon="6.97272">
        <ele>1578</ele>
        <time>2022-08-27T08:36:31Z</time>
      </trkpt>
      <trkpt lat="45.79009" lon="6.97273">
        <ele>1579</ele>
        <time>2022-08-27T08:36:32Z</time>
      </trkpt>
      <trkpt lat="45.7901" lon="6.97275">
        <ele>1579</ele>
        <time>2022-08-27T08:36:33Z</time>
      </trkpt>
      <trkpt lat="45.79012" lon="6.97288">
        <ele>1579</ele>
        <time>2022-08-27T08:36:35Z</time>
      </trkpt>
      <trkpt lat="45.79011" lon="6.97291">
        <ele>1580</ele>
        <time>2022-08-27T08:36:37Z</time>
      </trkpt>
      <trkpt lat="45.79009" lon="6.97295">
        <ele>1581</ele>
        <time>2022-08-27T08:36:38Z</time>
      </trkpt>
      <trkpt lat="45.79005" lon="6.97298">
        <ele>1581</ele>
        <time>2022-08-27T08:36:40Z</time>
      </trkpt>
      <trkpt lat="45.79001" lon="6.97302">
        <ele>1581</ele>
        <time>2022-08-27T08:36:41Z</time>
      </trkpt>
      <trkpt lat="45.79001" lon="6.97302">
        <ele>1580</ele>
        <time>2022-08-27T08:36:42Z</time>
      </trkpt>
      <trkpt lat="45.79" lon="6.97303">
        <ele>1581</ele>
        <time>2022-08-27T08:36:44Z</time>
      </trkpt>
      <trkpt lat="45.79" lon="6.97303">
        <ele>1581</ele>
        <time>2022-08-27T08:36:45Z</time>
      </trkpt>
      <trkpt lat="45.78999" lon="6.97304">
        <ele>1581</ele>
        <time>2022-08-27T08:36:46Z</time>
      </trkpt>
      <trkpt lat="45.78999" lon="6.97305">
        <ele>1581</ele>
        <time>2022-08-27T08:36:47Z</time>
      </trkpt>
      <trkpt lat="45.78994" lon="6.97312">
        <ele>1582</ele>
        <time>2022-08-27T08:36:49Z</time>
      </trkpt>
      <trkpt lat="45.78994" lon="6.97314">
        <ele>1582</ele>
        <time>2022-08-27T08:36:50Z</time>
      </trkpt>
      <trkpt lat="45.78995" lon="6.97316">
        <ele>1582</ele>
        <time>2022-08-27T08:36:51Z</time>
      </trkpt>
      <trkpt lat="45.78996" lon="6.97318">
        <ele>1582</ele>
        <time>2022-08-27T08:36:52Z</time>
      </trkpt>
      <trkpt lat="45.78996" lon="6.9732">
        <ele>1582</ele>
        <time>2022-08-27T08:36:54Z</time>
      </trkpt>
      <trkpt lat="45.78997" lon="6.97322">
        <ele>1582</ele>
        <time>2022-08-27T08:36:55Z</time>
      </trkpt>
      <trkpt lat="45.78997" lon="6.97323">
        <ele>1581</ele>
        <time>2022-08-27T08:36:56Z</time>
      </trkpt>
      <trkpt lat="45.78997" lon="6.97325">
        <ele>1581</ele>
        <time>2022-08-27T08:36:57Z</time>
      </trkpt>
      <trkpt lat="45.78997" lon="6.97327">
        <ele>1581</ele>
        <time>2022-08-27T08:36:59Z</time>
      </trkpt>
      <trkpt lat="45.78996" lon="6.97329">
        <ele>1581</ele>
        <time>2022-08-27T08:37:01Z</time>
      </trkpt>
      <trkpt lat="45.78996" lon="6.97331">
        <ele>1581</ele>
        <time>2022-08-27T08:37:02Z</time>
      </trkpt>
      <trkpt lat="45.78996" lon="6.97333">
        <ele>1581</ele>
        <time>2022-08-27T08:37:03Z</time>
      </trkpt>
      <trkpt lat="45.78996" lon="6.97334">
        <ele>1581</ele>
        <time>2022-08-27T08:37:04Z</time>
      </trkpt>
      <trkpt lat="45.78996" lon="6.97336">
        <ele>1581</ele>
        <time>2022-08-27T08:37:05Z</time>
      </trkpt>
      <trkpt lat="45.78995" lon="6.97338">
        <ele>1582</ele>
        <time>2022-08-27T08:37:06Z</time>
      </trkpt>
      <trkpt lat="45.78996" lon="6.97341">
        <ele>1582</ele>
        <time>2022-08-27T08:37:08Z</time>
      </trkpt>
      <trkpt lat="45.78996" lon="6.97343">
        <ele>1582</ele>
        <time>2022-08-27T08:37:09Z</time>
      </trkpt>
      <trkpt lat="45.78996" lon="6.97345">
        <ele>1582</ele>
        <time>2022-08-27T08:37:10Z</time>
      </trkpt>
      <trkpt lat="45.78996" lon="6.97348">
        <ele>1582</ele>
        <time>2022-08-27T08:37:11Z</time>
      </trkpt>
      <trkpt lat="45.78996" lon="6.9735">
        <ele>1582</ele>
        <time>2022-08-27T08:37:12Z</time>
      </trkpt>
      <trkpt lat="45.78997" lon="6.97352">
        <ele>1582</ele>
        <time>2022-08-27T08:37:13Z</time>
      </trkpt>
      <trkpt lat="45.78987" lon="6.97358">
        <ele>1583</ele>
        <time>2022-08-27T08:37:18Z</time>
      </trkpt>
      <trkpt lat="45.78985" lon="6.97357">
        <ele>1583</ele>
        <time>2022-08-27T08:37:19Z</time>
      </trkpt>
      <trkpt lat="45.78983" lon="6.97355">
        <ele>1583</ele>
        <time>2022-08-27T08:37:20Z</time>
      </trkpt>
      <trkpt lat="45.78981" lon="6.97354">
        <ele>1583</ele>
        <time>2022-08-27T08:37:22Z</time>
      </trkpt>
      <trkpt lat="45.78979" lon="6.97353">
        <ele>1583</ele>
        <time>2022-08-27T08:37:23Z</time>
      </trkpt>
      <trkpt lat="45.78983" lon="6.97374">
        <ele>1583</ele>
        <time>2022-08-27T08:37:39Z</time>
      </trkpt>
      <trkpt lat="45.78985" lon="6.97388">
        <ele>1582</ele>
        <time>2022-08-27T08:37:41Z</time>
      </trkpt>
      <trkpt lat="45.78988" lon="6.97392">
        <ele>1583</ele>
        <time>2022-08-27T08:37:43Z</time>
      </trkpt>
      <trkpt lat="45.78991" lon="6.97395">
        <ele>1583</ele>
        <time>2022-08-27T08:37:44Z</time>
      </trkpt>
      <trkpt lat="45.78993" lon="6.97399">
        <ele>1583</ele>
        <time>2022-08-27T08:37:45Z</time>
      </trkpt>
      <trkpt lat="45.78993" lon="6.974">
        <ele>1583</ele>
        <time>2022-08-27T08:37:46Z</time>
      </trkpt>
      <trkpt lat="45.78993" lon="6.97402">
        <ele>1583</ele>
        <time>2022-08-27T08:37:47Z</time>
      </trkpt>
      <trkpt lat="45.78993" lon="6.97403">
        <ele>1583</ele>
        <time>2022-08-27T08:37:48Z</time>
      </trkpt>
      <trkpt lat="45.78993" lon="6.97405">
        <ele>1583</ele>
        <time>2022-08-27T08:37:50Z</time>
      </trkpt>
      <trkpt lat="45.78993" lon="6.97406">
        <ele>1583</ele>
        <time>2022-08-27T08:37:51Z</time>
      </trkpt>
      <trkpt lat="45.78993" lon="6.97408">
        <ele>1583</ele>
        <time>2022-08-27T08:37:52Z</time>
      </trkpt>
      <trkpt lat="45.78993" lon="6.97409">
        <ele>1584</ele>
        <time>2022-08-27T08:37:53Z</time>
      </trkpt>
      <trkpt lat="45.78993" lon="6.97411">
        <ele>1584</ele>
        <time>2022-08-27T08:37:55Z</time>
      </trkpt>
      <trkpt lat="45.78994" lon="6.97412">
        <ele>1585</ele>
        <time>2022-08-27T08:37:56Z</time>
      </trkpt>
      <trkpt lat="45.78992" lon="6.97412">
        <ele>1585</ele>
        <time>2022-08-27T08:37:58Z</time>
      </trkpt>
      <trkpt lat="45.78991" lon="6.97412">
        <ele>1585</ele>
        <time>2022-08-27T08:38:00Z</time>
      </trkpt>
      <trkpt lat="45.7899" lon="6.97412">
        <ele>1585</ele>
        <time>2022-08-27T08:38:01Z</time>
      </trkpt>
      <trkpt lat="45.78988" lon="6.97413">
        <ele>1585</ele>
        <time>2022-08-27T08:38:02Z</time>
      </trkpt>
      <trkpt lat="45.78987" lon="6.97413">
        <ele>1585</ele>
        <time>2022-08-27T08:38:03Z</time>
      </trkpt>
      <trkpt lat="45.78986" lon="6.97413">
        <ele>1585</ele>
        <time>2022-08-27T08:38:04Z</time>
      </trkpt>
      <trkpt lat="45.78984" lon="6.97413">
        <ele>1585</ele>
        <time>2022-08-27T08:38:05Z</time>
      </trkpt>
      <trkpt lat="45.78983" lon="6.97413">
        <ele>1585</ele>
        <time>2022-08-27T08:38:06Z</time>
      </trkpt>
      <trkpt lat="45.78982" lon="6.97413">
        <ele>1585</ele>
        <time>2022-08-27T08:38:07Z</time>
      </trkpt>
      <trkpt lat="45.78981" lon="6.97413">
        <ele>1586</ele>
        <time>2022-08-27T08:38:08Z</time>
      </trkpt>
      <trkpt lat="45.7898" lon="6.97413">
        <ele>1586</ele>
        <time>2022-08-27T08:38:10Z</time>
      </trkpt>
      <trkpt lat="45.78979" lon="6.97413">
        <ele>1587</ele>
        <time>2022-08-27T08:38:11Z</time>
      </trkpt>
      <trkpt lat="45.78978" lon="6.97413">
        <ele>1587</ele>
        <time>2022-08-27T08:38:12Z</time>
      </trkpt>
      <trkpt lat="45.78977" lon="6.97413">
        <ele>1588</ele>
        <time>2022-08-27T08:38:13Z</time>
      </trkpt>
      <trkpt lat="45.78976" lon="6.97413">
        <ele>1588</ele>
        <time>2022-08-27T08:38:14Z</time>
      </trkpt>
      <trkpt lat="45.78974" lon="6.97413">
        <ele>1588</ele>
        <time>2022-08-27T08:38:15Z</time>
      </trkpt>
      <trkpt lat="45.78969" lon="6.97412">
        <ele>1592</ele>
        <time>2022-08-27T08:38:27Z</time>
      </trkpt>
      <trkpt lat="45.78963" lon="6.97411">
        <ele>1592</ele>
        <time>2022-08-27T08:38:28Z</time>
      </trkpt>
      <trkpt lat="45.78958" lon="6.9741">
        <ele>1592</ele>
        <time>2022-08-27T08:38:29Z</time>
      </trkpt>
      <trkpt lat="45.78956" lon="6.97409">
        <ele>1592</ele>
        <time>2022-08-27T08:38:30Z</time>
      </trkpt>
      <trkpt lat="45.78954" lon="6.97407">
        <ele>1592</ele>
        <time>2022-08-27T08:38:31Z</time>
      </trkpt>
      <trkpt lat="45.78944" lon="6.97394">
        <ele>1593</ele>
        <time>2022-08-27T08:38:33Z</time>
      </trkpt>
      <trkpt lat="45.7894" lon="6.97389">
        <ele>1593</ele>
        <time>2022-08-27T08:38:34Z</time>
      </trkpt>
      <trkpt lat="45.78932" lon="6.97378">
        <ele>1593</ele>
        <time>2022-08-27T08:38:35Z</time>
      </trkpt>
      <trkpt lat="45.78932" lon="6.97378">
        <ele>1598</ele>
        <time>2022-08-27T08:38:56Z</time>
      </trkpt>
      <trkpt lat="45.78925" lon="6.97331">
        <ele>1595</ele>
        <time>2022-08-27T08:39:04Z</time>
      </trkpt>
      <trkpt lat="45.78934" lon="6.97335">
        <ele>1595</ele>
        <time>2022-08-27T08:39:06Z</time>
      </trkpt>
      <trkpt lat="45.78946" lon="6.9734">
        <ele>1595</ele>
        <time>2022-08-27T08:39:08Z</time>
      </trkpt>
      <trkpt lat="45.78953" lon="6.97345">
        <ele>1595</ele>
        <time>2022-08-27T08:39:10Z</time>
      </trkpt>
      <trkpt lat="45.7896" lon="6.97349">
        <ele>1594</ele>
        <time>2022-08-27T08:39:12Z</time>
      </trkpt>
      <trkpt lat="45.78967" lon="6.97354">
        <ele>1594</ele>
        <time>2022-08-27T08:39:13Z</time>
      </trkpt>
      <trkpt lat="45.78973" lon="6.97359">
        <ele>1594</ele>
        <time>2022-08-27T08:39:14Z</time>
      </trkpt>
      <trkpt lat="45.78976" lon="6.97362">
        <ele>1595</ele>
        <time>2022-08-27T08:39:15Z</time>
      </trkpt>
      <trkpt lat="45.7898" lon="6.97365">
        <ele>1595</ele>
        <time>2022-08-27T08:39:16Z</time>
      </trkpt>
      <trkpt lat="45.78996" lon="6.97379">
        <ele>1596</ele>
        <time>2022-08-27T08:39:18Z</time>
      </trkpt>
      <trkpt lat="45.78998" lon="6.97381">
        <ele>1596</ele>
        <time>2022-08-27T08:39:19Z</time>
      </trkpt>
      <trkpt lat="45.79002" lon="6.97384">
        <ele>1596</ele>
        <time>2022-08-27T08:39:20Z</time>
      </trkpt>
      <trkpt lat="45.79014" lon="6.97393">
        <ele>1596</ele>
        <time>2022-08-27T08:39:21Z</time>
      </trkpt>
      <trkpt lat="45.79015" lon="6.97394">
        <ele>1596</ele>
        <time>2022-08-27T08:39:22Z</time>
      </trkpt>
      <trkpt lat="45.79022" lon="6.974">
        <ele>1595</ele>
        <time>2022-08-27T08:39:24Z</time>
      </trkpt>
      <trkpt lat="45.79025" lon="6.97402">
        <ele>1595</ele>
        <time>2022-08-27T08:39:25Z</time>
      </trkpt>
      <trkpt lat="45.79027" lon="6.97404">
        <ele>1595</ele>
        <time>2022-08-27T08:39:26Z</time>
      </trkpt>
      <trkpt lat="45.79035" lon="6.97409">
        <ele>1596</ele>
        <time>2022-08-27T08:39:27Z</time>
      </trkpt>
      <trkpt lat="45.79038" lon="6.97411">
        <ele>1596</ele>
        <time>2022-08-27T08:39:28Z</time>
      </trkpt>
      <trkpt lat="45.79041" lon="6.97413">
        <ele>1596</ele>
        <time>2022-08-27T08:39:29Z</time>
      </trkpt>
      <trkpt lat="45.7905" lon="6.97418">
        <ele>1596</ele>
        <time>2022-08-27T08:39:31Z</time>
      </trkpt>
      <trkpt lat="45.79051" lon="6.97418">
        <ele>1596</ele>
        <time>2022-08-27T08:39:32Z</time>
      </trkpt>
      <trkpt lat="45.79052" lon="6.97418">
        <ele>1596</ele>
        <time>2022-08-27T08:39:33Z</time>
      </trkpt>
      <trkpt lat="45.79054" lon="6.97418">
        <ele>1596</ele>
        <time>2022-08-27T08:39:35Z</time>
      </trkpt>
      <trkpt lat="45.79055" lon="6.97418">
        <ele>1596</ele>
        <time>2022-08-27T08:39:36Z</time>
      </trkpt>
      <trkpt lat="45.79062" lon="6.97419">
        <ele>1596</ele>
        <time>2022-08-27T08:39:37Z</time>
      </trkpt>
      <trkpt lat="45.79063" lon="6.9742">
        <ele>1596</ele>
        <time>2022-08-27T08:39:38Z</time>
      </trkpt>
      <trkpt lat="45.79065" lon="6.9742">
        <ele>1596</ele>
        <time>2022-08-27T08:39:40Z</time>
      </trkpt>
      <trkpt lat="45.79066" lon="6.9742">
        <ele>1596</ele>
        <time>2022-08-27T08:39:41Z</time>
      </trkpt>
      <trkpt lat="45.79072" lon="6.97421">
        <ele>1596</ele>
        <time>2022-08-27T08:39:42Z</time>
      </trkpt>
      <trkpt lat="45.79073" lon="6.9742">
        <ele>1596</ele>
        <time>2022-08-27T08:39:43Z</time>
      </trkpt>
      <trkpt lat="45.79073" lon="6.9742">
        <ele>1596</ele>
        <time>2022-08-27T08:39:45Z</time>
      </trkpt>
      <trkpt lat="45.79074" lon="6.9742">
        <ele>1596</ele>
        <time>2022-08-27T08:39:46Z</time>
      </trkpt>
      <trkpt lat="45.79074" lon="6.97419">
        <ele>1596</ele>
        <time>2022-08-27T08:39:47Z</time>
      </trkpt>
      <trkpt lat="45.79075" lon="6.97419">
        <ele>1597</ele>
        <time>2022-08-27T08:39:48Z</time>
      </trkpt>
      <trkpt lat="45.79084" lon="6.97415">
        <ele>1597</ele>
        <time>2022-08-27T08:39:50Z</time>
      </trkpt>
      <trkpt lat="45.79087" lon="6.97415">
        <ele>1597</ele>
        <time>2022-08-27T08:39:52Z</time>
      </trkpt>
      <trkpt lat="45.79089" lon="6.97416">
        <ele>1597</ele>
        <time>2022-08-27T08:39:53Z</time>
      </trkpt>
      <trkpt lat="45.79092" lon="6.97416">
        <ele>1597</ele>
        <time>2022-08-27T08:39:54Z</time>
      </trkpt>
      <trkpt lat="45.79093" lon="6.97413">
        <ele>1597</ele>
        <time>2022-08-27T08:39:55Z</time>
      </trkpt>
      <trkpt lat="45.79094" lon="6.97411">
        <ele>1597</ele>
        <time>2022-08-27T08:39:56Z</time>
      </trkpt>
      <trkpt lat="45.79095" lon="6.97409">
        <ele>1597</ele>
        <time>2022-08-27T08:39:58Z</time>
      </trkpt>
      <trkpt lat="45.79097" lon="6.97406">
        <ele>1598</ele>
        <time>2022-08-27T08:39:59Z</time>
      </trkpt>
      <trkpt lat="45.79098" lon="6.97404">
        <ele>1598</ele>
        <time>2022-08-27T08:40:00Z</time>
      </trkpt>
      <trkpt lat="45.79099" lon="6.97401">
        <ele>1598</ele>
        <time>2022-08-27T08:40:01Z</time>
      </trkpt>
      <trkpt lat="45.791" lon="6.97397">
        <ele>1598</ele>
        <time>2022-08-27T08:40:03Z</time>
      </trkpt>
      <trkpt lat="45.79101" lon="6.97394">
        <ele>1598</ele>
        <time>2022-08-27T08:40:05Z</time>
      </trkpt>
      <trkpt lat="45.79102" lon="6.97391">
        <ele>1598</ele>
        <time>2022-08-27T08:40:06Z</time>
      </trkpt>
      <trkpt lat="45.79103" lon="6.97391">
        <ele>1598</ele>
        <time>2022-08-27T08:40:08Z</time>
      </trkpt>
      <trkpt lat="45.79104" lon="6.9739">
        <ele>1598</ele>
        <time>2022-08-27T08:40:09Z</time>
      </trkpt>
      <trkpt lat="45.79105" lon="6.9739">
        <ele>1598</ele>
        <time>2022-08-27T08:40:10Z</time>
      </trkpt>
      <trkpt lat="45.79106" lon="6.9739">
        <ele>1598</ele>
        <time>2022-08-27T08:40:11Z</time>
      </trkpt>
      <trkpt lat="45.79107" lon="6.97389">
        <ele>1598</ele>
        <time>2022-08-27T08:40:12Z</time>
      </trkpt>
      <trkpt lat="45.79114" lon="6.97387">
        <ele>1598</ele>
        <time>2022-08-27T08:40:13Z</time>
      </trkpt>
      <trkpt lat="45.79117" lon="6.97386">
        <ele>1598</ele>
        <time>2022-08-27T08:40:14Z</time>
      </trkpt>
      <trkpt lat="45.79119" lon="6.97386">
        <ele>1598</ele>
        <time>2022-08-27T08:40:16Z</time>
      </trkpt>
      <trkpt lat="45.79121" lon="6.97385">
        <ele>1598</ele>
        <time>2022-08-27T08:40:17Z</time>
      </trkpt>
      <trkpt lat="45.79123" lon="6.97385">
        <ele>1598</ele>
        <time>2022-08-27T08:40:18Z</time>
      </trkpt>
      <trkpt lat="45.79125" lon="6.97384">
        <ele>1598</ele>
        <time>2022-08-27T08:40:19Z</time>
      </trkpt>
      <trkpt lat="45.79126" lon="6.97383">
        <ele>1598</ele>
        <time>2022-08-27T08:40:21Z</time>
      </trkpt>
      <trkpt lat="45.79128" lon="6.97383">
        <ele>1598</ele>
        <time>2022-08-27T08:40:22Z</time>
      </trkpt>
      <trkpt lat="45.79129" lon="6.97382">
        <ele>1598</ele>
        <time>2022-08-27T08:40:23Z</time>
      </trkpt>
      <trkpt lat="45.79131" lon="6.97381">
        <ele>1598</ele>
        <time>2022-08-27T08:40:24Z</time>
      </trkpt>
      <trkpt lat="45.79132" lon="6.9738">
        <ele>1598</ele>
        <time>2022-08-27T08:40:25Z</time>
      </trkpt>
      <trkpt lat="45.79134" lon="6.97379">
        <ele>1598</ele>
        <time>2022-08-27T08:40:26Z</time>
      </trkpt>
      <trkpt lat="45.79142" lon="6.97372">
        <ele>1598</ele>
        <time>2022-08-27T08:40:28Z</time>
      </trkpt>
      <trkpt lat="45.79144" lon="6.9737">
        <ele>1598</ele>
        <time>2022-08-27T08:40:29Z</time>
      </trkpt>
      <trkpt lat="45.79146" lon="6.97368">
        <ele>1598</ele>
        <time>2022-08-27T08:40:30Z</time>
      </trkpt>
      <trkpt lat="45.79148" lon="6.97366">
        <ele>1598</ele>
        <time>2022-08-27T08:40:31Z</time>
      </trkpt>
      <trkpt lat="45.7915" lon="6.97365">
        <ele>1598</ele>
        <time>2022-08-27T08:40:32Z</time>
      </trkpt>
      <trkpt lat="45.79152" lon="6.97363">
        <ele>1598</ele>
        <time>2022-08-27T08:40:33Z</time>
      </trkpt>
      <trkpt lat="45.79154" lon="6.97361">
        <ele>1598</ele>
        <time>2022-08-27T08:40:34Z</time>
      </trkpt>
      <trkpt lat="45.79156" lon="6.97359">
        <ele>1598</ele>
        <time>2022-08-27T08:40:35Z</time>
      </trkpt>
      <trkpt lat="45.79159" lon="6.97357">
        <ele>1598</ele>
        <time>2022-08-27T08:40:36Z</time>
      </trkpt>
      <trkpt lat="45.79161" lon="6.97356">
        <ele>1598</ele>
        <time>2022-08-27T08:40:37Z</time>
      </trkpt>
      <trkpt lat="45.79162" lon="6.97354">
        <ele>1598</ele>
        <time>2022-08-27T08:40:38Z</time>
      </trkpt>
      <trkpt lat="45.79164" lon="6.97351">
        <ele>1598</ele>
        <time>2022-08-27T08:40:39Z</time>
      </trkpt>
      <trkpt lat="45.79165" lon="6.97349">
        <ele>1598</ele>
        <time>2022-08-27T08:40:40Z</time>
      </trkpt>
      <trkpt lat="45.79166" lon="6.97347">
        <ele>1599</ele>
        <time>2022-08-27T08:40:42Z</time>
      </trkpt>
      <trkpt lat="45.79168" lon="6.97345">
        <ele>1599</ele>
        <time>2022-08-27T08:40:43Z</time>
      </trkpt>
      <trkpt lat="45.79168" lon="6.97342">
        <ele>1599</ele>
        <time>2022-08-27T08:40:44Z</time>
      </trkpt>
      <trkpt lat="45.79167" lon="6.97338">
        <ele>1599</ele>
        <time>2022-08-27T08:40:45Z</time>
      </trkpt>
      <trkpt lat="45.79167" lon="6.97335">
        <ele>1599</ele>
        <time>2022-08-27T08:40:47Z</time>
      </trkpt>
      <trkpt lat="45.79167" lon="6.97331">
        <ele>1599</ele>
        <time>2022-08-27T08:40:48Z</time>
      </trkpt>
      <trkpt lat="45.79161" lon="6.97319">
        <ele>1599</ele>
        <time>2022-08-27T08:40:51Z</time>
      </trkpt>
      <trkpt lat="45.79157" lon="6.97304">
        <ele>1599</ele>
        <time>2022-08-27T08:40:56Z</time>
      </trkpt>
      <trkpt lat="45.79157" lon="6.97303">
        <ele>1599</ele>
        <time>2022-08-27T08:40:57Z</time>
      </trkpt>
      <trkpt lat="45.79157" lon="6.97302">
        <ele>1599</ele>
        <time>2022-08-27T08:40:58Z</time>
      </trkpt>
      <trkpt lat="45.79157" lon="6.97301">
        <ele>1599</ele>
        <time>2022-08-27T08:40:59Z</time>
      </trkpt>
      <trkpt lat="45.79157" lon="6.973">
        <ele>1599</ele>
        <time>2022-08-27T08:41:00Z</time>
      </trkpt>
      <trkpt lat="45.79157" lon="6.97299">
        <ele>1599</ele>
        <time>2022-08-27T08:41:01Z</time>
      </trkpt>
      <trkpt lat="45.79157" lon="6.97298">
        <ele>1599</ele>
        <time>2022-08-27T08:41:02Z</time>
      </trkpt>
      <trkpt lat="45.79156" lon="6.97282">
        <ele>1599</ele>
        <time>2022-08-27T08:41:04Z</time>
      </trkpt>
      <trkpt lat="45.79155" lon="6.97278">
        <ele>1599</ele>
        <time>2022-08-27T08:41:05Z</time>
      </trkpt>
      <trkpt lat="45.79154" lon="6.97273">
        <ele>1600</ele>
        <time>2022-08-27T08:41:06Z</time>
      </trkpt>
      <trkpt lat="45.79154" lon="6.97273">
        <ele>1601</ele>
        <time>2022-08-27T08:41:29Z</time>
      </trkpt>
      <trkpt lat="45.7917" lon="6.97268">
        <ele>1601</ele>
        <time>2022-08-27T08:41:32Z</time>
      </trkpt>
      <trkpt lat="45.79187" lon="6.97263">
        <ele>1601</ele>
        <time>2022-08-27T08:41:34Z</time>
      </trkpt>
      <trkpt lat="45.79203" lon="6.97258">
        <ele>1601</ele>
        <time>2022-08-27T08:41:35Z</time>
      </trkpt>
      <trkpt lat="45.79205" lon="6.97258">
        <ele>1601</ele>
        <time>2022-08-27T08:41:37Z</time>
      </trkpt>
      <trkpt lat="45.79208" lon="6.97257">
        <ele>1600</ele>
        <time>2022-08-27T08:41:38Z</time>
      </trkpt>
      <trkpt lat="45.7921" lon="6.97257">
        <ele>1600</ele>
        <time>2022-08-27T08:41:39Z</time>
      </trkpt>
      <trkpt lat="45.79213" lon="6.97256">
        <ele>1600</ele>
        <time>2022-08-27T08:41:40Z</time>
      </trkpt>
      <trkpt lat="45.79215" lon="6.97259">
        <ele>1600</ele>
        <time>2022-08-27T08:41:42Z</time>
      </trkpt>
      <trkpt lat="45.79217" lon="6.97262">
        <ele>1600</ele>
        <time>2022-08-27T08:41:44Z</time>
      </trkpt>
      <trkpt lat="45.79219" lon="6.97265">
        <ele>1601</ele>
        <time>2022-08-27T08:41:45Z</time>
      </trkpt>
      <trkpt lat="45.79228" lon="6.97279">
        <ele>1601</ele>
        <time>2022-08-27T08:41:46Z</time>
      </trkpt>
      <trkpt lat="45.79229" lon="6.9728">
        <ele>1601</ele>
        <time>2022-08-27T08:41:47Z</time>
      </trkpt>
      <trkpt lat="45.79233" lon="6.97287">
        <ele>1601</ele>
        <time>2022-08-27T08:41:49Z</time>
      </trkpt>
      <trkpt lat="45.79234" lon="6.97288">
        <ele>1601</ele>
        <time>2022-08-27T08:41:50Z</time>
      </trkpt>
      <trkpt lat="45.79236" lon="6.9729">
        <ele>1601</ele>
        <time>2022-08-27T08:41:51Z</time>
      </trkpt>
      <trkpt lat="45.79238" lon="6.97292">
        <ele>1601</ele>
        <time>2022-08-27T08:41:52Z</time>
      </trkpt>
      <trkpt lat="45.79239" lon="6.97293">
        <ele>1601</ele>
        <time>2022-08-27T08:41:54Z</time>
      </trkpt>
      <trkpt lat="45.79241" lon="6.97295">
        <ele>1601</ele>
        <time>2022-08-27T08:41:55Z</time>
      </trkpt>
      <trkpt lat="45.7925" lon="6.973">
        <ele>1601</ele>
        <time>2022-08-27T08:42:00Z</time>
      </trkpt>
      <trkpt lat="45.79259" lon="6.97307">
        <ele>1601</ele>
        <time>2022-08-27T08:42:03Z</time>
      </trkpt>
      <trkpt lat="45.79269" lon="6.97308">
        <ele>1601</ele>
        <time>2022-08-27T08:42:07Z</time>
      </trkpt>
      <trkpt lat="45.79271" lon="6.97308">
        <ele>1601</ele>
        <time>2022-08-27T08:42:08Z</time>
      </trkpt>
      <trkpt lat="45.79273" lon="6.97308">
        <ele>1601</ele>
        <time>2022-08-27T08:42:09Z</time>
      </trkpt>
      <trkpt lat="45.79275" lon="6.97309">
        <ele>1601</ele>
        <time>2022-08-27T08:42:10Z</time>
      </trkpt>
      <trkpt lat="45.79277" lon="6.97309">
        <ele>1601</ele>
        <time>2022-08-27T08:42:11Z</time>
      </trkpt>
      <trkpt lat="45.79279" lon="6.97309">
        <ele>1601</ele>
        <time>2022-08-27T08:42:12Z</time>
      </trkpt>
      <trkpt lat="45.7928" lon="6.9731">
        <ele>1601</ele>
        <time>2022-08-27T08:42:13Z</time>
      </trkpt>
      <trkpt lat="45.79281" lon="6.9731">
        <ele>1601</ele>
        <time>2022-08-27T08:42:14Z</time>
      </trkpt>
      <trkpt lat="45.79283" lon="6.9731">
        <ele>1601</ele>
        <time>2022-08-27T08:42:15Z</time>
      </trkpt>
      <trkpt lat="45.79284" lon="6.97311">
        <ele>1601</ele>
        <time>2022-08-27T08:42:17Z</time>
      </trkpt>
      <trkpt lat="45.79285" lon="6.97311">
        <ele>1601</ele>
        <time>2022-08-27T08:42:19Z</time>
      </trkpt>
      <trkpt lat="45.79286" lon="6.97311">
        <ele>1601</ele>
        <time>2022-08-27T08:42:20Z</time>
      </trkpt>
      <trkpt lat="45.79287" lon="6.97312">
        <ele>1601</ele>
        <time>2022-08-27T08:42:21Z</time>
      </trkpt>
      <trkpt lat="45.79288" lon="6.97312">
        <ele>1601</ele>
        <time>2022-08-27T08:42:22Z</time>
      </trkpt>
      <trkpt lat="45.79289" lon="6.97311">
        <ele>1601</ele>
        <time>2022-08-27T08:42:23Z</time>
      </trkpt>
      <trkpt lat="45.7929" lon="6.97311">
        <ele>1600</ele>
        <time>2022-08-27T08:42:24Z</time>
      </trkpt>
      <trkpt lat="45.79291" lon="6.9731">
        <ele>1601</ele>
        <time>2022-08-27T08:42:26Z</time>
      </trkpt>
      <trkpt lat="45.79292" lon="6.9731">
        <ele>1601</ele>
        <time>2022-08-27T08:42:28Z</time>
      </trkpt>
      <trkpt lat="45.79292" lon="6.97309">
        <ele>1601</ele>
        <time>2022-08-27T08:42:29Z</time>
      </trkpt>
      <trkpt lat="45.79293" lon="6.97309">
        <ele>1601</ele>
        <time>2022-08-27T08:42:30Z</time>
      </trkpt>
      <trkpt lat="45.79299" lon="6.97306">
        <ele>1601</ele>
        <time>2022-08-27T08:42:31Z</time>
      </trkpt>
      <trkpt lat="45.79301" lon="6.97307">
        <ele>1601</ele>
        <time>2022-08-27T08:42:33Z</time>
      </trkpt>
      <trkpt lat="45.79302" lon="6.97307">
        <ele>1601</ele>
        <time>2022-08-27T08:42:34Z</time>
      </trkpt>
      <trkpt lat="45.79303" lon="6.97307">
        <ele>1601</ele>
        <time>2022-08-27T08:42:35Z</time>
      </trkpt>
      <trkpt lat="45.79304" lon="6.97307">
        <ele>1601</ele>
        <time>2022-08-27T08:42:36Z</time>
      </trkpt>
      <trkpt lat="45.79306" lon="6.97308">
        <ele>1601</ele>
        <time>2022-08-27T08:42:37Z</time>
      </trkpt>
      <trkpt lat="45.79307" lon="6.97308">
        <ele>1601</ele>
        <time>2022-08-27T08:42:38Z</time>
      </trkpt>
      <trkpt lat="45.79308" lon="6.97308">
        <ele>1601</ele>
        <time>2022-08-27T08:42:39Z</time>
      </trkpt>
      <trkpt lat="45.79308" lon="6.97308">
        <ele>1601</ele>
        <time>2022-08-27T08:42:41Z</time>
      </trkpt>
      <trkpt lat="45.79309" lon="6.97308">
        <ele>1601</ele>
        <time>2022-08-27T08:42:43Z</time>
      </trkpt>
      <trkpt lat="45.79309" lon="6.97309">
        <ele>1601</ele>
        <time>2022-08-27T08:42:45Z</time>
      </trkpt>
      <trkpt lat="45.7931" lon="6.97309">
        <ele>1601</ele>
        <time>2022-08-27T08:42:46Z</time>
      </trkpt>
      <trkpt lat="45.7931" lon="6.97309">
        <ele>1601</ele>
        <time>2022-08-27T08:42:47Z</time>
      </trkpt>
      <trkpt lat="45.79311" lon="6.97309">
        <ele>1601</ele>
        <time>2022-08-27T08:42:48Z</time>
      </trkpt>
      <trkpt lat="45.79311" lon="6.97309">
        <ele>1602</ele>
        <time>2022-08-27T08:42:50Z</time>
      </trkpt>
      <trkpt lat="45.79312" lon="6.97309">
        <ele>1602</ele>
        <time>2022-08-27T08:42:51Z</time>
      </trkpt>
      <trkpt lat="45.79312" lon="6.9731">
        <ele>1602</ele>
        <time>2022-08-27T08:42:52Z</time>
      </trkpt>
      <trkpt lat="45.79313" lon="6.9731">
        <ele>1602</ele>
        <time>2022-08-27T08:42:53Z</time>
      </trkpt>
      <trkpt lat="45.79313" lon="6.9731">
        <ele>1602</ele>
        <time>2022-08-27T08:42:55Z</time>
      </trkpt>
      <trkpt lat="45.79314" lon="6.9731">
        <ele>1602</ele>
        <time>2022-08-27T08:42:56Z</time>
      </trkpt>
      <trkpt lat="45.79315" lon="6.9731">
        <ele>1602</ele>
        <time>2022-08-27T08:42:57Z</time>
      </trkpt>
      <trkpt lat="45.79315" lon="6.9731">
        <ele>1602</ele>
        <time>2022-08-27T08:42:58Z</time>
      </trkpt>
      <trkpt lat="45.79316" lon="6.97311">
        <ele>1602</ele>
        <time>2022-08-27T08:43:00Z</time>
      </trkpt>
      <trkpt lat="45.79316" lon="6.97311">
        <ele>1602</ele>
        <time>2022-08-27T08:43:01Z</time>
      </trkpt>
      <trkpt lat="45.79317" lon="6.97311">
        <ele>1602</ele>
        <time>2022-08-27T08:43:02Z</time>
      </trkpt>
      <trkpt lat="45.79317" lon="6.97311">
        <ele>1603</ele>
        <time>2022-08-27T08:43:03Z</time>
      </trkpt>
      <trkpt lat="45.79327" lon="6.97318">
        <ele>1603</ele>
        <time>2022-08-27T08:43:07Z</time>
      </trkpt>
      <trkpt lat="45.79326" lon="6.97316">
        <ele>1603</ele>
        <time>2022-08-27T08:43:08Z</time>
      </trkpt>
      <trkpt lat="45.79326" lon="6.97314">
        <ele>1603</ele>
        <time>2022-08-27T08:43:09Z</time>
      </trkpt>
      <trkpt lat="45.79326" lon="6.97313">
        <ele>1603</ele>
        <time>2022-08-27T08:43:10Z</time>
      </trkpt>
      <trkpt lat="45.79326" lon="6.97311">
        <ele>1604</ele>
        <time>2022-08-27T08:43:12Z</time>
      </trkpt>
      <trkpt lat="45.79326" lon="6.9731">
        <ele>1604</ele>
        <time>2022-08-27T08:43:13Z</time>
      </trkpt>
      <trkpt lat="45.79326" lon="6.97308">
        <ele>1604</ele>
        <time>2022-08-27T08:43:14Z</time>
      </trkpt>
      <trkpt lat="45.79325" lon="6.97306">
        <ele>1604</ele>
        <time>2022-08-27T08:43:15Z</time>
      </trkpt>
      <trkpt lat="45.79325" lon="6.97305">
        <ele>1604</ele>
        <time>2022-08-27T08:43:17Z</time>
      </trkpt>
      <trkpt lat="45.79325" lon="6.97303">
        <ele>1604</ele>
        <time>2022-08-27T08:43:18Z</time>
      </trkpt>
      <trkpt lat="45.79325" lon="6.97301">
        <ele>1604</ele>
        <time>2022-08-27T08:43:19Z</time>
      </trkpt>
      <trkpt lat="45.79325" lon="6.973">
        <ele>1605</ele>
        <time>2022-08-27T08:43:20Z</time>
      </trkpt>
      <trkpt lat="45.79324" lon="6.97298">
        <ele>1605</ele>
        <time>2022-08-27T08:43:21Z</time>
      </trkpt>
      <trkpt lat="45.79324" lon="6.97297">
        <ele>1605</ele>
        <time>2022-08-27T08:43:23Z</time>
      </trkpt>
      <trkpt lat="45.79324" lon="6.97295">
        <ele>1605</ele>
        <time>2022-08-27T08:43:24Z</time>
      </trkpt>
      <trkpt lat="45.79324" lon="6.97293">
        <ele>1605</ele>
        <time>2022-08-27T08:43:25Z</time>
      </trkpt>
      <trkpt lat="45.79324" lon="6.97292">
        <ele>1605</ele>
        <time>2022-08-27T08:43:26Z</time>
      </trkpt>
      <trkpt lat="45.79323" lon="6.9729">
        <ele>1605</ele>
        <time>2022-08-27T08:43:27Z</time>
      </trkpt>
      <trkpt lat="45.79323" lon="6.97288">
        <ele>1605</ele>
        <time>2022-08-27T08:43:28Z</time>
      </trkpt>
      <trkpt lat="45.79325" lon="6.97289">
        <ele>1605</ele>
        <time>2022-08-27T08:43:29Z</time>
      </trkpt>
      <trkpt lat="45.79326" lon="6.97289">
        <ele>1605</ele>
        <time>2022-08-27T08:43:30Z</time>
      </trkpt>
      <trkpt lat="45.79328" lon="6.97289">
        <ele>1605</ele>
        <time>2022-08-27T08:43:31Z</time>
      </trkpt>
      <trkpt lat="45.79329" lon="6.9729">
        <ele>1606</ele>
        <time>2022-08-27T08:43:33Z</time>
      </trkpt>
      <trkpt lat="45.79331" lon="6.9729">
        <ele>1606</ele>
        <time>2022-08-27T08:43:34Z</time>
      </trkpt>
      <trkpt lat="45.79332" lon="6.9729">
        <ele>1606</ele>
        <time>2022-08-27T08:43:35Z</time>
      </trkpt>
      <trkpt lat="45.79334" lon="6.97292">
        <ele>1606</ele>
        <time>2022-08-27T08:43:36Z</time>
      </trkpt>
      <trkpt lat="45.79335" lon="6.97293">
        <ele>1606</ele>
        <time>2022-08-27T08:43:38Z</time>
      </trkpt>
      <trkpt lat="45.79336" lon="6.97295">
        <ele>1607</ele>
        <time>2022-08-27T08:43:40Z</time>
      </trkpt>
      <trkpt lat="45.79338" lon="6.97296">
        <ele>1607</ele>
        <time>2022-08-27T08:43:41Z</time>
      </trkpt>
      <trkpt lat="45.79339" lon="6.97297">
        <ele>1607</ele>
        <time>2022-08-27T08:43:42Z</time>
      </trkpt>
      <trkpt lat="45.79341" lon="6.97299">
        <ele>1607</ele>
        <time>2022-08-27T08:43:43Z</time>
      </trkpt>
      <trkpt lat="45.79342" lon="6.973">
        <ele>1608</ele>
        <time>2022-08-27T08:43:45Z</time>
      </trkpt>
      <trkpt lat="45.79342" lon="6.97301">
        <ele>1608</ele>
        <time>2022-08-27T08:43:46Z</time>
      </trkpt>
      <trkpt lat="45.79343" lon="6.97302">
        <ele>1608</ele>
        <time>2022-08-27T08:43:47Z</time>
      </trkpt>
      <trkpt lat="45.79344" lon="6.97303">
        <ele>1608</ele>
        <time>2022-08-27T08:43:48Z</time>
      </trkpt>
      <trkpt lat="45.79354" lon="6.97313">
        <ele>1608</ele>
        <time>2022-08-27T08:43:50Z</time>
      </trkpt>
      <trkpt lat="45.79357" lon="6.97316">
        <ele>1608</ele>
        <time>2022-08-27T08:43:51Z</time>
      </trkpt>
      <trkpt lat="45.79361" lon="6.97318">
        <ele>1608</ele>
        <time>2022-08-27T08:43:52Z</time>
      </trkpt>
      <trkpt lat="45.79362" lon="6.97318">
        <ele>1608</ele>
        <time>2022-08-27T08:43:53Z</time>
      </trkpt>
      <trkpt lat="45.79363" lon="6.97319">
        <ele>1608</ele>
        <time>2022-08-27T08:43:54Z</time>
      </trkpt>
      <trkpt lat="45.79364" lon="6.97319">
        <ele>1608</ele>
        <time>2022-08-27T08:43:55Z</time>
      </trkpt>
      <trkpt lat="45.79371" lon="6.9732">
        <ele>1608</ele>
        <time>2022-08-27T08:43:57Z</time>
      </trkpt>
      <trkpt lat="45.79371" lon="6.97306">
        <ele>1608</ele>
        <time>2022-08-27T08:44:01Z</time>
      </trkpt>
      <trkpt lat="45.79371" lon="6.97305">
        <ele>1608</ele>
        <time>2022-08-27T08:44:02Z</time>
      </trkpt>
      <trkpt lat="45.79371" lon="6.97304">
        <ele>1608</ele>
        <time>2022-08-27T08:44:03Z</time>
      </trkpt>
      <trkpt lat="45.79371" lon="6.97302">
        <ele>1608</ele>
        <time>2022-08-27T08:44:04Z</time>
      </trkpt>
      <trkpt lat="45.79371" lon="6.97301">
        <ele>1609</ele>
        <time>2022-08-27T08:44:06Z</time>
      </trkpt>
      <trkpt lat="45.79371" lon="6.97299">
        <ele>1609</ele>
        <time>2022-08-27T08:44:07Z</time>
      </trkpt>
      <trkpt lat="45.79371" lon="6.97298">
        <ele>1609</ele>
        <time>2022-08-27T08:44:08Z</time>
      </trkpt>
      <trkpt lat="45.79371" lon="6.97296">
        <ele>1609</ele>
        <time>2022-08-27T08:44:09Z</time>
      </trkpt>
      <trkpt lat="45.79371" lon="6.97295">
        <ele>1609</ele>
        <time>2022-08-27T08:44:11Z</time>
      </trkpt>
      <trkpt lat="45.79371" lon="6.97293">
        <ele>1609</ele>
        <time>2022-08-27T08:44:12Z</time>
      </trkpt>
      <trkpt lat="45.79365" lon="6.97282">
        <ele>1609</ele>
        <time>2022-08-27T08:44:16Z</time>
      </trkpt>
      <trkpt lat="45.79366" lon="6.97284">
        <ele>1609</ele>
        <time>2022-08-27T08:44:18Z</time>
      </trkpt>
      <trkpt lat="45.79368" lon="6.97285">
        <ele>1610</ele>
        <time>2022-08-27T08:44:19Z</time>
      </trkpt>
      <trkpt lat="45.79369" lon="6.97287">
        <ele>1610</ele>
        <time>2022-08-27T08:44:20Z</time>
      </trkpt>
      <trkpt lat="45.79371" lon="6.97288">
        <ele>1610</ele>
        <time>2022-08-27T08:44:21Z</time>
      </trkpt>
      <trkpt lat="45.79372" lon="6.9729">
        <ele>1610</ele>
        <time>2022-08-27T08:44:22Z</time>
      </trkpt>
      <trkpt lat="45.79374" lon="6.97291">
        <ele>1610</ele>
        <time>2022-08-27T08:44:23Z</time>
      </trkpt>
      <trkpt lat="45.79376" lon="6.97293">
        <ele>1610</ele>
        <time>2022-08-27T08:44:24Z</time>
      </trkpt>
      <trkpt lat="45.79379" lon="6.97295">
        <ele>1610</ele>
        <time>2022-08-27T08:44:26Z</time>
      </trkpt>
      <trkpt lat="45.79381" lon="6.97297">
        <ele>1610</ele>
        <time>2022-08-27T08:44:27Z</time>
      </trkpt>
      <trkpt lat="45.79384" lon="6.97299">
        <ele>1610</ele>
        <time>2022-08-27T08:44:28Z</time>
      </trkpt>
      <trkpt lat="45.79385" lon="6.973">
        <ele>1610</ele>
        <time>2022-08-27T08:44:29Z</time>
      </trkpt>
      <trkpt lat="45.79386" lon="6.97302">
        <ele>1610</ele>
        <time>2022-08-27T08:44:30Z</time>
      </trkpt>
      <trkpt lat="45.79387" lon="6.97303">
        <ele>1610</ele>
        <time>2022-08-27T08:44:31Z</time>
      </trkpt>
      <trkpt lat="45.79398" lon="6.97315">
        <ele>1611</ele>
        <time>2022-08-27T08:44:33Z</time>
      </trkpt>
      <trkpt lat="45.79402" lon="6.97319">
        <ele>1611</ele>
        <time>2022-08-27T08:44:34Z</time>
      </trkpt>
      <trkpt lat="45.79406" lon="6.97322">
        <ele>1611</ele>
        <time>2022-08-27T08:44:35Z</time>
      </trkpt>
      <trkpt lat="45.79408" lon="6.97326">
        <ele>1611</ele>
        <time>2022-08-27T08:44:36Z</time>
      </trkpt>
      <trkpt lat="45.79411" lon="6.97329">
        <ele>1611</ele>
        <time>2022-08-27T08:44:37Z</time>
      </trkpt>
      <trkpt lat="45.79413" lon="6.97332">
        <ele>1612</ele>
        <time>2022-08-27T08:44:38Z</time>
      </trkpt>
      <trkpt lat="45.79421" lon="6.97342">
        <ele>1612</ele>
        <time>2022-08-27T08:44:39Z</time>
      </trkpt>
      <trkpt lat="45.79425" lon="6.97346">
        <ele>1612</ele>
        <time>2022-08-27T08:44:41Z</time>
      </trkpt>
      <trkpt lat="45.79428" lon="6.97351">
        <ele>1612</ele>
        <time>2022-08-27T08:44:42Z</time>
      </trkpt>
      <trkpt lat="45.79429" lon="6.97351">
        <ele>1612</ele>
        <time>2022-08-27T08:44:43Z</time>
      </trkpt>
      <trkpt lat="45.7943" lon="6.97352">
        <ele>1612</ele>
        <time>2022-08-27T08:44:44Z</time>
      </trkpt>
      <trkpt lat="45.79431" lon="6.97353">
        <ele>1612</ele>
        <time>2022-08-27T08:44:46Z</time>
      </trkpt>
      <trkpt lat="45.79431" lon="6.97354">
        <ele>1612</ele>
        <time>2022-08-27T08:44:47Z</time>
      </trkpt>
      <trkpt lat="45.79432" lon="6.97355">
        <ele>1613</ele>
        <time>2022-08-27T08:44:48Z</time>
      </trkpt>
      <trkpt lat="45.79433" lon="6.97356">
        <ele>1613</ele>
        <time>2022-08-27T08:44:49Z</time>
      </trkpt>
      <trkpt lat="45.79433" lon="6.97356">
        <ele>1613</ele>
        <time>2022-08-27T08:44:51Z</time>
      </trkpt>
      <trkpt lat="45.79434" lon="6.97357">
        <ele>1614</ele>
        <time>2022-08-27T08:44:52Z</time>
      </trkpt>
      <trkpt lat="45.79445" lon="6.9737">
        <ele>1614</ele>
        <time>2022-08-27T08:44:54Z</time>
      </trkpt>
      <trkpt lat="45.79457" lon="6.97385">
        <ele>1614</ele>
        <time>2022-08-27T08:44:56Z</time>
      </trkpt>
      <trkpt lat="45.79459" lon="6.97388">
        <ele>1614</ele>
        <time>2022-08-27T08:44:57Z</time>
      </trkpt>
      <trkpt lat="45.79462" lon="6.97392">
        <ele>1614</ele>
        <time>2022-08-27T08:44:58Z</time>
      </trkpt>
      <trkpt lat="45.79466" lon="6.97396">
        <ele>1614</ele>
        <time>2022-08-27T08:44:59Z</time>
      </trkpt>
      <trkpt lat="45.7947" lon="6.974">
        <ele>1614</ele>
        <time>2022-08-27T08:45:00Z</time>
      </trkpt>
      <trkpt lat="45.79472" lon="6.97403">
        <ele>1614</ele>
        <time>2022-08-27T08:45:02Z</time>
      </trkpt>
      <trkpt lat="45.79474" lon="6.97406">
        <ele>1615</ele>
        <time>2022-08-27T08:45:03Z</time>
      </trkpt>
      <trkpt lat="45.79481" lon="6.97414">
        <ele>1615</ele>
        <time>2022-08-27T08:45:04Z</time>
      </trkpt>
      <trkpt lat="45.79483" lon="6.97417">
        <ele>1615</ele>
        <time>2022-08-27T08:45:05Z</time>
      </trkpt>
      <trkpt lat="45.79485" lon="6.9742">
        <ele>1615</ele>
        <time>2022-08-27T08:45:06Z</time>
      </trkpt>
      <trkpt lat="45.79492" lon="6.97429">
        <ele>1615</ele>
        <time>2022-08-27T08:45:07Z</time>
      </trkpt>
      <trkpt lat="45.79501" lon="6.97436">
        <ele>1616</ele>
        <time>2022-08-27T08:45:13Z</time>
      </trkpt>
      <trkpt lat="45.79502" lon="6.97437">
        <ele>1616</ele>
        <time>2022-08-27T08:45:14Z</time>
      </trkpt>
      <trkpt lat="45.79503" lon="6.97439">
        <ele>1617</ele>
        <time>2022-08-27T08:45:15Z</time>
      </trkpt>
      <trkpt lat="45.79504" lon="6.9744">
        <ele>1617</ele>
        <time>2022-08-27T08:45:17Z</time>
      </trkpt>
      <trkpt lat="45.79506" lon="6.97442">
        <ele>1617</ele>
        <time>2022-08-27T08:45:18Z</time>
      </trkpt>
      <trkpt lat="45.79512" lon="6.97449">
        <ele>1617</ele>
        <time>2022-08-27T08:45:19Z</time>
      </trkpt>
      <trkpt lat="45.79513" lon="6.9745">
        <ele>1618</ele>
        <time>2022-08-27T08:45:20Z</time>
      </trkpt>
      <trkpt lat="45.79515" lon="6.97451">
        <ele>1618</ele>
        <time>2022-08-27T08:45:22Z</time>
      </trkpt>
      <trkpt lat="45.79516" lon="6.97453">
        <ele>1618</ele>
        <time>2022-08-27T08:45:23Z</time>
      </trkpt>
      <trkpt lat="45.79518" lon="6.97454">
        <ele>1618</ele>
        <time>2022-08-27T08:45:24Z</time>
      </trkpt>
      <trkpt lat="45.79519" lon="6.97455">
        <ele>1618</ele>
        <time>2022-08-27T08:45:25Z</time>
      </trkpt>
      <trkpt lat="45.79521" lon="6.97457">
        <ele>1618</ele>
        <time>2022-08-27T08:45:27Z</time>
      </trkpt>
      <trkpt lat="45.79523" lon="6.97459">
        <ele>1618</ele>
        <time>2022-08-27T08:45:28Z</time>
      </trkpt>
      <trkpt lat="45.79525" lon="6.9746">
        <ele>1618</ele>
        <time>2022-08-27T08:45:29Z</time>
      </trkpt>
      <trkpt lat="45.79526" lon="6.97462">
        <ele>1618</ele>
        <time>2022-08-27T08:45:30Z</time>
      </trkpt>
      <trkpt lat="45.79528" lon="6.97463">
        <ele>1618</ele>
        <time>2022-08-27T08:45:31Z</time>
      </trkpt>
      <trkpt lat="45.7953" lon="6.97464">
        <ele>1618</ele>
        <time>2022-08-27T08:45:32Z</time>
      </trkpt>
      <trkpt lat="45.79531" lon="6.97465">
        <ele>1618</ele>
        <time>2022-08-27T08:45:34Z</time>
      </trkpt>
      <trkpt lat="45.79532" lon="6.97465">
        <ele>1619</ele>
        <time>2022-08-27T08:45:36Z</time>
      </trkpt>
      <trkpt lat="45.79533" lon="6.97466">
        <ele>1619</ele>
        <time>2022-08-27T08:45:37Z</time>
      </trkpt>
      <trkpt lat="45.7954" lon="6.9747">
        <ele>1619</ele>
        <time>2022-08-27T08:45:38Z</time>
      </trkpt>
      <trkpt lat="45.79541" lon="6.9747">
        <ele>1619</ele>
        <time>2022-08-27T08:45:39Z</time>
      </trkpt>
      <trkpt lat="45.79543" lon="6.97471">
        <ele>1619</ele>
        <time>2022-08-27T08:45:41Z</time>
      </trkpt>
      <trkpt lat="45.79545" lon="6.97471">
        <ele>1620</ele>
        <time>2022-08-27T08:45:42Z</time>
      </trkpt>
      <trkpt lat="45.79546" lon="6.97472">
        <ele>1620</ele>
        <time>2022-08-27T08:45:43Z</time>
      </trkpt>
      <trkpt lat="45.79548" lon="6.97473">
        <ele>1620</ele>
        <time>2022-08-27T08:45:44Z</time>
      </trkpt>
      <trkpt lat="45.79556" lon="6.97477">
        <ele>1621</ele>
        <time>2022-08-27T08:45:51Z</time>
      </trkpt>
      <trkpt lat="45.79558" lon="6.97477">
        <ele>1621</ele>
        <time>2022-08-27T08:45:53Z</time>
      </trkpt>
      <trkpt lat="45.79559" lon="6.97477">
        <ele>1621</ele>
        <time>2022-08-27T08:45:54Z</time>
      </trkpt>
      <trkpt lat="45.79561" lon="6.97476">
        <ele>1621</ele>
        <time>2022-08-27T08:45:55Z</time>
      </trkpt>
      <trkpt lat="45.79563" lon="6.97476">
        <ele>1621</ele>
        <time>2022-08-27T08:45:56Z</time>
      </trkpt>
      <trkpt lat="45.79564" lon="6.97476">
        <ele>1621</ele>
        <time>2022-08-27T08:45:58Z</time>
      </trkpt>
      <trkpt lat="45.79566" lon="6.97475">
        <ele>1621</ele>
        <time>2022-08-27T08:45:59Z</time>
      </trkpt>
      <trkpt lat="45.79567" lon="6.97477">
        <ele>1622</ele>
        <time>2022-08-27T08:46:00Z</time>
      </trkpt>
      <trkpt lat="45.79569" lon="6.97478">
        <ele>1622</ele>
        <time>2022-08-27T08:46:01Z</time>
      </trkpt>
      <trkpt lat="45.79571" lon="6.9748">
        <ele>1622</ele>
        <time>2022-08-27T08:46:03Z</time>
      </trkpt>
      <trkpt lat="45.79573" lon="6.97481">
        <ele>1622</ele>
        <time>2022-08-27T08:46:04Z</time>
      </trkpt>
      <trkpt lat="45.79574" lon="6.97483">
        <ele>1622</ele>
        <time>2022-08-27T08:46:05Z</time>
      </trkpt>
      <trkpt lat="45.79583" lon="6.9749">
        <ele>1623</ele>
        <time>2022-08-27T08:46:10Z</time>
      </trkpt>
      <trkpt lat="45.79585" lon="6.9749">
        <ele>1623</ele>
        <time>2022-08-27T08:46:12Z</time>
      </trkpt>
      <trkpt lat="45.79587" lon="6.9749">
        <ele>1624</ele>
        <time>2022-08-27T08:46:13Z</time>
      </trkpt>
      <trkpt lat="45.79589" lon="6.9749">
        <ele>1624</ele>
        <time>2022-08-27T08:46:15Z</time>
      </trkpt>
      <trkpt lat="45.79591" lon="6.9749">
        <ele>1624</ele>
        <time>2022-08-27T08:46:16Z</time>
      </trkpt>
      <trkpt lat="45.79593" lon="6.9749">
        <ele>1624</ele>
        <time>2022-08-27T08:46:17Z</time>
      </trkpt>
      <trkpt lat="45.79602" lon="6.97494">
        <ele>1624</ele>
        <time>2022-08-27T08:46:22Z</time>
      </trkpt>
      <trkpt lat="45.79603" lon="6.97496">
        <ele>1624</ele>
        <time>2022-08-27T08:46:23Z</time>
      </trkpt>
      <trkpt lat="45.79604" lon="6.97497">
        <ele>1624</ele>
        <time>2022-08-27T08:46:24Z</time>
      </trkpt>
      <trkpt lat="45.79605" lon="6.97498">
        <ele>1625</ele>
        <time>2022-08-27T08:46:25Z</time>
      </trkpt>
      <trkpt lat="45.79606" lon="6.975">
        <ele>1625</ele>
        <time>2022-08-27T08:46:27Z</time>
      </trkpt>
      <trkpt lat="45.79607" lon="6.97501">
        <ele>1625</ele>
        <time>2022-08-27T08:46:29Z</time>
      </trkpt>
      <trkpt lat="45.79608" lon="6.97502">
        <ele>1625</ele>
        <time>2022-08-27T08:46:30Z</time>
      </trkpt>
      <trkpt lat="45.79609" lon="6.97503">
        <ele>1625</ele>
        <time>2022-08-27T08:46:31Z</time>
      </trkpt>
      <trkpt lat="45.7961" lon="6.97505">
        <ele>1626</ele>
        <time>2022-08-27T08:46:33Z</time>
      </trkpt>
      <trkpt lat="45.79611" lon="6.97506">
        <ele>1626</ele>
        <time>2022-08-27T08:46:34Z</time>
      </trkpt>
      <trkpt lat="45.79613" lon="6.97507">
        <ele>1626</ele>
        <time>2022-08-27T08:46:35Z</time>
      </trkpt>
      <trkpt lat="45.79614" lon="6.97508">
        <ele>1627</ele>
        <time>2022-08-27T08:46:36Z</time>
      </trkpt>
      <trkpt lat="45.79615" lon="6.97509">
        <ele>1627</ele>
        <time>2022-08-27T08:46:38Z</time>
      </trkpt>
      <trkpt lat="45.79616" lon="6.97511">
        <ele>1627</ele>
        <time>2022-08-27T08:46:39Z</time>
      </trkpt>
      <trkpt lat="45.79617" lon="6.97512">
        <ele>1627</ele>
        <time>2022-08-27T08:46:40Z</time>
      </trkpt>
      <trkpt lat="45.79619" lon="6.97513">
        <ele>1627</ele>
        <time>2022-08-27T08:46:41Z</time>
      </trkpt>
      <trkpt lat="45.7962" lon="6.97513">
        <ele>1627</ele>
        <time>2022-08-27T08:46:42Z</time>
      </trkpt>
      <trkpt lat="45.79622" lon="6.97514">
        <ele>1627</ele>
        <time>2022-08-27T08:46:43Z</time>
      </trkpt>
      <trkpt lat="45.79623" lon="6.97515">
        <ele>1627</ele>
        <time>2022-08-27T08:46:45Z</time>
      </trkpt>
      <trkpt lat="45.79624" lon="6.97516">
        <ele>1628</ele>
        <time>2022-08-27T08:46:46Z</time>
      </trkpt>
      <trkpt lat="45.79626" lon="6.97516">
        <ele>1628</ele>
        <time>2022-08-27T08:46:47Z</time>
      </trkpt>
      <trkpt lat="45.79627" lon="6.97517">
        <ele>1628</ele>
        <time>2022-08-27T08:46:48Z</time>
      </trkpt>
      <trkpt lat="45.79628" lon="6.97518">
        <ele>1628</ele>
        <time>2022-08-27T08:46:49Z</time>
      </trkpt>
      <trkpt lat="45.7963" lon="6.97519">
        <ele>1628</ele>
        <time>2022-08-27T08:46:50Z</time>
      </trkpt>
      <trkpt lat="45.79631" lon="6.9752">
        <ele>1628</ele>
        <time>2022-08-27T08:46:51Z</time>
      </trkpt>
      <trkpt lat="45.79632" lon="6.97521">
        <ele>1628</ele>
        <time>2022-08-27T08:46:53Z</time>
      </trkpt>
      <trkpt lat="45.79633" lon="6.97522">
        <ele>1629</ele>
        <time>2022-08-27T08:46:54Z</time>
      </trkpt>
      <trkpt lat="45.79635" lon="6.97522">
        <ele>1629</ele>
        <time>2022-08-27T08:46:55Z</time>
      </trkpt>
      <trkpt lat="45.79636" lon="6.97523">
        <ele>1629</ele>
        <time>2022-08-27T08:46:56Z</time>
      </trkpt>
      <trkpt lat="45.79638" lon="6.97525">
        <ele>1629</ele>
        <time>2022-08-27T08:46:58Z</time>
      </trkpt>
      <trkpt lat="45.7964" lon="6.97526">
        <ele>1629</ele>
        <time>2022-08-27T08:46:59Z</time>
      </trkpt>
      <trkpt lat="45.79642" lon="6.97528">
        <ele>1629</ele>
        <time>2022-08-27T08:47:00Z</time>
      </trkpt>
      <trkpt lat="45.79645" lon="6.97529">
        <ele>1629</ele>
        <time>2022-08-27T08:47:01Z</time>
      </trkpt>
      <trkpt lat="45.79646" lon="6.9753">
        <ele>1629</ele>
        <time>2022-08-27T08:47:02Z</time>
      </trkpt>
      <trkpt lat="45.79647" lon="6.9753">
        <ele>1630</ele>
        <time>2022-08-27T08:47:03Z</time>
      </trkpt>
      <trkpt lat="45.79649" lon="6.97531">
        <ele>1630</ele>
        <time>2022-08-27T08:47:05Z</time>
      </trkpt>
      <trkpt lat="45.7965" lon="6.97531">
        <ele>1630</ele>
        <time>2022-08-27T08:47:07Z</time>
      </trkpt>
      <trkpt lat="45.79652" lon="6.97532">
        <ele>1630</ele>
        <time>2022-08-27T08:47:09Z</time>
      </trkpt>
      <trkpt lat="45.79653" lon="6.97532">
        <ele>1630</ele>
        <time>2022-08-27T08:47:10Z</time>
      </trkpt>
      <trkpt lat="45.79654" lon="6.97533">
        <ele>1630</ele>
        <time>2022-08-27T08:47:11Z</time>
      </trkpt>
      <trkpt lat="45.79656" lon="6.97533">
        <ele>1630</ele>
        <time>2022-08-27T08:47:12Z</time>
      </trkpt>
      <trkpt lat="45.79657" lon="6.97533">
        <ele>1631</ele>
        <time>2022-08-27T08:47:13Z</time>
      </trkpt>
      <trkpt lat="45.79658" lon="6.97533">
        <ele>1631</ele>
        <time>2022-08-27T08:47:14Z</time>
      </trkpt>
      <trkpt lat="45.7966" lon="6.97534">
        <ele>1631</ele>
        <time>2022-08-27T08:47:16Z</time>
      </trkpt>
      <trkpt lat="45.79661" lon="6.97534">
        <ele>1631</ele>
        <time>2022-08-27T08:47:17Z</time>
      </trkpt>
      <trkpt lat="45.79662" lon="6.97534">
        <ele>1631</ele>
        <time>2022-08-27T08:47:18Z</time>
      </trkpt>
      <trkpt lat="45.79664" lon="6.97535">
        <ele>1631</ele>
        <time>2022-08-27T08:47:19Z</time>
      </trkpt>
      <trkpt lat="45.79673" lon="6.9754">
        <ele>1631</ele>
        <time>2022-08-27T08:47:26Z</time>
      </trkpt>
      <trkpt lat="45.79674" lon="6.97541">
        <ele>1631</ele>
        <time>2022-08-27T08:47:27Z</time>
      </trkpt>
      <trkpt lat="45.79676" lon="6.97542">
        <ele>1632</ele>
        <time>2022-08-27T08:47:28Z</time>
      </trkpt>
      <trkpt lat="45.79677" lon="6.97543">
        <ele>1632</ele>
        <time>2022-08-27T08:47:30Z</time>
      </trkpt>
      <trkpt lat="45.79678" lon="6.97544">
        <ele>1632</ele>
        <time>2022-08-27T08:47:31Z</time>
      </trkpt>
      <trkpt lat="45.7968" lon="6.97545">
        <ele>1632</ele>
        <time>2022-08-27T08:47:32Z</time>
      </trkpt>
      <trkpt lat="45.79681" lon="6.97546">
        <ele>1632</ele>
        <time>2022-08-27T08:47:33Z</time>
      </trkpt>
      <trkpt lat="45.79682" lon="6.97546">
        <ele>1633</ele>
        <time>2022-08-27T08:47:35Z</time>
      </trkpt>
      <trkpt lat="45.79683" lon="6.97547">
        <ele>1633</ele>
        <time>2022-08-27T08:47:36Z</time>
      </trkpt>
      <trkpt lat="45.79684" lon="6.97547">
        <ele>1633</ele>
        <time>2022-08-27T08:47:37Z</time>
      </trkpt>
      <trkpt lat="45.79685" lon="6.97547">
        <ele>1633</ele>
        <time>2022-08-27T08:47:38Z</time>
      </trkpt>
      <trkpt lat="45.79685" lon="6.97548">
        <ele>1634</ele>
        <time>2022-08-27T08:47:40Z</time>
      </trkpt>
      <trkpt lat="45.79686" lon="6.97548">
        <ele>1634</ele>
        <time>2022-08-27T08:47:41Z</time>
      </trkpt>
      <trkpt lat="45.79691" lon="6.97551">
        <ele>1634</ele>
        <time>2022-08-27T08:47:42Z</time>
      </trkpt>
      <trkpt lat="45.79701" lon="6.97554">
        <ele>1635</ele>
        <time>2022-08-27T08:47:52Z</time>
      </trkpt>
      <trkpt lat="45.79702" lon="6.97556">
        <ele>1635</ele>
        <time>2022-08-27T08:47:53Z</time>
      </trkpt>
      <trkpt lat="45.79704" lon="6.97558">
        <ele>1636</ele>
        <time>2022-08-27T08:47:54Z</time>
      </trkpt>
      <trkpt lat="45.79706" lon="6.97559">
        <ele>1636</ele>
        <time>2022-08-27T08:47:55Z</time>
      </trkpt>
      <trkpt lat="45.79707" lon="6.97561">
        <ele>1636</ele>
        <time>2022-08-27T08:47:56Z</time>
      </trkpt>
      <trkpt lat="45.79709" lon="6.97563">
        <ele>1637</ele>
        <time>2022-08-27T08:47:57Z</time>
      </trkpt>
      <trkpt lat="45.7971" lon="6.97564">
        <ele>1637</ele>
        <time>2022-08-27T08:47:58Z</time>
      </trkpt>
      <trkpt lat="45.79712" lon="6.97564">
        <ele>1637</ele>
        <time>2022-08-27T08:48:00Z</time>
      </trkpt>
      <trkpt lat="45.79713" lon="6.97565">
        <ele>1637</ele>
        <time>2022-08-27T08:48:01Z</time>
      </trkpt>
      <trkpt lat="45.79715" lon="6.97566">
        <ele>1637</ele>
        <time>2022-08-27T08:48:02Z</time>
      </trkpt>
      <trkpt lat="45.79716" lon="6.97567">
        <ele>1637</ele>
        <time>2022-08-27T08:48:04Z</time>
      </trkpt>
      <trkpt lat="45.79718" lon="6.97567">
        <ele>1638</ele>
        <time>2022-08-27T08:48:05Z</time>
      </trkpt>
      <trkpt lat="45.79719" lon="6.97567">
        <ele>1638</ele>
        <time>2022-08-27T08:48:06Z</time>
      </trkpt>
      <trkpt lat="45.7972" lon="6.97566">
        <ele>1638</ele>
        <time>2022-08-27T08:48:08Z</time>
      </trkpt>
      <trkpt lat="45.79721" lon="6.97566">
        <ele>1638</ele>
        <time>2022-08-27T08:48:09Z</time>
      </trkpt>
      <trkpt lat="45.79722" lon="6.97565">
        <ele>1639</ele>
        <time>2022-08-27T08:48:10Z</time>
      </trkpt>
      <trkpt lat="45.79723" lon="6.97565">
        <ele>1639</ele>
        <time>2022-08-27T08:48:11Z</time>
      </trkpt>
      <trkpt lat="45.79724" lon="6.97564">
        <ele>1639</ele>
        <time>2022-08-27T08:48:13Z</time>
      </trkpt>
      <trkpt lat="45.79725" lon="6.97564">
        <ele>1639</ele>
        <time>2022-08-27T08:48:14Z</time>
      </trkpt>
      <trkpt lat="45.79726" lon="6.97563">
        <ele>1639</ele>
        <time>2022-08-27T08:48:15Z</time>
      </trkpt>
      <trkpt lat="45.79728" lon="6.97565">
        <ele>1640</ele>
        <time>2022-08-27T08:48:16Z</time>
      </trkpt>
      <trkpt lat="45.7973" lon="6.97566">
        <ele>1640</ele>
        <time>2022-08-27T08:48:18Z</time>
      </trkpt>
      <trkpt lat="45.79731" lon="6.97568">
        <ele>1640</ele>
        <time>2022-08-27T08:48:19Z</time>
      </trkpt>
      <trkpt lat="45.79737" lon="6.97575">
        <ele>1640</ele>
        <time>2022-08-27T08:48:20Z</time>
      </trkpt>
      <trkpt lat="45.79739" lon="6.97577">
        <ele>1640</ele>
        <time>2022-08-27T08:48:21Z</time>
      </trkpt>
      <trkpt lat="45.7974" lon="6.97579">
        <ele>1640</ele>
        <time>2022-08-27T08:48:23Z</time>
      </trkpt>
      <trkpt lat="45.79742" lon="6.97581">
        <ele>1640</ele>
        <time>2022-08-27T08:48:24Z</time>
      </trkpt>
      <trkpt lat="45.79743" lon="6.97583">
        <ele>1641</ele>
        <time>2022-08-27T08:48:25Z</time>
      </trkpt>
      <trkpt lat="45.79744" lon="6.97584">
        <ele>1642</ele>
        <time>2022-08-27T08:48:26Z</time>
      </trkpt>
      <trkpt lat="45.79745" lon="6.97585">
        <ele>1642</ele>
        <time>2022-08-27T08:48:27Z</time>
      </trkpt>
      <trkpt lat="45.79745" lon="6.97586">
        <ele>1642</ele>
        <time>2022-08-27T08:48:28Z</time>
      </trkpt>
      <trkpt lat="45.79746" lon="6.97587">
        <ele>1642</ele>
        <time>2022-08-27T08:48:30Z</time>
      </trkpt>
      <trkpt lat="45.79747" lon="6.97588">
        <ele>1642</ele>
        <time>2022-08-27T08:48:31Z</time>
      </trkpt>
      <trkpt lat="45.79748" lon="6.97588">
        <ele>1642</ele>
        <time>2022-08-27T08:48:32Z</time>
      </trkpt>
      <trkpt lat="45.79748" lon="6.97589">
        <ele>1642</ele>
        <time>2022-08-27T08:48:33Z</time>
      </trkpt>
      <trkpt lat="45.79749" lon="6.9759">
        <ele>1643</ele>
        <time>2022-08-27T08:48:35Z</time>
      </trkpt>
      <trkpt lat="45.7975" lon="6.97591">
        <ele>1643</ele>
        <time>2022-08-27T08:48:36Z</time>
      </trkpt>
      <trkpt lat="45.79751" lon="6.97592">
        <ele>1643</ele>
        <time>2022-08-27T08:48:37Z</time>
      </trkpt>
      <trkpt lat="45.79752" lon="6.97593">
        <ele>1643</ele>
        <time>2022-08-27T08:48:38Z</time>
      </trkpt>
      <trkpt lat="45.79753" lon="6.97593">
        <ele>1643</ele>
        <time>2022-08-27T08:48:39Z</time>
      </trkpt>
      <trkpt lat="45.79754" lon="6.97594">
        <ele>1643</ele>
        <time>2022-08-27T08:48:40Z</time>
      </trkpt>
      <trkpt lat="45.79756" lon="6.97595">
        <ele>1644</ele>
        <time>2022-08-27T08:48:42Z</time>
      </trkpt>
      <trkpt lat="45.79757" lon="6.97595">
        <ele>1644</ele>
        <time>2022-08-27T08:48:44Z</time>
      </trkpt>
      <trkpt lat="45.79758" lon="6.97596">
        <ele>1645</ele>
        <time>2022-08-27T08:48:45Z</time>
      </trkpt>
      <trkpt lat="45.79759" lon="6.97597">
        <ele>1645</ele>
        <time>2022-08-27T08:48:46Z</time>
      </trkpt>
      <trkpt lat="45.7976" lon="6.97597">
        <ele>1645</ele>
        <time>2022-08-27T08:48:47Z</time>
      </trkpt>
      <trkpt lat="45.79762" lon="6.97598">
        <ele>1646</ele>
        <time>2022-08-27T08:48:49Z</time>
      </trkpt>
      <trkpt lat="45.79764" lon="6.97599">
        <ele>1646</ele>
        <time>2022-08-27T08:48:50Z</time>
      </trkpt>
      <trkpt lat="45.79766" lon="6.97599">
        <ele>1646</ele>
        <time>2022-08-27T08:48:51Z</time>
      </trkpt>
      <trkpt lat="45.79771" lon="6.97602">
        <ele>1646</ele>
        <time>2022-08-27T08:48:52Z</time>
      </trkpt>
      <trkpt lat="45.79772" lon="6.97604">
        <ele>1646</ele>
        <time>2022-08-27T08:48:54Z</time>
      </trkpt>
      <trkpt lat="45.79772" lon="6.97605">
        <ele>1646</ele>
        <time>2022-08-27T08:48:55Z</time>
      </trkpt>
      <trkpt lat="45.79773" lon="6.97607">
        <ele>1646</ele>
        <time>2022-08-27T08:48:56Z</time>
      </trkpt>
      <trkpt lat="45.79774" lon="6.97608">
        <ele>1646</ele>
        <time>2022-08-27T08:48:57Z</time>
      </trkpt>
      <trkpt lat="45.79774" lon="6.97609">
        <ele>1647</ele>
        <time>2022-08-27T08:48:59Z</time>
      </trkpt>
      <trkpt lat="45.79775" lon="6.97611">
        <ele>1647</ele>
        <time>2022-08-27T08:49:01Z</time>
      </trkpt>
      <trkpt lat="45.79776" lon="6.97612">
        <ele>1647</ele>
        <time>2022-08-27T08:49:02Z</time>
      </trkpt>
      <trkpt lat="45.79783" lon="6.97624">
        <ele>1648</ele>
        <time>2022-08-27T08:49:07Z</time>
      </trkpt>
      <trkpt lat="45.79783" lon="6.97626">
        <ele>1648</ele>
        <time>2022-08-27T08:49:08Z</time>
      </trkpt>
      <trkpt lat="45.79783" lon="6.97628">
        <ele>1648</ele>
        <time>2022-08-27T08:49:09Z</time>
      </trkpt>
      <trkpt lat="45.79783" lon="6.9763">
        <ele>1648</ele>
        <time>2022-08-27T08:49:10Z</time>
      </trkpt>
      <trkpt lat="45.79782" lon="6.97632">
        <ele>1649</ele>
        <time>2022-08-27T08:49:11Z</time>
      </trkpt>
      <trkpt lat="45.79782" lon="6.97634">
        <ele>1649</ele>
        <time>2022-08-27T08:49:12Z</time>
      </trkpt>
      <trkpt lat="45.79782" lon="6.97636">
        <ele>1649</ele>
        <time>2022-08-27T08:49:13Z</time>
      </trkpt>
      <trkpt lat="45.79782" lon="6.97638">
        <ele>1649</ele>
        <time>2022-08-27T08:49:14Z</time>
      </trkpt>
      <trkpt lat="45.79783" lon="6.9764">
        <ele>1649</ele>
        <time>2022-08-27T08:49:15Z</time>
      </trkpt>
      <trkpt lat="45.79784" lon="6.97642">
        <ele>1649</ele>
        <time>2022-08-27T08:49:17Z</time>
      </trkpt>
      <trkpt lat="45.79784" lon="6.97645">
        <ele>1649</ele>
        <time>2022-08-27T08:49:18Z</time>
      </trkpt>
      <trkpt lat="45.79785" lon="6.97647">
        <ele>1649</ele>
        <time>2022-08-27T08:49:19Z</time>
      </trkpt>
      <trkpt lat="45.79786" lon="6.9765">
        <ele>1649</ele>
        <time>2022-08-27T08:49:20Z</time>
      </trkpt>
      <trkpt lat="45.79787" lon="6.97652">
        <ele>1650</ele>
        <time>2022-08-27T08:49:22Z</time>
      </trkpt>
      <trkpt lat="45.79789" lon="6.97654">
        <ele>1650</ele>
        <time>2022-08-27T08:49:24Z</time>
      </trkpt>
      <trkpt lat="45.7979" lon="6.97656">
        <ele>1650</ele>
        <time>2022-08-27T08:49:25Z</time>
      </trkpt>
      <trkpt lat="45.79791" lon="6.97658">
        <ele>1651</ele>
        <time>2022-08-27T08:49:26Z</time>
      </trkpt>
      <trkpt lat="45.79792" lon="6.9766">
        <ele>1652</ele>
        <time>2022-08-27T08:49:27Z</time>
      </trkpt>
      <trkpt lat="45.79793" lon="6.97662">
        <ele>1652</ele>
        <time>2022-08-27T08:49:29Z</time>
      </trkpt>
      <trkpt lat="45.79794" lon="6.97663">
        <ele>1652</ele>
        <time>2022-08-27T08:49:30Z</time>
      </trkpt>
      <trkpt lat="45.79794" lon="6.97665">
        <ele>1652</ele>
        <time>2022-08-27T08:49:31Z</time>
      </trkpt>
      <trkpt lat="45.79795" lon="6.97666">
        <ele>1652</ele>
        <time>2022-08-27T08:49:32Z</time>
      </trkpt>
      <trkpt lat="45.79796" lon="6.97668">
        <ele>1652</ele>
        <time>2022-08-27T08:49:34Z</time>
      </trkpt>
      <trkpt lat="45.79797" lon="6.97669">
        <ele>1652</ele>
        <time>2022-08-27T08:49:35Z</time>
      </trkpt>
      <trkpt lat="45.79798" lon="6.97671">
        <ele>1652</ele>
        <time>2022-08-27T08:49:36Z</time>
      </trkpt>
      <trkpt lat="45.79799" lon="6.97673">
        <ele>1653</ele>
        <time>2022-08-27T08:49:37Z</time>
      </trkpt>
      <trkpt lat="45.79801" lon="6.97676">
        <ele>1653</ele>
        <time>2022-08-27T08:49:39Z</time>
      </trkpt>
      <trkpt lat="45.79803" lon="6.97679">
        <ele>1654</ele>
        <time>2022-08-27T08:49:41Z</time>
      </trkpt>
      <trkpt lat="45.79804" lon="6.97681">
        <ele>1654</ele>
        <time>2022-08-27T08:49:42Z</time>
      </trkpt>
      <trkpt lat="45.79805" lon="6.97682">
        <ele>1654</ele>
        <time>2022-08-27T08:49:43Z</time>
      </trkpt>
      <trkpt lat="45.79806" lon="6.97683">
        <ele>1654</ele>
        <time>2022-08-27T08:49:44Z</time>
      </trkpt>
      <trkpt lat="45.79807" lon="6.97684">
        <ele>1655</ele>
        <time>2022-08-27T08:49:46Z</time>
      </trkpt>
      <trkpt lat="45.79808" lon="6.97684">
        <ele>1655</ele>
        <time>2022-08-27T08:49:47Z</time>
      </trkpt>
      <trkpt lat="45.79809" lon="6.97685">
        <ele>1655</ele>
        <time>2022-08-27T08:49:49Z</time>
      </trkpt>
      <trkpt lat="45.7981" lon="6.97686">
        <ele>1655</ele>
        <time>2022-08-27T08:49:50Z</time>
      </trkpt>
      <trkpt lat="45.79811" lon="6.97687">
        <ele>1656</ele>
        <time>2022-08-27T08:49:51Z</time>
      </trkpt>
      <trkpt lat="45.79812" lon="6.97688">
        <ele>1656</ele>
        <time>2022-08-27T08:49:53Z</time>
      </trkpt>
      <trkpt lat="45.79813" lon="6.97689">
        <ele>1656</ele>
        <time>2022-08-27T08:49:54Z</time>
      </trkpt>
      <trkpt lat="45.79819" lon="6.97699">
        <ele>1657</ele>
        <time>2022-08-27T08:50:00Z</time>
      </trkpt>
      <trkpt lat="45.79828" lon="6.97707">
        <ele>1658</ele>
        <time>2022-08-27T08:50:07Z</time>
      </trkpt>
      <trkpt lat="45.79835" lon="6.97716">
        <ele>1659</ele>
        <time>2022-08-27T08:50:12Z</time>
      </trkpt>
      <trkpt lat="45.79835" lon="6.97716">
        <ele>1659</ele>
        <time>2022-08-27T08:50:13Z</time>
      </trkpt>
      <trkpt lat="45.79836" lon="6.97717">
        <ele>1659</ele>
        <time>2022-08-27T08:50:14Z</time>
      </trkpt>
      <trkpt lat="45.79836" lon="6.97718">
        <ele>1660</ele>
        <time>2022-08-27T08:50:15Z</time>
      </trkpt>
      <trkpt lat="45.79837" lon="6.97718">
        <ele>1660</ele>
        <time>2022-08-27T08:50:17Z</time>
      </trkpt>
      <trkpt lat="45.79838" lon="6.97719">
        <ele>1661</ele>
        <time>2022-08-27T08:50:19Z</time>
      </trkpt>
      <trkpt lat="45.79838" lon="6.9772">
        <ele>1661</ele>
        <time>2022-08-27T08:50:20Z</time>
      </trkpt>
      <trkpt lat="45.79839" lon="6.9772">
        <ele>1660</ele>
        <time>2022-08-27T08:50:21Z</time>
      </trkpt>
      <trkpt lat="45.79844" lon="6.97727">
        <ele>1661</ele>
        <time>2022-08-27T08:50:22Z</time>
      </trkpt>
      <trkpt lat="45.79845" lon="6.97728">
        <ele>1661</ele>
        <time>2022-08-27T08:50:24Z</time>
      </trkpt>
      <trkpt lat="45.79846" lon="6.9773">
        <ele>1661</ele>
        <time>2022-08-27T08:50:25Z</time>
      </trkpt>
      <trkpt lat="45.79847" lon="6.97731">
        <ele>1662</ele>
        <time>2022-08-27T08:50:26Z</time>
      </trkpt>
      <trkpt lat="45.79848" lon="6.97733">
        <ele>1662</ele>
        <time>2022-08-27T08:50:27Z</time>
      </trkpt>
      <trkpt lat="45.79849" lon="6.97734">
        <ele>1662</ele>
        <time>2022-08-27T08:50:28Z</time>
      </trkpt>
      <trkpt lat="45.7985" lon="6.97736">
        <ele>1662</ele>
        <time>2022-08-27T08:50:29Z</time>
      </trkpt>
      <trkpt lat="45.79851" lon="6.97737">
        <ele>1662</ele>
        <time>2022-08-27T08:50:30Z</time>
      </trkpt>
      <trkpt lat="45.79853" lon="6.97738">
        <ele>1662</ele>
        <time>2022-08-27T08:50:31Z</time>
      </trkpt>
      <trkpt lat="45.79854" lon="6.9774">
        <ele>1662</ele>
        <time>2022-08-27T08:50:32Z</time>
      </trkpt>
      <trkpt lat="45.79855" lon="6.97741">
        <ele>1662</ele>
        <time>2022-08-27T08:50:34Z</time>
      </trkpt>
      <trkpt lat="45.79856" lon="6.97743">
        <ele>1662</ele>
        <time>2022-08-27T08:50:35Z</time>
      </trkpt>
      <trkpt lat="45.79857" lon="6.97744">
        <ele>1662</ele>
        <time>2022-08-27T08:50:36Z</time>
      </trkpt>
      <trkpt lat="45.79858" lon="6.97745">
        <ele>1664</ele>
        <time>2022-08-27T08:50:38Z</time>
      </trkpt>
      <trkpt lat="45.79859" lon="6.97746">
        <ele>1664</ele>
        <time>2022-08-27T08:50:40Z</time>
      </trkpt>
      <trkpt lat="45.79861" lon="6.97747">
        <ele>1664</ele>
        <time>2022-08-27T08:50:41Z</time>
      </trkpt>
      <trkpt lat="45.79862" lon="6.97748">
        <ele>1664</ele>
        <time>2022-08-27T08:50:42Z</time>
      </trkpt>
      <trkpt lat="45.79863" lon="6.9775">
        <ele>1665</ele>
        <time>2022-08-27T08:50:43Z</time>
      </trkpt>
      <trkpt lat="45.79864" lon="6.97751">
        <ele>1665</ele>
        <time>2022-08-27T08:50:44Z</time>
      </trkpt>
      <trkpt lat="45.79865" lon="6.97752">
        <ele>1665</ele>
        <time>2022-08-27T08:50:45Z</time>
      </trkpt>
      <trkpt lat="45.79866" lon="6.97753">
        <ele>1665</ele>
        <time>2022-08-27T08:50:46Z</time>
      </trkpt>
      <trkpt lat="45.79867" lon="6.97753">
        <ele>1666</ele>
        <time>2022-08-27T08:50:47Z</time>
      </trkpt>
      <trkpt lat="45.79867" lon="6.97754">
        <ele>1666</ele>
        <time>2022-08-27T08:50:48Z</time>
      </trkpt>
      <trkpt lat="45.79868" lon="6.97755">
        <ele>1666</ele>
        <time>2022-08-27T08:50:50Z</time>
      </trkpt>
      <trkpt lat="45.79869" lon="6.97756">
        <ele>1666</ele>
        <time>2022-08-27T08:50:51Z</time>
      </trkpt>
      <trkpt lat="45.7987" lon="6.97757">
        <ele>1667</ele>
        <time>2022-08-27T08:50:52Z</time>
      </trkpt>
      <trkpt lat="45.7987" lon="6.97757">
        <ele>1667</ele>
        <time>2022-08-27T08:50:53Z</time>
      </trkpt>
      <trkpt lat="45.79871" lon="6.97758">
        <ele>1667</ele>
        <time>2022-08-27T08:50:55Z</time>
      </trkpt>
      <trkpt lat="45.79872" lon="6.97759">
        <ele>1667</ele>
        <time>2022-08-27T08:50:56Z</time>
      </trkpt>
      <trkpt lat="45.79873" lon="6.9776">
        <ele>1667</ele>
        <time>2022-08-27T08:50:57Z</time>
      </trkpt>
      <trkpt lat="45.7988" lon="6.97769">
        <ele>1668</ele>
        <time>2022-08-27T08:51:02Z</time>
      </trkpt>
      <trkpt lat="45.79887" lon="6.97778">
        <ele>1669</ele>
        <time>2022-08-27T08:51:07Z</time>
      </trkpt>
      <trkpt lat="45.79895" lon="6.97787">
        <ele>1670</ele>
        <time>2022-08-27T08:51:15Z</time>
      </trkpt>
      <trkpt lat="45.79897" lon="6.97789">
        <ele>1671</ele>
        <time>2022-08-27T08:51:18Z</time>
      </trkpt>
      <trkpt lat="45.79898" lon="6.97791">
        <ele>1671</ele>
        <time>2022-08-27T08:51:19Z</time>
      </trkpt>
      <trkpt lat="45.799" lon="6.97792">
        <ele>1671</ele>
        <time>2022-08-27T08:51:20Z</time>
      </trkpt>
      <trkpt lat="45.79901" lon="6.97794">
        <ele>1672</ele>
        <time>2022-08-27T08:51:22Z</time>
      </trkpt>
      <trkpt lat="45.79903" lon="6.97796">
        <ele>1672</ele>
        <time>2022-08-27T08:51:23Z</time>
      </trkpt>
      <trkpt lat="45.79904" lon="6.97797">
        <ele>1672</ele>
        <time>2022-08-27T08:51:24Z</time>
      </trkpt>
      <trkpt lat="45.79905" lon="6.97798">
        <ele>1672</ele>
        <time>2022-08-27T08:51:25Z</time>
      </trkpt>
      <trkpt lat="45.79906" lon="6.97799">
        <ele>1672</ele>
        <time>2022-08-27T08:51:27Z</time>
      </trkpt>
      <trkpt lat="45.79907" lon="6.978">
        <ele>1672</ele>
        <time>2022-08-27T08:51:28Z</time>
      </trkpt>
      <trkpt lat="45.79908" lon="6.97801">
        <ele>1672</ele>
        <time>2022-08-27T08:51:29Z</time>
      </trkpt>
      <trkpt lat="45.79908" lon="6.97802">
        <ele>1673</ele>
        <time>2022-08-27T08:51:30Z</time>
      </trkpt>
      <trkpt lat="45.79909" lon="6.97803">
        <ele>1673</ele>
        <time>2022-08-27T08:51:31Z</time>
      </trkpt>
      <trkpt lat="45.7991" lon="6.97804">
        <ele>1673</ele>
        <time>2022-08-27T08:51:32Z</time>
      </trkpt>
      <trkpt lat="45.79912" lon="6.97805">
        <ele>1673</ele>
        <time>2022-08-27T08:51:33Z</time>
      </trkpt>
      <trkpt lat="45.79913" lon="6.97806">
        <ele>1673</ele>
        <time>2022-08-27T08:51:34Z</time>
      </trkpt>
      <trkpt lat="45.79914" lon="6.97807">
        <ele>1673</ele>
        <time>2022-08-27T08:51:35Z</time>
      </trkpt>
      <trkpt lat="45.79915" lon="6.97808">
        <ele>1674</ele>
        <time>2022-08-27T08:51:37Z</time>
      </trkpt>
      <trkpt lat="45.79916" lon="6.97809">
        <ele>1674</ele>
        <time>2022-08-27T08:51:38Z</time>
      </trkpt>
      <trkpt lat="45.79918" lon="6.9781">
        <ele>1674</ele>
        <time>2022-08-27T08:51:39Z</time>
      </trkpt>
      <trkpt lat="45.79919" lon="6.97811">
        <ele>1674</ele>
        <time>2022-08-27T08:51:40Z</time>
      </trkpt>
      <trkpt lat="45.79919" lon="6.97812">
        <ele>1675</ele>
        <time>2022-08-27T08:51:42Z</time>
      </trkpt>
      <trkpt lat="45.7992" lon="6.97814">
        <ele>1675</ele>
        <time>2022-08-27T08:51:43Z</time>
      </trkpt>
      <trkpt lat="45.79921" lon="6.97816">
        <ele>1675</ele>
        <time>2022-08-27T08:51:44Z</time>
      </trkpt>
      <trkpt lat="45.79921" lon="6.97817">
        <ele>1675</ele>
        <time>2022-08-27T08:51:45Z</time>
      </trkpt>
      <trkpt lat="45.79922" lon="6.97819">
        <ele>1675</ele>
        <time>2022-08-27T08:51:47Z</time>
      </trkpt>
      <trkpt lat="45.79923" lon="6.97821">
        <ele>1675</ele>
        <time>2022-08-27T08:51:48Z</time>
      </trkpt>
      <trkpt lat="45.79923" lon="6.97822">
        <ele>1675</ele>
        <time>2022-08-27T08:51:49Z</time>
      </trkpt>
      <trkpt lat="45.79924" lon="6.97824">
        <ele>1676</ele>
        <time>2022-08-27T08:51:50Z</time>
      </trkpt>
      <trkpt lat="45.79925" lon="6.97826">
        <ele>1676</ele>
        <time>2022-08-27T08:51:52Z</time>
      </trkpt>
      <trkpt lat="45.79926" lon="6.97829">
        <ele>1677</ele>
        <time>2022-08-27T08:51:53Z</time>
      </trkpt>
      <trkpt lat="45.79927" lon="6.97831">
        <ele>1677</ele>
        <time>2022-08-27T08:51:54Z</time>
      </trkpt>
      <trkpt lat="45.79929" lon="6.97833">
        <ele>1677</ele>
        <time>2022-08-27T08:51:55Z</time>
      </trkpt>
      <trkpt lat="45.7993" lon="6.97835">
        <ele>1677</ele>
        <time>2022-08-27T08:51:56Z</time>
      </trkpt>
      <trkpt lat="45.79936" lon="6.97844">
        <ele>1679</ele>
        <time>2022-08-27T08:52:01Z</time>
      </trkpt>
      <trkpt lat="45.79943" lon="6.97856">
        <ele>1679</ele>
        <time>2022-08-27T08:52:08Z</time>
      </trkpt>
      <trkpt lat="45.79943" lon="6.97858">
        <ele>1679</ele>
        <time>2022-08-27T08:52:09Z</time>
      </trkpt>
      <trkpt lat="45.79943" lon="6.97861">
        <ele>1679</ele>
        <time>2022-08-27T08:52:11Z</time>
      </trkpt>
      <trkpt lat="45.79943" lon="6.97864">
        <ele>1679</ele>
        <time>2022-08-27T08:52:13Z</time>
      </trkpt>
      <trkpt lat="45.79944" lon="6.97866">
        <ele>1679</ele>
        <time>2022-08-27T08:52:14Z</time>
      </trkpt>
      <trkpt lat="45.79944" lon="6.97869">
        <ele>1680</ele>
        <time>2022-08-27T08:52:15Z</time>
      </trkpt>
      <trkpt lat="45.79946" lon="6.97871">
        <ele>1680</ele>
        <time>2022-08-27T08:52:16Z</time>
      </trkpt>
      <trkpt lat="45.79948" lon="6.97873">
        <ele>1680</ele>
        <time>2022-08-27T08:52:18Z</time>
      </trkpt>
      <trkpt lat="45.7995" lon="6.97874">
        <ele>1681</ele>
        <time>2022-08-27T08:52:20Z</time>
      </trkpt>
      <trkpt lat="45.79952" lon="6.97876">
        <ele>1681</ele>
        <time>2022-08-27T08:52:21Z</time>
      </trkpt>
      <trkpt lat="45.7996" lon="6.97883">
        <ele>1682</ele>
        <time>2022-08-27T08:52:27Z</time>
      </trkpt>
      <trkpt lat="45.7996" lon="6.97884">
        <ele>1682</ele>
        <time>2022-08-27T08:52:30Z</time>
      </trkpt>
      <trkpt lat="45.79961" lon="6.97885">
        <ele>1682</ele>
        <time>2022-08-27T08:52:31Z</time>
      </trkpt>
      <trkpt lat="45.79962" lon="6.97886">
        <ele>1683</ele>
        <time>2022-08-27T08:52:32Z</time>
      </trkpt>
      <trkpt lat="45.79963" lon="6.97887">
        <ele>1683</ele>
        <time>2022-08-27T08:52:34Z</time>
      </trkpt>
      <trkpt lat="45.79964" lon="6.97887">
        <ele>1683</ele>
        <time>2022-08-27T08:52:35Z</time>
      </trkpt>
      <trkpt lat="45.79964" lon="6.97888">
        <ele>1684</ele>
        <time>2022-08-27T08:52:36Z</time>
      </trkpt>
      <trkpt lat="45.79965" lon="6.97889">
        <ele>1684</ele>
        <time>2022-08-27T08:52:37Z</time>
      </trkpt>
      <trkpt lat="45.79966" lon="6.9789">
        <ele>1684</ele>
        <time>2022-08-27T08:52:39Z</time>
      </trkpt>
      <trkpt lat="45.79967" lon="6.9789">
        <ele>1684</ele>
        <time>2022-08-27T08:52:40Z</time>
      </trkpt>
      <trkpt lat="45.79967" lon="6.97891">
        <ele>1684</ele>
        <time>2022-08-27T08:52:41Z</time>
      </trkpt>
      <trkpt lat="45.79969" lon="6.97892">
        <ele>1684</ele>
        <time>2022-08-27T08:52:42Z</time>
      </trkpt>
      <trkpt lat="45.7997" lon="6.97894">
        <ele>1685</ele>
        <time>2022-08-27T08:52:44Z</time>
      </trkpt>
      <trkpt lat="45.79971" lon="6.97895">
        <ele>1685</ele>
        <time>2022-08-27T08:52:46Z</time>
      </trkpt>
      <trkpt lat="45.79972" lon="6.97897">
        <ele>1685</ele>
        <time>2022-08-27T08:52:47Z</time>
      </trkpt>
      <trkpt lat="45.79973" lon="6.97898">
        <ele>1685</ele>
        <time>2022-08-27T08:52:48Z</time>
      </trkpt>
      <trkpt lat="45.79975" lon="6.97899">
        <ele>1685</ele>
        <time>2022-08-27T08:52:49Z</time>
      </trkpt>
      <trkpt lat="45.79975" lon="6.97901">
        <ele>1686</ele>
        <time>2022-08-27T08:52:51Z</time>
      </trkpt>
      <trkpt lat="45.79975" lon="6.97903">
        <ele>1686</ele>
        <time>2022-08-27T08:52:52Z</time>
      </trkpt>
      <trkpt lat="45.79975" lon="6.97904">
        <ele>1686</ele>
        <time>2022-08-27T08:52:53Z</time>
      </trkpt>
      <trkpt lat="45.79976" lon="6.97906">
        <ele>1686</ele>
        <time>2022-08-27T08:52:54Z</time>
      </trkpt>
      <trkpt lat="45.79976" lon="6.97908">
        <ele>1686</ele>
        <time>2022-08-27T08:52:56Z</time>
      </trkpt>
      <trkpt lat="45.79976" lon="6.9791">
        <ele>1686</ele>
        <time>2022-08-27T08:52:57Z</time>
      </trkpt>
      <trkpt lat="45.79976" lon="6.97911">
        <ele>1686</ele>
        <time>2022-08-27T08:52:58Z</time>
      </trkpt>
      <trkpt lat="45.79977" lon="6.97913">
        <ele>1687</ele>
        <time>2022-08-27T08:52:59Z</time>
      </trkpt>
      <trkpt lat="45.79977" lon="6.97915">
        <ele>1687</ele>
        <time>2022-08-27T08:53:01Z</time>
      </trkpt>
      <trkpt lat="45.79978" lon="6.97917">
        <ele>1688</ele>
        <time>2022-08-27T08:53:03Z</time>
      </trkpt>
      <trkpt lat="45.79978" lon="6.97919">
        <ele>1688</ele>
        <time>2022-08-27T08:53:04Z</time>
      </trkpt>
      <trkpt lat="45.79979" lon="6.97921">
        <ele>1688</ele>
        <time>2022-08-27T08:53:05Z</time>
      </trkpt>
      <trkpt lat="45.79979" lon="6.97923">
        <ele>1688</ele>
        <time>2022-08-27T08:53:06Z</time>
      </trkpt>
      <trkpt lat="45.7998" lon="6.97925">
        <ele>1688</ele>
        <time>2022-08-27T08:53:07Z</time>
      </trkpt>
      <trkpt lat="45.79981" lon="6.97927">
        <ele>1689</ele>
        <time>2022-08-27T08:53:08Z</time>
      </trkpt>
      <trkpt lat="45.79981" lon="6.97928">
        <ele>1689</ele>
        <time>2022-08-27T08:53:09Z</time>
      </trkpt>
      <trkpt lat="45.79982" lon="6.97928">
        <ele>1690</ele>
        <time>2022-08-27T08:53:10Z</time>
      </trkpt>
      <trkpt lat="45.79982" lon="6.97929">
        <ele>1690</ele>
        <time>2022-08-27T08:53:11Z</time>
      </trkpt>
      <trkpt lat="45.79983" lon="6.9793">
        <ele>1690</ele>
        <time>2022-08-27T08:53:13Z</time>
      </trkpt>
      <trkpt lat="45.79984" lon="6.97931">
        <ele>1690</ele>
        <time>2022-08-27T08:53:14Z</time>
      </trkpt>
      <trkpt lat="45.79984" lon="6.97932">
        <ele>1690</ele>
        <time>2022-08-27T08:53:15Z</time>
      </trkpt>
      <trkpt lat="45.79985" lon="6.97933">
        <ele>1690</ele>
        <time>2022-08-27T08:53:16Z</time>
      </trkpt>
      <trkpt lat="45.79986" lon="6.97933">
        <ele>1690</ele>
        <time>2022-08-27T08:53:18Z</time>
      </trkpt>
      <trkpt lat="45.79986" lon="6.97934">
        <ele>1691</ele>
        <time>2022-08-27T08:53:20Z</time>
      </trkpt>
      <trkpt lat="45.79987" lon="6.97935">
        <ele>1691</ele>
        <time>2022-08-27T08:53:21Z</time>
      </trkpt>
      <trkpt lat="45.79988" lon="6.97936">
        <ele>1691</ele>
        <time>2022-08-27T08:53:22Z</time>
      </trkpt>
      <trkpt lat="45.79988" lon="6.97937">
        <ele>1691</ele>
        <time>2022-08-27T08:53:23Z</time>
      </trkpt>
      <trkpt lat="45.7999" lon="6.9794">
        <ele>1691</ele>
        <time>2022-08-27T08:53:24Z</time>
      </trkpt>
      <trkpt lat="45.79991" lon="6.97943">
        <ele>1691</ele>
        <time>2022-08-27T08:53:25Z</time>
      </trkpt>
      <trkpt lat="45.79993" lon="6.97946">
        <ele>1691</ele>
        <time>2022-08-27T08:53:27Z</time>
      </trkpt>
      <trkpt lat="45.79994" lon="6.97949">
        <ele>1691</ele>
        <time>2022-08-27T08:53:28Z</time>
      </trkpt>
      <trkpt lat="45.79995" lon="6.97949">
        <ele>1692</ele>
        <time>2022-08-27T08:53:29Z</time>
      </trkpt>
      <trkpt lat="45.79995" lon="6.9795">
        <ele>1692</ele>
        <time>2022-08-27T08:53:30Z</time>
      </trkpt>
      <trkpt lat="45.79996" lon="6.9795">
        <ele>1693</ele>
        <time>2022-08-27T08:53:32Z</time>
      </trkpt>
      <trkpt lat="45.79997" lon="6.97951">
        <ele>1693</ele>
        <time>2022-08-27T08:53:34Z</time>
      </trkpt>
      <trkpt lat="45.79997" lon="6.97952">
        <ele>1693</ele>
        <time>2022-08-27T08:53:35Z</time>
      </trkpt>
      <trkpt lat="45.79998" lon="6.97952">
        <ele>1693</ele>
        <time>2022-08-27T08:53:36Z</time>
      </trkpt>
      <trkpt lat="45.79998" lon="6.97953">
        <ele>1693</ele>
        <time>2022-08-27T08:53:37Z</time>
      </trkpt>
      <trkpt lat="45.79999" lon="6.97954">
        <ele>1693</ele>
        <time>2022-08-27T08:53:39Z</time>
      </trkpt>
      <trkpt lat="45.79999" lon="6.97954">
        <ele>1693</ele>
        <time>2022-08-27T08:53:40Z</time>
      </trkpt>
      <trkpt lat="45.8" lon="6.97955">
        <ele>1693</ele>
        <time>2022-08-27T08:53:41Z</time>
      </trkpt>
      <trkpt lat="45.80001" lon="6.97956">
        <ele>1694</ele>
        <time>2022-08-27T08:53:42Z</time>
      </trkpt>
      <trkpt lat="45.80001" lon="6.97956">
        <ele>1694</ele>
        <time>2022-08-27T08:53:43Z</time>
      </trkpt>
      <trkpt lat="45.80002" lon="6.97957">
        <ele>1695</ele>
        <time>2022-08-27T08:53:44Z</time>
      </trkpt>
      <trkpt lat="45.80003" lon="6.97958">
        <ele>1695</ele>
        <time>2022-08-27T08:53:46Z</time>
      </trkpt>
      <trkpt lat="45.80005" lon="6.9796">
        <ele>1695</ele>
        <time>2022-08-27T08:53:47Z</time>
      </trkpt>
      <trkpt lat="45.80007" lon="6.97962">
        <ele>1695</ele>
        <time>2022-08-27T08:53:48Z</time>
      </trkpt>
      <trkpt lat="45.80008" lon="6.97963">
        <ele>1695</ele>
        <time>2022-08-27T08:53:49Z</time>
      </trkpt>
      <trkpt lat="45.8001" lon="6.97965">
        <ele>1695</ele>
        <time>2022-08-27T08:53:50Z</time>
      </trkpt>
      <trkpt lat="45.80013" lon="6.97967">
        <ele>1696</ele>
        <time>2022-08-27T08:53:51Z</time>
      </trkpt>
      <trkpt lat="45.80015" lon="6.9797">
        <ele>1696</ele>
        <time>2022-08-27T08:53:52Z</time>
      </trkpt>
      <trkpt lat="45.80018" lon="6.97973">
        <ele>1696</ele>
        <time>2022-08-27T08:53:53Z</time>
      </trkpt>
      <trkpt lat="45.80021" lon="6.97974">
        <ele>1696</ele>
        <time>2022-08-27T08:53:55Z</time>
      </trkpt>
      <trkpt lat="45.80023" lon="6.97975">
        <ele>1696</ele>
        <time>2022-08-27T08:53:56Z</time>
      </trkpt>
      <trkpt lat="45.80025" lon="6.97976">
        <ele>1696</ele>
        <time>2022-08-27T08:53:57Z</time>
      </trkpt>
      <trkpt lat="45.80027" lon="6.97978">
        <ele>1697</ele>
        <time>2022-08-27T08:53:58Z</time>
      </trkpt>
      <trkpt lat="45.80036" lon="6.97985">
        <ele>1697</ele>
        <time>2022-08-27T08:54:03Z</time>
      </trkpt>
      <trkpt lat="45.80037" lon="6.97986">
        <ele>1697</ele>
        <time>2022-08-27T08:54:05Z</time>
      </trkpt>
      <trkpt lat="45.80038" lon="6.97987">
        <ele>1698</ele>
        <time>2022-08-27T08:54:06Z</time>
      </trkpt>
      <trkpt lat="45.80039" lon="6.97988">
        <ele>1698</ele>
        <time>2022-08-27T08:54:07Z</time>
      </trkpt>
      <trkpt lat="45.80044" lon="6.97997">
        <ele>1698</ele>
        <time>2022-08-27T08:54:09Z</time>
      </trkpt>
      <trkpt lat="45.80045" lon="6.97999">
        <ele>1698</ele>
        <time>2022-08-27T08:54:10Z</time>
      </trkpt>
      <trkpt lat="45.80045" lon="6.98001">
        <ele>1698</ele>
        <time>2022-08-27T08:54:11Z</time>
      </trkpt>
      <trkpt lat="45.80045" lon="6.98003">
        <ele>1699</ele>
        <time>2022-08-27T08:54:12Z</time>
      </trkpt>
      <trkpt lat="45.80045" lon="6.98005">
        <ele>1700</ele>
        <time>2022-08-27T08:54:14Z</time>
      </trkpt>
      <trkpt lat="45.80045" lon="6.98007">
        <ele>1700</ele>
        <time>2022-08-27T08:54:15Z</time>
      </trkpt>
      <trkpt lat="45.80046" lon="6.98009">
        <ele>1700</ele>
        <time>2022-08-27T08:54:16Z</time>
      </trkpt>
      <trkpt lat="45.80047" lon="6.98011">
        <ele>1700</ele>
        <time>2022-08-27T08:54:17Z</time>
      </trkpt>
      <trkpt lat="45.80049" lon="6.98013">
        <ele>1700</ele>
        <time>2022-08-27T08:54:19Z</time>
      </trkpt>
      <trkpt lat="45.80051" lon="6.98015">
        <ele>1701</ele>
        <time>2022-08-27T08:54:20Z</time>
      </trkpt>
      <trkpt lat="45.80052" lon="6.98017">
        <ele>1701</ele>
        <time>2022-08-27T08:54:21Z</time>
      </trkpt>
      <trkpt lat="45.80054" lon="6.98019">
        <ele>1701</ele>
        <time>2022-08-27T08:54:22Z</time>
      </trkpt>
      <trkpt lat="45.80055" lon="6.98021">
        <ele>1701</ele>
        <time>2022-08-27T08:54:24Z</time>
      </trkpt>
      <trkpt lat="45.80056" lon="6.98022">
        <ele>1701</ele>
        <time>2022-08-27T08:54:26Z</time>
      </trkpt>
      <trkpt lat="45.80057" lon="6.98024">
        <ele>1702</ele>
        <time>2022-08-27T08:54:27Z</time>
      </trkpt>
      <trkpt lat="45.80058" lon="6.98026">
        <ele>1702</ele>
        <time>2022-08-27T08:54:28Z</time>
      </trkpt>
      <trkpt lat="45.8006" lon="6.98027">
        <ele>1702</ele>
        <time>2022-08-27T08:54:29Z</time>
      </trkpt>
      <trkpt lat="45.80069" lon="6.98034">
        <ele>1703</ele>
        <time>2022-08-27T08:54:34Z</time>
      </trkpt>
      <trkpt lat="45.80077" lon="6.98042">
        <ele>1705</ele>
        <time>2022-08-27T08:54:45Z</time>
      </trkpt>
      <trkpt lat="45.80085" lon="6.9805">
        <ele>1705</ele>
        <time>2022-08-27T08:54:52Z</time>
      </trkpt>
      <trkpt lat="45.80091" lon="6.98062">
        <ele>1707</ele>
        <time>2022-08-27T08:55:02Z</time>
      </trkpt>
      <trkpt lat="45.80091" lon="6.98064">
        <ele>1708</ele>
        <time>2022-08-27T08:55:04Z</time>
      </trkpt>
      <trkpt lat="45.80092" lon="6.98066">
        <ele>1708</ele>
        <time>2022-08-27T08:55:05Z</time>
      </trkpt>
      <trkpt lat="45.80093" lon="6.98068">
        <ele>1708</ele>
        <time>2022-08-27T08:55:06Z</time>
      </trkpt>
      <trkpt lat="45.80093" lon="6.98071">
        <ele>1708</ele>
        <time>2022-08-27T08:55:07Z</time>
      </trkpt>
      <trkpt lat="45.80094" lon="6.98073">
        <ele>1708</ele>
        <time>2022-08-27T08:55:09Z</time>
      </trkpt>
      <trkpt lat="45.80095" lon="6.98075">
        <ele>1709</ele>
        <time>2022-08-27T08:55:10Z</time>
      </trkpt>
      <trkpt lat="45.80099" lon="6.98088">
        <ele>1709</ele>
        <time>2022-08-27T08:55:15Z</time>
      </trkpt>
      <trkpt lat="45.80099" lon="6.9809">
        <ele>1710</ele>
        <time>2022-08-27T08:55:17Z</time>
      </trkpt>
      <trkpt lat="45.80099" lon="6.98092">
        <ele>1710</ele>
        <time>2022-08-27T08:55:18Z</time>
      </trkpt>
      <trkpt lat="45.80099" lon="6.98094">
        <ele>1710</ele>
        <time>2022-08-27T08:55:20Z</time>
      </trkpt>
      <trkpt lat="45.80099" lon="6.98096">
        <ele>1710</ele>
        <time>2022-08-27T08:55:21Z</time>
      </trkpt>
      <trkpt lat="45.801" lon="6.98106">
        <ele>1711</ele>
        <time>2022-08-27T08:55:22Z</time>
      </trkpt>
      <trkpt lat="45.801" lon="6.98108">
        <ele>1711</ele>
        <time>2022-08-27T08:55:23Z</time>
      </trkpt>
      <trkpt lat="45.801" lon="6.98109">
        <ele>1711</ele>
        <time>2022-08-27T08:55:25Z</time>
      </trkpt>
      <trkpt lat="45.80101" lon="6.98111">
        <ele>1711</ele>
        <time>2022-08-27T08:55:26Z</time>
      </trkpt>
      <trkpt lat="45.80101" lon="6.98113">
        <ele>1711</ele>
        <time>2022-08-27T08:55:27Z</time>
      </trkpt>
      <trkpt lat="45.80101" lon="6.98115">
        <ele>1711</ele>
        <time>2022-08-27T08:55:28Z</time>
      </trkpt>
      <trkpt lat="45.80101" lon="6.98116">
        <ele>1711</ele>
        <time>2022-08-27T08:55:30Z</time>
      </trkpt>
      <trkpt lat="45.80101" lon="6.98118">
        <ele>1712</ele>
        <time>2022-08-27T08:55:31Z</time>
      </trkpt>
      <trkpt lat="45.80101" lon="6.98119">
        <ele>1712</ele>
        <time>2022-08-27T08:55:32Z</time>
      </trkpt>
      <trkpt lat="45.80101" lon="6.98121">
        <ele>1713</ele>
        <time>2022-08-27T08:55:33Z</time>
      </trkpt>
      <trkpt lat="45.80101" lon="6.98122">
        <ele>1713</ele>
        <time>2022-08-27T08:55:35Z</time>
      </trkpt>
      <trkpt lat="45.801" lon="6.98124">
        <ele>1713</ele>
        <time>2022-08-27T08:55:36Z</time>
      </trkpt>
      <trkpt lat="45.801" lon="6.98125">
        <ele>1714</ele>
        <time>2022-08-27T08:55:37Z</time>
      </trkpt>
      <trkpt lat="45.801" lon="6.98127">
        <ele>1714</ele>
        <time>2022-08-27T08:55:38Z</time>
      </trkpt>
      <trkpt lat="45.801" lon="6.98129">
        <ele>1714</ele>
        <time>2022-08-27T08:55:40Z</time>
      </trkpt>
      <trkpt lat="45.80099" lon="6.9813">
        <ele>1714</ele>
        <time>2022-08-27T08:55:41Z</time>
      </trkpt>
      <trkpt lat="45.80099" lon="6.98132">
        <ele>1715</ele>
        <time>2022-08-27T08:55:42Z</time>
      </trkpt>
      <trkpt lat="45.801" lon="6.98133">
        <ele>1715</ele>
        <time>2022-08-27T08:55:43Z</time>
      </trkpt>
      <trkpt lat="45.801" lon="6.98135">
        <ele>1715</ele>
        <time>2022-08-27T08:55:44Z</time>
      </trkpt>
      <trkpt lat="45.80101" lon="6.98137">
        <ele>1715</ele>
        <time>2022-08-27T08:55:45Z</time>
      </trkpt>
      <trkpt lat="45.80101" lon="6.98138">
        <ele>1715</ele>
        <time>2022-08-27T08:55:47Z</time>
      </trkpt>
      <trkpt lat="45.80102" lon="6.9814">
        <ele>1715</ele>
        <time>2022-08-27T08:55:48Z</time>
      </trkpt>
      <trkpt lat="45.80103" lon="6.98142">
        <ele>1715</ele>
        <time>2022-08-27T08:55:49Z</time>
      </trkpt>
      <trkpt lat="45.80103" lon="6.98143">
        <ele>1715</ele>
        <time>2022-08-27T08:55:50Z</time>
      </trkpt>
      <trkpt lat="45.80104" lon="6.98145">
        <ele>1716</ele>
        <time>2022-08-27T08:55:51Z</time>
      </trkpt>
      <trkpt lat="45.80104" lon="6.98148">
        <ele>1716</ele>
        <time>2022-08-27T08:55:52Z</time>
      </trkpt>
      <trkpt lat="45.80104" lon="6.9815">
        <ele>1716</ele>
        <time>2022-08-27T08:55:53Z</time>
      </trkpt>
      <trkpt lat="45.80105" lon="6.98152">
        <ele>1716</ele>
        <time>2022-08-27T08:55:55Z</time>
      </trkpt>
      <trkpt lat="45.80105" lon="6.98154">
        <ele>1716</ele>
        <time>2022-08-27T08:55:56Z</time>
      </trkpt>
      <trkpt lat="45.80106" lon="6.98156">
        <ele>1716</ele>
        <time>2022-08-27T08:55:57Z</time>
      </trkpt>
      <trkpt lat="45.80106" lon="6.98158">
        <ele>1717</ele>
        <time>2022-08-27T08:55:59Z</time>
      </trkpt>
      <trkpt lat="45.80107" lon="6.98161">
        <ele>1717</ele>
        <time>2022-08-27T08:56:00Z</time>
      </trkpt>
      <trkpt lat="45.80108" lon="6.98163">
        <ele>1718</ele>
        <time>2022-08-27T08:56:01Z</time>
      </trkpt>
      <trkpt lat="45.80108" lon="6.98166">
        <ele>1718</ele>
        <time>2022-08-27T08:56:03Z</time>
      </trkpt>
      <trkpt lat="45.80109" lon="6.98168">
        <ele>1718</ele>
        <time>2022-08-27T08:56:04Z</time>
      </trkpt>
      <trkpt lat="45.80109" lon="6.98171">
        <ele>1718</ele>
        <time>2022-08-27T08:56:05Z</time>
      </trkpt>
      <trkpt lat="45.80109" lon="6.98173">
        <ele>1718</ele>
        <time>2022-08-27T08:56:06Z</time>
      </trkpt>
      <trkpt lat="45.80109" lon="6.98175">
        <ele>1719</ele>
        <time>2022-08-27T08:56:08Z</time>
      </trkpt>
      <trkpt lat="45.80109" lon="6.98178">
        <ele>1719</ele>
        <time>2022-08-27T08:56:09Z</time>
      </trkpt>
      <trkpt lat="45.80109" lon="6.9818">
        <ele>1719</ele>
        <time>2022-08-27T08:56:10Z</time>
      </trkpt>
      <trkpt lat="45.8011" lon="6.98182">
        <ele>1720</ele>
        <time>2022-08-27T08:56:11Z</time>
      </trkpt>
      <trkpt lat="45.8011" lon="6.98196">
        <ele>1720</ele>
        <time>2022-08-27T08:56:18Z</time>
      </trkpt>
      <trkpt lat="45.8011" lon="6.98199">
        <ele>1721</ele>
        <time>2022-08-27T08:56:20Z</time>
      </trkpt>
      <trkpt lat="45.80109" lon="6.98201">
        <ele>1721</ele>
        <time>2022-08-27T08:56:22Z</time>
      </trkpt>
      <trkpt lat="45.80109" lon="6.98204">
        <ele>1721</ele>
        <time>2022-08-27T08:56:23Z</time>
      </trkpt>
      <trkpt lat="45.80109" lon="6.98207">
        <ele>1721</ele>
        <time>2022-08-27T08:56:24Z</time>
      </trkpt>
      <trkpt lat="45.80108" lon="6.9821">
        <ele>1721</ele>
        <time>2022-08-27T08:56:25Z</time>
      </trkpt>
      <trkpt lat="45.80107" lon="6.98211">
        <ele>1721</ele>
        <time>2022-08-27T08:56:26Z</time>
      </trkpt>
      <trkpt lat="45.80105" lon="6.98213">
        <ele>1722</ele>
        <time>2022-08-27T08:56:27Z</time>
      </trkpt>
      <trkpt lat="45.80104" lon="6.98215">
        <ele>1722</ele>
        <time>2022-08-27T08:56:28Z</time>
      </trkpt>
      <trkpt lat="45.80103" lon="6.98217">
        <ele>1722</ele>
        <time>2022-08-27T08:56:30Z</time>
      </trkpt>
      <trkpt lat="45.80101" lon="6.98219">
        <ele>1722</ele>
        <time>2022-08-27T08:56:31Z</time>
      </trkpt>
      <trkpt lat="45.80101" lon="6.9822">
        <ele>1722</ele>
        <time>2022-08-27T08:56:32Z</time>
      </trkpt>
      <trkpt lat="45.80101" lon="6.98222">
        <ele>1723</ele>
        <time>2022-08-27T08:56:33Z</time>
      </trkpt>
      <trkpt lat="45.80101" lon="6.98223">
        <ele>1723</ele>
        <time>2022-08-27T08:56:35Z</time>
      </trkpt>
      <trkpt lat="45.80101" lon="6.98225">
        <ele>1723</ele>
        <time>2022-08-27T08:56:37Z</time>
      </trkpt>
      <trkpt lat="45.80101" lon="6.98226">
        <ele>1723</ele>
        <time>2022-08-27T08:56:38Z</time>
      </trkpt>
      <trkpt lat="45.80101" lon="6.98234">
        <ele>1723</ele>
        <time>2022-08-27T08:56:39Z</time>
      </trkpt>
      <trkpt lat="45.80097" lon="6.98246">
        <ele>1724</ele>
        <time>2022-08-27T08:56:46Z</time>
      </trkpt>
      <trkpt lat="45.80091" lon="6.98258">
        <ele>1724</ele>
        <time>2022-08-27T08:56:53Z</time>
      </trkpt>
      <trkpt lat="45.8009" lon="6.98259">
        <ele>1725</ele>
        <time>2022-08-27T08:56:54Z</time>
      </trkpt>
      <trkpt lat="45.80089" lon="6.98261">
        <ele>1725</ele>
        <time>2022-08-27T08:56:56Z</time>
      </trkpt>
      <trkpt lat="45.80089" lon="6.98262">
        <ele>1726</ele>
        <time>2022-08-27T08:56:58Z</time>
      </trkpt>
      <trkpt lat="45.80088" lon="6.98264">
        <ele>1726</ele>
        <time>2022-08-27T08:56:59Z</time>
      </trkpt>
      <trkpt lat="45.80088" lon="6.98265">
        <ele>1726</ele>
        <time>2022-08-27T08:57:00Z</time>
      </trkpt>
      <trkpt lat="45.80087" lon="6.98267">
        <ele>1726</ele>
        <time>2022-08-27T08:57:01Z</time>
      </trkpt>
      <trkpt lat="45.80086" lon="6.98268">
        <ele>1726</ele>
        <time>2022-08-27T08:57:02Z</time>
      </trkpt>
      <trkpt lat="45.80086" lon="6.9827">
        <ele>1726</ele>
        <time>2022-08-27T08:57:03Z</time>
      </trkpt>
      <trkpt lat="45.80086" lon="6.98283">
        <ele>1726</ele>
        <time>2022-08-27T08:57:08Z</time>
      </trkpt>
      <trkpt lat="45.80086" lon="6.98285">
        <ele>1726</ele>
        <time>2022-08-27T08:57:09Z</time>
      </trkpt>
      <trkpt lat="45.80086" lon="6.98286">
        <ele>1726</ele>
        <time>2022-08-27T08:57:10Z</time>
      </trkpt>
      <trkpt lat="45.80086" lon="6.98288">
        <ele>1726</ele>
        <time>2022-08-27T08:57:11Z</time>
      </trkpt>
      <trkpt lat="45.80086" lon="6.98289">
        <ele>1727</ele>
        <time>2022-08-27T08:57:13Z</time>
      </trkpt>
      <trkpt lat="45.80086" lon="6.98291">
        <ele>1727</ele>
        <time>2022-08-27T08:57:15Z</time>
      </trkpt>
      <trkpt lat="45.80087" lon="6.98292">
        <ele>1727</ele>
        <time>2022-08-27T08:57:16Z</time>
      </trkpt>
      <trkpt lat="45.80087" lon="6.98294">
        <ele>1727</ele>
        <time>2022-08-27T08:57:17Z</time>
      </trkpt>
      <trkpt lat="45.80087" lon="6.98295">
        <ele>1727</ele>
        <time>2022-08-27T08:57:18Z</time>
      </trkpt>
      <trkpt lat="45.80087" lon="6.98297">
        <ele>1727</ele>
        <time>2022-08-27T08:57:19Z</time>
      </trkpt>
      <trkpt lat="45.80087" lon="6.983">
        <ele>1727</ele>
        <time>2022-08-27T08:57:20Z</time>
      </trkpt>
      <trkpt lat="45.80087" lon="6.98302">
        <ele>1727</ele>
        <time>2022-08-27T08:57:21Z</time>
      </trkpt>
      <trkpt lat="45.80087" lon="6.98305">
        <ele>1728</ele>
        <time>2022-08-27T08:57:22Z</time>
      </trkpt>
      <trkpt lat="45.80087" lon="6.98308">
        <ele>1728</ele>
        <time>2022-08-27T08:57:24Z</time>
      </trkpt>
      <trkpt lat="45.80087" lon="6.9831">
        <ele>1728</ele>
        <time>2022-08-27T08:57:25Z</time>
      </trkpt>
      <trkpt lat="45.80086" lon="6.98312">
        <ele>1728</ele>
        <time>2022-08-27T08:57:26Z</time>
      </trkpt>
      <trkpt lat="45.80086" lon="6.98313">
        <ele>1728</ele>
        <time>2022-08-27T08:57:27Z</time>
      </trkpt>
      <trkpt lat="45.80086" lon="6.98315">
        <ele>1728</ele>
        <time>2022-08-27T08:57:29Z</time>
      </trkpt>
      <trkpt lat="45.80085" lon="6.98316">
        <ele>1729</ele>
        <time>2022-08-27T08:57:30Z</time>
      </trkpt>
      <trkpt lat="45.80085" lon="6.98318">
        <ele>1729</ele>
        <time>2022-08-27T08:57:31Z</time>
      </trkpt>
      <trkpt lat="45.80084" lon="6.98319">
        <ele>1730</ele>
        <time>2022-08-27T08:57:32Z</time>
      </trkpt>
      <trkpt lat="45.80084" lon="6.98321">
        <ele>1730</ele>
        <time>2022-08-27T08:57:33Z</time>
      </trkpt>
      <trkpt lat="45.80083" lon="6.98322">
        <ele>1730</ele>
        <time>2022-08-27T08:57:34Z</time>
      </trkpt>
      <trkpt lat="45.80089" lon="6.98334">
        <ele>1730</ele>
        <time>2022-08-27T08:57:41Z</time>
      </trkpt>
      <trkpt lat="45.80089" lon="6.98335">
        <ele>1730</ele>
        <time>2022-08-27T08:57:42Z</time>
      </trkpt>
      <trkpt lat="45.80089" lon="6.98336">
        <ele>1730</ele>
        <time>2022-08-27T08:57:43Z</time>
      </trkpt>
      <trkpt lat="45.8009" lon="6.98337">
        <ele>1731</ele>
        <time>2022-08-27T08:57:44Z</time>
      </trkpt>
      <trkpt lat="45.8009" lon="6.98339">
        <ele>1731</ele>
        <time>2022-08-27T08:57:46Z</time>
      </trkpt>
      <trkpt lat="45.8009" lon="6.9834">
        <ele>1731</ele>
        <time>2022-08-27T08:57:47Z</time>
      </trkpt>
      <trkpt lat="45.8009" lon="6.98341">
        <ele>1731</ele>
        <time>2022-08-27T08:57:48Z</time>
      </trkpt>
      <trkpt lat="45.8009" lon="6.98342">
        <ele>1731</ele>
        <time>2022-08-27T08:57:49Z</time>
      </trkpt>
      <trkpt lat="45.8009" lon="6.98343">
        <ele>1732</ele>
        <time>2022-08-27T08:57:51Z</time>
      </trkpt>
      <trkpt lat="45.80091" lon="6.98345">
        <ele>1732</ele>
        <time>2022-08-27T08:57:53Z</time>
      </trkpt>
      <trkpt lat="45.80091" lon="6.98346">
        <ele>1732</ele>
        <time>2022-08-27T08:57:54Z</time>
      </trkpt>
      <trkpt lat="45.80091" lon="6.98347">
        <ele>1732</ele>
        <time>2022-08-27T08:57:55Z</time>
      </trkpt>
      <trkpt lat="45.80092" lon="6.98348">
        <ele>1732</ele>
        <time>2022-08-27T08:57:56Z</time>
      </trkpt>
      <trkpt lat="45.80093" lon="6.98348">
        <ele>1733</ele>
        <time>2022-08-27T08:57:57Z</time>
      </trkpt>
      <trkpt lat="45.80094" lon="6.98349">
        <ele>1733</ele>
        <time>2022-08-27T08:57:59Z</time>
      </trkpt>
      <trkpt lat="45.80095" lon="6.9835">
        <ele>1733</ele>
        <time>2022-08-27T08:58:00Z</time>
      </trkpt>
      <trkpt lat="45.80096" lon="6.98351">
        <ele>1734</ele>
        <time>2022-08-27T08:58:01Z</time>
      </trkpt>
      <trkpt lat="45.80099" lon="6.98356">
        <ele>1734</ele>
        <time>2022-08-27T08:58:02Z</time>
      </trkpt>
      <trkpt lat="45.80098" lon="6.98357">
        <ele>1734</ele>
        <time>2022-08-27T08:58:04Z</time>
      </trkpt>
      <trkpt lat="45.80096" lon="6.98359">
        <ele>1735</ele>
        <time>2022-08-27T08:58:05Z</time>
      </trkpt>
      <trkpt lat="45.80095" lon="6.9836">
        <ele>1735</ele>
        <time>2022-08-27T08:58:06Z</time>
      </trkpt>
      <trkpt lat="45.80093" lon="6.98362">
        <ele>1735</ele>
        <time>2022-08-27T08:58:07Z</time>
      </trkpt>
      <trkpt lat="45.80093" lon="6.98364">
        <ele>1735</ele>
        <time>2022-08-27T08:58:09Z</time>
      </trkpt>
      <trkpt lat="45.80093" lon="6.98367">
        <ele>1735</ele>
        <time>2022-08-27T08:58:10Z</time>
      </trkpt>
      <trkpt lat="45.80093" lon="6.98369">
        <ele>1735</ele>
        <time>2022-08-27T08:58:12Z</time>
      </trkpt>
      <trkpt lat="45.80093" lon="6.98372">
        <ele>1735</ele>
        <time>2022-08-27T08:58:14Z</time>
      </trkpt>
      <trkpt lat="45.80093" lon="6.98374">
        <ele>1736</ele>
        <time>2022-08-27T08:58:16Z</time>
      </trkpt>
      <trkpt lat="45.80093" lon="6.98376">
        <ele>1736</ele>
        <time>2022-08-27T08:58:17Z</time>
      </trkpt>
      <trkpt lat="45.80093" lon="6.98378">
        <ele>1737</ele>
        <time>2022-08-27T08:58:18Z</time>
      </trkpt>
      <trkpt lat="45.80093" lon="6.98379">
        <ele>1737</ele>
        <time>2022-08-27T08:58:19Z</time>
      </trkpt>
      <trkpt lat="45.80093" lon="6.98381">
        <ele>1737</ele>
        <time>2022-08-27T08:58:21Z</time>
      </trkpt>
      <trkpt lat="45.80092" lon="6.98382">
        <ele>1737</ele>
        <time>2022-08-27T08:58:22Z</time>
      </trkpt>
      <trkpt lat="45.80092" lon="6.98384">
        <ele>1737</ele>
        <time>2022-08-27T08:58:23Z</time>
      </trkpt>
      <trkpt lat="45.80092" lon="6.98385">
        <ele>1737</ele>
        <time>2022-08-27T08:58:24Z</time>
      </trkpt>
      <trkpt lat="45.80092" lon="6.98386">
        <ele>1737</ele>
        <time>2022-08-27T08:58:26Z</time>
      </trkpt>
      <trkpt lat="45.80091" lon="6.98388">
        <ele>1738</ele>
        <time>2022-08-27T08:58:27Z</time>
      </trkpt>
      <trkpt lat="45.80091" lon="6.98389">
        <ele>1739</ele>
        <time>2022-08-27T08:58:28Z</time>
      </trkpt>
      <trkpt lat="45.80091" lon="6.98391">
        <ele>1739</ele>
        <time>2022-08-27T08:58:29Z</time>
      </trkpt>
      <trkpt lat="45.80091" lon="6.98392">
        <ele>1739</ele>
        <time>2022-08-27T08:58:31Z</time>
      </trkpt>
      <trkpt lat="45.8009" lon="6.98394">
        <ele>1740</ele>
        <time>2022-08-27T08:58:33Z</time>
      </trkpt>
      <trkpt lat="45.8009" lon="6.98395">
        <ele>1740</ele>
        <time>2022-08-27T08:58:34Z</time>
      </trkpt>
      <trkpt lat="45.8009" lon="6.98396">
        <ele>1740</ele>
        <time>2022-08-27T08:58:35Z</time>
      </trkpt>
      <trkpt lat="45.8009" lon="6.98398">
        <ele>1740</ele>
        <time>2022-08-27T08:58:36Z</time>
      </trkpt>
      <trkpt lat="45.80089" lon="6.98399">
        <ele>1740</ele>
        <time>2022-08-27T08:58:38Z</time>
      </trkpt>
      <trkpt lat="45.80089" lon="6.98401">
        <ele>1740</ele>
        <time>2022-08-27T08:58:39Z</time>
      </trkpt>
      <trkpt lat="45.80089" lon="6.98402">
        <ele>1740</ele>
        <time>2022-08-27T08:58:40Z</time>
      </trkpt>
      <trkpt lat="45.80097" lon="6.98414">
        <ele>1743</ele>
        <time>2022-08-27T08:58:52Z</time>
      </trkpt>
      <trkpt lat="45.80102" lon="6.98426">
        <ele>1744</ele>
        <time>2022-08-27T08:58:57Z</time>
      </trkpt>
      <trkpt lat="45.80103" lon="6.98428">
        <ele>1744</ele>
        <time>2022-08-27T08:58:59Z</time>
      </trkpt>
      <trkpt lat="45.80104" lon="6.9843">
        <ele>1744</ele>
        <time>2022-08-27T08:59:00Z</time>
      </trkpt>
      <trkpt lat="45.80106" lon="6.98432">
        <ele>1744</ele>
        <time>2022-08-27T08:59:01Z</time>
      </trkpt>
      <trkpt lat="45.80107" lon="6.98434">
        <ele>1745</ele>
        <time>2022-08-27T08:59:02Z</time>
      </trkpt>
      <trkpt lat="45.80108" lon="6.98436">
        <ele>1745</ele>
        <time>2022-08-27T08:59:03Z</time>
      </trkpt>
      <trkpt lat="45.8011" lon="6.98437">
        <ele>1745</ele>
        <time>2022-08-27T08:59:04Z</time>
      </trkpt>
      <trkpt lat="45.8011" lon="6.9844">
        <ele>1745</ele>
        <time>2022-08-27T08:59:05Z</time>
      </trkpt>
      <trkpt lat="45.80111" lon="6.98442">
        <ele>1745</ele>
        <time>2022-08-27T08:59:06Z</time>
      </trkpt>
      <trkpt lat="45.80112" lon="6.98444">
        <ele>1745</ele>
        <time>2022-08-27T08:59:07Z</time>
      </trkpt>
      <trkpt lat="45.80113" lon="6.98447">
        <ele>1745</ele>
        <time>2022-08-27T08:59:08Z</time>
      </trkpt>
      <trkpt lat="45.80113" lon="6.98449">
        <ele>1745</ele>
        <time>2022-08-27T08:59:09Z</time>
      </trkpt>
      <trkpt lat="45.80122" lon="6.98456">
        <ele>1749</ele>
        <time>2022-08-27T08:59:23Z</time>
      </trkpt>
      <trkpt lat="45.80131" lon="6.98451">
        <ele>1749</ele>
        <time>2022-08-27T08:59:32Z</time>
      </trkpt>
      <trkpt lat="45.80132" lon="6.98451">
        <ele>1749</ele>
        <time>2022-08-27T08:59:33Z</time>
      </trkpt>
      <trkpt lat="45.80134" lon="6.98451">
        <ele>1749</ele>
        <time>2022-08-27T08:59:34Z</time>
      </trkpt>
      <trkpt lat="45.80135" lon="6.98451">
        <ele>1750</ele>
        <time>2022-08-27T08:59:35Z</time>
      </trkpt>
      <trkpt lat="45.80137" lon="6.98451">
        <ele>1750</ele>
        <time>2022-08-27T08:59:37Z</time>
      </trkpt>
      <trkpt lat="45.80138" lon="6.98451">
        <ele>1750</ele>
        <time>2022-08-27T08:59:38Z</time>
      </trkpt>
      <trkpt lat="45.80139" lon="6.98452">
        <ele>1750</ele>
        <time>2022-08-27T08:59:39Z</time>
      </trkpt>
      <trkpt lat="45.80141" lon="6.98452">
        <ele>1750</ele>
        <time>2022-08-27T08:59:40Z</time>
      </trkpt>
      <trkpt lat="45.80149" lon="6.98444">
        <ele>1751</ele>
        <time>2022-08-27T08:59:47Z</time>
      </trkpt>
      <trkpt lat="45.80149" lon="6.98442">
        <ele>1751</ele>
        <time>2022-08-27T08:59:49Z</time>
      </trkpt>
      <trkpt lat="45.80149" lon="6.98441">
        <ele>1751</ele>
        <time>2022-08-27T08:59:50Z</time>
      </trkpt>
      <trkpt lat="45.80148" lon="6.9844">
        <ele>1751</ele>
        <time>2022-08-27T08:59:51Z</time>
      </trkpt>
      <trkpt lat="45.80148" lon="6.98438">
        <ele>1751</ele>
        <time>2022-08-27T08:59:52Z</time>
      </trkpt>
      <trkpt lat="45.80148" lon="6.98437">
        <ele>1752</ele>
        <time>2022-08-27T08:59:54Z</time>
      </trkpt>
      <trkpt lat="45.80148" lon="6.98436">
        <ele>1752</ele>
        <time>2022-08-27T08:59:55Z</time>
      </trkpt>
      <trkpt lat="45.80148" lon="6.98435">
        <ele>1752</ele>
        <time>2022-08-27T08:59:56Z</time>
      </trkpt>
      <trkpt lat="45.80148" lon="6.98433">
        <ele>1752</ele>
        <time>2022-08-27T08:59:57Z</time>
      </trkpt>
      <trkpt lat="45.80147" lon="6.98432">
        <ele>1752</ele>
        <time>2022-08-27T08:59:58Z</time>
      </trkpt>
      <trkpt lat="45.80147" lon="6.98431">
        <ele>1752</ele>
        <time>2022-08-27T08:59:59Z</time>
      </trkpt>
      <trkpt lat="45.80148" lon="6.98428">
        <ele>1752</ele>
        <time>2022-08-27T09:00:01Z</time>
      </trkpt>
      <trkpt lat="45.80148" lon="6.98425">
        <ele>1753</ele>
        <time>2022-08-27T09:00:02Z</time>
      </trkpt>
      <trkpt lat="45.80148" lon="6.98422">
        <ele>1753</ele>
        <time>2022-08-27T09:00:04Z</time>
      </trkpt>
      <trkpt lat="45.80148" lon="6.98419">
        <ele>1753</ele>
        <time>2022-08-27T09:00:06Z</time>
      </trkpt>
      <trkpt lat="45.80148" lon="6.98416">
        <ele>1754</ele>
        <time>2022-08-27T09:00:07Z</time>
      </trkpt>
      <trkpt lat="45.80149" lon="6.98415">
        <ele>1754</ele>
        <time>2022-08-27T09:00:08Z</time>
      </trkpt>
      <trkpt lat="45.8015" lon="6.98414">
        <ele>1754</ele>
        <time>2022-08-27T09:00:09Z</time>
      </trkpt>
      <trkpt lat="45.80151" lon="6.98412">
        <ele>1754</ele>
        <time>2022-08-27T09:00:11Z</time>
      </trkpt>
      <trkpt lat="45.80152" lon="6.98411">
        <ele>1755</ele>
        <time>2022-08-27T09:00:12Z</time>
      </trkpt>
      <trkpt lat="45.80153" lon="6.9841">
        <ele>1755</ele>
        <time>2022-08-27T09:00:13Z</time>
      </trkpt>
      <trkpt lat="45.80154" lon="6.98408">
        <ele>1755</ele>
        <time>2022-08-27T09:00:14Z</time>
      </trkpt>
      <trkpt lat="45.80155" lon="6.98407">
        <ele>1755</ele>
        <time>2022-08-27T09:00:15Z</time>
      </trkpt>
      <trkpt lat="45.80155" lon="6.98406">
        <ele>1755</ele>
        <time>2022-08-27T09:00:16Z</time>
      </trkpt>
      <trkpt lat="45.80156" lon="6.98405">
        <ele>1755</ele>
        <time>2022-08-27T09:00:17Z</time>
      </trkpt>
      <trkpt lat="45.80157" lon="6.98404">
        <ele>1756</ele>
        <time>2022-08-27T09:00:18Z</time>
      </trkpt>
      <trkpt lat="45.80158" lon="6.98404">
        <ele>1756</ele>
        <time>2022-08-27T09:00:19Z</time>
      </trkpt>
      <trkpt lat="45.80159" lon="6.98403">
        <ele>1756</ele>
        <time>2022-08-27T09:00:21Z</time>
      </trkpt>
      <trkpt lat="45.8016" lon="6.98402">
        <ele>1756</ele>
        <time>2022-08-27T09:00:22Z</time>
      </trkpt>
      <trkpt lat="45.8016" lon="6.98401">
        <ele>1757</ele>
        <time>2022-08-27T09:00:23Z</time>
      </trkpt>
      <trkpt lat="45.80161" lon="6.98401">
        <ele>1757</ele>
        <time>2022-08-27T09:00:25Z</time>
      </trkpt>
      <trkpt lat="45.80162" lon="6.984">
        <ele>1757</ele>
        <time>2022-08-27T09:00:26Z</time>
      </trkpt>
      <trkpt lat="45.80163" lon="6.98399">
        <ele>1758</ele>
        <time>2022-08-27T09:00:27Z</time>
      </trkpt>
      <trkpt lat="45.80173" lon="6.98403">
        <ele>1758</ele>
        <time>2022-08-27T09:00:34Z</time>
      </trkpt>
      <trkpt lat="45.80173" lon="6.98403">
        <ele>1758</ele>
        <time>2022-08-27T09:00:35Z</time>
      </trkpt>
      <trkpt lat="45.80174" lon="6.98404">
        <ele>1758</ele>
        <time>2022-08-27T09:00:36Z</time>
      </trkpt>
      <trkpt lat="45.80175" lon="6.98404">
        <ele>1758</ele>
        <time>2022-08-27T09:00:37Z</time>
      </trkpt>
      <trkpt lat="45.80175" lon="6.98405">
        <ele>1758</ele>
        <time>2022-08-27T09:00:39Z</time>
      </trkpt>
      <trkpt lat="45.80176" lon="6.98405">
        <ele>1758</ele>
        <time>2022-08-27T09:00:40Z</time>
      </trkpt>
      <trkpt lat="45.80177" lon="6.98406">
        <ele>1759</ele>
        <time>2022-08-27T09:00:41Z</time>
      </trkpt>
      <trkpt lat="45.80177" lon="6.98406">
        <ele>1759</ele>
        <time>2022-08-27T09:00:42Z</time>
      </trkpt>
      <trkpt lat="45.80178" lon="6.98407">
        <ele>1759</ele>
        <time>2022-08-27T09:00:44Z</time>
      </trkpt>
      <trkpt lat="45.80179" lon="6.98407">
        <ele>1761</ele>
        <time>2022-08-27T09:00:46Z</time>
      </trkpt>
      <trkpt lat="45.80179" lon="6.98408">
        <ele>1761</ele>
        <time>2022-08-27T09:00:47Z</time>
      </trkpt>
      <trkpt lat="45.8018" lon="6.98408">
        <ele>1761</ele>
        <time>2022-08-27T09:00:48Z</time>
      </trkpt>
      <trkpt lat="45.8018" lon="6.98409">
        <ele>1761</ele>
        <time>2022-08-27T09:00:49Z</time>
      </trkpt>
      <trkpt lat="45.80181" lon="6.9841">
        <ele>1762</ele>
        <time>2022-08-27T09:00:51Z</time>
      </trkpt>
      <trkpt lat="45.80182" lon="6.98411">
        <ele>1762</ele>
        <time>2022-08-27T09:00:52Z</time>
      </trkpt>
      <trkpt lat="45.80183" lon="6.98412">
        <ele>1762</ele>
        <time>2022-08-27T09:00:53Z</time>
      </trkpt>
      <trkpt lat="45.80183" lon="6.98413">
        <ele>1762</ele>
        <time>2022-08-27T09:00:54Z</time>
      </trkpt>
      <trkpt lat="45.80184" lon="6.98414">
        <ele>1763</ele>
        <time>2022-08-27T09:00:56Z</time>
      </trkpt>
      <trkpt lat="45.80185" lon="6.98415">
        <ele>1763</ele>
        <time>2022-08-27T09:00:57Z</time>
      </trkpt>
      <trkpt lat="45.80186" lon="6.98416">
        <ele>1763</ele>
        <time>2022-08-27T09:00:58Z</time>
      </trkpt>
      <trkpt lat="45.80186" lon="6.98417">
        <ele>1763</ele>
        <time>2022-08-27T09:00:59Z</time>
      </trkpt>
      <trkpt lat="45.80187" lon="6.98419">
        <ele>1763</ele>
        <time>2022-08-27T09:01:00Z</time>
      </trkpt>
      <trkpt lat="45.80187" lon="6.9842">
        <ele>1763</ele>
        <time>2022-08-27T09:01:02Z</time>
      </trkpt>
      <trkpt lat="45.80188" lon="6.98421">
        <ele>1763</ele>
        <time>2022-08-27T09:01:03Z</time>
      </trkpt>
      <trkpt lat="45.80188" lon="6.98422">
        <ele>1764</ele>
        <time>2022-08-27T09:01:04Z</time>
      </trkpt>
      <trkpt lat="45.80189" lon="6.98423">
        <ele>1764</ele>
        <time>2022-08-27T09:01:05Z</time>
      </trkpt>
      <trkpt lat="45.80189" lon="6.98425">
        <ele>1764</ele>
        <time>2022-08-27T09:01:07Z</time>
      </trkpt>
      <trkpt lat="45.8019" lon="6.98426">
        <ele>1765</ele>
        <time>2022-08-27T09:01:08Z</time>
      </trkpt>
      <trkpt lat="45.8019" lon="6.98427">
        <ele>1765</ele>
        <time>2022-08-27T09:01:09Z</time>
      </trkpt>
      <trkpt lat="45.80191" lon="6.98428">
        <ele>1765</ele>
        <time>2022-08-27T09:01:10Z</time>
      </trkpt>
      <trkpt lat="45.80191" lon="6.9843">
        <ele>1766</ele>
        <time>2022-08-27T09:01:12Z</time>
      </trkpt>
      <trkpt lat="45.80191" lon="6.98431">
        <ele>1766</ele>
        <time>2022-08-27T09:01:13Z</time>
      </trkpt>
      <trkpt lat="45.802" lon="6.98433">
        <ele>1768</ele>
        <time>2022-08-27T09:01:29Z</time>
      </trkpt>
      <trkpt lat="45.802" lon="6.98434">
        <ele>1768</ele>
        <time>2022-08-27T09:01:30Z</time>
      </trkpt>
      <trkpt lat="45.802" lon="6.98436">
        <ele>1768</ele>
        <time>2022-08-27T09:01:31Z</time>
      </trkpt>
      <trkpt lat="45.802" lon="6.98437">
        <ele>1769</ele>
        <time>2022-08-27T09:01:32Z</time>
      </trkpt>
      <trkpt lat="45.802" lon="6.98438">
        <ele>1770</ele>
        <time>2022-08-27T09:01:34Z</time>
      </trkpt>
      <trkpt lat="45.80201" lon="6.98439">
        <ele>1770</ele>
        <time>2022-08-27T09:01:35Z</time>
      </trkpt>
      <trkpt lat="45.80201" lon="6.98441">
        <ele>1770</ele>
        <time>2022-08-27T09:01:36Z</time>
      </trkpt>
      <trkpt lat="45.80201" lon="6.98442">
        <ele>1770</ele>
        <time>2022-08-27T09:01:37Z</time>
      </trkpt>
      <trkpt lat="45.80201" lon="6.98443">
        <ele>1770</ele>
        <time>2022-08-27T09:01:39Z</time>
      </trkpt>
      <trkpt lat="45.80201" lon="6.98445">
        <ele>1770</ele>
        <time>2022-08-27T09:01:41Z</time>
      </trkpt>
      <trkpt lat="45.80201" lon="6.98446">
        <ele>1771</ele>
        <time>2022-08-27T09:01:42Z</time>
      </trkpt>
      <trkpt lat="45.80201" lon="6.98447">
        <ele>1771</ele>
        <time>2022-08-27T09:01:43Z</time>
      </trkpt>
      <trkpt lat="45.80201" lon="6.98448">
        <ele>1772</ele>
        <time>2022-08-27T09:01:45Z</time>
      </trkpt>
      <trkpt lat="45.80201" lon="6.98449">
        <ele>1772</ele>
        <time>2022-08-27T09:01:46Z</time>
      </trkpt>
      <trkpt lat="45.80201" lon="6.9845">
        <ele>1772</ele>
        <time>2022-08-27T09:01:47Z</time>
      </trkpt>
      <trkpt lat="45.80201" lon="6.9845">
        <ele>1772</ele>
        <time>2022-08-27T09:01:48Z</time>
      </trkpt>
      <trkpt lat="45.80201" lon="6.98451">
        <ele>1772</ele>
        <time>2022-08-27T09:01:50Z</time>
      </trkpt>
      <trkpt lat="45.80201" lon="6.98452">
        <ele>1773</ele>
        <time>2022-08-27T09:01:51Z</time>
      </trkpt>
      <trkpt lat="45.80201" lon="6.98453">
        <ele>1773</ele>
        <time>2022-08-27T09:01:52Z</time>
      </trkpt>
      <trkpt lat="45.80201" lon="6.98454">
        <ele>1773</ele>
        <time>2022-08-27T09:01:53Z</time>
      </trkpt>
      <trkpt lat="45.80201" lon="6.98455">
        <ele>1774</ele>
        <time>2022-08-27T09:01:55Z</time>
      </trkpt>
      <trkpt lat="45.80201" lon="6.98456">
        <ele>1774</ele>
        <time>2022-08-27T09:01:56Z</time>
      </trkpt>
      <trkpt lat="45.80201" lon="6.98457">
        <ele>1774</ele>
        <time>2022-08-27T09:01:57Z</time>
      </trkpt>
      <trkpt lat="45.80201" lon="6.98458">
        <ele>1774</ele>
        <time>2022-08-27T09:01:58Z</time>
      </trkpt>
      <trkpt lat="45.80201" lon="6.98459">
        <ele>1774</ele>
        <time>2022-08-27T09:01:59Z</time>
      </trkpt>
      <trkpt lat="45.80201" lon="6.9846">
        <ele>1774</ele>
        <time>2022-08-27T09:02:00Z</time>
      </trkpt>
      <trkpt lat="45.80201" lon="6.98461">
        <ele>1774</ele>
        <time>2022-08-27T09:02:02Z</time>
      </trkpt>
      <trkpt lat="45.80202" lon="6.98462">
        <ele>1774</ele>
        <time>2022-08-27T09:02:03Z</time>
      </trkpt>
      <trkpt lat="45.80203" lon="6.98464">
        <ele>1775</ele>
        <time>2022-08-27T09:02:04Z</time>
      </trkpt>
      <trkpt lat="45.80203" lon="6.98465">
        <ele>1775</ele>
        <time>2022-08-27T09:02:05Z</time>
      </trkpt>
      <trkpt lat="45.80204" lon="6.98466">
        <ele>1776</ele>
        <time>2022-08-27T09:02:07Z</time>
      </trkpt>
      <trkpt lat="45.80204" lon="6.98468">
        <ele>1776</ele>
        <time>2022-08-27T09:02:08Z</time>
      </trkpt>
      <trkpt lat="45.80205" lon="6.98469">
        <ele>1776</ele>
        <time>2022-08-27T09:02:09Z</time>
      </trkpt>
      <trkpt lat="45.80206" lon="6.9847">
        <ele>1776</ele>
        <time>2022-08-27T09:02:10Z</time>
      </trkpt>
      <trkpt lat="45.80206" lon="6.98472">
        <ele>1776</ele>
        <time>2022-08-27T09:02:11Z</time>
      </trkpt>
      <trkpt lat="45.80207" lon="6.98474">
        <ele>1777</ele>
        <time>2022-08-27T09:02:12Z</time>
      </trkpt>
      <trkpt lat="45.80208" lon="6.98476">
        <ele>1777</ele>
        <time>2022-08-27T09:02:13Z</time>
      </trkpt>
      <trkpt lat="45.8021" lon="6.98478">
        <ele>1777</ele>
        <time>2022-08-27T09:02:14Z</time>
      </trkpt>
      <trkpt lat="45.80211" lon="6.9848">
        <ele>1777</ele>
        <time>2022-08-27T09:02:15Z</time>
      </trkpt>
      <trkpt lat="45.80212" lon="6.98482">
        <ele>1777</ele>
        <time>2022-08-27T09:02:16Z</time>
      </trkpt>
      <trkpt lat="45.80212" lon="6.98483">
        <ele>1777</ele>
        <time>2022-08-27T09:02:17Z</time>
      </trkpt>
      <trkpt lat="45.80212" lon="6.98484">
        <ele>1777</ele>
        <time>2022-08-27T09:02:19Z</time>
      </trkpt>
      <trkpt lat="45.80212" lon="6.98485">
        <ele>1777</ele>
        <time>2022-08-27T09:02:20Z</time>
      </trkpt>
      <trkpt lat="45.80212" lon="6.98486">
        <ele>1777</ele>
        <time>2022-08-27T09:02:21Z</time>
      </trkpt>
      <trkpt lat="45.80212" lon="6.98487">
        <ele>1777</ele>
        <time>2022-08-27T09:02:23Z</time>
      </trkpt>
      <trkpt lat="45.80213" lon="6.98488">
        <ele>1777</ele>
        <time>2022-08-27T09:02:24Z</time>
      </trkpt>
      <trkpt lat="45.80213" lon="6.98489">
        <ele>1777</ele>
        <time>2022-08-27T09:02:25Z</time>
      </trkpt>
      <trkpt lat="45.80213" lon="6.9849">
        <ele>1777</ele>
        <time>2022-08-27T09:02:26Z</time>
      </trkpt>
      <trkpt lat="45.80213" lon="6.98491">
        <ele>1777</ele>
        <time>2022-08-27T09:02:28Z</time>
      </trkpt>
      <trkpt lat="45.80213" lon="6.98491">
        <ele>1778</ele>
        <time>2022-08-27T09:02:29Z</time>
      </trkpt>
      <trkpt lat="45.80213" lon="6.98492">
        <ele>1778</ele>
        <time>2022-08-27T09:02:31Z</time>
      </trkpt>
      <trkpt lat="45.80213" lon="6.98493">
        <ele>1779</ele>
        <time>2022-08-27T09:02:33Z</time>
      </trkpt>
      <trkpt lat="45.80213" lon="6.98494">
        <ele>1779</ele>
        <time>2022-08-27T09:02:34Z</time>
      </trkpt>
      <trkpt lat="45.80213" lon="6.98495">
        <ele>1779</ele>
        <time>2022-08-27T09:02:35Z</time>
      </trkpt>
      <trkpt lat="45.80214" lon="6.98496">
        <ele>1779</ele>
        <time>2022-08-27T09:02:36Z</time>
      </trkpt>
      <trkpt lat="45.80214" lon="6.98496">
        <ele>1779</ele>
        <time>2022-08-27T09:02:38Z</time>
      </trkpt>
      <trkpt lat="45.80214" lon="6.98497">
        <ele>1780</ele>
        <time>2022-08-27T09:02:39Z</time>
      </trkpt>
      <trkpt lat="45.80214" lon="6.98497">
        <ele>1780</ele>
        <time>2022-08-27T09:02:40Z</time>
      </trkpt>
      <trkpt lat="45.80214" lon="6.98498">
        <ele>1781</ele>
        <time>2022-08-27T09:02:41Z</time>
      </trkpt>
      <trkpt lat="45.80215" lon="6.98498">
        <ele>1781</ele>
        <time>2022-08-27T09:02:43Z</time>
      </trkpt>
      <trkpt lat="45.80215" lon="6.98499">
        <ele>1781</ele>
        <time>2022-08-27T09:02:45Z</time>
      </trkpt>
      <trkpt lat="45.80215" lon="6.98499">
        <ele>1782</ele>
        <time>2022-08-27T09:02:46Z</time>
      </trkpt>
      <trkpt lat="45.80215" lon="6.985">
        <ele>1782</ele>
        <time>2022-08-27T09:02:47Z</time>
      </trkpt>
      <trkpt lat="45.80215" lon="6.985">
        <ele>1782</ele>
        <time>2022-08-27T09:02:48Z</time>
      </trkpt>
      <trkpt lat="45.80215" lon="6.98501">
        <ele>1782</ele>
        <time>2022-08-27T09:02:50Z</time>
      </trkpt>
      <trkpt lat="45.80216" lon="6.98501">
        <ele>1782</ele>
        <time>2022-08-27T09:02:51Z</time>
      </trkpt>
      <trkpt lat="45.80216" lon="6.98502">
        <ele>1782</ele>
        <time>2022-08-27T09:02:52Z</time>
      </trkpt>
      <trkpt lat="45.80219" lon="6.98509">
        <ele>1783</ele>
        <time>2022-08-27T09:02:53Z</time>
      </trkpt>
      <trkpt lat="45.8022" lon="6.9851">
        <ele>1783</ele>
        <time>2022-08-27T09:02:55Z</time>
      </trkpt>
      <trkpt lat="45.80221" lon="6.98511">
        <ele>1783</ele>
        <time>2022-08-27T09:02:57Z</time>
      </trkpt>
      <trkpt lat="45.80222" lon="6.98512">
        <ele>1783</ele>
        <time>2022-08-27T09:02:58Z</time>
      </trkpt>
      <trkpt lat="45.80222" lon="6.98514">
        <ele>1784</ele>
        <time>2022-08-27T09:02:59Z</time>
      </trkpt>
      <trkpt lat="45.80223" lon="6.98515">
        <ele>1785</ele>
        <time>2022-08-27T09:03:01Z</time>
      </trkpt>
      <trkpt lat="45.80224" lon="6.98516">
        <ele>1785</ele>
        <time>2022-08-27T09:03:02Z</time>
      </trkpt>
      <trkpt lat="45.80225" lon="6.98517">
        <ele>1785</ele>
        <time>2022-08-27T09:03:03Z</time>
      </trkpt>
      <trkpt lat="45.80232" lon="6.98527">
        <ele>1786</ele>
        <time>2022-08-27T09:03:11Z</time>
      </trkpt>
      <trkpt lat="45.80232" lon="6.98529">
        <ele>1786</ele>
        <time>2022-08-27T09:03:12Z</time>
      </trkpt>
      <trkpt lat="45.80233" lon="6.9853">
        <ele>1786</ele>
        <time>2022-08-27T09:03:13Z</time>
      </trkpt>
      <trkpt lat="45.80234" lon="6.98532">
        <ele>1786</ele>
        <time>2022-08-27T09:03:14Z</time>
      </trkpt>
      <trkpt lat="45.80234" lon="6.98534">
        <ele>1786</ele>
        <time>2022-08-27T09:03:16Z</time>
      </trkpt>
      <trkpt lat="45.80235" lon="6.98536">
        <ele>1787</ele>
        <time>2022-08-27T09:03:18Z</time>
      </trkpt>
      <trkpt lat="45.80235" lon="6.98538">
        <ele>1787</ele>
        <time>2022-08-27T09:03:19Z</time>
      </trkpt>
      <trkpt lat="45.80236" lon="6.9854">
        <ele>1788</ele>
        <time>2022-08-27T09:03:20Z</time>
      </trkpt>
      <trkpt lat="45.80236" lon="6.98541">
        <ele>1788</ele>
        <time>2022-08-27T09:03:21Z</time>
      </trkpt>
      <trkpt lat="45.80237" lon="6.98543">
        <ele>1788</ele>
        <time>2022-08-27T09:03:22Z</time>
      </trkpt>
      <trkpt lat="45.80237" lon="6.98544">
        <ele>1789</ele>
        <time>2022-08-27T09:03:23Z</time>
      </trkpt>
      <trkpt lat="45.80237" lon="6.98546">
        <ele>1789</ele>
        <time>2022-08-27T09:03:25Z</time>
      </trkpt>
      <trkpt lat="45.80238" lon="6.98547">
        <ele>1789</ele>
        <time>2022-08-27T09:03:26Z</time>
      </trkpt>
      <trkpt lat="45.80239" lon="6.98556">
        <ele>1789</ele>
        <time>2022-08-27T09:03:27Z</time>
      </trkpt>
      <trkpt lat="45.8024" lon="6.98557">
        <ele>1789</ele>
        <time>2022-08-27T09:03:28Z</time>
      </trkpt>
      <trkpt lat="45.8024" lon="6.98558">
        <ele>1789</ele>
        <time>2022-08-27T09:03:30Z</time>
      </trkpt>
      <trkpt lat="45.8024" lon="6.98559">
        <ele>1789</ele>
        <time>2022-08-27T09:03:31Z</time>
      </trkpt>
      <trkpt lat="45.8024" lon="6.9856">
        <ele>1789</ele>
        <time>2022-08-27T09:03:32Z</time>
      </trkpt>
      <trkpt lat="45.8024" lon="6.98561">
        <ele>1789</ele>
        <time>2022-08-27T09:03:33Z</time>
      </trkpt>
      <trkpt lat="45.8024" lon="6.98562">
        <ele>1789</ele>
        <time>2022-08-27T09:03:35Z</time>
      </trkpt>
      <trkpt lat="45.8024" lon="6.98563">
        <ele>1791</ele>
        <time>2022-08-27T09:03:37Z</time>
      </trkpt>
      <trkpt lat="45.8024" lon="6.98564">
        <ele>1791</ele>
        <time>2022-08-27T09:03:38Z</time>
      </trkpt>
      <trkpt lat="45.8024" lon="6.98565">
        <ele>1791</ele>
        <time>2022-08-27T09:03:39Z</time>
      </trkpt>
      <trkpt lat="45.80241" lon="6.98566">
        <ele>1791</ele>
        <time>2022-08-27T09:03:40Z</time>
      </trkpt>
      <trkpt lat="45.80241" lon="6.98567">
        <ele>1791</ele>
        <time>2022-08-27T09:03:41Z</time>
      </trkpt>
      <trkpt lat="45.80241" lon="6.98568">
        <ele>1792</ele>
        <time>2022-08-27T09:03:42Z</time>
      </trkpt>
      <trkpt lat="45.80242" lon="6.9857">
        <ele>1792</ele>
        <time>2022-08-27T09:03:43Z</time>
      </trkpt>
      <trkpt lat="45.80243" lon="6.98572">
        <ele>1792</ele>
        <time>2022-08-27T09:03:44Z</time>
      </trkpt>
      <trkpt lat="45.80244" lon="6.98573">
        <ele>1792</ele>
        <time>2022-08-27T09:03:45Z</time>
      </trkpt>
      <trkpt lat="45.80246" lon="6.98575">
        <ele>1792</ele>
        <time>2022-08-27T09:03:47Z</time>
      </trkpt>
      <trkpt lat="45.80247" lon="6.98576">
        <ele>1792</ele>
        <time>2022-08-27T09:03:48Z</time>
      </trkpt>
      <trkpt lat="45.80248" lon="6.98578">
        <ele>1793</ele>
        <time>2022-08-27T09:03:49Z</time>
      </trkpt>
      <trkpt lat="45.80249" lon="6.98579">
        <ele>1793</ele>
        <time>2022-08-27T09:03:50Z</time>
      </trkpt>
      <trkpt lat="45.80249" lon="6.9858">
        <ele>1793</ele>
        <time>2022-08-27T09:03:51Z</time>
      </trkpt>
      <trkpt lat="45.80249" lon="6.98581">
        <ele>1793</ele>
        <time>2022-08-27T09:03:52Z</time>
      </trkpt>
      <trkpt lat="45.8025" lon="6.98582">
        <ele>1794</ele>
        <time>2022-08-27T09:03:54Z</time>
      </trkpt>
      <trkpt lat="45.8025" lon="6.98583">
        <ele>1794</ele>
        <time>2022-08-27T09:03:55Z</time>
      </trkpt>
      <trkpt lat="45.8025" lon="6.98583">
        <ele>1794</ele>
        <time>2022-08-27T09:03:56Z</time>
      </trkpt>
      <trkpt lat="45.80251" lon="6.98584">
        <ele>1794</ele>
        <time>2022-08-27T09:03:57Z</time>
      </trkpt>
      <trkpt lat="45.80251" lon="6.98585">
        <ele>1795</ele>
        <time>2022-08-27T09:03:59Z</time>
      </trkpt>
      <trkpt lat="45.80251" lon="6.98586">
        <ele>1795</ele>
        <time>2022-08-27T09:04:00Z</time>
      </trkpt>
      <trkpt lat="45.80252" lon="6.98587">
        <ele>1795</ele>
        <time>2022-08-27T09:04:01Z</time>
      </trkpt>
      <trkpt lat="45.80252" lon="6.98588">
        <ele>1795</ele>
        <time>2022-08-27T09:04:02Z</time>
      </trkpt>
      <trkpt lat="45.80252" lon="6.98589">
        <ele>1795</ele>
        <time>2022-08-27T09:04:03Z</time>
      </trkpt>
      <trkpt lat="45.80253" lon="6.9859">
        <ele>1795</ele>
        <time>2022-08-27T09:04:04Z</time>
      </trkpt>
      <trkpt lat="45.80253" lon="6.98589">
        <ele>1796</ele>
        <time>2022-08-27T09:04:06Z</time>
      </trkpt>
      <trkpt lat="45.80253" lon="6.98589">
        <ele>1797</ele>
        <time>2022-08-27T09:04:07Z</time>
      </trkpt>
      <trkpt lat="45.80253" lon="6.98588">
        <ele>1797</ele>
        <time>2022-08-27T09:04:08Z</time>
      </trkpt>
      <trkpt lat="45.80253" lon="6.98587">
        <ele>1797</ele>
        <time>2022-08-27T09:04:09Z</time>
      </trkpt>
      <trkpt lat="45.80253" lon="6.98587">
        <ele>1797</ele>
        <time>2022-08-27T09:04:11Z</time>
      </trkpt>
      <trkpt lat="45.80253" lon="6.98586">
        <ele>1797</ele>
        <time>2022-08-27T09:04:13Z</time>
      </trkpt>
      <trkpt lat="45.80253" lon="6.98585">
        <ele>1797</ele>
        <time>2022-08-27T09:04:14Z</time>
      </trkpt>
      <trkpt lat="45.80253" lon="6.98585">
        <ele>1797</ele>
        <time>2022-08-27T09:04:15Z</time>
      </trkpt>
      <trkpt lat="45.80254" lon="6.98584">
        <ele>1798</ele>
        <time>2022-08-27T09:04:17Z</time>
      </trkpt>
      <trkpt lat="45.80254" lon="6.98584">
        <ele>1798</ele>
        <time>2022-08-27T09:04:18Z</time>
      </trkpt>
      <trkpt lat="45.80254" lon="6.98583">
        <ele>1798</ele>
        <time>2022-08-27T09:04:19Z</time>
      </trkpt>
      <trkpt lat="45.80254" lon="6.98582">
        <ele>1799</ele>
        <time>2022-08-27T09:04:20Z</time>
      </trkpt>
      <trkpt lat="45.80254" lon="6.98582">
        <ele>1799</ele>
        <time>2022-08-27T09:04:22Z</time>
      </trkpt>
      <trkpt lat="45.80254" lon="6.98581">
        <ele>1799</ele>
        <time>2022-08-27T09:04:23Z</time>
      </trkpt>
      <trkpt lat="45.80254" lon="6.98581">
        <ele>1799</ele>
        <time>2022-08-27T09:04:24Z</time>
      </trkpt>
      <trkpt lat="45.80254" lon="6.9858">
        <ele>1800</ele>
        <time>2022-08-27T09:04:25Z</time>
      </trkpt>
      <trkpt lat="45.80254" lon="6.98579">
        <ele>1800</ele>
        <time>2022-08-27T09:04:27Z</time>
      </trkpt>
      <trkpt lat="45.80254" lon="6.98579">
        <ele>1800</ele>
        <time>2022-08-27T09:04:29Z</time>
      </trkpt>
      <trkpt lat="45.80255" lon="6.98578">
        <ele>1800</ele>
        <time>2022-08-27T09:04:30Z</time>
      </trkpt>
      <trkpt lat="45.80255" lon="6.98577">
        <ele>1801</ele>
        <time>2022-08-27T09:04:32Z</time>
      </trkpt>
      <trkpt lat="45.80255" lon="6.98577">
        <ele>1801</ele>
        <time>2022-08-27T09:04:33Z</time>
      </trkpt>
      <trkpt lat="45.80256" lon="6.98576">
        <ele>1801</ele>
        <time>2022-08-27T09:04:34Z</time>
      </trkpt>
      <trkpt lat="45.80256" lon="6.98575">
        <ele>1801</ele>
        <time>2022-08-27T09:04:35Z</time>
      </trkpt>
      <trkpt lat="45.80257" lon="6.98575">
        <ele>1801</ele>
        <time>2022-08-27T09:04:36Z</time>
      </trkpt>
      <trkpt lat="45.80258" lon="6.98574">
        <ele>1801</ele>
        <time>2022-08-27T09:04:38Z</time>
      </trkpt>
      <trkpt lat="45.80259" lon="6.98573">
        <ele>1802</ele>
        <time>2022-08-27T09:04:39Z</time>
      </trkpt>
      <trkpt lat="45.80259" lon="6.98572">
        <ele>1802</ele>
        <time>2022-08-27T09:04:40Z</time>
      </trkpt>
      <trkpt lat="45.8026" lon="6.98572">
        <ele>1802</ele>
        <time>2022-08-27T09:04:41Z</time>
      </trkpt>
      <trkpt lat="45.80261" lon="6.98571">
        <ele>1803</ele>
        <time>2022-08-27T09:04:43Z</time>
      </trkpt>
      <trkpt lat="45.80262" lon="6.9857">
        <ele>1803</ele>
        <time>2022-08-27T09:04:45Z</time>
      </trkpt>
      <trkpt lat="45.80263" lon="6.98569">
        <ele>1803</ele>
        <time>2022-08-27T09:04:46Z</time>
      </trkpt>
      <trkpt lat="45.80263" lon="6.98568">
        <ele>1804</ele>
        <time>2022-08-27T09:04:47Z</time>
      </trkpt>
      <trkpt lat="45.80264" lon="6.98566">
        <ele>1804</ele>
        <time>2022-08-27T09:04:49Z</time>
      </trkpt>
      <trkpt lat="45.80265" lon="6.98564">
        <ele>1804</ele>
        <time>2022-08-27T09:04:51Z</time>
      </trkpt>
      <trkpt lat="45.80265" lon="6.98562">
        <ele>1804</ele>
        <time>2022-08-27T09:04:52Z</time>
      </trkpt>
      <trkpt lat="45.80266" lon="6.9856">
        <ele>1804</ele>
        <time>2022-08-27T09:04:53Z</time>
      </trkpt>
      <trkpt lat="45.80266" lon="6.98558">
        <ele>1804</ele>
        <time>2022-08-27T09:04:55Z</time>
      </trkpt>
      <trkpt lat="45.80267" lon="6.98555">
        <ele>1804</ele>
        <time>2022-08-27T09:04:56Z</time>
      </trkpt>
      <trkpt lat="45.80268" lon="6.98554">
        <ele>1804</ele>
        <time>2022-08-27T09:04:57Z</time>
      </trkpt>
      <trkpt lat="45.80268" lon="6.98553">
        <ele>1805</ele>
        <time>2022-08-27T09:04:58Z</time>
      </trkpt>
      <trkpt lat="45.80269" lon="6.98551">
        <ele>1806</ele>
        <time>2022-08-27T09:05:00Z</time>
      </trkpt>
      <trkpt lat="45.80269" lon="6.9855">
        <ele>1806</ele>
        <time>2022-08-27T09:05:01Z</time>
      </trkpt>
      <trkpt lat="45.8027" lon="6.98548">
        <ele>1806</ele>
        <time>2022-08-27T09:05:02Z</time>
      </trkpt>
      <trkpt lat="45.8027" lon="6.98547">
        <ele>1806</ele>
        <time>2022-08-27T09:05:03Z</time>
      </trkpt>
      <trkpt lat="45.80271" lon="6.98545">
        <ele>1806</ele>
        <time>2022-08-27T09:05:05Z</time>
      </trkpt>
      <trkpt lat="45.80272" lon="6.98544">
        <ele>1806</ele>
        <time>2022-08-27T09:05:06Z</time>
      </trkpt>
      <trkpt lat="45.80273" lon="6.98544">
        <ele>1807</ele>
        <time>2022-08-27T09:05:07Z</time>
      </trkpt>
      <trkpt lat="45.80274" lon="6.98544">
        <ele>1807</ele>
        <time>2022-08-27T09:05:08Z</time>
      </trkpt>
      <trkpt lat="45.80275" lon="6.98545">
        <ele>1807</ele>
        <time>2022-08-27T09:05:10Z</time>
      </trkpt>
      <trkpt lat="45.80277" lon="6.98545">
        <ele>1808</ele>
        <time>2022-08-27T09:05:12Z</time>
      </trkpt>
      <trkpt lat="45.80278" lon="6.98545">
        <ele>1808</ele>
        <time>2022-08-27T09:05:13Z</time>
      </trkpt>
      <trkpt lat="45.80279" lon="6.98545">
        <ele>1808</ele>
        <time>2022-08-27T09:05:14Z</time>
      </trkpt>
      <trkpt lat="45.80281" lon="6.98545">
        <ele>1808</ele>
        <time>2022-08-27T09:05:15Z</time>
      </trkpt>
      <trkpt lat="45.80281" lon="6.98547">
        <ele>1808</ele>
        <time>2022-08-27T09:05:17Z</time>
      </trkpt>
      <trkpt lat="45.80282" lon="6.98548">
        <ele>1808</ele>
        <time>2022-08-27T09:05:18Z</time>
      </trkpt>
      <trkpt lat="45.80283" lon="6.98549">
        <ele>1808</ele>
        <time>2022-08-27T09:05:19Z</time>
      </trkpt>
      <trkpt lat="45.80284" lon="6.9855">
        <ele>1809</ele>
        <time>2022-08-27T09:05:20Z</time>
      </trkpt>
      <trkpt lat="45.80284" lon="6.98552">
        <ele>1809</ele>
        <time>2022-08-27T09:05:22Z</time>
      </trkpt>
      <trkpt lat="45.80285" lon="6.98553">
        <ele>1809</ele>
        <time>2022-08-27T09:05:24Z</time>
      </trkpt>
      <trkpt lat="45.80286" lon="6.98554">
        <ele>1809</ele>
        <time>2022-08-27T09:05:25Z</time>
      </trkpt>
      <trkpt lat="45.80287" lon="6.98556">
        <ele>1809</ele>
        <time>2022-08-27T09:05:26Z</time>
      </trkpt>
      <trkpt lat="45.80288" lon="6.98557">
        <ele>1809</ele>
        <time>2022-08-27T09:05:27Z</time>
      </trkpt>
      <trkpt lat="45.80289" lon="6.98559">
        <ele>1810</ele>
        <time>2022-08-27T09:05:29Z</time>
      </trkpt>
      <trkpt lat="45.8029" lon="6.98561">
        <ele>1810</ele>
        <time>2022-08-27T09:05:30Z</time>
      </trkpt>
      <trkpt lat="45.80291" lon="6.98563">
        <ele>1810</ele>
        <time>2022-08-27T09:05:31Z</time>
      </trkpt>
      <trkpt lat="45.80292" lon="6.98564">
        <ele>1810</ele>
        <time>2022-08-27T09:05:33Z</time>
      </trkpt>
      <trkpt lat="45.80293" lon="6.98566">
        <ele>1810</ele>
        <time>2022-08-27T09:05:34Z</time>
      </trkpt>
      <trkpt lat="45.80294" lon="6.98569">
        <ele>1810</ele>
        <time>2022-08-27T09:05:35Z</time>
      </trkpt>
      <trkpt lat="45.80294" lon="6.98571">
        <ele>1810</ele>
        <time>2022-08-27T09:05:36Z</time>
      </trkpt>
      <trkpt lat="45.80294" lon="6.98574">
        <ele>1811</ele>
        <time>2022-08-27T09:05:38Z</time>
      </trkpt>
      <trkpt lat="45.80295" lon="6.98576">
        <ele>1811</ele>
        <time>2022-08-27T09:05:39Z</time>
      </trkpt>
      <trkpt lat="45.80295" lon="6.98579">
        <ele>1811</ele>
        <time>2022-08-27T09:05:40Z</time>
      </trkpt>
      <trkpt lat="45.80295" lon="6.9858">
        <ele>1811</ele>
        <time>2022-08-27T09:05:41Z</time>
      </trkpt>
      <trkpt lat="45.80295" lon="6.98581">
        <ele>1812</ele>
        <time>2022-08-27T09:05:43Z</time>
      </trkpt>
      <trkpt lat="45.80295" lon="6.98583">
        <ele>1812</ele>
        <time>2022-08-27T09:05:45Z</time>
      </trkpt>
      <trkpt lat="45.80295" lon="6.98584">
        <ele>1812</ele>
        <time>2022-08-27T09:05:46Z</time>
      </trkpt>
      <trkpt lat="45.80295" lon="6.98585">
        <ele>1812</ele>
        <time>2022-08-27T09:05:48Z</time>
      </trkpt>
      <trkpt lat="45.80295" lon="6.98586">
        <ele>1812</ele>
        <time>2022-08-27T09:05:50Z</time>
      </trkpt>
      <trkpt lat="45.80295" lon="6.98588">
        <ele>1812</ele>
        <time>2022-08-27T09:05:51Z</time>
      </trkpt>
      <trkpt lat="45.80295" lon="6.98589">
        <ele>1813</ele>
        <time>2022-08-27T09:05:52Z</time>
      </trkpt>
      <trkpt lat="45.80295" lon="6.9859">
        <ele>1813</ele>
        <time>2022-08-27T09:05:53Z</time>
      </trkpt>
      <trkpt lat="45.80294" lon="6.98591">
        <ele>1813</ele>
        <time>2022-08-27T09:05:54Z</time>
      </trkpt>
      <trkpt lat="45.80294" lon="6.98593">
        <ele>1814</ele>
        <time>2022-08-27T09:05:55Z</time>
      </trkpt>
      <trkpt lat="45.80294" lon="6.98594">
        <ele>1814</ele>
        <time>2022-08-27T09:05:57Z</time>
      </trkpt>
      <trkpt lat="45.80294" lon="6.98595">
        <ele>1814</ele>
        <time>2022-08-27T09:05:58Z</time>
      </trkpt>
      <trkpt lat="45.80294" lon="6.98596">
        <ele>1814</ele>
        <time>2022-08-27T09:05:59Z</time>
      </trkpt>
      <trkpt lat="45.80294" lon="6.98597">
        <ele>1814</ele>
        <time>2022-08-27T09:06:00Z</time>
      </trkpt>
      <trkpt lat="45.80294" lon="6.98598">
        <ele>1814</ele>
        <time>2022-08-27T09:06:02Z</time>
      </trkpt>
      <trkpt lat="45.80294" lon="6.98599">
        <ele>1814</ele>
        <time>2022-08-27T09:06:03Z</time>
      </trkpt>
      <trkpt lat="45.80294" lon="6.986">
        <ele>1814</ele>
        <time>2022-08-27T09:06:04Z</time>
      </trkpt>
      <trkpt lat="45.80294" lon="6.98601">
        <ele>1815</ele>
        <time>2022-08-27T09:06:05Z</time>
      </trkpt>
      <trkpt lat="45.80294" lon="6.98602">
        <ele>1815</ele>
        <time>2022-08-27T09:06:07Z</time>
      </trkpt>
      <trkpt lat="45.80293" lon="6.98604">
        <ele>1816</ele>
        <time>2022-08-27T09:06:09Z</time>
      </trkpt>
      <trkpt lat="45.80293" lon="6.98605">
        <ele>1816</ele>
        <time>2022-08-27T09:06:10Z</time>
      </trkpt>
      <trkpt lat="45.80293" lon="6.98606">
        <ele>1817</ele>
        <time>2022-08-27T09:06:11Z</time>
      </trkpt>
      <trkpt lat="45.80293" lon="6.98607">
        <ele>1817</ele>
        <time>2022-08-27T09:06:12Z</time>
      </trkpt>
      <trkpt lat="45.80293" lon="6.98608">
        <ele>1817</ele>
        <time>2022-08-27T09:06:14Z</time>
      </trkpt>
      <trkpt lat="45.80293" lon="6.98609">
        <ele>1817</ele>
        <time>2022-08-27T09:06:15Z</time>
      </trkpt>
      <trkpt lat="45.80293" lon="6.9861">
        <ele>1817</ele>
        <time>2022-08-27T09:06:16Z</time>
      </trkpt>
      <trkpt lat="45.80293" lon="6.98612">
        <ele>1817</ele>
        <time>2022-08-27T09:06:17Z</time>
      </trkpt>
      <trkpt lat="45.80293" lon="6.98613">
        <ele>1818</ele>
        <time>2022-08-27T09:06:19Z</time>
      </trkpt>
      <trkpt lat="45.80293" lon="6.98614">
        <ele>1818</ele>
        <time>2022-08-27T09:06:20Z</time>
      </trkpt>
      <trkpt lat="45.80293" lon="6.98615">
        <ele>1818</ele>
        <time>2022-08-27T09:06:21Z</time>
      </trkpt>
      <trkpt lat="45.80293" lon="6.98616">
        <ele>1818</ele>
        <time>2022-08-27T09:06:22Z</time>
      </trkpt>
      <trkpt lat="45.80293" lon="6.98618">
        <ele>1819</ele>
        <time>2022-08-27T09:06:24Z</time>
      </trkpt>
      <trkpt lat="45.80293" lon="6.98619">
        <ele>1819</ele>
        <time>2022-08-27T09:06:25Z</time>
      </trkpt>
      <trkpt lat="45.80293" lon="6.9862">
        <ele>1819</ele>
        <time>2022-08-27T09:06:26Z</time>
      </trkpt>
      <trkpt lat="45.80293" lon="6.98621">
        <ele>1819</ele>
        <time>2022-08-27T09:06:28Z</time>
      </trkpt>
      <trkpt lat="45.80293" lon="6.98622">
        <ele>1819</ele>
        <time>2022-08-27T09:06:29Z</time>
      </trkpt>
      <trkpt lat="45.80293" lon="6.98623">
        <ele>1819</ele>
        <time>2022-08-27T09:06:30Z</time>
      </trkpt>
      <trkpt lat="45.80293" lon="6.98624">
        <ele>1820</ele>
        <time>2022-08-27T09:06:31Z</time>
      </trkpt>
      <trkpt lat="45.80293" lon="6.98625">
        <ele>1820</ele>
        <time>2022-08-27T09:06:32Z</time>
      </trkpt>
      <trkpt lat="45.80293" lon="6.98626">
        <ele>1821</ele>
        <time>2022-08-27T09:06:33Z</time>
      </trkpt>
      <trkpt lat="45.80295" lon="6.9864">
        <ele>1824</ele>
        <time>2022-08-27T09:06:52Z</time>
      </trkpt>
      <trkpt lat="45.80296" lon="6.98641">
        <ele>1824</ele>
        <time>2022-08-27T09:06:53Z</time>
      </trkpt>
      <trkpt lat="45.80296" lon="6.98643">
        <ele>1824</ele>
        <time>2022-08-27T09:06:54Z</time>
      </trkpt>
      <trkpt lat="45.80296" lon="6.98644">
        <ele>1824</ele>
        <time>2022-08-27T09:06:55Z</time>
      </trkpt>
      <trkpt lat="45.80296" lon="6.98646">
        <ele>1825</ele>
        <time>2022-08-27T09:06:57Z</time>
      </trkpt>
      <trkpt lat="45.80296" lon="6.98648">
        <ele>1825</ele>
        <time>2022-08-27T09:06:58Z</time>
      </trkpt>
      <trkpt lat="45.80297" lon="6.98649">
        <ele>1825</ele>
        <time>2022-08-27T09:06:59Z</time>
      </trkpt>
      <trkpt lat="45.80297" lon="6.98651">
        <ele>1825</ele>
        <time>2022-08-27T09:07:00Z</time>
      </trkpt>
      <trkpt lat="45.80297" lon="6.98652">
        <ele>1825</ele>
        <time>2022-08-27T09:07:01Z</time>
      </trkpt>
      <trkpt lat="45.80297" lon="6.98654">
        <ele>1826</ele>
        <time>2022-08-27T09:07:02Z</time>
      </trkpt>
      <trkpt lat="45.80297" lon="6.98656">
        <ele>1826</ele>
        <time>2022-08-27T09:07:04Z</time>
      </trkpt>
      <trkpt lat="45.80298" lon="6.98658">
        <ele>1826</ele>
        <time>2022-08-27T09:07:05Z</time>
      </trkpt>
      <trkpt lat="45.80298" lon="6.98661">
        <ele>1826</ele>
        <time>2022-08-27T09:07:06Z</time>
      </trkpt>
      <trkpt lat="45.80298" lon="6.98663">
        <ele>1826</ele>
        <time>2022-08-27T09:07:08Z</time>
      </trkpt>
      <trkpt lat="45.80298" lon="6.98665">
        <ele>1826</ele>
        <time>2022-08-27T09:07:09Z</time>
      </trkpt>
      <trkpt lat="45.80299" lon="6.98668">
        <ele>1826</ele>
        <time>2022-08-27T09:07:10Z</time>
      </trkpt>
      <trkpt lat="45.803" lon="6.98669">
        <ele>1826</ele>
        <time>2022-08-27T09:07:11Z</time>
      </trkpt>
      <trkpt lat="45.803" lon="6.98671">
        <ele>1826</ele>
        <time>2022-08-27T09:07:13Z</time>
      </trkpt>
      <trkpt lat="45.80301" lon="6.98673">
        <ele>1826</ele>
        <time>2022-08-27T09:07:14Z</time>
      </trkpt>
      <trkpt lat="45.80302" lon="6.98675">
        <ele>1827</ele>
        <time>2022-08-27T09:07:15Z</time>
      </trkpt>
      <trkpt lat="45.80303" lon="6.98676">
        <ele>1827</ele>
        <time>2022-08-27T09:07:16Z</time>
      </trkpt>
      <trkpt lat="45.80304" lon="6.98678">
        <ele>1827</ele>
        <time>2022-08-27T09:07:18Z</time>
      </trkpt>
      <trkpt lat="45.80305" lon="6.9868">
        <ele>1827</ele>
        <time>2022-08-27T09:07:19Z</time>
      </trkpt>
      <trkpt lat="45.80305" lon="6.98679">
        <ele>1827</ele>
        <time>2022-08-27T09:07:20Z</time>
      </trkpt>
      <trkpt lat="45.80305" lon="6.98678">
        <ele>1827</ele>
        <time>2022-08-27T09:07:21Z</time>
      </trkpt>
      <trkpt lat="45.80305" lon="6.98678">
        <ele>1827</ele>
        <time>2022-08-27T09:07:23Z</time>
      </trkpt>
      <trkpt lat="45.80305" lon="6.98677">
        <ele>1829</ele>
        <time>2022-08-27T09:07:25Z</time>
      </trkpt>
      <trkpt lat="45.80306" lon="6.98676">
        <ele>1829</ele>
        <time>2022-08-27T09:07:26Z</time>
      </trkpt>
      <trkpt lat="45.80306" lon="6.98676">
        <ele>1829</ele>
        <time>2022-08-27T09:07:27Z</time>
      </trkpt>
      <trkpt lat="45.80306" lon="6.98675">
        <ele>1829</ele>
        <time>2022-08-27T09:07:29Z</time>
      </trkpt>
      <trkpt lat="45.80306" lon="6.98674">
        <ele>1829</ele>
        <time>2022-08-27T09:07:30Z</time>
      </trkpt>
      <trkpt lat="45.80306" lon="6.98674">
        <ele>1829</ele>
        <time>2022-08-27T09:07:32Z</time>
      </trkpt>
      <trkpt lat="45.80306" lon="6.98673">
        <ele>1830</ele>
        <time>2022-08-27T09:07:33Z</time>
      </trkpt>
      <trkpt lat="45.80306" lon="6.98672">
        <ele>1830</ele>
        <time>2022-08-27T09:07:34Z</time>
      </trkpt>
      <trkpt lat="45.80306" lon="6.98672">
        <ele>1830</ele>
        <time>2022-08-27T09:07:35Z</time>
      </trkpt>
      <trkpt lat="45.80307" lon="6.98671">
        <ele>1830</ele>
        <time>2022-08-27T09:07:37Z</time>
      </trkpt>
      <trkpt lat="45.80307" lon="6.9867">
        <ele>1830</ele>
        <time>2022-08-27T09:07:38Z</time>
      </trkpt>
      <trkpt lat="45.80307" lon="6.9867">
        <ele>1830</ele>
        <time>2022-08-27T09:07:39Z</time>
      </trkpt>
      <trkpt lat="45.80307" lon="6.98669">
        <ele>1830</ele>
        <time>2022-08-27T09:07:40Z</time>
      </trkpt>
      <trkpt lat="45.80307" lon="6.98668">
        <ele>1830</ele>
        <time>2022-08-27T09:07:42Z</time>
      </trkpt>
      <trkpt lat="45.80307" lon="6.98668">
        <ele>1830</ele>
        <time>2022-08-27T09:07:43Z</time>
      </trkpt>
      <trkpt lat="45.80307" lon="6.98667">
        <ele>1830</ele>
        <time>2022-08-27T09:07:44Z</time>
      </trkpt>
      <trkpt lat="45.80308" lon="6.98666">
        <ele>1831</ele>
        <time>2022-08-27T09:07:45Z</time>
      </trkpt>
      <trkpt lat="45.80309" lon="6.98666">
        <ele>1831</ele>
        <time>2022-08-27T09:07:46Z</time>
      </trkpt>
      <trkpt lat="45.80309" lon="6.98665">
        <ele>1831</ele>
        <time>2022-08-27T09:07:47Z</time>
      </trkpt>
      <trkpt lat="45.8031" lon="6.98664">
        <ele>1831</ele>
        <time>2022-08-27T09:07:48Z</time>
      </trkpt>
      <trkpt lat="45.80311" lon="6.98664">
        <ele>1832</ele>
        <time>2022-08-27T09:07:50Z</time>
      </trkpt>
      <trkpt lat="45.80312" lon="6.98663">
        <ele>1833</ele>
        <time>2022-08-27T09:07:52Z</time>
      </trkpt>
      <trkpt lat="45.80313" lon="6.98663">
        <ele>1832</ele>
        <time>2022-08-27T09:07:53Z</time>
      </trkpt>
      <trkpt lat="45.80314" lon="6.98662">
        <ele>1832</ele>
        <time>2022-08-27T09:07:54Z</time>
      </trkpt>
      <trkpt lat="45.80315" lon="6.98661">
        <ele>1832</ele>
        <time>2022-08-27T09:07:55Z</time>
      </trkpt>
      <trkpt lat="45.80316" lon="6.98661">
        <ele>1832</ele>
        <time>2022-08-27T09:07:56Z</time>
      </trkpt>
      <trkpt lat="45.80317" lon="6.9866">
        <ele>1833</ele>
        <time>2022-08-27T09:07:57Z</time>
      </trkpt>
      <trkpt lat="45.80318" lon="6.98659">
        <ele>1833</ele>
        <time>2022-08-27T09:07:58Z</time>
      </trkpt>
      <trkpt lat="45.8032" lon="6.98657">
        <ele>1833</ele>
        <time>2022-08-27T09:07:59Z</time>
      </trkpt>
      <trkpt lat="45.80322" lon="6.98656">
        <ele>1833</ele>
        <time>2022-08-27T09:08:01Z</time>
      </trkpt>
      <trkpt lat="45.80323" lon="6.98655">
        <ele>1834</ele>
        <time>2022-08-27T09:08:02Z</time>
      </trkpt>
      <trkpt lat="45.80325" lon="6.98653">
        <ele>1834</ele>
        <time>2022-08-27T09:08:03Z</time>
      </trkpt>
      <trkpt lat="45.80326" lon="6.98653">
        <ele>1834</ele>
        <time>2022-08-27T09:08:05Z</time>
      </trkpt>
      <trkpt lat="45.80327" lon="6.98653">
        <ele>1834</ele>
        <time>2022-08-27T09:08:06Z</time>
      </trkpt>
      <trkpt lat="45.80328" lon="6.98652">
        <ele>1835</ele>
        <time>2022-08-27T09:08:07Z</time>
      </trkpt>
      <trkpt lat="45.80328" lon="6.98652">
        <ele>1835</ele>
        <time>2022-08-27T09:08:08Z</time>
      </trkpt>
      <trkpt lat="45.80329" lon="6.98652">
        <ele>1836</ele>
        <time>2022-08-27T09:08:10Z</time>
      </trkpt>
      <trkpt lat="45.8033" lon="6.98651">
        <ele>1836</ele>
        <time>2022-08-27T09:08:11Z</time>
      </trkpt>
      <trkpt lat="45.80331" lon="6.98651">
        <ele>1836</ele>
        <time>2022-08-27T09:08:12Z</time>
      </trkpt>
      <trkpt lat="45.80332" lon="6.98651">
        <ele>1836</ele>
        <time>2022-08-27T09:08:13Z</time>
      </trkpt>
      <trkpt lat="45.80333" lon="6.9865">
        <ele>1836</ele>
        <time>2022-08-27T09:08:14Z</time>
      </trkpt>
      <trkpt lat="45.80334" lon="6.9865">
        <ele>1836</ele>
        <time>2022-08-27T09:08:15Z</time>
      </trkpt>
      <trkpt lat="45.80334" lon="6.98648">
        <ele>1836</ele>
        <time>2022-08-27T09:08:16Z</time>
      </trkpt>
      <trkpt lat="45.80334" lon="6.98646">
        <ele>1836</ele>
        <time>2022-08-27T09:08:17Z</time>
      </trkpt>
      <trkpt lat="45.80335" lon="6.98644">
        <ele>1837</ele>
        <time>2022-08-27T09:08:18Z</time>
      </trkpt>
      <trkpt lat="45.80335" lon="6.98641">
        <ele>1837</ele>
        <time>2022-08-27T09:08:20Z</time>
      </trkpt>
      <trkpt lat="45.80335" lon="6.98639">
        <ele>1837</ele>
        <time>2022-08-27T09:08:21Z</time>
      </trkpt>
      <trkpt lat="45.80336" lon="6.98637">
        <ele>1837</ele>
        <time>2022-08-27T09:08:22Z</time>
      </trkpt>
      <trkpt lat="45.80336" lon="6.98636">
        <ele>1837</ele>
        <time>2022-08-27T09:08:23Z</time>
      </trkpt>
      <trkpt lat="45.80336" lon="6.98634">
        <ele>1837</ele>
        <time>2022-08-27T09:08:24Z</time>
      </trkpt>
      <trkpt lat="45.80337" lon="6.98632">
        <ele>1837</ele>
        <time>2022-08-27T09:08:25Z</time>
      </trkpt>
      <trkpt lat="45.80337" lon="6.98631">
        <ele>1837</ele>
        <time>2022-08-27T09:08:27Z</time>
      </trkpt>
      <trkpt lat="45.80338" lon="6.98629">
        <ele>1838</ele>
        <time>2022-08-27T09:08:28Z</time>
      </trkpt>
      <trkpt lat="45.80338" lon="6.98628">
        <ele>1838</ele>
        <time>2022-08-27T09:08:29Z</time>
      </trkpt>
      <trkpt lat="45.80339" lon="6.98626">
        <ele>1838</ele>
        <time>2022-08-27T09:08:30Z</time>
      </trkpt>
      <trkpt lat="45.80339" lon="6.98625">
        <ele>1838</ele>
        <time>2022-08-27T09:08:31Z</time>
      </trkpt>
      <trkpt lat="45.80348" lon="6.98619">
        <ele>1839</ele>
        <time>2022-08-27T09:08:36Z</time>
      </trkpt>
      <trkpt lat="45.80353" lon="6.98607">
        <ele>1841</ele>
        <time>2022-08-27T09:08:48Z</time>
      </trkpt>
      <trkpt lat="45.80353" lon="6.98607">
        <ele>1842</ele>
        <time>2022-08-27T09:08:54Z</time>
      </trkpt>
      <trkpt lat="45.80362" lon="6.98606">
        <ele>1844</ele>
        <time>2022-08-27T09:09:04Z</time>
      </trkpt>
      <trkpt lat="45.80363" lon="6.98606">
        <ele>1845</ele>
        <time>2022-08-27T09:09:05Z</time>
      </trkpt>
      <trkpt lat="45.80363" lon="6.98607">
        <ele>1845</ele>
        <time>2022-08-27T09:09:06Z</time>
      </trkpt>
      <trkpt lat="45.80363" lon="6.98607">
        <ele>1845</ele>
        <time>2022-08-27T09:09:07Z</time>
      </trkpt>
      <trkpt lat="45.80364" lon="6.98608">
        <ele>1845</ele>
        <time>2022-08-27T09:09:09Z</time>
      </trkpt>
      <trkpt lat="45.80364" lon="6.98608">
        <ele>1845</ele>
        <time>2022-08-27T09:09:10Z</time>
      </trkpt>
      <trkpt lat="45.80364" lon="6.98608">
        <ele>1845</ele>
        <time>2022-08-27T09:09:11Z</time>
      </trkpt>
      <trkpt lat="45.80365" lon="6.98609">
        <ele>1846</ele>
        <time>2022-08-27T09:09:12Z</time>
      </trkpt>
      <trkpt lat="45.80365" lon="6.98609">
        <ele>1846</ele>
        <time>2022-08-27T09:09:14Z</time>
      </trkpt>
      <trkpt lat="45.80365" lon="6.98609">
        <ele>1846</ele>
        <time>2022-08-27T09:09:15Z</time>
      </trkpt>
      <trkpt lat="45.80366" lon="6.9861">
        <ele>1847</ele>
        <time>2022-08-27T09:09:17Z</time>
      </trkpt>
      <trkpt lat="45.80366" lon="6.9861">
        <ele>1847</ele>
        <time>2022-08-27T09:09:18Z</time>
      </trkpt>
      <trkpt lat="45.80366" lon="6.9861">
        <ele>1848</ele>
        <time>2022-08-27T09:09:19Z</time>
      </trkpt>
      <trkpt lat="45.80366" lon="6.98611">
        <ele>1848</ele>
        <time>2022-08-27T09:09:20Z</time>
      </trkpt>
      <trkpt lat="45.80367" lon="6.98611">
        <ele>1848</ele>
        <time>2022-08-27T09:09:22Z</time>
      </trkpt>
      <trkpt lat="45.80367" lon="6.98612">
        <ele>1848</ele>
        <time>2022-08-27T09:09:23Z</time>
      </trkpt>
      <trkpt lat="45.80367" lon="6.98612">
        <ele>1848</ele>
        <time>2022-08-27T09:09:24Z</time>
      </trkpt>
      <trkpt lat="45.80368" lon="6.98612">
        <ele>1848</ele>
        <time>2022-08-27T09:09:25Z</time>
      </trkpt>
      <trkpt lat="45.80368" lon="6.98613">
        <ele>1848</ele>
        <time>2022-08-27T09:09:27Z</time>
      </trkpt>
      <trkpt lat="45.80368" lon="6.98613">
        <ele>1848</ele>
        <time>2022-08-27T09:09:28Z</time>
      </trkpt>
      <trkpt lat="45.80369" lon="6.98613">
        <ele>1849</ele>
        <time>2022-08-27T09:09:29Z</time>
      </trkpt>
      <trkpt lat="45.80369" lon="6.98614">
        <ele>1849</ele>
        <time>2022-08-27T09:09:30Z</time>
      </trkpt>
      <trkpt lat="45.80369" lon="6.98614">
        <ele>1849</ele>
        <time>2022-08-27T09:09:31Z</time>
      </trkpt>
      <trkpt lat="45.8037" lon="6.98614">
        <ele>1850</ele>
        <time>2022-08-27T09:09:32Z</time>
      </trkpt>
      <trkpt lat="45.8037" lon="6.98616">
        <ele>1850</ele>
        <time>2022-08-27T09:09:33Z</time>
      </trkpt>
      <trkpt lat="45.8037" lon="6.98617">
        <ele>1850</ele>
        <time>2022-08-27T09:09:34Z</time>
      </trkpt>
      <trkpt lat="45.80371" lon="6.98618">
        <ele>1850</ele>
        <time>2022-08-27T09:09:36Z</time>
      </trkpt>
      <trkpt lat="45.80371" lon="6.98619">
        <ele>1850</ele>
        <time>2022-08-27T09:09:37Z</time>
      </trkpt>
      <trkpt lat="45.80371" lon="6.98621">
        <ele>1851</ele>
        <time>2022-08-27T09:09:38Z</time>
      </trkpt>
      <trkpt lat="45.80372" lon="6.98622">
        <ele>1851</ele>
        <time>2022-08-27T09:09:40Z</time>
      </trkpt>
      <trkpt lat="45.80372" lon="6.98623">
        <ele>1851</ele>
        <time>2022-08-27T09:09:41Z</time>
      </trkpt>
      <trkpt lat="45.80372" lon="6.98624">
        <ele>1852</ele>
        <time>2022-08-27T09:09:42Z</time>
      </trkpt>
      <trkpt lat="45.80373" lon="6.98626">
        <ele>1852</ele>
        <time>2022-08-27T09:09:43Z</time>
      </trkpt>
      <trkpt lat="45.80373" lon="6.98627">
        <ele>1852</ele>
        <time>2022-08-27T09:09:44Z</time>
      </trkpt>
      <trkpt lat="45.80379" lon="6.98638">
        <ele>1855</ele>
        <time>2022-08-27T09:09:59Z</time>
      </trkpt>
      <trkpt lat="45.80379" lon="6.98638">
        <ele>1857</ele>
        <time>2022-08-27T09:10:05Z</time>
      </trkpt>
      <trkpt lat="45.80385" lon="6.98628">
        <ele>1857</ele>
        <time>2022-08-27T09:10:09Z</time>
      </trkpt>
      <trkpt lat="45.80387" lon="6.98615">
        <ele>1860</ele>
        <time>2022-08-27T09:10:21Z</time>
      </trkpt>
      <trkpt lat="45.80387" lon="6.98613">
        <ele>1861</ele>
        <time>2022-08-27T09:10:23Z</time>
      </trkpt>
      <trkpt lat="45.80387" lon="6.98611">
        <ele>1861</ele>
        <time>2022-08-27T09:10:24Z</time>
      </trkpt>
      <trkpt lat="45.80388" lon="6.9861">
        <ele>1861</ele>
        <time>2022-08-27T09:10:26Z</time>
      </trkpt>
      <trkpt lat="45.80388" lon="6.98608">
        <ele>1862</ele>
        <time>2022-08-27T09:10:28Z</time>
      </trkpt>
      <trkpt lat="45.80388" lon="6.98606">
        <ele>1862</ele>
        <time>2022-08-27T09:10:29Z</time>
      </trkpt>
      <trkpt lat="45.80388" lon="6.98604">
        <ele>1862</ele>
        <time>2022-08-27T09:10:30Z</time>
      </trkpt>
      <trkpt lat="45.80388" lon="6.98602">
        <ele>1862</ele>
        <time>2022-08-27T09:10:31Z</time>
      </trkpt>
      <trkpt lat="45.80389" lon="6.98603">
        <ele>1862</ele>
        <time>2022-08-27T09:10:33Z</time>
      </trkpt>
      <trkpt lat="45.80389" lon="6.98603">
        <ele>1862</ele>
        <time>2022-08-27T09:10:34Z</time>
      </trkpt>
      <trkpt lat="45.80389" lon="6.98604">
        <ele>1862</ele>
        <time>2022-08-27T09:10:35Z</time>
      </trkpt>
      <trkpt lat="45.8039" lon="6.98604">
        <ele>1863</ele>
        <time>2022-08-27T09:10:36Z</time>
      </trkpt>
      <trkpt lat="45.8039" lon="6.98605">
        <ele>1863</ele>
        <time>2022-08-27T09:10:38Z</time>
      </trkpt>
      <trkpt lat="45.8039" lon="6.98605">
        <ele>1863</ele>
        <time>2022-08-27T09:10:40Z</time>
      </trkpt>
      <trkpt lat="45.80391" lon="6.98606">
        <ele>1863</ele>
        <time>2022-08-27T09:10:41Z</time>
      </trkpt>
      <trkpt lat="45.80391" lon="6.98606">
        <ele>1863</ele>
        <time>2022-08-27T09:10:42Z</time>
      </trkpt>
      <trkpt lat="45.80391" lon="6.98607">
        <ele>1863</ele>
        <time>2022-08-27T09:10:43Z</time>
      </trkpt>
      <trkpt lat="45.80392" lon="6.98607">
        <ele>1864</ele>
        <time>2022-08-27T09:10:45Z</time>
      </trkpt>
      <trkpt lat="45.80392" lon="6.98607">
        <ele>1864</ele>
        <time>2022-08-27T09:10:46Z</time>
      </trkpt>
      <trkpt lat="45.80392" lon="6.98608">
        <ele>1865</ele>
        <time>2022-08-27T09:10:47Z</time>
      </trkpt>
      <trkpt lat="45.80393" lon="6.98608">
        <ele>1865</ele>
        <time>2022-08-27T09:10:48Z</time>
      </trkpt>
      <trkpt lat="45.80393" lon="6.98609">
        <ele>1865</ele>
        <time>2022-08-27T09:10:50Z</time>
      </trkpt>
      <trkpt lat="45.80393" lon="6.98609">
        <ele>1865</ele>
        <time>2022-08-27T09:10:52Z</time>
      </trkpt>
      <trkpt lat="45.80394" lon="6.9861">
        <ele>1865</ele>
        <time>2022-08-27T09:10:53Z</time>
      </trkpt>
      <trkpt lat="45.80394" lon="6.9861">
        <ele>1866</ele>
        <time>2022-08-27T09:10:54Z</time>
      </trkpt>
      <trkpt lat="45.80394" lon="6.98611">
        <ele>1866</ele>
        <time>2022-08-27T09:10:56Z</time>
      </trkpt>
      <trkpt lat="45.80395" lon="6.98611">
        <ele>1866</ele>
        <time>2022-08-27T09:10:57Z</time>
      </trkpt>
      <trkpt lat="45.80395" lon="6.98612">
        <ele>1866</ele>
        <time>2022-08-27T09:10:58Z</time>
      </trkpt>
      <trkpt lat="45.80395" lon="6.98614">
        <ele>1866</ele>
        <time>2022-08-27T09:10:59Z</time>
      </trkpt>
      <trkpt lat="45.80396" lon="6.98617">
        <ele>1866</ele>
        <time>2022-08-27T09:11:00Z</time>
      </trkpt>
      <trkpt lat="45.80397" lon="6.9862">
        <ele>1867</ele>
        <time>2022-08-27T09:11:01Z</time>
      </trkpt>
      <trkpt lat="45.80397" lon="6.98623">
        <ele>1867</ele>
        <time>2022-08-27T09:11:03Z</time>
      </trkpt>
      <trkpt lat="45.80398" lon="6.98626">
        <ele>1867</ele>
        <time>2022-08-27T09:11:04Z</time>
      </trkpt>
      <trkpt lat="45.80398" lon="6.98627">
        <ele>1867</ele>
        <time>2022-08-27T09:11:05Z</time>
      </trkpt>
      <trkpt lat="45.80398" lon="6.98629">
        <ele>1867</ele>
        <time>2022-08-27T09:11:06Z</time>
      </trkpt>
      <trkpt lat="45.80399" lon="6.9863">
        <ele>1867</ele>
        <time>2022-08-27T09:11:08Z</time>
      </trkpt>
      <trkpt lat="45.80399" lon="6.98631">
        <ele>1868</ele>
        <time>2022-08-27T09:11:09Z</time>
      </trkpt>
      <trkpt lat="45.80399" lon="6.98633">
        <ele>1868</ele>
        <time>2022-08-27T09:11:11Z</time>
      </trkpt>
      <trkpt lat="45.80399" lon="6.98634">
        <ele>1868</ele>
        <time>2022-08-27T09:11:12Z</time>
      </trkpt>
      <trkpt lat="45.804" lon="6.98636">
        <ele>1868</ele>
        <time>2022-08-27T09:11:13Z</time>
      </trkpt>
      <trkpt lat="45.804" lon="6.98637">
        <ele>1868</ele>
        <time>2022-08-27T09:11:14Z</time>
      </trkpt>
      <trkpt lat="45.804" lon="6.98638">
        <ele>1868</ele>
        <time>2022-08-27T09:11:15Z</time>
      </trkpt>
      <trkpt lat="45.80401" lon="6.98636">
        <ele>1868</ele>
        <time>2022-08-27T09:11:16Z</time>
      </trkpt>
      <trkpt lat="45.80402" lon="6.98634">
        <ele>1869</ele>
        <time>2022-08-27T09:11:17Z</time>
      </trkpt>
      <trkpt lat="45.80403" lon="6.98631">
        <ele>1869</ele>
        <time>2022-08-27T09:11:18Z</time>
      </trkpt>
      <trkpt lat="45.80403" lon="6.98629">
        <ele>1870</ele>
        <time>2022-08-27T09:11:20Z</time>
      </trkpt>
      <trkpt lat="45.80404" lon="6.98627">
        <ele>1870</ele>
        <time>2022-08-27T09:11:21Z</time>
      </trkpt>
      <trkpt lat="45.80407" lon="6.98613">
        <ele>1873</ele>
        <time>2022-08-27T09:11:32Z</time>
      </trkpt>
      <trkpt lat="45.80408" lon="6.98614">
        <ele>1873</ele>
        <time>2022-08-27T09:11:33Z</time>
      </trkpt>
      <trkpt lat="45.80408" lon="6.98614">
        <ele>1873</ele>
        <time>2022-08-27T09:11:34Z</time>
      </trkpt>
      <trkpt lat="45.80409" lon="6.98615">
        <ele>1873</ele>
        <time>2022-08-27T09:11:35Z</time>
      </trkpt>
      <trkpt lat="45.8041" lon="6.98615">
        <ele>1874</ele>
        <time>2022-08-27T09:11:37Z</time>
      </trkpt>
      <trkpt lat="45.8041" lon="6.98616">
        <ele>1874</ele>
        <time>2022-08-27T09:11:38Z</time>
      </trkpt>
      <trkpt lat="45.80411" lon="6.98616">
        <ele>1874</ele>
        <time>2022-08-27T09:11:40Z</time>
      </trkpt>
      <trkpt lat="45.80411" lon="6.98617">
        <ele>1874</ele>
        <time>2022-08-27T09:11:41Z</time>
      </trkpt>
      <trkpt lat="45.80412" lon="6.98617">
        <ele>1874</ele>
        <time>2022-08-27T09:11:42Z</time>
      </trkpt>
      <trkpt lat="45.80412" lon="6.98618">
        <ele>1875</ele>
        <time>2022-08-27T09:11:43Z</time>
      </trkpt>
      <trkpt lat="45.80413" lon="6.98618">
        <ele>1875</ele>
        <time>2022-08-27T09:11:45Z</time>
      </trkpt>
      <trkpt lat="45.80413" lon="6.98619">
        <ele>1875</ele>
        <time>2022-08-27T09:11:46Z</time>
      </trkpt>
      <trkpt lat="45.80414" lon="6.9862">
        <ele>1875</ele>
        <time>2022-08-27T09:11:47Z</time>
      </trkpt>
      <trkpt lat="45.80414" lon="6.9862">
        <ele>1875</ele>
        <time>2022-08-27T09:11:48Z</time>
      </trkpt>
      <trkpt lat="45.80415" lon="6.98621">
        <ele>1875</ele>
        <time>2022-08-27T09:11:49Z</time>
      </trkpt>
      <trkpt lat="45.80416" lon="6.98622">
        <ele>1875</ele>
        <time>2022-08-27T09:11:50Z</time>
      </trkpt>
      <trkpt lat="45.80416" lon="6.98623">
        <ele>1875</ele>
        <time>2022-08-27T09:11:51Z</time>
      </trkpt>
      <trkpt lat="45.80417" lon="6.98624">
        <ele>1876</ele>
        <time>2022-08-27T09:11:53Z</time>
      </trkpt>
      <trkpt lat="45.80418" lon="6.98625">
        <ele>1876</ele>
        <time>2022-08-27T09:11:54Z</time>
      </trkpt>
      <trkpt lat="45.80419" lon="6.98625">
        <ele>1876</ele>
        <time>2022-08-27T09:11:55Z</time>
      </trkpt>
      <trkpt lat="45.8042" lon="6.98626">
        <ele>1876</ele>
        <time>2022-08-27T09:11:56Z</time>
      </trkpt>
      <trkpt lat="45.80421" lon="6.98627">
        <ele>1876</ele>
        <time>2022-08-27T09:11:58Z</time>
      </trkpt>
      <trkpt lat="45.80421" lon="6.98628">
        <ele>1876</ele>
        <time>2022-08-27T09:11:59Z</time>
      </trkpt>
      <trkpt lat="45.80422" lon="6.98629">
        <ele>1876</ele>
        <time>2022-08-27T09:12:00Z</time>
      </trkpt>
      <trkpt lat="45.80423" lon="6.98631">
        <ele>1876</ele>
        <time>2022-08-27T09:12:01Z</time>
      </trkpt>
      <trkpt lat="45.80423" lon="6.98632">
        <ele>1877</ele>
        <time>2022-08-27T09:12:02Z</time>
      </trkpt>
      <trkpt lat="45.80424" lon="6.98634">
        <ele>1878</ele>
        <time>2022-08-27T09:12:03Z</time>
      </trkpt>
      <trkpt lat="45.80424" lon="6.98635">
        <ele>1878</ele>
        <time>2022-08-27T09:12:05Z</time>
      </trkpt>
      <trkpt lat="45.80425" lon="6.98637">
        <ele>1878</ele>
        <time>2022-08-27T09:12:06Z</time>
      </trkpt>
      <trkpt lat="45.80425" lon="6.98638">
        <ele>1878</ele>
        <time>2022-08-27T09:12:08Z</time>
      </trkpt>
      <trkpt lat="45.80425" lon="6.9864">
        <ele>1878</ele>
        <time>2022-08-27T09:12:09Z</time>
      </trkpt>
      <trkpt lat="45.80426" lon="6.98641">
        <ele>1878</ele>
        <time>2022-08-27T09:12:10Z</time>
      </trkpt>
      <trkpt lat="45.80427" lon="6.98642">
        <ele>1879</ele>
        <time>2022-08-27T09:12:12Z</time>
      </trkpt>
      <trkpt lat="45.80428" lon="6.98643">
        <ele>1879</ele>
        <time>2022-08-27T09:12:13Z</time>
      </trkpt>
      <trkpt lat="45.80428" lon="6.98643">
        <ele>1879</ele>
        <time>2022-08-27T09:12:14Z</time>
      </trkpt>
      <trkpt lat="45.80429" lon="6.98644">
        <ele>1879</ele>
        <time>2022-08-27T09:12:15Z</time>
      </trkpt>
      <trkpt lat="45.8043" lon="6.98644">
        <ele>1880</ele>
        <time>2022-08-27T09:12:17Z</time>
      </trkpt>
      <trkpt lat="45.80431" lon="6.98645">
        <ele>1880</ele>
        <time>2022-08-27T09:12:19Z</time>
      </trkpt>
      <trkpt lat="45.80432" lon="6.98645">
        <ele>1880</ele>
        <time>2022-08-27T09:12:20Z</time>
      </trkpt>
      <trkpt lat="45.80432" lon="6.98646">
        <ele>1880</ele>
        <time>2022-08-27T09:12:21Z</time>
      </trkpt>
      <trkpt lat="45.80433" lon="6.98647">
        <ele>1880</ele>
        <time>2022-08-27T09:12:22Z</time>
      </trkpt>
      <trkpt lat="45.80434" lon="6.98647">
        <ele>1881</ele>
        <time>2022-08-27T09:12:23Z</time>
      </trkpt>
      <trkpt lat="45.80443" lon="6.98649">
        <ele>1882</ele>
        <time>2022-08-27T09:12:31Z</time>
      </trkpt>
      <trkpt lat="45.80444" lon="6.98647">
        <ele>1882</ele>
        <time>2022-08-27T09:12:32Z</time>
      </trkpt>
      <trkpt lat="45.80445" lon="6.98646">
        <ele>1882</ele>
        <time>2022-08-27T09:12:33Z</time>
      </trkpt>
      <trkpt lat="45.80445" lon="6.98644">
        <ele>1882</ele>
        <time>2022-08-27T09:12:34Z</time>
      </trkpt>
      <trkpt lat="45.80446" lon="6.98642">
        <ele>1882</ele>
        <time>2022-08-27T09:12:36Z</time>
      </trkpt>
      <trkpt lat="45.80447" lon="6.98641">
        <ele>1883</ele>
        <time>2022-08-27T09:12:37Z</time>
      </trkpt>
      <trkpt lat="45.80447" lon="6.98639">
        <ele>1883</ele>
        <time>2022-08-27T09:12:38Z</time>
      </trkpt>
      <trkpt lat="45.80448" lon="6.98638">
        <ele>1883</ele>
        <time>2022-08-27T09:12:39Z</time>
      </trkpt>
      <trkpt lat="45.80448" lon="6.98636">
        <ele>1884</ele>
        <time>2022-08-27T09:12:41Z</time>
      </trkpt>
      <trkpt lat="45.80448" lon="6.98635">
        <ele>1884</ele>
        <time>2022-08-27T09:12:43Z</time>
      </trkpt>
      <trkpt lat="45.80447" lon="6.98634">
        <ele>1884</ele>
        <time>2022-08-27T09:12:44Z</time>
      </trkpt>
      <trkpt lat="45.80447" lon="6.98632">
        <ele>1884</ele>
        <time>2022-08-27T09:12:46Z</time>
      </trkpt>
      <trkpt lat="45.80447" lon="6.98631">
        <ele>1885</ele>
        <time>2022-08-27T09:12:48Z</time>
      </trkpt>
      <trkpt lat="45.80447" lon="6.98629">
        <ele>1885</ele>
        <time>2022-08-27T09:12:49Z</time>
      </trkpt>
      <trkpt lat="45.80447" lon="6.98628">
        <ele>1886</ele>
        <time>2022-08-27T09:12:50Z</time>
      </trkpt>
      <trkpt lat="45.80446" lon="6.98627">
        <ele>1886</ele>
        <time>2022-08-27T09:12:51Z</time>
      </trkpt>
      <trkpt lat="45.80446" lon="6.98625">
        <ele>1886</ele>
        <time>2022-08-27T09:12:52Z</time>
      </trkpt>
      <trkpt lat="45.80446" lon="6.98624">
        <ele>1886</ele>
        <time>2022-08-27T09:12:53Z</time>
      </trkpt>
      <trkpt lat="45.80446" lon="6.98624">
        <ele>1886</ele>
        <time>2022-08-27T09:12:54Z</time>
      </trkpt>
      <trkpt lat="45.80447" lon="6.98625">
        <ele>1887</ele>
        <time>2022-08-27T09:12:55Z</time>
      </trkpt>
      <trkpt lat="45.80447" lon="6.98625">
        <ele>1887</ele>
        <time>2022-08-27T09:12:56Z</time>
      </trkpt>
      <trkpt lat="45.80448" lon="6.98625">
        <ele>1887</ele>
        <time>2022-08-27T09:12:58Z</time>
      </trkpt>
      <trkpt lat="45.80448" lon="6.98626">
        <ele>1887</ele>
        <time>2022-08-27T09:12:59Z</time>
      </trkpt>
      <trkpt lat="45.80449" lon="6.98626">
        <ele>1887</ele>
        <time>2022-08-27T09:13:00Z</time>
      </trkpt>
      <trkpt lat="45.80449" lon="6.98627">
        <ele>1888</ele>
        <time>2022-08-27T09:13:01Z</time>
      </trkpt>
      <trkpt lat="45.8045" lon="6.98627">
        <ele>1889</ele>
        <time>2022-08-27T09:13:03Z</time>
      </trkpt>
      <trkpt lat="45.8045" lon="6.98627">
        <ele>1889</ele>
        <time>2022-08-27T09:13:05Z</time>
      </trkpt>
      <trkpt lat="45.80451" lon="6.98628">
        <ele>1889</ele>
        <time>2022-08-27T09:13:06Z</time>
      </trkpt>
      <trkpt lat="45.80452" lon="6.98628">
        <ele>1889</ele>
        <time>2022-08-27T09:13:07Z</time>
      </trkpt>
      <trkpt lat="45.80452" lon="6.98629">
        <ele>1889</ele>
        <time>2022-08-27T09:13:09Z</time>
      </trkpt>
      <trkpt lat="45.80453" lon="6.98629">
        <ele>1890</ele>
        <time>2022-08-27T09:13:10Z</time>
      </trkpt>
      <trkpt lat="45.80453" lon="6.98629">
        <ele>1890</ele>
        <time>2022-08-27T09:13:11Z</time>
      </trkpt>
      <trkpt lat="45.80454" lon="6.9863">
        <ele>1890</ele>
        <time>2022-08-27T09:13:12Z</time>
      </trkpt>
      <trkpt lat="45.80454" lon="6.9863">
        <ele>1890</ele>
        <time>2022-08-27T09:13:13Z</time>
      </trkpt>
      <trkpt lat="45.80455" lon="6.9863">
        <ele>1891</ele>
        <time>2022-08-27T09:13:14Z</time>
      </trkpt>
      <trkpt lat="45.80455" lon="6.98631">
        <ele>1891</ele>
        <time>2022-08-27T09:13:15Z</time>
      </trkpt>
      <trkpt lat="45.80455" lon="6.98631">
        <ele>1891</ele>
        <time>2022-08-27T09:13:16Z</time>
      </trkpt>
      <trkpt lat="45.80456" lon="6.98631">
        <ele>1892</ele>
        <time>2022-08-27T09:13:17Z</time>
      </trkpt>
      <trkpt lat="45.80456" lon="6.98632">
        <ele>1892</ele>
        <time>2022-08-27T09:13:19Z</time>
      </trkpt>
      <trkpt lat="45.80457" lon="6.98632">
        <ele>1892</ele>
        <time>2022-08-27T09:13:20Z</time>
      </trkpt>
      <trkpt lat="45.80457" lon="6.98633">
        <ele>1892</ele>
        <time>2022-08-27T09:13:21Z</time>
      </trkpt>
      <trkpt lat="45.80458" lon="6.98633">
        <ele>1892</ele>
        <time>2022-08-27T09:13:22Z</time>
      </trkpt>
      <trkpt lat="45.80458" lon="6.98633">
        <ele>1892</ele>
        <time>2022-08-27T09:13:24Z</time>
      </trkpt>
      <trkpt lat="45.80458" lon="6.98634">
        <ele>1894</ele>
        <time>2022-08-27T09:13:26Z</time>
      </trkpt>
      <trkpt lat="45.80459" lon="6.98634">
        <ele>1894</ele>
        <time>2022-08-27T09:13:27Z</time>
      </trkpt>
      <trkpt lat="45.80459" lon="6.98634">
        <ele>1895</ele>
        <time>2022-08-27T09:13:28Z</time>
      </trkpt>
      <trkpt lat="45.8046" lon="6.98635">
        <ele>1895</ele>
        <time>2022-08-27T09:13:29Z</time>
      </trkpt>
      <trkpt lat="45.8046" lon="6.98635">
        <ele>1895</ele>
        <time>2022-08-27T09:13:31Z</time>
      </trkpt>
      <trkpt lat="45.8046" lon="6.98635">
        <ele>1895</ele>
        <time>2022-08-27T09:13:33Z</time>
      </trkpt>
      <trkpt lat="45.80461" lon="6.98636">
        <ele>1895</ele>
        <time>2022-08-27T09:13:34Z</time>
      </trkpt>
      <trkpt lat="45.80461" lon="6.98636">
        <ele>1895</ele>
        <time>2022-08-27T09:13:35Z</time>
      </trkpt>
      <trkpt lat="45.80462" lon="6.98636">
        <ele>1896</ele>
        <time>2022-08-27T09:13:36Z</time>
      </trkpt>
      <trkpt lat="45.80462" lon="6.98637">
        <ele>1896</ele>
        <time>2022-08-27T09:13:37Z</time>
      </trkpt>
      <trkpt lat="45.80462" lon="6.98637">
        <ele>1896</ele>
        <time>2022-08-27T09:13:38Z</time>
      </trkpt>
      <trkpt lat="45.80463" lon="6.98638">
        <ele>1896</ele>
        <time>2022-08-27T09:13:39Z</time>
      </trkpt>
      <trkpt lat="45.80463" lon="6.9864">
        <ele>1897</ele>
        <time>2022-08-27T09:13:40Z</time>
      </trkpt>
      <trkpt lat="45.80464" lon="6.98641">
        <ele>1897</ele>
        <time>2022-08-27T09:13:41Z</time>
      </trkpt>
      <trkpt lat="45.80464" lon="6.98642">
        <ele>1896</ele>
        <time>2022-08-27T09:13:43Z</time>
      </trkpt>
      <trkpt lat="45.80464" lon="6.98643">
        <ele>1897</ele>
        <time>2022-08-27T09:13:45Z</time>
      </trkpt>
      <trkpt lat="45.80465" lon="6.98645">
        <ele>1898</ele>
        <time>2022-08-27T09:13:46Z</time>
      </trkpt>
      <trkpt lat="45.80465" lon="6.98646">
        <ele>1898</ele>
        <time>2022-08-27T09:13:47Z</time>
      </trkpt>
      <trkpt lat="45.80466" lon="6.98647">
        <ele>1898</ele>
        <time>2022-08-27T09:13:48Z</time>
      </trkpt>
      <trkpt lat="45.80466" lon="6.98648">
        <ele>1898</ele>
        <time>2022-08-27T09:13:49Z</time>
      </trkpt>
      <trkpt lat="45.80466" lon="6.9865">
        <ele>1899</ele>
        <time>2022-08-27T09:13:50Z</time>
      </trkpt>
      <trkpt lat="45.80467" lon="6.98651">
        <ele>1898</ele>
        <time>2022-08-27T09:13:51Z</time>
      </trkpt>
      <trkpt lat="45.80468" lon="6.98653">
        <ele>1898</ele>
        <time>2022-08-27T09:13:52Z</time>
      </trkpt>
      <trkpt lat="45.80469" lon="6.98654">
        <ele>1898</ele>
        <time>2022-08-27T09:13:53Z</time>
      </trkpt>
      <trkpt lat="45.8047" lon="6.98656">
        <ele>1899</ele>
        <time>2022-08-27T09:13:55Z</time>
      </trkpt>
      <trkpt lat="45.80471" lon="6.98657">
        <ele>1899</ele>
        <time>2022-08-27T09:13:56Z</time>
      </trkpt>
      <trkpt lat="45.80473" lon="6.98662">
        <ele>1900</ele>
        <time>2022-08-27T09:14:03Z</time>
      </trkpt>
      <trkpt lat="45.80473" lon="6.98659">
        <ele>1901</ele>
        <time>2022-08-27T09:14:05Z</time>
      </trkpt>
      <trkpt lat="45.80473" lon="6.98657">
        <ele>1902</ele>
        <time>2022-08-27T09:14:06Z</time>
      </trkpt>
      <trkpt lat="45.80474" lon="6.98654">
        <ele>1902</ele>
        <time>2022-08-27T09:14:07Z</time>
      </trkpt>
      <trkpt lat="45.80474" lon="6.98652">
        <ele>1902</ele>
        <time>2022-08-27T09:14:09Z</time>
      </trkpt>
      <trkpt lat="45.80474" lon="6.98649">
        <ele>1902</ele>
        <time>2022-08-27T09:14:10Z</time>
      </trkpt>
      <trkpt lat="45.80475" lon="6.98647">
        <ele>1902</ele>
        <time>2022-08-27T09:14:11Z</time>
      </trkpt>
      <trkpt lat="45.80475" lon="6.98646">
        <ele>1902</ele>
        <time>2022-08-27T09:14:12Z</time>
      </trkpt>
      <trkpt lat="45.80476" lon="6.98646">
        <ele>1902</ele>
        <time>2022-08-27T09:14:13Z</time>
      </trkpt>
      <trkpt lat="45.80476" lon="6.98645">
        <ele>1902</ele>
        <time>2022-08-27T09:14:14Z</time>
      </trkpt>
      <trkpt lat="45.80477" lon="6.98645">
        <ele>1903</ele>
        <time>2022-08-27T09:14:16Z</time>
      </trkpt>
      <trkpt lat="45.80477" lon="6.98644">
        <ele>1903</ele>
        <time>2022-08-27T09:14:18Z</time>
      </trkpt>
      <trkpt lat="45.80478" lon="6.98644">
        <ele>1904</ele>
        <time>2022-08-27T09:14:19Z</time>
      </trkpt>
      <trkpt lat="45.80479" lon="6.98643">
        <ele>1904</ele>
        <time>2022-08-27T09:14:21Z</time>
      </trkpt>
      <trkpt lat="45.80479" lon="6.98643">
        <ele>1904</ele>
        <time>2022-08-27T09:14:23Z</time>
      </trkpt>
      <trkpt lat="45.8048" lon="6.98642">
        <ele>1904</ele>
        <time>2022-08-27T09:14:24Z</time>
      </trkpt>
      <trkpt lat="45.8048" lon="6.98642">
        <ele>1904</ele>
        <time>2022-08-27T09:14:25Z</time>
      </trkpt>
      <trkpt lat="45.80481" lon="6.98641">
        <ele>1905</ele>
        <time>2022-08-27T09:14:26Z</time>
      </trkpt>
      <trkpt lat="45.80481" lon="6.98641">
        <ele>1905</ele>
        <time>2022-08-27T09:14:28Z</time>
      </trkpt>
      <trkpt lat="45.80482" lon="6.9864">
        <ele>1905</ele>
        <time>2022-08-27T09:14:29Z</time>
      </trkpt>
      <trkpt lat="45.80482" lon="6.9864">
        <ele>1906</ele>
        <time>2022-08-27T09:14:30Z</time>
      </trkpt>
      <trkpt lat="45.80483" lon="6.98626">
        <ele>1907</ele>
        <time>2022-08-27T09:14:35Z</time>
      </trkpt>
      <trkpt lat="45.80488" lon="6.98615">
        <ele>1909</ele>
        <time>2022-08-27T09:14:52Z</time>
      </trkpt>
      <trkpt lat="45.80488" lon="6.98614">
        <ele>1909</ele>
        <time>2022-08-27T09:14:54Z</time>
      </trkpt>
      <trkpt lat="45.80488" lon="6.98613">
        <ele>1910</ele>
        <time>2022-08-27T09:14:55Z</time>
      </trkpt>
      <trkpt lat="45.80488" lon="6.98612">
        <ele>1910</ele>
        <time>2022-08-27T09:14:56Z</time>
      </trkpt>
      <trkpt lat="45.80488" lon="6.98612">
        <ele>1910</ele>
        <time>2022-08-27T09:14:57Z</time>
      </trkpt>
      <trkpt lat="45.80488" lon="6.98611">
        <ele>1910</ele>
        <time>2022-08-27T09:14:59Z</time>
      </trkpt>
      <trkpt lat="45.80489" lon="6.9861">
        <ele>1910</ele>
        <time>2022-08-27T09:15:00Z</time>
      </trkpt>
      <trkpt lat="45.80489" lon="6.98609">
        <ele>1910</ele>
        <time>2022-08-27T09:15:01Z</time>
      </trkpt>
      <trkpt lat="45.80489" lon="6.98608">
        <ele>1911</ele>
        <time>2022-08-27T09:15:02Z</time>
      </trkpt>
      <trkpt lat="45.80489" lon="6.98607">
        <ele>1911</ele>
        <time>2022-08-27T09:15:03Z</time>
      </trkpt>
      <trkpt lat="45.80489" lon="6.98606">
        <ele>1911</ele>
        <time>2022-08-27T09:15:04Z</time>
      </trkpt>
      <trkpt lat="45.80489" lon="6.98606">
        <ele>1912</ele>
        <time>2022-08-27T09:15:06Z</time>
      </trkpt>
      <trkpt lat="45.80489" lon="6.98605">
        <ele>1912</ele>
        <time>2022-08-27T09:15:08Z</time>
      </trkpt>
      <trkpt lat="45.80489" lon="6.98604">
        <ele>1912</ele>
        <time>2022-08-27T09:15:09Z</time>
      </trkpt>
      <trkpt lat="45.80489" lon="6.98603">
        <ele>1912</ele>
        <time>2022-08-27T09:15:10Z</time>
      </trkpt>
      <trkpt lat="45.80489" lon="6.98602">
        <ele>1912</ele>
        <time>2022-08-27T09:15:11Z</time>
      </trkpt>
      <trkpt lat="45.80489" lon="6.98601">
        <ele>1912</ele>
        <time>2022-08-27T09:15:12Z</time>
      </trkpt>
      <trkpt lat="45.80489" lon="6.986">
        <ele>1912</ele>
        <time>2022-08-27T09:15:13Z</time>
      </trkpt>
      <trkpt lat="45.80488" lon="6.98598">
        <ele>1913</ele>
        <time>2022-08-27T09:15:14Z</time>
      </trkpt>
      <trkpt lat="45.80488" lon="6.98596">
        <ele>1913</ele>
        <time>2022-08-27T09:15:15Z</time>
      </trkpt>
      <trkpt lat="45.80487" lon="6.98594">
        <ele>1913</ele>
        <time>2022-08-27T09:15:16Z</time>
      </trkpt>
      <trkpt lat="45.80487" lon="6.98592">
        <ele>1913</ele>
        <time>2022-08-27T09:15:18Z</time>
      </trkpt>
      <trkpt lat="45.80487" lon="6.9859">
        <ele>1913</ele>
        <time>2022-08-27T09:15:20Z</time>
      </trkpt>
      <trkpt lat="45.80486" lon="6.98588">
        <ele>1913</ele>
        <time>2022-08-27T09:15:21Z</time>
      </trkpt>
      <trkpt lat="45.80486" lon="6.98587">
        <ele>1914</ele>
        <time>2022-08-27T09:15:22Z</time>
      </trkpt>
      <trkpt lat="45.80486" lon="6.98586">
        <ele>1914</ele>
        <time>2022-08-27T09:15:23Z</time>
      </trkpt>
      <trkpt lat="45.80486" lon="6.98585">
        <ele>1914</ele>
        <time>2022-08-27T09:15:24Z</time>
      </trkpt>
      <trkpt lat="45.80485" lon="6.98584">
        <ele>1914</ele>
        <time>2022-08-27T09:15:26Z</time>
      </trkpt>
      <trkpt lat="45.80485" lon="6.98583">
        <ele>1915</ele>
        <time>2022-08-27T09:15:27Z</time>
      </trkpt>
      <trkpt lat="45.80485" lon="6.98582">
        <ele>1915</ele>
        <time>2022-08-27T09:15:28Z</time>
      </trkpt>
      <trkpt lat="45.80485" lon="6.98581">
        <ele>1916</ele>
        <time>2022-08-27T09:15:29Z</time>
      </trkpt>
      <trkpt lat="45.80485" lon="6.9858">
        <ele>1916</ele>
        <time>2022-08-27T09:15:30Z</time>
      </trkpt>
      <trkpt lat="45.80484" lon="6.98579">
        <ele>1916</ele>
        <time>2022-08-27T09:15:31Z</time>
      </trkpt>
      <trkpt lat="45.80484" lon="6.98578">
        <ele>1917</ele>
        <time>2022-08-27T09:15:33Z</time>
      </trkpt>
      <trkpt lat="45.80484" lon="6.98577">
        <ele>1917</ele>
        <time>2022-08-27T09:15:34Z</time>
      </trkpt>
      <trkpt lat="45.80484" lon="6.98577">
        <ele>1917</ele>
        <time>2022-08-27T09:15:35Z</time>
      </trkpt>
      <trkpt lat="45.80484" lon="6.98576">
        <ele>1917</ele>
        <time>2022-08-27T09:15:36Z</time>
      </trkpt>
      <trkpt lat="45.80484" lon="6.98575">
        <ele>1917</ele>
        <time>2022-08-27T09:15:37Z</time>
      </trkpt>
      <trkpt lat="45.80483" lon="6.98573">
        <ele>1917</ele>
        <time>2022-08-27T09:15:39Z</time>
      </trkpt>
      <trkpt lat="45.80482" lon="6.98572">
        <ele>1918</ele>
        <time>2022-08-27T09:15:41Z</time>
      </trkpt>
      <trkpt lat="45.80482" lon="6.98571">
        <ele>1918</ele>
        <time>2022-08-27T09:15:42Z</time>
      </trkpt>
      <trkpt lat="45.80481" lon="6.9857">
        <ele>1918</ele>
        <time>2022-08-27T09:15:43Z</time>
      </trkpt>
      <trkpt lat="45.8048" lon="6.98569">
        <ele>1918</ele>
        <time>2022-08-27T09:15:44Z</time>
      </trkpt>
      <trkpt lat="45.8048" lon="6.98567">
        <ele>1918</ele>
        <time>2022-08-27T09:15:46Z</time>
      </trkpt>
      <trkpt lat="45.80479" lon="6.98566">
        <ele>1918</ele>
        <time>2022-08-27T09:15:47Z</time>
      </trkpt>
      <trkpt lat="45.80479" lon="6.98565">
        <ele>1919</ele>
        <time>2022-08-27T09:15:48Z</time>
      </trkpt>
      <trkpt lat="45.80478" lon="6.98564">
        <ele>1919</ele>
        <time>2022-08-27T09:15:49Z</time>
      </trkpt>
      <trkpt lat="45.80478" lon="6.98562">
        <ele>1920</ele>
        <time>2022-08-27T09:15:51Z</time>
      </trkpt>
      <trkpt lat="45.80477" lon="6.9856">
        <ele>1920</ele>
        <time>2022-08-27T09:15:52Z</time>
      </trkpt>
      <trkpt lat="45.80477" lon="6.98558">
        <ele>1920</ele>
        <time>2022-08-27T09:15:53Z</time>
      </trkpt>
      <trkpt lat="45.80476" lon="6.98556">
        <ele>1920</ele>
        <time>2022-08-27T09:15:54Z</time>
      </trkpt>
      <trkpt lat="45.80476" lon="6.98554">
        <ele>1920</ele>
        <time>2022-08-27T09:15:56Z</time>
      </trkpt>
      <trkpt lat="45.80476" lon="6.98552">
        <ele>1921</ele>
        <time>2022-08-27T09:15:58Z</time>
      </trkpt>
      <trkpt lat="45.80475" lon="6.98551">
        <ele>1921</ele>
        <time>2022-08-27T09:15:59Z</time>
      </trkpt>
      <trkpt lat="45.80474" lon="6.98537">
        <ele>1924</ele>
        <time>2022-08-27T09:16:13Z</time>
      </trkpt>
      <trkpt lat="45.80475" lon="6.98536">
        <ele>1924</ele>
        <time>2022-08-27T09:16:15Z</time>
      </trkpt>
      <trkpt lat="45.80475" lon="6.98535">
        <ele>1924</ele>
        <time>2022-08-27T09:16:16Z</time>
      </trkpt>
      <trkpt lat="45.80475" lon="6.98534">
        <ele>1924</ele>
        <time>2022-08-27T09:16:17Z</time>
      </trkpt>
      <trkpt lat="45.80475" lon="6.98533">
        <ele>1924</ele>
        <time>2022-08-27T09:16:19Z</time>
      </trkpt>
      <trkpt lat="45.80476" lon="6.98531">
        <ele>1924</ele>
        <time>2022-08-27T09:16:20Z</time>
      </trkpt>
      <trkpt lat="45.80476" lon="6.9853">
        <ele>1924</ele>
        <time>2022-08-27T09:16:21Z</time>
      </trkpt>
      <trkpt lat="45.80476" lon="6.98529">
        <ele>1924</ele>
        <time>2022-08-27T09:16:22Z</time>
      </trkpt>
      <trkpt lat="45.80476" lon="6.98528">
        <ele>1925</ele>
        <time>2022-08-27T09:16:24Z</time>
      </trkpt>
      <trkpt lat="45.80477" lon="6.98527">
        <ele>1925</ele>
        <time>2022-08-27T09:16:25Z</time>
      </trkpt>
      <trkpt lat="45.80477" lon="6.98526">
        <ele>1925</ele>
        <time>2022-08-27T09:16:26Z</time>
      </trkpt>
      <trkpt lat="45.80477" lon="6.98525">
        <ele>1925</ele>
        <time>2022-08-27T09:16:27Z</time>
      </trkpt>
      <trkpt lat="45.80477" lon="6.98523">
        <ele>1926</ele>
        <time>2022-08-27T09:16:29Z</time>
      </trkpt>
      <trkpt lat="45.80476" lon="6.98522">
        <ele>1926</ele>
        <time>2022-08-27T09:16:31Z</time>
      </trkpt>
      <trkpt lat="45.80476" lon="6.98521">
        <ele>1926</ele>
        <time>2022-08-27T09:16:32Z</time>
      </trkpt>
      <trkpt lat="45.80476" lon="6.98519">
        <ele>1926</ele>
        <time>2022-08-27T09:16:34Z</time>
      </trkpt>
      <trkpt lat="45.80476" lon="6.98518">
        <ele>1927</ele>
        <time>2022-08-27T09:16:36Z</time>
      </trkpt>
      <trkpt lat="45.80475" lon="6.98517">
        <ele>1927</ele>
        <time>2022-08-27T09:16:37Z</time>
      </trkpt>
      <trkpt lat="45.80475" lon="6.98516">
        <ele>1928</ele>
        <time>2022-08-27T09:16:38Z</time>
      </trkpt>
      <trkpt lat="45.80475" lon="6.98514">
        <ele>1928</ele>
        <time>2022-08-27T09:16:39Z</time>
      </trkpt>
      <trkpt lat="45.80474" lon="6.98513">
        <ele>1928</ele>
        <time>2022-08-27T09:16:40Z</time>
      </trkpt>
      <trkpt lat="45.80474" lon="6.98512">
        <ele>1928</ele>
        <time>2022-08-27T09:16:41Z</time>
      </trkpt>
      <trkpt lat="45.80474" lon="6.9851">
        <ele>1928</ele>
        <time>2022-08-27T09:16:42Z</time>
      </trkpt>
      <trkpt lat="45.80474" lon="6.98509">
        <ele>1928</ele>
        <time>2022-08-27T09:16:43Z</time>
      </trkpt>
      <trkpt lat="45.80474" lon="6.98508">
        <ele>1928</ele>
        <time>2022-08-27T09:16:44Z</time>
      </trkpt>
      <trkpt lat="45.80473" lon="6.98507">
        <ele>1928</ele>
        <time>2022-08-27T09:16:46Z</time>
      </trkpt>
      <trkpt lat="45.80473" lon="6.98505">
        <ele>1928</ele>
        <time>2022-08-27T09:16:47Z</time>
      </trkpt>
      <trkpt lat="45.80473" lon="6.98504">
        <ele>1928</ele>
        <time>2022-08-27T09:16:48Z</time>
      </trkpt>
      <trkpt lat="45.80473" lon="6.98503">
        <ele>1928</ele>
        <time>2022-08-27T09:16:49Z</time>
      </trkpt>
      <trkpt lat="45.80472" lon="6.98502">
        <ele>1929</ele>
        <time>2022-08-27T09:16:51Z</time>
      </trkpt>
      <trkpt lat="45.80472" lon="6.985">
        <ele>1929</ele>
        <time>2022-08-27T09:16:52Z</time>
      </trkpt>
      <trkpt lat="45.80472" lon="6.98499">
        <ele>1929</ele>
        <time>2022-08-27T09:16:53Z</time>
      </trkpt>
      <trkpt lat="45.80473" lon="6.98498">
        <ele>1929</ele>
        <time>2022-08-27T09:16:55Z</time>
      </trkpt>
      <trkpt lat="45.80474" lon="6.98496">
        <ele>1930</ele>
        <time>2022-08-27T09:16:57Z</time>
      </trkpt>
      <trkpt lat="45.80474" lon="6.98494">
        <ele>1931</ele>
        <time>2022-08-27T09:16:58Z</time>
      </trkpt>
      <trkpt lat="45.80475" lon="6.98493">
        <ele>1931</ele>
        <time>2022-08-27T09:16:59Z</time>
      </trkpt>
      <trkpt lat="45.80476" lon="6.98491">
        <ele>1931</ele>
        <time>2022-08-27T09:17:00Z</time>
      </trkpt>
      <trkpt lat="45.80477" lon="6.9849">
        <ele>1931</ele>
        <time>2022-08-27T09:17:02Z</time>
      </trkpt>
      <trkpt lat="45.80477" lon="6.98488">
        <ele>1931</ele>
        <time>2022-08-27T09:17:03Z</time>
      </trkpt>
      <trkpt lat="45.80478" lon="6.98487">
        <ele>1931</ele>
        <time>2022-08-27T09:17:04Z</time>
      </trkpt>
      <trkpt lat="45.80478" lon="6.98486">
        <ele>1932</ele>
        <time>2022-08-27T09:17:05Z</time>
      </trkpt>
      <trkpt lat="45.80478" lon="6.98485">
        <ele>1932</ele>
        <time>2022-08-27T09:17:07Z</time>
      </trkpt>
      <trkpt lat="45.80478" lon="6.98483">
        <ele>1933</ele>
        <time>2022-08-27T09:17:08Z</time>
      </trkpt>
      <trkpt lat="45.80478" lon="6.98482">
        <ele>1933</ele>
        <time>2022-08-27T09:17:09Z</time>
      </trkpt>
      <trkpt lat="45.80479" lon="6.98481">
        <ele>1933</ele>
        <time>2022-08-27T09:17:10Z</time>
      </trkpt>
      <trkpt lat="45.80479" lon="6.9848">
        <ele>1933</ele>
        <time>2022-08-27T09:17:12Z</time>
      </trkpt>
      <trkpt lat="45.80479" lon="6.98479">
        <ele>1934</ele>
        <time>2022-08-27T09:17:14Z</time>
      </trkpt>
      <trkpt lat="45.80479" lon="6.98478">
        <ele>1934</ele>
        <time>2022-08-27T09:17:15Z</time>
      </trkpt>
      <trkpt lat="45.8048" lon="6.98477">
        <ele>1934</ele>
        <time>2022-08-27T09:17:16Z</time>
      </trkpt>
      <trkpt lat="45.8048" lon="6.98475">
        <ele>1934</ele>
        <time>2022-08-27T09:17:17Z</time>
      </trkpt>
      <trkpt lat="45.8048" lon="6.98474">
        <ele>1934</ele>
        <time>2022-08-27T09:17:19Z</time>
      </trkpt>
      <trkpt lat="45.8048" lon="6.98473">
        <ele>1934</ele>
        <time>2022-08-27T09:17:20Z</time>
      </trkpt>
      <trkpt lat="45.80481" lon="6.98472">
        <ele>1934</ele>
        <time>2022-08-27T09:17:21Z</time>
      </trkpt>
      <trkpt lat="45.80481" lon="6.98471">
        <ele>1935</ele>
        <time>2022-08-27T09:17:22Z</time>
      </trkpt>
      <trkpt lat="45.80482" lon="6.9847">
        <ele>1935</ele>
        <time>2022-08-27T09:17:24Z</time>
      </trkpt>
      <trkpt lat="45.80482" lon="6.98468">
        <ele>1935</ele>
        <time>2022-08-27T09:17:25Z</time>
      </trkpt>
      <trkpt lat="45.80482" lon="6.98467">
        <ele>1936</ele>
        <time>2022-08-27T09:17:26Z</time>
      </trkpt>
      <trkpt lat="45.80483" lon="6.98466">
        <ele>1936</ele>
        <time>2022-08-27T09:17:27Z</time>
      </trkpt>
      <trkpt lat="45.80483" lon="6.98465">
        <ele>1936</ele>
        <time>2022-08-27T09:17:29Z</time>
      </trkpt>
      <trkpt lat="45.80483" lon="6.98464">
        <ele>1936</ele>
        <time>2022-08-27T09:17:31Z</time>
      </trkpt>
      <trkpt lat="45.80484" lon="6.98463">
        <ele>1936</ele>
        <time>2022-08-27T09:17:32Z</time>
      </trkpt>
      <trkpt lat="45.80484" lon="6.98462">
        <ele>1937</ele>
        <time>2022-08-27T09:17:33Z</time>
      </trkpt>
      <trkpt lat="45.80484" lon="6.98461">
        <ele>1937</ele>
        <time>2022-08-27T09:17:34Z</time>
      </trkpt>
      <trkpt lat="45.80485" lon="6.9846">
        <ele>1938</ele>
        <time>2022-08-27T09:17:36Z</time>
      </trkpt>
      <trkpt lat="45.80485" lon="6.98459">
        <ele>1938</ele>
        <time>2022-08-27T09:17:37Z</time>
      </trkpt>
      <trkpt lat="45.80485" lon="6.98458">
        <ele>1938</ele>
        <time>2022-08-27T09:17:38Z</time>
      </trkpt>
      <trkpt lat="45.80486" lon="6.98457">
        <ele>1938</ele>
        <time>2022-08-27T09:17:39Z</time>
      </trkpt>
      <trkpt lat="45.80486" lon="6.98456">
        <ele>1938</ele>
        <time>2022-08-27T09:17:41Z</time>
      </trkpt>
      <trkpt lat="45.80486" lon="6.98456">
        <ele>1938</ele>
        <time>2022-08-27T09:17:43Z</time>
      </trkpt>
      <trkpt lat="45.80487" lon="6.98455">
        <ele>1938</ele>
        <time>2022-08-27T09:17:44Z</time>
      </trkpt>
      <trkpt lat="45.80487" lon="6.98454">
        <ele>1938</ele>
        <time>2022-08-27T09:17:45Z</time>
      </trkpt>
      <trkpt lat="45.80488" lon="6.98453">
        <ele>1939</ele>
        <time>2022-08-27T09:17:46Z</time>
      </trkpt>
      <trkpt lat="45.80488" lon="6.98452">
        <ele>1939</ele>
        <time>2022-08-27T09:17:48Z</time>
      </trkpt>
      <trkpt lat="45.80488" lon="6.98451">
        <ele>1939</ele>
        <time>2022-08-27T09:17:49Z</time>
      </trkpt>
      <trkpt lat="45.80488" lon="6.98449">
        <ele>1939</ele>
        <time>2022-08-27T09:17:50Z</time>
      </trkpt>
      <trkpt lat="45.80488" lon="6.98446">
        <ele>1940</ele>
        <time>2022-08-27T09:17:51Z</time>
      </trkpt>
      <trkpt lat="45.80487" lon="6.98443">
        <ele>1940</ele>
        <time>2022-08-27T09:17:52Z</time>
      </trkpt>
      <trkpt lat="45.80487" lon="6.98441">
        <ele>1940</ele>
        <time>2022-08-27T09:17:53Z</time>
      </trkpt>
      <trkpt lat="45.80487" lon="6.98438">
        <ele>1941</ele>
        <time>2022-08-27T09:17:54Z</time>
      </trkpt>
      <trkpt lat="45.80487" lon="6.98438">
        <ele>1941</ele>
        <time>2022-08-27T09:17:55Z</time>
      </trkpt>
      <trkpt lat="45.80487" lon="6.98437">
        <ele>1941</ele>
        <time>2022-08-27T09:17:56Z</time>
      </trkpt>
      <trkpt lat="45.80488" lon="6.98437">
        <ele>1941</ele>
        <time>2022-08-27T09:17:57Z</time>
      </trkpt>
      <trkpt lat="45.80488" lon="6.98437">
        <ele>1942</ele>
        <time>2022-08-27T09:17:59Z</time>
      </trkpt>
      <trkpt lat="45.80489" lon="6.98436">
        <ele>1942</ele>
        <time>2022-08-27T09:18:00Z</time>
      </trkpt>
      <trkpt lat="45.80489" lon="6.98436">
        <ele>1942</ele>
        <time>2022-08-27T09:18:01Z</time>
      </trkpt>
      <trkpt lat="45.80489" lon="6.98435">
        <ele>1943</ele>
        <time>2022-08-27T09:18:02Z</time>
      </trkpt>
      <trkpt lat="45.8049" lon="6.98435">
        <ele>1943</ele>
        <time>2022-08-27T09:18:04Z</time>
      </trkpt>
      <trkpt lat="45.8049" lon="6.98434">
        <ele>1943</ele>
        <time>2022-08-27T09:18:06Z</time>
      </trkpt>
      <trkpt lat="45.80491" lon="6.98434">
        <ele>1943</ele>
        <time>2022-08-27T09:18:07Z</time>
      </trkpt>
      <trkpt lat="45.80491" lon="6.98434">
        <ele>1943</ele>
        <time>2022-08-27T09:18:09Z</time>
      </trkpt>
      <trkpt lat="45.80492" lon="6.98433">
        <ele>1945</ele>
        <time>2022-08-27T09:18:11Z</time>
      </trkpt>
      <trkpt lat="45.80492" lon="6.98433">
        <ele>1945</ele>
        <time>2022-08-27T09:18:13Z</time>
      </trkpt>
      <trkpt lat="45.80492" lon="6.98432">
        <ele>1945</ele>
        <time>2022-08-27T09:18:14Z</time>
      </trkpt>
      <trkpt lat="45.80493" lon="6.98432">
        <ele>1945</ele>
        <time>2022-08-27T09:18:15Z</time>
      </trkpt>
      <trkpt lat="45.80493" lon="6.98432">
        <ele>1945</ele>
        <time>2022-08-27T09:18:16Z</time>
      </trkpt>
      <trkpt lat="45.80494" lon="6.98431">
        <ele>1946</ele>
        <time>2022-08-27T09:18:18Z</time>
      </trkpt>
      <trkpt lat="45.80494" lon="6.98431">
        <ele>1946</ele>
        <time>2022-08-27T09:18:19Z</time>
      </trkpt>
      <trkpt lat="45.80497" lon="6.98418">
        <ele>1948</ele>
        <time>2022-08-27T09:18:28Z</time>
      </trkpt>
      <trkpt lat="45.80497" lon="6.98417">
        <ele>1948</ele>
        <time>2022-08-27T09:18:30Z</time>
      </trkpt>
      <trkpt lat="45.80497" lon="6.98416">
        <ele>1949</ele>
        <time>2022-08-27T09:18:31Z</time>
      </trkpt>
      <trkpt lat="45.80498" lon="6.98415">
        <ele>1949</ele>
        <time>2022-08-27T09:18:33Z</time>
      </trkpt>
      <trkpt lat="45.80498" lon="6.98414">
        <ele>1949</ele>
        <time>2022-08-27T09:18:34Z</time>
      </trkpt>
      <trkpt lat="45.80498" lon="6.98413">
        <ele>1949</ele>
        <time>2022-08-27T09:18:35Z</time>
      </trkpt>
      <trkpt lat="45.80499" lon="6.98412">
        <ele>1949</ele>
        <time>2022-08-27T09:18:36Z</time>
      </trkpt>
      <trkpt lat="45.80499" lon="6.98411">
        <ele>1950</ele>
        <time>2022-08-27T09:18:38Z</time>
      </trkpt>
      <trkpt lat="45.80499" lon="6.9841">
        <ele>1950</ele>
        <time>2022-08-27T09:18:39Z</time>
      </trkpt>
      <trkpt lat="45.80499" lon="6.98409">
        <ele>1950</ele>
        <time>2022-08-27T09:18:40Z</time>
      </trkpt>
      <trkpt lat="45.805" lon="6.98408">
        <ele>1950</ele>
        <time>2022-08-27T09:18:41Z</time>
      </trkpt>
      <trkpt lat="45.805" lon="6.98407">
        <ele>1950</ele>
        <time>2022-08-27T09:18:42Z</time>
      </trkpt>
      <trkpt lat="45.805" lon="6.98406">
        <ele>1950</ele>
        <time>2022-08-27T09:18:43Z</time>
      </trkpt>
      <trkpt lat="45.80501" lon="6.98404">
        <ele>1950</ele>
        <time>2022-08-27T09:18:44Z</time>
      </trkpt>
      <trkpt lat="45.80501" lon="6.98403">
        <ele>1951</ele>
        <time>2022-08-27T09:18:45Z</time>
      </trkpt>
      <trkpt lat="45.80502" lon="6.98401">
        <ele>1951</ele>
        <time>2022-08-27T09:18:47Z</time>
      </trkpt>
      <trkpt lat="45.80502" lon="6.98399">
        <ele>1951</ele>
        <time>2022-08-27T09:18:48Z</time>
      </trkpt>
      <trkpt lat="45.80503" lon="6.98397">
        <ele>1951</ele>
        <time>2022-08-27T09:18:49Z</time>
      </trkpt>
      <trkpt lat="45.80503" lon="6.98396">
        <ele>1951</ele>
        <time>2022-08-27T09:18:51Z</time>
      </trkpt>
      <trkpt lat="45.80504" lon="6.98394">
        <ele>1952</ele>
        <time>2022-08-27T09:18:52Z</time>
      </trkpt>
      <trkpt lat="45.80504" lon="6.98393">
        <ele>1952</ele>
        <time>2022-08-27T09:18:53Z</time>
      </trkpt>
      <trkpt lat="45.80504" lon="6.98392">
        <ele>1953</ele>
        <time>2022-08-27T09:18:54Z</time>
      </trkpt>
      <trkpt lat="45.80505" lon="6.98391">
        <ele>1953</ele>
        <time>2022-08-27T09:18:56Z</time>
      </trkpt>
      <trkpt lat="45.80505" lon="6.9839">
        <ele>1953</ele>
        <time>2022-08-27T09:18:57Z</time>
      </trkpt>
      <trkpt lat="45.80505" lon="6.98389">
        <ele>1953</ele>
        <time>2022-08-27T09:18:58Z</time>
      </trkpt>
      <trkpt lat="45.80506" lon="6.98388">
        <ele>1953</ele>
        <time>2022-08-27T09:18:59Z</time>
      </trkpt>
      <trkpt lat="45.80506" lon="6.98387">
        <ele>1953</ele>
        <time>2022-08-27T09:19:01Z</time>
      </trkpt>
      <trkpt lat="45.80506" lon="6.98386">
        <ele>1954</ele>
        <time>2022-08-27T09:19:02Z</time>
      </trkpt>
      <trkpt lat="45.80506" lon="6.98386">
        <ele>1954</ele>
        <time>2022-08-27T09:19:03Z</time>
      </trkpt>
      <trkpt lat="45.80507" lon="6.98385">
        <ele>1954</ele>
        <time>2022-08-27T09:19:04Z</time>
      </trkpt>
      <trkpt lat="45.80507" lon="6.98384">
        <ele>1954</ele>
        <time>2022-08-27T09:19:06Z</time>
      </trkpt>
      <trkpt lat="45.80507" lon="6.98383">
        <ele>1954</ele>
        <time>2022-08-27T09:19:08Z</time>
      </trkpt>
      <trkpt lat="45.80508" lon="6.98382">
        <ele>1955</ele>
        <time>2022-08-27T09:19:09Z</time>
      </trkpt>
      <trkpt lat="45.80514" lon="6.98371">
        <ele>1958</ele>
        <time>2022-08-27T09:19:25Z</time>
      </trkpt>
      <trkpt lat="45.80513" lon="6.9837">
        <ele>1959</ele>
        <time>2022-08-27T09:19:26Z</time>
      </trkpt>
      <trkpt lat="45.80513" lon="6.98368">
        <ele>1959</ele>
        <time>2022-08-27T09:19:27Z</time>
      </trkpt>
      <trkpt lat="45.80513" lon="6.98367">
        <ele>1959</ele>
        <time>2022-08-27T09:19:29Z</time>
      </trkpt>
      <trkpt lat="45.80513" lon="6.98366">
        <ele>1959</ele>
        <time>2022-08-27T09:19:30Z</time>
      </trkpt>
      <trkpt lat="45.80513" lon="6.98364">
        <ele>1959</ele>
        <time>2022-08-27T09:19:31Z</time>
      </trkpt>
      <trkpt lat="45.80513" lon="6.98363">
        <ele>1960</ele>
        <time>2022-08-27T09:19:32Z</time>
      </trkpt>
      <trkpt lat="45.80513" lon="6.98362">
        <ele>1960</ele>
        <time>2022-08-27T09:19:34Z</time>
      </trkpt>
      <trkpt lat="45.80513" lon="6.98361">
        <ele>1960</ele>
        <time>2022-08-27T09:19:35Z</time>
      </trkpt>
      <trkpt lat="45.80513" lon="6.98359">
        <ele>1960</ele>
        <time>2022-08-27T09:19:36Z</time>
      </trkpt>
      <trkpt lat="45.80513" lon="6.98358">
        <ele>1960</ele>
        <time>2022-08-27T09:19:37Z</time>
      </trkpt>
      <trkpt lat="45.80512" lon="6.98357">
        <ele>1960</ele>
        <time>2022-08-27T09:19:38Z</time>
      </trkpt>
      <trkpt lat="45.80512" lon="6.98355">
        <ele>1962</ele>
        <time>2022-08-27T09:19:39Z</time>
      </trkpt>
      <trkpt lat="45.80513" lon="6.98356">
        <ele>1962</ele>
        <time>2022-08-27T09:19:41Z</time>
      </trkpt>
      <trkpt lat="45.80513" lon="6.98357">
        <ele>1962</ele>
        <time>2022-08-27T09:19:42Z</time>
      </trkpt>
      <trkpt lat="45.80513" lon="6.98358">
        <ele>1962</ele>
        <time>2022-08-27T09:19:44Z</time>
      </trkpt>
      <trkpt lat="45.80514" lon="6.98359">
        <ele>1963</ele>
        <time>2022-08-27T09:19:46Z</time>
      </trkpt>
      <trkpt lat="45.80514" lon="6.9836">
        <ele>1964</ele>
        <time>2022-08-27T09:19:47Z</time>
      </trkpt>
      <trkpt lat="45.80514" lon="6.98361">
        <ele>1964</ele>
        <time>2022-08-27T09:19:49Z</time>
      </trkpt>
      <trkpt lat="45.80515" lon="6.98362">
        <ele>1964</ele>
        <time>2022-08-27T09:19:50Z</time>
      </trkpt>
      <trkpt lat="45.80515" lon="6.98363">
        <ele>1964</ele>
        <time>2022-08-27T09:19:51Z</time>
      </trkpt>
      <trkpt lat="45.80515" lon="6.98364">
        <ele>1965</ele>
        <time>2022-08-27T09:19:53Z</time>
      </trkpt>
      <trkpt lat="45.80516" lon="6.98365">
        <ele>1965</ele>
        <time>2022-08-27T09:19:54Z</time>
      </trkpt>
      <trkpt lat="45.80516" lon="6.98366">
        <ele>1965</ele>
        <time>2022-08-27T09:19:55Z</time>
      </trkpt>
      <trkpt lat="45.80516" lon="6.98367">
        <ele>1965</ele>
        <time>2022-08-27T09:19:56Z</time>
      </trkpt>
      <trkpt lat="45.80517" lon="6.98369">
        <ele>1965</ele>
        <time>2022-08-27T09:19:58Z</time>
      </trkpt>
      <trkpt lat="45.80518" lon="6.9837">
        <ele>1966</ele>
        <time>2022-08-27T09:19:59Z</time>
      </trkpt>
      <trkpt lat="45.80519" lon="6.98372">
        <ele>1966</ele>
        <time>2022-08-27T09:20:00Z</time>
      </trkpt>
      <trkpt lat="45.8052" lon="6.98374">
        <ele>1966</ele>
        <time>2022-08-27T09:20:01Z</time>
      </trkpt>
      <trkpt lat="45.80521" lon="6.98375">
        <ele>1966</ele>
        <time>2022-08-27T09:20:03Z</time>
      </trkpt>
      <trkpt lat="45.80522" lon="6.98377">
        <ele>1966</ele>
        <time>2022-08-27T09:20:04Z</time>
      </trkpt>
      <trkpt lat="45.80523" lon="6.98378">
        <ele>1967</ele>
        <time>2022-08-27T09:20:05Z</time>
      </trkpt>
      <trkpt lat="45.80524" lon="6.9838">
        <ele>1967</ele>
        <time>2022-08-27T09:20:06Z</time>
      </trkpt>
      <trkpt lat="45.80524" lon="6.98381">
        <ele>1967</ele>
        <time>2022-08-27T09:20:07Z</time>
      </trkpt>
      <trkpt lat="45.80525" lon="6.98382">
        <ele>1967</ele>
        <time>2022-08-27T09:20:08Z</time>
      </trkpt>
      <trkpt lat="45.80525" lon="6.98383">
        <ele>1968</ele>
        <time>2022-08-27T09:20:10Z</time>
      </trkpt>
      <trkpt lat="45.80526" lon="6.98385">
        <ele>1968</ele>
        <time>2022-08-27T09:20:11Z</time>
      </trkpt>
      <trkpt lat="45.80526" lon="6.98386">
        <ele>1968</ele>
        <time>2022-08-27T09:20:12Z</time>
      </trkpt>
      <trkpt lat="45.80527" lon="6.98387">
        <ele>1968</ele>
        <time>2022-08-27T09:20:13Z</time>
      </trkpt>
      <trkpt lat="45.80527" lon="6.98388">
        <ele>1968</ele>
        <time>2022-08-27T09:20:14Z</time>
      </trkpt>
      <trkpt lat="45.80528" lon="6.9839">
        <ele>1968</ele>
        <time>2022-08-27T09:20:15Z</time>
      </trkpt>
      <trkpt lat="45.80528" lon="6.98391">
        <ele>1969</ele>
        <time>2022-08-27T09:20:16Z</time>
      </trkpt>
      <trkpt lat="45.80529" lon="6.98393">
        <ele>1969</ele>
        <time>2022-08-27T09:20:18Z</time>
      </trkpt>
      <trkpt lat="45.80529" lon="6.98394">
        <ele>1969</ele>
        <time>2022-08-27T09:20:20Z</time>
      </trkpt>
      <trkpt lat="45.80529" lon="6.98396">
        <ele>1969</ele>
        <time>2022-08-27T09:20:22Z</time>
      </trkpt>
      <trkpt lat="45.8053" lon="6.98397">
        <ele>1970</ele>
        <time>2022-08-27T09:20:23Z</time>
      </trkpt>
      <trkpt lat="45.8053" lon="6.98399">
        <ele>1970</ele>
        <time>2022-08-27T09:20:24Z</time>
      </trkpt>
      <trkpt lat="45.80531" lon="6.984">
        <ele>1970</ele>
        <time>2022-08-27T09:20:25Z</time>
      </trkpt>
      <trkpt lat="45.80531" lon="6.98402">
        <ele>1972</ele>
        <time>2022-08-27T09:20:26Z</time>
      </trkpt>
      <trkpt lat="45.80531" lon="6.98403">
        <ele>1972</ele>
        <time>2022-08-27T09:20:27Z</time>
      </trkpt>
      <trkpt lat="45.80532" lon="6.98404">
        <ele>1972</ele>
        <time>2022-08-27T09:20:28Z</time>
      </trkpt>
      <trkpt lat="45.80532" lon="6.98405">
        <ele>1972</ele>
        <time>2022-08-27T09:20:29Z</time>
      </trkpt>
      <trkpt lat="45.80533" lon="6.98405">
        <ele>1973</ele>
        <time>2022-08-27T09:20:31Z</time>
      </trkpt>
      <trkpt lat="45.80533" lon="6.98406">
        <ele>1973</ele>
        <time>2022-08-27T09:20:32Z</time>
      </trkpt>
      <trkpt lat="45.80533" lon="6.98407">
        <ele>1973</ele>
        <time>2022-08-27T09:20:33Z</time>
      </trkpt>
      <trkpt lat="45.80534" lon="6.98408">
        <ele>1973</ele>
        <time>2022-08-27T09:20:34Z</time>
      </trkpt>
      <trkpt lat="45.80534" lon="6.98409">
        <ele>1973</ele>
        <time>2022-08-27T09:20:36Z</time>
      </trkpt>
      <trkpt lat="45.80535" lon="6.9841">
        <ele>1973</ele>
        <time>2022-08-27T09:20:37Z</time>
      </trkpt>
      <trkpt lat="45.80535" lon="6.98411">
        <ele>1973</ele>
        <time>2022-08-27T09:20:38Z</time>
      </trkpt>
      <trkpt lat="45.80535" lon="6.98411">
        <ele>1974</ele>
        <time>2022-08-27T09:20:39Z</time>
      </trkpt>
      <trkpt lat="45.80536" lon="6.98412">
        <ele>1974</ele>
        <time>2022-08-27T09:20:40Z</time>
      </trkpt>
      <trkpt lat="45.80536" lon="6.98413">
        <ele>1974</ele>
        <time>2022-08-27T09:20:41Z</time>
      </trkpt>
      <trkpt lat="45.80537" lon="6.98414">
        <ele>1974</ele>
        <time>2022-08-27T09:20:43Z</time>
      </trkpt>
      <trkpt lat="45.80538" lon="6.98415">
        <ele>1974</ele>
        <time>2022-08-27T09:20:44Z</time>
      </trkpt>
      <trkpt lat="45.80538" lon="6.98417">
        <ele>1975</ele>
        <time>2022-08-27T09:20:45Z</time>
      </trkpt>
      <trkpt lat="45.80539" lon="6.98418">
        <ele>1975</ele>
        <time>2022-08-27T09:20:46Z</time>
      </trkpt>
      <trkpt lat="45.8054" lon="6.98419">
        <ele>1975</ele>
        <time>2022-08-27T09:20:48Z</time>
      </trkpt>
      <trkpt lat="45.8054" lon="6.9842">
        <ele>1975</ele>
        <time>2022-08-27T09:20:50Z</time>
      </trkpt>
      <trkpt lat="45.80541" lon="6.98421">
        <ele>1975</ele>
        <time>2022-08-27T09:20:51Z</time>
      </trkpt>
      <trkpt lat="45.80542" lon="6.98422">
        <ele>1975</ele>
        <time>2022-08-27T09:20:52Z</time>
      </trkpt>
      <trkpt lat="45.80542" lon="6.98424">
        <ele>1975</ele>
        <time>2022-08-27T09:20:53Z</time>
      </trkpt>
      <trkpt lat="45.80543" lon="6.98425">
        <ele>1975</ele>
        <time>2022-08-27T09:20:54Z</time>
      </trkpt>
      <trkpt lat="45.80543" lon="6.98426">
        <ele>1975</ele>
        <time>2022-08-27T09:20:55Z</time>
      </trkpt>
      <trkpt lat="45.80544" lon="6.98427">
        <ele>1975</ele>
        <time>2022-08-27T09:20:56Z</time>
      </trkpt>
      <trkpt lat="45.80544" lon="6.98428">
        <ele>1976</ele>
        <time>2022-08-27T09:20:58Z</time>
      </trkpt>
      <trkpt lat="45.80545" lon="6.98429">
        <ele>1976</ele>
        <time>2022-08-27T09:21:00Z</time>
      </trkpt>
      <trkpt lat="45.80545" lon="6.9843">
        <ele>1977</ele>
        <time>2022-08-27T09:21:01Z</time>
      </trkpt>
      <trkpt lat="45.80546" lon="6.98431">
        <ele>1977</ele>
        <time>2022-08-27T09:21:02Z</time>
      </trkpt>
      <trkpt lat="45.80546" lon="6.98432">
        <ele>1977</ele>
        <time>2022-08-27T09:21:03Z</time>
      </trkpt>
      <trkpt lat="45.80547" lon="6.98433">
        <ele>1977</ele>
        <time>2022-08-27T09:21:05Z</time>
      </trkpt>
      <trkpt lat="45.80547" lon="6.98434">
        <ele>1978</ele>
        <time>2022-08-27T09:21:06Z</time>
      </trkpt>
      <trkpt lat="45.80548" lon="6.98435">
        <ele>1978</ele>
        <time>2022-08-27T09:21:07Z</time>
      </trkpt>
      <trkpt lat="45.80549" lon="6.98436">
        <ele>1978</ele>
        <time>2022-08-27T09:21:08Z</time>
      </trkpt>
      <trkpt lat="45.80549" lon="6.98437">
        <ele>1978</ele>
        <time>2022-08-27T09:21:10Z</time>
      </trkpt>
      <trkpt lat="45.8055" lon="6.98438">
        <ele>1979</ele>
        <time>2022-08-27T09:21:11Z</time>
      </trkpt>
      <trkpt lat="45.8055" lon="6.98439">
        <ele>1979</ele>
        <time>2022-08-27T09:21:12Z</time>
      </trkpt>
      <trkpt lat="45.80551" lon="6.9844">
        <ele>1980</ele>
        <time>2022-08-27T09:21:13Z</time>
      </trkpt>
      <trkpt lat="45.80551" lon="6.98441">
        <ele>1980</ele>
        <time>2022-08-27T09:21:15Z</time>
      </trkpt>
      <trkpt lat="45.80552" lon="6.98441">
        <ele>1980</ele>
        <time>2022-08-27T09:21:17Z</time>
      </trkpt>
      <trkpt lat="45.80553" lon="6.98442">
        <ele>1980</ele>
        <time>2022-08-27T09:21:19Z</time>
      </trkpt>
      <trkpt lat="45.80553" lon="6.98443">
        <ele>1980</ele>
        <time>2022-08-27T09:21:20Z</time>
      </trkpt>
      <trkpt lat="45.80554" lon="6.98444">
        <ele>1980</ele>
        <time>2022-08-27T09:21:21Z</time>
      </trkpt>
      <trkpt lat="45.80554" lon="6.98445">
        <ele>1981</ele>
        <time>2022-08-27T09:21:23Z</time>
      </trkpt>
      <trkpt lat="45.80554" lon="6.98446">
        <ele>1981</ele>
        <time>2022-08-27T09:21:24Z</time>
      </trkpt>
      <trkpt lat="45.80555" lon="6.98447">
        <ele>1981</ele>
        <time>2022-08-27T09:21:25Z</time>
      </trkpt>
      <trkpt lat="45.80555" lon="6.98448">
        <ele>1981</ele>
        <time>2022-08-27T09:21:26Z</time>
      </trkpt>
      <trkpt lat="45.80555" lon="6.98448">
        <ele>1982</ele>
        <time>2022-08-27T09:21:27Z</time>
      </trkpt>
      <trkpt lat="45.80556" lon="6.98449">
        <ele>1982</ele>
        <time>2022-08-27T09:21:28Z</time>
      </trkpt>
      <trkpt lat="45.80556" lon="6.9845">
        <ele>1983</ele>
        <time>2022-08-27T09:21:30Z</time>
      </trkpt>
      <trkpt lat="45.80556" lon="6.98451">
        <ele>1983</ele>
        <time>2022-08-27T09:21:31Z</time>
      </trkpt>
      <trkpt lat="45.80557" lon="6.98452">
        <ele>1983</ele>
        <time>2022-08-27T09:21:32Z</time>
      </trkpt>
      <trkpt lat="45.80557" lon="6.98453">
        <ele>1983</ele>
        <time>2022-08-27T09:21:33Z</time>
      </trkpt>
      <trkpt lat="45.80557" lon="6.98454">
        <ele>1983</ele>
        <time>2022-08-27T09:21:35Z</time>
      </trkpt>
      <trkpt lat="45.80558" lon="6.98455">
        <ele>1983</ele>
        <time>2022-08-27T09:21:36Z</time>
      </trkpt>
      <trkpt lat="45.80558" lon="6.98455">
        <ele>1983</ele>
        <time>2022-08-27T09:21:37Z</time>
      </trkpt>
      <trkpt lat="45.80558" lon="6.98456">
        <ele>1984</ele>
        <time>2022-08-27T09:21:38Z</time>
      </trkpt>
      <trkpt lat="45.80559" lon="6.98457">
        <ele>1984</ele>
        <time>2022-08-27T09:21:40Z</time>
      </trkpt>
      <trkpt lat="45.80559" lon="6.98458">
        <ele>1985</ele>
        <time>2022-08-27T09:21:42Z</time>
      </trkpt>
      <trkpt lat="45.8056" lon="6.98459">
        <ele>1985</ele>
        <time>2022-08-27T09:21:43Z</time>
      </trkpt>
      <trkpt lat="45.80561" lon="6.98459">
        <ele>1985</ele>
        <time>2022-08-27T09:21:44Z</time>
      </trkpt>
      <trkpt lat="45.80561" lon="6.9846">
        <ele>1985</ele>
        <time>2022-08-27T09:21:45Z</time>
      </trkpt>
      <trkpt lat="45.80562" lon="6.98461">
        <ele>1986</ele>
        <time>2022-08-27T09:21:47Z</time>
      </trkpt>
      <trkpt lat="45.80562" lon="6.98462">
        <ele>1986</ele>
        <time>2022-08-27T09:21:48Z</time>
      </trkpt>
      <trkpt lat="45.80563" lon="6.98462">
        <ele>1986</ele>
        <time>2022-08-27T09:21:49Z</time>
      </trkpt>
      <trkpt lat="45.80563" lon="6.98463">
        <ele>1986</ele>
        <time>2022-08-27T09:21:50Z</time>
      </trkpt>
      <trkpt lat="45.80564" lon="6.98464">
        <ele>1986</ele>
        <time>2022-08-27T09:21:52Z</time>
      </trkpt>
      <trkpt lat="45.80564" lon="6.98465">
        <ele>1988</ele>
        <time>2022-08-27T09:21:53Z</time>
      </trkpt>
      <trkpt lat="45.80565" lon="6.98465">
        <ele>1988</ele>
        <time>2022-08-27T09:21:54Z</time>
      </trkpt>
      <trkpt lat="45.80565" lon="6.98466">
        <ele>1988</ele>
        <time>2022-08-27T09:21:55Z</time>
      </trkpt>
      <trkpt lat="45.80566" lon="6.98466">
        <ele>1988</ele>
        <time>2022-08-27T09:21:57Z</time>
      </trkpt>
      <trkpt lat="45.80567" lon="6.98466">
        <ele>1989</ele>
        <time>2022-08-27T09:21:59Z</time>
      </trkpt>
      <trkpt lat="45.80567" lon="6.98466">
        <ele>1989</ele>
        <time>2022-08-27T09:22:00Z</time>
      </trkpt>
      <trkpt lat="45.80568" lon="6.98466">
        <ele>1989</ele>
        <time>2022-08-27T09:22:01Z</time>
      </trkpt>
      <trkpt lat="45.80568" lon="6.98466">
        <ele>1989</ele>
        <time>2022-08-27T09:22:02Z</time>
      </trkpt>
      <trkpt lat="45.80569" lon="6.98466">
        <ele>1990</ele>
        <time>2022-08-27T09:22:04Z</time>
      </trkpt>
      <trkpt lat="45.80569" lon="6.98466">
        <ele>1990</ele>
        <time>2022-08-27T09:22:05Z</time>
      </trkpt>
      <trkpt lat="45.8057" lon="6.98466">
        <ele>1990</ele>
        <time>2022-08-27T09:22:06Z</time>
      </trkpt>
      <trkpt lat="45.8057" lon="6.98466">
        <ele>1991</ele>
        <time>2022-08-27T09:22:07Z</time>
      </trkpt>
      <trkpt lat="45.80571" lon="6.98466">
        <ele>1991</ele>
        <time>2022-08-27T09:22:09Z</time>
      </trkpt>
      <trkpt lat="45.80571" lon="6.98466">
        <ele>1991</ele>
        <time>2022-08-27T09:22:10Z</time>
      </trkpt>
      <trkpt lat="45.80572" lon="6.98466">
        <ele>1991</ele>
        <time>2022-08-27T09:22:11Z</time>
      </trkpt>
      <trkpt lat="45.80572" lon="6.98466">
        <ele>1991</ele>
        <time>2022-08-27T09:22:12Z</time>
      </trkpt>
      <trkpt lat="45.80573" lon="6.98466">
        <ele>1991</ele>
        <time>2022-08-27T09:22:13Z</time>
      </trkpt>
      <trkpt lat="45.80573" lon="6.98466">
        <ele>1991</ele>
        <time>2022-08-27T09:22:14Z</time>
      </trkpt>
      <trkpt lat="45.80574" lon="6.98466">
        <ele>1991</ele>
        <time>2022-08-27T09:22:15Z</time>
      </trkpt>
      <trkpt lat="45.80575" lon="6.98466">
        <ele>1991</ele>
        <time>2022-08-27T09:22:16Z</time>
      </trkpt>
      <trkpt lat="45.80578" lon="6.98454">
        <ele>1995</ele>
        <time>2022-08-27T09:22:33Z</time>
      </trkpt>
      <trkpt lat="45.80578" lon="6.98455">
        <ele>1995</ele>
        <time>2022-08-27T09:22:35Z</time>
      </trkpt>
      <trkpt lat="45.80578" lon="6.98456">
        <ele>1995</ele>
        <time>2022-08-27T09:22:36Z</time>
      </trkpt>
      <trkpt lat="45.80578" lon="6.98458">
        <ele>1995</ele>
        <time>2022-08-27T09:22:37Z</time>
      </trkpt>
      <trkpt lat="45.80578" lon="6.98459">
        <ele>1996</ele>
        <time>2022-08-27T09:22:39Z</time>
      </trkpt>
      <trkpt lat="45.80578" lon="6.9846">
        <ele>1996</ele>
        <time>2022-08-27T09:22:40Z</time>
      </trkpt>
      <trkpt lat="45.80578" lon="6.98461">
        <ele>1996</ele>
        <time>2022-08-27T09:22:41Z</time>
      </trkpt>
      <trkpt lat="45.80578" lon="6.98463">
        <ele>1996</ele>
        <time>2022-08-27T09:22:42Z</time>
      </trkpt>
      <trkpt lat="45.80579" lon="6.98464">
        <ele>1997</ele>
        <time>2022-08-27T09:22:44Z</time>
      </trkpt>
      <trkpt lat="45.80579" lon="6.98465">
        <ele>1997</ele>
        <time>2022-08-27T09:22:45Z</time>
      </trkpt>
      <trkpt lat="45.80579" lon="6.98466">
        <ele>1997</ele>
        <time>2022-08-27T09:22:46Z</time>
      </trkpt>
      <trkpt lat="45.80579" lon="6.98467">
        <ele>1998</ele>
        <time>2022-08-27T09:22:47Z</time>
      </trkpt>
      <trkpt lat="45.80579" lon="6.98468">
        <ele>1998</ele>
        <time>2022-08-27T09:22:48Z</time>
      </trkpt>
      <trkpt lat="45.8058" lon="6.98469">
        <ele>1998</ele>
        <time>2022-08-27T09:22:49Z</time>
      </trkpt>
      <trkpt lat="45.8058" lon="6.98469">
        <ele>1998</ele>
        <time>2022-08-27T09:22:50Z</time>
      </trkpt>
      <trkpt lat="45.80581" lon="6.9847">
        <ele>1998</ele>
        <time>2022-08-27T09:22:52Z</time>
      </trkpt>
      <trkpt lat="45.80581" lon="6.98471">
        <ele>1999</ele>
        <time>2022-08-27T09:22:54Z</time>
      </trkpt>
      <trkpt lat="45.80581" lon="6.98472">
        <ele>1999</ele>
        <time>2022-08-27T09:22:55Z</time>
      </trkpt>
      <trkpt lat="45.80582" lon="6.98472">
        <ele>2000</ele>
        <time>2022-08-27T09:22:56Z</time>
      </trkpt>
      <trkpt lat="45.80582" lon="6.98473">
        <ele>2000</ele>
        <time>2022-08-27T09:22:58Z</time>
      </trkpt>
      <trkpt lat="45.80583" lon="6.98474">
        <ele>2000</ele>
        <time>2022-08-27T09:22:59Z</time>
      </trkpt>
      <trkpt lat="45.80583" lon="6.98474">
        <ele>2000</ele>
        <time>2022-08-27T09:23:00Z</time>
      </trkpt>
      <trkpt lat="45.80584" lon="6.98475">
        <ele>2000</ele>
        <time>2022-08-27T09:23:01Z</time>
      </trkpt>
      <trkpt lat="45.80584" lon="6.98476">
        <ele>2001</ele>
        <time>2022-08-27T09:23:03Z</time>
      </trkpt>
      <trkpt lat="45.80585" lon="6.98476">
        <ele>2001</ele>
        <time>2022-08-27T09:23:04Z</time>
      </trkpt>
      <trkpt lat="45.80585" lon="6.98477">
        <ele>2001</ele>
        <time>2022-08-27T09:23:05Z</time>
      </trkpt>
      <trkpt lat="45.80587" lon="6.98463">
        <ele>2004</ele>
        <time>2022-08-27T09:23:22Z</time>
      </trkpt>
      <trkpt lat="45.80587" lon="6.98462">
        <ele>2004</ele>
        <time>2022-08-27T09:23:23Z</time>
      </trkpt>
      <trkpt lat="45.80587" lon="6.98461">
        <ele>2005</ele>
        <time>2022-08-27T09:23:24Z</time>
      </trkpt>
      <trkpt lat="45.80587" lon="6.9846">
        <ele>2005</ele>
        <time>2022-08-27T09:23:25Z</time>
      </trkpt>
      <trkpt lat="45.80587" lon="6.98459">
        <ele>2005</ele>
        <time>2022-08-27T09:23:27Z</time>
      </trkpt>
      <trkpt lat="45.80586" lon="6.98458">
        <ele>2005</ele>
        <time>2022-08-27T09:23:28Z</time>
      </trkpt>
      <trkpt lat="45.80586" lon="6.98457">
        <ele>2005</ele>
        <time>2022-08-27T09:23:29Z</time>
      </trkpt>
      <trkpt lat="45.80586" lon="6.98456">
        <ele>2005</ele>
        <time>2022-08-27T09:23:30Z</time>
      </trkpt>
      <trkpt lat="45.80586" lon="6.98455">
        <ele>2005</ele>
        <time>2022-08-27T09:23:32Z</time>
      </trkpt>
      <trkpt lat="45.80586" lon="6.98454">
        <ele>2006</ele>
        <time>2022-08-27T09:23:34Z</time>
      </trkpt>
      <trkpt lat="45.80586" lon="6.98453">
        <ele>2006</ele>
        <time>2022-08-27T09:23:35Z</time>
      </trkpt>
      <trkpt lat="45.80586" lon="6.98452">
        <ele>2007</ele>
        <time>2022-08-27T09:23:36Z</time>
      </trkpt>
      <trkpt lat="45.80586" lon="6.9845">
        <ele>2007</ele>
        <time>2022-08-27T09:23:37Z</time>
      </trkpt>
      <trkpt lat="45.80586" lon="6.98449">
        <ele>2008</ele>
        <time>2022-08-27T09:23:39Z</time>
      </trkpt>
      <trkpt lat="45.80586" lon="6.98448">
        <ele>2008</ele>
        <time>2022-08-27T09:23:41Z</time>
      </trkpt>
      <trkpt lat="45.80587" lon="6.98446">
        <ele>2008</ele>
        <time>2022-08-27T09:23:42Z</time>
      </trkpt>
      <trkpt lat="45.80587" lon="6.98445">
        <ele>2008</ele>
        <time>2022-08-27T09:23:43Z</time>
      </trkpt>
      <trkpt lat="45.80587" lon="6.98443">
        <ele>2008</ele>
        <time>2022-08-27T09:23:44Z</time>
      </trkpt>
      <trkpt lat="45.80587" lon="6.98442">
        <ele>2008</ele>
        <time>2022-08-27T09:23:46Z</time>
      </trkpt>
      <trkpt lat="45.80587" lon="6.9844">
        <ele>2008</ele>
        <time>2022-08-27T09:23:47Z</time>
      </trkpt>
      <trkpt lat="45.80587" lon="6.98439">
        <ele>2008</ele>
        <time>2022-08-27T09:23:48Z</time>
      </trkpt>
      <trkpt lat="45.80587" lon="6.98438">
        <ele>2009</ele>
        <time>2022-08-27T09:23:49Z</time>
      </trkpt>
      <trkpt lat="45.80587" lon="6.98436">
        <ele>2009</ele>
        <time>2022-08-27T09:23:51Z</time>
      </trkpt>
      <trkpt lat="45.80587" lon="6.98434">
        <ele>2009</ele>
        <time>2022-08-27T09:23:52Z</time>
      </trkpt>
      <trkpt lat="45.80587" lon="6.98432">
        <ele>2010</ele>
        <time>2022-08-27T09:23:53Z</time>
      </trkpt>
      <trkpt lat="45.80587" lon="6.9843">
        <ele>2010</ele>
        <time>2022-08-27T09:23:54Z</time>
      </trkpt>
      <trkpt lat="45.80587" lon="6.98428">
        <ele>2010</ele>
        <time>2022-08-27T09:23:56Z</time>
      </trkpt>
      <trkpt lat="45.80587" lon="6.98426">
        <ele>2011</ele>
        <time>2022-08-27T09:23:58Z</time>
      </trkpt>
      <trkpt lat="45.80587" lon="6.98424">
        <ele>2011</ele>
        <time>2022-08-27T09:23:59Z</time>
      </trkpt>
      <trkpt lat="45.80588" lon="6.98423">
        <ele>2011</ele>
        <time>2022-08-27T09:24:00Z</time>
      </trkpt>
      <trkpt lat="45.80589" lon="6.98422">
        <ele>2012</ele>
        <time>2022-08-27T09:24:01Z</time>
      </trkpt>
      <trkpt lat="45.8059" lon="6.98422">
        <ele>2012</ele>
        <time>2022-08-27T09:24:03Z</time>
      </trkpt>
      <trkpt lat="45.8059" lon="6.98421">
        <ele>2012</ele>
        <time>2022-08-27T09:24:04Z</time>
      </trkpt>
      <trkpt lat="45.80591" lon="6.9842">
        <ele>2012</ele>
        <time>2022-08-27T09:24:05Z</time>
      </trkpt>
      <trkpt lat="45.80592" lon="6.9842">
        <ele>2012</ele>
        <time>2022-08-27T09:24:06Z</time>
      </trkpt>
      <trkpt lat="45.80593" lon="6.98419">
        <ele>2014</ele>
        <time>2022-08-27T09:24:08Z</time>
      </trkpt>
      <trkpt lat="45.80594" lon="6.98418">
        <ele>2014</ele>
        <time>2022-08-27T09:24:10Z</time>
      </trkpt>
      <trkpt lat="45.80595" lon="6.98418">
        <ele>2014</ele>
        <time>2022-08-27T09:24:11Z</time>
      </trkpt>
      <trkpt lat="45.80596" lon="6.98417">
        <ele>2014</ele>
        <time>2022-08-27T09:24:12Z</time>
      </trkpt>
      <trkpt lat="45.80598" lon="6.98404">
        <ele>2016</ele>
        <time>2022-08-27T09:24:22Z</time>
      </trkpt>
      <trkpt lat="45.80598" lon="6.98404">
        <ele>2018</ele>
        <time>2022-08-27T09:24:34Z</time>
      </trkpt>
      <trkpt lat="45.80598" lon="6.98391">
        <ele>2019</ele>
        <time>2022-08-27T09:24:39Z</time>
      </trkpt>
      <trkpt lat="45.80599" lon="6.9839">
        <ele>2019</ele>
        <time>2022-08-27T09:24:40Z</time>
      </trkpt>
      <trkpt lat="45.80599" lon="6.98388">
        <ele>2019</ele>
        <time>2022-08-27T09:24:41Z</time>
      </trkpt>
      <trkpt lat="45.806" lon="6.98387">
        <ele>2020</ele>
        <time>2022-08-27T09:24:42Z</time>
      </trkpt>
      <trkpt lat="45.806" lon="6.98386">
        <ele>2020</ele>
        <time>2022-08-27T09:24:44Z</time>
      </trkpt>
      <trkpt lat="45.80601" lon="6.98385">
        <ele>2020</ele>
        <time>2022-08-27T09:24:45Z</time>
      </trkpt>
      <trkpt lat="45.80601" lon="6.98384">
        <ele>2021</ele>
        <time>2022-08-27T09:24:46Z</time>
      </trkpt>
      <trkpt lat="45.80601" lon="6.98383">
        <ele>2021</ele>
        <time>2022-08-27T09:24:48Z</time>
      </trkpt>
      <trkpt lat="45.80602" lon="6.98381">
        <ele>2021</ele>
        <time>2022-08-27T09:24:50Z</time>
      </trkpt>
      <trkpt lat="45.80602" lon="6.9838">
        <ele>2021</ele>
        <time>2022-08-27T09:24:52Z</time>
      </trkpt>
      <trkpt lat="45.80603" lon="6.98379">
        <ele>2021</ele>
        <time>2022-08-27T09:24:53Z</time>
      </trkpt>
      <trkpt lat="45.80602" lon="6.98366">
        <ele>2024</ele>
        <time>2022-08-27T09:25:07Z</time>
      </trkpt>
      <trkpt lat="45.80603" lon="6.98366">
        <ele>2024</ele>
        <time>2022-08-27T09:25:09Z</time>
      </trkpt>
      <trkpt lat="45.80603" lon="6.98367">
        <ele>2024</ele>
        <time>2022-08-27T09:25:10Z</time>
      </trkpt>
      <trkpt lat="45.80604" lon="6.98367">
        <ele>2025</ele>
        <time>2022-08-27T09:25:11Z</time>
      </trkpt>
      <trkpt lat="45.80604" lon="6.98368">
        <ele>2025</ele>
        <time>2022-08-27T09:25:12Z</time>
      </trkpt>
      <trkpt lat="45.80605" lon="6.98368">
        <ele>2025</ele>
        <time>2022-08-27T09:25:14Z</time>
      </trkpt>
      <trkpt lat="45.80606" lon="6.98368">
        <ele>2025</ele>
        <time>2022-08-27T09:25:15Z</time>
      </trkpt>
      <trkpt lat="45.80606" lon="6.98369">
        <ele>2025</ele>
        <time>2022-08-27T09:25:16Z</time>
      </trkpt>
      <trkpt lat="45.80607" lon="6.98369">
        <ele>2025</ele>
        <time>2022-08-27T09:25:17Z</time>
      </trkpt>
      <trkpt lat="45.80607" lon="6.9837">
        <ele>2026</ele>
        <time>2022-08-27T09:25:19Z</time>
      </trkpt>
      <trkpt lat="45.80608" lon="6.9837">
        <ele>2026</ele>
        <time>2022-08-27T09:25:20Z</time>
      </trkpt>
      <trkpt lat="45.80608" lon="6.9837">
        <ele>2026</ele>
        <time>2022-08-27T09:25:21Z</time>
      </trkpt>
      <trkpt lat="45.80609" lon="6.98371">
        <ele>2026</ele>
        <time>2022-08-27T09:25:22Z</time>
      </trkpt>
      <trkpt lat="45.8061" lon="6.98371">
        <ele>2026</ele>
        <time>2022-08-27T09:25:23Z</time>
      </trkpt>
      <trkpt lat="45.8061" lon="6.98372">
        <ele>2026</ele>
        <time>2022-08-27T09:25:24Z</time>
      </trkpt>
      <trkpt lat="45.80611" lon="6.98373">
        <ele>2027</ele>
        <time>2022-08-27T09:25:26Z</time>
      </trkpt>
      <trkpt lat="45.80612" lon="6.98374">
        <ele>2028</ele>
        <time>2022-08-27T09:25:27Z</time>
      </trkpt>
      <trkpt lat="45.80612" lon="6.98376">
        <ele>2028</ele>
        <time>2022-08-27T09:25:28Z</time>
      </trkpt>
      <trkpt lat="45.80613" lon="6.98377">
        <ele>2028</ele>
        <time>2022-08-27T09:25:29Z</time>
      </trkpt>
      <trkpt lat="45.80614" lon="6.98378">
        <ele>2029</ele>
        <time>2022-08-27T09:25:30Z</time>
      </trkpt>
      <trkpt lat="45.80614" lon="6.9838">
        <ele>2029</ele>
        <time>2022-08-27T09:25:32Z</time>
      </trkpt>
      <trkpt lat="45.80615" lon="6.98381">
        <ele>2029</ele>
        <time>2022-08-27T09:25:33Z</time>
      </trkpt>
      <trkpt lat="45.80616" lon="6.98382">
        <ele>2030</ele>
        <time>2022-08-27T09:25:34Z</time>
      </trkpt>
      <trkpt lat="45.80616" lon="6.98384">
        <ele>2030</ele>
        <time>2022-08-27T09:25:35Z</time>
      </trkpt>
      <trkpt lat="45.80617" lon="6.98385">
        <ele>2030</ele>
        <time>2022-08-27T09:25:37Z</time>
      </trkpt>
      <trkpt lat="45.80618" lon="6.98386">
        <ele>2030</ele>
        <time>2022-08-27T09:25:39Z</time>
      </trkpt>
      <trkpt lat="45.80618" lon="6.98388">
        <ele>2030</ele>
        <time>2022-08-27T09:25:40Z</time>
      </trkpt>
      <trkpt lat="45.80619" lon="6.98389">
        <ele>2030</ele>
        <time>2022-08-27T09:25:41Z</time>
      </trkpt>
      <trkpt lat="45.8062" lon="6.9839">
        <ele>2031</ele>
        <time>2022-08-27T09:25:42Z</time>
      </trkpt>
      <trkpt lat="45.8062" lon="6.98392">
        <ele>2031</ele>
        <time>2022-08-27T09:25:44Z</time>
      </trkpt>
      <trkpt lat="45.80621" lon="6.98393">
        <ele>2031</ele>
        <time>2022-08-27T09:25:45Z</time>
      </trkpt>
      <trkpt lat="45.80631" lon="6.98396">
        <ele>2034</ele>
        <time>2022-08-27T09:25:59Z</time>
      </trkpt>
      <trkpt lat="45.80631" lon="6.98397">
        <ele>2034</ele>
        <time>2022-08-27T09:26:00Z</time>
      </trkpt>
      <trkpt lat="45.80632" lon="6.98398">
        <ele>2034</ele>
        <time>2022-08-27T09:26:01Z</time>
      </trkpt>
      <trkpt lat="45.80633" lon="6.98399">
        <ele>2034</ele>
        <time>2022-08-27T09:26:02Z</time>
      </trkpt>
      <trkpt lat="45.80634" lon="6.98399">
        <ele>2034</ele>
        <time>2022-08-27T09:26:04Z</time>
      </trkpt>
      <trkpt lat="45.80634" lon="6.984">
        <ele>2034</ele>
        <time>2022-08-27T09:26:06Z</time>
      </trkpt>
      <trkpt lat="45.80635" lon="6.98401">
        <ele>2035</ele>
        <time>2022-08-27T09:26:07Z</time>
      </trkpt>
      <trkpt lat="45.80636" lon="6.98402">
        <ele>2035</ele>
        <time>2022-08-27T09:26:08Z</time>
      </trkpt>
      <trkpt lat="45.80637" lon="6.98402">
        <ele>2036</ele>
        <time>2022-08-27T09:26:09Z</time>
      </trkpt>
      <trkpt lat="45.80637" lon="6.98403">
        <ele>2036</ele>
        <time>2022-08-27T09:26:11Z</time>
      </trkpt>
      <trkpt lat="45.80638" lon="6.98404">
        <ele>2036</ele>
        <time>2022-08-27T09:26:12Z</time>
      </trkpt>
      <trkpt lat="45.80639" lon="6.98404">
        <ele>2036</ele>
        <time>2022-08-27T09:26:13Z</time>
      </trkpt>
      <trkpt lat="45.80639" lon="6.98405">
        <ele>2036</ele>
        <time>2022-08-27T09:26:14Z</time>
      </trkpt>
      <trkpt lat="45.80639" lon="6.98405">
        <ele>2037</ele>
        <time>2022-08-27T09:26:16Z</time>
      </trkpt>
      <trkpt lat="45.80639" lon="6.98406">
        <ele>2037</ele>
        <time>2022-08-27T09:26:17Z</time>
      </trkpt>
      <trkpt lat="45.8064" lon="6.98406">
        <ele>2037</ele>
        <time>2022-08-27T09:26:18Z</time>
      </trkpt>
      <trkpt lat="45.8064" lon="6.98407">
        <ele>2037</ele>
        <time>2022-08-27T09:26:19Z</time>
      </trkpt>
      <trkpt lat="45.8064" lon="6.98407">
        <ele>2038</ele>
        <time>2022-08-27T09:26:21Z</time>
      </trkpt>
      <trkpt lat="45.80641" lon="6.98408">
        <ele>2038</ele>
        <time>2022-08-27T09:26:23Z</time>
      </trkpt>
      <trkpt lat="45.80641" lon="6.98408">
        <ele>2038</ele>
        <time>2022-08-27T09:26:24Z</time>
      </trkpt>
      <trkpt lat="45.80641" lon="6.98408">
        <ele>2038</ele>
        <time>2022-08-27T09:26:25Z</time>
      </trkpt>
      <trkpt lat="45.80642" lon="6.98409">
        <ele>2038</ele>
        <time>2022-08-27T09:26:26Z</time>
      </trkpt>
      <trkpt lat="45.80642" lon="6.98409">
        <ele>2038</ele>
        <time>2022-08-27T09:26:28Z</time>
      </trkpt>
      <trkpt lat="45.80642" lon="6.9841">
        <ele>2040</ele>
        <time>2022-08-27T09:26:29Z</time>
      </trkpt>
      <trkpt lat="45.80643" lon="6.9841">
        <ele>2040</ele>
        <time>2022-08-27T09:26:30Z</time>
      </trkpt>
      <trkpt lat="45.80643" lon="6.98411">
        <ele>2040</ele>
        <time>2022-08-27T09:26:31Z</time>
      </trkpt>
      <trkpt lat="45.80643" lon="6.98411">
        <ele>2040</ele>
        <time>2022-08-27T09:26:33Z</time>
      </trkpt>
      <trkpt lat="45.80644" lon="6.98412">
        <ele>2041</ele>
        <time>2022-08-27T09:26:34Z</time>
      </trkpt>
      <trkpt lat="45.80644" lon="6.98412">
        <ele>2041</ele>
        <time>2022-08-27T09:26:35Z</time>
      </trkpt>
      <trkpt lat="45.80644" lon="6.98412">
        <ele>2041</ele>
        <time>2022-08-27T09:26:36Z</time>
      </trkpt>
      <trkpt lat="45.80644" lon="6.98413">
        <ele>2041</ele>
        <time>2022-08-27T09:26:37Z</time>
      </trkpt>
      <trkpt lat="45.80645" lon="6.98413">
        <ele>2041</ele>
        <time>2022-08-27T09:26:38Z</time>
      </trkpt>
      <trkpt lat="45.80645" lon="6.98412">
        <ele>2041</ele>
        <time>2022-08-27T09:26:39Z</time>
      </trkpt>
      <trkpt lat="45.80646" lon="6.9841">
        <ele>2041</ele>
        <time>2022-08-27T09:26:41Z</time>
      </trkpt>
      <trkpt lat="45.80646" lon="6.98409">
        <ele>2042</ele>
        <time>2022-08-27T09:26:42Z</time>
      </trkpt>
      <trkpt lat="45.80647" lon="6.98407">
        <ele>2042</ele>
        <time>2022-08-27T09:26:43Z</time>
      </trkpt>
      <trkpt lat="45.80647" lon="6.98405">
        <ele>2042</ele>
        <time>2022-08-27T09:26:44Z</time>
      </trkpt>
      <trkpt lat="45.80647" lon="6.98404">
        <ele>2042</ele>
        <time>2022-08-27T09:26:45Z</time>
      </trkpt>
      <trkpt lat="45.80648" lon="6.98402">
        <ele>2042</ele>
        <time>2022-08-27T09:26:46Z</time>
      </trkpt>
      <trkpt lat="45.80648" lon="6.984">
        <ele>2043</ele>
        <time>2022-08-27T09:26:47Z</time>
      </trkpt>
      <trkpt lat="45.80648" lon="6.98399">
        <ele>2044</ele>
        <time>2022-08-27T09:26:48Z</time>
      </trkpt>
      <trkpt lat="45.80647" lon="6.98397">
        <ele>2044</ele>
        <time>2022-08-27T09:26:49Z</time>
      </trkpt>
      <trkpt lat="45.80647" lon="6.98395">
        <ele>2044</ele>
        <time>2022-08-27T09:26:50Z</time>
      </trkpt>
      <trkpt lat="45.80646" lon="6.98394">
        <ele>2044</ele>
        <time>2022-08-27T09:26:52Z</time>
      </trkpt>
      <trkpt lat="45.80646" lon="6.98392">
        <ele>2044</ele>
        <time>2022-08-27T09:26:54Z</time>
      </trkpt>
      <trkpt lat="45.80645" lon="6.9839">
        <ele>2044</ele>
        <time>2022-08-27T09:26:55Z</time>
      </trkpt>
      <trkpt lat="45.80645" lon="6.98388">
        <ele>2044</ele>
        <time>2022-08-27T09:26:56Z</time>
      </trkpt>
      <trkpt lat="45.80645" lon="6.98387">
        <ele>2044</ele>
        <time>2022-08-27T09:26:57Z</time>
      </trkpt>
      <trkpt lat="45.80645" lon="6.98386">
        <ele>2045</ele>
        <time>2022-08-27T09:26:59Z</time>
      </trkpt>
      <trkpt lat="45.80645" lon="6.98385">
        <ele>2045</ele>
        <time>2022-08-27T09:27:01Z</time>
      </trkpt>
      <trkpt lat="45.80645" lon="6.98383">
        <ele>2046</ele>
        <time>2022-08-27T09:27:02Z</time>
      </trkpt>
      <trkpt lat="45.80645" lon="6.98382">
        <ele>2046</ele>
        <time>2022-08-27T09:27:03Z</time>
      </trkpt>
      <trkpt lat="45.80645" lon="6.98381">
        <ele>2046</ele>
        <time>2022-08-27T09:27:05Z</time>
      </trkpt>
      <trkpt lat="45.80645" lon="6.9838">
        <ele>2046</ele>
        <time>2022-08-27T09:27:06Z</time>
      </trkpt>
      <trkpt lat="45.80645" lon="6.98379">
        <ele>2046</ele>
        <time>2022-08-27T09:27:07Z</time>
      </trkpt>
      <trkpt lat="45.80645" lon="6.98377">
        <ele>2046</ele>
        <time>2022-08-27T09:27:08Z</time>
      </trkpt>
      <trkpt lat="45.80644" lon="6.98365">
        <ele>2048</ele>
        <time>2022-08-27T09:27:17Z</time>
      </trkpt>
      <trkpt lat="45.80643" lon="6.98362">
        <ele>2048</ele>
        <time>2022-08-27T09:27:19Z</time>
      </trkpt>
      <trkpt lat="45.80643" lon="6.9836">
        <ele>2048</ele>
        <time>2022-08-27T09:27:22Z</time>
      </trkpt>
      <trkpt lat="45.80642" lon="6.98358">
        <ele>2048</ele>
        <time>2022-08-27T09:27:24Z</time>
      </trkpt>
      <trkpt lat="45.80642" lon="6.98356">
        <ele>2049</ele>
        <time>2022-08-27T09:27:25Z</time>
      </trkpt>
      <trkpt lat="45.80642" lon="6.98355">
        <ele>2049</ele>
        <time>2022-08-27T09:27:26Z</time>
      </trkpt>
      <trkpt lat="45.80641" lon="6.98353">
        <ele>2050</ele>
        <time>2022-08-27T09:27:27Z</time>
      </trkpt>
      <trkpt lat="45.80641" lon="6.98351">
        <ele>2050</ele>
        <time>2022-08-27T09:27:29Z</time>
      </trkpt>
      <trkpt lat="45.80641" lon="6.98349">
        <ele>2050</ele>
        <time>2022-08-27T09:27:30Z</time>
      </trkpt>
      <trkpt lat="45.80642" lon="6.98346">
        <ele>2050</ele>
        <time>2022-08-27T09:27:34Z</time>
      </trkpt>
      <trkpt lat="45.80644" lon="6.98349">
        <ele>2050</ele>
        <time>2022-08-27T09:27:36Z</time>
      </trkpt>
      <trkpt lat="45.80645" lon="6.98351">
        <ele>2051</ele>
        <time>2022-08-27T09:27:37Z</time>
      </trkpt>
      <trkpt lat="45.80647" lon="6.98354">
        <ele>2051</ele>
        <time>2022-08-27T09:27:39Z</time>
      </trkpt>
      <trkpt lat="45.80649" lon="6.98356">
        <ele>2051</ele>
        <time>2022-08-27T09:27:40Z</time>
      </trkpt>
      <trkpt lat="45.8065" lon="6.98359">
        <ele>2052</ele>
        <time>2022-08-27T09:27:42Z</time>
      </trkpt>
      <trkpt lat="45.80652" lon="6.98361">
        <ele>2053</ele>
        <time>2022-08-27T09:27:44Z</time>
      </trkpt>
      <trkpt lat="45.80654" lon="6.98361">
        <ele>2053</ele>
        <time>2022-08-27T09:27:47Z</time>
      </trkpt>
      <trkpt lat="45.80655" lon="6.98363">
        <ele>2054</ele>
        <time>2022-08-27T09:27:50Z</time>
      </trkpt>
      <trkpt lat="45.80657" lon="6.98367">
        <ele>2054</ele>
        <time>2022-08-27T09:27:54Z</time>
      </trkpt>
      <trkpt lat="45.80658" lon="6.98367">
        <ele>2054</ele>
        <time>2022-08-27T09:27:55Z</time>
      </trkpt>
      <trkpt lat="45.80659" lon="6.98367">
        <ele>2055</ele>
        <time>2022-08-27T09:27:56Z</time>
      </trkpt>
      <trkpt lat="45.80659" lon="6.98368">
        <ele>2055</ele>
        <time>2022-08-27T09:27:58Z</time>
      </trkpt>
      <trkpt lat="45.8066" lon="6.98368">
        <ele>2055</ele>
        <time>2022-08-27T09:27:59Z</time>
      </trkpt>
      <trkpt lat="45.80661" lon="6.98368">
        <ele>2056</ele>
        <time>2022-08-27T09:28:00Z</time>
      </trkpt>
      <trkpt lat="45.80662" lon="6.98369">
        <ele>2056</ele>
        <time>2022-08-27T09:28:01Z</time>
      </trkpt>
      <trkpt lat="45.80662" lon="6.98369">
        <ele>2056</ele>
        <time>2022-08-27T09:28:03Z</time>
      </trkpt>
      <trkpt lat="45.80663" lon="6.98369">
        <ele>2056</ele>
        <time>2022-08-27T09:28:04Z</time>
      </trkpt>
      <trkpt lat="45.80664" lon="6.9837">
        <ele>2056</ele>
        <time>2022-08-27T09:28:05Z</time>
      </trkpt>
      <trkpt lat="45.80665" lon="6.9837">
        <ele>2056</ele>
        <time>2022-08-27T09:28:06Z</time>
      </trkpt>
      <trkpt lat="45.80666" lon="6.98371">
        <ele>2056</ele>
        <time>2022-08-27T09:28:07Z</time>
      </trkpt>
      <trkpt lat="45.80666" lon="6.98357">
        <ele>2057</ele>
        <time>2022-08-27T09:28:15Z</time>
      </trkpt>
      <trkpt lat="45.80665" lon="6.98354">
        <ele>2058</ele>
        <time>2022-08-27T09:28:17Z</time>
      </trkpt>
      <trkpt lat="45.80664" lon="6.98352">
        <ele>2059</ele>
        <time>2022-08-27T09:28:18Z</time>
      </trkpt>
      <trkpt lat="45.80664" lon="6.9835">
        <ele>2059</ele>
        <time>2022-08-27T09:28:19Z</time>
      </trkpt>
      <trkpt lat="45.80663" lon="6.98348">
        <ele>2059</ele>
        <time>2022-08-27T09:28:21Z</time>
      </trkpt>
      <trkpt lat="45.80662" lon="6.98346">
        <ele>2059</ele>
        <time>2022-08-27T09:28:22Z</time>
      </trkpt>
      <trkpt lat="45.80662" lon="6.98343">
        <ele>2059</ele>
        <time>2022-08-27T09:28:23Z</time>
      </trkpt>
      <trkpt lat="45.80661" lon="6.98342">
        <ele>2060</ele>
        <time>2022-08-27T09:28:24Z</time>
      </trkpt>
      <trkpt lat="45.80661" lon="6.9834">
        <ele>2060</ele>
        <time>2022-08-27T09:28:25Z</time>
      </trkpt>
      <trkpt lat="45.8066" lon="6.98338">
        <ele>2060</ele>
        <time>2022-08-27T09:28:26Z</time>
      </trkpt>
      <trkpt lat="45.80659" lon="6.98337">
        <ele>2060</ele>
        <time>2022-08-27T09:28:28Z</time>
      </trkpt>
      <trkpt lat="45.80659" lon="6.98335">
        <ele>2060</ele>
        <time>2022-08-27T09:28:29Z</time>
      </trkpt>
      <trkpt lat="45.80658" lon="6.98333">
        <ele>2060</ele>
        <time>2022-08-27T09:28:30Z</time>
      </trkpt>
      <trkpt lat="45.80657" lon="6.98332">
        <ele>2060</ele>
        <time>2022-08-27T09:28:31Z</time>
      </trkpt>
      <trkpt lat="45.80658" lon="6.98327">
        <ele>2061</ele>
        <time>2022-08-27T09:28:39Z</time>
      </trkpt>
      <trkpt lat="45.80659" lon="6.98325">
        <ele>2063</ele>
        <time>2022-08-27T09:28:45Z</time>
      </trkpt>
      <trkpt lat="45.80659" lon="6.98325">
        <ele>2064</ele>
        <time>2022-08-27T09:28:53Z</time>
      </trkpt>
      <trkpt lat="45.80664" lon="6.98336">
        <ele>2064</ele>
        <time>2022-08-27T09:28:55Z</time>
      </trkpt>
      <trkpt lat="45.80667" lon="6.98341">
        <ele>2066</ele>
        <time>2022-08-27T09:29:00Z</time>
      </trkpt>
      <trkpt lat="45.80674" lon="6.9835">
        <ele>2067</ele>
        <time>2022-08-27T09:29:14Z</time>
      </trkpt>
      <trkpt lat="45.80674" lon="6.9835">
        <ele>2069</ele>
        <time>2022-08-27T09:29:19Z</time>
      </trkpt>
      <trkpt lat="45.80676" lon="6.98362">
        <ele>2070</ele>
        <time>2022-08-27T09:29:26Z</time>
      </trkpt>
      <trkpt lat="45.80677" lon="6.98361">
        <ele>2070</ele>
        <time>2022-08-27T09:29:27Z</time>
      </trkpt>
      <trkpt lat="45.80678" lon="6.9836">
        <ele>2070</ele>
        <time>2022-08-27T09:29:28Z</time>
      </trkpt>
      <trkpt lat="45.80679" lon="6.98359">
        <ele>2070</ele>
        <time>2022-08-27T09:29:29Z</time>
      </trkpt>
      <trkpt lat="45.8068" lon="6.98359">
        <ele>2071</ele>
        <time>2022-08-27T09:29:31Z</time>
      </trkpt>
      <trkpt lat="45.80681" lon="6.98358">
        <ele>2072</ele>
        <time>2022-08-27T09:29:33Z</time>
      </trkpt>
      <trkpt lat="45.80682" lon="6.98357">
        <ele>2072</ele>
        <time>2022-08-27T09:29:35Z</time>
      </trkpt>
      <trkpt lat="45.80683" lon="6.98356">
        <ele>2072</ele>
        <time>2022-08-27T09:29:37Z</time>
      </trkpt>
      <trkpt lat="45.80684" lon="6.98355">
        <ele>2073</ele>
        <time>2022-08-27T09:29:38Z</time>
      </trkpt>
      <trkpt lat="45.80685" lon="6.98353">
        <ele>2073</ele>
        <time>2022-08-27T09:29:39Z</time>
      </trkpt>
      <trkpt lat="45.80685" lon="6.9835">
        <ele>2073</ele>
        <time>2022-08-27T09:29:40Z</time>
      </trkpt>
      <trkpt lat="45.80685" lon="6.98347">
        <ele>2073</ele>
        <time>2022-08-27T09:29:41Z</time>
      </trkpt>
      <trkpt lat="45.80685" lon="6.98345">
        <ele>2073</ele>
        <time>2022-08-27T09:29:42Z</time>
      </trkpt>
      <trkpt lat="45.80685" lon="6.98342">
        <ele>2074</ele>
        <time>2022-08-27T09:29:43Z</time>
      </trkpt>
      <trkpt lat="45.80685" lon="6.98341">
        <ele>2074</ele>
        <time>2022-08-27T09:29:44Z</time>
      </trkpt>
      <trkpt lat="45.80685" lon="6.9834">
        <ele>2074</ele>
        <time>2022-08-27T09:29:45Z</time>
      </trkpt>
      <trkpt lat="45.80685" lon="6.98339">
        <ele>2074</ele>
        <time>2022-08-27T09:29:46Z</time>
      </trkpt>
      <trkpt lat="45.80684" lon="6.98338">
        <ele>2074</ele>
        <time>2022-08-27T09:29:48Z</time>
      </trkpt>
      <trkpt lat="45.80684" lon="6.98337">
        <ele>2074</ele>
        <time>2022-08-27T09:29:50Z</time>
      </trkpt>
      <trkpt lat="45.80684" lon="6.98336">
        <ele>2075</ele>
        <time>2022-08-27T09:29:52Z</time>
      </trkpt>
      <trkpt lat="45.80684" lon="6.98335">
        <ele>2075</ele>
        <time>2022-08-27T09:29:53Z</time>
      </trkpt>
      <trkpt lat="45.80682" lon="6.98326">
        <ele>2075</ele>
        <time>2022-08-27T09:29:54Z</time>
      </trkpt>
      <trkpt lat="45.80682" lon="6.98325">
        <ele>2075</ele>
        <time>2022-08-27T09:29:56Z</time>
      </trkpt>
      <trkpt lat="45.80681" lon="6.98324">
        <ele>2075</ele>
        <time>2022-08-27T09:29:57Z</time>
      </trkpt>
      <trkpt lat="45.80681" lon="6.98323">
        <ele>2075</ele>
        <time>2022-08-27T09:29:59Z</time>
      </trkpt>
      <trkpt lat="45.8068" lon="6.98321">
        <ele>2075</ele>
        <time>2022-08-27T09:30:00Z</time>
      </trkpt>
      <trkpt lat="45.8068" lon="6.9832">
        <ele>2075</ele>
        <time>2022-08-27T09:30:01Z</time>
      </trkpt>
      <trkpt lat="45.80679" lon="6.98319">
        <ele>2076</ele>
        <time>2022-08-27T09:30:02Z</time>
      </trkpt>
      <trkpt lat="45.80679" lon="6.98318">
        <ele>2076</ele>
        <time>2022-08-27T09:30:03Z</time>
      </trkpt>
      <trkpt lat="45.80678" lon="6.98317">
        <ele>2076</ele>
        <time>2022-08-27T09:30:04Z</time>
      </trkpt>
      <trkpt lat="45.80677" lon="6.98316">
        <ele>2076</ele>
        <time>2022-08-27T09:30:06Z</time>
      </trkpt>
      <trkpt lat="45.80677" lon="6.98315">
        <ele>2076</ele>
        <time>2022-08-27T09:30:08Z</time>
      </trkpt>
      <trkpt lat="45.80676" lon="6.98314">
        <ele>2076</ele>
        <time>2022-08-27T09:30:09Z</time>
      </trkpt>
      <trkpt lat="45.80676" lon="6.98313">
        <ele>2076</ele>
        <time>2022-08-27T09:30:11Z</time>
      </trkpt>
      <trkpt lat="45.80675" lon="6.98312">
        <ele>2078</ele>
        <time>2022-08-27T09:30:13Z</time>
      </trkpt>
      <trkpt lat="45.80675" lon="6.98311">
        <ele>2078</ele>
        <time>2022-08-27T09:30:14Z</time>
      </trkpt>
      <trkpt lat="45.80674" lon="6.98311">
        <ele>2078</ele>
        <time>2022-08-27T09:30:15Z</time>
      </trkpt>
      <trkpt lat="45.80673" lon="6.9831">
        <ele>2078</ele>
        <time>2022-08-27T09:30:16Z</time>
      </trkpt>
      <trkpt lat="45.80673" lon="6.98309">
        <ele>2078</ele>
        <time>2022-08-27T09:30:17Z</time>
      </trkpt>
      <trkpt lat="45.80672" lon="6.98308">
        <ele>2078</ele>
        <time>2022-08-27T09:30:18Z</time>
      </trkpt>
      <trkpt lat="45.80672" lon="6.98307">
        <ele>2079</ele>
        <time>2022-08-27T09:30:20Z</time>
      </trkpt>
      <trkpt lat="45.80671" lon="6.98306">
        <ele>2079</ele>
        <time>2022-08-27T09:30:21Z</time>
      </trkpt>
      <trkpt lat="45.80671" lon="6.98304">
        <ele>2079</ele>
        <time>2022-08-27T09:30:22Z</time>
      </trkpt>
      <trkpt lat="45.8067" lon="6.98303">
        <ele>2079</ele>
        <time>2022-08-27T09:30:23Z</time>
      </trkpt>
      <trkpt lat="45.8067" lon="6.98302">
        <ele>2079</ele>
        <time>2022-08-27T09:30:25Z</time>
      </trkpt>
      <trkpt lat="45.80669" lon="6.98301">
        <ele>2079</ele>
        <time>2022-08-27T09:30:26Z</time>
      </trkpt>
      <trkpt lat="45.80669" lon="6.983">
        <ele>2079</ele>
        <time>2022-08-27T09:30:27Z</time>
      </trkpt>
      <trkpt lat="45.80668" lon="6.98298">
        <ele>2079</ele>
        <time>2022-08-27T09:30:28Z</time>
      </trkpt>
      <trkpt lat="45.80666" lon="6.98297">
        <ele>2079</ele>
        <time>2022-08-27T09:30:31Z</time>
      </trkpt>
      <trkpt lat="45.80663" lon="6.98295">
        <ele>2080</ele>
        <time>2022-08-27T09:30:35Z</time>
      </trkpt>
      <trkpt lat="45.80662" lon="6.98293">
        <ele>2080</ele>
        <time>2022-08-27T09:30:36Z</time>
      </trkpt>
      <trkpt lat="45.80661" lon="6.98292">
        <ele>2080</ele>
        <time>2022-08-27T09:30:37Z</time>
      </trkpt>
      <trkpt lat="45.8066" lon="6.98291">
        <ele>2081</ele>
        <time>2022-08-27T09:30:39Z</time>
      </trkpt>
      <trkpt lat="45.80659" lon="6.9829">
        <ele>2081</ele>
        <time>2022-08-27T09:30:40Z</time>
      </trkpt>
      <trkpt lat="45.80658" lon="6.98289">
        <ele>2081</ele>
        <time>2022-08-27T09:30:41Z</time>
      </trkpt>
      <trkpt lat="45.80657" lon="6.98287">
        <ele>2081</ele>
        <time>2022-08-27T09:30:43Z</time>
      </trkpt>
      <trkpt lat="45.80655" lon="6.98284">
        <ele>2081</ele>
        <time>2022-08-27T09:30:46Z</time>
      </trkpt>
      <trkpt lat="45.80653" lon="6.98281">
        <ele>2081</ele>
        <time>2022-08-27T09:30:47Z</time>
      </trkpt>
      <trkpt lat="45.80653" lon="6.98279">
        <ele>2081</ele>
        <time>2022-08-27T09:30:49Z</time>
      </trkpt>
      <trkpt lat="45.80652" lon="6.98277">
        <ele>2081</ele>
        <time>2022-08-27T09:30:51Z</time>
      </trkpt>
      <trkpt lat="45.80652" lon="6.98274">
        <ele>2082</ele>
        <time>2022-08-27T09:30:52Z</time>
      </trkpt>
      <trkpt lat="45.80651" lon="6.98271">
        <ele>2082</ele>
        <time>2022-08-27T09:30:55Z</time>
      </trkpt>
      <trkpt lat="45.8065" lon="6.98267">
        <ele>2083</ele>
        <time>2022-08-27T09:30:58Z</time>
      </trkpt>
      <trkpt lat="45.80649" lon="6.98264">
        <ele>2083</ele>
        <time>2022-08-27T09:31:01Z</time>
      </trkpt>
      <trkpt lat="45.80648" lon="6.98261">
        <ele>2084</ele>
        <time>2022-08-27T09:31:04Z</time>
      </trkpt>
      <trkpt lat="45.80647" lon="6.9826">
        <ele>2084</ele>
        <time>2022-08-27T09:31:05Z</time>
      </trkpt>
      <trkpt lat="45.80646" lon="6.98259">
        <ele>2084</ele>
        <time>2022-08-27T09:31:06Z</time>
      </trkpt>
      <trkpt lat="45.80645" lon="6.98258">
        <ele>2084</ele>
        <time>2022-08-27T09:31:08Z</time>
      </trkpt>
      <trkpt lat="45.80644" lon="6.98257">
        <ele>2084</ele>
        <time>2022-08-27T09:31:09Z</time>
      </trkpt>
      <trkpt lat="45.80643" lon="6.98256">
        <ele>2084</ele>
        <time>2022-08-27T09:31:10Z</time>
      </trkpt>
      <trkpt lat="45.80642" lon="6.98255">
        <ele>2084</ele>
        <time>2022-08-27T09:31:11Z</time>
      </trkpt>
      <trkpt lat="45.80641" lon="6.98254">
        <ele>2084</ele>
        <time>2022-08-27T09:31:12Z</time>
      </trkpt>
      <trkpt lat="45.8064" lon="6.98253">
        <ele>2084</ele>
        <time>2022-08-27T09:31:13Z</time>
      </trkpt>
      <trkpt lat="45.80639" lon="6.98251">
        <ele>2085</ele>
        <time>2022-08-27T09:31:15Z</time>
      </trkpt>
      <trkpt lat="45.80639" lon="6.98249">
        <ele>2085</ele>
        <time>2022-08-27T09:31:16Z</time>
      </trkpt>
      <trkpt lat="45.80638" lon="6.98247">
        <ele>2085</ele>
        <time>2022-08-27T09:31:17Z</time>
      </trkpt>
      <trkpt lat="45.80637" lon="6.98245">
        <ele>2085</ele>
        <time>2022-08-27T09:31:18Z</time>
      </trkpt>
      <trkpt lat="45.80636" lon="6.98243">
        <ele>2086</ele>
        <time>2022-08-27T09:31:20Z</time>
      </trkpt>
      <trkpt lat="45.80636" lon="6.98241">
        <ele>2086</ele>
        <time>2022-08-27T09:31:21Z</time>
      </trkpt>
      <trkpt lat="45.80635" lon="6.9824">
        <ele>2086</ele>
        <time>2022-08-27T09:31:22Z</time>
      </trkpt>
      <trkpt lat="45.80634" lon="6.98239">
        <ele>2086</ele>
        <time>2022-08-27T09:31:23Z</time>
      </trkpt>
      <trkpt lat="45.80634" lon="6.98237">
        <ele>2086</ele>
        <time>2022-08-27T09:31:24Z</time>
      </trkpt>
      <trkpt lat="45.80633" lon="6.98236">
        <ele>2086</ele>
        <time>2022-08-27T09:31:26Z</time>
      </trkpt>
      <trkpt lat="45.80633" lon="6.98235">
        <ele>2087</ele>
        <time>2022-08-27T09:31:27Z</time>
      </trkpt>
      <trkpt lat="45.80633" lon="6.98231">
        <ele>2088</ele>
        <time>2022-08-27T09:31:32Z</time>
      </trkpt>
      <trkpt lat="45.80634" lon="6.98229">
        <ele>2089</ele>
        <time>2022-08-27T09:31:34Z</time>
      </trkpt>
      <trkpt lat="45.80635" lon="6.98226">
        <ele>2089</ele>
        <time>2022-08-27T09:31:38Z</time>
      </trkpt>
      <trkpt lat="45.80634" lon="6.98224">
        <ele>2090</ele>
        <time>2022-08-27T09:31:46Z</time>
      </trkpt>
      <trkpt lat="45.80634" lon="6.98221">
        <ele>2092</ele>
        <time>2022-08-27T09:31:49Z</time>
      </trkpt>
      <trkpt lat="45.80634" lon="6.9822">
        <ele>2093</ele>
        <time>2022-08-27T09:31:50Z</time>
      </trkpt>
      <trkpt lat="45.80634" lon="6.98219">
        <ele>2093</ele>
        <time>2022-08-27T09:31:51Z</time>
      </trkpt>
      <trkpt lat="45.80635" lon="6.98218">
        <ele>2094</ele>
        <time>2022-08-27T09:31:53Z</time>
      </trkpt>
      <trkpt lat="45.80635" lon="6.98217">
        <ele>2094</ele>
        <time>2022-08-27T09:31:54Z</time>
      </trkpt>
      <trkpt lat="45.80636" lon="6.98217">
        <ele>2094</ele>
        <time>2022-08-27T09:31:55Z</time>
      </trkpt>
      <trkpt lat="45.80636" lon="6.98216">
        <ele>2094</ele>
        <time>2022-08-27T09:31:56Z</time>
      </trkpt>
      <trkpt lat="45.80636" lon="6.98215">
        <ele>2094</ele>
        <time>2022-08-27T09:31:58Z</time>
      </trkpt>
      <trkpt lat="45.80637" lon="6.98214">
        <ele>2094</ele>
        <time>2022-08-27T09:31:59Z</time>
      </trkpt>
      <trkpt lat="45.80637" lon="6.98213">
        <ele>2094</ele>
        <time>2022-08-27T09:32:00Z</time>
      </trkpt>
      <trkpt lat="45.80637" lon="6.98212">
        <ele>2094</ele>
        <time>2022-08-27T09:32:01Z</time>
      </trkpt>
      <trkpt lat="45.80638" lon="6.98211">
        <ele>2095</ele>
        <time>2022-08-27T09:32:03Z</time>
      </trkpt>
      <trkpt lat="45.80639" lon="6.9821">
        <ele>2095</ele>
        <time>2022-08-27T09:32:05Z</time>
      </trkpt>
      <trkpt lat="45.80639" lon="6.98209">
        <ele>2096</ele>
        <time>2022-08-27T09:32:06Z</time>
      </trkpt>
      <trkpt lat="45.8064" lon="6.98207">
        <ele>2096</ele>
        <time>2022-08-27T09:32:08Z</time>
      </trkpt>
      <trkpt lat="45.8064" lon="6.98206">
        <ele>2096</ele>
        <time>2022-08-27T09:32:09Z</time>
      </trkpt>
      <trkpt lat="45.80641" lon="6.98205">
        <ele>2096</ele>
        <time>2022-08-27T09:32:10Z</time>
      </trkpt>
      <trkpt lat="45.80642" lon="6.98204">
        <ele>2097</ele>
        <time>2022-08-27T09:32:11Z</time>
      </trkpt>
      <trkpt lat="45.80642" lon="6.98203">
        <ele>2097</ele>
        <time>2022-08-27T09:32:13Z</time>
      </trkpt>
      <trkpt lat="45.80643" lon="6.98201">
        <ele>2097</ele>
        <time>2022-08-27T09:32:14Z</time>
      </trkpt>
      <trkpt lat="45.80644" lon="6.98196">
        <ele>2099</ele>
        <time>2022-08-27T09:32:26Z</time>
      </trkpt>
      <trkpt lat="45.80643" lon="6.98193">
        <ele>2101</ele>
        <time>2022-08-27T09:32:30Z</time>
      </trkpt>
      <trkpt lat="45.80643" lon="6.98192">
        <ele>2101</ele>
        <time>2022-08-27T09:32:31Z</time>
      </trkpt>
      <trkpt lat="45.80644" lon="6.98191">
        <ele>2101</ele>
        <time>2022-08-27T09:32:33Z</time>
      </trkpt>
      <trkpt lat="45.80644" lon="6.9819">
        <ele>2101</ele>
        <time>2022-08-27T09:32:34Z</time>
      </trkpt>
      <trkpt lat="45.80644" lon="6.98189">
        <ele>2101</ele>
        <time>2022-08-27T09:32:35Z</time>
      </trkpt>
      <trkpt lat="45.80644" lon="6.98188">
        <ele>2102</ele>
        <time>2022-08-27T09:32:36Z</time>
      </trkpt>
      <trkpt lat="45.80644" lon="6.98187">
        <ele>2102</ele>
        <time>2022-08-27T09:32:38Z</time>
      </trkpt>
      <trkpt lat="45.80644" lon="6.98187">
        <ele>2102</ele>
        <time>2022-08-27T09:32:39Z</time>
      </trkpt>
      <trkpt lat="45.80644" lon="6.98186">
        <ele>2102</ele>
        <time>2022-08-27T09:32:40Z</time>
      </trkpt>
      <trkpt lat="45.80644" lon="6.98185">
        <ele>2103</ele>
        <time>2022-08-27T09:32:41Z</time>
      </trkpt>
      <trkpt lat="45.80644" lon="6.98184">
        <ele>2103</ele>
        <time>2022-08-27T09:32:43Z</time>
      </trkpt>
      <trkpt lat="45.80644" lon="6.98183">
        <ele>2103</ele>
        <time>2022-08-27T09:32:45Z</time>
      </trkpt>
      <trkpt lat="45.80644" lon="6.98182">
        <ele>2103</ele>
        <time>2022-08-27T09:32:46Z</time>
      </trkpt>
      <trkpt lat="45.80646" lon="6.98184">
        <ele>2104</ele>
        <time>2022-08-27T09:32:49Z</time>
      </trkpt>
      <trkpt lat="45.80647" lon="6.98187">
        <ele>2104</ele>
        <time>2022-08-27T09:32:52Z</time>
      </trkpt>
      <trkpt lat="45.80649" lon="6.9819">
        <ele>2105</ele>
        <time>2022-08-27T09:32:54Z</time>
      </trkpt>
      <trkpt lat="45.8065" lon="6.98192">
        <ele>2105</ele>
        <time>2022-08-27T09:32:56Z</time>
      </trkpt>
      <trkpt lat="45.80651" lon="6.98195">
        <ele>2105</ele>
        <time>2022-08-27T09:32:59Z</time>
      </trkpt>
      <trkpt lat="45.80652" lon="6.98198">
        <ele>2105</ele>
        <time>2022-08-27T09:33:02Z</time>
      </trkpt>
      <trkpt lat="45.8066" lon="6.98205">
        <ele>2107</ele>
        <time>2022-08-27T09:33:11Z</time>
      </trkpt>
      <trkpt lat="45.80661" lon="6.98208">
        <ele>2108</ele>
        <time>2022-08-27T09:33:16Z</time>
      </trkpt>
      <trkpt lat="45.80662" lon="6.98211">
        <ele>2108</ele>
        <time>2022-08-27T09:33:19Z</time>
      </trkpt>
      <trkpt lat="45.80663" lon="6.98214">
        <ele>2109</ele>
        <time>2022-08-27T09:33:22Z</time>
      </trkpt>
      <trkpt lat="45.80663" lon="6.98217">
        <ele>2109</ele>
        <time>2022-08-27T09:33:25Z</time>
      </trkpt>
      <trkpt lat="45.80664" lon="6.98218">
        <ele>2110</ele>
        <time>2022-08-27T09:33:26Z</time>
      </trkpt>
      <trkpt lat="45.80664" lon="6.98219">
        <ele>2110</ele>
        <time>2022-08-27T09:33:28Z</time>
      </trkpt>
      <trkpt lat="45.80664" lon="6.9822">
        <ele>2110</ele>
        <time>2022-08-27T09:33:29Z</time>
      </trkpt>
      <trkpt lat="45.80664" lon="6.98222">
        <ele>2111</ele>
        <time>2022-08-27T09:33:30Z</time>
      </trkpt>
      <trkpt lat="45.80664" lon="6.98223">
        <ele>2111</ele>
        <time>2022-08-27T09:33:31Z</time>
      </trkpt>
      <trkpt lat="45.80668" lon="6.98228">
        <ele>2112</ele>
        <time>2022-08-27T09:33:38Z</time>
      </trkpt>
      <trkpt lat="45.8067" lon="6.9823">
        <ele>2112</ele>
        <time>2022-08-27T09:33:41Z</time>
      </trkpt>
      <trkpt lat="45.80672" lon="6.98232">
        <ele>2112</ele>
        <time>2022-08-27T09:33:44Z</time>
      </trkpt>
      <trkpt lat="45.80675" lon="6.98233">
        <ele>2113</ele>
        <time>2022-08-27T09:33:49Z</time>
      </trkpt>
      <trkpt lat="45.80675" lon="6.98232">
        <ele>2114</ele>
        <time>2022-08-27T09:33:51Z</time>
      </trkpt>
      <trkpt lat="45.80675" lon="6.98231">
        <ele>2114</ele>
        <time>2022-08-27T09:33:52Z</time>
      </trkpt>
      <trkpt lat="45.80675" lon="6.98229">
        <ele>2114</ele>
        <time>2022-08-27T09:33:53Z</time>
      </trkpt>
      <trkpt lat="45.80675" lon="6.98228">
        <ele>2114</ele>
        <time>2022-08-27T09:33:55Z</time>
      </trkpt>
      <trkpt lat="45.80675" lon="6.98227">
        <ele>2114</ele>
        <time>2022-08-27T09:33:56Z</time>
      </trkpt>
      <trkpt lat="45.80675" lon="6.98226">
        <ele>2115</ele>
        <time>2022-08-27T09:33:57Z</time>
      </trkpt>
      <trkpt lat="45.80675" lon="6.98225">
        <ele>2115</ele>
        <time>2022-08-27T09:33:59Z</time>
      </trkpt>
      <trkpt lat="45.80675" lon="6.98223">
        <ele>2115</ele>
        <time>2022-08-27T09:34:00Z</time>
      </trkpt>
      <trkpt lat="45.80675" lon="6.98222">
        <ele>2116</ele>
        <time>2022-08-27T09:34:01Z</time>
      </trkpt>
      <trkpt lat="45.80675" lon="6.98221">
        <ele>2116</ele>
        <time>2022-08-27T09:34:03Z</time>
      </trkpt>
      <trkpt lat="45.80675" lon="6.9822">
        <ele>2118</ele>
        <time>2022-08-27T09:34:04Z</time>
      </trkpt>
      <trkpt lat="45.80674" lon="6.98217">
        <ele>2118</ele>
        <time>2022-08-27T09:34:07Z</time>
      </trkpt>
      <trkpt lat="45.80675" lon="6.98217">
        <ele>2119</ele>
        <time>2022-08-27T09:34:09Z</time>
      </trkpt>
      <trkpt lat="45.80675" lon="6.98217">
        <ele>2119</ele>
        <time>2022-08-27T09:34:10Z</time>
      </trkpt>
      <trkpt lat="45.80676" lon="6.98217">
        <ele>2119</ele>
        <time>2022-08-27T09:34:11Z</time>
      </trkpt>
      <trkpt lat="45.80676" lon="6.98217">
        <ele>2119</ele>
        <time>2022-08-27T09:34:13Z</time>
      </trkpt>
      <trkpt lat="45.80677" lon="6.98218">
        <ele>2120</ele>
        <time>2022-08-27T09:34:14Z</time>
      </trkpt>
      <trkpt lat="45.80677" lon="6.98218">
        <ele>2120</ele>
        <time>2022-08-27T09:34:15Z</time>
      </trkpt>
      <trkpt lat="45.80677" lon="6.98218">
        <ele>2120</ele>
        <time>2022-08-27T09:34:16Z</time>
      </trkpt>
      <trkpt lat="45.80678" lon="6.98218">
        <ele>2120</ele>
        <time>2022-08-27T09:34:18Z</time>
      </trkpt>
      <trkpt lat="45.80678" lon="6.98218">
        <ele>2121</ele>
        <time>2022-08-27T09:34:19Z</time>
      </trkpt>
      <trkpt lat="45.80679" lon="6.98218">
        <ele>2121</ele>
        <time>2022-08-27T09:34:20Z</time>
      </trkpt>
      <trkpt lat="45.80679" lon="6.98218">
        <ele>2121</ele>
        <time>2022-08-27T09:34:21Z</time>
      </trkpt>
      <trkpt lat="45.80679" lon="6.98218">
        <ele>2122</ele>
        <time>2022-08-27T09:34:22Z</time>
      </trkpt>
      <trkpt lat="45.8068" lon="6.98218">
        <ele>2122</ele>
        <time>2022-08-27T09:34:24Z</time>
      </trkpt>
      <trkpt lat="45.8068" lon="6.98218">
        <ele>2122</ele>
        <time>2022-08-27T09:34:25Z</time>
      </trkpt>
      <trkpt lat="45.80681" lon="6.98218">
        <ele>2122</ele>
        <time>2022-08-27T09:34:26Z</time>
      </trkpt>
      <trkpt lat="45.80681" lon="6.98218">
        <ele>2123</ele>
        <time>2022-08-27T09:34:27Z</time>
      </trkpt>
      <trkpt lat="45.80682" lon="6.98218">
        <ele>2123</ele>
        <time>2022-08-27T09:34:29Z</time>
      </trkpt>
      <trkpt lat="45.80682" lon="6.98218">
        <ele>2123</ele>
        <time>2022-08-27T09:34:30Z</time>
      </trkpt>
      <trkpt lat="45.80682" lon="6.98218">
        <ele>2123</ele>
        <time>2022-08-27T09:34:31Z</time>
      </trkpt>
      <trkpt lat="45.80683" lon="6.98219">
        <ele>2123</ele>
        <time>2022-08-27T09:34:32Z</time>
      </trkpt>
      <trkpt lat="45.80683" lon="6.98219">
        <ele>2123</ele>
        <time>2022-08-27T09:34:33Z</time>
      </trkpt>
      <trkpt lat="45.80684" lon="6.98219">
        <ele>2123</ele>
        <time>2022-08-27T09:34:34Z</time>
      </trkpt>
      <trkpt lat="45.80684" lon="6.9822">
        <ele>2123</ele>
        <time>2022-08-27T09:34:35Z</time>
      </trkpt>
      <trkpt lat="45.80685" lon="6.9822">
        <ele>2123</ele>
        <time>2022-08-27T09:34:37Z</time>
      </trkpt>
      <trkpt lat="45.80686" lon="6.98221">
        <ele>2124</ele>
        <time>2022-08-27T09:34:39Z</time>
      </trkpt>
      <trkpt lat="45.80687" lon="6.98222">
        <ele>2124</ele>
        <time>2022-08-27T09:34:40Z</time>
      </trkpt>
      <trkpt lat="45.80687" lon="6.98223">
        <ele>2124</ele>
        <time>2022-08-27T09:34:41Z</time>
      </trkpt>
      <trkpt lat="45.8069" lon="6.98229">
        <ele>2126</ele>
        <time>2022-08-27T09:34:53Z</time>
      </trkpt>
      <trkpt lat="45.80691" lon="6.9823">
        <ele>2127</ele>
        <time>2022-08-27T09:34:54Z</time>
      </trkpt>
      <trkpt lat="45.80692" lon="6.98231">
        <ele>2127</ele>
        <time>2022-08-27T09:34:56Z</time>
      </trkpt>
      <trkpt lat="45.80693" lon="6.98232">
        <ele>2127</ele>
        <time>2022-08-27T09:34:58Z</time>
      </trkpt>
      <trkpt lat="45.80694" lon="6.98233">
        <ele>2127</ele>
        <time>2022-08-27T09:35:00Z</time>
      </trkpt>
      <trkpt lat="45.80695" lon="6.98234">
        <ele>2128</ele>
        <time>2022-08-27T09:35:01Z</time>
      </trkpt>
      <trkpt lat="45.80695" lon="6.98235">
        <ele>2128</ele>
        <time>2022-08-27T09:35:02Z</time>
      </trkpt>
      <trkpt lat="45.80696" lon="6.98236">
        <ele>2128</ele>
        <time>2022-08-27T09:35:03Z</time>
      </trkpt>
      <trkpt lat="45.80697" lon="6.98237">
        <ele>2128</ele>
        <time>2022-08-27T09:35:05Z</time>
      </trkpt>
      <trkpt lat="45.80698" lon="6.98238">
        <ele>2128</ele>
        <time>2022-08-27T09:35:06Z</time>
      </trkpt>
      <trkpt lat="45.80699" lon="6.98238">
        <ele>2128</ele>
        <time>2022-08-27T09:35:07Z</time>
      </trkpt>
      <trkpt lat="45.80699" lon="6.98238">
        <ele>2129</ele>
        <time>2022-08-27T09:35:08Z</time>
      </trkpt>
      <trkpt lat="45.807" lon="6.98239">
        <ele>2129</ele>
        <time>2022-08-27T09:35:10Z</time>
      </trkpt>
      <trkpt lat="45.807" lon="6.98239">
        <ele>2129</ele>
        <time>2022-08-27T09:35:11Z</time>
      </trkpt>
      <trkpt lat="45.80701" lon="6.98239">
        <ele>2130</ele>
        <time>2022-08-27T09:35:12Z</time>
      </trkpt>
      <trkpt lat="45.80702" lon="6.98239">
        <ele>2130</ele>
        <time>2022-08-27T09:35:13Z</time>
      </trkpt>
      <trkpt lat="45.80702" lon="6.9824">
        <ele>2130</ele>
        <time>2022-08-27T09:35:15Z</time>
      </trkpt>
      <trkpt lat="45.80703" lon="6.9824">
        <ele>2129</ele>
        <time>2022-08-27T09:35:17Z</time>
      </trkpt>
      <trkpt lat="45.80704" lon="6.9824">
        <ele>2129</ele>
        <time>2022-08-27T09:35:18Z</time>
      </trkpt>
      <trkpt lat="45.80704" lon="6.98241">
        <ele>2130</ele>
        <time>2022-08-27T09:35:19Z</time>
      </trkpt>
      <trkpt lat="45.80705" lon="6.98241">
        <ele>2130</ele>
        <time>2022-08-27T09:35:20Z</time>
      </trkpt>
      <trkpt lat="45.80706" lon="6.98241">
        <ele>2130</ele>
        <time>2022-08-27T09:35:22Z</time>
      </trkpt>
      <trkpt lat="45.80706" lon="6.98242">
        <ele>2130</ele>
        <time>2022-08-27T09:35:23Z</time>
      </trkpt>
      <trkpt lat="45.80707" lon="6.98242">
        <ele>2130</ele>
        <time>2022-08-27T09:35:24Z</time>
      </trkpt>
      <trkpt lat="45.80707" lon="6.98241">
        <ele>2131</ele>
        <time>2022-08-27T09:35:25Z</time>
      </trkpt>
      <trkpt lat="45.80708" lon="6.98241">
        <ele>2131</ele>
        <time>2022-08-27T09:35:26Z</time>
      </trkpt>
      <trkpt lat="45.80708" lon="6.9824">
        <ele>2131</ele>
        <time>2022-08-27T09:35:27Z</time>
      </trkpt>
      <trkpt lat="45.80708" lon="6.98239">
        <ele>2132</ele>
        <time>2022-08-27T09:35:29Z</time>
      </trkpt>
      <trkpt lat="45.80709" lon="6.98238">
        <ele>2132</ele>
        <time>2022-08-27T09:35:30Z</time>
      </trkpt>
      <trkpt lat="45.80709" lon="6.98237">
        <ele>2132</ele>
        <time>2022-08-27T09:35:31Z</time>
      </trkpt>
      <trkpt lat="45.80709" lon="6.98237">
        <ele>2133</ele>
        <time>2022-08-27T09:35:32Z</time>
      </trkpt>
      <trkpt lat="45.8071" lon="6.98236">
        <ele>2133</ele>
        <time>2022-08-27T09:35:34Z</time>
      </trkpt>
      <trkpt lat="45.8071" lon="6.98235">
        <ele>2133</ele>
        <time>2022-08-27T09:35:36Z</time>
      </trkpt>
      <trkpt lat="45.80711" lon="6.98234">
        <ele>2134</ele>
        <time>2022-08-27T09:35:37Z</time>
      </trkpt>
      <trkpt lat="45.80711" lon="6.98234">
        <ele>2134</ele>
        <time>2022-08-27T09:35:38Z</time>
      </trkpt>
      <trkpt lat="45.80711" lon="6.98233">
        <ele>2134</ele>
        <time>2022-08-27T09:35:39Z</time>
      </trkpt>
      <trkpt lat="45.80712" lon="6.98232">
        <ele>2135</ele>
        <time>2022-08-27T09:35:41Z</time>
      </trkpt>
      <trkpt lat="45.80712" lon="6.98231">
        <ele>2135</ele>
        <time>2022-08-27T09:35:42Z</time>
      </trkpt>
      <trkpt lat="45.80712" lon="6.9823">
        <ele>2135</ele>
        <time>2022-08-27T09:35:43Z</time>
      </trkpt>
      <trkpt lat="45.80712" lon="6.98228">
        <ele>2135</ele>
        <time>2022-08-27T09:35:44Z</time>
      </trkpt>
      <trkpt lat="45.80711" lon="6.98227">
        <ele>2136</ele>
        <time>2022-08-27T09:35:46Z</time>
      </trkpt>
      <trkpt lat="45.80711" lon="6.98226">
        <ele>2136</ele>
        <time>2022-08-27T09:35:47Z</time>
      </trkpt>
      <trkpt lat="45.80711" lon="6.98224">
        <ele>2136</ele>
        <time>2022-08-27T09:35:48Z</time>
      </trkpt>
      <trkpt lat="45.80711" lon="6.98223">
        <ele>2136</ele>
        <time>2022-08-27T09:35:49Z</time>
      </trkpt>
      <trkpt lat="45.80711" lon="6.98221">
        <ele>2137</ele>
        <time>2022-08-27T09:35:51Z</time>
      </trkpt>
      <trkpt lat="45.8071" lon="6.9822">
        <ele>2137</ele>
        <time>2022-08-27T09:35:53Z</time>
      </trkpt>
      <trkpt lat="45.8071" lon="6.98219">
        <ele>2137</ele>
        <time>2022-08-27T09:35:54Z</time>
      </trkpt>
      <trkpt lat="45.8071" lon="6.98218">
        <ele>2137</ele>
        <time>2022-08-27T09:35:55Z</time>
      </trkpt>
      <trkpt lat="45.8071" lon="6.98218">
        <ele>2137</ele>
        <time>2022-08-27T09:35:56Z</time>
      </trkpt>
      <trkpt lat="45.80709" lon="6.98217">
        <ele>2137</ele>
        <time>2022-08-27T09:35:58Z</time>
      </trkpt>
      <trkpt lat="45.80709" lon="6.98217">
        <ele>2137</ele>
        <time>2022-08-27T09:35:59Z</time>
      </trkpt>
      <trkpt lat="45.80709" lon="6.98216">
        <ele>2138</ele>
        <time>2022-08-27T09:36:00Z</time>
      </trkpt>
      <trkpt lat="45.80709" lon="6.98216">
        <ele>2138</ele>
        <time>2022-08-27T09:36:01Z</time>
      </trkpt>
      <trkpt lat="45.80708" lon="6.98215">
        <ele>2138</ele>
        <time>2022-08-27T09:36:03Z</time>
      </trkpt>
      <trkpt lat="45.80708" lon="6.98215">
        <ele>2138</ele>
        <time>2022-08-27T09:36:04Z</time>
      </trkpt>
      <trkpt lat="45.80708" lon="6.98214">
        <ele>2138</ele>
        <time>2022-08-27T09:36:05Z</time>
      </trkpt>
      <trkpt lat="45.80708" lon="6.98214">
        <ele>2139</ele>
        <time>2022-08-27T09:36:06Z</time>
      </trkpt>
      <trkpt lat="45.80707" lon="6.98213">
        <ele>2139</ele>
        <time>2022-08-27T09:36:07Z</time>
      </trkpt>
      <trkpt lat="45.80707" lon="6.98213">
        <ele>2139</ele>
        <time>2022-08-27T09:36:08Z</time>
      </trkpt>
      <trkpt lat="45.80707" lon="6.98212">
        <ele>2139</ele>
        <time>2022-08-27T09:36:10Z</time>
      </trkpt>
      <trkpt lat="45.80707" lon="6.98212">
        <ele>2139</ele>
        <time>2022-08-27T09:36:12Z</time>
      </trkpt>
      <trkpt lat="45.80707" lon="6.98211">
        <ele>2139</ele>
        <time>2022-08-27T09:36:13Z</time>
      </trkpt>
      <trkpt lat="45.80706" lon="6.98211">
        <ele>2140</ele>
        <time>2022-08-27T09:36:14Z</time>
      </trkpt>
      <trkpt lat="45.80704" lon="6.98205">
        <ele>2140</ele>
        <time>2022-08-27T09:36:16Z</time>
      </trkpt>
      <trkpt lat="45.80706" lon="6.98202">
        <ele>2141</ele>
        <time>2022-08-27T09:36:18Z</time>
      </trkpt>
      <trkpt lat="45.80708" lon="6.98202">
        <ele>2141</ele>
        <time>2022-08-27T09:36:20Z</time>
      </trkpt>
      <trkpt lat="45.80707" lon="6.982">
        <ele>2142</ele>
        <time>2022-08-27T09:36:25Z</time>
      </trkpt>
      <trkpt lat="45.80705" lon="6.98198">
        <ele>2142</ele>
        <time>2022-08-27T09:36:27Z</time>
      </trkpt>
      <trkpt lat="45.80706" lon="6.98195">
        <ele>2144</ele>
        <time>2022-08-27T09:36:31Z</time>
      </trkpt>
      <trkpt lat="45.80709" lon="6.98193">
        <ele>2145</ele>
        <time>2022-08-27T09:36:37Z</time>
      </trkpt>
      <trkpt lat="45.80709" lon="6.98192">
        <ele>2145</ele>
        <time>2022-08-27T09:36:38Z</time>
      </trkpt>
      <trkpt lat="45.80709" lon="6.98191">
        <ele>2145</ele>
        <time>2022-08-27T09:36:39Z</time>
      </trkpt>
      <trkpt lat="45.80709" lon="6.9819">
        <ele>2145</ele>
        <time>2022-08-27T09:36:40Z</time>
      </trkpt>
      <trkpt lat="45.80709" lon="6.98189">
        <ele>2146</ele>
        <time>2022-08-27T09:36:42Z</time>
      </trkpt>
      <trkpt lat="45.80708" lon="6.98188">
        <ele>2146</ele>
        <time>2022-08-27T09:36:43Z</time>
      </trkpt>
      <trkpt lat="45.80708" lon="6.98187">
        <ele>2146</ele>
        <time>2022-08-27T09:36:44Z</time>
      </trkpt>
      <trkpt lat="45.80708" lon="6.98186">
        <ele>2147</ele>
        <time>2022-08-27T09:36:45Z</time>
      </trkpt>
      <trkpt lat="45.80708" lon="6.98185">
        <ele>2147</ele>
        <time>2022-08-27T09:36:47Z</time>
      </trkpt>
      <trkpt lat="45.80708" lon="6.98184">
        <ele>2148</ele>
        <time>2022-08-27T09:36:48Z</time>
      </trkpt>
      <trkpt lat="45.80708" lon="6.98183">
        <ele>2148</ele>
        <time>2022-08-27T09:36:49Z</time>
      </trkpt>
      <trkpt lat="45.80708" lon="6.98182">
        <ele>2148</ele>
        <time>2022-08-27T09:36:50Z</time>
      </trkpt>
      <trkpt lat="45.80708" lon="6.98179">
        <ele>2148</ele>
        <time>2022-08-27T09:36:53Z</time>
      </trkpt>
      <trkpt lat="45.80715" lon="6.9819">
        <ele>2150</ele>
        <time>2022-08-27T09:37:02Z</time>
      </trkpt>
      <trkpt lat="45.80715" lon="6.98189">
        <ele>2150</ele>
        <time>2022-08-27T09:37:04Z</time>
      </trkpt>
      <trkpt lat="45.80715" lon="6.98188">
        <ele>2150</ele>
        <time>2022-08-27T09:37:05Z</time>
      </trkpt>
      <trkpt lat="45.80715" lon="6.98187">
        <ele>2150</ele>
        <time>2022-08-27T09:37:06Z</time>
      </trkpt>
      <trkpt lat="45.80715" lon="6.98186">
        <ele>2150</ele>
        <time>2022-08-27T09:37:07Z</time>
      </trkpt>
      <trkpt lat="45.80715" lon="6.98186">
        <ele>2150</ele>
        <time>2022-08-27T09:37:09Z</time>
      </trkpt>
      <trkpt lat="45.80715" lon="6.98185">
        <ele>2150</ele>
        <time>2022-08-27T09:37:10Z</time>
      </trkpt>
      <trkpt lat="45.80715" lon="6.98184">
        <ele>2150</ele>
        <time>2022-08-27T09:37:11Z</time>
      </trkpt>
      <trkpt lat="45.80715" lon="6.98183">
        <ele>2150</ele>
        <time>2022-08-27T09:37:12Z</time>
      </trkpt>
      <trkpt lat="45.80715" lon="6.98182">
        <ele>2151</ele>
        <time>2022-08-27T09:37:14Z</time>
      </trkpt>
      <trkpt lat="45.80715" lon="6.98182">
        <ele>2151</ele>
        <time>2022-08-27T09:37:15Z</time>
      </trkpt>
      <trkpt lat="45.80715" lon="6.98181">
        <ele>2151</ele>
        <time>2022-08-27T09:37:16Z</time>
      </trkpt>
      <trkpt lat="45.80715" lon="6.9818">
        <ele>2151</ele>
        <time>2022-08-27T09:37:17Z</time>
      </trkpt>
      <trkpt lat="45.80715" lon="6.98179">
        <ele>2152</ele>
        <time>2022-08-27T09:37:18Z</time>
      </trkpt>
      <trkpt lat="45.80715" lon="6.98178">
        <ele>2152</ele>
        <time>2022-08-27T09:37:19Z</time>
      </trkpt>
      <trkpt lat="45.80714" lon="6.98176">
        <ele>2153</ele>
        <time>2022-08-27T09:37:21Z</time>
      </trkpt>
      <trkpt lat="45.80714" lon="6.98174">
        <ele>2153</ele>
        <time>2022-08-27T09:37:22Z</time>
      </trkpt>
      <trkpt lat="45.80713" lon="6.98172">
        <ele>2153</ele>
        <time>2022-08-27T09:37:23Z</time>
      </trkpt>
      <trkpt lat="45.80713" lon="6.98171">
        <ele>2153</ele>
        <time>2022-08-27T09:37:24Z</time>
      </trkpt>
      <trkpt lat="45.80713" lon="6.98169">
        <ele>2153</ele>
        <time>2022-08-27T09:37:26Z</time>
      </trkpt>
      <trkpt lat="45.80713" lon="6.98168">
        <ele>2153</ele>
        <time>2022-08-27T09:37:28Z</time>
      </trkpt>
      <trkpt lat="45.80712" lon="6.98167">
        <ele>2153</ele>
        <time>2022-08-27T09:37:30Z</time>
      </trkpt>
      <trkpt lat="45.80712" lon="6.98165">
        <ele>2153</ele>
        <time>2022-08-27T09:37:31Z</time>
      </trkpt>
      <trkpt lat="45.80712" lon="6.98164">
        <ele>2153</ele>
        <time>2022-08-27T09:37:32Z</time>
      </trkpt>
      <trkpt lat="45.80713" lon="6.98161">
        <ele>2154</ele>
        <time>2022-08-27T09:37:34Z</time>
      </trkpt>
      <trkpt lat="45.80713" lon="6.98159">
        <ele>2155</ele>
        <time>2022-08-27T09:37:37Z</time>
      </trkpt>
      <trkpt lat="45.80714" lon="6.98156">
        <ele>2155</ele>
        <time>2022-08-27T09:37:40Z</time>
      </trkpt>
      <trkpt lat="45.80713" lon="6.98153">
        <ele>2156</ele>
        <time>2022-08-27T09:37:43Z</time>
      </trkpt>
      <trkpt lat="45.80712" lon="6.9815">
        <ele>2156</ele>
        <time>2022-08-27T09:37:46Z</time>
      </trkpt>
      <trkpt lat="45.80712" lon="6.98147">
        <ele>2157</ele>
        <time>2022-08-27T09:37:50Z</time>
      </trkpt>
      <trkpt lat="45.80711" lon="6.98143">
        <ele>2157</ele>
        <time>2022-08-27T09:37:53Z</time>
      </trkpt>
      <trkpt lat="45.80712" lon="6.9814">
        <ele>2158</ele>
        <time>2022-08-27T09:37:57Z</time>
      </trkpt>
      <trkpt lat="45.80712" lon="6.98138">
        <ele>2159</ele>
        <time>2022-08-27T09:38:01Z</time>
      </trkpt>
      <trkpt lat="45.80712" lon="6.98135">
        <ele>2160</ele>
        <time>2022-08-27T09:38:07Z</time>
      </trkpt>
      <trkpt lat="45.80713" lon="6.98132">
        <ele>2160</ele>
        <time>2022-08-27T09:38:12Z</time>
      </trkpt>
      <trkpt lat="45.80714" lon="6.98129">
        <ele>2161</ele>
        <time>2022-08-27T09:38:16Z</time>
      </trkpt>
      <trkpt lat="45.80714" lon="6.98127">
        <ele>2162</ele>
        <time>2022-08-27T09:38:22Z</time>
      </trkpt>
      <trkpt lat="45.80713" lon="6.98124">
        <ele>2164</ele>
        <time>2022-08-27T09:38:28Z</time>
      </trkpt>
      <trkpt lat="45.80712" lon="6.98122">
        <ele>2165</ele>
        <time>2022-08-27T09:38:33Z</time>
      </trkpt>
      <trkpt lat="45.80713" lon="6.98119">
        <ele>2165</ele>
        <time>2022-08-27T09:38:38Z</time>
      </trkpt>
      <trkpt lat="45.80715" lon="6.98118">
        <ele>2166</ele>
        <time>2022-08-27T09:38:41Z</time>
      </trkpt>
      <trkpt lat="45.80716" lon="6.98115">
        <ele>2167</ele>
        <time>2022-08-27T09:38:44Z</time>
      </trkpt>
      <trkpt lat="45.80717" lon="6.98113">
        <ele>2168</ele>
        <time>2022-08-27T09:38:50Z</time>
      </trkpt>
      <trkpt lat="45.80717" lon="6.98112">
        <ele>2170</ele>
        <time>2022-08-27T09:38:52Z</time>
      </trkpt>
      <trkpt lat="45.80717" lon="6.98111">
        <ele>2170</ele>
        <time>2022-08-27T09:38:53Z</time>
      </trkpt>
      <trkpt lat="45.80717" lon="6.98111">
        <ele>2170</ele>
        <time>2022-08-27T09:38:54Z</time>
      </trkpt>
      <trkpt lat="45.80716" lon="6.9811">
        <ele>2170</ele>
        <time>2022-08-27T09:38:55Z</time>
      </trkpt>
      <trkpt lat="45.80716" lon="6.98109">
        <ele>2170</ele>
        <time>2022-08-27T09:38:57Z</time>
      </trkpt>
      <trkpt lat="45.80716" lon="6.98108">
        <ele>2170</ele>
        <time>2022-08-27T09:38:58Z</time>
      </trkpt>
      <trkpt lat="45.80716" lon="6.98107">
        <ele>2171</ele>
        <time>2022-08-27T09:38:59Z</time>
      </trkpt>
      <trkpt lat="45.80716" lon="6.98106">
        <ele>2171</ele>
        <time>2022-08-27T09:39:00Z</time>
      </trkpt>
      <trkpt lat="45.80715" lon="6.98105">
        <ele>2171</ele>
        <time>2022-08-27T09:39:02Z</time>
      </trkpt>
      <trkpt lat="45.80715" lon="6.98104">
        <ele>2171</ele>
        <time>2022-08-27T09:39:03Z</time>
      </trkpt>
      <trkpt lat="45.80715" lon="6.98104">
        <ele>2172</ele>
        <time>2022-08-27T09:39:04Z</time>
      </trkpt>
      <trkpt lat="45.80715" lon="6.98103">
        <ele>2172</ele>
        <time>2022-08-27T09:39:05Z</time>
      </trkpt>
      <trkpt lat="45.80711" lon="6.98096">
        <ele>2173</ele>
        <time>2022-08-27T09:39:12Z</time>
      </trkpt>
      <trkpt lat="45.80709" lon="6.98093">
        <ele>2174</ele>
        <time>2022-08-27T09:39:15Z</time>
      </trkpt>
      <trkpt lat="45.80708" lon="6.98091">
        <ele>2174</ele>
        <time>2022-08-27T09:39:17Z</time>
      </trkpt>
      <trkpt lat="45.80706" lon="6.98089">
        <ele>2174</ele>
        <time>2022-08-27T09:39:19Z</time>
      </trkpt>
      <trkpt lat="45.80705" lon="6.98088">
        <ele>2174</ele>
        <time>2022-08-27T09:39:21Z</time>
      </trkpt>
      <trkpt lat="45.80703" lon="6.98086">
        <ele>2174</ele>
        <time>2022-08-27T09:39:23Z</time>
      </trkpt>
      <trkpt lat="45.80702" lon="6.98083">
        <ele>2175</ele>
        <time>2022-08-27T09:39:26Z</time>
      </trkpt>
      <trkpt lat="45.80701" lon="6.98081">
        <ele>2175</ele>
        <time>2022-08-27T09:39:29Z</time>
      </trkpt>
      <trkpt lat="45.807" lon="6.98078">
        <ele>2176</ele>
        <time>2022-08-27T09:39:33Z</time>
      </trkpt>
      <trkpt lat="45.807" lon="6.98076">
        <ele>2177</ele>
        <time>2022-08-27T09:39:35Z</time>
      </trkpt>
      <trkpt lat="45.807" lon="6.98074">
        <ele>2177</ele>
        <time>2022-08-27T09:39:36Z</time>
      </trkpt>
      <trkpt lat="45.807" lon="6.98073">
        <ele>2177</ele>
        <time>2022-08-27T09:39:37Z</time>
      </trkpt>
      <trkpt lat="45.807" lon="6.98071">
        <ele>2177</ele>
        <time>2022-08-27T09:39:38Z</time>
      </trkpt>
      <trkpt lat="45.807" lon="6.98069">
        <ele>2177</ele>
        <time>2022-08-27T09:39:40Z</time>
      </trkpt>
      <trkpt lat="45.807" lon="6.98067">
        <ele>2177</ele>
        <time>2022-08-27T09:39:41Z</time>
      </trkpt>
      <trkpt lat="45.80701" lon="6.98066">
        <ele>2177</ele>
        <time>2022-08-27T09:39:42Z</time>
      </trkpt>
      <trkpt lat="45.80701" lon="6.98064">
        <ele>2177</ele>
        <time>2022-08-27T09:39:43Z</time>
      </trkpt>
      <trkpt lat="45.80701" lon="6.98061">
        <ele>2177</ele>
        <time>2022-08-27T09:39:45Z</time>
      </trkpt>
      <trkpt lat="45.80701" lon="6.98057">
        <ele>2177</ele>
        <time>2022-08-27T09:39:48Z</time>
      </trkpt>
      <trkpt lat="45.80701" lon="6.98055">
        <ele>2178</ele>
        <time>2022-08-27T09:39:50Z</time>
      </trkpt>
      <trkpt lat="45.807" lon="6.98051">
        <ele>2178</ele>
        <time>2022-08-27T09:39:53Z</time>
      </trkpt>
      <trkpt lat="45.80699" lon="6.98049">
        <ele>2178</ele>
        <time>2022-08-27T09:39:55Z</time>
      </trkpt>
      <trkpt lat="45.80698" lon="6.98046">
        <ele>2178</ele>
        <time>2022-08-27T09:39:57Z</time>
      </trkpt>
      <trkpt lat="45.80696" lon="6.98043">
        <ele>2178</ele>
        <time>2022-08-27T09:39:59Z</time>
      </trkpt>
      <trkpt lat="45.80695" lon="6.98041">
        <ele>2179</ele>
        <time>2022-08-27T09:40:01Z</time>
      </trkpt>
      <trkpt lat="45.80694" lon="6.98038">
        <ele>2179</ele>
        <time>2022-08-27T09:40:04Z</time>
      </trkpt>
      <trkpt lat="45.80693" lon="6.98034">
        <ele>2179</ele>
        <time>2022-08-27T09:40:07Z</time>
      </trkpt>
      <trkpt lat="45.80693" lon="6.98031">
        <ele>2180</ele>
        <time>2022-08-27T09:40:10Z</time>
      </trkpt>
      <trkpt lat="45.80693" lon="6.98028">
        <ele>2181</ele>
        <time>2022-08-27T09:40:13Z</time>
      </trkpt>
      <trkpt lat="45.80692" lon="6.98024">
        <ele>2181</ele>
        <time>2022-08-27T09:40:17Z</time>
      </trkpt>
      <trkpt lat="45.80692" lon="6.98021">
        <ele>2182</ele>
        <time>2022-08-27T09:40:21Z</time>
      </trkpt>
      <trkpt lat="45.80693" lon="6.98019">
        <ele>2182</ele>
        <time>2022-08-27T09:40:25Z</time>
      </trkpt>
      <trkpt lat="45.80695" lon="6.9802">
        <ele>2183</ele>
        <time>2022-08-27T09:40:28Z</time>
      </trkpt>
      <trkpt lat="45.80697" lon="6.98021">
        <ele>2183</ele>
        <time>2022-08-27T09:40:31Z</time>
      </trkpt>
      <trkpt lat="45.807" lon="6.98023">
        <ele>2185</ele>
        <time>2022-08-27T09:40:34Z</time>
      </trkpt>
      <trkpt lat="45.80702" lon="6.98025">
        <ele>2185</ele>
        <time>2022-08-27T09:40:36Z</time>
      </trkpt>
      <trkpt lat="45.80704" lon="6.98028">
        <ele>2185</ele>
        <time>2022-08-27T09:40:39Z</time>
      </trkpt>
      <trkpt lat="45.80706" lon="6.98022">
        <ele>2186</ele>
        <time>2022-08-27T09:40:46Z</time>
      </trkpt>
      <trkpt lat="45.80706" lon="6.98021">
        <ele>2186</ele>
        <time>2022-08-27T09:40:48Z</time>
      </trkpt>
      <trkpt lat="45.80706" lon="6.98019">
        <ele>2187</ele>
        <time>2022-08-27T09:40:49Z</time>
      </trkpt>
      <trkpt lat="45.80706" lon="6.98018">
        <ele>2187</ele>
        <time>2022-08-27T09:40:50Z</time>
      </trkpt>
      <trkpt lat="45.80706" lon="6.98016">
        <ele>2187</ele>
        <time>2022-08-27T09:40:52Z</time>
      </trkpt>
      <trkpt lat="45.80706" lon="6.98015">
        <ele>2187</ele>
        <time>2022-08-27T09:40:53Z</time>
      </trkpt>
      <trkpt lat="45.80706" lon="6.98013">
        <ele>2187</ele>
        <time>2022-08-27T09:40:54Z</time>
      </trkpt>
      <trkpt lat="45.80706" lon="6.98012">
        <ele>2187</ele>
        <time>2022-08-27T09:40:55Z</time>
      </trkpt>
      <trkpt lat="45.80705" lon="6.98009">
        <ele>2188</ele>
        <time>2022-08-27T09:41:00Z</time>
      </trkpt>
      <trkpt lat="45.80703" lon="6.98007">
        <ele>2189</ele>
        <time>2022-08-27T09:41:04Z</time>
      </trkpt>
      <trkpt lat="45.80703" lon="6.98004">
        <ele>2189</ele>
        <time>2022-08-27T09:41:06Z</time>
      </trkpt>
      <trkpt lat="45.80702" lon="6.98001">
        <ele>2190</ele>
        <time>2022-08-27T09:41:10Z</time>
      </trkpt>
      <trkpt lat="45.80702" lon="6.98">
        <ele>2191</ele>
        <time>2022-08-27T09:41:11Z</time>
      </trkpt>
      <trkpt lat="45.80702" lon="6.97998">
        <ele>2191</ele>
        <time>2022-08-27T09:41:12Z</time>
      </trkpt>
      <trkpt lat="45.80701" lon="6.97997">
        <ele>2191</ele>
        <time>2022-08-27T09:41:14Z</time>
      </trkpt>
      <trkpt lat="45.80701" lon="6.97996">
        <ele>2191</ele>
        <time>2022-08-27T09:41:16Z</time>
      </trkpt>
      <trkpt lat="45.80701" lon="6.97994">
        <ele>2191</ele>
        <time>2022-08-27T09:41:17Z</time>
      </trkpt>
      <trkpt lat="45.807" lon="6.97993">
        <ele>2192</ele>
        <time>2022-08-27T09:41:18Z</time>
      </trkpt>
      <trkpt lat="45.807" lon="6.97991">
        <ele>2192</ele>
        <time>2022-08-27T09:41:20Z</time>
      </trkpt>
      <trkpt lat="45.80699" lon="6.9799">
        <ele>2192</ele>
        <time>2022-08-27T09:41:21Z</time>
      </trkpt>
      <trkpt lat="45.80699" lon="6.97989">
        <ele>2192</ele>
        <time>2022-08-27T09:41:22Z</time>
      </trkpt>
      <trkpt lat="45.80699" lon="6.97987">
        <ele>2192</ele>
        <time>2022-08-27T09:41:23Z</time>
      </trkpt>
      <trkpt lat="45.80698" lon="6.97986">
        <ele>2193</ele>
        <time>2022-08-27T09:41:25Z</time>
      </trkpt>
      <trkpt lat="45.80698" lon="6.97985">
        <ele>2193</ele>
        <time>2022-08-27T09:41:26Z</time>
      </trkpt>
      <trkpt lat="45.80701" lon="6.97987">
        <ele>2194</ele>
        <time>2022-08-27T09:41:30Z</time>
      </trkpt>
      <trkpt lat="45.80704" lon="6.97988">
        <ele>2196</ele>
        <time>2022-08-27T09:41:32Z</time>
      </trkpt>
      <trkpt lat="45.80705" lon="6.9799">
        <ele>2196</ele>
        <time>2022-08-27T09:41:35Z</time>
      </trkpt>
      <trkpt lat="45.80707" lon="6.97988">
        <ele>2197</ele>
        <time>2022-08-27T09:41:44Z</time>
      </trkpt>
      <trkpt lat="45.80707" lon="6.97985">
        <ele>2198</ele>
        <time>2022-08-27T09:41:49Z</time>
      </trkpt>
      <trkpt lat="45.80706" lon="6.97983">
        <ele>2199</ele>
        <time>2022-08-27T09:41:53Z</time>
      </trkpt>
      <trkpt lat="45.80705" lon="6.9798">
        <ele>2200</ele>
        <time>2022-08-27T09:41:56Z</time>
      </trkpt>
      <trkpt lat="45.80704" lon="6.97978">
        <ele>2201</ele>
        <time>2022-08-27T09:41:59Z</time>
      </trkpt>
      <trkpt lat="45.80704" lon="6.97974">
        <ele>2201</ele>
        <time>2022-08-27T09:42:05Z</time>
      </trkpt>
      <trkpt lat="45.80705" lon="6.97972">
        <ele>2201</ele>
        <time>2022-08-27T09:42:08Z</time>
      </trkpt>
      <trkpt lat="45.80704" lon="6.97967">
        <ele>2202</ele>
        <time>2022-08-27T09:42:11Z</time>
      </trkpt>
      <trkpt lat="45.80703" lon="6.97963">
        <ele>2202</ele>
        <time>2022-08-27T09:42:13Z</time>
      </trkpt>
      <trkpt lat="45.80701" lon="6.97958">
        <ele>2204</ele>
        <time>2022-08-27T09:42:19Z</time>
      </trkpt>
      <trkpt lat="45.80701" lon="6.97957">
        <ele>2204</ele>
        <time>2022-08-27T09:42:20Z</time>
      </trkpt>
      <trkpt lat="45.80702" lon="6.97955">
        <ele>2204</ele>
        <time>2022-08-27T09:42:21Z</time>
      </trkpt>
      <trkpt lat="45.80702" lon="6.97954">
        <ele>2204</ele>
        <time>2022-08-27T09:42:23Z</time>
      </trkpt>
      <trkpt lat="45.80702" lon="6.97953">
        <ele>2204</ele>
        <time>2022-08-27T09:42:24Z</time>
      </trkpt>
      <trkpt lat="45.80702" lon="6.97952">
        <ele>2205</ele>
        <time>2022-08-27T09:42:25Z</time>
      </trkpt>
      <trkpt lat="45.80703" lon="6.9795">
        <ele>2205</ele>
        <time>2022-08-27T09:42:26Z</time>
      </trkpt>
      <trkpt lat="45.80703" lon="6.97948">
        <ele>2205</ele>
        <time>2022-08-27T09:42:28Z</time>
      </trkpt>
      <trkpt lat="45.80703" lon="6.97947">
        <ele>2206</ele>
        <time>2022-08-27T09:42:29Z</time>
      </trkpt>
      <trkpt lat="45.80703" lon="6.97945">
        <ele>2206</ele>
        <time>2022-08-27T09:42:30Z</time>
      </trkpt>
      <trkpt lat="45.80702" lon="6.97942">
        <ele>2206</ele>
        <time>2022-08-27T09:42:33Z</time>
      </trkpt>
      <trkpt lat="45.80702" lon="6.97938">
        <ele>2207</ele>
        <time>2022-08-27T09:42:43Z</time>
      </trkpt>
      <trkpt lat="45.80702" lon="6.97936">
        <ele>2207</ele>
        <time>2022-08-27T09:42:44Z</time>
      </trkpt>
      <trkpt lat="45.80702" lon="6.97935">
        <ele>2208</ele>
        <time>2022-08-27T09:42:46Z</time>
      </trkpt>
      <trkpt lat="45.80702" lon="6.97933">
        <ele>2209</ele>
        <time>2022-08-27T09:42:47Z</time>
      </trkpt>
      <trkpt lat="45.80702" lon="6.97932">
        <ele>2209</ele>
        <time>2022-08-27T09:42:48Z</time>
      </trkpt>
      <trkpt lat="45.80702" lon="6.9793">
        <ele>2209</ele>
        <time>2022-08-27T09:42:49Z</time>
      </trkpt>
      <trkpt lat="45.80701" lon="6.97929">
        <ele>2209</ele>
        <time>2022-08-27T09:42:51Z</time>
      </trkpt>
      <trkpt lat="45.80701" lon="6.97928">
        <ele>2209</ele>
        <time>2022-08-27T09:42:53Z</time>
      </trkpt>
      <trkpt lat="45.80701" lon="6.97926">
        <ele>2209</ele>
        <time>2022-08-27T09:42:54Z</time>
      </trkpt>
      <trkpt lat="45.80701" lon="6.97925">
        <ele>2210</ele>
        <time>2022-08-27T09:42:55Z</time>
      </trkpt>
      <trkpt lat="45.80701" lon="6.97922">
        <ele>2210</ele>
        <time>2022-08-27T09:42:59Z</time>
      </trkpt>
      <trkpt lat="45.807" lon="6.97919">
        <ele>2211</ele>
        <time>2022-08-27T09:43:04Z</time>
      </trkpt>
      <trkpt lat="45.807" lon="6.97916">
        <ele>2212</ele>
        <time>2022-08-27T09:43:08Z</time>
      </trkpt>
      <trkpt lat="45.80699" lon="6.97914">
        <ele>2212</ele>
        <time>2022-08-27T09:43:11Z</time>
      </trkpt>
      <trkpt lat="45.80698" lon="6.97911">
        <ele>2213</ele>
        <time>2022-08-27T09:43:16Z</time>
      </trkpt>
      <trkpt lat="45.80697" lon="6.97908">
        <ele>2214</ele>
        <time>2022-08-27T09:43:21Z</time>
      </trkpt>
      <trkpt lat="45.80696" lon="6.97905">
        <ele>2214</ele>
        <time>2022-08-27T09:43:24Z</time>
      </trkpt>
      <trkpt lat="45.80695" lon="6.97903">
        <ele>2215</ele>
        <time>2022-08-27T09:43:27Z</time>
      </trkpt>
      <trkpt lat="45.80695" lon="6.979">
        <ele>2215</ele>
        <time>2022-08-27T09:43:30Z</time>
      </trkpt>
      <trkpt lat="45.80694" lon="6.97897">
        <ele>2216</ele>
        <time>2022-08-27T09:43:33Z</time>
      </trkpt>
      <trkpt lat="45.80695" lon="6.97894">
        <ele>2216</ele>
        <time>2022-08-27T09:43:36Z</time>
      </trkpt>
      <trkpt lat="45.80693" lon="6.97891">
        <ele>2217</ele>
        <time>2022-08-27T09:43:40Z</time>
      </trkpt>
      <trkpt lat="45.80693" lon="6.97889">
        <ele>2218</ele>
        <time>2022-08-27T09:43:44Z</time>
      </trkpt>
      <trkpt lat="45.80693" lon="6.97886">
        <ele>2218</ele>
        <time>2022-08-27T09:43:49Z</time>
      </trkpt>
      <trkpt lat="45.80694" lon="6.97884">
        <ele>2219</ele>
        <time>2022-08-27T09:43:54Z</time>
      </trkpt>
      <trkpt lat="45.80695" lon="6.97881">
        <ele>2220</ele>
        <time>2022-08-27T09:43:58Z</time>
      </trkpt>
      <trkpt lat="45.80694" lon="6.97878">
        <ele>2222</ele>
        <time>2022-08-27T09:44:02Z</time>
      </trkpt>
      <trkpt lat="45.80694" lon="6.97875">
        <ele>2223</ele>
        <time>2022-08-27T09:44:05Z</time>
      </trkpt>
      <trkpt lat="45.80697" lon="6.97875">
        <ele>2223</ele>
        <time>2022-08-27T09:44:09Z</time>
      </trkpt>
      <trkpt lat="45.80699" lon="6.97878">
        <ele>2223</ele>
        <time>2022-08-27T09:44:12Z</time>
      </trkpt>
      <trkpt lat="45.80701" lon="6.97879">
        <ele>2224</ele>
        <time>2022-08-27T09:44:15Z</time>
      </trkpt>
      <trkpt lat="45.80703" lon="6.97881">
        <ele>2225</ele>
        <time>2022-08-27T09:44:17Z</time>
      </trkpt>
      <trkpt lat="45.80704" lon="6.97883">
        <ele>2225</ele>
        <time>2022-08-27T09:44:19Z</time>
      </trkpt>
      <trkpt lat="45.80705" lon="6.97885">
        <ele>2225</ele>
        <time>2022-08-27T09:44:22Z</time>
      </trkpt>
      <trkpt lat="45.80707" lon="6.97886">
        <ele>2226</ele>
        <time>2022-08-27T09:44:26Z</time>
      </trkpt>
      <trkpt lat="45.80707" lon="6.97885">
        <ele>2226</ele>
        <time>2022-08-27T09:44:28Z</time>
      </trkpt>
      <trkpt lat="45.80706" lon="6.97883">
        <ele>2226</ele>
        <time>2022-08-27T09:44:29Z</time>
      </trkpt>
      <trkpt lat="45.80706" lon="6.97882">
        <ele>2226</ele>
        <time>2022-08-27T09:44:30Z</time>
      </trkpt>
      <trkpt lat="45.80706" lon="6.9788">
        <ele>2227</ele>
        <time>2022-08-27T09:44:32Z</time>
      </trkpt>
      <trkpt lat="45.80706" lon="6.97878">
        <ele>2227</ele>
        <time>2022-08-27T09:44:33Z</time>
      </trkpt>
      <trkpt lat="45.80705" lon="6.97877">
        <ele>2227</ele>
        <time>2022-08-27T09:44:34Z</time>
      </trkpt>
      <trkpt lat="45.80705" lon="6.97875">
        <ele>2227</ele>
        <time>2022-08-27T09:44:35Z</time>
      </trkpt>
      <trkpt lat="45.80705" lon="6.97874">
        <ele>2227</ele>
        <time>2022-08-27T09:44:37Z</time>
      </trkpt>
      <trkpt lat="45.80705" lon="6.97872">
        <ele>2227</ele>
        <time>2022-08-27T09:44:38Z</time>
      </trkpt>
      <trkpt lat="45.80705" lon="6.97871">
        <ele>2227</ele>
        <time>2022-08-27T09:44:39Z</time>
      </trkpt>
      <trkpt lat="45.80702" lon="6.97868">
        <ele>2228</ele>
        <time>2022-08-27T09:44:42Z</time>
      </trkpt>
      <trkpt lat="45.80701" lon="6.97866">
        <ele>2229</ele>
        <time>2022-08-27T09:44:45Z</time>
      </trkpt>
      <trkpt lat="45.80701" lon="6.97863">
        <ele>2229</ele>
        <time>2022-08-27T09:44:50Z</time>
      </trkpt>
      <trkpt lat="45.807" lon="6.9786">
        <ele>2230</ele>
        <time>2022-08-27T09:44:55Z</time>
      </trkpt>
      <trkpt lat="45.807" lon="6.97858">
        <ele>2231</ele>
        <time>2022-08-27T09:44:58Z</time>
      </trkpt>
      <trkpt lat="45.80699" lon="6.97854">
        <ele>2231</ele>
        <time>2022-08-27T09:45:00Z</time>
      </trkpt>
      <trkpt lat="45.80702" lon="6.97855">
        <ele>2232</ele>
        <time>2022-08-27T09:45:06Z</time>
      </trkpt>
      <trkpt lat="45.80704" lon="6.97855">
        <ele>2233</ele>
        <time>2022-08-27T09:45:09Z</time>
      </trkpt>
      <trkpt lat="45.80706" lon="6.97857">
        <ele>2234</ele>
        <time>2022-08-27T09:45:12Z</time>
      </trkpt>
      <trkpt lat="45.80708" lon="6.97858">
        <ele>2234</ele>
        <time>2022-08-27T09:45:15Z</time>
      </trkpt>
      <trkpt lat="45.8071" lon="6.97855">
        <ele>2235</ele>
        <time>2022-08-27T09:45:19Z</time>
      </trkpt>
      <trkpt lat="45.80709" lon="6.97852">
        <ele>2236</ele>
        <time>2022-08-27T09:45:23Z</time>
      </trkpt>
      <trkpt lat="45.80709" lon="6.97849">
        <ele>2236</ele>
        <time>2022-08-27T09:45:27Z</time>
      </trkpt>
      <trkpt lat="45.80708" lon="6.97847">
        <ele>2237</ele>
        <time>2022-08-27T09:45:30Z</time>
      </trkpt>
      <trkpt lat="45.80707" lon="6.97844">
        <ele>2237</ele>
        <time>2022-08-27T09:45:34Z</time>
      </trkpt>
      <trkpt lat="45.80707" lon="6.97841">
        <ele>2237</ele>
        <time>2022-08-27T09:45:38Z</time>
      </trkpt>
      <trkpt lat="45.80707" lon="6.97838">
        <ele>2238</ele>
        <time>2022-08-27T09:45:41Z</time>
      </trkpt>
      <trkpt lat="45.80707" lon="6.97834">
        <ele>2239</ele>
        <time>2022-08-27T09:45:44Z</time>
      </trkpt>
      <trkpt lat="45.80708" lon="6.97831">
        <ele>2239</ele>
        <time>2022-08-27T09:45:47Z</time>
      </trkpt>
      <trkpt lat="45.80708" lon="6.97828">
        <ele>2239</ele>
        <time>2022-08-27T09:45:49Z</time>
      </trkpt>
      <trkpt lat="45.80708" lon="6.97825">
        <ele>2240</ele>
        <time>2022-08-27T09:45:52Z</time>
      </trkpt>
      <trkpt lat="45.80708" lon="6.97821">
        <ele>2240</ele>
        <time>2022-08-27T09:45:54Z</time>
      </trkpt>
      <trkpt lat="45.80708" lon="6.97818">
        <ele>2240</ele>
        <time>2022-08-27T09:45:57Z</time>
      </trkpt>
      <trkpt lat="45.80709" lon="6.97815">
        <ele>2241</ele>
        <time>2022-08-27T09:46:00Z</time>
      </trkpt>
      <trkpt lat="45.80711" lon="6.97812">
        <ele>2241</ele>
        <time>2022-08-27T09:46:03Z</time>
      </trkpt>
      <trkpt lat="45.80712" lon="6.97808">
        <ele>2242</ele>
        <time>2022-08-27T09:46:06Z</time>
      </trkpt>
      <trkpt lat="45.80713" lon="6.97805">
        <ele>2242</ele>
        <time>2022-08-27T09:46:08Z</time>
      </trkpt>
      <trkpt lat="45.80714" lon="6.97802">
        <ele>2242</ele>
        <time>2022-08-27T09:46:10Z</time>
      </trkpt>
      <trkpt lat="45.80715" lon="6.978">
        <ele>2242</ele>
        <time>2022-08-27T09:46:13Z</time>
      </trkpt>
      <trkpt lat="45.80715" lon="6.97797">
        <ele>2242</ele>
        <time>2022-08-27T09:46:16Z</time>
      </trkpt>
      <trkpt lat="45.80715" lon="6.97794">
        <ele>2243</ele>
        <time>2022-08-27T09:46:20Z</time>
      </trkpt>
      <trkpt lat="45.80716" lon="6.97792">
        <ele>2245</ele>
        <time>2022-08-27T09:46:25Z</time>
      </trkpt>
      <trkpt lat="45.80718" lon="6.97792">
        <ele>2246</ele>
        <time>2022-08-27T09:46:32Z</time>
      </trkpt>
      <trkpt lat="45.80719" lon="6.97794">
        <ele>2246</ele>
        <time>2022-08-27T09:46:35Z</time>
      </trkpt>
      <trkpt lat="45.8072" lon="6.97798">
        <ele>2248</ele>
        <time>2022-08-27T09:46:38Z</time>
      </trkpt>
      <trkpt lat="45.80721" lon="6.97803">
        <ele>2248</ele>
        <time>2022-08-27T09:46:41Z</time>
      </trkpt>
      <trkpt lat="45.80721" lon="6.97806">
        <ele>2248</ele>
        <time>2022-08-27T09:46:43Z</time>
      </trkpt>
      <trkpt lat="45.80722" lon="6.97809">
        <ele>2248</ele>
        <time>2022-08-27T09:46:46Z</time>
      </trkpt>
      <trkpt lat="45.80723" lon="6.97812">
        <ele>2249</ele>
        <time>2022-08-27T09:46:50Z</time>
      </trkpt>
      <trkpt lat="45.80724" lon="6.97815">
        <ele>2250</ele>
        <time>2022-08-27T09:46:53Z</time>
      </trkpt>
      <trkpt lat="45.80725" lon="6.97817">
        <ele>2250</ele>
        <time>2022-08-27T09:46:56Z</time>
      </trkpt>
      <trkpt lat="45.80725" lon="6.9782">
        <ele>2251</ele>
        <time>2022-08-27T09:46:59Z</time>
      </trkpt>
      <trkpt lat="45.80726" lon="6.97823">
        <ele>2251</ele>
        <time>2022-08-27T09:47:01Z</time>
      </trkpt>
      <trkpt lat="45.80726" lon="6.97825">
        <ele>2251</ele>
        <time>2022-08-27T09:47:03Z</time>
      </trkpt>
      <trkpt lat="45.80727" lon="6.97828">
        <ele>2251</ele>
        <time>2022-08-27T09:47:05Z</time>
      </trkpt>
      <trkpt lat="45.80727" lon="6.97831">
        <ele>2252</ele>
        <time>2022-08-27T09:47:08Z</time>
      </trkpt>
      <trkpt lat="45.80728" lon="6.97834">
        <ele>2252</ele>
        <time>2022-08-27T09:47:11Z</time>
      </trkpt>
      <trkpt lat="45.80729" lon="6.97836">
        <ele>2253</ele>
        <time>2022-08-27T09:47:14Z</time>
      </trkpt>
      <trkpt lat="45.80731" lon="6.97834">
        <ele>2253</ele>
        <time>2022-08-27T09:47:17Z</time>
      </trkpt>
      <trkpt lat="45.80731" lon="6.97831">
        <ele>2253</ele>
        <time>2022-08-27T09:47:21Z</time>
      </trkpt>
      <trkpt lat="45.80732" lon="6.97828">
        <ele>2253</ele>
        <time>2022-08-27T09:47:23Z</time>
      </trkpt>
      <trkpt lat="45.80733" lon="6.97825">
        <ele>2255</ele>
        <time>2022-08-27T09:47:25Z</time>
      </trkpt>
      <trkpt lat="45.80733" lon="6.97822">
        <ele>2255</ele>
        <time>2022-08-27T09:47:27Z</time>
      </trkpt>
      <trkpt lat="45.80733" lon="6.97819">
        <ele>2256</ele>
        <time>2022-08-27T09:47:29Z</time>
      </trkpt>
      <trkpt lat="45.80733" lon="6.97817">
        <ele>2256</ele>
        <time>2022-08-27T09:47:31Z</time>
      </trkpt>
      <trkpt lat="45.80733" lon="6.97814">
        <ele>2256</ele>
        <time>2022-08-27T09:47:33Z</time>
      </trkpt>
      <trkpt lat="45.80733" lon="6.9781">
        <ele>2256</ele>
        <time>2022-08-27T09:47:36Z</time>
      </trkpt>
      <trkpt lat="45.80733" lon="6.97808">
        <ele>2257</ele>
        <time>2022-08-27T09:47:39Z</time>
      </trkpt>
      <trkpt lat="45.80733" lon="6.97804">
        <ele>2257</ele>
        <time>2022-08-27T09:47:41Z</time>
      </trkpt>
      <trkpt lat="45.80734" lon="6.97802">
        <ele>2257</ele>
        <time>2022-08-27T09:47:43Z</time>
      </trkpt>
      <trkpt lat="45.80736" lon="6.978">
        <ele>2258</ele>
        <time>2022-08-27T09:47:46Z</time>
      </trkpt>
      <trkpt lat="45.80738" lon="6.978">
        <ele>2258</ele>
        <time>2022-08-27T09:47:49Z</time>
      </trkpt>
      <trkpt lat="45.8074" lon="6.97797">
        <ele>2259</ele>
        <time>2022-08-27T09:47:53Z</time>
      </trkpt>
      <trkpt lat="45.80741" lon="6.97791">
        <ele>2260</ele>
        <time>2022-08-27T09:47:57Z</time>
      </trkpt>
      <trkpt lat="45.80742" lon="6.9779">
        <ele>2261</ele>
        <time>2022-08-27T09:48:03Z</time>
      </trkpt>
      <trkpt lat="45.80744" lon="6.97789">
        <ele>2262</ele>
        <time>2022-08-27T09:48:07Z</time>
      </trkpt>
      <trkpt lat="45.80746" lon="6.97787">
        <ele>2262</ele>
        <time>2022-08-27T09:48:10Z</time>
      </trkpt>
      <trkpt lat="45.80748" lon="6.97785">
        <ele>2263</ele>
        <time>2022-08-27T09:48:13Z</time>
      </trkpt>
      <trkpt lat="45.80749" lon="6.97788">
        <ele>2263</ele>
        <time>2022-08-27T09:48:18Z</time>
      </trkpt>
      <trkpt lat="45.8075" lon="6.97792">
        <ele>2264</ele>
        <time>2022-08-27T09:48:21Z</time>
      </trkpt>
      <trkpt lat="45.80751" lon="6.97796">
        <ele>2265</ele>
        <time>2022-08-27T09:48:25Z</time>
      </trkpt>
      <trkpt lat="45.80751" lon="6.97799">
        <ele>2265</ele>
        <time>2022-08-27T09:48:27Z</time>
      </trkpt>
      <trkpt lat="45.80752" lon="6.97801">
        <ele>2265</ele>
        <time>2022-08-27T09:48:30Z</time>
      </trkpt>
      <trkpt lat="45.80753" lon="6.97805">
        <ele>2265</ele>
        <time>2022-08-27T09:48:33Z</time>
      </trkpt>
      <trkpt lat="45.80753" lon="6.97808">
        <ele>2266</ele>
        <time>2022-08-27T09:48:36Z</time>
      </trkpt>
      <trkpt lat="45.80755" lon="6.97811">
        <ele>2267</ele>
        <time>2022-08-27T09:48:39Z</time>
      </trkpt>
      <trkpt lat="45.80755" lon="6.97815">
        <ele>2267</ele>
        <time>2022-08-27T09:48:42Z</time>
      </trkpt>
      <trkpt lat="45.80755" lon="6.97818">
        <ele>2268</ele>
        <time>2022-08-27T09:48:45Z</time>
      </trkpt>
      <trkpt lat="45.80756" lon="6.97821">
        <ele>2268</ele>
        <time>2022-08-27T09:48:48Z</time>
      </trkpt>
      <trkpt lat="45.80757" lon="6.97824">
        <ele>2268</ele>
        <time>2022-08-27T09:48:51Z</time>
      </trkpt>
      <trkpt lat="45.80757" lon="6.97826">
        <ele>2269</ele>
        <time>2022-08-27T09:48:54Z</time>
      </trkpt>
      <trkpt lat="45.80757" lon="6.97829">
        <ele>2269</ele>
        <time>2022-08-27T09:48:56Z</time>
      </trkpt>
      <trkpt lat="45.80757" lon="6.97833">
        <ele>2269</ele>
        <time>2022-08-27T09:48:59Z</time>
      </trkpt>
      <trkpt lat="45.80758" lon="6.97836">
        <ele>2269</ele>
        <time>2022-08-27T09:49:02Z</time>
      </trkpt>
      <trkpt lat="45.80758" lon="6.97839">
        <ele>2269</ele>
        <time>2022-08-27T09:49:05Z</time>
      </trkpt>
      <trkpt lat="45.80758" lon="6.97842">
        <ele>2270</ele>
        <time>2022-08-27T09:49:07Z</time>
      </trkpt>
      <trkpt lat="45.80759" lon="6.97845">
        <ele>2270</ele>
        <time>2022-08-27T09:49:10Z</time>
      </trkpt>
      <trkpt lat="45.80759" lon="6.97848">
        <ele>2271</ele>
        <time>2022-08-27T09:49:13Z</time>
      </trkpt>
      <trkpt lat="45.8076" lon="6.97851">
        <ele>2272</ele>
        <time>2022-08-27T09:49:16Z</time>
      </trkpt>
      <trkpt lat="45.80761" lon="6.97854">
        <ele>2272</ele>
        <time>2022-08-27T09:49:20Z</time>
      </trkpt>
      <trkpt lat="45.80763" lon="6.97853">
        <ele>2274</ele>
        <time>2022-08-27T09:49:27Z</time>
      </trkpt>
      <trkpt lat="45.80764" lon="6.97851">
        <ele>2274</ele>
        <time>2022-08-27T09:49:28Z</time>
      </trkpt>
      <trkpt lat="45.80765" lon="6.97849">
        <ele>2274</ele>
        <time>2022-08-27T09:49:30Z</time>
      </trkpt>
      <trkpt lat="45.80766" lon="6.97847">
        <ele>2274</ele>
        <time>2022-08-27T09:49:32Z</time>
      </trkpt>
      <trkpt lat="45.80767" lon="6.97846">
        <ele>2274</ele>
        <time>2022-08-27T09:49:33Z</time>
      </trkpt>
      <trkpt lat="45.80768" lon="6.97844">
        <ele>2275</ele>
        <time>2022-08-27T09:49:34Z</time>
      </trkpt>
      <trkpt lat="45.80769" lon="6.97842">
        <ele>2276</ele>
        <time>2022-08-27T09:49:35Z</time>
      </trkpt>
      <trkpt lat="45.80772" lon="6.97839">
        <ele>2276</ele>
        <time>2022-08-27T09:49:38Z</time>
      </trkpt>
      <trkpt lat="45.80773" lon="6.97837">
        <ele>2276</ele>
        <time>2022-08-27T09:49:40Z</time>
      </trkpt>
      <trkpt lat="45.80774" lon="6.97835">
        <ele>2276</ele>
        <time>2022-08-27T09:49:43Z</time>
      </trkpt>
      <trkpt lat="45.80776" lon="6.97832">
        <ele>2277</ele>
        <time>2022-08-27T09:49:46Z</time>
      </trkpt>
      <trkpt lat="45.80777" lon="6.97829">
        <ele>2278</ele>
        <time>2022-08-27T09:49:49Z</time>
      </trkpt>
      <trkpt lat="45.80778" lon="6.97827">
        <ele>2278</ele>
        <time>2022-08-27T09:49:52Z</time>
      </trkpt>
      <trkpt lat="45.80779" lon="6.97825">
        <ele>2279</ele>
        <time>2022-08-27T09:49:57Z</time>
      </trkpt>
      <trkpt lat="45.8078" lon="6.97822">
        <ele>2279</ele>
        <time>2022-08-27T09:50:00Z</time>
      </trkpt>
      <trkpt lat="45.80781" lon="6.9782">
        <ele>2279</ele>
        <time>2022-08-27T09:50:02Z</time>
      </trkpt>
      <trkpt lat="45.80783" lon="6.97817">
        <ele>2280</ele>
        <time>2022-08-27T09:50:05Z</time>
      </trkpt>
      <trkpt lat="45.80784" lon="6.97815">
        <ele>2280</ele>
        <time>2022-08-27T09:50:08Z</time>
      </trkpt>
      <trkpt lat="45.80785" lon="6.97812">
        <ele>2281</ele>
        <time>2022-08-27T09:50:13Z</time>
      </trkpt>
      <trkpt lat="45.80784" lon="6.9781">
        <ele>2281</ele>
        <time>2022-08-27T09:50:15Z</time>
      </trkpt>
      <trkpt lat="45.80784" lon="6.97807">
        <ele>2281</ele>
        <time>2022-08-27T09:50:19Z</time>
      </trkpt>
      <trkpt lat="45.80784" lon="6.97804">
        <ele>2281</ele>
        <time>2022-08-27T09:50:23Z</time>
      </trkpt>
      <trkpt lat="45.80784" lon="6.97801">
        <ele>2283</ele>
        <time>2022-08-27T09:50:26Z</time>
      </trkpt>
      <trkpt lat="45.80786" lon="6.97799">
        <ele>2283</ele>
        <time>2022-08-27T09:50:30Z</time>
      </trkpt>
      <trkpt lat="45.80787" lon="6.97798">
        <ele>2284</ele>
        <time>2022-08-27T09:50:33Z</time>
      </trkpt>
      <trkpt lat="45.80788" lon="6.97795">
        <ele>2285</ele>
        <time>2022-08-27T09:50:36Z</time>
      </trkpt>
      <trkpt lat="45.80787" lon="6.97792">
        <ele>2285</ele>
        <time>2022-08-27T09:50:39Z</time>
      </trkpt>
      <trkpt lat="45.80785" lon="6.97791">
        <ele>2286</ele>
        <time>2022-08-27T09:50:41Z</time>
      </trkpt>
      <trkpt lat="45.80783" lon="6.9779">
        <ele>2286</ele>
        <time>2022-08-27T09:50:43Z</time>
      </trkpt>
      <trkpt lat="45.80782" lon="6.97788">
        <ele>2286</ele>
        <time>2022-08-27T09:50:45Z</time>
      </trkpt>
      <trkpt lat="45.80781" lon="6.97785">
        <ele>2286</ele>
        <time>2022-08-27T09:50:48Z</time>
      </trkpt>
      <trkpt lat="45.8078" lon="6.97782">
        <ele>2287</ele>
        <time>2022-08-27T09:50:52Z</time>
      </trkpt>
      <trkpt lat="45.80779" lon="6.9778">
        <ele>2288</ele>
        <time>2022-08-27T09:50:56Z</time>
      </trkpt>
      <trkpt lat="45.80779" lon="6.97777">
        <ele>2289</ele>
        <time>2022-08-27T09:50:59Z</time>
      </trkpt>
      <trkpt lat="45.80778" lon="6.97773">
        <ele>2289</ele>
        <time>2022-08-27T09:51:02Z</time>
      </trkpt>
      <trkpt lat="45.80778" lon="6.9777">
        <ele>2289</ele>
        <time>2022-08-27T09:51:05Z</time>
      </trkpt>
      <trkpt lat="45.80778" lon="6.97766">
        <ele>2289</ele>
        <time>2022-08-27T09:51:08Z</time>
      </trkpt>
      <trkpt lat="45.80777" lon="6.97764">
        <ele>2289</ele>
        <time>2022-08-27T09:51:10Z</time>
      </trkpt>
      <trkpt lat="45.80777" lon="6.9776">
        <ele>2290</ele>
        <time>2022-08-27T09:51:13Z</time>
      </trkpt>
      <trkpt lat="45.80777" lon="6.97757">
        <ele>2290</ele>
        <time>2022-08-27T09:51:16Z</time>
      </trkpt>
      <trkpt lat="45.80777" lon="6.97755">
        <ele>2291</ele>
        <time>2022-08-27T09:51:19Z</time>
      </trkpt>
      <trkpt lat="45.80778" lon="6.97752">
        <ele>2291</ele>
        <time>2022-08-27T09:51:22Z</time>
      </trkpt>
      <trkpt lat="45.80779" lon="6.97749">
        <ele>2292</ele>
        <time>2022-08-27T09:51:27Z</time>
      </trkpt>
      <trkpt lat="45.80779" lon="6.97746">
        <ele>2293</ele>
        <time>2022-08-27T09:51:31Z</time>
      </trkpt>
      <trkpt lat="45.8078" lon="6.97743">
        <ele>2293</ele>
        <time>2022-08-27T09:51:34Z</time>
      </trkpt>
      <trkpt lat="45.80781" lon="6.9774">
        <ele>2294</ele>
        <time>2022-08-27T09:51:37Z</time>
      </trkpt>
      <trkpt lat="45.80781" lon="6.97737">
        <ele>2294</ele>
        <time>2022-08-27T09:51:40Z</time>
      </trkpt>
      <trkpt lat="45.80782" lon="6.97734">
        <ele>2294</ele>
        <time>2022-08-27T09:51:43Z</time>
      </trkpt>
      <trkpt lat="45.80783" lon="6.97731">
        <ele>2295</ele>
        <time>2022-08-27T09:51:47Z</time>
      </trkpt>
      <trkpt lat="45.80784" lon="6.97728">
        <ele>2295</ele>
        <time>2022-08-27T09:51:50Z</time>
      </trkpt>
      <trkpt lat="45.80785" lon="6.97726">
        <ele>2296</ele>
        <time>2022-08-27T09:51:53Z</time>
      </trkpt>
      <trkpt lat="45.80787" lon="6.97726">
        <ele>2296</ele>
        <time>2022-08-27T09:51:56Z</time>
      </trkpt>
      <trkpt lat="45.80789" lon="6.97727">
        <ele>2296</ele>
        <time>2022-08-27T09:51:58Z</time>
      </trkpt>
      <trkpt lat="45.80791" lon="6.97729">
        <ele>2297</ele>
        <time>2022-08-27T09:52:00Z</time>
      </trkpt>
      <trkpt lat="45.80793" lon="6.97731">
        <ele>2297</ele>
        <time>2022-08-27T09:52:03Z</time>
      </trkpt>
      <trkpt lat="45.80795" lon="6.97732">
        <ele>2297</ele>
        <time>2022-08-27T09:52:05Z</time>
      </trkpt>
      <trkpt lat="45.80796" lon="6.97734">
        <ele>2297</ele>
        <time>2022-08-27T09:52:08Z</time>
      </trkpt>
      <trkpt lat="45.80798" lon="6.97736">
        <ele>2297</ele>
        <time>2022-08-27T09:52:11Z</time>
      </trkpt>
      <trkpt lat="45.808" lon="6.97738">
        <ele>2298</ele>
        <time>2022-08-27T09:52:14Z</time>
      </trkpt>
      <trkpt lat="45.80802" lon="6.9774">
        <ele>2298</ele>
        <time>2022-08-27T09:52:17Z</time>
      </trkpt>
      <trkpt lat="45.80804" lon="6.97741">
        <ele>2300</ele>
        <time>2022-08-27T09:52:20Z</time>
      </trkpt>
      <trkpt lat="45.80807" lon="6.97742">
        <ele>2300</ele>
        <time>2022-08-27T09:52:22Z</time>
      </trkpt>
      <trkpt lat="45.80809" lon="6.97744">
        <ele>2300</ele>
        <time>2022-08-27T09:52:24Z</time>
      </trkpt>
      <trkpt lat="45.80811" lon="6.97745">
        <ele>2300</ele>
        <time>2022-08-27T09:52:25Z</time>
      </trkpt>
      <trkpt lat="45.80814" lon="6.97747">
        <ele>2300</ele>
        <time>2022-08-27T09:52:27Z</time>
      </trkpt>
      <trkpt lat="45.80816" lon="6.97748">
        <ele>2300</ele>
        <time>2022-08-27T09:52:29Z</time>
      </trkpt>
      <trkpt lat="45.80818" lon="6.9775">
        <ele>2300</ele>
        <time>2022-08-27T09:52:31Z</time>
      </trkpt>
      <trkpt lat="45.80821" lon="6.97751">
        <ele>2300</ele>
        <time>2022-08-27T09:52:33Z</time>
      </trkpt>
      <trkpt lat="45.80823" lon="6.97752">
        <ele>2300</ele>
        <time>2022-08-27T09:52:35Z</time>
      </trkpt>
      <trkpt lat="45.80825" lon="6.97752">
        <ele>2300</ele>
        <time>2022-08-27T09:52:37Z</time>
      </trkpt>
      <trkpt lat="45.80827" lon="6.97752">
        <ele>2301</ele>
        <time>2022-08-27T09:52:40Z</time>
      </trkpt>
      <trkpt lat="45.80829" lon="6.97754">
        <ele>2302</ele>
        <time>2022-08-27T09:52:43Z</time>
      </trkpt>
      <trkpt lat="45.80832" lon="6.97756">
        <ele>2303</ele>
        <time>2022-08-27T09:52:46Z</time>
      </trkpt>
      <trkpt lat="45.80833" lon="6.97758">
        <ele>2304</ele>
        <time>2022-08-27T09:52:49Z</time>
      </trkpt>
      <trkpt lat="45.80834" lon="6.9776">
        <ele>2304</ele>
        <time>2022-08-27T09:52:51Z</time>
      </trkpt>
      <trkpt lat="45.80835" lon="6.97763">
        <ele>2305</ele>
        <time>2022-08-27T09:52:54Z</time>
      </trkpt>
      <trkpt lat="45.80836" lon="6.97765">
        <ele>2305</ele>
        <time>2022-08-27T09:52:56Z</time>
      </trkpt>
      <trkpt lat="45.80836" lon="6.97768">
        <ele>2305</ele>
        <time>2022-08-27T09:52:59Z</time>
      </trkpt>
      <trkpt lat="45.80837" lon="6.97771">
        <ele>2305</ele>
        <time>2022-08-27T09:53:02Z</time>
      </trkpt>
      <trkpt lat="45.80838" lon="6.97773">
        <ele>2306</ele>
        <time>2022-08-27T09:53:05Z</time>
      </trkpt>
      <trkpt lat="45.8084" lon="6.97776">
        <ele>2306</ele>
        <time>2022-08-27T09:53:07Z</time>
      </trkpt>
      <trkpt lat="45.80841" lon="6.97778">
        <ele>2307</ele>
        <time>2022-08-27T09:53:11Z</time>
      </trkpt>
      <trkpt lat="45.80842" lon="6.9778">
        <ele>2307</ele>
        <time>2022-08-27T09:53:14Z</time>
      </trkpt>
      <trkpt lat="45.80842" lon="6.97783">
        <ele>2308</ele>
        <time>2022-08-27T09:53:17Z</time>
      </trkpt>
      <trkpt lat="45.80842" lon="6.97786">
        <ele>2309</ele>
        <time>2022-08-27T09:53:20Z</time>
      </trkpt>
      <trkpt lat="45.80843" lon="6.97788">
        <ele>2310</ele>
        <time>2022-08-27T09:53:23Z</time>
      </trkpt>
      <trkpt lat="45.80843" lon="6.97791">
        <ele>2310</ele>
        <time>2022-08-27T09:53:27Z</time>
      </trkpt>
      <trkpt lat="45.80844" lon="6.97794">
        <ele>2310</ele>
        <time>2022-08-27T09:53:31Z</time>
      </trkpt>
      <trkpt lat="45.80844" lon="6.97797">
        <ele>2311</ele>
        <time>2022-08-27T09:53:34Z</time>
      </trkpt>
      <trkpt lat="45.80844" lon="6.978">
        <ele>2311</ele>
        <time>2022-08-27T09:53:37Z</time>
      </trkpt>
      <trkpt lat="45.80845" lon="6.97803">
        <ele>2312</ele>
        <time>2022-08-27T09:53:41Z</time>
      </trkpt>
      <trkpt lat="45.80846" lon="6.97806">
        <ele>2313</ele>
        <time>2022-08-27T09:53:44Z</time>
      </trkpt>
      <trkpt lat="45.80846" lon="6.97809">
        <ele>2313</ele>
        <time>2022-08-27T09:53:47Z</time>
      </trkpt>
      <trkpt lat="45.80847" lon="6.97812">
        <ele>2314</ele>
        <time>2022-08-27T09:53:51Z</time>
      </trkpt>
      <trkpt lat="45.80847" lon="6.97814">
        <ele>2314</ele>
        <time>2022-08-27T09:53:54Z</time>
      </trkpt>
      <trkpt lat="45.80848" lon="6.97817">
        <ele>2315</ele>
        <time>2022-08-27T09:53:58Z</time>
      </trkpt>
      <trkpt lat="45.80849" lon="6.9782">
        <ele>2315</ele>
        <time>2022-08-27T09:54:02Z</time>
      </trkpt>
      <trkpt lat="45.80849" lon="6.97823">
        <ele>2316</ele>
        <time>2022-08-27T09:54:06Z</time>
      </trkpt>
      <trkpt lat="45.8085" lon="6.97826">
        <ele>2317</ele>
        <time>2022-08-27T09:54:09Z</time>
      </trkpt>
      <trkpt lat="45.8085" lon="6.97829">
        <ele>2318</ele>
        <time>2022-08-27T09:54:13Z</time>
      </trkpt>
      <trkpt lat="45.80851" lon="6.97832">
        <ele>2318</ele>
        <time>2022-08-27T09:54:16Z</time>
      </trkpt>
      <trkpt lat="45.80853" lon="6.97834">
        <ele>2318</ele>
        <time>2022-08-27T09:54:18Z</time>
      </trkpt>
      <trkpt lat="45.80855" lon="6.97835">
        <ele>2319</ele>
        <time>2022-08-27T09:54:20Z</time>
      </trkpt>
      <trkpt lat="45.80856" lon="6.97836">
        <ele>2320</ele>
        <time>2022-08-27T09:54:22Z</time>
      </trkpt>
      <trkpt lat="45.80858" lon="6.97836">
        <ele>2320</ele>
        <time>2022-08-27T09:54:24Z</time>
      </trkpt>
      <trkpt lat="45.8086" lon="6.97836">
        <ele>2320</ele>
        <time>2022-08-27T09:54:26Z</time>
      </trkpt>
      <trkpt lat="45.80863" lon="6.97837">
        <ele>2320</ele>
        <time>2022-08-27T09:54:29Z</time>
      </trkpt>
      <trkpt lat="45.80865" lon="6.97838">
        <ele>2320</ele>
        <time>2022-08-27T09:54:32Z</time>
      </trkpt>
      <trkpt lat="45.80867" lon="6.97838">
        <ele>2321</ele>
        <time>2022-08-27T09:54:34Z</time>
      </trkpt>
      <trkpt lat="45.80869" lon="6.9784">
        <ele>2321</ele>
        <time>2022-08-27T09:54:37Z</time>
      </trkpt>
      <trkpt lat="45.80871" lon="6.97841">
        <ele>2321</ele>
        <time>2022-08-27T09:54:40Z</time>
      </trkpt>
      <trkpt lat="45.80873" lon="6.97843">
        <ele>2322</ele>
        <time>2022-08-27T09:54:43Z</time>
      </trkpt>
      <trkpt lat="45.80874" lon="6.97845">
        <ele>2323</ele>
        <time>2022-08-27T09:54:47Z</time>
      </trkpt>
      <trkpt lat="45.80876" lon="6.97845">
        <ele>2323</ele>
        <time>2022-08-27T09:54:50Z</time>
      </trkpt>
      <trkpt lat="45.80879" lon="6.97845">
        <ele>2323</ele>
        <time>2022-08-27T09:54:53Z</time>
      </trkpt>
      <trkpt lat="45.80881" lon="6.97846">
        <ele>2324</ele>
        <time>2022-08-27T09:54:56Z</time>
      </trkpt>
      <trkpt lat="45.80883" lon="6.97847">
        <ele>2326</ele>
        <time>2022-08-27T09:55:00Z</time>
      </trkpt>
      <trkpt lat="45.80884" lon="6.97847">
        <ele>2326</ele>
        <time>2022-08-27T09:55:03Z</time>
      </trkpt>
      <trkpt lat="45.80886" lon="6.97848">
        <ele>2326</ele>
        <time>2022-08-27T09:55:07Z</time>
      </trkpt>
      <trkpt lat="45.80888" lon="6.97849">
        <ele>2327</ele>
        <time>2022-08-27T09:55:09Z</time>
      </trkpt>
      <trkpt lat="45.80891" lon="6.9785">
        <ele>2327</ele>
        <time>2022-08-27T09:55:14Z</time>
      </trkpt>
      <trkpt lat="45.80892" lon="6.97852">
        <ele>2328</ele>
        <time>2022-08-27T09:55:17Z</time>
      </trkpt>
      <trkpt lat="45.80892" lon="6.97856">
        <ele>2328</ele>
        <time>2022-08-27T09:55:20Z</time>
      </trkpt>
      <trkpt lat="45.80892" lon="6.97859">
        <ele>2329</ele>
        <time>2022-08-27T09:55:22Z</time>
      </trkpt>
      <trkpt lat="45.80893" lon="6.97861">
        <ele>2329</ele>
        <time>2022-08-27T09:55:24Z</time>
      </trkpt>
      <trkpt lat="45.80894" lon="6.97865">
        <ele>2329</ele>
        <time>2022-08-27T09:55:27Z</time>
      </trkpt>
      <trkpt lat="45.80895" lon="6.97868">
        <ele>2330</ele>
        <time>2022-08-27T09:55:30Z</time>
      </trkpt>
      <trkpt lat="45.80895" lon="6.97872">
        <ele>2330</ele>
        <time>2022-08-27T09:55:33Z</time>
      </trkpt>
      <trkpt lat="45.80895" lon="6.97875">
        <ele>2331</ele>
        <time>2022-08-27T09:55:36Z</time>
      </trkpt>
      <trkpt lat="45.80897" lon="6.97873">
        <ele>2331</ele>
        <time>2022-08-27T09:55:41Z</time>
      </trkpt>
      <trkpt lat="45.80897" lon="6.97869">
        <ele>2332</ele>
        <time>2022-08-27T09:55:44Z</time>
      </trkpt>
      <trkpt lat="45.80898" lon="6.97866">
        <ele>2332</ele>
        <time>2022-08-27T09:55:47Z</time>
      </trkpt>
      <trkpt lat="45.80898" lon="6.97863">
        <ele>2333</ele>
        <time>2022-08-27T09:55:49Z</time>
      </trkpt>
      <trkpt lat="45.80899" lon="6.9786">
        <ele>2333</ele>
        <time>2022-08-27T09:55:51Z</time>
      </trkpt>
      <trkpt lat="45.80899" lon="6.97857">
        <ele>2333</ele>
        <time>2022-08-27T09:55:54Z</time>
      </trkpt>
      <trkpt lat="45.80899" lon="6.97854">
        <ele>2333</ele>
        <time>2022-08-27T09:55:57Z</time>
      </trkpt>
      <trkpt lat="45.809" lon="6.97851">
        <ele>2334</ele>
        <time>2022-08-27T09:56:00Z</time>
      </trkpt>
      <trkpt lat="45.809" lon="6.97847">
        <ele>2335</ele>
        <time>2022-08-27T09:56:03Z</time>
      </trkpt>
      <trkpt lat="45.809" lon="6.97844">
        <ele>2335</ele>
        <time>2022-08-27T09:56:06Z</time>
      </trkpt>
      <trkpt lat="45.80902" lon="6.97844">
        <ele>2336</ele>
        <time>2022-08-27T09:56:10Z</time>
      </trkpt>
      <trkpt lat="45.80903" lon="6.97847">
        <ele>2337</ele>
        <time>2022-08-27T09:56:14Z</time>
      </trkpt>
      <trkpt lat="45.80905" lon="6.97849">
        <ele>2337</ele>
        <time>2022-08-27T09:56:17Z</time>
      </trkpt>
      <trkpt lat="45.80906" lon="6.97851">
        <ele>2338</ele>
        <time>2022-08-27T09:56:20Z</time>
      </trkpt>
      <trkpt lat="45.80907" lon="6.97854">
        <ele>2338</ele>
        <time>2022-08-27T09:56:23Z</time>
      </trkpt>
      <trkpt lat="45.80908" lon="6.97856">
        <ele>2339</ele>
        <time>2022-08-27T09:56:26Z</time>
      </trkpt>
      <trkpt lat="45.80911" lon="6.97857">
        <ele>2340</ele>
        <time>2022-08-27T09:56:30Z</time>
      </trkpt>
      <trkpt lat="45.80913" lon="6.97858">
        <ele>2341</ele>
        <time>2022-08-27T09:56:35Z</time>
      </trkpt>
      <trkpt lat="45.80915" lon="6.97857">
        <ele>2342</ele>
        <time>2022-08-27T09:56:39Z</time>
      </trkpt>
      <trkpt lat="45.80918" lon="6.97857">
        <ele>2342</ele>
        <time>2022-08-27T09:56:42Z</time>
      </trkpt>
      <trkpt lat="45.8092" lon="6.97859">
        <ele>2343</ele>
        <time>2022-08-27T09:56:45Z</time>
      </trkpt>
      <trkpt lat="45.80921" lon="6.97862">
        <ele>2343</ele>
        <time>2022-08-27T09:56:48Z</time>
      </trkpt>
      <trkpt lat="45.80921" lon="6.97864">
        <ele>2343</ele>
        <time>2022-08-27T09:56:51Z</time>
      </trkpt>
      <trkpt lat="45.80921" lon="6.97867">
        <ele>2344</ele>
        <time>2022-08-27T09:56:55Z</time>
      </trkpt>
      <trkpt lat="45.80921" lon="6.9787">
        <ele>2344</ele>
        <time>2022-08-27T09:56:59Z</time>
      </trkpt>
      <trkpt lat="45.80919" lon="6.97871">
        <ele>2344</ele>
        <time>2022-08-27T09:57:05Z</time>
      </trkpt>
      <trkpt lat="45.80919" lon="6.97871">
        <ele>2344</ele>
        <time>2022-08-27T09:57:17Z</time>
      </trkpt>
      <trkpt lat="45.80919" lon="6.97871">
        <ele>2344</ele>
        <time>2022-08-27T09:57:38Z</time>
      </trkpt>
      <trkpt lat="45.80918" lon="6.97873">
        <ele>2344</ele>
        <time>2022-08-27T09:57:48Z</time>
      </trkpt>
      <trkpt lat="45.80918" lon="6.97873">
        <ele>2344</ele>
        <time>2022-08-27T09:57:57Z</time>
      </trkpt>
      <trkpt lat="45.80918" lon="6.97873">
        <ele>2344</ele>
        <time>2022-08-27T09:58:14Z</time>
      </trkpt>
      <trkpt lat="45.80918" lon="6.97873">
        <ele>2344</ele>
        <time>2022-08-27T09:58:32Z</time>
      </trkpt>
      <trkpt lat="45.80918" lon="6.97873">
        <ele>2343</ele>
        <time>2022-08-27T09:58:49Z</time>
      </trkpt>
      <trkpt lat="45.80918" lon="6.97873">
        <ele>2344</ele>
        <time>2022-08-27T09:59:06Z</time>
      </trkpt>
      <trkpt lat="45.80918" lon="6.97873">
        <ele>2344</ele>
        <time>2022-08-27T09:59:23Z</time>
      </trkpt>
      <trkpt lat="45.80918" lon="6.97873">
        <ele>2344</ele>
        <time>2022-08-27T09:59:42Z</time>
      </trkpt>
      <trkpt lat="45.80918" lon="6.97873">
        <ele>2344</ele>
        <time>2022-08-27T09:59:59Z</time>
      </trkpt>
      <trkpt lat="45.80918" lon="6.9787">
        <ele>2344</ele>
        <time>2022-08-27T10:00:04Z</time>
      </trkpt>
      <trkpt lat="45.80918" lon="6.9787">
        <ele>2344</ele>
        <time>2022-08-27T10:00:20Z</time>
      </trkpt>
      <trkpt lat="45.80918" lon="6.9787">
        <ele>2344</ele>
        <time>2022-08-27T10:00:38Z</time>
      </trkpt>
      <trkpt lat="45.80918" lon="6.9787">
        <ele>2344</ele>
        <time>2022-08-27T10:00:55Z</time>
      </trkpt>
      <trkpt lat="45.80918" lon="6.9787">
        <ele>2344</ele>
        <time>2022-08-27T10:01:11Z</time>
      </trkpt>
      <trkpt lat="45.80918" lon="6.9787">
        <ele>2344</ele>
        <time>2022-08-27T10:01:29Z</time>
      </trkpt>
      <trkpt lat="45.80918" lon="6.9787">
        <ele>2344</ele>
        <time>2022-08-27T10:01:46Z</time>
      </trkpt>
      <trkpt lat="45.80918" lon="6.9787">
        <ele>2344</ele>
        <time>2022-08-27T10:02:03Z</time>
      </trkpt>
      <trkpt lat="45.80918" lon="6.9787">
        <ele>2344</ele>
        <time>2022-08-27T10:02:21Z</time>
      </trkpt>
      <trkpt lat="45.80917" lon="6.97872">
        <ele>2344</ele>
        <time>2022-08-27T10:02:33Z</time>
      </trkpt>
      <trkpt lat="45.80917" lon="6.97872">
        <ele>2344</ele>
        <time>2022-08-27T10:02:41Z</time>
      </trkpt>
      <trkpt lat="45.80917" lon="6.97872">
        <ele>2344</ele>
        <time>2022-08-27T10:02:58Z</time>
      </trkpt>
      <trkpt lat="45.80917" lon="6.97872">
        <ele>2344</ele>
        <time>2022-08-27T10:03:15Z</time>
      </trkpt>
      <trkpt lat="45.80917" lon="6.97872">
        <ele>2344</ele>
        <time>2022-08-27T10:03:32Z</time>
      </trkpt>
      <trkpt lat="45.80919" lon="6.97873">
        <ele>2344</ele>
        <time>2022-08-27T10:03:36Z</time>
      </trkpt>
      <trkpt lat="45.80919" lon="6.97873">
        <ele>2345</ele>
        <time>2022-08-27T10:03:52Z</time>
      </trkpt>
      <trkpt lat="45.80921" lon="6.97875">
        <ele>2344</ele>
        <time>2022-08-27T10:04:02Z</time>
      </trkpt>
      <trkpt lat="45.80921" lon="6.97875">
        <ele>2344</ele>
        <time>2022-08-27T10:04:12Z</time>
      </trkpt>
      <trkpt lat="45.80921" lon="6.97875">
        <ele>2344</ele>
        <time>2022-08-27T10:04:32Z</time>
      </trkpt>
      <trkpt lat="45.80919" lon="6.97875">
        <ele>2344</ele>
        <time>2022-08-27T10:04:37Z</time>
      </trkpt>
      <trkpt lat="45.80919" lon="6.97875">
        <ele>2343</ele>
        <time>2022-08-27T10:04:51Z</time>
      </trkpt>
      <trkpt lat="45.80919" lon="6.97875">
        <ele>2344</ele>
        <time>2022-08-27T10:05:08Z</time>
      </trkpt>
      <trkpt lat="45.80919" lon="6.97875">
        <ele>2344</ele>
        <time>2022-08-27T10:05:25Z</time>
      </trkpt>
      <trkpt lat="45.80919" lon="6.97875">
        <ele>2344</ele>
        <time>2022-08-27T10:05:42Z</time>
      </trkpt>
      <trkpt lat="45.80919" lon="6.97875">
        <ele>2344</ele>
        <time>2022-08-27T10:06:01Z</time>
      </trkpt>
      <trkpt lat="45.80919" lon="6.97875">
        <ele>2343</ele>
        <time>2022-08-27T10:06:19Z</time>
      </trkpt>
      <trkpt lat="45.80919" lon="6.97875">
        <ele>2345</ele>
        <time>2022-08-27T10:06:41Z</time>
      </trkpt>
      <trkpt lat="45.80919" lon="6.97875">
        <ele>2345</ele>
        <time>2022-08-27T10:07:01Z</time>
      </trkpt>
      <trkpt lat="45.80919" lon="6.97875">
        <ele>2345</ele>
        <time>2022-08-27T10:07:21Z</time>
      </trkpt>
      <trkpt lat="45.80917" lon="6.97875">
        <ele>2345</ele>
        <time>2022-08-27T10:07:27Z</time>
      </trkpt>
      <trkpt lat="45.80917" lon="6.97878">
        <ele>2345</ele>
        <time>2022-08-27T10:07:30Z</time>
      </trkpt>
      <trkpt lat="45.80917" lon="6.97881">
        <ele>2345</ele>
        <time>2022-08-27T10:07:33Z</time>
      </trkpt>
      <trkpt lat="45.80917" lon="6.97884">
        <ele>2345</ele>
        <time>2022-08-27T10:07:38Z</time>
      </trkpt>
      <trkpt lat="45.80917" lon="6.97884">
        <ele>2345</ele>
        <time>2022-08-27T10:07:53Z</time>
      </trkpt>
      <trkpt lat="45.80918" lon="6.97887">
        <ele>2345</ele>
        <time>2022-08-27T10:08:02Z</time>
      </trkpt>
      <trkpt lat="45.80918" lon="6.9789">
        <ele>2345</ele>
        <time>2022-08-27T10:08:04Z</time>
      </trkpt>
      <trkpt lat="45.80919" lon="6.97892">
        <ele>2344</ele>
        <time>2022-08-27T10:08:06Z</time>
      </trkpt>
      <trkpt lat="45.80919" lon="6.97896">
        <ele>2344</ele>
        <time>2022-08-27T10:08:09Z</time>
      </trkpt>
      <trkpt lat="45.8092" lon="6.97898">
        <ele>2345</ele>
        <time>2022-08-27T10:08:15Z</time>
      </trkpt>
      <trkpt lat="45.80921" lon="6.97901">
        <ele>2344</ele>
        <time>2022-08-27T10:08:17Z</time>
      </trkpt>
      <trkpt lat="45.80921" lon="6.97904">
        <ele>2343</ele>
        <time>2022-08-27T10:08:20Z</time>
      </trkpt>
      <trkpt lat="45.80921" lon="6.97908">
        <ele>2343</ele>
        <time>2022-08-27T10:08:24Z</time>
      </trkpt>
      <trkpt lat="45.80922" lon="6.9791">
        <ele>2342</ele>
        <time>2022-08-27T10:08:26Z</time>
      </trkpt>
      <trkpt lat="45.80924" lon="6.97912">
        <ele>2342</ele>
        <time>2022-08-27T10:08:28Z</time>
      </trkpt>
      <trkpt lat="45.80925" lon="6.97913">
        <ele>2342</ele>
        <time>2022-08-27T10:08:30Z</time>
      </trkpt>
      <trkpt lat="45.80927" lon="6.97914">
        <ele>2342</ele>
        <time>2022-08-27T10:08:32Z</time>
      </trkpt>
      <trkpt lat="45.8093" lon="6.97916">
        <ele>2342</ele>
        <time>2022-08-27T10:08:35Z</time>
      </trkpt>
      <trkpt lat="45.80932" lon="6.97916">
        <ele>2343</ele>
        <time>2022-08-27T10:08:38Z</time>
      </trkpt>
      <trkpt lat="45.80934" lon="6.97915">
        <ele>2344</ele>
        <time>2022-08-27T10:08:41Z</time>
      </trkpt>
      <trkpt lat="45.80936" lon="6.97914">
        <ele>2345</ele>
        <time>2022-08-27T10:08:45Z</time>
      </trkpt>
      <trkpt lat="45.80937" lon="6.97912">
        <ele>2346</ele>
        <time>2022-08-27T10:08:48Z</time>
      </trkpt>
      <trkpt lat="45.80939" lon="6.97914">
        <ele>2346</ele>
        <time>2022-08-27T10:08:51Z</time>
      </trkpt>
      <trkpt lat="45.8094" lon="6.97917">
        <ele>2347</ele>
        <time>2022-08-27T10:08:54Z</time>
      </trkpt>
      <trkpt lat="45.80942" lon="6.97919">
        <ele>2347</ele>
        <time>2022-08-27T10:08:58Z</time>
      </trkpt>
      <trkpt lat="45.80943" lon="6.97921">
        <ele>2348</ele>
        <time>2022-08-27T10:09:02Z</time>
      </trkpt>
      <trkpt lat="45.80945" lon="6.9792">
        <ele>2349</ele>
        <time>2022-08-27T10:09:08Z</time>
      </trkpt>
      <trkpt lat="45.80946" lon="6.97917">
        <ele>2349</ele>
        <time>2022-08-27T10:09:12Z</time>
      </trkpt>
      <trkpt lat="45.80947" lon="6.97915">
        <ele>2350</ele>
        <time>2022-08-27T10:09:15Z</time>
      </trkpt>
      <trkpt lat="45.80947" lon="6.97912">
        <ele>2350</ele>
        <time>2022-08-27T10:09:18Z</time>
      </trkpt>
      <trkpt lat="45.80947" lon="6.97909">
        <ele>2352</ele>
        <time>2022-08-27T10:09:21Z</time>
      </trkpt>
      <trkpt lat="45.80946" lon="6.97905">
        <ele>2352</ele>
        <time>2022-08-27T10:09:24Z</time>
      </trkpt>
      <trkpt lat="45.80947" lon="6.97902">
        <ele>2352</ele>
        <time>2022-08-27T10:09:27Z</time>
      </trkpt>
      <trkpt lat="45.80947" lon="6.97899">
        <ele>2353</ele>
        <time>2022-08-27T10:09:30Z</time>
      </trkpt>
      <trkpt lat="45.80948" lon="6.97896">
        <ele>2353</ele>
        <time>2022-08-27T10:09:33Z</time>
      </trkpt>
      <trkpt lat="45.8095" lon="6.97895">
        <ele>2353</ele>
        <time>2022-08-27T10:09:36Z</time>
      </trkpt>
      <trkpt lat="45.80952" lon="6.97897">
        <ele>2354</ele>
        <time>2022-08-27T10:09:39Z</time>
      </trkpt>
      <trkpt lat="45.80954" lon="6.97899">
        <ele>2354</ele>
        <time>2022-08-27T10:09:42Z</time>
      </trkpt>
      <trkpt lat="45.80955" lon="6.97902">
        <ele>2355</ele>
        <time>2022-08-27T10:09:45Z</time>
      </trkpt>
      <trkpt lat="45.80957" lon="6.97906">
        <ele>2355</ele>
        <time>2022-08-27T10:09:48Z</time>
      </trkpt>
      <trkpt lat="45.80957" lon="6.97908">
        <ele>2355</ele>
        <time>2022-08-27T10:09:50Z</time>
      </trkpt>
      <trkpt lat="45.80958" lon="6.97911">
        <ele>2356</ele>
        <time>2022-08-27T10:09:52Z</time>
      </trkpt>
      <trkpt lat="45.80958" lon="6.97914">
        <ele>2356</ele>
        <time>2022-08-27T10:09:55Z</time>
      </trkpt>
      <trkpt lat="45.80959" lon="6.97917">
        <ele>2356</ele>
        <time>2022-08-27T10:09:58Z</time>
      </trkpt>
      <trkpt lat="45.8096" lon="6.9792">
        <ele>2357</ele>
        <time>2022-08-27T10:10:01Z</time>
      </trkpt>
      <trkpt lat="45.8096" lon="6.97922">
        <ele>2357</ele>
        <time>2022-08-27T10:10:03Z</time>
      </trkpt>
      <trkpt lat="45.80961" lon="6.97926">
        <ele>2357</ele>
        <time>2022-08-27T10:10:06Z</time>
      </trkpt>
      <trkpt lat="45.80962" lon="6.97929">
        <ele>2358</ele>
        <time>2022-08-27T10:10:09Z</time>
      </trkpt>
      <trkpt lat="45.80963" lon="6.97932">
        <ele>2359</ele>
        <time>2022-08-27T10:10:12Z</time>
      </trkpt>
      <trkpt lat="45.80963" lon="6.97935">
        <ele>2359</ele>
        <time>2022-08-27T10:10:15Z</time>
      </trkpt>
      <trkpt lat="45.80964" lon="6.97939">
        <ele>2359</ele>
        <time>2022-08-27T10:10:18Z</time>
      </trkpt>
      <trkpt lat="45.80964" lon="6.97941">
        <ele>2360</ele>
        <time>2022-08-27T10:10:21Z</time>
      </trkpt>
      <trkpt lat="45.80964" lon="6.97944">
        <ele>2361</ele>
        <time>2022-08-27T10:10:24Z</time>
      </trkpt>
      <trkpt lat="45.80963" lon="6.97947">
        <ele>2361</ele>
        <time>2022-08-27T10:10:27Z</time>
      </trkpt>
      <trkpt lat="45.80962" lon="6.9795">
        <ele>2362</ele>
        <time>2022-08-27T10:10:30Z</time>
      </trkpt>
      <trkpt lat="45.80962" lon="6.97953">
        <ele>2362</ele>
        <time>2022-08-27T10:10:33Z</time>
      </trkpt>
      <trkpt lat="45.80962" lon="6.97956">
        <ele>2362</ele>
        <time>2022-08-27T10:10:36Z</time>
      </trkpt>
      <trkpt lat="45.80961" lon="6.97958">
        <ele>2362</ele>
        <time>2022-08-27T10:10:39Z</time>
      </trkpt>
      <trkpt lat="45.80963" lon="6.97961">
        <ele>2363</ele>
        <time>2022-08-27T10:10:43Z</time>
      </trkpt>
      <trkpt lat="45.80964" lon="6.97963">
        <ele>2363</ele>
        <time>2022-08-27T10:10:46Z</time>
      </trkpt>
      <trkpt lat="45.80966" lon="6.97962">
        <ele>2364</ele>
        <time>2022-08-27T10:10:50Z</time>
      </trkpt>
      <trkpt lat="45.80968" lon="6.9796">
        <ele>2364</ele>
        <time>2022-08-27T10:10:53Z</time>
      </trkpt>
      <trkpt lat="45.80969" lon="6.97957">
        <ele>2365</ele>
        <time>2022-08-27T10:10:59Z</time>
      </trkpt>
      <trkpt lat="45.80969" lon="6.97957">
        <ele>2366</ele>
        <time>2022-08-27T10:11:11Z</time>
      </trkpt>
      <trkpt lat="45.80971" lon="6.97959">
        <ele>2366</ele>
        <time>2022-08-27T10:11:15Z</time>
      </trkpt>
      <trkpt lat="45.80972" lon="6.97962">
        <ele>2367</ele>
        <time>2022-08-27T10:11:18Z</time>
      </trkpt>
      <trkpt lat="45.80973" lon="6.97965">
        <ele>2367</ele>
        <time>2022-08-27T10:11:21Z</time>
      </trkpt>
      <trkpt lat="45.80973" lon="6.97968">
        <ele>2367</ele>
        <time>2022-08-27T10:11:24Z</time>
      </trkpt>
      <trkpt lat="45.80974" lon="6.97971">
        <ele>2368</ele>
        <time>2022-08-27T10:11:28Z</time>
      </trkpt>
      <trkpt lat="45.80976" lon="6.97973">
        <ele>2369</ele>
        <time>2022-08-27T10:11:31Z</time>
      </trkpt>
      <trkpt lat="45.80977" lon="6.97974">
        <ele>2370</ele>
        <time>2022-08-27T10:11:34Z</time>
      </trkpt>
      <trkpt lat="45.80979" lon="6.97976">
        <ele>2370</ele>
        <time>2022-08-27T10:11:38Z</time>
      </trkpt>
      <trkpt lat="45.80982" lon="6.97977">
        <ele>2371</ele>
        <time>2022-08-27T10:11:41Z</time>
      </trkpt>
      <trkpt lat="45.80984" lon="6.97977">
        <ele>2371</ele>
        <time>2022-08-27T10:11:44Z</time>
      </trkpt>
      <trkpt lat="45.80986" lon="6.97978">
        <ele>2372</ele>
        <time>2022-08-27T10:11:47Z</time>
      </trkpt>
      <trkpt lat="45.80988" lon="6.97979">
        <ele>2372</ele>
        <time>2022-08-27T10:11:50Z</time>
      </trkpt>
      <trkpt lat="45.8099" lon="6.97982">
        <ele>2372</ele>
        <time>2022-08-27T10:11:53Z</time>
      </trkpt>
      <trkpt lat="45.80991" lon="6.97984">
        <ele>2373</ele>
        <time>2022-08-27T10:11:56Z</time>
      </trkpt>
      <trkpt lat="45.80992" lon="6.97987">
        <ele>2373</ele>
        <time>2022-08-27T10:12:00Z</time>
      </trkpt>
      <trkpt lat="45.80993" lon="6.9799">
        <ele>2375</ele>
        <time>2022-08-27T10:12:03Z</time>
      </trkpt>
      <trkpt lat="45.80993" lon="6.97993">
        <ele>2375</ele>
        <time>2022-08-27T10:12:06Z</time>
      </trkpt>
      <trkpt lat="45.80994" lon="6.97995">
        <ele>2376</ele>
        <time>2022-08-27T10:12:09Z</time>
      </trkpt>
      <trkpt lat="45.80994" lon="6.97998">
        <ele>2376</ele>
        <time>2022-08-27T10:12:12Z</time>
      </trkpt>
      <trkpt lat="45.80995" lon="6.98001">
        <ele>2378</ele>
        <time>2022-08-27T10:12:16Z</time>
      </trkpt>
      <trkpt lat="45.80997" lon="6.98002">
        <ele>2378</ele>
        <time>2022-08-27T10:12:19Z</time>
      </trkpt>
      <trkpt lat="45.80999" lon="6.98001">
        <ele>2378</ele>
        <time>2022-08-27T10:12:22Z</time>
      </trkpt>
      <trkpt lat="45.81001" lon="6.98">
        <ele>2379</ele>
        <time>2022-08-27T10:12:25Z</time>
      </trkpt>
      <trkpt lat="45.81003" lon="6.97999">
        <ele>2379</ele>
        <time>2022-08-27T10:12:28Z</time>
      </trkpt>
      <trkpt lat="45.81005" lon="6.97999">
        <ele>2380</ele>
        <time>2022-08-27T10:12:31Z</time>
      </trkpt>
      <trkpt lat="45.81007" lon="6.97998">
        <ele>2381</ele>
        <time>2022-08-27T10:12:34Z</time>
      </trkpt>
      <trkpt lat="45.8101" lon="6.97998">
        <ele>2382</ele>
        <time>2022-08-27T10:12:38Z</time>
      </trkpt>
      <trkpt lat="45.81012" lon="6.98">
        <ele>2383</ele>
        <time>2022-08-27T10:12:42Z</time>
      </trkpt>
      <trkpt lat="45.81014" lon="6.98002">
        <ele>2383</ele>
        <time>2022-08-27T10:12:46Z</time>
      </trkpt>
      <trkpt lat="45.81015" lon="6.98004">
        <ele>2383</ele>
        <time>2022-08-27T10:12:50Z</time>
      </trkpt>
      <trkpt lat="45.81016" lon="6.98006">
        <ele>2384</ele>
        <time>2022-08-27T10:12:53Z</time>
      </trkpt>
      <trkpt lat="45.81018" lon="6.98007">
        <ele>2385</ele>
        <time>2022-08-27T10:12:57Z</time>
      </trkpt>
      <trkpt lat="45.8102" lon="6.98008">
        <ele>2385</ele>
        <time>2022-08-27T10:13:01Z</time>
      </trkpt>
      <trkpt lat="45.81022" lon="6.98008">
        <ele>2386</ele>
        <time>2022-08-27T10:13:05Z</time>
      </trkpt>
      <trkpt lat="45.81024" lon="6.98006">
        <ele>2387</ele>
        <time>2022-08-27T10:13:08Z</time>
      </trkpt>
      <trkpt lat="45.81026" lon="6.98004">
        <ele>2387</ele>
        <time>2022-08-27T10:13:12Z</time>
      </trkpt>
      <trkpt lat="45.81027" lon="6.98002">
        <ele>2387</ele>
        <time>2022-08-27T10:13:15Z</time>
      </trkpt>
      <trkpt lat="45.81028" lon="6.97999">
        <ele>2388</ele>
        <time>2022-08-27T10:13:19Z</time>
      </trkpt>
      <trkpt lat="45.81028" lon="6.97996">
        <ele>2388</ele>
        <time>2022-08-27T10:13:22Z</time>
      </trkpt>
      <trkpt lat="45.81029" lon="6.97993">
        <ele>2389</ele>
        <time>2022-08-27T10:13:26Z</time>
      </trkpt>
      <trkpt lat="45.8103" lon="6.97991">
        <ele>2390</ele>
        <time>2022-08-27T10:13:29Z</time>
      </trkpt>
      <trkpt lat="45.81031" lon="6.97987">
        <ele>2390</ele>
        <time>2022-08-27T10:13:33Z</time>
      </trkpt>
      <trkpt lat="45.81032" lon="6.97985">
        <ele>2391</ele>
        <time>2022-08-27T10:13:36Z</time>
      </trkpt>
      <trkpt lat="45.81034" lon="6.97983">
        <ele>2392</ele>
        <time>2022-08-27T10:13:39Z</time>
      </trkpt>
      <trkpt lat="45.81036" lon="6.97981">
        <ele>2393</ele>
        <time>2022-08-27T10:13:43Z</time>
      </trkpt>
      <trkpt lat="45.81037" lon="6.97979">
        <ele>2393</ele>
        <time>2022-08-27T10:13:46Z</time>
      </trkpt>
      <trkpt lat="45.81038" lon="6.97977">
        <ele>2393</ele>
        <time>2022-08-27T10:13:49Z</time>
      </trkpt>
      <trkpt lat="45.81039" lon="6.97975">
        <ele>2394</ele>
        <time>2022-08-27T10:13:51Z</time>
      </trkpt>
      <trkpt lat="45.81041" lon="6.97972">
        <ele>2394</ele>
        <time>2022-08-27T10:13:54Z</time>
      </trkpt>
      <trkpt lat="45.81042" lon="6.97969">
        <ele>2393</ele>
        <time>2022-08-27T10:13:57Z</time>
      </trkpt>
      <trkpt lat="45.81042" lon="6.97969">
        <ele>2394</ele>
        <time>2022-08-27T10:14:09Z</time>
      </trkpt>
      <trkpt lat="45.81042" lon="6.97969">
        <ele>2394</ele>
        <time>2022-08-27T10:14:26Z</time>
      </trkpt>
      <trkpt lat="45.81042" lon="6.97967">
        <ele>2394</ele>
        <time>2022-08-27T10:14:31Z</time>
      </trkpt>
      <trkpt lat="45.81045" lon="6.97966">
        <ele>2394</ele>
        <time>2022-08-27T10:14:39Z</time>
      </trkpt>
      <trkpt lat="45.81047" lon="6.97967">
        <ele>2394</ele>
        <time>2022-08-27T10:14:41Z</time>
      </trkpt>
      <trkpt lat="45.81049" lon="6.97967">
        <ele>2395</ele>
        <time>2022-08-27T10:14:43Z</time>
      </trkpt>
      <trkpt lat="45.81052" lon="6.97967">
        <ele>2395</ele>
        <time>2022-08-27T10:14:45Z</time>
      </trkpt>
      <trkpt lat="45.81054" lon="6.97967">
        <ele>2395</ele>
        <time>2022-08-27T10:14:47Z</time>
      </trkpt>
      <trkpt lat="45.81056" lon="6.97968">
        <ele>2395</ele>
        <time>2022-08-27T10:14:49Z</time>
      </trkpt>
      <trkpt lat="45.81058" lon="6.97969">
        <ele>2395</ele>
        <time>2022-08-27T10:14:51Z</time>
      </trkpt>
      <trkpt lat="45.81061" lon="6.97971">
        <ele>2395</ele>
        <time>2022-08-27T10:14:53Z</time>
      </trkpt>
      <trkpt lat="45.81064" lon="6.97971">
        <ele>2394</ele>
        <time>2022-08-27T10:14:55Z</time>
      </trkpt>
      <trkpt lat="45.81066" lon="6.97971">
        <ele>2395</ele>
        <time>2022-08-27T10:14:57Z</time>
      </trkpt>
      <trkpt lat="45.81069" lon="6.9797">
        <ele>2395</ele>
        <time>2022-08-27T10:14:59Z</time>
      </trkpt>
      <trkpt lat="45.81071" lon="6.9797">
        <ele>2395</ele>
        <time>2022-08-27T10:15:00Z</time>
      </trkpt>
      <trkpt lat="45.81074" lon="6.97971">
        <ele>2395</ele>
        <time>2022-08-27T10:15:03Z</time>
      </trkpt>
      <trkpt lat="45.81076" lon="6.97972">
        <ele>2395</ele>
        <time>2022-08-27T10:15:05Z</time>
      </trkpt>
      <trkpt lat="45.81079" lon="6.97973">
        <ele>2394</ele>
        <time>2022-08-27T10:15:07Z</time>
      </trkpt>
      <trkpt lat="45.81082" lon="6.97973">
        <ele>2394</ele>
        <time>2022-08-27T10:15:09Z</time>
      </trkpt>
      <trkpt lat="45.81085" lon="6.9797">
        <ele>2394</ele>
        <time>2022-08-27T10:15:11Z</time>
      </trkpt>
      <trkpt lat="45.81087" lon="6.97967">
        <ele>2394</ele>
        <time>2022-08-27T10:15:13Z</time>
      </trkpt>
      <trkpt lat="45.81089" lon="6.97964">
        <ele>2394</ele>
        <time>2022-08-27T10:15:15Z</time>
      </trkpt>
      <trkpt lat="45.81091" lon="6.97962">
        <ele>2393</ele>
        <time>2022-08-27T10:15:17Z</time>
      </trkpt>
      <trkpt lat="45.81093" lon="6.9796">
        <ele>2393</ele>
        <time>2022-08-27T10:15:19Z</time>
      </trkpt>
      <trkpt lat="45.81096" lon="6.97959">
        <ele>2393</ele>
        <time>2022-08-27T10:15:21Z</time>
      </trkpt>
      <trkpt lat="45.81098" lon="6.97957">
        <ele>2393</ele>
        <time>2022-08-27T10:15:23Z</time>
      </trkpt>
      <trkpt lat="45.81099" lon="6.97955">
        <ele>2393</ele>
        <time>2022-08-27T10:15:25Z</time>
      </trkpt>
      <trkpt lat="45.81101" lon="6.97953">
        <ele>2394</ele>
        <time>2022-08-27T10:15:27Z</time>
      </trkpt>
      <trkpt lat="45.81103" lon="6.97951">
        <ele>2394</ele>
        <time>2022-08-27T10:15:30Z</time>
      </trkpt>
      <trkpt lat="45.81104" lon="6.97949">
        <ele>2394</ele>
        <time>2022-08-27T10:15:32Z</time>
      </trkpt>
      <trkpt lat="45.81106" lon="6.97947">
        <ele>2394</ele>
        <time>2022-08-27T10:15:34Z</time>
      </trkpt>
      <trkpt lat="45.81108" lon="6.97944">
        <ele>2395</ele>
        <time>2022-08-27T10:15:36Z</time>
      </trkpt>
      <trkpt lat="45.8111" lon="6.97942">
        <ele>2395</ele>
        <time>2022-08-27T10:15:38Z</time>
      </trkpt>
      <trkpt lat="45.81111" lon="6.9794">
        <ele>2395</ele>
        <time>2022-08-27T10:15:40Z</time>
      </trkpt>
      <trkpt lat="45.81113" lon="6.97938">
        <ele>2394</ele>
        <time>2022-08-27T10:15:42Z</time>
      </trkpt>
      <trkpt lat="45.81116" lon="6.97935">
        <ele>2394</ele>
        <time>2022-08-27T10:15:44Z</time>
      </trkpt>
      <trkpt lat="45.81118" lon="6.97932">
        <ele>2393</ele>
        <time>2022-08-27T10:15:46Z</time>
      </trkpt>
      <trkpt lat="45.8112" lon="6.97929">
        <ele>2392</ele>
        <time>2022-08-27T10:15:48Z</time>
      </trkpt>
      <trkpt lat="45.81122" lon="6.97925">
        <ele>2391</ele>
        <time>2022-08-27T10:15:50Z</time>
      </trkpt>
      <trkpt lat="45.81124" lon="6.97921">
        <ele>2391</ele>
        <time>2022-08-27T10:15:52Z</time>
      </trkpt>
      <trkpt lat="45.81125" lon="6.97917">
        <ele>2391</ele>
        <time>2022-08-27T10:15:54Z</time>
      </trkpt>
      <trkpt lat="45.81126" lon="6.97912">
        <ele>2391</ele>
        <time>2022-08-27T10:15:56Z</time>
      </trkpt>
      <trkpt lat="45.81128" lon="6.97907">
        <ele>2390</ele>
        <time>2022-08-27T10:15:58Z</time>
      </trkpt>
      <trkpt lat="45.81129" lon="6.97904">
        <ele>2390</ele>
        <time>2022-08-27T10:15:59Z</time>
      </trkpt>
      <trkpt lat="45.8113" lon="6.97902">
        <ele>2389</ele>
        <time>2022-08-27T10:16:00Z</time>
      </trkpt>
      <trkpt lat="45.81131" lon="6.979">
        <ele>2389</ele>
        <time>2022-08-27T10:16:01Z</time>
      </trkpt>
      <trkpt lat="45.81133" lon="6.97899">
        <ele>2389</ele>
        <time>2022-08-27T10:16:02Z</time>
      </trkpt>
      <trkpt lat="45.81135" lon="6.97897">
        <ele>2389</ele>
        <time>2022-08-27T10:16:04Z</time>
      </trkpt>
      <trkpt lat="45.81138" lon="6.97896">
        <ele>2389</ele>
        <time>2022-08-27T10:16:06Z</time>
      </trkpt>
      <trkpt lat="45.8114" lon="6.97894">
        <ele>2389</ele>
        <time>2022-08-27T10:16:08Z</time>
      </trkpt>
      <trkpt lat="45.81141" lon="6.97891">
        <ele>2389</ele>
        <time>2022-08-27T10:16:10Z</time>
      </trkpt>
      <trkpt lat="45.81143" lon="6.97887">
        <ele>2389</ele>
        <time>2022-08-27T10:16:12Z</time>
      </trkpt>
      <trkpt lat="45.81144" lon="6.97885">
        <ele>2389</ele>
        <time>2022-08-27T10:16:13Z</time>
      </trkpt>
      <trkpt lat="45.81145" lon="6.97882">
        <ele>2389</ele>
        <time>2022-08-27T10:16:14Z</time>
      </trkpt>
      <trkpt lat="45.81146" lon="6.9788">
        <ele>2388</ele>
        <time>2022-08-27T10:16:15Z</time>
      </trkpt>
      <trkpt lat="45.81148" lon="6.97877">
        <ele>2388</ele>
        <time>2022-08-27T10:16:17Z</time>
      </trkpt>
      <trkpt lat="45.8115" lon="6.97874">
        <ele>2388</ele>
        <time>2022-08-27T10:16:19Z</time>
      </trkpt>
      <trkpt lat="45.81153" lon="6.97872">
        <ele>2388</ele>
        <time>2022-08-27T10:16:21Z</time>
      </trkpt>
      <trkpt lat="45.81155" lon="6.97869">
        <ele>2387</ele>
        <time>2022-08-27T10:16:23Z</time>
      </trkpt>
      <trkpt lat="45.81156" lon="6.97867">
        <ele>2387</ele>
        <time>2022-08-27T10:16:24Z</time>
      </trkpt>
      <trkpt lat="45.81159" lon="6.97864">
        <ele>2387</ele>
        <time>2022-08-27T10:16:26Z</time>
      </trkpt>
      <trkpt lat="45.81161" lon="6.97861">
        <ele>2386</ele>
        <time>2022-08-27T10:16:28Z</time>
      </trkpt>
      <trkpt lat="45.81164" lon="6.97859">
        <ele>2386</ele>
        <time>2022-08-27T10:16:30Z</time>
      </trkpt>
      <trkpt lat="45.81166" lon="6.97857">
        <ele>2386</ele>
        <time>2022-08-27T10:16:32Z</time>
      </trkpt>
      <trkpt lat="45.81169" lon="6.97856">
        <ele>2386</ele>
        <time>2022-08-27T10:16:34Z</time>
      </trkpt>
      <trkpt lat="45.81171" lon="6.97855">
        <ele>2386</ele>
        <time>2022-08-27T10:16:36Z</time>
      </trkpt>
      <trkpt lat="45.81173" lon="6.97855">
        <ele>2386</ele>
        <time>2022-08-27T10:16:38Z</time>
      </trkpt>
      <trkpt lat="45.81176" lon="6.97855">
        <ele>2386</ele>
        <time>2022-08-27T10:16:40Z</time>
      </trkpt>
      <trkpt lat="45.81178" lon="6.97855">
        <ele>2386</ele>
        <time>2022-08-27T10:16:42Z</time>
      </trkpt>
      <trkpt lat="45.81181" lon="6.97855">
        <ele>2386</ele>
        <time>2022-08-27T10:16:44Z</time>
      </trkpt>
      <trkpt lat="45.81183" lon="6.97854">
        <ele>2387</ele>
        <time>2022-08-27T10:16:46Z</time>
      </trkpt>
      <trkpt lat="45.81185" lon="6.97853">
        <ele>2387</ele>
        <time>2022-08-27T10:16:48Z</time>
      </trkpt>
      <trkpt lat="45.81187" lon="6.97851">
        <ele>2387</ele>
        <time>2022-08-27T10:16:50Z</time>
      </trkpt>
      <trkpt lat="45.81189" lon="6.97848">
        <ele>2387</ele>
        <time>2022-08-27T10:16:52Z</time>
      </trkpt>
      <trkpt lat="45.81192" lon="6.97847">
        <ele>2387</ele>
        <time>2022-08-27T10:16:54Z</time>
      </trkpt>
      <trkpt lat="45.81194" lon="6.97845">
        <ele>2387</ele>
        <time>2022-08-27T10:16:56Z</time>
      </trkpt>
      <trkpt lat="45.81196" lon="6.97843">
        <ele>2386</ele>
        <time>2022-08-27T10:16:58Z</time>
      </trkpt>
      <trkpt lat="45.81198" lon="6.97841">
        <ele>2386</ele>
        <time>2022-08-27T10:17:00Z</time>
      </trkpt>
      <trkpt lat="45.81201" lon="6.9784">
        <ele>2386</ele>
        <time>2022-08-27T10:17:02Z</time>
      </trkpt>
      <trkpt lat="45.81203" lon="6.97839">
        <ele>2386</ele>
        <time>2022-08-27T10:17:04Z</time>
      </trkpt>
      <trkpt lat="45.81206" lon="6.97838">
        <ele>2387</ele>
        <time>2022-08-27T10:17:06Z</time>
      </trkpt>
      <trkpt lat="45.81208" lon="6.97837">
        <ele>2387</ele>
        <time>2022-08-27T10:17:08Z</time>
      </trkpt>
      <trkpt lat="45.8121" lon="6.97838">
        <ele>2387</ele>
        <time>2022-08-27T10:17:10Z</time>
      </trkpt>
      <trkpt lat="45.81212" lon="6.97836">
        <ele>2388</ele>
        <time>2022-08-27T10:17:13Z</time>
      </trkpt>
      <trkpt lat="45.81215" lon="6.97836">
        <ele>2388</ele>
        <time>2022-08-27T10:17:15Z</time>
      </trkpt>
      <trkpt lat="45.81218" lon="6.97836">
        <ele>2387</ele>
        <time>2022-08-27T10:17:17Z</time>
      </trkpt>
      <trkpt lat="45.81222" lon="6.97836">
        <ele>2387</ele>
        <time>2022-08-27T10:17:19Z</time>
      </trkpt>
      <trkpt lat="45.81224" lon="6.97835">
        <ele>2387</ele>
        <time>2022-08-27T10:17:21Z</time>
      </trkpt>
      <trkpt lat="45.81227" lon="6.97834">
        <ele>2387</ele>
        <time>2022-08-27T10:17:23Z</time>
      </trkpt>
      <trkpt lat="45.81229" lon="6.97833">
        <ele>2387</ele>
        <time>2022-08-27T10:17:25Z</time>
      </trkpt>
      <trkpt lat="45.81232" lon="6.97832">
        <ele>2386</ele>
        <time>2022-08-27T10:17:27Z</time>
      </trkpt>
      <trkpt lat="45.81235" lon="6.97832">
        <ele>2385</ele>
        <time>2022-08-27T10:17:29Z</time>
      </trkpt>
      <trkpt lat="45.81237" lon="6.97831">
        <ele>2385</ele>
        <time>2022-08-27T10:17:30Z</time>
      </trkpt>
      <trkpt lat="45.8124" lon="6.97831">
        <ele>2385</ele>
        <time>2022-08-27T10:17:32Z</time>
      </trkpt>
      <trkpt lat="45.81244" lon="6.97831">
        <ele>2384</ele>
        <time>2022-08-27T10:17:34Z</time>
      </trkpt>
      <trkpt lat="45.81247" lon="6.97832">
        <ele>2384</ele>
        <time>2022-08-27T10:17:36Z</time>
      </trkpt>
      <trkpt lat="45.81249" lon="6.97832">
        <ele>2384</ele>
        <time>2022-08-27T10:17:37Z</time>
      </trkpt>
      <trkpt lat="45.81252" lon="6.97832">
        <ele>2384</ele>
        <time>2022-08-27T10:17:38Z</time>
      </trkpt>
      <trkpt lat="45.81253" lon="6.97832">
        <ele>2384</ele>
        <time>2022-08-27T10:17:39Z</time>
      </trkpt>
      <trkpt lat="45.81256" lon="6.97832">
        <ele>2384</ele>
        <time>2022-08-27T10:17:41Z</time>
      </trkpt>
      <trkpt lat="45.81259" lon="6.97834">
        <ele>2383</ele>
        <time>2022-08-27T10:17:43Z</time>
      </trkpt>
      <trkpt lat="45.81262" lon="6.97834">
        <ele>2383</ele>
        <time>2022-08-27T10:17:45Z</time>
      </trkpt>
      <trkpt lat="45.81266" lon="6.97835">
        <ele>2383</ele>
        <time>2022-08-27T10:17:47Z</time>
      </trkpt>
      <trkpt lat="45.81268" lon="6.97835">
        <ele>2383</ele>
        <time>2022-08-27T10:17:48Z</time>
      </trkpt>
      <trkpt lat="45.81269" lon="6.97835">
        <ele>2383</ele>
        <time>2022-08-27T10:17:49Z</time>
      </trkpt>
      <trkpt lat="45.81271" lon="6.97835">
        <ele>2383</ele>
        <time>2022-08-27T10:17:50Z</time>
      </trkpt>
      <trkpt lat="45.81273" lon="6.97835">
        <ele>2383</ele>
        <time>2022-08-27T10:17:51Z</time>
      </trkpt>
      <trkpt lat="45.81276" lon="6.97835">
        <ele>2383</ele>
        <time>2022-08-27T10:17:52Z</time>
      </trkpt>
      <trkpt lat="45.81278" lon="6.97835">
        <ele>2382</ele>
        <time>2022-08-27T10:17:53Z</time>
      </trkpt>
      <trkpt lat="45.8128" lon="6.97835">
        <ele>2382</ele>
        <time>2022-08-27T10:17:54Z</time>
      </trkpt>
      <trkpt lat="45.81281" lon="6.97834">
        <ele>2382</ele>
        <time>2022-08-27T10:17:55Z</time>
      </trkpt>
      <trkpt lat="45.81285" lon="6.97833">
        <ele>2382</ele>
        <time>2022-08-27T10:17:57Z</time>
      </trkpt>
      <trkpt lat="45.81288" lon="6.9783">
        <ele>2381</ele>
        <time>2022-08-27T10:17:59Z</time>
      </trkpt>
      <trkpt lat="45.8129" lon="6.97827">
        <ele>2381</ele>
        <time>2022-08-27T10:18:01Z</time>
      </trkpt>
      <trkpt lat="45.81292" lon="6.97823">
        <ele>2381</ele>
        <time>2022-08-27T10:18:03Z</time>
      </trkpt>
      <trkpt lat="45.81293" lon="6.97819">
        <ele>2381</ele>
        <time>2022-08-27T10:18:05Z</time>
      </trkpt>
      <trkpt lat="45.81295" lon="6.97815">
        <ele>2381</ele>
        <time>2022-08-27T10:18:07Z</time>
      </trkpt>
      <trkpt lat="45.81298" lon="6.97813">
        <ele>2381</ele>
        <time>2022-08-27T10:18:09Z</time>
      </trkpt>
      <trkpt lat="45.813" lon="6.97811">
        <ele>2381</ele>
        <time>2022-08-27T10:18:11Z</time>
      </trkpt>
      <trkpt lat="45.81302" lon="6.9781">
        <ele>2380</ele>
        <time>2022-08-27T10:18:13Z</time>
      </trkpt>
      <trkpt lat="45.81304" lon="6.9781">
        <ele>2380</ele>
        <time>2022-08-27T10:18:15Z</time>
      </trkpt>
      <trkpt lat="45.81307" lon="6.9781">
        <ele>2379</ele>
        <time>2022-08-27T10:18:17Z</time>
      </trkpt>
      <trkpt lat="45.81309" lon="6.9781">
        <ele>2379</ele>
        <time>2022-08-27T10:18:19Z</time>
      </trkpt>
      <trkpt lat="45.81311" lon="6.97809">
        <ele>2378</ele>
        <time>2022-08-27T10:18:21Z</time>
      </trkpt>
      <trkpt lat="45.81313" lon="6.97809">
        <ele>2376</ele>
        <time>2022-08-27T10:18:23Z</time>
      </trkpt>
      <trkpt lat="45.81316" lon="6.97808">
        <ele>2375</ele>
        <time>2022-08-27T10:18:25Z</time>
      </trkpt>
      <trkpt lat="45.81318" lon="6.97808">
        <ele>2374</ele>
        <time>2022-08-27T10:18:27Z</time>
      </trkpt>
      <trkpt lat="45.8132" lon="6.97807">
        <ele>2374</ele>
        <time>2022-08-27T10:18:29Z</time>
      </trkpt>
      <trkpt lat="45.81322" lon="6.97807">
        <ele>2373</ele>
        <time>2022-08-27T10:18:31Z</time>
      </trkpt>
      <trkpt lat="45.81325" lon="6.97806">
        <ele>2372</ele>
        <time>2022-08-27T10:18:33Z</time>
      </trkpt>
      <trkpt lat="45.81328" lon="6.97806">
        <ele>2371</ele>
        <time>2022-08-27T10:18:35Z</time>
      </trkpt>
      <trkpt lat="45.8133" lon="6.97806">
        <ele>2371</ele>
        <time>2022-08-27T10:18:36Z</time>
      </trkpt>
      <trkpt lat="45.81333" lon="6.97806">
        <ele>2371</ele>
        <time>2022-08-27T10:18:37Z</time>
      </trkpt>
      <trkpt lat="45.81334" lon="6.97806">
        <ele>2371</ele>
        <time>2022-08-27T10:18:38Z</time>
      </trkpt>
      <trkpt lat="45.81336" lon="6.97807">
        <ele>2371</ele>
        <time>2022-08-27T10:18:39Z</time>
      </trkpt>
      <trkpt lat="45.81339" lon="6.97808">
        <ele>2369</ele>
        <time>2022-08-27T10:18:41Z</time>
      </trkpt>
      <trkpt lat="45.81343" lon="6.97809">
        <ele>2369</ele>
        <time>2022-08-27T10:18:43Z</time>
      </trkpt>
      <trkpt lat="45.81346" lon="6.9781">
        <ele>2369</ele>
        <time>2022-08-27T10:18:45Z</time>
      </trkpt>
      <trkpt lat="45.8135" lon="6.97809">
        <ele>2369</ele>
        <time>2022-08-27T10:18:47Z</time>
      </trkpt>
      <trkpt lat="45.81353" lon="6.97811">
        <ele>2369</ele>
        <time>2022-08-27T10:18:49Z</time>
      </trkpt>
      <trkpt lat="45.81356" lon="6.97811">
        <ele>2368</ele>
        <time>2022-08-27T10:18:51Z</time>
      </trkpt>
      <trkpt lat="45.81358" lon="6.9781">
        <ele>2368</ele>
        <time>2022-08-27T10:18:53Z</time>
      </trkpt>
      <trkpt lat="45.81361" lon="6.9781">
        <ele>2368</ele>
        <time>2022-08-27T10:18:55Z</time>
      </trkpt>
      <trkpt lat="45.81363" lon="6.9781">
        <ele>2368</ele>
        <time>2022-08-27T10:18:56Z</time>
      </trkpt>
      <trkpt lat="45.81366" lon="6.9781">
        <ele>2368</ele>
        <time>2022-08-27T10:18:57Z</time>
      </trkpt>
      <trkpt lat="45.81368" lon="6.9781">
        <ele>2368</ele>
        <time>2022-08-27T10:18:58Z</time>
      </trkpt>
      <trkpt lat="45.8137" lon="6.9781">
        <ele>2367</ele>
        <time>2022-08-27T10:18:59Z</time>
      </trkpt>
      <trkpt lat="45.81372" lon="6.97811">
        <ele>2367</ele>
        <time>2022-08-27T10:19:00Z</time>
      </trkpt>
      <trkpt lat="45.81375" lon="6.9781">
        <ele>2367</ele>
        <time>2022-08-27T10:19:02Z</time>
      </trkpt>
      <trkpt lat="45.81378" lon="6.9781">
        <ele>2367</ele>
        <time>2022-08-27T10:19:04Z</time>
      </trkpt>
      <trkpt lat="45.81381" lon="6.9781">
        <ele>2366</ele>
        <time>2022-08-27T10:19:05Z</time>
      </trkpt>
      <trkpt lat="45.81382" lon="6.9781">
        <ele>2366</ele>
        <time>2022-08-27T10:19:06Z</time>
      </trkpt>
      <trkpt lat="45.81384" lon="6.97811">
        <ele>2366</ele>
        <time>2022-08-27T10:19:07Z</time>
      </trkpt>
      <trkpt lat="45.81386" lon="6.97811">
        <ele>2366</ele>
        <time>2022-08-27T10:19:08Z</time>
      </trkpt>
      <trkpt lat="45.81388" lon="6.97811">
        <ele>2366</ele>
        <time>2022-08-27T10:19:09Z</time>
      </trkpt>
      <trkpt lat="45.8139" lon="6.97811">
        <ele>2366</ele>
        <time>2022-08-27T10:19:10Z</time>
      </trkpt>
      <trkpt lat="45.81392" lon="6.97812">
        <ele>2366</ele>
        <time>2022-08-27T10:19:11Z</time>
      </trkpt>
      <trkpt lat="45.81394" lon="6.97812">
        <ele>2366</ele>
        <time>2022-08-27T10:19:12Z</time>
      </trkpt>
      <trkpt lat="45.81395" lon="6.97813">
        <ele>2366</ele>
        <time>2022-08-27T10:19:13Z</time>
      </trkpt>
      <trkpt lat="45.81397" lon="6.97813">
        <ele>2366</ele>
        <time>2022-08-27T10:19:14Z</time>
      </trkpt>
      <trkpt lat="45.81401" lon="6.97813">
        <ele>2366</ele>
        <time>2022-08-27T10:19:16Z</time>
      </trkpt>
      <trkpt lat="45.81404" lon="6.97814">
        <ele>2366</ele>
        <time>2022-08-27T10:19:18Z</time>
      </trkpt>
      <trkpt lat="45.81407" lon="6.97815">
        <ele>2366</ele>
        <time>2022-08-27T10:19:20Z</time>
      </trkpt>
      <trkpt lat="45.8141" lon="6.97816">
        <ele>2367</ele>
        <time>2022-08-27T10:19:22Z</time>
      </trkpt>
      <trkpt lat="45.81412" lon="6.97817">
        <ele>2367</ele>
        <time>2022-08-27T10:19:24Z</time>
      </trkpt>
      <trkpt lat="45.81415" lon="6.97817">
        <ele>2367</ele>
        <time>2022-08-27T10:19:26Z</time>
      </trkpt>
      <trkpt lat="45.81418" lon="6.97817">
        <ele>2367</ele>
        <time>2022-08-27T10:19:28Z</time>
      </trkpt>
      <trkpt lat="45.81421" lon="6.97818">
        <ele>2367</ele>
        <time>2022-08-27T10:19:30Z</time>
      </trkpt>
      <trkpt lat="45.81423" lon="6.97816">
        <ele>2367</ele>
        <time>2022-08-27T10:19:32Z</time>
      </trkpt>
      <trkpt lat="45.81427" lon="6.97816">
        <ele>2367</ele>
        <time>2022-08-27T10:19:34Z</time>
      </trkpt>
      <trkpt lat="45.81432" lon="6.97816">
        <ele>2367</ele>
        <time>2022-08-27T10:19:36Z</time>
      </trkpt>
      <trkpt lat="45.81433" lon="6.97816">
        <ele>2367</ele>
        <time>2022-08-27T10:19:37Z</time>
      </trkpt>
      <trkpt lat="45.81435" lon="6.97817">
        <ele>2366</ele>
        <time>2022-08-27T10:19:38Z</time>
      </trkpt>
      <trkpt lat="45.81437" lon="6.97818">
        <ele>2366</ele>
        <time>2022-08-27T10:19:39Z</time>
      </trkpt>
      <trkpt lat="45.81439" lon="6.97819">
        <ele>2366</ele>
        <time>2022-08-27T10:19:40Z</time>
      </trkpt>
      <trkpt lat="45.81443" lon="6.9782">
        <ele>2366</ele>
        <time>2022-08-27T10:19:42Z</time>
      </trkpt>
      <trkpt lat="45.81444" lon="6.9782">
        <ele>2366</ele>
        <time>2022-08-27T10:19:43Z</time>
      </trkpt>
      <trkpt lat="45.81446" lon="6.97821">
        <ele>2366</ele>
        <time>2022-08-27T10:19:44Z</time>
      </trkpt>
      <trkpt lat="45.81448" lon="6.9782">
        <ele>2365</ele>
        <time>2022-08-27T10:19:45Z</time>
      </trkpt>
      <trkpt lat="45.8145" lon="6.9782">
        <ele>2365</ele>
        <time>2022-08-27T10:19:46Z</time>
      </trkpt>
      <trkpt lat="45.81452" lon="6.9782">
        <ele>2365</ele>
        <time>2022-08-27T10:19:47Z</time>
      </trkpt>
      <trkpt lat="45.81454" lon="6.97819">
        <ele>2365</ele>
        <time>2022-08-27T10:19:48Z</time>
      </trkpt>
      <trkpt lat="45.81456" lon="6.97818">
        <ele>2365</ele>
        <time>2022-08-27T10:19:49Z</time>
      </trkpt>
      <trkpt lat="45.81458" lon="6.97818">
        <ele>2365</ele>
        <time>2022-08-27T10:19:50Z</time>
      </trkpt>
      <trkpt lat="45.81461" lon="6.97815">
        <ele>2365</ele>
        <time>2022-08-27T10:19:52Z</time>
      </trkpt>
      <trkpt lat="45.81463" lon="6.97814">
        <ele>2365</ele>
        <time>2022-08-27T10:19:53Z</time>
      </trkpt>
      <trkpt lat="45.81465" lon="6.9781">
        <ele>2365</ele>
        <time>2022-08-27T10:19:55Z</time>
      </trkpt>
      <trkpt lat="45.81465" lon="6.97807">
        <ele>2365</ele>
        <time>2022-08-27T10:19:57Z</time>
      </trkpt>
      <trkpt lat="45.81464" lon="6.97804">
        <ele>2366</ele>
        <time>2022-08-27T10:19:59Z</time>
      </trkpt>
      <trkpt lat="45.81464" lon="6.97801">
        <ele>2366</ele>
        <time>2022-08-27T10:20:01Z</time>
      </trkpt>
      <trkpt lat="45.81463" lon="6.97798">
        <ele>2366</ele>
        <time>2022-08-27T10:20:04Z</time>
      </trkpt>
      <trkpt lat="45.81464" lon="6.97795">
        <ele>2367</ele>
        <time>2022-08-27T10:20:08Z</time>
      </trkpt>
      <trkpt lat="45.81465" lon="6.97793">
        <ele>2367</ele>
        <time>2022-08-27T10:20:10Z</time>
      </trkpt>
      <trkpt lat="45.81466" lon="6.9779">
        <ele>2368</ele>
        <time>2022-08-27T10:20:12Z</time>
      </trkpt>
      <trkpt lat="45.81467" lon="6.97788">
        <ele>2368</ele>
        <time>2022-08-27T10:20:14Z</time>
      </trkpt>
      <trkpt lat="45.8147" lon="6.97785">
        <ele>2369</ele>
        <time>2022-08-27T10:20:16Z</time>
      </trkpt>
      <trkpt lat="45.81473" lon="6.97783">
        <ele>2369</ele>
        <time>2022-08-27T10:20:18Z</time>
      </trkpt>
      <trkpt lat="45.81476" lon="6.97781">
        <ele>2368</ele>
        <time>2022-08-27T10:20:20Z</time>
      </trkpt>
      <trkpt lat="45.81478" lon="6.97781">
        <ele>2368</ele>
        <time>2022-08-27T10:20:21Z</time>
      </trkpt>
      <trkpt lat="45.8148" lon="6.97781">
        <ele>2367</ele>
        <time>2022-08-27T10:20:22Z</time>
      </trkpt>
      <trkpt lat="45.81482" lon="6.97781">
        <ele>2367</ele>
        <time>2022-08-27T10:20:23Z</time>
      </trkpt>
      <trkpt lat="45.81485" lon="6.97781">
        <ele>2367</ele>
        <time>2022-08-27T10:20:25Z</time>
      </trkpt>
      <trkpt lat="45.81487" lon="6.9778">
        <ele>2367</ele>
        <time>2022-08-27T10:20:26Z</time>
      </trkpt>
      <trkpt lat="45.81491" lon="6.97779">
        <ele>2367</ele>
        <time>2022-08-27T10:20:28Z</time>
      </trkpt>
      <trkpt lat="45.81493" lon="6.97779">
        <ele>2367</ele>
        <time>2022-08-27T10:20:30Z</time>
      </trkpt>
      <trkpt lat="45.81497" lon="6.97778">
        <ele>2367</ele>
        <time>2022-08-27T10:20:32Z</time>
      </trkpt>
      <trkpt lat="45.815" lon="6.97777">
        <ele>2367</ele>
        <time>2022-08-27T10:20:34Z</time>
      </trkpt>
      <trkpt lat="45.81502" lon="6.97778">
        <ele>2367</ele>
        <time>2022-08-27T10:20:35Z</time>
      </trkpt>
      <trkpt lat="45.81503" lon="6.97779">
        <ele>2368</ele>
        <time>2022-08-27T10:20:36Z</time>
      </trkpt>
      <trkpt lat="45.81505" lon="6.9778">
        <ele>2368</ele>
        <time>2022-08-27T10:20:37Z</time>
      </trkpt>
      <trkpt lat="45.81509" lon="6.97781">
        <ele>2368</ele>
        <time>2022-08-27T10:20:39Z</time>
      </trkpt>
      <trkpt lat="45.81512" lon="6.97781">
        <ele>2368</ele>
        <time>2022-08-27T10:20:41Z</time>
      </trkpt>
      <trkpt lat="45.81514" lon="6.97782">
        <ele>2368</ele>
        <time>2022-08-27T10:20:42Z</time>
      </trkpt>
      <trkpt lat="45.81516" lon="6.97782">
        <ele>2368</ele>
        <time>2022-08-27T10:20:43Z</time>
      </trkpt>
      <trkpt lat="45.81518" lon="6.97783">
        <ele>2368</ele>
        <time>2022-08-27T10:20:44Z</time>
      </trkpt>
      <trkpt lat="45.8152" lon="6.97782">
        <ele>2368</ele>
        <time>2022-08-27T10:20:45Z</time>
      </trkpt>
      <trkpt lat="45.81522" lon="6.97783">
        <ele>2368</ele>
        <time>2022-08-27T10:20:46Z</time>
      </trkpt>
      <trkpt lat="45.81524" lon="6.97783">
        <ele>2368</ele>
        <time>2022-08-27T10:20:47Z</time>
      </trkpt>
      <trkpt lat="45.81526" lon="6.97784">
        <ele>2368</ele>
        <time>2022-08-27T10:20:48Z</time>
      </trkpt>
      <trkpt lat="45.81528" lon="6.97785">
        <ele>2368</ele>
        <time>2022-08-27T10:20:49Z</time>
      </trkpt>
      <trkpt lat="45.8153" lon="6.97786">
        <ele>2368</ele>
        <time>2022-08-27T10:20:50Z</time>
      </trkpt>
      <trkpt lat="45.81531" lon="6.97787">
        <ele>2368</ele>
        <time>2022-08-27T10:20:51Z</time>
      </trkpt>
      <trkpt lat="45.81535" lon="6.97788">
        <ele>2368</ele>
        <time>2022-08-27T10:20:53Z</time>
      </trkpt>
      <trkpt lat="45.81538" lon="6.97789">
        <ele>2368</ele>
        <time>2022-08-27T10:20:54Z</time>
      </trkpt>
      <trkpt lat="45.81539" lon="6.9779">
        <ele>2367</ele>
        <time>2022-08-27T10:20:55Z</time>
      </trkpt>
      <trkpt lat="45.81542" lon="6.97791">
        <ele>2367</ele>
        <time>2022-08-27T10:20:57Z</time>
      </trkpt>
      <trkpt lat="45.81545" lon="6.97792">
        <ele>2367</ele>
        <time>2022-08-27T10:20:59Z</time>
      </trkpt>
      <trkpt lat="45.81549" lon="6.97791">
        <ele>2366</ele>
        <time>2022-08-27T10:21:01Z</time>
      </trkpt>
      <trkpt lat="45.81551" lon="6.97792">
        <ele>2366</ele>
        <time>2022-08-27T10:21:02Z</time>
      </trkpt>
      <trkpt lat="45.81553" lon="6.97793">
        <ele>2366</ele>
        <time>2022-08-27T10:21:03Z</time>
      </trkpt>
      <trkpt lat="45.81556" lon="6.97794">
        <ele>2366</ele>
        <time>2022-08-27T10:21:05Z</time>
      </trkpt>
      <trkpt lat="45.81559" lon="6.97795">
        <ele>2364</ele>
        <time>2022-08-27T10:21:07Z</time>
      </trkpt>
      <trkpt lat="45.81561" lon="6.97796">
        <ele>2364</ele>
        <time>2022-08-27T10:21:08Z</time>
      </trkpt>
      <trkpt lat="45.81563" lon="6.97797">
        <ele>2364</ele>
        <time>2022-08-27T10:21:09Z</time>
      </trkpt>
      <trkpt lat="45.81564" lon="6.97798">
        <ele>2364</ele>
        <time>2022-08-27T10:21:10Z</time>
      </trkpt>
      <trkpt lat="45.81567" lon="6.978">
        <ele>2363</ele>
        <time>2022-08-27T10:21:12Z</time>
      </trkpt>
      <trkpt lat="45.81569" lon="6.97801">
        <ele>2363</ele>
        <time>2022-08-27T10:21:13Z</time>
      </trkpt>
      <trkpt lat="45.8157" lon="6.97802">
        <ele>2363</ele>
        <time>2022-08-27T10:21:14Z</time>
      </trkpt>
      <trkpt lat="45.81572" lon="6.97803">
        <ele>2363</ele>
        <time>2022-08-27T10:21:15Z</time>
      </trkpt>
      <trkpt lat="45.81574" lon="6.97805">
        <ele>2363</ele>
        <time>2022-08-27T10:21:16Z</time>
      </trkpt>
      <trkpt lat="45.81576" lon="6.97806">
        <ele>2363</ele>
        <time>2022-08-27T10:21:17Z</time>
      </trkpt>
      <trkpt lat="45.81577" lon="6.97807">
        <ele>2363</ele>
        <time>2022-08-27T10:21:18Z</time>
      </trkpt>
      <trkpt lat="45.8158" lon="6.97809">
        <ele>2363</ele>
        <time>2022-08-27T10:21:19Z</time>
      </trkpt>
      <trkpt lat="45.81581" lon="6.97809">
        <ele>2363</ele>
        <time>2022-08-27T10:21:20Z</time>
      </trkpt>
      <trkpt lat="45.81583" lon="6.9781">
        <ele>2363</ele>
        <time>2022-08-27T10:21:21Z</time>
      </trkpt>
      <trkpt lat="45.81586" lon="6.97813">
        <ele>2363</ele>
        <time>2022-08-27T10:21:23Z</time>
      </trkpt>
      <trkpt lat="45.81588" lon="6.97814">
        <ele>2363</ele>
        <time>2022-08-27T10:21:25Z</time>
      </trkpt>
      <trkpt lat="45.81591" lon="6.97816">
        <ele>2363</ele>
        <time>2022-08-27T10:21:27Z</time>
      </trkpt>
      <trkpt lat="45.81594" lon="6.97817">
        <ele>2362</ele>
        <time>2022-08-27T10:21:29Z</time>
      </trkpt>
      <trkpt lat="45.81597" lon="6.9782">
        <ele>2361</ele>
        <time>2022-08-27T10:21:31Z</time>
      </trkpt>
      <trkpt lat="45.81599" lon="6.97824">
        <ele>2361</ele>
        <time>2022-08-27T10:21:33Z</time>
      </trkpt>
      <trkpt lat="45.81601" lon="6.97826">
        <ele>2360</ele>
        <time>2022-08-27T10:21:35Z</time>
      </trkpt>
      <trkpt lat="45.81602" lon="6.97827">
        <ele>2360</ele>
        <time>2022-08-27T10:21:36Z</time>
      </trkpt>
      <trkpt lat="45.81604" lon="6.97828">
        <ele>2360</ele>
        <time>2022-08-27T10:21:37Z</time>
      </trkpt>
      <trkpt lat="45.81605" lon="6.97829">
        <ele>2360</ele>
        <time>2022-08-27T10:21:38Z</time>
      </trkpt>
      <trkpt lat="45.81607" lon="6.97831">
        <ele>2359</ele>
        <time>2022-08-27T10:21:39Z</time>
      </trkpt>
      <trkpt lat="45.81608" lon="6.97832">
        <ele>2359</ele>
        <time>2022-08-27T10:21:40Z</time>
      </trkpt>
      <trkpt lat="45.8161" lon="6.97834">
        <ele>2359</ele>
        <time>2022-08-27T10:21:41Z</time>
      </trkpt>
      <trkpt lat="45.81612" lon="6.97835">
        <ele>2359</ele>
        <time>2022-08-27T10:21:42Z</time>
      </trkpt>
      <trkpt lat="45.81615" lon="6.97837">
        <ele>2359</ele>
        <time>2022-08-27T10:21:44Z</time>
      </trkpt>
      <trkpt lat="45.81618" lon="6.97839">
        <ele>2359</ele>
        <time>2022-08-27T10:21:46Z</time>
      </trkpt>
      <trkpt lat="45.81621" lon="6.97839">
        <ele>2358</ele>
        <time>2022-08-27T10:21:48Z</time>
      </trkpt>
      <trkpt lat="45.81623" lon="6.9784">
        <ele>2358</ele>
        <time>2022-08-27T10:21:49Z</time>
      </trkpt>
      <trkpt lat="45.81625" lon="6.97841">
        <ele>2357</ele>
        <time>2022-08-27T10:21:50Z</time>
      </trkpt>
      <trkpt lat="45.81628" lon="6.97841">
        <ele>2356</ele>
        <time>2022-08-27T10:21:52Z</time>
      </trkpt>
      <trkpt lat="45.8163" lon="6.97842">
        <ele>2356</ele>
        <time>2022-08-27T10:21:53Z</time>
      </trkpt>
      <trkpt lat="45.81632" lon="6.97843">
        <ele>2356</ele>
        <time>2022-08-27T10:21:54Z</time>
      </trkpt>
      <trkpt lat="45.81634" lon="6.97845">
        <ele>2355</ele>
        <time>2022-08-27T10:21:55Z</time>
      </trkpt>
      <trkpt lat="45.81637" lon="6.97847">
        <ele>2355</ele>
        <time>2022-08-27T10:21:56Z</time>
      </trkpt>
      <trkpt lat="45.81638" lon="6.97847">
        <ele>2354</ele>
        <time>2022-08-27T10:21:57Z</time>
      </trkpt>
      <trkpt lat="45.8164" lon="6.97848">
        <ele>2354</ele>
        <time>2022-08-27T10:21:58Z</time>
      </trkpt>
      <trkpt lat="45.81642" lon="6.97849">
        <ele>2354</ele>
        <time>2022-08-27T10:21:59Z</time>
      </trkpt>
      <trkpt lat="45.81643" lon="6.9785">
        <ele>2354</ele>
        <time>2022-08-27T10:22:00Z</time>
      </trkpt>
      <trkpt lat="45.81646" lon="6.97852">
        <ele>2354</ele>
        <time>2022-08-27T10:22:01Z</time>
      </trkpt>
      <trkpt lat="45.81647" lon="6.97852">
        <ele>2353</ele>
        <time>2022-08-27T10:22:02Z</time>
      </trkpt>
      <trkpt lat="45.81649" lon="6.97854">
        <ele>2353</ele>
        <time>2022-08-27T10:22:03Z</time>
      </trkpt>
      <trkpt lat="45.81651" lon="6.97855">
        <ele>2353</ele>
        <time>2022-08-27T10:22:04Z</time>
      </trkpt>
      <trkpt lat="45.81653" lon="6.97856">
        <ele>2353</ele>
        <time>2022-08-27T10:22:05Z</time>
      </trkpt>
      <trkpt lat="45.81656" lon="6.97858">
        <ele>2353</ele>
        <time>2022-08-27T10:22:06Z</time>
      </trkpt>
      <trkpt lat="45.81657" lon="6.97859">
        <ele>2353</ele>
        <time>2022-08-27T10:22:07Z</time>
      </trkpt>
      <trkpt lat="45.81659" lon="6.9786">
        <ele>2353</ele>
        <time>2022-08-27T10:22:08Z</time>
      </trkpt>
      <trkpt lat="45.8166" lon="6.97862">
        <ele>2353</ele>
        <time>2022-08-27T10:22:09Z</time>
      </trkpt>
      <trkpt lat="45.81662" lon="6.97863">
        <ele>2352</ele>
        <time>2022-08-27T10:22:10Z</time>
      </trkpt>
      <trkpt lat="45.81664" lon="6.97866">
        <ele>2352</ele>
        <time>2022-08-27T10:22:12Z</time>
      </trkpt>
      <trkpt lat="45.81666" lon="6.97867">
        <ele>2352</ele>
        <time>2022-08-27T10:22:13Z</time>
      </trkpt>
      <trkpt lat="45.81667" lon="6.97869">
        <ele>2352</ele>
        <time>2022-08-27T10:22:14Z</time>
      </trkpt>
      <trkpt lat="45.81669" lon="6.97871">
        <ele>2352</ele>
        <time>2022-08-27T10:22:15Z</time>
      </trkpt>
      <trkpt lat="45.81672" lon="6.97873">
        <ele>2352</ele>
        <time>2022-08-27T10:22:17Z</time>
      </trkpt>
      <trkpt lat="45.81674" lon="6.97874">
        <ele>2352</ele>
        <time>2022-08-27T10:22:18Z</time>
      </trkpt>
      <trkpt lat="45.81677" lon="6.97875">
        <ele>2352</ele>
        <time>2022-08-27T10:22:20Z</time>
      </trkpt>
      <trkpt lat="45.8168" lon="6.97877">
        <ele>2352</ele>
        <time>2022-08-27T10:22:22Z</time>
      </trkpt>
      <trkpt lat="45.81682" lon="6.97879">
        <ele>2353</ele>
        <time>2022-08-27T10:22:24Z</time>
      </trkpt>
      <trkpt lat="45.81685" lon="6.97881">
        <ele>2353</ele>
        <time>2022-08-27T10:22:26Z</time>
      </trkpt>
      <trkpt lat="45.81686" lon="6.97884">
        <ele>2354</ele>
        <time>2022-08-27T10:22:30Z</time>
      </trkpt>
      <trkpt lat="45.81687" lon="6.97886">
        <ele>2354</ele>
        <time>2022-08-27T10:22:32Z</time>
      </trkpt>
      <trkpt lat="45.81689" lon="6.97888">
        <ele>2354</ele>
        <time>2022-08-27T10:22:34Z</time>
      </trkpt>
      <trkpt lat="45.81691" lon="6.97889">
        <ele>2354</ele>
        <time>2022-08-27T10:22:36Z</time>
      </trkpt>
      <trkpt lat="45.81693" lon="6.97891">
        <ele>2354</ele>
        <time>2022-08-27T10:22:38Z</time>
      </trkpt>
      <trkpt lat="45.81696" lon="6.97893">
        <ele>2355</ele>
        <time>2022-08-27T10:22:40Z</time>
      </trkpt>
      <trkpt lat="45.81697" lon="6.97894">
        <ele>2355</ele>
        <time>2022-08-27T10:22:41Z</time>
      </trkpt>
      <trkpt lat="45.817" lon="6.97896">
        <ele>2354</ele>
        <time>2022-08-27T10:22:43Z</time>
      </trkpt>
      <trkpt lat="45.81703" lon="6.97899">
        <ele>2354</ele>
        <time>2022-08-27T10:22:45Z</time>
      </trkpt>
      <trkpt lat="45.81706" lon="6.97901">
        <ele>2353</ele>
        <time>2022-08-27T10:22:47Z</time>
      </trkpt>
      <trkpt lat="45.81708" lon="6.97903">
        <ele>2353</ele>
        <time>2022-08-27T10:22:49Z</time>
      </trkpt>
      <trkpt lat="45.81711" lon="6.97905">
        <ele>2353</ele>
        <time>2022-08-27T10:22:50Z</time>
      </trkpt>
      <trkpt lat="45.81712" lon="6.97906">
        <ele>2353</ele>
        <time>2022-08-27T10:22:51Z</time>
      </trkpt>
      <trkpt lat="45.81714" lon="6.97907">
        <ele>2353</ele>
        <time>2022-08-27T10:22:52Z</time>
      </trkpt>
      <trkpt lat="45.81716" lon="6.97909">
        <ele>2352</ele>
        <time>2022-08-27T10:22:53Z</time>
      </trkpt>
      <trkpt lat="45.81718" lon="6.9791">
        <ele>2350</ele>
        <time>2022-08-27T10:22:54Z</time>
      </trkpt>
      <trkpt lat="45.81719" lon="6.97912">
        <ele>2350</ele>
        <time>2022-08-27T10:22:55Z</time>
      </trkpt>
      <trkpt lat="45.81722" lon="6.97915">
        <ele>2350</ele>
        <time>2022-08-27T10:22:57Z</time>
      </trkpt>
      <trkpt lat="45.81724" lon="6.97916">
        <ele>2350</ele>
        <time>2022-08-27T10:22:58Z</time>
      </trkpt>
      <trkpt lat="45.81725" lon="6.97918">
        <ele>2350</ele>
        <time>2022-08-27T10:22:59Z</time>
      </trkpt>
      <trkpt lat="45.81728" lon="6.9792">
        <ele>2350</ele>
        <time>2022-08-27T10:23:00Z</time>
      </trkpt>
      <trkpt lat="45.81729" lon="6.97921">
        <ele>2350</ele>
        <time>2022-08-27T10:23:01Z</time>
      </trkpt>
      <trkpt lat="45.81731" lon="6.97922">
        <ele>2350</ele>
        <time>2022-08-27T10:23:02Z</time>
      </trkpt>
      <trkpt lat="45.81732" lon="6.97924">
        <ele>2350</ele>
        <time>2022-08-27T10:23:03Z</time>
      </trkpt>
      <trkpt lat="45.81734" lon="6.97925">
        <ele>2350</ele>
        <time>2022-08-27T10:23:04Z</time>
      </trkpt>
      <trkpt lat="45.81736" lon="6.97926">
        <ele>2350</ele>
        <time>2022-08-27T10:23:05Z</time>
      </trkpt>
      <trkpt lat="45.8174" lon="6.97928">
        <ele>2349</ele>
        <time>2022-08-27T10:23:07Z</time>
      </trkpt>
      <trkpt lat="45.81741" lon="6.97929">
        <ele>2348</ele>
        <time>2022-08-27T10:23:08Z</time>
      </trkpt>
      <trkpt lat="45.81742" lon="6.9793">
        <ele>2348</ele>
        <time>2022-08-27T10:23:09Z</time>
      </trkpt>
      <trkpt lat="45.81744" lon="6.97931">
        <ele>2348</ele>
        <time>2022-08-27T10:23:10Z</time>
      </trkpt>
      <trkpt lat="45.81746" lon="6.97933">
        <ele>2348</ele>
        <time>2022-08-27T10:23:11Z</time>
      </trkpt>
      <trkpt lat="45.81747" lon="6.97935">
        <ele>2347</ele>
        <time>2022-08-27T10:23:12Z</time>
      </trkpt>
      <trkpt lat="45.81749" lon="6.97936">
        <ele>2346</ele>
        <time>2022-08-27T10:23:13Z</time>
      </trkpt>
      <trkpt lat="45.81751" lon="6.97938">
        <ele>2346</ele>
        <time>2022-08-27T10:23:14Z</time>
      </trkpt>
      <trkpt lat="45.81753" lon="6.9794">
        <ele>2346</ele>
        <time>2022-08-27T10:23:15Z</time>
      </trkpt>
      <trkpt lat="45.81756" lon="6.97941">
        <ele>2346</ele>
        <time>2022-08-27T10:23:16Z</time>
      </trkpt>
      <trkpt lat="45.81756" lon="6.97942">
        <ele>2345</ele>
        <time>2022-08-27T10:23:17Z</time>
      </trkpt>
      <trkpt lat="45.81758" lon="6.97943">
        <ele>2346</ele>
        <time>2022-08-27T10:23:18Z</time>
      </trkpt>
      <trkpt lat="45.8176" lon="6.97943">
        <ele>2346</ele>
        <time>2022-08-27T10:23:19Z</time>
      </trkpt>
      <trkpt lat="45.81762" lon="6.97943">
        <ele>2346</ele>
        <time>2022-08-27T10:23:20Z</time>
      </trkpt>
      <trkpt lat="45.81764" lon="6.97944">
        <ele>2346</ele>
        <time>2022-08-27T10:23:21Z</time>
      </trkpt>
      <trkpt lat="45.81768" lon="6.97945">
        <ele>2346</ele>
        <time>2022-08-27T10:23:23Z</time>
      </trkpt>
      <trkpt lat="45.81769" lon="6.97946">
        <ele>2346</ele>
        <time>2022-08-27T10:23:24Z</time>
      </trkpt>
      <trkpt lat="45.81771" lon="6.97947">
        <ele>2346</ele>
        <time>2022-08-27T10:23:25Z</time>
      </trkpt>
      <trkpt lat="45.81774" lon="6.97949">
        <ele>2346</ele>
        <time>2022-08-27T10:23:27Z</time>
      </trkpt>
      <trkpt lat="45.81776" lon="6.97951">
        <ele>2345</ele>
        <time>2022-08-27T10:23:28Z</time>
      </trkpt>
      <trkpt lat="45.81779" lon="6.97953">
        <ele>2345</ele>
        <time>2022-08-27T10:23:30Z</time>
      </trkpt>
      <trkpt lat="45.81782" lon="6.97954">
        <ele>2345</ele>
        <time>2022-08-27T10:23:31Z</time>
      </trkpt>
      <trkpt lat="45.81783" lon="6.97955">
        <ele>2345</ele>
        <time>2022-08-27T10:23:32Z</time>
      </trkpt>
      <trkpt lat="45.81784" lon="6.97955">
        <ele>2345</ele>
        <time>2022-08-27T10:23:33Z</time>
      </trkpt>
      <trkpt lat="45.81786" lon="6.97956">
        <ele>2344</ele>
        <time>2022-08-27T10:23:34Z</time>
      </trkpt>
      <trkpt lat="45.81788" lon="6.97957">
        <ele>2344</ele>
        <time>2022-08-27T10:23:35Z</time>
      </trkpt>
      <trkpt lat="45.8179" lon="6.97958">
        <ele>2344</ele>
        <time>2022-08-27T10:23:36Z</time>
      </trkpt>
      <trkpt lat="45.81791" lon="6.97959">
        <ele>2344</ele>
        <time>2022-08-27T10:23:37Z</time>
      </trkpt>
      <trkpt lat="45.81793" lon="6.97961">
        <ele>2343</ele>
        <time>2022-08-27T10:23:38Z</time>
      </trkpt>
      <trkpt lat="45.81795" lon="6.97962">
        <ele>2342</ele>
        <time>2022-08-27T10:23:39Z</time>
      </trkpt>
      <trkpt lat="45.81797" lon="6.97963">
        <ele>2342</ele>
        <time>2022-08-27T10:23:40Z</time>
      </trkpt>
      <trkpt lat="45.81798" lon="6.97964">
        <ele>2342</ele>
        <time>2022-08-27T10:23:41Z</time>
      </trkpt>
      <trkpt lat="45.818" lon="6.97966">
        <ele>2342</ele>
        <time>2022-08-27T10:23:42Z</time>
      </trkpt>
      <trkpt lat="45.81803" lon="6.97967">
        <ele>2342</ele>
        <time>2022-08-27T10:23:43Z</time>
      </trkpt>
      <trkpt lat="45.81805" lon="6.97968">
        <ele>2341</ele>
        <time>2022-08-27T10:23:44Z</time>
      </trkpt>
      <trkpt lat="45.81808" lon="6.9797">
        <ele>2341</ele>
        <time>2022-08-27T10:23:45Z</time>
      </trkpt>
      <trkpt lat="45.81809" lon="6.9797">
        <ele>2341</ele>
        <time>2022-08-27T10:23:46Z</time>
      </trkpt>
      <trkpt lat="45.81811" lon="6.97972">
        <ele>2341</ele>
        <time>2022-08-27T10:23:47Z</time>
      </trkpt>
      <trkpt lat="45.81813" lon="6.97973">
        <ele>2341</ele>
        <time>2022-08-27T10:23:48Z</time>
      </trkpt>
      <trkpt lat="45.81814" lon="6.97974">
        <ele>2341</ele>
        <time>2022-08-27T10:23:49Z</time>
      </trkpt>
      <trkpt lat="45.81817" lon="6.97977">
        <ele>2341</ele>
        <time>2022-08-27T10:23:50Z</time>
      </trkpt>
      <trkpt lat="45.81818" lon="6.97978">
        <ele>2341</ele>
        <time>2022-08-27T10:23:51Z</time>
      </trkpt>
      <trkpt lat="45.81819" lon="6.9798">
        <ele>2341</ele>
        <time>2022-08-27T10:23:52Z</time>
      </trkpt>
      <trkpt lat="45.8182" lon="6.97982">
        <ele>2341</ele>
        <time>2022-08-27T10:23:53Z</time>
      </trkpt>
      <trkpt lat="45.81822" lon="6.97984">
        <ele>2341</ele>
        <time>2022-08-27T10:23:54Z</time>
      </trkpt>
      <trkpt lat="45.81824" lon="6.97986">
        <ele>2341</ele>
        <time>2022-08-27T10:23:55Z</time>
      </trkpt>
      <trkpt lat="45.81825" lon="6.97987">
        <ele>2341</ele>
        <time>2022-08-27T10:23:56Z</time>
      </trkpt>
      <trkpt lat="45.81827" lon="6.97989">
        <ele>2341</ele>
        <time>2022-08-27T10:23:57Z</time>
      </trkpt>
      <trkpt lat="45.81828" lon="6.9799">
        <ele>2341</ele>
        <time>2022-08-27T10:23:58Z</time>
      </trkpt>
      <trkpt lat="45.8183" lon="6.97992">
        <ele>2341</ele>
        <time>2022-08-27T10:23:59Z</time>
      </trkpt>
      <trkpt lat="45.81831" lon="6.97994">
        <ele>2341</ele>
        <time>2022-08-27T10:24:00Z</time>
      </trkpt>
      <trkpt lat="45.81833" lon="6.97996">
        <ele>2341</ele>
        <time>2022-08-27T10:24:01Z</time>
      </trkpt>
      <trkpt lat="45.81835" lon="6.97998">
        <ele>2341</ele>
        <time>2022-08-27T10:24:02Z</time>
      </trkpt>
      <trkpt lat="45.81837" lon="6.97999">
        <ele>2341</ele>
        <time>2022-08-27T10:24:03Z</time>
      </trkpt>
      <trkpt lat="45.81838" lon="6.98001">
        <ele>2341</ele>
        <time>2022-08-27T10:24:04Z</time>
      </trkpt>
      <trkpt lat="45.81839" lon="6.98003">
        <ele>2341</ele>
        <time>2022-08-27T10:24:05Z</time>
      </trkpt>
      <trkpt lat="45.81841" lon="6.98005">
        <ele>2341</ele>
        <time>2022-08-27T10:24:06Z</time>
      </trkpt>
      <trkpt lat="45.81842" lon="6.98007">
        <ele>2341</ele>
        <time>2022-08-27T10:24:07Z</time>
      </trkpt>
      <trkpt lat="45.81844" lon="6.98011">
        <ele>2341</ele>
        <time>2022-08-27T10:24:09Z</time>
      </trkpt>
      <trkpt lat="45.81846" lon="6.98012">
        <ele>2341</ele>
        <time>2022-08-27T10:24:10Z</time>
      </trkpt>
      <trkpt lat="45.81849" lon="6.98015">
        <ele>2340</ele>
        <time>2022-08-27T10:24:12Z</time>
      </trkpt>
      <trkpt lat="45.81851" lon="6.98016">
        <ele>2340</ele>
        <time>2022-08-27T10:24:13Z</time>
      </trkpt>
      <trkpt lat="45.81852" lon="6.98018">
        <ele>2340</ele>
        <time>2022-08-27T10:24:14Z</time>
      </trkpt>
      <trkpt lat="45.81854" lon="6.98019">
        <ele>2340</ele>
        <time>2022-08-27T10:24:15Z</time>
      </trkpt>
      <trkpt lat="45.81856" lon="6.9802">
        <ele>2340</ele>
        <time>2022-08-27T10:24:16Z</time>
      </trkpt>
      <trkpt lat="45.81857" lon="6.98021">
        <ele>2340</ele>
        <time>2022-08-27T10:24:17Z</time>
      </trkpt>
      <trkpt lat="45.81859" lon="6.98023">
        <ele>2340</ele>
        <time>2022-08-27T10:24:18Z</time>
      </trkpt>
      <trkpt lat="45.81862" lon="6.98025">
        <ele>2340</ele>
        <time>2022-08-27T10:24:20Z</time>
      </trkpt>
      <trkpt lat="45.81864" lon="6.98026">
        <ele>2340</ele>
        <time>2022-08-27T10:24:21Z</time>
      </trkpt>
      <trkpt lat="45.81866" lon="6.98027">
        <ele>2340</ele>
        <time>2022-08-27T10:24:22Z</time>
      </trkpt>
      <trkpt lat="45.81867" lon="6.98028">
        <ele>2340</ele>
        <time>2022-08-27T10:24:23Z</time>
      </trkpt>
      <trkpt lat="45.81869" lon="6.98029">
        <ele>2340</ele>
        <time>2022-08-27T10:24:24Z</time>
      </trkpt>
      <trkpt lat="45.81871" lon="6.98029">
        <ele>2340</ele>
        <time>2022-08-27T10:24:25Z</time>
      </trkpt>
      <trkpt lat="45.81875" lon="6.9803">
        <ele>2340</ele>
        <time>2022-08-27T10:24:27Z</time>
      </trkpt>
      <trkpt lat="45.81876" lon="6.98031">
        <ele>2340</ele>
        <time>2022-08-27T10:24:28Z</time>
      </trkpt>
      <trkpt lat="45.81881" lon="6.98033">
        <ele>2340</ele>
        <time>2022-08-27T10:24:30Z</time>
      </trkpt>
      <trkpt lat="45.81882" lon="6.98034">
        <ele>2340</ele>
        <time>2022-08-27T10:24:31Z</time>
      </trkpt>
      <trkpt lat="45.81883" lon="6.98035">
        <ele>2340</ele>
        <time>2022-08-27T10:24:32Z</time>
      </trkpt>
      <trkpt lat="45.81885" lon="6.98036">
        <ele>2340</ele>
        <time>2022-08-27T10:24:33Z</time>
      </trkpt>
      <trkpt lat="45.81887" lon="6.98038">
        <ele>2340</ele>
        <time>2022-08-27T10:24:34Z</time>
      </trkpt>
      <trkpt lat="45.81888" lon="6.9804">
        <ele>2340</ele>
        <time>2022-08-27T10:24:35Z</time>
      </trkpt>
      <trkpt lat="45.8189" lon="6.98041">
        <ele>2340</ele>
        <time>2022-08-27T10:24:36Z</time>
      </trkpt>
      <trkpt lat="45.81891" lon="6.98043">
        <ele>2340</ele>
        <time>2022-08-27T10:24:37Z</time>
      </trkpt>
      <trkpt lat="45.81893" lon="6.98045">
        <ele>2340</ele>
        <time>2022-08-27T10:24:38Z</time>
      </trkpt>
      <trkpt lat="45.81894" lon="6.98047">
        <ele>2340</ele>
        <time>2022-08-27T10:24:39Z</time>
      </trkpt>
      <trkpt lat="45.81896" lon="6.98049">
        <ele>2340</ele>
        <time>2022-08-27T10:24:40Z</time>
      </trkpt>
      <trkpt lat="45.81897" lon="6.9805">
        <ele>2339</ele>
        <time>2022-08-27T10:24:41Z</time>
      </trkpt>
      <trkpt lat="45.81898" lon="6.98053">
        <ele>2339</ele>
        <time>2022-08-27T10:24:42Z</time>
      </trkpt>
      <trkpt lat="45.81899" lon="6.98055">
        <ele>2340</ele>
        <time>2022-08-27T10:24:43Z</time>
      </trkpt>
      <trkpt lat="45.81901" lon="6.98057">
        <ele>2340</ele>
        <time>2022-08-27T10:24:44Z</time>
      </trkpt>
      <trkpt lat="45.81902" lon="6.98059">
        <ele>2340</ele>
        <time>2022-08-27T10:24:45Z</time>
      </trkpt>
      <trkpt lat="45.81903" lon="6.98062">
        <ele>2340</ele>
        <time>2022-08-27T10:24:46Z</time>
      </trkpt>
      <trkpt lat="45.81905" lon="6.98064">
        <ele>2340</ele>
        <time>2022-08-27T10:24:47Z</time>
      </trkpt>
      <trkpt lat="45.81906" lon="6.98065">
        <ele>2340</ele>
        <time>2022-08-27T10:24:48Z</time>
      </trkpt>
      <trkpt lat="45.81908" lon="6.98067">
        <ele>2339</ele>
        <time>2022-08-27T10:24:49Z</time>
      </trkpt>
      <trkpt lat="45.81909" lon="6.98069">
        <ele>2339</ele>
        <time>2022-08-27T10:24:50Z</time>
      </trkpt>
      <trkpt lat="45.8191" lon="6.98071">
        <ele>2339</ele>
        <time>2022-08-27T10:24:51Z</time>
      </trkpt>
      <trkpt lat="45.81913" lon="6.98074">
        <ele>2338</ele>
        <time>2022-08-27T10:24:53Z</time>
      </trkpt>
      <trkpt lat="45.81916" lon="6.98077">
        <ele>2338</ele>
        <time>2022-08-27T10:24:54Z</time>
      </trkpt>
      <trkpt lat="45.81917" lon="6.98078">
        <ele>2338</ele>
        <time>2022-08-27T10:24:55Z</time>
      </trkpt>
      <trkpt lat="45.81918" lon="6.9808">
        <ele>2338</ele>
        <time>2022-08-27T10:24:56Z</time>
      </trkpt>
      <trkpt lat="45.8192" lon="6.98082">
        <ele>2338</ele>
        <time>2022-08-27T10:24:57Z</time>
      </trkpt>
      <trkpt lat="45.81921" lon="6.98084">
        <ele>2338</ele>
        <time>2022-08-27T10:24:58Z</time>
      </trkpt>
      <trkpt lat="45.81924" lon="6.98087">
        <ele>2337</ele>
        <time>2022-08-27T10:25:00Z</time>
      </trkpt>
      <trkpt lat="45.81925" lon="6.98089">
        <ele>2337</ele>
        <time>2022-08-27T10:25:01Z</time>
      </trkpt>
      <trkpt lat="45.81928" lon="6.98093">
        <ele>2337</ele>
        <time>2022-08-27T10:25:03Z</time>
      </trkpt>
      <trkpt lat="45.81929" lon="6.98095">
        <ele>2337</ele>
        <time>2022-08-27T10:25:04Z</time>
      </trkpt>
      <trkpt lat="45.81931" lon="6.98099">
        <ele>2338</ele>
        <time>2022-08-27T10:25:06Z</time>
      </trkpt>
      <trkpt lat="45.81934" lon="6.98103">
        <ele>2337</ele>
        <time>2022-08-27T10:25:08Z</time>
      </trkpt>
      <trkpt lat="45.81935" lon="6.98105">
        <ele>2337</ele>
        <time>2022-08-27T10:25:09Z</time>
      </trkpt>
      <trkpt lat="45.81936" lon="6.98107">
        <ele>2337</ele>
        <time>2022-08-27T10:25:10Z</time>
      </trkpt>
      <trkpt lat="45.81937" lon="6.9811">
        <ele>2337</ele>
        <time>2022-08-27T10:25:11Z</time>
      </trkpt>
      <trkpt lat="45.81938" lon="6.98112">
        <ele>2337</ele>
        <time>2022-08-27T10:25:12Z</time>
      </trkpt>
      <trkpt lat="45.81939" lon="6.98114">
        <ele>2337</ele>
        <time>2022-08-27T10:25:13Z</time>
      </trkpt>
      <trkpt lat="45.8194" lon="6.98116">
        <ele>2337</ele>
        <time>2022-08-27T10:25:14Z</time>
      </trkpt>
      <trkpt lat="45.81941" lon="6.98119">
        <ele>2337</ele>
        <time>2022-08-27T10:25:15Z</time>
      </trkpt>
      <trkpt lat="45.81943" lon="6.98122">
        <ele>2337</ele>
        <time>2022-08-27T10:25:17Z</time>
      </trkpt>
      <trkpt lat="45.81944" lon="6.98126">
        <ele>2337</ele>
        <time>2022-08-27T10:25:19Z</time>
      </trkpt>
      <trkpt lat="45.81946" lon="6.98129">
        <ele>2337</ele>
        <time>2022-08-27T10:25:21Z</time>
      </trkpt>
      <trkpt lat="45.81947" lon="6.98133">
        <ele>2337</ele>
        <time>2022-08-27T10:25:23Z</time>
      </trkpt>
      <trkpt lat="45.81949" lon="6.98136">
        <ele>2337</ele>
        <time>2022-08-27T10:25:25Z</time>
      </trkpt>
      <trkpt lat="45.8195" lon="6.9814">
        <ele>2337</ele>
        <time>2022-08-27T10:25:27Z</time>
      </trkpt>
      <trkpt lat="45.81952" lon="6.98143">
        <ele>2337</ele>
        <time>2022-08-27T10:25:29Z</time>
      </trkpt>
      <trkpt lat="45.81953" lon="6.98145">
        <ele>2337</ele>
        <time>2022-08-27T10:25:31Z</time>
      </trkpt>
      <trkpt lat="45.81954" lon="6.98148">
        <ele>2338</ele>
        <time>2022-08-27T10:25:33Z</time>
      </trkpt>
      <trkpt lat="45.81956" lon="6.98152">
        <ele>2338</ele>
        <time>2022-08-27T10:25:35Z</time>
      </trkpt>
      <trkpt lat="45.81957" lon="6.98155">
        <ele>2338</ele>
        <time>2022-08-27T10:25:37Z</time>
      </trkpt>
      <trkpt lat="45.81958" lon="6.98158">
        <ele>2338</ele>
        <time>2022-08-27T10:25:39Z</time>
      </trkpt>
      <trkpt lat="45.81959" lon="6.98162">
        <ele>2339</ele>
        <time>2022-08-27T10:25:41Z</time>
      </trkpt>
      <trkpt lat="45.8196" lon="6.98166">
        <ele>2339</ele>
        <time>2022-08-27T10:25:43Z</time>
      </trkpt>
      <trkpt lat="45.81962" lon="6.9817">
        <ele>2339</ele>
        <time>2022-08-27T10:25:45Z</time>
      </trkpt>
      <trkpt lat="45.81962" lon="6.98172">
        <ele>2339</ele>
        <time>2022-08-27T10:25:46Z</time>
      </trkpt>
      <trkpt lat="45.81964" lon="6.98175">
        <ele>2339</ele>
        <time>2022-08-27T10:25:47Z</time>
      </trkpt>
      <trkpt lat="45.81964" lon="6.98177">
        <ele>2339</ele>
        <time>2022-08-27T10:25:48Z</time>
      </trkpt>
      <trkpt lat="45.81965" lon="6.98179">
        <ele>2339</ele>
        <time>2022-08-27T10:25:49Z</time>
      </trkpt>
      <trkpt lat="45.81966" lon="6.98182">
        <ele>2339</ele>
        <time>2022-08-27T10:25:50Z</time>
      </trkpt>
      <trkpt lat="45.81967" lon="6.98184">
        <ele>2339</ele>
        <time>2022-08-27T10:25:51Z</time>
      </trkpt>
      <trkpt lat="45.81969" lon="6.98189">
        <ele>2339</ele>
        <time>2022-08-27T10:25:53Z</time>
      </trkpt>
      <trkpt lat="45.8197" lon="6.98192">
        <ele>2339</ele>
        <time>2022-08-27T10:25:55Z</time>
      </trkpt>
      <trkpt lat="45.81972" lon="6.98195">
        <ele>2339</ele>
        <time>2022-08-27T10:25:57Z</time>
      </trkpt>
      <trkpt lat="45.81973" lon="6.98197">
        <ele>2339</ele>
        <time>2022-08-27T10:25:58Z</time>
      </trkpt>
      <trkpt lat="45.81974" lon="6.98199">
        <ele>2339</ele>
        <time>2022-08-27T10:25:59Z</time>
      </trkpt>
      <trkpt lat="45.81975" lon="6.98201">
        <ele>2339</ele>
        <time>2022-08-27T10:26:00Z</time>
      </trkpt>
      <trkpt lat="45.81976" lon="6.98203">
        <ele>2339</ele>
        <time>2022-08-27T10:26:01Z</time>
      </trkpt>
      <trkpt lat="45.81977" lon="6.98205">
        <ele>2339</ele>
        <time>2022-08-27T10:26:02Z</time>
      </trkpt>
      <trkpt lat="45.8198" lon="6.98209">
        <ele>2339</ele>
        <time>2022-08-27T10:26:04Z</time>
      </trkpt>
      <trkpt lat="45.81981" lon="6.98211">
        <ele>2339</ele>
        <time>2022-08-27T10:26:05Z</time>
      </trkpt>
      <trkpt lat="45.81982" lon="6.98213">
        <ele>2338</ele>
        <time>2022-08-27T10:26:06Z</time>
      </trkpt>
      <trkpt lat="45.81983" lon="6.98215">
        <ele>2338</ele>
        <time>2022-08-27T10:26:07Z</time>
      </trkpt>
      <trkpt lat="45.81985" lon="6.98217">
        <ele>2338</ele>
        <time>2022-08-27T10:26:08Z</time>
      </trkpt>
      <trkpt lat="45.81986" lon="6.98219">
        <ele>2338</ele>
        <time>2022-08-27T10:26:09Z</time>
      </trkpt>
      <trkpt lat="45.81987" lon="6.98221">
        <ele>2338</ele>
        <time>2022-08-27T10:26:10Z</time>
      </trkpt>
      <trkpt lat="45.81989" lon="6.98223">
        <ele>2338</ele>
        <time>2022-08-27T10:26:11Z</time>
      </trkpt>
      <trkpt lat="45.8199" lon="6.98225">
        <ele>2338</ele>
        <time>2022-08-27T10:26:12Z</time>
      </trkpt>
      <trkpt lat="45.81992" lon="6.98227">
        <ele>2338</ele>
        <time>2022-08-27T10:26:13Z</time>
      </trkpt>
      <trkpt lat="45.81993" lon="6.98229">
        <ele>2338</ele>
        <time>2022-08-27T10:26:14Z</time>
      </trkpt>
      <trkpt lat="45.81994" lon="6.98231">
        <ele>2338</ele>
        <time>2022-08-27T10:26:15Z</time>
      </trkpt>
      <trkpt lat="45.81997" lon="6.98236">
        <ele>2337</ele>
        <time>2022-08-27T10:26:17Z</time>
      </trkpt>
      <trkpt lat="45.81998" lon="6.98238">
        <ele>2336</ele>
        <time>2022-08-27T10:26:18Z</time>
      </trkpt>
      <trkpt lat="45.81999" lon="6.9824">
        <ele>2336</ele>
        <time>2022-08-27T10:26:19Z</time>
      </trkpt>
      <trkpt lat="45.82001" lon="6.98242">
        <ele>2336</ele>
        <time>2022-08-27T10:26:20Z</time>
      </trkpt>
      <trkpt lat="45.82002" lon="6.98244">
        <ele>2335</ele>
        <time>2022-08-27T10:26:21Z</time>
      </trkpt>
      <trkpt lat="45.82003" lon="6.98247">
        <ele>2335</ele>
        <time>2022-08-27T10:26:22Z</time>
      </trkpt>
      <trkpt lat="45.82005" lon="6.98248">
        <ele>2335</ele>
        <time>2022-08-27T10:26:23Z</time>
      </trkpt>
      <trkpt lat="45.82006" lon="6.9825">
        <ele>2336</ele>
        <time>2022-08-27T10:26:24Z</time>
      </trkpt>
      <trkpt lat="45.82008" lon="6.98253">
        <ele>2336</ele>
        <time>2022-08-27T10:26:26Z</time>
      </trkpt>
      <trkpt lat="45.82011" lon="6.98256">
        <ele>2336</ele>
        <time>2022-08-27T10:26:28Z</time>
      </trkpt>
      <trkpt lat="45.82013" lon="6.98258">
        <ele>2336</ele>
        <time>2022-08-27T10:26:30Z</time>
      </trkpt>
      <trkpt lat="45.82016" lon="6.98261">
        <ele>2336</ele>
        <time>2022-08-27T10:26:32Z</time>
      </trkpt>
      <trkpt lat="45.82019" lon="6.98263">
        <ele>2336</ele>
        <time>2022-08-27T10:26:34Z</time>
      </trkpt>
      <trkpt lat="45.82021" lon="6.98265">
        <ele>2335</ele>
        <time>2022-08-27T10:26:36Z</time>
      </trkpt>
      <trkpt lat="45.82023" lon="6.98266">
        <ele>2336</ele>
        <time>2022-08-27T10:26:38Z</time>
      </trkpt>
      <trkpt lat="45.82025" lon="6.98268">
        <ele>2336</ele>
        <time>2022-08-27T10:26:40Z</time>
      </trkpt>
      <trkpt lat="45.82028" lon="6.9827">
        <ele>2336</ele>
        <time>2022-08-27T10:26:42Z</time>
      </trkpt>
      <trkpt lat="45.8203" lon="6.98273">
        <ele>2336</ele>
        <time>2022-08-27T10:26:44Z</time>
      </trkpt>
      <trkpt lat="45.82032" lon="6.98276">
        <ele>2336</ele>
        <time>2022-08-27T10:26:46Z</time>
      </trkpt>
      <trkpt lat="45.82034" lon="6.98279">
        <ele>2336</ele>
        <time>2022-08-27T10:26:48Z</time>
      </trkpt>
      <trkpt lat="45.82036" lon="6.98282">
        <ele>2336</ele>
        <time>2022-08-27T10:26:50Z</time>
      </trkpt>
      <trkpt lat="45.82038" lon="6.98285">
        <ele>2336</ele>
        <time>2022-08-27T10:26:52Z</time>
      </trkpt>
      <trkpt lat="45.8204" lon="6.98289">
        <ele>2336</ele>
        <time>2022-08-27T10:26:54Z</time>
      </trkpt>
      <trkpt lat="45.82042" lon="6.98292">
        <ele>2336</ele>
        <time>2022-08-27T10:26:56Z</time>
      </trkpt>
      <trkpt lat="45.82043" lon="6.98296">
        <ele>2336</ele>
        <time>2022-08-27T10:26:58Z</time>
      </trkpt>
      <trkpt lat="45.82045" lon="6.98299">
        <ele>2336</ele>
        <time>2022-08-27T10:27:00Z</time>
      </trkpt>
      <trkpt lat="45.82047" lon="6.98301">
        <ele>2336</ele>
        <time>2022-08-27T10:27:02Z</time>
      </trkpt>
      <trkpt lat="45.8205" lon="6.98304">
        <ele>2336</ele>
        <time>2022-08-27T10:27:04Z</time>
      </trkpt>
      <trkpt lat="45.82052" lon="6.98307">
        <ele>2336</ele>
        <time>2022-08-27T10:27:06Z</time>
      </trkpt>
      <trkpt lat="45.82054" lon="6.9831">
        <ele>2336</ele>
        <time>2022-08-27T10:27:08Z</time>
      </trkpt>
      <trkpt lat="45.82056" lon="6.98313">
        <ele>2336</ele>
        <time>2022-08-27T10:27:10Z</time>
      </trkpt>
      <trkpt lat="45.82058" lon="6.98316">
        <ele>2336</ele>
        <time>2022-08-27T10:27:12Z</time>
      </trkpt>
      <trkpt lat="45.82059" lon="6.98318">
        <ele>2336</ele>
        <time>2022-08-27T10:27:14Z</time>
      </trkpt>
      <trkpt lat="45.82062" lon="6.98322">
        <ele>2337</ele>
        <time>2022-08-27T10:27:16Z</time>
      </trkpt>
      <trkpt lat="45.82063" lon="6.98324">
        <ele>2337</ele>
        <time>2022-08-27T10:27:17Z</time>
      </trkpt>
      <trkpt lat="45.82065" lon="6.98327">
        <ele>2337</ele>
        <time>2022-08-27T10:27:18Z</time>
      </trkpt>
      <trkpt lat="45.82066" lon="6.98328">
        <ele>2337</ele>
        <time>2022-08-27T10:27:19Z</time>
      </trkpt>
      <trkpt lat="45.82068" lon="6.98332">
        <ele>2337</ele>
        <time>2022-08-27T10:27:21Z</time>
      </trkpt>
      <trkpt lat="45.82069" lon="6.98335">
        <ele>2337</ele>
        <time>2022-08-27T10:27:23Z</time>
      </trkpt>
      <trkpt lat="45.82071" lon="6.98339">
        <ele>2337</ele>
        <time>2022-08-27T10:27:25Z</time>
      </trkpt>
      <trkpt lat="45.82072" lon="6.98343">
        <ele>2337</ele>
        <time>2022-08-27T10:27:27Z</time>
      </trkpt>
      <trkpt lat="45.82073" lon="6.98346">
        <ele>2337</ele>
        <time>2022-08-27T10:27:28Z</time>
      </trkpt>
      <trkpt lat="45.82074" lon="6.98348">
        <ele>2336</ele>
        <time>2022-08-27T10:27:29Z</time>
      </trkpt>
      <trkpt lat="45.82075" lon="6.98351">
        <ele>2336</ele>
        <time>2022-08-27T10:27:30Z</time>
      </trkpt>
      <trkpt lat="45.82075" lon="6.98353">
        <ele>2336</ele>
        <time>2022-08-27T10:27:31Z</time>
      </trkpt>
      <trkpt lat="45.82077" lon="6.98358">
        <ele>2335</ele>
        <time>2022-08-27T10:27:32Z</time>
      </trkpt>
      <trkpt lat="45.82079" lon="6.98362">
        <ele>2334</ele>
        <time>2022-08-27T10:27:35Z</time>
      </trkpt>
      <trkpt lat="45.8208" lon="6.98364">
        <ele>2334</ele>
        <time>2022-08-27T10:27:36Z</time>
      </trkpt>
      <trkpt lat="45.82081" lon="6.98367">
        <ele>2334</ele>
        <time>2022-08-27T10:27:37Z</time>
      </trkpt>
      <trkpt lat="45.82082" lon="6.98369">
        <ele>2334</ele>
        <time>2022-08-27T10:27:38Z</time>
      </trkpt>
      <trkpt lat="45.82084" lon="6.98373">
        <ele>2333</ele>
        <time>2022-08-27T10:27:40Z</time>
      </trkpt>
      <trkpt lat="45.82086" lon="6.98375">
        <ele>2333</ele>
        <time>2022-08-27T10:27:41Z</time>
      </trkpt>
      <trkpt lat="45.82087" lon="6.98377">
        <ele>2333</ele>
        <time>2022-08-27T10:27:42Z</time>
      </trkpt>
      <trkpt lat="45.82088" lon="6.98379">
        <ele>2333</ele>
        <time>2022-08-27T10:27:43Z</time>
      </trkpt>
      <trkpt lat="45.82089" lon="6.98382">
        <ele>2333</ele>
        <time>2022-08-27T10:27:44Z</time>
      </trkpt>
      <trkpt lat="45.8209" lon="6.98384">
        <ele>2332</ele>
        <time>2022-08-27T10:27:45Z</time>
      </trkpt>
      <trkpt lat="45.82092" lon="6.98386">
        <ele>2332</ele>
        <time>2022-08-27T10:27:46Z</time>
      </trkpt>
      <trkpt lat="45.82093" lon="6.98388">
        <ele>2332</ele>
        <time>2022-08-27T10:27:47Z</time>
      </trkpt>
      <trkpt lat="45.82095" lon="6.98392">
        <ele>2332</ele>
        <time>2022-08-27T10:27:48Z</time>
      </trkpt>
      <trkpt lat="45.82095" lon="6.98394">
        <ele>2332</ele>
        <time>2022-08-27T10:27:49Z</time>
      </trkpt>
      <trkpt lat="45.82096" lon="6.98396">
        <ele>2332</ele>
        <time>2022-08-27T10:27:50Z</time>
      </trkpt>
      <trkpt lat="45.82097" lon="6.98399">
        <ele>2331</ele>
        <time>2022-08-27T10:27:51Z</time>
      </trkpt>
      <trkpt lat="45.82099" lon="6.98402">
        <ele>2331</ele>
        <time>2022-08-27T10:27:52Z</time>
      </trkpt>
      <trkpt lat="45.821" lon="6.98403">
        <ele>2331</ele>
        <time>2022-08-27T10:27:53Z</time>
      </trkpt>
      <trkpt lat="45.82101" lon="6.98405">
        <ele>2331</ele>
        <time>2022-08-27T10:27:54Z</time>
      </trkpt>
      <trkpt lat="45.82103" lon="6.98407">
        <ele>2330</ele>
        <time>2022-08-27T10:27:55Z</time>
      </trkpt>
      <trkpt lat="45.82105" lon="6.9841">
        <ele>2330</ele>
        <time>2022-08-27T10:27:56Z</time>
      </trkpt>
      <trkpt lat="45.82106" lon="6.98412">
        <ele>2330</ele>
        <time>2022-08-27T10:27:57Z</time>
      </trkpt>
      <trkpt lat="45.82107" lon="6.98415">
        <ele>2330</ele>
        <time>2022-08-27T10:27:58Z</time>
      </trkpt>
      <trkpt lat="45.82108" lon="6.98418">
        <ele>2330</ele>
        <time>2022-08-27T10:27:59Z</time>
      </trkpt>
      <trkpt lat="45.8211" lon="6.98421">
        <ele>2329</ele>
        <time>2022-08-27T10:28:00Z</time>
      </trkpt>
      <trkpt lat="45.82111" lon="6.98423">
        <ele>2329</ele>
        <time>2022-08-27T10:28:01Z</time>
      </trkpt>
      <trkpt lat="45.82113" lon="6.98425">
        <ele>2329</ele>
        <time>2022-08-27T10:28:02Z</time>
      </trkpt>
      <trkpt lat="45.82114" lon="6.98427">
        <ele>2329</ele>
        <time>2022-08-27T10:28:03Z</time>
      </trkpt>
      <trkpt lat="45.82117" lon="6.98431">
        <ele>2329</ele>
        <time>2022-08-27T10:28:04Z</time>
      </trkpt>
      <trkpt lat="45.82118" lon="6.98432">
        <ele>2329</ele>
        <time>2022-08-27T10:28:05Z</time>
      </trkpt>
      <trkpt lat="45.82119" lon="6.98433">
        <ele>2328</ele>
        <time>2022-08-27T10:28:06Z</time>
      </trkpt>
      <trkpt lat="45.82121" lon="6.98435">
        <ele>2328</ele>
        <time>2022-08-27T10:28:07Z</time>
      </trkpt>
      <trkpt lat="45.82123" lon="6.98436">
        <ele>2328</ele>
        <time>2022-08-27T10:28:08Z</time>
      </trkpt>
      <trkpt lat="45.82125" lon="6.98439">
        <ele>2328</ele>
        <time>2022-08-27T10:28:10Z</time>
      </trkpt>
      <trkpt lat="45.82128" lon="6.98441">
        <ele>2328</ele>
        <time>2022-08-27T10:28:12Z</time>
      </trkpt>
      <trkpt lat="45.8213" lon="6.98444">
        <ele>2328</ele>
        <time>2022-08-27T10:28:14Z</time>
      </trkpt>
      <trkpt lat="45.82133" lon="6.98446">
        <ele>2328</ele>
        <time>2022-08-27T10:28:16Z</time>
      </trkpt>
      <trkpt lat="45.82135" lon="6.98448">
        <ele>2328</ele>
        <time>2022-08-27T10:28:18Z</time>
      </trkpt>
      <trkpt lat="45.82137" lon="6.9845">
        <ele>2328</ele>
        <time>2022-08-27T10:28:20Z</time>
      </trkpt>
      <trkpt lat="45.82139" lon="6.98452">
        <ele>2328</ele>
        <time>2022-08-27T10:28:22Z</time>
      </trkpt>
      <trkpt lat="45.82141" lon="6.98454">
        <ele>2329</ele>
        <time>2022-08-27T10:28:24Z</time>
      </trkpt>
      <trkpt lat="45.82143" lon="6.98458">
        <ele>2329</ele>
        <time>2022-08-27T10:28:26Z</time>
      </trkpt>
      <trkpt lat="45.82144" lon="6.98461">
        <ele>2329</ele>
        <time>2022-08-27T10:28:28Z</time>
      </trkpt>
      <trkpt lat="45.82146" lon="6.98463">
        <ele>2329</ele>
        <time>2022-08-27T10:28:30Z</time>
      </trkpt>
      <trkpt lat="45.82148" lon="6.98466">
        <ele>2329</ele>
        <time>2022-08-27T10:28:32Z</time>
      </trkpt>
      <trkpt lat="45.8215" lon="6.9847">
        <ele>2329</ele>
        <time>2022-08-27T10:28:34Z</time>
      </trkpt>
      <trkpt lat="45.82152" lon="6.98472">
        <ele>2329</ele>
        <time>2022-08-27T10:28:36Z</time>
      </trkpt>
      <trkpt lat="45.82154" lon="6.98473">
        <ele>2329</ele>
        <time>2022-08-27T10:28:38Z</time>
      </trkpt>
      <trkpt lat="45.82156" lon="6.98474">
        <ele>2330</ele>
        <time>2022-08-27T10:28:40Z</time>
      </trkpt>
      <trkpt lat="45.82159" lon="6.98476">
        <ele>2330</ele>
        <time>2022-08-27T10:28:42Z</time>
      </trkpt>
      <trkpt lat="45.8216" lon="6.98477">
        <ele>2330</ele>
        <time>2022-08-27T10:28:43Z</time>
      </trkpt>
      <trkpt lat="45.82162" lon="6.98479">
        <ele>2330</ele>
        <time>2022-08-27T10:28:44Z</time>
      </trkpt>
      <trkpt lat="45.82165" lon="6.98483">
        <ele>2330</ele>
        <time>2022-08-27T10:28:45Z</time>
      </trkpt>
      <trkpt lat="45.82165" lon="6.98484">
        <ele>2330</ele>
        <time>2022-08-27T10:28:46Z</time>
      </trkpt>
      <trkpt lat="45.82166" lon="6.98486">
        <ele>2330</ele>
        <time>2022-08-27T10:28:47Z</time>
      </trkpt>
      <trkpt lat="45.82169" lon="6.98489">
        <ele>2330</ele>
        <time>2022-08-27T10:28:49Z</time>
      </trkpt>
      <trkpt lat="45.82171" lon="6.98491">
        <ele>2330</ele>
        <time>2022-08-27T10:28:50Z</time>
      </trkpt>
      <trkpt lat="45.82173" lon="6.98495">
        <ele>2330</ele>
        <time>2022-08-27T10:28:52Z</time>
      </trkpt>
      <trkpt lat="45.82174" lon="6.98499">
        <ele>2330</ele>
        <time>2022-08-27T10:28:53Z</time>
      </trkpt>
      <trkpt lat="45.82175" lon="6.985">
        <ele>2329</ele>
        <time>2022-08-27T10:28:54Z</time>
      </trkpt>
      <trkpt lat="45.82176" lon="6.98502">
        <ele>2329</ele>
        <time>2022-08-27T10:28:55Z</time>
      </trkpt>
      <trkpt lat="45.82179" lon="6.98506">
        <ele>2329</ele>
        <time>2022-08-27T10:28:57Z</time>
      </trkpt>
      <trkpt lat="45.82181" lon="6.98509">
        <ele>2329</ele>
        <time>2022-08-27T10:28:58Z</time>
      </trkpt>
      <trkpt lat="45.82182" lon="6.9851">
        <ele>2329</ele>
        <time>2022-08-27T10:28:59Z</time>
      </trkpt>
      <trkpt lat="45.82183" lon="6.98512">
        <ele>2329</ele>
        <time>2022-08-27T10:29:00Z</time>
      </trkpt>
      <trkpt lat="45.82185" lon="6.98514">
        <ele>2329</ele>
        <time>2022-08-27T10:29:01Z</time>
      </trkpt>
      <trkpt lat="45.82186" lon="6.98516">
        <ele>2329</ele>
        <time>2022-08-27T10:29:02Z</time>
      </trkpt>
      <trkpt lat="45.82187" lon="6.98519">
        <ele>2328</ele>
        <time>2022-08-27T10:29:03Z</time>
      </trkpt>
      <trkpt lat="45.8219" lon="6.98523">
        <ele>2328</ele>
        <time>2022-08-27T10:29:04Z</time>
      </trkpt>
      <trkpt lat="45.8219" lon="6.98524">
        <ele>2327</ele>
        <time>2022-08-27T10:29:05Z</time>
      </trkpt>
      <trkpt lat="45.82192" lon="6.98526">
        <ele>2327</ele>
        <time>2022-08-27T10:29:06Z</time>
      </trkpt>
      <trkpt lat="45.82194" lon="6.98528">
        <ele>2327</ele>
        <time>2022-08-27T10:29:07Z</time>
      </trkpt>
      <trkpt lat="45.82195" lon="6.98531">
        <ele>2328</ele>
        <time>2022-08-27T10:29:08Z</time>
      </trkpt>
      <trkpt lat="45.82196" lon="6.98533">
        <ele>2328</ele>
        <time>2022-08-27T10:29:09Z</time>
      </trkpt>
      <trkpt lat="45.82198" lon="6.98538">
        <ele>2328</ele>
        <time>2022-08-27T10:29:11Z</time>
      </trkpt>
      <trkpt lat="45.82199" lon="6.9854">
        <ele>2327</ele>
        <time>2022-08-27T10:29:12Z</time>
      </trkpt>
      <trkpt lat="45.82199" lon="6.98542">
        <ele>2327</ele>
        <time>2022-08-27T10:29:13Z</time>
      </trkpt>
      <trkpt lat="45.822" lon="6.98545">
        <ele>2327</ele>
        <time>2022-08-27T10:29:14Z</time>
      </trkpt>
      <trkpt lat="45.82201" lon="6.98548">
        <ele>2327</ele>
        <time>2022-08-27T10:29:15Z</time>
      </trkpt>
      <trkpt lat="45.82202" lon="6.9855">
        <ele>2327</ele>
        <time>2022-08-27T10:29:16Z</time>
      </trkpt>
      <trkpt lat="45.82203" lon="6.98554">
        <ele>2327</ele>
        <time>2022-08-27T10:29:18Z</time>
      </trkpt>
      <trkpt lat="45.82205" lon="6.98559">
        <ele>2327</ele>
        <time>2022-08-27T10:29:20Z</time>
      </trkpt>
      <trkpt lat="45.82205" lon="6.9856">
        <ele>2327</ele>
        <time>2022-08-27T10:29:21Z</time>
      </trkpt>
      <trkpt lat="45.82206" lon="6.98562">
        <ele>2327</ele>
        <time>2022-08-27T10:29:22Z</time>
      </trkpt>
      <trkpt lat="45.82208" lon="6.98566">
        <ele>2327</ele>
        <time>2022-08-27T10:29:23Z</time>
      </trkpt>
      <trkpt lat="45.82209" lon="6.98568">
        <ele>2327</ele>
        <time>2022-08-27T10:29:24Z</time>
      </trkpt>
      <trkpt lat="45.8221" lon="6.9857">
        <ele>2326</ele>
        <time>2022-08-27T10:29:25Z</time>
      </trkpt>
      <trkpt lat="45.82211" lon="6.98573">
        <ele>2326</ele>
        <time>2022-08-27T10:29:26Z</time>
      </trkpt>
      <trkpt lat="45.82212" lon="6.98576">
        <ele>2326</ele>
        <time>2022-08-27T10:29:27Z</time>
      </trkpt>
      <trkpt lat="45.82214" lon="6.9858">
        <ele>2326</ele>
        <time>2022-08-27T10:29:29Z</time>
      </trkpt>
      <trkpt lat="45.82215" lon="6.98583">
        <ele>2326</ele>
        <time>2022-08-27T10:29:30Z</time>
      </trkpt>
      <trkpt lat="45.82216" lon="6.98584">
        <ele>2326</ele>
        <time>2022-08-27T10:29:31Z</time>
      </trkpt>
      <trkpt lat="45.82218" lon="6.98586">
        <ele>2326</ele>
        <time>2022-08-27T10:29:32Z</time>
      </trkpt>
      <trkpt lat="45.8222" lon="6.98589">
        <ele>2326</ele>
        <time>2022-08-27T10:29:34Z</time>
      </trkpt>
      <trkpt lat="45.82223" lon="6.98593">
        <ele>2324</ele>
        <time>2022-08-27T10:29:36Z</time>
      </trkpt>
      <trkpt lat="45.82224" lon="6.98595">
        <ele>2323</ele>
        <time>2022-08-27T10:29:37Z</time>
      </trkpt>
      <trkpt lat="45.82225" lon="6.98597">
        <ele>2323</ele>
        <time>2022-08-27T10:29:38Z</time>
      </trkpt>
      <trkpt lat="45.82227" lon="6.98598">
        <ele>2322</ele>
        <time>2022-08-27T10:29:39Z</time>
      </trkpt>
      <trkpt lat="45.82229" lon="6.98602">
        <ele>2322</ele>
        <time>2022-08-27T10:29:41Z</time>
      </trkpt>
      <trkpt lat="45.82232" lon="6.98605">
        <ele>2322</ele>
        <time>2022-08-27T10:29:42Z</time>
      </trkpt>
      <trkpt lat="45.82233" lon="6.98606">
        <ele>2322</ele>
        <time>2022-08-27T10:29:43Z</time>
      </trkpt>
      <trkpt lat="45.82235" lon="6.98608">
        <ele>2322</ele>
        <time>2022-08-27T10:29:44Z</time>
      </trkpt>
      <trkpt lat="45.82236" lon="6.9861">
        <ele>2322</ele>
        <time>2022-08-27T10:29:45Z</time>
      </trkpt>
      <trkpt lat="45.82239" lon="6.98613">
        <ele>2321</ele>
        <time>2022-08-27T10:29:47Z</time>
      </trkpt>
      <trkpt lat="45.8224" lon="6.98615">
        <ele>2321</ele>
        <time>2022-08-27T10:29:48Z</time>
      </trkpt>
      <trkpt lat="45.82242" lon="6.98618">
        <ele>2321</ele>
        <time>2022-08-27T10:29:49Z</time>
      </trkpt>
      <trkpt lat="45.82244" lon="6.98621">
        <ele>2321</ele>
        <time>2022-08-27T10:29:50Z</time>
      </trkpt>
      <trkpt lat="45.82244" lon="6.98623">
        <ele>2321</ele>
        <time>2022-08-27T10:29:51Z</time>
      </trkpt>
      <trkpt lat="45.82246" lon="6.98625">
        <ele>2321</ele>
        <time>2022-08-27T10:29:52Z</time>
      </trkpt>
      <trkpt lat="45.82247" lon="6.98627">
        <ele>2321</ele>
        <time>2022-08-27T10:29:53Z</time>
      </trkpt>
      <trkpt lat="45.82249" lon="6.98629">
        <ele>2321</ele>
        <time>2022-08-27T10:29:54Z</time>
      </trkpt>
      <trkpt lat="45.8225" lon="6.98631">
        <ele>2321</ele>
        <time>2022-08-27T10:29:55Z</time>
      </trkpt>
      <trkpt lat="45.82252" lon="6.98633">
        <ele>2320</ele>
        <time>2022-08-27T10:29:56Z</time>
      </trkpt>
      <trkpt lat="45.82253" lon="6.98635">
        <ele>2320</ele>
        <time>2022-08-27T10:29:57Z</time>
      </trkpt>
      <trkpt lat="45.82255" lon="6.98637">
        <ele>2320</ele>
        <time>2022-08-27T10:29:58Z</time>
      </trkpt>
      <trkpt lat="45.82257" lon="6.98639">
        <ele>2320</ele>
        <time>2022-08-27T10:29:59Z</time>
      </trkpt>
      <trkpt lat="45.82258" lon="6.98641">
        <ele>2320</ele>
        <time>2022-08-27T10:30:00Z</time>
      </trkpt>
      <trkpt lat="45.82261" lon="6.98644">
        <ele>2320</ele>
        <time>2022-08-27T10:30:02Z</time>
      </trkpt>
      <trkpt lat="45.82262" lon="6.98645">
        <ele>2319</ele>
        <time>2022-08-27T10:30:03Z</time>
      </trkpt>
      <trkpt lat="45.82264" lon="6.98647">
        <ele>2320</ele>
        <time>2022-08-27T10:30:04Z</time>
      </trkpt>
      <trkpt lat="45.82265" lon="6.98649">
        <ele>2320</ele>
        <time>2022-08-27T10:30:05Z</time>
      </trkpt>
      <trkpt lat="45.82268" lon="6.98652">
        <ele>2320</ele>
        <time>2022-08-27T10:30:07Z</time>
      </trkpt>
      <trkpt lat="45.8227" lon="6.98656">
        <ele>2320</ele>
        <time>2022-08-27T10:30:09Z</time>
      </trkpt>
      <trkpt lat="45.82272" lon="6.98659">
        <ele>2320</ele>
        <time>2022-08-27T10:30:11Z</time>
      </trkpt>
      <trkpt lat="45.82275" lon="6.98662">
        <ele>2320</ele>
        <time>2022-08-27T10:30:13Z</time>
      </trkpt>
      <trkpt lat="45.82277" lon="6.98665">
        <ele>2320</ele>
        <time>2022-08-27T10:30:14Z</time>
      </trkpt>
      <trkpt lat="45.82278" lon="6.98666">
        <ele>2320</ele>
        <time>2022-08-27T10:30:15Z</time>
      </trkpt>
      <trkpt lat="45.8228" lon="6.9867">
        <ele>2319</ele>
        <time>2022-08-27T10:30:17Z</time>
      </trkpt>
      <trkpt lat="45.82281" lon="6.98672">
        <ele>2319</ele>
        <time>2022-08-27T10:30:18Z</time>
      </trkpt>
      <trkpt lat="45.82283" lon="6.98674">
        <ele>2319</ele>
        <time>2022-08-27T10:30:19Z</time>
      </trkpt>
      <trkpt lat="45.82284" lon="6.98676">
        <ele>2319</ele>
        <time>2022-08-27T10:30:20Z</time>
      </trkpt>
      <trkpt lat="45.82285" lon="6.98678">
        <ele>2319</ele>
        <time>2022-08-27T10:30:21Z</time>
      </trkpt>
      <trkpt lat="45.82288" lon="6.9868">
        <ele>2319</ele>
        <time>2022-08-27T10:30:23Z</time>
      </trkpt>
      <trkpt lat="45.8229" lon="6.98681">
        <ele>2319</ele>
        <time>2022-08-27T10:30:24Z</time>
      </trkpt>
      <trkpt lat="45.82293" lon="6.98684">
        <ele>2318</ele>
        <time>2022-08-27T10:30:26Z</time>
      </trkpt>
      <trkpt lat="45.82295" lon="6.98686">
        <ele>2318</ele>
        <time>2022-08-27T10:30:27Z</time>
      </trkpt>
      <trkpt lat="45.82296" lon="6.98687">
        <ele>2318</ele>
        <time>2022-08-27T10:30:28Z</time>
      </trkpt>
      <trkpt lat="45.82298" lon="6.9869">
        <ele>2318</ele>
        <time>2022-08-27T10:30:29Z</time>
      </trkpt>
      <trkpt lat="45.82299" lon="6.98692">
        <ele>2318</ele>
        <time>2022-08-27T10:30:30Z</time>
      </trkpt>
      <trkpt lat="45.82301" lon="6.98695">
        <ele>2318</ele>
        <time>2022-08-27T10:30:32Z</time>
      </trkpt>
      <trkpt lat="45.82302" lon="6.98696">
        <ele>2317</ele>
        <time>2022-08-27T10:30:33Z</time>
      </trkpt>
      <trkpt lat="45.82304" lon="6.98698">
        <ele>2317</ele>
        <time>2022-08-27T10:30:34Z</time>
      </trkpt>
      <trkpt lat="45.82306" lon="6.987">
        <ele>2317</ele>
        <time>2022-08-27T10:30:36Z</time>
      </trkpt>
      <trkpt lat="45.82308" lon="6.98703">
        <ele>2317</ele>
        <time>2022-08-27T10:30:37Z</time>
      </trkpt>
      <trkpt lat="45.8231" lon="6.98705">
        <ele>2317</ele>
        <time>2022-08-27T10:30:38Z</time>
      </trkpt>
      <trkpt lat="45.82312" lon="6.98708">
        <ele>2317</ele>
        <time>2022-08-27T10:30:39Z</time>
      </trkpt>
      <trkpt lat="45.82313" lon="6.9871">
        <ele>2316</ele>
        <time>2022-08-27T10:30:40Z</time>
      </trkpt>
      <trkpt lat="45.82315" lon="6.98713">
        <ele>2316</ele>
        <time>2022-08-27T10:30:41Z</time>
      </trkpt>
      <trkpt lat="45.82317" lon="6.98717">
        <ele>2315</ele>
        <time>2022-08-27T10:30:43Z</time>
      </trkpt>
      <trkpt lat="45.82318" lon="6.9872">
        <ele>2315</ele>
        <time>2022-08-27T10:30:44Z</time>
      </trkpt>
      <trkpt lat="45.82319" lon="6.98722">
        <ele>2315</ele>
        <time>2022-08-27T10:30:45Z</time>
      </trkpt>
      <trkpt lat="45.82321" lon="6.98726">
        <ele>2314</ele>
        <time>2022-08-27T10:30:47Z</time>
      </trkpt>
      <trkpt lat="45.82322" lon="6.98728">
        <ele>2313</ele>
        <time>2022-08-27T10:30:48Z</time>
      </trkpt>
      <trkpt lat="45.82324" lon="6.98732">
        <ele>2313</ele>
        <time>2022-08-27T10:30:50Z</time>
      </trkpt>
      <trkpt lat="45.82325" lon="6.98734">
        <ele>2313</ele>
        <time>2022-08-27T10:30:51Z</time>
      </trkpt>
      <trkpt lat="45.82327" lon="6.98736">
        <ele>2312</ele>
        <time>2022-08-27T10:30:52Z</time>
      </trkpt>
      <trkpt lat="45.82329" lon="6.98739">
        <ele>2312</ele>
        <time>2022-08-27T10:30:54Z</time>
      </trkpt>
      <trkpt lat="45.82332" lon="6.98742">
        <ele>2311</ele>
        <time>2022-08-27T10:30:56Z</time>
      </trkpt>
      <trkpt lat="45.82334" lon="6.98745">
        <ele>2311</ele>
        <time>2022-08-27T10:30:58Z</time>
      </trkpt>
      <trkpt lat="45.82337" lon="6.98748">
        <ele>2310</ele>
        <time>2022-08-27T10:31:00Z</time>
      </trkpt>
      <trkpt lat="45.82339" lon="6.98751">
        <ele>2310</ele>
        <time>2022-08-27T10:31:02Z</time>
      </trkpt>
      <trkpt lat="45.82342" lon="6.98754">
        <ele>2310</ele>
        <time>2022-08-27T10:31:04Z</time>
      </trkpt>
      <trkpt lat="45.82345" lon="6.98758">
        <ele>2310</ele>
        <time>2022-08-27T10:31:06Z</time>
      </trkpt>
      <trkpt lat="45.82347" lon="6.9876">
        <ele>2308</ele>
        <time>2022-08-27T10:31:08Z</time>
      </trkpt>
      <trkpt lat="45.82349" lon="6.98761">
        <ele>2308</ele>
        <time>2022-08-27T10:31:09Z</time>
      </trkpt>
      <trkpt lat="45.82351" lon="6.98763">
        <ele>2307</ele>
        <time>2022-08-27T10:31:10Z</time>
      </trkpt>
      <trkpt lat="45.82352" lon="6.98764">
        <ele>2307</ele>
        <time>2022-08-27T10:31:11Z</time>
      </trkpt>
      <trkpt lat="45.82354" lon="6.98766">
        <ele>2307</ele>
        <time>2022-08-27T10:31:12Z</time>
      </trkpt>
      <trkpt lat="45.82356" lon="6.98767">
        <ele>2307</ele>
        <time>2022-08-27T10:31:13Z</time>
      </trkpt>
      <trkpt lat="45.82357" lon="6.98769">
        <ele>2306</ele>
        <time>2022-08-27T10:31:14Z</time>
      </trkpt>
      <trkpt lat="45.82359" lon="6.98771">
        <ele>2306</ele>
        <time>2022-08-27T10:31:15Z</time>
      </trkpt>
      <trkpt lat="45.8236" lon="6.98773">
        <ele>2306</ele>
        <time>2022-08-27T10:31:16Z</time>
      </trkpt>
      <trkpt lat="45.82361" lon="6.98775">
        <ele>2306</ele>
        <time>2022-08-27T10:31:17Z</time>
      </trkpt>
      <trkpt lat="45.82363" lon="6.98778">
        <ele>2306</ele>
        <time>2022-08-27T10:31:19Z</time>
      </trkpt>
      <trkpt lat="45.82365" lon="6.98782">
        <ele>2306</ele>
        <time>2022-08-27T10:31:21Z</time>
      </trkpt>
      <trkpt lat="45.82367" lon="6.98785">
        <ele>2306</ele>
        <time>2022-08-27T10:31:23Z</time>
      </trkpt>
      <trkpt lat="45.82368" lon="6.98786">
        <ele>2306</ele>
        <time>2022-08-27T10:31:24Z</time>
      </trkpt>
      <trkpt lat="45.8237" lon="6.9879">
        <ele>2306</ele>
        <time>2022-08-27T10:31:26Z</time>
      </trkpt>
      <trkpt lat="45.82371" lon="6.98792">
        <ele>2306</ele>
        <time>2022-08-27T10:31:28Z</time>
      </trkpt>
      <trkpt lat="45.82373" lon="6.98795">
        <ele>2306</ele>
        <time>2022-08-27T10:31:30Z</time>
      </trkpt>
      <trkpt lat="45.82374" lon="6.98798">
        <ele>2306</ele>
        <time>2022-08-27T10:31:32Z</time>
      </trkpt>
      <trkpt lat="45.82376" lon="6.98801">
        <ele>2306</ele>
        <time>2022-08-27T10:31:34Z</time>
      </trkpt>
      <trkpt lat="45.82377" lon="6.98804">
        <ele>2306</ele>
        <time>2022-08-27T10:31:36Z</time>
      </trkpt>
      <trkpt lat="45.82378" lon="6.98807">
        <ele>2306</ele>
        <time>2022-08-27T10:31:38Z</time>
      </trkpt>
      <trkpt lat="45.82379" lon="6.98809">
        <ele>2307</ele>
        <time>2022-08-27T10:31:42Z</time>
      </trkpt>
      <trkpt lat="45.8238" lon="6.98812">
        <ele>2307</ele>
        <time>2022-08-27T10:31:44Z</time>
      </trkpt>
      <trkpt lat="45.82382" lon="6.98814">
        <ele>2307</ele>
        <time>2022-08-27T10:31:46Z</time>
      </trkpt>
      <trkpt lat="45.82383" lon="6.98817">
        <ele>2307</ele>
        <time>2022-08-27T10:31:48Z</time>
      </trkpt>
      <trkpt lat="45.82384" lon="6.9882">
        <ele>2308</ele>
        <time>2022-08-27T10:31:50Z</time>
      </trkpt>
      <trkpt lat="45.82385" lon="6.98822">
        <ele>2308</ele>
        <time>2022-08-27T10:31:52Z</time>
      </trkpt>
      <trkpt lat="45.82386" lon="6.98825">
        <ele>2308</ele>
        <time>2022-08-27T10:31:54Z</time>
      </trkpt>
      <trkpt lat="45.82387" lon="6.98829">
        <ele>2308</ele>
        <time>2022-08-27T10:31:56Z</time>
      </trkpt>
      <trkpt lat="45.82388" lon="6.98831">
        <ele>2310</ele>
        <time>2022-08-27T10:31:58Z</time>
      </trkpt>
      <trkpt lat="45.82389" lon="6.98834">
        <ele>2310</ele>
        <time>2022-08-27T10:32:00Z</time>
      </trkpt>
      <trkpt lat="45.8239" lon="6.98837">
        <ele>2310</ele>
        <time>2022-08-27T10:32:02Z</time>
      </trkpt>
      <trkpt lat="45.82391" lon="6.98839">
        <ele>2310</ele>
        <time>2022-08-27T10:32:04Z</time>
      </trkpt>
      <trkpt lat="45.82392" lon="6.98843">
        <ele>2310</ele>
        <time>2022-08-27T10:32:06Z</time>
      </trkpt>
      <trkpt lat="45.82393" lon="6.98845">
        <ele>2311</ele>
        <time>2022-08-27T10:32:08Z</time>
      </trkpt>
      <trkpt lat="45.82395" lon="6.98848">
        <ele>2311</ele>
        <time>2022-08-27T10:32:10Z</time>
      </trkpt>
      <trkpt lat="45.82396" lon="6.9885">
        <ele>2311</ele>
        <time>2022-08-27T10:32:11Z</time>
      </trkpt>
      <trkpt lat="45.82398" lon="6.98854">
        <ele>2311</ele>
        <time>2022-08-27T10:32:12Z</time>
      </trkpt>
      <trkpt lat="45.82398" lon="6.98855">
        <ele>2311</ele>
        <time>2022-08-27T10:32:13Z</time>
      </trkpt>
      <trkpt lat="45.82399" lon="6.98857">
        <ele>2311</ele>
        <time>2022-08-27T10:32:14Z</time>
      </trkpt>
      <trkpt lat="45.824" lon="6.9886">
        <ele>2311</ele>
        <time>2022-08-27T10:32:15Z</time>
      </trkpt>
      <trkpt lat="45.82401" lon="6.98863">
        <ele>2311</ele>
        <time>2022-08-27T10:32:16Z</time>
      </trkpt>
      <trkpt lat="45.82402" lon="6.98865">
        <ele>2310</ele>
        <time>2022-08-27T10:32:17Z</time>
      </trkpt>
      <trkpt lat="45.82402" lon="6.98868">
        <ele>2310</ele>
        <time>2022-08-27T10:32:18Z</time>
      </trkpt>
      <trkpt lat="45.82403" lon="6.98869">
        <ele>2310</ele>
        <time>2022-08-27T10:32:19Z</time>
      </trkpt>
      <trkpt lat="45.82404" lon="6.98871">
        <ele>2310</ele>
        <time>2022-08-27T10:32:20Z</time>
      </trkpt>
      <trkpt lat="45.82404" lon="6.98872">
        <ele>2310</ele>
        <time>2022-08-27T10:32:21Z</time>
      </trkpt>
      <trkpt lat="45.82406" lon="6.98877">
        <ele>2310</ele>
        <time>2022-08-27T10:32:22Z</time>
      </trkpt>
      <trkpt lat="45.82407" lon="6.98879">
        <ele>2310</ele>
        <time>2022-08-27T10:32:23Z</time>
      </trkpt>
      <trkpt lat="45.82408" lon="6.98881">
        <ele>2310</ele>
        <time>2022-08-27T10:32:24Z</time>
      </trkpt>
      <trkpt lat="45.8241" lon="6.98885">
        <ele>2309</ele>
        <time>2022-08-27T10:32:26Z</time>
      </trkpt>
      <trkpt lat="45.82412" lon="6.98887">
        <ele>2308</ele>
        <time>2022-08-27T10:32:27Z</time>
      </trkpt>
      <trkpt lat="45.82413" lon="6.9889">
        <ele>2308</ele>
        <time>2022-08-27T10:32:28Z</time>
      </trkpt>
      <trkpt lat="45.82414" lon="6.98892">
        <ele>2308</ele>
        <time>2022-08-27T10:32:29Z</time>
      </trkpt>
      <trkpt lat="45.82415" lon="6.98895">
        <ele>2308</ele>
        <time>2022-08-27T10:32:30Z</time>
      </trkpt>
      <trkpt lat="45.82415" lon="6.98898">
        <ele>2308</ele>
        <time>2022-08-27T10:32:31Z</time>
      </trkpt>
      <trkpt lat="45.82416" lon="6.98901">
        <ele>2308</ele>
        <time>2022-08-27T10:32:32Z</time>
      </trkpt>
      <trkpt lat="45.82416" lon="6.98903">
        <ele>2308</ele>
        <time>2022-08-27T10:32:33Z</time>
      </trkpt>
      <trkpt lat="45.82416" lon="6.98908">
        <ele>2307</ele>
        <time>2022-08-27T10:32:35Z</time>
      </trkpt>
      <trkpt lat="45.82417" lon="6.98915">
        <ele>2306</ele>
        <time>2022-08-27T10:32:37Z</time>
      </trkpt>
      <trkpt lat="45.82418" lon="6.98916">
        <ele>2306</ele>
        <time>2022-08-27T10:32:38Z</time>
      </trkpt>
      <trkpt lat="45.82419" lon="6.98918">
        <ele>2305</ele>
        <time>2022-08-27T10:32:39Z</time>
      </trkpt>
      <trkpt lat="45.82419" lon="6.98921">
        <ele>2305</ele>
        <time>2022-08-27T10:32:40Z</time>
      </trkpt>
      <trkpt lat="45.8242" lon="6.98924">
        <ele>2305</ele>
        <time>2022-08-27T10:32:41Z</time>
      </trkpt>
      <trkpt lat="45.82421" lon="6.98926">
        <ele>2305</ele>
        <time>2022-08-27T10:32:42Z</time>
      </trkpt>
      <trkpt lat="45.82421" lon="6.98929">
        <ele>2305</ele>
        <time>2022-08-27T10:32:43Z</time>
      </trkpt>
      <trkpt lat="45.82421" lon="6.98932">
        <ele>2304</ele>
        <time>2022-08-27T10:32:44Z</time>
      </trkpt>
      <trkpt lat="45.82422" lon="6.98936">
        <ele>2304</ele>
        <time>2022-08-27T10:32:45Z</time>
      </trkpt>
      <trkpt lat="45.82422" lon="6.98938">
        <ele>2304</ele>
        <time>2022-08-27T10:32:46Z</time>
      </trkpt>
      <trkpt lat="45.82423" lon="6.98941">
        <ele>2304</ele>
        <time>2022-08-27T10:32:47Z</time>
      </trkpt>
      <trkpt lat="45.82423" lon="6.98944">
        <ele>2304</ele>
        <time>2022-08-27T10:32:48Z</time>
      </trkpt>
      <trkpt lat="45.82423" lon="6.98947">
        <ele>2304</ele>
        <time>2022-08-27T10:32:49Z</time>
      </trkpt>
      <trkpt lat="45.82424" lon="6.98949">
        <ele>2304</ele>
        <time>2022-08-27T10:32:50Z</time>
      </trkpt>
      <trkpt lat="45.82425" lon="6.98952">
        <ele>2303</ele>
        <time>2022-08-27T10:32:51Z</time>
      </trkpt>
      <trkpt lat="45.82426" lon="6.98956">
        <ele>2303</ele>
        <time>2022-08-27T10:32:53Z</time>
      </trkpt>
      <trkpt lat="45.82426" lon="6.98961">
        <ele>2303</ele>
        <time>2022-08-27T10:32:55Z</time>
      </trkpt>
      <trkpt lat="45.82427" lon="6.98965">
        <ele>2303</ele>
        <time>2022-08-27T10:32:56Z</time>
      </trkpt>
      <trkpt lat="45.82427" lon="6.98967">
        <ele>2303</ele>
        <time>2022-08-27T10:32:57Z</time>
      </trkpt>
      <trkpt lat="45.82428" lon="6.98971">
        <ele>2304</ele>
        <time>2022-08-27T10:32:59Z</time>
      </trkpt>
      <trkpt lat="45.82428" lon="6.98973">
        <ele>2304</ele>
        <time>2022-08-27T10:33:00Z</time>
      </trkpt>
      <trkpt lat="45.82429" lon="6.98975">
        <ele>2304</ele>
        <time>2022-08-27T10:33:01Z</time>
      </trkpt>
      <trkpt lat="45.8243" lon="6.98977">
        <ele>2304</ele>
        <time>2022-08-27T10:33:02Z</time>
      </trkpt>
      <trkpt lat="45.82431" lon="6.98981">
        <ele>2304</ele>
        <time>2022-08-27T10:33:04Z</time>
      </trkpt>
      <trkpt lat="45.82432" lon="6.98985">
        <ele>2304</ele>
        <time>2022-08-27T10:33:06Z</time>
      </trkpt>
      <trkpt lat="45.82432" lon="6.98989">
        <ele>2304</ele>
        <time>2022-08-27T10:33:08Z</time>
      </trkpt>
      <trkpt lat="45.82433" lon="6.98993">
        <ele>2303</ele>
        <time>2022-08-27T10:33:10Z</time>
      </trkpt>
      <trkpt lat="45.82434" lon="6.98997">
        <ele>2303</ele>
        <time>2022-08-27T10:33:12Z</time>
      </trkpt>
      <trkpt lat="45.82435" lon="6.99001">
        <ele>2303</ele>
        <time>2022-08-27T10:33:14Z</time>
      </trkpt>
      <trkpt lat="45.82435" lon="6.99004">
        <ele>2303</ele>
        <time>2022-08-27T10:33:16Z</time>
      </trkpt>
      <trkpt lat="45.82436" lon="6.99008">
        <ele>2303</ele>
        <time>2022-08-27T10:33:18Z</time>
      </trkpt>
      <trkpt lat="45.82437" lon="6.99012">
        <ele>2303</ele>
        <time>2022-08-27T10:33:20Z</time>
      </trkpt>
      <trkpt lat="45.82437" lon="6.99015">
        <ele>2304</ele>
        <time>2022-08-27T10:33:22Z</time>
      </trkpt>
      <trkpt lat="45.82437" lon="6.99019">
        <ele>2304</ele>
        <time>2022-08-27T10:33:24Z</time>
      </trkpt>
      <trkpt lat="45.82438" lon="6.99022">
        <ele>2304</ele>
        <time>2022-08-27T10:33:26Z</time>
      </trkpt>
      <trkpt lat="45.82439" lon="6.99026">
        <ele>2304</ele>
        <time>2022-08-27T10:33:28Z</time>
      </trkpt>
      <trkpt lat="45.8244" lon="6.99029">
        <ele>2304</ele>
        <time>2022-08-27T10:33:30Z</time>
      </trkpt>
      <trkpt lat="45.82442" lon="6.99033">
        <ele>2304</ele>
        <time>2022-08-27T10:33:32Z</time>
      </trkpt>
      <trkpt lat="45.82443" lon="6.99035">
        <ele>2304</ele>
        <time>2022-08-27T10:33:34Z</time>
      </trkpt>
      <trkpt lat="45.82444" lon="6.99038">
        <ele>2305</ele>
        <time>2022-08-27T10:33:36Z</time>
      </trkpt>
      <trkpt lat="45.82445" lon="6.99042">
        <ele>2305</ele>
        <time>2022-08-27T10:33:38Z</time>
      </trkpt>
      <trkpt lat="45.82445" lon="6.99046">
        <ele>2305</ele>
        <time>2022-08-27T10:33:40Z</time>
      </trkpt>
      <trkpt lat="45.82445" lon="6.99049">
        <ele>2305</ele>
        <time>2022-08-27T10:33:42Z</time>
      </trkpt>
      <trkpt lat="45.82445" lon="6.99054">
        <ele>2305</ele>
        <time>2022-08-27T10:33:44Z</time>
      </trkpt>
      <trkpt lat="45.82446" lon="6.99058">
        <ele>2305</ele>
        <time>2022-08-27T10:33:46Z</time>
      </trkpt>
      <trkpt lat="45.82447" lon="6.99062">
        <ele>2305</ele>
        <time>2022-08-27T10:33:48Z</time>
      </trkpt>
      <trkpt lat="45.82448" lon="6.99065">
        <ele>2305</ele>
        <time>2022-08-27T10:33:50Z</time>
      </trkpt>
      <trkpt lat="45.82449" lon="6.99069">
        <ele>2306</ele>
        <time>2022-08-27T10:33:52Z</time>
      </trkpt>
      <trkpt lat="45.82451" lon="6.99072">
        <ele>2306</ele>
        <time>2022-08-27T10:33:54Z</time>
      </trkpt>
      <trkpt lat="45.82452" lon="6.99075">
        <ele>2306</ele>
        <time>2022-08-27T10:33:56Z</time>
      </trkpt>
      <trkpt lat="45.82453" lon="6.99078">
        <ele>2306</ele>
        <time>2022-08-27T10:33:58Z</time>
      </trkpt>
      <trkpt lat="45.82454" lon="6.99082">
        <ele>2306</ele>
        <time>2022-08-27T10:34:00Z</time>
      </trkpt>
      <trkpt lat="45.82456" lon="6.99085">
        <ele>2306</ele>
        <time>2022-08-27T10:34:02Z</time>
      </trkpt>
      <trkpt lat="45.82457" lon="6.99088">
        <ele>2306</ele>
        <time>2022-08-27T10:34:04Z</time>
      </trkpt>
      <trkpt lat="45.82458" lon="6.99091">
        <ele>2306</ele>
        <time>2022-08-27T10:34:06Z</time>
      </trkpt>
      <trkpt lat="45.82459" lon="6.99095">
        <ele>2307</ele>
        <time>2022-08-27T10:34:08Z</time>
      </trkpt>
      <trkpt lat="45.8246" lon="6.99099">
        <ele>2307</ele>
        <time>2022-08-27T10:34:10Z</time>
      </trkpt>
      <trkpt lat="45.82461" lon="6.99102">
        <ele>2307</ele>
        <time>2022-08-27T10:34:12Z</time>
      </trkpt>
      <trkpt lat="45.82463" lon="6.99106">
        <ele>2307</ele>
        <time>2022-08-27T10:34:14Z</time>
      </trkpt>
      <trkpt lat="45.82464" lon="6.99109">
        <ele>2306</ele>
        <time>2022-08-27T10:34:16Z</time>
      </trkpt>
      <trkpt lat="45.82466" lon="6.99112">
        <ele>2307</ele>
        <time>2022-08-27T10:34:18Z</time>
      </trkpt>
      <trkpt lat="45.82467" lon="6.99115">
        <ele>2306</ele>
        <time>2022-08-27T10:34:21Z</time>
      </trkpt>
      <trkpt lat="45.82469" lon="6.99118">
        <ele>2306</ele>
        <time>2022-08-27T10:34:23Z</time>
      </trkpt>
      <trkpt lat="45.8247" lon="6.99121">
        <ele>2306</ele>
        <time>2022-08-27T10:34:25Z</time>
      </trkpt>
      <trkpt lat="45.82472" lon="6.99124">
        <ele>2306</ele>
        <time>2022-08-27T10:34:27Z</time>
      </trkpt>
      <trkpt lat="45.82474" lon="6.99127">
        <ele>2306</ele>
        <time>2022-08-27T10:34:29Z</time>
      </trkpt>
      <trkpt lat="45.82475" lon="6.9913">
        <ele>2307</ele>
        <time>2022-08-27T10:34:31Z</time>
      </trkpt>
      <trkpt lat="45.82477" lon="6.99133">
        <ele>2307</ele>
        <time>2022-08-27T10:34:33Z</time>
      </trkpt>
      <trkpt lat="45.82478" lon="6.99137">
        <ele>2307</ele>
        <time>2022-08-27T10:34:35Z</time>
      </trkpt>
      <trkpt lat="45.8248" lon="6.9914">
        <ele>2307</ele>
        <time>2022-08-27T10:34:37Z</time>
      </trkpt>
      <trkpt lat="45.82481" lon="6.99143">
        <ele>2307</ele>
        <time>2022-08-27T10:34:39Z</time>
      </trkpt>
      <trkpt lat="45.82483" lon="6.99146">
        <ele>2308</ele>
        <time>2022-08-27T10:34:41Z</time>
      </trkpt>
      <trkpt lat="45.82485" lon="6.99149">
        <ele>2308</ele>
        <time>2022-08-27T10:34:43Z</time>
      </trkpt>
      <trkpt lat="45.82487" lon="6.99152">
        <ele>2308</ele>
        <time>2022-08-27T10:34:45Z</time>
      </trkpt>
      <trkpt lat="45.82489" lon="6.99158">
        <ele>2308</ele>
        <time>2022-08-27T10:34:47Z</time>
      </trkpt>
      <trkpt lat="45.8249" lon="6.9916">
        <ele>2307</ele>
        <time>2022-08-27T10:34:49Z</time>
      </trkpt>
      <trkpt lat="45.82491" lon="6.99162">
        <ele>2307</ele>
        <time>2022-08-27T10:34:50Z</time>
      </trkpt>
      <trkpt lat="45.82491" lon="6.99165">
        <ele>2308</ele>
        <time>2022-08-27T10:34:51Z</time>
      </trkpt>
      <trkpt lat="45.82492" lon="6.99169">
        <ele>2308</ele>
        <time>2022-08-27T10:34:52Z</time>
      </trkpt>
      <trkpt lat="45.82492" lon="6.99171">
        <ele>2308</ele>
        <time>2022-08-27T10:34:53Z</time>
      </trkpt>
      <trkpt lat="45.82493" lon="6.99174">
        <ele>2308</ele>
        <time>2022-08-27T10:34:54Z</time>
      </trkpt>
      <trkpt lat="45.82493" lon="6.99177">
        <ele>2308</ele>
        <time>2022-08-27T10:34:55Z</time>
      </trkpt>
      <trkpt lat="45.82493" lon="6.99181">
        <ele>2308</ele>
        <time>2022-08-27T10:34:56Z</time>
      </trkpt>
      <trkpt lat="45.82494" lon="6.99184">
        <ele>2308</ele>
        <time>2022-08-27T10:34:57Z</time>
      </trkpt>
      <trkpt lat="45.82494" lon="6.99187">
        <ele>2308</ele>
        <time>2022-08-27T10:34:58Z</time>
      </trkpt>
      <trkpt lat="45.82494" lon="6.99189">
        <ele>2308</ele>
        <time>2022-08-27T10:34:59Z</time>
      </trkpt>
      <trkpt lat="45.82494" lon="6.99192">
        <ele>2308</ele>
        <time>2022-08-27T10:35:00Z</time>
      </trkpt>
      <trkpt lat="45.82494" lon="6.99195">
        <ele>2308</ele>
        <time>2022-08-27T10:35:01Z</time>
      </trkpt>
      <trkpt lat="45.82494" lon="6.99198">
        <ele>2308</ele>
        <time>2022-08-27T10:35:02Z</time>
      </trkpt>
      <trkpt lat="45.82494" lon="6.99201">
        <ele>2308</ele>
        <time>2022-08-27T10:35:03Z</time>
      </trkpt>
      <trkpt lat="45.82495" lon="6.99203">
        <ele>2308</ele>
        <time>2022-08-27T10:35:04Z</time>
      </trkpt>
      <trkpt lat="45.82496" lon="6.99206">
        <ele>2308</ele>
        <time>2022-08-27T10:35:05Z</time>
      </trkpt>
      <trkpt lat="45.82498" lon="6.99208">
        <ele>2308</ele>
        <time>2022-08-27T10:35:06Z</time>
      </trkpt>
      <trkpt lat="45.825" lon="6.99211">
        <ele>2308</ele>
        <time>2022-08-27T10:35:08Z</time>
      </trkpt>
      <trkpt lat="45.82501" lon="6.99213">
        <ele>2308</ele>
        <time>2022-08-27T10:35:09Z</time>
      </trkpt>
      <trkpt lat="45.82503" lon="6.99215">
        <ele>2308</ele>
        <time>2022-08-27T10:35:10Z</time>
      </trkpt>
      <trkpt lat="45.82504" lon="6.99218">
        <ele>2308</ele>
        <time>2022-08-27T10:35:11Z</time>
      </trkpt>
      <trkpt lat="45.82504" lon="6.99221">
        <ele>2308</ele>
        <time>2022-08-27T10:35:12Z</time>
      </trkpt>
      <trkpt lat="45.82505" lon="6.99223">
        <ele>2308</ele>
        <time>2022-08-27T10:35:13Z</time>
      </trkpt>
      <trkpt lat="45.82506" lon="6.99226">
        <ele>2308</ele>
        <time>2022-08-27T10:35:14Z</time>
      </trkpt>
      <trkpt lat="45.82506" lon="6.99228">
        <ele>2308</ele>
        <time>2022-08-27T10:35:15Z</time>
      </trkpt>
      <trkpt lat="45.82507" lon="6.99231">
        <ele>2308</ele>
        <time>2022-08-27T10:35:16Z</time>
      </trkpt>
      <trkpt lat="45.82508" lon="6.99233">
        <ele>2308</ele>
        <time>2022-08-27T10:35:17Z</time>
      </trkpt>
      <trkpt lat="45.82509" lon="6.99236">
        <ele>2308</ele>
        <time>2022-08-27T10:35:18Z</time>
      </trkpt>
      <trkpt lat="45.8251" lon="6.99238">
        <ele>2308</ele>
        <time>2022-08-27T10:35:19Z</time>
      </trkpt>
      <trkpt lat="45.82511" lon="6.99243">
        <ele>2308</ele>
        <time>2022-08-27T10:35:21Z</time>
      </trkpt>
      <trkpt lat="45.82512" lon="6.99246">
        <ele>2308</ele>
        <time>2022-08-27T10:35:22Z</time>
      </trkpt>
      <trkpt lat="45.82513" lon="6.99248">
        <ele>2308</ele>
        <time>2022-08-27T10:35:23Z</time>
      </trkpt>
      <trkpt lat="45.82514" lon="6.99252">
        <ele>2308</ele>
        <time>2022-08-27T10:35:24Z</time>
      </trkpt>
      <trkpt lat="45.82514" lon="6.99254">
        <ele>2308</ele>
        <time>2022-08-27T10:35:25Z</time>
      </trkpt>
      <trkpt lat="45.82515" lon="6.99256">
        <ele>2308</ele>
        <time>2022-08-27T10:35:26Z</time>
      </trkpt>
      <trkpt lat="45.82516" lon="6.99262">
        <ele>2308</ele>
        <time>2022-08-27T10:35:28Z</time>
      </trkpt>
      <trkpt lat="45.82517" lon="6.99263">
        <ele>2308</ele>
        <time>2022-08-27T10:35:29Z</time>
      </trkpt>
      <trkpt lat="45.82518" lon="6.99266">
        <ele>2308</ele>
        <time>2022-08-27T10:35:30Z</time>
      </trkpt>
      <trkpt lat="45.82519" lon="6.99268">
        <ele>2308</ele>
        <time>2022-08-27T10:35:31Z</time>
      </trkpt>
      <trkpt lat="45.8252" lon="6.99271">
        <ele>2308</ele>
        <time>2022-08-27T10:35:32Z</time>
      </trkpt>
      <trkpt lat="45.8252" lon="6.99273">
        <ele>2308</ele>
        <time>2022-08-27T10:35:33Z</time>
      </trkpt>
      <trkpt lat="45.82522" lon="6.99277">
        <ele>2308</ele>
        <time>2022-08-27T10:35:35Z</time>
      </trkpt>
      <trkpt lat="45.82524" lon="6.9928">
        <ele>2308</ele>
        <time>2022-08-27T10:35:37Z</time>
      </trkpt>
      <trkpt lat="45.82525" lon="6.99283">
        <ele>2308</ele>
        <time>2022-08-27T10:35:39Z</time>
      </trkpt>
      <trkpt lat="45.82527" lon="6.99286">
        <ele>2308</ele>
        <time>2022-08-27T10:35:41Z</time>
      </trkpt>
      <trkpt lat="45.8253" lon="6.9929">
        <ele>2308</ele>
        <time>2022-08-27T10:35:43Z</time>
      </trkpt>
      <trkpt lat="45.82532" lon="6.99292">
        <ele>2308</ele>
        <time>2022-08-27T10:35:45Z</time>
      </trkpt>
      <trkpt lat="45.82534" lon="6.99295">
        <ele>2308</ele>
        <time>2022-08-27T10:35:47Z</time>
      </trkpt>
      <trkpt lat="45.82535" lon="6.99299">
        <ele>2308</ele>
        <time>2022-08-27T10:35:49Z</time>
      </trkpt>
      <trkpt lat="45.82536" lon="6.99302">
        <ele>2308</ele>
        <time>2022-08-27T10:35:51Z</time>
      </trkpt>
      <trkpt lat="45.82538" lon="6.99305">
        <ele>2308</ele>
        <time>2022-08-27T10:35:53Z</time>
      </trkpt>
      <trkpt lat="45.8254" lon="6.99308">
        <ele>2308</ele>
        <time>2022-08-27T10:35:55Z</time>
      </trkpt>
      <trkpt lat="45.82542" lon="6.9931">
        <ele>2308</ele>
        <time>2022-08-27T10:35:57Z</time>
      </trkpt>
      <trkpt lat="45.82544" lon="6.99313">
        <ele>2308</ele>
        <time>2022-08-27T10:35:59Z</time>
      </trkpt>
      <trkpt lat="45.82546" lon="6.99316">
        <ele>2308</ele>
        <time>2022-08-27T10:36:01Z</time>
      </trkpt>
      <trkpt lat="45.82547" lon="6.9932">
        <ele>2308</ele>
        <time>2022-08-27T10:36:03Z</time>
      </trkpt>
      <trkpt lat="45.82548" lon="6.99323">
        <ele>2308</ele>
        <time>2022-08-27T10:36:05Z</time>
      </trkpt>
      <trkpt lat="45.82549" lon="6.99326">
        <ele>2308</ele>
        <time>2022-08-27T10:36:07Z</time>
      </trkpt>
      <trkpt lat="45.82551" lon="6.99329">
        <ele>2308</ele>
        <time>2022-08-27T10:36:09Z</time>
      </trkpt>
      <trkpt lat="45.82552" lon="6.99332">
        <ele>2308</ele>
        <time>2022-08-27T10:36:11Z</time>
      </trkpt>
      <trkpt lat="45.82552" lon="6.99336">
        <ele>2309</ele>
        <time>2022-08-27T10:36:13Z</time>
      </trkpt>
      <trkpt lat="45.82553" lon="6.9934">
        <ele>2309</ele>
        <time>2022-08-27T10:36:16Z</time>
      </trkpt>
      <trkpt lat="45.82553" lon="6.99344">
        <ele>2310</ele>
        <time>2022-08-27T10:36:19Z</time>
      </trkpt>
      <trkpt lat="45.82553" lon="6.99347">
        <ele>2311</ele>
        <time>2022-08-27T10:36:21Z</time>
      </trkpt>
      <trkpt lat="45.82553" lon="6.99349">
        <ele>2311</ele>
        <time>2022-08-27T10:36:23Z</time>
      </trkpt>
      <trkpt lat="45.82554" lon="6.99352">
        <ele>2311</ele>
        <time>2022-08-27T10:36:25Z</time>
      </trkpt>
      <trkpt lat="45.82555" lon="6.99354">
        <ele>2312</ele>
        <time>2022-08-27T10:36:27Z</time>
      </trkpt>
      <trkpt lat="45.82555" lon="6.99357">
        <ele>2312</ele>
        <time>2022-08-27T10:36:29Z</time>
      </trkpt>
      <trkpt lat="45.82555" lon="6.9936">
        <ele>2312</ele>
        <time>2022-08-27T10:36:31Z</time>
      </trkpt>
      <trkpt lat="45.82555" lon="6.99363">
        <ele>2312</ele>
        <time>2022-08-27T10:36:33Z</time>
      </trkpt>
      <trkpt lat="45.82555" lon="6.99366">
        <ele>2313</ele>
        <time>2022-08-27T10:36:35Z</time>
      </trkpt>
      <trkpt lat="45.82555" lon="6.99369">
        <ele>2313</ele>
        <time>2022-08-27T10:36:38Z</time>
      </trkpt>
      <trkpt lat="45.82556" lon="6.99372">
        <ele>2313</ele>
        <time>2022-08-27T10:36:40Z</time>
      </trkpt>
      <trkpt lat="45.82557" lon="6.99374">
        <ele>2314</ele>
        <time>2022-08-27T10:36:42Z</time>
      </trkpt>
      <trkpt lat="45.82557" lon="6.99377">
        <ele>2314</ele>
        <time>2022-08-27T10:36:44Z</time>
      </trkpt>
      <trkpt lat="45.82557" lon="6.9938">
        <ele>2314</ele>
        <time>2022-08-27T10:36:46Z</time>
      </trkpt>
      <trkpt lat="45.82557" lon="6.99383">
        <ele>2314</ele>
        <time>2022-08-27T10:36:48Z</time>
      </trkpt>
      <trkpt lat="45.82557" lon="6.99386">
        <ele>2315</ele>
        <time>2022-08-27T10:36:50Z</time>
      </trkpt>
      <trkpt lat="45.82556" lon="6.99389">
        <ele>2315</ele>
        <time>2022-08-27T10:36:52Z</time>
      </trkpt>
      <trkpt lat="45.82556" lon="6.99393">
        <ele>2316</ele>
        <time>2022-08-27T10:36:54Z</time>
      </trkpt>
      <trkpt lat="45.82555" lon="6.99396">
        <ele>2316</ele>
        <time>2022-08-27T10:36:56Z</time>
      </trkpt>
      <trkpt lat="45.82555" lon="6.99399">
        <ele>2316</ele>
        <time>2022-08-27T10:36:58Z</time>
      </trkpt>
      <trkpt lat="45.82554" lon="6.99402">
        <ele>2316</ele>
        <time>2022-08-27T10:37:00Z</time>
      </trkpt>
      <trkpt lat="45.82554" lon="6.99405">
        <ele>2317</ele>
        <time>2022-08-27T10:37:02Z</time>
      </trkpt>
      <trkpt lat="45.82554" lon="6.99408">
        <ele>2317</ele>
        <time>2022-08-27T10:37:04Z</time>
      </trkpt>
      <trkpt lat="45.82554" lon="6.99411">
        <ele>2317</ele>
        <time>2022-08-27T10:37:06Z</time>
      </trkpt>
      <trkpt lat="45.82554" lon="6.99415">
        <ele>2317</ele>
        <time>2022-08-27T10:37:08Z</time>
      </trkpt>
      <trkpt lat="45.82553" lon="6.99418">
        <ele>2317</ele>
        <time>2022-08-27T10:37:10Z</time>
      </trkpt>
      <trkpt lat="45.82553" lon="6.9942">
        <ele>2317</ele>
        <time>2022-08-27T10:37:12Z</time>
      </trkpt>
      <trkpt lat="45.82554" lon="6.99423">
        <ele>2317</ele>
        <time>2022-08-27T10:37:14Z</time>
      </trkpt>
      <trkpt lat="45.82555" lon="6.99426">
        <ele>2317</ele>
        <time>2022-08-27T10:37:16Z</time>
      </trkpt>
      <trkpt lat="45.82557" lon="6.9943">
        <ele>2317</ele>
        <time>2022-08-27T10:37:18Z</time>
      </trkpt>
      <trkpt lat="45.82558" lon="6.99433">
        <ele>2317</ele>
        <time>2022-08-27T10:37:20Z</time>
      </trkpt>
      <trkpt lat="45.82558" lon="6.99437">
        <ele>2317</ele>
        <time>2022-08-27T10:37:22Z</time>
      </trkpt>
      <trkpt lat="45.82559" lon="6.99441">
        <ele>2318</ele>
        <time>2022-08-27T10:37:24Z</time>
      </trkpt>
      <trkpt lat="45.82561" lon="6.99444">
        <ele>2318</ele>
        <time>2022-08-27T10:37:26Z</time>
      </trkpt>
      <trkpt lat="45.82563" lon="6.99447">
        <ele>2318</ele>
        <time>2022-08-27T10:37:28Z</time>
      </trkpt>
      <trkpt lat="45.82564" lon="6.9945">
        <ele>2318</ele>
        <time>2022-08-27T10:37:30Z</time>
      </trkpt>
      <trkpt lat="45.82565" lon="6.99452">
        <ele>2318</ele>
        <time>2022-08-27T10:37:32Z</time>
      </trkpt>
      <trkpt lat="45.82566" lon="6.99455">
        <ele>2318</ele>
        <time>2022-08-27T10:37:34Z</time>
      </trkpt>
      <trkpt lat="45.82567" lon="6.99458">
        <ele>2318</ele>
        <time>2022-08-27T10:37:36Z</time>
      </trkpt>
      <trkpt lat="45.82568" lon="6.99461">
        <ele>2318</ele>
        <time>2022-08-27T10:37:38Z</time>
      </trkpt>
      <trkpt lat="45.82569" lon="6.99464">
        <ele>2319</ele>
        <time>2022-08-27T10:37:40Z</time>
      </trkpt>
      <trkpt lat="45.8257" lon="6.99467">
        <ele>2320</ele>
        <time>2022-08-27T10:37:42Z</time>
      </trkpt>
      <trkpt lat="45.82571" lon="6.9947">
        <ele>2320</ele>
        <time>2022-08-27T10:37:44Z</time>
      </trkpt>
      <trkpt lat="45.82571" lon="6.99473">
        <ele>2320</ele>
        <time>2022-08-27T10:37:46Z</time>
      </trkpt>
      <trkpt lat="45.82571" lon="6.99476">
        <ele>2320</ele>
        <time>2022-08-27T10:37:48Z</time>
      </trkpt>
      <trkpt lat="45.82572" lon="6.99479">
        <ele>2321</ele>
        <time>2022-08-27T10:37:50Z</time>
      </trkpt>
      <trkpt lat="45.82573" lon="6.99482">
        <ele>2321</ele>
        <time>2022-08-27T10:37:52Z</time>
      </trkpt>
      <trkpt lat="45.82574" lon="6.99484">
        <ele>2321</ele>
        <time>2022-08-27T10:37:54Z</time>
      </trkpt>
      <trkpt lat="45.82575" lon="6.99487">
        <ele>2321</ele>
        <time>2022-08-27T10:37:56Z</time>
      </trkpt>
      <trkpt lat="45.82576" lon="6.99489">
        <ele>2321</ele>
        <time>2022-08-27T10:37:58Z</time>
      </trkpt>
      <trkpt lat="45.82577" lon="6.99492">
        <ele>2321</ele>
        <time>2022-08-27T10:38:00Z</time>
      </trkpt>
      <trkpt lat="45.82577" lon="6.99496">
        <ele>2323</ele>
        <time>2022-08-27T10:38:03Z</time>
      </trkpt>
      <trkpt lat="45.82578" lon="6.99499">
        <ele>2323</ele>
        <time>2022-08-27T10:38:06Z</time>
      </trkpt>
      <trkpt lat="45.82578" lon="6.99502">
        <ele>2323</ele>
        <time>2022-08-27T10:38:08Z</time>
      </trkpt>
      <trkpt lat="45.82578" lon="6.99505">
        <ele>2324</ele>
        <time>2022-08-27T10:38:10Z</time>
      </trkpt>
      <trkpt lat="45.82578" lon="6.99508">
        <ele>2324</ele>
        <time>2022-08-27T10:38:12Z</time>
      </trkpt>
      <trkpt lat="45.82578" lon="6.99512">
        <ele>2324</ele>
        <time>2022-08-27T10:38:15Z</time>
      </trkpt>
      <trkpt lat="45.82579" lon="6.99515">
        <ele>2323</ele>
        <time>2022-08-27T10:38:18Z</time>
      </trkpt>
      <trkpt lat="45.8258" lon="6.99518">
        <ele>2324</ele>
        <time>2022-08-27T10:38:20Z</time>
      </trkpt>
      <trkpt lat="45.8258" lon="6.99521">
        <ele>2326</ele>
        <time>2022-08-27T10:38:22Z</time>
      </trkpt>
      <trkpt lat="45.8258" lon="6.99524">
        <ele>2326</ele>
        <time>2022-08-27T10:38:24Z</time>
      </trkpt>
      <trkpt lat="45.8258" lon="6.99527">
        <ele>2326</ele>
        <time>2022-08-27T10:38:26Z</time>
      </trkpt>
      <trkpt lat="45.8258" lon="6.9953">
        <ele>2326</ele>
        <time>2022-08-27T10:38:28Z</time>
      </trkpt>
      <trkpt lat="45.8258" lon="6.99532">
        <ele>2327</ele>
        <time>2022-08-27T10:38:30Z</time>
      </trkpt>
      <trkpt lat="45.8258" lon="6.99536">
        <ele>2327</ele>
        <time>2022-08-27T10:38:33Z</time>
      </trkpt>
      <trkpt lat="45.82582" lon="6.99539">
        <ele>2327</ele>
        <time>2022-08-27T10:38:36Z</time>
      </trkpt>
      <trkpt lat="45.82583" lon="6.99542">
        <ele>2328</ele>
        <time>2022-08-27T10:38:38Z</time>
      </trkpt>
      <trkpt lat="45.82584" lon="6.99546">
        <ele>2328</ele>
        <time>2022-08-27T10:38:40Z</time>
      </trkpt>
      <trkpt lat="45.82585" lon="6.99549">
        <ele>2328</ele>
        <time>2022-08-27T10:38:42Z</time>
      </trkpt>
      <trkpt lat="45.82585" lon="6.99552">
        <ele>2329</ele>
        <time>2022-08-27T10:38:44Z</time>
      </trkpt>
      <trkpt lat="45.82586" lon="6.99554">
        <ele>2329</ele>
        <time>2022-08-27T10:38:46Z</time>
      </trkpt>
      <trkpt lat="45.82587" lon="6.99557">
        <ele>2329</ele>
        <time>2022-08-27T10:38:48Z</time>
      </trkpt>
      <trkpt lat="45.82588" lon="6.9956">
        <ele>2329</ele>
        <time>2022-08-27T10:38:51Z</time>
      </trkpt>
      <trkpt lat="45.82589" lon="6.99563">
        <ele>2330</ele>
        <time>2022-08-27T10:38:54Z</time>
      </trkpt>
      <trkpt lat="45.82589" lon="6.99567">
        <ele>2331</ele>
        <time>2022-08-27T10:38:57Z</time>
      </trkpt>
      <trkpt lat="45.82589" lon="6.99571">
        <ele>2331</ele>
        <time>2022-08-27T10:39:00Z</time>
      </trkpt>
      <trkpt lat="45.82589" lon="6.99573">
        <ele>2332</ele>
        <time>2022-08-27T10:39:02Z</time>
      </trkpt>
      <trkpt lat="45.82589" lon="6.99576">
        <ele>2332</ele>
        <time>2022-08-27T10:39:04Z</time>
      </trkpt>
      <trkpt lat="45.8259" lon="6.99579">
        <ele>2332</ele>
        <time>2022-08-27T10:39:06Z</time>
      </trkpt>
      <trkpt lat="45.8259" lon="6.99582">
        <ele>2333</ele>
        <time>2022-08-27T10:39:08Z</time>
      </trkpt>
      <trkpt lat="45.82591" lon="6.99584">
        <ele>2333</ele>
        <time>2022-08-27T10:39:10Z</time>
      </trkpt>
      <trkpt lat="45.82592" lon="6.99587">
        <ele>2335</ele>
        <time>2022-08-27T10:39:13Z</time>
      </trkpt>
      <trkpt lat="45.82593" lon="6.99591">
        <ele>2335</ele>
        <time>2022-08-27T10:39:16Z</time>
      </trkpt>
      <trkpt lat="45.82594" lon="6.99594">
        <ele>2335</ele>
        <time>2022-08-27T10:39:19Z</time>
      </trkpt>
      <trkpt lat="45.82596" lon="6.99596">
        <ele>2335</ele>
        <time>2022-08-27T10:39:22Z</time>
      </trkpt>
      <trkpt lat="45.82598" lon="6.99599">
        <ele>2336</ele>
        <time>2022-08-27T10:39:25Z</time>
      </trkpt>
      <trkpt lat="45.82599" lon="6.99602">
        <ele>2336</ele>
        <time>2022-08-27T10:39:28Z</time>
      </trkpt>
      <trkpt lat="45.826" lon="6.99606">
        <ele>2336</ele>
        <time>2022-08-27T10:39:31Z</time>
      </trkpt>
      <trkpt lat="45.82601" lon="6.99609">
        <ele>2337</ele>
        <time>2022-08-27T10:39:34Z</time>
      </trkpt>
      <trkpt lat="45.82602" lon="6.99613">
        <ele>2338</ele>
        <time>2022-08-27T10:39:37Z</time>
      </trkpt>
      <trkpt lat="45.82603" lon="6.99615">
        <ele>2338</ele>
        <time>2022-08-27T10:39:39Z</time>
      </trkpt>
      <trkpt lat="45.82604" lon="6.99618">
        <ele>2339</ele>
        <time>2022-08-27T10:39:41Z</time>
      </trkpt>
      <trkpt lat="45.82605" lon="6.99621">
        <ele>2339</ele>
        <time>2022-08-27T10:39:43Z</time>
      </trkpt>
      <trkpt lat="45.82607" lon="6.99623">
        <ele>2339</ele>
        <time>2022-08-27T10:39:45Z</time>
      </trkpt>
      <trkpt lat="45.82608" lon="6.99626">
        <ele>2339</ele>
        <time>2022-08-27T10:39:47Z</time>
      </trkpt>
      <trkpt lat="45.82609" lon="6.99628">
        <ele>2340</ele>
        <time>2022-08-27T10:39:49Z</time>
      </trkpt>
      <trkpt lat="45.8261" lon="6.9963">
        <ele>2340</ele>
        <time>2022-08-27T10:39:51Z</time>
      </trkpt>
      <trkpt lat="45.82612" lon="6.99633">
        <ele>2339</ele>
        <time>2022-08-27T10:39:53Z</time>
      </trkpt>
      <trkpt lat="45.82614" lon="6.99634">
        <ele>2340</ele>
        <time>2022-08-27T10:39:55Z</time>
      </trkpt>
      <trkpt lat="45.82616" lon="6.99635">
        <ele>2340</ele>
        <time>2022-08-27T10:39:57Z</time>
      </trkpt>
      <trkpt lat="45.82619" lon="6.99637">
        <ele>2340</ele>
        <time>2022-08-27T10:39:59Z</time>
      </trkpt>
      <trkpt lat="45.82621" lon="6.99639">
        <ele>2340</ele>
        <time>2022-08-27T10:40:01Z</time>
      </trkpt>
      <trkpt lat="45.82623" lon="6.99641">
        <ele>2341</ele>
        <time>2022-08-27T10:40:03Z</time>
      </trkpt>
      <trkpt lat="45.82625" lon="6.99643">
        <ele>2341</ele>
        <time>2022-08-27T10:40:04Z</time>
      </trkpt>
      <trkpt lat="45.82627" lon="6.99645">
        <ele>2341</ele>
        <time>2022-08-27T10:40:07Z</time>
      </trkpt>
      <trkpt lat="45.82628" lon="6.99648">
        <ele>2341</ele>
        <time>2022-08-27T10:40:09Z</time>
      </trkpt>
      <trkpt lat="45.8263" lon="6.99651">
        <ele>2341</ele>
        <time>2022-08-27T10:40:11Z</time>
      </trkpt>
      <trkpt lat="45.82631" lon="6.99653">
        <ele>2341</ele>
        <time>2022-08-27T10:40:13Z</time>
      </trkpt>
      <trkpt lat="45.82632" lon="6.99656">
        <ele>2341</ele>
        <time>2022-08-27T10:40:15Z</time>
      </trkpt>
      <trkpt lat="45.82633" lon="6.99659">
        <ele>2341</ele>
        <time>2022-08-27T10:40:17Z</time>
      </trkpt>
      <trkpt lat="45.82634" lon="6.99661">
        <ele>2341</ele>
        <time>2022-08-27T10:40:19Z</time>
      </trkpt>
      <trkpt lat="45.82636" lon="6.99663">
        <ele>2341</ele>
        <time>2022-08-27T10:40:21Z</time>
      </trkpt>
      <trkpt lat="45.82638" lon="6.99665">
        <ele>2342</ele>
        <time>2022-08-27T10:40:23Z</time>
      </trkpt>
      <trkpt lat="45.8264" lon="6.99667">
        <ele>2343</ele>
        <time>2022-08-27T10:40:26Z</time>
      </trkpt>
      <trkpt lat="45.82642" lon="6.99668">
        <ele>2343</ele>
        <time>2022-08-27T10:40:28Z</time>
      </trkpt>
      <trkpt lat="45.82644" lon="6.9967">
        <ele>2344</ele>
        <time>2022-08-27T10:40:31Z</time>
      </trkpt>
      <trkpt lat="45.82646" lon="6.99672">
        <ele>2345</ele>
        <time>2022-08-27T10:40:34Z</time>
      </trkpt>
      <trkpt lat="45.82648" lon="6.99674">
        <ele>2345</ele>
        <time>2022-08-27T10:40:37Z</time>
      </trkpt>
      <trkpt lat="45.82649" lon="6.99676">
        <ele>2345</ele>
        <time>2022-08-27T10:40:39Z</time>
      </trkpt>
      <trkpt lat="45.82651" lon="6.99678">
        <ele>2345</ele>
        <time>2022-08-27T10:40:41Z</time>
      </trkpt>
      <trkpt lat="45.82652" lon="6.9968">
        <ele>2345</ele>
        <time>2022-08-27T10:40:43Z</time>
      </trkpt>
      <trkpt lat="45.82654" lon="6.99682">
        <ele>2346</ele>
        <time>2022-08-27T10:40:45Z</time>
      </trkpt>
      <trkpt lat="45.82654" lon="6.99686">
        <ele>2346</ele>
        <time>2022-08-27T10:40:48Z</time>
      </trkpt>
      <trkpt lat="45.82655" lon="6.99688">
        <ele>2346</ele>
        <time>2022-08-27T10:40:50Z</time>
      </trkpt>
      <trkpt lat="45.82656" lon="6.99691">
        <ele>2346</ele>
        <time>2022-08-27T10:40:52Z</time>
      </trkpt>
      <trkpt lat="45.82656" lon="6.99694">
        <ele>2347</ele>
        <time>2022-08-27T10:40:54Z</time>
      </trkpt>
      <trkpt lat="45.82657" lon="6.99697">
        <ele>2348</ele>
        <time>2022-08-27T10:40:57Z</time>
      </trkpt>
      <trkpt lat="45.82658" lon="6.997">
        <ele>2349</ele>
        <time>2022-08-27T10:41:00Z</time>
      </trkpt>
      <trkpt lat="45.82659" lon="6.99704">
        <ele>2349</ele>
        <time>2022-08-27T10:41:03Z</time>
      </trkpt>
      <trkpt lat="45.8266" lon="6.99706">
        <ele>2349</ele>
        <time>2022-08-27T10:41:05Z</time>
      </trkpt>
      <trkpt lat="45.82661" lon="6.99709">
        <ele>2349</ele>
        <time>2022-08-27T10:41:07Z</time>
      </trkpt>
      <trkpt lat="45.82662" lon="6.99712">
        <ele>2349</ele>
        <time>2022-08-27T10:41:09Z</time>
      </trkpt>
      <trkpt lat="45.82662" lon="6.99715">
        <ele>2350</ele>
        <time>2022-08-27T10:41:11Z</time>
      </trkpt>
      <trkpt lat="45.82663" lon="6.99717">
        <ele>2350</ele>
        <time>2022-08-27T10:41:13Z</time>
      </trkpt>
      <trkpt lat="45.82665" lon="6.9972">
        <ele>2350</ele>
        <time>2022-08-27T10:41:15Z</time>
      </trkpt>
      <trkpt lat="45.82665" lon="6.99722">
        <ele>2350</ele>
        <time>2022-08-27T10:41:17Z</time>
      </trkpt>
      <trkpt lat="45.82667" lon="6.99724">
        <ele>2350</ele>
        <time>2022-08-27T10:41:19Z</time>
      </trkpt>
      <trkpt lat="45.82668" lon="6.99727">
        <ele>2352</ele>
        <time>2022-08-27T10:41:22Z</time>
      </trkpt>
      <trkpt lat="45.8267" lon="6.9973">
        <ele>2353</ele>
        <time>2022-08-27T10:41:24Z</time>
      </trkpt>
      <trkpt lat="45.8267" lon="6.99732">
        <ele>2353</ele>
        <time>2022-08-27T10:41:26Z</time>
      </trkpt>
      <trkpt lat="45.82671" lon="6.99735">
        <ele>2354</ele>
        <time>2022-08-27T10:41:29Z</time>
      </trkpt>
      <trkpt lat="45.82672" lon="6.99737">
        <ele>2354</ele>
        <time>2022-08-27T10:41:31Z</time>
      </trkpt>
      <trkpt lat="45.82673" lon="6.9974">
        <ele>2354</ele>
        <time>2022-08-27T10:41:33Z</time>
      </trkpt>
      <trkpt lat="45.82673" lon="6.99742">
        <ele>2355</ele>
        <time>2022-08-27T10:41:35Z</time>
      </trkpt>
      <trkpt lat="45.82675" lon="6.99745">
        <ele>2355</ele>
        <time>2022-08-27T10:41:38Z</time>
      </trkpt>
      <trkpt lat="45.82676" lon="6.99748">
        <ele>2356</ele>
        <time>2022-08-27T10:41:41Z</time>
      </trkpt>
      <trkpt lat="45.82676" lon="6.99751">
        <ele>2356</ele>
        <time>2022-08-27T10:41:44Z</time>
      </trkpt>
      <trkpt lat="45.82677" lon="6.99755">
        <ele>2357</ele>
        <time>2022-08-27T10:41:47Z</time>
      </trkpt>
      <trkpt lat="45.82678" lon="6.99757">
        <ele>2357</ele>
        <time>2022-08-27T10:41:49Z</time>
      </trkpt>
      <trkpt lat="45.82679" lon="6.9976">
        <ele>2357</ele>
        <time>2022-08-27T10:41:51Z</time>
      </trkpt>
      <trkpt lat="45.82681" lon="6.99764">
        <ele>2357</ele>
        <time>2022-08-27T10:41:53Z</time>
      </trkpt>
      <trkpt lat="45.82681" lon="6.99767">
        <ele>2357</ele>
        <time>2022-08-27T10:41:55Z</time>
      </trkpt>
      <trkpt lat="45.82682" lon="6.99771">
        <ele>2357</ele>
        <time>2022-08-27T10:41:57Z</time>
      </trkpt>
      <trkpt lat="45.82683" lon="6.99774">
        <ele>2357</ele>
        <time>2022-08-27T10:41:59Z</time>
      </trkpt>
      <trkpt lat="45.82684" lon="6.99779">
        <ele>2357</ele>
        <time>2022-08-27T10:42:01Z</time>
      </trkpt>
      <trkpt lat="45.82684" lon="6.99781">
        <ele>2357</ele>
        <time>2022-08-27T10:42:02Z</time>
      </trkpt>
      <trkpt lat="45.82685" lon="6.99784">
        <ele>2356</ele>
        <time>2022-08-27T10:42:03Z</time>
      </trkpt>
      <trkpt lat="45.82685" lon="6.99787">
        <ele>2355</ele>
        <time>2022-08-27T10:42:04Z</time>
      </trkpt>
      <trkpt lat="45.82686" lon="6.99792">
        <ele>2355</ele>
        <time>2022-08-27T10:42:06Z</time>
      </trkpt>
      <trkpt lat="45.82687" lon="6.99795">
        <ele>2355</ele>
        <time>2022-08-27T10:42:07Z</time>
      </trkpt>
      <trkpt lat="45.82688" lon="6.99797">
        <ele>2355</ele>
        <time>2022-08-27T10:42:08Z</time>
      </trkpt>
      <trkpt lat="45.82689" lon="6.99799">
        <ele>2355</ele>
        <time>2022-08-27T10:42:09Z</time>
      </trkpt>
      <trkpt lat="45.8269" lon="6.99801">
        <ele>2355</ele>
        <time>2022-08-27T10:42:10Z</time>
      </trkpt>
      <trkpt lat="45.82691" lon="6.99804">
        <ele>2355</ele>
        <time>2022-08-27T10:42:11Z</time>
      </trkpt>
      <trkpt lat="45.82691" lon="6.99808">
        <ele>2355</ele>
        <time>2022-08-27T10:42:12Z</time>
      </trkpt>
      <trkpt lat="45.82692" lon="6.9981">
        <ele>2355</ele>
        <time>2022-08-27T10:42:13Z</time>
      </trkpt>
      <trkpt lat="45.82692" lon="6.99812">
        <ele>2355</ele>
        <time>2022-08-27T10:42:14Z</time>
      </trkpt>
      <trkpt lat="45.82693" lon="6.99815">
        <ele>2355</ele>
        <time>2022-08-27T10:42:15Z</time>
      </trkpt>
      <trkpt lat="45.82693" lon="6.99818">
        <ele>2354</ele>
        <time>2022-08-27T10:42:16Z</time>
      </trkpt>
      <trkpt lat="45.82693" lon="6.99823">
        <ele>2354</ele>
        <time>2022-08-27T10:42:18Z</time>
      </trkpt>
      <trkpt lat="45.82693" lon="6.99829">
        <ele>2354</ele>
        <time>2022-08-27T10:42:20Z</time>
      </trkpt>
      <trkpt lat="45.82693" lon="6.9983">
        <ele>2355</ele>
        <time>2022-08-27T10:42:21Z</time>
      </trkpt>
      <trkpt lat="45.82693" lon="6.99833">
        <ele>2355</ele>
        <time>2022-08-27T10:42:22Z</time>
      </trkpt>
      <trkpt lat="45.82693" lon="6.99838">
        <ele>2355</ele>
        <time>2022-08-27T10:42:24Z</time>
      </trkpt>
      <trkpt lat="45.82693" lon="6.99841">
        <ele>2355</ele>
        <time>2022-08-27T10:42:25Z</time>
      </trkpt>
      <trkpt lat="45.82693" lon="6.99843">
        <ele>2355</ele>
        <time>2022-08-27T10:42:26Z</time>
      </trkpt>
      <trkpt lat="45.82694" lon="6.99848">
        <ele>2355</ele>
        <time>2022-08-27T10:42:28Z</time>
      </trkpt>
      <trkpt lat="45.82694" lon="6.99851">
        <ele>2356</ele>
        <time>2022-08-27T10:42:29Z</time>
      </trkpt>
      <trkpt lat="45.82695" lon="6.99855">
        <ele>2356</ele>
        <time>2022-08-27T10:42:31Z</time>
      </trkpt>
      <trkpt lat="45.82696" lon="6.9986">
        <ele>2356</ele>
        <time>2022-08-27T10:42:33Z</time>
      </trkpt>
      <trkpt lat="45.82697" lon="6.99862">
        <ele>2356</ele>
        <time>2022-08-27T10:42:34Z</time>
      </trkpt>
      <trkpt lat="45.82698" lon="6.99865">
        <ele>2356</ele>
        <time>2022-08-27T10:42:35Z</time>
      </trkpt>
      <trkpt lat="45.82698" lon="6.99867">
        <ele>2356</ele>
        <time>2022-08-27T10:42:36Z</time>
      </trkpt>
      <trkpt lat="45.82699" lon="6.9987">
        <ele>2356</ele>
        <time>2022-08-27T10:42:37Z</time>
      </trkpt>
      <trkpt lat="45.827" lon="6.99874">
        <ele>2356</ele>
        <time>2022-08-27T10:42:39Z</time>
      </trkpt>
      <trkpt lat="45.82701" lon="6.99877">
        <ele>2355</ele>
        <time>2022-08-27T10:42:40Z</time>
      </trkpt>
      <trkpt lat="45.82703" lon="6.99881">
        <ele>2354</ele>
        <time>2022-08-27T10:42:42Z</time>
      </trkpt>
      <trkpt lat="45.82705" lon="6.99883">
        <ele>2354</ele>
        <time>2022-08-27T10:42:43Z</time>
      </trkpt>
      <trkpt lat="45.82705" lon="6.99886">
        <ele>2354</ele>
        <time>2022-08-27T10:42:44Z</time>
      </trkpt>
      <trkpt lat="45.82706" lon="6.99888">
        <ele>2354</ele>
        <time>2022-08-27T10:42:45Z</time>
      </trkpt>
      <trkpt lat="45.82707" lon="6.99891">
        <ele>2354</ele>
        <time>2022-08-27T10:42:46Z</time>
      </trkpt>
      <trkpt lat="45.82707" lon="6.99893">
        <ele>2354</ele>
        <time>2022-08-27T10:42:47Z</time>
      </trkpt>
      <trkpt lat="45.82708" lon="6.99896">
        <ele>2353</ele>
        <time>2022-08-27T10:42:48Z</time>
      </trkpt>
      <trkpt lat="45.8271" lon="6.999">
        <ele>2353</ele>
        <time>2022-08-27T10:42:49Z</time>
      </trkpt>
      <trkpt lat="45.8271" lon="6.99901">
        <ele>2353</ele>
        <time>2022-08-27T10:42:50Z</time>
      </trkpt>
      <trkpt lat="45.82713" lon="6.9991">
        <ele>2353</ele>
        <time>2022-08-27T10:42:55Z</time>
      </trkpt>
      <trkpt lat="45.82714" lon="6.99915">
        <ele>2353</ele>
        <time>2022-08-27T10:42:58Z</time>
      </trkpt>
      <trkpt lat="45.82715" lon="6.99918">
        <ele>2353</ele>
        <time>2022-08-27T10:43:00Z</time>
      </trkpt>
      <trkpt lat="45.82716" lon="6.99921">
        <ele>2353</ele>
        <time>2022-08-27T10:43:02Z</time>
      </trkpt>
      <trkpt lat="45.82717" lon="6.99925">
        <ele>2353</ele>
        <time>2022-08-27T10:43:04Z</time>
      </trkpt>
      <trkpt lat="45.82718" lon="6.99928">
        <ele>2353</ele>
        <time>2022-08-27T10:43:06Z</time>
      </trkpt>
      <trkpt lat="45.82718" lon="6.99932">
        <ele>2354</ele>
        <time>2022-08-27T10:43:08Z</time>
      </trkpt>
      <trkpt lat="45.82719" lon="6.99937">
        <ele>2354</ele>
        <time>2022-08-27T10:43:10Z</time>
      </trkpt>
      <trkpt lat="45.8272" lon="6.99939">
        <ele>2354</ele>
        <time>2022-08-27T10:43:11Z</time>
      </trkpt>
      <trkpt lat="45.8272" lon="6.9994">
        <ele>2354</ele>
        <time>2022-08-27T10:43:12Z</time>
      </trkpt>
      <trkpt lat="45.82721" lon="6.99941">
        <ele>2354</ele>
        <time>2022-08-27T10:43:13Z</time>
      </trkpt>
      <trkpt lat="45.82722" lon="6.99945">
        <ele>2354</ele>
        <time>2022-08-27T10:43:15Z</time>
      </trkpt>
      <trkpt lat="45.82723" lon="6.99948">
        <ele>2354</ele>
        <time>2022-08-27T10:43:17Z</time>
      </trkpt>
      <trkpt lat="45.82724" lon="6.99951">
        <ele>2355</ele>
        <time>2022-08-27T10:43:19Z</time>
      </trkpt>
      <trkpt lat="45.82724" lon="6.99955">
        <ele>2355</ele>
        <time>2022-08-27T10:43:21Z</time>
      </trkpt>
      <trkpt lat="45.82725" lon="6.99958">
        <ele>2354</ele>
        <time>2022-08-27T10:43:23Z</time>
      </trkpt>
      <trkpt lat="45.82726" lon="6.99963">
        <ele>2354</ele>
        <time>2022-08-27T10:43:25Z</time>
      </trkpt>
      <trkpt lat="45.82727" lon="6.99966">
        <ele>2354</ele>
        <time>2022-08-27T10:43:26Z</time>
      </trkpt>
      <trkpt lat="45.82727" lon="6.99968">
        <ele>2354</ele>
        <time>2022-08-27T10:43:27Z</time>
      </trkpt>
      <trkpt lat="45.82728" lon="6.99971">
        <ele>2354</ele>
        <time>2022-08-27T10:43:28Z</time>
      </trkpt>
      <trkpt lat="45.82729" lon="6.99975">
        <ele>2354</ele>
        <time>2022-08-27T10:43:29Z</time>
      </trkpt>
      <trkpt lat="45.8273" lon="6.99976">
        <ele>2354</ele>
        <time>2022-08-27T10:43:30Z</time>
      </trkpt>
      <trkpt lat="45.82731" lon="6.99978">
        <ele>2354</ele>
        <time>2022-08-27T10:43:31Z</time>
      </trkpt>
      <trkpt lat="45.82732" lon="6.99981">
        <ele>2354</ele>
        <time>2022-08-27T10:43:32Z</time>
      </trkpt>
      <trkpt lat="45.82733" lon="6.99983">
        <ele>2353</ele>
        <time>2022-08-27T10:43:33Z</time>
      </trkpt>
      <trkpt lat="45.82734" lon="6.99985">
        <ele>2353</ele>
        <time>2022-08-27T10:43:34Z</time>
      </trkpt>
      <trkpt lat="45.82736" lon="6.9999">
        <ele>2353</ele>
        <time>2022-08-27T10:43:36Z</time>
      </trkpt>
      <trkpt lat="45.82737" lon="6.99992">
        <ele>2353</ele>
        <time>2022-08-27T10:43:37Z</time>
      </trkpt>
      <trkpt lat="45.82738" lon="6.99994">
        <ele>2353</ele>
        <time>2022-08-27T10:43:38Z</time>
      </trkpt>
      <trkpt lat="45.82741" lon="6.99997">
        <ele>2353</ele>
        <time>2022-08-27T10:43:40Z</time>
      </trkpt>
      <trkpt lat="45.82743" lon="7">
        <ele>2353</ele>
        <time>2022-08-27T10:43:42Z</time>
      </trkpt>
      <trkpt lat="45.82744" lon="7.00003">
        <ele>2353</ele>
        <time>2022-08-27T10:43:44Z</time>
      </trkpt>
      <trkpt lat="45.82746" lon="7.00006">
        <ele>2353</ele>
        <time>2022-08-27T10:43:46Z</time>
      </trkpt>
      <trkpt lat="45.82748" lon="7.00009">
        <ele>2353</ele>
        <time>2022-08-27T10:43:49Z</time>
      </trkpt>
      <trkpt lat="45.82749" lon="7.0001">
        <ele>2353</ele>
        <time>2022-08-27T10:43:50Z</time>
      </trkpt>
      <trkpt lat="45.8275" lon="7.00012">
        <ele>2353</ele>
        <time>2022-08-27T10:43:51Z</time>
      </trkpt>
      <trkpt lat="45.82751" lon="7.00014">
        <ele>2353</ele>
        <time>2022-08-27T10:43:52Z</time>
      </trkpt>
      <trkpt lat="45.82752" lon="7.00016">
        <ele>2354</ele>
        <time>2022-08-27T10:43:53Z</time>
      </trkpt>
      <trkpt lat="45.82753" lon="7.00018">
        <ele>2354</ele>
        <time>2022-08-27T10:43:54Z</time>
      </trkpt>
      <trkpt lat="45.82754" lon="7.00021">
        <ele>2353</ele>
        <time>2022-08-27T10:43:55Z</time>
      </trkpt>
      <trkpt lat="45.82756" lon="7.00025">
        <ele>2353</ele>
        <time>2022-08-27T10:43:57Z</time>
      </trkpt>
      <trkpt lat="45.82758" lon="7.00031">
        <ele>2353</ele>
        <time>2022-08-27T10:43:59Z</time>
      </trkpt>
      <trkpt lat="45.82758" lon="7.00032">
        <ele>2353</ele>
        <time>2022-08-27T10:44:00Z</time>
      </trkpt>
      <trkpt lat="45.82759" lon="7.00034">
        <ele>2353</ele>
        <time>2022-08-27T10:44:01Z</time>
      </trkpt>
      <trkpt lat="45.8276" lon="7.00036">
        <ele>2353</ele>
        <time>2022-08-27T10:44:02Z</time>
      </trkpt>
      <trkpt lat="45.82761" lon="7.00039">
        <ele>2353</ele>
        <time>2022-08-27T10:44:03Z</time>
      </trkpt>
      <trkpt lat="45.82762" lon="7.00043">
        <ele>2352</ele>
        <time>2022-08-27T10:44:05Z</time>
      </trkpt>
      <trkpt lat="45.82764" lon="7.00047">
        <ele>2352</ele>
        <time>2022-08-27T10:44:07Z</time>
      </trkpt>
      <trkpt lat="45.82765" lon="7.0005">
        <ele>2352</ele>
        <time>2022-08-27T10:44:08Z</time>
      </trkpt>
      <trkpt lat="45.82767" lon="7.00053">
        <ele>2350</ele>
        <time>2022-08-27T10:44:10Z</time>
      </trkpt>
      <trkpt lat="45.82769" lon="7.00057">
        <ele>2350</ele>
        <time>2022-08-27T10:44:12Z</time>
      </trkpt>
      <trkpt lat="45.82771" lon="7.00061">
        <ele>2350</ele>
        <time>2022-08-27T10:44:14Z</time>
      </trkpt>
      <trkpt lat="45.82772" lon="7.00064">
        <ele>2349</ele>
        <time>2022-08-27T10:44:15Z</time>
      </trkpt>
      <trkpt lat="45.82774" lon="7.00068">
        <ele>2349</ele>
        <time>2022-08-27T10:44:17Z</time>
      </trkpt>
      <trkpt lat="45.82776" lon="7.00069">
        <ele>2349</ele>
        <time>2022-08-27T10:44:18Z</time>
      </trkpt>
      <trkpt lat="45.82777" lon="7.00071">
        <ele>2349</ele>
        <time>2022-08-27T10:44:19Z</time>
      </trkpt>
      <trkpt lat="45.8278" lon="7.00075">
        <ele>2347</ele>
        <time>2022-08-27T10:44:21Z</time>
      </trkpt>
      <trkpt lat="45.82782" lon="7.00077">
        <ele>2347</ele>
        <time>2022-08-27T10:44:22Z</time>
      </trkpt>
      <trkpt lat="45.82783" lon="7.00079">
        <ele>2347</ele>
        <time>2022-08-27T10:44:23Z</time>
      </trkpt>
      <trkpt lat="45.82784" lon="7.00081">
        <ele>2347</ele>
        <time>2022-08-27T10:44:24Z</time>
      </trkpt>
      <trkpt lat="45.82785" lon="7.00084">
        <ele>2347</ele>
        <time>2022-08-27T10:44:25Z</time>
      </trkpt>
      <trkpt lat="45.82786" lon="7.00086">
        <ele>2347</ele>
        <time>2022-08-27T10:44:26Z</time>
      </trkpt>
      <trkpt lat="45.82786" lon="7.00089">
        <ele>2347</ele>
        <time>2022-08-27T10:44:27Z</time>
      </trkpt>
      <trkpt lat="45.82787" lon="7.00091">
        <ele>2347</ele>
        <time>2022-08-27T10:44:28Z</time>
      </trkpt>
      <trkpt lat="45.82789" lon="7.00096">
        <ele>2346</ele>
        <time>2022-08-27T10:44:30Z</time>
      </trkpt>
      <trkpt lat="45.82791" lon="7.00099">
        <ele>2345</ele>
        <time>2022-08-27T10:44:32Z</time>
      </trkpt>
      <trkpt lat="45.82794" lon="7.00101">
        <ele>2345</ele>
        <time>2022-08-27T10:44:34Z</time>
      </trkpt>
      <trkpt lat="45.82796" lon="7.00102">
        <ele>2345</ele>
        <time>2022-08-27T10:44:35Z</time>
      </trkpt>
      <trkpt lat="45.82798" lon="7.00106">
        <ele>2345</ele>
        <time>2022-08-27T10:44:37Z</time>
      </trkpt>
      <trkpt lat="45.82799" lon="7.0011">
        <ele>2345</ele>
        <time>2022-08-27T10:44:39Z</time>
      </trkpt>
      <trkpt lat="45.82801" lon="7.00114">
        <ele>2344</ele>
        <time>2022-08-27T10:44:41Z</time>
      </trkpt>
      <trkpt lat="45.82802" lon="7.00117">
        <ele>2344</ele>
        <time>2022-08-27T10:44:43Z</time>
      </trkpt>
      <trkpt lat="45.82803" lon="7.0012">
        <ele>2343</ele>
        <time>2022-08-27T10:44:45Z</time>
      </trkpt>
      <trkpt lat="45.82804" lon="7.00122">
        <ele>2342</ele>
        <time>2022-08-27T10:44:46Z</time>
      </trkpt>
      <trkpt lat="45.82805" lon="7.00123">
        <ele>2342</ele>
        <time>2022-08-27T10:44:47Z</time>
      </trkpt>
      <trkpt lat="45.82805" lon="7.00125">
        <ele>2342</ele>
        <time>2022-08-27T10:44:48Z</time>
      </trkpt>
      <trkpt lat="45.82806" lon="7.00126">
        <ele>2342</ele>
        <time>2022-08-27T10:44:50Z</time>
      </trkpt>
      <trkpt lat="45.82807" lon="7.00127">
        <ele>2341</ele>
        <time>2022-08-27T10:44:51Z</time>
      </trkpt>
      <trkpt lat="45.82807" lon="7.00129">
        <ele>2340</ele>
        <time>2022-08-27T10:44:52Z</time>
      </trkpt>
      <trkpt lat="45.82808" lon="7.0013">
        <ele>2340</ele>
        <time>2022-08-27T10:44:53Z</time>
      </trkpt>
      <trkpt lat="45.82809" lon="7.00132">
        <ele>2340</ele>
        <time>2022-08-27T10:44:54Z</time>
      </trkpt>
      <trkpt lat="45.82809" lon="7.00134">
        <ele>2340</ele>
        <time>2022-08-27T10:44:55Z</time>
      </trkpt>
      <trkpt lat="45.82809" lon="7.00136">
        <ele>2340</ele>
        <time>2022-08-27T10:44:56Z</time>
      </trkpt>
      <trkpt lat="45.8281" lon="7.00139">
        <ele>2339</ele>
        <time>2022-08-27T10:44:57Z</time>
      </trkpt>
      <trkpt lat="45.8281" lon="7.00141">
        <ele>2339</ele>
        <time>2022-08-27T10:44:59Z</time>
      </trkpt>
      <trkpt lat="45.82811" lon="7.00143">
        <ele>2338</ele>
        <time>2022-08-27T10:45:00Z</time>
      </trkpt>
      <trkpt lat="45.82811" lon="7.00145">
        <ele>2338</ele>
        <time>2022-08-27T10:45:01Z</time>
      </trkpt>
      <trkpt lat="45.82811" lon="7.00148">
        <ele>2338</ele>
        <time>2022-08-27T10:45:02Z</time>
      </trkpt>
      <trkpt lat="45.82811" lon="7.0015">
        <ele>2338</ele>
        <time>2022-08-27T10:45:03Z</time>
      </trkpt>
      <trkpt lat="45.82811" lon="7.00153">
        <ele>2338</ele>
        <time>2022-08-27T10:45:04Z</time>
      </trkpt>
      <trkpt lat="45.82811" lon="7.00155">
        <ele>2337</ele>
        <time>2022-08-27T10:45:06Z</time>
      </trkpt>
      <trkpt lat="45.82811" lon="7.00157">
        <ele>2337</ele>
        <time>2022-08-27T10:45:07Z</time>
      </trkpt>
      <trkpt lat="45.82811" lon="7.0016">
        <ele>2337</ele>
        <time>2022-08-27T10:45:08Z</time>
      </trkpt>
      <trkpt lat="45.82813" lon="7.00164">
        <ele>2337</ele>
        <time>2022-08-27T10:45:10Z</time>
      </trkpt>
      <trkpt lat="45.82813" lon="7.00168">
        <ele>2336</ele>
        <time>2022-08-27T10:45:12Z</time>
      </trkpt>
      <trkpt lat="45.82814" lon="7.00171">
        <ele>2335</ele>
        <time>2022-08-27T10:45:14Z</time>
      </trkpt>
      <trkpt lat="45.82815" lon="7.00175">
        <ele>2334</ele>
        <time>2022-08-27T10:45:16Z</time>
      </trkpt>
      <trkpt lat="45.82816" lon="7.00177">
        <ele>2333</ele>
        <time>2022-08-27T10:45:18Z</time>
      </trkpt>
      <trkpt lat="45.82817" lon="7.0018">
        <ele>2333</ele>
        <time>2022-08-27T10:45:19Z</time>
      </trkpt>
      <trkpt lat="45.82817" lon="7.00182">
        <ele>2332</ele>
        <time>2022-08-27T10:45:21Z</time>
      </trkpt>
      <trkpt lat="45.82818" lon="7.00185">
        <ele>2332</ele>
        <time>2022-08-27T10:45:23Z</time>
      </trkpt>
      <trkpt lat="45.8282" lon="7.00187">
        <ele>2330</ele>
        <time>2022-08-27T10:45:26Z</time>
      </trkpt>
      <trkpt lat="45.82822" lon="7.00189">
        <ele>2330</ele>
        <time>2022-08-27T10:45:28Z</time>
      </trkpt>
      <trkpt lat="45.82824" lon="7.00191">
        <ele>2330</ele>
        <time>2022-08-27T10:45:30Z</time>
      </trkpt>
      <trkpt lat="45.82825" lon="7.00194">
        <ele>2330</ele>
        <time>2022-08-27T10:45:32Z</time>
      </trkpt>
      <trkpt lat="45.82827" lon="7.00196">
        <ele>2329</ele>
        <time>2022-08-27T10:45:35Z</time>
      </trkpt>
      <trkpt lat="45.82829" lon="7.00198">
        <ele>2330</ele>
        <time>2022-08-27T10:45:38Z</time>
      </trkpt>
      <trkpt lat="45.8283" lon="7.002">
        <ele>2330</ele>
        <time>2022-08-27T10:45:40Z</time>
      </trkpt>
      <trkpt lat="45.82832" lon="7.00203">
        <ele>2330</ele>
        <time>2022-08-27T10:45:42Z</time>
      </trkpt>
      <trkpt lat="45.82832" lon="7.00206">
        <ele>2330</ele>
        <time>2022-08-27T10:45:44Z</time>
      </trkpt>
      <trkpt lat="45.82834" lon="7.0021">
        <ele>2330</ele>
        <time>2022-08-27T10:45:46Z</time>
      </trkpt>
      <trkpt lat="45.82836" lon="7.00213">
        <ele>2329</ele>
        <time>2022-08-27T10:45:48Z</time>
      </trkpt>
      <trkpt lat="45.82839" lon="7.00217">
        <ele>2329</ele>
        <time>2022-08-27T10:45:50Z</time>
      </trkpt>
      <trkpt lat="45.8284" lon="7.00221">
        <ele>2329</ele>
        <time>2022-08-27T10:45:52Z</time>
      </trkpt>
      <trkpt lat="45.82843" lon="7.00224">
        <ele>2329</ele>
        <time>2022-08-27T10:45:54Z</time>
      </trkpt>
      <trkpt lat="45.82845" lon="7.00228">
        <ele>2329</ele>
        <time>2022-08-27T10:45:56Z</time>
      </trkpt>
      <trkpt lat="45.82848" lon="7.0023">
        <ele>2328</ele>
        <time>2022-08-27T10:45:58Z</time>
      </trkpt>
      <trkpt lat="45.82851" lon="7.00232">
        <ele>2327</ele>
        <time>2022-08-27T10:46:00Z</time>
      </trkpt>
      <trkpt lat="45.82853" lon="7.00233">
        <ele>2327</ele>
        <time>2022-08-27T10:46:01Z</time>
      </trkpt>
      <trkpt lat="45.82855" lon="7.00234">
        <ele>2327</ele>
        <time>2022-08-27T10:46:02Z</time>
      </trkpt>
      <trkpt lat="45.82857" lon="7.00235">
        <ele>2327</ele>
        <time>2022-08-27T10:46:03Z</time>
      </trkpt>
      <trkpt lat="45.82858" lon="7.00236">
        <ele>2326</ele>
        <time>2022-08-27T10:46:04Z</time>
      </trkpt>
      <trkpt lat="45.8286" lon="7.00239">
        <ele>2326</ele>
        <time>2022-08-27T10:46:05Z</time>
      </trkpt>
      <trkpt lat="45.8286" lon="7.00243">
        <ele>2326</ele>
        <time>2022-08-27T10:46:07Z</time>
      </trkpt>
      <trkpt lat="45.82862" lon="7.00247">
        <ele>2326</ele>
        <time>2022-08-27T10:46:09Z</time>
      </trkpt>
      <trkpt lat="45.82864" lon="7.0025">
        <ele>2326</ele>
        <time>2022-08-27T10:46:11Z</time>
      </trkpt>
      <trkpt lat="45.82865" lon="7.00254">
        <ele>2324</ele>
        <time>2022-08-27T10:46:13Z</time>
      </trkpt>
      <trkpt lat="45.82867" lon="7.00257">
        <ele>2323</ele>
        <time>2022-08-27T10:46:15Z</time>
      </trkpt>
      <trkpt lat="45.82868" lon="7.00261">
        <ele>2322</ele>
        <time>2022-08-27T10:46:17Z</time>
      </trkpt>
      <trkpt lat="45.8287" lon="7.00263">
        <ele>2321</ele>
        <time>2022-08-27T10:46:19Z</time>
      </trkpt>
      <trkpt lat="45.82873" lon="7.00263">
        <ele>2321</ele>
        <time>2022-08-27T10:46:23Z</time>
      </trkpt>
      <trkpt lat="45.82875" lon="7.00264">
        <ele>2321</ele>
        <time>2022-08-27T10:46:25Z</time>
      </trkpt>
      <trkpt lat="45.82877" lon="7.00267">
        <ele>2322</ele>
        <time>2022-08-27T10:46:28Z</time>
      </trkpt>
      <trkpt lat="45.82879" lon="7.00269">
        <ele>2322</ele>
        <time>2022-08-27T10:46:31Z</time>
      </trkpt>
      <trkpt lat="45.82881" lon="7.0027">
        <ele>2322</ele>
        <time>2022-08-27T10:46:34Z</time>
      </trkpt>
      <trkpt lat="45.82883" lon="7.00271">
        <ele>2322</ele>
        <time>2022-08-27T10:46:35Z</time>
      </trkpt>
      <trkpt lat="45.82885" lon="7.00273">
        <ele>2322</ele>
        <time>2022-08-27T10:46:37Z</time>
      </trkpt>
      <trkpt lat="45.82887" lon="7.00276">
        <ele>2322</ele>
        <time>2022-08-27T10:46:39Z</time>
      </trkpt>
      <trkpt lat="45.82888" lon="7.00278">
        <ele>2322</ele>
        <time>2022-08-27T10:46:41Z</time>
      </trkpt>
      <trkpt lat="45.82889" lon="7.0028">
        <ele>2322</ele>
        <time>2022-08-27T10:46:43Z</time>
      </trkpt>
      <trkpt lat="45.8289" lon="7.00284">
        <ele>2322</ele>
        <time>2022-08-27T10:46:46Z</time>
      </trkpt>
      <trkpt lat="45.82892" lon="7.00286">
        <ele>2322</ele>
        <time>2022-08-27T10:46:49Z</time>
      </trkpt>
      <trkpt lat="45.82895" lon="7.00288">
        <ele>2323</ele>
        <time>2022-08-27T10:46:53Z</time>
      </trkpt>
      <trkpt lat="45.82896" lon="7.00289">
        <ele>2323</ele>
        <time>2022-08-27T10:46:55Z</time>
      </trkpt>
      <trkpt lat="45.82897" lon="7.00291">
        <ele>2323</ele>
        <time>2022-08-27T10:46:56Z</time>
      </trkpt>
      <trkpt lat="45.82898" lon="7.00292">
        <ele>2323</ele>
        <time>2022-08-27T10:46:57Z</time>
      </trkpt>
      <trkpt lat="45.82899" lon="7.00294">
        <ele>2323</ele>
        <time>2022-08-27T10:46:58Z</time>
      </trkpt>
      <trkpt lat="45.829" lon="7.00295">
        <ele>2323</ele>
        <time>2022-08-27T10:47:00Z</time>
      </trkpt>
      <trkpt lat="45.82901" lon="7.00296">
        <ele>2323</ele>
        <time>2022-08-27T10:47:01Z</time>
      </trkpt>
      <trkpt lat="45.82903" lon="7.00297">
        <ele>2323</ele>
        <time>2022-08-27T10:47:02Z</time>
      </trkpt>
      <trkpt lat="45.82906" lon="7.00299">
        <ele>2324</ele>
        <time>2022-08-27T10:47:04Z</time>
      </trkpt>
      <trkpt lat="45.82908" lon="7.00302">
        <ele>2324</ele>
        <time>2022-08-27T10:47:06Z</time>
      </trkpt>
      <trkpt lat="45.8291" lon="7.00301">
        <ele>2324</ele>
        <time>2022-08-27T10:47:08Z</time>
      </trkpt>
      <trkpt lat="45.82913" lon="7.003">
        <ele>2324</ele>
        <time>2022-08-27T10:47:10Z</time>
      </trkpt>
      <trkpt lat="45.82915" lon="7.00299">
        <ele>2324</ele>
        <time>2022-08-27T10:47:11Z</time>
      </trkpt>
      <trkpt lat="45.82917" lon="7.00298">
        <ele>2324</ele>
        <time>2022-08-27T10:47:12Z</time>
      </trkpt>
      <trkpt lat="45.82919" lon="7.00298">
        <ele>2324</ele>
        <time>2022-08-27T10:47:13Z</time>
      </trkpt>
      <trkpt lat="45.82921" lon="7.00297">
        <ele>2324</ele>
        <time>2022-08-27T10:47:14Z</time>
      </trkpt>
      <trkpt lat="45.82923" lon="7.00297">
        <ele>2324</ele>
        <time>2022-08-27T10:47:15Z</time>
      </trkpt>
      <trkpt lat="45.82924" lon="7.00296">
        <ele>2324</ele>
        <time>2022-08-27T10:47:16Z</time>
      </trkpt>
      <trkpt lat="45.82926" lon="7.00296">
        <ele>2322</ele>
        <time>2022-08-27T10:47:17Z</time>
      </trkpt>
      <trkpt lat="45.82936" lon="7.003">
        <ele>2322</ele>
        <time>2022-08-27T10:47:22Z</time>
      </trkpt>
      <trkpt lat="45.82937" lon="7.00301">
        <ele>2322</ele>
        <time>2022-08-27T10:47:23Z</time>
      </trkpt>
      <trkpt lat="45.82939" lon="7.00302">
        <ele>2322</ele>
        <time>2022-08-27T10:47:24Z</time>
      </trkpt>
      <trkpt lat="45.82941" lon="7.00303">
        <ele>2322</ele>
        <time>2022-08-27T10:47:25Z</time>
      </trkpt>
      <trkpt lat="45.82943" lon="7.00304">
        <ele>2322</ele>
        <time>2022-08-27T10:47:27Z</time>
      </trkpt>
      <trkpt lat="45.82944" lon="7.00305">
        <ele>2322</ele>
        <time>2022-08-27T10:47:29Z</time>
      </trkpt>
      <trkpt lat="45.82946" lon="7.00306">
        <ele>2322</ele>
        <time>2022-08-27T10:47:30Z</time>
      </trkpt>
      <trkpt lat="45.82947" lon="7.00306">
        <ele>2322</ele>
        <time>2022-08-27T10:47:31Z</time>
      </trkpt>
      <trkpt lat="45.82955" lon="7.00312">
        <ele>2322</ele>
        <time>2022-08-27T10:47:35Z</time>
      </trkpt>
      <trkpt lat="45.82956" lon="7.00313">
        <ele>2322</ele>
        <time>2022-08-27T10:47:36Z</time>
      </trkpt>
      <trkpt lat="45.82956" lon="7.00314">
        <ele>2321</ele>
        <time>2022-08-27T10:47:37Z</time>
      </trkpt>
      <trkpt lat="45.82957" lon="7.00314">
        <ele>2321</ele>
        <time>2022-08-27T10:47:39Z</time>
      </trkpt>
      <trkpt lat="45.82957" lon="7.00315">
        <ele>2321</ele>
        <time>2022-08-27T10:47:40Z</time>
      </trkpt>
      <trkpt lat="45.82958" lon="7.00316">
        <ele>2321</ele>
        <time>2022-08-27T10:47:41Z</time>
      </trkpt>
      <trkpt lat="45.82959" lon="7.00317">
        <ele>2320</ele>
        <time>2022-08-27T10:47:42Z</time>
      </trkpt>
      <trkpt lat="45.82959" lon="7.00317">
        <ele>2320</ele>
        <time>2022-08-27T10:47:43Z</time>
      </trkpt>
      <trkpt lat="45.82965" lon="7.00325">
        <ele>2320</ele>
        <time>2022-08-27T10:47:44Z</time>
      </trkpt>
      <trkpt lat="45.82966" lon="7.00327">
        <ele>2319</ele>
        <time>2022-08-27T10:47:46Z</time>
      </trkpt>
      <trkpt lat="45.82967" lon="7.0033">
        <ele>2319</ele>
        <time>2022-08-27T10:47:47Z</time>
      </trkpt>
      <trkpt lat="45.82968" lon="7.00332">
        <ele>2319</ele>
        <time>2022-08-27T10:47:48Z</time>
      </trkpt>
      <trkpt lat="45.8297" lon="7.00335">
        <ele>2319</ele>
        <time>2022-08-27T10:47:49Z</time>
      </trkpt>
      <trkpt lat="45.82971" lon="7.00337">
        <ele>2317</ele>
        <time>2022-08-27T10:47:51Z</time>
      </trkpt>
      <trkpt lat="45.82972" lon="7.0034">
        <ele>2317</ele>
        <time>2022-08-27T10:47:53Z</time>
      </trkpt>
      <trkpt lat="45.82973" lon="7.00342">
        <ele>2317</ele>
        <time>2022-08-27T10:47:54Z</time>
      </trkpt>
      <trkpt lat="45.82975" lon="7.00345">
        <ele>2317</ele>
        <time>2022-08-27T10:47:55Z</time>
      </trkpt>
      <trkpt lat="45.82976" lon="7.00348">
        <ele>2317</ele>
        <time>2022-08-27T10:47:56Z</time>
      </trkpt>
      <trkpt lat="45.82977" lon="7.0035">
        <ele>2317</ele>
        <time>2022-08-27T10:47:57Z</time>
      </trkpt>
      <trkpt lat="45.82978" lon="7.00353">
        <ele>2316</ele>
        <time>2022-08-27T10:47:58Z</time>
      </trkpt>
      <trkpt lat="45.8298" lon="7.00356">
        <ele>2316</ele>
        <time>2022-08-27T10:47:59Z</time>
      </trkpt>
      <trkpt lat="45.82981" lon="7.00359">
        <ele>2316</ele>
        <time>2022-08-27T10:48:00Z</time>
      </trkpt>
      <trkpt lat="45.82982" lon="7.00362">
        <ele>2316</ele>
        <time>2022-08-27T10:48:01Z</time>
      </trkpt>
      <trkpt lat="45.82984" lon="7.00366">
        <ele>2316</ele>
        <time>2022-08-27T10:48:02Z</time>
      </trkpt>
      <trkpt lat="45.82985" lon="7.00368">
        <ele>2316</ele>
        <time>2022-08-27T10:48:03Z</time>
      </trkpt>
      <trkpt lat="45.82987" lon="7.0037">
        <ele>2316</ele>
        <time>2022-08-27T10:48:04Z</time>
      </trkpt>
      <trkpt lat="45.82988" lon="7.00373">
        <ele>2316</ele>
        <time>2022-08-27T10:48:05Z</time>
      </trkpt>
      <trkpt lat="45.82989" lon="7.00375">
        <ele>2316</ele>
        <time>2022-08-27T10:48:06Z</time>
      </trkpt>
      <trkpt lat="45.8299" lon="7.00377">
        <ele>2316</ele>
        <time>2022-08-27T10:48:07Z</time>
      </trkpt>
      <trkpt lat="45.82991" lon="7.00379">
        <ele>2315</ele>
        <time>2022-08-27T10:48:08Z</time>
      </trkpt>
      <trkpt lat="45.82993" lon="7.00382">
        <ele>2315</ele>
        <time>2022-08-27T10:48:10Z</time>
      </trkpt>
      <trkpt lat="45.82995" lon="7.00385">
        <ele>2314</ele>
        <time>2022-08-27T10:48:11Z</time>
      </trkpt>
      <trkpt lat="45.82996" lon="7.00388">
        <ele>2314</ele>
        <time>2022-08-27T10:48:12Z</time>
      </trkpt>
      <trkpt lat="45.82998" lon="7.0039">
        <ele>2314</ele>
        <time>2022-08-27T10:48:13Z</time>
      </trkpt>
      <trkpt lat="45.83" lon="7.00394">
        <ele>2314</ele>
        <time>2022-08-27T10:48:14Z</time>
      </trkpt>
      <trkpt lat="45.83001" lon="7.00395">
        <ele>2314</ele>
        <time>2022-08-27T10:48:15Z</time>
      </trkpt>
      <trkpt lat="45.83002" lon="7.00397">
        <ele>2314</ele>
        <time>2022-08-27T10:48:16Z</time>
      </trkpt>
      <trkpt lat="45.83003" lon="7.00399">
        <ele>2314</ele>
        <time>2022-08-27T10:48:17Z</time>
      </trkpt>
      <trkpt lat="45.83004" lon="7.00401">
        <ele>2313</ele>
        <time>2022-08-27T10:48:18Z</time>
      </trkpt>
      <trkpt lat="45.83005" lon="7.00403">
        <ele>2313</ele>
        <time>2022-08-27T10:48:19Z</time>
      </trkpt>
      <trkpt lat="45.83005" lon="7.00405">
        <ele>2313</ele>
        <time>2022-08-27T10:48:20Z</time>
      </trkpt>
      <trkpt lat="45.83006" lon="7.00407">
        <ele>2313</ele>
        <time>2022-08-27T10:48:22Z</time>
      </trkpt>
      <trkpt lat="45.83007" lon="7.00409">
        <ele>2313</ele>
        <time>2022-08-27T10:48:23Z</time>
      </trkpt>
      <trkpt lat="45.83007" lon="7.0041">
        <ele>2313</ele>
        <time>2022-08-27T10:48:24Z</time>
      </trkpt>
      <trkpt lat="45.83008" lon="7.00411">
        <ele>2313</ele>
        <time>2022-08-27T10:48:25Z</time>
      </trkpt>
      <trkpt lat="45.83008" lon="7.00412">
        <ele>2313</ele>
        <time>2022-08-27T10:48:26Z</time>
      </trkpt>
      <trkpt lat="45.83009" lon="7.00413">
        <ele>2313</ele>
        <time>2022-08-27T10:48:27Z</time>
      </trkpt>
      <trkpt lat="45.83009" lon="7.00414">
        <ele>2313</ele>
        <time>2022-08-27T10:48:28Z</time>
      </trkpt>
      <trkpt lat="45.83012" lon="7.00414">
        <ele>2313</ele>
        <time>2022-08-27T10:48:31Z</time>
      </trkpt>
      <trkpt lat="45.83013" lon="7.00414">
        <ele>2313</ele>
        <time>2022-08-27T10:48:33Z</time>
      </trkpt>
      <trkpt lat="45.83015" lon="7.00414">
        <ele>2313</ele>
        <time>2022-08-27T10:48:34Z</time>
      </trkpt>
      <trkpt lat="45.83016" lon="7.00414">
        <ele>2314</ele>
        <time>2022-08-27T10:48:35Z</time>
      </trkpt>
      <trkpt lat="45.83018" lon="7.00414">
        <ele>2314</ele>
        <time>2022-08-27T10:48:36Z</time>
      </trkpt>
      <trkpt lat="45.83019" lon="7.00414">
        <ele>2314</ele>
        <time>2022-08-27T10:48:37Z</time>
      </trkpt>
      <trkpt lat="45.83021" lon="7.00414">
        <ele>2314</ele>
        <time>2022-08-27T10:48:38Z</time>
      </trkpt>
      <trkpt lat="45.8303" lon="7.0042">
        <ele>2313</ele>
        <time>2022-08-27T10:48:43Z</time>
      </trkpt>
      <trkpt lat="45.83037" lon="7.00431">
        <ele>2313</ele>
        <time>2022-08-27T10:48:50Z</time>
      </trkpt>
      <trkpt lat="45.83038" lon="7.00431">
        <ele>2313</ele>
        <time>2022-08-27T10:48:51Z</time>
      </trkpt>
      <trkpt lat="45.8304" lon="7.00432">
        <ele>2313</ele>
        <time>2022-08-27T10:48:52Z</time>
      </trkpt>
      <trkpt lat="45.83041" lon="7.00433">
        <ele>2313</ele>
        <time>2022-08-27T10:48:53Z</time>
      </trkpt>
      <trkpt lat="45.83043" lon="7.00433">
        <ele>2313</ele>
        <time>2022-08-27T10:48:55Z</time>
      </trkpt>
      <trkpt lat="45.83044" lon="7.00434">
        <ele>2313</ele>
        <time>2022-08-27T10:48:56Z</time>
      </trkpt>
      <trkpt lat="45.83046" lon="7.00434">
        <ele>2312</ele>
        <time>2022-08-27T10:48:57Z</time>
      </trkpt>
      <trkpt lat="45.83055" lon="7.00437">
        <ele>2310</ele>
        <time>2022-08-27T10:49:02Z</time>
      </trkpt>
      <trkpt lat="45.83056" lon="7.00438">
        <ele>2310</ele>
        <time>2022-08-27T10:49:03Z</time>
      </trkpt>
      <trkpt lat="45.83057" lon="7.00439">
        <ele>2309</ele>
        <time>2022-08-27T10:49:04Z</time>
      </trkpt>
      <trkpt lat="45.83058" lon="7.0044">
        <ele>2310</ele>
        <time>2022-08-27T10:49:06Z</time>
      </trkpt>
      <trkpt lat="45.83059" lon="7.00441">
        <ele>2310</ele>
        <time>2022-08-27T10:49:07Z</time>
      </trkpt>
      <trkpt lat="45.8306" lon="7.00441">
        <ele>2310</ele>
        <time>2022-08-27T10:49:08Z</time>
      </trkpt>
      <trkpt lat="45.83066" lon="7.00446">
        <ele>2310</ele>
        <time>2022-08-27T10:49:09Z</time>
      </trkpt>
      <trkpt lat="45.83067" lon="7.00447">
        <ele>2310</ele>
        <time>2022-08-27T10:49:11Z</time>
      </trkpt>
      <trkpt lat="45.83068" lon="7.00448">
        <ele>2310</ele>
        <time>2022-08-27T10:49:12Z</time>
      </trkpt>
      <trkpt lat="45.8307" lon="7.00449">
        <ele>2310</ele>
        <time>2022-08-27T10:49:13Z</time>
      </trkpt>
      <trkpt lat="45.83071" lon="7.00449">
        <ele>2310</ele>
        <time>2022-08-27T10:49:14Z</time>
      </trkpt>
      <trkpt lat="45.83072" lon="7.0045">
        <ele>2309</ele>
        <time>2022-08-27T10:49:16Z</time>
      </trkpt>
      <trkpt lat="45.83074" lon="7.00451">
        <ele>2309</ele>
        <time>2022-08-27T10:49:17Z</time>
      </trkpt>
      <trkpt lat="45.83075" lon="7.00452">
        <ele>2308</ele>
        <time>2022-08-27T10:49:18Z</time>
      </trkpt>
      <trkpt lat="45.83077" lon="7.00452">
        <ele>2308</ele>
        <time>2022-08-27T10:49:19Z</time>
      </trkpt>
      <trkpt lat="45.83079" lon="7.00453">
        <ele>2307</ele>
        <time>2022-08-27T10:49:21Z</time>
      </trkpt>
      <trkpt lat="45.83081" lon="7.00454">
        <ele>2307</ele>
        <time>2022-08-27T10:49:22Z</time>
      </trkpt>
      <trkpt lat="45.83083" lon="7.00455">
        <ele>2305</ele>
        <time>2022-08-27T10:49:23Z</time>
      </trkpt>
      <trkpt lat="45.83084" lon="7.00457">
        <ele>2305</ele>
        <time>2022-08-27T10:49:24Z</time>
      </trkpt>
      <trkpt lat="45.83086" lon="7.00458">
        <ele>2305</ele>
        <time>2022-08-27T10:49:25Z</time>
      </trkpt>
      <trkpt lat="45.83088" lon="7.0046">
        <ele>2305</ele>
        <time>2022-08-27T10:49:26Z</time>
      </trkpt>
      <trkpt lat="45.8309" lon="7.00461">
        <ele>2305</ele>
        <time>2022-08-27T10:49:27Z</time>
      </trkpt>
      <trkpt lat="45.83091" lon="7.00463">
        <ele>2305</ele>
        <time>2022-08-27T10:49:28Z</time>
      </trkpt>
      <trkpt lat="45.83093" lon="7.00465">
        <ele>2305</ele>
        <time>2022-08-27T10:49:29Z</time>
      </trkpt>
      <trkpt lat="45.83095" lon="7.00467">
        <ele>2303</ele>
        <time>2022-08-27T10:49:31Z</time>
      </trkpt>
      <trkpt lat="45.83097" lon="7.00468">
        <ele>2303</ele>
        <time>2022-08-27T10:49:32Z</time>
      </trkpt>
      <trkpt lat="45.83099" lon="7.0047">
        <ele>2303</ele>
        <time>2022-08-27T10:49:33Z</time>
      </trkpt>
      <trkpt lat="45.83107" lon="7.00479">
        <ele>2302</ele>
        <time>2022-08-27T10:49:40Z</time>
      </trkpt>
      <trkpt lat="45.83109" lon="7.0048">
        <ele>2302</ele>
        <time>2022-08-27T10:49:41Z</time>
      </trkpt>
      <trkpt lat="45.8311" lon="7.00482">
        <ele>2302</ele>
        <time>2022-08-27T10:49:42Z</time>
      </trkpt>
      <trkpt lat="45.83111" lon="7.00483">
        <ele>2302</ele>
        <time>2022-08-27T10:49:44Z</time>
      </trkpt>
      <trkpt lat="45.83112" lon="7.00485">
        <ele>2302</ele>
        <time>2022-08-27T10:49:45Z</time>
      </trkpt>
      <trkpt lat="45.83114" lon="7.00486">
        <ele>2302</ele>
        <time>2022-08-27T10:49:46Z</time>
      </trkpt>
      <trkpt lat="45.83115" lon="7.00488">
        <ele>2301</ele>
        <time>2022-08-27T10:49:47Z</time>
      </trkpt>
      <trkpt lat="45.83117" lon="7.00491">
        <ele>2301</ele>
        <time>2022-08-27T10:49:48Z</time>
      </trkpt>
      <trkpt lat="45.8312" lon="7.00493">
        <ele>2300</ele>
        <time>2022-08-27T10:49:51Z</time>
      </trkpt>
      <trkpt lat="45.83123" lon="7.00496">
        <ele>2300</ele>
        <time>2022-08-27T10:49:53Z</time>
      </trkpt>
      <trkpt lat="45.83125" lon="7.00498">
        <ele>2300</ele>
        <time>2022-08-27T10:49:54Z</time>
      </trkpt>
      <trkpt lat="45.83128" lon="7.00501">
        <ele>2300</ele>
        <time>2022-08-27T10:49:56Z</time>
      </trkpt>
      <trkpt lat="45.83129" lon="7.00502">
        <ele>2298</ele>
        <time>2022-08-27T10:49:58Z</time>
      </trkpt>
      <trkpt lat="45.83131" lon="7.00504">
        <ele>2298</ele>
        <time>2022-08-27T10:49:59Z</time>
      </trkpt>
      <trkpt lat="45.83132" lon="7.00505">
        <ele>2298</ele>
        <time>2022-08-27T10:50:00Z</time>
      </trkpt>
      <trkpt lat="45.83134" lon="7.00506">
        <ele>2298</ele>
        <time>2022-08-27T10:50:01Z</time>
      </trkpt>
      <trkpt lat="45.83136" lon="7.00508">
        <ele>2297</ele>
        <time>2022-08-27T10:50:02Z</time>
      </trkpt>
      <trkpt lat="45.83137" lon="7.00509">
        <ele>2296</ele>
        <time>2022-08-27T10:50:03Z</time>
      </trkpt>
      <trkpt lat="45.83139" lon="7.00511">
        <ele>2296</ele>
        <time>2022-08-27T10:50:04Z</time>
      </trkpt>
      <trkpt lat="45.8314" lon="7.00512">
        <ele>2296</ele>
        <time>2022-08-27T10:50:05Z</time>
      </trkpt>
      <trkpt lat="45.83142" lon="7.00513">
        <ele>2296</ele>
        <time>2022-08-27T10:50:06Z</time>
      </trkpt>
      <trkpt lat="45.83144" lon="7.00515">
        <ele>2295</ele>
        <time>2022-08-27T10:50:07Z</time>
      </trkpt>
      <trkpt lat="45.83145" lon="7.00516">
        <ele>2295</ele>
        <time>2022-08-27T10:50:09Z</time>
      </trkpt>
      <trkpt lat="45.83146" lon="7.00517">
        <ele>2295</ele>
        <time>2022-08-27T10:50:10Z</time>
      </trkpt>
      <trkpt lat="45.83148" lon="7.00518">
        <ele>2294</ele>
        <time>2022-08-27T10:50:11Z</time>
      </trkpt>
      <trkpt lat="45.83149" lon="7.00519">
        <ele>2294</ele>
        <time>2022-08-27T10:50:12Z</time>
      </trkpt>
      <trkpt lat="45.83154" lon="7.00524">
        <ele>2294</ele>
        <time>2022-08-27T10:50:13Z</time>
      </trkpt>
      <trkpt lat="45.83156" lon="7.00527">
        <ele>2293</ele>
        <time>2022-08-27T10:50:15Z</time>
      </trkpt>
      <trkpt lat="45.83157" lon="7.00529">
        <ele>2293</ele>
        <time>2022-08-27T10:50:16Z</time>
      </trkpt>
      <trkpt lat="45.83158" lon="7.00532">
        <ele>2292</ele>
        <time>2022-08-27T10:50:18Z</time>
      </trkpt>
      <trkpt lat="45.8316" lon="7.00535">
        <ele>2292</ele>
        <time>2022-08-27T10:50:19Z</time>
      </trkpt>
      <trkpt lat="45.83162" lon="7.00546">
        <ele>2292</ele>
        <time>2022-08-27T10:50:27Z</time>
      </trkpt>
      <trkpt lat="45.83162" lon="7.00547">
        <ele>2292</ele>
        <time>2022-08-27T10:50:28Z</time>
      </trkpt>
      <trkpt lat="45.83162" lon="7.00547">
        <ele>2292</ele>
        <time>2022-08-27T10:50:29Z</time>
      </trkpt>
      <trkpt lat="45.83162" lon="7.00547">
        <ele>2292</ele>
        <time>2022-08-27T10:50:30Z</time>
      </trkpt>
      <trkpt lat="45.83162" lon="7.00548">
        <ele>2292</ele>
        <time>2022-08-27T10:50:32Z</time>
      </trkpt>
      <trkpt lat="45.83162" lon="7.00548">
        <ele>2293</ele>
        <time>2022-08-27T10:50:34Z</time>
      </trkpt>
      <trkpt lat="45.83163" lon="7.00548">
        <ele>2293</ele>
        <time>2022-08-27T10:50:35Z</time>
      </trkpt>
      <trkpt lat="45.83163" lon="7.00549">
        <ele>2293</ele>
        <time>2022-08-27T10:50:37Z</time>
      </trkpt>
      <trkpt lat="45.83163" lon="7.00549">
        <ele>2293</ele>
        <time>2022-08-27T10:50:39Z</time>
      </trkpt>
      <trkpt lat="45.83163" lon="7.00549">
        <ele>2293</ele>
        <time>2022-08-27T10:50:40Z</time>
      </trkpt>
      <trkpt lat="45.83163" lon="7.0055">
        <ele>2293</ele>
        <time>2022-08-27T10:50:41Z</time>
      </trkpt>
      <trkpt lat="45.83163" lon="7.0055">
        <ele>2293</ele>
        <time>2022-08-27T10:50:42Z</time>
      </trkpt>
      <trkpt lat="45.83163" lon="7.0055">
        <ele>2293</ele>
        <time>2022-08-27T10:50:43Z</time>
      </trkpt>
      <trkpt lat="45.83163" lon="7.00551">
        <ele>2293</ele>
        <time>2022-08-27T10:50:44Z</time>
      </trkpt>
      <trkpt lat="45.83163" lon="7.00551">
        <ele>2293</ele>
        <time>2022-08-27T10:50:45Z</time>
      </trkpt>
      <trkpt lat="45.83163" lon="7.00551">
        <ele>2293</ele>
        <time>2022-08-27T10:50:46Z</time>
      </trkpt>
      <trkpt lat="45.83163" lon="7.00552">
        <ele>2293</ele>
        <time>2022-08-27T10:50:47Z</time>
      </trkpt>
      <trkpt lat="45.83163" lon="7.00552">
        <ele>2293</ele>
        <time>2022-08-27T10:50:48Z</time>
      </trkpt>
      <trkpt lat="45.83164" lon="7.00552">
        <ele>2293</ele>
        <time>2022-08-27T10:50:49Z</time>
      </trkpt>
      <trkpt lat="45.83164" lon="7.00553">
        <ele>2293</ele>
        <time>2022-08-27T10:50:50Z</time>
      </trkpt>
      <trkpt lat="45.83164" lon="7.00553">
        <ele>2292</ele>
        <time>2022-08-27T10:50:51Z</time>
      </trkpt>
      <trkpt lat="45.83164" lon="7.00553">
        <ele>2292</ele>
        <time>2022-08-27T10:50:52Z</time>
      </trkpt>
      <trkpt lat="45.83164" lon="7.00554">
        <ele>2292</ele>
        <time>2022-08-27T10:50:53Z</time>
      </trkpt>
      <trkpt lat="45.83164" lon="7.00554">
        <ele>2292</ele>
        <time>2022-08-27T10:50:54Z</time>
      </trkpt>
      <trkpt lat="45.83164" lon="7.00554">
        <ele>2292</ele>
        <time>2022-08-27T10:50:56Z</time>
      </trkpt>
      <trkpt lat="45.83164" lon="7.00555">
        <ele>2292</ele>
        <time>2022-08-27T10:50:57Z</time>
      </trkpt>
      <trkpt lat="45.83164" lon="7.00555">
        <ele>2293</ele>
        <time>2022-08-27T10:50:58Z</time>
      </trkpt>
      <trkpt lat="45.83164" lon="7.00555">
        <ele>2293</ele>
        <time>2022-08-27T10:50:59Z</time>
      </trkpt>
      <trkpt lat="45.83164" lon="7.00556">
        <ele>2293</ele>
        <time>2022-08-27T10:51:00Z</time>
      </trkpt>
      <trkpt lat="45.83164" lon="7.00556">
        <ele>2293</ele>
        <time>2022-08-27T10:51:01Z</time>
      </trkpt>
      <trkpt lat="45.83165" lon="7.00556">
        <ele>2293</ele>
        <time>2022-08-27T10:51:02Z</time>
      </trkpt>
      <trkpt lat="45.83165" lon="7.00557">
        <ele>2293</ele>
        <time>2022-08-27T10:51:04Z</time>
      </trkpt>
      <trkpt lat="45.83165" lon="7.00557">
        <ele>2293</ele>
        <time>2022-08-27T10:51:05Z</time>
      </trkpt>
      <trkpt lat="45.83165" lon="7.00557">
        <ele>2293</ele>
        <time>2022-08-27T10:51:07Z</time>
      </trkpt>
      <trkpt lat="45.83165" lon="7.00558">
        <ele>2293</ele>
        <time>2022-08-27T10:51:08Z</time>
      </trkpt>
      <trkpt lat="45.83165" lon="7.00558">
        <ele>2293</ele>
        <time>2022-08-27T10:51:09Z</time>
      </trkpt>
      <trkpt lat="45.83165" lon="7.00558">
        <ele>2294</ele>
        <time>2022-08-27T10:51:10Z</time>
      </trkpt>
      <trkpt lat="45.83165" lon="7.00559">
        <ele>2294</ele>
        <time>2022-08-27T10:51:12Z</time>
      </trkpt>
      <trkpt lat="45.83165" lon="7.00559">
        <ele>2294</ele>
        <time>2022-08-27T10:51:14Z</time>
      </trkpt>
      <trkpt lat="45.83165" lon="7.00559">
        <ele>2293</ele>
        <time>2022-08-27T10:51:15Z</time>
      </trkpt>
      <trkpt lat="45.83165" lon="7.0056">
        <ele>2293</ele>
        <time>2022-08-27T10:51:16Z</time>
      </trkpt>
      <trkpt lat="45.83165" lon="7.0056">
        <ele>2293</ele>
        <time>2022-08-27T10:51:17Z</time>
      </trkpt>
      <trkpt lat="45.83166" lon="7.0056">
        <ele>2293</ele>
        <time>2022-08-27T10:51:19Z</time>
      </trkpt>
      <trkpt lat="45.83166" lon="7.00561">
        <ele>2293</ele>
        <time>2022-08-27T10:51:20Z</time>
      </trkpt>
      <trkpt lat="45.83166" lon="7.00561">
        <ele>2293</ele>
        <time>2022-08-27T10:51:21Z</time>
      </trkpt>
      <trkpt lat="45.83167" lon="7.00563">
        <ele>2292</ele>
        <time>2022-08-27T10:51:22Z</time>
      </trkpt>
      <trkpt lat="45.83168" lon="7.00564">
        <ele>2292</ele>
        <time>2022-08-27T10:51:23Z</time>
      </trkpt>
      <trkpt lat="45.83169" lon="7.00566">
        <ele>2292</ele>
        <time>2022-08-27T10:51:24Z</time>
      </trkpt>
      <trkpt lat="45.8317" lon="7.00567">
        <ele>2292</ele>
        <time>2022-08-27T10:51:25Z</time>
      </trkpt>
      <trkpt lat="45.83171" lon="7.00569">
        <ele>2292</ele>
        <time>2022-08-27T10:51:26Z</time>
      </trkpt>
      <trkpt lat="45.83172" lon="7.00571">
        <ele>2292</ele>
        <time>2022-08-27T10:51:27Z</time>
      </trkpt>
      <trkpt lat="45.83174" lon="7.00573">
        <ele>2293</ele>
        <time>2022-08-27T10:51:29Z</time>
      </trkpt>
      <trkpt lat="45.83176" lon="7.00577">
        <ele>2293</ele>
        <time>2022-08-27T10:51:33Z</time>
      </trkpt>
      <trkpt lat="45.83179" lon="7.00581">
        <ele>2293</ele>
        <time>2022-08-27T10:51:37Z</time>
      </trkpt>
      <trkpt lat="45.83182" lon="7.00583">
        <ele>2293</ele>
        <time>2022-08-27T10:51:39Z</time>
      </trkpt>
      <trkpt lat="45.83184" lon="7.00585">
        <ele>2293</ele>
        <time>2022-08-27T10:51:41Z</time>
      </trkpt>
      <trkpt lat="45.83186" lon="7.00588">
        <ele>2293</ele>
        <time>2022-08-27T10:51:43Z</time>
      </trkpt>
      <trkpt lat="45.83188" lon="7.00589">
        <ele>2293</ele>
        <time>2022-08-27T10:51:45Z</time>
      </trkpt>
      <trkpt lat="45.83189" lon="7.00591">
        <ele>2293</ele>
        <time>2022-08-27T10:51:47Z</time>
      </trkpt>
      <trkpt lat="45.83191" lon="7.00593">
        <ele>2294</ele>
        <time>2022-08-27T10:51:49Z</time>
      </trkpt>
      <trkpt lat="45.83193" lon="7.00595">
        <ele>2294</ele>
        <time>2022-08-27T10:51:51Z</time>
      </trkpt>
      <trkpt lat="45.83197" lon="7.00598">
        <ele>2294</ele>
        <time>2022-08-27T10:51:53Z</time>
      </trkpt>
      <trkpt lat="45.83197" lon="7.00599">
        <ele>2294</ele>
        <time>2022-08-27T10:51:54Z</time>
      </trkpt>
      <trkpt lat="45.83198" lon="7.006">
        <ele>2294</ele>
        <time>2022-08-27T10:51:55Z</time>
      </trkpt>
      <trkpt lat="45.83199" lon="7.00601">
        <ele>2294</ele>
        <time>2022-08-27T10:51:56Z</time>
      </trkpt>
      <trkpt lat="45.832" lon="7.00602">
        <ele>2294</ele>
        <time>2022-08-27T10:51:57Z</time>
      </trkpt>
      <trkpt lat="45.83201" lon="7.00602">
        <ele>2294</ele>
        <time>2022-08-27T10:51:59Z</time>
      </trkpt>
      <trkpt lat="45.83202" lon="7.00603">
        <ele>2294</ele>
        <time>2022-08-27T10:52:00Z</time>
      </trkpt>
      <trkpt lat="45.83205" lon="7.00607">
        <ele>2294</ele>
        <time>2022-08-27T10:52:02Z</time>
      </trkpt>
      <trkpt lat="45.83206" lon="7.00609">
        <ele>2294</ele>
        <time>2022-08-27T10:52:03Z</time>
      </trkpt>
      <trkpt lat="45.83207" lon="7.0061">
        <ele>2294</ele>
        <time>2022-08-27T10:52:05Z</time>
      </trkpt>
      <trkpt lat="45.83208" lon="7.00612">
        <ele>2294</ele>
        <time>2022-08-27T10:52:06Z</time>
      </trkpt>
      <trkpt lat="45.8321" lon="7.00614">
        <ele>2294</ele>
        <time>2022-08-27T10:52:08Z</time>
      </trkpt>
      <trkpt lat="45.83212" lon="7.00616">
        <ele>2294</ele>
        <time>2022-08-27T10:52:10Z</time>
      </trkpt>
      <trkpt lat="45.83214" lon="7.00619">
        <ele>2294</ele>
        <time>2022-08-27T10:52:12Z</time>
      </trkpt>
      <trkpt lat="45.83216" lon="7.00622">
        <ele>2295</ele>
        <time>2022-08-27T10:52:14Z</time>
      </trkpt>
      <trkpt lat="45.83218" lon="7.00624">
        <ele>2295</ele>
        <time>2022-08-27T10:52:16Z</time>
      </trkpt>
      <trkpt lat="45.8322" lon="7.00627">
        <ele>2295</ele>
        <time>2022-08-27T10:52:18Z</time>
      </trkpt>
      <trkpt lat="45.83223" lon="7.0063">
        <ele>2295</ele>
        <time>2022-08-27T10:52:20Z</time>
      </trkpt>
      <trkpt lat="45.83225" lon="7.00633">
        <ele>2294</ele>
        <time>2022-08-27T10:52:22Z</time>
      </trkpt>
      <trkpt lat="45.83227" lon="7.00635">
        <ele>2294</ele>
        <time>2022-08-27T10:52:24Z</time>
      </trkpt>
      <trkpt lat="45.83228" lon="7.00637">
        <ele>2294</ele>
        <time>2022-08-27T10:52:26Z</time>
      </trkpt>
      <trkpt lat="45.8323" lon="7.00639">
        <ele>2295</ele>
        <time>2022-08-27T10:52:28Z</time>
      </trkpt>
      <trkpt lat="45.83232" lon="7.00641">
        <ele>2295</ele>
        <time>2022-08-27T10:52:30Z</time>
      </trkpt>
      <trkpt lat="45.83234" lon="7.00643">
        <ele>2295</ele>
        <time>2022-08-27T10:52:32Z</time>
      </trkpt>
      <trkpt lat="45.83236" lon="7.00645">
        <ele>2295</ele>
        <time>2022-08-27T10:52:34Z</time>
      </trkpt>
      <trkpt lat="45.83238" lon="7.00647">
        <ele>2295</ele>
        <time>2022-08-27T10:52:36Z</time>
      </trkpt>
      <trkpt lat="45.83241" lon="7.0065">
        <ele>2295</ele>
        <time>2022-08-27T10:52:38Z</time>
      </trkpt>
      <trkpt lat="45.83243" lon="7.00652">
        <ele>2295</ele>
        <time>2022-08-27T10:52:40Z</time>
      </trkpt>
      <trkpt lat="45.83245" lon="7.00655">
        <ele>2296</ele>
        <time>2022-08-27T10:52:42Z</time>
      </trkpt>
      <trkpt lat="45.83246" lon="7.00657">
        <ele>2296</ele>
        <time>2022-08-27T10:52:44Z</time>
      </trkpt>
      <trkpt lat="45.83249" lon="7.00661">
        <ele>2297</ele>
        <time>2022-08-27T10:52:47Z</time>
      </trkpt>
      <trkpt lat="45.8325" lon="7.00663">
        <ele>2297</ele>
        <time>2022-08-27T10:52:49Z</time>
      </trkpt>
      <trkpt lat="45.83251" lon="7.00667">
        <ele>2297</ele>
        <time>2022-08-27T10:52:51Z</time>
      </trkpt>
      <trkpt lat="45.83252" lon="7.0067">
        <ele>2297</ele>
        <time>2022-08-27T10:52:53Z</time>
      </trkpt>
      <trkpt lat="45.83254" lon="7.00672">
        <ele>2297</ele>
        <time>2022-08-27T10:52:55Z</time>
      </trkpt>
      <trkpt lat="45.83255" lon="7.00676">
        <ele>2298</ele>
        <time>2022-08-27T10:52:57Z</time>
      </trkpt>
      <trkpt lat="45.83256" lon="7.00678">
        <ele>2298</ele>
        <time>2022-08-27T10:52:59Z</time>
      </trkpt>
      <trkpt lat="45.83257" lon="7.00681">
        <ele>2297</ele>
        <time>2022-08-27T10:53:01Z</time>
      </trkpt>
      <trkpt lat="45.83259" lon="7.00684">
        <ele>2297</ele>
        <time>2022-08-27T10:53:03Z</time>
      </trkpt>
      <trkpt lat="45.83261" lon="7.00687">
        <ele>2297</ele>
        <time>2022-08-27T10:53:05Z</time>
      </trkpt>
      <trkpt lat="45.83261" lon="7.0069">
        <ele>2297</ele>
        <time>2022-08-27T10:53:07Z</time>
      </trkpt>
      <trkpt lat="45.83262" lon="7.00693">
        <ele>2298</ele>
        <time>2022-08-27T10:53:09Z</time>
      </trkpt>
      <trkpt lat="45.83263" lon="7.00696">
        <ele>2298</ele>
        <time>2022-08-27T10:53:11Z</time>
      </trkpt>
      <trkpt lat="45.83263" lon="7.00699">
        <ele>2298</ele>
        <time>2022-08-27T10:53:13Z</time>
      </trkpt>
      <trkpt lat="45.83263" lon="7.00703">
        <ele>2298</ele>
        <time>2022-08-27T10:53:16Z</time>
      </trkpt>
      <trkpt lat="45.83265" lon="7.00706">
        <ele>2300</ele>
        <time>2022-08-27T10:53:20Z</time>
      </trkpt>
      <trkpt lat="45.83265" lon="7.00709">
        <ele>2300</ele>
        <time>2022-08-27T10:53:23Z</time>
      </trkpt>
      <trkpt lat="45.83265" lon="7.00712">
        <ele>2302</ele>
        <time>2022-08-27T10:53:26Z</time>
      </trkpt>
      <trkpt lat="45.83265" lon="7.00715">
        <ele>2303</ele>
        <time>2022-08-27T10:53:30Z</time>
      </trkpt>
      <trkpt lat="45.83266" lon="7.00719">
        <ele>2304</ele>
        <time>2022-08-27T10:53:35Z</time>
      </trkpt>
      <trkpt lat="45.83267" lon="7.00722">
        <ele>2305</ele>
        <time>2022-08-27T10:53:38Z</time>
      </trkpt>
      <trkpt lat="45.83267" lon="7.00725">
        <ele>2306</ele>
        <time>2022-08-27T10:53:42Z</time>
      </trkpt>
      <trkpt lat="45.83268" lon="7.00728">
        <ele>2306</ele>
        <time>2022-08-27T10:53:46Z</time>
      </trkpt>
      <trkpt lat="45.83269" lon="7.00731">
        <ele>2307</ele>
        <time>2022-08-27T10:53:49Z</time>
      </trkpt>
      <trkpt lat="45.8327" lon="7.00734">
        <ele>2307</ele>
        <time>2022-08-27T10:53:52Z</time>
      </trkpt>
      <trkpt lat="45.8327" lon="7.00737">
        <ele>2307</ele>
        <time>2022-08-27T10:53:55Z</time>
      </trkpt>
      <trkpt lat="45.83271" lon="7.00741">
        <ele>2308</ele>
        <time>2022-08-27T10:53:59Z</time>
      </trkpt>
      <trkpt lat="45.83272" lon="7.00742">
        <ele>2308</ele>
        <time>2022-08-27T10:54:00Z</time>
      </trkpt>
      <trkpt lat="45.83272" lon="7.00744">
        <ele>2309</ele>
        <time>2022-08-27T10:54:02Z</time>
      </trkpt>
      <trkpt lat="45.83273" lon="7.00745">
        <ele>2309</ele>
        <time>2022-08-27T10:54:04Z</time>
      </trkpt>
      <trkpt lat="45.83273" lon="7.00746">
        <ele>2309</ele>
        <time>2022-08-27T10:54:06Z</time>
      </trkpt>
      <trkpt lat="45.83274" lon="7.00747">
        <ele>2309</ele>
        <time>2022-08-27T10:54:07Z</time>
      </trkpt>
      <trkpt lat="45.83274" lon="7.00749">
        <ele>2310</ele>
        <time>2022-08-27T10:54:08Z</time>
      </trkpt>
      <trkpt lat="45.83275" lon="7.0075">
        <ele>2310</ele>
        <time>2022-08-27T10:54:10Z</time>
      </trkpt>
      <trkpt lat="45.83276" lon="7.00752">
        <ele>2310</ele>
        <time>2022-08-27T10:54:11Z</time>
      </trkpt>
      <trkpt lat="45.83276" lon="7.00753">
        <ele>2310</ele>
        <time>2022-08-27T10:54:12Z</time>
      </trkpt>
      <trkpt lat="45.83277" lon="7.00755">
        <ele>2310</ele>
        <time>2022-08-27T10:54:13Z</time>
      </trkpt>
      <trkpt lat="45.83278" lon="7.00758">
        <ele>2310</ele>
        <time>2022-08-27T10:54:16Z</time>
      </trkpt>
      <trkpt lat="45.83279" lon="7.00761">
        <ele>2311</ele>
        <time>2022-08-27T10:54:19Z</time>
      </trkpt>
      <trkpt lat="45.8328" lon="7.00763">
        <ele>2312</ele>
        <time>2022-08-27T10:54:22Z</time>
      </trkpt>
      <trkpt lat="45.83281" lon="7.00766">
        <ele>2312</ele>
        <time>2022-08-27T10:54:25Z</time>
      </trkpt>
      <trkpt lat="45.83283" lon="7.00768">
        <ele>2312</ele>
        <time>2022-08-27T10:54:27Z</time>
      </trkpt>
      <trkpt lat="45.83284" lon="7.00771">
        <ele>2312</ele>
        <time>2022-08-27T10:54:29Z</time>
      </trkpt>
      <trkpt lat="45.83284" lon="7.00774">
        <ele>2313</ele>
        <time>2022-08-27T10:54:32Z</time>
      </trkpt>
      <trkpt lat="45.83285" lon="7.00776">
        <ele>2314</ele>
        <time>2022-08-27T10:54:34Z</time>
      </trkpt>
      <trkpt lat="45.83285" lon="7.0078">
        <ele>2314</ele>
        <time>2022-08-27T10:54:38Z</time>
      </trkpt>
      <trkpt lat="45.83286" lon="7.00782">
        <ele>2315</ele>
        <time>2022-08-27T10:54:40Z</time>
      </trkpt>
      <trkpt lat="45.83287" lon="7.00785">
        <ele>2315</ele>
        <time>2022-08-27T10:54:42Z</time>
      </trkpt>
      <trkpt lat="45.83289" lon="7.00789">
        <ele>2315</ele>
        <time>2022-08-27T10:54:44Z</time>
      </trkpt>
      <trkpt lat="45.83289" lon="7.0079">
        <ele>2315</ele>
        <time>2022-08-27T10:54:46Z</time>
      </trkpt>
      <trkpt lat="45.83289" lon="7.00791">
        <ele>2315</ele>
        <time>2022-08-27T10:54:48Z</time>
      </trkpt>
      <trkpt lat="45.8329" lon="7.00792">
        <ele>2316</ele>
        <time>2022-08-27T10:54:49Z</time>
      </trkpt>
      <trkpt lat="45.8329" lon="7.00793">
        <ele>2316</ele>
        <time>2022-08-27T10:54:50Z</time>
      </trkpt>
      <trkpt lat="45.8329" lon="7.00794">
        <ele>2316</ele>
        <time>2022-08-27T10:54:51Z</time>
      </trkpt>
      <trkpt lat="45.83291" lon="7.00795">
        <ele>2316</ele>
        <time>2022-08-27T10:54:52Z</time>
      </trkpt>
      <trkpt lat="45.83291" lon="7.00796">
        <ele>2316</ele>
        <time>2022-08-27T10:54:53Z</time>
      </trkpt>
      <trkpt lat="45.83292" lon="7.008">
        <ele>2316</ele>
        <time>2022-08-27T10:54:55Z</time>
      </trkpt>
      <trkpt lat="45.83293" lon="7.00802">
        <ele>2317</ele>
        <time>2022-08-27T10:54:58Z</time>
      </trkpt>
      <trkpt lat="45.83294" lon="7.00806">
        <ele>2317</ele>
        <time>2022-08-27T10:55:01Z</time>
      </trkpt>
      <trkpt lat="45.83294" lon="7.00809">
        <ele>2318</ele>
        <time>2022-08-27T10:55:04Z</time>
      </trkpt>
      <trkpt lat="45.83295" lon="7.00813">
        <ele>2318</ele>
        <time>2022-08-27T10:55:07Z</time>
      </trkpt>
      <trkpt lat="45.83296" lon="7.00815">
        <ele>2318</ele>
        <time>2022-08-27T10:55:09Z</time>
      </trkpt>
      <trkpt lat="45.83296" lon="7.00818">
        <ele>2318</ele>
        <time>2022-08-27T10:55:11Z</time>
      </trkpt>
      <trkpt lat="45.83297" lon="7.00821">
        <ele>2319</ele>
        <time>2022-08-27T10:55:13Z</time>
      </trkpt>
      <trkpt lat="45.83298" lon="7.00824">
        <ele>2319</ele>
        <time>2022-08-27T10:55:15Z</time>
      </trkpt>
      <trkpt lat="45.833" lon="7.00826">
        <ele>2319</ele>
        <time>2022-08-27T10:55:17Z</time>
      </trkpt>
      <trkpt lat="45.83301" lon="7.00828">
        <ele>2320</ele>
        <time>2022-08-27T10:55:19Z</time>
      </trkpt>
      <trkpt lat="45.83303" lon="7.0083">
        <ele>2320</ele>
        <time>2022-08-27T10:55:21Z</time>
      </trkpt>
      <trkpt lat="45.83305" lon="7.00832">
        <ele>2320</ele>
        <time>2022-08-27T10:55:23Z</time>
      </trkpt>
      <trkpt lat="45.83306" lon="7.00835">
        <ele>2320</ele>
        <time>2022-08-27T10:55:25Z</time>
      </trkpt>
      <trkpt lat="45.83308" lon="7.00837">
        <ele>2320</ele>
        <time>2022-08-27T10:55:27Z</time>
      </trkpt>
      <trkpt lat="45.83309" lon="7.0084">
        <ele>2321</ele>
        <time>2022-08-27T10:55:29Z</time>
      </trkpt>
      <trkpt lat="45.83311" lon="7.00842">
        <ele>2321</ele>
        <time>2022-08-27T10:55:31Z</time>
      </trkpt>
      <trkpt lat="45.83313" lon="7.00844">
        <ele>2321</ele>
        <time>2022-08-27T10:55:33Z</time>
      </trkpt>
      <trkpt lat="45.83316" lon="7.00845">
        <ele>2321</ele>
        <time>2022-08-27T10:55:35Z</time>
      </trkpt>
      <trkpt lat="45.8332" lon="7.00847">
        <ele>2321</ele>
        <time>2022-08-27T10:55:37Z</time>
      </trkpt>
      <trkpt lat="45.83321" lon="7.00848">
        <ele>2321</ele>
        <time>2022-08-27T10:55:38Z</time>
      </trkpt>
      <trkpt lat="45.83323" lon="7.0085">
        <ele>2320</ele>
        <time>2022-08-27T10:55:39Z</time>
      </trkpt>
      <trkpt lat="45.83324" lon="7.00852">
        <ele>2320</ele>
        <time>2022-08-27T10:55:40Z</time>
      </trkpt>
      <trkpt lat="45.83325" lon="7.00853">
        <ele>2320</ele>
        <time>2022-08-27T10:55:41Z</time>
      </trkpt>
      <trkpt lat="45.83328" lon="7.00856">
        <ele>2320</ele>
        <time>2022-08-27T10:55:42Z</time>
      </trkpt>
      <trkpt lat="45.83329" lon="7.00858">
        <ele>2320</ele>
        <time>2022-08-27T10:55:43Z</time>
      </trkpt>
      <trkpt lat="45.8333" lon="7.0086">
        <ele>2320</ele>
        <time>2022-08-27T10:55:44Z</time>
      </trkpt>
      <trkpt lat="45.83331" lon="7.00862">
        <ele>2320</ele>
        <time>2022-08-27T10:55:45Z</time>
      </trkpt>
      <trkpt lat="45.83333" lon="7.00866">
        <ele>2320</ele>
        <time>2022-08-27T10:55:47Z</time>
      </trkpt>
      <trkpt lat="45.83335" lon="7.0087">
        <ele>2319</ele>
        <time>2022-08-27T10:55:49Z</time>
      </trkpt>
      <trkpt lat="45.83335" lon="7.00873">
        <ele>2319</ele>
        <time>2022-08-27T10:55:50Z</time>
      </trkpt>
      <trkpt lat="45.83336" lon="7.00875">
        <ele>2319</ele>
        <time>2022-08-27T10:55:51Z</time>
      </trkpt>
      <trkpt lat="45.83338" lon="7.0088">
        <ele>2319</ele>
        <time>2022-08-27T10:55:53Z</time>
      </trkpt>
      <trkpt lat="45.83339" lon="7.00882">
        <ele>2319</ele>
        <time>2022-08-27T10:55:54Z</time>
      </trkpt>
      <trkpt lat="45.83341" lon="7.00885">
        <ele>2319</ele>
        <time>2022-08-27T10:55:56Z</time>
      </trkpt>
      <trkpt lat="45.83343" lon="7.00887">
        <ele>2319</ele>
        <time>2022-08-27T10:55:57Z</time>
      </trkpt>
      <trkpt lat="45.83344" lon="7.0089">
        <ele>2319</ele>
        <time>2022-08-27T10:55:58Z</time>
      </trkpt>
      <trkpt lat="45.83345" lon="7.00894">
        <ele>2319</ele>
        <time>2022-08-27T10:56:00Z</time>
      </trkpt>
      <trkpt lat="45.83346" lon="7.00896">
        <ele>2319</ele>
        <time>2022-08-27T10:56:01Z</time>
      </trkpt>
      <trkpt lat="45.83347" lon="7.00898">
        <ele>2319</ele>
        <time>2022-08-27T10:56:02Z</time>
      </trkpt>
      <trkpt lat="45.83348" lon="7.009">
        <ele>2319</ele>
        <time>2022-08-27T10:56:03Z</time>
      </trkpt>
      <trkpt lat="45.83351" lon="7.00903">
        <ele>2319</ele>
        <time>2022-08-27T10:56:05Z</time>
      </trkpt>
      <trkpt lat="45.83353" lon="7.00904">
        <ele>2319</ele>
        <time>2022-08-27T10:56:06Z</time>
      </trkpt>
      <trkpt lat="45.83354" lon="7.00906">
        <ele>2319</ele>
        <time>2022-08-27T10:56:08Z</time>
      </trkpt>
      <trkpt lat="45.83355" lon="7.00908">
        <ele>2319</ele>
        <time>2022-08-27T10:56:09Z</time>
      </trkpt>
      <trkpt lat="45.83356" lon="7.0091">
        <ele>2319</ele>
        <time>2022-08-27T10:56:10Z</time>
      </trkpt>
      <trkpt lat="45.83356" lon="7.00911">
        <ele>2320</ele>
        <time>2022-08-27T10:56:11Z</time>
      </trkpt>
      <trkpt lat="45.83357" lon="7.00913">
        <ele>2320</ele>
        <time>2022-08-27T10:56:13Z</time>
      </trkpt>
      <trkpt lat="45.83358" lon="7.00915">
        <ele>2320</ele>
        <time>2022-08-27T10:56:14Z</time>
      </trkpt>
      <trkpt lat="45.83361" lon="7.00919">
        <ele>2320</ele>
        <time>2022-08-27T10:56:18Z</time>
      </trkpt>
      <trkpt lat="45.83363" lon="7.00922">
        <ele>2321</ele>
        <time>2022-08-27T10:56:21Z</time>
      </trkpt>
      <trkpt lat="45.83364" lon="7.00924">
        <ele>2321</ele>
        <time>2022-08-27T10:56:23Z</time>
      </trkpt>
      <trkpt lat="45.83367" lon="7.00927">
        <ele>2322</ele>
        <time>2022-08-27T10:56:26Z</time>
      </trkpt>
      <trkpt lat="45.83369" lon="7.00928">
        <ele>2322</ele>
        <time>2022-08-27T10:56:28Z</time>
      </trkpt>
      <trkpt lat="45.8337" lon="7.00931">
        <ele>2323</ele>
        <time>2022-08-27T10:56:30Z</time>
      </trkpt>
      <trkpt lat="45.83372" lon="7.00933">
        <ele>2323</ele>
        <time>2022-08-27T10:56:32Z</time>
      </trkpt>
      <trkpt lat="45.83373" lon="7.00935">
        <ele>2323</ele>
        <time>2022-08-27T10:56:34Z</time>
      </trkpt>
      <trkpt lat="45.83376" lon="7.00939">
        <ele>2323</ele>
        <time>2022-08-27T10:56:36Z</time>
      </trkpt>
      <trkpt lat="45.83377" lon="7.0094">
        <ele>2323</ele>
        <time>2022-08-27T10:56:37Z</time>
      </trkpt>
      <trkpt lat="45.83379" lon="7.00941">
        <ele>2323</ele>
        <time>2022-08-27T10:56:38Z</time>
      </trkpt>
      <trkpt lat="45.83381" lon="7.00945">
        <ele>2323</ele>
        <time>2022-08-27T10:56:40Z</time>
      </trkpt>
      <trkpt lat="45.83383" lon="7.00946">
        <ele>2323</ele>
        <time>2022-08-27T10:56:41Z</time>
      </trkpt>
      <trkpt lat="45.83384" lon="7.00948">
        <ele>2323</ele>
        <time>2022-08-27T10:56:42Z</time>
      </trkpt>
      <trkpt lat="45.83386" lon="7.0095">
        <ele>2323</ele>
        <time>2022-08-27T10:56:43Z</time>
      </trkpt>
      <trkpt lat="45.83388" lon="7.00954">
        <ele>2323</ele>
        <time>2022-08-27T10:56:45Z</time>
      </trkpt>
      <trkpt lat="45.83389" lon="7.00956">
        <ele>2324</ele>
        <time>2022-08-27T10:56:46Z</time>
      </trkpt>
      <trkpt lat="45.8339" lon="7.00958">
        <ele>2324</ele>
        <time>2022-08-27T10:56:47Z</time>
      </trkpt>
      <trkpt lat="45.83391" lon="7.0096">
        <ele>2324</ele>
        <time>2022-08-27T10:56:48Z</time>
      </trkpt>
      <trkpt lat="45.83393" lon="7.00963">
        <ele>2324</ele>
        <time>2022-08-27T10:56:49Z</time>
      </trkpt>
      <trkpt lat="45.83395" lon="7.00966">
        <ele>2324</ele>
        <time>2022-08-27T10:56:51Z</time>
      </trkpt>
      <trkpt lat="45.83397" lon="7.00969">
        <ele>2324</ele>
        <time>2022-08-27T10:56:53Z</time>
      </trkpt>
      <trkpt lat="45.83398" lon="7.00973">
        <ele>2324</ele>
        <time>2022-08-27T10:56:55Z</time>
      </trkpt>
      <trkpt lat="45.834" lon="7.00976">
        <ele>2324</ele>
        <time>2022-08-27T10:56:57Z</time>
      </trkpt>
      <trkpt lat="45.83401" lon="7.00979">
        <ele>2324</ele>
        <time>2022-08-27T10:56:59Z</time>
      </trkpt>
      <trkpt lat="45.83403" lon="7.00983">
        <ele>2324</ele>
        <time>2022-08-27T10:57:01Z</time>
      </trkpt>
      <trkpt lat="45.83404" lon="7.00984">
        <ele>2324</ele>
        <time>2022-08-27T10:57:02Z</time>
      </trkpt>
      <trkpt lat="45.83404" lon="7.00985">
        <ele>2324</ele>
        <time>2022-08-27T10:57:03Z</time>
      </trkpt>
      <trkpt lat="45.83405" lon="7.00986">
        <ele>2324</ele>
        <time>2022-08-27T10:57:04Z</time>
      </trkpt>
      <trkpt lat="45.83405" lon="7.00987">
        <ele>2324</ele>
        <time>2022-08-27T10:57:05Z</time>
      </trkpt>
      <trkpt lat="45.83407" lon="7.0099">
        <ele>2324</ele>
        <time>2022-08-27T10:57:06Z</time>
      </trkpt>
      <trkpt lat="45.83409" lon="7.00993">
        <ele>2324</ele>
        <time>2022-08-27T10:57:08Z</time>
      </trkpt>
      <trkpt lat="45.8341" lon="7.00995">
        <ele>2324</ele>
        <time>2022-08-27T10:57:10Z</time>
      </trkpt>
      <trkpt lat="45.83412" lon="7.00998">
        <ele>2324</ele>
        <time>2022-08-27T10:57:12Z</time>
      </trkpt>
      <trkpt lat="45.83414" lon="7.01001">
        <ele>2324</ele>
        <time>2022-08-27T10:57:14Z</time>
      </trkpt>
      <trkpt lat="45.83416" lon="7.01003">
        <ele>2324</ele>
        <time>2022-08-27T10:57:16Z</time>
      </trkpt>
      <trkpt lat="45.83419" lon="7.01007">
        <ele>2326</ele>
        <time>2022-08-27T10:57:19Z</time>
      </trkpt>
      <trkpt lat="45.83421" lon="7.0101">
        <ele>2326</ele>
        <time>2022-08-27T10:57:21Z</time>
      </trkpt>
      <trkpt lat="45.83423" lon="7.01013">
        <ele>2326</ele>
        <time>2022-08-27T10:57:23Z</time>
      </trkpt>
      <trkpt lat="45.83425" lon="7.01016">
        <ele>2326</ele>
        <time>2022-08-27T10:57:25Z</time>
      </trkpt>
      <trkpt lat="45.83426" lon="7.01019">
        <ele>2326</ele>
        <time>2022-08-27T10:57:27Z</time>
      </trkpt>
      <trkpt lat="45.83428" lon="7.01023">
        <ele>2326</ele>
        <time>2022-08-27T10:57:29Z</time>
      </trkpt>
      <trkpt lat="45.83429" lon="7.01027">
        <ele>2326</ele>
        <time>2022-08-27T10:57:31Z</time>
      </trkpt>
      <trkpt lat="45.83429" lon="7.01028">
        <ele>2326</ele>
        <time>2022-08-27T10:57:32Z</time>
      </trkpt>
      <trkpt lat="45.83429" lon="7.01029">
        <ele>2326</ele>
        <time>2022-08-27T10:57:33Z</time>
      </trkpt>
      <trkpt lat="45.8343" lon="7.01031">
        <ele>2326</ele>
        <time>2022-08-27T10:57:34Z</time>
      </trkpt>
      <trkpt lat="45.8343" lon="7.01032">
        <ele>2326</ele>
        <time>2022-08-27T10:57:35Z</time>
      </trkpt>
      <trkpt lat="45.83431" lon="7.01036">
        <ele>2326</ele>
        <time>2022-08-27T10:57:36Z</time>
      </trkpt>
      <trkpt lat="45.83431" lon="7.0104">
        <ele>2327</ele>
        <time>2022-08-27T10:57:38Z</time>
      </trkpt>
      <trkpt lat="45.83432" lon="7.01043">
        <ele>2327</ele>
        <time>2022-08-27T10:57:40Z</time>
      </trkpt>
      <trkpt lat="45.83432" lon="7.01047">
        <ele>2327</ele>
        <time>2022-08-27T10:57:42Z</time>
      </trkpt>
      <trkpt lat="45.83433" lon="7.01051">
        <ele>2326</ele>
        <time>2022-08-27T10:57:44Z</time>
      </trkpt>
      <trkpt lat="45.83433" lon="7.01055">
        <ele>2326</ele>
        <time>2022-08-27T10:57:46Z</time>
      </trkpt>
      <trkpt lat="45.83434" lon="7.01058">
        <ele>2326</ele>
        <time>2022-08-27T10:57:48Z</time>
      </trkpt>
      <trkpt lat="45.83435" lon="7.01062">
        <ele>2327</ele>
        <time>2022-08-27T10:57:50Z</time>
      </trkpt>
      <trkpt lat="45.83436" lon="7.01065">
        <ele>2327</ele>
        <time>2022-08-27T10:57:52Z</time>
      </trkpt>
      <trkpt lat="45.83438" lon="7.01069">
        <ele>2327</ele>
        <time>2022-08-27T10:57:54Z</time>
      </trkpt>
      <trkpt lat="45.83438" lon="7.01073">
        <ele>2327</ele>
        <time>2022-08-27T10:57:56Z</time>
      </trkpt>
      <trkpt lat="45.8344" lon="7.01078">
        <ele>2327</ele>
        <time>2022-08-27T10:57:58Z</time>
      </trkpt>
      <trkpt lat="45.8344" lon="7.01079">
        <ele>2327</ele>
        <time>2022-08-27T10:57:59Z</time>
      </trkpt>
      <trkpt lat="45.8344" lon="7.01081">
        <ele>2327</ele>
        <time>2022-08-27T10:58:00Z</time>
      </trkpt>
      <trkpt lat="45.8344" lon="7.01082">
        <ele>2327</ele>
        <time>2022-08-27T10:58:01Z</time>
      </trkpt>
      <trkpt lat="45.8344" lon="7.01083">
        <ele>2327</ele>
        <time>2022-08-27T10:58:02Z</time>
      </trkpt>
      <trkpt lat="45.8344" lon="7.01085">
        <ele>2327</ele>
        <time>2022-08-27T10:58:03Z</time>
      </trkpt>
      <trkpt lat="45.83441" lon="7.01089">
        <ele>2327</ele>
        <time>2022-08-27T10:58:04Z</time>
      </trkpt>
      <trkpt lat="45.83442" lon="7.01091">
        <ele>2327</ele>
        <time>2022-08-27T10:58:05Z</time>
      </trkpt>
      <trkpt lat="45.83442" lon="7.01093">
        <ele>2327</ele>
        <time>2022-08-27T10:58:06Z</time>
      </trkpt>
      <trkpt lat="45.83442" lon="7.01096">
        <ele>2327</ele>
        <time>2022-08-27T10:58:08Z</time>
      </trkpt>
      <trkpt lat="45.83442" lon="7.01098">
        <ele>2327</ele>
        <time>2022-08-27T10:58:09Z</time>
      </trkpt>
      <trkpt lat="45.83443" lon="7.011">
        <ele>2327</ele>
        <time>2022-08-27T10:58:10Z</time>
      </trkpt>
      <trkpt lat="45.83443" lon="7.01103">
        <ele>2327</ele>
        <time>2022-08-27T10:58:11Z</time>
      </trkpt>
      <trkpt lat="45.83443" lon="7.01108">
        <ele>2327</ele>
        <time>2022-08-27T10:58:14Z</time>
      </trkpt>
      <trkpt lat="45.83444" lon="7.01111">
        <ele>2327</ele>
        <time>2022-08-27T10:58:16Z</time>
      </trkpt>
      <trkpt lat="45.83444" lon="7.01115">
        <ele>2327</ele>
        <time>2022-08-27T10:58:18Z</time>
      </trkpt>
      <trkpt lat="45.83445" lon="7.01119">
        <ele>2328</ele>
        <time>2022-08-27T10:58:20Z</time>
      </trkpt>
      <trkpt lat="45.83444" lon="7.01122">
        <ele>2328</ele>
        <time>2022-08-27T10:58:22Z</time>
      </trkpt>
      <trkpt lat="45.83442" lon="7.01125">
        <ele>2328</ele>
        <time>2022-08-27T10:58:24Z</time>
      </trkpt>
      <trkpt lat="45.83441" lon="7.01127">
        <ele>2329</ele>
        <time>2022-08-27T10:58:27Z</time>
      </trkpt>
      <trkpt lat="45.83441" lon="7.0113">
        <ele>2329</ele>
        <time>2022-08-27T10:58:29Z</time>
      </trkpt>
      <trkpt lat="45.83441" lon="7.01134">
        <ele>2329</ele>
        <time>2022-08-27T10:58:31Z</time>
      </trkpt>
      <trkpt lat="45.8344" lon="7.01138">
        <ele>2329</ele>
        <time>2022-08-27T10:58:33Z</time>
      </trkpt>
      <trkpt lat="45.83439" lon="7.01142">
        <ele>2329</ele>
        <time>2022-08-27T10:58:35Z</time>
      </trkpt>
      <trkpt lat="45.83439" lon="7.01146">
        <ele>2329</ele>
        <time>2022-08-27T10:58:37Z</time>
      </trkpt>
      <trkpt lat="45.83439" lon="7.01151">
        <ele>2329</ele>
        <time>2022-08-27T10:58:39Z</time>
      </trkpt>
      <trkpt lat="45.83439" lon="7.01155">
        <ele>2329</ele>
        <time>2022-08-27T10:58:41Z</time>
      </trkpt>
      <trkpt lat="45.83439" lon="7.01159">
        <ele>2328</ele>
        <time>2022-08-27T10:58:43Z</time>
      </trkpt>
      <trkpt lat="45.83438" lon="7.01163">
        <ele>2327</ele>
        <time>2022-08-27T10:58:45Z</time>
      </trkpt>
      <trkpt lat="45.83438" lon="7.01167">
        <ele>2327</ele>
        <time>2022-08-27T10:58:47Z</time>
      </trkpt>
      <trkpt lat="45.83436" lon="7.0117">
        <ele>2327</ele>
        <time>2022-08-27T10:58:49Z</time>
      </trkpt>
      <trkpt lat="45.83435" lon="7.01172">
        <ele>2328</ele>
        <time>2022-08-27T10:58:52Z</time>
      </trkpt>
      <trkpt lat="45.83434" lon="7.01175">
        <ele>2328</ele>
        <time>2022-08-27T10:58:56Z</time>
      </trkpt>
      <trkpt lat="45.83433" lon="7.01177">
        <ele>2328</ele>
        <time>2022-08-27T10:58:59Z</time>
      </trkpt>
      <trkpt lat="45.83433" lon="7.01177">
        <ele>2329</ele>
        <time>2022-08-27T10:59:13Z</time>
      </trkpt>
      <trkpt lat="45.83431" lon="7.01179">
        <ele>2329</ele>
        <time>2022-08-27T10:59:14Z</time>
      </trkpt>
      <trkpt lat="45.83432" lon="7.01179">
        <ele>2329</ele>
        <time>2022-08-27T10:59:16Z</time>
      </trkpt>
      <trkpt lat="45.83432" lon="7.01178">
        <ele>2330</ele>
        <time>2022-08-27T10:59:18Z</time>
      </trkpt>
      <trkpt lat="45.83432" lon="7.01178">
        <ele>2330</ele>
        <time>2022-08-27T10:59:19Z</time>
      </trkpt>
      <trkpt lat="45.83432" lon="7.01178">
        <ele>2330</ele>
        <time>2022-08-27T10:59:20Z</time>
      </trkpt>
      <trkpt lat="45.83433" lon="7.01178">
        <ele>2330</ele>
        <time>2022-08-27T10:59:21Z</time>
      </trkpt>
      <trkpt lat="45.83433" lon="7.01178">
        <ele>2330</ele>
        <time>2022-08-27T10:59:22Z</time>
      </trkpt>
      <trkpt lat="45.83433" lon="7.01178">
        <ele>2330</ele>
        <time>2022-08-27T10:59:23Z</time>
      </trkpt>
      <trkpt lat="45.83434" lon="7.01178">
        <ele>2330</ele>
        <time>2022-08-27T10:59:24Z</time>
      </trkpt>
      <trkpt lat="45.83434" lon="7.01177">
        <ele>2330</ele>
        <time>2022-08-27T10:59:25Z</time>
      </trkpt>
      <trkpt lat="45.83434" lon="7.01177">
        <ele>2330</ele>
        <time>2022-08-27T10:59:26Z</time>
      </trkpt>
      <trkpt lat="45.83435" lon="7.01177">
        <ele>2330</ele>
        <time>2022-08-27T10:59:27Z</time>
      </trkpt>
      <trkpt lat="45.83435" lon="7.01177">
        <ele>2330</ele>
        <time>2022-08-27T10:59:29Z</time>
      </trkpt>
      <trkpt lat="45.83435" lon="7.01177">
        <ele>2330</ele>
        <time>2022-08-27T10:59:30Z</time>
      </trkpt>
      <trkpt lat="45.83436" lon="7.01177">
        <ele>2330</ele>
        <time>2022-08-27T10:59:31Z</time>
      </trkpt>
      <trkpt lat="45.83436" lon="7.01177">
        <ele>2330</ele>
        <time>2022-08-27T10:59:32Z</time>
      </trkpt>
      <trkpt lat="45.83436" lon="7.01176">
        <ele>2330</ele>
        <time>2022-08-27T10:59:33Z</time>
      </trkpt>
      <trkpt lat="45.83436" lon="7.01176">
        <ele>2330</ele>
        <time>2022-08-27T10:59:35Z</time>
      </trkpt>
      <trkpt lat="45.83437" lon="7.01176">
        <ele>2331</ele>
        <time>2022-08-27T10:59:37Z</time>
      </trkpt>
      <trkpt lat="45.83437" lon="7.01176">
        <ele>2331</ele>
        <time>2022-08-27T10:59:38Z</time>
      </trkpt>
      <trkpt lat="45.83437" lon="7.01176">
        <ele>2331</ele>
        <time>2022-08-27T10:59:39Z</time>
      </trkpt>
      <trkpt lat="45.83438" lon="7.01176">
        <ele>2331</ele>
        <time>2022-08-27T10:59:40Z</time>
      </trkpt>
      <trkpt lat="45.83438" lon="7.01176">
        <ele>2331</ele>
        <time>2022-08-27T10:59:42Z</time>
      </trkpt>
      <trkpt lat="45.83438" lon="7.01176">
        <ele>2332</ele>
        <time>2022-08-27T10:59:43Z</time>
      </trkpt>
      <trkpt lat="45.83439" lon="7.01175">
        <ele>2332</ele>
        <time>2022-08-27T10:59:44Z</time>
      </trkpt>
      <trkpt lat="45.83439" lon="7.01175">
        <ele>2333</ele>
        <time>2022-08-27T10:59:45Z</time>
      </trkpt>
      <trkpt lat="45.83439" lon="7.01175">
        <ele>2333</ele>
        <time>2022-08-27T10:59:47Z</time>
      </trkpt>
      <trkpt lat="45.8344" lon="7.01175">
        <ele>2333</ele>
        <time>2022-08-27T10:59:48Z</time>
      </trkpt>
      <trkpt lat="45.8344" lon="7.01175">
        <ele>2333</ele>
        <time>2022-08-27T10:59:49Z</time>
      </trkpt>
      <trkpt lat="45.8344" lon="7.01175">
        <ele>2333</ele>
        <time>2022-08-27T10:59:51Z</time>
      </trkpt>
      <trkpt lat="45.8344" lon="7.01175">
        <ele>2333</ele>
        <time>2022-08-27T10:59:52Z</time>
      </trkpt>
      <trkpt lat="45.83441" lon="7.01174">
        <ele>2333</ele>
        <time>2022-08-27T10:59:53Z</time>
      </trkpt>
      <trkpt lat="45.83444" lon="7.01176">
        <ele>2333</ele>
        <time>2022-08-27T10:59:54Z</time>
      </trkpt>
      <trkpt lat="45.83446" lon="7.01179">
        <ele>2333</ele>
        <time>2022-08-27T10:59:55Z</time>
      </trkpt>
      <trkpt lat="45.83449" lon="7.01181">
        <ele>2333</ele>
        <time>2022-08-27T10:59:56Z</time>
      </trkpt>
      <trkpt lat="45.83456" lon="7.01189">
        <ele>2334</ele>
        <time>2022-08-27T11:00:01Z</time>
      </trkpt>
      <trkpt lat="45.83458" lon="7.01194">
        <ele>2334</ele>
        <time>2022-08-27T11:00:04Z</time>
      </trkpt>
      <trkpt lat="45.8346" lon="7.01195">
        <ele>2335</ele>
        <time>2022-08-27T11:00:05Z</time>
      </trkpt>
      <trkpt lat="45.83461" lon="7.01197">
        <ele>2335</ele>
        <time>2022-08-27T11:00:06Z</time>
      </trkpt>
      <trkpt lat="45.83463" lon="7.01198">
        <ele>2335</ele>
        <time>2022-08-27T11:00:07Z</time>
      </trkpt>
      <trkpt lat="45.83465" lon="7.012">
        <ele>2335</ele>
        <time>2022-08-27T11:00:09Z</time>
      </trkpt>
      <trkpt lat="45.83467" lon="7.01203">
        <ele>2335</ele>
        <time>2022-08-27T11:00:11Z</time>
      </trkpt>
      <trkpt lat="45.83469" lon="7.01206">
        <ele>2335</ele>
        <time>2022-08-27T11:00:13Z</time>
      </trkpt>
      <trkpt lat="45.83471" lon="7.01209">
        <ele>2335</ele>
        <time>2022-08-27T11:00:15Z</time>
      </trkpt>
      <trkpt lat="45.83474" lon="7.01212">
        <ele>2335</ele>
        <time>2022-08-27T11:00:17Z</time>
      </trkpt>
      <trkpt lat="45.83476" lon="7.01216">
        <ele>2335</ele>
        <time>2022-08-27T11:00:19Z</time>
      </trkpt>
      <trkpt lat="45.83477" lon="7.0122">
        <ele>2335</ele>
        <time>2022-08-27T11:00:21Z</time>
      </trkpt>
      <trkpt lat="45.83479" lon="7.01223">
        <ele>2335</ele>
        <time>2022-08-27T11:00:23Z</time>
      </trkpt>
      <trkpt lat="45.83482" lon="7.01226">
        <ele>2335</ele>
        <time>2022-08-27T11:00:25Z</time>
      </trkpt>
      <trkpt lat="45.83483" lon="7.01229">
        <ele>2335</ele>
        <time>2022-08-27T11:00:27Z</time>
      </trkpt>
      <trkpt lat="45.83485" lon="7.01233">
        <ele>2335</ele>
        <time>2022-08-27T11:00:29Z</time>
      </trkpt>
      <trkpt lat="45.83486" lon="7.01235">
        <ele>2335</ele>
        <time>2022-08-27T11:00:31Z</time>
      </trkpt>
      <trkpt lat="45.83486" lon="7.01236">
        <ele>2335</ele>
        <time>2022-08-27T11:00:32Z</time>
      </trkpt>
      <trkpt lat="45.83487" lon="7.01238">
        <ele>2335</ele>
        <time>2022-08-27T11:00:33Z</time>
      </trkpt>
      <trkpt lat="45.83488" lon="7.0124">
        <ele>2335</ele>
        <time>2022-08-27T11:00:34Z</time>
      </trkpt>
      <trkpt lat="45.83489" lon="7.01242">
        <ele>2335</ele>
        <time>2022-08-27T11:00:35Z</time>
      </trkpt>
      <trkpt lat="45.83491" lon="7.01245">
        <ele>2335</ele>
        <time>2022-08-27T11:00:36Z</time>
      </trkpt>
      <trkpt lat="45.83492" lon="7.01249">
        <ele>2335</ele>
        <time>2022-08-27T11:00:38Z</time>
      </trkpt>
      <trkpt lat="45.83493" lon="7.01251">
        <ele>2335</ele>
        <time>2022-08-27T11:00:39Z</time>
      </trkpt>
      <trkpt lat="45.83495" lon="7.01254">
        <ele>2335</ele>
        <time>2022-08-27T11:00:41Z</time>
      </trkpt>
      <trkpt lat="45.83496" lon="7.01257">
        <ele>2336</ele>
        <time>2022-08-27T11:00:43Z</time>
      </trkpt>
      <trkpt lat="45.83496" lon="7.0126">
        <ele>2336</ele>
        <time>2022-08-27T11:00:45Z</time>
      </trkpt>
      <trkpt lat="45.83497" lon="7.01262">
        <ele>2335</ele>
        <time>2022-08-27T11:00:47Z</time>
      </trkpt>
      <trkpt lat="45.835" lon="7.01266">
        <ele>2335</ele>
        <time>2022-08-27T11:00:49Z</time>
      </trkpt>
      <trkpt lat="45.83501" lon="7.0127">
        <ele>2335</ele>
        <time>2022-08-27T11:00:51Z</time>
      </trkpt>
      <trkpt lat="45.83502" lon="7.01274">
        <ele>2335</ele>
        <time>2022-08-27T11:00:53Z</time>
      </trkpt>
      <trkpt lat="45.83503" lon="7.01278">
        <ele>2335</ele>
        <time>2022-08-27T11:00:55Z</time>
      </trkpt>
      <trkpt lat="45.83504" lon="7.01282">
        <ele>2335</ele>
        <time>2022-08-27T11:00:57Z</time>
      </trkpt>
      <trkpt lat="45.83507" lon="7.01294">
        <ele>2335</ele>
        <time>2022-08-27T11:01:04Z</time>
      </trkpt>
      <trkpt lat="45.83506" lon="7.01297">
        <ele>2335</ele>
        <time>2022-08-27T11:01:07Z</time>
      </trkpt>
      <trkpt lat="45.83507" lon="7.013">
        <ele>2336</ele>
        <time>2022-08-27T11:01:09Z</time>
      </trkpt>
      <trkpt lat="45.83508" lon="7.01304">
        <ele>2336</ele>
        <time>2022-08-27T11:01:12Z</time>
      </trkpt>
      <trkpt lat="45.83509" lon="7.01307">
        <ele>2336</ele>
        <time>2022-08-27T11:01:14Z</time>
      </trkpt>
      <trkpt lat="45.8351" lon="7.0131">
        <ele>2336</ele>
        <time>2022-08-27T11:01:16Z</time>
      </trkpt>
      <trkpt lat="45.83511" lon="7.01314">
        <ele>2336</ele>
        <time>2022-08-27T11:01:18Z</time>
      </trkpt>
      <trkpt lat="45.83512" lon="7.01317">
        <ele>2336</ele>
        <time>2022-08-27T11:01:20Z</time>
      </trkpt>
      <trkpt lat="45.83513" lon="7.0132">
        <ele>2336</ele>
        <time>2022-08-27T11:01:21Z</time>
      </trkpt>
      <trkpt lat="45.83514" lon="7.01323">
        <ele>2337</ele>
        <time>2022-08-27T11:01:23Z</time>
      </trkpt>
      <trkpt lat="45.83515" lon="7.01326">
        <ele>2337</ele>
        <time>2022-08-27T11:01:25Z</time>
      </trkpt>
      <trkpt lat="45.83516" lon="7.01329">
        <ele>2337</ele>
        <time>2022-08-27T11:01:27Z</time>
      </trkpt>
      <trkpt lat="45.83516" lon="7.01332">
        <ele>2337</ele>
        <time>2022-08-27T11:01:29Z</time>
      </trkpt>
      <trkpt lat="45.83517" lon="7.01336">
        <ele>2337</ele>
        <time>2022-08-27T11:01:31Z</time>
      </trkpt>
      <trkpt lat="45.83517" lon="7.0134">
        <ele>2337</ele>
        <time>2022-08-27T11:01:33Z</time>
      </trkpt>
      <trkpt lat="45.83518" lon="7.01343">
        <ele>2337</ele>
        <time>2022-08-27T11:01:35Z</time>
      </trkpt>
      <trkpt lat="45.8352" lon="7.01347">
        <ele>2337</ele>
        <time>2022-08-27T11:01:37Z</time>
      </trkpt>
      <trkpt lat="45.83522" lon="7.01352">
        <ele>2337</ele>
        <time>2022-08-27T11:01:39Z</time>
      </trkpt>
      <trkpt lat="45.83523" lon="7.01354">
        <ele>2337</ele>
        <time>2022-08-27T11:01:40Z</time>
      </trkpt>
      <trkpt lat="45.83524" lon="7.01356">
        <ele>2337</ele>
        <time>2022-08-27T11:01:41Z</time>
      </trkpt>
      <trkpt lat="45.83524" lon="7.0136">
        <ele>2337</ele>
        <time>2022-08-27T11:01:43Z</time>
      </trkpt>
      <trkpt lat="45.83525" lon="7.01365">
        <ele>2337</ele>
        <time>2022-08-27T11:01:45Z</time>
      </trkpt>
      <trkpt lat="45.83526" lon="7.01369">
        <ele>2338</ele>
        <time>2022-08-27T11:01:47Z</time>
      </trkpt>
      <trkpt lat="45.83527" lon="7.01373">
        <ele>2338</ele>
        <time>2022-08-27T11:01:49Z</time>
      </trkpt>
      <trkpt lat="45.83529" lon="7.01377">
        <ele>2338</ele>
        <time>2022-08-27T11:01:51Z</time>
      </trkpt>
      <trkpt lat="45.83529" lon="7.01379">
        <ele>2338</ele>
        <time>2022-08-27T11:01:53Z</time>
      </trkpt>
      <trkpt lat="45.8353" lon="7.01383">
        <ele>2338</ele>
        <time>2022-08-27T11:01:55Z</time>
      </trkpt>
      <trkpt lat="45.83531" lon="7.01386">
        <ele>2338</ele>
        <time>2022-08-27T11:01:57Z</time>
      </trkpt>
      <trkpt lat="45.83532" lon="7.01391">
        <ele>2338</ele>
        <time>2022-08-27T11:01:59Z</time>
      </trkpt>
      <trkpt lat="45.83533" lon="7.01395">
        <ele>2337</ele>
        <time>2022-08-27T11:02:01Z</time>
      </trkpt>
      <trkpt lat="45.83533" lon="7.01397">
        <ele>2337</ele>
        <time>2022-08-27T11:02:02Z</time>
      </trkpt>
      <trkpt lat="45.83533" lon="7.01399">
        <ele>2337</ele>
        <time>2022-08-27T11:02:05Z</time>
      </trkpt>
      <trkpt lat="45.83533" lon="7.014">
        <ele>2337</ele>
        <time>2022-08-27T11:02:06Z</time>
      </trkpt>
      <trkpt lat="45.83533" lon="7.01402">
        <ele>2337</ele>
        <time>2022-08-27T11:02:07Z</time>
      </trkpt>
      <trkpt lat="45.83533" lon="7.01403">
        <ele>2337</ele>
        <time>2022-08-27T11:02:08Z</time>
      </trkpt>
      <trkpt lat="45.83534" lon="7.01404">
        <ele>2337</ele>
        <time>2022-08-27T11:02:09Z</time>
      </trkpt>
      <trkpt lat="45.83534" lon="7.01406">
        <ele>2337</ele>
        <time>2022-08-27T11:02:10Z</time>
      </trkpt>
      <trkpt lat="45.83534" lon="7.01409">
        <ele>2338</ele>
        <time>2022-08-27T11:02:12Z</time>
      </trkpt>
      <trkpt lat="45.83537" lon="7.01414">
        <ele>2340</ele>
        <time>2022-08-27T11:02:19Z</time>
      </trkpt>
      <trkpt lat="45.83539" lon="7.01417">
        <ele>2341</ele>
        <time>2022-08-27T11:02:23Z</time>
      </trkpt>
      <trkpt lat="45.8354" lon="7.01418">
        <ele>2341</ele>
        <time>2022-08-27T11:02:25Z</time>
      </trkpt>
      <trkpt lat="45.83543" lon="7.01419">
        <ele>2341</ele>
        <time>2022-08-27T11:02:27Z</time>
      </trkpt>
      <trkpt lat="45.83546" lon="7.01422">
        <ele>2341</ele>
        <time>2022-08-27T11:02:30Z</time>
      </trkpt>
      <trkpt lat="45.83549" lon="7.01425">
        <ele>2341</ele>
        <time>2022-08-27T11:02:32Z</time>
      </trkpt>
      <trkpt lat="45.83551" lon="7.01428">
        <ele>2341</ele>
        <time>2022-08-27T11:02:34Z</time>
      </trkpt>
      <trkpt lat="45.83552" lon="7.01431">
        <ele>2341</ele>
        <time>2022-08-27T11:02:36Z</time>
      </trkpt>
      <trkpt lat="45.83553" lon="7.01433">
        <ele>2341</ele>
        <time>2022-08-27T11:02:37Z</time>
      </trkpt>
      <trkpt lat="45.83555" lon="7.01439">
        <ele>2341</ele>
        <time>2022-08-27T11:02:39Z</time>
      </trkpt>
      <trkpt lat="45.83556" lon="7.01441">
        <ele>2341</ele>
        <time>2022-08-27T11:02:41Z</time>
      </trkpt>
      <trkpt lat="45.83557" lon="7.01442">
        <ele>2341</ele>
        <time>2022-08-27T11:02:42Z</time>
      </trkpt>
      <trkpt lat="45.83558" lon="7.01444">
        <ele>2341</ele>
        <time>2022-08-27T11:02:43Z</time>
      </trkpt>
      <trkpt lat="45.83559" lon="7.01446">
        <ele>2341</ele>
        <time>2022-08-27T11:02:44Z</time>
      </trkpt>
      <trkpt lat="45.8356" lon="7.01448">
        <ele>2341</ele>
        <time>2022-08-27T11:02:46Z</time>
      </trkpt>
      <trkpt lat="45.83561" lon="7.0145">
        <ele>2341</ele>
        <time>2022-08-27T11:02:47Z</time>
      </trkpt>
      <trkpt lat="45.83562" lon="7.01451">
        <ele>2341</ele>
        <time>2022-08-27T11:02:48Z</time>
      </trkpt>
      <trkpt lat="45.83562" lon="7.01453">
        <ele>2341</ele>
        <time>2022-08-27T11:02:49Z</time>
      </trkpt>
      <trkpt lat="45.83563" lon="7.01455">
        <ele>2341</ele>
        <time>2022-08-27T11:02:51Z</time>
      </trkpt>
      <trkpt lat="45.83564" lon="7.01456">
        <ele>2341</ele>
        <time>2022-08-27T11:02:52Z</time>
      </trkpt>
      <trkpt lat="45.83565" lon="7.01458">
        <ele>2341</ele>
        <time>2022-08-27T11:02:53Z</time>
      </trkpt>
      <trkpt lat="45.83566" lon="7.01459">
        <ele>2341</ele>
        <time>2022-08-27T11:02:54Z</time>
      </trkpt>
      <trkpt lat="45.83566" lon="7.01461">
        <ele>2341</ele>
        <time>2022-08-27T11:02:55Z</time>
      </trkpt>
      <trkpt lat="45.83567" lon="7.01462">
        <ele>2341</ele>
        <time>2022-08-27T11:02:56Z</time>
      </trkpt>
      <trkpt lat="45.83572" lon="7.01476">
        <ele>2341</ele>
        <time>2022-08-27T11:03:02Z</time>
      </trkpt>
      <trkpt lat="45.83573" lon="7.01477">
        <ele>2341</ele>
        <time>2022-08-27T11:03:03Z</time>
      </trkpt>
      <trkpt lat="45.83574" lon="7.01479">
        <ele>2342</ele>
        <time>2022-08-27T11:03:04Z</time>
      </trkpt>
      <trkpt lat="45.83575" lon="7.01481">
        <ele>2342</ele>
        <time>2022-08-27T11:03:05Z</time>
      </trkpt>
      <trkpt lat="45.83576" lon="7.01483">
        <ele>2342</ele>
        <time>2022-08-27T11:03:07Z</time>
      </trkpt>
      <trkpt lat="45.83577" lon="7.01484">
        <ele>2342</ele>
        <time>2022-08-27T11:03:08Z</time>
      </trkpt>
      <trkpt lat="45.83578" lon="7.01486">
        <ele>2342</ele>
        <time>2022-08-27T11:03:09Z</time>
      </trkpt>
      <trkpt lat="45.83579" lon="7.01488">
        <ele>2342</ele>
        <time>2022-08-27T11:03:10Z</time>
      </trkpt>
      <trkpt lat="45.83579" lon="7.0149">
        <ele>2342</ele>
        <time>2022-08-27T11:03:12Z</time>
      </trkpt>
      <trkpt lat="45.8358" lon="7.01491">
        <ele>2342</ele>
        <time>2022-08-27T11:03:13Z</time>
      </trkpt>
      <trkpt lat="45.8358" lon="7.01493">
        <ele>2342</ele>
        <time>2022-08-27T11:03:14Z</time>
      </trkpt>
      <trkpt lat="45.83581" lon="7.01495">
        <ele>2342</ele>
        <time>2022-08-27T11:03:15Z</time>
      </trkpt>
      <trkpt lat="45.83581" lon="7.01497">
        <ele>2342</ele>
        <time>2022-08-27T11:03:16Z</time>
      </trkpt>
      <trkpt lat="45.83582" lon="7.01498">
        <ele>2342</ele>
        <time>2022-08-27T11:03:17Z</time>
      </trkpt>
      <trkpt lat="45.83583" lon="7.015">
        <ele>2342</ele>
        <time>2022-08-27T11:03:19Z</time>
      </trkpt>
      <trkpt lat="45.83584" lon="7.01502">
        <ele>2342</ele>
        <time>2022-08-27T11:03:20Z</time>
      </trkpt>
      <trkpt lat="45.83585" lon="7.01504">
        <ele>2342</ele>
        <time>2022-08-27T11:03:22Z</time>
      </trkpt>
      <trkpt lat="45.83586" lon="7.01506">
        <ele>2342</ele>
        <time>2022-08-27T11:03:23Z</time>
      </trkpt>
      <trkpt lat="45.83587" lon="7.01508">
        <ele>2340</ele>
        <time>2022-08-27T11:03:24Z</time>
      </trkpt>
      <trkpt lat="45.83588" lon="7.0151">
        <ele>2340</ele>
        <time>2022-08-27T11:03:25Z</time>
      </trkpt>
      <trkpt lat="45.83589" lon="7.01512">
        <ele>2340</ele>
        <time>2022-08-27T11:03:26Z</time>
      </trkpt>
      <trkpt lat="45.83589" lon="7.01513">
        <ele>2340</ele>
        <time>2022-08-27T11:03:27Z</time>
      </trkpt>
      <trkpt lat="45.8359" lon="7.01515">
        <ele>2341</ele>
        <time>2022-08-27T11:03:29Z</time>
      </trkpt>
      <trkpt lat="45.83591" lon="7.01517">
        <ele>2341</ele>
        <time>2022-08-27T11:03:30Z</time>
      </trkpt>
      <trkpt lat="45.83591" lon="7.01518">
        <ele>2341</ele>
        <time>2022-08-27T11:03:31Z</time>
      </trkpt>
      <trkpt lat="45.83592" lon="7.0152">
        <ele>2341</ele>
        <time>2022-08-27T11:03:32Z</time>
      </trkpt>
      <trkpt lat="45.83592" lon="7.01521">
        <ele>2341</ele>
        <time>2022-08-27T11:03:33Z</time>
      </trkpt>
      <trkpt lat="45.83593" lon="7.01523">
        <ele>2342</ele>
        <time>2022-08-27T11:03:34Z</time>
      </trkpt>
      <trkpt lat="45.83594" lon="7.01524">
        <ele>2342</ele>
        <time>2022-08-27T11:03:36Z</time>
      </trkpt>
      <trkpt lat="45.83594" lon="7.01525">
        <ele>2342</ele>
        <time>2022-08-27T11:03:37Z</time>
      </trkpt>
      <trkpt lat="45.83595" lon="7.01527">
        <ele>2342</ele>
        <time>2022-08-27T11:03:38Z</time>
      </trkpt>
      <trkpt lat="45.83595" lon="7.01528">
        <ele>2343</ele>
        <time>2022-08-27T11:03:40Z</time>
      </trkpt>
      <trkpt lat="45.83596" lon="7.01529">
        <ele>2343</ele>
        <time>2022-08-27T11:03:41Z</time>
      </trkpt>
      <trkpt lat="45.83597" lon="7.01531">
        <ele>2343</ele>
        <time>2022-08-27T11:03:42Z</time>
      </trkpt>
      <trkpt lat="45.83597" lon="7.01532">
        <ele>2343</ele>
        <time>2022-08-27T11:03:43Z</time>
      </trkpt>
      <trkpt lat="45.83603" lon="7.01544">
        <ele>2344</ele>
        <time>2022-08-27T11:03:51Z</time>
      </trkpt>
      <trkpt lat="45.83604" lon="7.01546">
        <ele>2344</ele>
        <time>2022-08-27T11:03:52Z</time>
      </trkpt>
      <trkpt lat="45.83604" lon="7.01548">
        <ele>2344</ele>
        <time>2022-08-27T11:03:53Z</time>
      </trkpt>
      <trkpt lat="45.83605" lon="7.01549">
        <ele>2344</ele>
        <time>2022-08-27T11:03:55Z</time>
      </trkpt>
      <trkpt lat="45.83605" lon="7.01551">
        <ele>2344</ele>
        <time>2022-08-27T11:03:56Z</time>
      </trkpt>
      <trkpt lat="45.83606" lon="7.01553">
        <ele>2344</ele>
        <time>2022-08-27T11:03:57Z</time>
      </trkpt>
      <trkpt lat="45.83606" lon="7.01555">
        <ele>2344</ele>
        <time>2022-08-27T11:03:59Z</time>
      </trkpt>
      <trkpt lat="45.83607" lon="7.01557">
        <ele>2345</ele>
        <time>2022-08-27T11:04:00Z</time>
      </trkpt>
      <trkpt lat="45.83607" lon="7.01558">
        <ele>2345</ele>
        <time>2022-08-27T11:04:01Z</time>
      </trkpt>
      <trkpt lat="45.83608" lon="7.0156">
        <ele>2345</ele>
        <time>2022-08-27T11:04:02Z</time>
      </trkpt>
      <trkpt lat="45.83608" lon="7.01561">
        <ele>2345</ele>
        <time>2022-08-27T11:04:04Z</time>
      </trkpt>
      <trkpt lat="45.83609" lon="7.01563">
        <ele>2345</ele>
        <time>2022-08-27T11:04:05Z</time>
      </trkpt>
      <trkpt lat="45.83609" lon="7.01564">
        <ele>2345</ele>
        <time>2022-08-27T11:04:06Z</time>
      </trkpt>
      <trkpt lat="45.83609" lon="7.01566">
        <ele>2345</ele>
        <time>2022-08-27T11:04:07Z</time>
      </trkpt>
      <trkpt lat="45.8361" lon="7.01567">
        <ele>2346</ele>
        <time>2022-08-27T11:04:09Z</time>
      </trkpt>
      <trkpt lat="45.8361" lon="7.01569">
        <ele>2347</ele>
        <time>2022-08-27T11:04:10Z</time>
      </trkpt>
      <trkpt lat="45.83611" lon="7.0157">
        <ele>2347</ele>
        <time>2022-08-27T11:04:11Z</time>
      </trkpt>
      <trkpt lat="45.83611" lon="7.01571">
        <ele>2347</ele>
        <time>2022-08-27T11:04:12Z</time>
      </trkpt>
      <trkpt lat="45.83612" lon="7.01573">
        <ele>2347</ele>
        <time>2022-08-27T11:04:14Z</time>
      </trkpt>
      <trkpt lat="45.83612" lon="7.01574">
        <ele>2347</ele>
        <time>2022-08-27T11:04:16Z</time>
      </trkpt>
      <trkpt lat="45.83613" lon="7.01575">
        <ele>2347</ele>
        <time>2022-08-27T11:04:17Z</time>
      </trkpt>
      <trkpt lat="45.83613" lon="7.01577">
        <ele>2347</ele>
        <time>2022-08-27T11:04:18Z</time>
      </trkpt>
      <trkpt lat="45.83614" lon="7.01578">
        <ele>2347</ele>
        <time>2022-08-27T11:04:19Z</time>
      </trkpt>
      <trkpt lat="45.83614" lon="7.0158">
        <ele>2347</ele>
        <time>2022-08-27T11:04:21Z</time>
      </trkpt>
      <trkpt lat="45.83615" lon="7.01581">
        <ele>2347</ele>
        <time>2022-08-27T11:04:22Z</time>
      </trkpt>
      <trkpt lat="45.83621" lon="7.0159">
        <ele>2346</ele>
        <time>2022-08-27T11:04:27Z</time>
      </trkpt>
      <trkpt lat="45.83623" lon="7.01594">
        <ele>2346</ele>
        <time>2022-08-27T11:04:29Z</time>
      </trkpt>
      <trkpt lat="45.83626" lon="7.01603">
        <ele>2348</ele>
        <time>2022-08-27T11:04:37Z</time>
      </trkpt>
      <trkpt lat="45.83627" lon="7.01604">
        <ele>2348</ele>
        <time>2022-08-27T11:04:38Z</time>
      </trkpt>
      <trkpt lat="45.83628" lon="7.01605">
        <ele>2348</ele>
        <time>2022-08-27T11:04:39Z</time>
      </trkpt>
      <trkpt lat="45.83628" lon="7.01606">
        <ele>2348</ele>
        <time>2022-08-27T11:04:40Z</time>
      </trkpt>
      <trkpt lat="45.83629" lon="7.01608">
        <ele>2348</ele>
        <time>2022-08-27T11:04:42Z</time>
      </trkpt>
      <trkpt lat="45.83629" lon="7.01609">
        <ele>2348</ele>
        <time>2022-08-27T11:04:43Z</time>
      </trkpt>
      <trkpt lat="45.8363" lon="7.0161">
        <ele>2349</ele>
        <time>2022-08-27T11:04:44Z</time>
      </trkpt>
      <trkpt lat="45.8363" lon="7.01611">
        <ele>2349</ele>
        <time>2022-08-27T11:04:45Z</time>
      </trkpt>
      <trkpt lat="45.83631" lon="7.01612">
        <ele>2349</ele>
        <time>2022-08-27T11:04:46Z</time>
      </trkpt>
      <trkpt lat="45.83632" lon="7.01614">
        <ele>2349</ele>
        <time>2022-08-27T11:04:47Z</time>
      </trkpt>
      <trkpt lat="45.83634" lon="7.01621">
        <ele>2352</ele>
        <time>2022-08-27T11:04:54Z</time>
      </trkpt>
      <trkpt lat="45.83636" lon="7.01625">
        <ele>2352</ele>
        <time>2022-08-27T11:04:58Z</time>
      </trkpt>
      <trkpt lat="45.83636" lon="7.01627">
        <ele>2352</ele>
        <time>2022-08-27T11:04:59Z</time>
      </trkpt>
      <trkpt lat="45.83636" lon="7.01628">
        <ele>2352</ele>
        <time>2022-08-27T11:05:01Z</time>
      </trkpt>
      <trkpt lat="45.83636" lon="7.0163">
        <ele>2352</ele>
        <time>2022-08-27T11:05:02Z</time>
      </trkpt>
      <trkpt lat="45.83637" lon="7.01632">
        <ele>2352</ele>
        <time>2022-08-27T11:05:03Z</time>
      </trkpt>
      <trkpt lat="45.83637" lon="7.01633">
        <ele>2353</ele>
        <time>2022-08-27T11:05:04Z</time>
      </trkpt>
      <trkpt lat="45.83637" lon="7.01635">
        <ele>2353</ele>
        <time>2022-08-27T11:05:06Z</time>
      </trkpt>
      <trkpt lat="45.83638" lon="7.01637">
        <ele>2353</ele>
        <time>2022-08-27T11:05:07Z</time>
      </trkpt>
      <trkpt lat="45.83638" lon="7.01638">
        <ele>2353</ele>
        <time>2022-08-27T11:05:08Z</time>
      </trkpt>
      <trkpt lat="45.83639" lon="7.0164">
        <ele>2353</ele>
        <time>2022-08-27T11:05:09Z</time>
      </trkpt>
      <trkpt lat="45.83639" lon="7.01642">
        <ele>2353</ele>
        <time>2022-08-27T11:05:11Z</time>
      </trkpt>
      <trkpt lat="45.8364" lon="7.01643">
        <ele>2354</ele>
        <time>2022-08-27T11:05:13Z</time>
      </trkpt>
      <trkpt lat="45.83641" lon="7.01645">
        <ele>2354</ele>
        <time>2022-08-27T11:05:14Z</time>
      </trkpt>
      <trkpt lat="45.83642" lon="7.01647">
        <ele>2354</ele>
        <time>2022-08-27T11:05:15Z</time>
      </trkpt>
      <trkpt lat="45.83642" lon="7.01652">
        <ele>2354</ele>
        <time>2022-08-27T11:05:17Z</time>
      </trkpt>
      <trkpt lat="45.83642" lon="7.01654">
        <ele>2354</ele>
        <time>2022-08-27T11:05:18Z</time>
      </trkpt>
      <trkpt lat="45.83642" lon="7.01657">
        <ele>2354</ele>
        <time>2022-08-27T11:05:20Z</time>
      </trkpt>
      <trkpt lat="45.83642" lon="7.01659">
        <ele>2354</ele>
        <time>2022-08-27T11:05:21Z</time>
      </trkpt>
      <trkpt lat="45.83643" lon="7.01663">
        <ele>2354</ele>
        <time>2022-08-27T11:05:23Z</time>
      </trkpt>
      <trkpt lat="45.83643" lon="7.01667">
        <ele>2354</ele>
        <time>2022-08-27T11:05:25Z</time>
      </trkpt>
      <trkpt lat="45.83643" lon="7.01669">
        <ele>2354</ele>
        <time>2022-08-27T11:05:27Z</time>
      </trkpt>
      <trkpt lat="45.83644" lon="7.01673">
        <ele>2354</ele>
        <time>2022-08-27T11:05:29Z</time>
      </trkpt>
      <trkpt lat="45.83646" lon="7.01676">
        <ele>2355</ele>
        <time>2022-08-27T11:05:31Z</time>
      </trkpt>
      <trkpt lat="45.83646" lon="7.0168">
        <ele>2355</ele>
        <time>2022-08-27T11:05:33Z</time>
      </trkpt>
      <trkpt lat="45.83645" lon="7.01684">
        <ele>2355</ele>
        <time>2022-08-27T11:05:35Z</time>
      </trkpt>
      <trkpt lat="45.83644" lon="7.01687">
        <ele>2355</ele>
        <time>2022-08-27T11:05:36Z</time>
      </trkpt>
      <trkpt lat="45.83643" lon="7.01691">
        <ele>2355</ele>
        <time>2022-08-27T11:05:38Z</time>
      </trkpt>
      <trkpt lat="45.83642" lon="7.01694">
        <ele>2355</ele>
        <time>2022-08-27T11:05:40Z</time>
      </trkpt>
      <trkpt lat="45.83642" lon="7.01698">
        <ele>2355</ele>
        <time>2022-08-27T11:05:42Z</time>
      </trkpt>
      <trkpt lat="45.83642" lon="7.01702">
        <ele>2355</ele>
        <time>2022-08-27T11:05:44Z</time>
      </trkpt>
      <trkpt lat="45.83643" lon="7.01706">
        <ele>2355</ele>
        <time>2022-08-27T11:05:46Z</time>
      </trkpt>
      <trkpt lat="45.83643" lon="7.01709">
        <ele>2355</ele>
        <time>2022-08-27T11:05:48Z</time>
      </trkpt>
      <trkpt lat="45.83645" lon="7.01713">
        <ele>2355</ele>
        <time>2022-08-27T11:05:50Z</time>
      </trkpt>
      <trkpt lat="45.83646" lon="7.01717">
        <ele>2354</ele>
        <time>2022-08-27T11:05:52Z</time>
      </trkpt>
      <trkpt lat="45.83645" lon="7.01721">
        <ele>2354</ele>
        <time>2022-08-27T11:05:54Z</time>
      </trkpt>
      <trkpt lat="45.83643" lon="7.01724">
        <ele>2355</ele>
        <time>2022-08-27T11:05:56Z</time>
      </trkpt>
      <trkpt lat="45.83641" lon="7.01727">
        <ele>2356</ele>
        <time>2022-08-27T11:05:58Z</time>
      </trkpt>
      <trkpt lat="45.83639" lon="7.0173">
        <ele>2356</ele>
        <time>2022-08-27T11:06:00Z</time>
      </trkpt>
      <trkpt lat="45.83638" lon="7.01733">
        <ele>2356</ele>
        <time>2022-08-27T11:06:02Z</time>
      </trkpt>
      <trkpt lat="45.83636" lon="7.01736">
        <ele>2356</ele>
        <time>2022-08-27T11:06:04Z</time>
      </trkpt>
      <trkpt lat="45.83634" lon="7.01738">
        <ele>2356</ele>
        <time>2022-08-27T11:06:06Z</time>
      </trkpt>
      <trkpt lat="45.83631" lon="7.0174">
        <ele>2356</ele>
        <time>2022-08-27T11:06:08Z</time>
      </trkpt>
      <trkpt lat="45.83628" lon="7.01746">
        <ele>2356</ele>
        <time>2022-08-27T11:06:12Z</time>
      </trkpt>
      <trkpt lat="45.83627" lon="7.0175">
        <ele>2357</ele>
        <time>2022-08-27T11:06:14Z</time>
      </trkpt>
      <trkpt lat="45.83627" lon="7.01752">
        <ele>2357</ele>
        <time>2022-08-27T11:06:15Z</time>
      </trkpt>
      <trkpt lat="45.83626" lon="7.01754">
        <ele>2357</ele>
        <time>2022-08-27T11:06:17Z</time>
      </trkpt>
      <trkpt lat="45.83625" lon="7.01755">
        <ele>2357</ele>
        <time>2022-08-27T11:06:18Z</time>
      </trkpt>
      <trkpt lat="45.83624" lon="7.01757">
        <ele>2357</ele>
        <time>2022-08-27T11:06:19Z</time>
      </trkpt>
      <trkpt lat="45.83623" lon="7.01759">
        <ele>2357</ele>
        <time>2022-08-27T11:06:20Z</time>
      </trkpt>
      <trkpt lat="45.83622" lon="7.01762">
        <ele>2357</ele>
        <time>2022-08-27T11:06:22Z</time>
      </trkpt>
      <trkpt lat="45.8362" lon="7.01765">
        <ele>2357</ele>
        <time>2022-08-27T11:06:24Z</time>
      </trkpt>
      <trkpt lat="45.83618" lon="7.01768">
        <ele>2357</ele>
        <time>2022-08-27T11:06:26Z</time>
      </trkpt>
      <trkpt lat="45.83616" lon="7.0177">
        <ele>2357</ele>
        <time>2022-08-27T11:06:28Z</time>
      </trkpt>
      <trkpt lat="45.83614" lon="7.01773">
        <ele>2357</ele>
        <time>2022-08-27T11:06:30Z</time>
      </trkpt>
      <trkpt lat="45.83611" lon="7.01776">
        <ele>2357</ele>
        <time>2022-08-27T11:06:32Z</time>
      </trkpt>
      <trkpt lat="45.83608" lon="7.01778">
        <ele>2357</ele>
        <time>2022-08-27T11:06:34Z</time>
      </trkpt>
      <trkpt lat="45.83606" lon="7.01781">
        <ele>2357</ele>
        <time>2022-08-27T11:06:36Z</time>
      </trkpt>
      <trkpt lat="45.83604" lon="7.01784">
        <ele>2357</ele>
        <time>2022-08-27T11:06:38Z</time>
      </trkpt>
      <trkpt lat="45.83602" lon="7.01788">
        <ele>2357</ele>
        <time>2022-08-27T11:06:40Z</time>
      </trkpt>
      <trkpt lat="45.836" lon="7.01792">
        <ele>2357</ele>
        <time>2022-08-27T11:06:42Z</time>
      </trkpt>
      <trkpt lat="45.836" lon="7.01793">
        <ele>2357</ele>
        <time>2022-08-27T11:06:43Z</time>
      </trkpt>
      <trkpt lat="45.83599" lon="7.01794">
        <ele>2357</ele>
        <time>2022-08-27T11:06:44Z</time>
      </trkpt>
      <trkpt lat="45.83599" lon="7.01795">
        <ele>2357</ele>
        <time>2022-08-27T11:06:45Z</time>
      </trkpt>
      <trkpt lat="45.83598" lon="7.01796">
        <ele>2357</ele>
        <time>2022-08-27T11:06:46Z</time>
      </trkpt>
      <trkpt lat="45.83597" lon="7.018">
        <ele>2357</ele>
        <time>2022-08-27T11:06:47Z</time>
      </trkpt>
      <trkpt lat="45.83596" lon="7.01804">
        <ele>2357</ele>
        <time>2022-08-27T11:06:49Z</time>
      </trkpt>
      <trkpt lat="45.83594" lon="7.01807">
        <ele>2357</ele>
        <time>2022-08-27T11:06:51Z</time>
      </trkpt>
      <trkpt lat="45.83592" lon="7.0181">
        <ele>2357</ele>
        <time>2022-08-27T11:06:53Z</time>
      </trkpt>
      <trkpt lat="45.8359" lon="7.01813">
        <ele>2357</ele>
        <time>2022-08-27T11:06:55Z</time>
      </trkpt>
      <trkpt lat="45.83588" lon="7.01815">
        <ele>2358</ele>
        <time>2022-08-27T11:06:57Z</time>
      </trkpt>
      <trkpt lat="45.83586" lon="7.01819">
        <ele>2358</ele>
        <time>2022-08-27T11:06:59Z</time>
      </trkpt>
      <trkpt lat="45.83585" lon="7.01822">
        <ele>2358</ele>
        <time>2022-08-27T11:07:01Z</time>
      </trkpt>
      <trkpt lat="45.83584" lon="7.01826">
        <ele>2358</ele>
        <time>2022-08-27T11:07:03Z</time>
      </trkpt>
      <trkpt lat="45.83583" lon="7.0183">
        <ele>2358</ele>
        <time>2022-08-27T11:07:05Z</time>
      </trkpt>
      <trkpt lat="45.83582" lon="7.01834">
        <ele>2358</ele>
        <time>2022-08-27T11:07:07Z</time>
      </trkpt>
      <trkpt lat="45.83581" lon="7.01838">
        <ele>2358</ele>
        <time>2022-08-27T11:07:09Z</time>
      </trkpt>
      <trkpt lat="45.8358" lon="7.01841">
        <ele>2358</ele>
        <time>2022-08-27T11:07:11Z</time>
      </trkpt>
      <trkpt lat="45.83579" lon="7.01845">
        <ele>2358</ele>
        <time>2022-08-27T11:07:13Z</time>
      </trkpt>
      <trkpt lat="45.83577" lon="7.01848">
        <ele>2358</ele>
        <time>2022-08-27T11:07:15Z</time>
      </trkpt>
      <trkpt lat="45.83575" lon="7.01851">
        <ele>2358</ele>
        <time>2022-08-27T11:07:17Z</time>
      </trkpt>
      <trkpt lat="45.83575" lon="7.01854">
        <ele>2358</ele>
        <time>2022-08-27T11:07:19Z</time>
      </trkpt>
      <trkpt lat="45.83574" lon="7.01857">
        <ele>2358</ele>
        <time>2022-08-27T11:07:21Z</time>
      </trkpt>
      <trkpt lat="45.83572" lon="7.0186">
        <ele>2358</ele>
        <time>2022-08-27T11:07:23Z</time>
      </trkpt>
      <trkpt lat="45.8357" lon="7.01863">
        <ele>2358</ele>
        <time>2022-08-27T11:07:25Z</time>
      </trkpt>
      <trkpt lat="45.83568" lon="7.01865">
        <ele>2358</ele>
        <time>2022-08-27T11:07:27Z</time>
      </trkpt>
      <trkpt lat="45.83566" lon="7.01866">
        <ele>2358</ele>
        <time>2022-08-27T11:07:29Z</time>
      </trkpt>
      <trkpt lat="45.83563" lon="7.01868">
        <ele>2359</ele>
        <time>2022-08-27T11:07:31Z</time>
      </trkpt>
      <trkpt lat="45.8356" lon="7.0187">
        <ele>2358</ele>
        <time>2022-08-27T11:07:34Z</time>
      </trkpt>
      <trkpt lat="45.83558" lon="7.01872">
        <ele>2358</ele>
        <time>2022-08-27T11:07:36Z</time>
      </trkpt>
      <trkpt lat="45.83557" lon="7.01875">
        <ele>2358</ele>
        <time>2022-08-27T11:07:38Z</time>
      </trkpt>
      <trkpt lat="45.83555" lon="7.01879">
        <ele>2359</ele>
        <time>2022-08-27T11:07:42Z</time>
      </trkpt>
      <trkpt lat="45.83555" lon="7.01882">
        <ele>2359</ele>
        <time>2022-08-27T11:07:44Z</time>
      </trkpt>
      <trkpt lat="45.83555" lon="7.01886">
        <ele>2359</ele>
        <time>2022-08-27T11:07:46Z</time>
      </trkpt>
      <trkpt lat="45.83556" lon="7.01889">
        <ele>2359</ele>
        <time>2022-08-27T11:07:48Z</time>
      </trkpt>
      <trkpt lat="45.83555" lon="7.01892">
        <ele>2359</ele>
        <time>2022-08-27T11:07:50Z</time>
      </trkpt>
      <trkpt lat="45.83554" lon="7.01895">
        <ele>2360</ele>
        <time>2022-08-27T11:07:52Z</time>
      </trkpt>
      <trkpt lat="45.83552" lon="7.01898">
        <ele>2360</ele>
        <time>2022-08-27T11:07:54Z</time>
      </trkpt>
      <trkpt lat="45.83551" lon="7.019">
        <ele>2360</ele>
        <time>2022-08-27T11:07:56Z</time>
      </trkpt>
      <trkpt lat="45.83549" lon="7.01903">
        <ele>2360</ele>
        <time>2022-08-27T11:07:58Z</time>
      </trkpt>
      <trkpt lat="45.83547" lon="7.01905">
        <ele>2361</ele>
        <time>2022-08-27T11:08:00Z</time>
      </trkpt>
      <trkpt lat="45.83545" lon="7.01909">
        <ele>2361</ele>
        <time>2022-08-27T11:08:02Z</time>
      </trkpt>
      <trkpt lat="45.83544" lon="7.01913">
        <ele>2361</ele>
        <time>2022-08-27T11:08:04Z</time>
      </trkpt>
      <trkpt lat="45.83542" lon="7.01916">
        <ele>2361</ele>
        <time>2022-08-27T11:08:06Z</time>
      </trkpt>
      <trkpt lat="45.83541" lon="7.01919">
        <ele>2361</ele>
        <time>2022-08-27T11:08:08Z</time>
      </trkpt>
      <trkpt lat="45.83539" lon="7.01923">
        <ele>2362</ele>
        <time>2022-08-27T11:08:10Z</time>
      </trkpt>
      <trkpt lat="45.83537" lon="7.01926">
        <ele>2362</ele>
        <time>2022-08-27T11:08:12Z</time>
      </trkpt>
      <trkpt lat="45.83535" lon="7.01929">
        <ele>2362</ele>
        <time>2022-08-27T11:08:14Z</time>
      </trkpt>
      <trkpt lat="45.83533" lon="7.01931">
        <ele>2362</ele>
        <time>2022-08-27T11:08:16Z</time>
      </trkpt>
      <trkpt lat="45.83532" lon="7.01934">
        <ele>2362</ele>
        <time>2022-08-27T11:08:18Z</time>
      </trkpt>
      <trkpt lat="45.83533" lon="7.01938">
        <ele>2362</ele>
        <time>2022-08-27T11:08:20Z</time>
      </trkpt>
      <trkpt lat="45.83533" lon="7.01941">
        <ele>2362</ele>
        <time>2022-08-27T11:08:22Z</time>
      </trkpt>
      <trkpt lat="45.83533" lon="7.01947">
        <ele>2362</ele>
        <time>2022-08-27T11:08:25Z</time>
      </trkpt>
      <trkpt lat="45.83532" lon="7.01951">
        <ele>2362</ele>
        <time>2022-08-27T11:08:27Z</time>
      </trkpt>
      <trkpt lat="45.83532" lon="7.01956">
        <ele>2362</ele>
        <time>2022-08-27T11:08:29Z</time>
      </trkpt>
      <trkpt lat="45.83531" lon="7.01959">
        <ele>2362</ele>
        <time>2022-08-27T11:08:31Z</time>
      </trkpt>
      <trkpt lat="45.8353" lon="7.01964">
        <ele>2362</ele>
        <time>2022-08-27T11:08:34Z</time>
      </trkpt>
      <trkpt lat="45.8353" lon="7.01967">
        <ele>2362</ele>
        <time>2022-08-27T11:08:36Z</time>
      </trkpt>
      <trkpt lat="45.83529" lon="7.01969">
        <ele>2362</ele>
        <time>2022-08-27T11:08:37Z</time>
      </trkpt>
      <trkpt lat="45.83528" lon="7.01972">
        <ele>2362</ele>
        <time>2022-08-27T11:08:38Z</time>
      </trkpt>
      <trkpt lat="45.83527" lon="7.01974">
        <ele>2362</ele>
        <time>2022-08-27T11:08:40Z</time>
      </trkpt>
      <trkpt lat="45.83527" lon="7.01976">
        <ele>2362</ele>
        <time>2022-08-27T11:08:42Z</time>
      </trkpt>
      <trkpt lat="45.83526" lon="7.01979">
        <ele>2362</ele>
        <time>2022-08-27T11:08:43Z</time>
      </trkpt>
      <trkpt lat="45.83527" lon="7.0198">
        <ele>2362</ele>
        <time>2022-08-27T11:08:44Z</time>
      </trkpt>
      <trkpt lat="45.83527" lon="7.01982">
        <ele>2362</ele>
        <time>2022-08-27T11:08:45Z</time>
      </trkpt>
      <trkpt lat="45.83528" lon="7.01983">
        <ele>2362</ele>
        <time>2022-08-27T11:08:47Z</time>
      </trkpt>
      <trkpt lat="45.83528" lon="7.01985">
        <ele>2362</ele>
        <time>2022-08-27T11:08:48Z</time>
      </trkpt>
      <trkpt lat="45.83529" lon="7.01986">
        <ele>2363</ele>
        <time>2022-08-27T11:08:49Z</time>
      </trkpt>
      <trkpt lat="45.83529" lon="7.01988">
        <ele>2363</ele>
        <time>2022-08-27T11:08:50Z</time>
      </trkpt>
      <trkpt lat="45.8353" lon="7.01989">
        <ele>2363</ele>
        <time>2022-08-27T11:08:51Z</time>
      </trkpt>
      <trkpt lat="45.83531" lon="7.0199">
        <ele>2363</ele>
        <time>2022-08-27T11:08:52Z</time>
      </trkpt>
      <trkpt lat="45.83532" lon="7.01992">
        <ele>2363</ele>
        <time>2022-08-27T11:08:53Z</time>
      </trkpt>
      <trkpt lat="45.83533" lon="7.01994">
        <ele>2364</ele>
        <time>2022-08-27T11:08:54Z</time>
      </trkpt>
      <trkpt lat="45.83534" lon="7.01996">
        <ele>2364</ele>
        <time>2022-08-27T11:08:55Z</time>
      </trkpt>
      <trkpt lat="45.83535" lon="7.01998">
        <ele>2364</ele>
        <time>2022-08-27T11:08:57Z</time>
      </trkpt>
      <trkpt lat="45.83536" lon="7.02">
        <ele>2364</ele>
        <time>2022-08-27T11:08:58Z</time>
      </trkpt>
      <trkpt lat="45.83536" lon="7.02002">
        <ele>2364</ele>
        <time>2022-08-27T11:08:59Z</time>
      </trkpt>
      <trkpt lat="45.83541" lon="7.02014">
        <ele>2364</ele>
        <time>2022-08-27T11:09:05Z</time>
      </trkpt>
      <trkpt lat="45.83541" lon="7.02016">
        <ele>2364</ele>
        <time>2022-08-27T11:09:06Z</time>
      </trkpt>
      <trkpt lat="45.83541" lon="7.02018">
        <ele>2364</ele>
        <time>2022-08-27T11:09:07Z</time>
      </trkpt>
      <trkpt lat="45.83541" lon="7.02021">
        <ele>2364</ele>
        <time>2022-08-27T11:09:08Z</time>
      </trkpt>
      <trkpt lat="45.83541" lon="7.02023">
        <ele>2364</ele>
        <time>2022-08-27T11:09:10Z</time>
      </trkpt>
      <trkpt lat="45.83541" lon="7.02025">
        <ele>2363</ele>
        <time>2022-08-27T11:09:11Z</time>
      </trkpt>
      <trkpt lat="45.83541" lon="7.02027">
        <ele>2363</ele>
        <time>2022-08-27T11:09:12Z</time>
      </trkpt>
      <trkpt lat="45.8354" lon="7.0203">
        <ele>2363</ele>
        <time>2022-08-27T11:09:13Z</time>
      </trkpt>
      <trkpt lat="45.83538" lon="7.02033">
        <ele>2363</ele>
        <time>2022-08-27T11:09:14Z</time>
      </trkpt>
      <trkpt lat="45.83537" lon="7.02034">
        <ele>2363</ele>
        <time>2022-08-27T11:09:15Z</time>
      </trkpt>
      <trkpt lat="45.83535" lon="7.02038">
        <ele>2363</ele>
        <time>2022-08-27T11:09:17Z</time>
      </trkpt>
      <trkpt lat="45.83534" lon="7.02041">
        <ele>2363</ele>
        <time>2022-08-27T11:09:19Z</time>
      </trkpt>
      <trkpt lat="45.83535" lon="7.02044">
        <ele>2363</ele>
        <time>2022-08-27T11:09:21Z</time>
      </trkpt>
      <trkpt lat="45.83539" lon="7.02056">
        <ele>2363</ele>
        <time>2022-08-27T11:09:27Z</time>
      </trkpt>
      <trkpt lat="45.83538" lon="7.02059">
        <ele>2363</ele>
        <time>2022-08-27T11:09:28Z</time>
      </trkpt>
      <trkpt lat="45.83538" lon="7.02062">
        <ele>2363</ele>
        <time>2022-08-27T11:09:29Z</time>
      </trkpt>
      <trkpt lat="45.83537" lon="7.02065">
        <ele>2363</ele>
        <time>2022-08-27T11:09:30Z</time>
      </trkpt>
      <trkpt lat="45.83537" lon="7.02068">
        <ele>2363</ele>
        <time>2022-08-27T11:09:32Z</time>
      </trkpt>
      <trkpt lat="45.83536" lon="7.02071">
        <ele>2363</ele>
        <time>2022-08-27T11:09:33Z</time>
      </trkpt>
      <trkpt lat="45.83536" lon="7.02074">
        <ele>2363</ele>
        <time>2022-08-27T11:09:34Z</time>
      </trkpt>
      <trkpt lat="45.83536" lon="7.02076">
        <ele>2363</ele>
        <time>2022-08-27T11:09:35Z</time>
      </trkpt>
      <trkpt lat="45.83536" lon="7.02079">
        <ele>2363</ele>
        <time>2022-08-27T11:09:37Z</time>
      </trkpt>
      <trkpt lat="45.83536" lon="7.02082">
        <ele>2363</ele>
        <time>2022-08-27T11:09:38Z</time>
      </trkpt>
      <trkpt lat="45.83536" lon="7.02085">
        <ele>2362</ele>
        <time>2022-08-27T11:09:39Z</time>
      </trkpt>
      <trkpt lat="45.83533" lon="7.02088">
        <ele>2362</ele>
        <time>2022-08-27T11:09:41Z</time>
      </trkpt>
      <trkpt lat="45.83533" lon="7.02091">
        <ele>2362</ele>
        <time>2022-08-27T11:09:43Z</time>
      </trkpt>
      <trkpt lat="45.83533" lon="7.02095">
        <ele>2362</ele>
        <time>2022-08-27T11:09:45Z</time>
      </trkpt>
      <trkpt lat="45.83533" lon="7.02098">
        <ele>2362</ele>
        <time>2022-08-27T11:09:47Z</time>
      </trkpt>
      <trkpt lat="45.83533" lon="7.02101">
        <ele>2362</ele>
        <time>2022-08-27T11:09:50Z</time>
      </trkpt>
      <trkpt lat="45.83533" lon="7.02105">
        <ele>2362</ele>
        <time>2022-08-27T11:09:52Z</time>
      </trkpt>
      <trkpt lat="45.83533" lon="7.0211">
        <ele>2362</ele>
        <time>2022-08-27T11:09:56Z</time>
      </trkpt>
      <trkpt lat="45.83535" lon="7.02107">
        <ele>2362</ele>
        <time>2022-08-27T11:09:59Z</time>
      </trkpt>
      <trkpt lat="45.83536" lon="7.02104">
        <ele>2360</ele>
        <time>2022-08-27T11:10:01Z</time>
      </trkpt>
      <trkpt lat="45.83538" lon="7.02101">
        <ele>2359</ele>
        <time>2022-08-27T11:10:03Z</time>
      </trkpt>
      <trkpt lat="45.8354" lon="7.02101">
        <ele>2358</ele>
        <time>2022-08-27T11:10:05Z</time>
      </trkpt>
      <trkpt lat="45.83543" lon="7.02103">
        <ele>2358</ele>
        <time>2022-08-27T11:10:07Z</time>
      </trkpt>
      <trkpt lat="45.83545" lon="7.02106">
        <ele>2358</ele>
        <time>2022-08-27T11:10:09Z</time>
      </trkpt>
      <trkpt lat="45.83546" lon="7.02103">
        <ele>2356</ele>
        <time>2022-08-27T11:10:15Z</time>
      </trkpt>
      <trkpt lat="45.83547" lon="7.021">
        <ele>2354</ele>
        <time>2022-08-27T11:10:17Z</time>
      </trkpt>
      <trkpt lat="45.83547" lon="7.02097">
        <ele>2354</ele>
        <time>2022-08-27T11:10:19Z</time>
      </trkpt>
      <trkpt lat="45.83548" lon="7.02094">
        <ele>2354</ele>
        <time>2022-08-27T11:10:22Z</time>
      </trkpt>
      <trkpt lat="45.8355" lon="7.02095">
        <ele>2354</ele>
        <time>2022-08-27T11:10:24Z</time>
      </trkpt>
      <trkpt lat="45.83553" lon="7.02096">
        <ele>2354</ele>
        <time>2022-08-27T11:10:26Z</time>
      </trkpt>
      <trkpt lat="45.83555" lon="7.02098">
        <ele>2354</ele>
        <time>2022-08-27T11:10:28Z</time>
      </trkpt>
      <trkpt lat="45.83557" lon="7.02099">
        <ele>2354</ele>
        <time>2022-08-27T11:10:30Z</time>
      </trkpt>
      <trkpt lat="45.83558" lon="7.02096">
        <ele>2354</ele>
        <time>2022-08-27T11:10:34Z</time>
      </trkpt>
      <trkpt lat="45.83558" lon="7.02091">
        <ele>2354</ele>
        <time>2022-08-27T11:10:36Z</time>
      </trkpt>
      <trkpt lat="45.83559" lon="7.02088">
        <ele>2354</ele>
        <time>2022-08-27T11:10:38Z</time>
      </trkpt>
      <trkpt lat="45.83561" lon="7.02085">
        <ele>2354</ele>
        <time>2022-08-27T11:10:40Z</time>
      </trkpt>
      <trkpt lat="45.83563" lon="7.02082">
        <ele>2353</ele>
        <time>2022-08-27T11:10:42Z</time>
      </trkpt>
      <trkpt lat="45.83565" lon="7.0208">
        <ele>2353</ele>
        <time>2022-08-27T11:10:44Z</time>
      </trkpt>
      <trkpt lat="45.83567" lon="7.02078">
        <ele>2354</ele>
        <time>2022-08-27T11:10:46Z</time>
      </trkpt>
      <trkpt lat="45.83568" lon="7.02076">
        <ele>2354</ele>
        <time>2022-08-27T11:10:48Z</time>
      </trkpt>
      <trkpt lat="45.8357" lon="7.02073">
        <ele>2354</ele>
        <time>2022-08-27T11:10:50Z</time>
      </trkpt>
      <trkpt lat="45.83573" lon="7.02071">
        <ele>2354</ele>
        <time>2022-08-27T11:10:52Z</time>
      </trkpt>
      <trkpt lat="45.83575" lon="7.02067">
        <ele>2354</ele>
        <time>2022-08-27T11:10:54Z</time>
      </trkpt>
      <trkpt lat="45.83576" lon="7.02064">
        <ele>2354</ele>
        <time>2022-08-27T11:10:56Z</time>
      </trkpt>
      <trkpt lat="45.83577" lon="7.02061">
        <ele>2354</ele>
        <time>2022-08-27T11:10:59Z</time>
      </trkpt>
      <trkpt lat="45.83578" lon="7.02057">
        <ele>2354</ele>
        <time>2022-08-27T11:11:02Z</time>
      </trkpt>
      <trkpt lat="45.8358" lon="7.02054">
        <ele>2354</ele>
        <time>2022-08-27T11:11:04Z</time>
      </trkpt>
      <trkpt lat="45.83581" lon="7.02052">
        <ele>2354</ele>
        <time>2022-08-27T11:11:06Z</time>
      </trkpt>
      <trkpt lat="45.83582" lon="7.02049">
        <ele>2353</ele>
        <time>2022-08-27T11:11:08Z</time>
      </trkpt>
      <trkpt lat="45.83584" lon="7.02046">
        <ele>2353</ele>
        <time>2022-08-27T11:11:10Z</time>
      </trkpt>
      <trkpt lat="45.83587" lon="7.02043">
        <ele>2353</ele>
        <time>2022-08-27T11:11:12Z</time>
      </trkpt>
      <trkpt lat="45.8359" lon="7.02042">
        <ele>2353</ele>
        <time>2022-08-27T11:11:14Z</time>
      </trkpt>
      <trkpt lat="45.83592" lon="7.02041">
        <ele>2353</ele>
        <time>2022-08-27T11:11:16Z</time>
      </trkpt>
      <trkpt lat="45.83594" lon="7.02042">
        <ele>2353</ele>
        <time>2022-08-27T11:11:18Z</time>
      </trkpt>
      <trkpt lat="45.83596" lon="7.02044">
        <ele>2354</ele>
        <time>2022-08-27T11:11:20Z</time>
      </trkpt>
      <trkpt lat="45.83598" lon="7.02046">
        <ele>2354</ele>
        <time>2022-08-27T11:11:22Z</time>
      </trkpt>
      <trkpt lat="45.83601" lon="7.02047">
        <ele>2354</ele>
        <time>2022-08-27T11:11:24Z</time>
      </trkpt>
      <trkpt lat="45.83603" lon="7.02047">
        <ele>2354</ele>
        <time>2022-08-27T11:11:26Z</time>
      </trkpt>
      <trkpt lat="45.83605" lon="7.02049">
        <ele>2355</ele>
        <time>2022-08-27T11:11:28Z</time>
      </trkpt>
      <trkpt lat="45.83607" lon="7.0205">
        <ele>2355</ele>
        <time>2022-08-27T11:11:30Z</time>
      </trkpt>
      <trkpt lat="45.83609" lon="7.0205">
        <ele>2356</ele>
        <time>2022-08-27T11:11:32Z</time>
      </trkpt>
      <trkpt lat="45.83612" lon="7.0205">
        <ele>2357</ele>
        <time>2022-08-27T11:11:34Z</time>
      </trkpt>
      <trkpt lat="45.83614" lon="7.0205">
        <ele>2357</ele>
        <time>2022-08-27T11:11:36Z</time>
      </trkpt>
      <trkpt lat="45.83617" lon="7.02049">
        <ele>2357</ele>
        <time>2022-08-27T11:11:38Z</time>
      </trkpt>
      <trkpt lat="45.83619" lon="7.02049">
        <ele>2357</ele>
        <time>2022-08-27T11:11:40Z</time>
      </trkpt>
      <trkpt lat="45.83621" lon="7.02049">
        <ele>2357</ele>
        <time>2022-08-27T11:11:42Z</time>
      </trkpt>
      <trkpt lat="45.83623" lon="7.0205">
        <ele>2357</ele>
        <time>2022-08-27T11:11:44Z</time>
      </trkpt>
      <trkpt lat="45.83624" lon="7.02052">
        <ele>2357</ele>
        <time>2022-08-27T11:11:46Z</time>
      </trkpt>
      <trkpt lat="45.83626" lon="7.02053">
        <ele>2358</ele>
        <time>2022-08-27T11:11:48Z</time>
      </trkpt>
      <trkpt lat="45.83628" lon="7.02055">
        <ele>2358</ele>
        <time>2022-08-27T11:11:50Z</time>
      </trkpt>
      <trkpt lat="45.83631" lon="7.02056">
        <ele>2360</ele>
        <time>2022-08-27T11:11:53Z</time>
      </trkpt>
      <trkpt lat="45.83633" lon="7.02057">
        <ele>2361</ele>
        <time>2022-08-27T11:11:56Z</time>
      </trkpt>
      <trkpt lat="45.83635" lon="7.02058">
        <ele>2361</ele>
        <time>2022-08-27T11:11:59Z</time>
      </trkpt>
      <trkpt lat="45.83637" lon="7.02059">
        <ele>2361</ele>
        <time>2022-08-27T11:12:01Z</time>
      </trkpt>
      <trkpt lat="45.83639" lon="7.02061">
        <ele>2362</ele>
        <time>2022-08-27T11:12:04Z</time>
      </trkpt>
      <trkpt lat="45.83641" lon="7.02063">
        <ele>2362</ele>
        <time>2022-08-27T11:12:06Z</time>
      </trkpt>
      <trkpt lat="45.83643" lon="7.02064">
        <ele>2362</ele>
        <time>2022-08-27T11:12:09Z</time>
      </trkpt>
      <trkpt lat="45.83645" lon="7.02065">
        <ele>2363</ele>
        <time>2022-08-27T11:12:12Z</time>
      </trkpt>
      <trkpt lat="45.83647" lon="7.02068">
        <ele>2364</ele>
        <time>2022-08-27T11:12:15Z</time>
      </trkpt>
      <trkpt lat="45.83648" lon="7.0207">
        <ele>2364</ele>
        <time>2022-08-27T11:12:18Z</time>
      </trkpt>
      <trkpt lat="45.8365" lon="7.02071">
        <ele>2365</ele>
        <time>2022-08-27T11:12:22Z</time>
      </trkpt>
      <trkpt lat="45.83652" lon="7.02073">
        <ele>2366</ele>
        <time>2022-08-27T11:12:25Z</time>
      </trkpt>
      <trkpt lat="45.83654" lon="7.02075">
        <ele>2367</ele>
        <time>2022-08-27T11:12:29Z</time>
      </trkpt>
      <trkpt lat="45.83656" lon="7.02076">
        <ele>2367</ele>
        <time>2022-08-27T11:12:31Z</time>
      </trkpt>
      <trkpt lat="45.83659" lon="7.02076">
        <ele>2368</ele>
        <time>2022-08-27T11:12:35Z</time>
      </trkpt>
      <trkpt lat="45.83661" lon="7.02077">
        <ele>2368</ele>
        <time>2022-08-27T11:12:37Z</time>
      </trkpt>
      <trkpt lat="45.83663" lon="7.02077">
        <ele>2368</ele>
        <time>2022-08-27T11:12:39Z</time>
      </trkpt>
      <trkpt lat="45.83665" lon="7.02078">
        <ele>2369</ele>
        <time>2022-08-27T11:12:41Z</time>
      </trkpt>
      <trkpt lat="45.83667" lon="7.0208">
        <ele>2369</ele>
        <time>2022-08-27T11:12:43Z</time>
      </trkpt>
      <trkpt lat="45.83669" lon="7.02081">
        <ele>2369</ele>
        <time>2022-08-27T11:12:46Z</time>
      </trkpt>
      <trkpt lat="45.83671" lon="7.02082">
        <ele>2369</ele>
        <time>2022-08-27T11:12:49Z</time>
      </trkpt>
      <trkpt lat="45.83673" lon="7.02084">
        <ele>2370</ele>
        <time>2022-08-27T11:12:52Z</time>
      </trkpt>
      <trkpt lat="45.83676" lon="7.02084">
        <ele>2370</ele>
        <time>2022-08-27T11:12:55Z</time>
      </trkpt>
      <trkpt lat="45.83679" lon="7.02085">
        <ele>2371</ele>
        <time>2022-08-27T11:12:58Z</time>
      </trkpt>
      <trkpt lat="45.8368" lon="7.02086">
        <ele>2371</ele>
        <time>2022-08-27T11:13:00Z</time>
      </trkpt>
      <trkpt lat="45.83682" lon="7.02088">
        <ele>2371</ele>
        <time>2022-08-27T11:13:02Z</time>
      </trkpt>
      <trkpt lat="45.83683" lon="7.0209">
        <ele>2372</ele>
        <time>2022-08-27T11:13:04Z</time>
      </trkpt>
      <trkpt lat="45.83685" lon="7.02092">
        <ele>2373</ele>
        <time>2022-08-27T11:13:06Z</time>
      </trkpt>
      <trkpt lat="45.83687" lon="7.02094">
        <ele>2373</ele>
        <time>2022-08-27T11:13:09Z</time>
      </trkpt>
      <trkpt lat="45.83688" lon="7.02096">
        <ele>2373</ele>
        <time>2022-08-27T11:13:12Z</time>
      </trkpt>
      <trkpt lat="45.8369" lon="7.02098">
        <ele>2375</ele>
        <time>2022-08-27T11:13:16Z</time>
      </trkpt>
      <trkpt lat="45.83692" lon="7.021">
        <ele>2375</ele>
        <time>2022-08-27T11:13:18Z</time>
      </trkpt>
      <trkpt lat="45.83693" lon="7.02101">
        <ele>2375</ele>
        <time>2022-08-27T11:13:20Z</time>
      </trkpt>
      <trkpt lat="45.83695" lon="7.02103">
        <ele>2376</ele>
        <time>2022-08-27T11:13:23Z</time>
      </trkpt>
      <trkpt lat="45.83698" lon="7.02104">
        <ele>2378</ele>
        <time>2022-08-27T11:13:27Z</time>
      </trkpt>
      <trkpt lat="45.837" lon="7.02105">
        <ele>2378</ele>
        <time>2022-08-27T11:13:29Z</time>
      </trkpt>
      <trkpt lat="45.83703" lon="7.02106">
        <ele>2378</ele>
        <time>2022-08-27T11:13:32Z</time>
      </trkpt>
      <trkpt lat="45.83704" lon="7.02107">
        <ele>2378</ele>
        <time>2022-08-27T11:13:34Z</time>
      </trkpt>
      <trkpt lat="45.83706" lon="7.02108">
        <ele>2378</ele>
        <time>2022-08-27T11:13:36Z</time>
      </trkpt>
      <trkpt lat="45.83708" lon="7.0211">
        <ele>2379</ele>
        <time>2022-08-27T11:13:39Z</time>
      </trkpt>
      <trkpt lat="45.83711" lon="7.02112">
        <ele>2380</ele>
        <time>2022-08-27T11:13:42Z</time>
      </trkpt>
      <trkpt lat="45.83714" lon="7.02113">
        <ele>2381</ele>
        <time>2022-08-27T11:13:45Z</time>
      </trkpt>
      <trkpt lat="45.83715" lon="7.02113">
        <ele>2381</ele>
        <time>2022-08-27T11:13:47Z</time>
      </trkpt>
      <trkpt lat="45.83717" lon="7.02113">
        <ele>2381</ele>
        <time>2022-08-27T11:13:49Z</time>
      </trkpt>
      <trkpt lat="45.8372" lon="7.02113">
        <ele>2381</ele>
        <time>2022-08-27T11:13:52Z</time>
      </trkpt>
      <trkpt lat="45.83722" lon="7.02114">
        <ele>2382</ele>
        <time>2022-08-27T11:13:54Z</time>
      </trkpt>
      <trkpt lat="45.83725" lon="7.02113">
        <ele>2382</ele>
        <time>2022-08-27T11:13:57Z</time>
      </trkpt>
      <trkpt lat="45.83727" lon="7.02112">
        <ele>2382</ele>
        <time>2022-08-27T11:13:59Z</time>
      </trkpt>
      <trkpt lat="45.8373" lon="7.02112">
        <ele>2382</ele>
        <time>2022-08-27T11:14:01Z</time>
      </trkpt>
      <trkpt lat="45.83733" lon="7.02111">
        <ele>2381</ele>
        <time>2022-08-27T11:14:03Z</time>
      </trkpt>
      <trkpt lat="45.83735" lon="7.0211">
        <ele>2381</ele>
        <time>2022-08-27T11:14:04Z</time>
      </trkpt>
      <trkpt lat="45.83738" lon="7.02108">
        <ele>2381</ele>
        <time>2022-08-27T11:14:06Z</time>
      </trkpt>
      <trkpt lat="45.83741" lon="7.02106">
        <ele>2379</ele>
        <time>2022-08-27T11:14:08Z</time>
      </trkpt>
      <trkpt lat="45.83745" lon="7.02104">
        <ele>2379</ele>
        <time>2022-08-27T11:14:10Z</time>
      </trkpt>
      <trkpt lat="45.83748" lon="7.02103">
        <ele>2378</ele>
        <time>2022-08-27T11:14:12Z</time>
      </trkpt>
      <trkpt lat="45.8375" lon="7.02103">
        <ele>2378</ele>
        <time>2022-08-27T11:14:13Z</time>
      </trkpt>
      <trkpt lat="45.83752" lon="7.02103">
        <ele>2378</ele>
        <time>2022-08-27T11:14:14Z</time>
      </trkpt>
      <trkpt lat="45.83754" lon="7.02103">
        <ele>2376</ele>
        <time>2022-08-27T11:14:15Z</time>
      </trkpt>
      <trkpt lat="45.83757" lon="7.02103">
        <ele>2376</ele>
        <time>2022-08-27T11:14:17Z</time>
      </trkpt>
      <trkpt lat="45.83759" lon="7.02103">
        <ele>2376</ele>
        <time>2022-08-27T11:14:18Z</time>
      </trkpt>
      <trkpt lat="45.83761" lon="7.02103">
        <ele>2376</ele>
        <time>2022-08-27T11:14:19Z</time>
      </trkpt>
      <trkpt lat="45.83763" lon="7.02103">
        <ele>2375</ele>
        <time>2022-08-27T11:14:20Z</time>
      </trkpt>
      <trkpt lat="45.83766" lon="7.02103">
        <ele>2375</ele>
        <time>2022-08-27T11:14:21Z</time>
      </trkpt>
      <trkpt lat="45.83767" lon="7.02103">
        <ele>2375</ele>
        <time>2022-08-27T11:14:22Z</time>
      </trkpt>
      <trkpt lat="45.8377" lon="7.02102">
        <ele>2374</ele>
        <time>2022-08-27T11:14:24Z</time>
      </trkpt>
      <trkpt lat="45.83774" lon="7.02103">
        <ele>2374</ele>
        <time>2022-08-27T11:14:26Z</time>
      </trkpt>
      <trkpt lat="45.83776" lon="7.02103">
        <ele>2374</ele>
        <time>2022-08-27T11:14:27Z</time>
      </trkpt>
      <trkpt lat="45.83779" lon="7.02105">
        <ele>2374</ele>
        <time>2022-08-27T11:14:29Z</time>
      </trkpt>
      <trkpt lat="45.83782" lon="7.02107">
        <ele>2374</ele>
        <time>2022-08-27T11:14:30Z</time>
      </trkpt>
      <trkpt lat="45.83783" lon="7.02107">
        <ele>2374</ele>
        <time>2022-08-27T11:14:31Z</time>
      </trkpt>
      <trkpt lat="45.83786" lon="7.02108">
        <ele>2373</ele>
        <time>2022-08-27T11:14:32Z</time>
      </trkpt>
      <trkpt lat="45.83788" lon="7.02109">
        <ele>2373</ele>
        <time>2022-08-27T11:14:33Z</time>
      </trkpt>
      <trkpt lat="45.8379" lon="7.0211">
        <ele>2373</ele>
        <time>2022-08-27T11:14:34Z</time>
      </trkpt>
      <trkpt lat="45.83793" lon="7.0211">
        <ele>2372</ele>
        <time>2022-08-27T11:14:36Z</time>
      </trkpt>
      <trkpt lat="45.83796" lon="7.0211">
        <ele>2372</ele>
        <time>2022-08-27T11:14:38Z</time>
      </trkpt>
      <trkpt lat="45.83799" lon="7.02109">
        <ele>2372</ele>
        <time>2022-08-27T11:14:40Z</time>
      </trkpt>
      <trkpt lat="45.83801" lon="7.02109">
        <ele>2372</ele>
        <time>2022-08-27T11:14:41Z</time>
      </trkpt>
      <trkpt lat="45.83804" lon="7.02109">
        <ele>2372</ele>
        <time>2022-08-27T11:14:42Z</time>
      </trkpt>
      <trkpt lat="45.83811" lon="7.02107">
        <ele>2372</ele>
        <time>2022-08-27T11:14:47Z</time>
      </trkpt>
      <trkpt lat="45.83813" lon="7.02107">
        <ele>2371</ele>
        <time>2022-08-27T11:14:49Z</time>
      </trkpt>
      <trkpt lat="45.83816" lon="7.02107">
        <ele>2370</ele>
        <time>2022-08-27T11:14:51Z</time>
      </trkpt>
      <trkpt lat="45.83818" lon="7.02106">
        <ele>2370</ele>
        <time>2022-08-27T11:14:52Z</time>
      </trkpt>
      <trkpt lat="45.8382" lon="7.02106">
        <ele>2370</ele>
        <time>2022-08-27T11:14:53Z</time>
      </trkpt>
      <trkpt lat="45.83822" lon="7.02105">
        <ele>2370</ele>
        <time>2022-08-27T11:14:54Z</time>
      </trkpt>
      <trkpt lat="45.83826" lon="7.02105">
        <ele>2369</ele>
        <time>2022-08-27T11:14:56Z</time>
      </trkpt>
      <trkpt lat="45.83829" lon="7.02106">
        <ele>2369</ele>
        <time>2022-08-27T11:14:58Z</time>
      </trkpt>
      <trkpt lat="45.83831" lon="7.02106">
        <ele>2368</ele>
        <time>2022-08-27T11:15:00Z</time>
      </trkpt>
      <trkpt lat="45.83833" lon="7.02107">
        <ele>2368</ele>
        <time>2022-08-27T11:15:01Z</time>
      </trkpt>
      <trkpt lat="45.83835" lon="7.02107">
        <ele>2367</ele>
        <time>2022-08-27T11:15:02Z</time>
      </trkpt>
      <trkpt lat="45.83838" lon="7.02108">
        <ele>2367</ele>
        <time>2022-08-27T11:15:04Z</time>
      </trkpt>
      <trkpt lat="45.8384" lon="7.02108">
        <ele>2367</ele>
        <time>2022-08-27T11:15:05Z</time>
      </trkpt>
      <trkpt lat="45.83843" lon="7.02107">
        <ele>2366</ele>
        <time>2022-08-27T11:15:07Z</time>
      </trkpt>
      <trkpt lat="45.83846" lon="7.02107">
        <ele>2365</ele>
        <time>2022-08-27T11:15:09Z</time>
      </trkpt>
      <trkpt lat="45.83849" lon="7.02107">
        <ele>2365</ele>
        <time>2022-08-27T11:15:11Z</time>
      </trkpt>
      <trkpt lat="45.83852" lon="7.02108">
        <ele>2365</ele>
        <time>2022-08-27T11:15:13Z</time>
      </trkpt>
      <trkpt lat="45.83855" lon="7.02109">
        <ele>2364</ele>
        <time>2022-08-27T11:15:15Z</time>
      </trkpt>
      <trkpt lat="45.83857" lon="7.0211">
        <ele>2364</ele>
        <time>2022-08-27T11:15:16Z</time>
      </trkpt>
      <trkpt lat="45.83862" lon="7.02112">
        <ele>2364</ele>
        <time>2022-08-27T11:15:19Z</time>
      </trkpt>
      <trkpt lat="45.83864" lon="7.02113">
        <ele>2362</ele>
        <time>2022-08-27T11:15:21Z</time>
      </trkpt>
      <trkpt lat="45.83866" lon="7.02113">
        <ele>2362</ele>
        <time>2022-08-27T11:15:22Z</time>
      </trkpt>
      <trkpt lat="45.83869" lon="7.02114">
        <ele>2362</ele>
        <time>2022-08-27T11:15:23Z</time>
      </trkpt>
      <trkpt lat="45.83871" lon="7.02114">
        <ele>2362</ele>
        <time>2022-08-27T11:15:24Z</time>
      </trkpt>
      <trkpt lat="45.83873" lon="7.02115">
        <ele>2361</ele>
        <time>2022-08-27T11:15:26Z</time>
      </trkpt>
      <trkpt lat="45.83875" lon="7.02116">
        <ele>2361</ele>
        <time>2022-08-27T11:15:27Z</time>
      </trkpt>
      <trkpt lat="45.83878" lon="7.02117">
        <ele>2361</ele>
        <time>2022-08-27T11:15:29Z</time>
      </trkpt>
      <trkpt lat="45.83881" lon="7.02119">
        <ele>2360</ele>
        <time>2022-08-27T11:15:31Z</time>
      </trkpt>
      <trkpt lat="45.83885" lon="7.0212">
        <ele>2360</ele>
        <time>2022-08-27T11:15:33Z</time>
      </trkpt>
      <trkpt lat="45.83887" lon="7.02121">
        <ele>2360</ele>
        <time>2022-08-27T11:15:34Z</time>
      </trkpt>
      <trkpt lat="45.83889" lon="7.02121">
        <ele>2360</ele>
        <time>2022-08-27T11:15:35Z</time>
      </trkpt>
      <trkpt lat="45.83892" lon="7.02122">
        <ele>2360</ele>
        <time>2022-08-27T11:15:37Z</time>
      </trkpt>
      <trkpt lat="45.83895" lon="7.02124">
        <ele>2359</ele>
        <time>2022-08-27T11:15:39Z</time>
      </trkpt>
      <trkpt lat="45.83896" lon="7.02125">
        <ele>2357</ele>
        <time>2022-08-27T11:15:40Z</time>
      </trkpt>
      <trkpt lat="45.83898" lon="7.02126">
        <ele>2357</ele>
        <time>2022-08-27T11:15:41Z</time>
      </trkpt>
      <trkpt lat="45.83901" lon="7.02128">
        <ele>2358</ele>
        <time>2022-08-27T11:15:43Z</time>
      </trkpt>
      <trkpt lat="45.83903" lon="7.02131">
        <ele>2358</ele>
        <time>2022-08-27T11:15:44Z</time>
      </trkpt>
      <trkpt lat="45.83904" lon="7.02132">
        <ele>2358</ele>
        <time>2022-08-27T11:15:45Z</time>
      </trkpt>
      <trkpt lat="45.83905" lon="7.02135">
        <ele>2358</ele>
        <time>2022-08-27T11:15:46Z</time>
      </trkpt>
      <trkpt lat="45.83907" lon="7.02136">
        <ele>2358</ele>
        <time>2022-08-27T11:15:47Z</time>
      </trkpt>
      <trkpt lat="45.83908" lon="7.02138">
        <ele>2358</ele>
        <time>2022-08-27T11:15:48Z</time>
      </trkpt>
      <trkpt lat="45.83911" lon="7.02141">
        <ele>2358</ele>
        <time>2022-08-27T11:15:49Z</time>
      </trkpt>
      <trkpt lat="45.83912" lon="7.02142">
        <ele>2358</ele>
        <time>2022-08-27T11:15:50Z</time>
      </trkpt>
      <trkpt lat="45.83913" lon="7.02144">
        <ele>2358</ele>
        <time>2022-08-27T11:15:51Z</time>
      </trkpt>
      <trkpt lat="45.83915" lon="7.02145">
        <ele>2357</ele>
        <time>2022-08-27T11:15:53Z</time>
      </trkpt>
      <trkpt lat="45.83918" lon="7.02145">
        <ele>2357</ele>
        <time>2022-08-27T11:15:56Z</time>
      </trkpt>
      <trkpt lat="45.8392" lon="7.02145">
        <ele>2356</ele>
        <time>2022-08-27T11:15:58Z</time>
      </trkpt>
      <trkpt lat="45.83921" lon="7.02143">
        <ele>2354</ele>
        <time>2022-08-27T11:16:02Z</time>
      </trkpt>
      <trkpt lat="45.83924" lon="7.02144">
        <ele>2353</ele>
        <time>2022-08-27T11:16:05Z</time>
      </trkpt>
      <trkpt lat="45.83926" lon="7.02144">
        <ele>2352</ele>
        <time>2022-08-27T11:16:07Z</time>
      </trkpt>
      <trkpt lat="45.83929" lon="7.02144">
        <ele>2350</ele>
        <time>2022-08-27T11:16:09Z</time>
      </trkpt>
      <trkpt lat="45.8393" lon="7.02143">
        <ele>2350</ele>
        <time>2022-08-27T11:16:11Z</time>
      </trkpt>
      <trkpt lat="45.83933" lon="7.02144">
        <ele>2349</ele>
        <time>2022-08-27T11:16:13Z</time>
      </trkpt>
      <trkpt lat="45.83936" lon="7.02145">
        <ele>2348</ele>
        <time>2022-08-27T11:16:15Z</time>
      </trkpt>
      <trkpt lat="45.83939" lon="7.02147">
        <ele>2347</ele>
        <time>2022-08-27T11:16:17Z</time>
      </trkpt>
      <trkpt lat="45.83941" lon="7.02148">
        <ele>2346</ele>
        <time>2022-08-27T11:16:19Z</time>
      </trkpt>
      <trkpt lat="45.83944" lon="7.0215">
        <ele>2346</ele>
        <time>2022-08-27T11:16:20Z</time>
      </trkpt>
      <trkpt lat="45.83945" lon="7.02151">
        <ele>2345</ele>
        <time>2022-08-27T11:16:21Z</time>
      </trkpt>
      <trkpt lat="45.83947" lon="7.02152">
        <ele>2345</ele>
        <time>2022-08-27T11:16:22Z</time>
      </trkpt>
      <trkpt lat="45.83949" lon="7.02153">
        <ele>2345</ele>
        <time>2022-08-27T11:16:23Z</time>
      </trkpt>
      <trkpt lat="45.8395" lon="7.02154">
        <ele>2345</ele>
        <time>2022-08-27T11:16:24Z</time>
      </trkpt>
      <trkpt lat="45.83952" lon="7.02155">
        <ele>2345</ele>
        <time>2022-08-27T11:16:25Z</time>
      </trkpt>
      <trkpt lat="45.83954" lon="7.02156">
        <ele>2345</ele>
        <time>2022-08-27T11:16:26Z</time>
      </trkpt>
      <trkpt lat="45.83957" lon="7.02158">
        <ele>2345</ele>
        <time>2022-08-27T11:16:28Z</time>
      </trkpt>
      <trkpt lat="45.83959" lon="7.02161">
        <ele>2344</ele>
        <time>2022-08-27T11:16:30Z</time>
      </trkpt>
      <trkpt lat="45.83961" lon="7.02164">
        <ele>2344</ele>
        <time>2022-08-27T11:16:32Z</time>
      </trkpt>
      <trkpt lat="45.83963" lon="7.02165">
        <ele>2344</ele>
        <time>2022-08-27T11:16:33Z</time>
      </trkpt>
      <trkpt lat="45.83965" lon="7.02166">
        <ele>2344</ele>
        <time>2022-08-27T11:16:34Z</time>
      </trkpt>
      <trkpt lat="45.83969" lon="7.02169">
        <ele>2344</ele>
        <time>2022-08-27T11:16:36Z</time>
      </trkpt>
      <trkpt lat="45.8397" lon="7.0217">
        <ele>2343</ele>
        <time>2022-08-27T11:16:37Z</time>
      </trkpt>
      <trkpt lat="45.83973" lon="7.02173">
        <ele>2343</ele>
        <time>2022-08-27T11:16:38Z</time>
      </trkpt>
      <trkpt lat="45.83973" lon="7.02174">
        <ele>2343</ele>
        <time>2022-08-27T11:16:39Z</time>
      </trkpt>
      <trkpt lat="45.83975" lon="7.02175">
        <ele>2343</ele>
        <time>2022-08-27T11:16:40Z</time>
      </trkpt>
      <trkpt lat="45.83977" lon="7.02176">
        <ele>2343</ele>
        <time>2022-08-27T11:16:41Z</time>
      </trkpt>
      <trkpt lat="45.83979" lon="7.02177">
        <ele>2343</ele>
        <time>2022-08-27T11:16:42Z</time>
      </trkpt>
      <trkpt lat="45.83982" lon="7.02179">
        <ele>2342</ele>
        <time>2022-08-27T11:16:44Z</time>
      </trkpt>
      <trkpt lat="45.83984" lon="7.02181">
        <ele>2342</ele>
        <time>2022-08-27T11:16:46Z</time>
      </trkpt>
      <trkpt lat="45.83986" lon="7.02183">
        <ele>2342</ele>
        <time>2022-08-27T11:16:48Z</time>
      </trkpt>
      <trkpt lat="45.83989" lon="7.02186">
        <ele>2342</ele>
        <time>2022-08-27T11:16:50Z</time>
      </trkpt>
      <trkpt lat="45.83991" lon="7.02188">
        <ele>2342</ele>
        <time>2022-08-27T11:16:52Z</time>
      </trkpt>
      <trkpt lat="45.83994" lon="7.02191">
        <ele>2342</ele>
        <time>2022-08-27T11:16:54Z</time>
      </trkpt>
      <trkpt lat="45.83996" lon="7.02195">
        <ele>2341</ele>
        <time>2022-08-27T11:16:56Z</time>
      </trkpt>
      <trkpt lat="45.83999" lon="7.02198">
        <ele>2341</ele>
        <time>2022-08-27T11:16:58Z</time>
      </trkpt>
      <trkpt lat="45.84002" lon="7.022">
        <ele>2341</ele>
        <time>2022-08-27T11:17:00Z</time>
      </trkpt>
      <trkpt lat="45.84005" lon="7.02202">
        <ele>2341</ele>
        <time>2022-08-27T11:17:02Z</time>
      </trkpt>
      <trkpt lat="45.84007" lon="7.02205">
        <ele>2341</ele>
        <time>2022-08-27T11:17:04Z</time>
      </trkpt>
      <trkpt lat="45.8401" lon="7.02207">
        <ele>2340</ele>
        <time>2022-08-27T11:17:06Z</time>
      </trkpt>
      <trkpt lat="45.84011" lon="7.02209">
        <ele>2340</ele>
        <time>2022-08-27T11:17:07Z</time>
      </trkpt>
      <trkpt lat="45.84013" lon="7.0221">
        <ele>2340</ele>
        <time>2022-08-27T11:17:08Z</time>
      </trkpt>
      <trkpt lat="45.84015" lon="7.02211">
        <ele>2340</ele>
        <time>2022-08-27T11:17:09Z</time>
      </trkpt>
      <trkpt lat="45.84018" lon="7.02213">
        <ele>2339</ele>
        <time>2022-08-27T11:17:11Z</time>
      </trkpt>
      <trkpt lat="45.84019" lon="7.02216">
        <ele>2339</ele>
        <time>2022-08-27T11:17:13Z</time>
      </trkpt>
      <trkpt lat="45.84021" lon="7.02217">
        <ele>2337</ele>
        <time>2022-08-27T11:17:15Z</time>
      </trkpt>
      <trkpt lat="45.84024" lon="7.0222">
        <ele>2337</ele>
        <time>2022-08-27T11:17:17Z</time>
      </trkpt>
      <trkpt lat="45.84027" lon="7.02222">
        <ele>2337</ele>
        <time>2022-08-27T11:17:19Z</time>
      </trkpt>
      <trkpt lat="45.84029" lon="7.02225">
        <ele>2336</ele>
        <time>2022-08-27T11:17:21Z</time>
      </trkpt>
      <trkpt lat="45.84032" lon="7.02227">
        <ele>2335</ele>
        <time>2022-08-27T11:17:23Z</time>
      </trkpt>
      <trkpt lat="45.84035" lon="7.02229">
        <ele>2335</ele>
        <time>2022-08-27T11:17:25Z</time>
      </trkpt>
      <trkpt lat="45.84036" lon="7.02232">
        <ele>2334</ele>
        <time>2022-08-27T11:17:27Z</time>
      </trkpt>
      <trkpt lat="45.84038" lon="7.02234">
        <ele>2334</ele>
        <time>2022-08-27T11:17:29Z</time>
      </trkpt>
      <trkpt lat="45.8404" lon="7.02237">
        <ele>2333</ele>
        <time>2022-08-27T11:17:31Z</time>
      </trkpt>
      <trkpt lat="45.84043" lon="7.02242">
        <ele>2332</ele>
        <time>2022-08-27T11:17:33Z</time>
      </trkpt>
      <trkpt lat="45.84045" lon="7.02244">
        <ele>2331</ele>
        <time>2022-08-27T11:17:34Z</time>
      </trkpt>
      <trkpt lat="45.84046" lon="7.02246">
        <ele>2330</ele>
        <time>2022-08-27T11:17:35Z</time>
      </trkpt>
      <trkpt lat="45.84048" lon="7.02248">
        <ele>2330</ele>
        <time>2022-08-27T11:17:36Z</time>
      </trkpt>
      <trkpt lat="45.84051" lon="7.02251">
        <ele>2329</ele>
        <time>2022-08-27T11:17:38Z</time>
      </trkpt>
      <trkpt lat="45.84054" lon="7.02253">
        <ele>2329</ele>
        <time>2022-08-27T11:17:40Z</time>
      </trkpt>
      <trkpt lat="45.84057" lon="7.02256">
        <ele>2329</ele>
        <time>2022-08-27T11:17:42Z</time>
      </trkpt>
      <trkpt lat="45.84059" lon="7.02259">
        <ele>2329</ele>
        <time>2022-08-27T11:17:44Z</time>
      </trkpt>
      <trkpt lat="45.8406" lon="7.02262">
        <ele>2329</ele>
        <time>2022-08-27T11:17:45Z</time>
      </trkpt>
      <trkpt lat="45.84063" lon="7.02265">
        <ele>2329</ele>
        <time>2022-08-27T11:17:47Z</time>
      </trkpt>
      <trkpt lat="45.84064" lon="7.02267">
        <ele>2329</ele>
        <time>2022-08-27T11:17:48Z</time>
      </trkpt>
      <trkpt lat="45.84066" lon="7.0227">
        <ele>2329</ele>
        <time>2022-08-27T11:17:49Z</time>
      </trkpt>
      <trkpt lat="45.84067" lon="7.02272">
        <ele>2329</ele>
        <time>2022-08-27T11:17:50Z</time>
      </trkpt>
      <trkpt lat="45.84071" lon="7.02275">
        <ele>2329</ele>
        <time>2022-08-27T11:17:52Z</time>
      </trkpt>
      <trkpt lat="45.84071" lon="7.02276">
        <ele>2328</ele>
        <time>2022-08-27T11:17:53Z</time>
      </trkpt>
      <trkpt lat="45.84072" lon="7.02278">
        <ele>2328</ele>
        <time>2022-08-27T11:17:54Z</time>
      </trkpt>
      <trkpt lat="45.84073" lon="7.02281">
        <ele>2328</ele>
        <time>2022-08-27T11:17:55Z</time>
      </trkpt>
      <trkpt lat="45.84075" lon="7.02285">
        <ele>2328</ele>
        <time>2022-08-27T11:17:57Z</time>
      </trkpt>
      <trkpt lat="45.84077" lon="7.02287">
        <ele>2328</ele>
        <time>2022-08-27T11:17:59Z</time>
      </trkpt>
      <trkpt lat="45.84079" lon="7.02289">
        <ele>2327</ele>
        <time>2022-08-27T11:18:01Z</time>
      </trkpt>
      <trkpt lat="45.84081" lon="7.02292">
        <ele>2327</ele>
        <time>2022-08-27T11:18:03Z</time>
      </trkpt>
      <trkpt lat="45.84083" lon="7.02294">
        <ele>2327</ele>
        <time>2022-08-27T11:18:05Z</time>
      </trkpt>
      <trkpt lat="45.84086" lon="7.02298">
        <ele>2326</ele>
        <time>2022-08-27T11:18:07Z</time>
      </trkpt>
      <trkpt lat="45.84088" lon="7.02301">
        <ele>2326</ele>
        <time>2022-08-27T11:18:09Z</time>
      </trkpt>
      <trkpt lat="45.84091" lon="7.02303">
        <ele>2324</ele>
        <time>2022-08-27T11:18:11Z</time>
      </trkpt>
      <trkpt lat="45.84093" lon="7.02305">
        <ele>2324</ele>
        <time>2022-08-27T11:18:12Z</time>
      </trkpt>
      <trkpt lat="45.84095" lon="7.02306">
        <ele>2324</ele>
        <time>2022-08-27T11:18:13Z</time>
      </trkpt>
      <trkpt lat="45.84097" lon="7.02307">
        <ele>2324</ele>
        <time>2022-08-27T11:18:14Z</time>
      </trkpt>
      <trkpt lat="45.84099" lon="7.02309">
        <ele>2324</ele>
        <time>2022-08-27T11:18:15Z</time>
      </trkpt>
      <trkpt lat="45.841" lon="7.02309">
        <ele>2324</ele>
        <time>2022-08-27T11:18:16Z</time>
      </trkpt>
      <trkpt lat="45.84103" lon="7.02312">
        <ele>2324</ele>
        <time>2022-08-27T11:18:18Z</time>
      </trkpt>
      <trkpt lat="45.84105" lon="7.02315">
        <ele>2322</ele>
        <time>2022-08-27T11:18:20Z</time>
      </trkpt>
      <trkpt lat="45.84108" lon="7.02319">
        <ele>2321</ele>
        <time>2022-08-27T11:18:22Z</time>
      </trkpt>
      <trkpt lat="45.8411" lon="7.02322">
        <ele>2321</ele>
        <time>2022-08-27T11:18:23Z</time>
      </trkpt>
      <trkpt lat="45.8411" lon="7.02323">
        <ele>2321</ele>
        <time>2022-08-27T11:18:24Z</time>
      </trkpt>
      <trkpt lat="45.84112" lon="7.02325">
        <ele>2321</ele>
        <time>2022-08-27T11:18:25Z</time>
      </trkpt>
      <trkpt lat="45.84113" lon="7.02327">
        <ele>2321</ele>
        <time>2022-08-27T11:18:26Z</time>
      </trkpt>
      <trkpt lat="45.84115" lon="7.02329">
        <ele>2321</ele>
        <time>2022-08-27T11:18:27Z</time>
      </trkpt>
      <trkpt lat="45.84116" lon="7.02331">
        <ele>2321</ele>
        <time>2022-08-27T11:18:28Z</time>
      </trkpt>
      <trkpt lat="45.84118" lon="7.02334">
        <ele>2320</ele>
        <time>2022-08-27T11:18:29Z</time>
      </trkpt>
      <trkpt lat="45.8412" lon="7.02336">
        <ele>2320</ele>
        <time>2022-08-27T11:18:30Z</time>
      </trkpt>
      <trkpt lat="45.84121" lon="7.02337">
        <ele>2317</ele>
        <time>2022-08-27T11:18:31Z</time>
      </trkpt>
      <trkpt lat="45.84123" lon="7.02341">
        <ele>2317</ele>
        <time>2022-08-27T11:18:33Z</time>
      </trkpt>
      <trkpt lat="45.84124" lon="7.02343">
        <ele>2317</ele>
        <time>2022-08-27T11:18:34Z</time>
      </trkpt>
      <trkpt lat="45.84125" lon="7.02345">
        <ele>2317</ele>
        <time>2022-08-27T11:18:35Z</time>
      </trkpt>
      <trkpt lat="45.84126" lon="7.02346">
        <ele>2317</ele>
        <time>2022-08-27T11:18:36Z</time>
      </trkpt>
      <trkpt lat="45.84128" lon="7.02349">
        <ele>2317</ele>
        <time>2022-08-27T11:18:37Z</time>
      </trkpt>
      <trkpt lat="45.84129" lon="7.02351">
        <ele>2317</ele>
        <time>2022-08-27T11:18:38Z</time>
      </trkpt>
      <trkpt lat="45.84131" lon="7.02353">
        <ele>2317</ele>
        <time>2022-08-27T11:18:39Z</time>
      </trkpt>
      <trkpt lat="45.84132" lon="7.02357">
        <ele>2317</ele>
        <time>2022-08-27T11:18:40Z</time>
      </trkpt>
      <trkpt lat="45.84133" lon="7.02358">
        <ele>2317</ele>
        <time>2022-08-27T11:18:41Z</time>
      </trkpt>
      <trkpt lat="45.84134" lon="7.0236">
        <ele>2317</ele>
        <time>2022-08-27T11:18:42Z</time>
      </trkpt>
      <trkpt lat="45.84136" lon="7.02363">
        <ele>2317</ele>
        <time>2022-08-27T11:18:44Z</time>
      </trkpt>
      <trkpt lat="45.84138" lon="7.02366">
        <ele>2317</ele>
        <time>2022-08-27T11:18:45Z</time>
      </trkpt>
      <trkpt lat="45.84139" lon="7.02367">
        <ele>2315</ele>
        <time>2022-08-27T11:18:46Z</time>
      </trkpt>
      <trkpt lat="45.84142" lon="7.02369">
        <ele>2315</ele>
        <time>2022-08-27T11:18:48Z</time>
      </trkpt>
      <trkpt lat="45.84144" lon="7.02372">
        <ele>2314</ele>
        <time>2022-08-27T11:18:50Z</time>
      </trkpt>
      <trkpt lat="45.84147" lon="7.02375">
        <ele>2314</ele>
        <time>2022-08-27T11:18:52Z</time>
      </trkpt>
      <trkpt lat="45.8415" lon="7.02377">
        <ele>2314</ele>
        <time>2022-08-27T11:18:54Z</time>
      </trkpt>
      <trkpt lat="45.84152" lon="7.0238">
        <ele>2314</ele>
        <time>2022-08-27T11:18:56Z</time>
      </trkpt>
      <trkpt lat="45.84155" lon="7.02383">
        <ele>2314</ele>
        <time>2022-08-27T11:18:58Z</time>
      </trkpt>
      <trkpt lat="45.84157" lon="7.02385">
        <ele>2314</ele>
        <time>2022-08-27T11:19:00Z</time>
      </trkpt>
      <trkpt lat="45.8416" lon="7.02388">
        <ele>2313</ele>
        <time>2022-08-27T11:19:02Z</time>
      </trkpt>
      <trkpt lat="45.84162" lon="7.0239">
        <ele>2313</ele>
        <time>2022-08-27T11:19:04Z</time>
      </trkpt>
      <trkpt lat="45.84165" lon="7.02391">
        <ele>2313</ele>
        <time>2022-08-27T11:19:06Z</time>
      </trkpt>
      <trkpt lat="45.84167" lon="7.02393">
        <ele>2313</ele>
        <time>2022-08-27T11:19:08Z</time>
      </trkpt>
      <trkpt lat="45.8417" lon="7.02394">
        <ele>2311</ele>
        <time>2022-08-27T11:19:10Z</time>
      </trkpt>
      <trkpt lat="45.84172" lon="7.02394">
        <ele>2311</ele>
        <time>2022-08-27T11:19:12Z</time>
      </trkpt>
      <trkpt lat="45.84175" lon="7.02394">
        <ele>2312</ele>
        <time>2022-08-27T11:19:14Z</time>
      </trkpt>
      <trkpt lat="45.84178" lon="7.02395">
        <ele>2312</ele>
        <time>2022-08-27T11:19:16Z</time>
      </trkpt>
      <trkpt lat="45.84181" lon="7.02395">
        <ele>2312</ele>
        <time>2022-08-27T11:19:18Z</time>
      </trkpt>
      <trkpt lat="45.84183" lon="7.02395">
        <ele>2312</ele>
        <time>2022-08-27T11:19:20Z</time>
      </trkpt>
      <trkpt lat="45.84185" lon="7.02394">
        <ele>2312</ele>
        <time>2022-08-27T11:19:22Z</time>
      </trkpt>
      <trkpt lat="45.84188" lon="7.02395">
        <ele>2312</ele>
        <time>2022-08-27T11:19:24Z</time>
      </trkpt>
      <trkpt lat="45.8419" lon="7.02396">
        <ele>2312</ele>
        <time>2022-08-27T11:19:26Z</time>
      </trkpt>
      <trkpt lat="45.84192" lon="7.02397">
        <ele>2312</ele>
        <time>2022-08-27T11:19:28Z</time>
      </trkpt>
      <trkpt lat="45.84194" lon="7.02398">
        <ele>2312</ele>
        <time>2022-08-27T11:19:30Z</time>
      </trkpt>
      <trkpt lat="45.84197" lon="7.02399">
        <ele>2312</ele>
        <time>2022-08-27T11:19:32Z</time>
      </trkpt>
      <trkpt lat="45.842" lon="7.02401">
        <ele>2312</ele>
        <time>2022-08-27T11:19:34Z</time>
      </trkpt>
      <trkpt lat="45.84202" lon="7.02402">
        <ele>2312</ele>
        <time>2022-08-27T11:19:36Z</time>
      </trkpt>
      <trkpt lat="45.84205" lon="7.02403">
        <ele>2312</ele>
        <time>2022-08-27T11:19:38Z</time>
      </trkpt>
      <trkpt lat="45.84208" lon="7.02404">
        <ele>2312</ele>
        <time>2022-08-27T11:19:40Z</time>
      </trkpt>
      <trkpt lat="45.84211" lon="7.02404">
        <ele>2312</ele>
        <time>2022-08-27T11:19:42Z</time>
      </trkpt>
      <trkpt lat="45.84213" lon="7.02403">
        <ele>2312</ele>
        <time>2022-08-27T11:19:44Z</time>
      </trkpt>
      <trkpt lat="45.84218" lon="7.02402">
        <ele>2312</ele>
        <time>2022-08-27T11:19:46Z</time>
      </trkpt>
      <trkpt lat="45.84219" lon="7.02402">
        <ele>2312</ele>
        <time>2022-08-27T11:19:47Z</time>
      </trkpt>
      <trkpt lat="45.84222" lon="7.02403">
        <ele>2312</ele>
        <time>2022-08-27T11:19:48Z</time>
      </trkpt>
      <trkpt lat="45.84223" lon="7.02403">
        <ele>2312</ele>
        <time>2022-08-27T11:19:49Z</time>
      </trkpt>
      <trkpt lat="45.84226" lon="7.02404">
        <ele>2312</ele>
        <time>2022-08-27T11:19:50Z</time>
      </trkpt>
      <trkpt lat="45.84227" lon="7.02404">
        <ele>2311</ele>
        <time>2022-08-27T11:19:51Z</time>
      </trkpt>
      <trkpt lat="45.84229" lon="7.02404">
        <ele>2311</ele>
        <time>2022-08-27T11:19:52Z</time>
      </trkpt>
      <trkpt lat="45.84232" lon="7.02404">
        <ele>2311</ele>
        <time>2022-08-27T11:19:53Z</time>
      </trkpt>
      <trkpt lat="45.84234" lon="7.02405">
        <ele>2311</ele>
        <time>2022-08-27T11:19:54Z</time>
      </trkpt>
      <trkpt lat="45.84235" lon="7.02406">
        <ele>2311</ele>
        <time>2022-08-27T11:19:55Z</time>
      </trkpt>
      <trkpt lat="45.84237" lon="7.02407">
        <ele>2311</ele>
        <time>2022-08-27T11:19:56Z</time>
      </trkpt>
      <trkpt lat="45.84239" lon="7.02409">
        <ele>2311</ele>
        <time>2022-08-27T11:19:57Z</time>
      </trkpt>
      <trkpt lat="45.84241" lon="7.0241">
        <ele>2311</ele>
        <time>2022-08-27T11:19:58Z</time>
      </trkpt>
      <trkpt lat="45.84242" lon="7.02412">
        <ele>2311</ele>
        <time>2022-08-27T11:19:59Z</time>
      </trkpt>
      <trkpt lat="45.84244" lon="7.02414">
        <ele>2311</ele>
        <time>2022-08-27T11:20:00Z</time>
      </trkpt>
      <trkpt lat="45.84246" lon="7.02415">
        <ele>2311</ele>
        <time>2022-08-27T11:20:01Z</time>
      </trkpt>
      <trkpt lat="45.84249" lon="7.02418">
        <ele>2311</ele>
        <time>2022-08-27T11:20:03Z</time>
      </trkpt>
      <trkpt lat="45.84252" lon="7.02421">
        <ele>2311</ele>
        <time>2022-08-27T11:20:05Z</time>
      </trkpt>
      <trkpt lat="45.84253" lon="7.02422">
        <ele>2309</ele>
        <time>2022-08-27T11:20:06Z</time>
      </trkpt>
      <trkpt lat="45.84255" lon="7.02424">
        <ele>2309</ele>
        <time>2022-08-27T11:20:07Z</time>
      </trkpt>
      <trkpt lat="45.84256" lon="7.02426">
        <ele>2309</ele>
        <time>2022-08-27T11:20:08Z</time>
      </trkpt>
      <trkpt lat="45.84258" lon="7.02427">
        <ele>2309</ele>
        <time>2022-08-27T11:20:09Z</time>
      </trkpt>
      <trkpt lat="45.84259" lon="7.02429">
        <ele>2309</ele>
        <time>2022-08-27T11:20:10Z</time>
      </trkpt>
      <trkpt lat="45.8426" lon="7.02431">
        <ele>2309</ele>
        <time>2022-08-27T11:20:11Z</time>
      </trkpt>
      <trkpt lat="45.84261" lon="7.02435">
        <ele>2308</ele>
        <time>2022-08-27T11:20:13Z</time>
      </trkpt>
      <trkpt lat="45.84262" lon="7.02439">
        <ele>2308</ele>
        <time>2022-08-27T11:20:15Z</time>
      </trkpt>
      <trkpt lat="45.84265" lon="7.02443">
        <ele>2308</ele>
        <time>2022-08-27T11:20:17Z</time>
      </trkpt>
      <trkpt lat="45.84266" lon="7.02443">
        <ele>2307</ele>
        <time>2022-08-27T11:20:18Z</time>
      </trkpt>
      <trkpt lat="45.84267" lon="7.02445">
        <ele>2306</ele>
        <time>2022-08-27T11:20:19Z</time>
      </trkpt>
      <trkpt lat="45.84269" lon="7.02446">
        <ele>2306</ele>
        <time>2022-08-27T11:20:20Z</time>
      </trkpt>
      <trkpt lat="45.8427" lon="7.02448">
        <ele>2306</ele>
        <time>2022-08-27T11:20:21Z</time>
      </trkpt>
      <trkpt lat="45.84271" lon="7.0245">
        <ele>2306</ele>
        <time>2022-08-27T11:20:22Z</time>
      </trkpt>
      <trkpt lat="45.84274" lon="7.02453">
        <ele>2306</ele>
        <time>2022-08-27T11:20:24Z</time>
      </trkpt>
      <trkpt lat="45.84276" lon="7.02455">
        <ele>2304</ele>
        <time>2022-08-27T11:20:26Z</time>
      </trkpt>
      <trkpt lat="45.84279" lon="7.02458">
        <ele>2304</ele>
        <time>2022-08-27T11:20:28Z</time>
      </trkpt>
      <trkpt lat="45.84282" lon="7.0246">
        <ele>2304</ele>
        <time>2022-08-27T11:20:30Z</time>
      </trkpt>
      <trkpt lat="45.84283" lon="7.02461">
        <ele>2304</ele>
        <time>2022-08-27T11:20:31Z</time>
      </trkpt>
      <trkpt lat="45.84285" lon="7.02463">
        <ele>2304</ele>
        <time>2022-08-27T11:20:32Z</time>
      </trkpt>
      <trkpt lat="45.84286" lon="7.02466">
        <ele>2304</ele>
        <time>2022-08-27T11:20:33Z</time>
      </trkpt>
      <trkpt lat="45.84288" lon="7.02469">
        <ele>2304</ele>
        <time>2022-08-27T11:20:34Z</time>
      </trkpt>
      <trkpt lat="45.84289" lon="7.0247">
        <ele>2303</ele>
        <time>2022-08-27T11:20:35Z</time>
      </trkpt>
      <trkpt lat="45.8429" lon="7.02472">
        <ele>2303</ele>
        <time>2022-08-27T11:20:36Z</time>
      </trkpt>
      <trkpt lat="45.84291" lon="7.02474">
        <ele>2302</ele>
        <time>2022-08-27T11:20:37Z</time>
      </trkpt>
      <trkpt lat="45.84293" lon="7.02476">
        <ele>2302</ele>
        <time>2022-08-27T11:20:38Z</time>
      </trkpt>
      <trkpt lat="45.84294" lon="7.02477">
        <ele>2302</ele>
        <time>2022-08-27T11:20:39Z</time>
      </trkpt>
      <trkpt lat="45.84295" lon="7.02479">
        <ele>2301</ele>
        <time>2022-08-27T11:20:40Z</time>
      </trkpt>
      <trkpt lat="45.84297" lon="7.02483">
        <ele>2301</ele>
        <time>2022-08-27T11:20:41Z</time>
      </trkpt>
      <trkpt lat="45.84297" lon="7.02484">
        <ele>2301</ele>
        <time>2022-08-27T11:20:42Z</time>
      </trkpt>
      <trkpt lat="45.84298" lon="7.02486">
        <ele>2301</ele>
        <time>2022-08-27T11:20:43Z</time>
      </trkpt>
      <trkpt lat="45.843" lon="7.0249">
        <ele>2300</ele>
        <time>2022-08-27T11:20:45Z</time>
      </trkpt>
      <trkpt lat="45.84302" lon="7.02493">
        <ele>2300</ele>
        <time>2022-08-27T11:20:47Z</time>
      </trkpt>
      <trkpt lat="45.84303" lon="7.02495">
        <ele>2300</ele>
        <time>2022-08-27T11:20:48Z</time>
      </trkpt>
      <trkpt lat="45.84305" lon="7.02498">
        <ele>2300</ele>
        <time>2022-08-27T11:20:49Z</time>
      </trkpt>
      <trkpt lat="45.84306" lon="7.025">
        <ele>2300</ele>
        <time>2022-08-27T11:20:50Z</time>
      </trkpt>
      <trkpt lat="45.84308" lon="7.02503">
        <ele>2300</ele>
        <time>2022-08-27T11:20:51Z</time>
      </trkpt>
      <trkpt lat="45.84308" lon="7.02505">
        <ele>2300</ele>
        <time>2022-08-27T11:20:52Z</time>
      </trkpt>
      <trkpt lat="45.84309" lon="7.02507">
        <ele>2300</ele>
        <time>2022-08-27T11:20:53Z</time>
      </trkpt>
      <trkpt lat="45.8431" lon="7.02509">
        <ele>2300</ele>
        <time>2022-08-27T11:20:54Z</time>
      </trkpt>
      <trkpt lat="45.84312" lon="7.02511">
        <ele>2300</ele>
        <time>2022-08-27T11:20:55Z</time>
      </trkpt>
      <trkpt lat="45.84314" lon="7.02514">
        <ele>2300</ele>
        <time>2022-08-27T11:20:57Z</time>
      </trkpt>
      <trkpt lat="45.84317" lon="7.02516">
        <ele>2300</ele>
        <time>2022-08-27T11:20:59Z</time>
      </trkpt>
      <trkpt lat="45.84319" lon="7.02516">
        <ele>2300</ele>
        <time>2022-08-27T11:21:01Z</time>
      </trkpt>
      <trkpt lat="45.84323" lon="7.02516">
        <ele>2300</ele>
        <time>2022-08-27T11:21:03Z</time>
      </trkpt>
      <trkpt lat="45.84325" lon="7.02516">
        <ele>2300</ele>
        <time>2022-08-27T11:21:04Z</time>
      </trkpt>
      <trkpt lat="45.84327" lon="7.02516">
        <ele>2300</ele>
        <time>2022-08-27T11:21:05Z</time>
      </trkpt>
      <trkpt lat="45.84328" lon="7.02517">
        <ele>2300</ele>
        <time>2022-08-27T11:21:06Z</time>
      </trkpt>
      <trkpt lat="45.8433" lon="7.02518">
        <ele>2300</ele>
        <time>2022-08-27T11:21:07Z</time>
      </trkpt>
      <trkpt lat="45.84332" lon="7.02519">
        <ele>2298</ele>
        <time>2022-08-27T11:21:08Z</time>
      </trkpt>
      <trkpt lat="45.84333" lon="7.02521">
        <ele>2298</ele>
        <time>2022-08-27T11:21:09Z</time>
      </trkpt>
      <trkpt lat="45.84335" lon="7.02522">
        <ele>2298</ele>
        <time>2022-08-27T11:21:10Z</time>
      </trkpt>
      <trkpt lat="45.84337" lon="7.02524">
        <ele>2298</ele>
        <time>2022-08-27T11:21:11Z</time>
      </trkpt>
      <trkpt lat="45.84339" lon="7.02525">
        <ele>2298</ele>
        <time>2022-08-27T11:21:12Z</time>
      </trkpt>
      <trkpt lat="45.84341" lon="7.02527">
        <ele>2297</ele>
        <time>2022-08-27T11:21:13Z</time>
      </trkpt>
      <trkpt lat="45.84342" lon="7.02528">
        <ele>2297</ele>
        <time>2022-08-27T11:21:14Z</time>
      </trkpt>
      <trkpt lat="45.84346" lon="7.02532">
        <ele>2297</ele>
        <time>2022-08-27T11:21:16Z</time>
      </trkpt>
      <trkpt lat="45.84347" lon="7.02533">
        <ele>2297</ele>
        <time>2022-08-27T11:21:17Z</time>
      </trkpt>
      <trkpt lat="45.8435" lon="7.02536">
        <ele>2296</ele>
        <time>2022-08-27T11:21:19Z</time>
      </trkpt>
      <trkpt lat="45.84352" lon="7.02539">
        <ele>2296</ele>
        <time>2022-08-27T11:21:21Z</time>
      </trkpt>
      <trkpt lat="45.84354" lon="7.02542">
        <ele>2296</ele>
        <time>2022-08-27T11:21:23Z</time>
      </trkpt>
      <trkpt lat="45.84356" lon="7.02545">
        <ele>2295</ele>
        <time>2022-08-27T11:21:25Z</time>
      </trkpt>
      <trkpt lat="45.84357" lon="7.0255">
        <ele>2294</ele>
        <time>2022-08-27T11:21:27Z</time>
      </trkpt>
      <trkpt lat="45.84358" lon="7.02552">
        <ele>2294</ele>
        <time>2022-08-27T11:21:28Z</time>
      </trkpt>
      <trkpt lat="45.84361" lon="7.02555">
        <ele>2293</ele>
        <time>2022-08-27T11:21:30Z</time>
      </trkpt>
      <trkpt lat="45.84362" lon="7.02556">
        <ele>2293</ele>
        <time>2022-08-27T11:21:32Z</time>
      </trkpt>
      <trkpt lat="45.84365" lon="7.02558">
        <ele>2292</ele>
        <time>2022-08-27T11:21:34Z</time>
      </trkpt>
      <trkpt lat="45.84367" lon="7.02559">
        <ele>2292</ele>
        <time>2022-08-27T11:21:36Z</time>
      </trkpt>
      <trkpt lat="45.8437" lon="7.02559">
        <ele>2289</ele>
        <time>2022-08-27T11:21:41Z</time>
      </trkpt>
      <trkpt lat="45.84372" lon="7.0256">
        <ele>2289</ele>
        <time>2022-08-27T11:21:42Z</time>
      </trkpt>
      <trkpt lat="45.84375" lon="7.02562">
        <ele>2289</ele>
        <time>2022-08-27T11:21:44Z</time>
      </trkpt>
      <trkpt lat="45.84378" lon="7.02564">
        <ele>2289</ele>
        <time>2022-08-27T11:21:46Z</time>
      </trkpt>
      <trkpt lat="45.8438" lon="7.02566">
        <ele>2289</ele>
        <time>2022-08-27T11:21:48Z</time>
      </trkpt>
      <trkpt lat="45.84382" lon="7.02568">
        <ele>2289</ele>
        <time>2022-08-27T11:21:50Z</time>
      </trkpt>
      <trkpt lat="45.84384" lon="7.0257">
        <ele>2289</ele>
        <time>2022-08-27T11:21:52Z</time>
      </trkpt>
      <trkpt lat="45.84386" lon="7.02572">
        <ele>2289</ele>
        <time>2022-08-27T11:21:54Z</time>
      </trkpt>
      <trkpt lat="45.84389" lon="7.02574">
        <ele>2289</ele>
        <time>2022-08-27T11:21:56Z</time>
      </trkpt>
      <trkpt lat="45.84392" lon="7.02575">
        <ele>2289</ele>
        <time>2022-08-27T11:21:58Z</time>
      </trkpt>
      <trkpt lat="45.84394" lon="7.02577">
        <ele>2290</ele>
        <time>2022-08-27T11:22:00Z</time>
      </trkpt>
      <trkpt lat="45.84396" lon="7.02579">
        <ele>2290</ele>
        <time>2022-08-27T11:22:02Z</time>
      </trkpt>
      <trkpt lat="45.84398" lon="7.02581">
        <ele>2290</ele>
        <time>2022-08-27T11:22:04Z</time>
      </trkpt>
      <trkpt lat="45.844" lon="7.02583">
        <ele>2290</ele>
        <time>2022-08-27T11:22:06Z</time>
      </trkpt>
      <trkpt lat="45.84402" lon="7.02584">
        <ele>2290</ele>
        <time>2022-08-27T11:22:08Z</time>
      </trkpt>
      <trkpt lat="45.84404" lon="7.02586">
        <ele>2290</ele>
        <time>2022-08-27T11:22:10Z</time>
      </trkpt>
      <trkpt lat="45.84406" lon="7.02586">
        <ele>2290</ele>
        <time>2022-08-27T11:22:12Z</time>
      </trkpt>
      <trkpt lat="45.84408" lon="7.02587">
        <ele>2290</ele>
        <time>2022-08-27T11:22:14Z</time>
      </trkpt>
      <trkpt lat="45.84411" lon="7.02587">
        <ele>2291</ele>
        <time>2022-08-27T11:22:16Z</time>
      </trkpt>
      <trkpt lat="45.84414" lon="7.02587">
        <ele>2291</ele>
        <time>2022-08-27T11:22:18Z</time>
      </trkpt>
      <trkpt lat="45.84416" lon="7.02588">
        <ele>2291</ele>
        <time>2022-08-27T11:22:20Z</time>
      </trkpt>
      <trkpt lat="45.84418" lon="7.02588">
        <ele>2291</ele>
        <time>2022-08-27T11:22:22Z</time>
      </trkpt>
      <trkpt lat="45.84421" lon="7.02589">
        <ele>2290</ele>
        <time>2022-08-27T11:22:24Z</time>
      </trkpt>
      <trkpt lat="45.84424" lon="7.0259">
        <ele>2291</ele>
        <time>2022-08-27T11:22:26Z</time>
      </trkpt>
      <trkpt lat="45.84426" lon="7.0259">
        <ele>2291</ele>
        <time>2022-08-27T11:22:28Z</time>
      </trkpt>
      <trkpt lat="45.84428" lon="7.02591">
        <ele>2291</ele>
        <time>2022-08-27T11:22:30Z</time>
      </trkpt>
      <trkpt lat="45.84431" lon="7.02591">
        <ele>2291</ele>
        <time>2022-08-27T11:22:33Z</time>
      </trkpt>
      <trkpt lat="45.84433" lon="7.02593">
        <ele>2291</ele>
        <time>2022-08-27T11:22:35Z</time>
      </trkpt>
      <trkpt lat="45.84435" lon="7.02595">
        <ele>2291</ele>
        <time>2022-08-27T11:22:37Z</time>
      </trkpt>
      <trkpt lat="45.84437" lon="7.02597">
        <ele>2292</ele>
        <time>2022-08-27T11:22:39Z</time>
      </trkpt>
      <trkpt lat="45.84439" lon="7.02599">
        <ele>2291</ele>
        <time>2022-08-27T11:22:41Z</time>
      </trkpt>
      <trkpt lat="45.84441" lon="7.02601">
        <ele>2292</ele>
        <time>2022-08-27T11:22:43Z</time>
      </trkpt>
      <trkpt lat="45.84443" lon="7.02604">
        <ele>2292</ele>
        <time>2022-08-27T11:22:45Z</time>
      </trkpt>
      <trkpt lat="45.84446" lon="7.02606">
        <ele>2292</ele>
        <time>2022-08-27T11:22:47Z</time>
      </trkpt>
      <trkpt lat="45.84448" lon="7.02609">
        <ele>2292</ele>
        <time>2022-08-27T11:22:49Z</time>
      </trkpt>
      <trkpt lat="45.8445" lon="7.02611">
        <ele>2292</ele>
        <time>2022-08-27T11:22:51Z</time>
      </trkpt>
      <trkpt lat="45.84452" lon="7.02613">
        <ele>2292</ele>
        <time>2022-08-27T11:22:53Z</time>
      </trkpt>
      <trkpt lat="45.84454" lon="7.02616">
        <ele>2292</ele>
        <time>2022-08-27T11:22:56Z</time>
      </trkpt>
      <trkpt lat="45.84455" lon="7.02619">
        <ele>2292</ele>
        <time>2022-08-27T11:22:59Z</time>
      </trkpt>
      <trkpt lat="45.84457" lon="7.02621">
        <ele>2292</ele>
        <time>2022-08-27T11:23:01Z</time>
      </trkpt>
      <trkpt lat="45.84458" lon="7.02624">
        <ele>2291</ele>
        <time>2022-08-27T11:23:03Z</time>
      </trkpt>
      <trkpt lat="45.84459" lon="7.02627">
        <ele>2291</ele>
        <time>2022-08-27T11:23:05Z</time>
      </trkpt>
      <trkpt lat="45.84461" lon="7.0263">
        <ele>2291</ele>
        <time>2022-08-27T11:23:07Z</time>
      </trkpt>
      <trkpt lat="45.84462" lon="7.02633">
        <ele>2291</ele>
        <time>2022-08-27T11:23:09Z</time>
      </trkpt>
      <trkpt lat="45.84465" lon="7.02637">
        <ele>2291</ele>
        <time>2022-08-27T11:23:11Z</time>
      </trkpt>
      <trkpt lat="45.84466" lon="7.0264">
        <ele>2291</ele>
        <time>2022-08-27T11:23:13Z</time>
      </trkpt>
      <trkpt lat="45.84467" lon="7.02644">
        <ele>2292</ele>
        <time>2022-08-27T11:23:17Z</time>
      </trkpt>
      <trkpt lat="45.84469" lon="7.02647">
        <ele>2292</ele>
        <time>2022-08-27T11:23:19Z</time>
      </trkpt>
      <trkpt lat="45.84471" lon="7.0265">
        <ele>2294</ele>
        <time>2022-08-27T11:23:22Z</time>
      </trkpt>
      <trkpt lat="45.84473" lon="7.02651">
        <ele>2294</ele>
        <time>2022-08-27T11:23:25Z</time>
      </trkpt>
      <trkpt lat="45.84476" lon="7.02652">
        <ele>2294</ele>
        <time>2022-08-27T11:23:27Z</time>
      </trkpt>
      <trkpt lat="45.84478" lon="7.02654">
        <ele>2294</ele>
        <time>2022-08-27T11:23:29Z</time>
      </trkpt>
      <trkpt lat="45.8448" lon="7.02656">
        <ele>2294</ele>
        <time>2022-08-27T11:23:31Z</time>
      </trkpt>
      <trkpt lat="45.84482" lon="7.02658">
        <ele>2294</ele>
        <time>2022-08-27T11:23:33Z</time>
      </trkpt>
      <trkpt lat="45.84484" lon="7.02661">
        <ele>2294</ele>
        <time>2022-08-27T11:23:35Z</time>
      </trkpt>
      <trkpt lat="45.84486" lon="7.02663">
        <ele>2295</ele>
        <time>2022-08-27T11:23:37Z</time>
      </trkpt>
      <trkpt lat="45.84487" lon="7.02665">
        <ele>2295</ele>
        <time>2022-08-27T11:23:39Z</time>
      </trkpt>
      <trkpt lat="45.84488" lon="7.02668">
        <ele>2295</ele>
        <time>2022-08-27T11:23:41Z</time>
      </trkpt>
      <trkpt lat="45.84489" lon="7.0267">
        <ele>2296</ele>
        <time>2022-08-27T11:23:44Z</time>
      </trkpt>
      <trkpt lat="45.84491" lon="7.02672">
        <ele>2296</ele>
        <time>2022-08-27T11:23:46Z</time>
      </trkpt>
      <trkpt lat="45.84493" lon="7.02674">
        <ele>2296</ele>
        <time>2022-08-27T11:23:49Z</time>
      </trkpt>
      <trkpt lat="45.84494" lon="7.02676">
        <ele>2296</ele>
        <time>2022-08-27T11:23:51Z</time>
      </trkpt>
      <trkpt lat="45.84496" lon="7.0268">
        <ele>2297</ele>
        <time>2022-08-27T11:23:54Z</time>
      </trkpt>
      <trkpt lat="45.84498" lon="7.02683">
        <ele>2297</ele>
        <time>2022-08-27T11:23:56Z</time>
      </trkpt>
      <trkpt lat="45.84499" lon="7.02685">
        <ele>2297</ele>
        <time>2022-08-27T11:23:58Z</time>
      </trkpt>
      <trkpt lat="45.84501" lon="7.02689">
        <ele>2297</ele>
        <time>2022-08-27T11:24:00Z</time>
      </trkpt>
      <trkpt lat="45.84502" lon="7.02692">
        <ele>2297</ele>
        <time>2022-08-27T11:24:02Z</time>
      </trkpt>
      <trkpt lat="45.84503" lon="7.02694">
        <ele>2297</ele>
        <time>2022-08-27T11:24:04Z</time>
      </trkpt>
      <trkpt lat="45.84505" lon="7.02696">
        <ele>2298</ele>
        <time>2022-08-27T11:24:06Z</time>
      </trkpt>
      <trkpt lat="45.84506" lon="7.02697">
        <ele>2298</ele>
        <time>2022-08-27T11:24:08Z</time>
      </trkpt>
      <trkpt lat="45.84508" lon="7.02698">
        <ele>2300</ele>
        <time>2022-08-27T11:24:10Z</time>
      </trkpt>
      <trkpt lat="45.8451" lon="7.027">
        <ele>2300</ele>
        <time>2022-08-27T11:24:12Z</time>
      </trkpt>
      <trkpt lat="45.84512" lon="7.02702">
        <ele>2300</ele>
        <time>2022-08-27T11:24:14Z</time>
      </trkpt>
      <trkpt lat="45.84514" lon="7.02705">
        <ele>2300</ele>
        <time>2022-08-27T11:24:16Z</time>
      </trkpt>
      <trkpt lat="45.84516" lon="7.02708">
        <ele>2300</ele>
        <time>2022-08-27T11:24:18Z</time>
      </trkpt>
      <trkpt lat="45.84517" lon="7.0271">
        <ele>2300</ele>
        <time>2022-08-27T11:24:20Z</time>
      </trkpt>
      <trkpt lat="45.84519" lon="7.02712">
        <ele>2300</ele>
        <time>2022-08-27T11:24:22Z</time>
      </trkpt>
      <trkpt lat="45.8452" lon="7.02714">
        <ele>2300</ele>
        <time>2022-08-27T11:24:24Z</time>
      </trkpt>
      <trkpt lat="45.84522" lon="7.02716">
        <ele>2300</ele>
        <time>2022-08-27T11:24:26Z</time>
      </trkpt>
      <trkpt lat="45.84525" lon="7.02718">
        <ele>2300</ele>
        <time>2022-08-27T11:24:28Z</time>
      </trkpt>
      <trkpt lat="45.84527" lon="7.02721">
        <ele>2300</ele>
        <time>2022-08-27T11:24:30Z</time>
      </trkpt>
      <trkpt lat="45.84528" lon="7.02724">
        <ele>2300</ele>
        <time>2022-08-27T11:24:33Z</time>
      </trkpt>
      <trkpt lat="45.84531" lon="7.02725">
        <ele>2300</ele>
        <time>2022-08-27T11:24:35Z</time>
      </trkpt>
      <trkpt lat="45.84533" lon="7.02727">
        <ele>2300</ele>
        <time>2022-08-27T11:24:37Z</time>
      </trkpt>
      <trkpt lat="45.84535" lon="7.02729">
        <ele>2300</ele>
        <time>2022-08-27T11:24:39Z</time>
      </trkpt>
      <trkpt lat="45.84538" lon="7.02732">
        <ele>2298</ele>
        <time>2022-08-27T11:24:41Z</time>
      </trkpt>
      <trkpt lat="45.8454" lon="7.02735">
        <ele>2298</ele>
        <time>2022-08-27T11:24:43Z</time>
      </trkpt>
      <trkpt lat="45.84542" lon="7.02738">
        <ele>2298</ele>
        <time>2022-08-27T11:24:45Z</time>
      </trkpt>
      <trkpt lat="45.84543" lon="7.02741">
        <ele>2298</ele>
        <time>2022-08-27T11:24:47Z</time>
      </trkpt>
      <trkpt lat="45.84545" lon="7.02744">
        <ele>2298</ele>
        <time>2022-08-27T11:24:49Z</time>
      </trkpt>
      <trkpt lat="45.84546" lon="7.02747">
        <ele>2298</ele>
        <time>2022-08-27T11:24:51Z</time>
      </trkpt>
      <trkpt lat="45.84546" lon="7.0275">
        <ele>2298</ele>
        <time>2022-08-27T11:24:53Z</time>
      </trkpt>
      <trkpt lat="45.84546" lon="7.02754">
        <ele>2297</ele>
        <time>2022-08-27T11:24:55Z</time>
      </trkpt>
      <trkpt lat="45.84546" lon="7.02758">
        <ele>2297</ele>
        <time>2022-08-27T11:24:57Z</time>
      </trkpt>
      <trkpt lat="45.84546" lon="7.02761">
        <ele>2296</ele>
        <time>2022-08-27T11:25:00Z</time>
      </trkpt>
      <trkpt lat="45.84546" lon="7.02764">
        <ele>2298</ele>
        <time>2022-08-27T11:25:09Z</time>
      </trkpt>
      <trkpt lat="45.84546" lon="7.02764">
        <ele>2300</ele>
        <time>2022-08-27T11:25:14Z</time>
      </trkpt>
      <trkpt lat="45.84548" lon="7.02765">
        <ele>2300</ele>
        <time>2022-08-27T11:25:15Z</time>
      </trkpt>
      <trkpt lat="45.84551" lon="7.02766">
        <ele>2300</ele>
        <time>2022-08-27T11:25:17Z</time>
      </trkpt>
      <trkpt lat="45.84553" lon="7.02766">
        <ele>2300</ele>
        <time>2022-08-27T11:25:19Z</time>
      </trkpt>
      <trkpt lat="45.84556" lon="7.02766">
        <ele>2300</ele>
        <time>2022-08-27T11:25:21Z</time>
      </trkpt>
      <trkpt lat="45.84559" lon="7.02768">
        <ele>2300</ele>
        <time>2022-08-27T11:25:23Z</time>
      </trkpt>
      <trkpt lat="45.8456" lon="7.02769">
        <ele>2300</ele>
        <time>2022-08-27T11:25:24Z</time>
      </trkpt>
      <trkpt lat="45.84562" lon="7.02771">
        <ele>2300</ele>
        <time>2022-08-27T11:25:26Z</time>
      </trkpt>
      <trkpt lat="45.84564" lon="7.0277">
        <ele>2301</ele>
        <time>2022-08-27T11:25:29Z</time>
      </trkpt>
      <trkpt lat="45.84567" lon="7.02771">
        <ele>2301</ele>
        <time>2022-08-27T11:25:31Z</time>
      </trkpt>
      <trkpt lat="45.84569" lon="7.02773">
        <ele>2301</ele>
        <time>2022-08-27T11:25:33Z</time>
      </trkpt>
      <trkpt lat="45.84571" lon="7.02774">
        <ele>2301</ele>
        <time>2022-08-27T11:25:34Z</time>
      </trkpt>
      <trkpt lat="45.84573" lon="7.02777">
        <ele>2301</ele>
        <time>2022-08-27T11:25:36Z</time>
      </trkpt>
      <trkpt lat="45.84576" lon="7.0278">
        <ele>2301</ele>
        <time>2022-08-27T11:25:38Z</time>
      </trkpt>
      <trkpt lat="45.84578" lon="7.02784">
        <ele>2301</ele>
        <time>2022-08-27T11:25:40Z</time>
      </trkpt>
      <trkpt lat="45.84581" lon="7.02786">
        <ele>2301</ele>
        <time>2022-08-27T11:25:42Z</time>
      </trkpt>
      <trkpt lat="45.84583" lon="7.02789">
        <ele>2301</ele>
        <time>2022-08-27T11:25:44Z</time>
      </trkpt>
      <trkpt lat="45.84585" lon="7.02792">
        <ele>2301</ele>
        <time>2022-08-27T11:25:46Z</time>
      </trkpt>
      <trkpt lat="45.84586" lon="7.02796">
        <ele>2301</ele>
        <time>2022-08-27T11:25:48Z</time>
      </trkpt>
      <trkpt lat="45.84587" lon="7.028">
        <ele>2301</ele>
        <time>2022-08-27T11:25:50Z</time>
      </trkpt>
      <trkpt lat="45.84588" lon="7.02803">
        <ele>2302</ele>
        <time>2022-08-27T11:25:52Z</time>
      </trkpt>
      <trkpt lat="45.8459" lon="7.02805">
        <ele>2302</ele>
        <time>2022-08-27T11:25:54Z</time>
      </trkpt>
      <trkpt lat="45.84592" lon="7.02807">
        <ele>2302</ele>
        <time>2022-08-27T11:25:56Z</time>
      </trkpt>
      <trkpt lat="45.84594" lon="7.02809">
        <ele>2302</ele>
        <time>2022-08-27T11:25:58Z</time>
      </trkpt>
      <trkpt lat="45.84595" lon="7.0281">
        <ele>2302</ele>
        <time>2022-08-27T11:26:00Z</time>
      </trkpt>
      <trkpt lat="45.84597" lon="7.02812">
        <ele>2302</ele>
        <time>2022-08-27T11:26:02Z</time>
      </trkpt>
      <trkpt lat="45.84599" lon="7.02814">
        <ele>2302</ele>
        <time>2022-08-27T11:26:04Z</time>
      </trkpt>
      <trkpt lat="45.846" lon="7.02817">
        <ele>2302</ele>
        <time>2022-08-27T11:26:06Z</time>
      </trkpt>
      <trkpt lat="45.84601" lon="7.02819">
        <ele>2302</ele>
        <time>2022-08-27T11:26:08Z</time>
      </trkpt>
      <trkpt lat="45.84603" lon="7.02821">
        <ele>2302</ele>
        <time>2022-08-27T11:26:10Z</time>
      </trkpt>
      <trkpt lat="45.84605" lon="7.02823">
        <ele>2302</ele>
        <time>2022-08-27T11:26:12Z</time>
      </trkpt>
      <trkpt lat="45.84607" lon="7.02825">
        <ele>2303</ele>
        <time>2022-08-27T11:26:14Z</time>
      </trkpt>
      <trkpt lat="45.84609" lon="7.02827">
        <ele>2303</ele>
        <time>2022-08-27T11:26:16Z</time>
      </trkpt>
      <trkpt lat="45.8461" lon="7.02831">
        <ele>2304</ele>
        <time>2022-08-27T11:26:18Z</time>
      </trkpt>
      <trkpt lat="45.84612" lon="7.02834">
        <ele>2304</ele>
        <time>2022-08-27T11:26:20Z</time>
      </trkpt>
      <trkpt lat="45.84614" lon="7.02838">
        <ele>2304</ele>
        <time>2022-08-27T11:26:22Z</time>
      </trkpt>
      <trkpt lat="45.84615" lon="7.0284">
        <ele>2304</ele>
        <time>2022-08-27T11:26:24Z</time>
      </trkpt>
      <trkpt lat="45.84616" lon="7.02843">
        <ele>2304</ele>
        <time>2022-08-27T11:26:26Z</time>
      </trkpt>
      <trkpt lat="45.84618" lon="7.02845">
        <ele>2304</ele>
        <time>2022-08-27T11:26:28Z</time>
      </trkpt>
      <trkpt lat="45.8462" lon="7.02848">
        <ele>2304</ele>
        <time>2022-08-27T11:26:30Z</time>
      </trkpt>
      <trkpt lat="45.84622" lon="7.0285">
        <ele>2303</ele>
        <time>2022-08-27T11:26:32Z</time>
      </trkpt>
      <trkpt lat="45.84625" lon="7.02853">
        <ele>2303</ele>
        <time>2022-08-27T11:26:34Z</time>
      </trkpt>
      <trkpt lat="45.84626" lon="7.02855">
        <ele>2303</ele>
        <time>2022-08-27T11:26:36Z</time>
      </trkpt>
      <trkpt lat="45.84628" lon="7.02858">
        <ele>2303</ele>
        <time>2022-08-27T11:26:38Z</time>
      </trkpt>
      <trkpt lat="45.8463" lon="7.0286">
        <ele>2303</ele>
        <time>2022-08-27T11:26:50Z</time>
      </trkpt>
      <trkpt lat="45.8463" lon="7.0286">
        <ele>2303</ele>
        <time>2022-08-27T11:26:56Z</time>
      </trkpt>
      <trkpt lat="45.84632" lon="7.0286">
        <ele>2303</ele>
        <time>2022-08-27T11:27:02Z</time>
      </trkpt>
      <trkpt lat="45.84634" lon="7.02861">
        <ele>2303</ele>
        <time>2022-08-27T11:27:05Z</time>
      </trkpt>
      <trkpt lat="45.84636" lon="7.02863">
        <ele>2303</ele>
        <time>2022-08-27T11:27:07Z</time>
      </trkpt>
      <trkpt lat="45.84638" lon="7.02865">
        <ele>2303</ele>
        <time>2022-08-27T11:27:09Z</time>
      </trkpt>
      <trkpt lat="45.8464" lon="7.02867">
        <ele>2303</ele>
        <time>2022-08-27T11:27:11Z</time>
      </trkpt>
      <trkpt lat="45.84643" lon="7.02869">
        <ele>2304</ele>
        <time>2022-08-27T11:27:13Z</time>
      </trkpt>
      <trkpt lat="45.84645" lon="7.02871">
        <ele>2303</ele>
        <time>2022-08-27T11:27:15Z</time>
      </trkpt>
      <trkpt lat="45.84647" lon="7.02873">
        <ele>2304</ele>
        <time>2022-08-27T11:27:17Z</time>
      </trkpt>
      <trkpt lat="45.8465" lon="7.02875">
        <ele>2304</ele>
        <time>2022-08-27T11:27:19Z</time>
      </trkpt>
      <trkpt lat="45.84652" lon="7.02877">
        <ele>2304</ele>
        <time>2022-08-27T11:27:21Z</time>
      </trkpt>
      <trkpt lat="45.84654" lon="7.02879">
        <ele>2305</ele>
        <time>2022-08-27T11:27:23Z</time>
      </trkpt>
      <trkpt lat="45.84657" lon="7.02881">
        <ele>2305</ele>
        <time>2022-08-27T11:27:25Z</time>
      </trkpt>
      <trkpt lat="45.84659" lon="7.02883">
        <ele>2304</ele>
        <time>2022-08-27T11:27:27Z</time>
      </trkpt>
      <trkpt lat="45.84662" lon="7.02885">
        <ele>2304</ele>
        <time>2022-08-27T11:27:29Z</time>
      </trkpt>
      <trkpt lat="45.84664" lon="7.02888">
        <ele>2304</ele>
        <time>2022-08-27T11:27:31Z</time>
      </trkpt>
      <trkpt lat="45.84666" lon="7.02891">
        <ele>2304</ele>
        <time>2022-08-27T11:27:33Z</time>
      </trkpt>
      <trkpt lat="45.84668" lon="7.02894">
        <ele>2304</ele>
        <time>2022-08-27T11:27:35Z</time>
      </trkpt>
      <trkpt lat="45.8467" lon="7.02896">
        <ele>2304</ele>
        <time>2022-08-27T11:27:37Z</time>
      </trkpt>
      <trkpt lat="45.84672" lon="7.029">
        <ele>2304</ele>
        <time>2022-08-27T11:27:39Z</time>
      </trkpt>
      <trkpt lat="45.84673" lon="7.02904">
        <ele>2304</ele>
        <time>2022-08-27T11:27:41Z</time>
      </trkpt>
      <trkpt lat="45.84674" lon="7.02906">
        <ele>2303</ele>
        <time>2022-08-27T11:27:43Z</time>
      </trkpt>
      <trkpt lat="45.84676" lon="7.02909">
        <ele>2304</ele>
        <time>2022-08-27T11:27:45Z</time>
      </trkpt>
      <trkpt lat="45.84676" lon="7.02912">
        <ele>2304</ele>
        <time>2022-08-27T11:27:47Z</time>
      </trkpt>
      <trkpt lat="45.84678" lon="7.02915">
        <ele>2305</ele>
        <time>2022-08-27T11:27:51Z</time>
      </trkpt>
      <trkpt lat="45.84679" lon="7.02916">
        <ele>2305</ele>
        <time>2022-08-27T11:27:53Z</time>
      </trkpt>
      <trkpt lat="45.84682" lon="7.02916">
        <ele>2305</ele>
        <time>2022-08-27T11:27:56Z</time>
      </trkpt>
      <trkpt lat="45.84684" lon="7.02917">
        <ele>2305</ele>
        <time>2022-08-27T11:27:58Z</time>
      </trkpt>
      <trkpt lat="45.84685" lon="7.0292">
        <ele>2305</ele>
        <time>2022-08-27T11:28:00Z</time>
      </trkpt>
      <trkpt lat="45.84686" lon="7.02922">
        <ele>2305</ele>
        <time>2022-08-27T11:28:02Z</time>
      </trkpt>
      <trkpt lat="45.84687" lon="7.02925">
        <ele>2306</ele>
        <time>2022-08-27T11:28:04Z</time>
      </trkpt>
      <trkpt lat="45.84687" lon="7.02929">
        <ele>2306</ele>
        <time>2022-08-27T11:28:06Z</time>
      </trkpt>
      <trkpt lat="45.84688" lon="7.02932">
        <ele>2306</ele>
        <time>2022-08-27T11:28:08Z</time>
      </trkpt>
      <trkpt lat="45.84689" lon="7.02934">
        <ele>2307</ele>
        <time>2022-08-27T11:28:10Z</time>
      </trkpt>
      <trkpt lat="45.84689" lon="7.02937">
        <ele>2307</ele>
        <time>2022-08-27T11:28:12Z</time>
      </trkpt>
      <trkpt lat="45.84692" lon="7.0294">
        <ele>2306</ele>
        <time>2022-08-27T11:28:14Z</time>
      </trkpt>
      <trkpt lat="45.84693" lon="7.02942">
        <ele>2306</ele>
        <time>2022-08-27T11:28:16Z</time>
      </trkpt>
      <trkpt lat="45.84695" lon="7.02944">
        <ele>2307</ele>
        <time>2022-08-27T11:28:18Z</time>
      </trkpt>
      <trkpt lat="45.84697" lon="7.02946">
        <ele>2307</ele>
        <time>2022-08-27T11:28:20Z</time>
      </trkpt>
      <trkpt lat="45.84698" lon="7.02949">
        <ele>2307</ele>
        <time>2022-08-27T11:28:22Z</time>
      </trkpt>
      <trkpt lat="45.847" lon="7.02951">
        <ele>2307</ele>
        <time>2022-08-27T11:28:24Z</time>
      </trkpt>
      <trkpt lat="45.84702" lon="7.02953">
        <ele>2308</ele>
        <time>2022-08-27T11:28:26Z</time>
      </trkpt>
      <trkpt lat="45.84703" lon="7.02955">
        <ele>2308</ele>
        <time>2022-08-27T11:28:28Z</time>
      </trkpt>
      <trkpt lat="45.84705" lon="7.02958">
        <ele>2308</ele>
        <time>2022-08-27T11:28:31Z</time>
      </trkpt>
      <trkpt lat="45.84707" lon="7.0296">
        <ele>2308</ele>
        <time>2022-08-27T11:28:33Z</time>
      </trkpt>
      <trkpt lat="45.84708" lon="7.02962">
        <ele>2308</ele>
        <time>2022-08-27T11:28:35Z</time>
      </trkpt>
      <trkpt lat="45.84709" lon="7.02965">
        <ele>2309</ele>
        <time>2022-08-27T11:28:38Z</time>
      </trkpt>
      <trkpt lat="45.8471" lon="7.02967">
        <ele>2309</ele>
        <time>2022-08-27T11:28:40Z</time>
      </trkpt>
      <trkpt lat="45.84712" lon="7.02969">
        <ele>2309</ele>
        <time>2022-08-27T11:28:42Z</time>
      </trkpt>
      <trkpt lat="45.84714" lon="7.02971">
        <ele>2309</ele>
        <time>2022-08-27T11:28:44Z</time>
      </trkpt>
      <trkpt lat="45.84716" lon="7.02972">
        <ele>2309</ele>
        <time>2022-08-27T11:28:46Z</time>
      </trkpt>
      <trkpt lat="45.84717" lon="7.02974">
        <ele>2309</ele>
        <time>2022-08-27T11:28:48Z</time>
      </trkpt>
      <trkpt lat="45.84719" lon="7.02976">
        <ele>2310</ele>
        <time>2022-08-27T11:28:50Z</time>
      </trkpt>
      <trkpt lat="45.8472" lon="7.02978">
        <ele>2310</ele>
        <time>2022-08-27T11:28:52Z</time>
      </trkpt>
      <trkpt lat="45.84722" lon="7.0298">
        <ele>2310</ele>
        <time>2022-08-27T11:28:54Z</time>
      </trkpt>
      <trkpt lat="45.84723" lon="7.02982">
        <ele>2310</ele>
        <time>2022-08-27T11:28:56Z</time>
      </trkpt>
      <trkpt lat="45.84725" lon="7.02984">
        <ele>2311</ele>
        <time>2022-08-27T11:28:58Z</time>
      </trkpt>
      <trkpt lat="45.84726" lon="7.02986">
        <ele>2311</ele>
        <time>2022-08-27T11:29:00Z</time>
      </trkpt>
      <trkpt lat="45.84728" lon="7.02989">
        <ele>2311</ele>
        <time>2022-08-27T11:29:03Z</time>
      </trkpt>
      <trkpt lat="45.8473" lon="7.02992">
        <ele>2312</ele>
        <time>2022-08-27T11:29:06Z</time>
      </trkpt>
      <trkpt lat="45.84731" lon="7.02994">
        <ele>2313</ele>
        <time>2022-08-27T11:29:08Z</time>
      </trkpt>
      <trkpt lat="45.84732" lon="7.02997">
        <ele>2313</ele>
        <time>2022-08-27T11:29:11Z</time>
      </trkpt>
      <trkpt lat="45.84733" lon="7.02999">
        <ele>2314</ele>
        <time>2022-08-27T11:29:13Z</time>
      </trkpt>
      <trkpt lat="45.84735" lon="7.03002">
        <ele>2314</ele>
        <time>2022-08-27T11:29:15Z</time>
      </trkpt>
      <trkpt lat="45.84736" lon="7.03005">
        <ele>2315</ele>
        <time>2022-08-27T11:29:17Z</time>
      </trkpt>
      <trkpt lat="45.84736" lon="7.03008">
        <ele>2315</ele>
        <time>2022-08-27T11:29:19Z</time>
      </trkpt>
      <trkpt lat="45.84737" lon="7.03011">
        <ele>2315</ele>
        <time>2022-08-27T11:29:21Z</time>
      </trkpt>
      <trkpt lat="45.84738" lon="7.03014">
        <ele>2314</ele>
        <time>2022-08-27T11:29:23Z</time>
      </trkpt>
      <trkpt lat="45.84739" lon="7.03016">
        <ele>2314</ele>
        <time>2022-08-27T11:29:25Z</time>
      </trkpt>
      <trkpt lat="45.84741" lon="7.03018">
        <ele>2314</ele>
        <time>2022-08-27T11:29:27Z</time>
      </trkpt>
      <trkpt lat="45.84743" lon="7.03019">
        <ele>2314</ele>
        <time>2022-08-27T11:29:29Z</time>
      </trkpt>
      <trkpt lat="45.84745" lon="7.0302">
        <ele>2314</ele>
        <time>2022-08-27T11:29:31Z</time>
      </trkpt>
      <trkpt lat="45.84747" lon="7.03023">
        <ele>2314</ele>
        <time>2022-08-27T11:29:33Z</time>
      </trkpt>
      <trkpt lat="45.84749" lon="7.03026">
        <ele>2314</ele>
        <time>2022-08-27T11:29:35Z</time>
      </trkpt>
      <trkpt lat="45.8475" lon="7.03029">
        <ele>2314</ele>
        <time>2022-08-27T11:29:37Z</time>
      </trkpt>
      <trkpt lat="45.84752" lon="7.03033">
        <ele>2314</ele>
        <time>2022-08-27T11:29:39Z</time>
      </trkpt>
      <trkpt lat="45.84753" lon="7.03036">
        <ele>2314</ele>
        <time>2022-08-27T11:29:41Z</time>
      </trkpt>
      <trkpt lat="45.84755" lon="7.03039">
        <ele>2314</ele>
        <time>2022-08-27T11:29:43Z</time>
      </trkpt>
      <trkpt lat="45.84756" lon="7.03042">
        <ele>2314</ele>
        <time>2022-08-27T11:29:45Z</time>
      </trkpt>
      <trkpt lat="45.84758" lon="7.03044">
        <ele>2314</ele>
        <time>2022-08-27T11:29:47Z</time>
      </trkpt>
      <trkpt lat="45.84761" lon="7.03044">
        <ele>2314</ele>
        <time>2022-08-27T11:29:49Z</time>
      </trkpt>
      <trkpt lat="45.84763" lon="7.03044">
        <ele>2314</ele>
        <time>2022-08-27T11:29:51Z</time>
      </trkpt>
      <trkpt lat="45.84766" lon="7.03044">
        <ele>2314</ele>
        <time>2022-08-27T11:29:53Z</time>
      </trkpt>
      <trkpt lat="45.84768" lon="7.03045">
        <ele>2315</ele>
        <time>2022-08-27T11:29:55Z</time>
      </trkpt>
      <trkpt lat="45.84769" lon="7.03046">
        <ele>2315</ele>
        <time>2022-08-27T11:29:57Z</time>
      </trkpt>
      <trkpt lat="45.84771" lon="7.03047">
        <ele>2315</ele>
        <time>2022-08-27T11:29:59Z</time>
      </trkpt>
      <trkpt lat="45.84774" lon="7.03048">
        <ele>2315</ele>
        <time>2022-08-27T11:30:01Z</time>
      </trkpt>
      <trkpt lat="45.84776" lon="7.0305">
        <ele>2315</ele>
        <time>2022-08-27T11:30:03Z</time>
      </trkpt>
      <trkpt lat="45.84777" lon="7.03052">
        <ele>2315</ele>
        <time>2022-08-27T11:30:05Z</time>
      </trkpt>
      <trkpt lat="45.84779" lon="7.03055">
        <ele>2315</ele>
        <time>2022-08-27T11:30:07Z</time>
      </trkpt>
      <trkpt lat="45.8478" lon="7.03057">
        <ele>2316</ele>
        <time>2022-08-27T11:30:09Z</time>
      </trkpt>
      <trkpt lat="45.84782" lon="7.0306">
        <ele>2316</ele>
        <time>2022-08-27T11:30:11Z</time>
      </trkpt>
      <trkpt lat="45.84783" lon="7.03062">
        <ele>2316</ele>
        <time>2022-08-27T11:30:13Z</time>
      </trkpt>
      <trkpt lat="45.84785" lon="7.03065">
        <ele>2316</ele>
        <time>2022-08-27T11:30:15Z</time>
      </trkpt>
      <trkpt lat="45.84786" lon="7.03067">
        <ele>2316</ele>
        <time>2022-08-27T11:30:17Z</time>
      </trkpt>
      <trkpt lat="45.84787" lon="7.0307">
        <ele>2316</ele>
        <time>2022-08-27T11:30:19Z</time>
      </trkpt>
      <trkpt lat="45.84788" lon="7.03073">
        <ele>2317</ele>
        <time>2022-08-27T11:30:21Z</time>
      </trkpt>
      <trkpt lat="45.84789" lon="7.03075">
        <ele>2318</ele>
        <time>2022-08-27T11:30:23Z</time>
      </trkpt>
      <trkpt lat="45.84789" lon="7.03078">
        <ele>2318</ele>
        <time>2022-08-27T11:30:25Z</time>
      </trkpt>
      <trkpt lat="45.8479" lon="7.03081">
        <ele>2319</ele>
        <time>2022-08-27T11:30:27Z</time>
      </trkpt>
      <trkpt lat="45.8479" lon="7.03083">
        <ele>2319</ele>
        <time>2022-08-27T11:30:29Z</time>
      </trkpt>
      <trkpt lat="45.84791" lon="7.03087">
        <ele>2319</ele>
        <time>2022-08-27T11:30:32Z</time>
      </trkpt>
      <trkpt lat="45.84792" lon="7.03089">
        <ele>2320</ele>
        <time>2022-08-27T11:30:34Z</time>
      </trkpt>
      <trkpt lat="45.84792" lon="7.03092">
        <ele>2320</ele>
        <time>2022-08-27T11:30:36Z</time>
      </trkpt>
      <trkpt lat="45.84793" lon="7.03096">
        <ele>2320</ele>
        <time>2022-08-27T11:30:39Z</time>
      </trkpt>
      <trkpt lat="45.84794" lon="7.03099">
        <ele>2320</ele>
        <time>2022-08-27T11:30:42Z</time>
      </trkpt>
      <trkpt lat="45.84794" lon="7.03103">
        <ele>2321</ele>
        <time>2022-08-27T11:30:45Z</time>
      </trkpt>
      <trkpt lat="45.84794" lon="7.03106">
        <ele>2321</ele>
        <time>2022-08-27T11:30:47Z</time>
      </trkpt>
      <trkpt lat="45.84795" lon="7.03109">
        <ele>2321</ele>
        <time>2022-08-27T11:30:49Z</time>
      </trkpt>
      <trkpt lat="45.84795" lon="7.03112">
        <ele>2321</ele>
        <time>2022-08-27T11:30:51Z</time>
      </trkpt>
      <trkpt lat="45.84796" lon="7.03115">
        <ele>2322</ele>
        <time>2022-08-27T11:30:53Z</time>
      </trkpt>
      <trkpt lat="45.84798" lon="7.03117">
        <ele>2322</ele>
        <time>2022-08-27T11:30:55Z</time>
      </trkpt>
      <trkpt lat="45.848" lon="7.03119">
        <ele>2322</ele>
        <time>2022-08-27T11:30:57Z</time>
      </trkpt>
      <trkpt lat="45.84802" lon="7.03122">
        <ele>2322</ele>
        <time>2022-08-27T11:30:59Z</time>
      </trkpt>
      <trkpt lat="45.84803" lon="7.03124">
        <ele>2323</ele>
        <time>2022-08-27T11:31:01Z</time>
      </trkpt>
      <trkpt lat="45.84805" lon="7.03126">
        <ele>2323</ele>
        <time>2022-08-27T11:31:03Z</time>
      </trkpt>
      <trkpt lat="45.84808" lon="7.03129">
        <ele>2323</ele>
        <time>2022-08-27T11:31:05Z</time>
      </trkpt>
      <trkpt lat="45.84809" lon="7.03131">
        <ele>2323</ele>
        <time>2022-08-27T11:31:07Z</time>
      </trkpt>
      <trkpt lat="45.84811" lon="7.03134">
        <ele>2323</ele>
        <time>2022-08-27T11:31:09Z</time>
      </trkpt>
      <trkpt lat="45.84813" lon="7.03136">
        <ele>2322</ele>
        <time>2022-08-27T11:31:11Z</time>
      </trkpt>
      <trkpt lat="45.84814" lon="7.03139">
        <ele>2322</ele>
        <time>2022-08-27T11:31:13Z</time>
      </trkpt>
      <trkpt lat="45.84816" lon="7.03141">
        <ele>2322</ele>
        <time>2022-08-27T11:31:15Z</time>
      </trkpt>
      <trkpt lat="45.84817" lon="7.03144">
        <ele>2322</ele>
        <time>2022-08-27T11:31:17Z</time>
      </trkpt>
      <trkpt lat="45.84819" lon="7.03147">
        <ele>2323</ele>
        <time>2022-08-27T11:31:19Z</time>
      </trkpt>
      <trkpt lat="45.8482" lon="7.03149">
        <ele>2323</ele>
        <time>2022-08-27T11:31:21Z</time>
      </trkpt>
      <trkpt lat="45.84821" lon="7.03153">
        <ele>2324</ele>
        <time>2022-08-27T11:31:23Z</time>
      </trkpt>
      <trkpt lat="45.84823" lon="7.03156">
        <ele>2324</ele>
        <time>2022-08-27T11:31:25Z</time>
      </trkpt>
      <trkpt lat="45.84824" lon="7.03159">
        <ele>2324</ele>
        <time>2022-08-27T11:31:27Z</time>
      </trkpt>
      <trkpt lat="45.84824" lon="7.03163">
        <ele>2324</ele>
        <time>2022-08-27T11:31:29Z</time>
      </trkpt>
      <trkpt lat="45.84824" lon="7.03166">
        <ele>2326</ele>
        <time>2022-08-27T11:31:31Z</time>
      </trkpt>
      <trkpt lat="45.84824" lon="7.03169">
        <ele>2326</ele>
        <time>2022-08-27T11:31:33Z</time>
      </trkpt>
      <trkpt lat="45.84824" lon="7.03172">
        <ele>2326</ele>
        <time>2022-08-27T11:31:35Z</time>
      </trkpt>
      <trkpt lat="45.84823" lon="7.03174">
        <ele>2326</ele>
        <time>2022-08-27T11:31:37Z</time>
      </trkpt>
      <trkpt lat="45.84821" lon="7.03176">
        <ele>2326</ele>
        <time>2022-08-27T11:31:39Z</time>
      </trkpt>
      <trkpt lat="45.84818" lon="7.03176">
        <ele>2327</ele>
        <time>2022-08-27T11:31:42Z</time>
      </trkpt>
      <trkpt lat="45.84816" lon="7.03176">
        <ele>2327</ele>
        <time>2022-08-27T11:31:45Z</time>
      </trkpt>
      <trkpt lat="45.84814" lon="7.03177">
        <ele>2327</ele>
        <time>2022-08-27T11:31:47Z</time>
      </trkpt>
      <trkpt lat="45.84811" lon="7.03177">
        <ele>2328</ele>
        <time>2022-08-27T11:31:50Z</time>
      </trkpt>
      <trkpt lat="45.84809" lon="7.03177">
        <ele>2328</ele>
        <time>2022-08-27T11:31:52Z</time>
      </trkpt>
      <trkpt lat="45.84807" lon="7.03178">
        <ele>2328</ele>
        <time>2022-08-27T11:31:54Z</time>
      </trkpt>
      <trkpt lat="45.84805" lon="7.03179">
        <ele>2328</ele>
        <time>2022-08-27T11:31:56Z</time>
      </trkpt>
      <trkpt lat="45.84803" lon="7.0318">
        <ele>2329</ele>
        <time>2022-08-27T11:31:58Z</time>
      </trkpt>
      <trkpt lat="45.84801" lon="7.0318">
        <ele>2329</ele>
        <time>2022-08-27T11:32:00Z</time>
      </trkpt>
      <trkpt lat="45.84798" lon="7.0318">
        <ele>2329</ele>
        <time>2022-08-27T11:32:03Z</time>
      </trkpt>
      <trkpt lat="45.84797" lon="7.03179">
        <ele>2330</ele>
        <time>2022-08-27T11:32:05Z</time>
      </trkpt>
      <trkpt lat="45.84794" lon="7.0318">
        <ele>2330</ele>
        <time>2022-08-27T11:32:08Z</time>
      </trkpt>
      <trkpt lat="45.84791" lon="7.0318">
        <ele>2331</ele>
        <time>2022-08-27T11:32:11Z</time>
      </trkpt>
      <trkpt lat="45.84789" lon="7.0318">
        <ele>2331</ele>
        <time>2022-08-27T11:32:14Z</time>
      </trkpt>
      <trkpt lat="45.84787" lon="7.03182">
        <ele>2331</ele>
        <time>2022-08-27T11:32:17Z</time>
      </trkpt>
      <trkpt lat="45.84784" lon="7.03182">
        <ele>2332</ele>
        <time>2022-08-27T11:32:20Z</time>
      </trkpt>
      <trkpt lat="45.84782" lon="7.03182">
        <ele>2333</ele>
        <time>2022-08-27T11:32:23Z</time>
      </trkpt>
      <trkpt lat="45.8478" lon="7.03181">
        <ele>2333</ele>
        <time>2022-08-27T11:32:25Z</time>
      </trkpt>
      <trkpt lat="45.84778" lon="7.0318">
        <ele>2333</ele>
        <time>2022-08-27T11:32:28Z</time>
      </trkpt>
      <trkpt lat="45.84775" lon="7.0318">
        <ele>2334</ele>
        <time>2022-08-27T11:32:31Z</time>
      </trkpt>
      <trkpt lat="45.84773" lon="7.03178">
        <ele>2335</ele>
        <time>2022-08-27T11:32:35Z</time>
      </trkpt>
      <trkpt lat="45.84772" lon="7.03176">
        <ele>2335</ele>
        <time>2022-08-27T11:32:38Z</time>
      </trkpt>
      <trkpt lat="45.84769" lon="7.03175">
        <ele>2336</ele>
        <time>2022-08-27T11:32:41Z</time>
      </trkpt>
      <trkpt lat="45.84767" lon="7.03174">
        <ele>2336</ele>
        <time>2022-08-27T11:32:44Z</time>
      </trkpt>
      <trkpt lat="45.84765" lon="7.03173">
        <ele>2337</ele>
        <time>2022-08-27T11:32:47Z</time>
      </trkpt>
      <trkpt lat="45.84763" lon="7.03172">
        <ele>2337</ele>
        <time>2022-08-27T11:32:50Z</time>
      </trkpt>
      <trkpt lat="45.84761" lon="7.0317">
        <ele>2337</ele>
        <time>2022-08-27T11:32:53Z</time>
      </trkpt>
      <trkpt lat="45.84759" lon="7.03169">
        <ele>2337</ele>
        <time>2022-08-27T11:32:56Z</time>
      </trkpt>
      <trkpt lat="45.84757" lon="7.03169">
        <ele>2338</ele>
        <time>2022-08-27T11:32:59Z</time>
      </trkpt>
      <trkpt lat="45.84755" lon="7.03167">
        <ele>2339</ele>
        <time>2022-08-27T11:33:02Z</time>
      </trkpt>
      <trkpt lat="45.84753" lon="7.03166">
        <ele>2339</ele>
        <time>2022-08-27T11:33:05Z</time>
      </trkpt>
      <trkpt lat="45.84751" lon="7.03164">
        <ele>2339</ele>
        <time>2022-08-27T11:33:08Z</time>
      </trkpt>
      <trkpt lat="45.84749" lon="7.03163">
        <ele>2339</ele>
        <time>2022-08-27T11:33:11Z</time>
      </trkpt>
      <trkpt lat="45.84747" lon="7.03161">
        <ele>2341</ele>
        <time>2022-08-27T11:33:14Z</time>
      </trkpt>
      <trkpt lat="45.84745" lon="7.03161">
        <ele>2341</ele>
        <time>2022-08-27T11:33:17Z</time>
      </trkpt>
      <trkpt lat="45.84743" lon="7.03161">
        <ele>2342</ele>
        <time>2022-08-27T11:33:20Z</time>
      </trkpt>
      <trkpt lat="45.84741" lon="7.03161">
        <ele>2342</ele>
        <time>2022-08-27T11:33:23Z</time>
      </trkpt>
      <trkpt lat="45.84739" lon="7.03162">
        <ele>2342</ele>
        <time>2022-08-27T11:33:26Z</time>
      </trkpt>
      <trkpt lat="45.84738" lon="7.03165">
        <ele>2343</ele>
        <time>2022-08-27T11:33:30Z</time>
      </trkpt>
      <trkpt lat="45.84739" lon="7.03168">
        <ele>2343</ele>
        <time>2022-08-27T11:33:33Z</time>
      </trkpt>
      <trkpt lat="45.8474" lon="7.03171">
        <ele>2344</ele>
        <time>2022-08-27T11:33:36Z</time>
      </trkpt>
      <trkpt lat="45.8474" lon="7.03174">
        <ele>2345</ele>
        <time>2022-08-27T11:33:39Z</time>
      </trkpt>
      <trkpt lat="45.84739" lon="7.03176">
        <ele>2345</ele>
        <time>2022-08-27T11:33:42Z</time>
      </trkpt>
      <trkpt lat="45.84737" lon="7.03175">
        <ele>2345</ele>
        <time>2022-08-27T11:33:45Z</time>
      </trkpt>
      <trkpt lat="45.84735" lon="7.03174">
        <ele>2346</ele>
        <time>2022-08-27T11:33:48Z</time>
      </trkpt>
      <trkpt lat="45.84733" lon="7.03173">
        <ele>2346</ele>
        <time>2022-08-27T11:33:51Z</time>
      </trkpt>
      <trkpt lat="45.84731" lon="7.03173">
        <ele>2346</ele>
        <time>2022-08-27T11:33:54Z</time>
      </trkpt>
      <trkpt lat="45.84729" lon="7.03173">
        <ele>2347</ele>
        <time>2022-08-27T11:33:57Z</time>
      </trkpt>
      <trkpt lat="45.84727" lon="7.03173">
        <ele>2348</ele>
        <time>2022-08-27T11:34:00Z</time>
      </trkpt>
      <trkpt lat="45.84725" lon="7.03173">
        <ele>2348</ele>
        <time>2022-08-27T11:34:03Z</time>
      </trkpt>
      <trkpt lat="45.84723" lon="7.03173">
        <ele>2348</ele>
        <time>2022-08-27T11:34:06Z</time>
      </trkpt>
      <trkpt lat="45.84721" lon="7.03175">
        <ele>2350</ele>
        <time>2022-08-27T11:34:10Z</time>
      </trkpt>
      <trkpt lat="45.8472" lon="7.03178">
        <ele>2350</ele>
        <time>2022-08-27T11:34:14Z</time>
      </trkpt>
      <trkpt lat="45.84718" lon="7.03178">
        <ele>2350</ele>
        <time>2022-08-27T11:34:18Z</time>
      </trkpt>
      <trkpt lat="45.84717" lon="7.0318">
        <ele>2352</ele>
        <time>2022-08-27T11:34:23Z</time>
      </trkpt>
      <trkpt lat="45.84716" lon="7.03183">
        <ele>2353</ele>
        <time>2022-08-27T11:34:27Z</time>
      </trkpt>
      <trkpt lat="45.84717" lon="7.03186">
        <ele>2354</ele>
        <time>2022-08-27T11:34:31Z</time>
      </trkpt>
      <trkpt lat="45.84718" lon="7.03188">
        <ele>2354</ele>
        <time>2022-08-27T11:34:35Z</time>
      </trkpt>
      <trkpt lat="45.84719" lon="7.03191">
        <ele>2355</ele>
        <time>2022-08-27T11:34:39Z</time>
      </trkpt>
      <trkpt lat="45.84718" lon="7.03193">
        <ele>2356</ele>
        <time>2022-08-27T11:34:42Z</time>
      </trkpt>
      <trkpt lat="45.84716" lon="7.03196">
        <ele>2356</ele>
        <time>2022-08-27T11:34:45Z</time>
      </trkpt>
      <trkpt lat="45.84714" lon="7.03197">
        <ele>2357</ele>
        <time>2022-08-27T11:34:48Z</time>
      </trkpt>
      <trkpt lat="45.84712" lon="7.03197">
        <ele>2357</ele>
        <time>2022-08-27T11:34:51Z</time>
      </trkpt>
      <trkpt lat="45.8471" lon="7.03198">
        <ele>2358</ele>
        <time>2022-08-27T11:34:54Z</time>
      </trkpt>
      <trkpt lat="45.84709" lon="7.03199">
        <ele>2358</ele>
        <time>2022-08-27T11:34:58Z</time>
      </trkpt>
      <trkpt lat="45.84708" lon="7.03202">
        <ele>2359</ele>
        <time>2022-08-27T11:35:04Z</time>
      </trkpt>
      <trkpt lat="45.84709" lon="7.03205">
        <ele>2360</ele>
        <time>2022-08-27T11:35:08Z</time>
      </trkpt>
      <trkpt lat="45.8471" lon="7.03208">
        <ele>2361</ele>
        <time>2022-08-27T11:35:14Z</time>
      </trkpt>
      <trkpt lat="45.84711" lon="7.0321">
        <ele>2362</ele>
        <time>2022-08-27T11:35:18Z</time>
      </trkpt>
      <trkpt lat="45.84712" lon="7.03213">
        <ele>2362</ele>
        <time>2022-08-27T11:35:22Z</time>
      </trkpt>
      <trkpt lat="45.84713" lon="7.03215">
        <ele>2362</ele>
        <time>2022-08-27T11:35:26Z</time>
      </trkpt>
      <trkpt lat="45.84714" lon="7.03217">
        <ele>2362</ele>
        <time>2022-08-27T11:35:29Z</time>
      </trkpt>
      <trkpt lat="45.84715" lon="7.0322">
        <ele>2363</ele>
        <time>2022-08-27T11:35:32Z</time>
      </trkpt>
      <trkpt lat="45.84715" lon="7.03223">
        <ele>2364</ele>
        <time>2022-08-27T11:35:37Z</time>
      </trkpt>
      <trkpt lat="45.84715" lon="7.03225">
        <ele>2365</ele>
        <time>2022-08-27T11:35:41Z</time>
      </trkpt>
      <trkpt lat="45.84715" lon="7.03228">
        <ele>2365</ele>
        <time>2022-08-27T11:35:44Z</time>
      </trkpt>
      <trkpt lat="45.84715" lon="7.03231">
        <ele>2365</ele>
        <time>2022-08-27T11:35:47Z</time>
      </trkpt>
      <trkpt lat="45.84715" lon="7.03234">
        <ele>2367</ele>
        <time>2022-08-27T11:35:51Z</time>
      </trkpt>
      <trkpt lat="45.84715" lon="7.03237">
        <ele>2367</ele>
        <time>2022-08-27T11:35:56Z</time>
      </trkpt>
      <trkpt lat="45.84714" lon="7.0324">
        <ele>2367</ele>
        <time>2022-08-27T11:35:59Z</time>
      </trkpt>
      <trkpt lat="45.84713" lon="7.03242">
        <ele>2367</ele>
        <time>2022-08-27T11:36:02Z</time>
      </trkpt>
      <trkpt lat="45.84713" lon="7.03245">
        <ele>2368</ele>
        <time>2022-08-27T11:36:05Z</time>
      </trkpt>
      <trkpt lat="45.84712" lon="7.03248">
        <ele>2368</ele>
        <time>2022-08-27T11:36:07Z</time>
      </trkpt>
      <trkpt lat="45.84711" lon="7.0325">
        <ele>2369</ele>
        <time>2022-08-27T11:36:09Z</time>
      </trkpt>
      <trkpt lat="45.8471" lon="7.03253">
        <ele>2369</ele>
        <time>2022-08-27T11:36:12Z</time>
      </trkpt>
      <trkpt lat="45.84709" lon="7.03255">
        <ele>2370</ele>
        <time>2022-08-27T11:36:15Z</time>
      </trkpt>
      <trkpt lat="45.84708" lon="7.03258">
        <ele>2370</ele>
        <time>2022-08-27T11:36:18Z</time>
      </trkpt>
      <trkpt lat="45.84707" lon="7.0326">
        <ele>2372</ele>
        <time>2022-08-27T11:36:22Z</time>
      </trkpt>
      <trkpt lat="45.84706" lon="7.03263">
        <ele>2372</ele>
        <time>2022-08-27T11:36:25Z</time>
      </trkpt>
      <trkpt lat="45.84704" lon="7.03265">
        <ele>2372</ele>
        <time>2022-08-27T11:36:29Z</time>
      </trkpt>
      <trkpt lat="45.84703" lon="7.03267">
        <ele>2373</ele>
        <time>2022-08-27T11:36:32Z</time>
      </trkpt>
      <trkpt lat="45.84702" lon="7.0327">
        <ele>2374</ele>
        <time>2022-08-27T11:36:36Z</time>
      </trkpt>
      <trkpt lat="45.847" lon="7.03271">
        <ele>2373</ele>
        <time>2022-08-27T11:36:40Z</time>
      </trkpt>
      <trkpt lat="45.84699" lon="7.03273">
        <ele>2374</ele>
        <time>2022-08-27T11:36:44Z</time>
      </trkpt>
      <trkpt lat="45.84699" lon="7.03276">
        <ele>2375</ele>
        <time>2022-08-27T11:36:49Z</time>
      </trkpt>
      <trkpt lat="45.84698" lon="7.03279">
        <ele>2376</ele>
        <time>2022-08-27T11:36:52Z</time>
      </trkpt>
      <trkpt lat="45.84697" lon="7.03281">
        <ele>2378</ele>
        <time>2022-08-27T11:36:55Z</time>
      </trkpt>
      <trkpt lat="45.84697" lon="7.03284">
        <ele>2378</ele>
        <time>2022-08-27T11:36:58Z</time>
      </trkpt>
      <trkpt lat="45.84697" lon="7.03287">
        <ele>2378</ele>
        <time>2022-08-27T11:37:01Z</time>
      </trkpt>
      <trkpt lat="45.84698" lon="7.0329">
        <ele>2378</ele>
        <time>2022-08-27T11:37:05Z</time>
      </trkpt>
      <trkpt lat="45.84697" lon="7.03294">
        <ele>2379</ele>
        <time>2022-08-27T11:37:09Z</time>
      </trkpt>
      <trkpt lat="45.84697" lon="7.03297">
        <ele>2379</ele>
        <time>2022-08-27T11:37:12Z</time>
      </trkpt>
      <trkpt lat="45.84696" lon="7.033">
        <ele>2380</ele>
        <time>2022-08-27T11:37:15Z</time>
      </trkpt>
      <trkpt lat="45.84695" lon="7.03303">
        <ele>2380</ele>
        <time>2022-08-27T11:37:18Z</time>
      </trkpt>
      <trkpt lat="45.84693" lon="7.03304">
        <ele>2380</ele>
        <time>2022-08-27T11:37:21Z</time>
      </trkpt>
      <trkpt lat="45.84691" lon="7.03304">
        <ele>2381</ele>
        <time>2022-08-27T11:37:26Z</time>
      </trkpt>
      <trkpt lat="45.84689" lon="7.03307">
        <ele>2381</ele>
        <time>2022-08-27T11:37:29Z</time>
      </trkpt>
      <trkpt lat="45.84687" lon="7.03308">
        <ele>2382</ele>
        <time>2022-08-27T11:37:32Z</time>
      </trkpt>
      <trkpt lat="45.84686" lon="7.03309">
        <ele>2383</ele>
        <time>2022-08-27T11:37:35Z</time>
      </trkpt>
      <trkpt lat="45.84684" lon="7.0331">
        <ele>2383</ele>
        <time>2022-08-27T11:37:40Z</time>
      </trkpt>
      <trkpt lat="45.84682" lon="7.03312">
        <ele>2383</ele>
        <time>2022-08-27T11:37:43Z</time>
      </trkpt>
      <trkpt lat="45.84682" lon="7.03315">
        <ele>2384</ele>
        <time>2022-08-27T11:37:46Z</time>
      </trkpt>
      <trkpt lat="45.84681" lon="7.03317">
        <ele>2385</ele>
        <time>2022-08-27T11:37:49Z</time>
      </trkpt>
      <trkpt lat="45.8468" lon="7.03319">
        <ele>2385</ele>
        <time>2022-08-27T11:37:54Z</time>
      </trkpt>
      <trkpt lat="45.8468" lon="7.03322">
        <ele>2386</ele>
        <time>2022-08-27T11:37:58Z</time>
      </trkpt>
      <trkpt lat="45.84681" lon="7.03325">
        <ele>2386</ele>
        <time>2022-08-27T11:38:01Z</time>
      </trkpt>
      <trkpt lat="45.84681" lon="7.03327">
        <ele>2386</ele>
        <time>2022-08-27T11:38:04Z</time>
      </trkpt>
      <trkpt lat="45.8468" lon="7.0333">
        <ele>2387</ele>
        <time>2022-08-27T11:38:07Z</time>
      </trkpt>
      <trkpt lat="45.84679" lon="7.03333">
        <ele>2387</ele>
        <time>2022-08-27T11:38:10Z</time>
      </trkpt>
      <trkpt lat="45.84679" lon="7.03336">
        <ele>2387</ele>
        <time>2022-08-27T11:38:13Z</time>
      </trkpt>
      <trkpt lat="45.84679" lon="7.03339">
        <ele>2387</ele>
        <time>2022-08-27T11:38:17Z</time>
      </trkpt>
      <trkpt lat="45.8468" lon="7.03342">
        <ele>2387</ele>
        <time>2022-08-27T11:38:21Z</time>
      </trkpt>
      <trkpt lat="45.8468" lon="7.03342">
        <ele>2387</ele>
        <time>2022-08-27T11:38:34Z</time>
      </trkpt>
      <trkpt lat="45.8468" lon="7.03342">
        <ele>2387</ele>
        <time>2022-08-27T11:38:52Z</time>
      </trkpt>
      <trkpt lat="45.8468" lon="7.03342">
        <ele>2387</ele>
        <time>2022-08-27T11:39:09Z</time>
      </trkpt>
      <trkpt lat="45.8468" lon="7.03342">
        <ele>2386</ele>
        <time>2022-08-27T11:39:26Z</time>
      </trkpt>
      <trkpt lat="45.8468" lon="7.03342">
        <ele>2387</ele>
        <time>2022-08-27T11:39:43Z</time>
      </trkpt>
      <trkpt lat="45.84679" lon="7.03339">
        <ele>2387</ele>
        <time>2022-08-27T11:39:44Z</time>
      </trkpt>
      <trkpt lat="45.84678" lon="7.03336">
        <ele>2387</ele>
        <time>2022-08-27T11:39:47Z</time>
      </trkpt>
      <trkpt lat="45.84679" lon="7.03332">
        <ele>2387</ele>
        <time>2022-08-27T11:39:50Z</time>
      </trkpt>
      <trkpt lat="45.84679" lon="7.03329">
        <ele>2387</ele>
        <time>2022-08-27T11:39:53Z</time>
      </trkpt>
      <trkpt lat="45.84678" lon="7.03326">
        <ele>2385</ele>
        <time>2022-08-27T11:39:56Z</time>
      </trkpt>
      <trkpt lat="45.84676" lon="7.03328">
        <ele>2386</ele>
        <time>2022-08-27T11:40:00Z</time>
      </trkpt>
      <trkpt lat="45.84675" lon="7.03331">
        <ele>2387</ele>
        <time>2022-08-27T11:40:03Z</time>
      </trkpt>
      <trkpt lat="45.84673" lon="7.03333">
        <ele>2387</ele>
        <time>2022-08-27T11:40:06Z</time>
      </trkpt>
      <trkpt lat="45.84673" lon="7.03336">
        <ele>2387</ele>
        <time>2022-08-27T11:40:10Z</time>
      </trkpt>
      <trkpt lat="45.84672" lon="7.03339">
        <ele>2388</ele>
        <time>2022-08-27T11:40:13Z</time>
      </trkpt>
      <trkpt lat="45.8467" lon="7.03341">
        <ele>2389</ele>
        <time>2022-08-27T11:40:16Z</time>
      </trkpt>
      <trkpt lat="45.84669" lon="7.03344">
        <ele>2389</ele>
        <time>2022-08-27T11:40:19Z</time>
      </trkpt>
      <trkpt lat="45.84668" lon="7.03346">
        <ele>2390</ele>
        <time>2022-08-27T11:40:23Z</time>
      </trkpt>
      <trkpt lat="45.84667" lon="7.03349">
        <ele>2391</ele>
        <time>2022-08-27T11:40:27Z</time>
      </trkpt>
      <trkpt lat="45.84666" lon="7.03352">
        <ele>2392</ele>
        <time>2022-08-27T11:40:31Z</time>
      </trkpt>
      <trkpt lat="45.84665" lon="7.03355">
        <ele>2392</ele>
        <time>2022-08-27T11:40:35Z</time>
      </trkpt>
      <trkpt lat="45.84665" lon="7.03358">
        <ele>2393</ele>
        <time>2022-08-27T11:40:38Z</time>
      </trkpt>
      <trkpt lat="45.84665" lon="7.0336">
        <ele>2393</ele>
        <time>2022-08-27T11:40:41Z</time>
      </trkpt>
      <trkpt lat="45.84665" lon="7.03363">
        <ele>2394</ele>
        <time>2022-08-27T11:40:44Z</time>
      </trkpt>
      <trkpt lat="45.84665" lon="7.03367">
        <ele>2394</ele>
        <time>2022-08-27T11:40:48Z</time>
      </trkpt>
      <trkpt lat="45.84665" lon="7.0337">
        <ele>2395</ele>
        <time>2022-08-27T11:40:51Z</time>
      </trkpt>
      <trkpt lat="45.84665" lon="7.03373">
        <ele>2395</ele>
        <time>2022-08-27T11:40:54Z</time>
      </trkpt>
      <trkpt lat="45.84665" lon="7.03377">
        <ele>2395</ele>
        <time>2022-08-27T11:40:57Z</time>
      </trkpt>
      <trkpt lat="45.84665" lon="7.0338">
        <ele>2395</ele>
        <time>2022-08-27T11:41:00Z</time>
      </trkpt>
      <trkpt lat="45.84665" lon="7.03382">
        <ele>2396</ele>
        <time>2022-08-27T11:41:02Z</time>
      </trkpt>
      <trkpt lat="45.84666" lon="7.03385">
        <ele>2396</ele>
        <time>2022-08-27T11:41:04Z</time>
      </trkpt>
      <trkpt lat="45.84666" lon="7.03388">
        <ele>2396</ele>
        <time>2022-08-27T11:41:06Z</time>
      </trkpt>
      <trkpt lat="45.84666" lon="7.03391">
        <ele>2396</ele>
        <time>2022-08-27T11:41:08Z</time>
      </trkpt>
      <trkpt lat="45.84667" lon="7.03393">
        <ele>2396</ele>
        <time>2022-08-27T11:41:10Z</time>
      </trkpt>
      <trkpt lat="45.84667" lon="7.03396">
        <ele>2396</ele>
        <time>2022-08-27T11:41:12Z</time>
      </trkpt>
      <trkpt lat="45.84668" lon="7.03399">
        <ele>2396</ele>
        <time>2022-08-27T11:41:15Z</time>
      </trkpt>
      <trkpt lat="45.84669" lon="7.03402">
        <ele>2397</ele>
        <time>2022-08-27T11:41:18Z</time>
      </trkpt>
      <trkpt lat="45.84669" lon="7.03405">
        <ele>2397</ele>
        <time>2022-08-27T11:41:22Z</time>
      </trkpt>
      <trkpt lat="45.84668" lon="7.03408">
        <ele>2398</ele>
        <time>2022-08-27T11:41:25Z</time>
      </trkpt>
      <trkpt lat="45.84667" lon="7.0341">
        <ele>2399</ele>
        <time>2022-08-27T11:41:28Z</time>
      </trkpt>
      <trkpt lat="45.84666" lon="7.03412">
        <ele>2399</ele>
        <time>2022-08-27T11:41:32Z</time>
      </trkpt>
      <trkpt lat="45.84664" lon="7.03414">
        <ele>2400</ele>
        <time>2022-08-27T11:41:35Z</time>
      </trkpt>
      <trkpt lat="45.84663" lon="7.03417">
        <ele>2402</ele>
        <time>2022-08-27T11:41:38Z</time>
      </trkpt>
      <trkpt lat="45.84663" lon="7.0342">
        <ele>2402</ele>
        <time>2022-08-27T11:41:41Z</time>
      </trkpt>
      <trkpt lat="45.84662" lon="7.03424">
        <ele>2401</ele>
        <time>2022-08-27T11:41:44Z</time>
      </trkpt>
      <trkpt lat="45.8466" lon="7.03426">
        <ele>2401</ele>
        <time>2022-08-27T11:41:46Z</time>
      </trkpt>
      <trkpt lat="45.84659" lon="7.03428">
        <ele>2401</ele>
        <time>2022-08-27T11:41:49Z</time>
      </trkpt>
      <trkpt lat="45.84658" lon="7.03431">
        <ele>2402</ele>
        <time>2022-08-27T11:41:52Z</time>
      </trkpt>
      <trkpt lat="45.84657" lon="7.03434">
        <ele>2402</ele>
        <time>2022-08-27T11:41:54Z</time>
      </trkpt>
      <trkpt lat="45.84657" lon="7.03437">
        <ele>2402</ele>
        <time>2022-08-27T11:41:56Z</time>
      </trkpt>
      <trkpt lat="45.84657" lon="7.0344">
        <ele>2404</ele>
        <time>2022-08-27T11:41:58Z</time>
      </trkpt>
      <trkpt lat="45.84656" lon="7.03443">
        <ele>2404</ele>
        <time>2022-08-27T11:42:01Z</time>
      </trkpt>
      <trkpt lat="45.84655" lon="7.03447">
        <ele>2405</ele>
        <time>2022-08-27T11:42:04Z</time>
      </trkpt>
      <trkpt lat="45.84654" lon="7.0345">
        <ele>2405</ele>
        <time>2022-08-27T11:42:07Z</time>
      </trkpt>
      <trkpt lat="45.84653" lon="7.03452">
        <ele>2405</ele>
        <time>2022-08-27T11:42:10Z</time>
      </trkpt>
      <trkpt lat="45.84653" lon="7.03455">
        <ele>2406</ele>
        <time>2022-08-27T11:42:13Z</time>
      </trkpt>
      <trkpt lat="45.84654" lon="7.03458">
        <ele>2407</ele>
        <time>2022-08-27T11:42:16Z</time>
      </trkpt>
      <trkpt lat="45.84653" lon="7.03461">
        <ele>2407</ele>
        <time>2022-08-27T11:42:19Z</time>
      </trkpt>
      <trkpt lat="45.84652" lon="7.03464">
        <ele>2408</ele>
        <time>2022-08-27T11:42:22Z</time>
      </trkpt>
      <trkpt lat="45.84651" lon="7.03467">
        <ele>2408</ele>
        <time>2022-08-27T11:42:25Z</time>
      </trkpt>
      <trkpt lat="45.8465" lon="7.03469">
        <ele>2408</ele>
        <time>2022-08-27T11:42:27Z</time>
      </trkpt>
      <trkpt lat="45.84648" lon="7.03472">
        <ele>2409</ele>
        <time>2022-08-27T11:42:30Z</time>
      </trkpt>
      <trkpt lat="45.84647" lon="7.03476">
        <ele>2409</ele>
        <time>2022-08-27T11:42:33Z</time>
      </trkpt>
      <trkpt lat="45.84647" lon="7.03479">
        <ele>2409</ele>
        <time>2022-08-27T11:42:36Z</time>
      </trkpt>
      <trkpt lat="45.84647" lon="7.03483">
        <ele>2409</ele>
        <time>2022-08-27T11:42:39Z</time>
      </trkpt>
      <trkpt lat="45.84646" lon="7.03486">
        <ele>2410</ele>
        <time>2022-08-27T11:42:41Z</time>
      </trkpt>
      <trkpt lat="45.84646" lon="7.03489">
        <ele>2410</ele>
        <time>2022-08-27T11:42:43Z</time>
      </trkpt>
      <trkpt lat="45.84646" lon="7.03492">
        <ele>2410</ele>
        <time>2022-08-27T11:42:46Z</time>
      </trkpt>
      <trkpt lat="45.84645" lon="7.03495">
        <ele>2410</ele>
        <time>2022-08-27T11:42:48Z</time>
      </trkpt>
      <trkpt lat="45.84645" lon="7.03498">
        <ele>2410</ele>
        <time>2022-08-27T11:42:50Z</time>
      </trkpt>
      <trkpt lat="45.84644" lon="7.035">
        <ele>2410</ele>
        <time>2022-08-27T11:42:52Z</time>
      </trkpt>
      <trkpt lat="45.84643" lon="7.03504">
        <ele>2410</ele>
        <time>2022-08-27T11:42:54Z</time>
      </trkpt>
      <trkpt lat="45.84642" lon="7.03506">
        <ele>2410</ele>
        <time>2022-08-27T11:42:56Z</time>
      </trkpt>
      <trkpt lat="45.84642" lon="7.03509">
        <ele>2410</ele>
        <time>2022-08-27T11:42:58Z</time>
      </trkpt>
      <trkpt lat="45.84641" lon="7.03512">
        <ele>2410</ele>
        <time>2022-08-27T11:43:00Z</time>
      </trkpt>
      <trkpt lat="45.8464" lon="7.03516">
        <ele>2411</ele>
        <time>2022-08-27T11:43:02Z</time>
      </trkpt>
      <trkpt lat="45.84639" lon="7.03519">
        <ele>2412</ele>
        <time>2022-08-27T11:43:04Z</time>
      </trkpt>
      <trkpt lat="45.84638" lon="7.03522">
        <ele>2412</ele>
        <time>2022-08-27T11:43:06Z</time>
      </trkpt>
      <trkpt lat="45.84637" lon="7.03525">
        <ele>2412</ele>
        <time>2022-08-27T11:43:08Z</time>
      </trkpt>
      <trkpt lat="45.84637" lon="7.03528">
        <ele>2412</ele>
        <time>2022-08-27T11:43:10Z</time>
      </trkpt>
      <trkpt lat="45.84636" lon="7.03531">
        <ele>2412</ele>
        <time>2022-08-27T11:43:12Z</time>
      </trkpt>
      <trkpt lat="45.84635" lon="7.03534">
        <ele>2411</ele>
        <time>2022-08-27T11:43:14Z</time>
      </trkpt>
      <trkpt lat="45.84634" lon="7.03536">
        <ele>2412</ele>
        <time>2022-08-27T11:43:16Z</time>
      </trkpt>
      <trkpt lat="45.84633" lon="7.03539">
        <ele>2413</ele>
        <time>2022-08-27T11:43:18Z</time>
      </trkpt>
      <trkpt lat="45.84633" lon="7.03543">
        <ele>2413</ele>
        <time>2022-08-27T11:43:20Z</time>
      </trkpt>
      <trkpt lat="45.84633" lon="7.03547">
        <ele>2412</ele>
        <time>2022-08-27T11:43:22Z</time>
      </trkpt>
      <trkpt lat="45.84633" lon="7.0355">
        <ele>2412</ele>
        <time>2022-08-27T11:43:24Z</time>
      </trkpt>
      <trkpt lat="45.84632" lon="7.03554">
        <ele>2412</ele>
        <time>2022-08-27T11:43:26Z</time>
      </trkpt>
      <trkpt lat="45.84632" lon="7.03557">
        <ele>2412</ele>
        <time>2022-08-27T11:43:27Z</time>
      </trkpt>
      <trkpt lat="45.84632" lon="7.03561">
        <ele>2412</ele>
        <time>2022-08-27T11:43:29Z</time>
      </trkpt>
      <trkpt lat="45.84632" lon="7.03566">
        <ele>2412</ele>
        <time>2022-08-27T11:43:31Z</time>
      </trkpt>
      <trkpt lat="45.84632" lon="7.0357">
        <ele>2410</ele>
        <time>2022-08-27T11:43:33Z</time>
      </trkpt>
      <trkpt lat="45.84632" lon="7.03575">
        <ele>2410</ele>
        <time>2022-08-27T11:43:35Z</time>
      </trkpt>
      <trkpt lat="45.84633" lon="7.03577">
        <ele>2410</ele>
        <time>2022-08-27T11:43:36Z</time>
      </trkpt>
      <trkpt lat="45.84633" lon="7.0358">
        <ele>2410</ele>
        <time>2022-08-27T11:43:37Z</time>
      </trkpt>
      <trkpt lat="45.84633" lon="7.03585">
        <ele>2410</ele>
        <time>2022-08-27T11:43:39Z</time>
      </trkpt>
      <trkpt lat="45.84634" lon="7.03589">
        <ele>2410</ele>
        <time>2022-08-27T11:43:41Z</time>
      </trkpt>
      <trkpt lat="45.84635" lon="7.03592">
        <ele>2410</ele>
        <time>2022-08-27T11:43:43Z</time>
      </trkpt>
      <trkpt lat="45.84635" lon="7.03596">
        <ele>2410</ele>
        <time>2022-08-27T11:43:46Z</time>
      </trkpt>
      <trkpt lat="45.84635" lon="7.03599">
        <ele>2409</ele>
        <time>2022-08-27T11:43:48Z</time>
      </trkpt>
      <trkpt lat="45.84636" lon="7.03603">
        <ele>2408</ele>
        <time>2022-08-27T11:43:50Z</time>
      </trkpt>
      <trkpt lat="45.84635" lon="7.03606">
        <ele>2407</ele>
        <time>2022-08-27T11:43:52Z</time>
      </trkpt>
      <trkpt lat="45.84634" lon="7.03609">
        <ele>2407</ele>
        <time>2022-08-27T11:43:54Z</time>
      </trkpt>
      <trkpt lat="45.84634" lon="7.03613">
        <ele>2407</ele>
        <time>2022-08-27T11:43:56Z</time>
      </trkpt>
      <trkpt lat="45.84634" lon="7.03616">
        <ele>2407</ele>
        <time>2022-08-27T11:43:57Z</time>
      </trkpt>
      <trkpt lat="45.84633" lon="7.0362">
        <ele>2406</ele>
        <time>2022-08-27T11:43:59Z</time>
      </trkpt>
      <trkpt lat="45.84632" lon="7.03625">
        <ele>2405</ele>
        <time>2022-08-27T11:44:01Z</time>
      </trkpt>
      <trkpt lat="45.84632" lon="7.03627">
        <ele>2405</ele>
        <time>2022-08-27T11:44:02Z</time>
      </trkpt>
      <trkpt lat="45.8463" lon="7.03631">
        <ele>2405</ele>
        <time>2022-08-27T11:44:04Z</time>
      </trkpt>
      <trkpt lat="45.8463" lon="7.03634">
        <ele>2405</ele>
        <time>2022-08-27T11:44:06Z</time>
      </trkpt>
      <trkpt lat="45.8463" lon="7.03636">
        <ele>2405</ele>
        <time>2022-08-27T11:44:07Z</time>
      </trkpt>
      <trkpt lat="45.8463" lon="7.03639">
        <ele>2405</ele>
        <time>2022-08-27T11:44:08Z</time>
      </trkpt>
      <trkpt lat="45.84631" lon="7.03642">
        <ele>2405</ele>
        <time>2022-08-27T11:44:09Z</time>
      </trkpt>
      <trkpt lat="45.84631" lon="7.03646">
        <ele>2404</ele>
        <time>2022-08-27T11:44:11Z</time>
      </trkpt>
      <trkpt lat="45.84632" lon="7.0365">
        <ele>2404</ele>
        <time>2022-08-27T11:44:13Z</time>
      </trkpt>
      <trkpt lat="45.84635" lon="7.03653">
        <ele>2404</ele>
        <time>2022-08-27T11:44:15Z</time>
      </trkpt>
      <trkpt lat="45.84636" lon="7.03654">
        <ele>2404</ele>
        <time>2022-08-27T11:44:16Z</time>
      </trkpt>
      <trkpt lat="45.8464" lon="7.03656">
        <ele>2404</ele>
        <time>2022-08-27T11:44:18Z</time>
      </trkpt>
      <trkpt lat="45.84643" lon="7.03657">
        <ele>2404</ele>
        <time>2022-08-27T11:44:20Z</time>
      </trkpt>
      <trkpt lat="45.84645" lon="7.03658">
        <ele>2402</ele>
        <time>2022-08-27T11:44:21Z</time>
      </trkpt>
      <trkpt lat="45.84647" lon="7.03659">
        <ele>2402</ele>
        <time>2022-08-27T11:44:22Z</time>
      </trkpt>
      <trkpt lat="45.8465" lon="7.0366">
        <ele>2402</ele>
        <time>2022-08-27T11:44:24Z</time>
      </trkpt>
      <trkpt lat="45.84652" lon="7.0366">
        <ele>2402</ele>
        <time>2022-08-27T11:44:25Z</time>
      </trkpt>
      <trkpt lat="45.84655" lon="7.0366">
        <ele>2402</ele>
        <time>2022-08-27T11:44:27Z</time>
      </trkpt>
      <trkpt lat="45.84658" lon="7.03661">
        <ele>2401</ele>
        <time>2022-08-27T11:44:29Z</time>
      </trkpt>
      <trkpt lat="45.84661" lon="7.0366">
        <ele>2401</ele>
        <time>2022-08-27T11:44:31Z</time>
      </trkpt>
      <trkpt lat="45.84664" lon="7.03661">
        <ele>2401</ele>
        <time>2022-08-27T11:44:33Z</time>
      </trkpt>
      <trkpt lat="45.84668" lon="7.03661">
        <ele>2400</ele>
        <time>2022-08-27T11:44:35Z</time>
      </trkpt>
      <trkpt lat="45.84671" lon="7.03663">
        <ele>2400</ele>
        <time>2022-08-27T11:44:36Z</time>
      </trkpt>
      <trkpt lat="45.84672" lon="7.03664">
        <ele>2400</ele>
        <time>2022-08-27T11:44:37Z</time>
      </trkpt>
      <trkpt lat="45.84675" lon="7.03664">
        <ele>2400</ele>
        <time>2022-08-27T11:44:39Z</time>
      </trkpt>
      <trkpt lat="45.84677" lon="7.03665">
        <ele>2399</ele>
        <time>2022-08-27T11:44:40Z</time>
      </trkpt>
      <trkpt lat="45.84679" lon="7.03666">
        <ele>2399</ele>
        <time>2022-08-27T11:44:41Z</time>
      </trkpt>
      <trkpt lat="45.84681" lon="7.03667">
        <ele>2399</ele>
        <time>2022-08-27T11:44:42Z</time>
      </trkpt>
      <trkpt lat="45.84682" lon="7.03668">
        <ele>2399</ele>
        <time>2022-08-27T11:44:43Z</time>
      </trkpt>
      <trkpt lat="45.84685" lon="7.03669">
        <ele>2399</ele>
        <time>2022-08-27T11:44:45Z</time>
      </trkpt>
      <trkpt lat="45.84688" lon="7.0367">
        <ele>2399</ele>
        <time>2022-08-27T11:44:47Z</time>
      </trkpt>
      <trkpt lat="45.8469" lon="7.03671">
        <ele>2399</ele>
        <time>2022-08-27T11:44:49Z</time>
      </trkpt>
      <trkpt lat="45.84693" lon="7.0367">
        <ele>2399</ele>
        <time>2022-08-27T11:44:51Z</time>
      </trkpt>
      <trkpt lat="45.84697" lon="7.03671">
        <ele>2398</ele>
        <time>2022-08-27T11:44:53Z</time>
      </trkpt>
      <trkpt lat="45.84699" lon="7.03673">
        <ele>2398</ele>
        <time>2022-08-27T11:44:55Z</time>
      </trkpt>
      <trkpt lat="45.84702" lon="7.03672">
        <ele>2398</ele>
        <time>2022-08-27T11:44:57Z</time>
      </trkpt>
      <trkpt lat="45.84704" lon="7.03672">
        <ele>2398</ele>
        <time>2022-08-27T11:44:59Z</time>
      </trkpt>
      <trkpt lat="45.84706" lon="7.03674">
        <ele>2398</ele>
        <time>2022-08-27T11:45:01Z</time>
      </trkpt>
      <trkpt lat="45.84708" lon="7.03676">
        <ele>2398</ele>
        <time>2022-08-27T11:45:03Z</time>
      </trkpt>
      <trkpt lat="45.84708" lon="7.03681">
        <ele>2398</ele>
        <time>2022-08-27T11:45:05Z</time>
      </trkpt>
      <trkpt lat="45.84708" lon="7.03685">
        <ele>2398</ele>
        <time>2022-08-27T11:45:07Z</time>
      </trkpt>
      <trkpt lat="45.8471" lon="7.0369">
        <ele>2398</ele>
        <time>2022-08-27T11:45:09Z</time>
      </trkpt>
      <trkpt lat="45.84711" lon="7.03694">
        <ele>2397</ele>
        <time>2022-08-27T11:45:11Z</time>
      </trkpt>
      <trkpt lat="45.8471" lon="7.03698">
        <ele>2397</ele>
        <time>2022-08-27T11:45:13Z</time>
      </trkpt>
      <trkpt lat="45.84709" lon="7.03702">
        <ele>2397</ele>
        <time>2022-08-27T11:45:15Z</time>
      </trkpt>
      <trkpt lat="45.84709" lon="7.03706">
        <ele>2396</ele>
        <time>2022-08-27T11:45:17Z</time>
      </trkpt>
      <trkpt lat="45.8471" lon="7.0371">
        <ele>2396</ele>
        <time>2022-08-27T11:45:20Z</time>
      </trkpt>
      <trkpt lat="45.84711" lon="7.03713">
        <ele>2396</ele>
        <time>2022-08-27T11:45:23Z</time>
      </trkpt>
      <trkpt lat="45.84712" lon="7.03715">
        <ele>2396</ele>
        <time>2022-08-27T11:45:25Z</time>
      </trkpt>
      <trkpt lat="45.84714" lon="7.03718">
        <ele>2396</ele>
        <time>2022-08-27T11:45:27Z</time>
      </trkpt>
      <trkpt lat="45.84715" lon="7.03721">
        <ele>2397</ele>
        <time>2022-08-27T11:45:29Z</time>
      </trkpt>
      <trkpt lat="45.84717" lon="7.03722">
        <ele>2397</ele>
        <time>2022-08-27T11:45:31Z</time>
      </trkpt>
      <trkpt lat="45.84719" lon="7.03721">
        <ele>2397</ele>
        <time>2022-08-27T11:45:33Z</time>
      </trkpt>
      <trkpt lat="45.84721" lon="7.0372">
        <ele>2396</ele>
        <time>2022-08-27T11:45:35Z</time>
      </trkpt>
      <trkpt lat="45.84723" lon="7.0372">
        <ele>2395</ele>
        <time>2022-08-27T11:45:36Z</time>
      </trkpt>
      <trkpt lat="45.84724" lon="7.03719">
        <ele>2395</ele>
        <time>2022-08-27T11:45:37Z</time>
      </trkpt>
      <trkpt lat="45.84725" lon="7.03719">
        <ele>2395</ele>
        <time>2022-08-27T11:45:38Z</time>
      </trkpt>
      <trkpt lat="45.84727" lon="7.03718">
        <ele>2395</ele>
        <time>2022-08-27T11:45:39Z</time>
      </trkpt>
      <trkpt lat="45.8473" lon="7.03718">
        <ele>2395</ele>
        <time>2022-08-27T11:45:41Z</time>
      </trkpt>
      <trkpt lat="45.84732" lon="7.03717">
        <ele>2395</ele>
        <time>2022-08-27T11:45:43Z</time>
      </trkpt>
      <trkpt lat="45.84735" lon="7.03717">
        <ele>2394</ele>
        <time>2022-08-27T11:45:45Z</time>
      </trkpt>
      <trkpt lat="45.84737" lon="7.03717">
        <ele>2394</ele>
        <time>2022-08-27T11:45:47Z</time>
      </trkpt>
      <trkpt lat="45.84738" lon="7.03718">
        <ele>2396</ele>
        <time>2022-08-27T11:45:51Z</time>
      </trkpt>
      <trkpt lat="45.8474" lon="7.03718">
        <ele>2397</ele>
        <time>2022-08-27T11:45:54Z</time>
      </trkpt>
      <trkpt lat="45.84742" lon="7.03719">
        <ele>2398</ele>
        <time>2022-08-27T11:45:58Z</time>
      </trkpt>
      <trkpt lat="45.84744" lon="7.0372">
        <ele>2398</ele>
        <time>2022-08-27T11:46:00Z</time>
      </trkpt>
      <trkpt lat="45.84746" lon="7.03721">
        <ele>2398</ele>
        <time>2022-08-27T11:46:02Z</time>
      </trkpt>
      <trkpt lat="45.84749" lon="7.03722">
        <ele>2398</ele>
        <time>2022-08-27T11:46:04Z</time>
      </trkpt>
      <trkpt lat="45.84752" lon="7.03724">
        <ele>2397</ele>
        <time>2022-08-27T11:46:06Z</time>
      </trkpt>
      <trkpt lat="45.84754" lon="7.03728">
        <ele>2396</ele>
        <time>2022-08-27T11:46:08Z</time>
      </trkpt>
      <trkpt lat="45.84755" lon="7.0373">
        <ele>2396</ele>
        <time>2022-08-27T11:46:09Z</time>
      </trkpt>
      <trkpt lat="45.84758" lon="7.03735">
        <ele>2395</ele>
        <time>2022-08-27T11:46:11Z</time>
      </trkpt>
      <trkpt lat="45.8476" lon="7.03739">
        <ele>2395</ele>
        <time>2022-08-27T11:46:13Z</time>
      </trkpt>
      <trkpt lat="45.84762" lon="7.03741">
        <ele>2395</ele>
        <time>2022-08-27T11:46:14Z</time>
      </trkpt>
      <trkpt lat="45.84764" lon="7.03744">
        <ele>2395</ele>
        <time>2022-08-27T11:46:15Z</time>
      </trkpt>
      <trkpt lat="45.84765" lon="7.03745">
        <ele>2395</ele>
        <time>2022-08-27T11:46:16Z</time>
      </trkpt>
      <trkpt lat="45.84768" lon="7.03748">
        <ele>2395</ele>
        <time>2022-08-27T11:46:17Z</time>
      </trkpt>
      <trkpt lat="45.8477" lon="7.0375">
        <ele>2395</ele>
        <time>2022-08-27T11:46:19Z</time>
      </trkpt>
      <trkpt lat="45.84772" lon="7.03753">
        <ele>2395</ele>
        <time>2022-08-27T11:46:20Z</time>
      </trkpt>
      <trkpt lat="45.84772" lon="7.03754">
        <ele>2395</ele>
        <time>2022-08-27T11:46:21Z</time>
      </trkpt>
      <trkpt lat="45.84773" lon="7.03757">
        <ele>2395</ele>
        <time>2022-08-27T11:46:22Z</time>
      </trkpt>
      <trkpt lat="45.84775" lon="7.03761">
        <ele>2395</ele>
        <time>2022-08-27T11:46:24Z</time>
      </trkpt>
      <trkpt lat="45.84777" lon="7.03766">
        <ele>2394</ele>
        <time>2022-08-27T11:46:26Z</time>
      </trkpt>
      <trkpt lat="45.84777" lon="7.03767">
        <ele>2394</ele>
        <time>2022-08-27T11:46:27Z</time>
      </trkpt>
      <trkpt lat="45.84779" lon="7.03768">
        <ele>2393</ele>
        <time>2022-08-27T11:46:28Z</time>
      </trkpt>
      <trkpt lat="45.84779" lon="7.0377">
        <ele>2393</ele>
        <time>2022-08-27T11:46:29Z</time>
      </trkpt>
      <trkpt lat="45.8478" lon="7.03772">
        <ele>2392</ele>
        <time>2022-08-27T11:46:30Z</time>
      </trkpt>
      <trkpt lat="45.8478" lon="7.03773">
        <ele>2392</ele>
        <time>2022-08-27T11:46:31Z</time>
      </trkpt>
      <trkpt lat="45.8478" lon="7.03775">
        <ele>2392</ele>
        <time>2022-08-27T11:46:32Z</time>
      </trkpt>
      <trkpt lat="45.84782" lon="7.03777">
        <ele>2392</ele>
        <time>2022-08-27T11:46:33Z</time>
      </trkpt>
      <trkpt lat="45.84783" lon="7.03779">
        <ele>2392</ele>
        <time>2022-08-27T11:46:35Z</time>
      </trkpt>
      <trkpt lat="45.84785" lon="7.0378">
        <ele>2391</ele>
        <time>2022-08-27T11:46:37Z</time>
      </trkpt>
      <trkpt lat="45.84787" lon="7.0378">
        <ele>2390</ele>
        <time>2022-08-27T11:46:38Z</time>
      </trkpt>
      <trkpt lat="45.84788" lon="7.0378">
        <ele>2390</ele>
        <time>2022-08-27T11:46:39Z</time>
      </trkpt>
      <trkpt lat="45.8479" lon="7.03781">
        <ele>2390</ele>
        <time>2022-08-27T11:46:40Z</time>
      </trkpt>
      <trkpt lat="45.84793" lon="7.03781">
        <ele>2390</ele>
        <time>2022-08-27T11:46:41Z</time>
      </trkpt>
      <trkpt lat="45.84796" lon="7.03782">
        <ele>2390</ele>
        <time>2022-08-27T11:46:43Z</time>
      </trkpt>
      <trkpt lat="45.84798" lon="7.0378">
        <ele>2390</ele>
        <time>2022-08-27T11:46:45Z</time>
      </trkpt>
      <trkpt lat="45.84799" lon="7.03779">
        <ele>2390</ele>
        <time>2022-08-27T11:46:46Z</time>
      </trkpt>
      <trkpt lat="45.84799" lon="7.03778">
        <ele>2390</ele>
        <time>2022-08-27T11:46:47Z</time>
      </trkpt>
      <trkpt lat="45.848" lon="7.03776">
        <ele>2390</ele>
        <time>2022-08-27T11:46:48Z</time>
      </trkpt>
      <trkpt lat="45.84801" lon="7.03775">
        <ele>2389</ele>
        <time>2022-08-27T11:46:49Z</time>
      </trkpt>
      <trkpt lat="45.84802" lon="7.03772">
        <ele>2389</ele>
        <time>2022-08-27T11:46:50Z</time>
      </trkpt>
      <trkpt lat="45.84805" lon="7.0377">
        <ele>2390</ele>
        <time>2022-08-27T11:46:52Z</time>
      </trkpt>
      <trkpt lat="45.84809" lon="7.03768">
        <ele>2389</ele>
        <time>2022-08-27T11:46:54Z</time>
      </trkpt>
      <trkpt lat="45.8481" lon="7.03768">
        <ele>2389</ele>
        <time>2022-08-27T11:46:55Z</time>
      </trkpt>
      <trkpt lat="45.84811" lon="7.03767">
        <ele>2389</ele>
        <time>2022-08-27T11:46:56Z</time>
      </trkpt>
      <trkpt lat="45.84813" lon="7.03767">
        <ele>2389</ele>
        <time>2022-08-27T11:46:57Z</time>
      </trkpt>
      <trkpt lat="45.84815" lon="7.03766">
        <ele>2389</ele>
        <time>2022-08-27T11:46:58Z</time>
      </trkpt>
      <trkpt lat="45.84817" lon="7.03766">
        <ele>2389</ele>
        <time>2022-08-27T11:46:59Z</time>
      </trkpt>
      <trkpt lat="45.84818" lon="7.03765">
        <ele>2387</ele>
        <time>2022-08-27T11:47:00Z</time>
      </trkpt>
      <trkpt lat="45.8482" lon="7.03763">
        <ele>2387</ele>
        <time>2022-08-27T11:47:01Z</time>
      </trkpt>
      <trkpt lat="45.84822" lon="7.03763">
        <ele>2387</ele>
        <time>2022-08-27T11:47:02Z</time>
      </trkpt>
      <trkpt lat="45.84825" lon="7.03762">
        <ele>2387</ele>
        <time>2022-08-27T11:47:04Z</time>
      </trkpt>
      <trkpt lat="45.84828" lon="7.0376">
        <ele>2387</ele>
        <time>2022-08-27T11:47:06Z</time>
      </trkpt>
      <trkpt lat="45.8483" lon="7.03758">
        <ele>2387</ele>
        <time>2022-08-27T11:47:08Z</time>
      </trkpt>
      <trkpt lat="45.84833" lon="7.03755">
        <ele>2387</ele>
        <time>2022-08-27T11:47:10Z</time>
      </trkpt>
      <trkpt lat="45.84835" lon="7.03753">
        <ele>2386</ele>
        <time>2022-08-27T11:47:12Z</time>
      </trkpt>
      <trkpt lat="45.84837" lon="7.03751">
        <ele>2386</ele>
        <time>2022-08-27T11:47:14Z</time>
      </trkpt>
      <trkpt lat="45.8484" lon="7.03747">
        <ele>2386</ele>
        <time>2022-08-27T11:47:16Z</time>
      </trkpt>
      <trkpt lat="45.84843" lon="7.03745">
        <ele>2386</ele>
        <time>2022-08-27T11:47:18Z</time>
      </trkpt>
      <trkpt lat="45.84845" lon="7.03744">
        <ele>2385</ele>
        <time>2022-08-27T11:47:20Z</time>
      </trkpt>
      <trkpt lat="45.84848" lon="7.03743">
        <ele>2385</ele>
        <time>2022-08-27T11:47:22Z</time>
      </trkpt>
      <trkpt lat="45.84851" lon="7.03741">
        <ele>2385</ele>
        <time>2022-08-27T11:47:24Z</time>
      </trkpt>
      <trkpt lat="45.84853" lon="7.0374">
        <ele>2385</ele>
        <time>2022-08-27T11:47:25Z</time>
      </trkpt>
      <trkpt lat="45.84854" lon="7.03739">
        <ele>2385</ele>
        <time>2022-08-27T11:47:26Z</time>
      </trkpt>
      <trkpt lat="45.84856" lon="7.03737">
        <ele>2385</ele>
        <time>2022-08-27T11:47:27Z</time>
      </trkpt>
      <trkpt lat="45.84858" lon="7.03736">
        <ele>2385</ele>
        <time>2022-08-27T11:47:28Z</time>
      </trkpt>
      <trkpt lat="45.8486" lon="7.03734">
        <ele>2385</ele>
        <time>2022-08-27T11:47:29Z</time>
      </trkpt>
      <trkpt lat="45.84861" lon="7.03733">
        <ele>2384</ele>
        <time>2022-08-27T11:47:30Z</time>
      </trkpt>
      <trkpt lat="45.84863" lon="7.03731">
        <ele>2383</ele>
        <time>2022-08-27T11:47:31Z</time>
      </trkpt>
      <trkpt lat="45.84865" lon="7.03729">
        <ele>2383</ele>
        <time>2022-08-27T11:47:32Z</time>
      </trkpt>
      <trkpt lat="45.84866" lon="7.03728">
        <ele>2383</ele>
        <time>2022-08-27T11:47:33Z</time>
      </trkpt>
      <trkpt lat="45.84868" lon="7.03726">
        <ele>2383</ele>
        <time>2022-08-27T11:47:34Z</time>
      </trkpt>
      <trkpt lat="45.84869" lon="7.03724">
        <ele>2383</ele>
        <time>2022-08-27T11:47:35Z</time>
      </trkpt>
      <trkpt lat="45.84871" lon="7.03721">
        <ele>2383</ele>
        <time>2022-08-27T11:47:37Z</time>
      </trkpt>
      <trkpt lat="45.84874" lon="7.03718">
        <ele>2382</ele>
        <time>2022-08-27T11:47:39Z</time>
      </trkpt>
      <trkpt lat="45.84877" lon="7.03714">
        <ele>2382</ele>
        <time>2022-08-27T11:47:41Z</time>
      </trkpt>
      <trkpt lat="45.84878" lon="7.03711">
        <ele>2382</ele>
        <time>2022-08-27T11:47:42Z</time>
      </trkpt>
      <trkpt lat="45.8488" lon="7.03709">
        <ele>2382</ele>
        <time>2022-08-27T11:47:43Z</time>
      </trkpt>
      <trkpt lat="45.84881" lon="7.03707">
        <ele>2382</ele>
        <time>2022-08-27T11:47:44Z</time>
      </trkpt>
      <trkpt lat="45.84883" lon="7.03704">
        <ele>2382</ele>
        <time>2022-08-27T11:47:46Z</time>
      </trkpt>
      <trkpt lat="45.84885" lon="7.03702">
        <ele>2381</ele>
        <time>2022-08-27T11:47:47Z</time>
      </trkpt>
      <trkpt lat="45.84886" lon="7.037">
        <ele>2380</ele>
        <time>2022-08-27T11:47:48Z</time>
      </trkpt>
      <trkpt lat="45.84887" lon="7.03698">
        <ele>2380</ele>
        <time>2022-08-27T11:47:49Z</time>
      </trkpt>
      <trkpt lat="45.84888" lon="7.03696">
        <ele>2380</ele>
        <time>2022-08-27T11:47:50Z</time>
      </trkpt>
      <trkpt lat="45.84889" lon="7.03693">
        <ele>2380</ele>
        <time>2022-08-27T11:47:51Z</time>
      </trkpt>
      <trkpt lat="45.8489" lon="7.03691">
        <ele>2380</ele>
        <time>2022-08-27T11:47:52Z</time>
      </trkpt>
      <trkpt lat="45.84892" lon="7.03689">
        <ele>2380</ele>
        <time>2022-08-27T11:47:53Z</time>
      </trkpt>
      <trkpt lat="45.84893" lon="7.03687">
        <ele>2379</ele>
        <time>2022-08-27T11:47:54Z</time>
      </trkpt>
      <trkpt lat="45.84894" lon="7.03685">
        <ele>2379</ele>
        <time>2022-08-27T11:47:55Z</time>
      </trkpt>
      <trkpt lat="45.84898" lon="7.03682">
        <ele>2379</ele>
        <time>2022-08-27T11:47:57Z</time>
      </trkpt>
      <trkpt lat="45.84899" lon="7.03681">
        <ele>2378</ele>
        <time>2022-08-27T11:47:58Z</time>
      </trkpt>
      <trkpt lat="45.84901" lon="7.03677">
        <ele>2378</ele>
        <time>2022-08-27T11:48:00Z</time>
      </trkpt>
      <trkpt lat="45.84903" lon="7.03673">
        <ele>2378</ele>
        <time>2022-08-27T11:48:02Z</time>
      </trkpt>
      <trkpt lat="45.84906" lon="7.0367">
        <ele>2378</ele>
        <time>2022-08-27T11:48:04Z</time>
      </trkpt>
      <trkpt lat="45.84909" lon="7.03666">
        <ele>2376</ele>
        <time>2022-08-27T11:48:06Z</time>
      </trkpt>
      <trkpt lat="45.8491" lon="7.03664">
        <ele>2376</ele>
        <time>2022-08-27T11:48:07Z</time>
      </trkpt>
      <trkpt lat="45.84911" lon="7.03663">
        <ele>2376</ele>
        <time>2022-08-27T11:48:08Z</time>
      </trkpt>
      <trkpt lat="45.84913" lon="7.03661">
        <ele>2375</ele>
        <time>2022-08-27T11:48:09Z</time>
      </trkpt>
      <trkpt lat="45.84914" lon="7.03659">
        <ele>2375</ele>
        <time>2022-08-27T11:48:10Z</time>
      </trkpt>
      <trkpt lat="45.84917" lon="7.03657">
        <ele>2375</ele>
        <time>2022-08-27T11:48:12Z</time>
      </trkpt>
      <trkpt lat="45.84919" lon="7.03655">
        <ele>2374</ele>
        <time>2022-08-27T11:48:14Z</time>
      </trkpt>
      <trkpt lat="45.84921" lon="7.03653">
        <ele>2375</ele>
        <time>2022-08-27T11:48:16Z</time>
      </trkpt>
      <trkpt lat="45.84922" lon="7.03651">
        <ele>2375</ele>
        <time>2022-08-27T11:48:17Z</time>
      </trkpt>
      <trkpt lat="45.84923" lon="7.0365">
        <ele>2375</ele>
        <time>2022-08-27T11:48:18Z</time>
      </trkpt>
      <trkpt lat="45.84925" lon="7.03648">
        <ele>2375</ele>
        <time>2022-08-27T11:48:19Z</time>
      </trkpt>
      <trkpt lat="45.84927" lon="7.03645">
        <ele>2375</ele>
        <time>2022-08-27T11:48:21Z</time>
      </trkpt>
      <trkpt lat="45.8493" lon="7.03643">
        <ele>2374</ele>
        <time>2022-08-27T11:48:23Z</time>
      </trkpt>
      <trkpt lat="45.84933" lon="7.03641">
        <ele>2374</ele>
        <time>2022-08-27T11:48:25Z</time>
      </trkpt>
      <trkpt lat="45.84936" lon="7.03641">
        <ele>2374</ele>
        <time>2022-08-27T11:48:27Z</time>
      </trkpt>
      <trkpt lat="45.84938" lon="7.03641">
        <ele>2374</ele>
        <time>2022-08-27T11:48:29Z</time>
      </trkpt>
      <trkpt lat="45.84941" lon="7.0364">
        <ele>2375</ele>
        <time>2022-08-27T11:48:31Z</time>
      </trkpt>
      <trkpt lat="45.84944" lon="7.0364">
        <ele>2375</ele>
        <time>2022-08-27T11:48:33Z</time>
      </trkpt>
      <trkpt lat="45.84946" lon="7.0364">
        <ele>2375</ele>
        <time>2022-08-27T11:48:35Z</time>
      </trkpt>
      <trkpt lat="45.84947" lon="7.03641">
        <ele>2375</ele>
        <time>2022-08-27T11:48:36Z</time>
      </trkpt>
      <trkpt lat="45.84949" lon="7.03643">
        <ele>2375</ele>
        <time>2022-08-27T11:48:37Z</time>
      </trkpt>
      <trkpt lat="45.8495" lon="7.03644">
        <ele>2376</ele>
        <time>2022-08-27T11:48:38Z</time>
      </trkpt>
      <trkpt lat="45.84952" lon="7.03646">
        <ele>2376</ele>
        <time>2022-08-27T11:48:39Z</time>
      </trkpt>
      <trkpt lat="45.84954" lon="7.03647">
        <ele>2376</ele>
        <time>2022-08-27T11:48:40Z</time>
      </trkpt>
      <trkpt lat="45.84956" lon="7.03648">
        <ele>2375</ele>
        <time>2022-08-27T11:48:41Z</time>
      </trkpt>
      <trkpt lat="45.84959" lon="7.0365">
        <ele>2375</ele>
        <time>2022-08-27T11:48:42Z</time>
      </trkpt>
      <trkpt lat="45.84959" lon="7.03651">
        <ele>2375</ele>
        <time>2022-08-27T11:48:43Z</time>
      </trkpt>
      <trkpt lat="45.84961" lon="7.03653">
        <ele>2374</ele>
        <time>2022-08-27T11:48:44Z</time>
      </trkpt>
      <trkpt lat="45.84963" lon="7.03655">
        <ele>2373</ele>
        <time>2022-08-27T11:48:45Z</time>
      </trkpt>
      <trkpt lat="45.84963" lon="7.03657">
        <ele>2373</ele>
        <time>2022-08-27T11:48:46Z</time>
      </trkpt>
      <trkpt lat="45.84964" lon="7.0366">
        <ele>2373</ele>
        <time>2022-08-27T11:48:47Z</time>
      </trkpt>
      <trkpt lat="45.84963" lon="7.03663">
        <ele>2372</ele>
        <time>2022-08-27T11:48:48Z</time>
      </trkpt>
      <trkpt lat="45.84963" lon="7.03665">
        <ele>2372</ele>
        <time>2022-08-27T11:48:49Z</time>
      </trkpt>
      <trkpt lat="45.84962" lon="7.0367">
        <ele>2371</ele>
        <time>2022-08-27T11:48:51Z</time>
      </trkpt>
      <trkpt lat="45.84962" lon="7.03673">
        <ele>2371</ele>
        <time>2022-08-27T11:48:52Z</time>
      </trkpt>
      <trkpt lat="45.84961" lon="7.03678">
        <ele>2371</ele>
        <time>2022-08-27T11:48:54Z</time>
      </trkpt>
      <trkpt lat="45.8496" lon="7.0368">
        <ele>2371</ele>
        <time>2022-08-27T11:48:55Z</time>
      </trkpt>
      <trkpt lat="45.8496" lon="7.03683">
        <ele>2370</ele>
        <time>2022-08-27T11:48:56Z</time>
      </trkpt>
      <trkpt lat="45.8496" lon="7.03686">
        <ele>2370</ele>
        <time>2022-08-27T11:48:57Z</time>
      </trkpt>
      <trkpt lat="45.8496" lon="7.03689">
        <ele>2370</ele>
        <time>2022-08-27T11:48:58Z</time>
      </trkpt>
      <trkpt lat="45.8496" lon="7.03691">
        <ele>2370</ele>
        <time>2022-08-27T11:48:59Z</time>
      </trkpt>
      <trkpt lat="45.84961" lon="7.03696">
        <ele>2370</ele>
        <time>2022-08-27T11:49:01Z</time>
      </trkpt>
      <trkpt lat="45.84962" lon="7.037">
        <ele>2370</ele>
        <time>2022-08-27T11:49:03Z</time>
      </trkpt>
      <trkpt lat="45.84965" lon="7.03703">
        <ele>2370</ele>
        <time>2022-08-27T11:49:05Z</time>
      </trkpt>
      <trkpt lat="45.84968" lon="7.03705">
        <ele>2370</ele>
        <time>2022-08-27T11:49:07Z</time>
      </trkpt>
      <trkpt lat="45.8497" lon="7.03705">
        <ele>2369</ele>
        <time>2022-08-27T11:49:09Z</time>
      </trkpt>
      <trkpt lat="45.84973" lon="7.03704">
        <ele>2369</ele>
        <time>2022-08-27T11:49:11Z</time>
      </trkpt>
      <trkpt lat="45.84975" lon="7.03704">
        <ele>2369</ele>
        <time>2022-08-27T11:49:13Z</time>
      </trkpt>
      <trkpt lat="45.84977" lon="7.03705">
        <ele>2369</ele>
        <time>2022-08-27T11:49:15Z</time>
      </trkpt>
      <trkpt lat="45.8498" lon="7.03707">
        <ele>2370</ele>
        <time>2022-08-27T11:49:18Z</time>
      </trkpt>
      <trkpt lat="45.84982" lon="7.03709">
        <ele>2370</ele>
        <time>2022-08-27T11:49:21Z</time>
      </trkpt>
      <trkpt lat="45.84984" lon="7.0371">
        <ele>2371</ele>
        <time>2022-08-27T11:49:23Z</time>
      </trkpt>
      <trkpt lat="45.84986" lon="7.03712">
        <ele>2371</ele>
        <time>2022-08-27T11:49:25Z</time>
      </trkpt>
      <trkpt lat="45.84988" lon="7.03714">
        <ele>2372</ele>
        <time>2022-08-27T11:49:27Z</time>
      </trkpt>
      <trkpt lat="45.8499" lon="7.03716">
        <ele>2372</ele>
        <time>2022-08-27T11:49:30Z</time>
      </trkpt>
      <trkpt lat="45.84992" lon="7.03718">
        <ele>2372</ele>
        <time>2022-08-27T11:49:32Z</time>
      </trkpt>
      <trkpt lat="45.84994" lon="7.03719">
        <ele>2372</ele>
        <time>2022-08-27T11:49:34Z</time>
      </trkpt>
      <trkpt lat="45.84996" lon="7.03721">
        <ele>2373</ele>
        <time>2022-08-27T11:49:36Z</time>
      </trkpt>
      <trkpt lat="45.84998" lon="7.03723">
        <ele>2373</ele>
        <time>2022-08-27T11:49:38Z</time>
      </trkpt>
      <trkpt lat="45.84999" lon="7.03725">
        <ele>2374</ele>
        <time>2022-08-27T11:49:41Z</time>
      </trkpt>
      <trkpt lat="45.85001" lon="7.03726">
        <ele>2375</ele>
        <time>2022-08-27T11:49:44Z</time>
      </trkpt>
      <trkpt lat="45.85003" lon="7.03726">
        <ele>2375</ele>
        <time>2022-08-27T11:49:46Z</time>
      </trkpt>
      <trkpt lat="45.85005" lon="7.03726">
        <ele>2375</ele>
        <time>2022-08-27T11:49:48Z</time>
      </trkpt>
      <trkpt lat="45.85007" lon="7.03726">
        <ele>2375</ele>
        <time>2022-08-27T11:49:51Z</time>
      </trkpt>
      <trkpt lat="45.8501" lon="7.03726">
        <ele>2375</ele>
        <time>2022-08-27T11:49:54Z</time>
      </trkpt>
      <trkpt lat="45.85012" lon="7.03727">
        <ele>2376</ele>
        <time>2022-08-27T11:49:57Z</time>
      </trkpt>
      <trkpt lat="45.85014" lon="7.03728">
        <ele>2376</ele>
        <time>2022-08-27T11:49:59Z</time>
      </trkpt>
      <trkpt lat="45.85016" lon="7.03729">
        <ele>2376</ele>
        <time>2022-08-27T11:50:01Z</time>
      </trkpt>
      <trkpt lat="45.85018" lon="7.0373">
        <ele>2378</ele>
        <time>2022-08-27T11:50:03Z</time>
      </trkpt>
      <trkpt lat="45.85019" lon="7.03731">
        <ele>2378</ele>
        <time>2022-08-27T11:50:05Z</time>
      </trkpt>
      <trkpt lat="45.85021" lon="7.03732">
        <ele>2379</ele>
        <time>2022-08-27T11:50:07Z</time>
      </trkpt>
      <trkpt lat="45.85023" lon="7.03734">
        <ele>2379</ele>
        <time>2022-08-27T11:50:09Z</time>
      </trkpt>
      <trkpt lat="45.85025" lon="7.03735">
        <ele>2379</ele>
        <time>2022-08-27T11:50:11Z</time>
      </trkpt>
      <trkpt lat="45.85028" lon="7.03737">
        <ele>2379</ele>
        <time>2022-08-27T11:50:13Z</time>
      </trkpt>
      <trkpt lat="45.8503" lon="7.03738">
        <ele>2379</ele>
        <time>2022-08-27T11:50:15Z</time>
      </trkpt>
      <trkpt lat="45.85032" lon="7.03739">
        <ele>2379</ele>
        <time>2022-08-27T11:50:17Z</time>
      </trkpt>
      <trkpt lat="45.85035" lon="7.0374">
        <ele>2379</ele>
        <time>2022-08-27T11:50:19Z</time>
      </trkpt>
      <trkpt lat="45.85037" lon="7.03741">
        <ele>2379</ele>
        <time>2022-08-27T11:50:21Z</time>
      </trkpt>
      <trkpt lat="45.85039" lon="7.03743">
        <ele>2379</ele>
        <time>2022-08-27T11:50:23Z</time>
      </trkpt>
      <trkpt lat="45.85041" lon="7.03745">
        <ele>2379</ele>
        <time>2022-08-27T11:50:25Z</time>
      </trkpt>
      <trkpt lat="45.85044" lon="7.03747">
        <ele>2379</ele>
        <time>2022-08-27T11:50:27Z</time>
      </trkpt>
      <trkpt lat="45.85046" lon="7.03748">
        <ele>2379</ele>
        <time>2022-08-27T11:50:29Z</time>
      </trkpt>
      <trkpt lat="45.85048" lon="7.0375">
        <ele>2378</ele>
        <time>2022-08-27T11:50:31Z</time>
      </trkpt>
      <trkpt lat="45.85051" lon="7.03752">
        <ele>2379</ele>
        <time>2022-08-27T11:50:33Z</time>
      </trkpt>
      <trkpt lat="45.85052" lon="7.03755">
        <ele>2379</ele>
        <time>2022-08-27T11:50:35Z</time>
      </trkpt>
      <trkpt lat="45.85054" lon="7.03757">
        <ele>2380</ele>
        <time>2022-08-27T11:50:37Z</time>
      </trkpt>
      <trkpt lat="45.85056" lon="7.03759">
        <ele>2381</ele>
        <time>2022-08-27T11:50:39Z</time>
      </trkpt>
      <trkpt lat="45.85058" lon="7.03761">
        <ele>2381</ele>
        <time>2022-08-27T11:50:41Z</time>
      </trkpt>
      <trkpt lat="45.85059" lon="7.03762">
        <ele>2381</ele>
        <time>2022-08-27T11:50:43Z</time>
      </trkpt>
      <trkpt lat="45.85061" lon="7.03764">
        <ele>2381</ele>
        <time>2022-08-27T11:50:45Z</time>
      </trkpt>
      <trkpt lat="45.85063" lon="7.03765">
        <ele>2381</ele>
        <time>2022-08-27T11:50:47Z</time>
      </trkpt>
      <trkpt lat="45.85065" lon="7.03765">
        <ele>2381</ele>
        <time>2022-08-27T11:50:49Z</time>
      </trkpt>
      <trkpt lat="45.85068" lon="7.03766">
        <ele>2381</ele>
        <time>2022-08-27T11:50:51Z</time>
      </trkpt>
      <trkpt lat="45.8507" lon="7.03767">
        <ele>2381</ele>
        <time>2022-08-27T11:50:53Z</time>
      </trkpt>
      <trkpt lat="45.85072" lon="7.03768">
        <ele>2381</ele>
        <time>2022-08-27T11:50:55Z</time>
      </trkpt>
      <trkpt lat="45.85075" lon="7.03769">
        <ele>2381</ele>
        <time>2022-08-27T11:50:57Z</time>
      </trkpt>
      <trkpt lat="45.85077" lon="7.03771">
        <ele>2381</ele>
        <time>2022-08-27T11:50:59Z</time>
      </trkpt>
      <trkpt lat="45.85079" lon="7.03773">
        <ele>2382</ele>
        <time>2022-08-27T11:51:01Z</time>
      </trkpt>
      <trkpt lat="45.85081" lon="7.03774">
        <ele>2382</ele>
        <time>2022-08-27T11:51:03Z</time>
      </trkpt>
      <trkpt lat="45.85084" lon="7.03775">
        <ele>2382</ele>
        <time>2022-08-27T11:51:05Z</time>
      </trkpt>
      <trkpt lat="45.85086" lon="7.03776">
        <ele>2382</ele>
        <time>2022-08-27T11:51:07Z</time>
      </trkpt>
      <trkpt lat="45.85088" lon="7.03777">
        <ele>2382</ele>
        <time>2022-08-27T11:51:09Z</time>
      </trkpt>
      <trkpt lat="45.8509" lon="7.03778">
        <ele>2383</ele>
        <time>2022-08-27T11:51:11Z</time>
      </trkpt>
      <trkpt lat="45.85092" lon="7.03779">
        <ele>2383</ele>
        <time>2022-08-27T11:51:13Z</time>
      </trkpt>
      <trkpt lat="45.85094" lon="7.03779">
        <ele>2383</ele>
        <time>2022-08-27T11:51:15Z</time>
      </trkpt>
      <trkpt lat="45.85096" lon="7.0378">
        <ele>2383</ele>
        <time>2022-08-27T11:51:17Z</time>
      </trkpt>
      <trkpt lat="45.85098" lon="7.03781">
        <ele>2383</ele>
        <time>2022-08-27T11:51:19Z</time>
      </trkpt>
      <trkpt lat="45.851" lon="7.03782">
        <ele>2383</ele>
        <time>2022-08-27T11:51:21Z</time>
      </trkpt>
      <trkpt lat="45.85102" lon="7.03783">
        <ele>2383</ele>
        <time>2022-08-27T11:51:23Z</time>
      </trkpt>
      <trkpt lat="45.85104" lon="7.03783">
        <ele>2383</ele>
        <time>2022-08-27T11:51:25Z</time>
      </trkpt>
      <trkpt lat="45.85106" lon="7.03784">
        <ele>2385</ele>
        <time>2022-08-27T11:51:27Z</time>
      </trkpt>
      <trkpt lat="45.85109" lon="7.03784">
        <ele>2385</ele>
        <time>2022-08-27T11:51:29Z</time>
      </trkpt>
      <trkpt lat="45.85111" lon="7.03785">
        <ele>2384</ele>
        <time>2022-08-27T11:51:31Z</time>
      </trkpt>
      <trkpt lat="45.85113" lon="7.03786">
        <ele>2385</ele>
        <time>2022-08-27T11:51:33Z</time>
      </trkpt>
      <trkpt lat="45.85115" lon="7.03787">
        <ele>2385</ele>
        <time>2022-08-27T11:51:35Z</time>
      </trkpt>
      <trkpt lat="45.85118" lon="7.03788">
        <ele>2385</ele>
        <time>2022-08-27T11:51:37Z</time>
      </trkpt>
      <trkpt lat="45.8512" lon="7.03789">
        <ele>2385</ele>
        <time>2022-08-27T11:51:39Z</time>
      </trkpt>
      <trkpt lat="45.85121" lon="7.03791">
        <ele>2386</ele>
        <time>2022-08-27T11:51:41Z</time>
      </trkpt>
      <trkpt lat="45.85123" lon="7.03792">
        <ele>2386</ele>
        <time>2022-08-27T11:51:43Z</time>
      </trkpt>
      <trkpt lat="45.85125" lon="7.03792">
        <ele>2386</ele>
        <time>2022-08-27T11:51:45Z</time>
      </trkpt>
      <trkpt lat="45.85127" lon="7.03793">
        <ele>2386</ele>
        <time>2022-08-27T11:51:47Z</time>
      </trkpt>
      <trkpt lat="45.8513" lon="7.03794">
        <ele>2386</ele>
        <time>2022-08-27T11:51:49Z</time>
      </trkpt>
      <trkpt lat="45.85132" lon="7.03795">
        <ele>2387</ele>
        <time>2022-08-27T11:51:51Z</time>
      </trkpt>
      <trkpt lat="45.85134" lon="7.03796">
        <ele>2387</ele>
        <time>2022-08-27T11:51:53Z</time>
      </trkpt>
      <trkpt lat="45.85136" lon="7.03797">
        <ele>2387</ele>
        <time>2022-08-27T11:51:55Z</time>
      </trkpt>
      <trkpt lat="45.85138" lon="7.03798">
        <ele>2387</ele>
        <time>2022-08-27T11:51:57Z</time>
      </trkpt>
      <trkpt lat="45.8514" lon="7.03799">
        <ele>2388</ele>
        <time>2022-08-27T11:51:59Z</time>
      </trkpt>
      <trkpt lat="45.85142" lon="7.038">
        <ele>2388</ele>
        <time>2022-08-27T11:52:01Z</time>
      </trkpt>
      <trkpt lat="45.85143" lon="7.038">
        <ele>2388</ele>
        <time>2022-08-27T11:52:03Z</time>
      </trkpt>
      <trkpt lat="45.85146" lon="7.03802">
        <ele>2389</ele>
        <time>2022-08-27T11:52:06Z</time>
      </trkpt>
      <trkpt lat="45.85149" lon="7.03802">
        <ele>2389</ele>
        <time>2022-08-27T11:52:09Z</time>
      </trkpt>
      <trkpt lat="45.85151" lon="7.03801">
        <ele>2389</ele>
        <time>2022-08-27T11:52:11Z</time>
      </trkpt>
      <trkpt lat="45.85153" lon="7.03802">
        <ele>2390</ele>
        <time>2022-08-27T11:52:13Z</time>
      </trkpt>
      <trkpt lat="45.85155" lon="7.03802">
        <ele>2390</ele>
        <time>2022-08-27T11:52:15Z</time>
      </trkpt>
      <trkpt lat="45.85157" lon="7.03803">
        <ele>2390</ele>
        <time>2022-08-27T11:52:17Z</time>
      </trkpt>
      <trkpt lat="45.85159" lon="7.03803">
        <ele>2390</ele>
        <time>2022-08-27T11:52:19Z</time>
      </trkpt>
      <trkpt lat="45.85161" lon="7.03803">
        <ele>2390</ele>
        <time>2022-08-27T11:52:21Z</time>
      </trkpt>
      <trkpt lat="45.85163" lon="7.03804">
        <ele>2391</ele>
        <time>2022-08-27T11:52:23Z</time>
      </trkpt>
      <trkpt lat="45.85166" lon="7.03803">
        <ele>2391</ele>
        <time>2022-08-27T11:52:25Z</time>
      </trkpt>
      <trkpt lat="45.85168" lon="7.03804">
        <ele>2391</ele>
        <time>2022-08-27T11:52:27Z</time>
      </trkpt>
      <trkpt lat="45.8517" lon="7.03805">
        <ele>2391</ele>
        <time>2022-08-27T11:52:29Z</time>
      </trkpt>
      <trkpt lat="45.85171" lon="7.03806">
        <ele>2391</ele>
        <time>2022-08-27T11:52:31Z</time>
      </trkpt>
      <trkpt lat="45.85173" lon="7.03806">
        <ele>2391</ele>
        <time>2022-08-27T11:52:33Z</time>
      </trkpt>
      <trkpt lat="45.85175" lon="7.03806">
        <ele>2391</ele>
        <time>2022-08-27T11:52:35Z</time>
      </trkpt>
      <trkpt lat="45.85177" lon="7.03807">
        <ele>2391</ele>
        <time>2022-08-27T11:52:37Z</time>
      </trkpt>
      <trkpt lat="45.85179" lon="7.03808">
        <ele>2392</ele>
        <time>2022-08-27T11:52:39Z</time>
      </trkpt>
      <trkpt lat="45.85181" lon="7.03809">
        <ele>2392</ele>
        <time>2022-08-27T11:52:41Z</time>
      </trkpt>
      <trkpt lat="45.85183" lon="7.03811">
        <ele>2392</ele>
        <time>2022-08-27T11:52:43Z</time>
      </trkpt>
      <trkpt lat="45.85185" lon="7.03812">
        <ele>2393</ele>
        <time>2022-08-27T11:52:46Z</time>
      </trkpt>
      <trkpt lat="45.85187" lon="7.03813">
        <ele>2393</ele>
        <time>2022-08-27T11:52:48Z</time>
      </trkpt>
      <trkpt lat="45.85189" lon="7.03814">
        <ele>2394</ele>
        <time>2022-08-27T11:52:50Z</time>
      </trkpt>
      <trkpt lat="45.85191" lon="7.03814">
        <ele>2394</ele>
        <time>2022-08-27T11:52:52Z</time>
      </trkpt>
      <trkpt lat="45.85194" lon="7.03815">
        <ele>2394</ele>
        <time>2022-08-27T11:52:54Z</time>
      </trkpt>
      <trkpt lat="45.85196" lon="7.03816">
        <ele>2394</ele>
        <time>2022-08-27T11:52:57Z</time>
      </trkpt>
      <trkpt lat="45.85198" lon="7.03817">
        <ele>2394</ele>
        <time>2022-08-27T11:52:59Z</time>
      </trkpt>
      <trkpt lat="45.852" lon="7.03818">
        <ele>2394</ele>
        <time>2022-08-27T11:53:01Z</time>
      </trkpt>
      <trkpt lat="45.85202" lon="7.03819">
        <ele>2395</ele>
        <time>2022-08-27T11:53:03Z</time>
      </trkpt>
      <trkpt lat="45.85204" lon="7.0382">
        <ele>2396</ele>
        <time>2022-08-27T11:53:05Z</time>
      </trkpt>
      <trkpt lat="45.85206" lon="7.03821">
        <ele>2396</ele>
        <time>2022-08-27T11:53:07Z</time>
      </trkpt>
      <trkpt lat="45.85207" lon="7.03821">
        <ele>2396</ele>
        <time>2022-08-27T11:53:09Z</time>
      </trkpt>
      <trkpt lat="45.85209" lon="7.03821">
        <ele>2396</ele>
        <time>2022-08-27T11:53:11Z</time>
      </trkpt>
      <trkpt lat="45.85212" lon="7.03823">
        <ele>2397</ele>
        <time>2022-08-27T11:53:14Z</time>
      </trkpt>
      <trkpt lat="45.85214" lon="7.03823">
        <ele>2397</ele>
        <time>2022-08-27T11:53:16Z</time>
      </trkpt>
      <trkpt lat="45.85216" lon="7.03823">
        <ele>2397</ele>
        <time>2022-08-27T11:53:18Z</time>
      </trkpt>
      <trkpt lat="45.85219" lon="7.03823">
        <ele>2397</ele>
        <time>2022-08-27T11:53:20Z</time>
      </trkpt>
      <trkpt lat="45.85221" lon="7.03824">
        <ele>2397</ele>
        <time>2022-08-27T11:53:22Z</time>
      </trkpt>
      <trkpt lat="45.85223" lon="7.03825">
        <ele>2397</ele>
        <time>2022-08-27T11:53:24Z</time>
      </trkpt>
      <trkpt lat="45.85225" lon="7.03826">
        <ele>2397</ele>
        <time>2022-08-27T11:53:26Z</time>
      </trkpt>
      <trkpt lat="45.85228" lon="7.03827">
        <ele>2397</ele>
        <time>2022-08-27T11:53:28Z</time>
      </trkpt>
      <trkpt lat="45.8523" lon="7.03828">
        <ele>2398</ele>
        <time>2022-08-27T11:53:30Z</time>
      </trkpt>
      <trkpt lat="45.85232" lon="7.03829">
        <ele>2398</ele>
        <time>2022-08-27T11:53:32Z</time>
      </trkpt>
      <trkpt lat="45.85234" lon="7.0383">
        <ele>2398</ele>
        <time>2022-08-27T11:53:34Z</time>
      </trkpt>
      <trkpt lat="45.85236" lon="7.03831">
        <ele>2399</ele>
        <time>2022-08-27T11:53:36Z</time>
      </trkpt>
      <trkpt lat="45.85238" lon="7.03831">
        <ele>2399</ele>
        <time>2022-08-27T11:53:38Z</time>
      </trkpt>
      <trkpt lat="45.8524" lon="7.03831">
        <ele>2399</ele>
        <time>2022-08-27T11:53:40Z</time>
      </trkpt>
      <trkpt lat="45.85243" lon="7.0383">
        <ele>2399</ele>
        <time>2022-08-27T11:53:42Z</time>
      </trkpt>
      <trkpt lat="45.85246" lon="7.0383">
        <ele>2399</ele>
        <time>2022-08-27T11:53:44Z</time>
      </trkpt>
      <trkpt lat="45.85248" lon="7.0383">
        <ele>2399</ele>
        <time>2022-08-27T11:53:46Z</time>
      </trkpt>
      <trkpt lat="45.8525" lon="7.0383">
        <ele>2399</ele>
        <time>2022-08-27T11:53:48Z</time>
      </trkpt>
      <trkpt lat="45.85253" lon="7.03831">
        <ele>2400</ele>
        <time>2022-08-27T11:53:51Z</time>
      </trkpt>
      <trkpt lat="45.85255" lon="7.03832">
        <ele>2400</ele>
        <time>2022-08-27T11:53:53Z</time>
      </trkpt>
      <trkpt lat="45.85257" lon="7.03832">
        <ele>2400</ele>
        <time>2022-08-27T11:53:56Z</time>
      </trkpt>
      <trkpt lat="45.8526" lon="7.03832">
        <ele>2400</ele>
        <time>2022-08-27T11:53:58Z</time>
      </trkpt>
      <trkpt lat="45.85262" lon="7.03833">
        <ele>2400</ele>
        <time>2022-08-27T11:54:00Z</time>
      </trkpt>
      <trkpt lat="45.85264" lon="7.03834">
        <ele>2401</ele>
        <time>2022-08-27T11:54:03Z</time>
      </trkpt>
      <trkpt lat="45.85266" lon="7.03835">
        <ele>2402</ele>
        <time>2022-08-27T11:54:06Z</time>
      </trkpt>
      <trkpt lat="45.85268" lon="7.03835">
        <ele>2404</ele>
        <time>2022-08-27T11:54:08Z</time>
      </trkpt>
      <trkpt lat="45.85271" lon="7.03836">
        <ele>2404</ele>
        <time>2022-08-27T11:54:10Z</time>
      </trkpt>
      <trkpt lat="45.85273" lon="7.03836">
        <ele>2404</ele>
        <time>2022-08-27T11:54:12Z</time>
      </trkpt>
      <trkpt lat="45.85275" lon="7.03837">
        <ele>2404</ele>
        <time>2022-08-27T11:54:14Z</time>
      </trkpt>
      <trkpt lat="45.85277" lon="7.03837">
        <ele>2404</ele>
        <time>2022-08-27T11:54:16Z</time>
      </trkpt>
      <trkpt lat="45.85278" lon="7.03838">
        <ele>2404</ele>
        <time>2022-08-27T11:54:18Z</time>
      </trkpt>
      <trkpt lat="45.8528" lon="7.03839">
        <ele>2406</ele>
        <time>2022-08-27T11:54:20Z</time>
      </trkpt>
      <trkpt lat="45.85283" lon="7.03839">
        <ele>2406</ele>
        <time>2022-08-27T11:54:23Z</time>
      </trkpt>
      <trkpt lat="45.85285" lon="7.0384">
        <ele>2405</ele>
        <time>2022-08-27T11:54:25Z</time>
      </trkpt>
      <trkpt lat="45.85287" lon="7.0384">
        <ele>2405</ele>
        <time>2022-08-27T11:54:27Z</time>
      </trkpt>
      <trkpt lat="45.85289" lon="7.0384">
        <ele>2406</ele>
        <time>2022-08-27T11:54:29Z</time>
      </trkpt>
      <trkpt lat="45.85291" lon="7.0384">
        <ele>2406</ele>
        <time>2022-08-27T11:54:31Z</time>
      </trkpt>
      <trkpt lat="45.85294" lon="7.03841">
        <ele>2407</ele>
        <time>2022-08-27T11:54:34Z</time>
      </trkpt>
      <trkpt lat="45.85296" lon="7.03842">
        <ele>2407</ele>
        <time>2022-08-27T11:54:37Z</time>
      </trkpt>
      <trkpt lat="45.85298" lon="7.03843">
        <ele>2409</ele>
        <time>2022-08-27T11:54:40Z</time>
      </trkpt>
      <trkpt lat="45.853" lon="7.03844">
        <ele>2408</ele>
        <time>2022-08-27T11:54:43Z</time>
      </trkpt>
      <trkpt lat="45.85302" lon="7.03844">
        <ele>2410</ele>
        <time>2022-08-27T11:54:46Z</time>
      </trkpt>
      <trkpt lat="45.85304" lon="7.03845">
        <ele>2410</ele>
        <time>2022-08-27T11:54:49Z</time>
      </trkpt>
      <trkpt lat="45.85306" lon="7.03846">
        <ele>2410</ele>
        <time>2022-08-27T11:54:52Z</time>
      </trkpt>
      <trkpt lat="45.85308" lon="7.03846">
        <ele>2410</ele>
        <time>2022-08-27T11:54:55Z</time>
      </trkpt>
      <trkpt lat="45.8531" lon="7.03846">
        <ele>2411</ele>
        <time>2022-08-27T11:54:58Z</time>
      </trkpt>
      <trkpt lat="45.85313" lon="7.03847">
        <ele>2412</ele>
        <time>2022-08-27T11:55:01Z</time>
      </trkpt>
      <trkpt lat="45.85315" lon="7.03849">
        <ele>2412</ele>
        <time>2022-08-27T11:55:04Z</time>
      </trkpt>
      <trkpt lat="45.85318" lon="7.0385">
        <ele>2412</ele>
        <time>2022-08-27T11:55:07Z</time>
      </trkpt>
      <trkpt lat="45.8532" lon="7.03851">
        <ele>2413</ele>
        <time>2022-08-27T11:55:10Z</time>
      </trkpt>
      <trkpt lat="45.85322" lon="7.03851">
        <ele>2413</ele>
        <time>2022-08-27T11:55:13Z</time>
      </trkpt>
      <trkpt lat="45.85325" lon="7.03852">
        <ele>2414</ele>
        <time>2022-08-27T11:55:16Z</time>
      </trkpt>
      <trkpt lat="45.85327" lon="7.03852">
        <ele>2414</ele>
        <time>2022-08-27T11:55:19Z</time>
      </trkpt>
      <trkpt lat="45.85329" lon="7.03853">
        <ele>2415</ele>
        <time>2022-08-27T11:55:22Z</time>
      </trkpt>
      <trkpt lat="45.85332" lon="7.03855">
        <ele>2416</ele>
        <time>2022-08-27T11:55:25Z</time>
      </trkpt>
      <trkpt lat="45.85334" lon="7.03855">
        <ele>2416</ele>
        <time>2022-08-27T11:55:28Z</time>
      </trkpt>
      <trkpt lat="45.85337" lon="7.03856">
        <ele>2417</ele>
        <time>2022-08-27T11:55:31Z</time>
      </trkpt>
      <trkpt lat="45.8534" lon="7.03857">
        <ele>2416</ele>
        <time>2022-08-27T11:55:34Z</time>
      </trkpt>
      <trkpt lat="45.85342" lon="7.03857">
        <ele>2417</ele>
        <time>2022-08-27T11:55:37Z</time>
      </trkpt>
      <trkpt lat="45.85344" lon="7.03858">
        <ele>2417</ele>
        <time>2022-08-27T11:55:40Z</time>
      </trkpt>
      <trkpt lat="45.85347" lon="7.03858">
        <ele>2417</ele>
        <time>2022-08-27T11:55:43Z</time>
      </trkpt>
      <trkpt lat="45.8535" lon="7.0386">
        <ele>2418</ele>
        <time>2022-08-27T11:55:46Z</time>
      </trkpt>
      <trkpt lat="45.85352" lon="7.03861">
        <ele>2418</ele>
        <time>2022-08-27T11:55:49Z</time>
      </trkpt>
      <trkpt lat="45.85353" lon="7.03862">
        <ele>2419</ele>
        <time>2022-08-27T11:55:52Z</time>
      </trkpt>
      <trkpt lat="45.85355" lon="7.03864">
        <ele>2419</ele>
        <time>2022-08-27T11:55:55Z</time>
      </trkpt>
      <trkpt lat="45.85357" lon="7.03865">
        <ele>2419</ele>
        <time>2022-08-27T11:55:57Z</time>
      </trkpt>
      <trkpt lat="45.85359" lon="7.03866">
        <ele>2419</ele>
        <time>2022-08-27T11:55:59Z</time>
      </trkpt>
      <trkpt lat="45.85361" lon="7.03867">
        <ele>2420</ele>
        <time>2022-08-27T11:56:01Z</time>
      </trkpt>
      <trkpt lat="45.85363" lon="7.03868">
        <ele>2420</ele>
        <time>2022-08-27T11:56:03Z</time>
      </trkpt>
      <trkpt lat="45.85366" lon="7.03868">
        <ele>2420</ele>
        <time>2022-08-27T11:56:05Z</time>
      </trkpt>
      <trkpt lat="45.85368" lon="7.03869">
        <ele>2420</ele>
        <time>2022-08-27T11:56:07Z</time>
      </trkpt>
      <trkpt lat="45.85371" lon="7.03868">
        <ele>2420</ele>
        <time>2022-08-27T11:56:09Z</time>
      </trkpt>
      <trkpt lat="45.85373" lon="7.03866">
        <ele>2420</ele>
        <time>2022-08-27T11:56:11Z</time>
      </trkpt>
      <trkpt lat="45.85376" lon="7.03865">
        <ele>2419</ele>
        <time>2022-08-27T11:56:13Z</time>
      </trkpt>
      <trkpt lat="45.85379" lon="7.03865">
        <ele>2419</ele>
        <time>2022-08-27T11:56:15Z</time>
      </trkpt>
      <trkpt lat="45.85381" lon="7.03865">
        <ele>2419</ele>
        <time>2022-08-27T11:56:17Z</time>
      </trkpt>
      <trkpt lat="45.85383" lon="7.03866">
        <ele>2419</ele>
        <time>2022-08-27T11:56:19Z</time>
      </trkpt>
      <trkpt lat="45.85385" lon="7.03867">
        <ele>2420</ele>
        <time>2022-08-27T11:56:21Z</time>
      </trkpt>
      <trkpt lat="45.85387" lon="7.03868">
        <ele>2420</ele>
        <time>2022-08-27T11:56:24Z</time>
      </trkpt>
      <trkpt lat="45.85389" lon="7.03868">
        <ele>2421</ele>
        <time>2022-08-27T11:56:26Z</time>
      </trkpt>
      <trkpt lat="45.8539" lon="7.03869">
        <ele>2421</ele>
        <time>2022-08-27T11:56:28Z</time>
      </trkpt>
      <trkpt lat="45.85392" lon="7.0387">
        <ele>2421</ele>
        <time>2022-08-27T11:56:30Z</time>
      </trkpt>
      <trkpt lat="45.85395" lon="7.03871">
        <ele>2421</ele>
        <time>2022-08-27T11:56:33Z</time>
      </trkpt>
      <trkpt lat="45.85397" lon="7.03872">
        <ele>2422</ele>
        <time>2022-08-27T11:56:36Z</time>
      </trkpt>
      <trkpt lat="45.85399" lon="7.03872">
        <ele>2422</ele>
        <time>2022-08-27T11:56:38Z</time>
      </trkpt>
      <trkpt lat="45.85401" lon="7.03872">
        <ele>2422</ele>
        <time>2022-08-27T11:56:40Z</time>
      </trkpt>
      <trkpt lat="45.85404" lon="7.03874">
        <ele>2423</ele>
        <time>2022-08-27T11:56:43Z</time>
      </trkpt>
      <trkpt lat="45.85406" lon="7.03875">
        <ele>2424</ele>
        <time>2022-08-27T11:56:46Z</time>
      </trkpt>
      <trkpt lat="45.85408" lon="7.03875">
        <ele>2424</ele>
        <time>2022-08-27T11:56:49Z</time>
      </trkpt>
      <trkpt lat="45.8541" lon="7.03876">
        <ele>2425</ele>
        <time>2022-08-27T11:56:52Z</time>
      </trkpt>
      <trkpt lat="45.85413" lon="7.03876">
        <ele>2425</ele>
        <time>2022-08-27T11:56:55Z</time>
      </trkpt>
      <trkpt lat="45.85415" lon="7.03877">
        <ele>2425</ele>
        <time>2022-08-27T11:56:58Z</time>
      </trkpt>
      <trkpt lat="45.85417" lon="7.03877">
        <ele>2426</ele>
        <time>2022-08-27T11:57:01Z</time>
      </trkpt>
      <trkpt lat="45.85419" lon="7.03879">
        <ele>2426</ele>
        <time>2022-08-27T11:57:04Z</time>
      </trkpt>
      <trkpt lat="45.85421" lon="7.03879">
        <ele>2427</ele>
        <time>2022-08-27T11:57:08Z</time>
      </trkpt>
      <trkpt lat="45.85423" lon="7.03878">
        <ele>2427</ele>
        <time>2022-08-27T11:57:11Z</time>
      </trkpt>
      <trkpt lat="45.85425" lon="7.03879">
        <ele>2427</ele>
        <time>2022-08-27T11:57:14Z</time>
      </trkpt>
      <trkpt lat="45.85428" lon="7.03878">
        <ele>2428</ele>
        <time>2022-08-27T11:57:18Z</time>
      </trkpt>
      <trkpt lat="45.8543" lon="7.03877">
        <ele>2428</ele>
        <time>2022-08-27T11:57:21Z</time>
      </trkpt>
      <trkpt lat="45.85432" lon="7.03876">
        <ele>2430</ele>
        <time>2022-08-27T11:57:24Z</time>
      </trkpt>
      <trkpt lat="45.85434" lon="7.03878">
        <ele>2430</ele>
        <time>2022-08-27T11:57:27Z</time>
      </trkpt>
      <trkpt lat="45.85436" lon="7.03878">
        <ele>2430</ele>
        <time>2022-08-27T11:57:30Z</time>
      </trkpt>
      <trkpt lat="45.85439" lon="7.03879">
        <ele>2431</ele>
        <time>2022-08-27T11:57:33Z</time>
      </trkpt>
      <trkpt lat="45.85442" lon="7.03879">
        <ele>2432</ele>
        <time>2022-08-27T11:57:36Z</time>
      </trkpt>
      <trkpt lat="45.85444" lon="7.0388">
        <ele>2432</ele>
        <time>2022-08-27T11:57:38Z</time>
      </trkpt>
      <trkpt lat="45.85445" lon="7.03881">
        <ele>2432</ele>
        <time>2022-08-27T11:57:40Z</time>
      </trkpt>
      <trkpt lat="45.85448" lon="7.03881">
        <ele>2432</ele>
        <time>2022-08-27T11:57:43Z</time>
      </trkpt>
      <trkpt lat="45.8545" lon="7.03881">
        <ele>2432</ele>
        <time>2022-08-27T11:57:45Z</time>
      </trkpt>
      <trkpt lat="45.85452" lon="7.0388">
        <ele>2432</ele>
        <time>2022-08-27T11:57:47Z</time>
      </trkpt>
      <trkpt lat="45.85454" lon="7.03879">
        <ele>2432</ele>
        <time>2022-08-27T11:57:49Z</time>
      </trkpt>
      <trkpt lat="45.85456" lon="7.03879">
        <ele>2432</ele>
        <time>2022-08-27T11:57:51Z</time>
      </trkpt>
      <trkpt lat="45.85458" lon="7.0388">
        <ele>2432</ele>
        <time>2022-08-27T11:57:53Z</time>
      </trkpt>
      <trkpt lat="45.8546" lon="7.03881">
        <ele>2432</ele>
        <time>2022-08-27T11:57:55Z</time>
      </trkpt>
      <trkpt lat="45.85463" lon="7.03882">
        <ele>2432</ele>
        <time>2022-08-27T11:57:57Z</time>
      </trkpt>
      <trkpt lat="45.85465" lon="7.03883">
        <ele>2432</ele>
        <time>2022-08-27T11:57:59Z</time>
      </trkpt>
      <trkpt lat="45.85468" lon="7.03885">
        <ele>2432</ele>
        <time>2022-08-27T11:58:01Z</time>
      </trkpt>
      <trkpt lat="45.8547" lon="7.03886">
        <ele>2432</ele>
        <time>2022-08-27T11:58:03Z</time>
      </trkpt>
      <trkpt lat="45.85473" lon="7.03887">
        <ele>2432</ele>
        <time>2022-08-27T11:58:05Z</time>
      </trkpt>
      <trkpt lat="45.85475" lon="7.03889">
        <ele>2431</ele>
        <time>2022-08-27T11:58:07Z</time>
      </trkpt>
      <trkpt lat="45.85478" lon="7.03891">
        <ele>2431</ele>
        <time>2022-08-27T11:58:09Z</time>
      </trkpt>
      <trkpt lat="45.8548" lon="7.03893">
        <ele>2432</ele>
        <time>2022-08-27T11:58:11Z</time>
      </trkpt>
      <trkpt lat="45.85482" lon="7.03895">
        <ele>2432</ele>
        <time>2022-08-27T11:58:13Z</time>
      </trkpt>
      <trkpt lat="45.85484" lon="7.03897">
        <ele>2432</ele>
        <time>2022-08-27T11:58:15Z</time>
      </trkpt>
      <trkpt lat="45.85486" lon="7.039">
        <ele>2432</ele>
        <time>2022-08-27T11:58:17Z</time>
      </trkpt>
      <trkpt lat="45.85488" lon="7.03902">
        <ele>2432</ele>
        <time>2022-08-27T11:58:19Z</time>
      </trkpt>
      <trkpt lat="45.85489" lon="7.03904">
        <ele>2432</ele>
        <time>2022-08-27T11:58:21Z</time>
      </trkpt>
      <trkpt lat="45.85491" lon="7.03906">
        <ele>2432</ele>
        <time>2022-08-27T11:58:23Z</time>
      </trkpt>
      <trkpt lat="45.85493" lon="7.03909">
        <ele>2431</ele>
        <time>2022-08-27T11:58:25Z</time>
      </trkpt>
      <trkpt lat="45.85494" lon="7.03911">
        <ele>2431</ele>
        <time>2022-08-27T11:58:27Z</time>
      </trkpt>
      <trkpt lat="45.85496" lon="7.03914">
        <ele>2431</ele>
        <time>2022-08-27T11:58:29Z</time>
      </trkpt>
      <trkpt lat="45.85498" lon="7.03917">
        <ele>2431</ele>
        <time>2022-08-27T11:58:31Z</time>
      </trkpt>
      <trkpt lat="45.855" lon="7.03919">
        <ele>2431</ele>
        <time>2022-08-27T11:58:33Z</time>
      </trkpt>
      <trkpt lat="45.85502" lon="7.03922">
        <ele>2431</ele>
        <time>2022-08-27T11:58:35Z</time>
      </trkpt>
      <trkpt lat="45.85503" lon="7.03925">
        <ele>2432</ele>
        <time>2022-08-27T11:58:37Z</time>
      </trkpt>
      <trkpt lat="45.85504" lon="7.03928">
        <ele>2432</ele>
        <time>2022-08-27T11:58:39Z</time>
      </trkpt>
      <trkpt lat="45.85506" lon="7.03931">
        <ele>2432</ele>
        <time>2022-08-27T11:58:41Z</time>
      </trkpt>
      <trkpt lat="45.85507" lon="7.03933">
        <ele>2432</ele>
        <time>2022-08-27T11:58:43Z</time>
      </trkpt>
      <trkpt lat="45.85509" lon="7.03935">
        <ele>2432</ele>
        <time>2022-08-27T11:58:45Z</time>
      </trkpt>
      <trkpt lat="45.8551" lon="7.03938">
        <ele>2432</ele>
        <time>2022-08-27T11:58:47Z</time>
      </trkpt>
      <trkpt lat="45.85512" lon="7.03941">
        <ele>2431</ele>
        <time>2022-08-27T11:58:49Z</time>
      </trkpt>
      <trkpt lat="45.85514" lon="7.03944">
        <ele>2431</ele>
        <time>2022-08-27T11:58:51Z</time>
      </trkpt>
      <trkpt lat="45.85516" lon="7.03946">
        <ele>2431</ele>
        <time>2022-08-27T11:58:53Z</time>
      </trkpt>
      <trkpt lat="45.85518" lon="7.03949">
        <ele>2431</ele>
        <time>2022-08-27T11:58:55Z</time>
      </trkpt>
      <trkpt lat="45.8552" lon="7.03952">
        <ele>2431</ele>
        <time>2022-08-27T11:58:57Z</time>
      </trkpt>
      <trkpt lat="45.85522" lon="7.03955">
        <ele>2431</ele>
        <time>2022-08-27T11:58:59Z</time>
      </trkpt>
      <trkpt lat="45.85524" lon="7.03957">
        <ele>2431</ele>
        <time>2022-08-27T11:59:00Z</time>
      </trkpt>
      <trkpt lat="45.85527" lon="7.03962">
        <ele>2431</ele>
        <time>2022-08-27T11:59:02Z</time>
      </trkpt>
      <trkpt lat="45.85528" lon="7.03963">
        <ele>2431</ele>
        <time>2022-08-27T11:59:03Z</time>
      </trkpt>
      <trkpt lat="45.85529" lon="7.03965">
        <ele>2431</ele>
        <time>2022-08-27T11:59:04Z</time>
      </trkpt>
      <trkpt lat="45.85532" lon="7.03968">
        <ele>2428</ele>
        <time>2022-08-27T11:59:06Z</time>
      </trkpt>
      <trkpt lat="45.85533" lon="7.0397">
        <ele>2430</ele>
        <time>2022-08-27T11:59:07Z</time>
      </trkpt>
      <trkpt lat="45.85534" lon="7.03972">
        <ele>2430</ele>
        <time>2022-08-27T11:59:08Z</time>
      </trkpt>
      <trkpt lat="45.85536" lon="7.03974">
        <ele>2430</ele>
        <time>2022-08-27T11:59:09Z</time>
      </trkpt>
      <trkpt lat="45.85538" lon="7.03977">
        <ele>2427</ele>
        <time>2022-08-27T11:59:11Z</time>
      </trkpt>
      <trkpt lat="45.8554" lon="7.03979">
        <ele>2427</ele>
        <time>2022-08-27T11:59:12Z</time>
      </trkpt>
      <trkpt lat="45.85542" lon="7.0398">
        <ele>2427</ele>
        <time>2022-08-27T11:59:13Z</time>
      </trkpt>
      <trkpt lat="45.85545" lon="7.03983">
        <ele>2427</ele>
        <time>2022-08-27T11:59:15Z</time>
      </trkpt>
      <trkpt lat="45.85547" lon="7.03987">
        <ele>2427</ele>
        <time>2022-08-27T11:59:17Z</time>
      </trkpt>
      <trkpt lat="45.85548" lon="7.03992">
        <ele>2427</ele>
        <time>2022-08-27T11:59:19Z</time>
      </trkpt>
      <trkpt lat="45.8555" lon="7.03995">
        <ele>2427</ele>
        <time>2022-08-27T11:59:21Z</time>
      </trkpt>
      <trkpt lat="45.85552" lon="7.03997">
        <ele>2426</ele>
        <time>2022-08-27T11:59:23Z</time>
      </trkpt>
      <trkpt lat="45.85554" lon="7.04001">
        <ele>2425</ele>
        <time>2022-08-27T11:59:25Z</time>
      </trkpt>
      <trkpt lat="45.85557" lon="7.04004">
        <ele>2425</ele>
        <time>2022-08-27T11:59:27Z</time>
      </trkpt>
      <trkpt lat="45.8556" lon="7.04006">
        <ele>2425</ele>
        <time>2022-08-27T11:59:29Z</time>
      </trkpt>
      <trkpt lat="45.85563" lon="7.04009">
        <ele>2424</ele>
        <time>2022-08-27T11:59:31Z</time>
      </trkpt>
      <trkpt lat="45.85565" lon="7.04013">
        <ele>2423</ele>
        <time>2022-08-27T11:59:33Z</time>
      </trkpt>
      <trkpt lat="45.85568" lon="7.04016">
        <ele>2423</ele>
        <time>2022-08-27T11:59:35Z</time>
      </trkpt>
      <trkpt lat="45.85569" lon="7.04017">
        <ele>2423</ele>
        <time>2022-08-27T11:59:36Z</time>
      </trkpt>
      <trkpt lat="45.8557" lon="7.04019">
        <ele>2422</ele>
        <time>2022-08-27T11:59:37Z</time>
      </trkpt>
      <trkpt lat="45.85572" lon="7.04021">
        <ele>2422</ele>
        <time>2022-08-27T11:59:38Z</time>
      </trkpt>
      <trkpt lat="45.85574" lon="7.04025">
        <ele>2421</ele>
        <time>2022-08-27T11:59:40Z</time>
      </trkpt>
      <trkpt lat="45.85576" lon="7.04028">
        <ele>2421</ele>
        <time>2022-08-27T11:59:42Z</time>
      </trkpt>
      <trkpt lat="45.85579" lon="7.04032">
        <ele>2421</ele>
        <time>2022-08-27T11:59:44Z</time>
      </trkpt>
      <trkpt lat="45.8558" lon="7.04033">
        <ele>2420</ele>
        <time>2022-08-27T11:59:45Z</time>
      </trkpt>
      <trkpt lat="45.85582" lon="7.04035">
        <ele>2420</ele>
        <time>2022-08-27T11:59:46Z</time>
      </trkpt>
      <trkpt lat="45.85584" lon="7.04038">
        <ele>2419</ele>
        <time>2022-08-27T11:59:48Z</time>
      </trkpt>
      <trkpt lat="45.85586" lon="7.04039">
        <ele>2419</ele>
        <time>2022-08-27T11:59:49Z</time>
      </trkpt>
      <trkpt lat="45.85587" lon="7.04041">
        <ele>2419</ele>
        <time>2022-08-27T11:59:50Z</time>
      </trkpt>
      <trkpt lat="45.85589" lon="7.04043">
        <ele>2418</ele>
        <time>2022-08-27T11:59:51Z</time>
      </trkpt>
      <trkpt lat="45.85591" lon="7.04046">
        <ele>2418</ele>
        <time>2022-08-27T11:59:53Z</time>
      </trkpt>
      <trkpt lat="45.85592" lon="7.04049">
        <ele>2417</ele>
        <time>2022-08-27T11:59:55Z</time>
      </trkpt>
      <trkpt lat="45.85594" lon="7.04053">
        <ele>2417</ele>
        <time>2022-08-27T11:59:57Z</time>
      </trkpt>
      <trkpt lat="45.85597" lon="7.04057">
        <ele>2417</ele>
        <time>2022-08-27T11:59:59Z</time>
      </trkpt>
      <trkpt lat="45.85598" lon="7.04058">
        <ele>2417</ele>
        <time>2022-08-27T12:00:00Z</time>
      </trkpt>
      <trkpt lat="45.85599" lon="7.0406">
        <ele>2417</ele>
        <time>2022-08-27T12:00:01Z</time>
      </trkpt>
      <trkpt lat="45.85601" lon="7.04062">
        <ele>2414</ele>
        <time>2022-08-27T12:00:02Z</time>
      </trkpt>
      <trkpt lat="45.85602" lon="7.04066">
        <ele>2414</ele>
        <time>2022-08-27T12:00:04Z</time>
      </trkpt>
      <trkpt lat="45.85603" lon="7.0407">
        <ele>2414</ele>
        <time>2022-08-27T12:00:06Z</time>
      </trkpt>
      <trkpt lat="45.85604" lon="7.04074">
        <ele>2414</ele>
        <time>2022-08-27T12:00:08Z</time>
      </trkpt>
      <trkpt lat="45.85606" lon="7.04078">
        <ele>2413</ele>
        <time>2022-08-27T12:00:10Z</time>
      </trkpt>
      <trkpt lat="45.85608" lon="7.04082">
        <ele>2413</ele>
        <time>2022-08-27T12:00:12Z</time>
      </trkpt>
      <trkpt lat="45.8561" lon="7.04085">
        <ele>2412</ele>
        <time>2022-08-27T12:00:14Z</time>
      </trkpt>
      <trkpt lat="45.85613" lon="7.04089">
        <ele>2412</ele>
        <time>2022-08-27T12:00:16Z</time>
      </trkpt>
      <trkpt lat="45.85614" lon="7.0409">
        <ele>2412</ele>
        <time>2022-08-27T12:00:17Z</time>
      </trkpt>
      <trkpt lat="45.85615" lon="7.04093">
        <ele>2412</ele>
        <time>2022-08-27T12:00:18Z</time>
      </trkpt>
      <trkpt lat="45.85617" lon="7.04096">
        <ele>2411</ele>
        <time>2022-08-27T12:00:20Z</time>
      </trkpt>
      <trkpt lat="45.8562" lon="7.04099">
        <ele>2411</ele>
        <time>2022-08-27T12:00:22Z</time>
      </trkpt>
      <trkpt lat="45.85622" lon="7.04102">
        <ele>2410</ele>
        <time>2022-08-27T12:00:24Z</time>
      </trkpt>
      <trkpt lat="45.85624" lon="7.04105">
        <ele>2410</ele>
        <time>2022-08-27T12:00:25Z</time>
      </trkpt>
      <trkpt lat="45.85625" lon="7.04105">
        <ele>2410</ele>
        <time>2022-08-27T12:00:26Z</time>
      </trkpt>
      <trkpt lat="45.85627" lon="7.04107">
        <ele>2409</ele>
        <time>2022-08-27T12:00:27Z</time>
      </trkpt>
      <trkpt lat="45.85628" lon="7.0411">
        <ele>2409</ele>
        <time>2022-08-27T12:00:28Z</time>
      </trkpt>
      <trkpt lat="45.85629" lon="7.04112">
        <ele>2409</ele>
        <time>2022-08-27T12:00:29Z</time>
      </trkpt>
      <trkpt lat="45.85631" lon="7.04116">
        <ele>2409</ele>
        <time>2022-08-27T12:00:31Z</time>
      </trkpt>
      <trkpt lat="45.85633" lon="7.0412">
        <ele>2409</ele>
        <time>2022-08-27T12:00:33Z</time>
      </trkpt>
      <trkpt lat="45.85635" lon="7.04124">
        <ele>2408</ele>
        <time>2022-08-27T12:00:35Z</time>
      </trkpt>
      <trkpt lat="45.85636" lon="7.04127">
        <ele>2408</ele>
        <time>2022-08-27T12:00:37Z</time>
      </trkpt>
      <trkpt lat="45.85639" lon="7.04131">
        <ele>2408</ele>
        <time>2022-08-27T12:00:39Z</time>
      </trkpt>
      <trkpt lat="45.85642" lon="7.04135">
        <ele>2408</ele>
        <time>2022-08-27T12:00:41Z</time>
      </trkpt>
      <trkpt lat="45.85643" lon="7.04137">
        <ele>2407</ele>
        <time>2022-08-27T12:00:43Z</time>
      </trkpt>
      <trkpt lat="45.85644" lon="7.04139">
        <ele>2407</ele>
        <time>2022-08-27T12:00:44Z</time>
      </trkpt>
      <trkpt lat="45.85645" lon="7.04141">
        <ele>2407</ele>
        <time>2022-08-27T12:00:45Z</time>
      </trkpt>
      <trkpt lat="45.85646" lon="7.04143">
        <ele>2406</ele>
        <time>2022-08-27T12:00:46Z</time>
      </trkpt>
      <trkpt lat="45.85647" lon="7.04146">
        <ele>2406</ele>
        <time>2022-08-27T12:00:47Z</time>
      </trkpt>
      <trkpt lat="45.85647" lon="7.04148">
        <ele>2406</ele>
        <time>2022-08-27T12:00:48Z</time>
      </trkpt>
      <trkpt lat="45.85649" lon="7.04153">
        <ele>2405</ele>
        <time>2022-08-27T12:00:50Z</time>
      </trkpt>
      <trkpt lat="45.85649" lon="7.04155">
        <ele>2404</ele>
        <time>2022-08-27T12:00:51Z</time>
      </trkpt>
      <trkpt lat="45.8565" lon="7.04158">
        <ele>2404</ele>
        <time>2022-08-27T12:00:52Z</time>
      </trkpt>
      <trkpt lat="45.8565" lon="7.04162">
        <ele>2402</ele>
        <time>2022-08-27T12:00:53Z</time>
      </trkpt>
      <trkpt lat="45.8565" lon="7.04166">
        <ele>2402</ele>
        <time>2022-08-27T12:00:54Z</time>
      </trkpt>
      <trkpt lat="45.8565" lon="7.04168">
        <ele>2401</ele>
        <time>2022-08-27T12:00:55Z</time>
      </trkpt>
      <trkpt lat="45.8565" lon="7.04171">
        <ele>2401</ele>
        <time>2022-08-27T12:00:56Z</time>
      </trkpt>
      <trkpt lat="45.8565" lon="7.04173">
        <ele>2401</ele>
        <time>2022-08-27T12:00:57Z</time>
      </trkpt>
      <trkpt lat="45.85651" lon="7.04176">
        <ele>2401</ele>
        <time>2022-08-27T12:00:58Z</time>
      </trkpt>
      <trkpt lat="45.85652" lon="7.04181">
        <ele>2401</ele>
        <time>2022-08-27T12:01:00Z</time>
      </trkpt>
      <trkpt lat="45.85653" lon="7.04184">
        <ele>2401</ele>
        <time>2022-08-27T12:01:01Z</time>
      </trkpt>
      <trkpt lat="45.85654" lon="7.04186">
        <ele>2402</ele>
        <time>2022-08-27T12:01:02Z</time>
      </trkpt>
      <trkpt lat="45.85655" lon="7.04188">
        <ele>2402</ele>
        <time>2022-08-27T12:01:03Z</time>
      </trkpt>
      <trkpt lat="45.85655" lon="7.0419">
        <ele>2402</ele>
        <time>2022-08-27T12:01:04Z</time>
      </trkpt>
      <trkpt lat="45.85656" lon="7.04194">
        <ele>2401</ele>
        <time>2022-08-27T12:01:06Z</time>
      </trkpt>
      <trkpt lat="45.85656" lon="7.04198">
        <ele>2401</ele>
        <time>2022-08-27T12:01:08Z</time>
      </trkpt>
      <trkpt lat="45.85656" lon="7.04201">
        <ele>2401</ele>
        <time>2022-08-27T12:01:10Z</time>
      </trkpt>
      <trkpt lat="45.85658" lon="7.04205">
        <ele>2401</ele>
        <time>2022-08-27T12:01:11Z</time>
      </trkpt>
      <trkpt lat="45.85659" lon="7.04207">
        <ele>2401</ele>
        <time>2022-08-27T12:01:13Z</time>
      </trkpt>
      <trkpt lat="45.85661" lon="7.04211">
        <ele>2401</ele>
        <time>2022-08-27T12:01:15Z</time>
      </trkpt>
      <trkpt lat="45.85662" lon="7.04214">
        <ele>2401</ele>
        <time>2022-08-27T12:01:17Z</time>
      </trkpt>
      <trkpt lat="45.85663" lon="7.04218">
        <ele>2401</ele>
        <time>2022-08-27T12:01:19Z</time>
      </trkpt>
      <trkpt lat="45.85663" lon="7.04221">
        <ele>2401</ele>
        <time>2022-08-27T12:01:21Z</time>
      </trkpt>
      <trkpt lat="45.85665" lon="7.04225">
        <ele>2401</ele>
        <time>2022-08-27T12:01:23Z</time>
      </trkpt>
      <trkpt lat="45.85666" lon="7.04229">
        <ele>2401</ele>
        <time>2022-08-27T12:01:25Z</time>
      </trkpt>
      <trkpt lat="45.85667" lon="7.04233">
        <ele>2401</ele>
        <time>2022-08-27T12:01:27Z</time>
      </trkpt>
      <trkpt lat="45.85667" lon="7.04236">
        <ele>2401</ele>
        <time>2022-08-27T12:01:29Z</time>
      </trkpt>
      <trkpt lat="45.85667" lon="7.04239">
        <ele>2400</ele>
        <time>2022-08-27T12:01:31Z</time>
      </trkpt>
      <trkpt lat="45.85669" lon="7.04241">
        <ele>2400</ele>
        <time>2022-08-27T12:01:33Z</time>
      </trkpt>
      <trkpt lat="45.8567" lon="7.04244">
        <ele>2401</ele>
        <time>2022-08-27T12:01:35Z</time>
      </trkpt>
      <trkpt lat="45.85672" lon="7.04248">
        <ele>2401</ele>
        <time>2022-08-27T12:01:37Z</time>
      </trkpt>
      <trkpt lat="45.85673" lon="7.0425">
        <ele>2402</ele>
        <time>2022-08-27T12:01:38Z</time>
      </trkpt>
      <trkpt lat="45.85674" lon="7.04252">
        <ele>2402</ele>
        <time>2022-08-27T12:01:39Z</time>
      </trkpt>
      <trkpt lat="45.85675" lon="7.04255">
        <ele>2402</ele>
        <time>2022-08-27T12:01:40Z</time>
      </trkpt>
      <trkpt lat="45.85675" lon="7.04257">
        <ele>2401</ele>
        <time>2022-08-27T12:01:41Z</time>
      </trkpt>
      <trkpt lat="45.85677" lon="7.04261">
        <ele>2401</ele>
        <time>2022-08-27T12:01:43Z</time>
      </trkpt>
      <trkpt lat="45.85678" lon="7.04265">
        <ele>2401</ele>
        <time>2022-08-27T12:01:45Z</time>
      </trkpt>
      <trkpt lat="45.8568" lon="7.04268">
        <ele>2401</ele>
        <time>2022-08-27T12:01:47Z</time>
      </trkpt>
      <trkpt lat="45.85681" lon="7.04271">
        <ele>2401</ele>
        <time>2022-08-27T12:01:49Z</time>
      </trkpt>
      <trkpt lat="45.85683" lon="7.04275">
        <ele>2401</ele>
        <time>2022-08-27T12:01:51Z</time>
      </trkpt>
      <trkpt lat="45.85684" lon="7.04278">
        <ele>2401</ele>
        <time>2022-08-27T12:01:53Z</time>
      </trkpt>
      <trkpt lat="45.85686" lon="7.04281">
        <ele>2401</ele>
        <time>2022-08-27T12:01:55Z</time>
      </trkpt>
      <trkpt lat="45.85687" lon="7.04285">
        <ele>2401</ele>
        <time>2022-08-27T12:01:57Z</time>
      </trkpt>
      <trkpt lat="45.85687" lon="7.04288">
        <ele>2401</ele>
        <time>2022-08-27T12:01:59Z</time>
      </trkpt>
      <trkpt lat="45.85687" lon="7.04292">
        <ele>2401</ele>
        <time>2022-08-27T12:02:01Z</time>
      </trkpt>
      <trkpt lat="45.85688" lon="7.04295">
        <ele>2401</ele>
        <time>2022-08-27T12:02:03Z</time>
      </trkpt>
      <trkpt lat="45.8569" lon="7.04298">
        <ele>2401</ele>
        <time>2022-08-27T12:02:05Z</time>
      </trkpt>
      <trkpt lat="45.85691" lon="7.043">
        <ele>2401</ele>
        <time>2022-08-27T12:02:07Z</time>
      </trkpt>
      <trkpt lat="45.85692" lon="7.04302">
        <ele>2401</ele>
        <time>2022-08-27T12:02:09Z</time>
      </trkpt>
      <trkpt lat="45.85694" lon="7.04304">
        <ele>2401</ele>
        <time>2022-08-27T12:02:11Z</time>
      </trkpt>
      <trkpt lat="45.85695" lon="7.04306">
        <ele>2402</ele>
        <time>2022-08-27T12:02:13Z</time>
      </trkpt>
      <trkpt lat="45.85696" lon="7.04309">
        <ele>2402</ele>
        <time>2022-08-27T12:02:15Z</time>
      </trkpt>
      <trkpt lat="45.85698" lon="7.04312">
        <ele>2402</ele>
        <time>2022-08-27T12:02:17Z</time>
      </trkpt>
      <trkpt lat="45.85699" lon="7.04316">
        <ele>2404</ele>
        <time>2022-08-27T12:02:19Z</time>
      </trkpt>
      <trkpt lat="45.857" lon="7.04319">
        <ele>2404</ele>
        <time>2022-08-27T12:02:21Z</time>
      </trkpt>
      <trkpt lat="45.85701" lon="7.04323">
        <ele>2404</ele>
        <time>2022-08-27T12:02:23Z</time>
      </trkpt>
      <trkpt lat="45.85702" lon="7.04327">
        <ele>2404</ele>
        <time>2022-08-27T12:02:25Z</time>
      </trkpt>
      <trkpt lat="45.85703" lon="7.04331">
        <ele>2404</ele>
        <time>2022-08-27T12:02:27Z</time>
      </trkpt>
      <trkpt lat="45.85704" lon="7.04335">
        <ele>2404</ele>
        <time>2022-08-27T12:02:29Z</time>
      </trkpt>
      <trkpt lat="45.85705" lon="7.04338">
        <ele>2404</ele>
        <time>2022-08-27T12:02:31Z</time>
      </trkpt>
      <trkpt lat="45.85706" lon="7.04342">
        <ele>2402</ele>
        <time>2022-08-27T12:02:33Z</time>
      </trkpt>
      <trkpt lat="45.85707" lon="7.04346">
        <ele>2404</ele>
        <time>2022-08-27T12:02:35Z</time>
      </trkpt>
      <trkpt lat="45.85708" lon="7.04349">
        <ele>2404</ele>
        <time>2022-08-27T12:02:37Z</time>
      </trkpt>
      <trkpt lat="45.85709" lon="7.04353">
        <ele>2404</ele>
        <time>2022-08-27T12:02:39Z</time>
      </trkpt>
      <trkpt lat="45.8571" lon="7.04356">
        <ele>2404</ele>
        <time>2022-08-27T12:02:41Z</time>
      </trkpt>
      <trkpt lat="45.85712" lon="7.04359">
        <ele>2404</ele>
        <time>2022-08-27T12:02:43Z</time>
      </trkpt>
      <trkpt lat="45.85713" lon="7.04362">
        <ele>2404</ele>
        <time>2022-08-27T12:02:45Z</time>
      </trkpt>
      <trkpt lat="45.85714" lon="7.04365">
        <ele>2404</ele>
        <time>2022-08-27T12:02:47Z</time>
      </trkpt>
      <trkpt lat="45.85716" lon="7.04368">
        <ele>2404</ele>
        <time>2022-08-27T12:02:49Z</time>
      </trkpt>
      <trkpt lat="45.85717" lon="7.04371">
        <ele>2405</ele>
        <time>2022-08-27T12:02:51Z</time>
      </trkpt>
      <trkpt lat="45.85718" lon="7.04374">
        <ele>2405</ele>
        <time>2022-08-27T12:02:53Z</time>
      </trkpt>
      <trkpt lat="45.8572" lon="7.04376">
        <ele>2405</ele>
        <time>2022-08-27T12:02:55Z</time>
      </trkpt>
      <trkpt lat="45.85722" lon="7.04378">
        <ele>2405</ele>
        <time>2022-08-27T12:02:57Z</time>
      </trkpt>
      <trkpt lat="45.85723" lon="7.04381">
        <ele>2405</ele>
        <time>2022-08-27T12:02:59Z</time>
      </trkpt>
      <trkpt lat="45.85724" lon="7.04384">
        <ele>2406</ele>
        <time>2022-08-27T12:03:01Z</time>
      </trkpt>
      <trkpt lat="45.85724" lon="7.04387">
        <ele>2406</ele>
        <time>2022-08-27T12:03:03Z</time>
      </trkpt>
      <trkpt lat="45.85725" lon="7.0439">
        <ele>2406</ele>
        <time>2022-08-27T12:03:05Z</time>
      </trkpt>
      <trkpt lat="45.85727" lon="7.04393">
        <ele>2406</ele>
        <time>2022-08-27T12:03:07Z</time>
      </trkpt>
      <trkpt lat="45.85728" lon="7.04396">
        <ele>2406</ele>
        <time>2022-08-27T12:03:09Z</time>
      </trkpt>
      <trkpt lat="45.85729" lon="7.04399">
        <ele>2406</ele>
        <time>2022-08-27T12:03:11Z</time>
      </trkpt>
      <trkpt lat="45.85731" lon="7.04402">
        <ele>2407</ele>
        <time>2022-08-27T12:03:13Z</time>
      </trkpt>
      <trkpt lat="45.85732" lon="7.04404">
        <ele>2407</ele>
        <time>2022-08-27T12:03:15Z</time>
      </trkpt>
      <trkpt lat="45.85734" lon="7.04407">
        <ele>2407</ele>
        <time>2022-08-27T12:03:17Z</time>
      </trkpt>
      <trkpt lat="45.85735" lon="7.04409">
        <ele>2407</ele>
        <time>2022-08-27T12:03:19Z</time>
      </trkpt>
      <trkpt lat="45.85737" lon="7.04412">
        <ele>2407</ele>
        <time>2022-08-27T12:03:21Z</time>
      </trkpt>
      <trkpt lat="45.85738" lon="7.04415">
        <ele>2407</ele>
        <time>2022-08-27T12:03:23Z</time>
      </trkpt>
      <trkpt lat="45.8574" lon="7.04418">
        <ele>2407</ele>
        <time>2022-08-27T12:03:25Z</time>
      </trkpt>
      <trkpt lat="45.85742" lon="7.0442">
        <ele>2407</ele>
        <time>2022-08-27T12:03:27Z</time>
      </trkpt>
      <trkpt lat="45.85743" lon="7.04423">
        <ele>2407</ele>
        <time>2022-08-27T12:03:29Z</time>
      </trkpt>
      <trkpt lat="45.85745" lon="7.04426">
        <ele>2407</ele>
        <time>2022-08-27T12:03:31Z</time>
      </trkpt>
      <trkpt lat="45.85747" lon="7.04428">
        <ele>2407</ele>
        <time>2022-08-27T12:03:33Z</time>
      </trkpt>
      <trkpt lat="45.85749" lon="7.04431">
        <ele>2407</ele>
        <time>2022-08-27T12:03:35Z</time>
      </trkpt>
      <trkpt lat="45.8575" lon="7.04434">
        <ele>2408</ele>
        <time>2022-08-27T12:03:37Z</time>
      </trkpt>
      <trkpt lat="45.85751" lon="7.04437">
        <ele>2408</ele>
        <time>2022-08-27T12:03:39Z</time>
      </trkpt>
      <trkpt lat="45.85752" lon="7.04439">
        <ele>2408</ele>
        <time>2022-08-27T12:03:41Z</time>
      </trkpt>
      <trkpt lat="45.85754" lon="7.04441">
        <ele>2409</ele>
        <time>2022-08-27T12:03:43Z</time>
      </trkpt>
      <trkpt lat="45.85756" lon="7.04444">
        <ele>2409</ele>
        <time>2022-08-27T12:03:45Z</time>
      </trkpt>
      <trkpt lat="45.85757" lon="7.04446">
        <ele>2409</ele>
        <time>2022-08-27T12:03:47Z</time>
      </trkpt>
      <trkpt lat="45.85759" lon="7.04448">
        <ele>2409</ele>
        <time>2022-08-27T12:03:49Z</time>
      </trkpt>
      <trkpt lat="45.85762" lon="7.0445">
        <ele>2409</ele>
        <time>2022-08-27T12:03:51Z</time>
      </trkpt>
      <trkpt lat="45.85763" lon="7.04453">
        <ele>2409</ele>
        <time>2022-08-27T12:03:53Z</time>
      </trkpt>
      <trkpt lat="45.85764" lon="7.04455">
        <ele>2409</ele>
        <time>2022-08-27T12:03:55Z</time>
      </trkpt>
      <trkpt lat="45.85766" lon="7.04457">
        <ele>2409</ele>
        <time>2022-08-27T12:03:57Z</time>
      </trkpt>
      <trkpt lat="45.85768" lon="7.04457">
        <ele>2409</ele>
        <time>2022-08-27T12:03:59Z</time>
      </trkpt>
      <trkpt lat="45.8577" lon="7.04457">
        <ele>2409</ele>
        <time>2022-08-27T12:04:01Z</time>
      </trkpt>
      <trkpt lat="45.85772" lon="7.04458">
        <ele>2410</ele>
        <time>2022-08-27T12:04:03Z</time>
      </trkpt>
      <trkpt lat="45.85774" lon="7.0446">
        <ele>2410</ele>
        <time>2022-08-27T12:04:05Z</time>
      </trkpt>
      <trkpt lat="45.85776" lon="7.04462">
        <ele>2411</ele>
        <time>2022-08-27T12:04:07Z</time>
      </trkpt>
      <trkpt lat="45.85778" lon="7.04464">
        <ele>2411</ele>
        <time>2022-08-27T12:04:09Z</time>
      </trkpt>
      <trkpt lat="45.8578" lon="7.04466">
        <ele>2411</ele>
        <time>2022-08-27T12:04:11Z</time>
      </trkpt>
      <trkpt lat="45.85782" lon="7.04468">
        <ele>2411</ele>
        <time>2022-08-27T12:04:13Z</time>
      </trkpt>
      <trkpt lat="45.85784" lon="7.04471">
        <ele>2411</ele>
        <time>2022-08-27T12:04:15Z</time>
      </trkpt>
      <trkpt lat="45.85785" lon="7.04473">
        <ele>2411</ele>
        <time>2022-08-27T12:04:17Z</time>
      </trkpt>
      <trkpt lat="45.85786" lon="7.04477">
        <ele>2411</ele>
        <time>2022-08-27T12:04:19Z</time>
      </trkpt>
      <trkpt lat="45.85786" lon="7.0448">
        <ele>2411</ele>
        <time>2022-08-27T12:04:21Z</time>
      </trkpt>
      <trkpt lat="45.85787" lon="7.04483">
        <ele>2411</ele>
        <time>2022-08-27T12:04:23Z</time>
      </trkpt>
      <trkpt lat="45.85789" lon="7.04484">
        <ele>2411</ele>
        <time>2022-08-27T12:04:25Z</time>
      </trkpt>
      <trkpt lat="45.85792" lon="7.04484">
        <ele>2411</ele>
        <time>2022-08-27T12:04:28Z</time>
      </trkpt>
      <trkpt lat="45.85794" lon="7.04484">
        <ele>2411</ele>
        <time>2022-08-27T12:04:30Z</time>
      </trkpt>
      <trkpt lat="45.85796" lon="7.04484">
        <ele>2411</ele>
        <time>2022-08-27T12:04:32Z</time>
      </trkpt>
      <trkpt lat="45.85799" lon="7.04485">
        <ele>2412</ele>
        <time>2022-08-27T12:04:34Z</time>
      </trkpt>
      <trkpt lat="45.858" lon="7.04486">
        <ele>2412</ele>
        <time>2022-08-27T12:04:36Z</time>
      </trkpt>
      <trkpt lat="45.85802" lon="7.04488">
        <ele>2412</ele>
        <time>2022-08-27T12:04:38Z</time>
      </trkpt>
      <trkpt lat="45.85804" lon="7.04489">
        <ele>2413</ele>
        <time>2022-08-27T12:04:40Z</time>
      </trkpt>
      <trkpt lat="45.85806" lon="7.04491">
        <ele>2413</ele>
        <time>2022-08-27T12:04:42Z</time>
      </trkpt>
      <trkpt lat="45.85808" lon="7.04493">
        <ele>2413</ele>
        <time>2022-08-27T12:04:44Z</time>
      </trkpt>
      <trkpt lat="45.85809" lon="7.04495">
        <ele>2413</ele>
        <time>2022-08-27T12:04:46Z</time>
      </trkpt>
      <trkpt lat="45.85811" lon="7.04497">
        <ele>2413</ele>
        <time>2022-08-27T12:04:48Z</time>
      </trkpt>
      <trkpt lat="45.85812" lon="7.045">
        <ele>2414</ele>
        <time>2022-08-27T12:04:50Z</time>
      </trkpt>
      <trkpt lat="45.85813" lon="7.04502">
        <ele>2414</ele>
        <time>2022-08-27T12:04:52Z</time>
      </trkpt>
      <trkpt lat="45.85815" lon="7.04505">
        <ele>2414</ele>
        <time>2022-08-27T12:04:54Z</time>
      </trkpt>
      <trkpt lat="45.85816" lon="7.04507">
        <ele>2414</ele>
        <time>2022-08-27T12:04:56Z</time>
      </trkpt>
      <trkpt lat="45.85818" lon="7.04509">
        <ele>2415</ele>
        <time>2022-08-27T12:04:58Z</time>
      </trkpt>
      <trkpt lat="45.8582" lon="7.0451">
        <ele>2415</ele>
        <time>2022-08-27T12:05:00Z</time>
      </trkpt>
      <trkpt lat="45.85822" lon="7.04511">
        <ele>2415</ele>
        <time>2022-08-27T12:05:02Z</time>
      </trkpt>
      <trkpt lat="45.85824" lon="7.04513">
        <ele>2415</ele>
        <time>2022-08-27T12:05:04Z</time>
      </trkpt>
      <trkpt lat="45.85825" lon="7.04516">
        <ele>2416</ele>
        <time>2022-08-27T12:05:06Z</time>
      </trkpt>
      <trkpt lat="45.85827" lon="7.04517">
        <ele>2416</ele>
        <time>2022-08-27T12:05:08Z</time>
      </trkpt>
      <trkpt lat="45.85829" lon="7.04518">
        <ele>2416</ele>
        <time>2022-08-27T12:05:10Z</time>
      </trkpt>
      <trkpt lat="45.85831" lon="7.04521">
        <ele>2416</ele>
        <time>2022-08-27T12:05:12Z</time>
      </trkpt>
      <trkpt lat="45.85833" lon="7.04523">
        <ele>2416</ele>
        <time>2022-08-27T12:05:14Z</time>
      </trkpt>
      <trkpt lat="45.85835" lon="7.04525">
        <ele>2416</ele>
        <time>2022-08-27T12:05:16Z</time>
      </trkpt>
      <trkpt lat="45.85837" lon="7.04527">
        <ele>2416</ele>
        <time>2022-08-27T12:05:18Z</time>
      </trkpt>
      <trkpt lat="45.8584" lon="7.04529">
        <ele>2416</ele>
        <time>2022-08-27T12:05:20Z</time>
      </trkpt>
      <trkpt lat="45.85842" lon="7.0453">
        <ele>2416</ele>
        <time>2022-08-27T12:05:22Z</time>
      </trkpt>
      <trkpt lat="45.85843" lon="7.04533">
        <ele>2416</ele>
        <time>2022-08-27T12:05:24Z</time>
      </trkpt>
      <trkpt lat="45.85845" lon="7.04535">
        <ele>2416</ele>
        <time>2022-08-27T12:05:26Z</time>
      </trkpt>
      <trkpt lat="45.85847" lon="7.04537">
        <ele>2417</ele>
        <time>2022-08-27T12:05:28Z</time>
      </trkpt>
      <trkpt lat="45.85848" lon="7.04539">
        <ele>2417</ele>
        <time>2022-08-27T12:05:30Z</time>
      </trkpt>
      <trkpt lat="45.8585" lon="7.04541">
        <ele>2417</ele>
        <time>2022-08-27T12:05:32Z</time>
      </trkpt>
      <trkpt lat="45.85852" lon="7.04543">
        <ele>2417</ele>
        <time>2022-08-27T12:05:34Z</time>
      </trkpt>
      <trkpt lat="45.85854" lon="7.04545">
        <ele>2418</ele>
        <time>2022-08-27T12:05:36Z</time>
      </trkpt>
      <trkpt lat="45.85857" lon="7.04547">
        <ele>2417</ele>
        <time>2022-08-27T12:05:38Z</time>
      </trkpt>
      <trkpt lat="45.85859" lon="7.04549">
        <ele>2417</ele>
        <time>2022-08-27T12:05:40Z</time>
      </trkpt>
      <trkpt lat="45.85861" lon="7.04552">
        <ele>2417</ele>
        <time>2022-08-27T12:05:42Z</time>
      </trkpt>
      <trkpt lat="45.85863" lon="7.04554">
        <ele>2417</ele>
        <time>2022-08-27T12:05:44Z</time>
      </trkpt>
      <trkpt lat="45.85864" lon="7.04557">
        <ele>2417</ele>
        <time>2022-08-27T12:05:46Z</time>
      </trkpt>
      <trkpt lat="45.85866" lon="7.04559">
        <ele>2417</ele>
        <time>2022-08-27T12:05:48Z</time>
      </trkpt>
      <trkpt lat="45.85867" lon="7.04562">
        <ele>2418</ele>
        <time>2022-08-27T12:05:50Z</time>
      </trkpt>
      <trkpt lat="45.85868" lon="7.04564">
        <ele>2418</ele>
        <time>2022-08-27T12:05:52Z</time>
      </trkpt>
      <trkpt lat="45.8587" lon="7.04565">
        <ele>2419</ele>
        <time>2022-08-27T12:05:54Z</time>
      </trkpt>
      <trkpt lat="45.85873" lon="7.04567">
        <ele>2419</ele>
        <time>2022-08-27T12:05:56Z</time>
      </trkpt>
      <trkpt lat="45.85875" lon="7.04568">
        <ele>2419</ele>
        <time>2022-08-27T12:05:58Z</time>
      </trkpt>
      <trkpt lat="45.85878" lon="7.04569">
        <ele>2418</ele>
        <time>2022-08-27T12:06:00Z</time>
      </trkpt>
      <trkpt lat="45.85881" lon="7.0457">
        <ele>2418</ele>
        <time>2022-08-27T12:06:02Z</time>
      </trkpt>
      <trkpt lat="45.85883" lon="7.04572">
        <ele>2418</ele>
        <time>2022-08-27T12:06:04Z</time>
      </trkpt>
      <trkpt lat="45.85885" lon="7.04573">
        <ele>2418</ele>
        <time>2022-08-27T12:06:06Z</time>
      </trkpt>
      <trkpt lat="45.85887" lon="7.04575">
        <ele>2418</ele>
        <time>2022-08-27T12:06:08Z</time>
      </trkpt>
      <trkpt lat="45.85889" lon="7.04577">
        <ele>2419</ele>
        <time>2022-08-27T12:06:10Z</time>
      </trkpt>
      <trkpt lat="45.85891" lon="7.04579">
        <ele>2419</ele>
        <time>2022-08-27T12:06:12Z</time>
      </trkpt>
      <trkpt lat="45.85893" lon="7.0458">
        <ele>2419</ele>
        <time>2022-08-27T12:06:14Z</time>
      </trkpt>
      <trkpt lat="45.85895" lon="7.04582">
        <ele>2419</ele>
        <time>2022-08-27T12:06:16Z</time>
      </trkpt>
      <trkpt lat="45.85897" lon="7.04584">
        <ele>2419</ele>
        <time>2022-08-27T12:06:18Z</time>
      </trkpt>
      <trkpt lat="45.85899" lon="7.04586">
        <ele>2419</ele>
        <time>2022-08-27T12:06:20Z</time>
      </trkpt>
      <trkpt lat="45.85901" lon="7.04588">
        <ele>2419</ele>
        <time>2022-08-27T12:06:22Z</time>
      </trkpt>
      <trkpt lat="45.85903" lon="7.0459">
        <ele>2421</ele>
        <time>2022-08-27T12:06:24Z</time>
      </trkpt>
      <trkpt lat="45.85905" lon="7.04592">
        <ele>2421</ele>
        <time>2022-08-27T12:06:26Z</time>
      </trkpt>
      <trkpt lat="45.85907" lon="7.04593">
        <ele>2421</ele>
        <time>2022-08-27T12:06:28Z</time>
      </trkpt>
      <trkpt lat="45.85909" lon="7.04595">
        <ele>2421</ele>
        <time>2022-08-27T12:06:30Z</time>
      </trkpt>
      <trkpt lat="45.8591" lon="7.04597">
        <ele>2421</ele>
        <time>2022-08-27T12:06:32Z</time>
      </trkpt>
      <trkpt lat="45.85912" lon="7.04599">
        <ele>2422</ele>
        <time>2022-08-27T12:06:34Z</time>
      </trkpt>
      <trkpt lat="45.85914" lon="7.04601">
        <ele>2422</ele>
        <time>2022-08-27T12:06:36Z</time>
      </trkpt>
      <trkpt lat="45.85915" lon="7.04604">
        <ele>2422</ele>
        <time>2022-08-27T12:06:38Z</time>
      </trkpt>
      <trkpt lat="45.85915" lon="7.04607">
        <ele>2422</ele>
        <time>2022-08-27T12:06:40Z</time>
      </trkpt>
      <trkpt lat="45.85915" lon="7.04611">
        <ele>2422</ele>
        <time>2022-08-27T12:06:42Z</time>
      </trkpt>
      <trkpt lat="45.85915" lon="7.04615">
        <ele>2422</ele>
        <time>2022-08-27T12:06:44Z</time>
      </trkpt>
      <trkpt lat="45.85914" lon="7.04619">
        <ele>2421</ele>
        <time>2022-08-27T12:06:46Z</time>
      </trkpt>
      <trkpt lat="45.85914" lon="7.04622">
        <ele>2421</ele>
        <time>2022-08-27T12:06:48Z</time>
      </trkpt>
      <trkpt lat="45.85915" lon="7.04625">
        <ele>2421</ele>
        <time>2022-08-27T12:06:50Z</time>
      </trkpt>
      <trkpt lat="45.85913" lon="7.04628">
        <ele>2421</ele>
        <time>2022-08-27T12:06:52Z</time>
      </trkpt>
      <trkpt lat="45.85912" lon="7.04631">
        <ele>2421</ele>
        <time>2022-08-27T12:06:54Z</time>
      </trkpt>
      <trkpt lat="45.85913" lon="7.04634">
        <ele>2421</ele>
        <time>2022-08-27T12:06:56Z</time>
      </trkpt>
      <trkpt lat="45.85914" lon="7.04637">
        <ele>2420</ele>
        <time>2022-08-27T12:06:59Z</time>
      </trkpt>
      <trkpt lat="45.85916" lon="7.04638">
        <ele>2421</ele>
        <time>2022-08-27T12:07:01Z</time>
      </trkpt>
      <trkpt lat="45.85918" lon="7.04638">
        <ele>2421</ele>
        <time>2022-08-27T12:07:03Z</time>
      </trkpt>
      <trkpt lat="45.8592" lon="7.04638">
        <ele>2421</ele>
        <time>2022-08-27T12:07:05Z</time>
      </trkpt>
      <trkpt lat="45.85922" lon="7.04637">
        <ele>2421</ele>
        <time>2022-08-27T12:07:07Z</time>
      </trkpt>
      <trkpt lat="45.85924" lon="7.04636">
        <ele>2421</ele>
        <time>2022-08-27T12:07:09Z</time>
      </trkpt>
      <trkpt lat="45.85926" lon="7.04635">
        <ele>2421</ele>
        <time>2022-08-27T12:07:11Z</time>
      </trkpt>
      <trkpt lat="45.85928" lon="7.04637">
        <ele>2422</ele>
        <time>2022-08-27T12:07:13Z</time>
      </trkpt>
      <trkpt lat="45.85931" lon="7.04638">
        <ele>2422</ele>
        <time>2022-08-27T12:07:16Z</time>
      </trkpt>
      <trkpt lat="45.85933" lon="7.04641">
        <ele>2422</ele>
        <time>2022-08-27T12:07:18Z</time>
      </trkpt>
      <trkpt lat="45.85934" lon="7.04644">
        <ele>2422</ele>
        <time>2022-08-27T12:07:20Z</time>
      </trkpt>
      <trkpt lat="45.85936" lon="7.04646">
        <ele>2422</ele>
        <time>2022-08-27T12:07:22Z</time>
      </trkpt>
      <trkpt lat="45.85939" lon="7.04647">
        <ele>2422</ele>
        <time>2022-08-27T12:07:24Z</time>
      </trkpt>
      <trkpt lat="45.85941" lon="7.0465">
        <ele>2422</ele>
        <time>2022-08-27T12:07:26Z</time>
      </trkpt>
      <trkpt lat="45.85942" lon="7.04654">
        <ele>2421</ele>
        <time>2022-08-27T12:07:28Z</time>
      </trkpt>
      <trkpt lat="45.85945" lon="7.04655">
        <ele>2421</ele>
        <time>2022-08-27T12:07:30Z</time>
      </trkpt>
      <trkpt lat="45.85947" lon="7.04654">
        <ele>2422</ele>
        <time>2022-08-27T12:07:32Z</time>
      </trkpt>
      <trkpt lat="45.85949" lon="7.04654">
        <ele>2422</ele>
        <time>2022-08-27T12:07:34Z</time>
      </trkpt>
      <trkpt lat="45.85951" lon="7.04655">
        <ele>2422</ele>
        <time>2022-08-27T12:07:36Z</time>
      </trkpt>
      <trkpt lat="45.85953" lon="7.04657">
        <ele>2422</ele>
        <time>2022-08-27T12:07:38Z</time>
      </trkpt>
      <trkpt lat="45.85956" lon="7.04658">
        <ele>2422</ele>
        <time>2022-08-27T12:07:40Z</time>
      </trkpt>
      <trkpt lat="45.85958" lon="7.0466">
        <ele>2422</ele>
        <time>2022-08-27T12:07:42Z</time>
      </trkpt>
      <trkpt lat="45.8596" lon="7.04662">
        <ele>2423</ele>
        <time>2022-08-27T12:07:44Z</time>
      </trkpt>
      <trkpt lat="45.85962" lon="7.04663">
        <ele>2423</ele>
        <time>2022-08-27T12:07:46Z</time>
      </trkpt>
      <trkpt lat="45.85964" lon="7.04665">
        <ele>2423</ele>
        <time>2022-08-27T12:07:48Z</time>
      </trkpt>
      <trkpt lat="45.85967" lon="7.04666">
        <ele>2423</ele>
        <time>2022-08-27T12:07:50Z</time>
      </trkpt>
      <trkpt lat="45.85969" lon="7.04668">
        <ele>2423</ele>
        <time>2022-08-27T12:07:52Z</time>
      </trkpt>
      <trkpt lat="45.85972" lon="7.04669">
        <ele>2423</ele>
        <time>2022-08-27T12:07:54Z</time>
      </trkpt>
      <trkpt lat="45.85974" lon="7.0467">
        <ele>2423</ele>
        <time>2022-08-27T12:07:56Z</time>
      </trkpt>
      <trkpt lat="45.85977" lon="7.04671">
        <ele>2423</ele>
        <time>2022-08-27T12:07:58Z</time>
      </trkpt>
      <trkpt lat="45.85979" lon="7.04672">
        <ele>2424</ele>
        <time>2022-08-27T12:08:00Z</time>
      </trkpt>
      <trkpt lat="45.85981" lon="7.04674">
        <ele>2424</ele>
        <time>2022-08-27T12:08:02Z</time>
      </trkpt>
      <trkpt lat="45.85984" lon="7.04675">
        <ele>2424</ele>
        <time>2022-08-27T12:08:04Z</time>
      </trkpt>
      <trkpt lat="45.85986" lon="7.04676">
        <ele>2424</ele>
        <time>2022-08-27T12:08:06Z</time>
      </trkpt>
      <trkpt lat="45.85988" lon="7.04677">
        <ele>2424</ele>
        <time>2022-08-27T12:08:08Z</time>
      </trkpt>
      <trkpt lat="45.85991" lon="7.04679">
        <ele>2423</ele>
        <time>2022-08-27T12:08:10Z</time>
      </trkpt>
      <trkpt lat="45.85993" lon="7.04681">
        <ele>2424</ele>
        <time>2022-08-27T12:08:12Z</time>
      </trkpt>
      <trkpt lat="45.85995" lon="7.04683">
        <ele>2424</ele>
        <time>2022-08-27T12:08:14Z</time>
      </trkpt>
      <trkpt lat="45.85997" lon="7.04687">
        <ele>2423</ele>
        <time>2022-08-27T12:08:16Z</time>
      </trkpt>
      <trkpt lat="45.86" lon="7.04689">
        <ele>2423</ele>
        <time>2022-08-27T12:08:18Z</time>
      </trkpt>
      <trkpt lat="45.86003" lon="7.0469">
        <ele>2422</ele>
        <time>2022-08-27T12:08:20Z</time>
      </trkpt>
      <trkpt lat="45.86006" lon="7.04692">
        <ele>2421</ele>
        <time>2022-08-27T12:08:22Z</time>
      </trkpt>
      <trkpt lat="45.86008" lon="7.04694">
        <ele>2420</ele>
        <time>2022-08-27T12:08:24Z</time>
      </trkpt>
      <trkpt lat="45.86011" lon="7.04696">
        <ele>2420</ele>
        <time>2022-08-27T12:08:26Z</time>
      </trkpt>
      <trkpt lat="45.86015" lon="7.04697">
        <ele>2419</ele>
        <time>2022-08-27T12:08:28Z</time>
      </trkpt>
      <trkpt lat="45.86016" lon="7.04698">
        <ele>2418</ele>
        <time>2022-08-27T12:08:29Z</time>
      </trkpt>
      <trkpt lat="45.86019" lon="7.04701">
        <ele>2418</ele>
        <time>2022-08-27T12:08:30Z</time>
      </trkpt>
      <trkpt lat="45.8602" lon="7.04701">
        <ele>2418</ele>
        <time>2022-08-27T12:08:31Z</time>
      </trkpt>
      <trkpt lat="45.86023" lon="7.04703">
        <ele>2418</ele>
        <time>2022-08-27T12:08:33Z</time>
      </trkpt>
      <trkpt lat="45.86025" lon="7.04705">
        <ele>2417</ele>
        <time>2022-08-27T12:08:34Z</time>
      </trkpt>
      <trkpt lat="45.86026" lon="7.04706">
        <ele>2417</ele>
        <time>2022-08-27T12:08:35Z</time>
      </trkpt>
      <trkpt lat="45.86028" lon="7.04707">
        <ele>2417</ele>
        <time>2022-08-27T12:08:36Z</time>
      </trkpt>
      <trkpt lat="45.8603" lon="7.04709">
        <ele>2417</ele>
        <time>2022-08-27T12:08:37Z</time>
      </trkpt>
      <trkpt lat="45.86031" lon="7.0471">
        <ele>2417</ele>
        <time>2022-08-27T12:08:38Z</time>
      </trkpt>
      <trkpt lat="45.86034" lon="7.04712">
        <ele>2416</ele>
        <time>2022-08-27T12:08:40Z</time>
      </trkpt>
      <trkpt lat="45.86036" lon="7.04715">
        <ele>2416</ele>
        <time>2022-08-27T12:08:42Z</time>
      </trkpt>
      <trkpt lat="45.86038" lon="7.04718">
        <ele>2417</ele>
        <time>2022-08-27T12:08:44Z</time>
      </trkpt>
      <trkpt lat="45.8604" lon="7.0472">
        <ele>2417</ele>
        <time>2022-08-27T12:08:46Z</time>
      </trkpt>
      <trkpt lat="45.86042" lon="7.04723">
        <ele>2417</ele>
        <time>2022-08-27T12:08:48Z</time>
      </trkpt>
      <trkpt lat="45.86045" lon="7.04725">
        <ele>2417</ele>
        <time>2022-08-27T12:08:50Z</time>
      </trkpt>
      <trkpt lat="45.86046" lon="7.04727">
        <ele>2417</ele>
        <time>2022-08-27T12:08:51Z</time>
      </trkpt>
      <trkpt lat="45.8605" lon="7.04731">
        <ele>2416</ele>
        <time>2022-08-27T12:08:53Z</time>
      </trkpt>
      <trkpt lat="45.86051" lon="7.04732">
        <ele>2416</ele>
        <time>2022-08-27T12:08:54Z</time>
      </trkpt>
      <trkpt lat="45.86053" lon="7.04735">
        <ele>2416</ele>
        <time>2022-08-27T12:08:56Z</time>
      </trkpt>
      <trkpt lat="45.86055" lon="7.04736">
        <ele>2416</ele>
        <time>2022-08-27T12:08:57Z</time>
      </trkpt>
      <trkpt lat="45.86057" lon="7.04737">
        <ele>2416</ele>
        <time>2022-08-27T12:08:58Z</time>
      </trkpt>
      <trkpt lat="45.8606" lon="7.0474">
        <ele>2416</ele>
        <time>2022-08-27T12:09:00Z</time>
      </trkpt>
      <trkpt lat="45.86063" lon="7.04742">
        <ele>2415</ele>
        <time>2022-08-27T12:09:01Z</time>
      </trkpt>
      <trkpt lat="45.86066" lon="7.04744">
        <ele>2414</ele>
        <time>2022-08-27T12:09:04Z</time>
      </trkpt>
      <trkpt lat="45.86068" lon="7.04748">
        <ele>2414</ele>
        <time>2022-08-27T12:09:06Z</time>
      </trkpt>
      <trkpt lat="45.8607" lon="7.04751">
        <ele>2414</ele>
        <time>2022-08-27T12:09:08Z</time>
      </trkpt>
      <trkpt lat="45.86073" lon="7.04754">
        <ele>2414</ele>
        <time>2022-08-27T12:09:10Z</time>
      </trkpt>
      <trkpt lat="45.86076" lon="7.04758">
        <ele>2413</ele>
        <time>2022-08-27T12:09:12Z</time>
      </trkpt>
      <trkpt lat="45.86077" lon="7.04759">
        <ele>2413</ele>
        <time>2022-08-27T12:09:13Z</time>
      </trkpt>
      <trkpt lat="45.86079" lon="7.04761">
        <ele>2413</ele>
        <time>2022-08-27T12:09:14Z</time>
      </trkpt>
      <trkpt lat="45.8608" lon="7.04763">
        <ele>2412</ele>
        <time>2022-08-27T12:09:15Z</time>
      </trkpt>
      <trkpt lat="45.86081" lon="7.04764">
        <ele>2412</ele>
        <time>2022-08-27T12:09:16Z</time>
      </trkpt>
      <trkpt lat="45.86084" lon="7.04768">
        <ele>2412</ele>
        <time>2022-08-27T12:09:18Z</time>
      </trkpt>
      <trkpt lat="45.86086" lon="7.04772">
        <ele>2412</ele>
        <time>2022-08-27T12:09:20Z</time>
      </trkpt>
      <trkpt lat="45.86088" lon="7.04773">
        <ele>2412</ele>
        <time>2022-08-27T12:09:21Z</time>
      </trkpt>
      <trkpt lat="45.86089" lon="7.04775">
        <ele>2412</ele>
        <time>2022-08-27T12:09:22Z</time>
      </trkpt>
      <trkpt lat="45.86091" lon="7.04777">
        <ele>2411</ele>
        <time>2022-08-27T12:09:23Z</time>
      </trkpt>
      <trkpt lat="45.86092" lon="7.04778">
        <ele>2411</ele>
        <time>2022-08-27T12:09:24Z</time>
      </trkpt>
      <trkpt lat="45.86094" lon="7.0478">
        <ele>2411</ele>
        <time>2022-08-27T12:09:25Z</time>
      </trkpt>
      <trkpt lat="45.86095" lon="7.04782">
        <ele>2411</ele>
        <time>2022-08-27T12:09:26Z</time>
      </trkpt>
      <trkpt lat="45.86099" lon="7.04785">
        <ele>2411</ele>
        <time>2022-08-27T12:09:28Z</time>
      </trkpt>
      <trkpt lat="45.861" lon="7.04786">
        <ele>2411</ele>
        <time>2022-08-27T12:09:29Z</time>
      </trkpt>
      <trkpt lat="45.86102" lon="7.04787">
        <ele>2410</ele>
        <time>2022-08-27T12:09:30Z</time>
      </trkpt>
      <trkpt lat="45.86103" lon="7.04788">
        <ele>2410</ele>
        <time>2022-08-27T12:09:31Z</time>
      </trkpt>
      <trkpt lat="45.86105" lon="7.0479">
        <ele>2410</ele>
        <time>2022-08-27T12:09:32Z</time>
      </trkpt>
      <trkpt lat="45.86107" lon="7.04792">
        <ele>2410</ele>
        <time>2022-08-27T12:09:33Z</time>
      </trkpt>
      <trkpt lat="45.86108" lon="7.04793">
        <ele>2410</ele>
        <time>2022-08-27T12:09:34Z</time>
      </trkpt>
      <trkpt lat="45.86111" lon="7.04796">
        <ele>2410</ele>
        <time>2022-08-27T12:09:36Z</time>
      </trkpt>
      <trkpt lat="45.86112" lon="7.04797">
        <ele>2410</ele>
        <time>2022-08-27T12:09:37Z</time>
      </trkpt>
      <trkpt lat="45.86114" lon="7.048">
        <ele>2410</ele>
        <time>2022-08-27T12:09:39Z</time>
      </trkpt>
      <trkpt lat="45.86117" lon="7.04801">
        <ele>2410</ele>
        <time>2022-08-27T12:09:41Z</time>
      </trkpt>
      <trkpt lat="45.8612" lon="7.04803">
        <ele>2410</ele>
        <time>2022-08-27T12:09:43Z</time>
      </trkpt>
      <trkpt lat="45.86123" lon="7.04806">
        <ele>2409</ele>
        <time>2022-08-27T12:09:45Z</time>
      </trkpt>
      <trkpt lat="45.86124" lon="7.04808">
        <ele>2409</ele>
        <time>2022-08-27T12:09:46Z</time>
      </trkpt>
      <trkpt lat="45.86126" lon="7.0481">
        <ele>2409</ele>
        <time>2022-08-27T12:09:48Z</time>
      </trkpt>
      <trkpt lat="45.8613" lon="7.04814">
        <ele>2409</ele>
        <time>2022-08-27T12:09:50Z</time>
      </trkpt>
      <trkpt lat="45.8613" lon="7.04815">
        <ele>2408</ele>
        <time>2022-08-27T12:09:51Z</time>
      </trkpt>
      <trkpt lat="45.86133" lon="7.04817">
        <ele>2408</ele>
        <time>2022-08-27T12:09:53Z</time>
      </trkpt>
      <trkpt lat="45.86135" lon="7.04819">
        <ele>2408</ele>
        <time>2022-08-27T12:09:54Z</time>
      </trkpt>
      <trkpt lat="45.86136" lon="7.04821">
        <ele>2408</ele>
        <time>2022-08-27T12:09:55Z</time>
      </trkpt>
      <trkpt lat="45.86138" lon="7.04824">
        <ele>2408</ele>
        <time>2022-08-27T12:09:57Z</time>
      </trkpt>
      <trkpt lat="45.8614" lon="7.04826">
        <ele>2408</ele>
        <time>2022-08-27T12:09:58Z</time>
      </trkpt>
      <trkpt lat="45.86142" lon="7.04828">
        <ele>2408</ele>
        <time>2022-08-27T12:09:59Z</time>
      </trkpt>
      <trkpt lat="45.86144" lon="7.04831">
        <ele>2408</ele>
        <time>2022-08-27T12:10:01Z</time>
      </trkpt>
      <trkpt lat="45.86145" lon="7.04832">
        <ele>2408</ele>
        <time>2022-08-27T12:10:02Z</time>
      </trkpt>
      <trkpt lat="45.86147" lon="7.04834">
        <ele>2408</ele>
        <time>2022-08-27T12:10:03Z</time>
      </trkpt>
      <trkpt lat="45.86148" lon="7.04835">
        <ele>2408</ele>
        <time>2022-08-27T12:10:04Z</time>
      </trkpt>
      <trkpt lat="45.86151" lon="7.04838">
        <ele>2408</ele>
        <time>2022-08-27T12:10:06Z</time>
      </trkpt>
      <trkpt lat="45.86154" lon="7.04842">
        <ele>2407</ele>
        <time>2022-08-27T12:10:08Z</time>
      </trkpt>
      <trkpt lat="45.86157" lon="7.04845">
        <ele>2407</ele>
        <time>2022-08-27T12:10:10Z</time>
      </trkpt>
      <trkpt lat="45.86158" lon="7.04846">
        <ele>2407</ele>
        <time>2022-08-27T12:10:11Z</time>
      </trkpt>
      <trkpt lat="45.8616" lon="7.04847">
        <ele>2406</ele>
        <time>2022-08-27T12:10:12Z</time>
      </trkpt>
      <trkpt lat="45.86163" lon="7.04849">
        <ele>2406</ele>
        <time>2022-08-27T12:10:14Z</time>
      </trkpt>
      <trkpt lat="45.86166" lon="7.04852">
        <ele>2406</ele>
        <time>2022-08-27T12:10:16Z</time>
      </trkpt>
      <trkpt lat="45.86168" lon="7.04853">
        <ele>2406</ele>
        <time>2022-08-27T12:10:17Z</time>
      </trkpt>
      <trkpt lat="45.8617" lon="7.04855">
        <ele>2406</ele>
        <time>2022-08-27T12:10:18Z</time>
      </trkpt>
      <trkpt lat="45.86171" lon="7.04856">
        <ele>2406</ele>
        <time>2022-08-27T12:10:19Z</time>
      </trkpt>
      <trkpt lat="45.86172" lon="7.04858">
        <ele>2406</ele>
        <time>2022-08-27T12:10:20Z</time>
      </trkpt>
      <trkpt lat="45.86175" lon="7.04861">
        <ele>2406</ele>
        <time>2022-08-27T12:10:22Z</time>
      </trkpt>
      <trkpt lat="45.86177" lon="7.04864">
        <ele>2406</ele>
        <time>2022-08-27T12:10:24Z</time>
      </trkpt>
      <trkpt lat="45.8618" lon="7.04867">
        <ele>2406</ele>
        <time>2022-08-27T12:10:26Z</time>
      </trkpt>
      <trkpt lat="45.86182" lon="7.0487">
        <ele>2405</ele>
        <time>2022-08-27T12:10:28Z</time>
      </trkpt>
      <trkpt lat="45.86184" lon="7.04873">
        <ele>2406</ele>
        <time>2022-08-27T12:10:30Z</time>
      </trkpt>
      <trkpt lat="45.86187" lon="7.04876">
        <ele>2406</ele>
        <time>2022-08-27T12:10:32Z</time>
      </trkpt>
      <trkpt lat="45.86189" lon="7.04879">
        <ele>2406</ele>
        <time>2022-08-27T12:10:34Z</time>
      </trkpt>
      <trkpt lat="45.86192" lon="7.04882">
        <ele>2406</ele>
        <time>2022-08-27T12:10:36Z</time>
      </trkpt>
      <trkpt lat="45.86193" lon="7.04884">
        <ele>2406</ele>
        <time>2022-08-27T12:10:37Z</time>
      </trkpt>
      <trkpt lat="45.86196" lon="7.04887">
        <ele>2405</ele>
        <time>2022-08-27T12:10:39Z</time>
      </trkpt>
      <trkpt lat="45.86198" lon="7.04888">
        <ele>2405</ele>
        <time>2022-08-27T12:10:40Z</time>
      </trkpt>
      <trkpt lat="45.862" lon="7.04891">
        <ele>2405</ele>
        <time>2022-08-27T12:10:42Z</time>
      </trkpt>
      <trkpt lat="45.86202" lon="7.04893">
        <ele>2405</ele>
        <time>2022-08-27T12:10:44Z</time>
      </trkpt>
      <trkpt lat="45.86205" lon="7.04896">
        <ele>2405</ele>
        <time>2022-08-27T12:10:46Z</time>
      </trkpt>
      <trkpt lat="45.86207" lon="7.04899">
        <ele>2405</ele>
        <time>2022-08-27T12:10:48Z</time>
      </trkpt>
      <trkpt lat="45.86209" lon="7.049">
        <ele>2405</ele>
        <time>2022-08-27T12:10:49Z</time>
      </trkpt>
      <trkpt lat="45.86211" lon="7.04902">
        <ele>2405</ele>
        <time>2022-08-27T12:10:50Z</time>
      </trkpt>
      <trkpt lat="45.86212" lon="7.04904">
        <ele>2404</ele>
        <time>2022-08-27T12:10:51Z</time>
      </trkpt>
      <trkpt lat="45.86213" lon="7.04906">
        <ele>2404</ele>
        <time>2022-08-27T12:10:52Z</time>
      </trkpt>
      <trkpt lat="45.86215" lon="7.04907">
        <ele>2404</ele>
        <time>2022-08-27T12:10:53Z</time>
      </trkpt>
      <trkpt lat="45.86217" lon="7.0491">
        <ele>2404</ele>
        <time>2022-08-27T12:10:55Z</time>
      </trkpt>
      <trkpt lat="45.86219" lon="7.04913">
        <ele>2404</ele>
        <time>2022-08-27T12:10:57Z</time>
      </trkpt>
      <trkpt lat="45.86221" lon="7.04916">
        <ele>2404</ele>
        <time>2022-08-27T12:10:59Z</time>
      </trkpt>
      <trkpt lat="45.86222" lon="7.04919">
        <ele>2405</ele>
        <time>2022-08-27T12:11:01Z</time>
      </trkpt>
      <trkpt lat="45.86223" lon="7.04922">
        <ele>2405</ele>
        <time>2022-08-27T12:11:03Z</time>
      </trkpt>
      <trkpt lat="45.86225" lon="7.04925">
        <ele>2405</ele>
        <time>2022-08-27T12:11:05Z</time>
      </trkpt>
      <trkpt lat="45.86226" lon="7.04927">
        <ele>2405</ele>
        <time>2022-08-27T12:11:07Z</time>
      </trkpt>
      <trkpt lat="45.86228" lon="7.0493">
        <ele>2405</ele>
        <time>2022-08-27T12:11:09Z</time>
      </trkpt>
      <trkpt lat="45.86229" lon="7.04933">
        <ele>2405</ele>
        <time>2022-08-27T12:11:11Z</time>
      </trkpt>
      <trkpt lat="45.8623" lon="7.04935">
        <ele>2406</ele>
        <time>2022-08-27T12:11:13Z</time>
      </trkpt>
      <trkpt lat="45.86231" lon="7.04939">
        <ele>2407</ele>
        <time>2022-08-27T12:11:16Z</time>
      </trkpt>
      <trkpt lat="45.86232" lon="7.04941">
        <ele>2407</ele>
        <time>2022-08-27T12:11:18Z</time>
      </trkpt>
      <trkpt lat="45.86233" lon="7.04944">
        <ele>2407</ele>
        <time>2022-08-27T12:11:20Z</time>
      </trkpt>
      <trkpt lat="45.86234" lon="7.04946">
        <ele>2407</ele>
        <time>2022-08-27T12:11:22Z</time>
      </trkpt>
      <trkpt lat="45.86234" lon="7.0495">
        <ele>2407</ele>
        <time>2022-08-27T12:11:25Z</time>
      </trkpt>
      <trkpt lat="45.86234" lon="7.04953">
        <ele>2409</ele>
        <time>2022-08-27T12:11:28Z</time>
      </trkpt>
      <trkpt lat="45.86236" lon="7.04956">
        <ele>2410</ele>
        <time>2022-08-27T12:11:31Z</time>
      </trkpt>
      <trkpt lat="45.86237" lon="7.04959">
        <ele>2410</ele>
        <time>2022-08-27T12:11:33Z</time>
      </trkpt>
      <trkpt lat="45.86238" lon="7.04961">
        <ele>2410</ele>
        <time>2022-08-27T12:11:35Z</time>
      </trkpt>
      <trkpt lat="45.86239" lon="7.04963">
        <ele>2410</ele>
        <time>2022-08-27T12:11:37Z</time>
      </trkpt>
      <trkpt lat="45.86239" lon="7.04966">
        <ele>2410</ele>
        <time>2022-08-27T12:11:39Z</time>
      </trkpt>
      <trkpt lat="45.8624" lon="7.04969">
        <ele>2410</ele>
        <time>2022-08-27T12:11:42Z</time>
      </trkpt>
      <trkpt lat="45.86241" lon="7.04973">
        <ele>2411</ele>
        <time>2022-08-27T12:11:45Z</time>
      </trkpt>
      <trkpt lat="45.86243" lon="7.04976">
        <ele>2412</ele>
        <time>2022-08-27T12:11:48Z</time>
      </trkpt>
      <trkpt lat="45.86244" lon="7.04979">
        <ele>2412</ele>
        <time>2022-08-27T12:11:50Z</time>
      </trkpt>
      <trkpt lat="45.86245" lon="7.04982">
        <ele>2412</ele>
        <time>2022-08-27T12:11:52Z</time>
      </trkpt>
      <trkpt lat="45.86246" lon="7.04984">
        <ele>2412</ele>
        <time>2022-08-27T12:11:54Z</time>
      </trkpt>
      <trkpt lat="45.86247" lon="7.04988">
        <ele>2412</ele>
        <time>2022-08-27T12:11:56Z</time>
      </trkpt>
      <trkpt lat="45.86247" lon="7.04991">
        <ele>2412</ele>
        <time>2022-08-27T12:11:58Z</time>
      </trkpt>
      <trkpt lat="45.86247" lon="7.04994">
        <ele>2412</ele>
        <time>2022-08-27T12:12:00Z</time>
      </trkpt>
      <trkpt lat="45.86248" lon="7.04997">
        <ele>2413</ele>
        <time>2022-08-27T12:12:02Z</time>
      </trkpt>
      <trkpt lat="45.8625" lon="7.04999">
        <ele>2413</ele>
        <time>2022-08-27T12:12:04Z</time>
      </trkpt>
      <trkpt lat="45.86251" lon="7.05002">
        <ele>2413</ele>
        <time>2022-08-27T12:12:06Z</time>
      </trkpt>
      <trkpt lat="45.86253" lon="7.05005">
        <ele>2413</ele>
        <time>2022-08-27T12:12:08Z</time>
      </trkpt>
      <trkpt lat="45.86253" lon="7.05009">
        <ele>2413</ele>
        <time>2022-08-27T12:12:11Z</time>
      </trkpt>
      <trkpt lat="45.86253" lon="7.05012">
        <ele>2414</ele>
        <time>2022-08-27T12:12:14Z</time>
      </trkpt>
      <trkpt lat="45.86254" lon="7.05015">
        <ele>2414</ele>
        <time>2022-08-27T12:12:16Z</time>
      </trkpt>
      <trkpt lat="45.86256" lon="7.05018">
        <ele>2414</ele>
        <time>2022-08-27T12:12:18Z</time>
      </trkpt>
      <trkpt lat="45.86257" lon="7.05021">
        <ele>2414</ele>
        <time>2022-08-27T12:12:20Z</time>
      </trkpt>
      <trkpt lat="45.86258" lon="7.05023">
        <ele>2414</ele>
        <time>2022-08-27T12:12:22Z</time>
      </trkpt>
      <trkpt lat="45.86259" lon="7.05027">
        <ele>2414</ele>
        <time>2022-08-27T12:12:24Z</time>
      </trkpt>
      <trkpt lat="45.8626" lon="7.05029">
        <ele>2415</ele>
        <time>2022-08-27T12:12:26Z</time>
      </trkpt>
      <trkpt lat="45.86261" lon="7.05033">
        <ele>2415</ele>
        <time>2022-08-27T12:12:28Z</time>
      </trkpt>
      <trkpt lat="45.86263" lon="7.05037">
        <ele>2415</ele>
        <time>2022-08-27T12:12:31Z</time>
      </trkpt>
      <trkpt lat="45.86265" lon="7.0504">
        <ele>2416</ele>
        <time>2022-08-27T12:12:33Z</time>
      </trkpt>
      <trkpt lat="45.86266" lon="7.05044">
        <ele>2416</ele>
        <time>2022-08-27T12:12:36Z</time>
      </trkpt>
      <trkpt lat="45.86267" lon="7.05048">
        <ele>2416</ele>
        <time>2022-08-27T12:12:38Z</time>
      </trkpt>
      <trkpt lat="45.86269" lon="7.05052">
        <ele>2415</ele>
        <time>2022-08-27T12:12:41Z</time>
      </trkpt>
      <trkpt lat="45.86269" lon="7.05055">
        <ele>2416</ele>
        <time>2022-08-27T12:12:43Z</time>
      </trkpt>
      <trkpt lat="45.86271" lon="7.05058">
        <ele>2416</ele>
        <time>2022-08-27T12:12:46Z</time>
      </trkpt>
      <trkpt lat="45.86272" lon="7.05061">
        <ele>2416</ele>
        <time>2022-08-27T12:12:48Z</time>
      </trkpt>
      <trkpt lat="45.86273" lon="7.05064">
        <ele>2417</ele>
        <time>2022-08-27T12:12:50Z</time>
      </trkpt>
      <trkpt lat="45.86273" lon="7.05067">
        <ele>2418</ele>
        <time>2022-08-27T12:12:52Z</time>
      </trkpt>
      <trkpt lat="45.86274" lon="7.0507">
        <ele>2418</ele>
        <time>2022-08-27T12:12:54Z</time>
      </trkpt>
      <trkpt lat="45.86275" lon="7.05074">
        <ele>2418</ele>
        <time>2022-08-27T12:12:56Z</time>
      </trkpt>
      <trkpt lat="45.86276" lon="7.05077">
        <ele>2418</ele>
        <time>2022-08-27T12:12:58Z</time>
      </trkpt>
      <trkpt lat="45.86277" lon="7.0508">
        <ele>2418</ele>
        <time>2022-08-27T12:13:00Z</time>
      </trkpt>
      <trkpt lat="45.86279" lon="7.05083">
        <ele>2418</ele>
        <time>2022-08-27T12:13:02Z</time>
      </trkpt>
      <trkpt lat="45.8628" lon="7.05088">
        <ele>2417</ele>
        <time>2022-08-27T12:13:04Z</time>
      </trkpt>
      <trkpt lat="45.86281" lon="7.05092">
        <ele>2417</ele>
        <time>2022-08-27T12:13:06Z</time>
      </trkpt>
      <trkpt lat="45.86282" lon="7.05095">
        <ele>2417</ele>
        <time>2022-08-27T12:13:08Z</time>
      </trkpt>
      <trkpt lat="45.86282" lon="7.05098">
        <ele>2417</ele>
        <time>2022-08-27T12:13:10Z</time>
      </trkpt>
      <trkpt lat="45.86284" lon="7.05101">
        <ele>2418</ele>
        <time>2022-08-27T12:13:13Z</time>
      </trkpt>
      <trkpt lat="45.86285" lon="7.05105">
        <ele>2418</ele>
        <time>2022-08-27T12:13:15Z</time>
      </trkpt>
      <trkpt lat="45.86287" lon="7.05109">
        <ele>2418</ele>
        <time>2022-08-27T12:13:17Z</time>
      </trkpt>
      <trkpt lat="45.86289" lon="7.05112">
        <ele>2417</ele>
        <time>2022-08-27T12:13:19Z</time>
      </trkpt>
      <trkpt lat="45.8629" lon="7.05115">
        <ele>2417</ele>
        <time>2022-08-27T12:13:21Z</time>
      </trkpt>
      <trkpt lat="45.86292" lon="7.05118">
        <ele>2418</ele>
        <time>2022-08-27T12:13:23Z</time>
      </trkpt>
      <trkpt lat="45.86293" lon="7.05121">
        <ele>2418</ele>
        <time>2022-08-27T12:13:25Z</time>
      </trkpt>
      <trkpt lat="45.86293" lon="7.05124">
        <ele>2418</ele>
        <time>2022-08-27T12:13:27Z</time>
      </trkpt>
      <trkpt lat="45.86294" lon="7.05128">
        <ele>2418</ele>
        <time>2022-08-27T12:13:29Z</time>
      </trkpt>
      <trkpt lat="45.86294" lon="7.05131">
        <ele>2418</ele>
        <time>2022-08-27T12:13:31Z</time>
      </trkpt>
      <trkpt lat="45.86295" lon="7.05135">
        <ele>2418</ele>
        <time>2022-08-27T12:13:33Z</time>
      </trkpt>
      <trkpt lat="45.86296" lon="7.05138">
        <ele>2418</ele>
        <time>2022-08-27T12:13:35Z</time>
      </trkpt>
      <trkpt lat="45.86298" lon="7.05141">
        <ele>2416</ele>
        <time>2022-08-27T12:13:37Z</time>
      </trkpt>
      <trkpt lat="45.863" lon="7.05144">
        <ele>2417</ele>
        <time>2022-08-27T12:13:39Z</time>
      </trkpt>
      <trkpt lat="45.86302" lon="7.05146">
        <ele>2417</ele>
        <time>2022-08-27T12:13:41Z</time>
      </trkpt>
      <trkpt lat="45.86304" lon="7.05148">
        <ele>2417</ele>
        <time>2022-08-27T12:13:43Z</time>
      </trkpt>
      <trkpt lat="45.86306" lon="7.0515">
        <ele>2417</ele>
        <time>2022-08-27T12:13:45Z</time>
      </trkpt>
      <trkpt lat="45.86308" lon="7.05152">
        <ele>2417</ele>
        <time>2022-08-27T12:13:47Z</time>
      </trkpt>
      <trkpt lat="45.86309" lon="7.05155">
        <ele>2417</ele>
        <time>2022-08-27T12:13:49Z</time>
      </trkpt>
      <trkpt lat="45.86311" lon="7.05157">
        <ele>2417</ele>
        <time>2022-08-27T12:13:51Z</time>
      </trkpt>
      <trkpt lat="45.86312" lon="7.0516">
        <ele>2417</ele>
        <time>2022-08-27T12:13:53Z</time>
      </trkpt>
      <trkpt lat="45.86314" lon="7.05162">
        <ele>2417</ele>
        <time>2022-08-27T12:13:55Z</time>
      </trkpt>
      <trkpt lat="45.86316" lon="7.05165">
        <ele>2417</ele>
        <time>2022-08-27T12:13:57Z</time>
      </trkpt>
      <trkpt lat="45.86317" lon="7.05168">
        <ele>2417</ele>
        <time>2022-08-27T12:13:59Z</time>
      </trkpt>
      <trkpt lat="45.86319" lon="7.05171">
        <ele>2417</ele>
        <time>2022-08-27T12:14:01Z</time>
      </trkpt>
      <trkpt lat="45.8632" lon="7.05174">
        <ele>2417</ele>
        <time>2022-08-27T12:14:03Z</time>
      </trkpt>
      <trkpt lat="45.86321" lon="7.05177">
        <ele>2418</ele>
        <time>2022-08-27T12:14:05Z</time>
      </trkpt>
      <trkpt lat="45.86322" lon="7.0518">
        <ele>2418</ele>
        <time>2022-08-27T12:14:07Z</time>
      </trkpt>
      <trkpt lat="45.86323" lon="7.05183">
        <ele>2418</ele>
        <time>2022-08-27T12:14:09Z</time>
      </trkpt>
      <trkpt lat="45.86323" lon="7.05186">
        <ele>2418</ele>
        <time>2022-08-27T12:14:11Z</time>
      </trkpt>
      <trkpt lat="45.86324" lon="7.05189">
        <ele>2418</ele>
        <time>2022-08-27T12:14:13Z</time>
      </trkpt>
      <trkpt lat="45.86325" lon="7.05193">
        <ele>2418</ele>
        <time>2022-08-27T12:14:15Z</time>
      </trkpt>
      <trkpt lat="45.86326" lon="7.05196">
        <ele>2418</ele>
        <time>2022-08-27T12:14:17Z</time>
      </trkpt>
      <trkpt lat="45.86327" lon="7.052">
        <ele>2417</ele>
        <time>2022-08-27T12:14:19Z</time>
      </trkpt>
      <trkpt lat="45.86329" lon="7.05202">
        <ele>2416</ele>
        <time>2022-08-27T12:14:21Z</time>
      </trkpt>
      <trkpt lat="45.8633" lon="7.05205">
        <ele>2416</ele>
        <time>2022-08-27T12:14:23Z</time>
      </trkpt>
      <trkpt lat="45.86332" lon="7.05207">
        <ele>2416</ele>
        <time>2022-08-27T12:14:25Z</time>
      </trkpt>
      <trkpt lat="45.86333" lon="7.05209">
        <ele>2416</ele>
        <time>2022-08-27T12:14:27Z</time>
      </trkpt>
      <trkpt lat="45.86336" lon="7.05212">
        <ele>2416</ele>
        <time>2022-08-27T12:14:29Z</time>
      </trkpt>
      <trkpt lat="45.86338" lon="7.05214">
        <ele>2416</ele>
        <time>2022-08-27T12:14:31Z</time>
      </trkpt>
      <trkpt lat="45.8634" lon="7.05217">
        <ele>2415</ele>
        <time>2022-08-27T12:14:33Z</time>
      </trkpt>
      <trkpt lat="45.86342" lon="7.05219">
        <ele>2414</ele>
        <time>2022-08-27T12:14:35Z</time>
      </trkpt>
      <trkpt lat="45.86344" lon="7.05222">
        <ele>2414</ele>
        <time>2022-08-27T12:14:37Z</time>
      </trkpt>
      <trkpt lat="45.86345" lon="7.05225">
        <ele>2414</ele>
        <time>2022-08-27T12:14:39Z</time>
      </trkpt>
      <trkpt lat="45.86347" lon="7.05229">
        <ele>2415</ele>
        <time>2022-08-27T12:14:41Z</time>
      </trkpt>
      <trkpt lat="45.86349" lon="7.05232">
        <ele>2414</ele>
        <time>2022-08-27T12:14:43Z</time>
      </trkpt>
      <trkpt lat="45.86352" lon="7.05235">
        <ele>2414</ele>
        <time>2022-08-27T12:14:45Z</time>
      </trkpt>
      <trkpt lat="45.86353" lon="7.05237">
        <ele>2414</ele>
        <time>2022-08-27T12:14:46Z</time>
      </trkpt>
      <trkpt lat="45.86355" lon="7.05241">
        <ele>2413</ele>
        <time>2022-08-27T12:14:48Z</time>
      </trkpt>
      <trkpt lat="45.86356" lon="7.05245">
        <ele>2413</ele>
        <time>2022-08-27T12:14:50Z</time>
      </trkpt>
      <trkpt lat="45.86357" lon="7.05248">
        <ele>2413</ele>
        <time>2022-08-27T12:14:52Z</time>
      </trkpt>
      <trkpt lat="45.86359" lon="7.05252">
        <ele>2413</ele>
        <time>2022-08-27T12:14:54Z</time>
      </trkpt>
      <trkpt lat="45.8636" lon="7.05256">
        <ele>2413</ele>
        <time>2022-08-27T12:14:56Z</time>
      </trkpt>
      <trkpt lat="45.86361" lon="7.05258">
        <ele>2413</ele>
        <time>2022-08-27T12:14:58Z</time>
      </trkpt>
      <trkpt lat="45.86362" lon="7.05261">
        <ele>2413</ele>
        <time>2022-08-27T12:15:00Z</time>
      </trkpt>
      <trkpt lat="45.86364" lon="7.05264">
        <ele>2413</ele>
        <time>2022-08-27T12:15:02Z</time>
      </trkpt>
      <trkpt lat="45.86365" lon="7.05267">
        <ele>2413</ele>
        <time>2022-08-27T12:15:04Z</time>
      </trkpt>
      <trkpt lat="45.86366" lon="7.0527">
        <ele>2413</ele>
        <time>2022-08-27T12:15:06Z</time>
      </trkpt>
      <trkpt lat="45.86367" lon="7.05274">
        <ele>2413</ele>
        <time>2022-08-27T12:15:08Z</time>
      </trkpt>
      <trkpt lat="45.86368" lon="7.05277">
        <ele>2413</ele>
        <time>2022-08-27T12:15:10Z</time>
      </trkpt>
      <trkpt lat="45.86369" lon="7.0528">
        <ele>2413</ele>
        <time>2022-08-27T12:15:12Z</time>
      </trkpt>
      <trkpt lat="45.8637" lon="7.05283">
        <ele>2413</ele>
        <time>2022-08-27T12:15:14Z</time>
      </trkpt>
      <trkpt lat="45.86372" lon="7.05287">
        <ele>2413</ele>
        <time>2022-08-27T12:15:16Z</time>
      </trkpt>
      <trkpt lat="45.86374" lon="7.0529">
        <ele>2414</ele>
        <time>2022-08-27T12:15:18Z</time>
      </trkpt>
      <trkpt lat="45.86375" lon="7.05294">
        <ele>2414</ele>
        <time>2022-08-27T12:15:20Z</time>
      </trkpt>
      <trkpt lat="45.86375" lon="7.05297">
        <ele>2414</ele>
        <time>2022-08-27T12:15:22Z</time>
      </trkpt>
      <trkpt lat="45.86376" lon="7.053">
        <ele>2414</ele>
        <time>2022-08-27T12:15:24Z</time>
      </trkpt>
      <trkpt lat="45.86377" lon="7.05303">
        <ele>2414</ele>
        <time>2022-08-27T12:15:26Z</time>
      </trkpt>
      <trkpt lat="45.86378" lon="7.05306">
        <ele>2414</ele>
        <time>2022-08-27T12:15:28Z</time>
      </trkpt>
      <trkpt lat="45.86379" lon="7.05309">
        <ele>2414</ele>
        <time>2022-08-27T12:15:30Z</time>
      </trkpt>
      <trkpt lat="45.86379" lon="7.05312">
        <ele>2413</ele>
        <time>2022-08-27T12:15:32Z</time>
      </trkpt>
      <trkpt lat="45.8638" lon="7.05315">
        <ele>2413</ele>
        <time>2022-08-27T12:15:34Z</time>
      </trkpt>
      <trkpt lat="45.86382" lon="7.05317">
        <ele>2413</ele>
        <time>2022-08-27T12:15:36Z</time>
      </trkpt>
      <trkpt lat="45.86383" lon="7.0532">
        <ele>2412</ele>
        <time>2022-08-27T12:15:38Z</time>
      </trkpt>
      <trkpt lat="45.86384" lon="7.05325">
        <ele>2412</ele>
        <time>2022-08-27T12:15:40Z</time>
      </trkpt>
      <trkpt lat="45.86385" lon="7.05329">
        <ele>2412</ele>
        <time>2022-08-27T12:15:42Z</time>
      </trkpt>
      <trkpt lat="45.86385" lon="7.05333">
        <ele>2411</ele>
        <time>2022-08-27T12:15:44Z</time>
      </trkpt>
      <trkpt lat="45.86386" lon="7.05337">
        <ele>2411</ele>
        <time>2022-08-27T12:15:46Z</time>
      </trkpt>
      <trkpt lat="45.86387" lon="7.0534">
        <ele>2411</ele>
        <time>2022-08-27T12:15:48Z</time>
      </trkpt>
      <trkpt lat="45.86388" lon="7.05344">
        <ele>2409</ele>
        <time>2022-08-27T12:15:50Z</time>
      </trkpt>
      <trkpt lat="45.86388" lon="7.05347">
        <ele>2409</ele>
        <time>2022-08-27T12:15:52Z</time>
      </trkpt>
      <trkpt lat="45.86388" lon="7.05351">
        <ele>2408</ele>
        <time>2022-08-27T12:15:54Z</time>
      </trkpt>
      <trkpt lat="45.86388" lon="7.05355">
        <ele>2408</ele>
        <time>2022-08-27T12:15:56Z</time>
      </trkpt>
      <trkpt lat="45.86388" lon="7.05358">
        <ele>2408</ele>
        <time>2022-08-27T12:15:58Z</time>
      </trkpt>
      <trkpt lat="45.86387" lon="7.05362">
        <ele>2408</ele>
        <time>2022-08-27T12:16:00Z</time>
      </trkpt>
      <trkpt lat="45.86386" lon="7.05366">
        <ele>2408</ele>
        <time>2022-08-27T12:16:02Z</time>
      </trkpt>
      <trkpt lat="45.86384" lon="7.05368">
        <ele>2408</ele>
        <time>2022-08-27T12:16:04Z</time>
      </trkpt>
      <trkpt lat="45.86384" lon="7.05371">
        <ele>2408</ele>
        <time>2022-08-27T12:16:06Z</time>
      </trkpt>
      <trkpt lat="45.86385" lon="7.05375">
        <ele>2408</ele>
        <time>2022-08-27T12:16:08Z</time>
      </trkpt>
      <trkpt lat="45.86386" lon="7.05379">
        <ele>2407</ele>
        <time>2022-08-27T12:16:10Z</time>
      </trkpt>
      <trkpt lat="45.86385" lon="7.05382">
        <ele>2407</ele>
        <time>2022-08-27T12:16:12Z</time>
      </trkpt>
      <trkpt lat="45.86385" lon="7.05386">
        <ele>2407</ele>
        <time>2022-08-27T12:16:14Z</time>
      </trkpt>
      <trkpt lat="45.86383" lon="7.0539">
        <ele>2407</ele>
        <time>2022-08-27T12:16:16Z</time>
      </trkpt>
      <trkpt lat="45.86381" lon="7.05394">
        <ele>2407</ele>
        <time>2022-08-27T12:16:18Z</time>
      </trkpt>
      <trkpt lat="45.8638" lon="7.05396">
        <ele>2406</ele>
        <time>2022-08-27T12:16:19Z</time>
      </trkpt>
      <trkpt lat="45.86379" lon="7.05399">
        <ele>2406</ele>
        <time>2022-08-27T12:16:21Z</time>
      </trkpt>
      <trkpt lat="45.86378" lon="7.05403">
        <ele>2407</ele>
        <time>2022-08-27T12:16:23Z</time>
      </trkpt>
      <trkpt lat="45.86377" lon="7.05405">
        <ele>2407</ele>
        <time>2022-08-27T12:16:25Z</time>
      </trkpt>
      <trkpt lat="45.86377" lon="7.05409">
        <ele>2408</ele>
        <time>2022-08-27T12:16:28Z</time>
      </trkpt>
      <trkpt lat="45.86376" lon="7.05412">
        <ele>2408</ele>
        <time>2022-08-27T12:16:31Z</time>
      </trkpt>
      <trkpt lat="45.86377" lon="7.05415">
        <ele>2408</ele>
        <time>2022-08-27T12:16:33Z</time>
      </trkpt>
      <trkpt lat="45.86377" lon="7.05419">
        <ele>2409</ele>
        <time>2022-08-27T12:16:36Z</time>
      </trkpt>
      <trkpt lat="45.86378" lon="7.05422">
        <ele>2409</ele>
        <time>2022-08-27T12:16:38Z</time>
      </trkpt>
      <trkpt lat="45.86378" lon="7.05425">
        <ele>2409</ele>
        <time>2022-08-27T12:16:40Z</time>
      </trkpt>
      <trkpt lat="45.86378" lon="7.05428">
        <ele>2409</ele>
        <time>2022-08-27T12:16:42Z</time>
      </trkpt>
      <trkpt lat="45.86379" lon="7.05431">
        <ele>2409</ele>
        <time>2022-08-27T12:16:44Z</time>
      </trkpt>
      <trkpt lat="45.8638" lon="7.05434">
        <ele>2409</ele>
        <time>2022-08-27T12:16:46Z</time>
      </trkpt>
      <trkpt lat="45.86381" lon="7.05437">
        <ele>2409</ele>
        <time>2022-08-27T12:16:48Z</time>
      </trkpt>
      <trkpt lat="45.86382" lon="7.05439">
        <ele>2409</ele>
        <time>2022-08-27T12:16:50Z</time>
      </trkpt>
      <trkpt lat="45.86382" lon="7.05443">
        <ele>2409</ele>
        <time>2022-08-27T12:16:52Z</time>
      </trkpt>
      <trkpt lat="45.86382" lon="7.05447">
        <ele>2409</ele>
        <time>2022-08-27T12:16:54Z</time>
      </trkpt>
      <trkpt lat="45.86383" lon="7.0545">
        <ele>2409</ele>
        <time>2022-08-27T12:16:56Z</time>
      </trkpt>
      <trkpt lat="45.86383" lon="7.05453">
        <ele>2409</ele>
        <time>2022-08-27T12:16:58Z</time>
      </trkpt>
      <trkpt lat="45.86383" lon="7.05457">
        <ele>2409</ele>
        <time>2022-08-27T12:17:00Z</time>
      </trkpt>
      <trkpt lat="45.86384" lon="7.0546">
        <ele>2409</ele>
        <time>2022-08-27T12:17:02Z</time>
      </trkpt>
      <trkpt lat="45.86384" lon="7.05463">
        <ele>2409</ele>
        <time>2022-08-27T12:17:04Z</time>
      </trkpt>
      <trkpt lat="45.86385" lon="7.05467">
        <ele>2409</ele>
        <time>2022-08-27T12:17:06Z</time>
      </trkpt>
      <trkpt lat="45.86385" lon="7.0547">
        <ele>2409</ele>
        <time>2022-08-27T12:17:08Z</time>
      </trkpt>
      <trkpt lat="45.86387" lon="7.05473">
        <ele>2409</ele>
        <time>2022-08-27T12:17:10Z</time>
      </trkpt>
      <trkpt lat="45.86387" lon="7.05476">
        <ele>2409</ele>
        <time>2022-08-27T12:17:12Z</time>
      </trkpt>
      <trkpt lat="45.86387" lon="7.0548">
        <ele>2409</ele>
        <time>2022-08-27T12:17:14Z</time>
      </trkpt>
      <trkpt lat="45.86388" lon="7.05482">
        <ele>2409</ele>
        <time>2022-08-27T12:17:16Z</time>
      </trkpt>
      <trkpt lat="45.86389" lon="7.05485">
        <ele>2409</ele>
        <time>2022-08-27T12:17:19Z</time>
      </trkpt>
      <trkpt lat="45.86391" lon="7.05487">
        <ele>2409</ele>
        <time>2022-08-27T12:17:21Z</time>
      </trkpt>
      <trkpt lat="45.86392" lon="7.05489">
        <ele>2409</ele>
        <time>2022-08-27T12:17:23Z</time>
      </trkpt>
      <trkpt lat="45.86394" lon="7.05491">
        <ele>2410</ele>
        <time>2022-08-27T12:17:26Z</time>
      </trkpt>
      <trkpt lat="45.86396" lon="7.05493">
        <ele>2411</ele>
        <time>2022-08-27T12:17:29Z</time>
      </trkpt>
      <trkpt lat="45.86397" lon="7.05497">
        <ele>2411</ele>
        <time>2022-08-27T12:17:32Z</time>
      </trkpt>
      <trkpt lat="45.86397" lon="7.055">
        <ele>2411</ele>
        <time>2022-08-27T12:17:34Z</time>
      </trkpt>
      <trkpt lat="45.86396" lon="7.05502">
        <ele>2412</ele>
        <time>2022-08-27T12:17:36Z</time>
      </trkpt>
      <trkpt lat="45.86397" lon="7.05505">
        <ele>2413</ele>
        <time>2022-08-27T12:17:39Z</time>
      </trkpt>
      <trkpt lat="45.86398" lon="7.05508">
        <ele>2413</ele>
        <time>2022-08-27T12:17:42Z</time>
      </trkpt>
      <trkpt lat="45.86399" lon="7.0551">
        <ele>2414</ele>
        <time>2022-08-27T12:17:45Z</time>
      </trkpt>
      <trkpt lat="45.864" lon="7.05513">
        <ele>2415</ele>
        <time>2022-08-27T12:17:48Z</time>
      </trkpt>
      <trkpt lat="45.86401" lon="7.05516">
        <ele>2415</ele>
        <time>2022-08-27T12:17:51Z</time>
      </trkpt>
      <trkpt lat="45.86401" lon="7.05519">
        <ele>2415</ele>
        <time>2022-08-27T12:17:54Z</time>
      </trkpt>
      <trkpt lat="45.86402" lon="7.05522">
        <ele>2416</ele>
        <time>2022-08-27T12:17:58Z</time>
      </trkpt>
      <trkpt lat="45.86402" lon="7.05525">
        <ele>2416</ele>
        <time>2022-08-27T12:18:00Z</time>
      </trkpt>
      <trkpt lat="45.86402" lon="7.05528">
        <ele>2416</ele>
        <time>2022-08-27T12:18:02Z</time>
      </trkpt>
      <trkpt lat="45.86402" lon="7.05532">
        <ele>2416</ele>
        <time>2022-08-27T12:18:04Z</time>
      </trkpt>
      <trkpt lat="45.86402" lon="7.05536">
        <ele>2415</ele>
        <time>2022-08-27T12:18:06Z</time>
      </trkpt>
      <trkpt lat="45.86402" lon="7.05539">
        <ele>2415</ele>
        <time>2022-08-27T12:18:08Z</time>
      </trkpt>
      <trkpt lat="45.86403" lon="7.05542">
        <ele>2415</ele>
        <time>2022-08-27T12:18:10Z</time>
      </trkpt>
      <trkpt lat="45.86404" lon="7.05545">
        <ele>2415</ele>
        <time>2022-08-27T12:18:12Z</time>
      </trkpt>
      <trkpt lat="45.86405" lon="7.05548">
        <ele>2415</ele>
        <time>2022-08-27T12:18:14Z</time>
      </trkpt>
      <trkpt lat="45.86407" lon="7.05552">
        <ele>2415</ele>
        <time>2022-08-27T12:18:16Z</time>
      </trkpt>
      <trkpt lat="45.86407" lon="7.05556">
        <ele>2414</ele>
        <time>2022-08-27T12:18:18Z</time>
      </trkpt>
      <trkpt lat="45.86406" lon="7.05559">
        <ele>2414</ele>
        <time>2022-08-27T12:18:20Z</time>
      </trkpt>
      <trkpt lat="45.86406" lon="7.05563">
        <ele>2413</ele>
        <time>2022-08-27T12:18:23Z</time>
      </trkpt>
      <trkpt lat="45.86407" lon="7.05566">
        <ele>2412</ele>
        <time>2022-08-27T12:18:26Z</time>
      </trkpt>
      <trkpt lat="45.86408" lon="7.05569">
        <ele>2411</ele>
        <time>2022-08-27T12:18:28Z</time>
      </trkpt>
      <trkpt lat="45.86408" lon="7.05572">
        <ele>2410</ele>
        <time>2022-08-27T12:18:30Z</time>
      </trkpt>
      <trkpt lat="45.86408" lon="7.05575">
        <ele>2409</ele>
        <time>2022-08-27T12:18:32Z</time>
      </trkpt>
      <trkpt lat="45.86407" lon="7.05578">
        <ele>2408</ele>
        <time>2022-08-27T12:18:34Z</time>
      </trkpt>
      <trkpt lat="45.86408" lon="7.05581">
        <ele>2407</ele>
        <time>2022-08-27T12:18:36Z</time>
      </trkpt>
      <trkpt lat="45.86408" lon="7.05584">
        <ele>2407</ele>
        <time>2022-08-27T12:18:38Z</time>
      </trkpt>
      <trkpt lat="45.86409" lon="7.05588">
        <ele>2407</ele>
        <time>2022-08-27T12:18:40Z</time>
      </trkpt>
      <trkpt lat="45.86409" lon="7.0559">
        <ele>2406</ele>
        <time>2022-08-27T12:18:42Z</time>
      </trkpt>
      <trkpt lat="45.86409" lon="7.05593">
        <ele>2406</ele>
        <time>2022-08-27T12:18:45Z</time>
      </trkpt>
      <trkpt lat="45.8641" lon="7.05596">
        <ele>2406</ele>
        <time>2022-08-27T12:18:48Z</time>
      </trkpt>
      <trkpt lat="45.86411" lon="7.05598">
        <ele>2405</ele>
        <time>2022-08-27T12:18:50Z</time>
      </trkpt>
      <trkpt lat="45.86413" lon="7.05601">
        <ele>2405</ele>
        <time>2022-08-27T12:18:53Z</time>
      </trkpt>
      <trkpt lat="45.86414" lon="7.05603">
        <ele>2405</ele>
        <time>2022-08-27T12:18:55Z</time>
      </trkpt>
      <trkpt lat="45.86416" lon="7.05604">
        <ele>2405</ele>
        <time>2022-08-27T12:18:57Z</time>
      </trkpt>
      <trkpt lat="45.86418" lon="7.05607">
        <ele>2405</ele>
        <time>2022-08-27T12:18:59Z</time>
      </trkpt>
      <trkpt lat="45.86419" lon="7.05609">
        <ele>2405</ele>
        <time>2022-08-27T12:19:01Z</time>
      </trkpt>
      <trkpt lat="45.86421" lon="7.0561">
        <ele>2405</ele>
        <time>2022-08-27T12:19:03Z</time>
      </trkpt>
      <trkpt lat="45.86423" lon="7.05612">
        <ele>2405</ele>
        <time>2022-08-27T12:19:06Z</time>
      </trkpt>
      <trkpt lat="45.86424" lon="7.05614">
        <ele>2405</ele>
        <time>2022-08-27T12:19:08Z</time>
      </trkpt>
      <trkpt lat="45.86425" lon="7.05617">
        <ele>2405</ele>
        <time>2022-08-27T12:19:10Z</time>
      </trkpt>
      <trkpt lat="45.86427" lon="7.0562">
        <ele>2405</ele>
        <time>2022-08-27T12:19:12Z</time>
      </trkpt>
      <trkpt lat="45.86429" lon="7.05622">
        <ele>2405</ele>
        <time>2022-08-27T12:19:15Z</time>
      </trkpt>
      <trkpt lat="45.8643" lon="7.05623">
        <ele>2404</ele>
        <time>2022-08-27T12:19:17Z</time>
      </trkpt>
      <trkpt lat="45.86433" lon="7.05624">
        <ele>2404</ele>
        <time>2022-08-27T12:19:20Z</time>
      </trkpt>
      <trkpt lat="45.86435" lon="7.05626">
        <ele>2404</ele>
        <time>2022-08-27T12:19:23Z</time>
      </trkpt>
      <trkpt lat="45.86437" lon="7.05627">
        <ele>2402</ele>
        <time>2022-08-27T12:19:25Z</time>
      </trkpt>
      <trkpt lat="45.86439" lon="7.05627">
        <ele>2402</ele>
        <time>2022-08-27T12:19:27Z</time>
      </trkpt>
      <trkpt lat="45.86442" lon="7.05628">
        <ele>2402</ele>
        <time>2022-08-27T12:19:29Z</time>
      </trkpt>
      <trkpt lat="45.86444" lon="7.05629">
        <ele>2404</ele>
        <time>2022-08-27T12:19:31Z</time>
      </trkpt>
      <trkpt lat="45.86446" lon="7.05629">
        <ele>2404</ele>
        <time>2022-08-27T12:19:33Z</time>
      </trkpt>
      <trkpt lat="45.86448" lon="7.05631">
        <ele>2404</ele>
        <time>2022-08-27T12:19:35Z</time>
      </trkpt>
      <trkpt lat="45.8645" lon="7.05633">
        <ele>2404</ele>
        <time>2022-08-27T12:19:37Z</time>
      </trkpt>
      <trkpt lat="45.86452" lon="7.05635">
        <ele>2404</ele>
        <time>2022-08-27T12:19:39Z</time>
      </trkpt>
      <trkpt lat="45.86453" lon="7.05638">
        <ele>2404</ele>
        <time>2022-08-27T12:19:41Z</time>
      </trkpt>
      <trkpt lat="45.86454" lon="7.05641">
        <ele>2404</ele>
        <time>2022-08-27T12:19:43Z</time>
      </trkpt>
      <trkpt lat="45.86456" lon="7.05644">
        <ele>2402</ele>
        <time>2022-08-27T12:19:45Z</time>
      </trkpt>
      <trkpt lat="45.86456" lon="7.05647">
        <ele>2402</ele>
        <time>2022-08-27T12:19:47Z</time>
      </trkpt>
      <trkpt lat="45.86457" lon="7.0565">
        <ele>2402</ele>
        <time>2022-08-27T12:19:49Z</time>
      </trkpt>
      <trkpt lat="45.86457" lon="7.05654">
        <ele>2401</ele>
        <time>2022-08-27T12:19:51Z</time>
      </trkpt>
      <trkpt lat="45.86456" lon="7.05658">
        <ele>2401</ele>
        <time>2022-08-27T12:19:53Z</time>
      </trkpt>
      <trkpt lat="45.86456" lon="7.05662">
        <ele>2401</ele>
        <time>2022-08-27T12:19:55Z</time>
      </trkpt>
      <trkpt lat="45.86457" lon="7.05664">
        <ele>2401</ele>
        <time>2022-08-27T12:19:58Z</time>
      </trkpt>
      <trkpt lat="45.86458" lon="7.05665">
        <ele>2400</ele>
        <time>2022-08-27T12:20:00Z</time>
      </trkpt>
      <trkpt lat="45.86461" lon="7.05666">
        <ele>2400</ele>
        <time>2022-08-27T12:20:03Z</time>
      </trkpt>
      <trkpt lat="45.86463" lon="7.05668">
        <ele>2400</ele>
        <time>2022-08-27T12:20:06Z</time>
      </trkpt>
      <trkpt lat="45.86465" lon="7.05669">
        <ele>2400</ele>
        <time>2022-08-27T12:20:08Z</time>
      </trkpt>
      <trkpt lat="45.86466" lon="7.05672">
        <ele>2401</ele>
        <time>2022-08-27T12:20:11Z</time>
      </trkpt>
      <trkpt lat="45.86466" lon="7.05676">
        <ele>2402</ele>
        <time>2022-08-27T12:20:16Z</time>
      </trkpt>
      <trkpt lat="45.86465" lon="7.05678">
        <ele>2402</ele>
        <time>2022-08-27T12:20:19Z</time>
      </trkpt>
      <trkpt lat="45.86466" lon="7.05681">
        <ele>2401</ele>
        <time>2022-08-27T12:20:29Z</time>
      </trkpt>
      <trkpt lat="45.86466" lon="7.05684">
        <ele>2400</ele>
        <time>2022-08-27T12:20:31Z</time>
      </trkpt>
      <trkpt lat="45.86466" lon="7.05687">
        <ele>2400</ele>
        <time>2022-08-27T12:20:33Z</time>
      </trkpt>
      <trkpt lat="45.86465" lon="7.05689">
        <ele>2398</ele>
        <time>2022-08-27T12:20:35Z</time>
      </trkpt>
      <trkpt lat="45.86466" lon="7.05692">
        <ele>2398</ele>
        <time>2022-08-27T12:20:38Z</time>
      </trkpt>
      <trkpt lat="45.86469" lon="7.05693">
        <ele>2397</ele>
        <time>2022-08-27T12:20:41Z</time>
      </trkpt>
      <trkpt lat="45.86471" lon="7.05692">
        <ele>2396</ele>
        <time>2022-08-27T12:20:44Z</time>
      </trkpt>
      <trkpt lat="45.86473" lon="7.0569">
        <ele>2396</ele>
        <time>2022-08-27T12:20:46Z</time>
      </trkpt>
      <trkpt lat="45.86475" lon="7.05689">
        <ele>2395</ele>
        <time>2022-08-27T12:20:48Z</time>
      </trkpt>
      <trkpt lat="45.86477" lon="7.05687">
        <ele>2395</ele>
        <time>2022-08-27T12:20:50Z</time>
      </trkpt>
      <trkpt lat="45.86479" lon="7.05687">
        <ele>2395</ele>
        <time>2022-08-27T12:20:52Z</time>
      </trkpt>
      <trkpt lat="45.86481" lon="7.05687">
        <ele>2394</ele>
        <time>2022-08-27T12:20:54Z</time>
      </trkpt>
      <trkpt lat="45.86483" lon="7.05685">
        <ele>2394</ele>
        <time>2022-08-27T12:20:56Z</time>
      </trkpt>
      <trkpt lat="45.86486" lon="7.05684">
        <ele>2394</ele>
        <time>2022-08-27T12:20:58Z</time>
      </trkpt>
      <trkpt lat="45.86488" lon="7.05683">
        <ele>2394</ele>
        <time>2022-08-27T12:21:00Z</time>
      </trkpt>
      <trkpt lat="45.8649" lon="7.05683">
        <ele>2395</ele>
        <time>2022-08-27T12:21:02Z</time>
      </trkpt>
      <trkpt lat="45.86493" lon="7.05683">
        <ele>2395</ele>
        <time>2022-08-27T12:21:04Z</time>
      </trkpt>
      <trkpt lat="45.86495" lon="7.05684">
        <ele>2395</ele>
        <time>2022-08-27T12:21:06Z</time>
      </trkpt>
      <trkpt lat="45.86497" lon="7.05685">
        <ele>2395</ele>
        <time>2022-08-27T12:21:08Z</time>
      </trkpt>
      <trkpt lat="45.86499" lon="7.05686">
        <ele>2395</ele>
        <time>2022-08-27T12:21:10Z</time>
      </trkpt>
      <trkpt lat="45.86501" lon="7.05686">
        <ele>2395</ele>
        <time>2022-08-27T12:21:12Z</time>
      </trkpt>
      <trkpt lat="45.86504" lon="7.05686">
        <ele>2394</ele>
        <time>2022-08-27T12:21:14Z</time>
      </trkpt>
      <trkpt lat="45.86507" lon="7.05686">
        <ele>2394</ele>
        <time>2022-08-27T12:21:16Z</time>
      </trkpt>
      <trkpt lat="45.86509" lon="7.05689">
        <ele>2394</ele>
        <time>2022-08-27T12:21:18Z</time>
      </trkpt>
      <trkpt lat="45.86511" lon="7.05692">
        <ele>2394</ele>
        <time>2022-08-27T12:21:20Z</time>
      </trkpt>
      <trkpt lat="45.86512" lon="7.05695">
        <ele>2394</ele>
        <time>2022-08-27T12:21:22Z</time>
      </trkpt>
      <trkpt lat="45.86513" lon="7.05697">
        <ele>2394</ele>
        <time>2022-08-27T12:21:24Z</time>
      </trkpt>
      <trkpt lat="45.86515" lon="7.05698">
        <ele>2393</ele>
        <time>2022-08-27T12:21:27Z</time>
      </trkpt>
      <trkpt lat="45.86516" lon="7.05696">
        <ele>2393</ele>
        <time>2022-08-27T12:21:30Z</time>
      </trkpt>
      <trkpt lat="45.86518" lon="7.05694">
        <ele>2393</ele>
        <time>2022-08-27T12:21:32Z</time>
      </trkpt>
      <trkpt lat="45.86519" lon="7.05691">
        <ele>2393</ele>
        <time>2022-08-27T12:21:34Z</time>
      </trkpt>
      <trkpt lat="45.86522" lon="7.05689">
        <ele>2393</ele>
        <time>2022-08-27T12:21:36Z</time>
      </trkpt>
      <trkpt lat="45.86524" lon="7.05688">
        <ele>2394</ele>
        <time>2022-08-27T12:21:38Z</time>
      </trkpt>
      <trkpt lat="45.86527" lon="7.05688">
        <ele>2394</ele>
        <time>2022-08-27T12:21:41Z</time>
      </trkpt>
      <trkpt lat="45.86529" lon="7.05688">
        <ele>2394</ele>
        <time>2022-08-27T12:21:43Z</time>
      </trkpt>
      <trkpt lat="45.86531" lon="7.05689">
        <ele>2394</ele>
        <time>2022-08-27T12:21:45Z</time>
      </trkpt>
      <trkpt lat="45.86533" lon="7.05689">
        <ele>2395</ele>
        <time>2022-08-27T12:21:47Z</time>
      </trkpt>
      <trkpt lat="45.86536" lon="7.0569">
        <ele>2395</ele>
        <time>2022-08-27T12:21:49Z</time>
      </trkpt>
      <trkpt lat="45.86538" lon="7.0569">
        <ele>2395</ele>
        <time>2022-08-27T12:21:50Z</time>
      </trkpt>
      <trkpt lat="45.8654" lon="7.05691">
        <ele>2396</ele>
        <time>2022-08-27T12:21:53Z</time>
      </trkpt>
      <trkpt lat="45.86542" lon="7.05693">
        <ele>2396</ele>
        <time>2022-08-27T12:21:55Z</time>
      </trkpt>
      <trkpt lat="45.86543" lon="7.05693">
        <ele>2396</ele>
        <time>2022-08-27T12:21:57Z</time>
      </trkpt>
      <trkpt lat="45.86546" lon="7.05694">
        <ele>2396</ele>
        <time>2022-08-27T12:21:59Z</time>
      </trkpt>
      <trkpt lat="45.86548" lon="7.05695">
        <ele>2396</ele>
        <time>2022-08-27T12:22:01Z</time>
      </trkpt>
      <trkpt lat="45.8655" lon="7.05696">
        <ele>2397</ele>
        <time>2022-08-27T12:22:03Z</time>
      </trkpt>
      <trkpt lat="45.86553" lon="7.05698">
        <ele>2397</ele>
        <time>2022-08-27T12:22:05Z</time>
      </trkpt>
      <trkpt lat="45.86555" lon="7.057">
        <ele>2397</ele>
        <time>2022-08-27T12:22:07Z</time>
      </trkpt>
      <trkpt lat="45.86557" lon="7.05702">
        <ele>2396</ele>
        <time>2022-08-27T12:22:09Z</time>
      </trkpt>
      <trkpt lat="45.86559" lon="7.05704">
        <ele>2395</ele>
        <time>2022-08-27T12:22:11Z</time>
      </trkpt>
      <trkpt lat="45.8656" lon="7.05706">
        <ele>2395</ele>
        <time>2022-08-27T12:22:13Z</time>
      </trkpt>
      <trkpt lat="45.86562" lon="7.05709">
        <ele>2394</ele>
        <time>2022-08-27T12:22:15Z</time>
      </trkpt>
      <trkpt lat="45.86563" lon="7.05712">
        <ele>2394</ele>
        <time>2022-08-27T12:22:17Z</time>
      </trkpt>
      <trkpt lat="45.86564" lon="7.05715">
        <ele>2394</ele>
        <time>2022-08-27T12:22:19Z</time>
      </trkpt>
      <trkpt lat="45.86565" lon="7.05717">
        <ele>2394</ele>
        <time>2022-08-27T12:22:21Z</time>
      </trkpt>
      <trkpt lat="45.86567" lon="7.05719">
        <ele>2394</ele>
        <time>2022-08-27T12:22:23Z</time>
      </trkpt>
      <trkpt lat="45.86569" lon="7.05721">
        <ele>2393</ele>
        <time>2022-08-27T12:22:25Z</time>
      </trkpt>
      <trkpt lat="45.86571" lon="7.05723">
        <ele>2393</ele>
        <time>2022-08-27T12:22:27Z</time>
      </trkpt>
      <trkpt lat="45.86574" lon="7.05725">
        <ele>2393</ele>
        <time>2022-08-27T12:22:29Z</time>
      </trkpt>
      <trkpt lat="45.86576" lon="7.05727">
        <ele>2393</ele>
        <time>2022-08-27T12:22:31Z</time>
      </trkpt>
      <trkpt lat="45.86577" lon="7.0573">
        <ele>2392</ele>
        <time>2022-08-27T12:22:33Z</time>
      </trkpt>
      <trkpt lat="45.86579" lon="7.05733">
        <ele>2392</ele>
        <time>2022-08-27T12:22:35Z</time>
      </trkpt>
      <trkpt lat="45.8658" lon="7.05736">
        <ele>2392</ele>
        <time>2022-08-27T12:22:37Z</time>
      </trkpt>
      <trkpt lat="45.86581" lon="7.05739">
        <ele>2392</ele>
        <time>2022-08-27T12:22:39Z</time>
      </trkpt>
      <trkpt lat="45.86583" lon="7.05741">
        <ele>2392</ele>
        <time>2022-08-27T12:22:41Z</time>
      </trkpt>
      <trkpt lat="45.86584" lon="7.05743">
        <ele>2392</ele>
        <time>2022-08-27T12:22:43Z</time>
      </trkpt>
      <trkpt lat="45.86587" lon="7.05745">
        <ele>2392</ele>
        <time>2022-08-27T12:22:46Z</time>
      </trkpt>
      <trkpt lat="45.86589" lon="7.05744">
        <ele>2391</ele>
        <time>2022-08-27T12:22:49Z</time>
      </trkpt>
      <trkpt lat="45.86591" lon="7.05742">
        <ele>2391</ele>
        <time>2022-08-27T12:22:51Z</time>
      </trkpt>
      <trkpt lat="45.86592" lon="7.05738">
        <ele>2391</ele>
        <time>2022-08-27T12:22:53Z</time>
      </trkpt>
      <trkpt lat="45.86593" lon="7.05734">
        <ele>2390</ele>
        <time>2022-08-27T12:22:55Z</time>
      </trkpt>
      <trkpt lat="45.86593" lon="7.05731">
        <ele>2390</ele>
        <time>2022-08-27T12:22:57Z</time>
      </trkpt>
      <trkpt lat="45.86594" lon="7.05728">
        <ele>2390</ele>
        <time>2022-08-27T12:22:59Z</time>
      </trkpt>
      <trkpt lat="45.86596" lon="7.05724">
        <ele>2390</ele>
        <time>2022-08-27T12:23:01Z</time>
      </trkpt>
      <trkpt lat="45.86597" lon="7.05722">
        <ele>2390</ele>
        <time>2022-08-27T12:23:03Z</time>
      </trkpt>
      <trkpt lat="45.86599" lon="7.05719">
        <ele>2390</ele>
        <time>2022-08-27T12:23:05Z</time>
      </trkpt>
      <trkpt lat="45.866" lon="7.05716">
        <ele>2391</ele>
        <time>2022-08-27T12:23:07Z</time>
      </trkpt>
      <trkpt lat="45.86602" lon="7.05714">
        <ele>2391</ele>
        <time>2022-08-27T12:23:09Z</time>
      </trkpt>
      <trkpt lat="45.86604" lon="7.05713">
        <ele>2391</ele>
        <time>2022-08-27T12:23:12Z</time>
      </trkpt>
      <trkpt lat="45.86606" lon="7.0571">
        <ele>2392</ele>
        <time>2022-08-27T12:23:16Z</time>
      </trkpt>
      <trkpt lat="45.86607" lon="7.05707">
        <ele>2392</ele>
        <time>2022-08-27T12:23:18Z</time>
      </trkpt>
      <trkpt lat="45.8661" lon="7.05705">
        <ele>2392</ele>
        <time>2022-08-27T12:23:20Z</time>
      </trkpt>
      <trkpt lat="45.86612" lon="7.05705">
        <ele>2392</ele>
        <time>2022-08-27T12:23:22Z</time>
      </trkpt>
      <trkpt lat="45.86615" lon="7.05705">
        <ele>2392</ele>
        <time>2022-08-27T12:23:24Z</time>
      </trkpt>
      <trkpt lat="45.86617" lon="7.05707">
        <ele>2391</ele>
        <time>2022-08-27T12:23:26Z</time>
      </trkpt>
      <trkpt lat="45.8662" lon="7.05708">
        <ele>2391</ele>
        <time>2022-08-27T12:23:28Z</time>
      </trkpt>
      <trkpt lat="45.86622" lon="7.05707">
        <ele>2391</ele>
        <time>2022-08-27T12:23:30Z</time>
      </trkpt>
      <trkpt lat="45.86624" lon="7.05705">
        <ele>2391</ele>
        <time>2022-08-27T12:23:32Z</time>
      </trkpt>
      <trkpt lat="45.86626" lon="7.05704">
        <ele>2392</ele>
        <time>2022-08-27T12:23:34Z</time>
      </trkpt>
      <trkpt lat="45.86629" lon="7.05703">
        <ele>2392</ele>
        <time>2022-08-27T12:23:36Z</time>
      </trkpt>
      <trkpt lat="45.86631" lon="7.05702">
        <ele>2392</ele>
        <time>2022-08-27T12:23:38Z</time>
      </trkpt>
      <trkpt lat="45.86634" lon="7.05701">
        <ele>2392</ele>
        <time>2022-08-27T12:23:40Z</time>
      </trkpt>
      <trkpt lat="45.86637" lon="7.05701">
        <ele>2392</ele>
        <time>2022-08-27T12:23:42Z</time>
      </trkpt>
      <trkpt lat="45.86639" lon="7.05702">
        <ele>2392</ele>
        <time>2022-08-27T12:23:44Z</time>
      </trkpt>
      <trkpt lat="45.86642" lon="7.05702">
        <ele>2392</ele>
        <time>2022-08-27T12:23:46Z</time>
      </trkpt>
      <trkpt lat="45.86644" lon="7.05703">
        <ele>2392</ele>
        <time>2022-08-27T12:23:48Z</time>
      </trkpt>
      <trkpt lat="45.86647" lon="7.05704">
        <ele>2391</ele>
        <time>2022-08-27T12:23:50Z</time>
      </trkpt>
      <trkpt lat="45.86649" lon="7.05705">
        <ele>2391</ele>
        <time>2022-08-27T12:23:52Z</time>
      </trkpt>
      <trkpt lat="45.86652" lon="7.05707">
        <ele>2391</ele>
        <time>2022-08-27T12:23:54Z</time>
      </trkpt>
      <trkpt lat="45.86654" lon="7.05709">
        <ele>2390</ele>
        <time>2022-08-27T12:23:56Z</time>
      </trkpt>
      <trkpt lat="45.86657" lon="7.0571">
        <ele>2390</ele>
        <time>2022-08-27T12:23:58Z</time>
      </trkpt>
      <trkpt lat="45.86659" lon="7.05712">
        <ele>2390</ele>
        <time>2022-08-27T12:24:00Z</time>
      </trkpt>
      <trkpt lat="45.86662" lon="7.05714">
        <ele>2390</ele>
        <time>2022-08-27T12:24:02Z</time>
      </trkpt>
      <trkpt lat="45.86664" lon="7.05716">
        <ele>2390</ele>
        <time>2022-08-27T12:24:04Z</time>
      </trkpt>
      <trkpt lat="45.86667" lon="7.05717">
        <ele>2390</ele>
        <time>2022-08-27T12:24:06Z</time>
      </trkpt>
      <trkpt lat="45.86669" lon="7.05718">
        <ele>2390</ele>
        <time>2022-08-27T12:24:08Z</time>
      </trkpt>
      <trkpt lat="45.86672" lon="7.05719">
        <ele>2390</ele>
        <time>2022-08-27T12:24:10Z</time>
      </trkpt>
      <trkpt lat="45.86674" lon="7.0572">
        <ele>2390</ele>
        <time>2022-08-27T12:24:12Z</time>
      </trkpt>
      <trkpt lat="45.86677" lon="7.0572">
        <ele>2389</ele>
        <time>2022-08-27T12:24:14Z</time>
      </trkpt>
      <trkpt lat="45.86679" lon="7.05722">
        <ele>2389</ele>
        <time>2022-08-27T12:24:16Z</time>
      </trkpt>
      <trkpt lat="45.86681" lon="7.05723">
        <ele>2390</ele>
        <time>2022-08-27T12:24:18Z</time>
      </trkpt>
      <trkpt lat="45.86683" lon="7.05724">
        <ele>2390</ele>
        <time>2022-08-27T12:24:20Z</time>
      </trkpt>
      <trkpt lat="45.86686" lon="7.05725">
        <ele>2390</ele>
        <time>2022-08-27T12:24:22Z</time>
      </trkpt>
      <trkpt lat="45.86688" lon="7.05726">
        <ele>2389</ele>
        <time>2022-08-27T12:24:24Z</time>
      </trkpt>
      <trkpt lat="45.86689" lon="7.05728">
        <ele>2389</ele>
        <time>2022-08-27T12:24:26Z</time>
      </trkpt>
      <trkpt lat="45.86691" lon="7.05728">
        <ele>2388</ele>
        <time>2022-08-27T12:24:28Z</time>
      </trkpt>
      <trkpt lat="45.86694" lon="7.05728">
        <ele>2388</ele>
        <time>2022-08-27T12:24:30Z</time>
      </trkpt>
      <trkpt lat="45.86697" lon="7.05728">
        <ele>2388</ele>
        <time>2022-08-27T12:24:32Z</time>
      </trkpt>
      <trkpt lat="45.86699" lon="7.05729">
        <ele>2388</ele>
        <time>2022-08-27T12:24:34Z</time>
      </trkpt>
      <trkpt lat="45.86702" lon="7.05729">
        <ele>2388</ele>
        <time>2022-08-27T12:24:36Z</time>
      </trkpt>
      <trkpt lat="45.86705" lon="7.05728">
        <ele>2388</ele>
        <time>2022-08-27T12:24:38Z</time>
      </trkpt>
      <trkpt lat="45.86708" lon="7.05728">
        <ele>2387</ele>
        <time>2022-08-27T12:24:40Z</time>
      </trkpt>
      <trkpt lat="45.8671" lon="7.05729">
        <ele>2387</ele>
        <time>2022-08-27T12:24:42Z</time>
      </trkpt>
      <trkpt lat="45.86713" lon="7.05729">
        <ele>2387</ele>
        <time>2022-08-27T12:24:44Z</time>
      </trkpt>
      <trkpt lat="45.86716" lon="7.05728">
        <ele>2387</ele>
        <time>2022-08-27T12:24:46Z</time>
      </trkpt>
      <trkpt lat="45.86719" lon="7.05727">
        <ele>2387</ele>
        <time>2022-08-27T12:24:48Z</time>
      </trkpt>
      <trkpt lat="45.86721" lon="7.05727">
        <ele>2387</ele>
        <time>2022-08-27T12:24:50Z</time>
      </trkpt>
      <trkpt lat="45.86724" lon="7.05727">
        <ele>2387</ele>
        <time>2022-08-27T12:24:52Z</time>
      </trkpt>
      <trkpt lat="45.86726" lon="7.05726">
        <ele>2387</ele>
        <time>2022-08-27T12:24:54Z</time>
      </trkpt>
      <trkpt lat="45.86729" lon="7.05726">
        <ele>2387</ele>
        <time>2022-08-27T12:24:56Z</time>
      </trkpt>
      <trkpt lat="45.86731" lon="7.05726">
        <ele>2387</ele>
        <time>2022-08-27T12:24:58Z</time>
      </trkpt>
      <trkpt lat="45.86734" lon="7.05726">
        <ele>2387</ele>
        <time>2022-08-27T12:25:00Z</time>
      </trkpt>
      <trkpt lat="45.86736" lon="7.05726">
        <ele>2388</ele>
        <time>2022-08-27T12:25:02Z</time>
      </trkpt>
      <trkpt lat="45.86738" lon="7.05727">
        <ele>2389</ele>
        <time>2022-08-27T12:25:04Z</time>
      </trkpt>
      <trkpt lat="45.8674" lon="7.05727">
        <ele>2389</ele>
        <time>2022-08-27T12:25:07Z</time>
      </trkpt>
      <trkpt lat="45.86743" lon="7.05727">
        <ele>2389</ele>
        <time>2022-08-27T12:25:10Z</time>
      </trkpt>
      <trkpt lat="45.86745" lon="7.05727">
        <ele>2389</ele>
        <time>2022-08-27T12:25:12Z</time>
      </trkpt>
      <trkpt lat="45.86748" lon="7.05728">
        <ele>2389</ele>
        <time>2022-08-27T12:25:14Z</time>
      </trkpt>
      <trkpt lat="45.8675" lon="7.0573">
        <ele>2389</ele>
        <time>2022-08-27T12:25:16Z</time>
      </trkpt>
      <trkpt lat="45.86752" lon="7.05731">
        <ele>2389</ele>
        <time>2022-08-27T12:25:18Z</time>
      </trkpt>
      <trkpt lat="45.86754" lon="7.05734">
        <ele>2389</ele>
        <time>2022-08-27T12:25:20Z</time>
      </trkpt>
      <trkpt lat="45.86756" lon="7.05736">
        <ele>2389</ele>
        <time>2022-08-27T12:25:22Z</time>
      </trkpt>
      <trkpt lat="45.86758" lon="7.05738">
        <ele>2390</ele>
        <time>2022-08-27T12:25:24Z</time>
      </trkpt>
      <trkpt lat="45.8676" lon="7.05739">
        <ele>2391</ele>
        <time>2022-08-27T12:25:26Z</time>
      </trkpt>
      <trkpt lat="45.86762" lon="7.05742">
        <ele>2391</ele>
        <time>2022-08-27T12:25:28Z</time>
      </trkpt>
      <trkpt lat="45.86764" lon="7.05745">
        <ele>2391</ele>
        <time>2022-08-27T12:25:30Z</time>
      </trkpt>
      <trkpt lat="45.86766" lon="7.05747">
        <ele>2390</ele>
        <time>2022-08-27T12:25:32Z</time>
      </trkpt>
      <trkpt lat="45.86768" lon="7.0575">
        <ele>2389</ele>
        <time>2022-08-27T12:25:34Z</time>
      </trkpt>
      <trkpt lat="45.8677" lon="7.05752">
        <ele>2389</ele>
        <time>2022-08-27T12:25:36Z</time>
      </trkpt>
      <trkpt lat="45.86772" lon="7.05755">
        <ele>2389</ele>
        <time>2022-08-27T12:25:38Z</time>
      </trkpt>
      <trkpt lat="45.86773" lon="7.05757">
        <ele>2389</ele>
        <time>2022-08-27T12:25:40Z</time>
      </trkpt>
      <trkpt lat="45.86775" lon="7.05759">
        <ele>2389</ele>
        <time>2022-08-27T12:25:42Z</time>
      </trkpt>
      <trkpt lat="45.86777" lon="7.05762">
        <ele>2389</ele>
        <time>2022-08-27T12:25:44Z</time>
      </trkpt>
      <trkpt lat="45.86779" lon="7.05764">
        <ele>2388</ele>
        <time>2022-08-27T12:25:46Z</time>
      </trkpt>
      <trkpt lat="45.86782" lon="7.05766">
        <ele>2387</ele>
        <time>2022-08-27T12:25:48Z</time>
      </trkpt>
      <trkpt lat="45.86784" lon="7.05768">
        <ele>2387</ele>
        <time>2022-08-27T12:25:50Z</time>
      </trkpt>
      <trkpt lat="45.86786" lon="7.05769">
        <ele>2387</ele>
        <time>2022-08-27T12:25:52Z</time>
      </trkpt>
      <trkpt lat="45.86789" lon="7.05771">
        <ele>2387</ele>
        <time>2022-08-27T12:25:54Z</time>
      </trkpt>
      <trkpt lat="45.86791" lon="7.05772">
        <ele>2387</ele>
        <time>2022-08-27T12:25:56Z</time>
      </trkpt>
      <trkpt lat="45.86792" lon="7.05774">
        <ele>2387</ele>
        <time>2022-08-27T12:25:58Z</time>
      </trkpt>
      <trkpt lat="45.86795" lon="7.05775">
        <ele>2387</ele>
        <time>2022-08-27T12:26:00Z</time>
      </trkpt>
      <trkpt lat="45.86797" lon="7.05776">
        <ele>2387</ele>
        <time>2022-08-27T12:26:02Z</time>
      </trkpt>
      <trkpt lat="45.86798" lon="7.05778">
        <ele>2387</ele>
        <time>2022-08-27T12:26:04Z</time>
      </trkpt>
      <trkpt lat="45.868" lon="7.0578">
        <ele>2387</ele>
        <time>2022-08-27T12:26:06Z</time>
      </trkpt>
      <trkpt lat="45.86802" lon="7.05782">
        <ele>2386</ele>
        <time>2022-08-27T12:26:08Z</time>
      </trkpt>
      <trkpt lat="45.86804" lon="7.05784">
        <ele>2385</ele>
        <time>2022-08-27T12:26:10Z</time>
      </trkpt>
      <trkpt lat="45.86806" lon="7.05786">
        <ele>2385</ele>
        <time>2022-08-27T12:26:12Z</time>
      </trkpt>
      <trkpt lat="45.86808" lon="7.05787">
        <ele>2385</ele>
        <time>2022-08-27T12:26:14Z</time>
      </trkpt>
      <trkpt lat="45.86811" lon="7.05787">
        <ele>2384</ele>
        <time>2022-08-27T12:26:16Z</time>
      </trkpt>
      <trkpt lat="45.86813" lon="7.05787">
        <ele>2384</ele>
        <time>2022-08-27T12:26:18Z</time>
      </trkpt>
      <trkpt lat="45.86815" lon="7.05788">
        <ele>2385</ele>
        <time>2022-08-27T12:26:20Z</time>
      </trkpt>
      <trkpt lat="45.86818" lon="7.05791">
        <ele>2385</ele>
        <time>2022-08-27T12:26:22Z</time>
      </trkpt>
      <trkpt lat="45.8682" lon="7.05793">
        <ele>2384</ele>
        <time>2022-08-27T12:26:24Z</time>
      </trkpt>
      <trkpt lat="45.86822" lon="7.05795">
        <ele>2384</ele>
        <time>2022-08-27T12:26:26Z</time>
      </trkpt>
      <trkpt lat="45.86825" lon="7.05795">
        <ele>2384</ele>
        <time>2022-08-27T12:26:28Z</time>
      </trkpt>
      <trkpt lat="45.86828" lon="7.05796">
        <ele>2384</ele>
        <time>2022-08-27T12:26:30Z</time>
      </trkpt>
      <trkpt lat="45.86831" lon="7.05798">
        <ele>2385</ele>
        <time>2022-08-27T12:26:32Z</time>
      </trkpt>
      <trkpt lat="45.86833" lon="7.05799">
        <ele>2385</ele>
        <time>2022-08-27T12:26:34Z</time>
      </trkpt>
      <trkpt lat="45.86836" lon="7.058">
        <ele>2385</ele>
        <time>2022-08-27T12:26:36Z</time>
      </trkpt>
      <trkpt lat="45.86838" lon="7.05801">
        <ele>2385</ele>
        <time>2022-08-27T12:26:38Z</time>
      </trkpt>
      <trkpt lat="45.86841" lon="7.05803">
        <ele>2385</ele>
        <time>2022-08-27T12:26:40Z</time>
      </trkpt>
      <trkpt lat="45.86843" lon="7.05805">
        <ele>2384</ele>
        <time>2022-08-27T12:26:42Z</time>
      </trkpt>
      <trkpt lat="45.86846" lon="7.05807">
        <ele>2384</ele>
        <time>2022-08-27T12:26:44Z</time>
      </trkpt>
      <trkpt lat="45.86848" lon="7.05808">
        <ele>2384</ele>
        <time>2022-08-27T12:26:46Z</time>
      </trkpt>
      <trkpt lat="45.86851" lon="7.0581">
        <ele>2384</ele>
        <time>2022-08-27T12:26:48Z</time>
      </trkpt>
      <trkpt lat="45.86853" lon="7.05812">
        <ele>2384</ele>
        <time>2022-08-27T12:26:50Z</time>
      </trkpt>
      <trkpt lat="45.86856" lon="7.05813">
        <ele>2384</ele>
        <time>2022-08-27T12:26:52Z</time>
      </trkpt>
      <trkpt lat="45.86858" lon="7.05814">
        <ele>2383</ele>
        <time>2022-08-27T12:26:54Z</time>
      </trkpt>
      <trkpt lat="45.8686" lon="7.05815">
        <ele>2383</ele>
        <time>2022-08-27T12:26:56Z</time>
      </trkpt>
      <trkpt lat="45.86862" lon="7.05816">
        <ele>2383</ele>
        <time>2022-08-27T12:26:58Z</time>
      </trkpt>
      <trkpt lat="45.86864" lon="7.05817">
        <ele>2383</ele>
        <time>2022-08-27T12:27:00Z</time>
      </trkpt>
      <trkpt lat="45.86867" lon="7.05817">
        <ele>2383</ele>
        <time>2022-08-27T12:27:02Z</time>
      </trkpt>
      <trkpt lat="45.86869" lon="7.05819">
        <ele>2382</ele>
        <time>2022-08-27T12:27:04Z</time>
      </trkpt>
      <trkpt lat="45.86871" lon="7.05821">
        <ele>2382</ele>
        <time>2022-08-27T12:27:06Z</time>
      </trkpt>
      <trkpt lat="45.86873" lon="7.05822">
        <ele>2382</ele>
        <time>2022-08-27T12:27:08Z</time>
      </trkpt>
      <trkpt lat="45.86876" lon="7.05823">
        <ele>2382</ele>
        <time>2022-08-27T12:27:10Z</time>
      </trkpt>
      <trkpt lat="45.86879" lon="7.05825">
        <ele>2382</ele>
        <time>2022-08-27T12:27:12Z</time>
      </trkpt>
      <trkpt lat="45.86881" lon="7.05828">
        <ele>2381</ele>
        <time>2022-08-27T12:27:14Z</time>
      </trkpt>
      <trkpt lat="45.86884" lon="7.0583">
        <ele>2381</ele>
        <time>2022-08-27T12:27:15Z</time>
      </trkpt>
      <trkpt lat="45.86885" lon="7.05831">
        <ele>2380</ele>
        <time>2022-08-27T12:27:16Z</time>
      </trkpt>
      <trkpt lat="45.86887" lon="7.05833">
        <ele>2379</ele>
        <time>2022-08-27T12:27:17Z</time>
      </trkpt>
      <trkpt lat="45.86888" lon="7.05834">
        <ele>2379</ele>
        <time>2022-08-27T12:27:18Z</time>
      </trkpt>
      <trkpt lat="45.86891" lon="7.05835">
        <ele>2378</ele>
        <time>2022-08-27T12:27:20Z</time>
      </trkpt>
      <trkpt lat="45.86894" lon="7.05838">
        <ele>2376</ele>
        <time>2022-08-27T12:27:22Z</time>
      </trkpt>
      <trkpt lat="45.86895" lon="7.0584">
        <ele>2376</ele>
        <time>2022-08-27T12:27:24Z</time>
      </trkpt>
      <trkpt lat="45.86898" lon="7.0584">
        <ele>2376</ele>
        <time>2022-08-27T12:27:27Z</time>
      </trkpt>
      <trkpt lat="45.869" lon="7.05842">
        <ele>2375</ele>
        <time>2022-08-27T12:27:30Z</time>
      </trkpt>
      <trkpt lat="45.86901" lon="7.05844">
        <ele>2375</ele>
        <time>2022-08-27T12:27:32Z</time>
      </trkpt>
      <trkpt lat="45.86904" lon="7.05844">
        <ele>2374</ele>
        <time>2022-08-27T12:27:34Z</time>
      </trkpt>
      <trkpt lat="45.86906" lon="7.05845">
        <ele>2374</ele>
        <time>2022-08-27T12:27:36Z</time>
      </trkpt>
      <trkpt lat="45.86908" lon="7.05846">
        <ele>2373</ele>
        <time>2022-08-27T12:27:38Z</time>
      </trkpt>
      <trkpt lat="45.8691" lon="7.05846">
        <ele>2373</ele>
        <time>2022-08-27T12:27:40Z</time>
      </trkpt>
      <trkpt lat="45.86913" lon="7.05847">
        <ele>2373</ele>
        <time>2022-08-27T12:27:42Z</time>
      </trkpt>
      <trkpt lat="45.86915" lon="7.05848">
        <ele>2373</ele>
        <time>2022-08-27T12:27:44Z</time>
      </trkpt>
      <trkpt lat="45.86918" lon="7.05849">
        <ele>2373</ele>
        <time>2022-08-27T12:27:46Z</time>
      </trkpt>
      <trkpt lat="45.86921" lon="7.05851">
        <ele>2373</ele>
        <time>2022-08-27T12:27:48Z</time>
      </trkpt>
      <trkpt lat="45.86923" lon="7.05853">
        <ele>2373</ele>
        <time>2022-08-27T12:27:50Z</time>
      </trkpt>
      <trkpt lat="45.86925" lon="7.05852">
        <ele>2372</ele>
        <time>2022-08-27T12:27:54Z</time>
      </trkpt>
      <trkpt lat="45.86928" lon="7.05852">
        <ele>2371</ele>
        <time>2022-08-27T12:27:56Z</time>
      </trkpt>
      <trkpt lat="45.8693" lon="7.05853">
        <ele>2371</ele>
        <time>2022-08-27T12:27:58Z</time>
      </trkpt>
      <trkpt lat="45.86933" lon="7.05854">
        <ele>2370</ele>
        <time>2022-08-27T12:28:00Z</time>
      </trkpt>
      <trkpt lat="45.86936" lon="7.05854">
        <ele>2370</ele>
        <time>2022-08-27T12:28:02Z</time>
      </trkpt>
      <trkpt lat="45.86939" lon="7.05855">
        <ele>2369</ele>
        <time>2022-08-27T12:28:04Z</time>
      </trkpt>
      <trkpt lat="45.86941" lon="7.05857">
        <ele>2369</ele>
        <time>2022-08-27T12:28:06Z</time>
      </trkpt>
      <trkpt lat="45.86944" lon="7.05858">
        <ele>2369</ele>
        <time>2022-08-27T12:28:08Z</time>
      </trkpt>
      <trkpt lat="45.86946" lon="7.0586">
        <ele>2369</ele>
        <time>2022-08-27T12:28:10Z</time>
      </trkpt>
      <trkpt lat="45.86948" lon="7.05861">
        <ele>2369</ele>
        <time>2022-08-27T12:28:12Z</time>
      </trkpt>
      <trkpt lat="45.8695" lon="7.05864">
        <ele>2369</ele>
        <time>2022-08-27T12:28:14Z</time>
      </trkpt>
      <trkpt lat="45.86952" lon="7.05865">
        <ele>2368</ele>
        <time>2022-08-27T12:28:16Z</time>
      </trkpt>
      <trkpt lat="45.86954" lon="7.05865">
        <ele>2368</ele>
        <time>2022-08-27T12:28:18Z</time>
      </trkpt>
      <trkpt lat="45.86957" lon="7.05866">
        <ele>2368</ele>
        <time>2022-08-27T12:28:20Z</time>
      </trkpt>
      <trkpt lat="45.86959" lon="7.05868">
        <ele>2367</ele>
        <time>2022-08-27T12:28:22Z</time>
      </trkpt>
      <trkpt lat="45.8696" lon="7.05871">
        <ele>2367</ele>
        <time>2022-08-27T12:28:25Z</time>
      </trkpt>
      <trkpt lat="45.86962" lon="7.05872">
        <ele>2366</ele>
        <time>2022-08-27T12:28:27Z</time>
      </trkpt>
      <trkpt lat="45.86964" lon="7.05874">
        <ele>2365</ele>
        <time>2022-08-27T12:28:30Z</time>
      </trkpt>
      <trkpt lat="45.86964" lon="7.0587">
        <ele>2364</ele>
        <time>2022-08-27T12:28:33Z</time>
      </trkpt>
      <trkpt lat="45.86963" lon="7.05867">
        <ele>2364</ele>
        <time>2022-08-27T12:28:35Z</time>
      </trkpt>
      <trkpt lat="45.86963" lon="7.05863">
        <ele>2364</ele>
        <time>2022-08-27T12:28:37Z</time>
      </trkpt>
      <trkpt lat="45.86962" lon="7.0586">
        <ele>2364</ele>
        <time>2022-08-27T12:28:39Z</time>
      </trkpt>
      <trkpt lat="45.86961" lon="7.05857">
        <ele>2364</ele>
        <time>2022-08-27T12:28:41Z</time>
      </trkpt>
      <trkpt lat="45.86959" lon="7.05854">
        <ele>2364</ele>
        <time>2022-08-27T12:28:43Z</time>
      </trkpt>
      <trkpt lat="45.86957" lon="7.05851">
        <ele>2364</ele>
        <time>2022-08-27T12:28:45Z</time>
      </trkpt>
      <trkpt lat="45.86954" lon="7.05848">
        <ele>2364</ele>
        <time>2022-08-27T12:28:47Z</time>
      </trkpt>
      <trkpt lat="45.86952" lon="7.05847">
        <ele>2363</ele>
        <time>2022-08-27T12:28:49Z</time>
      </trkpt>
      <trkpt lat="45.86949" lon="7.05845">
        <ele>2363</ele>
        <time>2022-08-27T12:28:51Z</time>
      </trkpt>
      <trkpt lat="45.86947" lon="7.05844">
        <ele>2363</ele>
        <time>2022-08-27T12:28:53Z</time>
      </trkpt>
      <trkpt lat="45.86945" lon="7.05842">
        <ele>2363</ele>
        <time>2022-08-27T12:28:55Z</time>
      </trkpt>
      <trkpt lat="45.86943" lon="7.0584">
        <ele>2363</ele>
        <time>2022-08-27T12:28:57Z</time>
      </trkpt>
      <trkpt lat="45.8694" lon="7.05836">
        <ele>2362</ele>
        <time>2022-08-27T12:28:59Z</time>
      </trkpt>
      <trkpt lat="45.86939" lon="7.05835">
        <ele>2362</ele>
        <time>2022-08-27T12:29:00Z</time>
      </trkpt>
      <trkpt lat="45.86936" lon="7.05831">
        <ele>2361</ele>
        <time>2022-08-27T12:29:02Z</time>
      </trkpt>
      <trkpt lat="45.86934" lon="7.05827">
        <ele>2361</ele>
        <time>2022-08-27T12:29:04Z</time>
      </trkpt>
      <trkpt lat="45.86932" lon="7.05825">
        <ele>2361</ele>
        <time>2022-08-27T12:29:06Z</time>
      </trkpt>
      <trkpt lat="45.8693" lon="7.05822">
        <ele>2361</ele>
        <time>2022-08-27T12:29:08Z</time>
      </trkpt>
      <trkpt lat="45.86928" lon="7.0582">
        <ele>2361</ele>
        <time>2022-08-27T12:29:10Z</time>
      </trkpt>
      <trkpt lat="45.86926" lon="7.05818">
        <ele>2361</ele>
        <time>2022-08-27T12:29:12Z</time>
      </trkpt>
      <trkpt lat="45.86924" lon="7.05817">
        <ele>2361</ele>
        <time>2022-08-27T12:29:14Z</time>
      </trkpt>
      <trkpt lat="45.86921" lon="7.05818">
        <ele>2361</ele>
        <time>2022-08-27T12:29:16Z</time>
      </trkpt>
      <trkpt lat="45.86919" lon="7.05817">
        <ele>2361</ele>
        <time>2022-08-27T12:29:18Z</time>
      </trkpt>
      <trkpt lat="45.86916" lon="7.05815">
        <ele>2360</ele>
        <time>2022-08-27T12:29:20Z</time>
      </trkpt>
      <trkpt lat="45.86914" lon="7.05813">
        <ele>2360</ele>
        <time>2022-08-27T12:29:22Z</time>
      </trkpt>
      <trkpt lat="45.86912" lon="7.05811">
        <ele>2360</ele>
        <time>2022-08-27T12:29:24Z</time>
      </trkpt>
      <trkpt lat="45.8691" lon="7.05808">
        <ele>2360</ele>
        <time>2022-08-27T12:29:26Z</time>
      </trkpt>
      <trkpt lat="45.86909" lon="7.05805">
        <ele>2360</ele>
        <time>2022-08-27T12:29:28Z</time>
      </trkpt>
      <trkpt lat="45.86908" lon="7.05802">
        <ele>2360</ele>
        <time>2022-08-27T12:29:30Z</time>
      </trkpt>
      <trkpt lat="45.86907" lon="7.05799">
        <ele>2360</ele>
        <time>2022-08-27T12:29:32Z</time>
      </trkpt>
      <trkpt lat="45.86906" lon="7.05795">
        <ele>2360</ele>
        <time>2022-08-27T12:29:34Z</time>
      </trkpt>
      <trkpt lat="45.86905" lon="7.05792">
        <ele>2360</ele>
        <time>2022-08-27T12:29:36Z</time>
      </trkpt>
      <trkpt lat="45.86902" lon="7.0579">
        <ele>2360</ele>
        <time>2022-08-27T12:29:38Z</time>
      </trkpt>
      <trkpt lat="45.869" lon="7.05787">
        <ele>2360</ele>
        <time>2022-08-27T12:29:40Z</time>
      </trkpt>
      <trkpt lat="45.86897" lon="7.05786">
        <ele>2360</ele>
        <time>2022-08-27T12:29:42Z</time>
      </trkpt>
      <trkpt lat="45.86895" lon="7.05784">
        <ele>2360</ele>
        <time>2022-08-27T12:29:44Z</time>
      </trkpt>
      <trkpt lat="45.86893" lon="7.05781">
        <ele>2359</ele>
        <time>2022-08-27T12:29:46Z</time>
      </trkpt>
      <trkpt lat="45.86891" lon="7.05778">
        <ele>2359</ele>
        <time>2022-08-27T12:29:48Z</time>
      </trkpt>
      <trkpt lat="45.86889" lon="7.05774">
        <ele>2359</ele>
        <time>2022-08-27T12:29:50Z</time>
      </trkpt>
      <trkpt lat="45.86887" lon="7.0577">
        <ele>2359</ele>
        <time>2022-08-27T12:29:52Z</time>
      </trkpt>
      <trkpt lat="45.86884" lon="7.05767">
        <ele>2358</ele>
        <time>2022-08-27T12:29:54Z</time>
      </trkpt>
      <trkpt lat="45.86881" lon="7.05764">
        <ele>2358</ele>
        <time>2022-08-27T12:29:56Z</time>
      </trkpt>
      <trkpt lat="45.86879" lon="7.05761">
        <ele>2358</ele>
        <time>2022-08-27T12:29:58Z</time>
      </trkpt>
      <trkpt lat="45.86878" lon="7.05758">
        <ele>2357</ele>
        <time>2022-08-27T12:30:00Z</time>
      </trkpt>
      <trkpt lat="45.86877" lon="7.05754">
        <ele>2357</ele>
        <time>2022-08-27T12:30:02Z</time>
      </trkpt>
      <trkpt lat="45.86875" lon="7.05752">
        <ele>2356</ele>
        <time>2022-08-27T12:30:04Z</time>
      </trkpt>
      <trkpt lat="45.86874" lon="7.05749">
        <ele>2355</ele>
        <time>2022-08-27T12:30:06Z</time>
      </trkpt>
      <trkpt lat="45.86873" lon="7.05745">
        <ele>2354</ele>
        <time>2022-08-27T12:30:08Z</time>
      </trkpt>
      <trkpt lat="45.86872" lon="7.05741">
        <ele>2353</ele>
        <time>2022-08-27T12:30:10Z</time>
      </trkpt>
      <trkpt lat="45.8687" lon="7.05738">
        <ele>2353</ele>
        <time>2022-08-27T12:30:12Z</time>
      </trkpt>
      <trkpt lat="45.86869" lon="7.05735">
        <ele>2352</ele>
        <time>2022-08-27T12:30:14Z</time>
      </trkpt>
      <trkpt lat="45.86867" lon="7.05731">
        <ele>2352</ele>
        <time>2022-08-27T12:30:16Z</time>
      </trkpt>
      <trkpt lat="45.86864" lon="7.05727">
        <ele>2352</ele>
        <time>2022-08-27T12:30:18Z</time>
      </trkpt>
      <trkpt lat="45.86863" lon="7.05725">
        <ele>2352</ele>
        <time>2022-08-27T12:30:19Z</time>
      </trkpt>
      <trkpt lat="45.8686" lon="7.05722">
        <ele>2349</ele>
        <time>2022-08-27T12:30:21Z</time>
      </trkpt>
      <trkpt lat="45.86859" lon="7.05721">
        <ele>2349</ele>
        <time>2022-08-27T12:30:22Z</time>
      </trkpt>
      <trkpt lat="45.86856" lon="7.05719">
        <ele>2348</ele>
        <time>2022-08-27T12:30:24Z</time>
      </trkpt>
      <trkpt lat="45.86853" lon="7.05718">
        <ele>2348</ele>
        <time>2022-08-27T12:30:26Z</time>
      </trkpt>
      <trkpt lat="45.86852" lon="7.05716">
        <ele>2347</ele>
        <time>2022-08-27T12:30:28Z</time>
      </trkpt>
      <trkpt lat="45.86852" lon="7.05712">
        <ele>2347</ele>
        <time>2022-08-27T12:30:30Z</time>
      </trkpt>
      <trkpt lat="45.86853" lon="7.05708">
        <ele>2347</ele>
        <time>2022-08-27T12:30:32Z</time>
      </trkpt>
      <trkpt lat="45.86851" lon="7.05703">
        <ele>2347</ele>
        <time>2022-08-27T12:30:34Z</time>
      </trkpt>
      <trkpt lat="45.86849" lon="7.057">
        <ele>2346</ele>
        <time>2022-08-27T12:30:36Z</time>
      </trkpt>
      <trkpt lat="45.86846" lon="7.05698">
        <ele>2346</ele>
        <time>2022-08-27T12:30:38Z</time>
      </trkpt>
      <trkpt lat="45.86843" lon="7.05695">
        <ele>2346</ele>
        <time>2022-08-27T12:30:40Z</time>
      </trkpt>
      <trkpt lat="45.86842" lon="7.05691">
        <ele>2346</ele>
        <time>2022-08-27T12:30:42Z</time>
      </trkpt>
      <trkpt lat="45.86841" lon="7.05687">
        <ele>2346</ele>
        <time>2022-08-27T12:30:44Z</time>
      </trkpt>
      <trkpt lat="45.86841" lon="7.05682">
        <ele>2345</ele>
        <time>2022-08-27T12:30:46Z</time>
      </trkpt>
      <trkpt lat="45.86841" lon="7.05678">
        <ele>2345</ele>
        <time>2022-08-27T12:30:48Z</time>
      </trkpt>
      <trkpt lat="45.8684" lon="7.05674">
        <ele>2345</ele>
        <time>2022-08-27T12:30:50Z</time>
      </trkpt>
      <trkpt lat="45.86839" lon="7.05669">
        <ele>2344</ele>
        <time>2022-08-27T12:30:52Z</time>
      </trkpt>
      <trkpt lat="45.86839" lon="7.05665">
        <ele>2343</ele>
        <time>2022-08-27T12:30:54Z</time>
      </trkpt>
      <trkpt lat="45.86837" lon="7.0566">
        <ele>2343</ele>
        <time>2022-08-27T12:30:56Z</time>
      </trkpt>
      <trkpt lat="45.86837" lon="7.05656">
        <ele>2343</ele>
        <time>2022-08-27T12:30:58Z</time>
      </trkpt>
      <trkpt lat="45.86837" lon="7.05652">
        <ele>2342</ele>
        <time>2022-08-27T12:31:00Z</time>
      </trkpt>
      <trkpt lat="45.86837" lon="7.05649">
        <ele>2341</ele>
        <time>2022-08-27T12:31:02Z</time>
      </trkpt>
      <trkpt lat="45.86836" lon="7.05645">
        <ele>2341</ele>
        <time>2022-08-27T12:31:04Z</time>
      </trkpt>
      <trkpt lat="45.86837" lon="7.05642">
        <ele>2340</ele>
        <time>2022-08-27T12:31:06Z</time>
      </trkpt>
      <trkpt lat="45.86836" lon="7.05637">
        <ele>2339</ele>
        <time>2022-08-27T12:31:08Z</time>
      </trkpt>
      <trkpt lat="45.86835" lon="7.05634">
        <ele>2339</ele>
        <time>2022-08-27T12:31:10Z</time>
      </trkpt>
      <trkpt lat="45.86833" lon="7.0563">
        <ele>2339</ele>
        <time>2022-08-27T12:31:12Z</time>
      </trkpt>
      <trkpt lat="45.86832" lon="7.05627">
        <ele>2338</ele>
        <time>2022-08-27T12:31:14Z</time>
      </trkpt>
      <trkpt lat="45.8683" lon="7.05625">
        <ele>2337</ele>
        <time>2022-08-27T12:31:16Z</time>
      </trkpt>
      <trkpt lat="45.86828" lon="7.05621">
        <ele>2336</ele>
        <time>2022-08-27T12:31:18Z</time>
      </trkpt>
      <trkpt lat="45.86827" lon="7.05617">
        <ele>2335</ele>
        <time>2022-08-27T12:31:20Z</time>
      </trkpt>
      <trkpt lat="45.86825" lon="7.05613">
        <ele>2335</ele>
        <time>2022-08-27T12:31:22Z</time>
      </trkpt>
      <trkpt lat="45.86823" lon="7.0561">
        <ele>2333</ele>
        <time>2022-08-27T12:31:24Z</time>
      </trkpt>
      <trkpt lat="45.86822" lon="7.05606">
        <ele>2332</ele>
        <time>2022-08-27T12:31:26Z</time>
      </trkpt>
      <trkpt lat="45.8682" lon="7.05603">
        <ele>2332</ele>
        <time>2022-08-27T12:31:28Z</time>
      </trkpt>
      <trkpt lat="45.86818" lon="7.056">
        <ele>2331</ele>
        <time>2022-08-27T12:31:30Z</time>
      </trkpt>
      <trkpt lat="45.86816" lon="7.05597">
        <ele>2331</ele>
        <time>2022-08-27T12:31:32Z</time>
      </trkpt>
      <trkpt lat="45.86814" lon="7.05593">
        <ele>2330</ele>
        <time>2022-08-27T12:31:34Z</time>
      </trkpt>
      <trkpt lat="45.86811" lon="7.0559">
        <ele>2330</ele>
        <time>2022-08-27T12:31:36Z</time>
      </trkpt>
      <trkpt lat="45.8681" lon="7.05588">
        <ele>2329</ele>
        <time>2022-08-27T12:31:38Z</time>
      </trkpt>
      <trkpt lat="45.86807" lon="7.05587">
        <ele>2327</ele>
        <time>2022-08-27T12:31:42Z</time>
      </trkpt>
      <trkpt lat="45.86804" lon="7.05584">
        <ele>2327</ele>
        <time>2022-08-27T12:31:44Z</time>
      </trkpt>
      <trkpt lat="45.86802" lon="7.05582">
        <ele>2327</ele>
        <time>2022-08-27T12:31:46Z</time>
      </trkpt>
      <trkpt lat="45.868" lon="7.05582">
        <ele>2327</ele>
        <time>2022-08-27T12:31:48Z</time>
      </trkpt>
      <trkpt lat="45.86798" lon="7.0558">
        <ele>2326</ele>
        <time>2022-08-27T12:31:50Z</time>
      </trkpt>
      <trkpt lat="45.86796" lon="7.05577">
        <ele>2324</ele>
        <time>2022-08-27T12:31:52Z</time>
      </trkpt>
      <trkpt lat="45.86794" lon="7.05573">
        <ele>2324</ele>
        <time>2022-08-27T12:31:54Z</time>
      </trkpt>
      <trkpt lat="45.86792" lon="7.0557">
        <ele>2323</ele>
        <time>2022-08-27T12:31:56Z</time>
      </trkpt>
      <trkpt lat="45.8679" lon="7.05566">
        <ele>2323</ele>
        <time>2022-08-27T12:31:58Z</time>
      </trkpt>
      <trkpt lat="45.86787" lon="7.05563">
        <ele>2321</ele>
        <time>2022-08-27T12:32:00Z</time>
      </trkpt>
      <trkpt lat="45.86785" lon="7.0556">
        <ele>2321</ele>
        <time>2022-08-27T12:32:02Z</time>
      </trkpt>
      <trkpt lat="45.86783" lon="7.05558">
        <ele>2321</ele>
        <time>2022-08-27T12:32:04Z</time>
      </trkpt>
      <trkpt lat="45.8678" lon="7.05555">
        <ele>2321</ele>
        <time>2022-08-27T12:32:06Z</time>
      </trkpt>
      <trkpt lat="45.86778" lon="7.05551">
        <ele>2320</ele>
        <time>2022-08-27T12:32:08Z</time>
      </trkpt>
      <trkpt lat="45.86776" lon="7.05549">
        <ele>2319</ele>
        <time>2022-08-27T12:32:09Z</time>
      </trkpt>
      <trkpt lat="45.86775" lon="7.05546">
        <ele>2319</ele>
        <time>2022-08-27T12:32:10Z</time>
      </trkpt>
      <trkpt lat="45.86774" lon="7.05544">
        <ele>2319</ele>
        <time>2022-08-27T12:32:11Z</time>
      </trkpt>
      <trkpt lat="45.86772" lon="7.05541">
        <ele>2318</ele>
        <time>2022-08-27T12:32:13Z</time>
      </trkpt>
      <trkpt lat="45.8677" lon="7.05539">
        <ele>2318</ele>
        <time>2022-08-27T12:32:14Z</time>
      </trkpt>
      <trkpt lat="45.86768" lon="7.05537">
        <ele>2318</ele>
        <time>2022-08-27T12:32:15Z</time>
      </trkpt>
      <trkpt lat="45.86766" lon="7.05535">
        <ele>2317</ele>
        <time>2022-08-27T12:32:16Z</time>
      </trkpt>
      <trkpt lat="45.86763" lon="7.05534">
        <ele>2316</ele>
        <time>2022-08-27T12:32:18Z</time>
      </trkpt>
      <trkpt lat="45.86762" lon="7.05532">
        <ele>2316</ele>
        <time>2022-08-27T12:32:19Z</time>
      </trkpt>
      <trkpt lat="45.86761" lon="7.05528">
        <ele>2316</ele>
        <time>2022-08-27T12:32:21Z</time>
      </trkpt>
      <trkpt lat="45.8676" lon="7.05523">
        <ele>2316</ele>
        <time>2022-08-27T12:32:23Z</time>
      </trkpt>
      <trkpt lat="45.8676" lon="7.05519">
        <ele>2315</ele>
        <time>2022-08-27T12:32:25Z</time>
      </trkpt>
      <trkpt lat="45.86758" lon="7.05516">
        <ele>2315</ele>
        <time>2022-08-27T12:32:27Z</time>
      </trkpt>
      <trkpt lat="45.86757" lon="7.05514">
        <ele>2315</ele>
        <time>2022-08-27T12:32:29Z</time>
      </trkpt>
      <trkpt lat="45.86756" lon="7.05511">
        <ele>2313</ele>
        <time>2022-08-27T12:32:31Z</time>
      </trkpt>
      <trkpt lat="45.86754" lon="7.05508">
        <ele>2313</ele>
        <time>2022-08-27T12:32:33Z</time>
      </trkpt>
      <trkpt lat="45.86751" lon="7.05505">
        <ele>2312</ele>
        <time>2022-08-27T12:32:35Z</time>
      </trkpt>
      <trkpt lat="45.86749" lon="7.05502">
        <ele>2311</ele>
        <time>2022-08-27T12:32:37Z</time>
      </trkpt>
      <trkpt lat="45.86751" lon="7.055">
        <ele>2311</ele>
        <time>2022-08-27T12:32:39Z</time>
      </trkpt>
      <trkpt lat="45.86754" lon="7.05501">
        <ele>2311</ele>
        <time>2022-08-27T12:32:41Z</time>
      </trkpt>
      <trkpt lat="45.86757" lon="7.05501">
        <ele>2309</ele>
        <time>2022-08-27T12:32:43Z</time>
      </trkpt>
      <trkpt lat="45.8676" lon="7.05501">
        <ele>2309</ele>
        <time>2022-08-27T12:32:45Z</time>
      </trkpt>
      <trkpt lat="45.86763" lon="7.05501">
        <ele>2308</ele>
        <time>2022-08-27T12:32:47Z</time>
      </trkpt>
      <trkpt lat="45.86765" lon="7.05502">
        <ele>2308</ele>
        <time>2022-08-27T12:32:49Z</time>
      </trkpt>
      <trkpt lat="45.86768" lon="7.05502">
        <ele>2307</ele>
        <time>2022-08-27T12:32:51Z</time>
      </trkpt>
      <trkpt lat="45.8677" lon="7.055">
        <ele>2306</ele>
        <time>2022-08-27T12:32:53Z</time>
      </trkpt>
      <trkpt lat="45.86771" lon="7.05496">
        <ele>2306</ele>
        <time>2022-08-27T12:32:55Z</time>
      </trkpt>
      <trkpt lat="45.8677" lon="7.05493">
        <ele>2304</ele>
        <time>2022-08-27T12:32:57Z</time>
      </trkpt>
      <trkpt lat="45.86769" lon="7.05489">
        <ele>2304</ele>
        <time>2022-08-27T12:32:59Z</time>
      </trkpt>
      <trkpt lat="45.86769" lon="7.05486">
        <ele>2303</ele>
        <time>2022-08-27T12:33:01Z</time>
      </trkpt>
      <trkpt lat="45.86767" lon="7.05482">
        <ele>2303</ele>
        <time>2022-08-27T12:33:03Z</time>
      </trkpt>
      <trkpt lat="45.86766" lon="7.05478">
        <ele>2302</ele>
        <time>2022-08-27T12:33:05Z</time>
      </trkpt>
      <trkpt lat="45.86764" lon="7.05473">
        <ele>2302</ele>
        <time>2022-08-27T12:33:07Z</time>
      </trkpt>
      <trkpt lat="45.86763" lon="7.05469">
        <ele>2301</ele>
        <time>2022-08-27T12:33:09Z</time>
      </trkpt>
      <trkpt lat="45.86761" lon="7.05466">
        <ele>2301</ele>
        <time>2022-08-27T12:33:11Z</time>
      </trkpt>
      <trkpt lat="45.8676" lon="7.05463">
        <ele>2300</ele>
        <time>2022-08-27T12:33:13Z</time>
      </trkpt>
      <trkpt lat="45.86761" lon="7.05461">
        <ele>2297</ele>
        <time>2022-08-27T12:33:15Z</time>
      </trkpt>
      <trkpt lat="45.86764" lon="7.05463">
        <ele>2297</ele>
        <time>2022-08-27T12:33:17Z</time>
      </trkpt>
      <trkpt lat="45.86767" lon="7.05464">
        <ele>2297</ele>
        <time>2022-08-27T12:33:19Z</time>
      </trkpt>
      <trkpt lat="45.8677" lon="7.05464">
        <ele>2296</ele>
        <time>2022-08-27T12:33:21Z</time>
      </trkpt>
      <trkpt lat="45.86773" lon="7.05464">
        <ele>2295</ele>
        <time>2022-08-27T12:33:23Z</time>
      </trkpt>
      <trkpt lat="45.86776" lon="7.05466">
        <ele>2295</ele>
        <time>2022-08-27T12:33:25Z</time>
      </trkpt>
      <trkpt lat="45.86777" lon="7.05467">
        <ele>2295</ele>
        <time>2022-08-27T12:33:26Z</time>
      </trkpt>
      <trkpt lat="45.86779" lon="7.05468">
        <ele>2294</ele>
        <time>2022-08-27T12:33:27Z</time>
      </trkpt>
      <trkpt lat="45.86782" lon="7.0547">
        <ele>2294</ele>
        <time>2022-08-27T12:33:29Z</time>
      </trkpt>
      <trkpt lat="45.86784" lon="7.05471">
        <ele>2293</ele>
        <time>2022-08-27T12:33:31Z</time>
      </trkpt>
      <trkpt lat="45.86786" lon="7.05471">
        <ele>2292</ele>
        <time>2022-08-27T12:33:33Z</time>
      </trkpt>
      <trkpt lat="45.86789" lon="7.05471">
        <ele>2290</ele>
        <time>2022-08-27T12:33:35Z</time>
      </trkpt>
      <trkpt lat="45.86792" lon="7.05471">
        <ele>2290</ele>
        <time>2022-08-27T12:33:37Z</time>
      </trkpt>
      <trkpt lat="45.86795" lon="7.05472">
        <ele>2290</ele>
        <time>2022-08-27T12:33:39Z</time>
      </trkpt>
      <trkpt lat="45.86798" lon="7.05475">
        <ele>2290</ele>
        <time>2022-08-27T12:33:41Z</time>
      </trkpt>
      <trkpt lat="45.868" lon="7.05479">
        <ele>2288</ele>
        <time>2022-08-27T12:33:43Z</time>
      </trkpt>
      <trkpt lat="45.86802" lon="7.05479">
        <ele>2287</ele>
        <time>2022-08-27T12:33:45Z</time>
      </trkpt>
      <trkpt lat="45.86806" lon="7.0548">
        <ele>2286</ele>
        <time>2022-08-27T12:33:47Z</time>
      </trkpt>
      <trkpt lat="45.86807" lon="7.05481">
        <ele>2286</ele>
        <time>2022-08-27T12:33:48Z</time>
      </trkpt>
      <trkpt lat="45.86809" lon="7.05482">
        <ele>2286</ele>
        <time>2022-08-27T12:33:49Z</time>
      </trkpt>
      <trkpt lat="45.86812" lon="7.05484">
        <ele>2286</ele>
        <time>2022-08-27T12:33:51Z</time>
      </trkpt>
      <trkpt lat="45.86814" lon="7.05485">
        <ele>2286</ele>
        <time>2022-08-27T12:33:52Z</time>
      </trkpt>
      <trkpt lat="45.86817" lon="7.05486">
        <ele>2285</ele>
        <time>2022-08-27T12:33:54Z</time>
      </trkpt>
      <trkpt lat="45.8682" lon="7.05488">
        <ele>2284</ele>
        <time>2022-08-27T12:33:56Z</time>
      </trkpt>
      <trkpt lat="45.86822" lon="7.05489">
        <ele>2284</ele>
        <time>2022-08-27T12:33:57Z</time>
      </trkpt>
      <trkpt lat="45.86825" lon="7.05489">
        <ele>2284</ele>
        <time>2022-08-27T12:33:59Z</time>
      </trkpt>
      <trkpt lat="45.86828" lon="7.05489">
        <ele>2284</ele>
        <time>2022-08-27T12:34:01Z</time>
      </trkpt>
      <trkpt lat="45.86831" lon="7.05489">
        <ele>2284</ele>
        <time>2022-08-27T12:34:03Z</time>
      </trkpt>
      <trkpt lat="45.86833" lon="7.05489">
        <ele>2284</ele>
        <time>2022-08-27T12:34:05Z</time>
      </trkpt>
      <trkpt lat="45.86836" lon="7.0549">
        <ele>2284</ele>
        <time>2022-08-27T12:34:07Z</time>
      </trkpt>
      <trkpt lat="45.86839" lon="7.0549">
        <ele>2284</ele>
        <time>2022-08-27T12:34:09Z</time>
      </trkpt>
      <trkpt lat="45.86842" lon="7.05491">
        <ele>2284</ele>
        <time>2022-08-27T12:34:11Z</time>
      </trkpt>
      <trkpt lat="45.86844" lon="7.05491">
        <ele>2284</ele>
        <time>2022-08-27T12:34:13Z</time>
      </trkpt>
      <trkpt lat="45.86847" lon="7.05494">
        <ele>2284</ele>
        <time>2022-08-27T12:34:15Z</time>
      </trkpt>
      <trkpt lat="45.86849" lon="7.05495">
        <ele>2284</ele>
        <time>2022-08-27T12:34:17Z</time>
      </trkpt>
      <trkpt lat="45.86851" lon="7.05495">
        <ele>2284</ele>
        <time>2022-08-27T12:34:20Z</time>
      </trkpt>
      <trkpt lat="45.86853" lon="7.05495">
        <ele>2284</ele>
        <time>2022-08-27T12:34:22Z</time>
      </trkpt>
      <trkpt lat="45.86856" lon="7.05495">
        <ele>2284</ele>
        <time>2022-08-27T12:34:24Z</time>
      </trkpt>
      <trkpt lat="45.86859" lon="7.05496">
        <ele>2284</ele>
        <time>2022-08-27T12:34:26Z</time>
      </trkpt>
      <trkpt lat="45.8686" lon="7.05497">
        <ele>2284</ele>
        <time>2022-08-27T12:34:27Z</time>
      </trkpt>
      <trkpt lat="45.86862" lon="7.05497">
        <ele>2284</ele>
        <time>2022-08-27T12:34:28Z</time>
      </trkpt>
      <trkpt lat="45.86865" lon="7.05499">
        <ele>2283</ele>
        <time>2022-08-27T12:34:30Z</time>
      </trkpt>
      <trkpt lat="45.86868" lon="7.05501">
        <ele>2283</ele>
        <time>2022-08-27T12:34:32Z</time>
      </trkpt>
      <trkpt lat="45.86871" lon="7.05502">
        <ele>2283</ele>
        <time>2022-08-27T12:34:34Z</time>
      </trkpt>
      <trkpt lat="45.86873" lon="7.05505">
        <ele>2282</ele>
        <time>2022-08-27T12:34:36Z</time>
      </trkpt>
      <trkpt lat="45.86875" lon="7.05507">
        <ele>2281</ele>
        <time>2022-08-27T12:34:38Z</time>
      </trkpt>
      <trkpt lat="45.86877" lon="7.0551">
        <ele>2281</ele>
        <time>2022-08-27T12:34:40Z</time>
      </trkpt>
      <trkpt lat="45.8688" lon="7.05513">
        <ele>2280</ele>
        <time>2022-08-27T12:34:42Z</time>
      </trkpt>
      <trkpt lat="45.86883" lon="7.05515">
        <ele>2280</ele>
        <time>2022-08-27T12:34:44Z</time>
      </trkpt>
      <trkpt lat="45.86886" lon="7.05517">
        <ele>2280</ele>
        <time>2022-08-27T12:34:46Z</time>
      </trkpt>
      <trkpt lat="45.86889" lon="7.05518">
        <ele>2280</ele>
        <time>2022-08-27T12:34:48Z</time>
      </trkpt>
      <trkpt lat="45.86892" lon="7.0552">
        <ele>2280</ele>
        <time>2022-08-27T12:34:50Z</time>
      </trkpt>
      <trkpt lat="45.86894" lon="7.0552">
        <ele>2277</ele>
        <time>2022-08-27T12:34:52Z</time>
      </trkpt>
      <trkpt lat="45.86896" lon="7.0552">
        <ele>2277</ele>
        <time>2022-08-27T12:34:54Z</time>
      </trkpt>
      <trkpt lat="45.86899" lon="7.05521">
        <ele>2277</ele>
        <time>2022-08-27T12:34:56Z</time>
      </trkpt>
      <trkpt lat="45.86907" lon="7.05526">
        <ele>2275</ele>
        <time>2022-08-27T12:35:02Z</time>
      </trkpt>
      <trkpt lat="45.86909" lon="7.05527">
        <ele>2275</ele>
        <time>2022-08-27T12:35:03Z</time>
      </trkpt>
      <trkpt lat="45.8691" lon="7.05528">
        <ele>2275</ele>
        <time>2022-08-27T12:35:04Z</time>
      </trkpt>
      <trkpt lat="45.86911" lon="7.05529">
        <ele>2275</ele>
        <time>2022-08-27T12:35:05Z</time>
      </trkpt>
      <trkpt lat="45.86913" lon="7.05531">
        <ele>2274</ele>
        <time>2022-08-27T12:35:07Z</time>
      </trkpt>
      <trkpt lat="45.86917" lon="7.05534">
        <ele>2272</ele>
        <time>2022-08-27T12:35:09Z</time>
      </trkpt>
      <trkpt lat="45.86918" lon="7.05535">
        <ele>2272</ele>
        <time>2022-08-27T12:35:10Z</time>
      </trkpt>
      <trkpt lat="45.8692" lon="7.05536">
        <ele>2272</ele>
        <time>2022-08-27T12:35:11Z</time>
      </trkpt>
      <trkpt lat="45.86922" lon="7.05538">
        <ele>2271</ele>
        <time>2022-08-27T12:35:12Z</time>
      </trkpt>
      <trkpt lat="45.86923" lon="7.05539">
        <ele>2271</ele>
        <time>2022-08-27T12:35:13Z</time>
      </trkpt>
      <trkpt lat="45.86925" lon="7.05541">
        <ele>2270</ele>
        <time>2022-08-27T12:35:14Z</time>
      </trkpt>
      <trkpt lat="45.86928" lon="7.05544">
        <ele>2270</ele>
        <time>2022-08-27T12:35:16Z</time>
      </trkpt>
      <trkpt lat="45.86929" lon="7.05545">
        <ele>2269</ele>
        <time>2022-08-27T12:35:17Z</time>
      </trkpt>
      <trkpt lat="45.86931" lon="7.05549">
        <ele>2269</ele>
        <time>2022-08-27T12:35:19Z</time>
      </trkpt>
      <trkpt lat="45.86934" lon="7.05552">
        <ele>2270</ele>
        <time>2022-08-27T12:35:21Z</time>
      </trkpt>
      <trkpt lat="45.86936" lon="7.05555">
        <ele>2270</ele>
        <time>2022-08-27T12:35:23Z</time>
      </trkpt>
      <trkpt lat="45.86939" lon="7.05557">
        <ele>2269</ele>
        <time>2022-08-27T12:35:25Z</time>
      </trkpt>
      <trkpt lat="45.86941" lon="7.05557">
        <ele>2269</ele>
        <time>2022-08-27T12:35:27Z</time>
      </trkpt>
      <trkpt lat="45.86944" lon="7.05556">
        <ele>2269</ele>
        <time>2022-08-27T12:35:29Z</time>
      </trkpt>
      <trkpt lat="45.86948" lon="7.05556">
        <ele>2269</ele>
        <time>2022-08-27T12:35:31Z</time>
      </trkpt>
      <trkpt lat="45.86951" lon="7.05557">
        <ele>2268</ele>
        <time>2022-08-27T12:35:33Z</time>
      </trkpt>
      <trkpt lat="45.86953" lon="7.05557">
        <ele>2267</ele>
        <time>2022-08-27T12:35:35Z</time>
      </trkpt>
      <trkpt lat="45.86956" lon="7.05559">
        <ele>2267</ele>
        <time>2022-08-27T12:35:37Z</time>
      </trkpt>
      <trkpt lat="45.86958" lon="7.05562">
        <ele>2267</ele>
        <time>2022-08-27T12:35:39Z</time>
      </trkpt>
      <trkpt lat="45.86961" lon="7.05565">
        <ele>2267</ele>
        <time>2022-08-27T12:35:41Z</time>
      </trkpt>
      <trkpt lat="45.86963" lon="7.05568">
        <ele>2267</ele>
        <time>2022-08-27T12:35:43Z</time>
      </trkpt>
      <trkpt lat="45.86966" lon="7.0557">
        <ele>2266</ele>
        <time>2022-08-27T12:35:45Z</time>
      </trkpt>
      <trkpt lat="45.86969" lon="7.05572">
        <ele>2265</ele>
        <time>2022-08-27T12:35:47Z</time>
      </trkpt>
      <trkpt lat="45.86972" lon="7.05575">
        <ele>2265</ele>
        <time>2022-08-27T12:35:49Z</time>
      </trkpt>
      <trkpt lat="45.86975" lon="7.05577">
        <ele>2265</ele>
        <time>2022-08-27T12:35:51Z</time>
      </trkpt>
      <trkpt lat="45.86978" lon="7.05578">
        <ele>2264</ele>
        <time>2022-08-27T12:35:53Z</time>
      </trkpt>
      <trkpt lat="45.86982" lon="7.0558">
        <ele>2264</ele>
        <time>2022-08-27T12:35:55Z</time>
      </trkpt>
      <trkpt lat="45.86984" lon="7.05581">
        <ele>2264</ele>
        <time>2022-08-27T12:35:56Z</time>
      </trkpt>
      <trkpt lat="45.86986" lon="7.05584">
        <ele>2264</ele>
        <time>2022-08-27T12:35:58Z</time>
      </trkpt>
      <trkpt lat="45.86989" lon="7.05584">
        <ele>2263</ele>
        <time>2022-08-27T12:36:00Z</time>
      </trkpt>
      <trkpt lat="45.86991" lon="7.05584">
        <ele>2262</ele>
        <time>2022-08-27T12:36:02Z</time>
      </trkpt>
      <trkpt lat="45.86994" lon="7.05584">
        <ele>2262</ele>
        <time>2022-08-27T12:36:04Z</time>
      </trkpt>
      <trkpt lat="45.86996" lon="7.05584">
        <ele>2261</ele>
        <time>2022-08-27T12:36:06Z</time>
      </trkpt>
      <trkpt lat="45.86999" lon="7.05586">
        <ele>2261</ele>
        <time>2022-08-27T12:36:08Z</time>
      </trkpt>
      <trkpt lat="45.87001" lon="7.05587">
        <ele>2261</ele>
        <time>2022-08-27T12:36:10Z</time>
      </trkpt>
      <trkpt lat="45.87003" lon="7.05588">
        <ele>2261</ele>
        <time>2022-08-27T12:36:11Z</time>
      </trkpt>
      <trkpt lat="45.87004" lon="7.05589">
        <ele>2261</ele>
        <time>2022-08-27T12:36:12Z</time>
      </trkpt>
      <trkpt lat="45.87006" lon="7.05589">
        <ele>2260</ele>
        <time>2022-08-27T12:36:13Z</time>
      </trkpt>
      <trkpt lat="45.87008" lon="7.0559">
        <ele>2260</ele>
        <time>2022-08-27T12:36:14Z</time>
      </trkpt>
      <trkpt lat="45.8701" lon="7.0559">
        <ele>2259</ele>
        <time>2022-08-27T12:36:16Z</time>
      </trkpt>
      <trkpt lat="45.8701" lon="7.05587">
        <ele>2259</ele>
        <time>2022-08-27T12:36:18Z</time>
      </trkpt>
      <trkpt lat="45.87009" lon="7.05583">
        <ele>2258</ele>
        <time>2022-08-27T12:36:20Z</time>
      </trkpt>
      <trkpt lat="45.87008" lon="7.05579">
        <ele>2258</ele>
        <time>2022-08-27T12:36:22Z</time>
      </trkpt>
      <trkpt lat="45.87006" lon="7.05576">
        <ele>2257</ele>
        <time>2022-08-27T12:36:24Z</time>
      </trkpt>
      <trkpt lat="45.87004" lon="7.05574">
        <ele>2256</ele>
        <time>2022-08-27T12:36:26Z</time>
      </trkpt>
      <trkpt lat="45.87003" lon="7.05571">
        <ele>2254</ele>
        <time>2022-08-27T12:36:29Z</time>
      </trkpt>
      <trkpt lat="45.87002" lon="7.05568">
        <ele>2254</ele>
        <time>2022-08-27T12:36:31Z</time>
      </trkpt>
      <trkpt lat="45.87" lon="7.05564">
        <ele>2253</ele>
        <time>2022-08-27T12:36:33Z</time>
      </trkpt>
      <trkpt lat="45.86998" lon="7.05562">
        <ele>2252</ele>
        <time>2022-08-27T12:36:34Z</time>
      </trkpt>
      <trkpt lat="45.86997" lon="7.05561">
        <ele>2252</ele>
        <time>2022-08-27T12:36:35Z</time>
      </trkpt>
      <trkpt lat="45.86995" lon="7.05557">
        <ele>2250</ele>
        <time>2022-08-27T12:36:37Z</time>
      </trkpt>
      <trkpt lat="45.86994" lon="7.05553">
        <ele>2250</ele>
        <time>2022-08-27T12:36:39Z</time>
      </trkpt>
      <trkpt lat="45.86994" lon="7.05548">
        <ele>2249</ele>
        <time>2022-08-27T12:36:41Z</time>
      </trkpt>
      <trkpt lat="45.86994" lon="7.05544">
        <ele>2249</ele>
        <time>2022-08-27T12:36:43Z</time>
      </trkpt>
      <trkpt lat="45.86993" lon="7.05539">
        <ele>2248</ele>
        <time>2022-08-27T12:36:45Z</time>
      </trkpt>
      <trkpt lat="45.86992" lon="7.05535">
        <ele>2248</ele>
        <time>2022-08-27T12:36:47Z</time>
      </trkpt>
      <trkpt lat="45.86991" lon="7.05531">
        <ele>2246</ele>
        <time>2022-08-27T12:36:49Z</time>
      </trkpt>
      <trkpt lat="45.86989" lon="7.05528">
        <ele>2245</ele>
        <time>2022-08-27T12:36:51Z</time>
      </trkpt>
      <trkpt lat="45.86987" lon="7.05526">
        <ele>2245</ele>
        <time>2022-08-27T12:36:53Z</time>
      </trkpt>
      <trkpt lat="45.86985" lon="7.05524">
        <ele>2245</ele>
        <time>2022-08-27T12:36:55Z</time>
      </trkpt>
      <trkpt lat="45.86985" lon="7.05521">
        <ele>2244</ele>
        <time>2022-08-27T12:36:57Z</time>
      </trkpt>
      <trkpt lat="45.86987" lon="7.05519">
        <ele>2243</ele>
        <time>2022-08-27T12:36:59Z</time>
      </trkpt>
      <trkpt lat="45.86989" lon="7.05519">
        <ele>2242</ele>
        <time>2022-08-27T12:37:01Z</time>
      </trkpt>
      <trkpt lat="45.86991" lon="7.05518">
        <ele>2242</ele>
        <time>2022-08-27T12:37:03Z</time>
      </trkpt>
      <trkpt lat="45.86993" lon="7.05517">
        <ele>2240</ele>
        <time>2022-08-27T12:37:05Z</time>
      </trkpt>
      <trkpt lat="45.86995" lon="7.05517">
        <ele>2239</ele>
        <time>2022-08-27T12:37:07Z</time>
      </trkpt>
      <trkpt lat="45.86998" lon="7.05517">
        <ele>2239</ele>
        <time>2022-08-27T12:37:09Z</time>
      </trkpt>
      <trkpt lat="45.86999" lon="7.05517">
        <ele>2238</ele>
        <time>2022-08-27T12:37:11Z</time>
      </trkpt>
      <trkpt lat="45.87002" lon="7.05516">
        <ele>2238</ele>
        <time>2022-08-27T12:37:13Z</time>
      </trkpt>
      <trkpt lat="45.87004" lon="7.05516">
        <ele>2238</ele>
        <time>2022-08-27T12:37:15Z</time>
      </trkpt>
      <trkpt lat="45.87007" lon="7.05516">
        <ele>2236</ele>
        <time>2022-08-27T12:37:17Z</time>
      </trkpt>
      <trkpt lat="45.87009" lon="7.05515">
        <ele>2236</ele>
        <time>2022-08-27T12:37:19Z</time>
      </trkpt>
      <trkpt lat="45.87011" lon="7.05514">
        <ele>2236</ele>
        <time>2022-08-27T12:37:21Z</time>
      </trkpt>
      <trkpt lat="45.87012" lon="7.05511">
        <ele>2234</ele>
        <time>2022-08-27T12:37:24Z</time>
      </trkpt>
      <trkpt lat="45.87011" lon="7.05508">
        <ele>2233</ele>
        <time>2022-08-27T12:37:27Z</time>
      </trkpt>
      <trkpt lat="45.87009" lon="7.05505">
        <ele>2232</ele>
        <time>2022-08-27T12:37:29Z</time>
      </trkpt>
      <trkpt lat="45.87007" lon="7.05503">
        <ele>2232</ele>
        <time>2022-08-27T12:37:31Z</time>
      </trkpt>
      <trkpt lat="45.87006" lon="7.05499">
        <ele>2231</ele>
        <time>2022-08-27T12:37:33Z</time>
      </trkpt>
      <trkpt lat="45.87005" lon="7.05496">
        <ele>2229</ele>
        <time>2022-08-27T12:37:35Z</time>
      </trkpt>
      <trkpt lat="45.87003" lon="7.05494">
        <ele>2228</ele>
        <time>2022-08-27T12:37:37Z</time>
      </trkpt>
      <trkpt lat="45.87002" lon="7.05492">
        <ele>2228</ele>
        <time>2022-08-27T12:37:39Z</time>
      </trkpt>
      <trkpt lat="45.87" lon="7.05489">
        <ele>2226</ele>
        <time>2022-08-27T12:37:41Z</time>
      </trkpt>
      <trkpt lat="45.86999" lon="7.05486">
        <ele>2226</ele>
        <time>2022-08-27T12:37:43Z</time>
      </trkpt>
      <trkpt lat="45.86998" lon="7.05484">
        <ele>2226</ele>
        <time>2022-08-27T12:37:45Z</time>
      </trkpt>
      <trkpt lat="45.86997" lon="7.05481">
        <ele>2226</ele>
        <time>2022-08-27T12:37:47Z</time>
      </trkpt>
      <trkpt lat="45.86996" lon="7.05478">
        <ele>2225</ele>
        <time>2022-08-27T12:37:49Z</time>
      </trkpt>
      <trkpt lat="45.86994" lon="7.05475">
        <ele>2225</ele>
        <time>2022-08-27T12:37:51Z</time>
      </trkpt>
      <trkpt lat="45.86993" lon="7.05472">
        <ele>2223</ele>
        <time>2022-08-27T12:37:53Z</time>
      </trkpt>
      <trkpt lat="45.86993" lon="7.05468">
        <ele>2222</ele>
        <time>2022-08-27T12:37:55Z</time>
      </trkpt>
      <trkpt lat="45.86993" lon="7.05463">
        <ele>2222</ele>
        <time>2022-08-27T12:37:57Z</time>
      </trkpt>
      <trkpt lat="45.86992" lon="7.05459">
        <ele>2222</ele>
        <time>2022-08-27T12:37:59Z</time>
      </trkpt>
      <trkpt lat="45.86991" lon="7.05455">
        <ele>2220</ele>
        <time>2022-08-27T12:38:01Z</time>
      </trkpt>
      <trkpt lat="45.8699" lon="7.05451">
        <ele>2219</ele>
        <time>2022-08-27T12:38:03Z</time>
      </trkpt>
      <trkpt lat="45.86989" lon="7.05447">
        <ele>2218</ele>
        <time>2022-08-27T12:38:05Z</time>
      </trkpt>
      <trkpt lat="45.86988" lon="7.05444">
        <ele>2218</ele>
        <time>2022-08-27T12:38:07Z</time>
      </trkpt>
      <trkpt lat="45.86991" lon="7.05444">
        <ele>2217</ele>
        <time>2022-08-27T12:38:09Z</time>
      </trkpt>
      <trkpt lat="45.86993" lon="7.05446">
        <ele>2216</ele>
        <time>2022-08-27T12:38:11Z</time>
      </trkpt>
      <trkpt lat="45.86995" lon="7.05447">
        <ele>2216</ele>
        <time>2022-08-27T12:38:13Z</time>
      </trkpt>
      <trkpt lat="45.86997" lon="7.05448">
        <ele>2216</ele>
        <time>2022-08-27T12:38:15Z</time>
      </trkpt>
      <trkpt lat="45.87" lon="7.0545">
        <ele>2215</ele>
        <time>2022-08-27T12:38:17Z</time>
      </trkpt>
      <trkpt lat="45.87002" lon="7.05452">
        <ele>2213</ele>
        <time>2022-08-27T12:38:19Z</time>
      </trkpt>
      <trkpt lat="45.87005" lon="7.05453">
        <ele>2213</ele>
        <time>2022-08-27T12:38:21Z</time>
      </trkpt>
      <trkpt lat="45.87007" lon="7.05454">
        <ele>2212</ele>
        <time>2022-08-27T12:38:23Z</time>
      </trkpt>
      <trkpt lat="45.8701" lon="7.05454">
        <ele>2212</ele>
        <time>2022-08-27T12:38:25Z</time>
      </trkpt>
      <trkpt lat="45.87013" lon="7.05454">
        <ele>2212</ele>
        <time>2022-08-27T12:38:27Z</time>
      </trkpt>
      <trkpt lat="45.87015" lon="7.05456">
        <ele>2211</ele>
        <time>2022-08-27T12:38:29Z</time>
      </trkpt>
      <trkpt lat="45.87018" lon="7.05459">
        <ele>2210</ele>
        <time>2022-08-27T12:38:31Z</time>
      </trkpt>
      <trkpt lat="45.87021" lon="7.05461">
        <ele>2209</ele>
        <time>2022-08-27T12:38:33Z</time>
      </trkpt>
      <trkpt lat="45.87023" lon="7.05462">
        <ele>2209</ele>
        <time>2022-08-27T12:38:34Z</time>
      </trkpt>
      <trkpt lat="45.87025" lon="7.05463">
        <ele>2209</ele>
        <time>2022-08-27T12:38:35Z</time>
      </trkpt>
      <trkpt lat="45.87026" lon="7.05465">
        <ele>2209</ele>
        <time>2022-08-27T12:38:36Z</time>
      </trkpt>
      <trkpt lat="45.87029" lon="7.05467">
        <ele>2208</ele>
        <time>2022-08-27T12:38:38Z</time>
      </trkpt>
      <trkpt lat="45.87032" lon="7.0547">
        <ele>2208</ele>
        <time>2022-08-27T12:38:40Z</time>
      </trkpt>
      <trkpt lat="45.87034" lon="7.05473">
        <ele>2208</ele>
        <time>2022-08-27T12:38:42Z</time>
      </trkpt>
      <trkpt lat="45.87037" lon="7.05476">
        <ele>2207</ele>
        <time>2022-08-27T12:38:44Z</time>
      </trkpt>
      <trkpt lat="45.87039" lon="7.05479">
        <ele>2207</ele>
        <time>2022-08-27T12:38:46Z</time>
      </trkpt>
      <trkpt lat="45.87041" lon="7.0548">
        <ele>2207</ele>
        <time>2022-08-27T12:38:48Z</time>
      </trkpt>
      <trkpt lat="45.87044" lon="7.05482">
        <ele>2207</ele>
        <time>2022-08-27T12:38:50Z</time>
      </trkpt>
      <trkpt lat="45.87046" lon="7.05485">
        <ele>2207</ele>
        <time>2022-08-27T12:38:52Z</time>
      </trkpt>
      <trkpt lat="45.87048" lon="7.05487">
        <ele>2206</ele>
        <time>2022-08-27T12:38:54Z</time>
      </trkpt>
      <trkpt lat="45.87051" lon="7.05489">
        <ele>2206</ele>
        <time>2022-08-27T12:38:56Z</time>
      </trkpt>
      <trkpt lat="45.87052" lon="7.05491">
        <ele>2204</ele>
        <time>2022-08-27T12:38:57Z</time>
      </trkpt>
      <trkpt lat="45.87055" lon="7.05494">
        <ele>2203</ele>
        <time>2022-08-27T12:38:59Z</time>
      </trkpt>
      <trkpt lat="45.87057" lon="7.05496">
        <ele>2203</ele>
        <time>2022-08-27T12:39:01Z</time>
      </trkpt>
      <trkpt lat="45.87059" lon="7.05498">
        <ele>2203</ele>
        <time>2022-08-27T12:39:03Z</time>
      </trkpt>
      <trkpt lat="45.87062" lon="7.05501">
        <ele>2203</ele>
        <time>2022-08-27T12:39:05Z</time>
      </trkpt>
      <trkpt lat="45.87065" lon="7.05503">
        <ele>2202</ele>
        <time>2022-08-27T12:39:07Z</time>
      </trkpt>
      <trkpt lat="45.87067" lon="7.05506">
        <ele>2202</ele>
        <time>2022-08-27T12:39:09Z</time>
      </trkpt>
      <trkpt lat="45.87069" lon="7.0551">
        <ele>2202</ele>
        <time>2022-08-27T12:39:11Z</time>
      </trkpt>
      <trkpt lat="45.87071" lon="7.05513">
        <ele>2202</ele>
        <time>2022-08-27T12:39:13Z</time>
      </trkpt>
      <trkpt lat="45.87072" lon="7.05515">
        <ele>2202</ele>
        <time>2022-08-27T12:39:15Z</time>
      </trkpt>
      <trkpt lat="45.87074" lon="7.05516">
        <ele>2201</ele>
        <time>2022-08-27T12:39:18Z</time>
      </trkpt>
      <trkpt lat="45.87077" lon="7.05516">
        <ele>2201</ele>
        <time>2022-08-27T12:39:21Z</time>
      </trkpt>
      <trkpt lat="45.87079" lon="7.05515">
        <ele>2199</ele>
        <time>2022-08-27T12:39:25Z</time>
      </trkpt>
      <trkpt lat="45.8708" lon="7.05514">
        <ele>2199</ele>
        <time>2022-08-27T12:39:28Z</time>
      </trkpt>
      <trkpt lat="45.8708" lon="7.05511">
        <ele>2199</ele>
        <time>2022-08-27T12:39:30Z</time>
      </trkpt>
      <trkpt lat="45.87079" lon="7.05508">
        <ele>2198</ele>
        <time>2022-08-27T12:39:32Z</time>
      </trkpt>
      <trkpt lat="45.87079" lon="7.05505">
        <ele>2197</ele>
        <time>2022-08-27T12:39:34Z</time>
      </trkpt>
      <trkpt lat="45.8708" lon="7.05502">
        <ele>2196</ele>
        <time>2022-08-27T12:39:36Z</time>
      </trkpt>
      <trkpt lat="45.8708" lon="7.05498">
        <ele>2194</ele>
        <time>2022-08-27T12:39:38Z</time>
      </trkpt>
      <trkpt lat="45.87078" lon="7.05495">
        <ele>2193</ele>
        <time>2022-08-27T12:39:40Z</time>
      </trkpt>
      <trkpt lat="45.87077" lon="7.05493">
        <ele>2192</ele>
        <time>2022-08-27T12:39:42Z</time>
      </trkpt>
      <trkpt lat="45.87075" lon="7.0549">
        <ele>2192</ele>
        <time>2022-08-27T12:39:44Z</time>
      </trkpt>
      <trkpt lat="45.87073" lon="7.05488">
        <ele>2191</ele>
        <time>2022-08-27T12:39:46Z</time>
      </trkpt>
      <trkpt lat="45.87073" lon="7.05485">
        <ele>2191</ele>
        <time>2022-08-27T12:39:48Z</time>
      </trkpt>
      <trkpt lat="45.87075" lon="7.05483">
        <ele>2190</ele>
        <time>2022-08-27T12:39:50Z</time>
      </trkpt>
      <trkpt lat="45.87078" lon="7.05484">
        <ele>2189</ele>
        <time>2022-08-27T12:39:52Z</time>
      </trkpt>
      <trkpt lat="45.8708" lon="7.05483">
        <ele>2189</ele>
        <time>2022-08-27T12:39:54Z</time>
      </trkpt>
      <trkpt lat="45.87083" lon="7.05483">
        <ele>2188</ele>
        <time>2022-08-27T12:39:56Z</time>
      </trkpt>
      <trkpt lat="45.87086" lon="7.05483">
        <ele>2188</ele>
        <time>2022-08-27T12:39:58Z</time>
      </trkpt>
      <trkpt lat="45.87088" lon="7.05483">
        <ele>2188</ele>
        <time>2022-08-27T12:40:00Z</time>
      </trkpt>
      <trkpt lat="45.8709" lon="7.05481">
        <ele>2186</ele>
        <time>2022-08-27T12:40:03Z</time>
      </trkpt>
      <trkpt lat="45.8709" lon="7.05478">
        <ele>2186</ele>
        <time>2022-08-27T12:40:05Z</time>
      </trkpt>
      <trkpt lat="45.87089" lon="7.05475">
        <ele>2186</ele>
        <time>2022-08-27T12:40:07Z</time>
      </trkpt>
      <trkpt lat="45.87087" lon="7.05471">
        <ele>2185</ele>
        <time>2022-08-27T12:40:09Z</time>
      </trkpt>
      <trkpt lat="45.87085" lon="7.05468">
        <ele>2184</ele>
        <time>2022-08-27T12:40:11Z</time>
      </trkpt>
      <trkpt lat="45.87083" lon="7.05465">
        <ele>2183</ele>
        <time>2022-08-27T12:40:13Z</time>
      </trkpt>
      <trkpt lat="45.87081" lon="7.05463">
        <ele>2183</ele>
        <time>2022-08-27T12:40:15Z</time>
      </trkpt>
      <trkpt lat="45.8708" lon="7.05461">
        <ele>2182</ele>
        <time>2022-08-27T12:40:16Z</time>
      </trkpt>
      <trkpt lat="45.87078" lon="7.05457">
        <ele>2182</ele>
        <time>2022-08-27T12:40:18Z</time>
      </trkpt>
      <trkpt lat="45.87076" lon="7.05454">
        <ele>2182</ele>
        <time>2022-08-27T12:40:20Z</time>
      </trkpt>
      <trkpt lat="45.87074" lon="7.05452">
        <ele>2180</ele>
        <time>2022-08-27T12:40:22Z</time>
      </trkpt>
      <trkpt lat="45.87073" lon="7.05449">
        <ele>2180</ele>
        <time>2022-08-27T12:40:24Z</time>
      </trkpt>
      <trkpt lat="45.87071" lon="7.05446">
        <ele>2179</ele>
        <time>2022-08-27T12:40:26Z</time>
      </trkpt>
      <trkpt lat="45.87069" lon="7.05444">
        <ele>2179</ele>
        <time>2022-08-27T12:40:28Z</time>
      </trkpt>
      <trkpt lat="45.87069" lon="7.0544">
        <ele>2179</ele>
        <time>2022-08-27T12:40:30Z</time>
      </trkpt>
      <trkpt lat="45.87067" lon="7.05436">
        <ele>2178</ele>
        <time>2022-08-27T12:40:32Z</time>
      </trkpt>
      <trkpt lat="45.87066" lon="7.05433">
        <ele>2177</ele>
        <time>2022-08-27T12:40:34Z</time>
      </trkpt>
      <trkpt lat="45.87065" lon="7.05429">
        <ele>2176</ele>
        <time>2022-08-27T12:40:36Z</time>
      </trkpt>
      <trkpt lat="45.87065" lon="7.05425">
        <ele>2176</ele>
        <time>2022-08-27T12:40:38Z</time>
      </trkpt>
      <trkpt lat="45.87064" lon="7.05422">
        <ele>2175</ele>
        <time>2022-08-27T12:40:40Z</time>
      </trkpt>
      <trkpt lat="45.87064" lon="7.05418">
        <ele>2174</ele>
        <time>2022-08-27T12:40:43Z</time>
      </trkpt>
      <trkpt lat="45.87065" lon="7.05415">
        <ele>2173</ele>
        <time>2022-08-27T12:40:45Z</time>
      </trkpt>
      <trkpt lat="45.87066" lon="7.05412">
        <ele>2172</ele>
        <time>2022-08-27T12:40:47Z</time>
      </trkpt>
      <trkpt lat="45.87067" lon="7.05409">
        <ele>2171</ele>
        <time>2022-08-27T12:40:50Z</time>
      </trkpt>
      <trkpt lat="45.87066" lon="7.05406">
        <ele>2170</ele>
        <time>2022-08-27T12:40:53Z</time>
      </trkpt>
      <trkpt lat="45.87066" lon="7.05402">
        <ele>2170</ele>
        <time>2022-08-27T12:40:55Z</time>
      </trkpt>
      <trkpt lat="45.87068" lon="7.054">
        <ele>2168</ele>
        <time>2022-08-27T12:40:57Z</time>
      </trkpt>
      <trkpt lat="45.8707" lon="7.05399">
        <ele>2167</ele>
        <time>2022-08-27T12:40:59Z</time>
      </trkpt>
      <trkpt lat="45.87073" lon="7.05399">
        <ele>2166</ele>
        <time>2022-08-27T12:41:01Z</time>
      </trkpt>
      <trkpt lat="45.87075" lon="7.05399">
        <ele>2166</ele>
        <time>2022-08-27T12:41:03Z</time>
      </trkpt>
      <trkpt lat="45.87078" lon="7.05399">
        <ele>2164</ele>
        <time>2022-08-27T12:41:05Z</time>
      </trkpt>
      <trkpt lat="45.87081" lon="7.05399">
        <ele>2164</ele>
        <time>2022-08-27T12:41:07Z</time>
      </trkpt>
      <trkpt lat="45.87084" lon="7.05399">
        <ele>2163</ele>
        <time>2022-08-27T12:41:09Z</time>
      </trkpt>
      <trkpt lat="45.87085" lon="7.05397">
        <ele>2162</ele>
        <time>2022-08-27T12:41:12Z</time>
      </trkpt>
      <trkpt lat="45.87084" lon="7.05395">
        <ele>2161</ele>
        <time>2022-08-27T12:41:14Z</time>
      </trkpt>
      <trkpt lat="45.87082" lon="7.05393">
        <ele>2160</ele>
        <time>2022-08-27T12:41:16Z</time>
      </trkpt>
      <trkpt lat="45.87082" lon="7.05389">
        <ele>2160</ele>
        <time>2022-08-27T12:41:18Z</time>
      </trkpt>
      <trkpt lat="45.87081" lon="7.05386">
        <ele>2159</ele>
        <time>2022-08-27T12:41:20Z</time>
      </trkpt>
      <trkpt lat="45.8708" lon="7.05382">
        <ele>2159</ele>
        <time>2022-08-27T12:41:22Z</time>
      </trkpt>
      <trkpt lat="45.8708" lon="7.0538">
        <ele>2158</ele>
        <time>2022-08-27T12:41:24Z</time>
      </trkpt>
      <trkpt lat="45.87079" lon="7.05377">
        <ele>2157</ele>
        <time>2022-08-27T12:41:26Z</time>
      </trkpt>
      <trkpt lat="45.87078" lon="7.05374">
        <ele>2156</ele>
        <time>2022-08-27T12:41:28Z</time>
      </trkpt>
      <trkpt lat="45.87078" lon="7.05371">
        <ele>2155</ele>
        <time>2022-08-27T12:41:30Z</time>
      </trkpt>
      <trkpt lat="45.87076" lon="7.05368">
        <ele>2155</ele>
        <time>2022-08-27T12:41:32Z</time>
      </trkpt>
      <trkpt lat="45.87074" lon="7.05367">
        <ele>2154</ele>
        <time>2022-08-27T12:41:34Z</time>
      </trkpt>
      <trkpt lat="45.87073" lon="7.05363">
        <ele>2153</ele>
        <time>2022-08-27T12:41:36Z</time>
      </trkpt>
      <trkpt lat="45.87075" lon="7.05361">
        <ele>2153</ele>
        <time>2022-08-27T12:41:38Z</time>
      </trkpt>
      <trkpt lat="45.87078" lon="7.05362">
        <ele>2152</ele>
        <time>2022-08-27T12:41:40Z</time>
      </trkpt>
      <trkpt lat="45.87082" lon="7.05362">
        <ele>2152</ele>
        <time>2022-08-27T12:41:42Z</time>
      </trkpt>
      <trkpt lat="45.87085" lon="7.05362">
        <ele>2152</ele>
        <time>2022-08-27T12:41:44Z</time>
      </trkpt>
      <trkpt lat="45.87088" lon="7.05361">
        <ele>2151</ele>
        <time>2022-08-27T12:41:46Z</time>
      </trkpt>
      <trkpt lat="45.87091" lon="7.05363">
        <ele>2151</ele>
        <time>2022-08-27T12:41:47Z</time>
      </trkpt>
      <trkpt lat="45.87092" lon="7.05364">
        <ele>2150</ele>
        <time>2022-08-27T12:41:48Z</time>
      </trkpt>
      <trkpt lat="45.87094" lon="7.05365">
        <ele>2150</ele>
        <time>2022-08-27T12:41:49Z</time>
      </trkpt>
      <trkpt lat="45.87096" lon="7.05368">
        <ele>2150</ele>
        <time>2022-08-27T12:41:51Z</time>
      </trkpt>
      <trkpt lat="45.87097" lon="7.05371">
        <ele>2150</ele>
        <time>2022-08-27T12:41:53Z</time>
      </trkpt>
      <trkpt lat="45.87099" lon="7.05375">
        <ele>2149</ele>
        <time>2022-08-27T12:41:55Z</time>
      </trkpt>
      <trkpt lat="45.871" lon="7.05377">
        <ele>2149</ele>
        <time>2022-08-27T12:41:57Z</time>
      </trkpt>
      <trkpt lat="45.87102" lon="7.05379">
        <ele>2149</ele>
        <time>2022-08-27T12:41:59Z</time>
      </trkpt>
      <trkpt lat="45.87105" lon="7.05381">
        <ele>2149</ele>
        <time>2022-08-27T12:42:01Z</time>
      </trkpt>
      <trkpt lat="45.87108" lon="7.05382">
        <ele>2150</ele>
        <time>2022-08-27T12:42:03Z</time>
      </trkpt>
      <trkpt lat="45.87109" lon="7.05383">
        <ele>2150</ele>
        <time>2022-08-27T12:42:04Z</time>
      </trkpt>
      <trkpt lat="45.87111" lon="7.05385">
        <ele>2150</ele>
        <time>2022-08-27T12:42:05Z</time>
      </trkpt>
      <trkpt lat="45.87114" lon="7.05388">
        <ele>2149</ele>
        <time>2022-08-27T12:42:07Z</time>
      </trkpt>
      <trkpt lat="45.87116" lon="7.05389">
        <ele>2149</ele>
        <time>2022-08-27T12:42:09Z</time>
      </trkpt>
      <trkpt lat="45.87119" lon="7.0539">
        <ele>2149</ele>
        <time>2022-08-27T12:42:11Z</time>
      </trkpt>
      <trkpt lat="45.87122" lon="7.05391">
        <ele>2149</ele>
        <time>2022-08-27T12:42:13Z</time>
      </trkpt>
      <trkpt lat="45.87124" lon="7.05393">
        <ele>2148</ele>
        <time>2022-08-27T12:42:15Z</time>
      </trkpt>
      <trkpt lat="45.87127" lon="7.05393">
        <ele>2147</ele>
        <time>2022-08-27T12:42:18Z</time>
      </trkpt>
      <trkpt lat="45.8713" lon="7.05394">
        <ele>2147</ele>
        <time>2022-08-27T12:42:20Z</time>
      </trkpt>
      <trkpt lat="45.87133" lon="7.05395">
        <ele>2145</ele>
        <time>2022-08-27T12:42:22Z</time>
      </trkpt>
      <trkpt lat="45.87136" lon="7.05394">
        <ele>2145</ele>
        <time>2022-08-27T12:42:24Z</time>
      </trkpt>
      <trkpt lat="45.87138" lon="7.05393">
        <ele>2145</ele>
        <time>2022-08-27T12:42:26Z</time>
      </trkpt>
      <trkpt lat="45.8714" lon="7.05392">
        <ele>2144</ele>
        <time>2022-08-27T12:42:28Z</time>
      </trkpt>
      <trkpt lat="45.87143" lon="7.05391">
        <ele>2142</ele>
        <time>2022-08-27T12:42:30Z</time>
      </trkpt>
      <trkpt lat="45.87146" lon="7.05389">
        <ele>2142</ele>
        <time>2022-08-27T12:42:32Z</time>
      </trkpt>
      <trkpt lat="45.87148" lon="7.05387">
        <ele>2140</ele>
        <time>2022-08-27T12:42:34Z</time>
      </trkpt>
      <trkpt lat="45.8715" lon="7.05383">
        <ele>2140</ele>
        <time>2022-08-27T12:42:36Z</time>
      </trkpt>
      <trkpt lat="45.87151" lon="7.05378">
        <ele>2139</ele>
        <time>2022-08-27T12:42:38Z</time>
      </trkpt>
      <trkpt lat="45.87153" lon="7.05374">
        <ele>2139</ele>
        <time>2022-08-27T12:42:40Z</time>
      </trkpt>
      <trkpt lat="45.87154" lon="7.05371">
        <ele>2139</ele>
        <time>2022-08-27T12:42:41Z</time>
      </trkpt>
      <trkpt lat="45.87155" lon="7.05368">
        <ele>2139</ele>
        <time>2022-08-27T12:42:43Z</time>
      </trkpt>
      <trkpt lat="45.87154" lon="7.05365">
        <ele>2136</ele>
        <time>2022-08-27T12:42:45Z</time>
      </trkpt>
      <trkpt lat="45.87151" lon="7.05362">
        <ele>2136</ele>
        <time>2022-08-27T12:42:47Z</time>
      </trkpt>
      <trkpt lat="45.87149" lon="7.05361">
        <ele>2136</ele>
        <time>2022-08-27T12:42:49Z</time>
      </trkpt>
      <trkpt lat="45.87147" lon="7.05359">
        <ele>2137</ele>
        <time>2022-08-27T12:42:51Z</time>
      </trkpt>
      <trkpt lat="45.87145" lon="7.05358">
        <ele>2136</ele>
        <time>2022-08-27T12:42:53Z</time>
      </trkpt>
      <trkpt lat="45.87142" lon="7.05357">
        <ele>2136</ele>
        <time>2022-08-27T12:42:55Z</time>
      </trkpt>
      <trkpt lat="45.8714" lon="7.05355">
        <ele>2136</ele>
        <time>2022-08-27T12:42:57Z</time>
      </trkpt>
      <trkpt lat="45.87137" lon="7.05353">
        <ele>2136</ele>
        <time>2022-08-27T12:42:59Z</time>
      </trkpt>
      <trkpt lat="45.87136" lon="7.0535">
        <ele>2136</ele>
        <time>2022-08-27T12:43:01Z</time>
      </trkpt>
      <trkpt lat="45.87133" lon="7.05347">
        <ele>2136</ele>
        <time>2022-08-27T12:43:03Z</time>
      </trkpt>
      <trkpt lat="45.87132" lon="7.05345">
        <ele>2135</ele>
        <time>2022-08-27T12:43:05Z</time>
      </trkpt>
      <trkpt lat="45.8713" lon="7.05342">
        <ele>2135</ele>
        <time>2022-08-27T12:43:07Z</time>
      </trkpt>
      <trkpt lat="45.87129" lon="7.0534">
        <ele>2135</ele>
        <time>2022-08-27T12:43:09Z</time>
      </trkpt>
      <trkpt lat="45.87126" lon="7.05338">
        <ele>2135</ele>
        <time>2022-08-27T12:43:11Z</time>
      </trkpt>
      <trkpt lat="45.87124" lon="7.05337">
        <ele>2135</ele>
        <time>2022-08-27T12:43:13Z</time>
      </trkpt>
      <trkpt lat="45.87121" lon="7.05336">
        <ele>2135</ele>
        <time>2022-08-27T12:43:15Z</time>
      </trkpt>
      <trkpt lat="45.87119" lon="7.05335">
        <ele>2135</ele>
        <time>2022-08-27T12:43:17Z</time>
      </trkpt>
      <trkpt lat="45.87117" lon="7.05333">
        <ele>2135</ele>
        <time>2022-08-27T12:43:19Z</time>
      </trkpt>
      <trkpt lat="45.87117" lon="7.0533">
        <ele>2135</ele>
        <time>2022-08-27T12:43:22Z</time>
      </trkpt>
      <trkpt lat="45.87118" lon="7.05327">
        <ele>2135</ele>
        <time>2022-08-27T12:43:24Z</time>
      </trkpt>
      <trkpt lat="45.87118" lon="7.05324">
        <ele>2135</ele>
        <time>2022-08-27T12:43:27Z</time>
      </trkpt>
      <trkpt lat="45.87119" lon="7.05321">
        <ele>2135</ele>
        <time>2022-08-27T12:43:30Z</time>
      </trkpt>
      <trkpt lat="45.87121" lon="7.05319">
        <ele>2135</ele>
        <time>2022-08-27T12:43:33Z</time>
      </trkpt>
      <trkpt lat="45.87121" lon="7.05319">
        <ele>2135</ele>
        <time>2022-08-27T12:43:49Z</time>
      </trkpt>
      <trkpt lat="45.87121" lon="7.05319">
        <ele>2136</ele>
        <time>2022-08-27T12:44:07Z</time>
      </trkpt>
      <trkpt lat="45.87121" lon="7.05319">
        <ele>2135</ele>
        <time>2022-08-27T12:44:24Z</time>
      </trkpt>
      <trkpt lat="45.87119" lon="7.05318">
        <ele>2136</ele>
        <time>2022-08-27T12:44:36Z</time>
      </trkpt>
      <trkpt lat="45.8712" lon="7.05315">
        <ele>2135</ele>
        <time>2022-08-27T12:44:41Z</time>
      </trkpt>
      <trkpt lat="45.87121" lon="7.05318">
        <ele>2135</ele>
        <time>2022-08-27T12:44:48Z</time>
      </trkpt>
      <trkpt lat="45.87121" lon="7.05321">
        <ele>2135</ele>
        <time>2022-08-27T12:44:51Z</time>
      </trkpt>
      <trkpt lat="45.87122" lon="7.05324">
        <ele>2135</ele>
        <time>2022-08-27T12:44:54Z</time>
      </trkpt>
      <trkpt lat="45.87121" lon="7.0532">
        <ele>2135</ele>
        <time>2022-08-27T12:45:03Z</time>
      </trkpt>
      <trkpt lat="45.87122" lon="7.05317">
        <ele>2136</ele>
        <time>2022-08-27T12:45:05Z</time>
      </trkpt>
      <trkpt lat="45.87122" lon="7.05314">
        <ele>2135</ele>
        <time>2022-08-27T12:45:08Z</time>
      </trkpt>
      <trkpt lat="45.87123" lon="7.05312">
        <ele>2135</ele>
        <time>2022-08-27T12:45:12Z</time>
      </trkpt>
      <trkpt lat="45.87123" lon="7.05312">
        <ele>2135</ele>
        <time>2022-08-27T12:45:24Z</time>
      </trkpt>
      <trkpt lat="45.87123" lon="7.05312">
        <ele>2136</ele>
        <time>2022-08-27T12:45:43Z</time>
      </trkpt>
      <trkpt lat="45.87122" lon="7.0531">
        <ele>2136</ele>
        <time>2022-08-27T12:46:00Z</time>
      </trkpt>
      <trkpt lat="45.87125" lon="7.05308">
        <ele>2136</ele>
        <time>2022-08-27T12:46:03Z</time>
      </trkpt>
      <trkpt lat="45.87126" lon="7.05307">
        <ele>2136</ele>
        <time>2022-08-27T12:46:06Z</time>
      </trkpt>
      <trkpt lat="45.87128" lon="7.05304">
        <ele>2136</ele>
        <time>2022-08-27T12:46:09Z</time>
      </trkpt>
      <trkpt lat="45.87128" lon="7.05304">
        <ele>2136</ele>
        <time>2022-08-27T12:46:24Z</time>
      </trkpt>
      <trkpt lat="45.87127" lon="7.05306">
        <ele>2136</ele>
        <time>2022-08-27T12:46:40Z</time>
      </trkpt>
      <trkpt lat="45.87125" lon="7.05309">
        <ele>2136</ele>
        <time>2022-08-27T12:46:44Z</time>
      </trkpt>
      <trkpt lat="45.87125" lon="7.05309">
        <ele>2136</ele>
        <time>2022-08-27T12:46:57Z</time>
      </trkpt>
      <trkpt lat="45.87124" lon="7.05314">
        <ele>2135</ele>
        <time>2022-08-27T12:47:10Z</time>
      </trkpt>
      <trkpt lat="45.87124" lon="7.05314">
        <ele>2135</ele>
        <time>2022-08-27T12:47:15Z</time>
      </trkpt>
      <trkpt lat="45.87124" lon="7.05317">
        <ele>2136</ele>
        <time>2022-08-27T12:47:29Z</time>
      </trkpt>
      <trkpt lat="45.87123" lon="7.0532">
        <ele>2136</ele>
        <time>2022-08-27T12:47:32Z</time>
      </trkpt>
      <trkpt lat="45.87121" lon="7.0532">
        <ele>2136</ele>
        <time>2022-08-27T12:47:36Z</time>
      </trkpt>
      <trkpt lat="45.8712" lon="7.05317">
        <ele>2135</ele>
        <time>2022-08-27T12:47:42Z</time>
      </trkpt>
      <trkpt lat="45.8712" lon="7.05317">
        <ele>2135</ele>
        <time>2022-08-27T12:47:49Z</time>
      </trkpt>
      <trkpt lat="45.8712" lon="7.05317">
        <ele>2135</ele>
        <time>2022-08-27T12:48:07Z</time>
      </trkpt>
      <trkpt lat="45.8712" lon="7.05317">
        <ele>2135</ele>
        <time>2022-08-27T12:48:23Z</time>
      </trkpt>
      <trkpt lat="45.8712" lon="7.05317">
        <ele>2135</ele>
        <time>2022-08-27T12:48:40Z</time>
      </trkpt>
      <trkpt lat="45.8712" lon="7.05317">
        <ele>2135</ele>
        <time>2022-08-27T12:49:00Z</time>
      </trkpt>
      <trkpt lat="45.8712" lon="7.05317">
        <ele>2135</ele>
        <time>2022-08-27T12:49:17Z</time>
      </trkpt>
      <trkpt lat="45.8712" lon="7.05317">
        <ele>2135</ele>
        <time>2022-08-27T12:49:34Z</time>
      </trkpt>
      <trkpt lat="45.8712" lon="7.05317">
        <ele>2135</ele>
        <time>2022-08-27T12:49:52Z</time>
      </trkpt>
      <trkpt lat="45.8712" lon="7.05317">
        <ele>2135</ele>
        <time>2022-08-27T12:50:09Z</time>
      </trkpt>
      <trkpt lat="45.8712" lon="7.05317">
        <ele>2136</ele>
        <time>2022-08-27T12:50:26Z</time>
      </trkpt>
      <trkpt lat="45.8712" lon="7.05317">
        <ele>2135</ele>
        <time>2022-08-27T12:50:43Z</time>
      </trkpt>
      <trkpt lat="45.8712" lon="7.05317">
        <ele>2135</ele>
        <time>2022-08-27T12:51:00Z</time>
      </trkpt>
      <trkpt lat="45.87122" lon="7.05316">
        <ele>2135</ele>
        <time>2022-08-27T12:51:12Z</time>
      </trkpt>
      <trkpt lat="45.87122" lon="7.05316">
        <ele>2136</ele>
        <time>2022-08-27T12:51:18Z</time>
      </trkpt>
      <trkpt lat="45.87122" lon="7.05316">
        <ele>2135</ele>
        <time>2022-08-27T12:51:35Z</time>
      </trkpt>
      <trkpt lat="45.87122" lon="7.05316">
        <ele>2135</ele>
        <time>2022-08-27T12:51:51Z</time>
      </trkpt>
      <trkpt lat="45.87122" lon="7.05316">
        <ele>2135</ele>
        <time>2022-08-27T12:52:08Z</time>
      </trkpt>
      <trkpt lat="45.87122" lon="7.05316">
        <ele>2135</ele>
        <time>2022-08-27T12:52:27Z</time>
      </trkpt>
      <trkpt lat="45.87122" lon="7.05316">
        <ele>2135</ele>
        <time>2022-08-27T12:52:44Z</time>
      </trkpt>
      <trkpt lat="45.87123" lon="7.05313">
        <ele>2135</ele>
        <time>2022-08-27T12:52:55Z</time>
      </trkpt>
      <trkpt lat="45.87123" lon="7.05313">
        <ele>2135</ele>
        <time>2022-08-27T12:53:03Z</time>
      </trkpt>
      <trkpt lat="45.87123" lon="7.05313">
        <ele>2135</ele>
        <time>2022-08-27T12:53:22Z</time>
      </trkpt>
      <trkpt lat="45.87123" lon="7.05313">
        <ele>2135</ele>
        <time>2022-08-27T12:53:40Z</time>
      </trkpt>
      <trkpt lat="45.87123" lon="7.05313">
        <ele>2135</ele>
        <time>2022-08-27T12:53:57Z</time>
      </trkpt>
      <trkpt lat="45.87123" lon="7.05313">
        <ele>2135</ele>
        <time>2022-08-27T12:54:15Z</time>
      </trkpt>
      <trkpt lat="45.87123" lon="7.05313">
        <ele>2135</ele>
        <time>2022-08-27T12:54:32Z</time>
      </trkpt>
      <trkpt lat="45.87123" lon="7.05313">
        <ele>2135</ele>
        <time>2022-08-27T12:54:50Z</time>
      </trkpt>
      <trkpt lat="45.87123" lon="7.05311">
        <ele>2136</ele>
        <time>2022-08-27T12:54:56Z</time>
      </trkpt>
      <trkpt lat="45.87123" lon="7.05311">
        <ele>2135</ele>
        <time>2022-08-27T12:55:11Z</time>
      </trkpt>
      <trkpt lat="45.87125" lon="7.05311">
        <ele>2135</ele>
        <time>2022-08-27T12:55:20Z</time>
      </trkpt>
      <trkpt lat="45.87125" lon="7.05314">
        <ele>2135</ele>
        <time>2022-08-27T12:55:25Z</time>
      </trkpt>
      <trkpt lat="45.87125" lon="7.05316">
        <ele>2135</ele>
        <time>2022-08-27T12:55:28Z</time>
      </trkpt>
      <trkpt lat="45.87124" lon="7.05319">
        <ele>2135</ele>
        <time>2022-08-27T12:55:31Z</time>
      </trkpt>
      <trkpt lat="45.87125" lon="7.05321">
        <ele>2135</ele>
        <time>2022-08-27T12:55:35Z</time>
      </trkpt>
      <trkpt lat="45.87125" lon="7.05321">
        <ele>2135</ele>
        <time>2022-08-27T12:55:49Z</time>
      </trkpt>
      <trkpt lat="45.87125" lon="7.05319">
        <ele>2135</ele>
        <time>2022-08-27T12:55:52Z</time>
      </trkpt>
      <trkpt lat="45.87124" lon="7.05316">
        <ele>2134</ele>
        <time>2022-08-27T12:56:02Z</time>
      </trkpt>
      <trkpt lat="45.87124" lon="7.05313">
        <ele>2134</ele>
        <time>2022-08-27T12:56:06Z</time>
      </trkpt>
      <trkpt lat="45.87122" lon="7.05311">
        <ele>2134</ele>
        <time>2022-08-27T12:56:15Z</time>
      </trkpt>
      <trkpt lat="45.87122" lon="7.05311">
        <ele>2135</ele>
        <time>2022-08-27T12:56:21Z</time>
      </trkpt>
      <trkpt lat="45.87122" lon="7.05311">
        <ele>2134</ele>
        <time>2022-08-27T12:56:39Z</time>
      </trkpt>
      <trkpt lat="45.87122" lon="7.05311">
        <ele>2134</ele>
        <time>2022-08-27T12:56:55Z</time>
      </trkpt>
      <trkpt lat="45.87122" lon="7.05311">
        <ele>2134</ele>
        <time>2022-08-27T12:57:12Z</time>
      </trkpt>
      <trkpt lat="45.87124" lon="7.05313">
        <ele>2134</ele>
        <time>2022-08-27T12:57:19Z</time>
      </trkpt>
      <trkpt lat="45.87124" lon="7.05313">
        <ele>2134</ele>
        <time>2022-08-27T12:57:31Z</time>
      </trkpt>
      <trkpt lat="45.87124" lon="7.05313">
        <ele>2134</ele>
        <time>2022-08-27T12:57:48Z</time>
      </trkpt>
      <trkpt lat="45.87124" lon="7.05313">
        <ele>2134</ele>
        <time>2022-08-27T12:58:05Z</time>
      </trkpt>
      <trkpt lat="45.87124" lon="7.05313">
        <ele>2134</ele>
        <time>2022-08-27T12:58:22Z</time>
      </trkpt>
      <trkpt lat="45.87124" lon="7.05313">
        <ele>2134</ele>
        <time>2022-08-27T12:58:39Z</time>
      </trkpt>
      <trkpt lat="45.87124" lon="7.05313">
        <ele>2134</ele>
        <time>2022-08-27T12:58:56Z</time>
      </trkpt>
      <trkpt lat="45.87124" lon="7.05313">
        <ele>2134</ele>
        <time>2022-08-27T12:59:13Z</time>
      </trkpt>
      <trkpt lat="45.87124" lon="7.05313">
        <ele>2134</ele>
        <time>2022-08-27T12:59:30Z</time>
      </trkpt>
      <trkpt lat="45.87124" lon="7.05313">
        <ele>2134</ele>
        <time>2022-08-27T12:59:46Z</time>
      </trkpt>
      <trkpt lat="45.87124" lon="7.05313">
        <ele>2134</ele>
        <time>2022-08-27T13:00:03Z</time>
      </trkpt>
      <trkpt lat="45.87123" lon="7.05311">
        <ele>2134</ele>
        <time>2022-08-27T13:00:22Z</time>
      </trkpt>
      <trkpt lat="45.87123" lon="7.05311">
        <ele>2134</ele>
        <time>2022-08-27T13:00:23Z</time>
      </trkpt>
      <trkpt lat="45.87124" lon="7.05313">
        <ele>2134</ele>
        <time>2022-08-27T13:00:36Z</time>
      </trkpt>
      <trkpt lat="45.87123" lon="7.05317">
        <ele>2134</ele>
        <time>2022-08-27T13:00:41Z</time>
      </trkpt>
      <trkpt lat="45.87122" lon="7.05323">
        <ele>2134</ele>
        <time>2022-08-27T13:00:50Z</time>
      </trkpt>
      <trkpt lat="45.87122" lon="7.05323">
        <ele>2134</ele>
        <time>2022-08-27T13:00:54Z</time>
      </trkpt>
      <trkpt lat="45.8712" lon="7.05324">
        <ele>2134</ele>
        <time>2022-08-27T13:00:57Z</time>
      </trkpt>
      <trkpt lat="45.87119" lon="7.05322">
        <ele>2134</ele>
        <time>2022-08-27T13:01:12Z</time>
      </trkpt>
      <trkpt lat="45.87119" lon="7.05322">
        <ele>2134</ele>
        <time>2022-08-27T13:01:16Z</time>
      </trkpt>
      <trkpt lat="45.87119" lon="7.05322">
        <ele>2134</ele>
        <time>2022-08-27T13:01:33Z</time>
      </trkpt>
      <trkpt lat="45.87119" lon="7.05319">
        <ele>2134</ele>
        <time>2022-08-27T13:01:35Z</time>
      </trkpt>
      <trkpt lat="45.87118" lon="7.05316">
        <ele>2134</ele>
        <time>2022-08-27T13:01:49Z</time>
      </trkpt>
      <trkpt lat="45.87118" lon="7.05316">
        <ele>2134</ele>
        <time>2022-08-27T13:01:57Z</time>
      </trkpt>
      <trkpt lat="45.87117" lon="7.05316">
        <ele>2134</ele>
        <time>2022-08-27T13:02:06Z</time>
      </trkpt>
      <trkpt lat="45.87117" lon="7.05316">
        <ele>2134</ele>
        <time>2022-08-27T13:02:07Z</time>
      </trkpt>
      <trkpt lat="45.87117" lon="7.05315">
        <ele>2134</ele>
        <time>2022-08-27T13:02:11Z</time>
      </trkpt>
      <trkpt lat="45.87117" lon="7.05315">
        <ele>2134</ele>
        <time>2022-08-27T13:02:13Z</time>
      </trkpt>
      <trkpt lat="45.87117" lon="7.05315">
        <ele>2134</ele>
        <time>2022-08-27T13:02:18Z</time>
      </trkpt>
      <trkpt lat="45.87117" lon="7.05315">
        <ele>2134</ele>
        <time>2022-08-27T13:02:19Z</time>
      </trkpt>
      <trkpt lat="45.87117" lon="7.05315">
        <ele>2134</ele>
        <time>2022-08-27T13:02:22Z</time>
      </trkpt>
      <trkpt lat="45.87117" lon="7.05315">
        <ele>2134</ele>
        <time>2022-08-27T13:02:26Z</time>
      </trkpt>
      <trkpt lat="45.87117" lon="7.05315">
        <ele>2134</ele>
        <time>2022-08-27T13:02:30Z</time>
      </trkpt>
      <trkpt lat="45.87117" lon="7.05315">
        <ele>2134</ele>
        <time>2022-08-27T13:02:32Z</time>
      </trkpt>
      <trkpt lat="45.87117" lon="7.05315">
        <ele>2134</ele>
        <time>2022-08-27T13:02:33Z</time>
      </trkpt>
      <trkpt lat="45.87117" lon="7.05315">
        <ele>2134</ele>
        <time>2022-08-27T13:02:37Z</time>
      </trkpt>
      <trkpt lat="45.87117" lon="7.05315">
        <ele>2134</ele>
        <time>2022-08-27T13:02:40Z</time>
      </trkpt>
      <trkpt lat="45.87117" lon="7.05315">
        <ele>2134</ele>
        <time>2022-08-27T13:02:41Z</time>
      </trkpt>
      <trkpt lat="45.87118" lon="7.05315">
        <ele>2134</ele>
        <time>2022-08-27T13:02:45Z</time>
      </trkpt>
      <trkpt lat="45.87118" lon="7.05315">
        <ele>2134</ele>
        <time>2022-08-27T13:02:46Z</time>
      </trkpt>
      <trkpt lat="45.87118" lon="7.05315">
        <ele>2134</ele>
        <time>2022-08-27T13:02:49Z</time>
      </trkpt>
      <trkpt lat="45.87118" lon="7.05315">
        <ele>2134</ele>
        <time>2022-08-27T13:02:52Z</time>
      </trkpt>
      <trkpt lat="45.87118" lon="7.05315">
        <ele>2134</ele>
        <time>2022-08-27T13:02:57Z</time>
      </trkpt>
      <trkpt lat="45.87118" lon="7.05315">
        <ele>2134</ele>
        <time>2022-08-27T13:03:01Z</time>
      </trkpt>
      <trkpt lat="45.87118" lon="7.05315">
        <ele>2134</ele>
        <time>2022-08-27T13:03:02Z</time>
      </trkpt>
      <trkpt lat="45.87118" lon="7.05315">
        <ele>2134</ele>
        <time>2022-08-27T13:03:05Z</time>
      </trkpt>
      <trkpt lat="45.87118" lon="7.05315">
        <ele>2134</ele>
        <time>2022-08-27T13:03:07Z</time>
      </trkpt>
      <trkpt lat="45.87118" lon="7.05315">
        <ele>2134</ele>
        <time>2022-08-27T13:03:09Z</time>
      </trkpt>
      <trkpt lat="45.87118" lon="7.05315">
        <ele>2134</ele>
        <time>2022-08-27T13:03:13Z</time>
      </trkpt>
      <trkpt lat="45.87118" lon="7.05315">
        <ele>2134</ele>
        <time>2022-08-27T13:03:16Z</time>
      </trkpt>
      <trkpt lat="45.87118" lon="7.05314">
        <ele>2134</ele>
        <time>2022-08-27T13:03:21Z</time>
      </trkpt>
      <trkpt lat="45.87119" lon="7.05314">
        <ele>2134</ele>
        <time>2022-08-27T13:03:25Z</time>
      </trkpt>
      <trkpt lat="45.87119" lon="7.05314">
        <ele>2134</ele>
        <time>2022-08-27T13:03:27Z</time>
      </trkpt>
      <trkpt lat="45.87119" lon="7.05314">
        <ele>2134</ele>
        <time>2022-08-27T13:03:28Z</time>
      </trkpt>
      <trkpt lat="45.87119" lon="7.05314">
        <ele>2134</ele>
        <time>2022-08-27T13:03:32Z</time>
      </trkpt>
      <trkpt lat="45.87119" lon="7.05314">
        <ele>2134</ele>
        <time>2022-08-27T13:03:33Z</time>
      </trkpt>
      <trkpt lat="45.87119" lon="7.05314">
        <ele>2134</ele>
        <time>2022-08-27T13:03:37Z</time>
      </trkpt>
      <trkpt lat="45.87119" lon="7.05314">
        <ele>2134</ele>
        <time>2022-08-27T13:03:40Z</time>
      </trkpt>
      <trkpt lat="45.87119" lon="7.05314">
        <ele>2134</ele>
        <time>2022-08-27T13:03:41Z</time>
      </trkpt>
      <trkpt lat="45.87119" lon="7.05314">
        <ele>2134</ele>
        <time>2022-08-27T13:03:44Z</time>
      </trkpt>
      <trkpt lat="45.87119" lon="7.05314">
        <ele>2134</ele>
        <time>2022-08-27T13:03:47Z</time>
      </trkpt>
      <trkpt lat="45.87119" lon="7.05314">
        <ele>2134</ele>
        <time>2022-08-27T13:03:48Z</time>
      </trkpt>
      <trkpt lat="45.87119" lon="7.05314">
        <ele>2134</ele>
        <time>2022-08-27T13:03:51Z</time>
      </trkpt>
      <trkpt lat="45.87119" lon="7.05314">
        <ele>2134</ele>
        <time>2022-08-27T13:03:53Z</time>
      </trkpt>
      <trkpt lat="45.87119" lon="7.05314">
        <ele>2134</ele>
        <time>2022-08-27T13:03:56Z</time>
      </trkpt>
      <trkpt lat="45.87119" lon="7.05314">
        <ele>2134</ele>
        <time>2022-08-27T13:04:00Z</time>
      </trkpt>
      <trkpt lat="45.87119" lon="7.05314">
        <ele>2134</ele>
        <time>2022-08-27T13:04:01Z</time>
      </trkpt>
      <trkpt lat="45.8712" lon="7.05314">
        <ele>2134</ele>
        <time>2022-08-27T13:04:03Z</time>
      </trkpt>
      <trkpt lat="45.8712" lon="7.05314">
        <ele>2134</ele>
        <time>2022-08-27T13:04:07Z</time>
      </trkpt>
      <trkpt lat="45.8712" lon="7.05314">
        <ele>2134</ele>
        <time>2022-08-27T13:04:11Z</time>
      </trkpt>
      <trkpt lat="45.8712" lon="7.05314">
        <ele>2134</ele>
        <time>2022-08-27T13:04:13Z</time>
      </trkpt>
      <trkpt lat="45.8712" lon="7.05314">
        <ele>2134</ele>
        <time>2022-08-27T13:04:15Z</time>
      </trkpt>
      <trkpt lat="45.8712" lon="7.05314">
        <ele>2134</ele>
        <time>2022-08-27T13:04:19Z</time>
      </trkpt>
      <trkpt lat="45.8712" lon="7.05314">
        <ele>2134</ele>
        <time>2022-08-27T13:04:21Z</time>
      </trkpt>
      <trkpt lat="45.8712" lon="7.05314">
        <ele>2134</ele>
        <time>2022-08-27T13:04:23Z</time>
      </trkpt>
      <trkpt lat="45.8712" lon="7.05314">
        <ele>2134</ele>
        <time>2022-08-27T13:04:26Z</time>
      </trkpt>
      <trkpt lat="45.8712" lon="7.05313">
        <ele>2134</ele>
        <time>2022-08-27T13:04:27Z</time>
      </trkpt>
      <trkpt lat="45.8712" lon="7.05313">
        <ele>2134</ele>
        <time>2022-08-27T13:04:30Z</time>
      </trkpt>
      <trkpt lat="45.8712" lon="7.05313">
        <ele>2134</ele>
        <time>2022-08-27T13:04:34Z</time>
      </trkpt>
      <trkpt lat="45.8712" lon="7.05313">
        <ele>2134</ele>
        <time>2022-08-27T13:04:35Z</time>
      </trkpt>
      <trkpt lat="45.8712" lon="7.05313">
        <ele>2134</ele>
        <time>2022-08-27T13:04:38Z</time>
      </trkpt>
      <trkpt lat="45.8712" lon="7.05313">
        <ele>2134</ele>
        <time>2022-08-27T13:04:41Z</time>
      </trkpt>
      <trkpt lat="45.87121" lon="7.05313">
        <ele>2134</ele>
        <time>2022-08-27T13:04:42Z</time>
      </trkpt>
      <trkpt lat="45.87121" lon="7.05313">
        <ele>2134</ele>
        <time>2022-08-27T13:04:46Z</time>
      </trkpt>
      <trkpt lat="45.87121" lon="7.05313">
        <ele>2134</ele>
        <time>2022-08-27T13:04:47Z</time>
      </trkpt>
      <trkpt lat="45.87121" lon="7.05313">
        <ele>2134</ele>
        <time>2022-08-27T13:04:50Z</time>
      </trkpt>
      <trkpt lat="45.87121" lon="7.05313">
        <ele>2134</ele>
        <time>2022-08-27T13:04:55Z</time>
      </trkpt>
      <trkpt lat="45.87121" lon="7.05313">
        <ele>2134</ele>
        <time>2022-08-27T13:04:59Z</time>
      </trkpt>
      <trkpt lat="45.87121" lon="7.05313">
        <ele>2134</ele>
        <time>2022-08-27T13:05:02Z</time>
      </trkpt>
      <trkpt lat="45.87121" lon="7.05313">
        <ele>2134</ele>
        <time>2022-08-27T13:05:06Z</time>
      </trkpt>
      <trkpt lat="45.87121" lon="7.05313">
        <ele>2134</ele>
        <time>2022-08-27T13:05:08Z</time>
      </trkpt>
      <trkpt lat="45.87121" lon="7.05313">
        <ele>2134</ele>
        <time>2022-08-27T13:05:10Z</time>
      </trkpt>
      <trkpt lat="45.87121" lon="7.05313">
        <ele>2134</ele>
        <time>2022-08-27T13:05:14Z</time>
      </trkpt>
      <trkpt lat="45.87121" lon="7.05313">
        <ele>2134</ele>
        <time>2022-08-27T13:05:15Z</time>
      </trkpt>
      <trkpt lat="45.87121" lon="7.05313">
        <ele>2134</ele>
        <time>2022-08-27T13:05:18Z</time>
      </trkpt>
      <trkpt lat="45.87122" lon="7.05313">
        <ele>2134</ele>
        <time>2022-08-27T13:05:22Z</time>
      </trkpt>
      <trkpt lat="45.87122" lon="7.05313">
        <ele>2134</ele>
        <time>2022-08-27T13:05:25Z</time>
      </trkpt>
      <trkpt lat="45.87122" lon="7.05313">
        <ele>2134</ele>
        <time>2022-08-27T13:05:28Z</time>
      </trkpt>
      <trkpt lat="45.87122" lon="7.05313">
        <ele>2134</ele>
        <time>2022-08-27T13:05:29Z</time>
      </trkpt>
      <trkpt lat="45.87122" lon="7.05313">
        <ele>2134</ele>
        <time>2022-08-27T13:05:34Z</time>
      </trkpt>
      <trkpt lat="45.87122" lon="7.05312">
        <ele>2134</ele>
        <time>2022-08-27T13:05:35Z</time>
      </trkpt>
      <trkpt lat="45.87122" lon="7.05312">
        <ele>2134</ele>
        <time>2022-08-27T13:05:37Z</time>
      </trkpt>
      <trkpt lat="45.87122" lon="7.05312">
        <ele>2134</ele>
        <time>2022-08-27T13:05:41Z</time>
      </trkpt>
      <trkpt lat="45.87122" lon="7.05312">
        <ele>2134</ele>
        <time>2022-08-27T13:05:42Z</time>
      </trkpt>
      <trkpt lat="45.87122" lon="7.05312">
        <ele>2134</ele>
        <time>2022-08-27T13:05:45Z</time>
      </trkpt>
      <trkpt lat="45.87122" lon="7.05312">
        <ele>2134</ele>
        <time>2022-08-27T13:05:48Z</time>
      </trkpt>
      <trkpt lat="45.87122" lon="7.05312">
        <ele>2134</ele>
        <time>2022-08-27T13:05:53Z</time>
      </trkpt>
      <trkpt lat="45.87122" lon="7.05312">
        <ele>2134</ele>
        <time>2022-08-27T13:05:55Z</time>
      </trkpt>
      <trkpt lat="45.87122" lon="7.05312">
        <ele>2134</ele>
        <time>2022-08-27T13:05:57Z</time>
      </trkpt>
      <trkpt lat="45.87123" lon="7.05312">
        <ele>2134</ele>
        <time>2022-08-27T13:06:00Z</time>
      </trkpt>
      <trkpt lat="45.87123" lon="7.05312">
        <ele>2134</ele>
        <time>2022-08-27T13:06:02Z</time>
      </trkpt>
      <trkpt lat="45.87123" lon="7.05312">
        <ele>2134</ele>
        <time>2022-08-27T13:06:04Z</time>
      </trkpt>
      <trkpt lat="45.87123" lon="7.05312">
        <ele>2134</ele>
        <time>2022-08-27T13:06:09Z</time>
      </trkpt>
      <trkpt lat="45.87123" lon="7.05312">
        <ele>2134</ele>
        <time>2022-08-27T13:06:12Z</time>
      </trkpt>
      <trkpt lat="45.87123" lon="7.05312">
        <ele>2134</ele>
        <time>2022-08-27T13:06:15Z</time>
      </trkpt>
      <trkpt lat="45.87123" lon="7.05312">
        <ele>2134</ele>
        <time>2022-08-27T13:06:16Z</time>
      </trkpt>
      <trkpt lat="45.87123" lon="7.05312">
        <ele>2134</ele>
        <time>2022-08-27T13:06:20Z</time>
      </trkpt>
      <trkpt lat="45.87123" lon="7.05312">
        <ele>2134</ele>
        <time>2022-08-27T13:06:22Z</time>
      </trkpt>
      <trkpt lat="45.87123" lon="7.05312">
        <ele>2134</ele>
        <time>2022-08-27T13:06:23Z</time>
      </trkpt>
      <trkpt lat="45.87123" lon="7.05312">
        <ele>2134</ele>
        <time>2022-08-27T13:06:28Z</time>
      </trkpt>
      <trkpt lat="45.87123" lon="7.05312">
        <ele>2134</ele>
        <time>2022-08-27T13:06:29Z</time>
      </trkpt>
      <trkpt lat="45.87123" lon="7.05312">
        <ele>2134</ele>
        <time>2022-08-27T13:06:32Z</time>
      </trkpt>
      <trkpt lat="45.87123" lon="7.05312">
        <ele>2134</ele>
        <time>2022-08-27T13:06:35Z</time>
      </trkpt>
      <trkpt lat="45.87124" lon="7.05312">
        <ele>2134</ele>
        <time>2022-08-27T13:06:39Z</time>
      </trkpt>
      <trkpt lat="45.87124" lon="7.05311">
        <ele>2134</ele>
        <time>2022-08-27T13:06:42Z</time>
      </trkpt>
      <trkpt lat="45.87124" lon="7.05311">
        <ele>2134</ele>
        <time>2022-08-27T13:06:43Z</time>
      </trkpt>
      <trkpt lat="45.87124" lon="7.05311">
        <ele>2134</ele>
        <time>2022-08-27T13:06:47Z</time>
      </trkpt>
      <trkpt lat="45.87124" lon="7.05311">
        <ele>2134</ele>
        <time>2022-08-27T13:06:49Z</time>
      </trkpt>
      <trkpt lat="45.87124" lon="7.05311">
        <ele>2134</ele>
        <time>2022-08-27T13:06:51Z</time>
      </trkpt>
      <trkpt lat="45.87124" lon="7.05311">
        <ele>2134</ele>
        <time>2022-08-27T13:06:55Z</time>
      </trkpt>
      <trkpt lat="45.87124" lon="7.05311">
        <ele>2134</ele>
        <time>2022-08-27T13:06:58Z</time>
      </trkpt>
      <trkpt lat="45.87124" lon="7.05311">
        <ele>2134</ele>
        <time>2022-08-27T13:07:02Z</time>
      </trkpt>
      <trkpt lat="45.87124" lon="7.05311">
        <ele>2134</ele>
        <time>2022-08-27T13:07:06Z</time>
      </trkpt>
      <trkpt lat="45.87124" lon="7.05311">
        <ele>2134</ele>
        <time>2022-08-27T13:07:09Z</time>
      </trkpt>
      <trkpt lat="45.87124" lon="7.05311">
        <ele>2134</ele>
        <time>2022-08-27T13:07:10Z</time>
      </trkpt>
      <trkpt lat="45.87124" lon="7.05311">
        <ele>2134</ele>
        <time>2022-08-27T13:07:14Z</time>
      </trkpt>
      <trkpt lat="45.87124" lon="7.05311">
        <ele>2134</ele>
        <time>2022-08-27T13:07:15Z</time>
      </trkpt>
      <trkpt lat="45.87125" lon="7.05311">
        <ele>2134</ele>
        <time>2022-08-27T13:07:17Z</time>
      </trkpt>
      <trkpt lat="45.87125" lon="7.05311">
        <ele>2134</ele>
        <time>2022-08-27T13:07:21Z</time>
      </trkpt>
      <trkpt lat="45.87125" lon="7.05311">
        <ele>2134</ele>
        <time>2022-08-27T13:07:22Z</time>
      </trkpt>
      <trkpt lat="45.87125" lon="7.05311">
        <ele>2134</ele>
        <time>2022-08-27T13:07:26Z</time>
      </trkpt>
      <trkpt lat="45.87125" lon="7.05311">
        <ele>2134</ele>
        <time>2022-08-27T13:07:29Z</time>
      </trkpt>
      <trkpt lat="45.87125" lon="7.05311">
        <ele>2134</ele>
        <time>2022-08-27T13:07:33Z</time>
      </trkpt>
      <trkpt lat="45.87125" lon="7.05311">
        <ele>2134</ele>
        <time>2022-08-27T13:07:35Z</time>
      </trkpt>
      <trkpt lat="45.87125" lon="7.05311">
        <ele>2134</ele>
        <time>2022-08-27T13:07:37Z</time>
      </trkpt>
      <trkpt lat="45.87125" lon="7.05311">
        <ele>2134</ele>
        <time>2022-08-27T13:07:39Z</time>
      </trkpt>
      <trkpt lat="45.87125" lon="7.05311">
        <ele>2134</ele>
        <time>2022-08-27T13:07:40Z</time>
      </trkpt>
      <trkpt lat="45.87125" lon="7.05311">
        <ele>2134</ele>
        <time>2022-08-27T13:07:41Z</time>
      </trkpt>
      <trkpt lat="45.87125" lon="7.05311">
        <ele>2134</ele>
        <time>2022-08-27T13:07:42Z</time>
      </trkpt>
      <trkpt lat="45.87125" lon="7.05311">
        <ele>2134</ele>
        <time>2022-08-27T13:07:44Z</time>
      </trkpt>
      <trkpt lat="45.87125" lon="7.05311">
        <ele>2134</ele>
        <time>2022-08-27T13:07:45Z</time>
      </trkpt>
      <trkpt lat="45.87125" lon="7.05311">
        <ele>2134</ele>
        <time>2022-08-27T13:07:46Z</time>
      </trkpt>
      <trkpt lat="45.87124" lon="7.05311">
        <ele>2134</ele>
        <time>2022-08-27T13:07:47Z</time>
      </trkpt>
      <trkpt lat="45.87124" lon="7.05311">
        <ele>2134</ele>
        <time>2022-08-27T13:07:48Z</time>
      </trkpt>
      <trkpt lat="45.87124" lon="7.05312">
        <ele>2134</ele>
        <time>2022-08-27T13:07:49Z</time>
      </trkpt>
      <trkpt lat="45.87124" lon="7.05312">
        <ele>2134</ele>
        <time>2022-08-27T13:07:50Z</time>
      </trkpt>
      <trkpt lat="45.87124" lon="7.05312">
        <ele>2134</ele>
        <time>2022-08-27T13:07:52Z</time>
      </trkpt>
      <trkpt lat="45.87124" lon="7.05312">
        <ele>2134</ele>
        <time>2022-08-27T13:07:53Z</time>
      </trkpt>
      <trkpt lat="45.87124" lon="7.05312">
        <ele>2134</ele>
        <time>2022-08-27T13:07:54Z</time>
      </trkpt>
      <trkpt lat="45.87124" lon="7.05312">
        <ele>2134</ele>
        <time>2022-08-27T13:07:55Z</time>
      </trkpt>
      <trkpt lat="45.87124" lon="7.05312">
        <ele>2134</ele>
        <time>2022-08-27T13:07:56Z</time>
      </trkpt>
      <trkpt lat="45.87124" lon="7.05312">
        <ele>2134</ele>
        <time>2022-08-27T13:07:57Z</time>
      </trkpt>
      <trkpt lat="45.87124" lon="7.05312">
        <ele>2134</ele>
        <time>2022-08-27T13:07:58Z</time>
      </trkpt>
      <trkpt lat="45.87124" lon="7.05312">
        <ele>2134</ele>
        <time>2022-08-27T13:07:59Z</time>
      </trkpt>
      <trkpt lat="45.87124" lon="7.05312">
        <ele>2134</ele>
        <time>2022-08-27T13:08:00Z</time>
      </trkpt>
      <trkpt lat="45.87124" lon="7.05313">
        <ele>2134</ele>
        <time>2022-08-27T13:08:01Z</time>
      </trkpt>
      <trkpt lat="45.87123" lon="7.05313">
        <ele>2134</ele>
        <time>2022-08-27T13:08:03Z</time>
      </trkpt>
      <trkpt lat="45.87123" lon="7.05313">
        <ele>2134</ele>
        <time>2022-08-27T13:08:04Z</time>
      </trkpt>
      <trkpt lat="45.87123" lon="7.05313">
        <ele>2134</ele>
        <time>2022-08-27T13:08:05Z</time>
      </trkpt>
      <trkpt lat="45.87123" lon="7.05313">
        <ele>2134</ele>
        <time>2022-08-27T13:08:06Z</time>
      </trkpt>
      <trkpt lat="45.87123" lon="7.05313">
        <ele>2134</ele>
        <time>2022-08-27T13:08:07Z</time>
      </trkpt>
      <trkpt lat="45.87123" lon="7.05313">
        <ele>2134</ele>
        <time>2022-08-27T13:08:08Z</time>
      </trkpt>
      <trkpt lat="45.87123" lon="7.05313">
        <ele>2134</ele>
        <time>2022-08-27T13:08:09Z</time>
      </trkpt>
      <trkpt lat="45.87123" lon="7.05313">
        <ele>2134</ele>
        <time>2022-08-27T13:08:10Z</time>
      </trkpt>
      <trkpt lat="45.87123" lon="7.05313">
        <ele>2134</ele>
        <time>2022-08-27T13:08:11Z</time>
      </trkpt>
      <trkpt lat="45.87123" lon="7.05313">
        <ele>2134</ele>
        <time>2022-08-27T13:08:12Z</time>
      </trkpt>
      <trkpt lat="45.87123" lon="7.05314">
        <ele>2134</ele>
        <time>2022-08-27T13:08:13Z</time>
      </trkpt>
      <trkpt lat="45.87123" lon="7.05314">
        <ele>2134</ele>
        <time>2022-08-27T13:08:14Z</time>
      </trkpt>
      <trkpt lat="45.87123" lon="7.05314">
        <ele>2134</ele>
        <time>2022-08-27T13:08:16Z</time>
      </trkpt>
      <trkpt lat="45.87122" lon="7.05314">
        <ele>2134</ele>
        <time>2022-08-27T13:08:17Z</time>
      </trkpt>
      <trkpt lat="45.87122" lon="7.05314">
        <ele>2134</ele>
        <time>2022-08-27T13:08:18Z</time>
      </trkpt>
      <trkpt lat="45.87122" lon="7.05314">
        <ele>2134</ele>
        <time>2022-08-27T13:08:19Z</time>
      </trkpt>
      <trkpt lat="45.87122" lon="7.05314">
        <ele>2134</ele>
        <time>2022-08-27T13:08:20Z</time>
      </trkpt>
      <trkpt lat="45.87122" lon="7.05314">
        <ele>2134</ele>
        <time>2022-08-27T13:08:22Z</time>
      </trkpt>
      <trkpt lat="45.87122" lon="7.05314">
        <ele>2134</ele>
        <time>2022-08-27T13:08:23Z</time>
      </trkpt>
      <trkpt lat="45.87122" lon="7.05314">
        <ele>2134</ele>
        <time>2022-08-27T13:08:24Z</time>
      </trkpt>
      <trkpt lat="45.87122" lon="7.05314">
        <ele>2134</ele>
        <time>2022-08-27T13:08:25Z</time>
      </trkpt>
      <trkpt lat="45.87122" lon="7.05315">
        <ele>2134</ele>
        <time>2022-08-27T13:08:26Z</time>
      </trkpt>
      <trkpt lat="45.87122" lon="7.05315">
        <ele>2134</ele>
        <time>2022-08-27T13:08:27Z</time>
      </trkpt>
      <trkpt lat="45.87122" lon="7.05315">
        <ele>2134</ele>
        <time>2022-08-27T13:08:28Z</time>
      </trkpt>
      <trkpt lat="45.87122" lon="7.05315">
        <ele>2134</ele>
        <time>2022-08-27T13:08:29Z</time>
      </trkpt>
      <trkpt lat="45.87122" lon="7.05315">
        <ele>2134</ele>
        <time>2022-08-27T13:08:30Z</time>
      </trkpt>
      <trkpt lat="45.87122" lon="7.05315">
        <ele>2134</ele>
        <time>2022-08-27T13:08:31Z</time>
      </trkpt>
      <trkpt lat="45.87121" lon="7.05315">
        <ele>2134</ele>
        <time>2022-08-27T13:08:33Z</time>
      </trkpt>
      <trkpt lat="45.87121" lon="7.05315">
        <ele>2134</ele>
        <time>2022-08-27T13:08:34Z</time>
      </trkpt>
      <trkpt lat="45.87121" lon="7.05315">
        <ele>2134</ele>
        <time>2022-08-27T13:08:35Z</time>
      </trkpt>
      <trkpt lat="45.87121" lon="7.05315">
        <ele>2134</ele>
        <time>2022-08-27T13:08:36Z</time>
      </trkpt>
      <trkpt lat="45.87121" lon="7.05316">
        <ele>2134</ele>
        <time>2022-08-27T13:08:37Z</time>
      </trkpt>
      <trkpt lat="45.87121" lon="7.05316">
        <ele>2134</ele>
        <time>2022-08-27T13:08:38Z</time>
      </trkpt>
      <trkpt lat="45.87121" lon="7.05316">
        <ele>2134</ele>
        <time>2022-08-27T13:08:39Z</time>
      </trkpt>
      <trkpt lat="45.87121" lon="7.05316">
        <ele>2134</ele>
        <time>2022-08-27T13:08:41Z</time>
      </trkpt>
      <trkpt lat="45.87121" lon="7.05316">
        <ele>2134</ele>
        <time>2022-08-27T13:08:42Z</time>
      </trkpt>
      <trkpt lat="45.87121" lon="7.05316">
        <ele>2134</ele>
        <time>2022-08-27T13:08:43Z</time>
      </trkpt>
      <trkpt lat="45.87121" lon="7.05316">
        <ele>2134</ele>
        <time>2022-08-27T13:08:44Z</time>
      </trkpt>
      <trkpt lat="45.87121" lon="7.05316">
        <ele>2134</ele>
        <time>2022-08-27T13:08:45Z</time>
      </trkpt>
      <trkpt lat="45.87121" lon="7.05316">
        <ele>2134</ele>
        <time>2022-08-27T13:08:46Z</time>
      </trkpt>
      <trkpt lat="45.87121" lon="7.05316">
        <ele>2134</ele>
        <time>2022-08-27T13:08:47Z</time>
      </trkpt>
      <trkpt lat="45.8712" lon="7.05316">
        <ele>2134</ele>
        <time>2022-08-27T13:08:48Z</time>
      </trkpt>
      <trkpt lat="45.8712" lon="7.05316">
        <ele>2134</ele>
        <time>2022-08-27T13:08:49Z</time>
      </trkpt>
      <trkpt lat="45.8712" lon="7.05317">
        <ele>2134</ele>
        <time>2022-08-27T13:08:50Z</time>
      </trkpt>
      <trkpt lat="45.8712" lon="7.05317">
        <ele>2134</ele>
        <time>2022-08-27T13:08:51Z</time>
      </trkpt>
      <trkpt lat="45.8712" lon="7.05317">
        <ele>2134</ele>
        <time>2022-08-27T13:08:52Z</time>
      </trkpt>
      <trkpt lat="45.8712" lon="7.05317">
        <ele>2134</ele>
        <time>2022-08-27T13:08:53Z</time>
      </trkpt>
      <trkpt lat="45.8712" lon="7.05317">
        <ele>2134</ele>
        <time>2022-08-27T13:08:54Z</time>
      </trkpt>
      <trkpt lat="45.8712" lon="7.05317">
        <ele>2134</ele>
        <time>2022-08-27T13:08:55Z</time>
      </trkpt>
      <trkpt lat="45.8712" lon="7.05317">
        <ele>2134</ele>
        <time>2022-08-27T13:08:57Z</time>
      </trkpt>
      <trkpt lat="45.8712" lon="7.05317">
        <ele>2134</ele>
        <time>2022-08-27T13:08:58Z</time>
      </trkpt>
      <trkpt lat="45.8712" lon="7.05317">
        <ele>2134</ele>
        <time>2022-08-27T13:09:00Z</time>
      </trkpt>
      <trkpt lat="45.8712" lon="7.05317">
        <ele>2134</ele>
        <time>2022-08-27T13:09:02Z</time>
      </trkpt>
      <trkpt lat="45.8712" lon="7.05318">
        <ele>2134</ele>
        <time>2022-08-27T13:09:03Z</time>
      </trkpt>
      <trkpt lat="45.8712" lon="7.05318">
        <ele>2134</ele>
        <time>2022-08-27T13:09:04Z</time>
      </trkpt>
      <trkpt lat="45.87119" lon="7.05318">
        <ele>2134</ele>
        <time>2022-08-27T13:09:05Z</time>
      </trkpt>
      <trkpt lat="45.87119" lon="7.05318">
        <ele>2134</ele>
        <time>2022-08-27T13:09:06Z</time>
      </trkpt>
      <trkpt lat="45.87119" lon="7.05318">
        <ele>2134</ele>
        <time>2022-08-27T13:09:07Z</time>
      </trkpt>
      <trkpt lat="45.87119" lon="7.05318">
        <ele>2134</ele>
        <time>2022-08-27T13:09:08Z</time>
      </trkpt>
      <trkpt lat="45.87119" lon="7.05318">
        <ele>2134</ele>
        <time>2022-08-27T13:09:09Z</time>
      </trkpt>
      <trkpt lat="45.87119" lon="7.05318">
        <ele>2134</ele>
        <time>2022-08-27T13:09:10Z</time>
      </trkpt>
      <trkpt lat="45.87119" lon="7.05318">
        <ele>2134</ele>
        <time>2022-08-27T13:09:11Z</time>
      </trkpt>
      <trkpt lat="45.87119" lon="7.05318">
        <ele>2134</ele>
        <time>2022-08-27T13:09:12Z</time>
      </trkpt>
      <trkpt lat="45.87119" lon="7.05318">
        <ele>2134</ele>
        <time>2022-08-27T13:09:13Z</time>
      </trkpt>
      <trkpt lat="45.87119" lon="7.05319">
        <ele>2134</ele>
        <time>2022-08-27T13:09:15Z</time>
      </trkpt>
      <trkpt lat="45.87119" lon="7.05319">
        <ele>2134</ele>
        <time>2022-08-27T13:09:16Z</time>
      </trkpt>
      <trkpt lat="45.87119" lon="7.05319">
        <ele>2134</ele>
        <time>2022-08-27T13:09:17Z</time>
      </trkpt>
      <trkpt lat="45.87119" lon="7.05319">
        <ele>2134</ele>
        <time>2022-08-27T13:09:19Z</time>
      </trkpt>
      <trkpt lat="45.87118" lon="7.05319">
        <ele>2134</ele>
        <time>2022-08-27T13:09:20Z</time>
      </trkpt>
      <trkpt lat="45.87118" lon="7.05319">
        <ele>2134</ele>
        <time>2022-08-27T13:09:21Z</time>
      </trkpt>
      <trkpt lat="45.87118" lon="7.05319">
        <ele>2134</ele>
        <time>2022-08-27T13:09:22Z</time>
      </trkpt>
      <trkpt lat="45.87118" lon="7.05319">
        <ele>2134</ele>
        <time>2022-08-27T13:09:23Z</time>
      </trkpt>
      <trkpt lat="45.87118" lon="7.05319">
        <ele>2134</ele>
        <time>2022-08-27T13:09:24Z</time>
      </trkpt>
      <trkpt lat="45.87118" lon="7.05319">
        <ele>2134</ele>
        <time>2022-08-27T13:09:25Z</time>
      </trkpt>
      <trkpt lat="45.87118" lon="7.05319">
        <ele>2134</ele>
        <time>2022-08-27T13:09:26Z</time>
      </trkpt>
      <trkpt lat="45.87118" lon="7.0532">
        <ele>2134</ele>
        <time>2022-08-27T13:09:27Z</time>
      </trkpt>
      <trkpt lat="45.87118" lon="7.0532">
        <ele>2134</ele>
        <time>2022-08-27T13:09:28Z</time>
      </trkpt>
      <trkpt lat="45.87118" lon="7.05319">
        <ele>2134</ele>
        <time>2022-08-27T13:09:29Z</time>
      </trkpt>
      <trkpt lat="45.87118" lon="7.05319">
        <ele>2134</ele>
        <time>2022-08-27T13:09:31Z</time>
      </trkpt>
      <trkpt lat="45.87118" lon="7.05319">
        <ele>2134</ele>
        <time>2022-08-27T13:09:32Z</time>
      </trkpt>
      <trkpt lat="45.87118" lon="7.05319">
        <ele>2134</ele>
        <time>2022-08-27T13:09:34Z</time>
      </trkpt>
      <trkpt lat="45.87119" lon="7.05319">
        <ele>2134</ele>
        <time>2022-08-27T13:09:35Z</time>
      </trkpt>
      <trkpt lat="45.87119" lon="7.05319">
        <ele>2134</ele>
        <time>2022-08-27T13:09:38Z</time>
      </trkpt>
      <trkpt lat="45.87119" lon="7.05319">
        <ele>2134</ele>
        <time>2022-08-27T13:09:39Z</time>
      </trkpt>
      <trkpt lat="45.87119" lon="7.05319">
        <ele>2134</ele>
        <time>2022-08-27T13:09:41Z</time>
      </trkpt>
      <trkpt lat="45.87119" lon="7.05319">
        <ele>2134</ele>
        <time>2022-08-27T13:09:42Z</time>
      </trkpt>
      <trkpt lat="45.87119" lon="7.05319">
        <ele>2134</ele>
        <time>2022-08-27T13:09:44Z</time>
      </trkpt>
      <trkpt lat="45.87119" lon="7.05319">
        <ele>2134</ele>
        <time>2022-08-27T13:09:45Z</time>
      </trkpt>
      <trkpt lat="45.87119" lon="7.05319">
        <ele>2134</ele>
        <time>2022-08-27T13:09:46Z</time>
      </trkpt>
      <trkpt lat="45.87119" lon="7.05319">
        <ele>2134</ele>
        <time>2022-08-27T13:09:47Z</time>
      </trkpt>
      <trkpt lat="45.87119" lon="7.05319">
        <ele>2134</ele>
        <time>2022-08-27T13:09:48Z</time>
      </trkpt>
      <trkpt lat="45.87119" lon="7.05319">
        <ele>2134</ele>
        <time>2022-08-27T13:09:50Z</time>
      </trkpt>
      <trkpt lat="45.8712" lon="7.05319">
        <ele>2134</ele>
        <time>2022-08-27T13:09:51Z</time>
      </trkpt>
      <trkpt lat="45.8712" lon="7.05319">
        <ele>2134</ele>
        <time>2022-08-27T13:09:52Z</time>
      </trkpt>
      <trkpt lat="45.8712" lon="7.05319">
        <ele>2134</ele>
        <time>2022-08-27T13:09:53Z</time>
      </trkpt>
      <trkpt lat="45.8712" lon="7.05319">
        <ele>2134</ele>
        <time>2022-08-27T13:09:54Z</time>
      </trkpt>
      <trkpt lat="45.8712" lon="7.05319">
        <ele>2134</ele>
        <time>2022-08-27T13:09:57Z</time>
      </trkpt>
      <trkpt lat="45.8712" lon="7.05319">
        <ele>2134</ele>
        <time>2022-08-27T13:09:58Z</time>
      </trkpt>
      <trkpt lat="45.8712" lon="7.05319">
        <ele>2134</ele>
        <time>2022-08-27T13:10:00Z</time>
      </trkpt>
      <trkpt lat="45.8712" lon="7.05319">
        <ele>2134</ele>
        <time>2022-08-27T13:10:01Z</time>
      </trkpt>
      <trkpt lat="45.8712" lon="7.05319">
        <ele>2134</ele>
        <time>2022-08-27T13:10:03Z</time>
      </trkpt>
      <trkpt lat="45.8712" lon="7.05319">
        <ele>2134</ele>
        <time>2022-08-27T13:10:04Z</time>
      </trkpt>
      <trkpt lat="45.8712" lon="7.05319">
        <ele>2134</ele>
        <time>2022-08-27T13:10:06Z</time>
      </trkpt>
      <trkpt lat="45.87121" lon="7.05319">
        <ele>2134</ele>
        <time>2022-08-27T13:10:07Z</time>
      </trkpt>
      <trkpt lat="45.87121" lon="7.05319">
        <ele>2134</ele>
        <time>2022-08-27T13:10:09Z</time>
      </trkpt>
      <trkpt lat="45.87121" lon="7.05319">
        <ele>2134</ele>
        <time>2022-08-27T13:10:10Z</time>
      </trkpt>
      <trkpt lat="45.87121" lon="7.05319">
        <ele>2134</ele>
        <time>2022-08-27T13:10:12Z</time>
      </trkpt>
      <trkpt lat="45.87121" lon="7.05319">
        <ele>2134</ele>
        <time>2022-08-27T13:10:13Z</time>
      </trkpt>
      <trkpt lat="45.87121" lon="7.05319">
        <ele>2134</ele>
        <time>2022-08-27T13:10:14Z</time>
      </trkpt>
      <trkpt lat="45.87121" lon="7.05319">
        <ele>2134</ele>
        <time>2022-08-27T13:10:16Z</time>
      </trkpt>
      <trkpt lat="45.87121" lon="7.05319">
        <ele>2134</ele>
        <time>2022-08-27T13:10:18Z</time>
      </trkpt>
      <trkpt lat="45.87121" lon="7.05319">
        <ele>2134</ele>
        <time>2022-08-27T13:10:19Z</time>
      </trkpt>
      <trkpt lat="45.87121" lon="7.05319">
        <ele>2134</ele>
        <time>2022-08-27T13:10:21Z</time>
      </trkpt>
      <trkpt lat="45.87121" lon="7.05319">
        <ele>2134</ele>
        <time>2022-08-27T13:10:22Z</time>
      </trkpt>
      <trkpt lat="45.87122" lon="7.05319">
        <ele>2134</ele>
        <time>2022-08-27T13:10:24Z</time>
      </trkpt>
      <trkpt lat="45.87122" lon="7.05319">
        <ele>2134</ele>
        <time>2022-08-27T13:10:25Z</time>
      </trkpt>
      <trkpt lat="45.87122" lon="7.05318">
        <ele>2134</ele>
        <time>2022-08-27T13:10:26Z</time>
      </trkpt>
      <trkpt lat="45.87122" lon="7.05318">
        <ele>2134</ele>
        <time>2022-08-27T13:10:27Z</time>
      </trkpt>
      <trkpt lat="45.87122" lon="7.05318">
        <ele>2134</ele>
        <time>2022-08-27T13:10:28Z</time>
      </trkpt>
      <trkpt lat="45.87122" lon="7.05318">
        <ele>2134</ele>
        <time>2022-08-27T13:10:30Z</time>
      </trkpt>
      <trkpt lat="45.87122" lon="7.05318">
        <ele>2134</ele>
        <time>2022-08-27T13:10:31Z</time>
      </trkpt>
      <trkpt lat="45.87122" lon="7.05318">
        <ele>2134</ele>
        <time>2022-08-27T13:10:32Z</time>
      </trkpt>
      <trkpt lat="45.87122" lon="7.05318">
        <ele>2134</ele>
        <time>2022-08-27T13:10:33Z</time>
      </trkpt>
      <trkpt lat="45.87122" lon="7.05318">
        <ele>2134</ele>
        <time>2022-08-27T13:10:35Z</time>
      </trkpt>
      <trkpt lat="45.87122" lon="7.05318">
        <ele>2134</ele>
        <time>2022-08-27T13:10:37Z</time>
      </trkpt>
      <trkpt lat="45.87122" lon="7.05318">
        <ele>2134</ele>
        <time>2022-08-27T13:10:38Z</time>
      </trkpt>
      <trkpt lat="45.87123" lon="7.05318">
        <ele>2134</ele>
        <time>2022-08-27T13:10:40Z</time>
      </trkpt>
      <trkpt lat="45.87123" lon="7.05318">
        <ele>2134</ele>
        <time>2022-08-27T13:10:41Z</time>
      </trkpt>
      <trkpt lat="45.87123" lon="7.05318">
        <ele>2134</ele>
        <time>2022-08-27T13:10:43Z</time>
      </trkpt>
      <trkpt lat="45.87123" lon="7.05318">
        <ele>2134</ele>
        <time>2022-08-27T13:10:44Z</time>
      </trkpt>
      <trkpt lat="45.87123" lon="7.05318">
        <ele>2134</ele>
        <time>2022-08-27T13:10:46Z</time>
      </trkpt>
      <trkpt lat="45.87123" lon="7.05318">
        <ele>2134</ele>
        <time>2022-08-27T13:10:47Z</time>
      </trkpt>
      <trkpt lat="45.87123" lon="7.05318">
        <ele>2134</ele>
        <time>2022-08-27T13:10:49Z</time>
      </trkpt>
      <trkpt lat="45.87123" lon="7.05318">
        <ele>2134</ele>
        <time>2022-08-27T13:10:50Z</time>
      </trkpt>
      <trkpt lat="45.87123" lon="7.05318">
        <ele>2134</ele>
        <time>2022-08-27T13:10:52Z</time>
      </trkpt>
      <trkpt lat="45.87123" lon="7.05318">
        <ele>2134</ele>
        <time>2022-08-27T13:10:54Z</time>
      </trkpt>
      <trkpt lat="45.87123" lon="7.05318">
        <ele>2134</ele>
        <time>2022-08-27T13:10:55Z</time>
      </trkpt>
      <trkpt lat="45.87124" lon="7.05318">
        <ele>2134</ele>
        <time>2022-08-27T13:10:56Z</time>
      </trkpt>
      <trkpt lat="45.87124" lon="7.05318">
        <ele>2134</ele>
        <time>2022-08-27T13:10:57Z</time>
      </trkpt>
      <trkpt lat="45.87124" lon="7.05318">
        <ele>2134</ele>
        <time>2022-08-27T13:10:59Z</time>
      </trkpt>
      <trkpt lat="45.87124" lon="7.05318">
        <ele>2134</ele>
        <time>2022-08-27T13:11:00Z</time>
      </trkpt>
      <trkpt lat="45.87124" lon="7.05318">
        <ele>2134</ele>
        <time>2022-08-27T13:11:02Z</time>
      </trkpt>
      <trkpt lat="45.87124" lon="7.05318">
        <ele>2134</ele>
        <time>2022-08-27T13:11:03Z</time>
      </trkpt>
      <trkpt lat="45.87124" lon="7.05318">
        <ele>2134</ele>
        <time>2022-08-27T13:11:05Z</time>
      </trkpt>
      <trkpt lat="45.87124" lon="7.05318">
        <ele>2134</ele>
        <time>2022-08-27T13:11:06Z</time>
      </trkpt>
      <trkpt lat="45.87124" lon="7.05318">
        <ele>2134</ele>
        <time>2022-08-27T13:11:07Z</time>
      </trkpt>
      <trkpt lat="45.87124" lon="7.05318">
        <ele>2134</ele>
        <time>2022-08-27T13:11:08Z</time>
      </trkpt>
      <trkpt lat="45.87124" lon="7.05318">
        <ele>2134</ele>
        <time>2022-08-27T13:11:09Z</time>
      </trkpt>
      <trkpt lat="45.87123" lon="7.05318">
        <ele>2134</ele>
        <time>2022-08-27T13:11:10Z</time>
      </trkpt>
      <trkpt lat="45.87123" lon="7.05318">
        <ele>2134</ele>
        <time>2022-08-27T13:11:11Z</time>
      </trkpt>
      <trkpt lat="45.87123" lon="7.05318">
        <ele>2134</ele>
        <time>2022-08-27T13:11:13Z</time>
      </trkpt>
      <trkpt lat="45.87123" lon="7.05318">
        <ele>2134</ele>
        <time>2022-08-27T13:11:14Z</time>
      </trkpt>
      <trkpt lat="45.87123" lon="7.05318">
        <ele>2134</ele>
        <time>2022-08-27T13:11:15Z</time>
      </trkpt>
      <trkpt lat="45.87123" lon="7.05318">
        <ele>2134</ele>
        <time>2022-08-27T13:11:16Z</time>
      </trkpt>
      <trkpt lat="45.87122" lon="7.05318">
        <ele>2134</ele>
        <time>2022-08-27T13:11:17Z</time>
      </trkpt>
      <trkpt lat="45.87122" lon="7.05318">
        <ele>2134</ele>
        <time>2022-08-27T13:11:18Z</time>
      </trkpt>
      <trkpt lat="45.87122" lon="7.05319">
        <ele>2134</ele>
        <time>2022-08-27T13:11:19Z</time>
      </trkpt>
      <trkpt lat="45.87122" lon="7.05319">
        <ele>2134</ele>
        <time>2022-08-27T13:11:20Z</time>
      </trkpt>
      <trkpt lat="45.87122" lon="7.05319">
        <ele>2134</ele>
        <time>2022-08-27T13:11:21Z</time>
      </trkpt>
      <trkpt lat="45.87122" lon="7.05319">
        <ele>2134</ele>
        <time>2022-08-27T13:11:22Z</time>
      </trkpt>
      <trkpt lat="45.87121" lon="7.05319">
        <ele>2134</ele>
        <time>2022-08-27T13:11:23Z</time>
      </trkpt>
      <trkpt lat="45.87121" lon="7.05319">
        <ele>2134</ele>
        <time>2022-08-27T13:11:24Z</time>
      </trkpt>
      <trkpt lat="45.87121" lon="7.05319">
        <ele>2134</ele>
        <time>2022-08-27T13:11:25Z</time>
      </trkpt>
      <trkpt lat="45.87121" lon="7.05319">
        <ele>2134</ele>
        <time>2022-08-27T13:11:26Z</time>
      </trkpt>
      <trkpt lat="45.87121" lon="7.05319">
        <ele>2134</ele>
        <time>2022-08-27T13:11:27Z</time>
      </trkpt>
      <trkpt lat="45.87121" lon="7.05319">
        <ele>2134</ele>
        <time>2022-08-27T13:11:28Z</time>
      </trkpt>
      <trkpt lat="45.87121" lon="7.05319">
        <ele>2134</ele>
        <time>2022-08-27T13:11:29Z</time>
      </trkpt>
      <trkpt lat="45.8712" lon="7.05319">
        <ele>2134</ele>
        <time>2022-08-27T13:11:30Z</time>
      </trkpt>
      <trkpt lat="45.8712" lon="7.05319">
        <ele>2134</ele>
        <time>2022-08-27T13:11:32Z</time>
      </trkpt>
      <trkpt lat="45.8712" lon="7.05319">
        <ele>2134</ele>
        <time>2022-08-27T13:11:33Z</time>
      </trkpt>
      <trkpt lat="45.8712" lon="7.05319">
        <ele>2134</ele>
        <time>2022-08-27T13:11:34Z</time>
      </trkpt>
      <trkpt lat="45.8712" lon="7.05319">
        <ele>2134</ele>
        <time>2022-08-27T13:11:35Z</time>
      </trkpt>
      <trkpt lat="45.8712" lon="7.05319">
        <ele>2134</ele>
        <time>2022-08-27T13:11:36Z</time>
      </trkpt>
      <trkpt lat="45.87119" lon="7.05319">
        <ele>2134</ele>
        <time>2022-08-27T13:11:37Z</time>
      </trkpt>
      <trkpt lat="45.87119" lon="7.0532">
        <ele>2134</ele>
        <time>2022-08-27T13:11:38Z</time>
      </trkpt>
      <trkpt lat="45.87119" lon="7.0532">
        <ele>2134</ele>
        <time>2022-08-27T13:11:39Z</time>
      </trkpt>
      <trkpt lat="45.87119" lon="7.0532">
        <ele>2134</ele>
        <time>2022-08-27T13:11:40Z</time>
      </trkpt>
      <trkpt lat="45.87119" lon="7.0532">
        <ele>2134</ele>
        <time>2022-08-27T13:11:41Z</time>
      </trkpt>
      <trkpt lat="45.87119" lon="7.0532">
        <ele>2134</ele>
        <time>2022-08-27T13:11:42Z</time>
      </trkpt>
      <trkpt lat="45.87118" lon="7.0532">
        <ele>2134</ele>
        <time>2022-08-27T13:11:43Z</time>
      </trkpt>
      <trkpt lat="45.87118" lon="7.0532">
        <ele>2134</ele>
        <time>2022-08-27T13:12:00Z</time>
      </trkpt>
      <trkpt lat="45.87119" lon="7.05315">
        <ele>2134</ele>
        <time>2022-08-27T13:12:01Z</time>
      </trkpt>
      <trkpt lat="45.87119" lon="7.05318">
        <ele>2134</ele>
        <time>2022-08-27T13:12:09Z</time>
      </trkpt>
      <trkpt lat="45.87119" lon="7.05317">
        <ele>2134</ele>
        <time>2022-08-27T13:12:11Z</time>
      </trkpt>
      <trkpt lat="45.87119" lon="7.05316">
        <ele>2134</ele>
        <time>2022-08-27T13:12:12Z</time>
      </trkpt>
      <trkpt lat="45.87119" lon="7.05315">
        <ele>2134</ele>
        <time>2022-08-27T13:12:13Z</time>
      </trkpt>
      <trkpt lat="45.87119" lon="7.05315">
        <ele>2134</ele>
        <time>2022-08-27T13:12:14Z</time>
      </trkpt>
      <trkpt lat="45.87119" lon="7.05314">
        <ele>2134</ele>
        <time>2022-08-27T13:12:15Z</time>
      </trkpt>
      <trkpt lat="45.87119" lon="7.05313">
        <ele>2134</ele>
        <time>2022-08-27T13:12:16Z</time>
      </trkpt>
      <trkpt lat="45.87119" lon="7.05312">
        <ele>2134</ele>
        <time>2022-08-27T13:12:17Z</time>
      </trkpt>
      <trkpt lat="45.87119" lon="7.05312">
        <ele>2134</ele>
        <time>2022-08-27T13:12:18Z</time>
      </trkpt>
      <trkpt lat="45.87119" lon="7.05311">
        <ele>2134</ele>
        <time>2022-08-27T13:12:19Z</time>
      </trkpt>
      <trkpt lat="45.87119" lon="7.05311">
        <ele>2134</ele>
        <time>2022-08-27T13:12:20Z</time>
      </trkpt>
      <trkpt lat="45.87119" lon="7.05311">
        <ele>2134</ele>
        <time>2022-08-27T13:12:21Z</time>
      </trkpt>
      <trkpt lat="45.87118" lon="7.05311">
        <ele>2134</ele>
        <time>2022-08-27T13:12:22Z</time>
      </trkpt>
      <trkpt lat="45.87118" lon="7.05311">
        <ele>2134</ele>
        <time>2022-08-27T13:12:23Z</time>
      </trkpt>
      <trkpt lat="45.87118" lon="7.05312">
        <ele>2134</ele>
        <time>2022-08-27T13:12:24Z</time>
      </trkpt>
      <trkpt lat="45.87118" lon="7.05312">
        <ele>2134</ele>
        <time>2022-08-27T13:12:25Z</time>
      </trkpt>
      <trkpt lat="45.87118" lon="7.05312">
        <ele>2134</ele>
        <time>2022-08-27T13:12:26Z</time>
      </trkpt>
      <trkpt lat="45.87118" lon="7.05312">
        <ele>2134</ele>
        <time>2022-08-27T13:12:27Z</time>
      </trkpt>
      <trkpt lat="45.87117" lon="7.05312">
        <ele>2134</ele>
        <time>2022-08-27T13:12:29Z</time>
      </trkpt>
      <trkpt lat="45.87117" lon="7.05312">
        <ele>2134</ele>
        <time>2022-08-27T13:12:30Z</time>
      </trkpt>
      <trkpt lat="45.87117" lon="7.05313">
        <ele>2134</ele>
        <time>2022-08-27T13:12:31Z</time>
      </trkpt>
      <trkpt lat="45.87117" lon="7.05313">
        <ele>2134</ele>
        <time>2022-08-27T13:12:32Z</time>
      </trkpt>
      <trkpt lat="45.87117" lon="7.05313">
        <ele>2134</ele>
        <time>2022-08-27T13:12:33Z</time>
      </trkpt>
      <trkpt lat="45.87117" lon="7.05313">
        <ele>2134</ele>
        <time>2022-08-27T13:12:34Z</time>
      </trkpt>
      <trkpt lat="45.87117" lon="7.05313">
        <ele>2134</ele>
        <time>2022-08-27T13:12:35Z</time>
      </trkpt>
      <trkpt lat="45.87116" lon="7.05313">
        <ele>2134</ele>
        <time>2022-08-27T13:12:36Z</time>
      </trkpt>
      <trkpt lat="45.87116" lon="7.05313">
        <ele>2134</ele>
        <time>2022-08-27T13:12:37Z</time>
      </trkpt>
      <trkpt lat="45.87116" lon="7.05314">
        <ele>2134</ele>
        <time>2022-08-27T13:12:38Z</time>
      </trkpt>
      <trkpt lat="45.87116" lon="7.05314">
        <ele>2134</ele>
        <time>2022-08-27T13:12:39Z</time>
      </trkpt>
      <trkpt lat="45.87116" lon="7.05314">
        <ele>2134</ele>
        <time>2022-08-27T13:12:40Z</time>
      </trkpt>
      <trkpt lat="45.87116" lon="7.05314">
        <ele>2134</ele>
        <time>2022-08-27T13:12:41Z</time>
      </trkpt>
      <trkpt lat="45.87115" lon="7.05314">
        <ele>2134</ele>
        <time>2022-08-27T13:12:42Z</time>
      </trkpt>
      <trkpt lat="45.87115" lon="7.05314">
        <ele>2134</ele>
        <time>2022-08-27T13:12:43Z</time>
      </trkpt>
      <trkpt lat="45.87115" lon="7.05315">
        <ele>2134</ele>
        <time>2022-08-27T13:12:44Z</time>
      </trkpt>
      <trkpt lat="45.87115" lon="7.05315">
        <ele>2134</ele>
        <time>2022-08-27T13:12:45Z</time>
      </trkpt>
      <trkpt lat="45.87115" lon="7.05315">
        <ele>2134</ele>
        <time>2022-08-27T13:12:46Z</time>
      </trkpt>
      <trkpt lat="45.87115" lon="7.05315">
        <ele>2134</ele>
        <time>2022-08-27T13:12:48Z</time>
      </trkpt>
      <trkpt lat="45.87114" lon="7.05315">
        <ele>2134</ele>
        <time>2022-08-27T13:12:49Z</time>
      </trkpt>
      <trkpt lat="45.87114" lon="7.05315">
        <ele>2134</ele>
        <time>2022-08-27T13:12:50Z</time>
      </trkpt>
      <trkpt lat="45.87114" lon="7.05315">
        <ele>2134</ele>
        <time>2022-08-27T13:12:51Z</time>
      </trkpt>
      <trkpt lat="45.87114" lon="7.05316">
        <ele>2134</ele>
        <time>2022-08-27T13:12:52Z</time>
      </trkpt>
      <trkpt lat="45.87114" lon="7.05316">
        <ele>2134</ele>
        <time>2022-08-27T13:12:53Z</time>
      </trkpt>
      <trkpt lat="45.87114" lon="7.05316">
        <ele>2134</ele>
        <time>2022-08-27T13:12:54Z</time>
      </trkpt>
      <trkpt lat="45.87114" lon="7.05316">
        <ele>2134</ele>
        <time>2022-08-27T13:12:55Z</time>
      </trkpt>
      <trkpt lat="45.87113" lon="7.05316">
        <ele>2134</ele>
        <time>2022-08-27T13:12:56Z</time>
      </trkpt>
      <trkpt lat="45.87113" lon="7.05316">
        <ele>2134</ele>
        <time>2022-08-27T13:12:57Z</time>
      </trkpt>
      <trkpt lat="45.87113" lon="7.05317">
        <ele>2134</ele>
        <time>2022-08-27T13:12:58Z</time>
      </trkpt>
      <trkpt lat="45.87113" lon="7.05317">
        <ele>2134</ele>
        <time>2022-08-27T13:12:59Z</time>
      </trkpt>
      <trkpt lat="45.87113" lon="7.05317">
        <ele>2134</ele>
        <time>2022-08-27T13:13:00Z</time>
      </trkpt>
      <trkpt lat="45.87113" lon="7.05317">
        <ele>2134</ele>
        <time>2022-08-27T13:13:01Z</time>
      </trkpt>
      <trkpt lat="45.87112" lon="7.05317">
        <ele>2134</ele>
        <time>2022-08-27T13:13:02Z</time>
      </trkpt>
      <trkpt lat="45.87112" lon="7.05317">
        <ele>2134</ele>
        <time>2022-08-27T13:13:03Z</time>
      </trkpt>
      <trkpt lat="45.87112" lon="7.05317">
        <ele>2134</ele>
        <time>2022-08-27T13:13:04Z</time>
      </trkpt>
      <trkpt lat="45.87112" lon="7.05318">
        <ele>2134</ele>
        <time>2022-08-27T13:13:05Z</time>
      </trkpt>
      <trkpt lat="45.87112" lon="7.05318">
        <ele>2134</ele>
        <time>2022-08-27T13:13:07Z</time>
      </trkpt>
      <trkpt lat="45.87112" lon="7.05318">
        <ele>2134</ele>
        <time>2022-08-27T13:13:08Z</time>
      </trkpt>
      <trkpt lat="45.87112" lon="7.05318">
        <ele>2134</ele>
        <time>2022-08-27T13:13:09Z</time>
      </trkpt>
      <trkpt lat="45.87111" lon="7.05318">
        <ele>2134</ele>
        <time>2022-08-27T13:13:10Z</time>
      </trkpt>
      <trkpt lat="45.87111" lon="7.05318">
        <ele>2134</ele>
        <time>2022-08-27T13:13:11Z</time>
      </trkpt>
      <trkpt lat="45.87112" lon="7.05318">
        <ele>2134</ele>
        <time>2022-08-27T13:13:12Z</time>
      </trkpt>
      <trkpt lat="45.87112" lon="7.05318">
        <ele>2134</ele>
        <time>2022-08-27T13:13:13Z</time>
      </trkpt>
      <trkpt lat="45.87112" lon="7.05318">
        <ele>2134</ele>
        <time>2022-08-27T13:13:14Z</time>
      </trkpt>
      <trkpt lat="45.87112" lon="7.05318">
        <ele>2134</ele>
        <time>2022-08-27T13:13:15Z</time>
      </trkpt>
      <trkpt lat="45.87112" lon="7.05318">
        <ele>2134</ele>
        <time>2022-08-27T13:13:16Z</time>
      </trkpt>
      <trkpt lat="45.87112" lon="7.05318">
        <ele>2134</ele>
        <time>2022-08-27T13:13:17Z</time>
      </trkpt>
      <trkpt lat="45.87112" lon="7.05318">
        <ele>2134</ele>
        <time>2022-08-27T13:13:18Z</time>
      </trkpt>
      <trkpt lat="45.87112" lon="7.05318">
        <ele>2134</ele>
        <time>2022-08-27T13:13:19Z</time>
      </trkpt>
      <trkpt lat="45.87112" lon="7.05318">
        <ele>2134</ele>
        <time>2022-08-27T13:13:20Z</time>
      </trkpt>
      <trkpt lat="45.87112" lon="7.05318">
        <ele>2134</ele>
        <time>2022-08-27T13:13:21Z</time>
      </trkpt>
      <trkpt lat="45.87113" lon="7.05318">
        <ele>2134</ele>
        <time>2022-08-27T13:13:22Z</time>
      </trkpt>
      <trkpt lat="45.87113" lon="7.05318">
        <ele>2134</ele>
        <time>2022-08-27T13:13:23Z</time>
      </trkpt>
      <trkpt lat="45.87113" lon="7.05318">
        <ele>2134</ele>
        <time>2022-08-27T13:13:24Z</time>
      </trkpt>
      <trkpt lat="45.87113" lon="7.05318">
        <ele>2134</ele>
        <time>2022-08-27T13:13:26Z</time>
      </trkpt>
      <trkpt lat="45.87113" lon="7.05317">
        <ele>2134</ele>
        <time>2022-08-27T13:13:27Z</time>
      </trkpt>
      <trkpt lat="45.87113" lon="7.05317">
        <ele>2134</ele>
        <time>2022-08-27T13:13:28Z</time>
      </trkpt>
      <trkpt lat="45.87113" lon="7.05317">
        <ele>2134</ele>
        <time>2022-08-27T13:13:29Z</time>
      </trkpt>
      <trkpt lat="45.87113" lon="7.05317">
        <ele>2134</ele>
        <time>2022-08-27T13:13:30Z</time>
      </trkpt>
      <trkpt lat="45.87113" lon="7.05317">
        <ele>2134</ele>
        <time>2022-08-27T13:13:31Z</time>
      </trkpt>
      <trkpt lat="45.87113" lon="7.05317">
        <ele>2134</ele>
        <time>2022-08-27T13:13:32Z</time>
      </trkpt>
      <trkpt lat="45.87114" lon="7.05317">
        <ele>2134</ele>
        <time>2022-08-27T13:13:33Z</time>
      </trkpt>
      <trkpt lat="45.87114" lon="7.05317">
        <ele>2134</ele>
        <time>2022-08-27T13:13:34Z</time>
      </trkpt>
      <trkpt lat="45.87114" lon="7.05317">
        <ele>2134</ele>
        <time>2022-08-27T13:13:35Z</time>
      </trkpt>
      <trkpt lat="45.87114" lon="7.05317">
        <ele>2134</ele>
        <time>2022-08-27T13:13:36Z</time>
      </trkpt>
      <trkpt lat="45.87114" lon="7.05317">
        <ele>2134</ele>
        <time>2022-08-27T13:13:37Z</time>
      </trkpt>
      <trkpt lat="45.87114" lon="7.05317">
        <ele>2134</ele>
        <time>2022-08-27T13:13:38Z</time>
      </trkpt>
      <trkpt lat="45.87114" lon="7.05317">
        <ele>2134</ele>
        <time>2022-08-27T13:13:39Z</time>
      </trkpt>
      <trkpt lat="45.87114" lon="7.05317">
        <ele>2134</ele>
        <time>2022-08-27T13:13:40Z</time>
      </trkpt>
      <trkpt lat="45.87114" lon="7.05317">
        <ele>2134</ele>
        <time>2022-08-27T13:13:41Z</time>
      </trkpt>
      <trkpt lat="45.87114" lon="7.05317">
        <ele>2134</ele>
        <time>2022-08-27T13:13:43Z</time>
      </trkpt>
      <trkpt lat="45.87115" lon="7.05317">
        <ele>2134</ele>
        <time>2022-08-27T13:13:45Z</time>
      </trkpt>
      <trkpt lat="45.87115" lon="7.05317">
        <ele>2134</ele>
        <time>2022-08-27T13:13:46Z</time>
      </trkpt>
      <trkpt lat="45.87115" lon="7.05317">
        <ele>2134</ele>
        <time>2022-08-27T13:13:47Z</time>
      </trkpt>
      <trkpt lat="45.87115" lon="7.05316">
        <ele>2134</ele>
        <time>2022-08-27T13:13:48Z</time>
      </trkpt>
      <trkpt lat="45.87115" lon="7.05316">
        <ele>2134</ele>
        <time>2022-08-27T13:13:49Z</time>
      </trkpt>
      <trkpt lat="45.87115" lon="7.05316">
        <ele>2134</ele>
        <time>2022-08-27T13:13:50Z</time>
      </trkpt>
      <trkpt lat="45.87115" lon="7.05316">
        <ele>2134</ele>
        <time>2022-08-27T13:13:51Z</time>
      </trkpt>
      <trkpt lat="45.87115" lon="7.05316">
        <ele>2134</ele>
        <time>2022-08-27T13:13:52Z</time>
      </trkpt>
      <trkpt lat="45.87115" lon="7.05316">
        <ele>2134</ele>
        <time>2022-08-27T13:13:53Z</time>
      </trkpt>
      <trkpt lat="45.87115" lon="7.05316">
        <ele>2134</ele>
        <time>2022-08-27T13:13:54Z</time>
      </trkpt>
      <trkpt lat="45.87116" lon="7.05316">
        <ele>2134</ele>
        <time>2022-08-27T13:13:55Z</time>
      </trkpt>
      <trkpt lat="45.87116" lon="7.05316">
        <ele>2134</ele>
        <time>2022-08-27T13:13:56Z</time>
      </trkpt>
      <trkpt lat="45.87116" lon="7.05316">
        <ele>2134</ele>
        <time>2022-08-27T13:13:57Z</time>
      </trkpt>
      <trkpt lat="45.87116" lon="7.05316">
        <ele>2134</ele>
        <time>2022-08-27T13:13:58Z</time>
      </trkpt>
      <trkpt lat="45.87116" lon="7.05316">
        <ele>2134</ele>
        <time>2022-08-27T13:13:59Z</time>
      </trkpt>
      <trkpt lat="45.87116" lon="7.05316">
        <ele>2134</ele>
        <time>2022-08-27T13:14:00Z</time>
      </trkpt>
      <trkpt lat="45.87116" lon="7.05316">
        <ele>2134</ele>
        <time>2022-08-27T13:14:01Z</time>
      </trkpt>
      <trkpt lat="45.87116" lon="7.05316">
        <ele>2134</ele>
        <time>2022-08-27T13:14:02Z</time>
      </trkpt>
      <trkpt lat="45.87116" lon="7.05316">
        <ele>2134</ele>
        <time>2022-08-27T13:14:04Z</time>
      </trkpt>
      <trkpt lat="45.87116" lon="7.05316">
        <ele>2134</ele>
        <time>2022-08-27T13:14:05Z</time>
      </trkpt>
      <trkpt lat="45.87117" lon="7.05316">
        <ele>2134</ele>
        <time>2022-08-27T13:14:06Z</time>
      </trkpt>
      <trkpt lat="45.87117" lon="7.05316">
        <ele>2134</ele>
        <time>2022-08-27T13:14:07Z</time>
      </trkpt>
      <trkpt lat="45.87117" lon="7.05316">
        <ele>2134</ele>
        <time>2022-08-27T13:14:08Z</time>
      </trkpt>
      <trkpt lat="45.87117" lon="7.05316">
        <ele>2134</ele>
        <time>2022-08-27T13:14:09Z</time>
      </trkpt>
      <trkpt lat="45.87117" lon="7.05315">
        <ele>2134</ele>
        <time>2022-08-27T13:14:10Z</time>
      </trkpt>
      <trkpt lat="45.87117" lon="7.05315">
        <ele>2134</ele>
        <time>2022-08-27T13:14:11Z</time>
      </trkpt>
      <trkpt lat="45.87117" lon="7.05315">
        <ele>2134</ele>
        <time>2022-08-27T13:14:12Z</time>
      </trkpt>
      <trkpt lat="45.87117" lon="7.05315">
        <ele>2134</ele>
        <time>2022-08-27T13:14:13Z</time>
      </trkpt>
      <trkpt lat="45.87117" lon="7.05315">
        <ele>2134</ele>
        <time>2022-08-27T13:14:14Z</time>
      </trkpt>
      <trkpt lat="45.87117" lon="7.05315">
        <ele>2134</ele>
        <time>2022-08-27T13:14:15Z</time>
      </trkpt>
      <trkpt lat="45.87118" lon="7.05315">
        <ele>2134</ele>
        <time>2022-08-27T13:14:16Z</time>
      </trkpt>
      <trkpt lat="45.87118" lon="7.05315">
        <ele>2134</ele>
        <time>2022-08-27T13:14:17Z</time>
      </trkpt>
      <trkpt lat="45.87118" lon="7.05315">
        <ele>2134</ele>
        <time>2022-08-27T13:14:18Z</time>
      </trkpt>
      <trkpt lat="45.87118" lon="7.05315">
        <ele>2134</ele>
        <time>2022-08-27T13:14:19Z</time>
      </trkpt>
      <trkpt lat="45.87118" lon="7.05315">
        <ele>2134</ele>
        <time>2022-08-27T13:14:20Z</time>
      </trkpt>
      <trkpt lat="45.87118" lon="7.05315">
        <ele>2134</ele>
        <time>2022-08-27T13:14:21Z</time>
      </trkpt>
      <trkpt lat="45.87118" lon="7.05315">
        <ele>2134</ele>
        <time>2022-08-27T13:14:23Z</time>
      </trkpt>
      <trkpt lat="45.87118" lon="7.05315">
        <ele>2134</ele>
        <time>2022-08-27T13:14:24Z</time>
      </trkpt>
      <trkpt lat="45.87118" lon="7.05315">
        <ele>2134</ele>
        <time>2022-08-27T13:14:25Z</time>
      </trkpt>
      <trkpt lat="45.87118" lon="7.05315">
        <ele>2134</ele>
        <time>2022-08-27T13:14:27Z</time>
      </trkpt>
      <trkpt lat="45.87119" lon="7.05315">
        <ele>2134</ele>
        <time>2022-08-27T13:14:28Z</time>
      </trkpt>
      <trkpt lat="45.87119" lon="7.05315">
        <ele>2134</ele>
        <time>2022-08-27T13:14:29Z</time>
      </trkpt>
      <trkpt lat="45.87119" lon="7.05315">
        <ele>2134</ele>
        <time>2022-08-27T13:14:30Z</time>
      </trkpt>
      <trkpt lat="45.87119" lon="7.05314">
        <ele>2134</ele>
        <time>2022-08-27T13:14:31Z</time>
      </trkpt>
      <trkpt lat="45.87119" lon="7.05314">
        <ele>2134</ele>
        <time>2022-08-27T13:14:32Z</time>
      </trkpt>
      <trkpt lat="45.87119" lon="7.05314">
        <ele>2134</ele>
        <time>2022-08-27T13:14:33Z</time>
      </trkpt>
      <trkpt lat="45.87119" lon="7.05314">
        <ele>2134</ele>
        <time>2022-08-27T13:14:34Z</time>
      </trkpt>
      <trkpt lat="45.87119" lon="7.05314">
        <ele>2134</ele>
        <time>2022-08-27T13:14:35Z</time>
      </trkpt>
      <trkpt lat="45.87119" lon="7.05314">
        <ele>2134</ele>
        <time>2022-08-27T13:14:36Z</time>
      </trkpt>
      <trkpt lat="45.87119" lon="7.05314">
        <ele>2134</ele>
        <time>2022-08-27T13:14:37Z</time>
      </trkpt>
      <trkpt lat="45.8712" lon="7.05314">
        <ele>2134</ele>
        <time>2022-08-27T13:14:38Z</time>
      </trkpt>
      <trkpt lat="45.8712" lon="7.05314">
        <ele>2134</ele>
        <time>2022-08-27T13:14:39Z</time>
      </trkpt>
      <trkpt lat="45.8712" lon="7.05314">
        <ele>2134</ele>
        <time>2022-08-27T13:14:40Z</time>
      </trkpt>
      <trkpt lat="45.8712" lon="7.05314">
        <ele>2134</ele>
        <time>2022-08-27T13:14:42Z</time>
      </trkpt>
      <trkpt lat="45.8712" lon="7.05314">
        <ele>2134</ele>
        <time>2022-08-27T13:14:43Z</time>
      </trkpt>
      <trkpt lat="45.8712" lon="7.05314">
        <ele>2134</ele>
        <time>2022-08-27T13:14:44Z</time>
      </trkpt>
      <trkpt lat="45.8712" lon="7.05314">
        <ele>2134</ele>
        <time>2022-08-27T13:14:45Z</time>
      </trkpt>
      <trkpt lat="45.8712" lon="7.05314">
        <ele>2134</ele>
        <time>2022-08-27T13:14:46Z</time>
      </trkpt>
      <trkpt lat="45.8712" lon="7.05314">
        <ele>2134</ele>
        <time>2022-08-27T13:15:04Z</time>
      </trkpt>
      <trkpt lat="45.8712" lon="7.05314">
        <ele>2134</ele>
        <time>2022-08-27T13:15:24Z</time>
      </trkpt>
      <trkpt lat="45.8712" lon="7.05314">
        <ele>2134</ele>
        <time>2022-08-27T13:15:44Z</time>
      </trkpt>
      <trkpt lat="45.87121" lon="7.05309">
        <ele>2134</ele>
        <time>2022-08-27T13:15:57Z</time>
      </trkpt>
      <trkpt lat="45.87121" lon="7.05309">
        <ele>2134</ele>
        <time>2022-08-27T13:16:05Z</time>
      </trkpt>
      <trkpt lat="45.87121" lon="7.05313">
        <ele>2134</ele>
        <time>2022-08-27T13:16:09Z</time>
      </trkpt>
      <trkpt lat="45.87119" lon="7.05313">
        <ele>2134</ele>
        <time>2022-08-27T13:16:26Z</time>
      </trkpt>
      <trkpt lat="45.87119" lon="7.05313">
        <ele>2134</ele>
        <time>2022-08-27T13:16:29Z</time>
      </trkpt>
      <trkpt lat="45.87119" lon="7.05311">
        <ele>2134</ele>
        <time>2022-08-27T13:16:37Z</time>
      </trkpt>
      <trkpt lat="45.87119" lon="7.05311">
        <ele>2134</ele>
        <time>2022-08-27T13:16:48Z</time>
      </trkpt>
      <trkpt lat="45.8712" lon="7.05308">
        <ele>2134</ele>
        <time>2022-08-27T13:17:03Z</time>
      </trkpt>
      <trkpt lat="45.87122" lon="7.05307">
        <ele>2134</ele>
        <time>2022-08-27T13:17:08Z</time>
      </trkpt>
      <trkpt lat="45.87123" lon="7.05307">
        <ele>2134</ele>
        <time>2022-08-27T13:17:09Z</time>
      </trkpt>
      <trkpt lat="45.87124" lon="7.05307">
        <ele>2134</ele>
        <time>2022-08-27T13:17:10Z</time>
      </trkpt>
      <trkpt lat="45.87124" lon="7.05308">
        <ele>2134</ele>
        <time>2022-08-27T13:17:12Z</time>
      </trkpt>
      <trkpt lat="45.87125" lon="7.05308">
        <ele>2134</ele>
        <time>2022-08-27T13:17:14Z</time>
      </trkpt>
      <trkpt lat="45.87126" lon="7.05309">
        <ele>2134</ele>
        <time>2022-08-27T13:17:15Z</time>
      </trkpt>
      <trkpt lat="45.87126" lon="7.05309">
        <ele>2134</ele>
        <time>2022-08-27T13:17:16Z</time>
      </trkpt>
      <trkpt lat="45.87127" lon="7.0531">
        <ele>2134</ele>
        <time>2022-08-27T13:17:17Z</time>
      </trkpt>
      <trkpt lat="45.87128" lon="7.0531">
        <ele>2134</ele>
        <time>2022-08-27T13:17:18Z</time>
      </trkpt>
      <trkpt lat="45.87128" lon="7.0531">
        <ele>2134</ele>
        <time>2022-08-27T13:17:19Z</time>
      </trkpt>
      <trkpt lat="45.87129" lon="7.05311">
        <ele>2134</ele>
        <time>2022-08-27T13:17:20Z</time>
      </trkpt>
      <trkpt lat="45.87129" lon="7.05311">
        <ele>2134</ele>
        <time>2022-08-27T13:17:21Z</time>
      </trkpt>
      <trkpt lat="45.8713" lon="7.05312">
        <ele>2134</ele>
        <time>2022-08-27T13:17:22Z</time>
      </trkpt>
      <trkpt lat="45.87128" lon="7.05311">
        <ele>2134</ele>
        <time>2022-08-27T13:17:33Z</time>
      </trkpt>
      <trkpt lat="45.87128" lon="7.05311">
        <ele>2134</ele>
        <time>2022-08-27T13:17:41Z</time>
      </trkpt>
      <trkpt lat="45.87126" lon="7.05311">
        <ele>2134</ele>
        <time>2022-08-27T13:17:42Z</time>
      </trkpt>
      <trkpt lat="45.87126" lon="7.05311">
        <ele>2134</ele>
        <time>2022-08-27T13:17:59Z</time>
      </trkpt>
      <trkpt lat="45.87125" lon="7.0531">
        <ele>2134</ele>
        <time>2022-08-27T13:18:04Z</time>
      </trkpt>
      <trkpt lat="45.87124" lon="7.05308">
        <ele>2134</ele>
        <time>2022-08-27T13:18:13Z</time>
      </trkpt>
      <trkpt lat="45.87124" lon="7.05308">
        <ele>2134</ele>
        <time>2022-08-27T13:18:20Z</time>
      </trkpt>
      <trkpt lat="45.87124" lon="7.05305">
        <ele>2134</ele>
        <time>2022-08-27T13:18:21Z</time>
      </trkpt>
      <trkpt lat="45.87125" lon="7.05307">
        <ele>2134</ele>
        <time>2022-08-27T13:18:33Z</time>
      </trkpt>
      <trkpt lat="45.87127" lon="7.05309">
        <ele>2134</ele>
        <time>2022-08-27T13:18:37Z</time>
      </trkpt>
      <trkpt lat="45.87127" lon="7.05309">
        <ele>2134</ele>
        <time>2022-08-27T13:18:49Z</time>
      </trkpt>
      <trkpt lat="45.87128" lon="7.05312">
        <ele>2134</ele>
        <time>2022-08-27T13:18:54Z</time>
      </trkpt>
      <trkpt lat="45.87129" lon="7.05307">
        <ele>2134</ele>
        <time>2022-08-27T13:19:08Z</time>
      </trkpt>
      <trkpt lat="45.87129" lon="7.05307">
        <ele>2134</ele>
        <time>2022-08-27T13:19:10Z</time>
      </trkpt>
      <trkpt lat="45.87131" lon="7.05305">
        <ele>2134</ele>
        <time>2022-08-27T13:19:15Z</time>
      </trkpt>
      <trkpt lat="45.87129" lon="7.05302">
        <ele>2134</ele>
        <time>2022-08-27T13:19:19Z</time>
      </trkpt>
      <trkpt lat="45.87128" lon="7.053">
        <ele>2134</ele>
        <time>2022-08-27T13:19:33Z</time>
      </trkpt>
      <trkpt lat="45.87128" lon="7.053">
        <ele>2134</ele>
        <time>2022-08-27T13:19:37Z</time>
      </trkpt>
      <trkpt lat="45.87128" lon="7.05302">
        <ele>2134</ele>
        <time>2022-08-27T13:19:38Z</time>
      </trkpt>
      <trkpt lat="45.8713" lon="7.05302">
        <ele>2134</ele>
        <time>2022-08-27T13:19:53Z</time>
      </trkpt>
      <trkpt lat="45.87131" lon="7.05305">
        <ele>2134</ele>
        <time>2022-08-27T13:19:55Z</time>
      </trkpt>
      <trkpt lat="45.87132" lon="7.05307">
        <ele>2134</ele>
        <time>2022-08-27T13:19:56Z</time>
      </trkpt>
      <trkpt lat="45.87132" lon="7.05309">
        <ele>2134</ele>
        <time>2022-08-27T13:19:58Z</time>
      </trkpt>
      <trkpt lat="45.87132" lon="7.05311">
        <ele>2134</ele>
        <time>2022-08-27T13:19:59Z</time>
      </trkpt>
      <trkpt lat="45.87132" lon="7.05313">
        <ele>2134</ele>
        <time>2022-08-27T13:20:00Z</time>
      </trkpt>
      <trkpt lat="45.87133" lon="7.05314">
        <ele>2134</ele>
        <time>2022-08-27T13:20:01Z</time>
      </trkpt>
      <trkpt lat="45.87133" lon="7.05316">
        <ele>2134</ele>
        <time>2022-08-27T13:20:02Z</time>
      </trkpt>
      <trkpt lat="45.87133" lon="7.05318">
        <ele>2134</ele>
        <time>2022-08-27T13:20:03Z</time>
      </trkpt>
      <trkpt lat="45.87134" lon="7.05321">
        <ele>2134</ele>
        <time>2022-08-27T13:20:04Z</time>
      </trkpt>
      <trkpt lat="45.87135" lon="7.05325">
        <ele>2134</ele>
        <time>2022-08-27T13:20:07Z</time>
      </trkpt>
      <trkpt lat="45.87137" lon="7.05328">
        <ele>2134</ele>
        <time>2022-08-27T13:20:11Z</time>
      </trkpt>
      <trkpt lat="45.87137" lon="7.05329">
        <ele>2134</ele>
        <time>2022-08-27T13:20:12Z</time>
      </trkpt>
      <trkpt lat="45.87137" lon="7.05329">
        <ele>2134</ele>
        <time>2022-08-27T13:20:14Z</time>
      </trkpt>
      <trkpt lat="45.87137" lon="7.0533">
        <ele>2134</ele>
        <time>2022-08-27T13:20:15Z</time>
      </trkpt>
      <trkpt lat="45.87137" lon="7.0533">
        <ele>2134</ele>
        <time>2022-08-27T13:20:16Z</time>
      </trkpt>
      <trkpt lat="45.87137" lon="7.0533">
        <ele>2134</ele>
        <time>2022-08-27T13:20:17Z</time>
      </trkpt>
      <trkpt lat="45.87137" lon="7.05331">
        <ele>2134</ele>
        <time>2022-08-27T13:20:19Z</time>
      </trkpt>
      <trkpt lat="45.87137" lon="7.05331">
        <ele>2134</ele>
        <time>2022-08-27T13:20:20Z</time>
      </trkpt>
      <trkpt lat="45.87137" lon="7.05332">
        <ele>2134</ele>
        <time>2022-08-27T13:20:21Z</time>
      </trkpt>
      <trkpt lat="45.87137" lon="7.05332">
        <ele>2134</ele>
        <time>2022-08-27T13:20:22Z</time>
      </trkpt>
      <trkpt lat="45.87137" lon="7.05333">
        <ele>2134</ele>
        <time>2022-08-27T13:20:24Z</time>
      </trkpt>
      <trkpt lat="45.87137" lon="7.05333">
        <ele>2134</ele>
        <time>2022-08-27T13:20:26Z</time>
      </trkpt>
      <trkpt lat="45.87137" lon="7.05333">
        <ele>2134</ele>
        <time>2022-08-27T13:20:27Z</time>
      </trkpt>
      <trkpt lat="45.87137" lon="7.05334">
        <ele>2134</ele>
        <time>2022-08-27T13:20:28Z</time>
      </trkpt>
      <trkpt lat="45.87137" lon="7.05334">
        <ele>2134</ele>
        <time>2022-08-27T13:20:30Z</time>
      </trkpt>
      <trkpt lat="45.87137" lon="7.05335">
        <ele>2134</ele>
        <time>2022-08-27T13:20:32Z</time>
      </trkpt>
      <trkpt lat="45.87137" lon="7.05335">
        <ele>2134</ele>
        <time>2022-08-27T13:20:33Z</time>
      </trkpt>
      <trkpt lat="45.87137" lon="7.05336">
        <ele>2134</ele>
        <time>2022-08-27T13:20:34Z</time>
      </trkpt>
      <trkpt lat="45.87138" lon="7.05336">
        <ele>2134</ele>
        <time>2022-08-27T13:20:35Z</time>
      </trkpt>
      <trkpt lat="45.87138" lon="7.05336">
        <ele>2134</ele>
        <time>2022-08-27T13:20:37Z</time>
      </trkpt>
      <trkpt lat="45.87138" lon="7.05337">
        <ele>2134</ele>
        <time>2022-08-27T13:20:38Z</time>
      </trkpt>
      <trkpt lat="45.87138" lon="7.05337">
        <ele>2134</ele>
        <time>2022-08-27T13:20:39Z</time>
      </trkpt>
      <trkpt lat="45.87138" lon="7.05338">
        <ele>2134</ele>
        <time>2022-08-27T13:20:40Z</time>
      </trkpt>
      <trkpt lat="45.87138" lon="7.05338">
        <ele>2134</ele>
        <time>2022-08-27T13:20:42Z</time>
      </trkpt>
      <trkpt lat="45.87138" lon="7.05338">
        <ele>2134</ele>
        <time>2022-08-27T13:20:43Z</time>
      </trkpt>
      <trkpt lat="45.87138" lon="7.05339">
        <ele>2134</ele>
        <time>2022-08-27T13:20:44Z</time>
      </trkpt>
      <trkpt lat="45.87138" lon="7.05339">
        <ele>2134</ele>
        <time>2022-08-27T13:20:45Z</time>
      </trkpt>
      <trkpt lat="45.87138" lon="7.0534">
        <ele>2134</ele>
        <time>2022-08-27T13:20:46Z</time>
      </trkpt>
      <trkpt lat="45.87138" lon="7.0534">
        <ele>2134</ele>
        <time>2022-08-27T13:20:47Z</time>
      </trkpt>
      <trkpt lat="45.87138" lon="7.05341">
        <ele>2134</ele>
        <time>2022-08-27T13:20:48Z</time>
      </trkpt>
      <trkpt lat="45.87138" lon="7.05341">
        <ele>2134</ele>
        <time>2022-08-27T13:20:49Z</time>
      </trkpt>
      <trkpt lat="45.87138" lon="7.05341">
        <ele>2134</ele>
        <time>2022-08-27T13:20:50Z</time>
      </trkpt>
      <trkpt lat="45.87137" lon="7.05343">
        <ele>2134</ele>
        <time>2022-08-27T13:21:07Z</time>
      </trkpt>
      <trkpt lat="45.87136" lon="7.05343">
        <ele>2134</ele>
        <time>2022-08-27T13:21:08Z</time>
      </trkpt>
      <trkpt lat="45.87136" lon="7.05342">
        <ele>2134</ele>
        <time>2022-08-27T13:21:09Z</time>
      </trkpt>
      <trkpt lat="45.87136" lon="7.05341">
        <ele>2134</ele>
        <time>2022-08-27T13:21:10Z</time>
      </trkpt>
      <trkpt lat="45.87136" lon="7.05341">
        <ele>2134</ele>
        <time>2022-08-27T13:21:11Z</time>
      </trkpt>
      <trkpt lat="45.87136" lon="7.0534">
        <ele>2134</ele>
        <time>2022-08-27T13:21:12Z</time>
      </trkpt>
      <trkpt lat="45.87135" lon="7.05339">
        <ele>2134</ele>
        <time>2022-08-27T13:21:13Z</time>
      </trkpt>
      <trkpt lat="45.87135" lon="7.05339">
        <ele>2134</ele>
        <time>2022-08-27T13:21:14Z</time>
      </trkpt>
      <trkpt lat="45.87135" lon="7.05338">
        <ele>2134</ele>
        <time>2022-08-27T13:21:15Z</time>
      </trkpt>
      <trkpt lat="45.87135" lon="7.05338">
        <ele>2134</ele>
        <time>2022-08-27T13:21:16Z</time>
      </trkpt>
      <trkpt lat="45.87136" lon="7.05338">
        <ele>2134</ele>
        <time>2022-08-27T13:21:18Z</time>
      </trkpt>
      <trkpt lat="45.87136" lon="7.05337">
        <ele>2134</ele>
        <time>2022-08-27T13:21:19Z</time>
      </trkpt>
      <trkpt lat="45.87137" lon="7.05337">
        <ele>2134</ele>
        <time>2022-08-27T13:21:21Z</time>
      </trkpt>
      <trkpt lat="45.87137" lon="7.05337">
        <ele>2134</ele>
        <time>2022-08-27T13:21:22Z</time>
      </trkpt>
      <trkpt lat="45.87137" lon="7.05337">
        <ele>2134</ele>
        <time>2022-08-27T13:21:23Z</time>
      </trkpt>
      <trkpt lat="45.87138" lon="7.05337">
        <ele>2134</ele>
        <time>2022-08-27T13:21:24Z</time>
      </trkpt>
      <trkpt lat="45.87138" lon="7.05336">
        <ele>2134</ele>
        <time>2022-08-27T13:21:25Z</time>
      </trkpt>
      <trkpt lat="45.87139" lon="7.05336">
        <ele>2134</ele>
        <time>2022-08-27T13:21:26Z</time>
      </trkpt>
      <trkpt lat="45.87139" lon="7.05336">
        <ele>2134</ele>
        <time>2022-08-27T13:21:27Z</time>
      </trkpt>
      <trkpt lat="45.8714" lon="7.05336">
        <ele>2134</ele>
        <time>2022-08-27T13:21:28Z</time>
      </trkpt>
      <trkpt lat="45.8714" lon="7.05335">
        <ele>2134</ele>
        <time>2022-08-27T13:21:30Z</time>
      </trkpt>
      <trkpt lat="45.8714" lon="7.05335">
        <ele>2134</ele>
        <time>2022-08-27T13:21:31Z</time>
      </trkpt>
      <trkpt lat="45.87141" lon="7.05335">
        <ele>2134</ele>
        <time>2022-08-27T13:21:32Z</time>
      </trkpt>
      <trkpt lat="45.87141" lon="7.05335">
        <ele>2134</ele>
        <time>2022-08-27T13:21:33Z</time>
      </trkpt>
      <trkpt lat="45.87142" lon="7.05335">
        <ele>2134</ele>
        <time>2022-08-27T13:21:34Z</time>
      </trkpt>
      <trkpt lat="45.87142" lon="7.05334">
        <ele>2134</ele>
        <time>2022-08-27T13:21:35Z</time>
      </trkpt>
      <trkpt lat="45.87143" lon="7.05334">
        <ele>2134</ele>
        <time>2022-08-27T13:21:36Z</time>
      </trkpt>
      <trkpt lat="45.87143" lon="7.05334">
        <ele>2134</ele>
        <time>2022-08-27T13:21:37Z</time>
      </trkpt>
      <trkpt lat="45.87144" lon="7.05334">
        <ele>2134</ele>
        <time>2022-08-27T13:21:38Z</time>
      </trkpt>
      <trkpt lat="45.87144" lon="7.05334">
        <ele>2134</ele>
        <time>2022-08-27T13:21:40Z</time>
      </trkpt>
      <trkpt lat="45.87145" lon="7.05334">
        <ele>2134</ele>
        <time>2022-08-27T13:21:41Z</time>
      </trkpt>
      <trkpt lat="45.87146" lon="7.05334">
        <ele>2134</ele>
        <time>2022-08-27T13:21:42Z</time>
      </trkpt>
      <trkpt lat="45.87147" lon="7.05334">
        <ele>2134</ele>
        <time>2022-08-27T13:21:43Z</time>
      </trkpt>
      <trkpt lat="45.87147" lon="7.05334">
        <ele>2134</ele>
        <time>2022-08-27T13:21:44Z</time>
      </trkpt>
      <trkpt lat="45.87148" lon="7.05334">
        <ele>2134</ele>
        <time>2022-08-27T13:21:45Z</time>
      </trkpt>
      <trkpt lat="45.87149" lon="7.05334">
        <ele>2134</ele>
        <time>2022-08-27T13:21:46Z</time>
      </trkpt>
      <trkpt lat="45.8715" lon="7.05334">
        <ele>2134</ele>
        <time>2022-08-27T13:21:47Z</time>
      </trkpt>
      <trkpt lat="45.87151" lon="7.05335">
        <ele>2134</ele>
        <time>2022-08-27T13:21:48Z</time>
      </trkpt>
      <trkpt lat="45.87151" lon="7.05335">
        <ele>2134</ele>
        <time>2022-08-27T13:21:49Z</time>
      </trkpt>
      <trkpt lat="45.87152" lon="7.05335">
        <ele>2134</ele>
        <time>2022-08-27T13:21:50Z</time>
      </trkpt>
      <trkpt lat="45.87152" lon="7.05335">
        <ele>2134</ele>
        <time>2022-08-27T13:22:07Z</time>
      </trkpt>
      <trkpt lat="45.87151" lon="7.05332">
        <ele>2134</ele>
        <time>2022-08-27T13:22:15Z</time>
      </trkpt>
      <trkpt lat="45.87151" lon="7.05332">
        <ele>2134</ele>
        <time>2022-08-27T13:22:25Z</time>
      </trkpt>
      <trkpt lat="45.87149" lon="7.05334">
        <ele>2134</ele>
        <time>2022-08-27T13:22:28Z</time>
      </trkpt>
      <trkpt lat="45.87147" lon="7.05336">
        <ele>2134</ele>
        <time>2022-08-27T13:22:39Z</time>
      </trkpt>
      <trkpt lat="45.87146" lon="7.05337">
        <ele>2134</ele>
        <time>2022-08-27T13:22:43Z</time>
      </trkpt>
      <trkpt lat="45.87144" lon="7.0534">
        <ele>2134</ele>
        <time>2022-08-27T13:22:48Z</time>
      </trkpt>
      <trkpt lat="45.87143" lon="7.0534">
        <ele>2134</ele>
        <time>2022-08-27T13:22:49Z</time>
      </trkpt>
      <trkpt lat="45.87143" lon="7.0534">
        <ele>2134</ele>
        <time>2022-08-27T13:22:50Z</time>
      </trkpt>
      <trkpt lat="45.87143" lon="7.0534">
        <ele>2134</ele>
        <time>2022-08-27T13:22:51Z</time>
      </trkpt>
      <trkpt lat="45.87143" lon="7.0534">
        <ele>2134</ele>
        <time>2022-08-27T13:22:52Z</time>
      </trkpt>
      <trkpt lat="45.87143" lon="7.0534">
        <ele>2134</ele>
        <time>2022-08-27T13:22:53Z</time>
      </trkpt>
      <trkpt lat="45.87143" lon="7.0534">
        <ele>2134</ele>
        <time>2022-08-27T13:22:54Z</time>
      </trkpt>
      <trkpt lat="45.87143" lon="7.0534">
        <ele>2134</ele>
        <time>2022-08-27T13:22:56Z</time>
      </trkpt>
      <trkpt lat="45.87142" lon="7.0534">
        <ele>2134</ele>
        <time>2022-08-27T13:22:57Z</time>
      </trkpt>
      <trkpt lat="45.87142" lon="7.0534">
        <ele>2134</ele>
        <time>2022-08-27T13:22:58Z</time>
      </trkpt>
      <trkpt lat="45.87142" lon="7.0534">
        <ele>2134</ele>
        <time>2022-08-27T13:22:59Z</time>
      </trkpt>
      <trkpt lat="45.87142" lon="7.0534">
        <ele>2134</ele>
        <time>2022-08-27T13:23:00Z</time>
      </trkpt>
      <trkpt lat="45.87142" lon="7.0534">
        <ele>2134</ele>
        <time>2022-08-27T13:23:01Z</time>
      </trkpt>
      <trkpt lat="45.87142" lon="7.0534">
        <ele>2134</ele>
        <time>2022-08-27T13:23:02Z</time>
      </trkpt>
      <trkpt lat="45.87142" lon="7.0534">
        <ele>2134</ele>
        <time>2022-08-27T13:23:03Z</time>
      </trkpt>
      <trkpt lat="45.87141" lon="7.0534">
        <ele>2134</ele>
        <time>2022-08-27T13:23:04Z</time>
      </trkpt>
      <trkpt lat="45.87141" lon="7.0534">
        <ele>2134</ele>
        <time>2022-08-27T13:23:05Z</time>
      </trkpt>
      <trkpt lat="45.87141" lon="7.0534">
        <ele>2134</ele>
        <time>2022-08-27T13:23:06Z</time>
      </trkpt>
      <trkpt lat="45.87141" lon="7.0534">
        <ele>2134</ele>
        <time>2022-08-27T13:23:07Z</time>
      </trkpt>
      <trkpt lat="45.87141" lon="7.05339">
        <ele>2134</ele>
        <time>2022-08-27T13:23:08Z</time>
      </trkpt>
      <trkpt lat="45.87141" lon="7.05339">
        <ele>2134</ele>
        <time>2022-08-27T13:23:09Z</time>
      </trkpt>
      <trkpt lat="45.87141" lon="7.05339">
        <ele>2134</ele>
        <time>2022-08-27T13:23:10Z</time>
      </trkpt>
      <trkpt lat="45.8714" lon="7.05339">
        <ele>2134</ele>
        <time>2022-08-27T13:23:11Z</time>
      </trkpt>
      <trkpt lat="45.8714" lon="7.05339">
        <ele>2134</ele>
        <time>2022-08-27T13:23:12Z</time>
      </trkpt>
      <trkpt lat="45.8714" lon="7.05339">
        <ele>2134</ele>
        <time>2022-08-27T13:23:13Z</time>
      </trkpt>
      <trkpt lat="45.8714" lon="7.05339">
        <ele>2134</ele>
        <time>2022-08-27T13:23:15Z</time>
      </trkpt>
      <trkpt lat="45.8714" lon="7.05339">
        <ele>2134</ele>
        <time>2022-08-27T13:23:16Z</time>
      </trkpt>
      <trkpt lat="45.8714" lon="7.05339">
        <ele>2134</ele>
        <time>2022-08-27T13:23:17Z</time>
      </trkpt>
      <trkpt lat="45.8714" lon="7.05339">
        <ele>2134</ele>
        <time>2022-08-27T13:23:18Z</time>
      </trkpt>
      <trkpt lat="45.87139" lon="7.05339">
        <ele>2134</ele>
        <time>2022-08-27T13:23:19Z</time>
      </trkpt>
      <trkpt lat="45.87139" lon="7.05339">
        <ele>2134</ele>
        <time>2022-08-27T13:23:20Z</time>
      </trkpt>
      <trkpt lat="45.87139" lon="7.05339">
        <ele>2134</ele>
        <time>2022-08-27T13:23:21Z</time>
      </trkpt>
      <trkpt lat="45.87139" lon="7.05339">
        <ele>2134</ele>
        <time>2022-08-27T13:23:22Z</time>
      </trkpt>
      <trkpt lat="45.87139" lon="7.05339">
        <ele>2134</ele>
        <time>2022-08-27T13:23:23Z</time>
      </trkpt>
      <trkpt lat="45.87139" lon="7.05339">
        <ele>2134</ele>
        <time>2022-08-27T13:23:24Z</time>
      </trkpt>
      <trkpt lat="45.87139" lon="7.05339">
        <ele>2134</ele>
        <time>2022-08-27T13:23:25Z</time>
      </trkpt>
      <trkpt lat="45.87138" lon="7.05339">
        <ele>2134</ele>
        <time>2022-08-27T13:23:26Z</time>
      </trkpt>
      <trkpt lat="45.87138" lon="7.05339">
        <ele>2134</ele>
        <time>2022-08-27T13:23:27Z</time>
      </trkpt>
      <trkpt lat="45.87138" lon="7.05339">
        <ele>2134</ele>
        <time>2022-08-27T13:23:28Z</time>
      </trkpt>
      <trkpt lat="45.87138" lon="7.05339">
        <ele>2134</ele>
        <time>2022-08-27T13:23:29Z</time>
      </trkpt>
      <trkpt lat="45.87138" lon="7.05339">
        <ele>2134</ele>
        <time>2022-08-27T13:23:30Z</time>
      </trkpt>
      <trkpt lat="45.87138" lon="7.05339">
        <ele>2134</ele>
        <time>2022-08-27T13:23:31Z</time>
      </trkpt>
      <trkpt lat="45.87138" lon="7.05339">
        <ele>2134</ele>
        <time>2022-08-27T13:23:32Z</time>
      </trkpt>
      <trkpt lat="45.87137" lon="7.05339">
        <ele>2134</ele>
        <time>2022-08-27T13:23:34Z</time>
      </trkpt>
      <trkpt lat="45.87137" lon="7.05339">
        <ele>2134</ele>
        <time>2022-08-27T13:23:35Z</time>
      </trkpt>
      <trkpt lat="45.87137" lon="7.05339">
        <ele>2134</ele>
        <time>2022-08-27T13:23:36Z</time>
      </trkpt>
      <trkpt lat="45.87137" lon="7.05339">
        <ele>2134</ele>
        <time>2022-08-27T13:23:37Z</time>
      </trkpt>
      <trkpt lat="45.87137" lon="7.05339">
        <ele>2134</ele>
        <time>2022-08-27T13:23:38Z</time>
      </trkpt>
      <trkpt lat="45.87137" lon="7.05339">
        <ele>2134</ele>
        <time>2022-08-27T13:23:40Z</time>
      </trkpt>
      <trkpt lat="45.87137" lon="7.05339">
        <ele>2134</ele>
        <time>2022-08-27T13:23:42Z</time>
      </trkpt>
      <trkpt lat="45.87136" lon="7.05339">
        <ele>2134</ele>
        <time>2022-08-27T13:23:43Z</time>
      </trkpt>
      <trkpt lat="45.87136" lon="7.05339">
        <ele>2134</ele>
        <time>2022-08-27T13:23:44Z</time>
      </trkpt>
      <trkpt lat="45.87136" lon="7.05339">
        <ele>2134</ele>
        <time>2022-08-27T13:23:45Z</time>
      </trkpt>
      <trkpt lat="45.87136" lon="7.05339">
        <ele>2134</ele>
        <time>2022-08-27T13:23:47Z</time>
      </trkpt>
      <trkpt lat="45.87136" lon="7.05339">
        <ele>2134</ele>
        <time>2022-08-27T13:23:48Z</time>
      </trkpt>
      <trkpt lat="45.87136" lon="7.05339">
        <ele>2134</ele>
        <time>2022-08-27T13:23:49Z</time>
      </trkpt>
      <trkpt lat="45.87136" lon="7.05339">
        <ele>2134</ele>
        <time>2022-08-27T13:23:50Z</time>
      </trkpt>
      <trkpt lat="45.87135" lon="7.05339">
        <ele>2134</ele>
        <time>2022-08-27T13:23:51Z</time>
      </trkpt>
      <trkpt lat="45.87135" lon="7.05339">
        <ele>2134</ele>
        <time>2022-08-27T13:23:53Z</time>
      </trkpt>
      <trkpt lat="45.87135" lon="7.05339">
        <ele>2134</ele>
        <time>2022-08-27T13:23:55Z</time>
      </trkpt>
      <trkpt lat="45.87135" lon="7.05339">
        <ele>2134</ele>
        <time>2022-08-27T13:23:56Z</time>
      </trkpt>
      <trkpt lat="45.87135" lon="7.05339">
        <ele>2134</ele>
        <time>2022-08-27T13:23:57Z</time>
      </trkpt>
      <trkpt lat="45.87133" lon="7.0534">
        <ele>2134</ele>
        <time>2022-08-27T13:23:59Z</time>
      </trkpt>
      <trkpt lat="45.87131" lon="7.0534">
        <ele>2134</ele>
        <time>2022-08-27T13:24:02Z</time>
      </trkpt>
      <trkpt lat="45.87128" lon="7.05341">
        <ele>2134</ele>
        <time>2022-08-27T13:24:05Z</time>
      </trkpt>
      <trkpt lat="45.87129" lon="7.05341">
        <ele>2134</ele>
        <time>2022-08-27T13:24:06Z</time>
      </trkpt>
      <trkpt lat="45.87129" lon="7.0534">
        <ele>2134</ele>
        <time>2022-08-27T13:24:07Z</time>
      </trkpt>
      <trkpt lat="45.87129" lon="7.0534">
        <ele>2134</ele>
        <time>2022-08-27T13:24:08Z</time>
      </trkpt>
      <trkpt lat="45.87129" lon="7.0534">
        <ele>2134</ele>
        <time>2022-08-27T13:24:09Z</time>
      </trkpt>
      <trkpt lat="45.87129" lon="7.0534">
        <ele>2134</ele>
        <time>2022-08-27T13:24:10Z</time>
      </trkpt>
      <trkpt lat="45.87129" lon="7.0534">
        <ele>2134</ele>
        <time>2022-08-27T13:24:12Z</time>
      </trkpt>
      <trkpt lat="45.87129" lon="7.0534">
        <ele>2134</ele>
        <time>2022-08-27T13:24:13Z</time>
      </trkpt>
      <trkpt lat="45.87129" lon="7.0534">
        <ele>2134</ele>
        <time>2022-08-27T13:24:14Z</time>
      </trkpt>
      <trkpt lat="45.87129" lon="7.0534">
        <ele>2134</ele>
        <time>2022-08-27T13:24:15Z</time>
      </trkpt>
      <trkpt lat="45.87129" lon="7.0534">
        <ele>2134</ele>
        <time>2022-08-27T13:24:16Z</time>
      </trkpt>
      <trkpt lat="45.87129" lon="7.0534">
        <ele>2134</ele>
        <time>2022-08-27T13:24:17Z</time>
      </trkpt>
      <trkpt lat="45.8713" lon="7.05339">
        <ele>2134</ele>
        <time>2022-08-27T13:24:18Z</time>
      </trkpt>
      <trkpt lat="45.8713" lon="7.05339">
        <ele>2134</ele>
        <time>2022-08-27T13:24:19Z</time>
      </trkpt>
      <trkpt lat="45.8713" lon="7.05339">
        <ele>2134</ele>
        <time>2022-08-27T13:24:20Z</time>
      </trkpt>
      <trkpt lat="45.8713" lon="7.05339">
        <ele>2134</ele>
        <time>2022-08-27T13:24:21Z</time>
      </trkpt>
      <trkpt lat="45.8713" lon="7.05339">
        <ele>2134</ele>
        <time>2022-08-27T13:24:22Z</time>
      </trkpt>
      <trkpt lat="45.8713" lon="7.05339">
        <ele>2134</ele>
        <time>2022-08-27T13:24:23Z</time>
      </trkpt>
      <trkpt lat="45.8713" lon="7.05339">
        <ele>2134</ele>
        <time>2022-08-27T13:24:24Z</time>
      </trkpt>
      <trkpt lat="45.8713" lon="7.05339">
        <ele>2134</ele>
        <time>2022-08-27T13:24:25Z</time>
      </trkpt>
      <trkpt lat="45.8713" lon="7.05339">
        <ele>2134</ele>
        <time>2022-08-27T13:24:26Z</time>
      </trkpt>
      <trkpt lat="45.8713" lon="7.05339">
        <ele>2134</ele>
        <time>2022-08-27T13:24:27Z</time>
      </trkpt>
      <trkpt lat="45.87131" lon="7.05338">
        <ele>2134</ele>
        <time>2022-08-27T13:24:28Z</time>
      </trkpt>
      <trkpt lat="45.87131" lon="7.05338">
        <ele>2134</ele>
        <time>2022-08-27T13:24:29Z</time>
      </trkpt>
      <trkpt lat="45.87131" lon="7.05338">
        <ele>2134</ele>
        <time>2022-08-27T13:24:31Z</time>
      </trkpt>
      <trkpt lat="45.87131" lon="7.05338">
        <ele>2134</ele>
        <time>2022-08-27T13:24:32Z</time>
      </trkpt>
      <trkpt lat="45.87131" lon="7.05338">
        <ele>2134</ele>
        <time>2022-08-27T13:24:33Z</time>
      </trkpt>
      <trkpt lat="45.87131" lon="7.05338">
        <ele>2134</ele>
        <time>2022-08-27T13:24:35Z</time>
      </trkpt>
      <trkpt lat="45.87131" lon="7.05338">
        <ele>2134</ele>
        <time>2022-08-27T13:24:36Z</time>
      </trkpt>
      <trkpt lat="45.87131" lon="7.05338">
        <ele>2134</ele>
        <time>2022-08-27T13:24:37Z</time>
      </trkpt>
      <trkpt lat="45.87141" lon="7.05335">
        <ele>2134</ele>
        <time>2022-08-27T13:24:38Z</time>
      </trkpt>
      <trkpt lat="45.87145" lon="7.05336">
        <ele>2134</ele>
        <time>2022-08-27T13:24:39Z</time>
      </trkpt>
      <trkpt lat="45.87145" lon="7.05336">
        <ele>2134</ele>
        <time>2022-08-27T13:24:56Z</time>
      </trkpt>
      <trkpt lat="45.87143" lon="7.05332">
        <ele>2134</ele>
        <time>2022-08-27T13:24:59Z</time>
      </trkpt>
      <trkpt lat="45.87143" lon="7.05332">
        <ele>2134</ele>
        <time>2022-08-27T13:25:00Z</time>
      </trkpt>
      <trkpt lat="45.87143" lon="7.05333">
        <ele>2134</ele>
        <time>2022-08-27T13:25:01Z</time>
      </trkpt>
      <trkpt lat="45.87143" lon="7.05333">
        <ele>2134</ele>
        <time>2022-08-27T13:25:02Z</time>
      </trkpt>
      <trkpt lat="45.87143" lon="7.05333">
        <ele>2134</ele>
        <time>2022-08-27T13:25:03Z</time>
      </trkpt>
      <trkpt lat="45.87143" lon="7.05333">
        <ele>2134</ele>
        <time>2022-08-27T13:25:04Z</time>
      </trkpt>
      <trkpt lat="45.87143" lon="7.05334">
        <ele>2134</ele>
        <time>2022-08-27T13:25:05Z</time>
      </trkpt>
      <trkpt lat="45.87143" lon="7.05334">
        <ele>2134</ele>
        <time>2022-08-27T13:25:06Z</time>
      </trkpt>
      <trkpt lat="45.87143" lon="7.05334">
        <ele>2134</ele>
        <time>2022-08-27T13:25:07Z</time>
      </trkpt>
      <trkpt lat="45.87143" lon="7.05334">
        <ele>2134</ele>
        <time>2022-08-27T13:25:09Z</time>
      </trkpt>
      <trkpt lat="45.87143" lon="7.05335">
        <ele>2134</ele>
        <time>2022-08-27T13:25:10Z</time>
      </trkpt>
      <trkpt lat="45.87143" lon="7.05335">
        <ele>2134</ele>
        <time>2022-08-27T13:25:11Z</time>
      </trkpt>
      <trkpt lat="45.87143" lon="7.05335">
        <ele>2134</ele>
        <time>2022-08-27T13:25:12Z</time>
      </trkpt>
      <trkpt lat="45.87143" lon="7.05336">
        <ele>2134</ele>
        <time>2022-08-27T13:25:13Z</time>
      </trkpt>
      <trkpt lat="45.87143" lon="7.05336">
        <ele>2134</ele>
        <time>2022-08-27T13:25:14Z</time>
      </trkpt>
      <trkpt lat="45.87143" lon="7.05336">
        <ele>2134</ele>
        <time>2022-08-27T13:25:15Z</time>
      </trkpt>
      <trkpt lat="45.87143" lon="7.05336">
        <ele>2134</ele>
        <time>2022-08-27T13:25:16Z</time>
      </trkpt>
      <trkpt lat="45.87143" lon="7.05337">
        <ele>2134</ele>
        <time>2022-08-27T13:25:17Z</time>
      </trkpt>
      <trkpt lat="45.87143" lon="7.05337">
        <ele>2134</ele>
        <time>2022-08-27T13:25:18Z</time>
      </trkpt>
      <trkpt lat="45.87143" lon="7.05337">
        <ele>2134</ele>
        <time>2022-08-27T13:25:19Z</time>
      </trkpt>
      <trkpt lat="45.87143" lon="7.05337">
        <ele>2134</ele>
        <time>2022-08-27T13:25:20Z</time>
      </trkpt>
      <trkpt lat="45.87143" lon="7.05338">
        <ele>2134</ele>
        <time>2022-08-27T13:25:21Z</time>
      </trkpt>
      <trkpt lat="45.87143" lon="7.05338">
        <ele>2134</ele>
        <time>2022-08-27T13:25:22Z</time>
      </trkpt>
      <trkpt lat="45.87143" lon="7.05338">
        <ele>2134</ele>
        <time>2022-08-27T13:25:23Z</time>
      </trkpt>
      <trkpt lat="45.87143" lon="7.05338">
        <ele>2134</ele>
        <time>2022-08-27T13:25:24Z</time>
      </trkpt>
      <trkpt lat="45.87142" lon="7.05338">
        <ele>2134</ele>
        <time>2022-08-27T13:25:25Z</time>
      </trkpt>
      <trkpt lat="45.87141" lon="7.05338">
        <ele>2134</ele>
        <time>2022-08-27T13:25:26Z</time>
      </trkpt>
      <trkpt lat="45.87141" lon="7.05338">
        <ele>2134</ele>
        <time>2022-08-27T13:25:28Z</time>
      </trkpt>
      <trkpt lat="45.8714" lon="7.05338">
        <ele>2134</ele>
        <time>2022-08-27T13:25:29Z</time>
      </trkpt>
      <trkpt lat="45.87139" lon="7.05338">
        <ele>2134</ele>
        <time>2022-08-27T13:25:30Z</time>
      </trkpt>
      <trkpt lat="45.87139" lon="7.05338">
        <ele>2134</ele>
        <time>2022-08-27T13:25:31Z</time>
      </trkpt>
      <trkpt lat="45.87138" lon="7.05338">
        <ele>2134</ele>
        <time>2022-08-27T13:25:32Z</time>
      </trkpt>
      <trkpt lat="45.87137" lon="7.05337">
        <ele>2134</ele>
        <time>2022-08-27T13:25:33Z</time>
      </trkpt>
      <trkpt lat="45.87137" lon="7.05337">
        <ele>2134</ele>
        <time>2022-08-27T13:25:34Z</time>
      </trkpt>
      <trkpt lat="45.87134" lon="7.05338">
        <ele>2134</ele>
        <time>2022-08-27T13:25:42Z</time>
      </trkpt>
      <trkpt lat="45.87134" lon="7.05338">
        <ele>2134</ele>
        <time>2022-08-27T13:25:43Z</time>
      </trkpt>
      <trkpt lat="45.87134" lon="7.05338">
        <ele>2134</ele>
        <time>2022-08-27T13:25:44Z</time>
      </trkpt>
      <trkpt lat="45.87133" lon="7.05338">
        <ele>2134</ele>
        <time>2022-08-27T13:25:45Z</time>
      </trkpt>
      <trkpt lat="45.87133" lon="7.05338">
        <ele>2134</ele>
        <time>2022-08-27T13:25:47Z</time>
      </trkpt>
      <trkpt lat="45.87133" lon="7.05338">
        <ele>2134</ele>
        <time>2022-08-27T13:25:48Z</time>
      </trkpt>
      <trkpt lat="45.87133" lon="7.05338">
        <ele>2134</ele>
        <time>2022-08-27T13:25:50Z</time>
      </trkpt>
      <trkpt lat="45.87133" lon="7.05338">
        <ele>2134</ele>
        <time>2022-08-27T13:25:51Z</time>
      </trkpt>
      <trkpt lat="45.87133" lon="7.05338">
        <ele>2134</ele>
        <time>2022-08-27T13:25:52Z</time>
      </trkpt>
      <trkpt lat="45.87133" lon="7.05338">
        <ele>2134</ele>
        <time>2022-08-27T13:25:53Z</time>
      </trkpt>
      <trkpt lat="45.87133" lon="7.05338">
        <ele>2134</ele>
        <time>2022-08-27T13:25:54Z</time>
      </trkpt>
      <trkpt lat="45.87133" lon="7.05338">
        <ele>2134</ele>
        <time>2022-08-27T13:25:55Z</time>
      </trkpt>
      <trkpt lat="45.87133" lon="7.05338">
        <ele>2134</ele>
        <time>2022-08-27T13:25:56Z</time>
      </trkpt>
      <trkpt lat="45.87132" lon="7.05339">
        <ele>2134</ele>
        <time>2022-08-27T13:25:57Z</time>
      </trkpt>
      <trkpt lat="45.87132" lon="7.05339">
        <ele>2134</ele>
        <time>2022-08-27T13:25:58Z</time>
      </trkpt>
      <trkpt lat="45.87132" lon="7.05339">
        <ele>2134</ele>
        <time>2022-08-27T13:25:59Z</time>
      </trkpt>
      <trkpt lat="45.87132" lon="7.05339">
        <ele>2134</ele>
        <time>2022-08-27T13:26:00Z</time>
      </trkpt>
      <trkpt lat="45.87132" lon="7.05339">
        <ele>2134</ele>
        <time>2022-08-27T13:26:01Z</time>
      </trkpt>
      <trkpt lat="45.87132" lon="7.05339">
        <ele>2134</ele>
        <time>2022-08-27T13:26:02Z</time>
      </trkpt>
      <trkpt lat="45.87132" lon="7.05339">
        <ele>2134</ele>
        <time>2022-08-27T13:26:03Z</time>
      </trkpt>
      <trkpt lat="45.87132" lon="7.05339">
        <ele>2134</ele>
        <time>2022-08-27T13:26:04Z</time>
      </trkpt>
      <trkpt lat="45.87132" lon="7.05339">
        <ele>2134</ele>
        <time>2022-08-27T13:26:06Z</time>
      </trkpt>
      <trkpt lat="45.87132" lon="7.05339">
        <ele>2134</ele>
        <time>2022-08-27T13:26:07Z</time>
      </trkpt>
      <trkpt lat="45.87132" lon="7.05339">
        <ele>2134</ele>
        <time>2022-08-27T13:26:08Z</time>
      </trkpt>
      <trkpt lat="45.87131" lon="7.05339">
        <ele>2134</ele>
        <time>2022-08-27T13:26:09Z</time>
      </trkpt>
      <trkpt lat="45.87131" lon="7.05339">
        <ele>2134</ele>
        <time>2022-08-27T13:26:10Z</time>
      </trkpt>
      <trkpt lat="45.87131" lon="7.05339">
        <ele>2134</ele>
        <time>2022-08-27T13:26:11Z</time>
      </trkpt>
      <trkpt lat="45.87131" lon="7.05339">
        <ele>2134</ele>
        <time>2022-08-27T13:26:12Z</time>
      </trkpt>
      <trkpt lat="45.87131" lon="7.05339">
        <ele>2134</ele>
        <time>2022-08-27T13:26:13Z</time>
      </trkpt>
      <trkpt lat="45.87131" lon="7.05339">
        <ele>2134</ele>
        <time>2022-08-27T13:26:14Z</time>
      </trkpt>
      <trkpt lat="45.87131" lon="7.05339">
        <ele>2134</ele>
        <time>2022-08-27T13:26:15Z</time>
      </trkpt>
      <trkpt lat="45.87131" lon="7.0534">
        <ele>2134</ele>
        <time>2022-08-27T13:26:16Z</time>
      </trkpt>
      <trkpt lat="45.87131" lon="7.0534">
        <ele>2134</ele>
        <time>2022-08-27T13:26:17Z</time>
      </trkpt>
      <trkpt lat="45.87131" lon="7.0534">
        <ele>2134</ele>
        <time>2022-08-27T13:26:18Z</time>
      </trkpt>
      <trkpt lat="45.87131" lon="7.0534">
        <ele>2134</ele>
        <time>2022-08-27T13:26:19Z</time>
      </trkpt>
      <trkpt lat="45.8713" lon="7.0534">
        <ele>2134</ele>
        <time>2022-08-27T13:26:20Z</time>
      </trkpt>
      <trkpt lat="45.8713" lon="7.0534">
        <ele>2134</ele>
        <time>2022-08-27T13:26:21Z</time>
      </trkpt>
      <trkpt lat="45.8713" lon="7.0534">
        <ele>2134</ele>
        <time>2022-08-27T13:26:22Z</time>
      </trkpt>
      <trkpt lat="45.8713" lon="7.0534">
        <ele>2134</ele>
        <time>2022-08-27T13:26:23Z</time>
      </trkpt>
      <trkpt lat="45.8713" lon="7.0534">
        <ele>2134</ele>
        <time>2022-08-27T13:26:25Z</time>
      </trkpt>
      <trkpt lat="45.8713" lon="7.0534">
        <ele>2134</ele>
        <time>2022-08-27T13:26:26Z</time>
      </trkpt>
      <trkpt lat="45.8713" lon="7.0534">
        <ele>2134</ele>
        <time>2022-08-27T13:26:27Z</time>
      </trkpt>
      <trkpt lat="45.8713" lon="7.0534">
        <ele>2134</ele>
        <time>2022-08-27T13:26:28Z</time>
      </trkpt>
      <trkpt lat="45.8713" lon="7.0534">
        <ele>2134</ele>
        <time>2022-08-27T13:26:29Z</time>
      </trkpt>
      <trkpt lat="45.8713" lon="7.0534">
        <ele>2134</ele>
        <time>2022-08-27T13:26:30Z</time>
      </trkpt>
      <trkpt lat="45.87129" lon="7.0534">
        <ele>2134</ele>
        <time>2022-08-27T13:26:31Z</time>
      </trkpt>
      <trkpt lat="45.87129" lon="7.0534">
        <ele>2134</ele>
        <time>2022-08-27T13:26:32Z</time>
      </trkpt>
      <trkpt lat="45.87129" lon="7.0534">
        <ele>2134</ele>
        <time>2022-08-27T13:26:33Z</time>
      </trkpt>
      <trkpt lat="45.87129" lon="7.0534">
        <ele>2134</ele>
        <time>2022-08-27T13:26:34Z</time>
      </trkpt>
      <trkpt lat="45.87129" lon="7.05341">
        <ele>2134</ele>
        <time>2022-08-27T13:26:35Z</time>
      </trkpt>
      <trkpt lat="45.87129" lon="7.05341">
        <ele>2134</ele>
        <time>2022-08-27T13:26:36Z</time>
      </trkpt>
      <trkpt lat="45.87129" lon="7.05341">
        <ele>2134</ele>
        <time>2022-08-27T13:26:37Z</time>
      </trkpt>
      <trkpt lat="45.87129" lon="7.05341">
        <ele>2134</ele>
        <time>2022-08-27T13:26:38Z</time>
      </trkpt>
      <trkpt lat="45.87129" lon="7.05341">
        <ele>2134</ele>
        <time>2022-08-27T13:26:39Z</time>
      </trkpt>
      <trkpt lat="45.87129" lon="7.05341">
        <ele>2134</ele>
        <time>2022-08-27T13:26:40Z</time>
      </trkpt>
      <trkpt lat="45.87129" lon="7.05341">
        <ele>2134</ele>
        <time>2022-08-27T13:26:41Z</time>
      </trkpt>
      <trkpt lat="45.87128" lon="7.05341">
        <ele>2134</ele>
        <time>2022-08-27T13:26:42Z</time>
      </trkpt>
      <trkpt lat="45.87128" lon="7.05341">
        <ele>2134</ele>
        <time>2022-08-27T13:26:44Z</time>
      </trkpt>
      <trkpt lat="45.87128" lon="7.05341">
        <ele>2134</ele>
        <time>2022-08-27T13:26:45Z</time>
      </trkpt>
      <trkpt lat="45.87128" lon="7.05341">
        <ele>2134</ele>
        <time>2022-08-27T13:26:46Z</time>
      </trkpt>
      <trkpt lat="45.87128" lon="7.05341">
        <ele>2134</ele>
        <time>2022-08-27T13:26:47Z</time>
      </trkpt>
      <trkpt lat="45.87128" lon="7.05341">
        <ele>2134</ele>
        <time>2022-08-27T13:26:48Z</time>
      </trkpt>
      <trkpt lat="45.87128" lon="7.05341">
        <ele>2134</ele>
        <time>2022-08-27T13:26:49Z</time>
      </trkpt>
      <trkpt lat="45.87128" lon="7.05341">
        <ele>2134</ele>
        <time>2022-08-27T13:26:50Z</time>
      </trkpt>
      <trkpt lat="45.87128" lon="7.05341">
        <ele>2134</ele>
        <time>2022-08-27T13:26:52Z</time>
      </trkpt>
      <trkpt lat="45.87128" lon="7.05342">
        <ele>2134</ele>
        <time>2022-08-27T13:26:53Z</time>
      </trkpt>
      <trkpt lat="45.87127" lon="7.05342">
        <ele>2134</ele>
        <time>2022-08-27T13:26:54Z</time>
      </trkpt>
      <trkpt lat="45.87127" lon="7.05342">
        <ele>2134</ele>
        <time>2022-08-27T13:26:55Z</time>
      </trkpt>
      <trkpt lat="45.87127" lon="7.05342">
        <ele>2134</ele>
        <time>2022-08-27T13:26:56Z</time>
      </trkpt>
      <trkpt lat="45.87127" lon="7.05342">
        <ele>2134</ele>
        <time>2022-08-27T13:26:57Z</time>
      </trkpt>
      <trkpt lat="45.87127" lon="7.05342">
        <ele>2134</ele>
        <time>2022-08-27T13:26:58Z</time>
      </trkpt>
      <trkpt lat="45.87127" lon="7.05342">
        <ele>2134</ele>
        <time>2022-08-27T13:26:59Z</time>
      </trkpt>
      <trkpt lat="45.87127" lon="7.05342">
        <ele>2134</ele>
        <time>2022-08-27T13:27:00Z</time>
      </trkpt>
      <trkpt lat="45.87127" lon="7.05342">
        <ele>2134</ele>
        <time>2022-08-27T13:27:01Z</time>
      </trkpt>
      <trkpt lat="45.87127" lon="7.05342">
        <ele>2134</ele>
        <time>2022-08-27T13:27:03Z</time>
      </trkpt>
      <trkpt lat="45.87127" lon="7.05342">
        <ele>2134</ele>
        <time>2022-08-27T13:27:04Z</time>
      </trkpt>
      <trkpt lat="45.87126" lon="7.05342">
        <ele>2134</ele>
        <time>2022-08-27T13:27:05Z</time>
      </trkpt>
      <trkpt lat="45.87126" lon="7.05342">
        <ele>2134</ele>
        <time>2022-08-27T13:27:07Z</time>
      </trkpt>
      <trkpt lat="45.87126" lon="7.05342">
        <ele>2134</ele>
        <time>2022-08-27T13:27:08Z</time>
      </trkpt>
      <trkpt lat="45.87126" lon="7.05342">
        <ele>2134</ele>
        <time>2022-08-27T13:27:09Z</time>
      </trkpt>
      <trkpt lat="45.87126" lon="7.05342">
        <ele>2134</ele>
        <time>2022-08-27T13:27:10Z</time>
      </trkpt>
      <trkpt lat="45.87126" lon="7.05342">
        <ele>2134</ele>
        <time>2022-08-27T13:27:11Z</time>
      </trkpt>
      <trkpt lat="45.87126" lon="7.05343">
        <ele>2134</ele>
        <time>2022-08-27T13:27:12Z</time>
      </trkpt>
      <trkpt lat="45.87126" lon="7.05343">
        <ele>2134</ele>
        <time>2022-08-27T13:27:13Z</time>
      </trkpt>
      <trkpt lat="45.87126" lon="7.05343">
        <ele>2134</ele>
        <time>2022-08-27T13:27:14Z</time>
      </trkpt>
      <trkpt lat="45.87126" lon="7.05343">
        <ele>2134</ele>
        <time>2022-08-27T13:27:15Z</time>
      </trkpt>
      <trkpt lat="45.87125" lon="7.05343">
        <ele>2134</ele>
        <time>2022-08-27T13:27:16Z</time>
      </trkpt>
      <trkpt lat="45.87125" lon="7.05343">
        <ele>2134</ele>
        <time>2022-08-27T13:27:17Z</time>
      </trkpt>
      <trkpt lat="45.87125" lon="7.05343">
        <ele>2134</ele>
        <time>2022-08-27T13:27:18Z</time>
      </trkpt>
      <trkpt lat="45.87125" lon="7.05343">
        <ele>2134</ele>
        <time>2022-08-27T13:27:19Z</time>
      </trkpt>
      <trkpt lat="45.87125" lon="7.05343">
        <ele>2134</ele>
        <time>2022-08-27T13:27:20Z</time>
      </trkpt>
      <trkpt lat="45.87124" lon="7.05343">
        <ele>2134</ele>
        <time>2022-08-27T13:27:22Z</time>
      </trkpt>
      <trkpt lat="45.87124" lon="7.05343">
        <ele>2134</ele>
        <time>2022-08-27T13:27:23Z</time>
      </trkpt>
      <trkpt lat="45.87123" lon="7.05343">
        <ele>2134</ele>
        <time>2022-08-27T13:27:24Z</time>
      </trkpt>
      <trkpt lat="45.87123" lon="7.05344">
        <ele>2134</ele>
        <time>2022-08-27T13:27:25Z</time>
      </trkpt>
      <trkpt lat="45.87122" lon="7.05344">
        <ele>2134</ele>
        <time>2022-08-27T13:27:26Z</time>
      </trkpt>
      <trkpt lat="45.87122" lon="7.05344">
        <ele>2134</ele>
        <time>2022-08-27T13:27:27Z</time>
      </trkpt>
      <trkpt lat="45.87121" lon="7.05344">
        <ele>2134</ele>
        <time>2022-08-27T13:27:28Z</time>
      </trkpt>
      <trkpt lat="45.87121" lon="7.05344">
        <ele>2134</ele>
        <time>2022-08-27T13:27:29Z</time>
      </trkpt>
      <trkpt lat="45.8712" lon="7.05344">
        <ele>2134</ele>
        <time>2022-08-27T13:27:30Z</time>
      </trkpt>
      <trkpt lat="45.8712" lon="7.05345">
        <ele>2134</ele>
        <time>2022-08-27T13:27:31Z</time>
      </trkpt>
      <trkpt lat="45.87119" lon="7.05345">
        <ele>2134</ele>
        <time>2022-08-27T13:27:32Z</time>
      </trkpt>
      <trkpt lat="45.87119" lon="7.05345">
        <ele>2134</ele>
        <time>2022-08-27T13:27:33Z</time>
      </trkpt>
      <trkpt lat="45.87119" lon="7.05345">
        <ele>2134</ele>
        <time>2022-08-27T13:27:34Z</time>
      </trkpt>
      <trkpt lat="45.87119" lon="7.05344">
        <ele>2134</ele>
        <time>2022-08-27T13:27:35Z</time>
      </trkpt>
      <trkpt lat="45.8712" lon="7.05344">
        <ele>2134</ele>
        <time>2022-08-27T13:27:36Z</time>
      </trkpt>
      <trkpt lat="45.8712" lon="7.05344">
        <ele>2134</ele>
        <time>2022-08-27T13:27:37Z</time>
      </trkpt>
      <trkpt lat="45.8712" lon="7.05344">
        <ele>2134</ele>
        <time>2022-08-27T13:27:38Z</time>
      </trkpt>
      <trkpt lat="45.87121" lon="7.05343">
        <ele>2134</ele>
        <time>2022-08-27T13:27:39Z</time>
      </trkpt>
      <trkpt lat="45.87121" lon="7.05343">
        <ele>2134</ele>
        <time>2022-08-27T13:27:41Z</time>
      </trkpt>
      <trkpt lat="45.87121" lon="7.05343">
        <ele>2134</ele>
        <time>2022-08-27T13:27:42Z</time>
      </trkpt>
      <trkpt lat="45.87122" lon="7.05343">
        <ele>2134</ele>
        <time>2022-08-27T13:27:43Z</time>
      </trkpt>
      <trkpt lat="45.87122" lon="7.05342">
        <ele>2134</ele>
        <time>2022-08-27T13:27:44Z</time>
      </trkpt>
      <trkpt lat="45.87122" lon="7.05342">
        <ele>2134</ele>
        <time>2022-08-27T13:27:45Z</time>
      </trkpt>
      <trkpt lat="45.87123" lon="7.05342">
        <ele>2134</ele>
        <time>2022-08-27T13:27:46Z</time>
      </trkpt>
      <trkpt lat="45.87123" lon="7.05342">
        <ele>2134</ele>
        <time>2022-08-27T13:27:47Z</time>
      </trkpt>
      <trkpt lat="45.87123" lon="7.05341">
        <ele>2134</ele>
        <time>2022-08-27T13:27:48Z</time>
      </trkpt>
      <trkpt lat="45.87124" lon="7.05341">
        <ele>2134</ele>
        <time>2022-08-27T13:27:49Z</time>
      </trkpt>
      <trkpt lat="45.87124" lon="7.05341">
        <ele>2134</ele>
        <time>2022-08-27T13:27:50Z</time>
      </trkpt>
      <trkpt lat="45.87124" lon="7.05341">
        <ele>2134</ele>
        <time>2022-08-27T13:27:51Z</time>
      </trkpt>
      <trkpt lat="45.87125" lon="7.0534">
        <ele>2134</ele>
        <time>2022-08-27T13:27:52Z</time>
      </trkpt>
      <trkpt lat="45.87125" lon="7.0534">
        <ele>2134</ele>
        <time>2022-08-27T13:27:53Z</time>
      </trkpt>
      <trkpt lat="45.87126" lon="7.0534">
        <ele>2134</ele>
        <time>2022-08-27T13:27:54Z</time>
      </trkpt>
      <trkpt lat="45.87126" lon="7.0534">
        <ele>2134</ele>
        <time>2022-08-27T13:27:55Z</time>
      </trkpt>
      <trkpt lat="45.87126" lon="7.05339">
        <ele>2134</ele>
        <time>2022-08-27T13:27:56Z</time>
      </trkpt>
      <trkpt lat="45.87127" lon="7.05339">
        <ele>2134</ele>
        <time>2022-08-27T13:27:57Z</time>
      </trkpt>
      <trkpt lat="45.87127" lon="7.05339">
        <ele>2134</ele>
        <time>2022-08-27T13:27:58Z</time>
      </trkpt>
      <trkpt lat="45.87127" lon="7.05339">
        <ele>2134</ele>
        <time>2022-08-27T13:28:00Z</time>
      </trkpt>
      <trkpt lat="45.87128" lon="7.05338">
        <ele>2134</ele>
        <time>2022-08-27T13:28:01Z</time>
      </trkpt>
      <trkpt lat="45.87128" lon="7.05338">
        <ele>2134</ele>
        <time>2022-08-27T13:28:17Z</time>
      </trkpt>
      <trkpt lat="45.87127" lon="7.05341">
        <ele>2134</ele>
        <time>2022-08-27T13:28:18Z</time>
      </trkpt>
      <trkpt lat="45.87125" lon="7.05342">
        <ele>2134</ele>
        <time>2022-08-27T13:28:26Z</time>
      </trkpt>
      <trkpt lat="45.87125" lon="7.05342">
        <ele>2134</ele>
        <time>2022-08-27T13:28:27Z</time>
      </trkpt>
      <trkpt lat="45.87125" lon="7.05342">
        <ele>2134</ele>
        <time>2022-08-27T13:28:28Z</time>
      </trkpt>
      <trkpt lat="45.87125" lon="7.05341">
        <ele>2134</ele>
        <time>2022-08-27T13:28:29Z</time>
      </trkpt>
      <trkpt lat="45.87125" lon="7.05341">
        <ele>2134</ele>
        <time>2022-08-27T13:28:30Z</time>
      </trkpt>
      <trkpt lat="45.87126" lon="7.05341">
        <ele>2134</ele>
        <time>2022-08-27T13:28:31Z</time>
      </trkpt>
      <trkpt lat="45.87126" lon="7.05341">
        <ele>2134</ele>
        <time>2022-08-27T13:28:32Z</time>
      </trkpt>
      <trkpt lat="45.87126" lon="7.05341">
        <ele>2134</ele>
        <time>2022-08-27T13:28:33Z</time>
      </trkpt>
      <trkpt lat="45.87126" lon="7.05341">
        <ele>2134</ele>
        <time>2022-08-27T13:28:34Z</time>
      </trkpt>
      <trkpt lat="45.87126" lon="7.05341">
        <ele>2134</ele>
        <time>2022-08-27T13:28:35Z</time>
      </trkpt>
      <trkpt lat="45.87126" lon="7.05341">
        <ele>2134</ele>
        <time>2022-08-27T13:28:36Z</time>
      </trkpt>
      <trkpt lat="45.87127" lon="7.0534">
        <ele>2134</ele>
        <time>2022-08-27T13:28:38Z</time>
      </trkpt>
      <trkpt lat="45.87127" lon="7.0534">
        <ele>2134</ele>
        <time>2022-08-27T13:28:39Z</time>
      </trkpt>
      <trkpt lat="45.87127" lon="7.0534">
        <ele>2134</ele>
        <time>2022-08-27T13:28:40Z</time>
      </trkpt>
      <trkpt lat="45.87127" lon="7.0534">
        <ele>2134</ele>
        <time>2022-08-27T13:28:41Z</time>
      </trkpt>
      <trkpt lat="45.87127" lon="7.0534">
        <ele>2134</ele>
        <time>2022-08-27T13:28:42Z</time>
      </trkpt>
      <trkpt lat="45.87127" lon="7.0534">
        <ele>2134</ele>
        <time>2022-08-27T13:28:43Z</time>
      </trkpt>
      <trkpt lat="45.87127" lon="7.0534">
        <ele>2134</ele>
        <time>2022-08-27T13:28:44Z</time>
      </trkpt>
      <trkpt lat="45.87128" lon="7.05339">
        <ele>2134</ele>
        <time>2022-08-27T13:28:45Z</time>
      </trkpt>
      <trkpt lat="45.87128" lon="7.05339">
        <ele>2134</ele>
        <time>2022-08-27T13:28:46Z</time>
      </trkpt>
      <trkpt lat="45.87128" lon="7.05339">
        <ele>2134</ele>
        <time>2022-08-27T13:28:47Z</time>
      </trkpt>
      <trkpt lat="45.87128" lon="7.05339">
        <ele>2134</ele>
        <time>2022-08-27T13:28:48Z</time>
      </trkpt>
      <trkpt lat="45.87128" lon="7.05339">
        <ele>2134</ele>
        <time>2022-08-27T13:28:49Z</time>
      </trkpt>
      <trkpt lat="45.87128" lon="7.05339">
        <ele>2134</ele>
        <time>2022-08-27T13:28:50Z</time>
      </trkpt>
      <trkpt lat="45.87128" lon="7.05339">
        <ele>2134</ele>
        <time>2022-08-27T13:28:51Z</time>
      </trkpt>
      <trkpt lat="45.87129" lon="7.05339">
        <ele>2134</ele>
        <time>2022-08-27T13:28:52Z</time>
      </trkpt>
      <trkpt lat="45.87129" lon="7.05338">
        <ele>2134</ele>
        <time>2022-08-27T13:28:53Z</time>
      </trkpt>
      <trkpt lat="45.87129" lon="7.05338">
        <ele>2134</ele>
        <time>2022-08-27T13:28:54Z</time>
      </trkpt>
      <trkpt lat="45.87129" lon="7.05338">
        <ele>2134</ele>
        <time>2022-08-27T13:28:56Z</time>
      </trkpt>
      <trkpt lat="45.87129" lon="7.05338">
        <ele>2134</ele>
        <time>2022-08-27T13:28:57Z</time>
      </trkpt>
      <trkpt lat="45.87129" lon="7.05338">
        <ele>2134</ele>
        <time>2022-08-27T13:28:58Z</time>
      </trkpt>
      <trkpt lat="45.87129" lon="7.05338">
        <ele>2134</ele>
        <time>2022-08-27T13:28:59Z</time>
      </trkpt>
      <trkpt lat="45.87129" lon="7.05338">
        <ele>2134</ele>
        <time>2022-08-27T13:29:02Z</time>
      </trkpt>
      <trkpt lat="45.87129" lon="7.05338">
        <ele>2134</ele>
        <time>2022-08-27T13:29:03Z</time>
      </trkpt>
      <trkpt lat="45.87129" lon="7.05338">
        <ele>2134</ele>
        <time>2022-08-27T13:29:04Z</time>
      </trkpt>
      <trkpt lat="45.87129" lon="7.05338">
        <ele>2134</ele>
        <time>2022-08-27T13:29:06Z</time>
      </trkpt>
      <trkpt lat="45.87129" lon="7.05338">
        <ele>2134</ele>
        <time>2022-08-27T13:29:07Z</time>
      </trkpt>
      <trkpt lat="45.87129" lon="7.05338">
        <ele>2134</ele>
        <time>2022-08-27T13:29:09Z</time>
      </trkpt>
      <trkpt lat="45.87129" lon="7.05338">
        <ele>2134</ele>
        <time>2022-08-27T13:29:11Z</time>
      </trkpt>
      <trkpt lat="45.87129" lon="7.05339">
        <ele>2134</ele>
        <time>2022-08-27T13:29:12Z</time>
      </trkpt>
      <trkpt lat="45.87129" lon="7.05339">
        <ele>2134</ele>
        <time>2022-08-27T13:29:14Z</time>
      </trkpt>
      <trkpt lat="45.87128" lon="7.05339">
        <ele>2134</ele>
        <time>2022-08-27T13:29:18Z</time>
      </trkpt>
      <trkpt lat="45.87128" lon="7.05339">
        <ele>2134</ele>
        <time>2022-08-27T13:29:20Z</time>
      </trkpt>
      <trkpt lat="45.87128" lon="7.05339">
        <ele>2134</ele>
        <time>2022-08-27T13:29:21Z</time>
      </trkpt>
      <trkpt lat="45.87128" lon="7.05339">
        <ele>2134</ele>
        <time>2022-08-27T13:29:23Z</time>
      </trkpt>
      <trkpt lat="45.87128" lon="7.05339">
        <ele>2134</ele>
        <time>2022-08-27T13:29:26Z</time>
      </trkpt>
      <trkpt lat="45.87128" lon="7.05339">
        <ele>2134</ele>
        <time>2022-08-27T13:29:28Z</time>
      </trkpt>
      <trkpt lat="45.87128" lon="7.05339">
        <ele>2134</ele>
        <time>2022-08-27T13:29:29Z</time>
      </trkpt>
      <trkpt lat="45.87128" lon="7.05339">
        <ele>2134</ele>
        <time>2022-08-27T13:29:31Z</time>
      </trkpt>
      <trkpt lat="45.87128" lon="7.05339">
        <ele>2134</ele>
        <time>2022-08-27T13:29:32Z</time>
      </trkpt>
      <trkpt lat="45.87128" lon="7.05339">
        <ele>2134</ele>
        <time>2022-08-27T13:29:33Z</time>
      </trkpt>
      <trkpt lat="45.87128" lon="7.05339">
        <ele>2134</ele>
        <time>2022-08-27T13:29:35Z</time>
      </trkpt>
      <trkpt lat="45.87128" lon="7.05339">
        <ele>2134</ele>
        <time>2022-08-27T13:29:37Z</time>
      </trkpt>
      <trkpt lat="45.87128" lon="7.05339">
        <ele>2134</ele>
        <time>2022-08-27T13:29:38Z</time>
      </trkpt>
      <trkpt lat="45.87128" lon="7.0534">
        <ele>2134</ele>
        <time>2022-08-27T13:29:39Z</time>
      </trkpt>
      <trkpt lat="45.87128" lon="7.0534">
        <ele>2134</ele>
        <time>2022-08-27T13:29:41Z</time>
      </trkpt>
      <trkpt lat="45.87128" lon="7.0534">
        <ele>2134</ele>
        <time>2022-08-27T13:29:42Z</time>
      </trkpt>
      <trkpt lat="45.87128" lon="7.0534">
        <ele>2134</ele>
        <time>2022-08-27T13:29:44Z</time>
      </trkpt>
      <trkpt lat="45.87128" lon="7.0534">
        <ele>2134</ele>
        <time>2022-08-27T13:29:45Z</time>
      </trkpt>
      <trkpt lat="45.87127" lon="7.0534">
        <ele>2134</ele>
        <time>2022-08-27T13:29:46Z</time>
      </trkpt>
      <trkpt lat="45.87127" lon="7.0534">
        <ele>2134</ele>
        <time>2022-08-27T13:29:47Z</time>
      </trkpt>
      <trkpt lat="45.87127" lon="7.0534">
        <ele>2134</ele>
        <time>2022-08-27T13:29:49Z</time>
      </trkpt>
      <trkpt lat="45.87127" lon="7.0534">
        <ele>2134</ele>
        <time>2022-08-27T13:29:50Z</time>
      </trkpt>
      <trkpt lat="45.87127" lon="7.0534">
        <ele>2134</ele>
        <time>2022-08-27T13:29:52Z</time>
      </trkpt>
      <trkpt lat="45.87127" lon="7.0534">
        <ele>2134</ele>
        <time>2022-08-27T13:29:56Z</time>
      </trkpt>
      <trkpt lat="45.87127" lon="7.0534">
        <ele>2134</ele>
        <time>2022-08-27T13:29:58Z</time>
      </trkpt>
      <trkpt lat="45.87127" lon="7.0534">
        <ele>2134</ele>
        <time>2022-08-27T13:30:01Z</time>
      </trkpt>
      <trkpt lat="45.87127" lon="7.0534">
        <ele>2134</ele>
        <time>2022-08-27T13:30:03Z</time>
      </trkpt>
      <trkpt lat="45.87127" lon="7.0534">
        <ele>2134</ele>
        <time>2022-08-27T13:30:04Z</time>
      </trkpt>
      <trkpt lat="45.87127" lon="7.05341">
        <ele>2134</ele>
        <time>2022-08-27T13:30:06Z</time>
      </trkpt>
      <trkpt lat="45.87127" lon="7.05341">
        <ele>2134</ele>
        <time>2022-08-27T13:30:07Z</time>
      </trkpt>
      <trkpt lat="45.87127" lon="7.05341">
        <ele>2134</ele>
        <time>2022-08-27T13:30:09Z</time>
      </trkpt>
      <trkpt lat="45.87127" lon="7.05341">
        <ele>2134</ele>
        <time>2022-08-27T13:30:11Z</time>
      </trkpt>
      <trkpt lat="45.87127" lon="7.05341">
        <ele>2134</ele>
        <time>2022-08-27T13:30:13Z</time>
      </trkpt>
      <trkpt lat="45.87127" lon="7.05341">
        <ele>2134</ele>
        <time>2022-08-27T13:30:15Z</time>
      </trkpt>
      <trkpt lat="45.87126" lon="7.05341">
        <ele>2134</ele>
        <time>2022-08-27T13:30:16Z</time>
      </trkpt>
      <trkpt lat="45.87126" lon="7.05341">
        <ele>2134</ele>
        <time>2022-08-27T13:30:17Z</time>
      </trkpt>
      <trkpt lat="45.87126" lon="7.05341">
        <ele>2134</ele>
        <time>2022-08-27T13:30:18Z</time>
      </trkpt>
      <trkpt lat="45.87126" lon="7.05341">
        <ele>2134</ele>
        <time>2022-08-27T13:30:20Z</time>
      </trkpt>
      <trkpt lat="45.87126" lon="7.05341">
        <ele>2134</ele>
        <time>2022-08-27T13:30:21Z</time>
      </trkpt>
      <trkpt lat="45.87126" lon="7.05341">
        <ele>2134</ele>
        <time>2022-08-27T13:30:22Z</time>
      </trkpt>
      <trkpt lat="45.87126" lon="7.05341">
        <ele>2134</ele>
        <time>2022-08-27T13:30:24Z</time>
      </trkpt>
      <trkpt lat="45.87126" lon="7.05341">
        <ele>2134</ele>
        <time>2022-08-27T13:30:25Z</time>
      </trkpt>
      <trkpt lat="45.87126" lon="7.05341">
        <ele>2134</ele>
        <time>2022-08-27T13:30:27Z</time>
      </trkpt>
      <trkpt lat="45.87126" lon="7.05341">
        <ele>2134</ele>
        <time>2022-08-27T13:30:29Z</time>
      </trkpt>
      <trkpt lat="45.87126" lon="7.05341">
        <ele>2134</ele>
        <time>2022-08-27T13:30:30Z</time>
      </trkpt>
      <trkpt lat="45.87126" lon="7.05341">
        <ele>2134</ele>
        <time>2022-08-27T13:30:33Z</time>
      </trkpt>
      <trkpt lat="45.87126" lon="7.05342">
        <ele>2134</ele>
        <time>2022-08-27T13:30:34Z</time>
      </trkpt>
      <trkpt lat="45.87126" lon="7.05342">
        <ele>2134</ele>
        <time>2022-08-27T13:30:36Z</time>
      </trkpt>
      <trkpt lat="45.87126" lon="7.05342">
        <ele>2134</ele>
        <time>2022-08-27T13:30:39Z</time>
      </trkpt>
      <trkpt lat="45.87126" lon="7.05342">
        <ele>2134</ele>
        <time>2022-08-27T13:30:41Z</time>
      </trkpt>
      <trkpt lat="45.87125" lon="7.05342">
        <ele>2134</ele>
        <time>2022-08-27T13:30:44Z</time>
      </trkpt>
      <trkpt lat="45.87125" lon="7.05342">
        <ele>2134</ele>
        <time>2022-08-27T13:30:46Z</time>
      </trkpt>
      <trkpt lat="45.87125" lon="7.05342">
        <ele>2134</ele>
        <time>2022-08-27T13:30:47Z</time>
      </trkpt>
      <trkpt lat="45.87125" lon="7.05342">
        <ele>2134</ele>
        <time>2022-08-27T13:30:49Z</time>
      </trkpt>
      <trkpt lat="45.87125" lon="7.05342">
        <ele>2134</ele>
        <time>2022-08-27T13:30:51Z</time>
      </trkpt>
      <trkpt lat="45.87125" lon="7.05342">
        <ele>2134</ele>
        <time>2022-08-27T13:30:53Z</time>
      </trkpt>
      <trkpt lat="45.87125" lon="7.05342">
        <ele>2134</ele>
        <time>2022-08-27T13:30:55Z</time>
      </trkpt>
      <trkpt lat="45.87125" lon="7.05342">
        <ele>2134</ele>
        <time>2022-08-27T13:30:56Z</time>
      </trkpt>
      <trkpt lat="45.87125" lon="7.05342">
        <ele>2134</ele>
        <time>2022-08-27T13:30:58Z</time>
      </trkpt>
      <trkpt lat="45.87125" lon="7.05342">
        <ele>2134</ele>
        <time>2022-08-27T13:30:59Z</time>
      </trkpt>
      <trkpt lat="45.87125" lon="7.05343">
        <ele>2134</ele>
        <time>2022-08-27T13:31:00Z</time>
      </trkpt>
      <trkpt lat="45.87125" lon="7.05343">
        <ele>2134</ele>
        <time>2022-08-27T13:31:02Z</time>
      </trkpt>
      <trkpt lat="45.87125" lon="7.05343">
        <ele>2134</ele>
        <time>2022-08-27T13:31:03Z</time>
      </trkpt>
      <trkpt lat="45.87125" lon="7.05343">
        <ele>2134</ele>
        <time>2022-08-27T13:31:04Z</time>
      </trkpt>
      <trkpt lat="45.87125" lon="7.05343">
        <ele>2134</ele>
        <time>2022-08-27T13:31:05Z</time>
      </trkpt>
      <trkpt lat="45.87125" lon="7.05343">
        <ele>2134</ele>
        <time>2022-08-27T13:31:07Z</time>
      </trkpt>
      <trkpt lat="45.87125" lon="7.05343">
        <ele>2134</ele>
        <time>2022-08-27T13:31:08Z</time>
      </trkpt>
      <trkpt lat="45.87125" lon="7.05343">
        <ele>2134</ele>
        <time>2022-08-27T13:31:11Z</time>
      </trkpt>
      <trkpt lat="45.87124" lon="7.05343">
        <ele>2134</ele>
        <time>2022-08-27T13:31:14Z</time>
      </trkpt>
      <trkpt lat="45.87124" lon="7.05343">
        <ele>2134</ele>
        <time>2022-08-27T13:31:16Z</time>
      </trkpt>
      <trkpt lat="45.87124" lon="7.05343">
        <ele>2134</ele>
        <time>2022-08-27T13:31:17Z</time>
      </trkpt>
      <trkpt lat="45.87124" lon="7.05343">
        <ele>2134</ele>
        <time>2022-08-27T13:31:19Z</time>
      </trkpt>
      <trkpt lat="45.87124" lon="7.05343">
        <ele>2134</ele>
        <time>2022-08-27T13:31:22Z</time>
      </trkpt>
      <trkpt lat="45.87124" lon="7.05343">
        <ele>2134</ele>
        <time>2022-08-27T13:31:24Z</time>
      </trkpt>
      <trkpt lat="45.87124" lon="7.05343">
        <ele>2134</ele>
        <time>2022-08-27T13:31:25Z</time>
      </trkpt>
      <trkpt lat="45.87124" lon="7.05344">
        <ele>2134</ele>
        <time>2022-08-27T13:31:27Z</time>
      </trkpt>
      <trkpt lat="45.87124" lon="7.05344">
        <ele>2134</ele>
        <time>2022-08-27T13:31:30Z</time>
      </trkpt>
      <trkpt lat="45.87124" lon="7.05344">
        <ele>2134</ele>
        <time>2022-08-27T13:31:31Z</time>
      </trkpt>
      <trkpt lat="45.87124" lon="7.05344">
        <ele>2134</ele>
        <time>2022-08-27T13:31:33Z</time>
      </trkpt>
      <trkpt lat="45.87124" lon="7.05344">
        <ele>2134</ele>
        <time>2022-08-27T13:31:34Z</time>
      </trkpt>
      <trkpt lat="45.87124" lon="7.05344">
        <ele>2134</ele>
        <time>2022-08-27T13:31:36Z</time>
      </trkpt>
      <trkpt lat="45.87124" lon="7.05344">
        <ele>2134</ele>
        <time>2022-08-27T13:31:37Z</time>
      </trkpt>
      <trkpt lat="45.87124" lon="7.05344">
        <ele>2134</ele>
        <time>2022-08-27T13:31:38Z</time>
      </trkpt>
      <trkpt lat="45.87124" lon="7.05344">
        <ele>2134</ele>
        <time>2022-08-27T13:31:39Z</time>
      </trkpt>
      <trkpt lat="45.87124" lon="7.05344">
        <ele>2134</ele>
        <time>2022-08-27T13:31:41Z</time>
      </trkpt>
      <trkpt lat="45.87123" lon="7.05344">
        <ele>2134</ele>
        <time>2022-08-27T13:31:42Z</time>
      </trkpt>
      <trkpt lat="45.87123" lon="7.05344">
        <ele>2134</ele>
        <time>2022-08-27T13:31:43Z</time>
      </trkpt>
      <trkpt lat="45.87123" lon="7.05344">
        <ele>2134</ele>
        <time>2022-08-27T13:31:45Z</time>
      </trkpt>
      <trkpt lat="45.87123" lon="7.05344">
        <ele>2134</ele>
        <time>2022-08-27T13:31:46Z</time>
      </trkpt>
      <trkpt lat="45.87123" lon="7.05344">
        <ele>2134</ele>
        <time>2022-08-27T13:31:48Z</time>
      </trkpt>
      <trkpt lat="45.87123" lon="7.05344">
        <ele>2134</ele>
        <time>2022-08-27T13:31:49Z</time>
      </trkpt>
      <trkpt lat="45.87123" lon="7.05344">
        <ele>2134</ele>
        <time>2022-08-27T13:31:51Z</time>
      </trkpt>
      <trkpt lat="45.87123" lon="7.05344">
        <ele>2134</ele>
        <time>2022-08-27T13:31:52Z</time>
      </trkpt>
      <trkpt lat="45.87123" lon="7.05345">
        <ele>2134</ele>
        <time>2022-08-27T13:31:54Z</time>
      </trkpt>
      <trkpt lat="45.87123" lon="7.05345">
        <ele>2134</ele>
        <time>2022-08-27T13:31:57Z</time>
      </trkpt>
      <trkpt lat="45.87123" lon="7.05345">
        <ele>2134</ele>
        <time>2022-08-27T13:31:59Z</time>
      </trkpt>
      <trkpt lat="45.87123" lon="7.05345">
        <ele>2134</ele>
        <time>2022-08-27T13:32:00Z</time>
      </trkpt>
      <trkpt lat="45.87123" lon="7.05345">
        <ele>2134</ele>
        <time>2022-08-27T13:32:02Z</time>
      </trkpt>
      <trkpt lat="45.87123" lon="7.05345">
        <ele>2134</ele>
        <time>2022-08-27T13:32:05Z</time>
      </trkpt>
      <trkpt lat="45.87123" lon="7.05345">
        <ele>2134</ele>
        <time>2022-08-27T13:32:08Z</time>
      </trkpt>
      <trkpt lat="45.87123" lon="7.05345">
        <ele>2134</ele>
        <time>2022-08-27T13:32:09Z</time>
      </trkpt>
      <trkpt lat="45.87122" lon="7.05345">
        <ele>2134</ele>
        <time>2022-08-27T13:32:11Z</time>
      </trkpt>
      <trkpt lat="45.87122" lon="7.05345">
        <ele>2134</ele>
        <time>2022-08-27T13:32:13Z</time>
      </trkpt>
      <trkpt lat="45.87122" lon="7.05345">
        <ele>2134</ele>
        <time>2022-08-27T13:32:14Z</time>
      </trkpt>
      <trkpt lat="45.87122" lon="7.05345">
        <ele>2134</ele>
        <time>2022-08-27T13:32:16Z</time>
      </trkpt>
      <trkpt lat="45.87122" lon="7.05345">
        <ele>2134</ele>
        <time>2022-08-27T13:32:17Z</time>
      </trkpt>
      <trkpt lat="45.87122" lon="7.05345">
        <ele>2134</ele>
        <time>2022-08-27T13:32:18Z</time>
      </trkpt>
      <trkpt lat="45.87122" lon="7.05345">
        <ele>2134</ele>
        <time>2022-08-27T13:32:20Z</time>
      </trkpt>
      <trkpt lat="45.87122" lon="7.05346">
        <ele>2134</ele>
        <time>2022-08-27T13:32:21Z</time>
      </trkpt>
      <trkpt lat="45.87122" lon="7.05346">
        <ele>2134</ele>
        <time>2022-08-27T13:32:22Z</time>
      </trkpt>
      <trkpt lat="45.87122" lon="7.05346">
        <ele>2134</ele>
        <time>2022-08-27T13:32:24Z</time>
      </trkpt>
      <trkpt lat="45.87122" lon="7.05346">
        <ele>2134</ele>
        <time>2022-08-27T13:32:26Z</time>
      </trkpt>
      <trkpt lat="45.87122" lon="7.05346">
        <ele>2134</ele>
        <time>2022-08-27T13:32:27Z</time>
      </trkpt>
      <trkpt lat="45.87122" lon="7.05346">
        <ele>2134</ele>
        <time>2022-08-27T13:32:29Z</time>
      </trkpt>
      <trkpt lat="45.87122" lon="7.05346">
        <ele>2134</ele>
        <time>2022-08-27T13:32:30Z</time>
      </trkpt>
      <trkpt lat="45.87122" lon="7.05346">
        <ele>2134</ele>
        <time>2022-08-27T13:32:32Z</time>
      </trkpt>
      <trkpt lat="45.87122" lon="7.05346">
        <ele>2134</ele>
        <time>2022-08-27T13:32:34Z</time>
      </trkpt>
      <trkpt lat="45.87122" lon="7.05346">
        <ele>2134</ele>
        <time>2022-08-27T13:32:35Z</time>
      </trkpt>
      <trkpt lat="45.87122" lon="7.05346">
        <ele>2134</ele>
        <time>2022-08-27T13:32:37Z</time>
      </trkpt>
      <trkpt lat="45.87121" lon="7.05346">
        <ele>2134</ele>
        <time>2022-08-27T13:32:40Z</time>
      </trkpt>
      <trkpt lat="45.87122" lon="7.05346">
        <ele>2134</ele>
        <time>2022-08-27T13:32:42Z</time>
      </trkpt>
      <trkpt lat="45.87122" lon="7.05346">
        <ele>2134</ele>
        <time>2022-08-27T13:32:43Z</time>
      </trkpt>
      <trkpt lat="45.87122" lon="7.05346">
        <ele>2134</ele>
        <time>2022-08-27T13:32:45Z</time>
      </trkpt>
      <trkpt lat="45.87122" lon="7.05346">
        <ele>2134</ele>
        <time>2022-08-27T13:32:46Z</time>
      </trkpt>
      <trkpt lat="45.87122" lon="7.05346">
        <ele>2134</ele>
        <time>2022-08-27T13:32:47Z</time>
      </trkpt>
      <trkpt lat="45.87122" lon="7.05346">
        <ele>2134</ele>
        <time>2022-08-27T13:32:48Z</time>
      </trkpt>
      <trkpt lat="45.87122" lon="7.05346">
        <ele>2134</ele>
        <time>2022-08-27T13:32:49Z</time>
      </trkpt>
      <trkpt lat="45.87122" lon="7.05346">
        <ele>2134</ele>
        <time>2022-08-27T13:32:50Z</time>
      </trkpt>
      <trkpt lat="45.87122" lon="7.05345">
        <ele>2134</ele>
        <time>2022-08-27T13:32:51Z</time>
      </trkpt>
      <trkpt lat="45.87122" lon="7.05345">
        <ele>2134</ele>
        <time>2022-08-27T13:32:52Z</time>
      </trkpt>
      <trkpt lat="45.87122" lon="7.05345">
        <ele>2134</ele>
        <time>2022-08-27T13:32:53Z</time>
      </trkpt>
      <trkpt lat="45.87122" lon="7.05345">
        <ele>2134</ele>
        <time>2022-08-27T13:32:54Z</time>
      </trkpt>
      <trkpt lat="45.87122" lon="7.05345">
        <ele>2134</ele>
        <time>2022-08-27T13:32:56Z</time>
      </trkpt>
      <trkpt lat="45.87122" lon="7.05345">
        <ele>2134</ele>
        <time>2022-08-27T13:32:57Z</time>
      </trkpt>
      <trkpt lat="45.87123" lon="7.05345">
        <ele>2134</ele>
        <time>2022-08-27T13:32:58Z</time>
      </trkpt>
      <trkpt lat="45.87123" lon="7.05345">
        <ele>2134</ele>
        <time>2022-08-27T13:32:59Z</time>
      </trkpt>
      <trkpt lat="45.87123" lon="7.05345">
        <ele>2134</ele>
        <time>2022-08-27T13:33:00Z</time>
      </trkpt>
      <trkpt lat="45.87123" lon="7.05345">
        <ele>2134</ele>
        <time>2022-08-27T13:33:01Z</time>
      </trkpt>
      <trkpt lat="45.87123" lon="7.05345">
        <ele>2134</ele>
        <time>2022-08-27T13:33:02Z</time>
      </trkpt>
      <trkpt lat="45.87123" lon="7.05344">
        <ele>2134</ele>
        <time>2022-08-27T13:33:04Z</time>
      </trkpt>
      <trkpt lat="45.87123" lon="7.05344">
        <ele>2134</ele>
        <time>2022-08-27T13:33:05Z</time>
      </trkpt>
      <trkpt lat="45.87123" lon="7.05344">
        <ele>2134</ele>
        <time>2022-08-27T13:33:06Z</time>
      </trkpt>
      <trkpt lat="45.87123" lon="7.05344">
        <ele>2134</ele>
        <time>2022-08-27T13:33:07Z</time>
      </trkpt>
      <trkpt lat="45.87123" lon="7.05344">
        <ele>2134</ele>
        <time>2022-08-27T13:33:08Z</time>
      </trkpt>
      <trkpt lat="45.87123" lon="7.05344">
        <ele>2134</ele>
        <time>2022-08-27T13:33:09Z</time>
      </trkpt>
      <trkpt lat="45.87123" lon="7.05344">
        <ele>2134</ele>
        <time>2022-08-27T13:33:10Z</time>
      </trkpt>
      <trkpt lat="45.87123" lon="7.05344">
        <ele>2134</ele>
        <time>2022-08-27T13:33:11Z</time>
      </trkpt>
      <trkpt lat="45.87123" lon="7.05344">
        <ele>2134</ele>
        <time>2022-08-27T13:33:12Z</time>
      </trkpt>
      <trkpt lat="45.87123" lon="7.05344">
        <ele>2134</ele>
        <time>2022-08-27T13:33:13Z</time>
      </trkpt>
      <trkpt lat="45.87124" lon="7.05344">
        <ele>2134</ele>
        <time>2022-08-27T13:33:14Z</time>
      </trkpt>
      <trkpt lat="45.87124" lon="7.05344">
        <ele>2134</ele>
        <time>2022-08-27T13:33:16Z</time>
      </trkpt>
      <trkpt lat="45.87124" lon="7.05343">
        <ele>2134</ele>
        <time>2022-08-27T13:33:17Z</time>
      </trkpt>
      <trkpt lat="45.87124" lon="7.05343">
        <ele>2134</ele>
        <time>2022-08-27T13:33:18Z</time>
      </trkpt>
      <trkpt lat="45.87124" lon="7.05343">
        <ele>2134</ele>
        <time>2022-08-27T13:33:19Z</time>
      </trkpt>
      <trkpt lat="45.87124" lon="7.05343">
        <ele>2134</ele>
        <time>2022-08-27T13:33:20Z</time>
      </trkpt>
      <trkpt lat="45.87124" lon="7.05343">
        <ele>2134</ele>
        <time>2022-08-27T13:33:21Z</time>
      </trkpt>
      <trkpt lat="45.87124" lon="7.05343">
        <ele>2134</ele>
        <time>2022-08-27T13:33:23Z</time>
      </trkpt>
      <trkpt lat="45.87124" lon="7.05343">
        <ele>2134</ele>
        <time>2022-08-27T13:33:24Z</time>
      </trkpt>
      <trkpt lat="45.87124" lon="7.05343">
        <ele>2134</ele>
        <time>2022-08-27T13:33:25Z</time>
      </trkpt>
      <trkpt lat="45.87124" lon="7.05343">
        <ele>2134</ele>
        <time>2022-08-27T13:33:26Z</time>
      </trkpt>
      <trkpt lat="45.87124" lon="7.05343">
        <ele>2134</ele>
        <time>2022-08-27T13:33:27Z</time>
      </trkpt>
      <trkpt lat="45.87124" lon="7.05343">
        <ele>2134</ele>
        <time>2022-08-27T13:33:28Z</time>
      </trkpt>
      <trkpt lat="45.87124" lon="7.05343">
        <ele>2134</ele>
        <time>2022-08-27T13:33:29Z</time>
      </trkpt>
      <trkpt lat="45.87125" lon="7.05342">
        <ele>2134</ele>
        <time>2022-08-27T13:33:31Z</time>
      </trkpt>
      <trkpt lat="45.87125" lon="7.05342">
        <ele>2134</ele>
        <time>2022-08-27T13:33:32Z</time>
      </trkpt>
      <trkpt lat="45.87125" lon="7.05342">
        <ele>2134</ele>
        <time>2022-08-27T13:33:33Z</time>
      </trkpt>
      <trkpt lat="45.87125" lon="7.05342">
        <ele>2134</ele>
        <time>2022-08-27T13:33:34Z</time>
      </trkpt>
      <trkpt lat="45.87125" lon="7.05342">
        <ele>2134</ele>
        <time>2022-08-27T13:33:36Z</time>
      </trkpt>
      <trkpt lat="45.87125" lon="7.05342">
        <ele>2134</ele>
        <time>2022-08-27T13:33:37Z</time>
      </trkpt>
      <trkpt lat="45.87125" lon="7.05342">
        <ele>2134</ele>
        <time>2022-08-27T13:33:38Z</time>
      </trkpt>
      <trkpt lat="45.87125" lon="7.05342">
        <ele>2134</ele>
        <time>2022-08-27T13:33:39Z</time>
      </trkpt>
      <trkpt lat="45.87125" lon="7.05342">
        <ele>2134</ele>
        <time>2022-08-27T13:33:40Z</time>
      </trkpt>
      <trkpt lat="45.87125" lon="7.05342">
        <ele>2134</ele>
        <time>2022-08-27T13:33:42Z</time>
      </trkpt>
      <trkpt lat="45.87125" lon="7.05342">
        <ele>2134</ele>
        <time>2022-08-27T13:33:43Z</time>
      </trkpt>
      <trkpt lat="45.87125" lon="7.05341">
        <ele>2134</ele>
        <time>2022-08-27T13:33:44Z</time>
      </trkpt>
      <trkpt lat="45.87125" lon="7.05341">
        <ele>2134</ele>
        <time>2022-08-27T13:33:45Z</time>
      </trkpt>
      <trkpt lat="45.87125" lon="7.05341">
        <ele>2134</ele>
        <time>2022-08-27T13:33:46Z</time>
      </trkpt>
      <trkpt lat="45.87125" lon="7.05341">
        <ele>2134</ele>
        <time>2022-08-27T13:33:47Z</time>
      </trkpt>
      <trkpt lat="45.87126" lon="7.05341">
        <ele>2134</ele>
        <time>2022-08-27T13:33:48Z</time>
      </trkpt>
      <trkpt lat="45.87126" lon="7.05341">
        <ele>2134</ele>
        <time>2022-08-27T13:33:49Z</time>
      </trkpt>
      <trkpt lat="45.87126" lon="7.05341">
        <ele>2134</ele>
        <time>2022-08-27T13:33:51Z</time>
      </trkpt>
      <trkpt lat="45.87126" lon="7.05341">
        <ele>2134</ele>
        <time>2022-08-27T13:33:52Z</time>
      </trkpt>
      <trkpt lat="45.87126" lon="7.05341">
        <ele>2134</ele>
        <time>2022-08-27T13:33:53Z</time>
      </trkpt>
      <trkpt lat="45.87126" lon="7.05341">
        <ele>2134</ele>
        <time>2022-08-27T13:33:54Z</time>
      </trkpt>
      <trkpt lat="45.87126" lon="7.05341">
        <ele>2134</ele>
        <time>2022-08-27T13:33:56Z</time>
      </trkpt>
      <trkpt lat="45.87126" lon="7.0534">
        <ele>2134</ele>
        <time>2022-08-27T13:33:57Z</time>
      </trkpt>
      <trkpt lat="45.87126" lon="7.0534">
        <ele>2134</ele>
        <time>2022-08-27T13:33:58Z</time>
      </trkpt>
      <trkpt lat="45.87126" lon="7.0534">
        <ele>2134</ele>
        <time>2022-08-27T13:33:59Z</time>
      </trkpt>
      <trkpt lat="45.87126" lon="7.0534">
        <ele>2134</ele>
        <time>2022-08-27T13:34:01Z</time>
      </trkpt>
      <trkpt lat="45.87126" lon="7.0534">
        <ele>2134</ele>
        <time>2022-08-27T13:34:02Z</time>
      </trkpt>
      <trkpt lat="45.87126" lon="7.0534">
        <ele>2134</ele>
        <time>2022-08-27T13:34:03Z</time>
      </trkpt>
      <trkpt lat="45.87127" lon="7.0534">
        <ele>2134</ele>
        <time>2022-08-27T13:34:04Z</time>
      </trkpt>
      <trkpt lat="45.87127" lon="7.0534">
        <ele>2134</ele>
        <time>2022-08-27T13:34:06Z</time>
      </trkpt>
      <trkpt lat="45.87127" lon="7.0534">
        <ele>2134</ele>
        <time>2022-08-27T13:34:07Z</time>
      </trkpt>
      <trkpt lat="45.87127" lon="7.0534">
        <ele>2134</ele>
        <time>2022-08-27T13:34:08Z</time>
      </trkpt>
      <trkpt lat="45.87127" lon="7.0534">
        <ele>2134</ele>
        <time>2022-08-27T13:34:09Z</time>
      </trkpt>
      <trkpt lat="45.87127" lon="7.05339">
        <ele>2134</ele>
        <time>2022-08-27T13:34:11Z</time>
      </trkpt>
      <trkpt lat="45.87127" lon="7.05339">
        <ele>2134</ele>
        <time>2022-08-27T13:34:12Z</time>
      </trkpt>
      <trkpt lat="45.87127" lon="7.05339">
        <ele>2134</ele>
        <time>2022-08-27T13:34:13Z</time>
      </trkpt>
      <trkpt lat="45.87127" lon="7.05339">
        <ele>2134</ele>
        <time>2022-08-27T13:34:14Z</time>
      </trkpt>
      <trkpt lat="45.87127" lon="7.05339">
        <ele>2134</ele>
        <time>2022-08-27T13:34:15Z</time>
      </trkpt>
      <trkpt lat="45.87127" lon="7.05339">
        <ele>2134</ele>
        <time>2022-08-27T13:34:16Z</time>
      </trkpt>
      <trkpt lat="45.87127" lon="7.05339">
        <ele>2134</ele>
        <time>2022-08-27T13:34:17Z</time>
      </trkpt>
      <trkpt lat="45.87127" lon="7.05339">
        <ele>2134</ele>
        <time>2022-08-27T13:34:18Z</time>
      </trkpt>
      <trkpt lat="45.87127" lon="7.05339">
        <ele>2134</ele>
        <time>2022-08-27T13:34:20Z</time>
      </trkpt>
      <trkpt lat="45.87128" lon="7.05339">
        <ele>2134</ele>
        <time>2022-08-27T13:34:21Z</time>
      </trkpt>
      <trkpt lat="45.87128" lon="7.05339">
        <ele>2134</ele>
        <time>2022-08-27T13:34:22Z</time>
      </trkpt>
      <trkpt lat="45.87128" lon="7.05339">
        <ele>2134</ele>
        <time>2022-08-27T13:34:23Z</time>
      </trkpt>
      <trkpt lat="45.87128" lon="7.05338">
        <ele>2134</ele>
        <time>2022-08-27T13:34:24Z</time>
      </trkpt>
      <trkpt lat="45.87128" lon="7.05338">
        <ele>2134</ele>
        <time>2022-08-27T13:34:26Z</time>
      </trkpt>
      <trkpt lat="45.87128" lon="7.05338">
        <ele>2134</ele>
        <time>2022-08-27T13:34:27Z</time>
      </trkpt>
      <trkpt lat="45.87128" lon="7.05338">
        <ele>2134</ele>
        <time>2022-08-27T13:34:28Z</time>
      </trkpt>
      <trkpt lat="45.87128" lon="7.05338">
        <ele>2134</ele>
        <time>2022-08-27T13:34:29Z</time>
      </trkpt>
      <trkpt lat="45.87128" lon="7.05338">
        <ele>2134</ele>
        <time>2022-08-27T13:34:31Z</time>
      </trkpt>
      <trkpt lat="45.87128" lon="7.05338">
        <ele>2134</ele>
        <time>2022-08-27T13:34:32Z</time>
      </trkpt>
      <trkpt lat="45.87128" lon="7.05338">
        <ele>2134</ele>
        <time>2022-08-27T13:34:33Z</time>
      </trkpt>
      <trkpt lat="45.87128" lon="7.05338">
        <ele>2134</ele>
        <time>2022-08-27T13:34:34Z</time>
      </trkpt>
      <trkpt lat="45.87127" lon="7.05339">
        <ele>2134</ele>
        <time>2022-08-27T13:34:35Z</time>
      </trkpt>
      <trkpt lat="45.87127" lon="7.05339">
        <ele>2134</ele>
        <time>2022-08-27T13:34:36Z</time>
      </trkpt>
      <trkpt lat="45.87127" lon="7.0534">
        <ele>2134</ele>
        <time>2022-08-27T13:34:37Z</time>
      </trkpt>
      <trkpt lat="45.87126" lon="7.05341">
        <ele>2134</ele>
        <time>2022-08-27T13:34:39Z</time>
      </trkpt>
      <trkpt lat="45.87126" lon="7.05341">
        <ele>2134</ele>
        <time>2022-08-27T13:34:40Z</time>
      </trkpt>
      <trkpt lat="45.87125" lon="7.05342">
        <ele>2134</ele>
        <time>2022-08-27T13:34:41Z</time>
      </trkpt>
      <trkpt lat="45.87125" lon="7.05342">
        <ele>2134</ele>
        <time>2022-08-27T13:34:42Z</time>
      </trkpt>
      <trkpt lat="45.87124" lon="7.05343">
        <ele>2134</ele>
        <time>2022-08-27T13:34:43Z</time>
      </trkpt>
      <trkpt lat="45.87124" lon="7.05343">
        <ele>2134</ele>
        <time>2022-08-27T13:34:44Z</time>
      </trkpt>
      <trkpt lat="45.87124" lon="7.05344">
        <ele>2134</ele>
        <time>2022-08-27T13:34:45Z</time>
      </trkpt>
      <trkpt lat="45.87123" lon="7.05345">
        <ele>2134</ele>
        <time>2022-08-27T13:34:46Z</time>
      </trkpt>
      <trkpt lat="45.87123" lon="7.05345">
        <ele>2134</ele>
        <time>2022-08-27T13:34:47Z</time>
      </trkpt>
      <trkpt lat="45.87122" lon="7.05346">
        <ele>2134</ele>
        <time>2022-08-27T13:34:49Z</time>
      </trkpt>
      <trkpt lat="45.87122" lon="7.05346">
        <ele>2134</ele>
        <time>2022-08-27T13:34:50Z</time>
      </trkpt>
      <trkpt lat="45.87121" lon="7.05347">
        <ele>2134</ele>
        <time>2022-08-27T13:34:51Z</time>
      </trkpt>
      <trkpt lat="45.87121" lon="7.05347">
        <ele>2134</ele>
        <time>2022-08-27T13:34:52Z</time>
      </trkpt>
      <trkpt lat="45.87121" lon="7.05347">
        <ele>2134</ele>
        <time>2022-08-27T13:34:53Z</time>
      </trkpt>
      <trkpt lat="45.87121" lon="7.05347">
        <ele>2134</ele>
        <time>2022-08-27T13:34:54Z</time>
      </trkpt>
      <trkpt lat="45.87121" lon="7.05347">
        <ele>2134</ele>
        <time>2022-08-27T13:34:55Z</time>
      </trkpt>
      <trkpt lat="45.87121" lon="7.05347">
        <ele>2134</ele>
        <time>2022-08-27T13:34:56Z</time>
      </trkpt>
      <trkpt lat="45.87121" lon="7.05347">
        <ele>2134</ele>
        <time>2022-08-27T13:34:58Z</time>
      </trkpt>
      <trkpt lat="45.87122" lon="7.05347">
        <ele>2134</ele>
        <time>2022-08-27T13:34:59Z</time>
      </trkpt>
      <trkpt lat="45.87122" lon="7.05346">
        <ele>2134</ele>
        <time>2022-08-27T13:35:00Z</time>
      </trkpt>
      <trkpt lat="45.87122" lon="7.05346">
        <ele>2134</ele>
        <time>2022-08-27T13:35:01Z</time>
      </trkpt>
      <trkpt lat="45.87122" lon="7.05346">
        <ele>2134</ele>
        <time>2022-08-27T13:35:02Z</time>
      </trkpt>
      <trkpt lat="45.87122" lon="7.05346">
        <ele>2134</ele>
        <time>2022-08-27T13:35:03Z</time>
      </trkpt>
      <trkpt lat="45.87122" lon="7.05346">
        <ele>2134</ele>
        <time>2022-08-27T13:35:04Z</time>
      </trkpt>
      <trkpt lat="45.87122" lon="7.05346">
        <ele>2134</ele>
        <time>2022-08-27T13:35:05Z</time>
      </trkpt>
      <trkpt lat="45.87122" lon="7.05346">
        <ele>2134</ele>
        <time>2022-08-27T13:35:06Z</time>
      </trkpt>
      <trkpt lat="45.87122" lon="7.05345">
        <ele>2134</ele>
        <time>2022-08-27T13:35:07Z</time>
      </trkpt>
      <trkpt lat="45.87122" lon="7.05345">
        <ele>2134</ele>
        <time>2022-08-27T13:35:08Z</time>
      </trkpt>
      <trkpt lat="45.87123" lon="7.05345">
        <ele>2134</ele>
        <time>2022-08-27T13:35:09Z</time>
      </trkpt>
      <trkpt lat="45.87123" lon="7.05345">
        <ele>2134</ele>
        <time>2022-08-27T13:35:10Z</time>
      </trkpt>
      <trkpt lat="45.87123" lon="7.05345">
        <ele>2134</ele>
        <time>2022-08-27T13:35:11Z</time>
      </trkpt>
      <trkpt lat="45.87123" lon="7.05345">
        <ele>2134</ele>
        <time>2022-08-27T13:35:12Z</time>
      </trkpt>
      <trkpt lat="45.87123" lon="7.05345">
        <ele>2134</ele>
        <time>2022-08-27T13:35:13Z</time>
      </trkpt>
      <trkpt lat="45.87123" lon="7.05344">
        <ele>2134</ele>
        <time>2022-08-27T13:35:14Z</time>
      </trkpt>
      <trkpt lat="45.87123" lon="7.05344">
        <ele>2134</ele>
        <time>2022-08-27T13:35:15Z</time>
      </trkpt>
      <trkpt lat="45.87123" lon="7.05344">
        <ele>2134</ele>
        <time>2022-08-27T13:35:17Z</time>
      </trkpt>
      <trkpt lat="45.87123" lon="7.05344">
        <ele>2134</ele>
        <time>2022-08-27T13:35:18Z</time>
      </trkpt>
      <trkpt lat="45.87123" lon="7.05344">
        <ele>2134</ele>
        <time>2022-08-27T13:35:19Z</time>
      </trkpt>
      <trkpt lat="45.87123" lon="7.05344">
        <ele>2134</ele>
        <time>2022-08-27T13:35:20Z</time>
      </trkpt>
      <trkpt lat="45.87124" lon="7.05344">
        <ele>2134</ele>
        <time>2022-08-27T13:35:21Z</time>
      </trkpt>
      <trkpt lat="45.87124" lon="7.05343">
        <ele>2134</ele>
        <time>2022-08-27T13:35:22Z</time>
      </trkpt>
      <trkpt lat="45.87124" lon="7.05343">
        <ele>2134</ele>
        <time>2022-08-27T13:35:23Z</time>
      </trkpt>
      <trkpt lat="45.87124" lon="7.05343">
        <ele>2134</ele>
        <time>2022-08-27T13:35:24Z</time>
      </trkpt>
      <trkpt lat="45.87124" lon="7.05343">
        <ele>2134</ele>
        <time>2022-08-27T13:35:25Z</time>
      </trkpt>
      <trkpt lat="45.87124" lon="7.05343">
        <ele>2134</ele>
        <time>2022-08-27T13:35:26Z</time>
      </trkpt>
      <trkpt lat="45.87124" lon="7.05343">
        <ele>2134</ele>
        <time>2022-08-27T13:35:27Z</time>
      </trkpt>
      <trkpt lat="45.87124" lon="7.05343">
        <ele>2134</ele>
        <time>2022-08-27T13:35:28Z</time>
      </trkpt>
      <trkpt lat="45.87124" lon="7.05342">
        <ele>2134</ele>
        <time>2022-08-27T13:35:29Z</time>
      </trkpt>
      <trkpt lat="45.87124" lon="7.05342">
        <ele>2134</ele>
        <time>2022-08-27T13:35:30Z</time>
      </trkpt>
      <trkpt lat="45.87125" lon="7.05342">
        <ele>2134</ele>
        <time>2022-08-27T13:35:31Z</time>
      </trkpt>
      <trkpt lat="45.87125" lon="7.05342">
        <ele>2134</ele>
        <time>2022-08-27T13:35:32Z</time>
      </trkpt>
      <trkpt lat="45.87125" lon="7.05342">
        <ele>2134</ele>
        <time>2022-08-27T13:35:33Z</time>
      </trkpt>
      <trkpt lat="45.87125" lon="7.05342">
        <ele>2134</ele>
        <time>2022-08-27T13:35:34Z</time>
      </trkpt>
      <trkpt lat="45.87125" lon="7.05342">
        <ele>2134</ele>
        <time>2022-08-27T13:35:36Z</time>
      </trkpt>
      <trkpt lat="45.87125" lon="7.05341">
        <ele>2134</ele>
        <time>2022-08-27T13:35:37Z</time>
      </trkpt>
      <trkpt lat="45.87125" lon="7.05341">
        <ele>2134</ele>
        <time>2022-08-27T13:35:38Z</time>
      </trkpt>
      <trkpt lat="45.87125" lon="7.05341">
        <ele>2134</ele>
        <time>2022-08-27T13:35:39Z</time>
      </trkpt>
      <trkpt lat="45.87125" lon="7.05341">
        <ele>2134</ele>
        <time>2022-08-27T13:35:40Z</time>
      </trkpt>
      <trkpt lat="45.87125" lon="7.05341">
        <ele>2134</ele>
        <time>2022-08-27T13:35:41Z</time>
      </trkpt>
      <trkpt lat="45.87126" lon="7.05341">
        <ele>2134</ele>
        <time>2022-08-27T13:35:42Z</time>
      </trkpt>
      <trkpt lat="45.87126" lon="7.05341">
        <ele>2134</ele>
        <time>2022-08-27T13:35:43Z</time>
      </trkpt>
      <trkpt lat="45.87126" lon="7.0534">
        <ele>2134</ele>
        <time>2022-08-27T13:35:44Z</time>
      </trkpt>
      <trkpt lat="45.87126" lon="7.0534">
        <ele>2134</ele>
        <time>2022-08-27T13:35:45Z</time>
      </trkpt>
      <trkpt lat="45.87126" lon="7.0534">
        <ele>2134</ele>
        <time>2022-08-27T13:35:46Z</time>
      </trkpt>
      <trkpt lat="45.87126" lon="7.0534">
        <ele>2134</ele>
        <time>2022-08-27T13:35:47Z</time>
      </trkpt>
      <trkpt lat="45.87126" lon="7.0534">
        <ele>2134</ele>
        <time>2022-08-27T13:35:48Z</time>
      </trkpt>
      <trkpt lat="45.87126" lon="7.0534">
        <ele>2134</ele>
        <time>2022-08-27T13:35:49Z</time>
      </trkpt>
      <trkpt lat="45.87126" lon="7.0534">
        <ele>2134</ele>
        <time>2022-08-27T13:35:50Z</time>
      </trkpt>
      <trkpt lat="45.87126" lon="7.05339">
        <ele>2134</ele>
        <time>2022-08-27T13:35:51Z</time>
      </trkpt>
      <trkpt lat="45.87126" lon="7.05339">
        <ele>2134</ele>
        <time>2022-08-27T13:35:52Z</time>
      </trkpt>
      <trkpt lat="45.87127" lon="7.05339">
        <ele>2134</ele>
        <time>2022-08-27T13:35:53Z</time>
      </trkpt>
      <trkpt lat="45.87127" lon="7.05339">
        <ele>2134</ele>
        <time>2022-08-27T13:35:55Z</time>
      </trkpt>
      <trkpt lat="45.87127" lon="7.05339">
        <ele>2134</ele>
        <time>2022-08-27T13:35:56Z</time>
      </trkpt>
      <trkpt lat="45.87127" lon="7.05339">
        <ele>2134</ele>
        <time>2022-08-27T13:35:57Z</time>
      </trkpt>
      <trkpt lat="45.87127" lon="7.05339">
        <ele>2134</ele>
        <time>2022-08-27T13:35:58Z</time>
      </trkpt>
      <trkpt lat="45.87127" lon="7.05338">
        <ele>2134</ele>
        <time>2022-08-27T13:35:59Z</time>
      </trkpt>
      <trkpt lat="45.87127" lon="7.05338">
        <ele>2134</ele>
        <time>2022-08-27T13:36:00Z</time>
      </trkpt>
      <trkpt lat="45.87127" lon="7.05338">
        <ele>2134</ele>
        <time>2022-08-27T13:36:01Z</time>
      </trkpt>
      <trkpt lat="45.87127" lon="7.05338">
        <ele>2134</ele>
        <time>2022-08-27T13:36:02Z</time>
      </trkpt>
      <trkpt lat="45.87127" lon="7.05338">
        <ele>2134</ele>
        <time>2022-08-27T13:36:03Z</time>
      </trkpt>
      <trkpt lat="45.87128" lon="7.05338">
        <ele>2134</ele>
        <time>2022-08-27T13:36:04Z</time>
      </trkpt>
      <trkpt lat="45.87128" lon="7.05338">
        <ele>2134</ele>
        <time>2022-08-27T13:36:05Z</time>
      </trkpt>
      <trkpt lat="45.87128" lon="7.05337">
        <ele>2134</ele>
        <time>2022-08-27T13:36:06Z</time>
      </trkpt>
      <trkpt lat="45.87129" lon="7.05337">
        <ele>2134</ele>
        <time>2022-08-27T13:36:07Z</time>
      </trkpt>
      <trkpt lat="45.8713" lon="7.05336">
        <ele>2134</ele>
        <time>2022-08-27T13:36:08Z</time>
      </trkpt>
      <trkpt lat="45.87131" lon="7.05336">
        <ele>2134</ele>
        <time>2022-08-27T13:36:09Z</time>
      </trkpt>
      <trkpt lat="45.87132" lon="7.05335">
        <ele>2134</ele>
        <time>2022-08-27T13:36:10Z</time>
      </trkpt>
      <trkpt lat="45.87133" lon="7.05334">
        <ele>2134</ele>
        <time>2022-08-27T13:36:11Z</time>
      </trkpt>
      <trkpt lat="45.87134" lon="7.05334">
        <ele>2134</ele>
        <time>2022-08-27T13:36:12Z</time>
      </trkpt>
      <trkpt lat="45.87135" lon="7.05333">
        <ele>2134</ele>
        <time>2022-08-27T13:36:14Z</time>
      </trkpt>
      <trkpt lat="45.87136" lon="7.05333">
        <ele>2134</ele>
        <time>2022-08-27T13:36:15Z</time>
      </trkpt>
      <trkpt lat="45.87136" lon="7.05333">
        <ele>2134</ele>
        <time>2022-08-27T13:36:16Z</time>
      </trkpt>
      <trkpt lat="45.87136" lon="7.05333">
        <ele>2134</ele>
        <time>2022-08-27T13:36:17Z</time>
      </trkpt>
      <trkpt lat="45.87136" lon="7.05333">
        <ele>2134</ele>
        <time>2022-08-27T13:36:18Z</time>
      </trkpt>
      <trkpt lat="45.87136" lon="7.05333">
        <ele>2134</ele>
        <time>2022-08-27T13:36:19Z</time>
      </trkpt>
      <trkpt lat="45.87136" lon="7.05333">
        <ele>2134</ele>
        <time>2022-08-27T13:36:20Z</time>
      </trkpt>
      <trkpt lat="45.87136" lon="7.05333">
        <ele>2134</ele>
        <time>2022-08-27T13:36:24Z</time>
      </trkpt>
      <trkpt lat="45.87136" lon="7.05333">
        <ele>2134</ele>
        <time>2022-08-27T13:36:25Z</time>
      </trkpt>
      <trkpt lat="45.87136" lon="7.05333">
        <ele>2134</ele>
        <time>2022-08-27T13:36:27Z</time>
      </trkpt>
      <trkpt lat="45.87136" lon="7.05333">
        <ele>2134</ele>
        <time>2022-08-27T13:36:28Z</time>
      </trkpt>
      <trkpt lat="45.87136" lon="7.05333">
        <ele>2134</ele>
        <time>2022-08-27T13:36:29Z</time>
      </trkpt>
      <trkpt lat="45.87136" lon="7.05333">
        <ele>2134</ele>
        <time>2022-08-27T13:36:30Z</time>
      </trkpt>
      <trkpt lat="45.87136" lon="7.05334">
        <ele>2134</ele>
        <time>2022-08-27T13:36:31Z</time>
      </trkpt>
      <trkpt lat="45.87136" lon="7.05334">
        <ele>2134</ele>
        <time>2022-08-27T13:36:33Z</time>
      </trkpt>
      <trkpt lat="45.87136" lon="7.05334">
        <ele>2134</ele>
        <time>2022-08-27T13:36:34Z</time>
      </trkpt>
      <trkpt lat="45.87136" lon="7.05334">
        <ele>2134</ele>
        <time>2022-08-27T13:36:36Z</time>
      </trkpt>
      <trkpt lat="45.87136" lon="7.05334">
        <ele>2134</ele>
        <time>2022-08-27T13:36:37Z</time>
      </trkpt>
      <trkpt lat="45.87136" lon="7.05334">
        <ele>2134</ele>
        <time>2022-08-27T13:36:38Z</time>
      </trkpt>
      <trkpt lat="45.87136" lon="7.05334">
        <ele>2134</ele>
        <time>2022-08-27T13:36:39Z</time>
      </trkpt>
      <trkpt lat="45.87136" lon="7.05334">
        <ele>2134</ele>
        <time>2022-08-27T13:36:40Z</time>
      </trkpt>
      <trkpt lat="45.87136" lon="7.05334">
        <ele>2134</ele>
        <time>2022-08-27T13:36:41Z</time>
      </trkpt>
      <trkpt lat="45.87136" lon="7.05334">
        <ele>2134</ele>
        <time>2022-08-27T13:36:42Z</time>
      </trkpt>
      <trkpt lat="45.87136" lon="7.05334">
        <ele>2134</ele>
        <time>2022-08-27T13:36:43Z</time>
      </trkpt>
      <trkpt lat="45.87136" lon="7.05334">
        <ele>2134</ele>
        <time>2022-08-27T13:36:44Z</time>
      </trkpt>
      <trkpt lat="45.87135" lon="7.05335">
        <ele>2134</ele>
        <time>2022-08-27T13:36:45Z</time>
      </trkpt>
      <trkpt lat="45.87135" lon="7.05335">
        <ele>2134</ele>
        <time>2022-08-27T13:36:47Z</time>
      </trkpt>
      <trkpt lat="45.87135" lon="7.05335">
        <ele>2134</ele>
        <time>2022-08-27T13:36:48Z</time>
      </trkpt>
      <trkpt lat="45.87135" lon="7.05335">
        <ele>2134</ele>
        <time>2022-08-27T13:36:49Z</time>
      </trkpt>
      <trkpt lat="45.87135" lon="7.05335">
        <ele>2134</ele>
        <time>2022-08-27T13:36:52Z</time>
      </trkpt>
      <trkpt lat="45.87135" lon="7.05335">
        <ele>2134</ele>
        <time>2022-08-27T13:36:53Z</time>
      </trkpt>
      <trkpt lat="45.87135" lon="7.05335">
        <ele>2134</ele>
        <time>2022-08-27T13:36:54Z</time>
      </trkpt>
      <trkpt lat="45.87135" lon="7.05335">
        <ele>2134</ele>
        <time>2022-08-27T13:36:55Z</time>
      </trkpt>
      <trkpt lat="45.87135" lon="7.05335">
        <ele>2134</ele>
        <time>2022-08-27T13:36:56Z</time>
      </trkpt>
      <trkpt lat="45.87135" lon="7.05335">
        <ele>2134</ele>
        <time>2022-08-27T13:36:57Z</time>
      </trkpt>
      <trkpt lat="45.87135" lon="7.05335">
        <ele>2134</ele>
        <time>2022-08-27T13:36:58Z</time>
      </trkpt>
      <trkpt lat="45.87135" lon="7.05335">
        <ele>2134</ele>
        <time>2022-08-27T13:36:59Z</time>
      </trkpt>
      <trkpt lat="45.87135" lon="7.05336">
        <ele>2134</ele>
        <time>2022-08-27T13:37:00Z</time>
      </trkpt>
      <trkpt lat="45.87135" lon="7.05336">
        <ele>2134</ele>
        <time>2022-08-27T13:37:01Z</time>
      </trkpt>
      <trkpt lat="45.87135" lon="7.05336">
        <ele>2134</ele>
        <time>2022-08-27T13:37:03Z</time>
      </trkpt>
      <trkpt lat="45.87135" lon="7.05336">
        <ele>2134</ele>
        <time>2022-08-27T13:37:04Z</time>
      </trkpt>
      <trkpt lat="45.87135" lon="7.05336">
        <ele>2134</ele>
        <time>2022-08-27T13:37:05Z</time>
      </trkpt>
      <trkpt lat="45.87135" lon="7.05336">
        <ele>2134</ele>
        <time>2022-08-27T13:37:06Z</time>
      </trkpt>
      <trkpt lat="45.87135" lon="7.05336">
        <ele>2134</ele>
        <time>2022-08-27T13:37:07Z</time>
      </trkpt>
      <trkpt lat="45.87135" lon="7.05336">
        <ele>2134</ele>
        <time>2022-08-27T13:37:08Z</time>
      </trkpt>
      <trkpt lat="45.87135" lon="7.05336">
        <ele>2134</ele>
        <time>2022-08-27T13:37:09Z</time>
      </trkpt>
      <trkpt lat="45.87135" lon="7.05336">
        <ele>2134</ele>
        <time>2022-08-27T13:37:12Z</time>
      </trkpt>
      <trkpt lat="45.87135" lon="7.05336">
        <ele>2134</ele>
        <time>2022-08-27T13:37:13Z</time>
      </trkpt>
      <trkpt lat="45.87135" lon="7.05337">
        <ele>2134</ele>
        <time>2022-08-27T13:37:15Z</time>
      </trkpt>
      <trkpt lat="45.87134" lon="7.05337">
        <ele>2134</ele>
        <time>2022-08-27T13:37:16Z</time>
      </trkpt>
      <trkpt lat="45.87134" lon="7.05337">
        <ele>2134</ele>
        <time>2022-08-27T13:37:17Z</time>
      </trkpt>
      <trkpt lat="45.87134" lon="7.05337">
        <ele>2134</ele>
        <time>2022-08-27T13:37:18Z</time>
      </trkpt>
      <trkpt lat="45.87134" lon="7.05337">
        <ele>2134</ele>
        <time>2022-08-27T13:37:19Z</time>
      </trkpt>
      <trkpt lat="45.87134" lon="7.05337">
        <ele>2134</ele>
        <time>2022-08-27T13:37:20Z</time>
      </trkpt>
      <trkpt lat="45.87134" lon="7.05337">
        <ele>2134</ele>
        <time>2022-08-27T13:37:21Z</time>
      </trkpt>
      <trkpt lat="45.87134" lon="7.05337">
        <ele>2134</ele>
        <time>2022-08-27T13:37:23Z</time>
      </trkpt>
      <trkpt lat="45.87134" lon="7.05337">
        <ele>2134</ele>
        <time>2022-08-27T13:37:24Z</time>
      </trkpt>
      <trkpt lat="45.87134" lon="7.05337">
        <ele>2134</ele>
        <time>2022-08-27T13:37:25Z</time>
      </trkpt>
      <trkpt lat="45.87134" lon="7.05337">
        <ele>2134</ele>
        <time>2022-08-27T13:37:27Z</time>
      </trkpt>
      <trkpt lat="45.87132" lon="7.05339">
        <ele>2134</ele>
        <time>2022-08-27T13:37:30Z</time>
      </trkpt>
      <trkpt lat="45.8713" lon="7.0534">
        <ele>2134</ele>
        <time>2022-08-27T13:37:36Z</time>
      </trkpt>
      <trkpt lat="45.8713" lon="7.0534">
        <ele>2134</ele>
        <time>2022-08-27T13:37:45Z</time>
      </trkpt>
      <trkpt lat="45.8713" lon="7.0534">
        <ele>2134</ele>
        <time>2022-08-27T13:38:02Z</time>
      </trkpt>
      <trkpt lat="45.8713" lon="7.0534">
        <ele>2134</ele>
        <time>2022-08-27T13:38:19Z</time>
      </trkpt>
      <trkpt lat="45.8713" lon="7.0534">
        <ele>2134</ele>
        <time>2022-08-27T13:38:36Z</time>
      </trkpt>
      <trkpt lat="45.87132" lon="7.0534">
        <ele>2134</ele>
        <time>2022-08-27T13:38:38Z</time>
      </trkpt>
      <trkpt lat="45.87132" lon="7.0534">
        <ele>2134</ele>
        <time>2022-08-27T13:38:39Z</time>
      </trkpt>
      <trkpt lat="45.87132" lon="7.0534">
        <ele>2134</ele>
        <time>2022-08-27T13:38:41Z</time>
      </trkpt>
      <trkpt lat="45.87132" lon="7.0534">
        <ele>2134</ele>
        <time>2022-08-27T13:38:43Z</time>
      </trkpt>
      <trkpt lat="45.87132" lon="7.0534">
        <ele>2134</ele>
        <time>2022-08-27T13:38:46Z</time>
      </trkpt>
      <trkpt lat="45.87132" lon="7.0534">
        <ele>2134</ele>
        <time>2022-08-27T13:38:48Z</time>
      </trkpt>
      <trkpt lat="45.87131" lon="7.0534">
        <ele>2134</ele>
        <time>2022-08-27T13:38:50Z</time>
      </trkpt>
      <trkpt lat="45.87131" lon="7.05339">
        <ele>2134</ele>
        <time>2022-08-27T13:38:51Z</time>
      </trkpt>
      <trkpt lat="45.87131" lon="7.05339">
        <ele>2134</ele>
        <time>2022-08-27T13:38:52Z</time>
      </trkpt>
      <trkpt lat="45.87131" lon="7.05339">
        <ele>2134</ele>
        <time>2022-08-27T13:38:53Z</time>
      </trkpt>
      <trkpt lat="45.87131" lon="7.05339">
        <ele>2134</ele>
        <time>2022-08-27T13:38:54Z</time>
      </trkpt>
      <trkpt lat="45.87131" lon="7.05339">
        <ele>2134</ele>
        <time>2022-08-27T13:38:55Z</time>
      </trkpt>
      <trkpt lat="45.87131" lon="7.05339">
        <ele>2134</ele>
        <time>2022-08-27T13:38:57Z</time>
      </trkpt>
      <trkpt lat="45.87131" lon="7.05339">
        <ele>2134</ele>
        <time>2022-08-27T13:38:59Z</time>
      </trkpt>
      <trkpt lat="45.87131" lon="7.05339">
        <ele>2134</ele>
        <time>2022-08-27T13:39:00Z</time>
      </trkpt>
      <trkpt lat="45.87131" lon="7.05339">
        <ele>2134</ele>
        <time>2022-08-27T13:39:01Z</time>
      </trkpt>
      <trkpt lat="45.87131" lon="7.05339">
        <ele>2134</ele>
        <time>2022-08-27T13:39:02Z</time>
      </trkpt>
      <trkpt lat="45.87131" lon="7.05339">
        <ele>2134</ele>
        <time>2022-08-27T13:39:03Z</time>
      </trkpt>
      <trkpt lat="45.87131" lon="7.05339">
        <ele>2134</ele>
        <time>2022-08-27T13:39:05Z</time>
      </trkpt>
      <trkpt lat="45.87131" lon="7.05339">
        <ele>2134</ele>
        <time>2022-08-27T13:39:06Z</time>
      </trkpt>
      <trkpt lat="45.87131" lon="7.05339">
        <ele>2134</ele>
        <time>2022-08-27T13:39:07Z</time>
      </trkpt>
      <trkpt lat="45.87131" lon="7.05339">
        <ele>2134</ele>
        <time>2022-08-27T13:39:08Z</time>
      </trkpt>
      <trkpt lat="45.87131" lon="7.05339">
        <ele>2134</ele>
        <time>2022-08-27T13:39:10Z</time>
      </trkpt>
      <trkpt lat="45.8713" lon="7.05339">
        <ele>2134</ele>
        <time>2022-08-27T13:39:12Z</time>
      </trkpt>
      <trkpt lat="45.8713" lon="7.05338">
        <ele>2134</ele>
        <time>2022-08-27T13:39:14Z</time>
      </trkpt>
      <trkpt lat="45.8713" lon="7.05338">
        <ele>2134</ele>
        <time>2022-08-27T13:39:16Z</time>
      </trkpt>
      <trkpt lat="45.8713" lon="7.05338">
        <ele>2134</ele>
        <time>2022-08-27T13:39:18Z</time>
      </trkpt>
      <trkpt lat="45.8713" lon="7.05338">
        <ele>2134</ele>
        <time>2022-08-27T13:39:19Z</time>
      </trkpt>
      <trkpt lat="45.8713" lon="7.05338">
        <ele>2134</ele>
        <time>2022-08-27T13:39:21Z</time>
      </trkpt>
      <trkpt lat="45.8713" lon="7.05338">
        <ele>2134</ele>
        <time>2022-08-27T13:39:24Z</time>
      </trkpt>
      <trkpt lat="45.8713" lon="7.05338">
        <ele>2134</ele>
        <time>2022-08-27T13:39:26Z</time>
      </trkpt>
      <trkpt lat="45.8713" lon="7.05338">
        <ele>2134</ele>
        <time>2022-08-27T13:39:28Z</time>
      </trkpt>
      <trkpt lat="45.8713" lon="7.05338">
        <ele>2134</ele>
        <time>2022-08-27T13:39:29Z</time>
      </trkpt>
      <trkpt lat="45.8713" lon="7.05338">
        <ele>2134</ele>
        <time>2022-08-27T13:39:30Z</time>
      </trkpt>
      <trkpt lat="45.8713" lon="7.05338">
        <ele>2134</ele>
        <time>2022-08-27T13:39:31Z</time>
      </trkpt>
      <trkpt lat="45.8713" lon="7.05338">
        <ele>2134</ele>
        <time>2022-08-27T13:39:32Z</time>
      </trkpt>
      <trkpt lat="45.8713" lon="7.05338">
        <ele>2134</ele>
        <time>2022-08-27T13:39:33Z</time>
      </trkpt>
      <trkpt lat="45.87129" lon="7.05338">
        <ele>2134</ele>
        <time>2022-08-27T13:39:34Z</time>
      </trkpt>
      <trkpt lat="45.87129" lon="7.05338">
        <ele>2134</ele>
        <time>2022-08-27T13:39:35Z</time>
      </trkpt>
      <trkpt lat="45.87129" lon="7.05338">
        <ele>2134</ele>
        <time>2022-08-27T13:39:36Z</time>
      </trkpt>
      <trkpt lat="45.87129" lon="7.05337">
        <ele>2134</ele>
        <time>2022-08-27T13:39:38Z</time>
      </trkpt>
      <trkpt lat="45.87129" lon="7.05337">
        <ele>2134</ele>
        <time>2022-08-27T13:39:40Z</time>
      </trkpt>
      <trkpt lat="45.87129" lon="7.05337">
        <ele>2134</ele>
        <time>2022-08-27T13:39:43Z</time>
      </trkpt>
      <trkpt lat="45.87129" lon="7.05337">
        <ele>2134</ele>
        <time>2022-08-27T13:39:45Z</time>
      </trkpt>
      <trkpt lat="45.87129" lon="7.05337">
        <ele>2134</ele>
        <time>2022-08-27T13:39:46Z</time>
      </trkpt>
      <trkpt lat="45.87129" lon="7.05337">
        <ele>2134</ele>
        <time>2022-08-27T13:39:48Z</time>
      </trkpt>
      <trkpt lat="45.87129" lon="7.05337">
        <ele>2134</ele>
        <time>2022-08-27T13:39:50Z</time>
      </trkpt>
      <trkpt lat="45.87129" lon="7.05337">
        <ele>2134</ele>
        <time>2022-08-27T13:39:52Z</time>
      </trkpt>
      <trkpt lat="45.87129" lon="7.05337">
        <ele>2134</ele>
        <time>2022-08-27T13:39:54Z</time>
      </trkpt>
      <trkpt lat="45.87128" lon="7.05337">
        <ele>2134</ele>
        <time>2022-08-27T13:39:56Z</time>
      </trkpt>
      <trkpt lat="45.87128" lon="7.05337">
        <ele>2134</ele>
        <time>2022-08-27T13:39:58Z</time>
      </trkpt>
      <trkpt lat="45.87128" lon="7.05337">
        <ele>2134</ele>
        <time>2022-08-27T13:39:59Z</time>
      </trkpt>
      <trkpt lat="45.87128" lon="7.05337">
        <ele>2134</ele>
        <time>2022-08-27T13:40:00Z</time>
      </trkpt>
      <trkpt lat="45.87128" lon="7.05336">
        <ele>2134</ele>
        <time>2022-08-27T13:40:02Z</time>
      </trkpt>
      <trkpt lat="45.87128" lon="7.05336">
        <ele>2134</ele>
        <time>2022-08-27T13:40:03Z</time>
      </trkpt>
      <trkpt lat="45.87128" lon="7.05336">
        <ele>2134</ele>
        <time>2022-08-27T13:40:04Z</time>
      </trkpt>
      <trkpt lat="45.87128" lon="7.05336">
        <ele>2134</ele>
        <time>2022-08-27T13:40:05Z</time>
      </trkpt>
      <trkpt lat="45.87128" lon="7.05336">
        <ele>2134</ele>
        <time>2022-08-27T13:40:06Z</time>
      </trkpt>
      <trkpt lat="45.87128" lon="7.05336">
        <ele>2134</ele>
        <time>2022-08-27T13:40:23Z</time>
      </trkpt>
      <trkpt lat="45.87126" lon="7.05337">
        <ele>2134</ele>
        <time>2022-08-27T13:40:32Z</time>
      </trkpt>
      <trkpt lat="45.87128" lon="7.05338">
        <ele>2134</ele>
        <time>2022-08-27T13:40:41Z</time>
      </trkpt>
      <trkpt lat="45.87126" lon="7.05337">
        <ele>2134</ele>
        <time>2022-08-27T13:40:47Z</time>
      </trkpt>
      <trkpt lat="45.87126" lon="7.05337">
        <ele>2134</ele>
        <time>2022-08-27T13:40:51Z</time>
      </trkpt>
      <trkpt lat="45.87124" lon="7.05335">
        <ele>2134</ele>
        <time>2022-08-27T13:40:53Z</time>
      </trkpt>
      <trkpt lat="45.87124" lon="7.05335">
        <ele>2134</ele>
        <time>2022-08-27T13:40:54Z</time>
      </trkpt>
      <trkpt lat="45.87124" lon="7.05335">
        <ele>2134</ele>
        <time>2022-08-27T13:40:55Z</time>
      </trkpt>
      <trkpt lat="45.87124" lon="7.05335">
        <ele>2134</ele>
        <time>2022-08-27T13:40:56Z</time>
      </trkpt>
      <trkpt lat="45.87124" lon="7.05335">
        <ele>2134</ele>
        <time>2022-08-27T13:40:57Z</time>
      </trkpt>
      <trkpt lat="45.87125" lon="7.05335">
        <ele>2134</ele>
        <time>2022-08-27T13:40:59Z</time>
      </trkpt>
      <trkpt lat="45.87125" lon="7.05335">
        <ele>2134</ele>
        <time>2022-08-27T13:41:00Z</time>
      </trkpt>
      <trkpt lat="45.87125" lon="7.05335">
        <ele>2134</ele>
        <time>2022-08-27T13:41:01Z</time>
      </trkpt>
      <trkpt lat="45.87125" lon="7.05335">
        <ele>2134</ele>
        <time>2022-08-27T13:41:02Z</time>
      </trkpt>
      <trkpt lat="45.87125" lon="7.05335">
        <ele>2134</ele>
        <time>2022-08-27T13:41:03Z</time>
      </trkpt>
      <trkpt lat="45.87126" lon="7.05335">
        <ele>2134</ele>
        <time>2022-08-27T13:41:04Z</time>
      </trkpt>
      <trkpt lat="45.87126" lon="7.05335">
        <ele>2134</ele>
        <time>2022-08-27T13:41:05Z</time>
      </trkpt>
      <trkpt lat="45.87126" lon="7.05335">
        <ele>2134</ele>
        <time>2022-08-27T13:41:06Z</time>
      </trkpt>
      <trkpt lat="45.87126" lon="7.05335">
        <ele>2134</ele>
        <time>2022-08-27T13:41:07Z</time>
      </trkpt>
      <trkpt lat="45.87126" lon="7.05335">
        <ele>2134</ele>
        <time>2022-08-27T13:41:08Z</time>
      </trkpt>
      <trkpt lat="45.87127" lon="7.05335">
        <ele>2134</ele>
        <time>2022-08-27T13:41:09Z</time>
      </trkpt>
      <trkpt lat="45.87127" lon="7.05335">
        <ele>2134</ele>
        <time>2022-08-27T13:41:10Z</time>
      </trkpt>
      <trkpt lat="45.87127" lon="7.05335">
        <ele>2134</ele>
        <time>2022-08-27T13:41:12Z</time>
      </trkpt>
      <trkpt lat="45.87127" lon="7.05334">
        <ele>2134</ele>
        <time>2022-08-27T13:41:13Z</time>
      </trkpt>
      <trkpt lat="45.87127" lon="7.05334">
        <ele>2134</ele>
        <time>2022-08-27T13:41:14Z</time>
      </trkpt>
      <trkpt lat="45.87128" lon="7.05334">
        <ele>2134</ele>
        <time>2022-08-27T13:41:15Z</time>
      </trkpt>
      <trkpt lat="45.87128" lon="7.05334">
        <ele>2134</ele>
        <time>2022-08-27T13:41:16Z</time>
      </trkpt>
      <trkpt lat="45.87128" lon="7.05334">
        <ele>2134</ele>
        <time>2022-08-27T13:41:18Z</time>
      </trkpt>
      <trkpt lat="45.87128" lon="7.05334">
        <ele>2134</ele>
        <time>2022-08-27T13:41:19Z</time>
      </trkpt>
      <trkpt lat="45.87128" lon="7.05334">
        <ele>2134</ele>
        <time>2022-08-27T13:41:20Z</time>
      </trkpt>
      <trkpt lat="45.87129" lon="7.05334">
        <ele>2134</ele>
        <time>2022-08-27T13:41:21Z</time>
      </trkpt>
      <trkpt lat="45.87129" lon="7.05334">
        <ele>2134</ele>
        <time>2022-08-27T13:41:22Z</time>
      </trkpt>
      <trkpt lat="45.87129" lon="7.05334">
        <ele>2134</ele>
        <time>2022-08-27T13:41:23Z</time>
      </trkpt>
      <trkpt lat="45.87129" lon="7.05334">
        <ele>2134</ele>
        <time>2022-08-27T13:41:24Z</time>
      </trkpt>
      <trkpt lat="45.8713" lon="7.05334">
        <ele>2134</ele>
        <time>2022-08-27T13:41:25Z</time>
      </trkpt>
      <trkpt lat="45.8713" lon="7.05334">
        <ele>2134</ele>
        <time>2022-08-27T13:41:26Z</time>
      </trkpt>
      <trkpt lat="45.8713" lon="7.05334">
        <ele>2134</ele>
        <time>2022-08-27T13:41:27Z</time>
      </trkpt>
      <trkpt lat="45.8713" lon="7.05334">
        <ele>2134</ele>
        <time>2022-08-27T13:41:28Z</time>
      </trkpt>
      <trkpt lat="45.8713" lon="7.05334">
        <ele>2134</ele>
        <time>2022-08-27T13:41:29Z</time>
      </trkpt>
      <trkpt lat="45.8713" lon="7.05334">
        <ele>2134</ele>
        <time>2022-08-27T13:41:30Z</time>
      </trkpt>
      <trkpt lat="45.8713" lon="7.05334">
        <ele>2134</ele>
        <time>2022-08-27T13:41:31Z</time>
      </trkpt>
      <trkpt lat="45.87131" lon="7.05334">
        <ele>2134</ele>
        <time>2022-08-27T13:41:32Z</time>
      </trkpt>
      <trkpt lat="45.87131" lon="7.05334">
        <ele>2134</ele>
        <time>2022-08-27T13:41:33Z</time>
      </trkpt>
      <trkpt lat="45.87131" lon="7.05334">
        <ele>2134</ele>
        <time>2022-08-27T13:41:34Z</time>
      </trkpt>
      <trkpt lat="45.87131" lon="7.05334">
        <ele>2134</ele>
        <time>2022-08-27T13:41:35Z</time>
      </trkpt>
      <trkpt lat="45.87131" lon="7.05334">
        <ele>2134</ele>
        <time>2022-08-27T13:41:37Z</time>
      </trkpt>
      <trkpt lat="45.87131" lon="7.05334">
        <ele>2134</ele>
        <time>2022-08-27T13:41:38Z</time>
      </trkpt>
      <trkpt lat="45.87131" lon="7.05334">
        <ele>2134</ele>
        <time>2022-08-27T13:41:39Z</time>
      </trkpt>
      <trkpt lat="45.87132" lon="7.05334">
        <ele>2134</ele>
        <time>2022-08-27T13:41:40Z</time>
      </trkpt>
      <trkpt lat="45.87132" lon="7.05334">
        <ele>2134</ele>
        <time>2022-08-27T13:41:41Z</time>
      </trkpt>
      <trkpt lat="45.87132" lon="7.05334">
        <ele>2134</ele>
        <time>2022-08-27T13:41:42Z</time>
      </trkpt>
      <trkpt lat="45.87132" lon="7.05334">
        <ele>2134</ele>
        <time>2022-08-27T13:41:43Z</time>
      </trkpt>
      <trkpt lat="45.87132" lon="7.05334">
        <ele>2134</ele>
        <time>2022-08-27T13:41:44Z</time>
      </trkpt>
      <trkpt lat="45.87132" lon="7.05334">
        <ele>2134</ele>
        <time>2022-08-27T13:41:45Z</time>
      </trkpt>
      <trkpt lat="45.87132" lon="7.05334">
        <ele>2134</ele>
        <time>2022-08-27T13:41:46Z</time>
      </trkpt>
      <trkpt lat="45.87133" lon="7.05334">
        <ele>2134</ele>
        <time>2022-08-27T13:41:47Z</time>
      </trkpt>
      <trkpt lat="45.87133" lon="7.05334">
        <ele>2134</ele>
        <time>2022-08-27T13:41:48Z</time>
      </trkpt>
      <trkpt lat="45.87133" lon="7.05334">
        <ele>2134</ele>
        <time>2022-08-27T13:41:49Z</time>
      </trkpt>
      <trkpt lat="45.87133" lon="7.05334">
        <ele>2134</ele>
        <time>2022-08-27T13:41:50Z</time>
      </trkpt>
      <trkpt lat="45.87133" lon="7.05334">
        <ele>2134</ele>
        <time>2022-08-27T13:41:51Z</time>
      </trkpt>
      <trkpt lat="45.87133" lon="7.05334">
        <ele>2134</ele>
        <time>2022-08-27T13:41:52Z</time>
      </trkpt>
      <trkpt lat="45.87134" lon="7.05334">
        <ele>2134</ele>
        <time>2022-08-27T13:41:53Z</time>
      </trkpt>
      <trkpt lat="45.87134" lon="7.05334">
        <ele>2134</ele>
        <time>2022-08-27T13:41:54Z</time>
      </trkpt>
      <trkpt lat="45.87134" lon="7.05334">
        <ele>2134</ele>
        <time>2022-08-27T13:41:56Z</time>
      </trkpt>
      <trkpt lat="45.87134" lon="7.05334">
        <ele>2134</ele>
        <time>2022-08-27T13:41:57Z</time>
      </trkpt>
      <trkpt lat="45.87134" lon="7.05334">
        <ele>2134</ele>
        <time>2022-08-27T13:41:58Z</time>
      </trkpt>
      <trkpt lat="45.87134" lon="7.05334">
        <ele>2134</ele>
        <time>2022-08-27T13:41:59Z</time>
      </trkpt>
      <trkpt lat="45.87134" lon="7.05334">
        <ele>2134</ele>
        <time>2022-08-27T13:42:00Z</time>
      </trkpt>
      <trkpt lat="45.87135" lon="7.05334">
        <ele>2134</ele>
        <time>2022-08-27T13:42:01Z</time>
      </trkpt>
      <trkpt lat="45.87135" lon="7.05334">
        <ele>2134</ele>
        <time>2022-08-27T13:42:02Z</time>
      </trkpt>
      <trkpt lat="45.87135" lon="7.05334">
        <ele>2134</ele>
        <time>2022-08-27T13:42:03Z</time>
      </trkpt>
      <trkpt lat="45.87135" lon="7.05334">
        <ele>2134</ele>
        <time>2022-08-27T13:42:04Z</time>
      </trkpt>
      <trkpt lat="45.87135" lon="7.05334">
        <ele>2134</ele>
        <time>2022-08-27T13:42:05Z</time>
      </trkpt>
      <trkpt lat="45.87135" lon="7.05334">
        <ele>2134</ele>
        <time>2022-08-27T13:42:06Z</time>
      </trkpt>
      <trkpt lat="45.87135" lon="7.05334">
        <ele>2134</ele>
        <time>2022-08-27T13:42:07Z</time>
      </trkpt>
      <trkpt lat="45.87136" lon="7.05334">
        <ele>2134</ele>
        <time>2022-08-27T13:42:08Z</time>
      </trkpt>
      <trkpt lat="45.87136" lon="7.05334">
        <ele>2134</ele>
        <time>2022-08-27T13:42:09Z</time>
      </trkpt>
      <trkpt lat="45.87136" lon="7.05334">
        <ele>2134</ele>
        <time>2022-08-27T13:42:10Z</time>
      </trkpt>
      <trkpt lat="45.87136" lon="7.05334">
        <ele>2134</ele>
        <time>2022-08-27T13:42:11Z</time>
      </trkpt>
      <trkpt lat="45.87136" lon="7.05334">
        <ele>2134</ele>
        <time>2022-08-27T13:42:12Z</time>
      </trkpt>
      <trkpt lat="45.87136" lon="7.05334">
        <ele>2134</ele>
        <time>2022-08-27T13:42:13Z</time>
      </trkpt>
      <trkpt lat="45.87137" lon="7.05334">
        <ele>2134</ele>
        <time>2022-08-27T13:42:15Z</time>
      </trkpt>
      <trkpt lat="45.87137" lon="7.05334">
        <ele>2134</ele>
        <time>2022-08-27T13:42:16Z</time>
      </trkpt>
      <trkpt lat="45.87137" lon="7.05334">
        <ele>2134</ele>
        <time>2022-08-27T13:42:34Z</time>
      </trkpt>
      <trkpt lat="45.87137" lon="7.05334">
        <ele>2134</ele>
        <time>2022-08-27T13:42:50Z</time>
      </trkpt>
      <trkpt lat="45.8714" lon="7.05335">
        <ele>2134</ele>
        <time>2022-08-27T13:42:54Z</time>
      </trkpt>
      <trkpt lat="45.8714" lon="7.05335">
        <ele>2134</ele>
        <time>2022-08-27T13:42:55Z</time>
      </trkpt>
      <trkpt lat="45.8714" lon="7.05335">
        <ele>2134</ele>
        <time>2022-08-27T13:42:56Z</time>
      </trkpt>
      <trkpt lat="45.8714" lon="7.05335">
        <ele>2134</ele>
        <time>2022-08-27T13:42:57Z</time>
      </trkpt>
      <trkpt lat="45.8714" lon="7.05335">
        <ele>2134</ele>
        <time>2022-08-27T13:42:58Z</time>
      </trkpt>
      <trkpt lat="45.8714" lon="7.05335">
        <ele>2134</ele>
        <time>2022-08-27T13:42:59Z</time>
      </trkpt>
      <trkpt lat="45.87139" lon="7.05335">
        <ele>2134</ele>
        <time>2022-08-27T13:43:00Z</time>
      </trkpt>
      <trkpt lat="45.87139" lon="7.05335">
        <ele>2134</ele>
        <time>2022-08-27T13:43:01Z</time>
      </trkpt>
      <trkpt lat="45.87139" lon="7.05335">
        <ele>2134</ele>
        <time>2022-08-27T13:43:02Z</time>
      </trkpt>
      <trkpt lat="45.87139" lon="7.05335">
        <ele>2134</ele>
        <time>2022-08-27T13:43:03Z</time>
      </trkpt>
      <trkpt lat="45.87139" lon="7.05335">
        <ele>2134</ele>
        <time>2022-08-27T13:43:04Z</time>
      </trkpt>
      <trkpt lat="45.87139" lon="7.05335">
        <ele>2134</ele>
        <time>2022-08-27T13:43:05Z</time>
      </trkpt>
      <trkpt lat="45.87139" lon="7.05335">
        <ele>2134</ele>
        <time>2022-08-27T13:43:06Z</time>
      </trkpt>
      <trkpt lat="45.87139" lon="7.05335">
        <ele>2134</ele>
        <time>2022-08-27T13:43:07Z</time>
      </trkpt>
      <trkpt lat="45.87139" lon="7.05335">
        <ele>2134</ele>
        <time>2022-08-27T13:43:08Z</time>
      </trkpt>
      <trkpt lat="45.87139" lon="7.05335">
        <ele>2134</ele>
        <time>2022-08-27T13:43:09Z</time>
      </trkpt>
      <trkpt lat="45.87139" lon="7.05335">
        <ele>2134</ele>
        <time>2022-08-27T13:43:10Z</time>
      </trkpt>
      <trkpt lat="45.87138" lon="7.05336">
        <ele>2134</ele>
        <time>2022-08-27T13:43:12Z</time>
      </trkpt>
      <trkpt lat="45.87138" lon="7.05336">
        <ele>2134</ele>
        <time>2022-08-27T13:43:13Z</time>
      </trkpt>
      <trkpt lat="45.87138" lon="7.05336">
        <ele>2134</ele>
        <time>2022-08-27T13:43:14Z</time>
      </trkpt>
      <trkpt lat="45.87138" lon="7.05336">
        <ele>2134</ele>
        <time>2022-08-27T13:43:15Z</time>
      </trkpt>
      <trkpt lat="45.87138" lon="7.05336">
        <ele>2134</ele>
        <time>2022-08-27T13:43:16Z</time>
      </trkpt>
      <trkpt lat="45.87138" lon="7.05336">
        <ele>2134</ele>
        <time>2022-08-27T13:43:17Z</time>
      </trkpt>
      <trkpt lat="45.87138" lon="7.05336">
        <ele>2134</ele>
        <time>2022-08-27T13:43:18Z</time>
      </trkpt>
      <trkpt lat="45.87138" lon="7.05336">
        <ele>2134</ele>
        <time>2022-08-27T13:43:19Z</time>
      </trkpt>
      <trkpt lat="45.87138" lon="7.05336">
        <ele>2134</ele>
        <time>2022-08-27T13:43:20Z</time>
      </trkpt>
      <trkpt lat="45.87138" lon="7.05336">
        <ele>2134</ele>
        <time>2022-08-27T13:43:22Z</time>
      </trkpt>
      <trkpt lat="45.87137" lon="7.05336">
        <ele>2134</ele>
        <time>2022-08-27T13:43:23Z</time>
      </trkpt>
      <trkpt lat="45.87137" lon="7.05336">
        <ele>2134</ele>
        <time>2022-08-27T13:43:24Z</time>
      </trkpt>
      <trkpt lat="45.87137" lon="7.05336">
        <ele>2134</ele>
        <time>2022-08-27T13:43:25Z</time>
      </trkpt>
      <trkpt lat="45.87137" lon="7.05336">
        <ele>2134</ele>
        <time>2022-08-27T13:43:26Z</time>
      </trkpt>
      <trkpt lat="45.87137" lon="7.05336">
        <ele>2134</ele>
        <time>2022-08-27T13:43:27Z</time>
      </trkpt>
      <trkpt lat="45.87137" lon="7.05336">
        <ele>2134</ele>
        <time>2022-08-27T13:43:28Z</time>
      </trkpt>
      <trkpt lat="45.87137" lon="7.05336">
        <ele>2134</ele>
        <time>2022-08-27T13:43:29Z</time>
      </trkpt>
      <trkpt lat="45.87137" lon="7.05336">
        <ele>2134</ele>
        <time>2022-08-27T13:43:31Z</time>
      </trkpt>
      <trkpt lat="45.87137" lon="7.05337">
        <ele>2134</ele>
        <time>2022-08-27T13:43:32Z</time>
      </trkpt>
      <trkpt lat="45.87137" lon="7.05337">
        <ele>2134</ele>
        <time>2022-08-27T13:43:34Z</time>
      </trkpt>
      <trkpt lat="45.87136" lon="7.05337">
        <ele>2134</ele>
        <time>2022-08-27T13:43:35Z</time>
      </trkpt>
      <trkpt lat="45.87136" lon="7.05337">
        <ele>2134</ele>
        <time>2022-08-27T13:43:36Z</time>
      </trkpt>
      <trkpt lat="45.87136" lon="7.05337">
        <ele>2134</ele>
        <time>2022-08-27T13:43:37Z</time>
      </trkpt>
      <trkpt lat="45.87136" lon="7.05337">
        <ele>2134</ele>
        <time>2022-08-27T13:43:38Z</time>
      </trkpt>
      <trkpt lat="45.87136" lon="7.05337">
        <ele>2134</ele>
        <time>2022-08-27T13:43:39Z</time>
      </trkpt>
      <trkpt lat="45.87136" lon="7.05337">
        <ele>2134</ele>
        <time>2022-08-27T13:43:40Z</time>
      </trkpt>
      <trkpt lat="45.87136" lon="7.05337">
        <ele>2134</ele>
        <time>2022-08-27T13:43:41Z</time>
      </trkpt>
      <trkpt lat="45.87136" lon="7.05337">
        <ele>2134</ele>
        <time>2022-08-27T13:43:42Z</time>
      </trkpt>
      <trkpt lat="45.87136" lon="7.05337">
        <ele>2134</ele>
        <time>2022-08-27T13:43:43Z</time>
      </trkpt>
      <trkpt lat="45.87136" lon="7.05337">
        <ele>2134</ele>
        <time>2022-08-27T13:43:44Z</time>
      </trkpt>
      <trkpt lat="45.87136" lon="7.05337">
        <ele>2134</ele>
        <time>2022-08-27T13:43:45Z</time>
      </trkpt>
      <trkpt lat="45.87135" lon="7.05337">
        <ele>2134</ele>
        <time>2022-08-27T13:43:46Z</time>
      </trkpt>
      <trkpt lat="45.87135" lon="7.05337">
        <ele>2134</ele>
        <time>2022-08-27T13:43:47Z</time>
      </trkpt>
      <trkpt lat="45.87135" lon="7.05337">
        <ele>2134</ele>
        <time>2022-08-27T13:43:48Z</time>
      </trkpt>
      <trkpt lat="45.87135" lon="7.05337">
        <ele>2134</ele>
        <time>2022-08-27T13:43:50Z</time>
      </trkpt>
      <trkpt lat="45.87135" lon="7.05337">
        <ele>2134</ele>
        <time>2022-08-27T13:43:51Z</time>
      </trkpt>
      <trkpt lat="45.87135" lon="7.05338">
        <ele>2134</ele>
        <time>2022-08-27T13:43:52Z</time>
      </trkpt>
      <trkpt lat="45.87135" lon="7.05338">
        <ele>2134</ele>
        <time>2022-08-27T13:43:53Z</time>
      </trkpt>
      <trkpt lat="45.87135" lon="7.05338">
        <ele>2134</ele>
        <time>2022-08-27T13:43:54Z</time>
      </trkpt>
      <trkpt lat="45.87135" lon="7.05338">
        <ele>2134</ele>
        <time>2022-08-27T13:43:55Z</time>
      </trkpt>
      <trkpt lat="45.87135" lon="7.05338">
        <ele>2134</ele>
        <time>2022-08-27T13:43:56Z</time>
      </trkpt>
      <trkpt lat="45.87135" lon="7.05338">
        <ele>2134</ele>
        <time>2022-08-27T13:43:57Z</time>
      </trkpt>
      <trkpt lat="45.87134" lon="7.05338">
        <ele>2134</ele>
        <time>2022-08-27T13:43:58Z</time>
      </trkpt>
      <trkpt lat="45.87134" lon="7.05338">
        <ele>2134</ele>
        <time>2022-08-27T13:43:59Z</time>
      </trkpt>
      <trkpt lat="45.87134" lon="7.05338">
        <ele>2134</ele>
        <time>2022-08-27T13:44:00Z</time>
      </trkpt>
      <trkpt lat="45.87134" lon="7.05338">
        <ele>2134</ele>
        <time>2022-08-27T13:44:01Z</time>
      </trkpt>
      <trkpt lat="45.87134" lon="7.05338">
        <ele>2134</ele>
        <time>2022-08-27T13:44:02Z</time>
      </trkpt>
      <trkpt lat="45.87134" lon="7.05338">
        <ele>2134</ele>
        <time>2022-08-27T13:44:03Z</time>
      </trkpt>
      <trkpt lat="45.87134" lon="7.05338">
        <ele>2134</ele>
        <time>2022-08-27T13:44:04Z</time>
      </trkpt>
      <trkpt lat="45.87134" lon="7.05338">
        <ele>2134</ele>
        <time>2022-08-27T13:44:21Z</time>
      </trkpt>
      <trkpt lat="45.87134" lon="7.05338">
        <ele>2134</ele>
        <time>2022-08-27T13:44:38Z</time>
      </trkpt>
      <trkpt lat="45.87134" lon="7.05338">
        <ele>2134</ele>
        <time>2022-08-27T13:44:55Z</time>
      </trkpt>
      <trkpt lat="45.87137" lon="7.05335">
        <ele>2134</ele>
        <time>2022-08-27T13:45:10Z</time>
      </trkpt>
      <trkpt lat="45.87137" lon="7.05335">
        <ele>2134</ele>
        <time>2022-08-27T13:45:13Z</time>
      </trkpt>
      <trkpt lat="45.87139" lon="7.05335">
        <ele>2134</ele>
        <time>2022-08-27T13:45:15Z</time>
      </trkpt>
      <trkpt lat="45.87141" lon="7.05336">
        <ele>2134</ele>
        <time>2022-08-27T13:45:23Z</time>
      </trkpt>
      <trkpt lat="45.87141" lon="7.05336">
        <ele>2134</ele>
        <time>2022-08-27T13:45:25Z</time>
      </trkpt>
      <trkpt lat="45.8714" lon="7.05336">
        <ele>2134</ele>
        <time>2022-08-27T13:45:26Z</time>
      </trkpt>
      <trkpt lat="45.8714" lon="7.05336">
        <ele>2134</ele>
        <time>2022-08-27T13:45:27Z</time>
      </trkpt>
      <trkpt lat="45.8714" lon="7.05335">
        <ele>2134</ele>
        <time>2022-08-27T13:45:28Z</time>
      </trkpt>
      <trkpt lat="45.8714" lon="7.05335">
        <ele>2134</ele>
        <time>2022-08-27T13:45:30Z</time>
      </trkpt>
      <trkpt lat="45.8714" lon="7.05335">
        <ele>2134</ele>
        <time>2022-08-27T13:45:32Z</time>
      </trkpt>
      <trkpt lat="45.8714" lon="7.05335">
        <ele>2134</ele>
        <time>2022-08-27T13:45:33Z</time>
      </trkpt>
      <trkpt lat="45.8714" lon="7.05334">
        <ele>2134</ele>
        <time>2022-08-27T13:45:34Z</time>
      </trkpt>
      <trkpt lat="45.8714" lon="7.05334">
        <ele>2134</ele>
        <time>2022-08-27T13:45:35Z</time>
      </trkpt>
      <trkpt lat="45.8714" lon="7.05334">
        <ele>2134</ele>
        <time>2022-08-27T13:45:37Z</time>
      </trkpt>
      <trkpt lat="45.8714" lon="7.05333">
        <ele>2134</ele>
        <time>2022-08-27T13:45:38Z</time>
      </trkpt>
      <trkpt lat="45.8714" lon="7.05333">
        <ele>2134</ele>
        <time>2022-08-27T13:45:39Z</time>
      </trkpt>
      <trkpt lat="45.8714" lon="7.05333">
        <ele>2134</ele>
        <time>2022-08-27T13:45:40Z</time>
      </trkpt>
      <trkpt lat="45.8714" lon="7.05333">
        <ele>2134</ele>
        <time>2022-08-27T13:45:41Z</time>
      </trkpt>
      <trkpt lat="45.8714" lon="7.05332">
        <ele>2134</ele>
        <time>2022-08-27T13:45:42Z</time>
      </trkpt>
      <trkpt lat="45.8714" lon="7.05332">
        <ele>2134</ele>
        <time>2022-08-27T13:45:44Z</time>
      </trkpt>
      <trkpt lat="45.8714" lon="7.05332">
        <ele>2134</ele>
        <time>2022-08-27T13:45:45Z</time>
      </trkpt>
      <trkpt lat="45.8714" lon="7.05332">
        <ele>2134</ele>
        <time>2022-08-27T13:45:46Z</time>
      </trkpt>
      <trkpt lat="45.8714" lon="7.05331">
        <ele>2134</ele>
        <time>2022-08-27T13:45:47Z</time>
      </trkpt>
      <trkpt lat="45.8714" lon="7.05331">
        <ele>2134</ele>
        <time>2022-08-27T13:45:48Z</time>
      </trkpt>
      <trkpt lat="45.8714" lon="7.05331">
        <ele>2134</ele>
        <time>2022-08-27T13:45:49Z</time>
      </trkpt>
      <trkpt lat="45.8714" lon="7.0533">
        <ele>2134</ele>
        <time>2022-08-27T13:45:50Z</time>
      </trkpt>
      <trkpt lat="45.8714" lon="7.0533">
        <ele>2134</ele>
        <time>2022-08-27T13:45:51Z</time>
      </trkpt>
      <trkpt lat="45.8714" lon="7.0533">
        <ele>2134</ele>
        <time>2022-08-27T13:45:52Z</time>
      </trkpt>
      <trkpt lat="45.8714" lon="7.0533">
        <ele>2134</ele>
        <time>2022-08-27T13:45:53Z</time>
      </trkpt>
      <trkpt lat="45.8714" lon="7.05329">
        <ele>2134</ele>
        <time>2022-08-27T13:45:54Z</time>
      </trkpt>
      <trkpt lat="45.8714" lon="7.05329">
        <ele>2134</ele>
        <time>2022-08-27T13:45:55Z</time>
      </trkpt>
      <trkpt lat="45.8714" lon="7.05329">
        <ele>2134</ele>
        <time>2022-08-27T13:45:57Z</time>
      </trkpt>
      <trkpt lat="45.8714" lon="7.05329">
        <ele>2134</ele>
        <time>2022-08-27T13:45:58Z</time>
      </trkpt>
      <trkpt lat="45.8714" lon="7.05328">
        <ele>2134</ele>
        <time>2022-08-27T13:45:59Z</time>
      </trkpt>
      <trkpt lat="45.87139" lon="7.05328">
        <ele>2134</ele>
        <time>2022-08-27T13:46:00Z</time>
      </trkpt>
      <trkpt lat="45.87139" lon="7.05328">
        <ele>2134</ele>
        <time>2022-08-27T13:46:02Z</time>
      </trkpt>
      <trkpt lat="45.87139" lon="7.05328">
        <ele>2134</ele>
        <time>2022-08-27T13:46:03Z</time>
      </trkpt>
      <trkpt lat="45.87139" lon="7.05327">
        <ele>2134</ele>
        <time>2022-08-27T13:46:04Z</time>
      </trkpt>
      <trkpt lat="45.87139" lon="7.05327">
        <ele>2134</ele>
        <time>2022-08-27T13:46:05Z</time>
      </trkpt>
      <trkpt lat="45.87139" lon="7.05327">
        <ele>2134</ele>
        <time>2022-08-27T13:46:06Z</time>
      </trkpt>
      <trkpt lat="45.87139" lon="7.05326">
        <ele>2134</ele>
        <time>2022-08-27T13:46:08Z</time>
      </trkpt>
      <trkpt lat="45.87139" lon="7.05326">
        <ele>2134</ele>
        <time>2022-08-27T13:46:09Z</time>
      </trkpt>
      <trkpt lat="45.87139" lon="7.05326">
        <ele>2134</ele>
        <time>2022-08-27T13:46:10Z</time>
      </trkpt>
      <trkpt lat="45.87139" lon="7.05326">
        <ele>2134</ele>
        <time>2022-08-27T13:46:11Z</time>
      </trkpt>
      <trkpt lat="45.87139" lon="7.05325">
        <ele>2134</ele>
        <time>2022-08-27T13:46:12Z</time>
      </trkpt>
      <trkpt lat="45.87139" lon="7.05325">
        <ele>2134</ele>
        <time>2022-08-27T13:46:13Z</time>
      </trkpt>
      <trkpt lat="45.87139" lon="7.05325">
        <ele>2134</ele>
        <time>2022-08-27T13:46:14Z</time>
      </trkpt>
      <trkpt lat="45.87139" lon="7.05325">
        <ele>2134</ele>
        <time>2022-08-27T13:46:15Z</time>
      </trkpt>
      <trkpt lat="45.87139" lon="7.05324">
        <ele>2134</ele>
        <time>2022-08-27T13:46:16Z</time>
      </trkpt>
      <trkpt lat="45.87139" lon="7.05324">
        <ele>2134</ele>
        <time>2022-08-27T13:46:17Z</time>
      </trkpt>
      <trkpt lat="45.87139" lon="7.05324">
        <ele>2134</ele>
        <time>2022-08-27T13:46:18Z</time>
      </trkpt>
      <trkpt lat="45.87139" lon="7.05323">
        <ele>2134</ele>
        <time>2022-08-27T13:46:19Z</time>
      </trkpt>
      <trkpt lat="45.87139" lon="7.05323">
        <ele>2134</ele>
        <time>2022-08-27T13:46:39Z</time>
      </trkpt>
      <trkpt lat="45.87132" lon="7.05318">
        <ele>2134</ele>
        <time>2022-08-27T13:46:41Z</time>
      </trkpt>
      <trkpt lat="45.87132" lon="7.05318">
        <ele>2134</ele>
        <time>2022-08-27T13:46:42Z</time>
      </trkpt>
      <trkpt lat="45.87132" lon="7.05318">
        <ele>2134</ele>
        <time>2022-08-27T13:46:43Z</time>
      </trkpt>
      <trkpt lat="45.87132" lon="7.05317">
        <ele>2134</ele>
        <time>2022-08-27T13:46:44Z</time>
      </trkpt>
      <trkpt lat="45.87132" lon="7.05317">
        <ele>2134</ele>
        <time>2022-08-27T13:46:46Z</time>
      </trkpt>
      <trkpt lat="45.87132" lon="7.05316">
        <ele>2134</ele>
        <time>2022-08-27T13:46:47Z</time>
      </trkpt>
      <trkpt lat="45.87133" lon="7.05316">
        <ele>2134</ele>
        <time>2022-08-27T13:46:48Z</time>
      </trkpt>
      <trkpt lat="45.87133" lon="7.05315">
        <ele>2134</ele>
        <time>2022-08-27T13:46:49Z</time>
      </trkpt>
      <trkpt lat="45.87133" lon="7.05315">
        <ele>2134</ele>
        <time>2022-08-27T13:46:50Z</time>
      </trkpt>
      <trkpt lat="45.87133" lon="7.05314">
        <ele>2134</ele>
        <time>2022-08-27T13:46:51Z</time>
      </trkpt>
      <trkpt lat="45.87133" lon="7.05314">
        <ele>2134</ele>
        <time>2022-08-27T13:46:52Z</time>
      </trkpt>
      <trkpt lat="45.87133" lon="7.05314">
        <ele>2134</ele>
        <time>2022-08-27T13:46:53Z</time>
      </trkpt>
      <trkpt lat="45.87133" lon="7.05313">
        <ele>2134</ele>
        <time>2022-08-27T13:46:54Z</time>
      </trkpt>
      <trkpt lat="45.87133" lon="7.05313">
        <ele>2134</ele>
        <time>2022-08-27T13:46:55Z</time>
      </trkpt>
      <trkpt lat="45.87133" lon="7.05312">
        <ele>2134</ele>
        <time>2022-08-27T13:46:56Z</time>
      </trkpt>
      <trkpt lat="45.87133" lon="7.05312">
        <ele>2134</ele>
        <time>2022-08-27T13:46:57Z</time>
      </trkpt>
      <trkpt lat="45.87133" lon="7.05311">
        <ele>2134</ele>
        <time>2022-08-27T13:46:58Z</time>
      </trkpt>
      <trkpt lat="45.87133" lon="7.05312">
        <ele>2134</ele>
        <time>2022-08-27T13:47:00Z</time>
      </trkpt>
      <trkpt lat="45.87133" lon="7.05312">
        <ele>2134</ele>
        <time>2022-08-27T13:47:01Z</time>
      </trkpt>
      <trkpt lat="45.87132" lon="7.05312">
        <ele>2134</ele>
        <time>2022-08-27T13:47:02Z</time>
      </trkpt>
      <trkpt lat="45.87132" lon="7.05312">
        <ele>2134</ele>
        <time>2022-08-27T13:47:03Z</time>
      </trkpt>
      <trkpt lat="45.87132" lon="7.05312">
        <ele>2134</ele>
        <time>2022-08-27T13:47:04Z</time>
      </trkpt>
      <trkpt lat="45.87132" lon="7.05312">
        <ele>2134</ele>
        <time>2022-08-27T13:47:05Z</time>
      </trkpt>
      <trkpt lat="45.87132" lon="7.05312">
        <ele>2134</ele>
        <time>2022-08-27T13:47:06Z</time>
      </trkpt>
      <trkpt lat="45.87132" lon="7.05312">
        <ele>2134</ele>
        <time>2022-08-27T13:47:07Z</time>
      </trkpt>
      <trkpt lat="45.87132" lon="7.05313">
        <ele>2134</ele>
        <time>2022-08-27T13:47:08Z</time>
      </trkpt>
      <trkpt lat="45.87132" lon="7.05313">
        <ele>2134</ele>
        <time>2022-08-27T13:47:09Z</time>
      </trkpt>
      <trkpt lat="45.87132" lon="7.05313">
        <ele>2134</ele>
        <time>2022-08-27T13:47:10Z</time>
      </trkpt>
      <trkpt lat="45.87131" lon="7.05313">
        <ele>2134</ele>
        <time>2022-08-27T13:47:11Z</time>
      </trkpt>
      <trkpt lat="45.87131" lon="7.05313">
        <ele>2134</ele>
        <time>2022-08-27T13:47:12Z</time>
      </trkpt>
      <trkpt lat="45.87131" lon="7.05313">
        <ele>2134</ele>
        <time>2022-08-27T13:47:13Z</time>
      </trkpt>
      <trkpt lat="45.87131" lon="7.05313">
        <ele>2134</ele>
        <time>2022-08-27T13:47:14Z</time>
      </trkpt>
      <trkpt lat="45.87131" lon="7.05313">
        <ele>2134</ele>
        <time>2022-08-27T13:47:15Z</time>
      </trkpt>
      <trkpt lat="45.87131" lon="7.05314">
        <ele>2134</ele>
        <time>2022-08-27T13:47:17Z</time>
      </trkpt>
      <trkpt lat="45.87131" lon="7.05314">
        <ele>2134</ele>
        <time>2022-08-27T13:47:19Z</time>
      </trkpt>
      <trkpt lat="45.87131" lon="7.05314">
        <ele>2134</ele>
        <time>2022-08-27T13:47:20Z</time>
      </trkpt>
      <trkpt lat="45.87131" lon="7.05314">
        <ele>2134</ele>
        <time>2022-08-27T13:47:21Z</time>
      </trkpt>
      <trkpt lat="45.8713" lon="7.05314">
        <ele>2134</ele>
        <time>2022-08-27T13:47:22Z</time>
      </trkpt>
      <trkpt lat="45.8713" lon="7.05314">
        <ele>2134</ele>
        <time>2022-08-27T13:47:23Z</time>
      </trkpt>
      <trkpt lat="45.8713" lon="7.05314">
        <ele>2134</ele>
        <time>2022-08-27T13:47:24Z</time>
      </trkpt>
      <trkpt lat="45.8713" lon="7.05314">
        <ele>2134</ele>
        <time>2022-08-27T13:47:25Z</time>
      </trkpt>
      <trkpt lat="45.8713" lon="7.05315">
        <ele>2134</ele>
        <time>2022-08-27T13:47:26Z</time>
      </trkpt>
      <trkpt lat="45.8713" lon="7.05315">
        <ele>2134</ele>
        <time>2022-08-27T13:47:27Z</time>
      </trkpt>
      <trkpt lat="45.8713" lon="7.05315">
        <ele>2134</ele>
        <time>2022-08-27T13:47:28Z</time>
      </trkpt>
      <trkpt lat="45.8713" lon="7.05315">
        <ele>2134</ele>
        <time>2022-08-27T13:47:29Z</time>
      </trkpt>
      <trkpt lat="45.8713" lon="7.05315">
        <ele>2134</ele>
        <time>2022-08-27T13:47:30Z</time>
      </trkpt>
      <trkpt lat="45.8713" lon="7.05315">
        <ele>2134</ele>
        <time>2022-08-27T13:47:31Z</time>
      </trkpt>
      <trkpt lat="45.87129" lon="7.05315">
        <ele>2134</ele>
        <time>2022-08-27T13:47:32Z</time>
      </trkpt>
      <trkpt lat="45.87129" lon="7.05315">
        <ele>2134</ele>
        <time>2022-08-27T13:47:33Z</time>
      </trkpt>
      <trkpt lat="45.87129" lon="7.05316">
        <ele>2134</ele>
        <time>2022-08-27T13:47:34Z</time>
      </trkpt>
      <trkpt lat="45.87129" lon="7.05316">
        <ele>2134</ele>
        <time>2022-08-27T13:47:35Z</time>
      </trkpt>
      <trkpt lat="45.87129" lon="7.05316">
        <ele>2134</ele>
        <time>2022-08-27T13:47:36Z</time>
      </trkpt>
      <trkpt lat="45.87129" lon="7.05316">
        <ele>2134</ele>
        <time>2022-08-27T13:47:38Z</time>
      </trkpt>
      <trkpt lat="45.87129" lon="7.05316">
        <ele>2134</ele>
        <time>2022-08-27T13:47:39Z</time>
      </trkpt>
      <trkpt lat="45.87129" lon="7.05316">
        <ele>2134</ele>
        <time>2022-08-27T13:47:40Z</time>
      </trkpt>
      <trkpt lat="45.87129" lon="7.05316">
        <ele>2134</ele>
        <time>2022-08-27T13:47:41Z</time>
      </trkpt>
      <trkpt lat="45.87128" lon="7.05316">
        <ele>2134</ele>
        <time>2022-08-27T13:47:42Z</time>
      </trkpt>
      <trkpt lat="45.87128" lon="7.05317">
        <ele>2134</ele>
        <time>2022-08-27T13:47:43Z</time>
      </trkpt>
      <trkpt lat="45.87128" lon="7.05317">
        <ele>2134</ele>
        <time>2022-08-27T13:47:44Z</time>
      </trkpt>
      <trkpt lat="45.87128" lon="7.05317">
        <ele>2134</ele>
        <time>2022-08-27T13:47:45Z</time>
      </trkpt>
      <trkpt lat="45.87128" lon="7.05317">
        <ele>2134</ele>
        <time>2022-08-27T13:47:46Z</time>
      </trkpt>
      <trkpt lat="45.87128" lon="7.05317">
        <ele>2134</ele>
        <time>2022-08-27T13:47:47Z</time>
      </trkpt>
      <trkpt lat="45.87128" lon="7.05317">
        <ele>2134</ele>
        <time>2022-08-27T13:47:48Z</time>
      </trkpt>
      <trkpt lat="45.87128" lon="7.05317">
        <ele>2134</ele>
        <time>2022-08-27T13:47:49Z</time>
      </trkpt>
      <trkpt lat="45.87128" lon="7.05317">
        <ele>2134</ele>
        <time>2022-08-27T13:47:50Z</time>
      </trkpt>
      <trkpt lat="45.87127" lon="7.05318">
        <ele>2134</ele>
        <time>2022-08-27T13:47:51Z</time>
      </trkpt>
      <trkpt lat="45.87127" lon="7.05318">
        <ele>2134</ele>
        <time>2022-08-27T13:47:52Z</time>
      </trkpt>
      <trkpt lat="45.87127" lon="7.05318">
        <ele>2134</ele>
        <time>2022-08-27T13:47:53Z</time>
      </trkpt>
      <trkpt lat="45.87127" lon="7.05318">
        <ele>2134</ele>
        <time>2022-08-27T13:47:54Z</time>
      </trkpt>
      <trkpt lat="45.87127" lon="7.05318">
        <ele>2134</ele>
        <time>2022-08-27T13:47:55Z</time>
      </trkpt>
      <trkpt lat="45.87127" lon="7.05318">
        <ele>2134</ele>
        <time>2022-08-27T13:47:57Z</time>
      </trkpt>
      <trkpt lat="45.87127" lon="7.05318">
        <ele>2134</ele>
        <time>2022-08-27T13:47:58Z</time>
      </trkpt>
      <trkpt lat="45.87127" lon="7.05318">
        <ele>2134</ele>
        <time>2022-08-27T13:47:59Z</time>
      </trkpt>
      <trkpt lat="45.87127" lon="7.05319">
        <ele>2134</ele>
        <time>2022-08-27T13:48:00Z</time>
      </trkpt>
      <trkpt lat="45.87127" lon="7.05319">
        <ele>2134</ele>
        <time>2022-08-27T13:48:01Z</time>
      </trkpt>
      <trkpt lat="45.87126" lon="7.05319">
        <ele>2134</ele>
        <time>2022-08-27T13:48:02Z</time>
      </trkpt>
      <trkpt lat="45.87126" lon="7.05319">
        <ele>2134</ele>
        <time>2022-08-27T13:48:03Z</time>
      </trkpt>
      <trkpt lat="45.87126" lon="7.05319">
        <ele>2134</ele>
        <time>2022-08-27T13:48:04Z</time>
      </trkpt>
      <trkpt lat="45.87126" lon="7.05319">
        <ele>2134</ele>
        <time>2022-08-27T13:48:05Z</time>
      </trkpt>
      <trkpt lat="45.87126" lon="7.05319">
        <ele>2134</ele>
        <time>2022-08-27T13:48:06Z</time>
      </trkpt>
      <trkpt lat="45.87126" lon="7.05319">
        <ele>2134</ele>
        <time>2022-08-27T13:48:07Z</time>
      </trkpt>
      <trkpt lat="45.87126" lon="7.0532">
        <ele>2134</ele>
        <time>2022-08-27T13:48:08Z</time>
      </trkpt>
      <trkpt lat="45.87126" lon="7.0532">
        <ele>2134</ele>
        <time>2022-08-27T13:48:09Z</time>
      </trkpt>
      <trkpt lat="45.87126" lon="7.0532">
        <ele>2134</ele>
        <time>2022-08-27T13:48:10Z</time>
      </trkpt>
      <trkpt lat="45.87125" lon="7.0532">
        <ele>2134</ele>
        <time>2022-08-27T13:48:11Z</time>
      </trkpt>
      <trkpt lat="45.87125" lon="7.0532">
        <ele>2134</ele>
        <time>2022-08-27T13:48:12Z</time>
      </trkpt>
      <trkpt lat="45.87125" lon="7.0532">
        <ele>2134</ele>
        <time>2022-08-27T13:48:13Z</time>
      </trkpt>
      <trkpt lat="45.87125" lon="7.0532">
        <ele>2134</ele>
        <time>2022-08-27T13:48:14Z</time>
      </trkpt>
      <trkpt lat="45.87125" lon="7.0532">
        <ele>2134</ele>
        <time>2022-08-27T13:48:16Z</time>
      </trkpt>
      <trkpt lat="45.87125" lon="7.05321">
        <ele>2134</ele>
        <time>2022-08-27T13:48:17Z</time>
      </trkpt>
      <trkpt lat="45.87125" lon="7.05321">
        <ele>2134</ele>
        <time>2022-08-27T13:48:18Z</time>
      </trkpt>
      <trkpt lat="45.87125" lon="7.05321">
        <ele>2134</ele>
        <time>2022-08-27T13:48:19Z</time>
      </trkpt>
      <trkpt lat="45.87125" lon="7.05321">
        <ele>2134</ele>
        <time>2022-08-27T13:48:20Z</time>
      </trkpt>
      <trkpt lat="45.87124" lon="7.05321">
        <ele>2134</ele>
        <time>2022-08-27T13:48:21Z</time>
      </trkpt>
      <trkpt lat="45.87125" lon="7.05321">
        <ele>2134</ele>
        <time>2022-08-27T13:48:22Z</time>
      </trkpt>
      <trkpt lat="45.87125" lon="7.05321">
        <ele>2134</ele>
        <time>2022-08-27T13:48:23Z</time>
      </trkpt>
      <trkpt lat="45.87126" lon="7.05321">
        <ele>2134</ele>
        <time>2022-08-27T13:48:24Z</time>
      </trkpt>
      <trkpt lat="45.87126" lon="7.0532">
        <ele>2134</ele>
        <time>2022-08-27T13:48:26Z</time>
      </trkpt>
      <trkpt lat="45.87126" lon="7.0532">
        <ele>2134</ele>
        <time>2022-08-27T13:48:27Z</time>
      </trkpt>
      <trkpt lat="45.87127" lon="7.0532">
        <ele>2134</ele>
        <time>2022-08-27T13:48:28Z</time>
      </trkpt>
      <trkpt lat="45.87127" lon="7.0532">
        <ele>2134</ele>
        <time>2022-08-27T13:48:29Z</time>
      </trkpt>
      <trkpt lat="45.87128" lon="7.0532">
        <ele>2134</ele>
        <time>2022-08-27T13:48:30Z</time>
      </trkpt>
      <trkpt lat="45.87128" lon="7.0532">
        <ele>2134</ele>
        <time>2022-08-27T13:48:31Z</time>
      </trkpt>
      <trkpt lat="45.87128" lon="7.05319">
        <ele>2134</ele>
        <time>2022-08-27T13:48:32Z</time>
      </trkpt>
      <trkpt lat="45.87129" lon="7.05319">
        <ele>2134</ele>
        <time>2022-08-27T13:48:33Z</time>
      </trkpt>
      <trkpt lat="45.87129" lon="7.05319">
        <ele>2134</ele>
        <time>2022-08-27T13:48:35Z</time>
      </trkpt>
      <trkpt lat="45.87129" lon="7.05319">
        <ele>2134</ele>
        <time>2022-08-27T13:48:36Z</time>
      </trkpt>
      <trkpt lat="45.8713" lon="7.05319">
        <ele>2134</ele>
        <time>2022-08-27T13:48:37Z</time>
      </trkpt>
      <trkpt lat="45.8713" lon="7.05319">
        <ele>2134</ele>
        <time>2022-08-27T13:48:38Z</time>
      </trkpt>
      <trkpt lat="45.87131" lon="7.05318">
        <ele>2134</ele>
        <time>2022-08-27T13:48:39Z</time>
      </trkpt>
      <trkpt lat="45.87131" lon="7.05318">
        <ele>2134</ele>
        <time>2022-08-27T13:48:40Z</time>
      </trkpt>
      <trkpt lat="45.87131" lon="7.05318">
        <ele>2134</ele>
        <time>2022-08-27T13:48:41Z</time>
      </trkpt>
      <trkpt lat="45.87132" lon="7.05318">
        <ele>2134</ele>
        <time>2022-08-27T13:48:42Z</time>
      </trkpt>
      <trkpt lat="45.87132" lon="7.05318">
        <ele>2134</ele>
        <time>2022-08-27T13:48:43Z</time>
      </trkpt>
      <trkpt lat="45.87132" lon="7.05318">
        <ele>2134</ele>
        <time>2022-08-27T13:48:44Z</time>
      </trkpt>
      <trkpt lat="45.87133" lon="7.05317">
        <ele>2134</ele>
        <time>2022-08-27T13:48:45Z</time>
      </trkpt>
      <trkpt lat="45.87133" lon="7.05317">
        <ele>2134</ele>
        <time>2022-08-27T13:48:46Z</time>
      </trkpt>
      <trkpt lat="45.87134" lon="7.05317">
        <ele>2134</ele>
        <time>2022-08-27T13:48:47Z</time>
      </trkpt>
      <trkpt lat="45.87135" lon="7.05317">
        <ele>2134</ele>
        <time>2022-08-27T13:48:48Z</time>
      </trkpt>
      <trkpt lat="45.87136" lon="7.05316">
        <ele>2134</ele>
        <time>2022-08-27T13:48:49Z</time>
      </trkpt>
      <trkpt lat="45.87136" lon="7.05316">
        <ele>2134</ele>
        <time>2022-08-27T13:48:50Z</time>
      </trkpt>
      <trkpt lat="45.87137" lon="7.05316">
        <ele>2134</ele>
        <time>2022-08-27T13:48:51Z</time>
      </trkpt>
      <trkpt lat="45.87138" lon="7.05316">
        <ele>2134</ele>
        <time>2022-08-27T13:48:52Z</time>
      </trkpt>
      <trkpt lat="45.87139" lon="7.05315">
        <ele>2134</ele>
        <time>2022-08-27T13:48:54Z</time>
      </trkpt>
      <trkpt lat="45.87139" lon="7.05315">
        <ele>2134</ele>
        <time>2022-08-27T13:48:55Z</time>
      </trkpt>
      <trkpt lat="45.8714" lon="7.05315">
        <ele>2134</ele>
        <time>2022-08-27T13:48:56Z</time>
      </trkpt>
      <trkpt lat="45.87141" lon="7.05315">
        <ele>2134</ele>
        <time>2022-08-27T13:48:57Z</time>
      </trkpt>
      <trkpt lat="45.87142" lon="7.05314">
        <ele>2134</ele>
        <time>2022-08-27T13:48:58Z</time>
      </trkpt>
      <trkpt lat="45.87142" lon="7.05314">
        <ele>2134</ele>
        <time>2022-08-27T13:48:59Z</time>
      </trkpt>
      <trkpt lat="45.87143" lon="7.05314">
        <ele>2134</ele>
        <time>2022-08-27T13:49:00Z</time>
      </trkpt>
      <trkpt lat="45.87143" lon="7.05314">
        <ele>2134</ele>
        <time>2022-08-27T13:49:01Z</time>
      </trkpt>
      <trkpt lat="45.87143" lon="7.05314">
        <ele>2134</ele>
        <time>2022-08-27T13:49:02Z</time>
      </trkpt>
      <trkpt lat="45.87143" lon="7.05314">
        <ele>2134</ele>
        <time>2022-08-27T13:49:03Z</time>
      </trkpt>
      <trkpt lat="45.87143" lon="7.05314">
        <ele>2134</ele>
        <time>2022-08-27T13:49:04Z</time>
      </trkpt>
      <trkpt lat="45.87143" lon="7.05315">
        <ele>2134</ele>
        <time>2022-08-27T13:49:05Z</time>
      </trkpt>
      <trkpt lat="45.87143" lon="7.05315">
        <ele>2134</ele>
        <time>2022-08-27T13:49:06Z</time>
      </trkpt>
      <trkpt lat="45.87143" lon="7.05315">
        <ele>2134</ele>
        <time>2022-08-27T13:49:07Z</time>
      </trkpt>
      <trkpt lat="45.87143" lon="7.05315">
        <ele>2134</ele>
        <time>2022-08-27T13:49:08Z</time>
      </trkpt>
      <trkpt lat="45.87143" lon="7.05315">
        <ele>2134</ele>
        <time>2022-08-27T13:49:10Z</time>
      </trkpt>
      <trkpt lat="45.87143" lon="7.05315">
        <ele>2134</ele>
        <time>2022-08-27T13:49:11Z</time>
      </trkpt>
      <trkpt lat="45.87143" lon="7.05315">
        <ele>2134</ele>
        <time>2022-08-27T13:49:13Z</time>
      </trkpt>
      <trkpt lat="45.87143" lon="7.05315">
        <ele>2134</ele>
        <time>2022-08-27T13:49:14Z</time>
      </trkpt>
      <trkpt lat="45.87143" lon="7.05315">
        <ele>2134</ele>
        <time>2022-08-27T13:49:15Z</time>
      </trkpt>
      <trkpt lat="45.87143" lon="7.05316">
        <ele>2134</ele>
        <time>2022-08-27T13:49:16Z</time>
      </trkpt>
      <trkpt lat="45.87143" lon="7.05316">
        <ele>2134</ele>
        <time>2022-08-27T13:49:17Z</time>
      </trkpt>
      <trkpt lat="45.87143" lon="7.05316">
        <ele>2134</ele>
        <time>2022-08-27T13:49:18Z</time>
      </trkpt>
      <trkpt lat="45.87143" lon="7.05316">
        <ele>2134</ele>
        <time>2022-08-27T13:49:19Z</time>
      </trkpt>
      <trkpt lat="45.87143" lon="7.05316">
        <ele>2134</ele>
        <time>2022-08-27T13:49:20Z</time>
      </trkpt>
      <trkpt lat="45.87142" lon="7.05316">
        <ele>2134</ele>
        <time>2022-08-27T13:49:21Z</time>
      </trkpt>
      <trkpt lat="45.87142" lon="7.05316">
        <ele>2134</ele>
        <time>2022-08-27T13:49:22Z</time>
      </trkpt>
      <trkpt lat="45.87142" lon="7.05316">
        <ele>2134</ele>
        <time>2022-08-27T13:49:23Z</time>
      </trkpt>
      <trkpt lat="45.87142" lon="7.05317">
        <ele>2134</ele>
        <time>2022-08-27T13:49:24Z</time>
      </trkpt>
      <trkpt lat="45.87142" lon="7.05317">
        <ele>2134</ele>
        <time>2022-08-27T13:49:25Z</time>
      </trkpt>
      <trkpt lat="45.87142" lon="7.05317">
        <ele>2134</ele>
        <time>2022-08-27T13:49:26Z</time>
      </trkpt>
      <trkpt lat="45.87142" lon="7.05317">
        <ele>2134</ele>
        <time>2022-08-27T13:49:27Z</time>
      </trkpt>
      <trkpt lat="45.87142" lon="7.05317">
        <ele>2134</ele>
        <time>2022-08-27T13:49:28Z</time>
      </trkpt>
      <trkpt lat="45.87142" lon="7.05317">
        <ele>2134</ele>
        <time>2022-08-27T13:49:29Z</time>
      </trkpt>
      <trkpt lat="45.87142" lon="7.05317">
        <ele>2134</ele>
        <time>2022-08-27T13:49:30Z</time>
      </trkpt>
      <trkpt lat="45.87142" lon="7.05317">
        <ele>2134</ele>
        <time>2022-08-27T13:49:32Z</time>
      </trkpt>
      <trkpt lat="45.87142" lon="7.05318">
        <ele>2134</ele>
        <time>2022-08-27T13:49:33Z</time>
      </trkpt>
      <trkpt lat="45.87142" lon="7.05318">
        <ele>2134</ele>
        <time>2022-08-27T13:49:34Z</time>
      </trkpt>
      <trkpt lat="45.87142" lon="7.05318">
        <ele>2134</ele>
        <time>2022-08-27T13:49:35Z</time>
      </trkpt>
      <trkpt lat="45.87142" lon="7.05318">
        <ele>2134</ele>
        <time>2022-08-27T13:49:36Z</time>
      </trkpt>
      <trkpt lat="45.87142" lon="7.05318">
        <ele>2134</ele>
        <time>2022-08-27T13:49:38Z</time>
      </trkpt>
      <trkpt lat="45.87142" lon="7.05318">
        <ele>2134</ele>
        <time>2022-08-27T13:49:39Z</time>
      </trkpt>
      <trkpt lat="45.87142" lon="7.05318">
        <ele>2134</ele>
        <time>2022-08-27T13:49:40Z</time>
      </trkpt>
      <trkpt lat="45.87142" lon="7.05318">
        <ele>2134</ele>
        <time>2022-08-27T13:49:41Z</time>
      </trkpt>
      <trkpt lat="45.87142" lon="7.05318">
        <ele>2134</ele>
        <time>2022-08-27T13:49:43Z</time>
      </trkpt>
      <trkpt lat="45.87142" lon="7.05319">
        <ele>2134</ele>
        <time>2022-08-27T13:49:44Z</time>
      </trkpt>
      <trkpt lat="45.87142" lon="7.05319">
        <ele>2134</ele>
        <time>2022-08-27T13:49:45Z</time>
      </trkpt>
      <trkpt lat="45.87142" lon="7.05319">
        <ele>2134</ele>
        <time>2022-08-27T13:49:46Z</time>
      </trkpt>
      <trkpt lat="45.87142" lon="7.05319">
        <ele>2134</ele>
        <time>2022-08-27T13:49:48Z</time>
      </trkpt>
      <trkpt lat="45.87142" lon="7.05319">
        <ele>2134</ele>
        <time>2022-08-27T13:49:49Z</time>
      </trkpt>
      <trkpt lat="45.87142" lon="7.05319">
        <ele>2134</ele>
        <time>2022-08-27T13:49:51Z</time>
      </trkpt>
      <trkpt lat="45.87142" lon="7.05319">
        <ele>2134</ele>
        <time>2022-08-27T13:49:52Z</time>
      </trkpt>
      <trkpt lat="45.87142" lon="7.05319">
        <ele>2134</ele>
        <time>2022-08-27T13:49:53Z</time>
      </trkpt>
      <trkpt lat="45.87141" lon="7.0532">
        <ele>2134</ele>
        <time>2022-08-27T13:49:54Z</time>
      </trkpt>
      <trkpt lat="45.87141" lon="7.0532">
        <ele>2134</ele>
        <time>2022-08-27T13:49:55Z</time>
      </trkpt>
      <trkpt lat="45.87141" lon="7.0532">
        <ele>2134</ele>
        <time>2022-08-27T13:49:56Z</time>
      </trkpt>
      <trkpt lat="45.87141" lon="7.0532">
        <ele>2134</ele>
        <time>2022-08-27T13:49:57Z</time>
      </trkpt>
      <trkpt lat="45.87141" lon="7.0532">
        <ele>2134</ele>
        <time>2022-08-27T13:49:58Z</time>
      </trkpt>
      <trkpt lat="45.87141" lon="7.0532">
        <ele>2134</ele>
        <time>2022-08-27T13:49:59Z</time>
      </trkpt>
      <trkpt lat="45.87141" lon="7.0532">
        <ele>2134</ele>
        <time>2022-08-27T13:50:00Z</time>
      </trkpt>
      <trkpt lat="45.87141" lon="7.0532">
        <ele>2134</ele>
        <time>2022-08-27T13:50:01Z</time>
      </trkpt>
      <trkpt lat="45.87141" lon="7.05321">
        <ele>2134</ele>
        <time>2022-08-27T13:50:02Z</time>
      </trkpt>
      <trkpt lat="45.87141" lon="7.05321">
        <ele>2134</ele>
        <time>2022-08-27T13:50:03Z</time>
      </trkpt>
      <trkpt lat="45.87141" lon="7.05321">
        <ele>2134</ele>
        <time>2022-08-27T13:50:04Z</time>
      </trkpt>
      <trkpt lat="45.87141" lon="7.05321">
        <ele>2134</ele>
        <time>2022-08-27T13:50:05Z</time>
      </trkpt>
      <trkpt lat="45.87135" lon="7.0531">
        <ele>2134</ele>
        <time>2022-08-27T13:50:10Z</time>
      </trkpt>
      <trkpt lat="45.87135" lon="7.05309">
        <ele>2134</ele>
        <time>2022-08-27T13:50:11Z</time>
      </trkpt>
      <trkpt lat="45.87135" lon="7.05309">
        <ele>2134</ele>
        <time>2022-08-27T13:50:12Z</time>
      </trkpt>
      <trkpt lat="45.87135" lon="7.05308">
        <ele>2134</ele>
        <time>2022-08-27T13:50:13Z</time>
      </trkpt>
      <trkpt lat="45.87135" lon="7.05307">
        <ele>2134</ele>
        <time>2022-08-27T13:50:15Z</time>
      </trkpt>
      <trkpt lat="45.87135" lon="7.05306">
        <ele>2134</ele>
        <time>2022-08-27T13:50:17Z</time>
      </trkpt>
      <trkpt lat="45.87134" lon="7.05306">
        <ele>2134</ele>
        <time>2022-08-27T13:50:18Z</time>
      </trkpt>
      <trkpt lat="45.87134" lon="7.05305">
        <ele>2134</ele>
        <time>2022-08-27T13:50:19Z</time>
      </trkpt>
      <trkpt lat="45.87134" lon="7.05304">
        <ele>2134</ele>
        <time>2022-08-27T13:50:20Z</time>
      </trkpt>
      <trkpt lat="45.87134" lon="7.05303">
        <ele>2134</ele>
        <time>2022-08-27T13:50:22Z</time>
      </trkpt>
      <trkpt lat="45.87134" lon="7.05302">
        <ele>2134</ele>
        <time>2022-08-27T13:50:23Z</time>
      </trkpt>
      <trkpt lat="45.87134" lon="7.05302">
        <ele>2134</ele>
        <time>2022-08-27T13:50:24Z</time>
      </trkpt>
      <trkpt lat="45.87134" lon="7.05301">
        <ele>2134</ele>
        <time>2022-08-27T13:50:25Z</time>
      </trkpt>
      <trkpt lat="45.87134" lon="7.05301">
        <ele>2134</ele>
        <time>2022-08-27T13:50:27Z</time>
      </trkpt>
      <trkpt lat="45.87134" lon="7.05302">
        <ele>2134</ele>
        <time>2022-08-27T13:50:29Z</time>
      </trkpt>
      <trkpt lat="45.87134" lon="7.05302">
        <ele>2134</ele>
        <time>2022-08-27T13:50:30Z</time>
      </trkpt>
      <trkpt lat="45.87135" lon="7.05302">
        <ele>2134</ele>
        <time>2022-08-27T13:50:31Z</time>
      </trkpt>
      <trkpt lat="45.87135" lon="7.05303">
        <ele>2134</ele>
        <time>2022-08-27T13:50:32Z</time>
      </trkpt>
      <trkpt lat="45.87135" lon="7.05303">
        <ele>2134</ele>
        <time>2022-08-27T13:50:34Z</time>
      </trkpt>
      <trkpt lat="45.87136" lon="7.05304">
        <ele>2134</ele>
        <time>2022-08-27T13:50:35Z</time>
      </trkpt>
      <trkpt lat="45.87136" lon="7.05304">
        <ele>2134</ele>
        <time>2022-08-27T13:50:36Z</time>
      </trkpt>
      <trkpt lat="45.87136" lon="7.05304">
        <ele>2134</ele>
        <time>2022-08-27T13:50:37Z</time>
      </trkpt>
      <trkpt lat="45.87136" lon="7.05305">
        <ele>2134</ele>
        <time>2022-08-27T13:50:39Z</time>
      </trkpt>
      <trkpt lat="45.87137" lon="7.05305">
        <ele>2134</ele>
        <time>2022-08-27T13:50:41Z</time>
      </trkpt>
      <trkpt lat="45.87137" lon="7.05306">
        <ele>2134</ele>
        <time>2022-08-27T13:50:42Z</time>
      </trkpt>
      <trkpt lat="45.87137" lon="7.05306">
        <ele>2134</ele>
        <time>2022-08-27T13:50:43Z</time>
      </trkpt>
      <trkpt lat="45.87137" lon="7.05306">
        <ele>2134</ele>
        <time>2022-08-27T13:50:44Z</time>
      </trkpt>
      <trkpt lat="45.87138" lon="7.05307">
        <ele>2134</ele>
        <time>2022-08-27T13:50:45Z</time>
      </trkpt>
      <trkpt lat="45.87138" lon="7.05307">
        <ele>2134</ele>
        <time>2022-08-27T13:50:46Z</time>
      </trkpt>
      <trkpt lat="45.87138" lon="7.05308">
        <ele>2134</ele>
        <time>2022-08-27T13:50:47Z</time>
      </trkpt>
      <trkpt lat="45.87138" lon="7.05308">
        <ele>2134</ele>
        <time>2022-08-27T13:50:48Z</time>
      </trkpt>
      <trkpt lat="45.87138" lon="7.05308">
        <ele>2134</ele>
        <time>2022-08-27T13:50:49Z</time>
      </trkpt>
      <trkpt lat="45.87138" lon="7.05307">
        <ele>2134</ele>
        <time>2022-08-27T13:50:50Z</time>
      </trkpt>
      <trkpt lat="45.87138" lon="7.05307">
        <ele>2134</ele>
        <time>2022-08-27T13:50:51Z</time>
      </trkpt>
      <trkpt lat="45.87138" lon="7.05307">
        <ele>2134</ele>
        <time>2022-08-27T13:50:53Z</time>
      </trkpt>
      <trkpt lat="45.87138" lon="7.05306">
        <ele>2134</ele>
        <time>2022-08-27T13:50:55Z</time>
      </trkpt>
      <trkpt lat="45.87137" lon="7.05306">
        <ele>2134</ele>
        <time>2022-08-27T13:50:56Z</time>
      </trkpt>
      <trkpt lat="45.87137" lon="7.05306">
        <ele>2134</ele>
        <time>2022-08-27T13:50:57Z</time>
      </trkpt>
      <trkpt lat="45.87137" lon="7.05306">
        <ele>2134</ele>
        <time>2022-08-27T13:50:58Z</time>
      </trkpt>
      <trkpt lat="45.87137" lon="7.05305">
        <ele>2134</ele>
        <time>2022-08-27T13:50:59Z</time>
      </trkpt>
      <trkpt lat="45.87137" lon="7.05305">
        <ele>2134</ele>
        <time>2022-08-27T13:51:00Z</time>
      </trkpt>
      <trkpt lat="45.87137" lon="7.05305">
        <ele>2134</ele>
        <time>2022-08-27T13:51:01Z</time>
      </trkpt>
      <trkpt lat="45.87136" lon="7.05304">
        <ele>2134</ele>
        <time>2022-08-27T13:51:02Z</time>
      </trkpt>
      <trkpt lat="45.87136" lon="7.05304">
        <ele>2134</ele>
        <time>2022-08-27T13:51:03Z</time>
      </trkpt>
      <trkpt lat="45.87136" lon="7.05304">
        <ele>2134</ele>
        <time>2022-08-27T13:51:04Z</time>
      </trkpt>
      <trkpt lat="45.87136" lon="7.05303">
        <ele>2134</ele>
        <time>2022-08-27T13:51:05Z</time>
      </trkpt>
      <trkpt lat="45.87136" lon="7.05303">
        <ele>2134</ele>
        <time>2022-08-27T13:51:07Z</time>
      </trkpt>
      <trkpt lat="45.87136" lon="7.05303">
        <ele>2134</ele>
        <time>2022-08-27T13:51:08Z</time>
      </trkpt>
      <trkpt lat="45.87135" lon="7.05302">
        <ele>2134</ele>
        <time>2022-08-27T13:51:09Z</time>
      </trkpt>
      <trkpt lat="45.87135" lon="7.05302">
        <ele>2134</ele>
        <time>2022-08-27T13:51:10Z</time>
      </trkpt>
      <trkpt lat="45.87135" lon="7.05302">
        <ele>2134</ele>
        <time>2022-08-27T13:51:11Z</time>
      </trkpt>
      <trkpt lat="45.87135" lon="7.05301">
        <ele>2134</ele>
        <time>2022-08-27T13:51:12Z</time>
      </trkpt>
      <trkpt lat="45.87135" lon="7.05301">
        <ele>2134</ele>
        <time>2022-08-27T13:51:13Z</time>
      </trkpt>
      <trkpt lat="45.87136" lon="7.053">
        <ele>2134</ele>
        <time>2022-08-27T13:51:26Z</time>
      </trkpt>
      <trkpt lat="45.87136" lon="7.053">
        <ele>2134</ele>
        <time>2022-08-27T13:51:36Z</time>
      </trkpt>
      <trkpt lat="45.87137" lon="7.05305">
        <ele>2134</ele>
        <time>2022-08-27T13:51:54Z</time>
      </trkpt>
      <trkpt lat="45.87137" lon="7.05305">
        <ele>2134</ele>
        <time>2022-08-27T13:51:57Z</time>
      </trkpt>
      <trkpt lat="45.87135" lon="7.05304">
        <ele>2134</ele>
        <time>2022-08-27T13:51:59Z</time>
      </trkpt>
      <trkpt lat="45.87137" lon="7.05302">
        <ele>2134</ele>
        <time>2022-08-27T13:52:01Z</time>
      </trkpt>
      <trkpt lat="45.87137" lon="7.05302">
        <ele>2134</ele>
        <time>2022-08-27T13:52:16Z</time>
      </trkpt>
      <trkpt lat="45.87135" lon="7.05302">
        <ele>2134</ele>
        <time>2022-08-27T13:52:27Z</time>
      </trkpt>
      <trkpt lat="45.87135" lon="7.05302">
        <ele>2134</ele>
        <time>2022-08-27T13:52:35Z</time>
      </trkpt>
      <trkpt lat="45.87135" lon="7.05302">
        <ele>2134</ele>
        <time>2022-08-27T13:52:52Z</time>
      </trkpt>
      <trkpt lat="45.87135" lon="7.05302">
        <ele>2134</ele>
        <time>2022-08-27T13:53:13Z</time>
      </trkpt>
      <trkpt lat="45.87135" lon="7.05302">
        <ele>2134</ele>
        <time>2022-08-27T13:53:35Z</time>
      </trkpt>
      <trkpt lat="45.87137" lon="7.05304">
        <ele>2134</ele>
        <time>2022-08-27T13:53:36Z</time>
      </trkpt>
      <trkpt lat="45.87137" lon="7.05301">
        <ele>2134</ele>
        <time>2022-08-27T13:53:50Z</time>
      </trkpt>
      <trkpt lat="45.87137" lon="7.05301">
        <ele>2134</ele>
        <time>2022-08-27T13:53:58Z</time>
      </trkpt>
      <trkpt lat="45.87137" lon="7.05297">
        <ele>2134</ele>
        <time>2022-08-27T13:53:59Z</time>
      </trkpt>
      <trkpt lat="45.87136" lon="7.053">
        <ele>2134</ele>
        <time>2022-08-27T13:54:06Z</time>
      </trkpt>
      <trkpt lat="45.87136" lon="7.05299">
        <ele>2134</ele>
        <time>2022-08-27T13:54:07Z</time>
      </trkpt>
      <trkpt lat="45.87136" lon="7.05299">
        <ele>2134</ele>
        <time>2022-08-27T13:54:08Z</time>
      </trkpt>
      <trkpt lat="45.87136" lon="7.05299">
        <ele>2134</ele>
        <time>2022-08-27T13:54:10Z</time>
      </trkpt>
      <trkpt lat="45.87136" lon="7.05299">
        <ele>2134</ele>
        <time>2022-08-27T13:54:11Z</time>
      </trkpt>
      <trkpt lat="45.87136" lon="7.05299">
        <ele>2134</ele>
        <time>2022-08-27T13:54:12Z</time>
      </trkpt>
      <trkpt lat="45.87136" lon="7.05298">
        <ele>2134</ele>
        <time>2022-08-27T13:54:13Z</time>
      </trkpt>
      <trkpt lat="45.87136" lon="7.05298">
        <ele>2134</ele>
        <time>2022-08-27T13:54:15Z</time>
      </trkpt>
      <trkpt lat="45.87137" lon="7.05298">
        <ele>2134</ele>
        <time>2022-08-27T13:54:17Z</time>
      </trkpt>
      <trkpt lat="45.87137" lon="7.05298">
        <ele>2134</ele>
        <time>2022-08-27T13:54:18Z</time>
      </trkpt>
      <trkpt lat="45.87137" lon="7.05297">
        <ele>2134</ele>
        <time>2022-08-27T13:54:19Z</time>
      </trkpt>
      <trkpt lat="45.87137" lon="7.05297">
        <ele>2134</ele>
        <time>2022-08-27T13:54:20Z</time>
      </trkpt>
      <trkpt lat="45.87137" lon="7.05297">
        <ele>2134</ele>
        <time>2022-08-27T13:54:21Z</time>
      </trkpt>
      <trkpt lat="45.87137" lon="7.05297">
        <ele>2134</ele>
        <time>2022-08-27T13:54:22Z</time>
      </trkpt>
      <trkpt lat="45.87137" lon="7.05297">
        <ele>2134</ele>
        <time>2022-08-27T13:54:23Z</time>
      </trkpt>
      <trkpt lat="45.87138" lon="7.05296">
        <ele>2134</ele>
        <time>2022-08-27T13:54:24Z</time>
      </trkpt>
      <trkpt lat="45.87138" lon="7.05296">
        <ele>2134</ele>
        <time>2022-08-27T13:54:25Z</time>
      </trkpt>
      <trkpt lat="45.87138" lon="7.05296">
        <ele>2134</ele>
        <time>2022-08-27T13:54:26Z</time>
      </trkpt>
      <trkpt lat="45.87138" lon="7.05296">
        <ele>2134</ele>
        <time>2022-08-27T13:54:27Z</time>
      </trkpt>
      <trkpt lat="45.87138" lon="7.05296">
        <ele>2134</ele>
        <time>2022-08-27T13:54:28Z</time>
      </trkpt>
      <trkpt lat="45.87138" lon="7.05295">
        <ele>2134</ele>
        <time>2022-08-27T13:54:29Z</time>
      </trkpt>
      <trkpt lat="45.87138" lon="7.05295">
        <ele>2134</ele>
        <time>2022-08-27T13:54:30Z</time>
      </trkpt>
      <trkpt lat="45.87138" lon="7.05295">
        <ele>2134</ele>
        <time>2022-08-27T13:54:31Z</time>
      </trkpt>
      <trkpt lat="45.87139" lon="7.05295">
        <ele>2134</ele>
        <time>2022-08-27T13:54:32Z</time>
      </trkpt>
      <trkpt lat="45.87139" lon="7.05295">
        <ele>2134</ele>
        <time>2022-08-27T13:54:33Z</time>
      </trkpt>
      <trkpt lat="45.87139" lon="7.05294">
        <ele>2134</ele>
        <time>2022-08-27T13:54:34Z</time>
      </trkpt>
      <trkpt lat="45.87139" lon="7.05294">
        <ele>2134</ele>
        <time>2022-08-27T13:54:36Z</time>
      </trkpt>
      <trkpt lat="45.87139" lon="7.05294">
        <ele>2134</ele>
        <time>2022-08-27T13:54:37Z</time>
      </trkpt>
      <trkpt lat="45.87139" lon="7.05294">
        <ele>2134</ele>
        <time>2022-08-27T13:54:38Z</time>
      </trkpt>
      <trkpt lat="45.87139" lon="7.05294">
        <ele>2134</ele>
        <time>2022-08-27T13:54:39Z</time>
      </trkpt>
      <trkpt lat="45.87139" lon="7.05293">
        <ele>2134</ele>
        <time>2022-08-27T13:54:40Z</time>
      </trkpt>
      <trkpt lat="45.8714" lon="7.05293">
        <ele>2134</ele>
        <time>2022-08-27T13:54:41Z</time>
      </trkpt>
      <trkpt lat="45.8714" lon="7.05293">
        <ele>2134</ele>
        <time>2022-08-27T13:54:42Z</time>
      </trkpt>
      <trkpt lat="45.8714" lon="7.05293">
        <ele>2134</ele>
        <time>2022-08-27T13:54:43Z</time>
      </trkpt>
      <trkpt lat="45.8714" lon="7.05292">
        <ele>2134</ele>
        <time>2022-08-27T13:54:44Z</time>
      </trkpt>
      <trkpt lat="45.8714" lon="7.05292">
        <ele>2134</ele>
        <time>2022-08-27T13:54:45Z</time>
      </trkpt>
      <trkpt lat="45.8714" lon="7.05292">
        <ele>2134</ele>
        <time>2022-08-27T13:54:46Z</time>
      </trkpt>
      <trkpt lat="45.8714" lon="7.05292">
        <ele>2134</ele>
        <time>2022-08-27T13:54:47Z</time>
      </trkpt>
      <trkpt lat="45.87141" lon="7.05292">
        <ele>2134</ele>
        <time>2022-08-27T13:54:48Z</time>
      </trkpt>
      <trkpt lat="45.87141" lon="7.05291">
        <ele>2134</ele>
        <time>2022-08-27T13:54:49Z</time>
      </trkpt>
      <trkpt lat="45.87141" lon="7.05291">
        <ele>2134</ele>
        <time>2022-08-27T13:54:50Z</time>
      </trkpt>
      <trkpt lat="45.87141" lon="7.05291">
        <ele>2134</ele>
        <time>2022-08-27T13:54:51Z</time>
      </trkpt>
      <trkpt lat="45.87141" lon="7.05291">
        <ele>2134</ele>
        <time>2022-08-27T13:54:52Z</time>
      </trkpt>
      <trkpt lat="45.87141" lon="7.05291">
        <ele>2134</ele>
        <time>2022-08-27T13:54:53Z</time>
      </trkpt>
      <trkpt lat="45.87141" lon="7.0529">
        <ele>2134</ele>
        <time>2022-08-27T13:54:55Z</time>
      </trkpt>
      <trkpt lat="45.87141" lon="7.0529">
        <ele>2134</ele>
        <time>2022-08-27T13:54:56Z</time>
      </trkpt>
      <trkpt lat="45.87142" lon="7.0529">
        <ele>2134</ele>
        <time>2022-08-27T13:54:57Z</time>
      </trkpt>
      <trkpt lat="45.87141" lon="7.0529">
        <ele>2134</ele>
        <time>2022-08-27T13:54:58Z</time>
      </trkpt>
      <trkpt lat="45.87141" lon="7.05291">
        <ele>2134</ele>
        <time>2022-08-27T13:54:59Z</time>
      </trkpt>
      <trkpt lat="45.87141" lon="7.05291">
        <ele>2134</ele>
        <time>2022-08-27T13:55:00Z</time>
      </trkpt>
      <trkpt lat="45.8714" lon="7.05292">
        <ele>2134</ele>
        <time>2022-08-27T13:55:01Z</time>
      </trkpt>
      <trkpt lat="45.8714" lon="7.05292">
        <ele>2134</ele>
        <time>2022-08-27T13:55:02Z</time>
      </trkpt>
      <trkpt lat="45.8714" lon="7.05293">
        <ele>2134</ele>
        <time>2022-08-27T13:55:03Z</time>
      </trkpt>
      <trkpt lat="45.87139" lon="7.05293">
        <ele>2134</ele>
        <time>2022-08-27T13:55:04Z</time>
      </trkpt>
      <trkpt lat="45.87139" lon="7.05294">
        <ele>2134</ele>
        <time>2022-08-27T13:55:05Z</time>
      </trkpt>
      <trkpt lat="45.87139" lon="7.05294">
        <ele>2134</ele>
        <time>2022-08-27T13:55:06Z</time>
      </trkpt>
      <trkpt lat="45.87138" lon="7.05295">
        <ele>2134</ele>
        <time>2022-08-27T13:55:07Z</time>
      </trkpt>
      <trkpt lat="45.87138" lon="7.05295">
        <ele>2134</ele>
        <time>2022-08-27T13:55:09Z</time>
      </trkpt>
      <trkpt lat="45.87138" lon="7.05296">
        <ele>2134</ele>
        <time>2022-08-27T13:55:11Z</time>
      </trkpt>
      <trkpt lat="45.87138" lon="7.05296">
        <ele>2134</ele>
        <time>2022-08-27T13:55:12Z</time>
      </trkpt>
      <trkpt lat="45.87137" lon="7.05297">
        <ele>2134</ele>
        <time>2022-08-27T13:55:13Z</time>
      </trkpt>
      <trkpt lat="45.87137" lon="7.05297">
        <ele>2134</ele>
        <time>2022-08-27T13:55:14Z</time>
      </trkpt>
      <trkpt lat="45.87137" lon="7.05297">
        <ele>2134</ele>
        <time>2022-08-27T13:55:15Z</time>
      </trkpt>
      <trkpt lat="45.87137" lon="7.05296">
        <ele>2134</ele>
        <time>2022-08-27T13:55:16Z</time>
      </trkpt>
      <trkpt lat="45.87137" lon="7.05296">
        <ele>2134</ele>
        <time>2022-08-27T13:55:17Z</time>
      </trkpt>
      <trkpt lat="45.87137" lon="7.05296">
        <ele>2134</ele>
        <time>2022-08-27T13:55:18Z</time>
      </trkpt>
      <trkpt lat="45.87137" lon="7.05295">
        <ele>2134</ele>
        <time>2022-08-27T13:55:19Z</time>
      </trkpt>
      <trkpt lat="45.87138" lon="7.05295">
        <ele>2134</ele>
        <time>2022-08-27T13:55:21Z</time>
      </trkpt>
      <trkpt lat="45.87138" lon="7.05294">
        <ele>2134</ele>
        <time>2022-08-27T13:55:22Z</time>
      </trkpt>
      <trkpt lat="45.87138" lon="7.05294">
        <ele>2134</ele>
        <time>2022-08-27T13:55:23Z</time>
      </trkpt>
      <trkpt lat="45.87138" lon="7.05294">
        <ele>2134</ele>
        <time>2022-08-27T13:55:24Z</time>
      </trkpt>
      <trkpt lat="45.87138" lon="7.05293">
        <ele>2134</ele>
        <time>2022-08-27T13:55:26Z</time>
      </trkpt>
      <trkpt lat="45.87138" lon="7.05293">
        <ele>2134</ele>
        <time>2022-08-27T13:55:27Z</time>
      </trkpt>
      <trkpt lat="45.87138" lon="7.05293">
        <ele>2134</ele>
        <time>2022-08-27T13:55:28Z</time>
      </trkpt>
      <trkpt lat="45.87138" lon="7.05292">
        <ele>2134</ele>
        <time>2022-08-27T13:55:29Z</time>
      </trkpt>
      <trkpt lat="45.87139" lon="7.05292">
        <ele>2134</ele>
        <time>2022-08-27T13:55:30Z</time>
      </trkpt>
      <trkpt lat="45.87139" lon="7.05291">
        <ele>2134</ele>
        <time>2022-08-27T13:55:31Z</time>
      </trkpt>
      <trkpt lat="45.87139" lon="7.05292">
        <ele>2134</ele>
        <time>2022-08-27T13:55:33Z</time>
      </trkpt>
      <trkpt lat="45.87139" lon="7.05292">
        <ele>2134</ele>
        <time>2022-08-27T13:55:34Z</time>
      </trkpt>
      <trkpt lat="45.87139" lon="7.05293">
        <ele>2134</ele>
        <time>2022-08-27T13:55:35Z</time>
      </trkpt>
      <trkpt lat="45.87139" lon="7.05294">
        <ele>2134</ele>
        <time>2022-08-27T13:55:36Z</time>
      </trkpt>
      <trkpt lat="45.87139" lon="7.05294">
        <ele>2134</ele>
        <time>2022-08-27T13:55:37Z</time>
      </trkpt>
      <trkpt lat="45.87139" lon="7.05295">
        <ele>2134</ele>
        <time>2022-08-27T13:55:38Z</time>
      </trkpt>
      <trkpt lat="45.87139" lon="7.05295">
        <ele>2134</ele>
        <time>2022-08-27T13:55:39Z</time>
      </trkpt>
      <trkpt lat="45.87139" lon="7.05296">
        <ele>2134</ele>
        <time>2022-08-27T13:55:40Z</time>
      </trkpt>
      <trkpt lat="45.87139" lon="7.05296">
        <ele>2134</ele>
        <time>2022-08-27T13:55:41Z</time>
      </trkpt>
      <trkpt lat="45.87139" lon="7.05297">
        <ele>2134</ele>
        <time>2022-08-27T13:55:42Z</time>
      </trkpt>
      <trkpt lat="45.87139" lon="7.05297">
        <ele>2134</ele>
        <time>2022-08-27T13:55:43Z</time>
      </trkpt>
      <trkpt lat="45.87139" lon="7.05298">
        <ele>2134</ele>
        <time>2022-08-27T13:55:44Z</time>
      </trkpt>
      <trkpt lat="45.87139" lon="7.05295">
        <ele>2134</ele>
        <time>2022-08-27T13:55:53Z</time>
      </trkpt>
      <trkpt lat="45.87139" lon="7.05295">
        <ele>2134</ele>
        <time>2022-08-27T13:56:06Z</time>
      </trkpt>
      <trkpt lat="45.87138" lon="7.053">
        <ele>2134</ele>
        <time>2022-08-27T13:56:25Z</time>
      </trkpt>
      <trkpt lat="45.87138" lon="7.053">
        <ele>2134</ele>
        <time>2022-08-27T13:56:27Z</time>
      </trkpt>
      <trkpt lat="45.87135" lon="7.05304">
        <ele>2134</ele>
        <time>2022-08-27T13:56:42Z</time>
      </trkpt>
      <trkpt lat="45.87135" lon="7.05305">
        <ele>2134</ele>
        <time>2022-08-27T13:56:43Z</time>
      </trkpt>
      <trkpt lat="45.87135" lon="7.05305">
        <ele>2134</ele>
        <time>2022-08-27T13:56:44Z</time>
      </trkpt>
      <trkpt lat="45.87135" lon="7.05305">
        <ele>2134</ele>
        <time>2022-08-27T13:56:45Z</time>
      </trkpt>
      <trkpt lat="45.87134" lon="7.05305">
        <ele>2134</ele>
        <time>2022-08-27T13:56:47Z</time>
      </trkpt>
      <trkpt lat="45.87134" lon="7.05305">
        <ele>2134</ele>
        <time>2022-08-27T13:56:49Z</time>
      </trkpt>
      <trkpt lat="45.87134" lon="7.05305">
        <ele>2134</ele>
        <time>2022-08-27T13:56:50Z</time>
      </trkpt>
      <trkpt lat="45.87134" lon="7.05306">
        <ele>2134</ele>
        <time>2022-08-27T13:56:51Z</time>
      </trkpt>
      <trkpt lat="45.87133" lon="7.05306">
        <ele>2134</ele>
        <time>2022-08-27T13:56:52Z</time>
      </trkpt>
      <trkpt lat="45.87133" lon="7.05306">
        <ele>2134</ele>
        <time>2022-08-27T13:56:54Z</time>
      </trkpt>
      <trkpt lat="45.87133" lon="7.05306">
        <ele>2134</ele>
        <time>2022-08-27T13:56:56Z</time>
      </trkpt>
      <trkpt lat="45.87133" lon="7.05306">
        <ele>2134</ele>
        <time>2022-08-27T13:56:57Z</time>
      </trkpt>
      <trkpt lat="45.87132" lon="7.05307">
        <ele>2134</ele>
        <time>2022-08-27T13:56:58Z</time>
      </trkpt>
      <trkpt lat="45.87132" lon="7.05307">
        <ele>2134</ele>
        <time>2022-08-27T13:56:59Z</time>
      </trkpt>
      <trkpt lat="45.87132" lon="7.05307">
        <ele>2134</ele>
        <time>2022-08-27T13:57:01Z</time>
      </trkpt>
      <trkpt lat="45.87132" lon="7.05307">
        <ele>2134</ele>
        <time>2022-08-27T13:57:03Z</time>
      </trkpt>
      <trkpt lat="45.87131" lon="7.05307">
        <ele>2134</ele>
        <time>2022-08-27T13:57:04Z</time>
      </trkpt>
      <trkpt lat="45.87131" lon="7.05307">
        <ele>2134</ele>
        <time>2022-08-27T13:57:05Z</time>
      </trkpt>
      <trkpt lat="45.87131" lon="7.05308">
        <ele>2134</ele>
        <time>2022-08-27T13:57:06Z</time>
      </trkpt>
      <trkpt lat="45.87131" lon="7.05308">
        <ele>2134</ele>
        <time>2022-08-27T13:57:07Z</time>
      </trkpt>
      <trkpt lat="45.87131" lon="7.05308">
        <ele>2134</ele>
        <time>2022-08-27T13:57:08Z</time>
      </trkpt>
      <trkpt lat="45.8713" lon="7.05308">
        <ele>2134</ele>
        <time>2022-08-27T13:57:09Z</time>
      </trkpt>
      <trkpt lat="45.8713" lon="7.05307">
        <ele>2134</ele>
        <time>2022-08-27T13:57:10Z</time>
      </trkpt>
      <trkpt lat="45.8713" lon="7.05307">
        <ele>2134</ele>
        <time>2022-08-27T13:57:11Z</time>
      </trkpt>
      <trkpt lat="45.8713" lon="7.05307">
        <ele>2134</ele>
        <time>2022-08-27T13:57:12Z</time>
      </trkpt>
      <trkpt lat="45.8713" lon="7.05306">
        <ele>2134</ele>
        <time>2022-08-27T13:57:13Z</time>
      </trkpt>
      <trkpt lat="45.8713" lon="7.05306">
        <ele>2134</ele>
        <time>2022-08-27T13:57:15Z</time>
      </trkpt>
      <trkpt lat="45.8713" lon="7.05306">
        <ele>2134</ele>
        <time>2022-08-27T13:57:16Z</time>
      </trkpt>
      <trkpt lat="45.8713" lon="7.05305">
        <ele>2134</ele>
        <time>2022-08-27T13:57:17Z</time>
      </trkpt>
      <trkpt lat="45.8713" lon="7.05305">
        <ele>2134</ele>
        <time>2022-08-27T13:57:19Z</time>
      </trkpt>
      <trkpt lat="45.8713" lon="7.05305">
        <ele>2134</ele>
        <time>2022-08-27T13:57:20Z</time>
      </trkpt>
      <trkpt lat="45.87129" lon="7.05304">
        <ele>2134</ele>
        <time>2022-08-27T13:57:21Z</time>
      </trkpt>
      <trkpt lat="45.87129" lon="7.05304">
        <ele>2134</ele>
        <time>2022-08-27T13:57:22Z</time>
      </trkpt>
      <trkpt lat="45.87129" lon="7.05304">
        <ele>2134</ele>
        <time>2022-08-27T13:57:23Z</time>
      </trkpt>
      <trkpt lat="45.87129" lon="7.05303">
        <ele>2134</ele>
        <time>2022-08-27T13:57:24Z</time>
      </trkpt>
      <trkpt lat="45.87129" lon="7.05303">
        <ele>2134</ele>
        <time>2022-08-27T13:57:25Z</time>
      </trkpt>
      <trkpt lat="45.87131" lon="7.05301">
        <ele>2134</ele>
        <time>2022-08-27T13:57:32Z</time>
      </trkpt>
      <trkpt lat="45.87133" lon="7.05302">
        <ele>2134</ele>
        <time>2022-08-27T13:57:35Z</time>
      </trkpt>
      <trkpt lat="45.87138" lon="7.05305">
        <ele>2134</ele>
        <time>2022-08-27T13:57:40Z</time>
      </trkpt>
      <trkpt lat="45.87137" lon="7.05305">
        <ele>2134</ele>
        <time>2022-08-27T13:57:41Z</time>
      </trkpt>
      <trkpt lat="45.87137" lon="7.05305">
        <ele>2134</ele>
        <time>2022-08-27T13:57:42Z</time>
      </trkpt>
      <trkpt lat="45.87136" lon="7.05305">
        <ele>2134</ele>
        <time>2022-08-27T13:57:43Z</time>
      </trkpt>
      <trkpt lat="45.87135" lon="7.05305">
        <ele>2134</ele>
        <time>2022-08-27T13:57:45Z</time>
      </trkpt>
      <trkpt lat="45.87135" lon="7.05306">
        <ele>2134</ele>
        <time>2022-08-27T13:57:46Z</time>
      </trkpt>
      <trkpt lat="45.87134" lon="7.05306">
        <ele>2134</ele>
        <time>2022-08-27T13:57:47Z</time>
      </trkpt>
      <trkpt lat="45.87133" lon="7.05306">
        <ele>2134</ele>
        <time>2022-08-27T13:57:48Z</time>
      </trkpt>
      <trkpt lat="45.87133" lon="7.05306">
        <ele>2134</ele>
        <time>2022-08-27T13:57:49Z</time>
      </trkpt>
      <trkpt lat="45.87132" lon="7.05306">
        <ele>2134</ele>
        <time>2022-08-27T13:57:51Z</time>
      </trkpt>
      <trkpt lat="45.87131" lon="7.05307">
        <ele>2134</ele>
        <time>2022-08-27T13:57:53Z</time>
      </trkpt>
      <trkpt lat="45.87131" lon="7.05307">
        <ele>2134</ele>
        <time>2022-08-27T13:57:54Z</time>
      </trkpt>
      <trkpt lat="45.8713" lon="7.05307">
        <ele>2134</ele>
        <time>2022-08-27T13:57:55Z</time>
      </trkpt>
      <trkpt lat="45.87129" lon="7.05307">
        <ele>2134</ele>
        <time>2022-08-27T13:57:56Z</time>
      </trkpt>
      <trkpt lat="45.87125" lon="7.05305">
        <ele>2134</ele>
        <time>2022-08-27T13:58:05Z</time>
      </trkpt>
      <trkpt lat="45.87125" lon="7.05305">
        <ele>2134</ele>
        <time>2022-08-27T13:58:15Z</time>
      </trkpt>
      <trkpt lat="45.87125" lon="7.05305">
        <ele>2134</ele>
        <time>2022-08-27T13:58:32Z</time>
      </trkpt>
      <trkpt lat="45.87121" lon="7.05307">
        <ele>2134</ele>
        <time>2022-08-27T13:58:41Z</time>
      </trkpt>
      <trkpt lat="45.87122" lon="7.05308">
        <ele>2134</ele>
        <time>2022-08-27T13:58:43Z</time>
      </trkpt>
      <trkpt lat="45.87122" lon="7.05308">
        <ele>2134</ele>
        <time>2022-08-27T13:58:44Z</time>
      </trkpt>
      <trkpt lat="45.87123" lon="7.05309">
        <ele>2134</ele>
        <time>2022-08-27T13:58:45Z</time>
      </trkpt>
      <trkpt lat="45.87123" lon="7.05309">
        <ele>2134</ele>
        <time>2022-08-27T13:58:46Z</time>
      </trkpt>
      <trkpt lat="45.87124" lon="7.0531">
        <ele>2134</ele>
        <time>2022-08-27T13:58:47Z</time>
      </trkpt>
      <trkpt lat="45.87125" lon="7.0531">
        <ele>2134</ele>
        <time>2022-08-27T13:58:48Z</time>
      </trkpt>
      <trkpt lat="45.87125" lon="7.05311">
        <ele>2134</ele>
        <time>2022-08-27T13:58:49Z</time>
      </trkpt>
      <trkpt lat="45.87126" lon="7.05311">
        <ele>2134</ele>
        <time>2022-08-27T13:58:50Z</time>
      </trkpt>
      <trkpt lat="45.87126" lon="7.05312">
        <ele>2134</ele>
        <time>2022-08-27T13:58:51Z</time>
      </trkpt>
      <trkpt lat="45.87127" lon="7.05312">
        <ele>2134</ele>
        <time>2022-08-27T13:58:52Z</time>
      </trkpt>
      <trkpt lat="45.87127" lon="7.05313">
        <ele>2134</ele>
        <time>2022-08-27T13:58:54Z</time>
      </trkpt>
      <trkpt lat="45.87128" lon="7.05313">
        <ele>2134</ele>
        <time>2022-08-27T13:58:55Z</time>
      </trkpt>
      <trkpt lat="45.87129" lon="7.05314">
        <ele>2134</ele>
        <time>2022-08-27T13:58:56Z</time>
      </trkpt>
      <trkpt lat="45.87129" lon="7.05314">
        <ele>2134</ele>
        <time>2022-08-27T13:58:57Z</time>
      </trkpt>
      <trkpt lat="45.87131" lon="7.05312">
        <ele>2134</ele>
        <time>2022-08-27T13:59:00Z</time>
      </trkpt>
      <trkpt lat="45.87131" lon="7.05312">
        <ele>2134</ele>
        <time>2022-08-27T13:59:18Z</time>
      </trkpt>
      <trkpt lat="45.87132" lon="7.05315">
        <ele>2134</ele>
        <time>2022-08-27T13:59:27Z</time>
      </trkpt>
      <trkpt lat="45.87132" lon="7.05315">
        <ele>2134</ele>
        <time>2022-08-27T13:59:37Z</time>
      </trkpt>
      <trkpt lat="45.87132" lon="7.05315">
        <ele>2134</ele>
        <time>2022-08-27T13:59:54Z</time>
      </trkpt>
      <trkpt lat="45.87129" lon="7.05313">
        <ele>2134</ele>
        <time>2022-08-27T14:00:04Z</time>
      </trkpt>
      <trkpt lat="45.87127" lon="7.05312">
        <ele>2134</ele>
        <time>2022-08-27T14:00:07Z</time>
      </trkpt>
      <trkpt lat="45.87126" lon="7.05314">
        <ele>2134</ele>
        <time>2022-08-27T14:00:10Z</time>
      </trkpt>
      <trkpt lat="45.87125" lon="7.05317">
        <ele>2134</ele>
        <time>2022-08-27T14:00:15Z</time>
      </trkpt>
      <trkpt lat="45.87124" lon="7.0532">
        <ele>2134</ele>
        <time>2022-08-27T14:00:19Z</time>
      </trkpt>
      <trkpt lat="45.87122" lon="7.05321">
        <ele>2134</ele>
        <time>2022-08-27T14:00:23Z</time>
      </trkpt>
      <trkpt lat="45.87122" lon="7.05321">
        <ele>2134</ele>
        <time>2022-08-27T14:00:37Z</time>
      </trkpt>
      <trkpt lat="45.87124" lon="7.05319">
        <ele>2134</ele>
        <time>2022-08-27T14:00:44Z</time>
      </trkpt>
      <trkpt lat="45.87124" lon="7.05319">
        <ele>2134</ele>
        <time>2022-08-27T14:00:54Z</time>
      </trkpt>
      <trkpt lat="45.87125" lon="7.0532">
        <ele>2134</ele>
        <time>2022-08-27T14:00:55Z</time>
      </trkpt>
      <trkpt lat="45.87125" lon="7.05325">
        <ele>2134</ele>
        <time>2022-08-27T14:01:08Z</time>
      </trkpt>
      <trkpt lat="45.87125" lon="7.05325">
        <ele>2134</ele>
        <time>2022-08-27T14:01:15Z</time>
      </trkpt>
      <trkpt lat="45.87124" lon="7.05317">
        <ele>2134</ele>
        <time>2022-08-27T14:01:28Z</time>
      </trkpt>
      <trkpt lat="45.87125" lon="7.05313">
        <ele>2134</ele>
        <time>2022-08-27T14:01:34Z</time>
      </trkpt>
      <trkpt lat="45.87126" lon="7.0531">
        <ele>2134</ele>
        <time>2022-08-27T14:01:37Z</time>
      </trkpt>
      <trkpt lat="45.87126" lon="7.0531">
        <ele>2134</ele>
        <time>2022-08-27T14:01:44Z</time>
      </trkpt>
      <trkpt lat="45.87126" lon="7.05307">
        <ele>2134</ele>
        <time>2022-08-27T14:01:49Z</time>
      </trkpt>
      <trkpt lat="45.87126" lon="7.05306">
        <ele>2134</ele>
        <time>2022-08-27T14:01:50Z</time>
      </trkpt>
      <trkpt lat="45.87127" lon="7.05306">
        <ele>2134</ele>
        <time>2022-08-27T14:01:51Z</time>
      </trkpt>
      <trkpt lat="45.87127" lon="7.05306">
        <ele>2134</ele>
        <time>2022-08-27T14:01:53Z</time>
      </trkpt>
      <trkpt lat="45.87127" lon="7.05306">
        <ele>2134</ele>
        <time>2022-08-27T14:01:54Z</time>
      </trkpt>
      <trkpt lat="45.87128" lon="7.05305">
        <ele>2134</ele>
        <time>2022-08-27T14:01:55Z</time>
      </trkpt>
      <trkpt lat="45.87128" lon="7.05305">
        <ele>2134</ele>
        <time>2022-08-27T14:01:56Z</time>
      </trkpt>
      <trkpt lat="45.87129" lon="7.05305">
        <ele>2134</ele>
        <time>2022-08-27T14:01:57Z</time>
      </trkpt>
      <trkpt lat="45.87129" lon="7.05305">
        <ele>2134</ele>
        <time>2022-08-27T14:01:58Z</time>
      </trkpt>
      <trkpt lat="45.87129" lon="7.05304">
        <ele>2134</ele>
        <time>2022-08-27T14:01:59Z</time>
      </trkpt>
      <trkpt lat="45.8713" lon="7.05307">
        <ele>2134</ele>
        <time>2022-08-27T14:02:18Z</time>
      </trkpt>
      <trkpt lat="45.8713" lon="7.05307">
        <ele>2134</ele>
        <time>2022-08-27T14:02:20Z</time>
      </trkpt>
      <trkpt lat="45.87129" lon="7.05309">
        <ele>2134</ele>
        <time>2022-08-27T14:02:26Z</time>
      </trkpt>
      <trkpt lat="45.87129" lon="7.05308">
        <ele>2134</ele>
        <time>2022-08-27T14:02:27Z</time>
      </trkpt>
      <trkpt lat="45.87129" lon="7.05308">
        <ele>2134</ele>
        <time>2022-08-27T14:02:28Z</time>
      </trkpt>
      <trkpt lat="45.8713" lon="7.05308">
        <ele>2134</ele>
        <time>2022-08-27T14:02:29Z</time>
      </trkpt>
      <trkpt lat="45.8713" lon="7.05307">
        <ele>2134</ele>
        <time>2022-08-27T14:02:31Z</time>
      </trkpt>
      <trkpt lat="45.8713" lon="7.05307">
        <ele>2134</ele>
        <time>2022-08-27T14:02:32Z</time>
      </trkpt>
      <trkpt lat="45.8713" lon="7.05307">
        <ele>2134</ele>
        <time>2022-08-27T14:02:34Z</time>
      </trkpt>
      <trkpt lat="45.8713" lon="7.05306">
        <ele>2134</ele>
        <time>2022-08-27T14:02:35Z</time>
      </trkpt>
      <trkpt lat="45.87131" lon="7.05306">
        <ele>2134</ele>
        <time>2022-08-27T14:02:37Z</time>
      </trkpt>
      <trkpt lat="45.87131" lon="7.05306">
        <ele>2134</ele>
        <time>2022-08-27T14:02:39Z</time>
      </trkpt>
      <trkpt lat="45.87131" lon="7.05305">
        <ele>2134</ele>
        <time>2022-08-27T14:02:40Z</time>
      </trkpt>
      <trkpt lat="45.87131" lon="7.05305">
        <ele>2134</ele>
        <time>2022-08-27T14:02:41Z</time>
      </trkpt>
      <trkpt lat="45.87131" lon="7.05304">
        <ele>2134</ele>
        <time>2022-08-27T14:02:42Z</time>
      </trkpt>
      <trkpt lat="45.87131" lon="7.05304">
        <ele>2134</ele>
        <time>2022-08-27T14:02:44Z</time>
      </trkpt>
      <trkpt lat="45.87132" lon="7.05304">
        <ele>2134</ele>
        <time>2022-08-27T14:02:45Z</time>
      </trkpt>
      <trkpt lat="45.87132" lon="7.05303">
        <ele>2134</ele>
        <time>2022-08-27T14:02:46Z</time>
      </trkpt>
      <trkpt lat="45.87132" lon="7.05304">
        <ele>2134</ele>
        <time>2022-08-27T14:02:47Z</time>
      </trkpt>
      <trkpt lat="45.87133" lon="7.05306">
        <ele>2134</ele>
        <time>2022-08-27T14:02:49Z</time>
      </trkpt>
      <trkpt lat="45.87133" lon="7.05307">
        <ele>2134</ele>
        <time>2022-08-27T14:02:50Z</time>
      </trkpt>
      <trkpt lat="45.87134" lon="7.05308">
        <ele>2134</ele>
        <time>2022-08-27T14:02:51Z</time>
      </trkpt>
      <trkpt lat="45.87134" lon="7.05309">
        <ele>2134</ele>
        <time>2022-08-27T14:02:52Z</time>
      </trkpt>
      <trkpt lat="45.87135" lon="7.0531">
        <ele>2134</ele>
        <time>2022-08-27T14:02:53Z</time>
      </trkpt>
      <trkpt lat="45.87135" lon="7.05311">
        <ele>2134</ele>
        <time>2022-08-27T14:02:55Z</time>
      </trkpt>
      <trkpt lat="45.87136" lon="7.05312">
        <ele>2134</ele>
        <time>2022-08-27T14:02:56Z</time>
      </trkpt>
      <trkpt lat="45.87136" lon="7.05313">
        <ele>2134</ele>
        <time>2022-08-27T14:02:58Z</time>
      </trkpt>
      <trkpt lat="45.87136" lon="7.05315">
        <ele>2134</ele>
        <time>2022-08-27T14:02:59Z</time>
      </trkpt>
      <trkpt lat="45.87138" lon="7.05328">
        <ele>2134</ele>
        <time>2022-08-27T14:03:06Z</time>
      </trkpt>
      <trkpt lat="45.87142" lon="7.05341">
        <ele>2134</ele>
        <time>2022-08-27T14:03:14Z</time>
      </trkpt>
      <trkpt lat="45.87142" lon="7.05341">
        <ele>2134</ele>
        <time>2022-08-27T14:03:22Z</time>
      </trkpt>
      <trkpt lat="45.87148" lon="7.0535">
        <ele>2134</ele>
        <time>2022-08-27T14:03:24Z</time>
      </trkpt>
      <trkpt lat="45.8715" lon="7.05351">
        <ele>2134</ele>
        <time>2022-08-27T14:03:26Z</time>
      </trkpt>
      <trkpt lat="45.87151" lon="7.05351">
        <ele>2134</ele>
        <time>2022-08-27T14:03:28Z</time>
      </trkpt>
      <trkpt lat="45.87152" lon="7.05352">
        <ele>2134</ele>
        <time>2022-08-27T14:03:29Z</time>
      </trkpt>
      <trkpt lat="45.87153" lon="7.05352">
        <ele>2134</ele>
        <time>2022-08-27T14:03:30Z</time>
      </trkpt>
      <trkpt lat="45.87154" lon="7.05353">
        <ele>2134</ele>
        <time>2022-08-27T14:03:31Z</time>
      </trkpt>
      <trkpt lat="45.87155" lon="7.05353">
        <ele>2134</ele>
        <time>2022-08-27T14:03:33Z</time>
      </trkpt>
      <trkpt lat="45.87156" lon="7.05354">
        <ele>2134</ele>
        <time>2022-08-27T14:03:34Z</time>
      </trkpt>
      <trkpt lat="45.87158" lon="7.05354">
        <ele>2134</ele>
        <time>2022-08-27T14:03:35Z</time>
      </trkpt>
      <trkpt lat="45.87158" lon="7.05356">
        <ele>2134</ele>
        <time>2022-08-27T14:03:36Z</time>
      </trkpt>
      <trkpt lat="45.87159" lon="7.05359">
        <ele>2134</ele>
        <time>2022-08-27T14:03:38Z</time>
      </trkpt>
      <trkpt lat="45.87159" lon="7.05361">
        <ele>2134</ele>
        <time>2022-08-27T14:03:39Z</time>
      </trkpt>
      <trkpt lat="45.8716" lon="7.05363">
        <ele>2134</ele>
        <time>2022-08-27T14:03:40Z</time>
      </trkpt>
      <trkpt lat="45.87161" lon="7.05365">
        <ele>2134</ele>
        <time>2022-08-27T14:03:41Z</time>
      </trkpt>
      <trkpt lat="45.87161" lon="7.05367">
        <ele>2134</ele>
        <time>2022-08-27T14:03:42Z</time>
      </trkpt>
      <trkpt lat="45.87162" lon="7.0537">
        <ele>2134</ele>
        <time>2022-08-27T14:03:43Z</time>
      </trkpt>
      <trkpt lat="45.87163" lon="7.05372">
        <ele>2134</ele>
        <time>2022-08-27T14:03:44Z</time>
      </trkpt>
      <trkpt lat="45.87164" lon="7.05375">
        <ele>2134</ele>
        <time>2022-08-27T14:03:45Z</time>
      </trkpt>
      <trkpt lat="45.87165" lon="7.05377">
        <ele>2134</ele>
        <time>2022-08-27T14:03:47Z</time>
      </trkpt>
      <trkpt lat="45.87166" lon="7.0538">
        <ele>2134</ele>
        <time>2022-08-27T14:03:48Z</time>
      </trkpt>
      <trkpt lat="45.87167" lon="7.05382">
        <ele>2134</ele>
        <time>2022-08-27T14:03:49Z</time>
      </trkpt>
      <trkpt lat="45.87168" lon="7.05383">
        <ele>2134</ele>
        <time>2022-08-27T14:03:50Z</time>
      </trkpt>
      <trkpt lat="45.87169" lon="7.05385">
        <ele>2134</ele>
        <time>2022-08-27T14:03:52Z</time>
      </trkpt>
      <trkpt lat="45.8717" lon="7.05387">
        <ele>2134</ele>
        <time>2022-08-27T14:03:53Z</time>
      </trkpt>
      <trkpt lat="45.87171" lon="7.05389">
        <ele>2134</ele>
        <time>2022-08-27T14:03:54Z</time>
      </trkpt>
      <trkpt lat="45.87172" lon="7.0539">
        <ele>2134</ele>
        <time>2022-08-27T14:03:55Z</time>
      </trkpt>
      <trkpt lat="45.87174" lon="7.05393">
        <ele>2134</ele>
        <time>2022-08-27T14:03:57Z</time>
      </trkpt>
      <trkpt lat="45.87176" lon="7.05395">
        <ele>2134</ele>
        <time>2022-08-27T14:03:58Z</time>
      </trkpt>
      <trkpt lat="45.87177" lon="7.05398">
        <ele>2134</ele>
        <time>2022-08-27T14:03:59Z</time>
      </trkpt>
      <trkpt lat="45.87179" lon="7.05401">
        <ele>2134</ele>
        <time>2022-08-27T14:04:00Z</time>
      </trkpt>
      <trkpt lat="45.87187" lon="7.0541">
        <ele>2134</ele>
        <time>2022-08-27T14:04:06Z</time>
      </trkpt>
      <trkpt lat="45.87187" lon="7.05411">
        <ele>2134</ele>
        <time>2022-08-27T14:04:07Z</time>
      </trkpt>
      <trkpt lat="45.87188" lon="7.05412">
        <ele>2134</ele>
        <time>2022-08-27T14:04:08Z</time>
      </trkpt>
      <trkpt lat="45.87188" lon="7.05414">
        <ele>2134</ele>
        <time>2022-08-27T14:04:09Z</time>
      </trkpt>
      <trkpt lat="45.87188" lon="7.05415">
        <ele>2134</ele>
        <time>2022-08-27T14:04:11Z</time>
      </trkpt>
      <trkpt lat="45.87189" lon="7.05417">
        <ele>2134</ele>
        <time>2022-08-27T14:04:12Z</time>
      </trkpt>
      <trkpt lat="45.87189" lon="7.05418">
        <ele>2134</ele>
        <time>2022-08-27T14:04:13Z</time>
      </trkpt>
      <trkpt lat="45.8719" lon="7.05419">
        <ele>2134</ele>
        <time>2022-08-27T14:04:14Z</time>
      </trkpt>
      <trkpt lat="45.8719" lon="7.05421">
        <ele>2134</ele>
        <time>2022-08-27T14:04:15Z</time>
      </trkpt>
      <trkpt lat="45.8719" lon="7.05422">
        <ele>2134</ele>
        <time>2022-08-27T14:04:16Z</time>
      </trkpt>
      <trkpt lat="45.87197" lon="7.05432">
        <ele>2134</ele>
        <time>2022-08-27T14:04:25Z</time>
      </trkpt>
      <trkpt lat="45.87198" lon="7.05433">
        <ele>2134</ele>
        <time>2022-08-27T14:04:26Z</time>
      </trkpt>
      <trkpt lat="45.87199" lon="7.05435">
        <ele>2134</ele>
        <time>2022-08-27T14:04:27Z</time>
      </trkpt>
      <trkpt lat="45.872" lon="7.05437">
        <ele>2134</ele>
        <time>2022-08-27T14:04:28Z</time>
      </trkpt>
      <trkpt lat="45.87201" lon="7.05438">
        <ele>2134</ele>
        <time>2022-08-27T14:04:30Z</time>
      </trkpt>
      <trkpt lat="45.87203" lon="7.0544">
        <ele>2134</ele>
        <time>2022-08-27T14:04:32Z</time>
      </trkpt>
      <trkpt lat="45.87204" lon="7.05442">
        <ele>2134</ele>
        <time>2022-08-27T14:04:33Z</time>
      </trkpt>
      <trkpt lat="45.87205" lon="7.05443">
        <ele>2134</ele>
        <time>2022-08-27T14:04:34Z</time>
      </trkpt>
      <trkpt lat="45.87205" lon="7.05444">
        <ele>2134</ele>
        <time>2022-08-27T14:04:35Z</time>
      </trkpt>
      <trkpt lat="45.87206" lon="7.05445">
        <ele>2134</ele>
        <time>2022-08-27T14:04:37Z</time>
      </trkpt>
      <trkpt lat="45.87207" lon="7.05446">
        <ele>2134</ele>
        <time>2022-08-27T14:04:38Z</time>
      </trkpt>
      <trkpt lat="45.87208" lon="7.05447">
        <ele>2134</ele>
        <time>2022-08-27T14:04:39Z</time>
      </trkpt>
      <trkpt lat="45.87209" lon="7.05448">
        <ele>2134</ele>
        <time>2022-08-27T14:04:40Z</time>
      </trkpt>
      <trkpt lat="45.8721" lon="7.0545">
        <ele>2134</ele>
        <time>2022-08-27T14:04:41Z</time>
      </trkpt>
      <trkpt lat="45.8721" lon="7.05451">
        <ele>2134</ele>
        <time>2022-08-27T14:04:42Z</time>
      </trkpt>
      <trkpt lat="45.87211" lon="7.05453">
        <ele>2134</ele>
        <time>2022-08-27T14:04:44Z</time>
      </trkpt>
      <trkpt lat="45.87212" lon="7.05455">
        <ele>2134</ele>
        <time>2022-08-27T14:04:45Z</time>
      </trkpt>
      <trkpt lat="45.87213" lon="7.05457">
        <ele>2134</ele>
        <time>2022-08-27T14:04:46Z</time>
      </trkpt>
      <trkpt lat="45.87214" lon="7.05459">
        <ele>2134</ele>
        <time>2022-08-27T14:04:47Z</time>
      </trkpt>
      <trkpt lat="45.87215" lon="7.05461">
        <ele>2134</ele>
        <time>2022-08-27T14:04:48Z</time>
      </trkpt>
      <trkpt lat="45.87215" lon="7.05463">
        <ele>2134</ele>
        <time>2022-08-27T14:04:49Z</time>
      </trkpt>
      <trkpt lat="45.87217" lon="7.05466">
        <ele>2134</ele>
        <time>2022-08-27T14:04:51Z</time>
      </trkpt>
      <trkpt lat="45.8722" lon="7.05469">
        <ele>2134</ele>
        <time>2022-08-27T14:04:52Z</time>
      </trkpt>
      <trkpt lat="45.87221" lon="7.05471">
        <ele>2134</ele>
        <time>2022-08-27T14:04:54Z</time>
      </trkpt>
      <trkpt lat="45.87222" lon="7.05474">
        <ele>2134</ele>
        <time>2022-08-27T14:04:56Z</time>
      </trkpt>
      <trkpt lat="45.87224" lon="7.05476">
        <ele>2134</ele>
        <time>2022-08-27T14:04:58Z</time>
      </trkpt>
      <trkpt lat="45.87225" lon="7.05479">
        <ele>2134</ele>
        <time>2022-08-27T14:05:00Z</time>
      </trkpt>
      <trkpt lat="45.87227" lon="7.05482">
        <ele>2134</ele>
        <time>2022-08-27T14:05:03Z</time>
      </trkpt>
      <trkpt lat="45.87229" lon="7.05485">
        <ele>2134</ele>
        <time>2022-08-27T14:05:05Z</time>
      </trkpt>
      <trkpt lat="45.87232" lon="7.05486">
        <ele>2134</ele>
        <time>2022-08-27T14:05:07Z</time>
      </trkpt>
      <trkpt lat="45.87234" lon="7.05487">
        <ele>2134</ele>
        <time>2022-08-27T14:05:09Z</time>
      </trkpt>
      <trkpt lat="45.87237" lon="7.05488">
        <ele>2134</ele>
        <time>2022-08-27T14:05:11Z</time>
      </trkpt>
      <trkpt lat="45.87239" lon="7.05488">
        <ele>2134</ele>
        <time>2022-08-27T14:05:13Z</time>
      </trkpt>
      <trkpt lat="45.8724" lon="7.05486">
        <ele>2134</ele>
        <time>2022-08-27T14:05:16Z</time>
      </trkpt>
      <trkpt lat="45.87242" lon="7.05487">
        <ele>2134</ele>
        <time>2022-08-27T14:05:20Z</time>
      </trkpt>
      <trkpt lat="45.87244" lon="7.05489">
        <ele>2134</ele>
        <time>2022-08-27T14:05:23Z</time>
      </trkpt>
      <trkpt lat="45.87246" lon="7.05491">
        <ele>2134</ele>
        <time>2022-08-27T14:05:25Z</time>
      </trkpt>
      <trkpt lat="45.87247" lon="7.05493">
        <ele>2134</ele>
        <time>2022-08-27T14:05:27Z</time>
      </trkpt>
      <trkpt lat="45.87249" lon="7.05494">
        <ele>2134</ele>
        <time>2022-08-27T14:05:29Z</time>
      </trkpt>
      <trkpt lat="45.87251" lon="7.05495">
        <ele>2134</ele>
        <time>2022-08-27T14:05:31Z</time>
      </trkpt>
      <trkpt lat="45.87253" lon="7.05495">
        <ele>2134</ele>
        <time>2022-08-27T14:05:34Z</time>
      </trkpt>
      <trkpt lat="45.87255" lon="7.05496">
        <ele>2134</ele>
        <time>2022-08-27T14:05:37Z</time>
      </trkpt>
      <trkpt lat="45.87257" lon="7.05497">
        <ele>2134</ele>
        <time>2022-08-27T14:05:41Z</time>
      </trkpt>
      <trkpt lat="45.87259" lon="7.05498">
        <ele>2134</ele>
        <time>2022-08-27T14:05:43Z</time>
      </trkpt>
      <trkpt lat="45.87261" lon="7.05499">
        <ele>2134</ele>
        <time>2022-08-27T14:05:46Z</time>
      </trkpt>
      <trkpt lat="45.87263" lon="7.055">
        <ele>2134</ele>
        <time>2022-08-27T14:05:48Z</time>
      </trkpt>
      <trkpt lat="45.87264" lon="7.05503">
        <ele>2140</ele>
        <time>2022-08-27T14:05:51Z</time>
      </trkpt>
      <trkpt lat="45.87265" lon="7.05505">
        <ele>2140</ele>
        <time>2022-08-27T14:05:54Z</time>
      </trkpt>
      <trkpt lat="45.87266" lon="7.05507">
        <ele>2142</ele>
        <time>2022-08-27T14:05:57Z</time>
      </trkpt>
      <trkpt lat="45.87267" lon="7.0551">
        <ele>2144</ele>
        <time>2022-08-27T14:06:00Z</time>
      </trkpt>
      <trkpt lat="45.87266" lon="7.05514">
        <ele>2145</ele>
        <time>2022-08-27T14:06:03Z</time>
      </trkpt>
      <trkpt lat="45.87267" lon="7.05518">
        <ele>2145</ele>
        <time>2022-08-27T14:06:06Z</time>
      </trkpt>
      <trkpt lat="45.87269" lon="7.0552">
        <ele>2145</ele>
        <time>2022-08-27T14:06:09Z</time>
      </trkpt>
      <trkpt lat="45.8727" lon="7.05523">
        <ele>2145</ele>
        <time>2022-08-27T14:06:12Z</time>
      </trkpt>
      <trkpt lat="45.87271" lon="7.05526">
        <ele>2146</ele>
        <time>2022-08-27T14:06:15Z</time>
      </trkpt>
      <trkpt lat="45.87272" lon="7.05528">
        <ele>2146</ele>
        <time>2022-08-27T14:06:17Z</time>
      </trkpt>
      <trkpt lat="45.87273" lon="7.05532">
        <ele>2146</ele>
        <time>2022-08-27T14:06:20Z</time>
      </trkpt>
      <trkpt lat="45.87274" lon="7.05534">
        <ele>2147</ele>
        <time>2022-08-27T14:06:22Z</time>
      </trkpt>
      <trkpt lat="45.87276" lon="7.05537">
        <ele>2147</ele>
        <time>2022-08-27T14:06:24Z</time>
      </trkpt>
      <trkpt lat="45.87277" lon="7.05539">
        <ele>2148</ele>
        <time>2022-08-27T14:06:26Z</time>
      </trkpt>
      <trkpt lat="45.87279" lon="7.05541">
        <ele>2148</ele>
        <time>2022-08-27T14:06:28Z</time>
      </trkpt>
      <trkpt lat="45.87281" lon="7.05543">
        <ele>2148</ele>
        <time>2022-08-27T14:06:30Z</time>
      </trkpt>
      <trkpt lat="45.87283" lon="7.05545">
        <ele>2148</ele>
        <time>2022-08-27T14:06:33Z</time>
      </trkpt>
      <trkpt lat="45.87284" lon="7.05546">
        <ele>2148</ele>
        <time>2022-08-27T14:06:36Z</time>
      </trkpt>
      <trkpt lat="45.87285" lon="7.05547">
        <ele>2148</ele>
        <time>2022-08-27T14:06:38Z</time>
      </trkpt>
      <trkpt lat="45.87287" lon="7.05548">
        <ele>2149</ele>
        <time>2022-08-27T14:06:39Z</time>
      </trkpt>
      <trkpt lat="45.87288" lon="7.05551">
        <ele>2150</ele>
        <time>2022-08-27T14:06:43Z</time>
      </trkpt>
      <trkpt lat="45.8729" lon="7.05553">
        <ele>2151</ele>
        <time>2022-08-27T14:06:46Z</time>
      </trkpt>
      <trkpt lat="45.87291" lon="7.05556">
        <ele>2151</ele>
        <time>2022-08-27T14:06:49Z</time>
      </trkpt>
      <trkpt lat="45.87292" lon="7.05558">
        <ele>2151</ele>
        <time>2022-08-27T14:06:53Z</time>
      </trkpt>
      <trkpt lat="45.87295" lon="7.05559">
        <ele>2152</ele>
        <time>2022-08-27T14:06:55Z</time>
      </trkpt>
      <trkpt lat="45.87297" lon="7.0556">
        <ele>2152</ele>
        <time>2022-08-27T14:06:58Z</time>
      </trkpt>
      <trkpt lat="45.87294" lon="7.05562">
        <ele>2152</ele>
        <time>2022-08-27T14:07:01Z</time>
      </trkpt>
      <trkpt lat="45.87291" lon="7.05563">
        <ele>2153</ele>
        <time>2022-08-27T14:07:03Z</time>
      </trkpt>
      <trkpt lat="45.8729" lon="7.05564">
        <ele>2153</ele>
        <time>2022-08-27T14:07:05Z</time>
      </trkpt>
      <trkpt lat="45.87288" lon="7.05566">
        <ele>2154</ele>
        <time>2022-08-27T14:07:07Z</time>
      </trkpt>
      <trkpt lat="45.87286" lon="7.05566">
        <ele>2155</ele>
        <time>2022-08-27T14:07:09Z</time>
      </trkpt>
      <trkpt lat="45.87283" lon="7.05567">
        <ele>2155</ele>
        <time>2022-08-27T14:07:11Z</time>
      </trkpt>
      <trkpt lat="45.87281" lon="7.05568">
        <ele>2155</ele>
        <time>2022-08-27T14:07:14Z</time>
      </trkpt>
      <trkpt lat="45.8728" lon="7.05571">
        <ele>2156</ele>
        <time>2022-08-27T14:07:17Z</time>
      </trkpt>
      <trkpt lat="45.87281" lon="7.05574">
        <ele>2156</ele>
        <time>2022-08-27T14:07:20Z</time>
      </trkpt>
      <trkpt lat="45.87282" lon="7.05576">
        <ele>2156</ele>
        <time>2022-08-27T14:07:23Z</time>
      </trkpt>
      <trkpt lat="45.87284" lon="7.05578">
        <ele>2157</ele>
        <time>2022-08-27T14:07:26Z</time>
      </trkpt>
      <trkpt lat="45.87286" lon="7.0558">
        <ele>2158</ele>
        <time>2022-08-27T14:07:29Z</time>
      </trkpt>
      <trkpt lat="45.87287" lon="7.05582">
        <ele>2159</ele>
        <time>2022-08-27T14:07:31Z</time>
      </trkpt>
      <trkpt lat="45.87289" lon="7.05583">
        <ele>2160</ele>
        <time>2022-08-27T14:07:33Z</time>
      </trkpt>
      <trkpt lat="45.87291" lon="7.05584">
        <ele>2160</ele>
        <time>2022-08-27T14:07:35Z</time>
      </trkpt>
      <trkpt lat="45.87293" lon="7.05585">
        <ele>2159</ele>
        <time>2022-08-27T14:07:37Z</time>
      </trkpt>
      <trkpt lat="45.87295" lon="7.05587">
        <ele>2160</ele>
        <time>2022-08-27T14:07:39Z</time>
      </trkpt>
      <trkpt lat="45.87296" lon="7.05589">
        <ele>2160</ele>
        <time>2022-08-27T14:07:41Z</time>
      </trkpt>
      <trkpt lat="45.87296" lon="7.05592">
        <ele>2161</ele>
        <time>2022-08-27T14:07:43Z</time>
      </trkpt>
      <trkpt lat="45.87297" lon="7.05594">
        <ele>2161</ele>
        <time>2022-08-27T14:07:45Z</time>
      </trkpt>
      <trkpt lat="45.87297" lon="7.05597">
        <ele>2161</ele>
        <time>2022-08-27T14:07:47Z</time>
      </trkpt>
      <trkpt lat="45.87297" lon="7.056">
        <ele>2162</ele>
        <time>2022-08-27T14:07:49Z</time>
      </trkpt>
      <trkpt lat="45.87296" lon="7.05604">
        <ele>2163</ele>
        <time>2022-08-27T14:07:52Z</time>
      </trkpt>
      <trkpt lat="45.87298" lon="7.05607">
        <ele>2163</ele>
        <time>2022-08-27T14:07:55Z</time>
      </trkpt>
      <trkpt lat="45.87297" lon="7.0561">
        <ele>2163</ele>
        <time>2022-08-27T14:07:57Z</time>
      </trkpt>
      <trkpt lat="45.87298" lon="7.05613">
        <ele>2164</ele>
        <time>2022-08-27T14:08:00Z</time>
      </trkpt>
      <trkpt lat="45.87297" lon="7.05616">
        <ele>2164</ele>
        <time>2022-08-27T14:08:03Z</time>
      </trkpt>
      <trkpt lat="45.87298" lon="7.05619">
        <ele>2165</ele>
        <time>2022-08-27T14:08:06Z</time>
      </trkpt>
      <trkpt lat="45.87299" lon="7.05621">
        <ele>2165</ele>
        <time>2022-08-27T14:08:08Z</time>
      </trkpt>
      <trkpt lat="45.873" lon="7.05624">
        <ele>2166</ele>
        <time>2022-08-27T14:08:11Z</time>
      </trkpt>
      <trkpt lat="45.87301" lon="7.05626">
        <ele>2166</ele>
        <time>2022-08-27T14:08:13Z</time>
      </trkpt>
      <trkpt lat="45.87303" lon="7.05629">
        <ele>2167</ele>
        <time>2022-08-27T14:08:16Z</time>
      </trkpt>
      <trkpt lat="45.87303" lon="7.05632">
        <ele>2168</ele>
        <time>2022-08-27T14:08:19Z</time>
      </trkpt>
      <trkpt lat="45.87304" lon="7.05635">
        <ele>2168</ele>
        <time>2022-08-27T14:08:22Z</time>
      </trkpt>
      <trkpt lat="45.87305" lon="7.05637">
        <ele>2170</ele>
        <time>2022-08-27T14:08:26Z</time>
      </trkpt>
      <trkpt lat="45.87306" lon="7.05639">
        <ele>2171</ele>
        <time>2022-08-27T14:08:28Z</time>
      </trkpt>
      <trkpt lat="45.87309" lon="7.05642">
        <ele>2171</ele>
        <time>2022-08-27T14:08:31Z</time>
      </trkpt>
      <trkpt lat="45.87309" lon="7.05644">
        <ele>2171</ele>
        <time>2022-08-27T14:08:33Z</time>
      </trkpt>
      <trkpt lat="45.8731" lon="7.05647">
        <ele>2171</ele>
        <time>2022-08-27T14:08:35Z</time>
      </trkpt>
      <trkpt lat="45.87311" lon="7.05649">
        <ele>2173</ele>
        <time>2022-08-27T14:08:37Z</time>
      </trkpt>
      <trkpt lat="45.87312" lon="7.05652">
        <ele>2173</ele>
        <time>2022-08-27T14:08:39Z</time>
      </trkpt>
      <trkpt lat="45.87312" lon="7.05655">
        <ele>2173</ele>
        <time>2022-08-27T14:08:42Z</time>
      </trkpt>
      <trkpt lat="45.87313" lon="7.05657">
        <ele>2174</ele>
        <time>2022-08-27T14:08:45Z</time>
      </trkpt>
      <trkpt lat="45.87314" lon="7.0566">
        <ele>2175</ele>
        <time>2022-08-27T14:08:48Z</time>
      </trkpt>
      <trkpt lat="45.87315" lon="7.05662">
        <ele>2175</ele>
        <time>2022-08-27T14:08:50Z</time>
      </trkpt>
      <trkpt lat="45.87315" lon="7.05666">
        <ele>2176</ele>
        <time>2022-08-27T14:08:53Z</time>
      </trkpt>
      <trkpt lat="45.87314" lon="7.05668">
        <ele>2177</ele>
        <time>2022-08-27T14:08:56Z</time>
      </trkpt>
      <trkpt lat="45.87314" lon="7.05671">
        <ele>2177</ele>
        <time>2022-08-27T14:08:59Z</time>
      </trkpt>
      <trkpt lat="45.87315" lon="7.05674">
        <ele>2177</ele>
        <time>2022-08-27T14:09:02Z</time>
      </trkpt>
      <trkpt lat="45.87316" lon="7.05678">
        <ele>2178</ele>
        <time>2022-08-27T14:09:06Z</time>
      </trkpt>
      <trkpt lat="45.87317" lon="7.0568">
        <ele>2179</ele>
        <time>2022-08-27T14:09:10Z</time>
      </trkpt>
      <trkpt lat="45.87319" lon="7.05682">
        <ele>2180</ele>
        <time>2022-08-27T14:09:13Z</time>
      </trkpt>
      <trkpt lat="45.87321" lon="7.05682">
        <ele>2180</ele>
        <time>2022-08-27T14:09:15Z</time>
      </trkpt>
      <trkpt lat="45.87323" lon="7.05683">
        <ele>2181</ele>
        <time>2022-08-27T14:09:19Z</time>
      </trkpt>
      <trkpt lat="45.87325" lon="7.05683">
        <ele>2182</ele>
        <time>2022-08-27T14:09:21Z</time>
      </trkpt>
      <trkpt lat="45.87327" lon="7.05683">
        <ele>2183</ele>
        <time>2022-08-27T14:09:24Z</time>
      </trkpt>
      <trkpt lat="45.8733" lon="7.05682">
        <ele>2183</ele>
        <time>2022-08-27T14:09:27Z</time>
      </trkpt>
      <trkpt lat="45.87332" lon="7.05681">
        <ele>2183</ele>
        <time>2022-08-27T14:09:29Z</time>
      </trkpt>
      <trkpt lat="45.87334" lon="7.0568">
        <ele>2184</ele>
        <time>2022-08-27T14:09:31Z</time>
      </trkpt>
      <trkpt lat="45.87336" lon="7.0568">
        <ele>2184</ele>
        <time>2022-08-27T14:09:33Z</time>
      </trkpt>
      <trkpt lat="45.87338" lon="7.05679">
        <ele>2185</ele>
        <time>2022-08-27T14:09:35Z</time>
      </trkpt>
      <trkpt lat="45.8734" lon="7.05679">
        <ele>2186</ele>
        <time>2022-08-27T14:09:37Z</time>
      </trkpt>
      <trkpt lat="45.87342" lon="7.05678">
        <ele>2186</ele>
        <time>2022-08-27T14:09:39Z</time>
      </trkpt>
      <trkpt lat="45.87344" lon="7.05679">
        <ele>2186</ele>
        <time>2022-08-27T14:09:41Z</time>
      </trkpt>
      <trkpt lat="45.87346" lon="7.0568">
        <ele>2186</ele>
        <time>2022-08-27T14:09:44Z</time>
      </trkpt>
      <trkpt lat="45.87348" lon="7.05681">
        <ele>2186</ele>
        <time>2022-08-27T14:09:48Z</time>
      </trkpt>
      <trkpt lat="45.8735" lon="7.05682">
        <ele>2187</ele>
        <time>2022-08-27T14:09:51Z</time>
      </trkpt>
      <trkpt lat="45.87352" lon="7.05684">
        <ele>2188</ele>
        <time>2022-08-27T14:09:55Z</time>
      </trkpt>
      <trkpt lat="45.87354" lon="7.05685">
        <ele>2189</ele>
        <time>2022-08-27T14:09:58Z</time>
      </trkpt>
      <trkpt lat="45.87355" lon="7.05687">
        <ele>2189</ele>
        <time>2022-08-27T14:10:01Z</time>
      </trkpt>
      <trkpt lat="45.87354" lon="7.0569">
        <ele>2190</ele>
        <time>2022-08-27T14:10:04Z</time>
      </trkpt>
      <trkpt lat="45.87352" lon="7.05691">
        <ele>2190</ele>
        <time>2022-08-27T14:10:06Z</time>
      </trkpt>
      <trkpt lat="45.8735" lon="7.05693">
        <ele>2191</ele>
        <time>2022-08-27T14:10:08Z</time>
      </trkpt>
      <trkpt lat="45.87349" lon="7.05696">
        <ele>2192</ele>
        <time>2022-08-27T14:10:12Z</time>
      </trkpt>
      <trkpt lat="45.87349" lon="7.05698">
        <ele>2192</ele>
        <time>2022-08-27T14:10:15Z</time>
      </trkpt>
      <trkpt lat="45.8735" lon="7.05703">
        <ele>2193</ele>
        <time>2022-08-27T14:10:20Z</time>
      </trkpt>
      <trkpt lat="45.87352" lon="7.05705">
        <ele>2194</ele>
        <time>2022-08-27T14:10:24Z</time>
      </trkpt>
      <trkpt lat="45.87354" lon="7.05707">
        <ele>2196</ele>
        <time>2022-08-27T14:10:28Z</time>
      </trkpt>
      <trkpt lat="45.87355" lon="7.05708">
        <ele>2196</ele>
        <time>2022-08-27T14:10:31Z</time>
      </trkpt>
      <trkpt lat="45.87357" lon="7.0571">
        <ele>2197</ele>
        <time>2022-08-27T14:10:34Z</time>
      </trkpt>
      <trkpt lat="45.87359" lon="7.05711">
        <ele>2198</ele>
        <time>2022-08-27T14:10:37Z</time>
      </trkpt>
      <trkpt lat="45.87361" lon="7.05713">
        <ele>2198</ele>
        <time>2022-08-27T14:10:39Z</time>
      </trkpt>
      <trkpt lat="45.87363" lon="7.05714">
        <ele>2199</ele>
        <time>2022-08-27T14:10:42Z</time>
      </trkpt>
      <trkpt lat="45.87365" lon="7.05715">
        <ele>2200</ele>
        <time>2022-08-27T14:10:44Z</time>
      </trkpt>
      <trkpt lat="45.87367" lon="7.05715">
        <ele>2200</ele>
        <time>2022-08-27T14:10:46Z</time>
      </trkpt>
      <trkpt lat="45.87369" lon="7.05714">
        <ele>2200</ele>
        <time>2022-08-27T14:10:48Z</time>
      </trkpt>
      <trkpt lat="45.87372" lon="7.05714">
        <ele>2200</ele>
        <time>2022-08-27T14:10:51Z</time>
      </trkpt>
      <trkpt lat="45.87374" lon="7.05714">
        <ele>2201</ele>
        <time>2022-08-27T14:10:59Z</time>
      </trkpt>
      <trkpt lat="45.87376" lon="7.05714">
        <ele>2202</ele>
        <time>2022-08-27T14:11:01Z</time>
      </trkpt>
      <trkpt lat="45.87378" lon="7.05714">
        <ele>2202</ele>
        <time>2022-08-27T14:11:03Z</time>
      </trkpt>
      <trkpt lat="45.8738" lon="7.05716">
        <ele>2203</ele>
        <time>2022-08-27T14:11:06Z</time>
      </trkpt>
      <trkpt lat="45.87381" lon="7.05718">
        <ele>2203</ele>
        <time>2022-08-27T14:11:09Z</time>
      </trkpt>
      <trkpt lat="45.87379" lon="7.05721">
        <ele>2203</ele>
        <time>2022-08-27T14:11:11Z</time>
      </trkpt>
      <trkpt lat="45.87378" lon="7.05724">
        <ele>2204</ele>
        <time>2022-08-27T14:11:14Z</time>
      </trkpt>
      <trkpt lat="45.87377" lon="7.05726">
        <ele>2205</ele>
        <time>2022-08-27T14:11:16Z</time>
      </trkpt>
      <trkpt lat="45.87379" lon="7.05728">
        <ele>2206</ele>
        <time>2022-08-27T14:11:21Z</time>
      </trkpt>
      <trkpt lat="45.8738" lon="7.05729">
        <ele>2206</ele>
        <time>2022-08-27T14:11:23Z</time>
      </trkpt>
      <trkpt lat="45.87383" lon="7.0573">
        <ele>2207</ele>
        <time>2022-08-27T14:11:26Z</time>
      </trkpt>
      <trkpt lat="45.87384" lon="7.05731">
        <ele>2207</ele>
        <time>2022-08-27T14:11:28Z</time>
      </trkpt>
      <trkpt lat="45.87386" lon="7.05732">
        <ele>2208</ele>
        <time>2022-08-27T14:11:30Z</time>
      </trkpt>
      <trkpt lat="45.87388" lon="7.05731">
        <ele>2208</ele>
        <time>2022-08-27T14:11:33Z</time>
      </trkpt>
      <trkpt lat="45.8739" lon="7.0573">
        <ele>2209</ele>
        <time>2022-08-27T14:11:36Z</time>
      </trkpt>
      <trkpt lat="45.87392" lon="7.05729">
        <ele>2209</ele>
        <time>2022-08-27T14:11:40Z</time>
      </trkpt>
      <trkpt lat="45.87392" lon="7.05732">
        <ele>2210</ele>
        <time>2022-08-27T14:11:43Z</time>
      </trkpt>
      <trkpt lat="45.87394" lon="7.05734">
        <ele>2212</ele>
        <time>2022-08-27T14:11:48Z</time>
      </trkpt>
      <trkpt lat="45.87396" lon="7.05734">
        <ele>2212</ele>
        <time>2022-08-27T14:11:51Z</time>
      </trkpt>
      <trkpt lat="45.87398" lon="7.05734">
        <ele>2212</ele>
        <time>2022-08-27T14:11:53Z</time>
      </trkpt>
      <trkpt lat="45.874" lon="7.05734">
        <ele>2214</ele>
        <time>2022-08-27T14:11:55Z</time>
      </trkpt>
      <trkpt lat="45.87402" lon="7.05733">
        <ele>2214</ele>
        <time>2022-08-27T14:11:58Z</time>
      </trkpt>
      <trkpt lat="45.87404" lon="7.05731">
        <ele>2214</ele>
        <time>2022-08-27T14:12:01Z</time>
      </trkpt>
      <trkpt lat="45.87405" lon="7.05732">
        <ele>2214</ele>
        <time>2022-08-27T14:12:03Z</time>
      </trkpt>
      <trkpt lat="45.87406" lon="7.05733">
        <ele>2215</ele>
        <time>2022-08-27T14:12:05Z</time>
      </trkpt>
      <trkpt lat="45.87407" lon="7.05733">
        <ele>2215</ele>
        <time>2022-08-27T14:12:06Z</time>
      </trkpt>
      <trkpt lat="45.87408" lon="7.05734">
        <ele>2215</ele>
        <time>2022-08-27T14:12:07Z</time>
      </trkpt>
      <trkpt lat="45.87409" lon="7.05734">
        <ele>2215</ele>
        <time>2022-08-27T14:12:08Z</time>
      </trkpt>
      <trkpt lat="45.87409" lon="7.05735">
        <ele>2216</ele>
        <time>2022-08-27T14:12:10Z</time>
      </trkpt>
      <trkpt lat="45.8741" lon="7.05735">
        <ele>2216</ele>
        <time>2022-08-27T14:12:11Z</time>
      </trkpt>
      <trkpt lat="45.87411" lon="7.05736">
        <ele>2216</ele>
        <time>2022-08-27T14:12:12Z</time>
      </trkpt>
      <trkpt lat="45.87411" lon="7.05733">
        <ele>2217</ele>
        <time>2022-08-27T14:12:16Z</time>
      </trkpt>
      <trkpt lat="45.87413" lon="7.05729">
        <ele>2216</ele>
        <time>2022-08-27T14:12:18Z</time>
      </trkpt>
      <trkpt lat="45.87415" lon="7.05728">
        <ele>2216</ele>
        <time>2022-08-27T14:12:21Z</time>
      </trkpt>
      <trkpt lat="45.87416" lon="7.0573">
        <ele>2217</ele>
        <time>2022-08-27T14:12:24Z</time>
      </trkpt>
      <trkpt lat="45.87418" lon="7.05732">
        <ele>2217</ele>
        <time>2022-08-27T14:12:25Z</time>
      </trkpt>
      <trkpt lat="45.87421" lon="7.05734">
        <ele>2217</ele>
        <time>2022-08-27T14:12:27Z</time>
      </trkpt>
      <trkpt lat="45.87424" lon="7.05737">
        <ele>2218</ele>
        <time>2022-08-27T14:12:29Z</time>
      </trkpt>
      <trkpt lat="45.87426" lon="7.05738">
        <ele>2218</ele>
        <time>2022-08-27T14:12:31Z</time>
      </trkpt>
      <trkpt lat="45.87429" lon="7.05737">
        <ele>2218</ele>
        <time>2022-08-27T14:12:35Z</time>
      </trkpt>
      <trkpt lat="45.87432" lon="7.05738">
        <ele>2219</ele>
        <time>2022-08-27T14:12:37Z</time>
      </trkpt>
      <trkpt lat="45.87435" lon="7.05739">
        <ele>2219</ele>
        <time>2022-08-27T14:12:39Z</time>
      </trkpt>
      <trkpt lat="45.87437" lon="7.0574">
        <ele>2219</ele>
        <time>2022-08-27T14:12:41Z</time>
      </trkpt>
      <trkpt lat="45.87438" lon="7.05742">
        <ele>2220</ele>
        <time>2022-08-27T14:12:44Z</time>
      </trkpt>
      <trkpt lat="45.87441" lon="7.05744">
        <ele>2222</ele>
        <time>2022-08-27T14:12:49Z</time>
      </trkpt>
      <trkpt lat="45.87443" lon="7.05746">
        <ele>2222</ele>
        <time>2022-08-27T14:12:51Z</time>
      </trkpt>
      <trkpt lat="45.87445" lon="7.05748">
        <ele>2222</ele>
        <time>2022-08-27T14:12:53Z</time>
      </trkpt>
      <trkpt lat="45.87447" lon="7.0575">
        <ele>2223</ele>
        <time>2022-08-27T14:12:56Z</time>
      </trkpt>
      <trkpt lat="45.87448" lon="7.05752">
        <ele>2223</ele>
        <time>2022-08-27T14:12:58Z</time>
      </trkpt>
      <trkpt lat="45.87451" lon="7.05752">
        <ele>2223</ele>
        <time>2022-08-27T14:13:01Z</time>
      </trkpt>
      <trkpt lat="45.87452" lon="7.05753">
        <ele>2223</ele>
        <time>2022-08-27T14:13:03Z</time>
      </trkpt>
      <trkpt lat="45.87454" lon="7.05755">
        <ele>2223</ele>
        <time>2022-08-27T14:13:06Z</time>
      </trkpt>
      <trkpt lat="45.87456" lon="7.05757">
        <ele>2224</ele>
        <time>2022-08-27T14:13:09Z</time>
      </trkpt>
      <trkpt lat="45.87457" lon="7.05759">
        <ele>2224</ele>
        <time>2022-08-27T14:13:12Z</time>
      </trkpt>
      <trkpt lat="45.87459" lon="7.05761">
        <ele>2225</ele>
        <time>2022-08-27T14:13:15Z</time>
      </trkpt>
      <trkpt lat="45.87461" lon="7.05762">
        <ele>2225</ele>
        <time>2022-08-27T14:13:18Z</time>
      </trkpt>
      <trkpt lat="45.87463" lon="7.05764">
        <ele>2226</ele>
        <time>2022-08-27T14:13:21Z</time>
      </trkpt>
      <trkpt lat="45.87465" lon="7.05766">
        <ele>2226</ele>
        <time>2022-08-27T14:13:24Z</time>
      </trkpt>
      <trkpt lat="45.87467" lon="7.05768">
        <ele>2227</ele>
        <time>2022-08-27T14:13:26Z</time>
      </trkpt>
      <trkpt lat="45.87468" lon="7.05769">
        <ele>2227</ele>
        <time>2022-08-27T14:13:28Z</time>
      </trkpt>
      <trkpt lat="45.8747" lon="7.0577">
        <ele>2228</ele>
        <time>2022-08-27T14:13:30Z</time>
      </trkpt>
      <trkpt lat="45.87472" lon="7.05772">
        <ele>2228</ele>
        <time>2022-08-27T14:13:32Z</time>
      </trkpt>
      <trkpt lat="45.87474" lon="7.05774">
        <ele>2228</ele>
        <time>2022-08-27T14:13:35Z</time>
      </trkpt>
      <trkpt lat="45.87476" lon="7.05776">
        <ele>2229</ele>
        <time>2022-08-27T14:13:38Z</time>
      </trkpt>
      <trkpt lat="45.87477" lon="7.05778">
        <ele>2229</ele>
        <time>2022-08-27T14:13:41Z</time>
      </trkpt>
      <trkpt lat="45.87479" lon="7.05781">
        <ele>2230</ele>
        <time>2022-08-27T14:13:44Z</time>
      </trkpt>
      <trkpt lat="45.8748" lon="7.05784">
        <ele>2231</ele>
        <time>2022-08-27T14:13:47Z</time>
      </trkpt>
      <trkpt lat="45.87482" lon="7.05786">
        <ele>2231</ele>
        <time>2022-08-27T14:13:50Z</time>
      </trkpt>
      <trkpt lat="45.87484" lon="7.05787">
        <ele>2231</ele>
        <time>2022-08-27T14:13:53Z</time>
      </trkpt>
      <trkpt lat="45.87485" lon="7.05789">
        <ele>2232</ele>
        <time>2022-08-27T14:13:57Z</time>
      </trkpt>
      <trkpt lat="45.87487" lon="7.05792">
        <ele>2233</ele>
        <time>2022-08-27T14:14:01Z</time>
      </trkpt>
      <trkpt lat="45.87487" lon="7.05795">
        <ele>2235</ele>
        <time>2022-08-27T14:14:10Z</time>
      </trkpt>
      <trkpt lat="45.87487" lon="7.05797">
        <ele>2236</ele>
        <time>2022-08-27T14:14:15Z</time>
      </trkpt>
      <trkpt lat="45.87486" lon="7.05799">
        <ele>2237</ele>
        <time>2022-08-27T14:14:19Z</time>
      </trkpt>
      <trkpt lat="45.87484" lon="7.058">
        <ele>2237</ele>
        <time>2022-08-27T14:14:24Z</time>
      </trkpt>
      <trkpt lat="45.87484" lon="7.05803">
        <ele>2238</ele>
        <time>2022-08-27T14:14:29Z</time>
      </trkpt>
      <trkpt lat="45.87484" lon="7.05803">
        <ele>2239</ele>
        <time>2022-08-27T14:14:37Z</time>
      </trkpt>
      <trkpt lat="45.87484" lon="7.05803">
        <ele>2239</ele>
        <time>2022-08-27T14:14:54Z</time>
      </trkpt>
      <trkpt lat="45.87484" lon="7.05803">
        <ele>2239</ele>
        <time>2022-08-27T14:15:11Z</time>
      </trkpt>
      <trkpt lat="45.87485" lon="7.05805">
        <ele>2239</ele>
        <time>2022-08-27T14:15:19Z</time>
      </trkpt>
      <trkpt lat="45.87487" lon="7.05808">
        <ele>2239</ele>
        <time>2022-08-27T14:15:22Z</time>
      </trkpt>
      <trkpt lat="45.87487" lon="7.0581">
        <ele>2240</ele>
        <time>2022-08-27T14:15:25Z</time>
      </trkpt>
      <trkpt lat="45.87488" lon="7.05812">
        <ele>2241</ele>
        <time>2022-08-27T14:15:28Z</time>
      </trkpt>
      <trkpt lat="45.87489" lon="7.05815">
        <ele>2241</ele>
        <time>2022-08-27T14:15:33Z</time>
      </trkpt>
      <trkpt lat="45.87491" lon="7.05817">
        <ele>2242</ele>
        <time>2022-08-27T14:15:37Z</time>
      </trkpt>
      <trkpt lat="45.87492" lon="7.05819">
        <ele>2243</ele>
        <time>2022-08-27T14:15:40Z</time>
      </trkpt>
      <trkpt lat="45.87493" lon="7.05822">
        <ele>2243</ele>
        <time>2022-08-27T14:15:43Z</time>
      </trkpt>
      <trkpt lat="45.87494" lon="7.05825">
        <ele>2244</ele>
        <time>2022-08-27T14:15:46Z</time>
      </trkpt>
      <trkpt lat="45.87492" lon="7.05826">
        <ele>2244</ele>
        <time>2022-08-27T14:15:49Z</time>
      </trkpt>
      <trkpt lat="45.87489" lon="7.05825">
        <ele>2244</ele>
        <time>2022-08-27T14:15:52Z</time>
      </trkpt>
      <trkpt lat="45.87487" lon="7.05827">
        <ele>2246</ele>
        <time>2022-08-27T14:15:56Z</time>
      </trkpt>
      <trkpt lat="45.87488" lon="7.0583">
        <ele>2246</ele>
        <time>2022-08-27T14:15:59Z</time>
      </trkpt>
      <trkpt lat="45.8749" lon="7.05832">
        <ele>2246</ele>
        <time>2022-08-27T14:16:01Z</time>
      </trkpt>
      <trkpt lat="45.87491" lon="7.05836">
        <ele>2246</ele>
        <time>2022-08-27T14:16:04Z</time>
      </trkpt>
      <trkpt lat="45.87491" lon="7.05838">
        <ele>2248</ele>
        <time>2022-08-27T14:16:06Z</time>
      </trkpt>
      <trkpt lat="45.87493" lon="7.05841">
        <ele>2248</ele>
        <time>2022-08-27T14:16:09Z</time>
      </trkpt>
      <trkpt lat="45.87495" lon="7.05843">
        <ele>2249</ele>
        <time>2022-08-27T14:16:11Z</time>
      </trkpt>
      <trkpt lat="45.87496" lon="7.05846">
        <ele>2249</ele>
        <time>2022-08-27T14:16:13Z</time>
      </trkpt>
      <trkpt lat="45.87497" lon="7.05848">
        <ele>2249</ele>
        <time>2022-08-27T14:16:15Z</time>
      </trkpt>
      <trkpt lat="45.87498" lon="7.0585">
        <ele>2249</ele>
        <time>2022-08-27T14:16:17Z</time>
      </trkpt>
      <trkpt lat="45.875" lon="7.05851">
        <ele>2251</ele>
        <time>2022-08-27T14:16:19Z</time>
      </trkpt>
      <trkpt lat="45.87501" lon="7.05854">
        <ele>2251</ele>
        <time>2022-08-27T14:16:22Z</time>
      </trkpt>
      <trkpt lat="45.87503" lon="7.05855">
        <ele>2252</ele>
        <time>2022-08-27T14:16:24Z</time>
      </trkpt>
      <trkpt lat="45.87505" lon="7.05856">
        <ele>2252</ele>
        <time>2022-08-27T14:16:26Z</time>
      </trkpt>
      <trkpt lat="45.87507" lon="7.05856">
        <ele>2252</ele>
        <time>2022-08-27T14:16:29Z</time>
      </trkpt>
      <trkpt lat="45.8751" lon="7.05856">
        <ele>2252</ele>
        <time>2022-08-27T14:16:31Z</time>
      </trkpt>
      <trkpt lat="45.87512" lon="7.05857">
        <ele>2253</ele>
        <time>2022-08-27T14:16:33Z</time>
      </trkpt>
      <trkpt lat="45.87514" lon="7.05858">
        <ele>2253</ele>
        <time>2022-08-27T14:16:35Z</time>
      </trkpt>
      <trkpt lat="45.87515" lon="7.05859">
        <ele>2253</ele>
        <time>2022-08-27T14:16:37Z</time>
      </trkpt>
      <trkpt lat="45.87517" lon="7.05861">
        <ele>2253</ele>
        <time>2022-08-27T14:16:39Z</time>
      </trkpt>
      <trkpt lat="45.87518" lon="7.05862">
        <ele>2254</ele>
        <time>2022-08-27T14:16:41Z</time>
      </trkpt>
      <trkpt lat="45.8752" lon="7.05864">
        <ele>2254</ele>
        <time>2022-08-27T14:16:43Z</time>
      </trkpt>
      <trkpt lat="45.87522" lon="7.05866">
        <ele>2254</ele>
        <time>2022-08-27T14:16:46Z</time>
      </trkpt>
      <trkpt lat="45.87524" lon="7.05867">
        <ele>2254</ele>
        <time>2022-08-27T14:16:48Z</time>
      </trkpt>
      <trkpt lat="45.87526" lon="7.05869">
        <ele>2254</ele>
        <time>2022-08-27T14:16:50Z</time>
      </trkpt>
      <trkpt lat="45.87529" lon="7.0587">
        <ele>2256</ele>
        <time>2022-08-27T14:16:53Z</time>
      </trkpt>
      <trkpt lat="45.87531" lon="7.0587">
        <ele>2256</ele>
        <time>2022-08-27T14:16:55Z</time>
      </trkpt>
      <trkpt lat="45.87532" lon="7.05871">
        <ele>2256</ele>
        <time>2022-08-27T14:16:57Z</time>
      </trkpt>
      <trkpt lat="45.87534" lon="7.05873">
        <ele>2256</ele>
        <time>2022-08-27T14:17:00Z</time>
      </trkpt>
      <trkpt lat="45.87536" lon="7.05874">
        <ele>2258</ele>
        <time>2022-08-27T14:17:03Z</time>
      </trkpt>
      <trkpt lat="45.87538" lon="7.05875">
        <ele>2258</ele>
        <time>2022-08-27T14:17:05Z</time>
      </trkpt>
      <trkpt lat="45.8754" lon="7.05874">
        <ele>2259</ele>
        <time>2022-08-27T14:17:08Z</time>
      </trkpt>
      <trkpt lat="45.87542" lon="7.05873">
        <ele>2259</ele>
        <time>2022-08-27T14:17:11Z</time>
      </trkpt>
      <trkpt lat="45.87545" lon="7.05873">
        <ele>2260</ele>
        <time>2022-08-27T14:17:14Z</time>
      </trkpt>
      <trkpt lat="45.87546" lon="7.05873">
        <ele>2260</ele>
        <time>2022-08-27T14:17:16Z</time>
      </trkpt>
      <trkpt lat="45.87549" lon="7.05873">
        <ele>2261</ele>
        <time>2022-08-27T14:17:18Z</time>
      </trkpt>
      <trkpt lat="45.87551" lon="7.05873">
        <ele>2261</ele>
        <time>2022-08-27T14:17:20Z</time>
      </trkpt>
      <trkpt lat="45.87553" lon="7.05873">
        <ele>2261</ele>
        <time>2022-08-27T14:17:22Z</time>
      </trkpt>
      <trkpt lat="45.87555" lon="7.05873">
        <ele>2261</ele>
        <time>2022-08-27T14:17:24Z</time>
      </trkpt>
      <trkpt lat="45.87557" lon="7.05873">
        <ele>2261</ele>
        <time>2022-08-27T14:17:27Z</time>
      </trkpt>
      <trkpt lat="45.8756" lon="7.05873">
        <ele>2261</ele>
        <time>2022-08-27T14:17:30Z</time>
      </trkpt>
      <trkpt lat="45.87562" lon="7.05873">
        <ele>2262</ele>
        <time>2022-08-27T14:17:33Z</time>
      </trkpt>
      <trkpt lat="45.87565" lon="7.05874">
        <ele>2263</ele>
        <time>2022-08-27T14:17:36Z</time>
      </trkpt>
      <trkpt lat="45.87567" lon="7.05875">
        <ele>2264</ele>
        <time>2022-08-27T14:17:39Z</time>
      </trkpt>
      <trkpt lat="45.87568" lon="7.05878">
        <ele>2265</ele>
        <time>2022-08-27T14:17:43Z</time>
      </trkpt>
      <trkpt lat="45.87569" lon="7.0588">
        <ele>2267</ele>
        <time>2022-08-27T14:17:49Z</time>
      </trkpt>
      <trkpt lat="45.87571" lon="7.05879">
        <ele>2267</ele>
        <time>2022-08-27T14:17:52Z</time>
      </trkpt>
      <trkpt lat="45.87573" lon="7.0588">
        <ele>2268</ele>
        <time>2022-08-27T14:17:55Z</time>
      </trkpt>
      <trkpt lat="45.87575" lon="7.05882">
        <ele>2268</ele>
        <time>2022-08-27T14:17:58Z</time>
      </trkpt>
      <trkpt lat="45.87577" lon="7.05883">
        <ele>2268</ele>
        <time>2022-08-27T14:18:01Z</time>
      </trkpt>
      <trkpt lat="45.87578" lon="7.05885">
        <ele>2269</ele>
        <time>2022-08-27T14:18:05Z</time>
      </trkpt>
      <trkpt lat="45.87579" lon="7.05887">
        <ele>2270</ele>
        <time>2022-08-27T14:18:08Z</time>
      </trkpt>
      <trkpt lat="45.8758" lon="7.0589">
        <ele>2272</ele>
        <time>2022-08-27T14:18:11Z</time>
      </trkpt>
      <trkpt lat="45.87581" lon="7.05893">
        <ele>2272</ele>
        <time>2022-08-27T14:18:15Z</time>
      </trkpt>
      <trkpt lat="45.87582" lon="7.05896">
        <ele>2274</ele>
        <time>2022-08-27T14:18:19Z</time>
      </trkpt>
      <trkpt lat="45.87583" lon="7.05899">
        <ele>2275</ele>
        <time>2022-08-27T14:18:23Z</time>
      </trkpt>
      <trkpt lat="45.87583" lon="7.05901">
        <ele>2275</ele>
        <time>2022-08-27T14:18:26Z</time>
      </trkpt>
      <trkpt lat="45.87585" lon="7.05904">
        <ele>2275</ele>
        <time>2022-08-27T14:18:29Z</time>
      </trkpt>
      <trkpt lat="45.87586" lon="7.05906">
        <ele>2276</ele>
        <time>2022-08-27T14:18:32Z</time>
      </trkpt>
      <trkpt lat="45.87587" lon="7.05909">
        <ele>2277</ele>
        <time>2022-08-27T14:18:36Z</time>
      </trkpt>
      <trkpt lat="45.87588" lon="7.05911">
        <ele>2277</ele>
        <time>2022-08-27T14:18:39Z</time>
      </trkpt>
      <trkpt lat="45.8759" lon="7.05913">
        <ele>2278</ele>
        <time>2022-08-27T14:18:43Z</time>
      </trkpt>
      <trkpt lat="45.87591" lon="7.05915">
        <ele>2279</ele>
        <time>2022-08-27T14:18:47Z</time>
      </trkpt>
      <trkpt lat="45.87594" lon="7.05916">
        <ele>2281</ele>
        <time>2022-08-27T14:18:51Z</time>
      </trkpt>
      <trkpt lat="45.87596" lon="7.05918">
        <ele>2281</ele>
        <time>2022-08-27T14:18:54Z</time>
      </trkpt>
      <trkpt lat="45.87597" lon="7.05921">
        <ele>2282</ele>
        <time>2022-08-27T14:18:57Z</time>
      </trkpt>
      <trkpt lat="45.87598" lon="7.05923">
        <ele>2282</ele>
        <time>2022-08-27T14:19:00Z</time>
      </trkpt>
      <trkpt lat="45.87597" lon="7.05927">
        <ele>2283</ele>
        <time>2022-08-27T14:19:05Z</time>
      </trkpt>
      <trkpt lat="45.87596" lon="7.0593">
        <ele>2284</ele>
        <time>2022-08-27T14:19:08Z</time>
      </trkpt>
      <trkpt lat="45.87596" lon="7.05932">
        <ele>2284</ele>
        <time>2022-08-27T14:19:10Z</time>
      </trkpt>
      <trkpt lat="45.87597" lon="7.05934">
        <ele>2285</ele>
        <time>2022-08-27T14:19:16Z</time>
      </trkpt>
      <trkpt lat="45.87599" lon="7.05935">
        <ele>2285</ele>
        <time>2022-08-27T14:19:20Z</time>
      </trkpt>
      <trkpt lat="45.87598" lon="7.05938">
        <ele>2287</ele>
        <time>2022-08-27T14:19:24Z</time>
      </trkpt>
      <trkpt lat="45.87599" lon="7.05941">
        <ele>2287</ele>
        <time>2022-08-27T14:19:28Z</time>
      </trkpt>
      <trkpt lat="45.876" lon="7.05943">
        <ele>2288</ele>
        <time>2022-08-27T14:19:31Z</time>
      </trkpt>
      <trkpt lat="45.87602" lon="7.05943">
        <ele>2288</ele>
        <time>2022-08-27T14:19:34Z</time>
      </trkpt>
      <trkpt lat="45.87604" lon="7.05944">
        <ele>2288</ele>
        <time>2022-08-27T14:19:36Z</time>
      </trkpt>
      <trkpt lat="45.87606" lon="7.05944">
        <ele>2289</ele>
        <time>2022-08-27T14:19:39Z</time>
      </trkpt>
      <trkpt lat="45.87608" lon="7.05944">
        <ele>2290</ele>
        <time>2022-08-27T14:19:43Z</time>
      </trkpt>
      <trkpt lat="45.87611" lon="7.05944">
        <ele>2291</ele>
        <time>2022-08-27T14:19:46Z</time>
      </trkpt>
      <trkpt lat="45.87613" lon="7.05945">
        <ele>2292</ele>
        <time>2022-08-27T14:19:49Z</time>
      </trkpt>
      <trkpt lat="45.87616" lon="7.05946">
        <ele>2292</ele>
        <time>2022-08-27T14:19:52Z</time>
      </trkpt>
      <trkpt lat="45.87617" lon="7.05948">
        <ele>2292</ele>
        <time>2022-08-27T14:19:54Z</time>
      </trkpt>
      <trkpt lat="45.87619" lon="7.0595">
        <ele>2293</ele>
        <time>2022-08-27T14:19:56Z</time>
      </trkpt>
      <trkpt lat="45.87621" lon="7.05952">
        <ele>2293</ele>
        <time>2022-08-27T14:19:59Z</time>
      </trkpt>
      <trkpt lat="45.87623" lon="7.05954">
        <ele>2293</ele>
        <time>2022-08-27T14:20:01Z</time>
      </trkpt>
      <trkpt lat="45.87624" lon="7.05956">
        <ele>2293</ele>
        <time>2022-08-27T14:20:03Z</time>
      </trkpt>
      <trkpt lat="45.87626" lon="7.05957">
        <ele>2293</ele>
        <time>2022-08-27T14:20:05Z</time>
      </trkpt>
      <trkpt lat="45.87628" lon="7.05959">
        <ele>2293</ele>
        <time>2022-08-27T14:20:07Z</time>
      </trkpt>
      <trkpt lat="45.8763" lon="7.05959">
        <ele>2293</ele>
        <time>2022-08-27T14:20:09Z</time>
      </trkpt>
      <trkpt lat="45.87632" lon="7.05959">
        <ele>2294</ele>
        <time>2022-08-27T14:20:11Z</time>
      </trkpt>
      <trkpt lat="45.87634" lon="7.0596">
        <ele>2294</ele>
        <time>2022-08-27T14:20:13Z</time>
      </trkpt>
      <trkpt lat="45.87636" lon="7.05962">
        <ele>2294</ele>
        <time>2022-08-27T14:20:15Z</time>
      </trkpt>
      <trkpt lat="45.87638" lon="7.05964">
        <ele>2294</ele>
        <time>2022-08-27T14:20:17Z</time>
      </trkpt>
      <trkpt lat="45.87639" lon="7.05966">
        <ele>2295</ele>
        <time>2022-08-27T14:20:19Z</time>
      </trkpt>
      <trkpt lat="45.87641" lon="7.05967">
        <ele>2295</ele>
        <time>2022-08-27T14:20:21Z</time>
      </trkpt>
      <trkpt lat="45.87643" lon="7.05969">
        <ele>2295</ele>
        <time>2022-08-27T14:20:23Z</time>
      </trkpt>
      <trkpt lat="45.87645" lon="7.05972">
        <ele>2295</ele>
        <time>2022-08-27T14:20:25Z</time>
      </trkpt>
      <trkpt lat="45.87646" lon="7.05974">
        <ele>2295</ele>
        <time>2022-08-27T14:20:27Z</time>
      </trkpt>
      <trkpt lat="45.87648" lon="7.05976">
        <ele>2295</ele>
        <time>2022-08-27T14:20:29Z</time>
      </trkpt>
      <trkpt lat="45.8765" lon="7.05978">
        <ele>2295</ele>
        <time>2022-08-27T14:20:31Z</time>
      </trkpt>
      <trkpt lat="45.87651" lon="7.0598">
        <ele>2295</ele>
        <time>2022-08-27T14:20:33Z</time>
      </trkpt>
      <trkpt lat="45.87653" lon="7.05982">
        <ele>2295</ele>
        <time>2022-08-27T14:20:35Z</time>
      </trkpt>
      <trkpt lat="45.87655" lon="7.05985">
        <ele>2296</ele>
        <time>2022-08-27T14:20:37Z</time>
      </trkpt>
      <trkpt lat="45.87656" lon="7.05987">
        <ele>2296</ele>
        <time>2022-08-27T14:20:39Z</time>
      </trkpt>
      <trkpt lat="45.87657" lon="7.0599">
        <ele>2297</ele>
        <time>2022-08-27T14:20:41Z</time>
      </trkpt>
      <trkpt lat="45.87658" lon="7.05993">
        <ele>2297</ele>
        <time>2022-08-27T14:20:43Z</time>
      </trkpt>
      <trkpt lat="45.87659" lon="7.05995">
        <ele>2297</ele>
        <time>2022-08-27T14:20:45Z</time>
      </trkpt>
      <trkpt lat="45.87661" lon="7.05997">
        <ele>2298</ele>
        <time>2022-08-27T14:20:47Z</time>
      </trkpt>
      <trkpt lat="45.87663" lon="7.05998">
        <ele>2300</ele>
        <time>2022-08-27T14:20:49Z</time>
      </trkpt>
      <trkpt lat="45.87665" lon="7.06">
        <ele>2300</ele>
        <time>2022-08-27T14:20:51Z</time>
      </trkpt>
      <trkpt lat="45.87667" lon="7.06002">
        <ele>2300</ele>
        <time>2022-08-27T14:20:53Z</time>
      </trkpt>
      <trkpt lat="45.87668" lon="7.06004">
        <ele>2300</ele>
        <time>2022-08-27T14:20:55Z</time>
      </trkpt>
      <trkpt lat="45.8767" lon="7.06006">
        <ele>2300</ele>
        <time>2022-08-27T14:20:57Z</time>
      </trkpt>
      <trkpt lat="45.87671" lon="7.06009">
        <ele>2301</ele>
        <time>2022-08-27T14:21:00Z</time>
      </trkpt>
      <trkpt lat="45.87672" lon="7.06011">
        <ele>2301</ele>
        <time>2022-08-27T14:21:03Z</time>
      </trkpt>
      <trkpt lat="45.87673" lon="7.06013">
        <ele>2301</ele>
        <time>2022-08-27T14:21:05Z</time>
      </trkpt>
      <trkpt lat="45.87675" lon="7.06015">
        <ele>2302</ele>
        <time>2022-08-27T14:21:07Z</time>
      </trkpt>
      <trkpt lat="45.87677" lon="7.06017">
        <ele>2302</ele>
        <time>2022-08-27T14:21:09Z</time>
      </trkpt>
      <trkpt lat="45.87679" lon="7.06018">
        <ele>2302</ele>
        <time>2022-08-27T14:21:11Z</time>
      </trkpt>
      <trkpt lat="45.87682" lon="7.06019">
        <ele>2302</ele>
        <time>2022-08-27T14:21:13Z</time>
      </trkpt>
      <trkpt lat="45.87684" lon="7.06021">
        <ele>2301</ele>
        <time>2022-08-27T14:21:15Z</time>
      </trkpt>
      <trkpt lat="45.87686" lon="7.06022">
        <ele>2303</ele>
        <time>2022-08-27T14:21:17Z</time>
      </trkpt>
      <trkpt lat="45.87689" lon="7.06024">
        <ele>2303</ele>
        <time>2022-08-27T14:21:19Z</time>
      </trkpt>
      <trkpt lat="45.87691" lon="7.06025">
        <ele>2303</ele>
        <time>2022-08-27T14:21:21Z</time>
      </trkpt>
      <trkpt lat="45.87693" lon="7.06027">
        <ele>2303</ele>
        <time>2022-08-27T14:21:23Z</time>
      </trkpt>
      <trkpt lat="45.87695" lon="7.06028">
        <ele>2304</ele>
        <time>2022-08-27T14:21:25Z</time>
      </trkpt>
      <trkpt lat="45.87697" lon="7.0603">
        <ele>2304</ele>
        <time>2022-08-27T14:21:27Z</time>
      </trkpt>
      <trkpt lat="45.87699" lon="7.06032">
        <ele>2304</ele>
        <time>2022-08-27T14:21:30Z</time>
      </trkpt>
      <trkpt lat="45.87701" lon="7.06034">
        <ele>2305</ele>
        <time>2022-08-27T14:21:32Z</time>
      </trkpt>
      <trkpt lat="45.87703" lon="7.06034">
        <ele>2306</ele>
        <time>2022-08-27T14:21:34Z</time>
      </trkpt>
      <trkpt lat="45.87705" lon="7.06036">
        <ele>2306</ele>
        <time>2022-08-27T14:21:36Z</time>
      </trkpt>
      <trkpt lat="45.87708" lon="7.06038">
        <ele>2306</ele>
        <time>2022-08-27T14:21:38Z</time>
      </trkpt>
      <trkpt lat="45.87709" lon="7.0604">
        <ele>2307</ele>
        <time>2022-08-27T14:21:40Z</time>
      </trkpt>
      <trkpt lat="45.87712" lon="7.06041">
        <ele>2307</ele>
        <time>2022-08-27T14:21:42Z</time>
      </trkpt>
      <trkpt lat="45.87714" lon="7.06043">
        <ele>2307</ele>
        <time>2022-08-27T14:21:44Z</time>
      </trkpt>
      <trkpt lat="45.87716" lon="7.06045">
        <ele>2307</ele>
        <time>2022-08-27T14:21:46Z</time>
      </trkpt>
      <trkpt lat="45.87718" lon="7.06048">
        <ele>2307</ele>
        <time>2022-08-27T14:21:48Z</time>
      </trkpt>
      <trkpt lat="45.87719" lon="7.06051">
        <ele>2307</ele>
        <time>2022-08-27T14:21:50Z</time>
      </trkpt>
      <trkpt lat="45.8772" lon="7.06054">
        <ele>2307</ele>
        <time>2022-08-27T14:21:52Z</time>
      </trkpt>
      <trkpt lat="45.87721" lon="7.06057">
        <ele>2307</ele>
        <time>2022-08-27T14:21:54Z</time>
      </trkpt>
      <trkpt lat="45.87723" lon="7.06061">
        <ele>2307</ele>
        <time>2022-08-27T14:21:56Z</time>
      </trkpt>
      <trkpt lat="45.87724" lon="7.06064">
        <ele>2308</ele>
        <time>2022-08-27T14:21:58Z</time>
      </trkpt>
      <trkpt lat="45.87723" lon="7.06068">
        <ele>2308</ele>
        <time>2022-08-27T14:22:00Z</time>
      </trkpt>
      <trkpt lat="45.87723" lon="7.06071">
        <ele>2308</ele>
        <time>2022-08-27T14:22:02Z</time>
      </trkpt>
      <trkpt lat="45.87724" lon="7.06074">
        <ele>2308</ele>
        <time>2022-08-27T14:22:04Z</time>
      </trkpt>
      <trkpt lat="45.87726" lon="7.06077">
        <ele>2309</ele>
        <time>2022-08-27T14:22:06Z</time>
      </trkpt>
      <trkpt lat="45.87728" lon="7.06079">
        <ele>2309</ele>
        <time>2022-08-27T14:22:08Z</time>
      </trkpt>
      <trkpt lat="45.8773" lon="7.0608">
        <ele>2309</ele>
        <time>2022-08-27T14:22:10Z</time>
      </trkpt>
      <trkpt lat="45.87733" lon="7.06081">
        <ele>2308</ele>
        <time>2022-08-27T14:22:12Z</time>
      </trkpt>
      <trkpt lat="45.87735" lon="7.06083">
        <ele>2309</ele>
        <time>2022-08-27T14:22:14Z</time>
      </trkpt>
      <trkpt lat="45.87738" lon="7.06084">
        <ele>2309</ele>
        <time>2022-08-27T14:22:16Z</time>
      </trkpt>
      <trkpt lat="45.8774" lon="7.06084">
        <ele>2309</ele>
        <time>2022-08-27T14:22:18Z</time>
      </trkpt>
      <trkpt lat="45.87743" lon="7.06085">
        <ele>2309</ele>
        <time>2022-08-27T14:22:20Z</time>
      </trkpt>
      <trkpt lat="45.87745" lon="7.06087">
        <ele>2309</ele>
        <time>2022-08-27T14:22:22Z</time>
      </trkpt>
      <trkpt lat="45.87747" lon="7.0609">
        <ele>2309</ele>
        <time>2022-08-27T14:22:24Z</time>
      </trkpt>
      <trkpt lat="45.87749" lon="7.06093">
        <ele>2309</ele>
        <time>2022-08-27T14:22:26Z</time>
      </trkpt>
      <trkpt lat="45.8775" lon="7.06095">
        <ele>2309</ele>
        <time>2022-08-27T14:22:28Z</time>
      </trkpt>
      <trkpt lat="45.87752" lon="7.06098">
        <ele>2309</ele>
        <time>2022-08-27T14:22:30Z</time>
      </trkpt>
      <trkpt lat="45.87754" lon="7.06101">
        <ele>2310</ele>
        <time>2022-08-27T14:22:32Z</time>
      </trkpt>
      <trkpt lat="45.87756" lon="7.06103">
        <ele>2310</ele>
        <time>2022-08-27T14:22:34Z</time>
      </trkpt>
      <trkpt lat="45.87758" lon="7.06105">
        <ele>2310</ele>
        <time>2022-08-27T14:22:36Z</time>
      </trkpt>
      <trkpt lat="45.8776" lon="7.06106">
        <ele>2311</ele>
        <time>2022-08-27T14:22:38Z</time>
      </trkpt>
      <trkpt lat="45.87763" lon="7.06107">
        <ele>2311</ele>
        <time>2022-08-27T14:22:40Z</time>
      </trkpt>
      <trkpt lat="45.87766" lon="7.06107">
        <ele>2311</ele>
        <time>2022-08-27T14:22:42Z</time>
      </trkpt>
      <trkpt lat="45.87768" lon="7.06107">
        <ele>2312</ele>
        <time>2022-08-27T14:22:44Z</time>
      </trkpt>
      <trkpt lat="45.87771" lon="7.06108">
        <ele>2312</ele>
        <time>2022-08-27T14:22:46Z</time>
      </trkpt>
      <trkpt lat="45.87773" lon="7.06109">
        <ele>2312</ele>
        <time>2022-08-27T14:22:48Z</time>
      </trkpt>
      <trkpt lat="45.87776" lon="7.06113">
        <ele>2312</ele>
        <time>2022-08-27T14:22:50Z</time>
      </trkpt>
      <trkpt lat="45.87777" lon="7.06115">
        <ele>2312</ele>
        <time>2022-08-27T14:22:51Z</time>
      </trkpt>
      <trkpt lat="45.87778" lon="7.06117">
        <ele>2312</ele>
        <time>2022-08-27T14:22:52Z</time>
      </trkpt>
      <trkpt lat="45.87779" lon="7.0612">
        <ele>2312</ele>
        <time>2022-08-27T14:22:53Z</time>
      </trkpt>
      <trkpt lat="45.87779" lon="7.06124">
        <ele>2312</ele>
        <time>2022-08-27T14:22:55Z</time>
      </trkpt>
      <trkpt lat="45.8778" lon="7.06126">
        <ele>2312</ele>
        <time>2022-08-27T14:22:57Z</time>
      </trkpt>
      <trkpt lat="45.87781" lon="7.06127">
        <ele>2312</ele>
        <time>2022-08-27T14:22:59Z</time>
      </trkpt>
      <trkpt lat="45.87784" lon="7.06127">
        <ele>2312</ele>
        <time>2022-08-27T14:23:01Z</time>
      </trkpt>
      <trkpt lat="45.87787" lon="7.06127">
        <ele>2312</ele>
        <time>2022-08-27T14:23:03Z</time>
      </trkpt>
      <trkpt lat="45.87789" lon="7.06127">
        <ele>2313</ele>
        <time>2022-08-27T14:23:05Z</time>
      </trkpt>
      <trkpt lat="45.87792" lon="7.06129">
        <ele>2313</ele>
        <time>2022-08-27T14:23:07Z</time>
      </trkpt>
      <trkpt lat="45.87794" lon="7.06131">
        <ele>2313</ele>
        <time>2022-08-27T14:23:09Z</time>
      </trkpt>
      <trkpt lat="45.87797" lon="7.06133">
        <ele>2313</ele>
        <time>2022-08-27T14:23:11Z</time>
      </trkpt>
      <trkpt lat="45.87799" lon="7.06135">
        <ele>2313</ele>
        <time>2022-08-27T14:23:13Z</time>
      </trkpt>
      <trkpt lat="45.87801" lon="7.06137">
        <ele>2313</ele>
        <time>2022-08-27T14:23:15Z</time>
      </trkpt>
      <trkpt lat="45.87803" lon="7.0614">
        <ele>2313</ele>
        <time>2022-08-27T14:23:17Z</time>
      </trkpt>
      <trkpt lat="45.87805" lon="7.06143">
        <ele>2313</ele>
        <time>2022-08-27T14:23:19Z</time>
      </trkpt>
      <trkpt lat="45.87807" lon="7.06146">
        <ele>2313</ele>
        <time>2022-08-27T14:23:21Z</time>
      </trkpt>
      <trkpt lat="45.87809" lon="7.06149">
        <ele>2314</ele>
        <time>2022-08-27T14:23:23Z</time>
      </trkpt>
      <trkpt lat="45.87809" lon="7.06153">
        <ele>2314</ele>
        <time>2022-08-27T14:23:25Z</time>
      </trkpt>
      <trkpt lat="45.87809" lon="7.06159">
        <ele>2312</ele>
        <time>2022-08-27T14:23:27Z</time>
      </trkpt>
      <trkpt lat="45.8781" lon="7.06162">
        <ele>2312</ele>
        <time>2022-08-27T14:23:28Z</time>
      </trkpt>
      <trkpt lat="45.87809" lon="7.06166">
        <ele>2313</ele>
        <time>2022-08-27T14:23:30Z</time>
      </trkpt>
      <trkpt lat="45.87808" lon="7.06169">
        <ele>2313</ele>
        <time>2022-08-27T14:23:32Z</time>
      </trkpt>
      <trkpt lat="45.87808" lon="7.06172">
        <ele>2314</ele>
        <time>2022-08-27T14:23:37Z</time>
      </trkpt>
      <trkpt lat="45.87809" lon="7.06176">
        <ele>2314</ele>
        <time>2022-08-27T14:23:39Z</time>
      </trkpt>
      <trkpt lat="45.87809" lon="7.06179">
        <ele>2314</ele>
        <time>2022-08-27T14:23:42Z</time>
      </trkpt>
      <trkpt lat="45.87809" lon="7.06183">
        <ele>2314</ele>
        <time>2022-08-27T14:23:45Z</time>
      </trkpt>
      <trkpt lat="45.8781" lon="7.06185">
        <ele>2315</ele>
        <time>2022-08-27T14:23:48Z</time>
      </trkpt>
      <trkpt lat="45.8781" lon="7.06187">
        <ele>2315</ele>
        <time>2022-08-27T14:23:49Z</time>
      </trkpt>
      <trkpt lat="45.87811" lon="7.06188">
        <ele>2316</ele>
        <time>2022-08-27T14:23:51Z</time>
      </trkpt>
      <trkpt lat="45.87811" lon="7.06189">
        <ele>2316</ele>
        <time>2022-08-27T14:23:52Z</time>
      </trkpt>
      <trkpt lat="45.87811" lon="7.06191">
        <ele>2316</ele>
        <time>2022-08-27T14:23:53Z</time>
      </trkpt>
      <trkpt lat="45.87812" lon="7.06192">
        <ele>2316</ele>
        <time>2022-08-27T14:23:54Z</time>
      </trkpt>
      <trkpt lat="45.87815" lon="7.06195">
        <ele>2316</ele>
        <time>2022-08-27T14:23:58Z</time>
      </trkpt>
      <trkpt lat="45.87817" lon="7.06195">
        <ele>2316</ele>
        <time>2022-08-27T14:24:00Z</time>
      </trkpt>
      <trkpt lat="45.87819" lon="7.06194">
        <ele>2317</ele>
        <time>2022-08-27T14:24:02Z</time>
      </trkpt>
      <trkpt lat="45.87821" lon="7.06193">
        <ele>2317</ele>
        <time>2022-08-27T14:24:04Z</time>
      </trkpt>
      <trkpt lat="45.87824" lon="7.06192">
        <ele>2317</ele>
        <time>2022-08-27T14:24:06Z</time>
      </trkpt>
      <trkpt lat="45.87825" lon="7.0619">
        <ele>2317</ele>
        <time>2022-08-27T14:24:08Z</time>
      </trkpt>
      <trkpt lat="45.87827" lon="7.06188">
        <ele>2317</ele>
        <time>2022-08-27T14:24:10Z</time>
      </trkpt>
      <trkpt lat="45.87828" lon="7.06186">
        <ele>2317</ele>
        <time>2022-08-27T14:24:12Z</time>
      </trkpt>
      <trkpt lat="45.87831" lon="7.06185">
        <ele>2317</ele>
        <time>2022-08-27T14:24:14Z</time>
      </trkpt>
      <trkpt lat="45.87833" lon="7.06184">
        <ele>2317</ele>
        <time>2022-08-27T14:24:16Z</time>
      </trkpt>
      <trkpt lat="45.87836" lon="7.06184">
        <ele>2317</ele>
        <time>2022-08-27T14:24:18Z</time>
      </trkpt>
      <trkpt lat="45.87838" lon="7.06186">
        <ele>2317</ele>
        <time>2022-08-27T14:24:20Z</time>
      </trkpt>
      <trkpt lat="45.87841" lon="7.06188">
        <ele>2317</ele>
        <time>2022-08-27T14:24:22Z</time>
      </trkpt>
      <trkpt lat="45.87843" lon="7.0619">
        <ele>2316</ele>
        <time>2022-08-27T14:24:24Z</time>
      </trkpt>
      <trkpt lat="45.87846" lon="7.06192">
        <ele>2316</ele>
        <time>2022-08-27T14:24:26Z</time>
      </trkpt>
      <trkpt lat="45.87848" lon="7.06193">
        <ele>2316</ele>
        <time>2022-08-27T14:24:28Z</time>
      </trkpt>
      <trkpt lat="45.8785" lon="7.06195">
        <ele>2316</ele>
        <time>2022-08-27T14:24:30Z</time>
      </trkpt>
      <trkpt lat="45.87852" lon="7.06196">
        <ele>2317</ele>
        <time>2022-08-27T14:24:32Z</time>
      </trkpt>
      <trkpt lat="45.87855" lon="7.06198">
        <ele>2317</ele>
        <time>2022-08-27T14:24:34Z</time>
      </trkpt>
      <trkpt lat="45.87857" lon="7.062">
        <ele>2317</ele>
        <time>2022-08-27T14:24:36Z</time>
      </trkpt>
      <trkpt lat="45.87858" lon="7.06203">
        <ele>2317</ele>
        <time>2022-08-27T14:24:38Z</time>
      </trkpt>
      <trkpt lat="45.8786" lon="7.06206">
        <ele>2317</ele>
        <time>2022-08-27T14:24:40Z</time>
      </trkpt>
      <trkpt lat="45.87862" lon="7.06208">
        <ele>2317</ele>
        <time>2022-08-27T14:24:42Z</time>
      </trkpt>
      <trkpt lat="45.87863" lon="7.0621">
        <ele>2317</ele>
        <time>2022-08-27T14:24:44Z</time>
      </trkpt>
      <trkpt lat="45.87865" lon="7.06213">
        <ele>2317</ele>
        <time>2022-08-27T14:24:46Z</time>
      </trkpt>
      <trkpt lat="45.87867" lon="7.06214">
        <ele>2318</ele>
        <time>2022-08-27T14:24:48Z</time>
      </trkpt>
      <trkpt lat="45.8787" lon="7.06213">
        <ele>2318</ele>
        <time>2022-08-27T14:24:50Z</time>
      </trkpt>
      <trkpt lat="45.87873" lon="7.06213">
        <ele>2319</ele>
        <time>2022-08-27T14:24:52Z</time>
      </trkpt>
      <trkpt lat="45.87875" lon="7.06213">
        <ele>2319</ele>
        <time>2022-08-27T14:24:54Z</time>
      </trkpt>
      <trkpt lat="45.87878" lon="7.06214">
        <ele>2319</ele>
        <time>2022-08-27T14:24:56Z</time>
      </trkpt>
      <trkpt lat="45.8788" lon="7.06215">
        <ele>2319</ele>
        <time>2022-08-27T14:24:58Z</time>
      </trkpt>
      <trkpt lat="45.87883" lon="7.06215">
        <ele>2319</ele>
        <time>2022-08-27T14:25:00Z</time>
      </trkpt>
      <trkpt lat="45.87886" lon="7.06216">
        <ele>2319</ele>
        <time>2022-08-27T14:25:02Z</time>
      </trkpt>
      <trkpt lat="45.87889" lon="7.06218">
        <ele>2319</ele>
        <time>2022-08-27T14:25:04Z</time>
      </trkpt>
      <trkpt lat="45.87891" lon="7.06221">
        <ele>2318</ele>
        <time>2022-08-27T14:25:06Z</time>
      </trkpt>
      <trkpt lat="45.87893" lon="7.06223">
        <ele>2318</ele>
        <time>2022-08-27T14:25:08Z</time>
      </trkpt>
      <trkpt lat="45.87895" lon="7.06226">
        <ele>2318</ele>
        <time>2022-08-27T14:25:10Z</time>
      </trkpt>
      <trkpt lat="45.87897" lon="7.0623">
        <ele>2318</ele>
        <time>2022-08-27T14:25:12Z</time>
      </trkpt>
      <trkpt lat="45.87898" lon="7.06234">
        <ele>2318</ele>
        <time>2022-08-27T14:25:14Z</time>
      </trkpt>
      <trkpt lat="45.87898" lon="7.06237">
        <ele>2318</ele>
        <time>2022-08-27T14:25:16Z</time>
      </trkpt>
      <trkpt lat="45.87899" lon="7.0624">
        <ele>2318</ele>
        <time>2022-08-27T14:25:18Z</time>
      </trkpt>
      <trkpt lat="45.879" lon="7.06242">
        <ele>2318</ele>
        <time>2022-08-27T14:25:20Z</time>
      </trkpt>
      <trkpt lat="45.87901" lon="7.06245">
        <ele>2320</ele>
        <time>2022-08-27T14:25:22Z</time>
      </trkpt>
      <trkpt lat="45.87903" lon="7.06248">
        <ele>2320</ele>
        <time>2022-08-27T14:25:25Z</time>
      </trkpt>
      <trkpt lat="45.87904" lon="7.06251">
        <ele>2321</ele>
        <time>2022-08-27T14:25:27Z</time>
      </trkpt>
      <trkpt lat="45.87907" lon="7.06251">
        <ele>2321</ele>
        <time>2022-08-27T14:25:29Z</time>
      </trkpt>
      <trkpt lat="45.8791" lon="7.06251">
        <ele>2321</ele>
        <time>2022-08-27T14:25:31Z</time>
      </trkpt>
      <trkpt lat="45.87912" lon="7.06251">
        <ele>2321</ele>
        <time>2022-08-27T14:25:33Z</time>
      </trkpt>
      <trkpt lat="45.87915" lon="7.06251">
        <ele>2320</ele>
        <time>2022-08-27T14:25:35Z</time>
      </trkpt>
      <trkpt lat="45.87918" lon="7.06252">
        <ele>2320</ele>
        <time>2022-08-27T14:25:37Z</time>
      </trkpt>
      <trkpt lat="45.87921" lon="7.06253">
        <ele>2320</ele>
        <time>2022-08-27T14:25:39Z</time>
      </trkpt>
      <trkpt lat="45.87923" lon="7.06255">
        <ele>2319</ele>
        <time>2022-08-27T14:25:41Z</time>
      </trkpt>
      <trkpt lat="45.87926" lon="7.06258">
        <ele>2319</ele>
        <time>2022-08-27T14:25:43Z</time>
      </trkpt>
      <trkpt lat="45.87927" lon="7.06261">
        <ele>2320</ele>
        <time>2022-08-27T14:25:45Z</time>
      </trkpt>
      <trkpt lat="45.87929" lon="7.06264">
        <ele>2320</ele>
        <time>2022-08-27T14:25:47Z</time>
      </trkpt>
      <trkpt lat="45.8793" lon="7.06267">
        <ele>2320</ele>
        <time>2022-08-27T14:25:49Z</time>
      </trkpt>
      <trkpt lat="45.87931" lon="7.06271">
        <ele>2320</ele>
        <time>2022-08-27T14:25:51Z</time>
      </trkpt>
      <trkpt lat="45.87932" lon="7.06274">
        <ele>2320</ele>
        <time>2022-08-27T14:25:53Z</time>
      </trkpt>
      <trkpt lat="45.87934" lon="7.06277">
        <ele>2321</ele>
        <time>2022-08-27T14:25:55Z</time>
      </trkpt>
      <trkpt lat="45.87936" lon="7.0628">
        <ele>2321</ele>
        <time>2022-08-27T14:25:57Z</time>
      </trkpt>
      <trkpt lat="45.87938" lon="7.06282">
        <ele>2321</ele>
        <time>2022-08-27T14:25:59Z</time>
      </trkpt>
      <trkpt lat="45.8794" lon="7.06283">
        <ele>2322</ele>
        <time>2022-08-27T14:26:03Z</time>
      </trkpt>
      <trkpt lat="45.87942" lon="7.06282">
        <ele>2322</ele>
        <time>2022-08-27T14:26:05Z</time>
      </trkpt>
      <trkpt lat="45.87945" lon="7.06281">
        <ele>2322</ele>
        <time>2022-08-27T14:26:07Z</time>
      </trkpt>
      <trkpt lat="45.87948" lon="7.0628">
        <ele>2322</ele>
        <time>2022-08-27T14:26:09Z</time>
      </trkpt>
      <trkpt lat="45.87951" lon="7.06279">
        <ele>2322</ele>
        <time>2022-08-27T14:26:11Z</time>
      </trkpt>
      <trkpt lat="45.87953" lon="7.06279">
        <ele>2322</ele>
        <time>2022-08-27T14:26:13Z</time>
      </trkpt>
      <trkpt lat="45.87956" lon="7.06279">
        <ele>2322</ele>
        <time>2022-08-27T14:26:15Z</time>
      </trkpt>
      <trkpt lat="45.87959" lon="7.06281">
        <ele>2322</ele>
        <time>2022-08-27T14:26:17Z</time>
      </trkpt>
      <trkpt lat="45.87962" lon="7.06282">
        <ele>2323</ele>
        <time>2022-08-27T14:26:19Z</time>
      </trkpt>
      <trkpt lat="45.87965" lon="7.06283">
        <ele>2323</ele>
        <time>2022-08-27T14:26:21Z</time>
      </trkpt>
      <trkpt lat="45.87968" lon="7.06286">
        <ele>2322</ele>
        <time>2022-08-27T14:26:28Z</time>
      </trkpt>
      <trkpt lat="45.8797" lon="7.06289">
        <ele>2322</ele>
        <time>2022-08-27T14:26:30Z</time>
      </trkpt>
      <trkpt lat="45.87972" lon="7.06293">
        <ele>2322</ele>
        <time>2022-08-27T14:26:32Z</time>
      </trkpt>
      <trkpt lat="45.87975" lon="7.06296">
        <ele>2322</ele>
        <time>2022-08-27T14:26:34Z</time>
      </trkpt>
      <trkpt lat="45.87977" lon="7.063">
        <ele>2323</ele>
        <time>2022-08-27T14:26:36Z</time>
      </trkpt>
      <trkpt lat="45.87979" lon="7.06303">
        <ele>2324</ele>
        <time>2022-08-27T14:26:38Z</time>
      </trkpt>
      <trkpt lat="45.87982" lon="7.06305">
        <ele>2324</ele>
        <time>2022-08-27T14:26:40Z</time>
      </trkpt>
      <trkpt lat="45.87984" lon="7.06307">
        <ele>2324</ele>
        <time>2022-08-27T14:26:42Z</time>
      </trkpt>
      <trkpt lat="45.87987" lon="7.0631">
        <ele>2324</ele>
        <time>2022-08-27T14:26:44Z</time>
      </trkpt>
      <trkpt lat="45.87989" lon="7.06313">
        <ele>2324</ele>
        <time>2022-08-27T14:26:46Z</time>
      </trkpt>
      <trkpt lat="45.87991" lon="7.06315">
        <ele>2324</ele>
        <time>2022-08-27T14:26:48Z</time>
      </trkpt>
      <trkpt lat="45.87994" lon="7.06317">
        <ele>2324</ele>
        <time>2022-08-27T14:26:50Z</time>
      </trkpt>
      <trkpt lat="45.87996" lon="7.06319">
        <ele>2324</ele>
        <time>2022-08-27T14:26:52Z</time>
      </trkpt>
      <trkpt lat="45.87999" lon="7.06321">
        <ele>2324</ele>
        <time>2022-08-27T14:26:54Z</time>
      </trkpt>
      <trkpt lat="45.88001" lon="7.06323">
        <ele>2324</ele>
        <time>2022-08-27T14:26:56Z</time>
      </trkpt>
      <trkpt lat="45.88003" lon="7.06326">
        <ele>2324</ele>
        <time>2022-08-27T14:26:58Z</time>
      </trkpt>
      <trkpt lat="45.88005" lon="7.06328">
        <ele>2326</ele>
        <time>2022-08-27T14:27:00Z</time>
      </trkpt>
      <trkpt lat="45.88007" lon="7.0633">
        <ele>2326</ele>
        <time>2022-08-27T14:27:04Z</time>
      </trkpt>
      <trkpt lat="45.8801" lon="7.06333">
        <ele>2326</ele>
        <time>2022-08-27T14:27:06Z</time>
      </trkpt>
      <trkpt lat="45.88012" lon="7.06335">
        <ele>2326</ele>
        <time>2022-08-27T14:27:08Z</time>
      </trkpt>
      <trkpt lat="45.88015" lon="7.06338">
        <ele>2326</ele>
        <time>2022-08-27T14:27:10Z</time>
      </trkpt>
      <trkpt lat="45.88016" lon="7.0634">
        <ele>2326</ele>
        <time>2022-08-27T14:27:13Z</time>
      </trkpt>
      <trkpt lat="45.88018" lon="7.06341">
        <ele>2326</ele>
        <time>2022-08-27T14:27:14Z</time>
      </trkpt>
      <trkpt lat="45.88021" lon="7.06343">
        <ele>2327</ele>
        <time>2022-08-27T14:27:16Z</time>
      </trkpt>
      <trkpt lat="45.88024" lon="7.06346">
        <ele>2327</ele>
        <time>2022-08-27T14:27:18Z</time>
      </trkpt>
      <trkpt lat="45.88025" lon="7.06349">
        <ele>2327</ele>
        <time>2022-08-27T14:27:20Z</time>
      </trkpt>
      <trkpt lat="45.88027" lon="7.06353">
        <ele>2327</ele>
        <time>2022-08-27T14:27:22Z</time>
      </trkpt>
      <trkpt lat="45.88028" lon="7.06358">
        <ele>2327</ele>
        <time>2022-08-27T14:27:24Z</time>
      </trkpt>
      <trkpt lat="45.88029" lon="7.06362">
        <ele>2327</ele>
        <time>2022-08-27T14:27:26Z</time>
      </trkpt>
      <trkpt lat="45.88029" lon="7.06364">
        <ele>2326</ele>
        <time>2022-08-27T14:27:27Z</time>
      </trkpt>
      <trkpt lat="45.88032" lon="7.06366">
        <ele>2326</ele>
        <time>2022-08-27T14:27:29Z</time>
      </trkpt>
      <trkpt lat="45.88034" lon="7.06367">
        <ele>2326</ele>
        <time>2022-08-27T14:27:31Z</time>
      </trkpt>
      <trkpt lat="45.88039" lon="7.06366">
        <ele>2326</ele>
        <time>2022-08-27T14:27:33Z</time>
      </trkpt>
      <trkpt lat="45.8804" lon="7.06367">
        <ele>2326</ele>
        <time>2022-08-27T14:27:34Z</time>
      </trkpt>
      <trkpt lat="45.88042" lon="7.06367">
        <ele>2327</ele>
        <time>2022-08-27T14:27:36Z</time>
      </trkpt>
      <trkpt lat="45.88044" lon="7.06367">
        <ele>2327</ele>
        <time>2022-08-27T14:27:38Z</time>
      </trkpt>
      <trkpt lat="45.88046" lon="7.06368">
        <ele>2328</ele>
        <time>2022-08-27T14:27:41Z</time>
      </trkpt>
      <trkpt lat="45.88049" lon="7.0637">
        <ele>2329</ele>
        <time>2022-08-27T14:27:44Z</time>
      </trkpt>
      <trkpt lat="45.8805" lon="7.06373">
        <ele>2329</ele>
        <time>2022-08-27T14:27:46Z</time>
      </trkpt>
      <trkpt lat="45.88051" lon="7.06377">
        <ele>2329</ele>
        <time>2022-08-27T14:27:49Z</time>
      </trkpt>
      <trkpt lat="45.88052" lon="7.06379">
        <ele>2329</ele>
        <time>2022-08-27T14:27:51Z</time>
      </trkpt>
      <trkpt lat="45.88053" lon="7.06382">
        <ele>2328</ele>
        <time>2022-08-27T14:27:53Z</time>
      </trkpt>
      <trkpt lat="45.88055" lon="7.06383">
        <ele>2328</ele>
        <time>2022-08-27T14:27:55Z</time>
      </trkpt>
      <trkpt lat="45.88058" lon="7.06381">
        <ele>2328</ele>
        <time>2022-08-27T14:27:57Z</time>
      </trkpt>
      <trkpt lat="45.8806" lon="7.0638">
        <ele>2328</ele>
        <time>2022-08-27T14:27:59Z</time>
      </trkpt>
      <trkpt lat="45.88062" lon="7.0638">
        <ele>2328</ele>
        <time>2022-08-27T14:28:01Z</time>
      </trkpt>
      <trkpt lat="45.88065" lon="7.0638">
        <ele>2329</ele>
        <time>2022-08-27T14:28:04Z</time>
      </trkpt>
      <trkpt lat="45.88067" lon="7.06381">
        <ele>2330</ele>
        <time>2022-08-27T14:28:06Z</time>
      </trkpt>
      <trkpt lat="45.88069" lon="7.06383">
        <ele>2330</ele>
        <time>2022-08-27T14:28:08Z</time>
      </trkpt>
      <trkpt lat="45.88072" lon="7.06384">
        <ele>2330</ele>
        <time>2022-08-27T14:28:10Z</time>
      </trkpt>
      <trkpt lat="45.88075" lon="7.06383">
        <ele>2331</ele>
        <time>2022-08-27T14:28:12Z</time>
      </trkpt>
      <trkpt lat="45.88078" lon="7.06383">
        <ele>2331</ele>
        <time>2022-08-27T14:28:14Z</time>
      </trkpt>
      <trkpt lat="45.88079" lon="7.06383">
        <ele>2331</ele>
        <time>2022-08-27T14:28:15Z</time>
      </trkpt>
      <trkpt lat="45.8808" lon="7.06383">
        <ele>2331</ele>
        <time>2022-08-27T14:28:16Z</time>
      </trkpt>
      <trkpt lat="45.88082" lon="7.06383">
        <ele>2331</ele>
        <time>2022-08-27T14:28:17Z</time>
      </trkpt>
      <trkpt lat="45.88085" lon="7.06384">
        <ele>2331</ele>
        <time>2022-08-27T14:28:18Z</time>
      </trkpt>
      <trkpt lat="45.88088" lon="7.06385">
        <ele>2331</ele>
        <time>2022-08-27T14:28:20Z</time>
      </trkpt>
      <trkpt lat="45.88091" lon="7.06387">
        <ele>2330</ele>
        <time>2022-08-27T14:28:22Z</time>
      </trkpt>
      <trkpt lat="45.88093" lon="7.06388">
        <ele>2330</ele>
        <time>2022-08-27T14:28:23Z</time>
      </trkpt>
      <trkpt lat="45.88096" lon="7.06388">
        <ele>2330</ele>
        <time>2022-08-27T14:28:25Z</time>
      </trkpt>
      <trkpt lat="45.881" lon="7.06389">
        <ele>2330</ele>
        <time>2022-08-27T14:28:26Z</time>
      </trkpt>
      <trkpt lat="45.88101" lon="7.06389">
        <ele>2330</ele>
        <time>2022-08-27T14:28:27Z</time>
      </trkpt>
      <trkpt lat="45.88103" lon="7.0639">
        <ele>2330</ele>
        <time>2022-08-27T14:28:28Z</time>
      </trkpt>
      <trkpt lat="45.88105" lon="7.06391">
        <ele>2330</ele>
        <time>2022-08-27T14:28:30Z</time>
      </trkpt>
      <trkpt lat="45.88107" lon="7.06392">
        <ele>2330</ele>
        <time>2022-08-27T14:28:32Z</time>
      </trkpt>
      <trkpt lat="45.8811" lon="7.06395">
        <ele>2331</ele>
        <time>2022-08-27T14:28:34Z</time>
      </trkpt>
      <trkpt lat="45.88112" lon="7.06396">
        <ele>2331</ele>
        <time>2022-08-27T14:28:36Z</time>
      </trkpt>
      <trkpt lat="45.88114" lon="7.06399">
        <ele>2331</ele>
        <time>2022-08-27T14:28:38Z</time>
      </trkpt>
      <trkpt lat="45.88116" lon="7.064">
        <ele>2332</ele>
        <time>2022-08-27T14:28:41Z</time>
      </trkpt>
      <trkpt lat="45.88118" lon="7.06401">
        <ele>2333</ele>
        <time>2022-08-27T14:28:43Z</time>
      </trkpt>
      <trkpt lat="45.8812" lon="7.06403">
        <ele>2333</ele>
        <time>2022-08-27T14:28:45Z</time>
      </trkpt>
      <trkpt lat="45.88122" lon="7.06405">
        <ele>2333</ele>
        <time>2022-08-27T14:28:47Z</time>
      </trkpt>
      <trkpt lat="45.88124" lon="7.06407">
        <ele>2334</ele>
        <time>2022-08-27T14:28:49Z</time>
      </trkpt>
      <trkpt lat="45.88126" lon="7.06408">
        <ele>2334</ele>
        <time>2022-08-27T14:28:51Z</time>
      </trkpt>
      <trkpt lat="45.88127" lon="7.06411">
        <ele>2335</ele>
        <time>2022-08-27T14:28:53Z</time>
      </trkpt>
      <trkpt lat="45.88129" lon="7.06412">
        <ele>2336</ele>
        <time>2022-08-27T14:28:55Z</time>
      </trkpt>
      <trkpt lat="45.88131" lon="7.06413">
        <ele>2336</ele>
        <time>2022-08-27T14:28:57Z</time>
      </trkpt>
      <trkpt lat="45.88134" lon="7.06413">
        <ele>2336</ele>
        <time>2022-08-27T14:29:00Z</time>
      </trkpt>
      <trkpt lat="45.88136" lon="7.06415">
        <ele>2336</ele>
        <time>2022-08-27T14:29:02Z</time>
      </trkpt>
      <trkpt lat="45.88138" lon="7.06416">
        <ele>2336</ele>
        <time>2022-08-27T14:29:04Z</time>
      </trkpt>
      <trkpt lat="45.8814" lon="7.06419">
        <ele>2336</ele>
        <time>2022-08-27T14:29:07Z</time>
      </trkpt>
      <trkpt lat="45.88142" lon="7.0642">
        <ele>2337</ele>
        <time>2022-08-27T14:29:09Z</time>
      </trkpt>
      <trkpt lat="45.88144" lon="7.06421">
        <ele>2338</ele>
        <time>2022-08-27T14:29:11Z</time>
      </trkpt>
      <trkpt lat="45.88146" lon="7.06422">
        <ele>2338</ele>
        <time>2022-08-27T14:29:13Z</time>
      </trkpt>
      <trkpt lat="45.88148" lon="7.06422">
        <ele>2338</ele>
        <time>2022-08-27T14:29:15Z</time>
      </trkpt>
      <trkpt lat="45.88151" lon="7.06425">
        <ele>2339</ele>
        <time>2022-08-27T14:29:17Z</time>
      </trkpt>
      <trkpt lat="45.88153" lon="7.06426">
        <ele>2339</ele>
        <time>2022-08-27T14:29:19Z</time>
      </trkpt>
      <trkpt lat="45.88155" lon="7.06428">
        <ele>2340</ele>
        <time>2022-08-27T14:29:21Z</time>
      </trkpt>
      <trkpt lat="45.88157" lon="7.06431">
        <ele>2339</ele>
        <time>2022-08-27T14:29:23Z</time>
      </trkpt>
      <trkpt lat="45.88159" lon="7.06433">
        <ele>2339</ele>
        <time>2022-08-27T14:29:24Z</time>
      </trkpt>
      <trkpt lat="45.8816" lon="7.06436">
        <ele>2338</ele>
        <time>2022-08-27T14:29:26Z</time>
      </trkpt>
      <trkpt lat="45.88162" lon="7.06438">
        <ele>2337</ele>
        <time>2022-08-27T14:29:28Z</time>
      </trkpt>
      <trkpt lat="45.88164" lon="7.0644">
        <ele>2337</ele>
        <time>2022-08-27T14:29:30Z</time>
      </trkpt>
      <trkpt lat="45.88165" lon="7.06442">
        <ele>2338</ele>
        <time>2022-08-27T14:29:32Z</time>
      </trkpt>
      <trkpt lat="45.88167" lon="7.06439">
        <ele>2338</ele>
        <time>2022-08-27T14:29:35Z</time>
      </trkpt>
      <trkpt lat="45.88169" lon="7.06437">
        <ele>2338</ele>
        <time>2022-08-27T14:29:37Z</time>
      </trkpt>
      <trkpt lat="45.88171" lon="7.06434">
        <ele>2338</ele>
        <time>2022-08-27T14:29:39Z</time>
      </trkpt>
      <trkpt lat="45.88173" lon="7.06432">
        <ele>2338</ele>
        <time>2022-08-27T14:29:41Z</time>
      </trkpt>
      <trkpt lat="45.88174" lon="7.06433">
        <ele>2339</ele>
        <time>2022-08-27T14:29:43Z</time>
      </trkpt>
      <trkpt lat="45.88176" lon="7.06435">
        <ele>2339</ele>
        <time>2022-08-27T14:29:46Z</time>
      </trkpt>
      <trkpt lat="45.88179" lon="7.06436">
        <ele>2340</ele>
        <time>2022-08-27T14:29:48Z</time>
      </trkpt>
      <trkpt lat="45.88182" lon="7.06438">
        <ele>2340</ele>
        <time>2022-08-27T14:29:52Z</time>
      </trkpt>
      <trkpt lat="45.88184" lon="7.06439">
        <ele>2341</ele>
        <time>2022-08-27T14:29:56Z</time>
      </trkpt>
      <trkpt lat="45.88186" lon="7.06441">
        <ele>2342</ele>
        <time>2022-08-27T14:30:01Z</time>
      </trkpt>
      <trkpt lat="45.88189" lon="7.06443">
        <ele>2342</ele>
        <time>2022-08-27T14:30:05Z</time>
      </trkpt>
      <trkpt lat="45.88191" lon="7.06444">
        <ele>2343</ele>
        <time>2022-08-27T14:30:08Z</time>
      </trkpt>
      <trkpt lat="45.88193" lon="7.06444">
        <ele>2345</ele>
        <time>2022-08-27T14:30:12Z</time>
      </trkpt>
      <trkpt lat="45.88195" lon="7.06446">
        <ele>2345</ele>
        <time>2022-08-27T14:30:14Z</time>
      </trkpt>
      <trkpt lat="45.88196" lon="7.06447">
        <ele>2347</ele>
        <time>2022-08-27T14:30:17Z</time>
      </trkpt>
      <trkpt lat="45.88199" lon="7.06449">
        <ele>2347</ele>
        <time>2022-08-27T14:30:21Z</time>
      </trkpt>
      <trkpt lat="45.882" lon="7.06451">
        <ele>2349</ele>
        <time>2022-08-27T14:30:26Z</time>
      </trkpt>
      <trkpt lat="45.88202" lon="7.06452">
        <ele>2349</ele>
        <time>2022-08-27T14:30:29Z</time>
      </trkpt>
      <trkpt lat="45.88205" lon="7.06453">
        <ele>2350</ele>
        <time>2022-08-27T14:30:33Z</time>
      </trkpt>
      <trkpt lat="45.88207" lon="7.06454">
        <ele>2350</ele>
        <time>2022-08-27T14:30:36Z</time>
      </trkpt>
      <trkpt lat="45.88208" lon="7.06456">
        <ele>2350</ele>
        <time>2022-08-27T14:30:38Z</time>
      </trkpt>
      <trkpt lat="45.8821" lon="7.06457">
        <ele>2352</ele>
        <time>2022-08-27T14:30:41Z</time>
      </trkpt>
      <trkpt lat="45.88212" lon="7.06458">
        <ele>2353</ele>
        <time>2022-08-27T14:30:45Z</time>
      </trkpt>
      <trkpt lat="45.88214" lon="7.0646">
        <ele>2354</ele>
        <time>2022-08-27T14:30:49Z</time>
      </trkpt>
      <trkpt lat="45.88216" lon="7.0646">
        <ele>2354</ele>
        <time>2022-08-27T14:30:52Z</time>
      </trkpt>
      <trkpt lat="45.88219" lon="7.06461">
        <ele>2354</ele>
        <time>2022-08-27T14:30:54Z</time>
      </trkpt>
      <trkpt lat="45.88221" lon="7.06464">
        <ele>2355</ele>
        <time>2022-08-27T14:30:57Z</time>
      </trkpt>
      <trkpt lat="45.88222" lon="7.06466">
        <ele>2356</ele>
        <time>2022-08-27T14:30:59Z</time>
      </trkpt>
      <trkpt lat="45.88223" lon="7.06468">
        <ele>2356</ele>
        <time>2022-08-27T14:31:01Z</time>
      </trkpt>
      <trkpt lat="45.88224" lon="7.06469">
        <ele>2356</ele>
        <time>2022-08-27T14:31:03Z</time>
      </trkpt>
      <trkpt lat="45.88225" lon="7.0647">
        <ele>2356</ele>
        <time>2022-08-27T14:31:04Z</time>
      </trkpt>
      <trkpt lat="45.88227" lon="7.06473">
        <ele>2358</ele>
        <time>2022-08-27T14:31:10Z</time>
      </trkpt>
      <trkpt lat="45.88229" lon="7.06476">
        <ele>2358</ele>
        <time>2022-08-27T14:31:13Z</time>
      </trkpt>
      <trkpt lat="45.8823" lon="7.06477">
        <ele>2358</ele>
        <time>2022-08-27T14:31:15Z</time>
      </trkpt>
      <trkpt lat="45.88232" lon="7.06478">
        <ele>2358</ele>
        <time>2022-08-27T14:31:18Z</time>
      </trkpt>
      <trkpt lat="45.88234" lon="7.06479">
        <ele>2358</ele>
        <time>2022-08-27T14:31:20Z</time>
      </trkpt>
      <trkpt lat="45.88236" lon="7.06481">
        <ele>2358</ele>
        <time>2022-08-27T14:31:22Z</time>
      </trkpt>
      <trkpt lat="45.88237" lon="7.06483">
        <ele>2358</ele>
        <time>2022-08-27T14:31:24Z</time>
      </trkpt>
      <trkpt lat="45.88239" lon="7.06485">
        <ele>2359</ele>
        <time>2022-08-27T14:31:27Z</time>
      </trkpt>
      <trkpt lat="45.8824" lon="7.06486">
        <ele>2360</ele>
        <time>2022-08-27T14:31:31Z</time>
      </trkpt>
      <trkpt lat="45.88242" lon="7.06489">
        <ele>2360</ele>
        <time>2022-08-27T14:31:34Z</time>
      </trkpt>
      <trkpt lat="45.88244" lon="7.06491">
        <ele>2361</ele>
        <time>2022-08-27T14:31:38Z</time>
      </trkpt>
      <trkpt lat="45.88246" lon="7.06491">
        <ele>2361</ele>
        <time>2022-08-27T14:31:40Z</time>
      </trkpt>
      <trkpt lat="45.88247" lon="7.06492">
        <ele>2361</ele>
        <time>2022-08-27T14:31:43Z</time>
      </trkpt>
      <trkpt lat="45.88249" lon="7.06494">
        <ele>2362</ele>
        <time>2022-08-27T14:31:47Z</time>
      </trkpt>
      <trkpt lat="45.88251" lon="7.06494">
        <ele>2363</ele>
        <time>2022-08-27T14:31:51Z</time>
      </trkpt>
      <trkpt lat="45.88253" lon="7.06496">
        <ele>2365</ele>
        <time>2022-08-27T14:31:55Z</time>
      </trkpt>
      <trkpt lat="45.88255" lon="7.06497">
        <ele>2366</ele>
        <time>2022-08-27T14:32:00Z</time>
      </trkpt>
      <trkpt lat="45.88257" lon="7.06497">
        <ele>2367</ele>
        <time>2022-08-27T14:32:03Z</time>
      </trkpt>
      <trkpt lat="45.88258" lon="7.06494">
        <ele>2368</ele>
        <time>2022-08-27T14:32:06Z</time>
      </trkpt>
      <trkpt lat="45.88258" lon="7.06491">
        <ele>2368</ele>
        <time>2022-08-27T14:32:09Z</time>
      </trkpt>
      <trkpt lat="45.88258" lon="7.06489">
        <ele>2368</ele>
        <time>2022-08-27T14:32:12Z</time>
      </trkpt>
      <trkpt lat="45.88258" lon="7.06486">
        <ele>2369</ele>
        <time>2022-08-27T14:32:16Z</time>
      </trkpt>
      <trkpt lat="45.88257" lon="7.06483">
        <ele>2370</ele>
        <time>2022-08-27T14:32:23Z</time>
      </trkpt>
      <trkpt lat="45.88255" lon="7.06481">
        <ele>2370</ele>
        <time>2022-08-27T14:32:26Z</time>
      </trkpt>
      <trkpt lat="45.88254" lon="7.06478">
        <ele>2372</ele>
        <time>2022-08-27T14:32:30Z</time>
      </trkpt>
      <trkpt lat="45.88254" lon="7.06475">
        <ele>2373</ele>
        <time>2022-08-27T14:32:37Z</time>
      </trkpt>
      <trkpt lat="45.88252" lon="7.06473">
        <ele>2373</ele>
        <time>2022-08-27T14:32:40Z</time>
      </trkpt>
      <trkpt lat="45.88253" lon="7.0647">
        <ele>2374</ele>
        <time>2022-08-27T14:32:42Z</time>
      </trkpt>
      <trkpt lat="45.88255" lon="7.06469">
        <ele>2374</ele>
        <time>2022-08-27T14:32:44Z</time>
      </trkpt>
      <trkpt lat="45.88256" lon="7.0647">
        <ele>2376</ele>
        <time>2022-08-27T14:32:46Z</time>
      </trkpt>
      <trkpt lat="45.88258" lon="7.06472">
        <ele>2378</ele>
        <time>2022-08-27T14:32:48Z</time>
      </trkpt>
      <trkpt lat="45.88261" lon="7.06472">
        <ele>2378</ele>
        <time>2022-08-27T14:32:51Z</time>
      </trkpt>
      <trkpt lat="45.88263" lon="7.06472">
        <ele>2378</ele>
        <time>2022-08-27T14:32:53Z</time>
      </trkpt>
      <trkpt lat="45.88265" lon="7.06472">
        <ele>2378</ele>
        <time>2022-08-27T14:32:55Z</time>
      </trkpt>
      <trkpt lat="45.88267" lon="7.06474">
        <ele>2379</ele>
        <time>2022-08-27T14:32:57Z</time>
      </trkpt>
      <trkpt lat="45.88268" lon="7.06475">
        <ele>2379</ele>
        <time>2022-08-27T14:32:59Z</time>
      </trkpt>
      <trkpt lat="45.8827" lon="7.06475">
        <ele>2379</ele>
        <time>2022-08-27T14:33:01Z</time>
      </trkpt>
      <trkpt lat="45.88272" lon="7.06476">
        <ele>2379</ele>
        <time>2022-08-27T14:33:03Z</time>
      </trkpt>
      <trkpt lat="45.88275" lon="7.06477">
        <ele>2379</ele>
        <time>2022-08-27T14:33:06Z</time>
      </trkpt>
      <trkpt lat="45.88277" lon="7.06476">
        <ele>2380</ele>
        <time>2022-08-27T14:33:08Z</time>
      </trkpt>
      <trkpt lat="45.88279" lon="7.06477">
        <ele>2380</ele>
        <time>2022-08-27T14:33:10Z</time>
      </trkpt>
      <trkpt lat="45.8828" lon="7.06478">
        <ele>2381</ele>
        <time>2022-08-27T14:33:12Z</time>
      </trkpt>
      <trkpt lat="45.88282" lon="7.0648">
        <ele>2381</ele>
        <time>2022-08-27T14:33:15Z</time>
      </trkpt>
      <trkpt lat="45.88285" lon="7.06482">
        <ele>2381</ele>
        <time>2022-08-27T14:33:18Z</time>
      </trkpt>
      <trkpt lat="45.88286" lon="7.06482">
        <ele>2381</ele>
        <time>2022-08-27T14:33:20Z</time>
      </trkpt>
      <trkpt lat="45.88288" lon="7.06484">
        <ele>2383</ele>
        <time>2022-08-27T14:33:22Z</time>
      </trkpt>
      <trkpt lat="45.8829" lon="7.06485">
        <ele>2383</ele>
        <time>2022-08-27T14:33:24Z</time>
      </trkpt>
      <trkpt lat="45.88292" lon="7.06486">
        <ele>2383</ele>
        <time>2022-08-27T14:33:26Z</time>
      </trkpt>
      <trkpt lat="45.88294" lon="7.06488">
        <ele>2383</ele>
        <time>2022-08-27T14:33:28Z</time>
      </trkpt>
      <trkpt lat="45.88296" lon="7.0649">
        <ele>2384</ele>
        <time>2022-08-27T14:33:31Z</time>
      </trkpt>
      <trkpt lat="45.88298" lon="7.06491">
        <ele>2384</ele>
        <time>2022-08-27T14:33:33Z</time>
      </trkpt>
      <trkpt lat="45.883" lon="7.06493">
        <ele>2384</ele>
        <time>2022-08-27T14:33:35Z</time>
      </trkpt>
      <trkpt lat="45.88302" lon="7.06494">
        <ele>2385</ele>
        <time>2022-08-27T14:33:37Z</time>
      </trkpt>
      <trkpt lat="45.88304" lon="7.06496">
        <ele>2385</ele>
        <time>2022-08-27T14:33:39Z</time>
      </trkpt>
      <trkpt lat="45.88306" lon="7.06498">
        <ele>2385</ele>
        <time>2022-08-27T14:33:41Z</time>
      </trkpt>
      <trkpt lat="45.88308" lon="7.06499">
        <ele>2385</ele>
        <time>2022-08-27T14:33:43Z</time>
      </trkpt>
      <trkpt lat="45.8831" lon="7.06501">
        <ele>2386</ele>
        <time>2022-08-27T14:33:46Z</time>
      </trkpt>
      <trkpt lat="45.88311" lon="7.06503">
        <ele>2386</ele>
        <time>2022-08-27T14:33:48Z</time>
      </trkpt>
      <trkpt lat="45.88313" lon="7.06505">
        <ele>2386</ele>
        <time>2022-08-27T14:33:50Z</time>
      </trkpt>
      <trkpt lat="45.88314" lon="7.06507">
        <ele>2386</ele>
        <time>2022-08-27T14:33:52Z</time>
      </trkpt>
      <trkpt lat="45.88316" lon="7.06509">
        <ele>2386</ele>
        <time>2022-08-27T14:33:54Z</time>
      </trkpt>
      <trkpt lat="45.88317" lon="7.06511">
        <ele>2388</ele>
        <time>2022-08-27T14:33:57Z</time>
      </trkpt>
      <trkpt lat="45.88318" lon="7.06514">
        <ele>2388</ele>
        <time>2022-08-27T14:34:00Z</time>
      </trkpt>
      <trkpt lat="45.88321" lon="7.06515">
        <ele>2389</ele>
        <time>2022-08-27T14:34:03Z</time>
      </trkpt>
      <trkpt lat="45.88322" lon="7.06516">
        <ele>2389</ele>
        <time>2022-08-27T14:34:05Z</time>
      </trkpt>
      <trkpt lat="45.88324" lon="7.06517">
        <ele>2389</ele>
        <time>2022-08-27T14:34:07Z</time>
      </trkpt>
      <trkpt lat="45.88326" lon="7.06518">
        <ele>2390</ele>
        <time>2022-08-27T14:34:09Z</time>
      </trkpt>
      <trkpt lat="45.88327" lon="7.0652">
        <ele>2390</ele>
        <time>2022-08-27T14:34:11Z</time>
      </trkpt>
      <trkpt lat="45.88329" lon="7.06522">
        <ele>2390</ele>
        <time>2022-08-27T14:34:14Z</time>
      </trkpt>
      <trkpt lat="45.8833" lon="7.06524">
        <ele>2389</ele>
        <time>2022-08-27T14:34:17Z</time>
      </trkpt>
      <trkpt lat="45.88331" lon="7.06526">
        <ele>2391</ele>
        <time>2022-08-27T14:34:20Z</time>
      </trkpt>
      <trkpt lat="45.88333" lon="7.06528">
        <ele>2392</ele>
        <time>2022-08-27T14:34:23Z</time>
      </trkpt>
      <trkpt lat="45.88335" lon="7.06529">
        <ele>2392</ele>
        <time>2022-08-27T14:34:27Z</time>
      </trkpt>
      <trkpt lat="45.88337" lon="7.0653">
        <ele>2392</ele>
        <time>2022-08-27T14:34:30Z</time>
      </trkpt>
      <trkpt lat="45.88339" lon="7.06531">
        <ele>2394</ele>
        <time>2022-08-27T14:34:32Z</time>
      </trkpt>
      <trkpt lat="45.88341" lon="7.06533">
        <ele>2394</ele>
        <time>2022-08-27T14:34:34Z</time>
      </trkpt>
      <trkpt lat="45.88343" lon="7.06534">
        <ele>2394</ele>
        <time>2022-08-27T14:34:36Z</time>
      </trkpt>
      <trkpt lat="45.88345" lon="7.06535">
        <ele>2395</ele>
        <time>2022-08-27T14:34:38Z</time>
      </trkpt>
      <trkpt lat="45.88346" lon="7.06536">
        <ele>2395</ele>
        <time>2022-08-27T14:34:40Z</time>
      </trkpt>
      <trkpt lat="45.88349" lon="7.06538">
        <ele>2395</ele>
        <time>2022-08-27T14:34:43Z</time>
      </trkpt>
      <trkpt lat="45.88351" lon="7.0654">
        <ele>2396</ele>
        <time>2022-08-27T14:34:46Z</time>
      </trkpt>
      <trkpt lat="45.88354" lon="7.0654">
        <ele>2396</ele>
        <time>2022-08-27T14:34:49Z</time>
      </trkpt>
      <trkpt lat="45.88355" lon="7.0654">
        <ele>2396</ele>
        <time>2022-08-27T14:34:51Z</time>
      </trkpt>
      <trkpt lat="45.88357" lon="7.06541">
        <ele>2397</ele>
        <time>2022-08-27T14:34:53Z</time>
      </trkpt>
      <trkpt lat="45.88358" lon="7.06544">
        <ele>2397</ele>
        <time>2022-08-27T14:34:55Z</time>
      </trkpt>
      <trkpt lat="45.8836" lon="7.06546">
        <ele>2397</ele>
        <time>2022-08-27T14:34:57Z</time>
      </trkpt>
      <trkpt lat="45.88361" lon="7.06548">
        <ele>2398</ele>
        <time>2022-08-27T14:34:59Z</time>
      </trkpt>
      <trkpt lat="45.88362" lon="7.06552">
        <ele>2398</ele>
        <time>2022-08-27T14:35:02Z</time>
      </trkpt>
      <trkpt lat="45.88363" lon="7.06553">
        <ele>2398</ele>
        <time>2022-08-27T14:35:06Z</time>
      </trkpt>
      <trkpt lat="45.88366" lon="7.06554">
        <ele>2398</ele>
        <time>2022-08-27T14:35:09Z</time>
      </trkpt>
      <trkpt lat="45.88368" lon="7.06556">
        <ele>2399</ele>
        <time>2022-08-27T14:35:11Z</time>
      </trkpt>
      <trkpt lat="45.8837" lon="7.06557">
        <ele>2399</ele>
        <time>2022-08-27T14:35:13Z</time>
      </trkpt>
      <trkpt lat="45.88371" lon="7.06559">
        <ele>2400</ele>
        <time>2022-08-27T14:35:15Z</time>
      </trkpt>
      <trkpt lat="45.88373" lon="7.06561">
        <ele>2400</ele>
        <time>2022-08-27T14:35:18Z</time>
      </trkpt>
      <trkpt lat="45.88376" lon="7.06564">
        <ele>2400</ele>
        <time>2022-08-27T14:35:21Z</time>
      </trkpt>
      <trkpt lat="45.88377" lon="7.06566">
        <ele>2402</ele>
        <time>2022-08-27T14:35:23Z</time>
      </trkpt>
      <trkpt lat="45.88379" lon="7.06569">
        <ele>2402</ele>
        <time>2022-08-27T14:35:25Z</time>
      </trkpt>
      <trkpt lat="45.8838" lon="7.06571">
        <ele>2402</ele>
        <time>2022-08-27T14:35:27Z</time>
      </trkpt>
      <trkpt lat="45.88382" lon="7.06572">
        <ele>2402</ele>
        <time>2022-08-27T14:35:29Z</time>
      </trkpt>
      <trkpt lat="45.88383" lon="7.06574">
        <ele>2405</ele>
        <time>2022-08-27T14:35:32Z</time>
      </trkpt>
      <trkpt lat="45.88386" lon="7.06577">
        <ele>2405</ele>
        <time>2022-08-27T14:35:35Z</time>
      </trkpt>
      <trkpt lat="45.88387" lon="7.06578">
        <ele>2406</ele>
        <time>2022-08-27T14:35:37Z</time>
      </trkpt>
      <trkpt lat="45.8839" lon="7.0658">
        <ele>2406</ele>
        <time>2022-08-27T14:35:40Z</time>
      </trkpt>
      <trkpt lat="45.88392" lon="7.06581">
        <ele>2407</ele>
        <time>2022-08-27T14:35:42Z</time>
      </trkpt>
      <trkpt lat="45.88394" lon="7.06584">
        <ele>2408</ele>
        <time>2022-08-27T14:35:44Z</time>
      </trkpt>
      <trkpt lat="45.88395" lon="7.06587">
        <ele>2408</ele>
        <time>2022-08-27T14:35:46Z</time>
      </trkpt>
      <trkpt lat="45.88397" lon="7.06589">
        <ele>2407</ele>
        <time>2022-08-27T14:35:48Z</time>
      </trkpt>
      <trkpt lat="45.88399" lon="7.06592">
        <ele>2407</ele>
        <time>2022-08-27T14:35:50Z</time>
      </trkpt>
      <trkpt lat="45.88401" lon="7.06594">
        <ele>2408</ele>
        <time>2022-08-27T14:35:52Z</time>
      </trkpt>
      <trkpt lat="45.88403" lon="7.06595">
        <ele>2408</ele>
        <time>2022-08-27T14:35:54Z</time>
      </trkpt>
      <trkpt lat="45.88405" lon="7.06597">
        <ele>2409</ele>
        <time>2022-08-27T14:35:56Z</time>
      </trkpt>
      <trkpt lat="45.88407" lon="7.066">
        <ele>2408</ele>
        <time>2022-08-27T14:35:58Z</time>
      </trkpt>
      <trkpt lat="45.88409" lon="7.06602">
        <ele>2408</ele>
        <time>2022-08-27T14:36:00Z</time>
      </trkpt>
      <trkpt lat="45.88411" lon="7.06604">
        <ele>2408</ele>
        <time>2022-08-27T14:36:02Z</time>
      </trkpt>
      <trkpt lat="45.88413" lon="7.06606">
        <ele>2408</ele>
        <time>2022-08-27T14:36:04Z</time>
      </trkpt>
      <trkpt lat="45.88414" lon="7.06609">
        <ele>2408</ele>
        <time>2022-08-27T14:36:06Z</time>
      </trkpt>
      <trkpt lat="45.88416" lon="7.06611">
        <ele>2409</ele>
        <time>2022-08-27T14:36:08Z</time>
      </trkpt>
      <trkpt lat="45.88417" lon="7.06614">
        <ele>2410</ele>
        <time>2022-08-27T14:36:11Z</time>
      </trkpt>
      <trkpt lat="45.88418" lon="7.06616">
        <ele>2410</ele>
        <time>2022-08-27T14:36:13Z</time>
      </trkpt>
      <trkpt lat="45.88419" lon="7.06619">
        <ele>2410</ele>
        <time>2022-08-27T14:36:15Z</time>
      </trkpt>
      <trkpt lat="45.88421" lon="7.06621">
        <ele>2410</ele>
        <time>2022-08-27T14:36:17Z</time>
      </trkpt>
      <trkpt lat="45.88423" lon="7.06623">
        <ele>2410</ele>
        <time>2022-08-27T14:36:19Z</time>
      </trkpt>
      <trkpt lat="45.88424" lon="7.06626">
        <ele>2410</ele>
        <time>2022-08-27T14:36:21Z</time>
      </trkpt>
      <trkpt lat="45.88426" lon="7.06628">
        <ele>2410</ele>
        <time>2022-08-27T14:36:23Z</time>
      </trkpt>
      <trkpt lat="45.88428" lon="7.0663">
        <ele>2410</ele>
        <time>2022-08-27T14:36:25Z</time>
      </trkpt>
      <trkpt lat="45.88429" lon="7.06633">
        <ele>2410</ele>
        <time>2022-08-27T14:36:27Z</time>
      </trkpt>
      <trkpt lat="45.88431" lon="7.06636">
        <ele>2410</ele>
        <time>2022-08-27T14:36:30Z</time>
      </trkpt>
      <trkpt lat="45.88433" lon="7.06639">
        <ele>2410</ele>
        <time>2022-08-27T14:36:32Z</time>
      </trkpt>
      <trkpt lat="45.88434" lon="7.06641">
        <ele>2411</ele>
        <time>2022-08-27T14:36:34Z</time>
      </trkpt>
      <trkpt lat="45.88435" lon="7.06644">
        <ele>2411</ele>
        <time>2022-08-27T14:36:36Z</time>
      </trkpt>
      <trkpt lat="45.88436" lon="7.06646">
        <ele>2412</ele>
        <time>2022-08-27T14:36:39Z</time>
      </trkpt>
      <trkpt lat="45.88438" lon="7.06649">
        <ele>2412</ele>
        <time>2022-08-27T14:36:42Z</time>
      </trkpt>
      <trkpt lat="45.8844" lon="7.06651">
        <ele>2412</ele>
        <time>2022-08-27T14:36:44Z</time>
      </trkpt>
      <trkpt lat="45.88441" lon="7.06652">
        <ele>2411</ele>
        <time>2022-08-27T14:36:46Z</time>
      </trkpt>
      <trkpt lat="45.88443" lon="7.06654">
        <ele>2411</ele>
        <time>2022-08-27T14:36:48Z</time>
      </trkpt>
      <trkpt lat="45.88444" lon="7.06656">
        <ele>2411</ele>
        <time>2022-08-27T14:36:50Z</time>
      </trkpt>
      <trkpt lat="45.88445" lon="7.06658">
        <ele>2413</ele>
        <time>2022-08-27T14:36:53Z</time>
      </trkpt>
      <trkpt lat="45.88448" lon="7.0666">
        <ele>2414</ele>
        <time>2022-08-27T14:36:56Z</time>
      </trkpt>
      <trkpt lat="45.88449" lon="7.06662">
        <ele>2414</ele>
        <time>2022-08-27T14:36:58Z</time>
      </trkpt>
      <trkpt lat="45.8845" lon="7.06664">
        <ele>2414</ele>
        <time>2022-08-27T14:37:00Z</time>
      </trkpt>
      <trkpt lat="45.88452" lon="7.06667">
        <ele>2414</ele>
        <time>2022-08-27T14:37:02Z</time>
      </trkpt>
      <trkpt lat="45.88453" lon="7.06669">
        <ele>2414</ele>
        <time>2022-08-27T14:37:04Z</time>
      </trkpt>
      <trkpt lat="45.88455" lon="7.06671">
        <ele>2413</ele>
        <time>2022-08-27T14:37:06Z</time>
      </trkpt>
      <trkpt lat="45.88456" lon="7.06673">
        <ele>2413</ele>
        <time>2022-08-27T14:37:08Z</time>
      </trkpt>
      <trkpt lat="45.88458" lon="7.06675">
        <ele>2414</ele>
        <time>2022-08-27T14:37:10Z</time>
      </trkpt>
      <trkpt lat="45.8846" lon="7.06677">
        <ele>2415</ele>
        <time>2022-08-27T14:37:12Z</time>
      </trkpt>
      <trkpt lat="45.88461" lon="7.06679">
        <ele>2415</ele>
        <time>2022-08-27T14:37:14Z</time>
      </trkpt>
      <trkpt lat="45.88463" lon="7.06681">
        <ele>2416</ele>
        <time>2022-08-27T14:37:17Z</time>
      </trkpt>
      <trkpt lat="45.88465" lon="7.06683">
        <ele>2417</ele>
        <time>2022-08-27T14:37:20Z</time>
      </trkpt>
      <trkpt lat="45.88467" lon="7.06685">
        <ele>2417</ele>
        <time>2022-08-27T14:37:24Z</time>
      </trkpt>
      <trkpt lat="45.88468" lon="7.06686">
        <ele>2416</ele>
        <time>2022-08-27T14:37:26Z</time>
      </trkpt>
      <trkpt lat="45.8847" lon="7.06688">
        <ele>2416</ele>
        <time>2022-08-27T14:37:28Z</time>
      </trkpt>
      <trkpt lat="45.88472" lon="7.06689">
        <ele>2417</ele>
        <time>2022-08-27T14:37:30Z</time>
      </trkpt>
      <trkpt lat="45.88474" lon="7.06691">
        <ele>2418</ele>
        <time>2022-08-27T14:37:32Z</time>
      </trkpt>
      <trkpt lat="45.88476" lon="7.06693">
        <ele>2418</ele>
        <time>2022-08-27T14:37:34Z</time>
      </trkpt>
      <trkpt lat="45.88478" lon="7.06696">
        <ele>2418</ele>
        <time>2022-08-27T14:37:36Z</time>
      </trkpt>
      <trkpt lat="45.88479" lon="7.06699">
        <ele>2418</ele>
        <time>2022-08-27T14:37:38Z</time>
      </trkpt>
      <trkpt lat="45.8848" lon="7.06701">
        <ele>2418</ele>
        <time>2022-08-27T14:37:40Z</time>
      </trkpt>
      <trkpt lat="45.88482" lon="7.06704">
        <ele>2419</ele>
        <time>2022-08-27T14:37:43Z</time>
      </trkpt>
      <trkpt lat="45.88483" lon="7.06706">
        <ele>2420</ele>
        <time>2022-08-27T14:37:46Z</time>
      </trkpt>
      <trkpt lat="45.88486" lon="7.06708">
        <ele>2420</ele>
        <time>2022-08-27T14:37:49Z</time>
      </trkpt>
      <trkpt lat="45.88487" lon="7.0671">
        <ele>2420</ele>
        <time>2022-08-27T14:37:52Z</time>
      </trkpt>
      <trkpt lat="45.88489" lon="7.06711">
        <ele>2420</ele>
        <time>2022-08-27T14:37:54Z</time>
      </trkpt>
      <trkpt lat="45.8849" lon="7.06712">
        <ele>2421</ele>
        <time>2022-08-27T14:37:56Z</time>
      </trkpt>
      <trkpt lat="45.88492" lon="7.06715">
        <ele>2421</ele>
        <time>2022-08-27T14:37:59Z</time>
      </trkpt>
      <trkpt lat="45.88494" lon="7.06717">
        <ele>2422</ele>
        <time>2022-08-27T14:38:02Z</time>
      </trkpt>
      <trkpt lat="45.88495" lon="7.06719">
        <ele>2422</ele>
        <time>2022-08-27T14:38:05Z</time>
      </trkpt>
      <trkpt lat="45.88496" lon="7.06722">
        <ele>2423</ele>
        <time>2022-08-27T14:38:08Z</time>
      </trkpt>
      <trkpt lat="45.88497" lon="7.06725">
        <ele>2424</ele>
        <time>2022-08-27T14:38:11Z</time>
      </trkpt>
      <trkpt lat="45.88498" lon="7.06727">
        <ele>2425</ele>
        <time>2022-08-27T14:38:14Z</time>
      </trkpt>
      <trkpt lat="45.88499" lon="7.0673">
        <ele>2425</ele>
        <time>2022-08-27T14:38:16Z</time>
      </trkpt>
      <trkpt lat="45.885" lon="7.06733">
        <ele>2425</ele>
        <time>2022-08-27T14:38:19Z</time>
      </trkpt>
      <trkpt lat="45.88501" lon="7.06735">
        <ele>2425</ele>
        <time>2022-08-27T14:38:22Z</time>
      </trkpt>
      <trkpt lat="45.88501" lon="7.06738">
        <ele>2426</ele>
        <time>2022-08-27T14:38:26Z</time>
      </trkpt>
      <trkpt lat="45.88501" lon="7.06741">
        <ele>2427</ele>
        <time>2022-08-27T14:38:30Z</time>
      </trkpt>
      <trkpt lat="45.885" lon="7.06745">
        <ele>2428</ele>
        <time>2022-08-27T14:38:34Z</time>
      </trkpt>
      <trkpt lat="45.88499" lon="7.06747">
        <ele>2430</ele>
        <time>2022-08-27T14:38:37Z</time>
      </trkpt>
      <trkpt lat="45.88499" lon="7.0675">
        <ele>2431</ele>
        <time>2022-08-27T14:38:41Z</time>
      </trkpt>
      <trkpt lat="45.88499" lon="7.06754">
        <ele>2431</ele>
        <time>2022-08-27T14:38:44Z</time>
      </trkpt>
      <trkpt lat="45.88499" lon="7.06757">
        <ele>2431</ele>
        <time>2022-08-27T14:38:48Z</time>
      </trkpt>
      <trkpt lat="45.88499" lon="7.06759">
        <ele>2433</ele>
        <time>2022-08-27T14:38:52Z</time>
      </trkpt>
      <trkpt lat="45.88499" lon="7.06762">
        <ele>2433</ele>
        <time>2022-08-27T14:38:55Z</time>
      </trkpt>
      <trkpt lat="45.88498" lon="7.06765">
        <ele>2434</ele>
        <time>2022-08-27T14:38:58Z</time>
      </trkpt>
      <trkpt lat="45.88498" lon="7.06768">
        <ele>2435</ele>
        <time>2022-08-27T14:39:01Z</time>
      </trkpt>
      <trkpt lat="45.88498" lon="7.06771">
        <ele>2436</ele>
        <time>2022-08-27T14:39:05Z</time>
      </trkpt>
      <trkpt lat="45.88497" lon="7.06773">
        <ele>2436</ele>
        <time>2022-08-27T14:39:09Z</time>
      </trkpt>
      <trkpt lat="45.88496" lon="7.06776">
        <ele>2437</ele>
        <time>2022-08-27T14:39:13Z</time>
      </trkpt>
      <trkpt lat="45.88495" lon="7.06779">
        <ele>2437</ele>
        <time>2022-08-27T14:39:17Z</time>
      </trkpt>
      <trkpt lat="45.88493" lon="7.06781">
        <ele>2438</ele>
        <time>2022-08-27T14:39:20Z</time>
      </trkpt>
      <trkpt lat="45.88492" lon="7.06783">
        <ele>2439</ele>
        <time>2022-08-27T14:39:23Z</time>
      </trkpt>
      <trkpt lat="45.8849" lon="7.06784">
        <ele>2439</ele>
        <time>2022-08-27T14:39:26Z</time>
      </trkpt>
      <trkpt lat="45.88488" lon="7.06784">
        <ele>2440</ele>
        <time>2022-08-27T14:39:29Z</time>
      </trkpt>
      <trkpt lat="45.88486" lon="7.06784">
        <ele>2441</ele>
        <time>2022-08-27T14:39:32Z</time>
      </trkpt>
      <trkpt lat="45.88483" lon="7.06786">
        <ele>2441</ele>
        <time>2022-08-27T14:39:35Z</time>
      </trkpt>
      <trkpt lat="45.88481" lon="7.06787">
        <ele>2441</ele>
        <time>2022-08-27T14:39:38Z</time>
      </trkpt>
      <trkpt lat="45.88479" lon="7.06788">
        <ele>2442</ele>
        <time>2022-08-27T14:39:41Z</time>
      </trkpt>
      <trkpt lat="45.88477" lon="7.06789">
        <ele>2443</ele>
        <time>2022-08-27T14:39:44Z</time>
      </trkpt>
      <trkpt lat="45.88476" lon="7.06791">
        <ele>2443</ele>
        <time>2022-08-27T14:39:47Z</time>
      </trkpt>
      <trkpt lat="45.88474" lon="7.06792">
        <ele>2444</ele>
        <time>2022-08-27T14:39:50Z</time>
      </trkpt>
      <trkpt lat="45.88472" lon="7.06793">
        <ele>2445</ele>
        <time>2022-08-27T14:39:53Z</time>
      </trkpt>
      <trkpt lat="45.8847" lon="7.06794">
        <ele>2445</ele>
        <time>2022-08-27T14:39:56Z</time>
      </trkpt>
      <trkpt lat="45.88469" lon="7.06796">
        <ele>2445</ele>
        <time>2022-08-27T14:40:00Z</time>
      </trkpt>
      <trkpt lat="45.88468" lon="7.06799">
        <ele>2446</ele>
        <time>2022-08-27T14:40:03Z</time>
      </trkpt>
      <trkpt lat="45.88465" lon="7.068">
        <ele>2447</ele>
        <time>2022-08-27T14:40:06Z</time>
      </trkpt>
      <trkpt lat="45.88463" lon="7.06801">
        <ele>2447</ele>
        <time>2022-08-27T14:40:09Z</time>
      </trkpt>
      <trkpt lat="45.88462" lon="7.06801">
        <ele>2447</ele>
        <time>2022-08-27T14:40:12Z</time>
      </trkpt>
      <trkpt lat="45.8846" lon="7.06802">
        <ele>2448</ele>
        <time>2022-08-27T14:40:14Z</time>
      </trkpt>
      <trkpt lat="45.88458" lon="7.06803">
        <ele>2448</ele>
        <time>2022-08-27T14:40:16Z</time>
      </trkpt>
      <trkpt lat="45.88456" lon="7.06804">
        <ele>2449</ele>
        <time>2022-08-27T14:40:18Z</time>
      </trkpt>
      <trkpt lat="45.88454" lon="7.06805">
        <ele>2449</ele>
        <time>2022-08-27T14:40:21Z</time>
      </trkpt>
      <trkpt lat="45.88451" lon="7.06806">
        <ele>2450</ele>
        <time>2022-08-27T14:40:24Z</time>
      </trkpt>
      <trkpt lat="45.88449" lon="7.06806">
        <ele>2450</ele>
        <time>2022-08-27T14:40:26Z</time>
      </trkpt>
      <trkpt lat="45.88447" lon="7.06806">
        <ele>2450</ele>
        <time>2022-08-27T14:40:28Z</time>
      </trkpt>
      <trkpt lat="45.88445" lon="7.06806">
        <ele>2450</ele>
        <time>2022-08-27T14:40:30Z</time>
      </trkpt>
      <trkpt lat="45.88443" lon="7.06806">
        <ele>2451</ele>
        <time>2022-08-27T14:40:33Z</time>
      </trkpt>
      <trkpt lat="45.8844" lon="7.06807">
        <ele>2451</ele>
        <time>2022-08-27T14:40:36Z</time>
      </trkpt>
      <trkpt lat="45.88438" lon="7.06808">
        <ele>2451</ele>
        <time>2022-08-27T14:40:38Z</time>
      </trkpt>
      <trkpt lat="45.88436" lon="7.06808">
        <ele>2451</ele>
        <time>2022-08-27T14:40:41Z</time>
      </trkpt>
      <trkpt lat="45.88433" lon="7.06809">
        <ele>2451</ele>
        <time>2022-08-27T14:40:44Z</time>
      </trkpt>
      <trkpt lat="45.88431" lon="7.06811">
        <ele>2452</ele>
        <time>2022-08-27T14:40:47Z</time>
      </trkpt>
      <trkpt lat="45.88429" lon="7.06812">
        <ele>2452</ele>
        <time>2022-08-27T14:40:50Z</time>
      </trkpt>
      <trkpt lat="45.88426" lon="7.06813">
        <ele>2452</ele>
        <time>2022-08-27T14:40:53Z</time>
      </trkpt>
      <trkpt lat="45.88424" lon="7.06814">
        <ele>2453</ele>
        <time>2022-08-27T14:40:56Z</time>
      </trkpt>
      <trkpt lat="45.88421" lon="7.06814">
        <ele>2453</ele>
        <time>2022-08-27T14:40:59Z</time>
      </trkpt>
      <trkpt lat="45.88419" lon="7.06814">
        <ele>2453</ele>
        <time>2022-08-27T14:41:01Z</time>
      </trkpt>
      <trkpt lat="45.88417" lon="7.06813">
        <ele>2453</ele>
        <time>2022-08-27T14:41:03Z</time>
      </trkpt>
      <trkpt lat="45.88415" lon="7.06813">
        <ele>2454</ele>
        <time>2022-08-27T14:41:06Z</time>
      </trkpt>
      <trkpt lat="45.88413" lon="7.06814">
        <ele>2454</ele>
        <time>2022-08-27T14:41:09Z</time>
      </trkpt>
      <trkpt lat="45.88411" lon="7.06815">
        <ele>2456</ele>
        <time>2022-08-27T14:41:12Z</time>
      </trkpt>
      <trkpt lat="45.88409" lon="7.06815">
        <ele>2456</ele>
        <time>2022-08-27T14:41:15Z</time>
      </trkpt>
      <trkpt lat="45.88406" lon="7.06815">
        <ele>2457</ele>
        <time>2022-08-27T14:41:18Z</time>
      </trkpt>
      <trkpt lat="45.88404" lon="7.06816">
        <ele>2458</ele>
        <time>2022-08-27T14:41:21Z</time>
      </trkpt>
      <trkpt lat="45.88402" lon="7.06817">
        <ele>2458</ele>
        <time>2022-08-27T14:41:24Z</time>
      </trkpt>
      <trkpt lat="45.884" lon="7.06818">
        <ele>2458</ele>
        <time>2022-08-27T14:41:26Z</time>
      </trkpt>
      <trkpt lat="45.88397" lon="7.06818">
        <ele>2459</ele>
        <time>2022-08-27T14:41:30Z</time>
      </trkpt>
      <trkpt lat="45.88395" lon="7.06819">
        <ele>2460</ele>
        <time>2022-08-27T14:41:33Z</time>
      </trkpt>
      <trkpt lat="45.88393" lon="7.06818">
        <ele>2461</ele>
        <time>2022-08-27T14:41:36Z</time>
      </trkpt>
      <trkpt lat="45.88391" lon="7.06817">
        <ele>2461</ele>
        <time>2022-08-27T14:41:39Z</time>
      </trkpt>
      <trkpt lat="45.88389" lon="7.06816">
        <ele>2461</ele>
        <time>2022-08-27T14:41:42Z</time>
      </trkpt>
      <trkpt lat="45.88387" lon="7.06816">
        <ele>2461</ele>
        <time>2022-08-27T14:41:45Z</time>
      </trkpt>
      <trkpt lat="45.88385" lon="7.06816">
        <ele>2461</ele>
        <time>2022-08-27T14:41:48Z</time>
      </trkpt>
      <trkpt lat="45.88383" lon="7.06817">
        <ele>2462</ele>
        <time>2022-08-27T14:41:52Z</time>
      </trkpt>
      <trkpt lat="45.88381" lon="7.06817">
        <ele>2462</ele>
        <time>2022-08-27T14:41:55Z</time>
      </trkpt>
      <trkpt lat="45.88379" lon="7.06817">
        <ele>2462</ele>
        <time>2022-08-27T14:41:58Z</time>
      </trkpt>
      <trkpt lat="45.88377" lon="7.06818">
        <ele>2465</ele>
        <time>2022-08-27T14:42:02Z</time>
      </trkpt>
      <trkpt lat="45.88375" lon="7.06818">
        <ele>2465</ele>
        <time>2022-08-27T14:42:06Z</time>
      </trkpt>
      <trkpt lat="45.88373" lon="7.06818">
        <ele>2466</ele>
        <time>2022-08-27T14:42:10Z</time>
      </trkpt>
      <trkpt lat="45.88371" lon="7.06817">
        <ele>2466</ele>
        <time>2022-08-27T14:42:14Z</time>
      </trkpt>
      <trkpt lat="45.88369" lon="7.06818">
        <ele>2467</ele>
        <time>2022-08-27T14:42:17Z</time>
      </trkpt>
      <trkpt lat="45.88367" lon="7.06818">
        <ele>2468</ele>
        <time>2022-08-27T14:42:20Z</time>
      </trkpt>
      <trkpt lat="45.88365" lon="7.06818">
        <ele>2468</ele>
        <time>2022-08-27T14:42:23Z</time>
      </trkpt>
      <trkpt lat="45.88362" lon="7.06818">
        <ele>2468</ele>
        <time>2022-08-27T14:42:26Z</time>
      </trkpt>
      <trkpt lat="45.8836" lon="7.06818">
        <ele>2469</ele>
        <time>2022-08-27T14:42:29Z</time>
      </trkpt>
      <trkpt lat="45.88358" lon="7.06817">
        <ele>2470</ele>
        <time>2022-08-27T14:42:31Z</time>
      </trkpt>
      <trkpt lat="45.88356" lon="7.06817">
        <ele>2470</ele>
        <time>2022-08-27T14:42:34Z</time>
      </trkpt>
      <trkpt lat="45.88353" lon="7.06816">
        <ele>2470</ele>
        <time>2022-08-27T14:42:37Z</time>
      </trkpt>
      <trkpt lat="45.88351" lon="7.06816">
        <ele>2471</ele>
        <time>2022-08-27T14:42:40Z</time>
      </trkpt>
      <trkpt lat="45.88349" lon="7.06816">
        <ele>2471</ele>
        <time>2022-08-27T14:42:43Z</time>
      </trkpt>
      <trkpt lat="45.88346" lon="7.06817">
        <ele>2472</ele>
        <time>2022-08-27T14:42:46Z</time>
      </trkpt>
      <trkpt lat="45.88344" lon="7.06816">
        <ele>2472</ele>
        <time>2022-08-27T14:42:49Z</time>
      </trkpt>
      <trkpt lat="45.88342" lon="7.06815">
        <ele>2474</ele>
        <time>2022-08-27T14:42:51Z</time>
      </trkpt>
      <trkpt lat="45.8834" lon="7.06815">
        <ele>2475</ele>
        <time>2022-08-27T14:42:54Z</time>
      </trkpt>
      <trkpt lat="45.88338" lon="7.06814">
        <ele>2475</ele>
        <time>2022-08-27T14:42:57Z</time>
      </trkpt>
      <trkpt lat="45.88335" lon="7.06814">
        <ele>2475</ele>
        <time>2022-08-27T14:43:00Z</time>
      </trkpt>
      <trkpt lat="45.88333" lon="7.06814">
        <ele>2475</ele>
        <time>2022-08-27T14:43:03Z</time>
      </trkpt>
      <trkpt lat="45.88331" lon="7.06814">
        <ele>2476</ele>
        <time>2022-08-27T14:43:06Z</time>
      </trkpt>
      <trkpt lat="45.88329" lon="7.06814">
        <ele>2477</ele>
        <time>2022-08-27T14:43:10Z</time>
      </trkpt>
      <trkpt lat="45.88327" lon="7.06814">
        <ele>2478</ele>
        <time>2022-08-27T14:43:13Z</time>
      </trkpt>
      <trkpt lat="45.88325" lon="7.06816">
        <ele>2478</ele>
        <time>2022-08-27T14:43:18Z</time>
      </trkpt>
      <trkpt lat="45.88328" lon="7.06818">
        <ele>2479</ele>
        <time>2022-08-27T14:43:22Z</time>
      </trkpt>
      <trkpt lat="45.8833" lon="7.06819">
        <ele>2480</ele>
        <time>2022-08-27T14:43:25Z</time>
      </trkpt>
      <trkpt lat="45.8833" lon="7.06822">
        <ele>2481</ele>
        <time>2022-08-27T14:43:29Z</time>
      </trkpt>
      <trkpt lat="45.88332" lon="7.06824">
        <ele>2481</ele>
        <time>2022-08-27T14:43:32Z</time>
      </trkpt>
      <trkpt lat="45.88333" lon="7.06826">
        <ele>2482</ele>
        <time>2022-08-27T14:43:34Z</time>
      </trkpt>
      <trkpt lat="45.88335" lon="7.06828">
        <ele>2483</ele>
        <time>2022-08-27T14:43:37Z</time>
      </trkpt>
      <trkpt lat="45.88337" lon="7.0683">
        <ele>2483</ele>
        <time>2022-08-27T14:43:40Z</time>
      </trkpt>
      <trkpt lat="45.88338" lon="7.06832">
        <ele>2483</ele>
        <time>2022-08-27T14:43:43Z</time>
      </trkpt>
      <trkpt lat="45.8834" lon="7.06833">
        <ele>2484</ele>
        <time>2022-08-27T14:43:47Z</time>
      </trkpt>
      <trkpt lat="45.88342" lon="7.06835">
        <ele>2484</ele>
        <time>2022-08-27T14:43:50Z</time>
      </trkpt>
      <trkpt lat="45.88344" lon="7.06837">
        <ele>2484</ele>
        <time>2022-08-27T14:43:53Z</time>
      </trkpt>
      <trkpt lat="45.88345" lon="7.0684">
        <ele>2487</ele>
        <time>2022-08-27T14:43:56Z</time>
      </trkpt>
      <trkpt lat="45.88346" lon="7.06843">
        <ele>2486</ele>
        <time>2022-08-27T14:43:59Z</time>
      </trkpt>
      <trkpt lat="45.88347" lon="7.06845">
        <ele>2487</ele>
        <time>2022-08-27T14:44:02Z</time>
      </trkpt>
      <trkpt lat="45.88348" lon="7.06848">
        <ele>2487</ele>
        <time>2022-08-27T14:44:05Z</time>
      </trkpt>
      <trkpt lat="45.8835" lon="7.0685">
        <ele>2488</ele>
        <time>2022-08-27T14:44:08Z</time>
      </trkpt>
      <trkpt lat="45.88352" lon="7.06851">
        <ele>2488</ele>
        <time>2022-08-27T14:44:11Z</time>
      </trkpt>
      <trkpt lat="45.88353" lon="7.06853">
        <ele>2489</ele>
        <time>2022-08-27T14:44:14Z</time>
      </trkpt>
      <trkpt lat="45.88355" lon="7.06855">
        <ele>2489</ele>
        <time>2022-08-27T14:44:18Z</time>
      </trkpt>
      <trkpt lat="45.88357" lon="7.06857">
        <ele>2489</ele>
        <time>2022-08-27T14:44:21Z</time>
      </trkpt>
      <trkpt lat="45.88359" lon="7.06858">
        <ele>2490</ele>
        <time>2022-08-27T14:44:24Z</time>
      </trkpt>
      <trkpt lat="45.8836" lon="7.06859">
        <ele>2491</ele>
        <time>2022-08-27T14:44:27Z</time>
      </trkpt>
      <trkpt lat="45.88363" lon="7.0686">
        <ele>2491</ele>
        <time>2022-08-27T14:44:30Z</time>
      </trkpt>
      <trkpt lat="45.88365" lon="7.06862">
        <ele>2492</ele>
        <time>2022-08-27T14:44:33Z</time>
      </trkpt>
      <trkpt lat="45.88366" lon="7.06864">
        <ele>2492</ele>
        <time>2022-08-27T14:44:36Z</time>
      </trkpt>
      <trkpt lat="45.88365" lon="7.06866">
        <ele>2492</ele>
        <time>2022-08-27T14:44:39Z</time>
      </trkpt>
      <trkpt lat="45.88363" lon="7.06866">
        <ele>2493</ele>
        <time>2022-08-27T14:44:42Z</time>
      </trkpt>
      <trkpt lat="45.88361" lon="7.06866">
        <ele>2494</ele>
        <time>2022-08-27T14:44:46Z</time>
      </trkpt>
      <trkpt lat="45.88359" lon="7.06867">
        <ele>2494</ele>
        <time>2022-08-27T14:44:49Z</time>
      </trkpt>
      <trkpt lat="45.88356" lon="7.06867">
        <ele>2495</ele>
        <time>2022-08-27T14:44:52Z</time>
      </trkpt>
      <trkpt lat="45.88355" lon="7.06867">
        <ele>2495</ele>
        <time>2022-08-27T14:44:55Z</time>
      </trkpt>
      <trkpt lat="45.88353" lon="7.06867">
        <ele>2496</ele>
        <time>2022-08-27T14:44:58Z</time>
      </trkpt>
      <trkpt lat="45.88351" lon="7.06866">
        <ele>2498</ele>
        <time>2022-08-27T14:45:01Z</time>
      </trkpt>
      <trkpt lat="45.88348" lon="7.06866">
        <ele>2498</ele>
        <time>2022-08-27T14:45:04Z</time>
      </trkpt>
      <trkpt lat="45.88346" lon="7.06865">
        <ele>2498</ele>
        <time>2022-08-27T14:45:07Z</time>
      </trkpt>
      <trkpt lat="45.88344" lon="7.06865">
        <ele>2499</ele>
        <time>2022-08-27T14:45:09Z</time>
      </trkpt>
      <trkpt lat="45.88342" lon="7.06865">
        <ele>2499</ele>
        <time>2022-08-27T14:45:12Z</time>
      </trkpt>
      <trkpt lat="45.88341" lon="7.06865">
        <ele>2499</ele>
        <time>2022-08-27T14:45:15Z</time>
      </trkpt>
      <trkpt lat="45.88339" lon="7.06866">
        <ele>2500</ele>
        <time>2022-08-27T14:45:18Z</time>
      </trkpt>
      <trkpt lat="45.88336" lon="7.06867">
        <ele>2501</ele>
        <time>2022-08-27T14:45:21Z</time>
      </trkpt>
      <trkpt lat="45.88334" lon="7.06867">
        <ele>2502</ele>
        <time>2022-08-27T14:45:25Z</time>
      </trkpt>
      <trkpt lat="45.88332" lon="7.06866">
        <ele>2503</ele>
        <time>2022-08-27T14:45:28Z</time>
      </trkpt>
      <trkpt lat="45.8833" lon="7.06865">
        <ele>2504</ele>
        <time>2022-08-27T14:45:31Z</time>
      </trkpt>
      <trkpt lat="45.88328" lon="7.06864">
        <ele>2504</ele>
        <time>2022-08-27T14:45:34Z</time>
      </trkpt>
      <trkpt lat="45.88326" lon="7.06865">
        <ele>2504</ele>
        <time>2022-08-27T14:45:37Z</time>
      </trkpt>
      <trkpt lat="45.88324" lon="7.06865">
        <ele>2505</ele>
        <time>2022-08-27T14:45:40Z</time>
      </trkpt>
      <trkpt lat="45.88321" lon="7.06865">
        <ele>2506</ele>
        <time>2022-08-27T14:45:44Z</time>
      </trkpt>
      <trkpt lat="45.88319" lon="7.06865">
        <ele>2506</ele>
        <time>2022-08-27T14:45:47Z</time>
      </trkpt>
      <trkpt lat="45.88317" lon="7.06865">
        <ele>2507</ele>
        <time>2022-08-27T14:45:51Z</time>
      </trkpt>
      <trkpt lat="45.88316" lon="7.06867">
        <ele>2506</ele>
        <time>2022-08-27T14:45:54Z</time>
      </trkpt>
      <trkpt lat="45.88316" lon="7.0687">
        <ele>2510</ele>
        <time>2022-08-27T14:45:59Z</time>
      </trkpt>
      <trkpt lat="45.88318" lon="7.06873">
        <ele>2510</ele>
        <time>2022-08-27T14:46:02Z</time>
      </trkpt>
      <trkpt lat="45.88319" lon="7.06876">
        <ele>2510</ele>
        <time>2022-08-27T14:46:05Z</time>
      </trkpt>
      <trkpt lat="45.8832" lon="7.06878">
        <ele>2511</ele>
        <time>2022-08-27T14:46:08Z</time>
      </trkpt>
      <trkpt lat="45.88321" lon="7.06881">
        <ele>2511</ele>
        <time>2022-08-27T14:46:12Z</time>
      </trkpt>
      <trkpt lat="45.88323" lon="7.06883">
        <ele>2511</ele>
        <time>2022-08-27T14:46:16Z</time>
      </trkpt>
      <trkpt lat="45.88325" lon="7.06885">
        <ele>2511</ele>
        <time>2022-08-27T14:46:19Z</time>
      </trkpt>
      <trkpt lat="45.88327" lon="7.06888">
        <ele>2512</ele>
        <time>2022-08-27T14:46:24Z</time>
      </trkpt>
      <trkpt lat="45.88328" lon="7.0689">
        <ele>2513</ele>
        <time>2022-08-27T14:46:27Z</time>
      </trkpt>
      <trkpt lat="45.88329" lon="7.06892">
        <ele>2514</ele>
        <time>2022-08-27T14:46:31Z</time>
      </trkpt>
      <trkpt lat="45.88331" lon="7.06894">
        <ele>2514</ele>
        <time>2022-08-27T14:46:35Z</time>
      </trkpt>
      <trkpt lat="45.88333" lon="7.06896">
        <ele>2515</ele>
        <time>2022-08-27T14:46:39Z</time>
      </trkpt>
      <trkpt lat="45.88334" lon="7.06899">
        <ele>2516</ele>
        <time>2022-08-27T14:46:42Z</time>
      </trkpt>
      <trkpt lat="45.88336" lon="7.06901">
        <ele>2516</ele>
        <time>2022-08-27T14:46:46Z</time>
      </trkpt>
      <trkpt lat="45.88337" lon="7.06903">
        <ele>2516</ele>
        <time>2022-08-27T14:46:50Z</time>
      </trkpt>
      <trkpt lat="45.88338" lon="7.06906">
        <ele>2518</ele>
        <time>2022-08-27T14:46:53Z</time>
      </trkpt>
      <trkpt lat="45.88339" lon="7.06908">
        <ele>2518</ele>
        <time>2022-08-27T14:46:56Z</time>
      </trkpt>
      <trkpt lat="45.88341" lon="7.06911">
        <ele>2518</ele>
        <time>2022-08-27T14:46:59Z</time>
      </trkpt>
      <trkpt lat="45.88342" lon="7.06913">
        <ele>2518</ele>
        <time>2022-08-27T14:47:02Z</time>
      </trkpt>
      <trkpt lat="45.88344" lon="7.06914">
        <ele>2519</ele>
        <time>2022-08-27T14:47:05Z</time>
      </trkpt>
      <trkpt lat="45.88346" lon="7.06915">
        <ele>2520</ele>
        <time>2022-08-27T14:47:07Z</time>
      </trkpt>
      <trkpt lat="45.88348" lon="7.06916">
        <ele>2520</ele>
        <time>2022-08-27T14:47:10Z</time>
      </trkpt>
      <trkpt lat="45.8835" lon="7.06916">
        <ele>2520</ele>
        <time>2022-08-27T14:47:13Z</time>
      </trkpt>
      <trkpt lat="45.88352" lon="7.06917">
        <ele>2522</ele>
        <time>2022-08-27T14:47:16Z</time>
      </trkpt>
      <trkpt lat="45.88354" lon="7.06918">
        <ele>2522</ele>
        <time>2022-08-27T14:47:18Z</time>
      </trkpt>
      <trkpt lat="45.88357" lon="7.06919">
        <ele>2523</ele>
        <time>2022-08-27T14:47:21Z</time>
      </trkpt>
      <trkpt lat="45.88359" lon="7.06921">
        <ele>2523</ele>
        <time>2022-08-27T14:47:24Z</time>
      </trkpt>
      <trkpt lat="45.8836" lon="7.06922">
        <ele>2523</ele>
        <time>2022-08-27T14:47:26Z</time>
      </trkpt>
      <trkpt lat="45.88362" lon="7.06924">
        <ele>2524</ele>
        <time>2022-08-27T14:47:29Z</time>
      </trkpt>
      <trkpt lat="45.88364" lon="7.06925">
        <ele>2525</ele>
        <time>2022-08-27T14:47:31Z</time>
      </trkpt>
      <trkpt lat="45.88366" lon="7.06927">
        <ele>2526</ele>
        <time>2022-08-27T14:47:34Z</time>
      </trkpt>
      <trkpt lat="45.88368" lon="7.06928">
        <ele>2526</ele>
        <time>2022-08-27T14:47:37Z</time>
      </trkpt>
      <trkpt lat="45.8837" lon="7.06929">
        <ele>2526</ele>
        <time>2022-08-27T14:47:40Z</time>
      </trkpt>
      <trkpt lat="45.88373" lon="7.0693">
        <ele>2527</ele>
        <time>2022-08-27T14:47:43Z</time>
      </trkpt>
      <trkpt lat="45.88375" lon="7.06931">
        <ele>2528</ele>
        <time>2022-08-27T14:47:46Z</time>
      </trkpt>
      <trkpt lat="45.88376" lon="7.06933">
        <ele>2528</ele>
        <time>2022-08-27T14:47:49Z</time>
      </trkpt>
      <trkpt lat="45.88378" lon="7.06934">
        <ele>2529</ele>
        <time>2022-08-27T14:47:52Z</time>
      </trkpt>
      <trkpt lat="45.8838" lon="7.06936">
        <ele>2530</ele>
        <time>2022-08-27T14:47:56Z</time>
      </trkpt>
      <trkpt lat="45.88381" lon="7.06939">
        <ele>2531</ele>
        <time>2022-08-27T14:48:00Z</time>
      </trkpt>
      <trkpt lat="45.88383" lon="7.06941">
        <ele>2531</ele>
        <time>2022-08-27T14:48:04Z</time>
      </trkpt>
      <trkpt lat="45.88384" lon="7.06943">
        <ele>2531</ele>
        <time>2022-08-27T14:48:07Z</time>
      </trkpt>
      <trkpt lat="45.88385" lon="7.06945">
        <ele>2533</ele>
        <time>2022-08-27T14:48:10Z</time>
      </trkpt>
      <trkpt lat="45.88386" lon="7.06948">
        <ele>2533</ele>
        <time>2022-08-27T14:48:14Z</time>
      </trkpt>
      <trkpt lat="45.88387" lon="7.0695">
        <ele>2533</ele>
        <time>2022-08-27T14:48:18Z</time>
      </trkpt>
      <trkpt lat="45.88389" lon="7.06951">
        <ele>2535</ele>
        <time>2022-08-27T14:48:21Z</time>
      </trkpt>
      <trkpt lat="45.88391" lon="7.06952">
        <ele>2535</ele>
        <time>2022-08-27T14:48:25Z</time>
      </trkpt>
      <trkpt lat="45.88393" lon="7.06953">
        <ele>2536</ele>
        <time>2022-08-27T14:48:29Z</time>
      </trkpt>
      <trkpt lat="45.88395" lon="7.06954">
        <ele>2537</ele>
        <time>2022-08-27T14:48:33Z</time>
      </trkpt>
      <trkpt lat="45.88397" lon="7.06956">
        <ele>2537</ele>
        <time>2022-08-27T14:48:36Z</time>
      </trkpt>
      <trkpt lat="45.88398" lon="7.06958">
        <ele>2538</ele>
        <time>2022-08-27T14:48:38Z</time>
      </trkpt>
      <trkpt lat="45.88399" lon="7.06959">
        <ele>2538</ele>
        <time>2022-08-27T14:48:41Z</time>
      </trkpt>
      <trkpt lat="45.88402" lon="7.06961">
        <ele>2539</ele>
        <time>2022-08-27T14:48:44Z</time>
      </trkpt>
      <trkpt lat="45.88403" lon="7.06963">
        <ele>2539</ele>
        <time>2022-08-27T14:48:46Z</time>
      </trkpt>
      <trkpt lat="45.88405" lon="7.06965">
        <ele>2539</ele>
        <time>2022-08-27T14:48:48Z</time>
      </trkpt>
      <trkpt lat="45.88406" lon="7.06966">
        <ele>2540</ele>
        <time>2022-08-27T14:48:50Z</time>
      </trkpt>
      <trkpt lat="45.88408" lon="7.06968">
        <ele>2540</ele>
        <time>2022-08-27T14:48:53Z</time>
      </trkpt>
      <trkpt lat="45.8841" lon="7.06971">
        <ele>2540</ele>
        <time>2022-08-27T14:48:56Z</time>
      </trkpt>
      <trkpt lat="45.88411" lon="7.06972">
        <ele>2541</ele>
        <time>2022-08-27T14:49:00Z</time>
      </trkpt>
      <trkpt lat="45.88413" lon="7.06973">
        <ele>2541</ele>
        <time>2022-08-27T14:49:03Z</time>
      </trkpt>
      <trkpt lat="45.88415" lon="7.06973">
        <ele>2541</ele>
        <time>2022-08-27T14:49:07Z</time>
      </trkpt>
      <trkpt lat="45.88417" lon="7.06971">
        <ele>2542</ele>
        <time>2022-08-27T14:49:10Z</time>
      </trkpt>
      <trkpt lat="45.88419" lon="7.0697">
        <ele>2543</ele>
        <time>2022-08-27T14:49:13Z</time>
      </trkpt>
      <trkpt lat="45.88421" lon="7.0697">
        <ele>2544</ele>
        <time>2022-08-27T14:49:16Z</time>
      </trkpt>
      <trkpt lat="45.88422" lon="7.06973">
        <ele>2544</ele>
        <time>2022-08-27T14:49:20Z</time>
      </trkpt>
      <trkpt lat="45.88422" lon="7.06976">
        <ele>2545</ele>
        <time>2022-08-27T14:49:25Z</time>
      </trkpt>
      <trkpt lat="45.88423" lon="7.06978">
        <ele>2547</ele>
        <time>2022-08-27T14:49:29Z</time>
      </trkpt>
      <trkpt lat="45.88424" lon="7.06979">
        <ele>2547</ele>
        <time>2022-08-27T14:49:31Z</time>
      </trkpt>
      <trkpt lat="45.88426" lon="7.06981">
        <ele>2548</ele>
        <time>2022-08-27T14:49:34Z</time>
      </trkpt>
      <trkpt lat="45.88428" lon="7.06982">
        <ele>2549</ele>
        <time>2022-08-27T14:49:39Z</time>
      </trkpt>
      <trkpt lat="45.8843" lon="7.06983">
        <ele>2549</ele>
        <time>2022-08-27T14:49:42Z</time>
      </trkpt>
      <trkpt lat="45.88431" lon="7.06986">
        <ele>2548</ele>
        <time>2022-08-27T14:49:45Z</time>
      </trkpt>
      <trkpt lat="45.8843" lon="7.06988">
        <ele>2549</ele>
        <time>2022-08-27T14:49:48Z</time>
      </trkpt>
      <trkpt lat="45.88428" lon="7.0699">
        <ele>2550</ele>
        <time>2022-08-27T14:49:52Z</time>
      </trkpt>
      <trkpt lat="45.88426" lon="7.06991">
        <ele>2551</ele>
        <time>2022-08-27T14:49:55Z</time>
      </trkpt>
      <trkpt lat="45.88423" lon="7.06993">
        <ele>2552</ele>
        <time>2022-08-27T14:49:58Z</time>
      </trkpt>
      <trkpt lat="45.88421" lon="7.06994">
        <ele>2552</ele>
        <time>2022-08-27T14:50:01Z</time>
      </trkpt>
      <trkpt lat="45.88419" lon="7.06995">
        <ele>2553</ele>
        <time>2022-08-27T14:50:04Z</time>
      </trkpt>
      <trkpt lat="45.88417" lon="7.06996">
        <ele>2554</ele>
        <time>2022-08-27T14:50:08Z</time>
      </trkpt>
      <trkpt lat="45.88415" lon="7.06998">
        <ele>2554</ele>
        <time>2022-08-27T14:50:11Z</time>
      </trkpt>
      <trkpt lat="45.88414" lon="7.07">
        <ele>2555</ele>
        <time>2022-08-27T14:50:14Z</time>
      </trkpt>
      <trkpt lat="45.88413" lon="7.07002">
        <ele>2555</ele>
        <time>2022-08-27T14:50:16Z</time>
      </trkpt>
      <trkpt lat="45.88411" lon="7.07005">
        <ele>2555</ele>
        <time>2022-08-27T14:50:19Z</time>
      </trkpt>
      <trkpt lat="45.88409" lon="7.07007">
        <ele>2555</ele>
        <time>2022-08-27T14:50:22Z</time>
      </trkpt>
      <trkpt lat="45.88408" lon="7.07008">
        <ele>2556</ele>
        <time>2022-08-27T14:50:25Z</time>
      </trkpt>
      <trkpt lat="45.88405" lon="7.0701">
        <ele>2557</ele>
        <time>2022-08-27T14:50:29Z</time>
      </trkpt>
      <trkpt lat="45.88403" lon="7.07011">
        <ele>2557</ele>
        <time>2022-08-27T14:50:33Z</time>
      </trkpt>
      <trkpt lat="45.88402" lon="7.07013">
        <ele>2559</ele>
        <time>2022-08-27T14:50:36Z</time>
      </trkpt>
      <trkpt lat="45.884" lon="7.07013">
        <ele>2559</ele>
        <time>2022-08-27T14:50:39Z</time>
      </trkpt>
      <trkpt lat="45.88397" lon="7.07014">
        <ele>2560</ele>
        <time>2022-08-27T14:50:42Z</time>
      </trkpt>
      <trkpt lat="45.88395" lon="7.07016">
        <ele>2560</ele>
        <time>2022-08-27T14:50:46Z</time>
      </trkpt>
      <trkpt lat="45.88393" lon="7.07017">
        <ele>2560</ele>
        <time>2022-08-27T14:50:48Z</time>
      </trkpt>
      <trkpt lat="45.88391" lon="7.07019">
        <ele>2560</ele>
        <time>2022-08-27T14:50:51Z</time>
      </trkpt>
      <trkpt lat="45.88389" lon="7.0702">
        <ele>2560</ele>
        <time>2022-08-27T14:50:54Z</time>
      </trkpt>
      <trkpt lat="45.88387" lon="7.0702">
        <ele>2560</ele>
        <time>2022-08-27T14:50:56Z</time>
      </trkpt>
      <trkpt lat="45.88385" lon="7.07021">
        <ele>2560</ele>
        <time>2022-08-27T14:50:58Z</time>
      </trkpt>
      <trkpt lat="45.88382" lon="7.07022">
        <ele>2561</ele>
        <time>2022-08-27T14:51:00Z</time>
      </trkpt>
      <trkpt lat="45.8838" lon="7.07023">
        <ele>2561</ele>
        <time>2022-08-27T14:51:02Z</time>
      </trkpt>
      <trkpt lat="45.88378" lon="7.07024">
        <ele>2561</ele>
        <time>2022-08-27T14:51:04Z</time>
      </trkpt>
      <trkpt lat="45.88376" lon="7.07026">
        <ele>2561</ele>
        <time>2022-08-27T14:51:06Z</time>
      </trkpt>
      <trkpt lat="45.88374" lon="7.07027">
        <ele>2562</ele>
        <time>2022-08-27T14:51:08Z</time>
      </trkpt>
      <trkpt lat="45.88372" lon="7.07028">
        <ele>2562</ele>
        <time>2022-08-27T14:51:10Z</time>
      </trkpt>
      <trkpt lat="45.88369" lon="7.07029">
        <ele>2562</ele>
        <time>2022-08-27T14:51:12Z</time>
      </trkpt>
      <trkpt lat="45.88367" lon="7.07031">
        <ele>2562</ele>
        <time>2022-08-27T14:51:14Z</time>
      </trkpt>
      <trkpt lat="45.88365" lon="7.07033">
        <ele>2562</ele>
        <time>2022-08-27T14:51:16Z</time>
      </trkpt>
      <trkpt lat="45.88363" lon="7.07034">
        <ele>2562</ele>
        <time>2022-08-27T14:51:18Z</time>
      </trkpt>
      <trkpt lat="45.8836" lon="7.07036">
        <ele>2562</ele>
        <time>2022-08-27T14:51:20Z</time>
      </trkpt>
      <trkpt lat="45.88358" lon="7.07037">
        <ele>2562</ele>
        <time>2022-08-27T14:51:22Z</time>
      </trkpt>
      <trkpt lat="45.88356" lon="7.07037">
        <ele>2561</ele>
        <time>2022-08-27T14:51:24Z</time>
      </trkpt>
      <trkpt lat="45.88354" lon="7.07038">
        <ele>2561</ele>
        <time>2022-08-27T14:51:26Z</time>
      </trkpt>
      <trkpt lat="45.88352" lon="7.07039">
        <ele>2561</ele>
        <time>2022-08-27T14:51:28Z</time>
      </trkpt>
      <trkpt lat="45.8835" lon="7.07042">
        <ele>2562</ele>
        <time>2022-08-27T14:51:31Z</time>
      </trkpt>
      <trkpt lat="45.88348" lon="7.07044">
        <ele>2562</ele>
        <time>2022-08-27T14:51:34Z</time>
      </trkpt>
      <trkpt lat="45.88346" lon="7.07046">
        <ele>2562</ele>
        <time>2022-08-27T14:51:36Z</time>
      </trkpt>
      <trkpt lat="45.88344" lon="7.07048">
        <ele>2563</ele>
        <time>2022-08-27T14:51:39Z</time>
      </trkpt>
      <trkpt lat="45.88342" lon="7.07049">
        <ele>2564</ele>
        <time>2022-08-27T14:51:42Z</time>
      </trkpt>
      <trkpt lat="45.8834" lon="7.07049">
        <ele>2564</ele>
        <time>2022-08-27T14:51:45Z</time>
      </trkpt>
      <trkpt lat="45.88338" lon="7.0705">
        <ele>2565</ele>
        <time>2022-08-27T14:51:49Z</time>
      </trkpt>
      <trkpt lat="45.88336" lon="7.07051">
        <ele>2566</ele>
        <time>2022-08-27T14:51:53Z</time>
      </trkpt>
      <trkpt lat="45.88334" lon="7.07052">
        <ele>2566</ele>
        <time>2022-08-27T14:51:56Z</time>
      </trkpt>
      <trkpt lat="45.88332" lon="7.07054">
        <ele>2566</ele>
        <time>2022-08-27T14:52:00Z</time>
      </trkpt>
      <trkpt lat="45.8833" lon="7.07056">
        <ele>2567</ele>
        <time>2022-08-27T14:52:03Z</time>
      </trkpt>
      <trkpt lat="45.8833" lon="7.07059">
        <ele>2567</ele>
        <time>2022-08-27T14:52:06Z</time>
      </trkpt>
      <trkpt lat="45.88329" lon="7.07062">
        <ele>2568</ele>
        <time>2022-08-27T14:52:09Z</time>
      </trkpt>
      <trkpt lat="45.88328" lon="7.07064">
        <ele>2569</ele>
        <time>2022-08-27T14:52:12Z</time>
      </trkpt>
      <trkpt lat="45.88327" lon="7.07067">
        <ele>2569</ele>
        <time>2022-08-27T14:52:15Z</time>
      </trkpt>
      <trkpt lat="45.88326" lon="7.07069">
        <ele>2569</ele>
        <time>2022-08-27T14:52:18Z</time>
      </trkpt>
      <trkpt lat="45.88325" lon="7.07072">
        <ele>2571</ele>
        <time>2022-08-27T14:52:23Z</time>
      </trkpt>
      <trkpt lat="45.88324" lon="7.07074">
        <ele>2571</ele>
        <time>2022-08-27T14:52:26Z</time>
      </trkpt>
      <trkpt lat="45.88325" lon="7.07075">
        <ele>2572</ele>
        <time>2022-08-27T14:52:32Z</time>
      </trkpt>
      <trkpt lat="45.88327" lon="7.07077">
        <ele>2573</ele>
        <time>2022-08-27T14:52:36Z</time>
      </trkpt>
      <trkpt lat="45.88327" lon="7.0708">
        <ele>2573</ele>
        <time>2022-08-27T14:52:41Z</time>
      </trkpt>
      <trkpt lat="45.88329" lon="7.07081">
        <ele>2575</ele>
        <time>2022-08-27T14:52:47Z</time>
      </trkpt>
      <trkpt lat="45.88331" lon="7.07081">
        <ele>2575</ele>
        <time>2022-08-27T14:52:50Z</time>
      </trkpt>
      <trkpt lat="45.88333" lon="7.07082">
        <ele>2576</ele>
        <time>2022-08-27T14:52:53Z</time>
      </trkpt>
      <trkpt lat="45.88335" lon="7.07082">
        <ele>2576</ele>
        <time>2022-08-27T14:52:55Z</time>
      </trkpt>
      <trkpt lat="45.88338" lon="7.07082">
        <ele>2577</ele>
        <time>2022-08-27T14:52:58Z</time>
      </trkpt>
      <trkpt lat="45.8834" lon="7.07083">
        <ele>2577</ele>
        <time>2022-08-27T14:53:01Z</time>
      </trkpt>
      <trkpt lat="45.88342" lon="7.07082">
        <ele>2578</ele>
        <time>2022-08-27T14:53:05Z</time>
      </trkpt>
      <trkpt lat="45.88344" lon="7.07081">
        <ele>2579</ele>
        <time>2022-08-27T14:53:08Z</time>
      </trkpt>
      <trkpt lat="45.88346" lon="7.07082">
        <ele>2579</ele>
        <time>2022-08-27T14:53:12Z</time>
      </trkpt>
      <trkpt lat="45.88348" lon="7.07084">
        <ele>2580</ele>
        <time>2022-08-27T14:53:16Z</time>
      </trkpt>
      <trkpt lat="45.88349" lon="7.07086">
        <ele>2583</ele>
        <time>2022-08-27T14:53:23Z</time>
      </trkpt>
      <trkpt lat="45.88351" lon="7.07087">
        <ele>2583</ele>
        <time>2022-08-27T14:53:26Z</time>
      </trkpt>
      <trkpt lat="45.88353" lon="7.07089">
        <ele>2583</ele>
        <time>2022-08-27T14:53:29Z</time>
      </trkpt>
      <trkpt lat="45.88356" lon="7.07089">
        <ele>2583</ele>
        <time>2022-08-27T14:53:32Z</time>
      </trkpt>
      <trkpt lat="45.88358" lon="7.07089">
        <ele>2584</ele>
        <time>2022-08-27T14:53:35Z</time>
      </trkpt>
      <trkpt lat="45.88359" lon="7.07091">
        <ele>2585</ele>
        <time>2022-08-27T14:53:38Z</time>
      </trkpt>
      <trkpt lat="45.8836" lon="7.07093">
        <ele>2585</ele>
        <time>2022-08-27T14:53:42Z</time>
      </trkpt>
      <trkpt lat="45.88362" lon="7.07095">
        <ele>2586</ele>
        <time>2022-08-27T14:53:46Z</time>
      </trkpt>
      <trkpt lat="45.88362" lon="7.07098">
        <ele>2587</ele>
        <time>2022-08-27T14:53:50Z</time>
      </trkpt>
      <trkpt lat="45.88362" lon="7.07101">
        <ele>2588</ele>
        <time>2022-08-27T14:53:53Z</time>
      </trkpt>
      <trkpt lat="45.88362" lon="7.07104">
        <ele>2588</ele>
        <time>2022-08-27T14:53:56Z</time>
      </trkpt>
      <trkpt lat="45.88361" lon="7.07107">
        <ele>2588</ele>
        <time>2022-08-27T14:53:59Z</time>
      </trkpt>
      <trkpt lat="45.88361" lon="7.0711">
        <ele>2588</ele>
        <time>2022-08-27T14:54:02Z</time>
      </trkpt>
      <trkpt lat="45.8836" lon="7.07113">
        <ele>2588</ele>
        <time>2022-08-27T14:54:05Z</time>
      </trkpt>
      <trkpt lat="45.88359" lon="7.07115">
        <ele>2588</ele>
        <time>2022-08-27T14:54:08Z</time>
      </trkpt>
      <trkpt lat="45.88358" lon="7.07118">
        <ele>2589</ele>
        <time>2022-08-27T14:54:12Z</time>
      </trkpt>
      <trkpt lat="45.88358" lon="7.07121">
        <ele>2590</ele>
        <time>2022-08-27T14:54:15Z</time>
      </trkpt>
      <trkpt lat="45.88357" lon="7.07124">
        <ele>2590</ele>
        <time>2022-08-27T14:54:19Z</time>
      </trkpt>
      <trkpt lat="45.88356" lon="7.07127">
        <ele>2591</ele>
        <time>2022-08-27T14:54:22Z</time>
      </trkpt>
      <trkpt lat="45.88356" lon="7.0713">
        <ele>2592</ele>
        <time>2022-08-27T14:54:25Z</time>
      </trkpt>
      <trkpt lat="45.88355" lon="7.07133">
        <ele>2592</ele>
        <time>2022-08-27T14:54:28Z</time>
      </trkpt>
      <trkpt lat="45.88355" lon="7.07135">
        <ele>2593</ele>
        <time>2022-08-27T14:54:31Z</time>
      </trkpt>
      <trkpt lat="45.88355" lon="7.07138">
        <ele>2593</ele>
        <time>2022-08-27T14:54:34Z</time>
      </trkpt>
      <trkpt lat="45.88354" lon="7.07141">
        <ele>2595</ele>
        <time>2022-08-27T14:54:39Z</time>
      </trkpt>
      <trkpt lat="45.88354" lon="7.07144">
        <ele>2596</ele>
        <time>2022-08-27T14:54:43Z</time>
      </trkpt>
      <trkpt lat="45.88355" lon="7.07147">
        <ele>2596</ele>
        <time>2022-08-27T14:54:47Z</time>
      </trkpt>
      <trkpt lat="45.88355" lon="7.07151">
        <ele>2598</ele>
        <time>2022-08-27T14:54:51Z</time>
      </trkpt>
      <trkpt lat="45.88355" lon="7.07154">
        <ele>2599</ele>
        <time>2022-08-27T14:54:55Z</time>
      </trkpt>
      <trkpt lat="45.88356" lon="7.07157">
        <ele>2600</ele>
        <time>2022-08-27T14:54:59Z</time>
      </trkpt>
      <trkpt lat="45.88357" lon="7.07159">
        <ele>2600</ele>
        <time>2022-08-27T14:55:02Z</time>
      </trkpt>
      <trkpt lat="45.88358" lon="7.07162">
        <ele>2600</ele>
        <time>2022-08-27T14:55:05Z</time>
      </trkpt>
      <trkpt lat="45.88357" lon="7.07165">
        <ele>2600</ele>
        <time>2022-08-27T14:55:08Z</time>
      </trkpt>
      <trkpt lat="45.88358" lon="7.07169">
        <ele>2601</ele>
        <time>2022-08-27T14:55:12Z</time>
      </trkpt>
      <trkpt lat="45.88358" lon="7.07172">
        <ele>2601</ele>
        <time>2022-08-27T14:55:15Z</time>
      </trkpt>
      <trkpt lat="45.88357" lon="7.07174">
        <ele>2602</ele>
        <time>2022-08-27T14:55:18Z</time>
      </trkpt>
      <trkpt lat="45.88356" lon="7.07177">
        <ele>2603</ele>
        <time>2022-08-27T14:55:21Z</time>
      </trkpt>
      <trkpt lat="45.88356" lon="7.0718">
        <ele>2603</ele>
        <time>2022-08-27T14:55:24Z</time>
      </trkpt>
      <trkpt lat="45.88355" lon="7.07183">
        <ele>2605</ele>
        <time>2022-08-27T14:55:27Z</time>
      </trkpt>
      <trkpt lat="45.88354" lon="7.07186">
        <ele>2604</ele>
        <time>2022-08-27T14:55:30Z</time>
      </trkpt>
      <trkpt lat="45.88354" lon="7.0719">
        <ele>2604</ele>
        <time>2022-08-27T14:55:33Z</time>
      </trkpt>
      <trkpt lat="45.88355" lon="7.07193">
        <ele>2605</ele>
        <time>2022-08-27T14:55:36Z</time>
      </trkpt>
      <trkpt lat="45.88355" lon="7.07196">
        <ele>2607</ele>
        <time>2022-08-27T14:55:40Z</time>
      </trkpt>
      <trkpt lat="45.88354" lon="7.07199">
        <ele>2608</ele>
        <time>2022-08-27T14:55:44Z</time>
      </trkpt>
      <trkpt lat="45.88352" lon="7.07201">
        <ele>2608</ele>
        <time>2022-08-27T14:55:47Z</time>
      </trkpt>
      <trkpt lat="45.88351" lon="7.07204">
        <ele>2609</ele>
        <time>2022-08-27T14:55:51Z</time>
      </trkpt>
      <trkpt lat="45.88349" lon="7.07206">
        <ele>2609</ele>
        <time>2022-08-27T14:55:54Z</time>
      </trkpt>
      <trkpt lat="45.88349" lon="7.07209">
        <ele>2610</ele>
        <time>2022-08-27T14:55:58Z</time>
      </trkpt>
      <trkpt lat="45.88348" lon="7.07212">
        <ele>2611</ele>
        <time>2022-08-27T14:56:02Z</time>
      </trkpt>
      <trkpt lat="45.88347" lon="7.07214">
        <ele>2612</ele>
        <time>2022-08-27T14:56:05Z</time>
      </trkpt>
      <trkpt lat="45.88347" lon="7.07217">
        <ele>2612</ele>
        <time>2022-08-27T14:56:08Z</time>
      </trkpt>
      <trkpt lat="45.88346" lon="7.0722">
        <ele>2612</ele>
        <time>2022-08-27T14:56:11Z</time>
      </trkpt>
      <trkpt lat="45.88345" lon="7.07223">
        <ele>2613</ele>
        <time>2022-08-27T14:56:15Z</time>
      </trkpt>
      <trkpt lat="45.88345" lon="7.07226">
        <ele>2613</ele>
        <time>2022-08-27T14:56:18Z</time>
      </trkpt>
      <trkpt lat="45.88344" lon="7.07229">
        <ele>2614</ele>
        <time>2022-08-27T14:56:21Z</time>
      </trkpt>
      <trkpt lat="45.88342" lon="7.0723">
        <ele>2615</ele>
        <time>2022-08-27T14:56:25Z</time>
      </trkpt>
      <trkpt lat="45.8834" lon="7.07231">
        <ele>2616</ele>
        <time>2022-08-27T14:56:28Z</time>
      </trkpt>
      <trkpt lat="45.88338" lon="7.07231">
        <ele>2616</ele>
        <time>2022-08-27T14:56:30Z</time>
      </trkpt>
      <trkpt lat="45.88336" lon="7.07231">
        <ele>2614</ele>
        <time>2022-08-27T14:56:32Z</time>
      </trkpt>
      <trkpt lat="45.88333" lon="7.07231">
        <ele>2614</ele>
        <time>2022-08-27T14:56:34Z</time>
      </trkpt>
      <trkpt lat="45.88331" lon="7.07233">
        <ele>2614</ele>
        <time>2022-08-27T14:56:36Z</time>
      </trkpt>
      <trkpt lat="45.88329" lon="7.07235">
        <ele>2615</ele>
        <time>2022-08-27T14:56:38Z</time>
      </trkpt>
      <trkpt lat="45.88328" lon="7.07238">
        <ele>2615</ele>
        <time>2022-08-27T14:56:40Z</time>
      </trkpt>
      <trkpt lat="45.88327" lon="7.0724">
        <ele>2616</ele>
        <time>2022-08-27T14:56:42Z</time>
      </trkpt>
      <trkpt lat="45.88326" lon="7.07243">
        <ele>2616</ele>
        <time>2022-08-27T14:56:44Z</time>
      </trkpt>
      <trkpt lat="45.88325" lon="7.07246">
        <ele>2619</ele>
        <time>2022-08-27T14:56:47Z</time>
      </trkpt>
      <trkpt lat="45.88324" lon="7.07249">
        <ele>2617</ele>
        <time>2022-08-27T14:56:50Z</time>
      </trkpt>
      <trkpt lat="45.88324" lon="7.07253">
        <ele>2619</ele>
        <time>2022-08-27T14:56:53Z</time>
      </trkpt>
      <trkpt lat="45.88323" lon="7.07255">
        <ele>2619</ele>
        <time>2022-08-27T14:56:55Z</time>
      </trkpt>
      <trkpt lat="45.88322" lon="7.07258">
        <ele>2619</ele>
        <time>2022-08-27T14:56:58Z</time>
      </trkpt>
      <trkpt lat="45.8832" lon="7.07261">
        <ele>2620</ele>
        <time>2022-08-27T14:57:01Z</time>
      </trkpt>
      <trkpt lat="45.88319" lon="7.07264">
        <ele>2620</ele>
        <time>2022-08-27T14:57:04Z</time>
      </trkpt>
      <trkpt lat="45.88318" lon="7.07266">
        <ele>2620</ele>
        <time>2022-08-27T14:57:06Z</time>
      </trkpt>
      <trkpt lat="45.88317" lon="7.07269">
        <ele>2620</ele>
        <time>2022-08-27T14:57:08Z</time>
      </trkpt>
      <trkpt lat="45.88316" lon="7.07271">
        <ele>2622</ele>
        <time>2022-08-27T14:57:10Z</time>
      </trkpt>
      <trkpt lat="45.88314" lon="7.07275">
        <ele>2622</ele>
        <time>2022-08-27T14:57:13Z</time>
      </trkpt>
      <trkpt lat="45.88314" lon="7.07278">
        <ele>2623</ele>
        <time>2022-08-27T14:57:16Z</time>
      </trkpt>
      <trkpt lat="45.88313" lon="7.07281">
        <ele>2623</ele>
        <time>2022-08-27T14:57:18Z</time>
      </trkpt>
      <trkpt lat="45.88312" lon="7.07284">
        <ele>2622</ele>
        <time>2022-08-27T14:57:20Z</time>
      </trkpt>
      <trkpt lat="45.8831" lon="7.07285">
        <ele>2621</ele>
        <time>2022-08-27T14:57:22Z</time>
      </trkpt>
      <trkpt lat="45.88308" lon="7.07286">
        <ele>2622</ele>
        <time>2022-08-27T14:57:24Z</time>
      </trkpt>
      <trkpt lat="45.88306" lon="7.07288">
        <ele>2622</ele>
        <time>2022-08-27T14:57:26Z</time>
      </trkpt>
      <trkpt lat="45.88304" lon="7.0729">
        <ele>2623</ele>
        <time>2022-08-27T14:57:29Z</time>
      </trkpt>
      <trkpt lat="45.88303" lon="7.07292">
        <ele>2623</ele>
        <time>2022-08-27T14:57:32Z</time>
      </trkpt>
      <trkpt lat="45.88301" lon="7.07295">
        <ele>2624</ele>
        <time>2022-08-27T14:57:35Z</time>
      </trkpt>
      <trkpt lat="45.883" lon="7.07297">
        <ele>2624</ele>
        <time>2022-08-27T14:57:38Z</time>
      </trkpt>
      <trkpt lat="45.88299" lon="7.073">
        <ele>2624</ele>
        <time>2022-08-27T14:57:42Z</time>
      </trkpt>
      <trkpt lat="45.88298" lon="7.07303">
        <ele>2625</ele>
        <time>2022-08-27T14:57:46Z</time>
      </trkpt>
      <trkpt lat="45.88297" lon="7.07306">
        <ele>2625</ele>
        <time>2022-08-27T14:57:50Z</time>
      </trkpt>
      <trkpt lat="45.88296" lon="7.07309">
        <ele>2626</ele>
        <time>2022-08-27T14:57:54Z</time>
      </trkpt>
      <trkpt lat="45.88296" lon="7.07312">
        <ele>2627</ele>
        <time>2022-08-27T14:57:58Z</time>
      </trkpt>
      <trkpt lat="45.88296" lon="7.07315">
        <ele>2628</ele>
        <time>2022-08-27T14:58:01Z</time>
      </trkpt>
      <trkpt lat="45.88297" lon="7.07318">
        <ele>2628</ele>
        <time>2022-08-27T14:58:04Z</time>
      </trkpt>
      <trkpt lat="45.88297" lon="7.07321">
        <ele>2629</ele>
        <time>2022-08-27T14:58:07Z</time>
      </trkpt>
      <trkpt lat="45.88297" lon="7.07324">
        <ele>2631</ele>
        <time>2022-08-27T14:58:10Z</time>
      </trkpt>
      <trkpt lat="45.88296" lon="7.07327">
        <ele>2631</ele>
        <time>2022-08-27T14:58:13Z</time>
      </trkpt>
      <trkpt lat="45.88295" lon="7.0733">
        <ele>2631</ele>
        <time>2022-08-27T14:58:17Z</time>
      </trkpt>
      <trkpt lat="45.88294" lon="7.07332">
        <ele>2632</ele>
        <time>2022-08-27T14:58:20Z</time>
      </trkpt>
      <trkpt lat="45.88293" lon="7.07335">
        <ele>2632</ele>
        <time>2022-08-27T14:58:26Z</time>
      </trkpt>
      <trkpt lat="45.88294" lon="7.07338">
        <ele>2634</ele>
        <time>2022-08-27T14:58:31Z</time>
      </trkpt>
      <trkpt lat="45.88293" lon="7.07341">
        <ele>2635</ele>
        <time>2022-08-27T14:58:35Z</time>
      </trkpt>
      <trkpt lat="45.88292" lon="7.07343">
        <ele>2635</ele>
        <time>2022-08-27T14:58:38Z</time>
      </trkpt>
      <trkpt lat="45.8829" lon="7.07344">
        <ele>2635</ele>
        <time>2022-08-27T14:58:41Z</time>
      </trkpt>
      <trkpt lat="45.88289" lon="7.07347">
        <ele>2635</ele>
        <time>2022-08-27T14:58:44Z</time>
      </trkpt>
      <trkpt lat="45.88287" lon="7.07348">
        <ele>2636</ele>
        <time>2022-08-27T14:58:47Z</time>
      </trkpt>
      <trkpt lat="45.88285" lon="7.0735">
        <ele>2637</ele>
        <time>2022-08-27T14:58:50Z</time>
      </trkpt>
      <trkpt lat="45.88285" lon="7.07353">
        <ele>2637</ele>
        <time>2022-08-27T14:58:55Z</time>
      </trkpt>
      <trkpt lat="45.88287" lon="7.07354">
        <ele>2639</ele>
        <time>2022-08-27T14:58:59Z</time>
      </trkpt>
      <trkpt lat="45.88289" lon="7.07354">
        <ele>2639</ele>
        <time>2022-08-27T14:59:02Z</time>
      </trkpt>
      <trkpt lat="45.88291" lon="7.07356">
        <ele>2640</ele>
        <time>2022-08-27T14:59:06Z</time>
      </trkpt>
      <trkpt lat="45.88292" lon="7.07359">
        <ele>2641</ele>
        <time>2022-08-27T14:59:10Z</time>
      </trkpt>
      <trkpt lat="45.88294" lon="7.0736">
        <ele>2641</ele>
        <time>2022-08-27T14:59:14Z</time>
      </trkpt>
      <trkpt lat="45.88293" lon="7.07363">
        <ele>2642</ele>
        <time>2022-08-27T14:59:18Z</time>
      </trkpt>
      <trkpt lat="45.88293" lon="7.07366">
        <ele>2644</ele>
        <time>2022-08-27T14:59:21Z</time>
      </trkpt>
      <trkpt lat="45.88292" lon="7.07369">
        <ele>2644</ele>
        <time>2022-08-27T14:59:24Z</time>
      </trkpt>
      <trkpt lat="45.88291" lon="7.07372">
        <ele>2644</ele>
        <time>2022-08-27T14:59:27Z</time>
      </trkpt>
      <trkpt lat="45.88289" lon="7.07375">
        <ele>2644</ele>
        <time>2022-08-27T14:59:29Z</time>
      </trkpt>
      <trkpt lat="45.88288" lon="7.07377">
        <ele>2645</ele>
        <time>2022-08-27T14:59:31Z</time>
      </trkpt>
      <trkpt lat="45.88286" lon="7.07379">
        <ele>2645</ele>
        <time>2022-08-27T14:59:33Z</time>
      </trkpt>
      <trkpt lat="45.88285" lon="7.07381">
        <ele>2646</ele>
        <time>2022-08-27T14:59:35Z</time>
      </trkpt>
      <trkpt lat="45.88283" lon="7.07383">
        <ele>2646</ele>
        <time>2022-08-27T14:59:37Z</time>
      </trkpt>
      <trkpt lat="45.88282" lon="7.07385">
        <ele>2647</ele>
        <time>2022-08-27T14:59:40Z</time>
      </trkpt>
      <trkpt lat="45.88283" lon="7.07388">
        <ele>2647</ele>
        <time>2022-08-27T14:59:44Z</time>
      </trkpt>
      <trkpt lat="45.88282" lon="7.07392">
        <ele>2647</ele>
        <time>2022-08-27T14:59:47Z</time>
      </trkpt>
      <trkpt lat="45.88281" lon="7.07394">
        <ele>2648</ele>
        <time>2022-08-27T14:59:50Z</time>
      </trkpt>
      <trkpt lat="45.88281" lon="7.07397">
        <ele>2649</ele>
        <time>2022-08-27T14:59:54Z</time>
      </trkpt>
      <trkpt lat="45.8828" lon="7.074">
        <ele>2650</ele>
        <time>2022-08-27T14:59:57Z</time>
      </trkpt>
      <trkpt lat="45.88279" lon="7.07403">
        <ele>2651</ele>
        <time>2022-08-27T15:00:01Z</time>
      </trkpt>
      <trkpt lat="45.88277" lon="7.07406">
        <ele>2650</ele>
        <time>2022-08-27T15:00:04Z</time>
      </trkpt>
      <trkpt lat="45.88277" lon="7.07409">
        <ele>2652</ele>
        <time>2022-08-27T15:00:07Z</time>
      </trkpt>
      <trkpt lat="45.88278" lon="7.07411">
        <ele>2652</ele>
        <time>2022-08-27T15:00:13Z</time>
      </trkpt>
      <trkpt lat="45.88281" lon="7.07412">
        <ele>2653</ele>
        <time>2022-08-27T15:00:17Z</time>
      </trkpt>
      <trkpt lat="45.88283" lon="7.07413">
        <ele>2653</ele>
        <time>2022-08-27T15:00:20Z</time>
      </trkpt>
      <trkpt lat="45.88284" lon="7.07414">
        <ele>2654</ele>
        <time>2022-08-27T15:00:23Z</time>
      </trkpt>
      <trkpt lat="45.88285" lon="7.07417">
        <ele>2654</ele>
        <time>2022-08-27T15:00:27Z</time>
      </trkpt>
      <trkpt lat="45.88284" lon="7.0742">
        <ele>2656</ele>
        <time>2022-08-27T15:00:32Z</time>
      </trkpt>
      <trkpt lat="45.88284" lon="7.07422">
        <ele>2657</ele>
        <time>2022-08-27T15:00:35Z</time>
      </trkpt>
      <trkpt lat="45.88284" lon="7.07425">
        <ele>2658</ele>
        <time>2022-08-27T15:00:39Z</time>
      </trkpt>
      <trkpt lat="45.88284" lon="7.07427">
        <ele>2658</ele>
        <time>2022-08-27T15:00:42Z</time>
      </trkpt>
      <trkpt lat="45.88281" lon="7.07428">
        <ele>2658</ele>
        <time>2022-08-27T15:00:45Z</time>
      </trkpt>
      <trkpt lat="45.88279" lon="7.07427">
        <ele>2658</ele>
        <time>2022-08-27T15:00:47Z</time>
      </trkpt>
      <trkpt lat="45.88277" lon="7.07426">
        <ele>2659</ele>
        <time>2022-08-27T15:00:50Z</time>
      </trkpt>
      <trkpt lat="45.88275" lon="7.07426">
        <ele>2658</ele>
        <time>2022-08-27T15:00:52Z</time>
      </trkpt>
      <trkpt lat="45.88273" lon="7.07427">
        <ele>2658</ele>
        <time>2022-08-27T15:00:54Z</time>
      </trkpt>
      <trkpt lat="45.88271" lon="7.07428">
        <ele>2658</ele>
        <time>2022-08-27T15:00:56Z</time>
      </trkpt>
      <trkpt lat="45.88269" lon="7.0743">
        <ele>2658</ele>
        <time>2022-08-27T15:00:58Z</time>
      </trkpt>
      <trkpt lat="45.88268" lon="7.07432">
        <ele>2658</ele>
        <time>2022-08-27T15:01:00Z</time>
      </trkpt>
      <trkpt lat="45.88267" lon="7.07434">
        <ele>2658</ele>
        <time>2022-08-27T15:01:02Z</time>
      </trkpt>
      <trkpt lat="45.88265" lon="7.07436">
        <ele>2658</ele>
        <time>2022-08-27T15:01:04Z</time>
      </trkpt>
      <trkpt lat="45.88263" lon="7.07439">
        <ele>2658</ele>
        <time>2022-08-27T15:01:06Z</time>
      </trkpt>
      <trkpt lat="45.88261" lon="7.07442">
        <ele>2658</ele>
        <time>2022-08-27T15:01:08Z</time>
      </trkpt>
      <trkpt lat="45.88261" lon="7.07445">
        <ele>2659</ele>
        <time>2022-08-27T15:01:10Z</time>
      </trkpt>
      <trkpt lat="45.8826" lon="7.07448">
        <ele>2659</ele>
        <time>2022-08-27T15:01:12Z</time>
      </trkpt>
      <trkpt lat="45.8826" lon="7.07451">
        <ele>2659</ele>
        <time>2022-08-27T15:01:14Z</time>
      </trkpt>
      <trkpt lat="45.88259" lon="7.07454">
        <ele>2660</ele>
        <time>2022-08-27T15:01:16Z</time>
      </trkpt>
      <trkpt lat="45.88259" lon="7.07457">
        <ele>2660</ele>
        <time>2022-08-27T15:01:18Z</time>
      </trkpt>
      <trkpt lat="45.88258" lon="7.0746">
        <ele>2660</ele>
        <time>2022-08-27T15:01:20Z</time>
      </trkpt>
      <trkpt lat="45.88258" lon="7.07464">
        <ele>2660</ele>
        <time>2022-08-27T15:01:22Z</time>
      </trkpt>
      <trkpt lat="45.88258" lon="7.07467">
        <ele>2660</ele>
        <time>2022-08-27T15:01:24Z</time>
      </trkpt>
      <trkpt lat="45.88258" lon="7.0747">
        <ele>2660</ele>
        <time>2022-08-27T15:01:26Z</time>
      </trkpt>
      <trkpt lat="45.88258" lon="7.07474">
        <ele>2659</ele>
        <time>2022-08-27T15:01:28Z</time>
      </trkpt>
      <trkpt lat="45.88258" lon="7.07477">
        <ele>2659</ele>
        <time>2022-08-27T15:01:30Z</time>
      </trkpt>
      <trkpt lat="45.88258" lon="7.0748">
        <ele>2659</ele>
        <time>2022-08-27T15:01:32Z</time>
      </trkpt>
      <trkpt lat="45.88258" lon="7.07483">
        <ele>2659</ele>
        <time>2022-08-27T15:01:34Z</time>
      </trkpt>
      <trkpt lat="45.88257" lon="7.07485">
        <ele>2659</ele>
        <time>2022-08-27T15:01:36Z</time>
      </trkpt>
      <trkpt lat="45.88257" lon="7.07488">
        <ele>2660</ele>
        <time>2022-08-27T15:01:39Z</time>
      </trkpt>
      <trkpt lat="45.88257" lon="7.07491">
        <ele>2660</ele>
        <time>2022-08-27T15:01:42Z</time>
      </trkpt>
      <trkpt lat="45.88256" lon="7.07494">
        <ele>2660</ele>
        <time>2022-08-27T15:01:45Z</time>
      </trkpt>
      <trkpt lat="45.88256" lon="7.07499">
        <ele>2661</ele>
        <time>2022-08-27T15:01:48Z</time>
      </trkpt>
      <trkpt lat="45.88255" lon="7.07501">
        <ele>2661</ele>
        <time>2022-08-27T15:01:50Z</time>
      </trkpt>
      <trkpt lat="45.88254" lon="7.07504">
        <ele>2662</ele>
        <time>2022-08-27T15:01:52Z</time>
      </trkpt>
      <trkpt lat="45.88253" lon="7.07506">
        <ele>2662</ele>
        <time>2022-08-27T15:01:55Z</time>
      </trkpt>
      <trkpt lat="45.88252" lon="7.0751">
        <ele>2663</ele>
        <time>2022-08-27T15:01:58Z</time>
      </trkpt>
      <trkpt lat="45.88253" lon="7.07512">
        <ele>2663</ele>
        <time>2022-08-27T15:02:01Z</time>
      </trkpt>
      <trkpt lat="45.88252" lon="7.07515">
        <ele>2664</ele>
        <time>2022-08-27T15:02:04Z</time>
      </trkpt>
      <trkpt lat="45.88251" lon="7.07518">
        <ele>2665</ele>
        <time>2022-08-27T15:02:07Z</time>
      </trkpt>
      <trkpt lat="45.88251" lon="7.07521">
        <ele>2664</ele>
        <time>2022-08-27T15:02:10Z</time>
      </trkpt>
      <trkpt lat="45.88253" lon="7.07523">
        <ele>2666</ele>
        <time>2022-08-27T15:02:17Z</time>
      </trkpt>
      <trkpt lat="45.88253" lon="7.07526">
        <ele>2666</ele>
        <time>2022-08-27T15:02:22Z</time>
      </trkpt>
      <trkpt lat="45.88253" lon="7.07528">
        <ele>2668</ele>
        <time>2022-08-27T15:02:25Z</time>
      </trkpt>
      <trkpt lat="45.88253" lon="7.07532">
        <ele>2669</ele>
        <time>2022-08-27T15:02:29Z</time>
      </trkpt>
      <trkpt lat="45.88252" lon="7.07534">
        <ele>2669</ele>
        <time>2022-08-27T15:02:33Z</time>
      </trkpt>
      <trkpt lat="45.8825" lon="7.07537">
        <ele>2670</ele>
        <time>2022-08-27T15:02:37Z</time>
      </trkpt>
      <trkpt lat="45.88249" lon="7.07539">
        <ele>2670</ele>
        <time>2022-08-27T15:02:40Z</time>
      </trkpt>
      <trkpt lat="45.88247" lon="7.07542">
        <ele>2671</ele>
        <time>2022-08-27T15:02:42Z</time>
      </trkpt>
      <trkpt lat="45.88246" lon="7.07544">
        <ele>2671</ele>
        <time>2022-08-27T15:02:45Z</time>
      </trkpt>
      <trkpt lat="45.88246" lon="7.07548">
        <ele>2671</ele>
        <time>2022-08-27T15:02:48Z</time>
      </trkpt>
      <trkpt lat="45.88245" lon="7.07551">
        <ele>2673</ele>
        <time>2022-08-27T15:02:51Z</time>
      </trkpt>
      <trkpt lat="45.88246" lon="7.07553">
        <ele>2673</ele>
        <time>2022-08-27T15:02:54Z</time>
      </trkpt>
      <trkpt lat="45.88246" lon="7.07556">
        <ele>2673</ele>
        <time>2022-08-27T15:02:57Z</time>
      </trkpt>
      <trkpt lat="45.88248" lon="7.07557">
        <ele>2674</ele>
        <time>2022-08-27T15:03:01Z</time>
      </trkpt>
      <trkpt lat="45.8825" lon="7.07555">
        <ele>2674</ele>
        <time>2022-08-27T15:03:05Z</time>
      </trkpt>
      <trkpt lat="45.88252" lon="7.07554">
        <ele>2675</ele>
        <time>2022-08-27T15:03:08Z</time>
      </trkpt>
      <trkpt lat="45.88254" lon="7.07553">
        <ele>2676</ele>
        <time>2022-08-27T15:03:11Z</time>
      </trkpt>
      <trkpt lat="45.88256" lon="7.07551">
        <ele>2676</ele>
        <time>2022-08-27T15:03:14Z</time>
      </trkpt>
      <trkpt lat="45.88258" lon="7.07549">
        <ele>2677</ele>
        <time>2022-08-27T15:03:17Z</time>
      </trkpt>
      <trkpt lat="45.8826" lon="7.07547">
        <ele>2677</ele>
        <time>2022-08-27T15:03:20Z</time>
      </trkpt>
      <trkpt lat="45.88262" lon="7.07548">
        <ele>2677</ele>
        <time>2022-08-27T15:03:23Z</time>
      </trkpt>
      <trkpt lat="45.88262" lon="7.07551">
        <ele>2678</ele>
        <time>2022-08-27T15:03:26Z</time>
      </trkpt>
      <trkpt lat="45.88261" lon="7.07553">
        <ele>2678</ele>
        <time>2022-08-27T15:03:29Z</time>
      </trkpt>
      <trkpt lat="45.8826" lon="7.07556">
        <ele>2680</ele>
        <time>2022-08-27T15:03:33Z</time>
      </trkpt>
      <trkpt lat="45.8826" lon="7.07559">
        <ele>2680</ele>
        <time>2022-08-27T15:03:37Z</time>
      </trkpt>
      <trkpt lat="45.8826" lon="7.07562">
        <ele>2680</ele>
        <time>2022-08-27T15:03:41Z</time>
      </trkpt>
      <trkpt lat="45.8826" lon="7.07565">
        <ele>2682</ele>
        <time>2022-08-27T15:03:45Z</time>
      </trkpt>
      <trkpt lat="45.88261" lon="7.07568">
        <ele>2682</ele>
        <time>2022-08-27T15:03:48Z</time>
      </trkpt>
      <trkpt lat="45.88262" lon="7.07571">
        <ele>2683</ele>
        <time>2022-08-27T15:03:52Z</time>
      </trkpt>
      <trkpt lat="45.88262" lon="7.07574">
        <ele>2683</ele>
        <time>2022-08-27T15:03:56Z</time>
      </trkpt>
      <trkpt lat="45.88263" lon="7.07577">
        <ele>2684</ele>
        <time>2022-08-27T15:04:01Z</time>
      </trkpt>
      <trkpt lat="45.88264" lon="7.0758">
        <ele>2684</ele>
        <time>2022-08-27T15:04:08Z</time>
      </trkpt>
      <trkpt lat="45.88265" lon="7.07582">
        <ele>2685</ele>
        <time>2022-08-27T15:04:12Z</time>
      </trkpt>
      <trkpt lat="45.88267" lon="7.07584">
        <ele>2685</ele>
        <time>2022-08-27T15:04:16Z</time>
      </trkpt>
      <trkpt lat="45.88268" lon="7.07584">
        <ele>2686</ele>
        <time>2022-08-27T15:04:22Z</time>
      </trkpt>
      <trkpt lat="45.8827" lon="7.07582">
        <ele>2687</ele>
        <time>2022-08-27T15:04:26Z</time>
      </trkpt>
      <trkpt lat="45.88271" lon="7.0758">
        <ele>2688</ele>
        <time>2022-08-27T15:04:30Z</time>
      </trkpt>
      <trkpt lat="45.88272" lon="7.07577">
        <ele>2688</ele>
        <time>2022-08-27T15:04:33Z</time>
      </trkpt>
      <trkpt lat="45.88274" lon="7.07574">
        <ele>2689</ele>
        <time>2022-08-27T15:04:37Z</time>
      </trkpt>
      <trkpt lat="45.88275" lon="7.07572">
        <ele>2689</ele>
        <time>2022-08-27T15:04:40Z</time>
      </trkpt>
      <trkpt lat="45.88278" lon="7.07571">
        <ele>2689</ele>
        <time>2022-08-27T15:04:44Z</time>
      </trkpt>
      <trkpt lat="45.88279" lon="7.0757">
        <ele>2689</ele>
        <time>2022-08-27T15:04:47Z</time>
      </trkpt>
      <trkpt lat="45.88282" lon="7.0757">
        <ele>2690</ele>
        <time>2022-08-27T15:04:51Z</time>
      </trkpt>
      <trkpt lat="45.88283" lon="7.07568">
        <ele>2692</ele>
        <time>2022-08-27T15:04:54Z</time>
      </trkpt>
      <trkpt lat="45.88284" lon="7.07566">
        <ele>2693</ele>
        <time>2022-08-27T15:04:57Z</time>
      </trkpt>
      <trkpt lat="45.88286" lon="7.07564">
        <ele>2693</ele>
        <time>2022-08-27T15:05:00Z</time>
      </trkpt>
      <trkpt lat="45.88287" lon="7.07561">
        <ele>2693</ele>
        <time>2022-08-27T15:05:03Z</time>
      </trkpt>
      <trkpt lat="45.88288" lon="7.07558">
        <ele>2694</ele>
        <time>2022-08-27T15:05:06Z</time>
      </trkpt>
      <trkpt lat="45.8829" lon="7.07556">
        <ele>2695</ele>
        <time>2022-08-27T15:05:09Z</time>
      </trkpt>
      <trkpt lat="45.88291" lon="7.07555">
        <ele>2695</ele>
        <time>2022-08-27T15:05:13Z</time>
      </trkpt>
      <trkpt lat="45.88293" lon="7.07553">
        <ele>2696</ele>
        <time>2022-08-27T15:05:17Z</time>
      </trkpt>
      <trkpt lat="45.88295" lon="7.07551">
        <ele>2696</ele>
        <time>2022-08-27T15:05:21Z</time>
      </trkpt>
      <trkpt lat="45.88297" lon="7.07549">
        <ele>2697</ele>
        <time>2022-08-27T15:05:24Z</time>
      </trkpt>
      <trkpt lat="45.88299" lon="7.07548">
        <ele>2697</ele>
        <time>2022-08-27T15:05:27Z</time>
      </trkpt>
      <trkpt lat="45.88301" lon="7.07548">
        <ele>2697</ele>
        <time>2022-08-27T15:05:31Z</time>
      </trkpt>
      <trkpt lat="45.88302" lon="7.07546">
        <ele>2699</ele>
        <time>2022-08-27T15:05:35Z</time>
      </trkpt>
      <trkpt lat="45.88304" lon="7.07544">
        <ele>2700</ele>
        <time>2022-08-27T15:05:38Z</time>
      </trkpt>
      <trkpt lat="45.88306" lon="7.07544">
        <ele>2700</ele>
        <time>2022-08-27T15:05:44Z</time>
      </trkpt>
      <trkpt lat="45.88307" lon="7.07541">
        <ele>2700</ele>
        <time>2022-08-27T15:05:47Z</time>
      </trkpt>
      <trkpt lat="45.88308" lon="7.07539">
        <ele>2700</ele>
        <time>2022-08-27T15:05:50Z</time>
      </trkpt>
      <trkpt lat="45.88309" lon="7.07536">
        <ele>2701</ele>
        <time>2022-08-27T15:05:55Z</time>
      </trkpt>
      <trkpt lat="45.88311" lon="7.07534">
        <ele>2704</ele>
        <time>2022-08-27T15:06:00Z</time>
      </trkpt>
      <trkpt lat="45.88313" lon="7.07533">
        <ele>2706</ele>
        <time>2022-08-27T15:06:04Z</time>
      </trkpt>
      <trkpt lat="45.88314" lon="7.07531">
        <ele>2706</ele>
        <time>2022-08-27T15:06:08Z</time>
      </trkpt>
      <trkpt lat="45.88317" lon="7.07531">
        <ele>2706</ele>
        <time>2022-08-27T15:06:12Z</time>
      </trkpt>
      <trkpt lat="45.88319" lon="7.07531">
        <ele>2707</ele>
        <time>2022-08-27T15:06:16Z</time>
      </trkpt>
      <trkpt lat="45.88321" lon="7.07532">
        <ele>2708</ele>
        <time>2022-08-27T15:06:20Z</time>
      </trkpt>
      <trkpt lat="45.88322" lon="7.0753">
        <ele>2708</ele>
        <time>2022-08-27T15:06:23Z</time>
      </trkpt>
      <trkpt lat="45.88324" lon="7.07528">
        <ele>2708</ele>
        <time>2022-08-27T15:06:26Z</time>
      </trkpt>
      <trkpt lat="45.88326" lon="7.07526">
        <ele>2709</ele>
        <time>2022-08-27T15:06:29Z</time>
      </trkpt>
      <trkpt lat="45.88329" lon="7.07525">
        <ele>2709</ele>
        <time>2022-08-27T15:06:32Z</time>
      </trkpt>
      <trkpt lat="45.88331" lon="7.07524">
        <ele>2709</ele>
        <time>2022-08-27T15:06:36Z</time>
      </trkpt>
      <trkpt lat="45.88333" lon="7.07524">
        <ele>2710</ele>
        <time>2022-08-27T15:06:39Z</time>
      </trkpt>
      <trkpt lat="45.88335" lon="7.07523">
        <ele>2711</ele>
        <time>2022-08-27T15:06:43Z</time>
      </trkpt>
      <trkpt lat="45.88336" lon="7.07525">
        <ele>2711</ele>
        <time>2022-08-27T15:06:46Z</time>
      </trkpt>
      <trkpt lat="45.88335" lon="7.07528">
        <ele>2713</ele>
        <time>2022-08-27T15:06:50Z</time>
      </trkpt>
      <trkpt lat="45.88336" lon="7.07531">
        <ele>2716</ele>
        <time>2022-08-27T15:06:57Z</time>
      </trkpt>
      <trkpt lat="45.88338" lon="7.07533">
        <ele>2716</ele>
        <time>2022-08-27T15:07:06Z</time>
      </trkpt>
      <trkpt lat="45.88338" lon="7.07533">
        <ele>2718</ele>
        <time>2022-08-27T15:07:10Z</time>
      </trkpt>
      <trkpt lat="45.88339" lon="7.07534">
        <ele>2718</ele>
        <time>2022-08-27T15:07:11Z</time>
      </trkpt>
      <trkpt lat="45.88341" lon="7.07537">
        <ele>2718</ele>
        <time>2022-08-27T15:07:16Z</time>
      </trkpt>
      <trkpt lat="45.88342" lon="7.07538">
        <ele>2719</ele>
        <time>2022-08-27T15:07:25Z</time>
      </trkpt>
      <trkpt lat="45.88344" lon="7.07538">
        <ele>2720</ele>
        <time>2022-08-27T15:07:29Z</time>
      </trkpt>
      <trkpt lat="45.88347" lon="7.07538">
        <ele>2719</ele>
        <time>2022-08-27T15:07:32Z</time>
      </trkpt>
      <trkpt lat="45.88348" lon="7.0754">
        <ele>2721</ele>
        <time>2022-08-27T15:07:35Z</time>
      </trkpt>
      <trkpt lat="45.88347" lon="7.07543">
        <ele>2721</ele>
        <time>2022-08-27T15:07:38Z</time>
      </trkpt>
      <trkpt lat="45.88347" lon="7.07546">
        <ele>2722</ele>
        <time>2022-08-27T15:07:41Z</time>
      </trkpt>
      <trkpt lat="45.88347" lon="7.07549">
        <ele>2722</ele>
        <time>2022-08-27T15:07:44Z</time>
      </trkpt>
      <trkpt lat="45.88346" lon="7.07553">
        <ele>2722</ele>
        <time>2022-08-27T15:07:47Z</time>
      </trkpt>
      <trkpt lat="45.88345" lon="7.07555">
        <ele>2722</ele>
        <time>2022-08-27T15:07:49Z</time>
      </trkpt>
      <trkpt lat="45.88343" lon="7.07557">
        <ele>2724</ele>
        <time>2022-08-27T15:07:52Z</time>
      </trkpt>
      <trkpt lat="45.88342" lon="7.0756">
        <ele>2724</ele>
        <time>2022-08-27T15:07:55Z</time>
      </trkpt>
      <trkpt lat="45.88341" lon="7.07563">
        <ele>2724</ele>
        <time>2022-08-27T15:07:57Z</time>
      </trkpt>
      <trkpt lat="45.8834" lon="7.07566">
        <ele>2725</ele>
        <time>2022-08-27T15:08:00Z</time>
      </trkpt>
      <trkpt lat="45.8834" lon="7.07569">
        <ele>2725</ele>
        <time>2022-08-27T15:08:02Z</time>
      </trkpt>
      <trkpt lat="45.88338" lon="7.07571">
        <ele>2725</ele>
        <time>2022-08-27T15:08:04Z</time>
      </trkpt>
      <trkpt lat="45.88338" lon="7.07573">
        <ele>2725</ele>
        <time>2022-08-27T15:08:07Z</time>
      </trkpt>
      <trkpt lat="45.88336" lon="7.07575">
        <ele>2725</ele>
        <time>2022-08-27T15:08:10Z</time>
      </trkpt>
      <trkpt lat="45.88335" lon="7.07578">
        <ele>2726</ele>
        <time>2022-08-27T15:08:13Z</time>
      </trkpt>
      <trkpt lat="45.88335" lon="7.07581">
        <ele>2728</ele>
        <time>2022-08-27T15:08:17Z</time>
      </trkpt>
      <trkpt lat="45.88334" lon="7.07583">
        <ele>2728</ele>
        <time>2022-08-27T15:08:21Z</time>
      </trkpt>
      <trkpt lat="45.88335" lon="7.07586">
        <ele>2729</ele>
        <time>2022-08-27T15:08:26Z</time>
      </trkpt>
      <trkpt lat="45.88335" lon="7.07589">
        <ele>2730</ele>
        <time>2022-08-27T15:08:30Z</time>
      </trkpt>
      <trkpt lat="45.88335" lon="7.07593">
        <ele>2732</ele>
        <time>2022-08-27T15:08:34Z</time>
      </trkpt>
      <trkpt lat="45.88335" lon="7.07596">
        <ele>2732</ele>
        <time>2022-08-27T15:08:37Z</time>
      </trkpt>
      <trkpt lat="45.88336" lon="7.07599">
        <ele>2733</ele>
        <time>2022-08-27T15:08:40Z</time>
      </trkpt>
      <trkpt lat="45.88336" lon="7.07602">
        <ele>2734</ele>
        <time>2022-08-27T15:08:45Z</time>
      </trkpt>
      <trkpt lat="45.88336" lon="7.07605">
        <ele>2736</ele>
        <time>2022-08-27T15:08:48Z</time>
      </trkpt>
      <trkpt lat="45.88336" lon="7.07608">
        <ele>2736</ele>
        <time>2022-08-27T15:08:52Z</time>
      </trkpt>
      <trkpt lat="45.88338" lon="7.07611">
        <ele>2737</ele>
        <time>2022-08-27T15:08:56Z</time>
      </trkpt>
      <trkpt lat="45.88339" lon="7.07612">
        <ele>2740</ele>
        <time>2022-08-27T15:09:01Z</time>
      </trkpt>
      <trkpt lat="45.88341" lon="7.07615">
        <ele>2737</ele>
        <time>2022-08-27T15:09:05Z</time>
      </trkpt>
      <trkpt lat="45.88343" lon="7.07618">
        <ele>2736</ele>
        <time>2022-08-27T15:09:08Z</time>
      </trkpt>
      <trkpt lat="45.88344" lon="7.07621">
        <ele>2737</ele>
        <time>2022-08-27T15:09:11Z</time>
      </trkpt>
      <trkpt lat="45.88345" lon="7.07623">
        <ele>2738</ele>
        <time>2022-08-27T15:09:14Z</time>
      </trkpt>
      <trkpt lat="45.88347" lon="7.07625">
        <ele>2738</ele>
        <time>2022-08-27T15:09:19Z</time>
      </trkpt>
      <trkpt lat="45.88348" lon="7.07627">
        <ele>2740</ele>
        <time>2022-08-27T15:09:22Z</time>
      </trkpt>
      <trkpt lat="45.8835" lon="7.07627">
        <ele>2741</ele>
        <time>2022-08-27T15:09:26Z</time>
      </trkpt>
      <trkpt lat="45.88352" lon="7.07625">
        <ele>2741</ele>
        <time>2022-08-27T15:09:29Z</time>
      </trkpt>
      <trkpt lat="45.88353" lon="7.07623">
        <ele>2742</ele>
        <time>2022-08-27T15:09:32Z</time>
      </trkpt>
      <trkpt lat="45.88355" lon="7.07624">
        <ele>2743</ele>
        <time>2022-08-27T15:09:35Z</time>
      </trkpt>
      <trkpt lat="45.88357" lon="7.07623">
        <ele>2743</ele>
        <time>2022-08-27T15:09:41Z</time>
      </trkpt>
      <trkpt lat="45.88358" lon="7.07621">
        <ele>2744</ele>
        <time>2022-08-27T15:09:44Z</time>
      </trkpt>
      <trkpt lat="45.8836" lon="7.07621">
        <ele>2744</ele>
        <time>2022-08-27T15:09:48Z</time>
      </trkpt>
      <trkpt lat="45.88363" lon="7.07621">
        <ele>2745</ele>
        <time>2022-08-27T15:09:52Z</time>
      </trkpt>
      <trkpt lat="45.88364" lon="7.07623">
        <ele>2747</ele>
        <time>2022-08-27T15:09:56Z</time>
      </trkpt>
      <trkpt lat="45.88366" lon="7.07624">
        <ele>2747</ele>
        <time>2022-08-27T15:10:01Z</time>
      </trkpt>
      <trkpt lat="45.88368" lon="7.07625">
        <ele>2747</ele>
        <time>2022-08-27T15:10:04Z</time>
      </trkpt>
      <trkpt lat="45.8837" lon="7.07626">
        <ele>2748</ele>
        <time>2022-08-27T15:10:07Z</time>
      </trkpt>
      <trkpt lat="45.88371" lon="7.07627">
        <ele>2749</ele>
        <time>2022-08-27T15:10:11Z</time>
      </trkpt>
      <trkpt lat="45.88373" lon="7.07629">
        <ele>2749</ele>
        <time>2022-08-27T15:10:14Z</time>
      </trkpt>
      <trkpt lat="45.88375" lon="7.07629">
        <ele>2750</ele>
        <time>2022-08-27T15:10:18Z</time>
      </trkpt>
      <trkpt lat="45.88377" lon="7.07628">
        <ele>2750</ele>
        <time>2022-08-27T15:10:21Z</time>
      </trkpt>
      <trkpt lat="45.88377" lon="7.07625">
        <ele>2751</ele>
        <time>2022-08-27T15:10:25Z</time>
      </trkpt>
      <trkpt lat="45.88377" lon="7.07622">
        <ele>2753</ele>
        <time>2022-08-27T15:10:29Z</time>
      </trkpt>
      <trkpt lat="45.88377" lon="7.0762">
        <ele>2753</ele>
        <time>2022-08-27T15:10:32Z</time>
      </trkpt>
      <trkpt lat="45.88377" lon="7.07617">
        <ele>2754</ele>
        <time>2022-08-27T15:10:35Z</time>
      </trkpt>
      <trkpt lat="45.88379" lon="7.07616">
        <ele>2755</ele>
        <time>2022-08-27T15:10:39Z</time>
      </trkpt>
      <trkpt lat="45.88381" lon="7.07618">
        <ele>2755</ele>
        <time>2022-08-27T15:10:43Z</time>
      </trkpt>
      <trkpt lat="45.88382" lon="7.0762">
        <ele>2756</ele>
        <time>2022-08-27T15:10:49Z</time>
      </trkpt>
      <trkpt lat="45.88383" lon="7.07622">
        <ele>2757</ele>
        <time>2022-08-27T15:10:53Z</time>
      </trkpt>
      <trkpt lat="45.88385" lon="7.0762">
        <ele>2757</ele>
        <time>2022-08-27T15:10:56Z</time>
      </trkpt>
      <trkpt lat="45.88387" lon="7.07619">
        <ele>2759</ele>
        <time>2022-08-27T15:10:59Z</time>
      </trkpt>
      <trkpt lat="45.88389" lon="7.07619">
        <ele>2760</ele>
        <time>2022-08-27T15:11:02Z</time>
      </trkpt>
      <trkpt lat="45.88391" lon="7.07618">
        <ele>2760</ele>
        <time>2022-08-27T15:11:05Z</time>
      </trkpt>
      <trkpt lat="45.88392" lon="7.07616">
        <ele>2760</ele>
        <time>2022-08-27T15:11:08Z</time>
      </trkpt>
      <trkpt lat="45.88394" lon="7.07614">
        <ele>2761</ele>
        <time>2022-08-27T15:11:13Z</time>
      </trkpt>
      <trkpt lat="45.88396" lon="7.07612">
        <ele>2762</ele>
        <time>2022-08-27T15:11:16Z</time>
      </trkpt>
      <trkpt lat="45.88397" lon="7.0761">
        <ele>2763</ele>
        <time>2022-08-27T15:11:19Z</time>
      </trkpt>
      <trkpt lat="45.88399" lon="7.07608">
        <ele>2763</ele>
        <time>2022-08-27T15:11:22Z</time>
      </trkpt>
      <trkpt lat="45.884" lon="7.07606">
        <ele>2763</ele>
        <time>2022-08-27T15:11:25Z</time>
      </trkpt>
      <trkpt lat="45.88402" lon="7.07603">
        <ele>2763</ele>
        <time>2022-08-27T15:11:28Z</time>
      </trkpt>
      <trkpt lat="45.88404" lon="7.07602">
        <ele>2765</ele>
        <time>2022-08-27T15:11:31Z</time>
      </trkpt>
      <trkpt lat="45.88405" lon="7.07599">
        <ele>2765</ele>
        <time>2022-08-27T15:11:34Z</time>
      </trkpt>
      <trkpt lat="45.88406" lon="7.07598">
        <ele>2766</ele>
        <time>2022-08-27T15:11:37Z</time>
      </trkpt>
      <trkpt lat="45.88408" lon="7.07596">
        <ele>2766</ele>
        <time>2022-08-27T15:11:40Z</time>
      </trkpt>
      <trkpt lat="45.88409" lon="7.07595">
        <ele>2767</ele>
        <time>2022-08-27T15:11:43Z</time>
      </trkpt>
      <trkpt lat="45.88412" lon="7.07593">
        <ele>2767</ele>
        <time>2022-08-27T15:11:47Z</time>
      </trkpt>
      <trkpt lat="45.88414" lon="7.07592">
        <ele>2768</ele>
        <time>2022-08-27T15:11:50Z</time>
      </trkpt>
      <trkpt lat="45.88415" lon="7.07592">
        <ele>2769</ele>
        <time>2022-08-27T15:11:53Z</time>
      </trkpt>
      <trkpt lat="45.88417" lon="7.07591">
        <ele>2769</ele>
        <time>2022-08-27T15:11:57Z</time>
      </trkpt>
      <trkpt lat="45.88419" lon="7.0759">
        <ele>2769</ele>
        <time>2022-08-27T15:12:00Z</time>
      </trkpt>
      <trkpt lat="45.88421" lon="7.07589">
        <ele>2770</ele>
        <time>2022-08-27T15:12:03Z</time>
      </trkpt>
      <trkpt lat="45.88424" lon="7.07589">
        <ele>2771</ele>
        <time>2022-08-27T15:12:06Z</time>
      </trkpt>
      <trkpt lat="45.88425" lon="7.07589">
        <ele>2771</ele>
        <time>2022-08-27T15:12:10Z</time>
      </trkpt>
      <trkpt lat="45.88428" lon="7.07588">
        <ele>2773</ele>
        <time>2022-08-27T15:12:15Z</time>
      </trkpt>
      <trkpt lat="45.88429" lon="7.07587">
        <ele>2773</ele>
        <time>2022-08-27T15:12:21Z</time>
      </trkpt>
      <trkpt lat="45.88431" lon="7.07584">
        <ele>2774</ele>
        <time>2022-08-27T15:12:24Z</time>
      </trkpt>
      <trkpt lat="45.88433" lon="7.07583">
        <ele>2774</ele>
        <time>2022-08-27T15:12:27Z</time>
      </trkpt>
      <trkpt lat="45.88434" lon="7.07581">
        <ele>2775</ele>
        <time>2022-08-27T15:12:30Z</time>
      </trkpt>
      <trkpt lat="45.88436" lon="7.0758">
        <ele>2775</ele>
        <time>2022-08-27T15:12:33Z</time>
      </trkpt>
      <trkpt lat="45.88438" lon="7.07579">
        <ele>2777</ele>
        <time>2022-08-27T15:12:37Z</time>
      </trkpt>
      <trkpt lat="45.8844" lon="7.07579">
        <ele>2778</ele>
        <time>2022-08-27T15:12:41Z</time>
      </trkpt>
      <trkpt lat="45.88442" lon="7.0758">
        <ele>2778</ele>
        <time>2022-08-27T15:12:45Z</time>
      </trkpt>
      <trkpt lat="45.88444" lon="7.07579">
        <ele>2778</ele>
        <time>2022-08-27T15:12:48Z</time>
      </trkpt>
      <trkpt lat="45.88447" lon="7.07579">
        <ele>2779</ele>
        <time>2022-08-27T15:12:52Z</time>
      </trkpt>
      <trkpt lat="45.88449" lon="7.07577">
        <ele>2779</ele>
        <time>2022-08-27T15:12:56Z</time>
      </trkpt>
      <trkpt lat="45.8845" lon="7.07575">
        <ele>2780</ele>
        <time>2022-08-27T15:12:59Z</time>
      </trkpt>
      <trkpt lat="45.88452" lon="7.07575">
        <ele>2780</ele>
        <time>2022-08-27T15:13:02Z</time>
      </trkpt>
      <trkpt lat="45.88454" lon="7.07574">
        <ele>2781</ele>
        <time>2022-08-27T15:13:05Z</time>
      </trkpt>
      <trkpt lat="45.88456" lon="7.07573">
        <ele>2781</ele>
        <time>2022-08-27T15:13:09Z</time>
      </trkpt>
      <trkpt lat="45.88458" lon="7.07572">
        <ele>2782</ele>
        <time>2022-08-27T15:13:12Z</time>
      </trkpt>
      <trkpt lat="45.8846" lon="7.07571">
        <ele>2782</ele>
        <time>2022-08-27T15:13:15Z</time>
      </trkpt>
      <trkpt lat="45.88462" lon="7.0757">
        <ele>2783</ele>
        <time>2022-08-27T15:13:18Z</time>
      </trkpt>
      <trkpt lat="45.88464" lon="7.07569">
        <ele>2785</ele>
        <time>2022-08-27T15:13:21Z</time>
      </trkpt>
      <trkpt lat="45.88466" lon="7.07569">
        <ele>2785</ele>
        <time>2022-08-27T15:13:24Z</time>
      </trkpt>
      <trkpt lat="45.88468" lon="7.07568">
        <ele>2785</ele>
        <time>2022-08-27T15:13:27Z</time>
      </trkpt>
      <trkpt lat="45.8847" lon="7.07567">
        <ele>2785</ele>
        <time>2022-08-27T15:13:30Z</time>
      </trkpt>
      <trkpt lat="45.88472" lon="7.07566">
        <ele>2786</ele>
        <time>2022-08-27T15:13:34Z</time>
      </trkpt>
      <trkpt lat="45.88474" lon="7.07563">
        <ele>2787</ele>
        <time>2022-08-27T15:13:37Z</time>
      </trkpt>
      <trkpt lat="45.88475" lon="7.07562">
        <ele>2787</ele>
        <time>2022-08-27T15:13:39Z</time>
      </trkpt>
      <trkpt lat="45.88477" lon="7.0756">
        <ele>2789</ele>
        <time>2022-08-27T15:13:42Z</time>
      </trkpt>
      <trkpt lat="45.88479" lon="7.07557">
        <ele>2789</ele>
        <time>2022-08-27T15:13:45Z</time>
      </trkpt>
      <trkpt lat="45.8848" lon="7.07555">
        <ele>2790</ele>
        <time>2022-08-27T15:13:48Z</time>
      </trkpt>
      <trkpt lat="45.88482" lon="7.07554">
        <ele>2790</ele>
        <time>2022-08-27T15:13:51Z</time>
      </trkpt>
      <trkpt lat="45.88484" lon="7.07552">
        <ele>2792</ele>
        <time>2022-08-27T15:13:54Z</time>
      </trkpt>
      <trkpt lat="45.88485" lon="7.07551">
        <ele>2792</ele>
        <time>2022-08-27T15:13:57Z</time>
      </trkpt>
      <trkpt lat="45.88487" lon="7.0755">
        <ele>2793</ele>
        <time>2022-08-27T15:14:00Z</time>
      </trkpt>
      <trkpt lat="45.88489" lon="7.07548">
        <ele>2793</ele>
        <time>2022-08-27T15:14:04Z</time>
      </trkpt>
      <trkpt lat="45.88491" lon="7.07547">
        <ele>2794</ele>
        <time>2022-08-27T15:14:08Z</time>
      </trkpt>
      <trkpt lat="45.88493" lon="7.07546">
        <ele>2794</ele>
        <time>2022-08-27T15:14:12Z</time>
      </trkpt>
      <trkpt lat="45.88495" lon="7.07544">
        <ele>2794</ele>
        <time>2022-08-27T15:14:15Z</time>
      </trkpt>
      <trkpt lat="45.88497" lon="7.07542">
        <ele>2795</ele>
        <time>2022-08-27T15:14:18Z</time>
      </trkpt>
      <trkpt lat="45.88499" lon="7.07541">
        <ele>2796</ele>
        <time>2022-08-27T15:14:21Z</time>
      </trkpt>
      <trkpt lat="45.885" lon="7.0754">
        <ele>2797</ele>
        <time>2022-08-27T15:14:25Z</time>
      </trkpt>
      <trkpt lat="45.88502" lon="7.07539">
        <ele>2797</ele>
        <time>2022-08-27T15:14:28Z</time>
      </trkpt>
      <trkpt lat="45.88504" lon="7.07537">
        <ele>2797</ele>
        <time>2022-08-27T15:14:32Z</time>
      </trkpt>
      <trkpt lat="45.88506" lon="7.07536">
        <ele>2798</ele>
        <time>2022-08-27T15:14:36Z</time>
      </trkpt>
      <trkpt lat="45.88508" lon="7.07534">
        <ele>2798</ele>
        <time>2022-08-27T15:14:40Z</time>
      </trkpt>
      <trkpt lat="45.88509" lon="7.07532">
        <ele>2799</ele>
        <time>2022-08-27T15:14:43Z</time>
      </trkpt>
      <trkpt lat="45.88511" lon="7.0753">
        <ele>2801</ele>
        <time>2022-08-27T15:14:46Z</time>
      </trkpt>
      <trkpt lat="45.88513" lon="7.07528">
        <ele>2801</ele>
        <time>2022-08-27T15:14:49Z</time>
      </trkpt>
      <trkpt lat="45.88515" lon="7.07526">
        <ele>2801</ele>
        <time>2022-08-27T15:14:52Z</time>
      </trkpt>
      <trkpt lat="45.88516" lon="7.07524">
        <ele>2801</ele>
        <time>2022-08-27T15:14:55Z</time>
      </trkpt>
      <trkpt lat="45.88518" lon="7.07522">
        <ele>2802</ele>
        <time>2022-08-27T15:14:58Z</time>
      </trkpt>
      <trkpt lat="45.8852" lon="7.0752">
        <ele>2803</ele>
        <time>2022-08-27T15:15:01Z</time>
      </trkpt>
      <trkpt lat="45.88522" lon="7.07519">
        <ele>2804</ele>
        <time>2022-08-27T15:15:05Z</time>
      </trkpt>
      <trkpt lat="45.88524" lon="7.07518">
        <ele>2804</ele>
        <time>2022-08-27T15:15:09Z</time>
      </trkpt>
      <trkpt lat="45.88526" lon="7.07517">
        <ele>2804</ele>
        <time>2022-08-27T15:15:12Z</time>
      </trkpt>
      <trkpt lat="45.88528" lon="7.07516">
        <ele>2804</ele>
        <time>2022-08-27T15:15:15Z</time>
      </trkpt>
      <trkpt lat="45.88529" lon="7.07515">
        <ele>2805</ele>
        <time>2022-08-27T15:15:19Z</time>
      </trkpt>
      <trkpt lat="45.88531" lon="7.07513">
        <ele>2805</ele>
        <time>2022-08-27T15:15:22Z</time>
      </trkpt>
      <trkpt lat="45.88533" lon="7.07512">
        <ele>2806</ele>
        <time>2022-08-27T15:15:25Z</time>
      </trkpt>
      <trkpt lat="45.88535" lon="7.07512">
        <ele>2807</ele>
        <time>2022-08-27T15:15:30Z</time>
      </trkpt>
      <trkpt lat="45.88537" lon="7.07511">
        <ele>2807</ele>
        <time>2022-08-27T15:15:33Z</time>
      </trkpt>
      <trkpt lat="45.88539" lon="7.0751">
        <ele>2807</ele>
        <time>2022-08-27T15:15:36Z</time>
      </trkpt>
      <trkpt lat="45.88541" lon="7.07511">
        <ele>2808</ele>
        <time>2022-08-27T15:15:40Z</time>
      </trkpt>
      <trkpt lat="45.88543" lon="7.07513">
        <ele>2809</ele>
        <time>2022-08-27T15:15:45Z</time>
      </trkpt>
      <trkpt lat="45.88545" lon="7.07513">
        <ele>2810</ele>
        <time>2022-08-27T15:15:50Z</time>
      </trkpt>
      <trkpt lat="45.88547" lon="7.07513">
        <ele>2811</ele>
        <time>2022-08-27T15:15:54Z</time>
      </trkpt>
      <trkpt lat="45.88549" lon="7.07513">
        <ele>2813</ele>
        <time>2022-08-27T15:15:57Z</time>
      </trkpt>
      <trkpt lat="45.88551" lon="7.07513">
        <ele>2813</ele>
        <time>2022-08-27T15:16:01Z</time>
      </trkpt>
      <trkpt lat="45.88553" lon="7.07514">
        <ele>2815</ele>
        <time>2022-08-27T15:16:04Z</time>
      </trkpt>
      <trkpt lat="45.88554" lon="7.07516">
        <ele>2814</ele>
        <time>2022-08-27T15:16:08Z</time>
      </trkpt>
      <trkpt lat="45.88555" lon="7.07518">
        <ele>2814</ele>
        <time>2022-08-27T15:16:11Z</time>
      </trkpt>
      <trkpt lat="45.88557" lon="7.0752">
        <ele>2815</ele>
        <time>2022-08-27T15:16:15Z</time>
      </trkpt>
      <trkpt lat="45.88558" lon="7.07523">
        <ele>2815</ele>
        <time>2022-08-27T15:16:18Z</time>
      </trkpt>
      <trkpt lat="45.88558" lon="7.07527">
        <ele>2816</ele>
        <time>2022-08-27T15:16:21Z</time>
      </trkpt>
      <trkpt lat="45.88558" lon="7.07529">
        <ele>2816</ele>
        <time>2022-08-27T15:16:24Z</time>
      </trkpt>
      <trkpt lat="45.88559" lon="7.07531">
        <ele>2817</ele>
        <time>2022-08-27T15:16:28Z</time>
      </trkpt>
      <trkpt lat="45.8856" lon="7.07534">
        <ele>2817</ele>
        <time>2022-08-27T15:16:31Z</time>
      </trkpt>
      <trkpt lat="45.8856" lon="7.07538">
        <ele>2818</ele>
        <time>2022-08-27T15:16:34Z</time>
      </trkpt>
      <trkpt lat="45.8856" lon="7.07541">
        <ele>2818</ele>
        <time>2022-08-27T15:16:37Z</time>
      </trkpt>
      <trkpt lat="45.8856" lon="7.07544">
        <ele>2819</ele>
        <time>2022-08-27T15:16:40Z</time>
      </trkpt>
      <trkpt lat="45.8856" lon="7.07547">
        <ele>2819</ele>
        <time>2022-08-27T15:16:43Z</time>
      </trkpt>
      <trkpt lat="45.8856" lon="7.07551">
        <ele>2820</ele>
        <time>2022-08-27T15:16:46Z</time>
      </trkpt>
      <trkpt lat="45.8856" lon="7.07554">
        <ele>2821</ele>
        <time>2022-08-27T15:16:49Z</time>
      </trkpt>
      <trkpt lat="45.8856" lon="7.07557">
        <ele>2822</ele>
        <time>2022-08-27T15:16:53Z</time>
      </trkpt>
      <trkpt lat="45.88561" lon="7.0756">
        <ele>2822</ele>
        <time>2022-08-27T15:16:55Z</time>
      </trkpt>
      <trkpt lat="45.88562" lon="7.07562">
        <ele>2822</ele>
        <time>2022-08-27T15:16:57Z</time>
      </trkpt>
      <trkpt lat="45.88562" lon="7.07566">
        <ele>2821</ele>
        <time>2022-08-27T15:17:00Z</time>
      </trkpt>
      <trkpt lat="45.88561" lon="7.07569">
        <ele>2822</ele>
        <time>2022-08-27T15:17:03Z</time>
      </trkpt>
      <trkpt lat="45.88561" lon="7.07572">
        <ele>2823</ele>
        <time>2022-08-27T15:17:07Z</time>
      </trkpt>
      <trkpt lat="45.88561" lon="7.07575">
        <ele>2823</ele>
        <time>2022-08-27T15:17:11Z</time>
      </trkpt>
      <trkpt lat="45.88561" lon="7.07578">
        <ele>2825</ele>
        <time>2022-08-27T15:17:14Z</time>
      </trkpt>
      <trkpt lat="45.88561" lon="7.07582">
        <ele>2823</ele>
        <time>2022-08-27T15:17:17Z</time>
      </trkpt>
      <trkpt lat="45.8856" lon="7.07585">
        <ele>2825</ele>
        <time>2022-08-27T15:17:20Z</time>
      </trkpt>
      <trkpt lat="45.8856" lon="7.07588">
        <ele>2826</ele>
        <time>2022-08-27T15:17:23Z</time>
      </trkpt>
      <trkpt lat="45.8856" lon="7.07591">
        <ele>2827</ele>
        <time>2022-08-27T15:17:27Z</time>
      </trkpt>
      <trkpt lat="45.88561" lon="7.07593">
        <ele>2827</ele>
        <time>2022-08-27T15:17:30Z</time>
      </trkpt>
      <trkpt lat="45.88562" lon="7.07596">
        <ele>2828</ele>
        <time>2022-08-27T15:17:33Z</time>
      </trkpt>
      <trkpt lat="45.88562" lon="7.07599">
        <ele>2828</ele>
        <time>2022-08-27T15:17:36Z</time>
      </trkpt>
      <trkpt lat="45.88563" lon="7.07601">
        <ele>2829</ele>
        <time>2022-08-27T15:17:39Z</time>
      </trkpt>
      <trkpt lat="45.88565" lon="7.07604">
        <ele>2829</ele>
        <time>2022-08-27T15:17:42Z</time>
      </trkpt>
      <trkpt lat="45.88565" lon="7.07607">
        <ele>2830</ele>
        <time>2022-08-27T15:17:45Z</time>
      </trkpt>
      <trkpt lat="45.88567" lon="7.0761">
        <ele>2830</ele>
        <time>2022-08-27T15:17:50Z</time>
      </trkpt>
      <trkpt lat="45.88568" lon="7.07611">
        <ele>2830</ele>
        <time>2022-08-27T15:17:52Z</time>
      </trkpt>
      <trkpt lat="45.88569" lon="7.07614">
        <ele>2831</ele>
        <time>2022-08-27T15:17:54Z</time>
      </trkpt>
      <trkpt lat="45.8857" lon="7.07616">
        <ele>2831</ele>
        <time>2022-08-27T15:17:57Z</time>
      </trkpt>
      <trkpt lat="45.88571" lon="7.07619">
        <ele>2832</ele>
        <time>2022-08-27T15:18:00Z</time>
      </trkpt>
      <trkpt lat="45.88573" lon="7.07621">
        <ele>2832</ele>
        <time>2022-08-27T15:18:04Z</time>
      </trkpt>
      <trkpt lat="45.88575" lon="7.07622">
        <ele>2832</ele>
        <time>2022-08-27T15:18:07Z</time>
      </trkpt>
      <trkpt lat="45.88576" lon="7.07624">
        <ele>2833</ele>
        <time>2022-08-27T15:18:10Z</time>
      </trkpt>
      <trkpt lat="45.88578" lon="7.07627">
        <ele>2834</ele>
        <time>2022-08-27T15:18:13Z</time>
      </trkpt>
      <trkpt lat="45.88579" lon="7.07629">
        <ele>2834</ele>
        <time>2022-08-27T15:18:16Z</time>
      </trkpt>
      <trkpt lat="45.8858" lon="7.07632">
        <ele>2835</ele>
        <time>2022-08-27T15:18:19Z</time>
      </trkpt>
      <trkpt lat="45.8858" lon="7.07635">
        <ele>2837</ele>
        <time>2022-08-27T15:18:22Z</time>
      </trkpt>
      <trkpt lat="45.8858" lon="7.07638">
        <ele>2837</ele>
        <time>2022-08-27T15:18:26Z</time>
      </trkpt>
      <trkpt lat="45.88581" lon="7.07641">
        <ele>2838</ele>
        <time>2022-08-27T15:18:29Z</time>
      </trkpt>
      <trkpt lat="45.88582" lon="7.07643">
        <ele>2838</ele>
        <time>2022-08-27T15:18:34Z</time>
      </trkpt>
      <trkpt lat="45.88583" lon="7.07646">
        <ele>2839</ele>
        <time>2022-08-27T15:18:37Z</time>
      </trkpt>
      <trkpt lat="45.88582" lon="7.07649">
        <ele>2840</ele>
        <time>2022-08-27T15:18:40Z</time>
      </trkpt>
      <trkpt lat="45.88583" lon="7.07653">
        <ele>2840</ele>
        <time>2022-08-27T15:18:43Z</time>
      </trkpt>
      <trkpt lat="45.88584" lon="7.07655">
        <ele>2840</ele>
        <time>2022-08-27T15:18:46Z</time>
      </trkpt>
      <trkpt lat="45.88585" lon="7.07657">
        <ele>2840</ele>
        <time>2022-08-27T15:18:49Z</time>
      </trkpt>
      <trkpt lat="45.88586" lon="7.0766">
        <ele>2841</ele>
        <time>2022-08-27T15:18:53Z</time>
      </trkpt>
      <trkpt lat="45.88587" lon="7.07663">
        <ele>2842</ele>
        <time>2022-08-27T15:18:57Z</time>
      </trkpt>
      <trkpt lat="45.88588" lon="7.07665">
        <ele>2842</ele>
        <time>2022-08-27T15:19:01Z</time>
      </trkpt>
      <trkpt lat="45.8859" lon="7.07666">
        <ele>2842</ele>
        <time>2022-08-27T15:19:04Z</time>
      </trkpt>
      <trkpt lat="45.88592" lon="7.07669">
        <ele>2843</ele>
        <time>2022-08-27T15:19:08Z</time>
      </trkpt>
      <trkpt lat="45.88593" lon="7.0767">
        <ele>2844</ele>
        <time>2022-08-27T15:19:11Z</time>
      </trkpt>
      <trkpt lat="45.88595" lon="7.07672">
        <ele>2845</ele>
        <time>2022-08-27T15:19:15Z</time>
      </trkpt>
      <trkpt lat="45.88596" lon="7.07675">
        <ele>2845</ele>
        <time>2022-08-27T15:19:19Z</time>
      </trkpt>
      <trkpt lat="45.88598" lon="7.07678">
        <ele>2846</ele>
        <time>2022-08-27T15:19:23Z</time>
      </trkpt>
      <trkpt lat="45.88598" lon="7.07681">
        <ele>2847</ele>
        <time>2022-08-27T15:19:28Z</time>
      </trkpt>
      <trkpt lat="45.886" lon="7.07683">
        <ele>2849</ele>
        <time>2022-08-27T15:19:31Z</time>
      </trkpt>
      <trkpt lat="45.88601" lon="7.07686">
        <ele>2849</ele>
        <time>2022-08-27T15:19:34Z</time>
      </trkpt>
      <trkpt lat="45.88601" lon="7.07689">
        <ele>2850</ele>
        <time>2022-08-27T15:19:37Z</time>
      </trkpt>
      <trkpt lat="45.88602" lon="7.07692">
        <ele>2850</ele>
        <time>2022-08-27T15:19:40Z</time>
      </trkpt>
      <trkpt lat="45.88603" lon="7.07695">
        <ele>2851</ele>
        <time>2022-08-27T15:19:44Z</time>
      </trkpt>
      <trkpt lat="45.88603" lon="7.07697">
        <ele>2851</ele>
        <time>2022-08-27T15:19:47Z</time>
      </trkpt>
      <trkpt lat="45.88604" lon="7.07701">
        <ele>2852</ele>
        <time>2022-08-27T15:19:51Z</time>
      </trkpt>
      <trkpt lat="45.88604" lon="7.07704">
        <ele>2853</ele>
        <time>2022-08-27T15:19:55Z</time>
      </trkpt>
      <trkpt lat="45.88606" lon="7.07706">
        <ele>2854</ele>
        <time>2022-08-27T15:20:00Z</time>
      </trkpt>
      <trkpt lat="45.88608" lon="7.07707">
        <ele>2855</ele>
        <time>2022-08-27T15:20:03Z</time>
      </trkpt>
      <trkpt lat="45.8861" lon="7.0771">
        <ele>2855</ele>
        <time>2022-08-27T15:20:07Z</time>
      </trkpt>
      <trkpt lat="45.88611" lon="7.07713">
        <ele>2855</ele>
        <time>2022-08-27T15:20:10Z</time>
      </trkpt>
      <trkpt lat="45.88613" lon="7.07714">
        <ele>2856</ele>
        <time>2022-08-27T15:20:13Z</time>
      </trkpt>
      <trkpt lat="45.88615" lon="7.07715">
        <ele>2856</ele>
        <time>2022-08-27T15:20:16Z</time>
      </trkpt>
      <trkpt lat="45.88617" lon="7.07717">
        <ele>2857</ele>
        <time>2022-08-27T15:20:20Z</time>
      </trkpt>
      <trkpt lat="45.8862" lon="7.07719">
        <ele>2857</ele>
        <time>2022-08-27T15:20:23Z</time>
      </trkpt>
      <trkpt lat="45.88622" lon="7.0772">
        <ele>2857</ele>
        <time>2022-08-27T15:20:26Z</time>
      </trkpt>
      <trkpt lat="45.88624" lon="7.07721">
        <ele>2857</ele>
        <time>2022-08-27T15:20:28Z</time>
      </trkpt>
      <trkpt lat="45.88626" lon="7.07722">
        <ele>2857</ele>
        <time>2022-08-27T15:20:31Z</time>
      </trkpt>
      <trkpt lat="45.88628" lon="7.07723">
        <ele>2858</ele>
        <time>2022-08-27T15:20:34Z</time>
      </trkpt>
      <trkpt lat="45.8863" lon="7.07723">
        <ele>2859</ele>
        <time>2022-08-27T15:20:37Z</time>
      </trkpt>
      <trkpt lat="45.88632" lon="7.07724">
        <ele>2859</ele>
        <time>2022-08-27T15:20:40Z</time>
      </trkpt>
      <trkpt lat="45.88635" lon="7.07726">
        <ele>2859</ele>
        <time>2022-08-27T15:20:43Z</time>
      </trkpt>
      <trkpt lat="45.88637" lon="7.07727">
        <ele>2860</ele>
        <time>2022-08-27T15:20:46Z</time>
      </trkpt>
      <trkpt lat="45.8864" lon="7.07727">
        <ele>2860</ele>
        <time>2022-08-27T15:20:49Z</time>
      </trkpt>
      <trkpt lat="45.88643" lon="7.07728">
        <ele>2860</ele>
        <time>2022-08-27T15:20:52Z</time>
      </trkpt>
      <trkpt lat="45.88645" lon="7.07728">
        <ele>2862</ele>
        <time>2022-08-27T15:20:54Z</time>
      </trkpt>
      <trkpt lat="45.88647" lon="7.07729">
        <ele>2862</ele>
        <time>2022-08-27T15:20:56Z</time>
      </trkpt>
      <trkpt lat="45.8865" lon="7.0773">
        <ele>2862</ele>
        <time>2022-08-27T15:20:58Z</time>
      </trkpt>
      <trkpt lat="45.88652" lon="7.07731">
        <ele>2862</ele>
        <time>2022-08-27T15:21:00Z</time>
      </trkpt>
      <trkpt lat="45.88654" lon="7.07732">
        <ele>2862</ele>
        <time>2022-08-27T15:21:02Z</time>
      </trkpt>
      <trkpt lat="45.88657" lon="7.07733">
        <ele>2862</ele>
        <time>2022-08-27T15:21:04Z</time>
      </trkpt>
      <trkpt lat="45.88659" lon="7.07734">
        <ele>2862</ele>
        <time>2022-08-27T15:21:06Z</time>
      </trkpt>
      <trkpt lat="45.88661" lon="7.07736">
        <ele>2863</ele>
        <time>2022-08-27T15:21:08Z</time>
      </trkpt>
      <trkpt lat="45.88663" lon="7.07738">
        <ele>2863</ele>
        <time>2022-08-27T15:21:10Z</time>
      </trkpt>
      <trkpt lat="45.88665" lon="7.07739">
        <ele>2863</ele>
        <time>2022-08-27T15:21:12Z</time>
      </trkpt>
      <trkpt lat="45.88667" lon="7.0774">
        <ele>2863</ele>
        <time>2022-08-27T15:21:14Z</time>
      </trkpt>
      <trkpt lat="45.88669" lon="7.07741">
        <ele>2863</ele>
        <time>2022-08-27T15:21:16Z</time>
      </trkpt>
      <trkpt lat="45.88672" lon="7.07741">
        <ele>2863</ele>
        <time>2022-08-27T15:21:18Z</time>
      </trkpt>
      <trkpt lat="45.88674" lon="7.07741">
        <ele>2864</ele>
        <time>2022-08-27T15:21:20Z</time>
      </trkpt>
      <trkpt lat="45.88676" lon="7.07742">
        <ele>2864</ele>
        <time>2022-08-27T15:21:22Z</time>
      </trkpt>
      <trkpt lat="45.88679" lon="7.07743">
        <ele>2864</ele>
        <time>2022-08-27T15:21:24Z</time>
      </trkpt>
      <trkpt lat="45.8868" lon="7.07744">
        <ele>2864</ele>
        <time>2022-08-27T15:21:26Z</time>
      </trkpt>
      <trkpt lat="45.88682" lon="7.07745">
        <ele>2865</ele>
        <time>2022-08-27T15:21:28Z</time>
      </trkpt>
      <trkpt lat="45.88684" lon="7.07746">
        <ele>2865</ele>
        <time>2022-08-27T15:21:30Z</time>
      </trkpt>
      <trkpt lat="45.88687" lon="7.07748">
        <ele>2865</ele>
        <time>2022-08-27T15:21:32Z</time>
      </trkpt>
      <trkpt lat="45.88689" lon="7.07748">
        <ele>2865</ele>
        <time>2022-08-27T15:21:34Z</time>
      </trkpt>
      <trkpt lat="45.88692" lon="7.07748">
        <ele>2865</ele>
        <time>2022-08-27T15:21:37Z</time>
      </trkpt>
      <trkpt lat="45.88694" lon="7.07749">
        <ele>2866</ele>
        <time>2022-08-27T15:21:40Z</time>
      </trkpt>
      <trkpt lat="45.88696" lon="7.0775">
        <ele>2866</ele>
        <time>2022-08-27T15:21:43Z</time>
      </trkpt>
      <trkpt lat="45.88699" lon="7.0775">
        <ele>2866</ele>
        <time>2022-08-27T15:21:46Z</time>
      </trkpt>
      <trkpt lat="45.88701" lon="7.07751">
        <ele>2866</ele>
        <time>2022-08-27T15:21:48Z</time>
      </trkpt>
      <trkpt lat="45.88703" lon="7.07751">
        <ele>2866</ele>
        <time>2022-08-27T15:21:50Z</time>
      </trkpt>
      <trkpt lat="45.88705" lon="7.07752">
        <ele>2867</ele>
        <time>2022-08-27T15:21:52Z</time>
      </trkpt>
      <trkpt lat="45.88708" lon="7.07752">
        <ele>2867</ele>
        <time>2022-08-27T15:21:54Z</time>
      </trkpt>
      <trkpt lat="45.88711" lon="7.07753">
        <ele>2867</ele>
        <time>2022-08-27T15:21:56Z</time>
      </trkpt>
      <trkpt lat="45.88713" lon="7.07754">
        <ele>2867</ele>
        <time>2022-08-27T15:21:58Z</time>
      </trkpt>
      <trkpt lat="45.88716" lon="7.07755">
        <ele>2867</ele>
        <time>2022-08-27T15:22:00Z</time>
      </trkpt>
      <trkpt lat="45.88718" lon="7.07756">
        <ele>2866</ele>
        <time>2022-08-27T15:22:02Z</time>
      </trkpt>
      <trkpt lat="45.8872" lon="7.07757">
        <ele>2866</ele>
        <time>2022-08-27T15:22:04Z</time>
      </trkpt>
      <trkpt lat="45.88722" lon="7.07758">
        <ele>2866</ele>
        <time>2022-08-27T15:22:06Z</time>
      </trkpt>
      <trkpt lat="45.88724" lon="7.0776">
        <ele>2867</ele>
        <time>2022-08-27T15:22:08Z</time>
      </trkpt>
      <trkpt lat="45.88726" lon="7.07761">
        <ele>2867</ele>
        <time>2022-08-27T15:22:10Z</time>
      </trkpt>
      <trkpt lat="45.88729" lon="7.07761">
        <ele>2867</ele>
        <time>2022-08-27T15:22:12Z</time>
      </trkpt>
      <trkpt lat="45.88731" lon="7.07762">
        <ele>2867</ele>
        <time>2022-08-27T15:22:14Z</time>
      </trkpt>
      <trkpt lat="45.88733" lon="7.07763">
        <ele>2867</ele>
        <time>2022-08-27T15:22:16Z</time>
      </trkpt>
      <trkpt lat="45.88736" lon="7.07763">
        <ele>2868</ele>
        <time>2022-08-27T15:22:18Z</time>
      </trkpt>
      <trkpt lat="45.88738" lon="7.07764">
        <ele>2868</ele>
        <time>2022-08-27T15:22:20Z</time>
      </trkpt>
      <trkpt lat="45.8874" lon="7.07764">
        <ele>2867</ele>
        <time>2022-08-27T15:22:22Z</time>
      </trkpt>
      <trkpt lat="45.88742" lon="7.07765">
        <ele>2868</ele>
        <time>2022-08-27T15:22:24Z</time>
      </trkpt>
      <trkpt lat="45.88744" lon="7.07766">
        <ele>2868</ele>
        <time>2022-08-27T15:22:26Z</time>
      </trkpt>
      <trkpt lat="45.88747" lon="7.07767">
        <ele>2869</ele>
        <time>2022-08-27T15:22:29Z</time>
      </trkpt>
      <trkpt lat="45.88748" lon="7.07768">
        <ele>2869</ele>
        <time>2022-08-27T15:22:31Z</time>
      </trkpt>
      <trkpt lat="45.8875" lon="7.07769">
        <ele>2869</ele>
        <time>2022-08-27T15:22:33Z</time>
      </trkpt>
      <trkpt lat="45.88753" lon="7.07769">
        <ele>2869</ele>
        <time>2022-08-27T15:22:35Z</time>
      </trkpt>
      <trkpt lat="45.88755" lon="7.07769">
        <ele>2869</ele>
        <time>2022-08-27T15:22:37Z</time>
      </trkpt>
      <trkpt lat="45.88757" lon="7.07769">
        <ele>2869</ele>
        <time>2022-08-27T15:22:39Z</time>
      </trkpt>
      <trkpt lat="45.88759" lon="7.07769">
        <ele>2870</ele>
        <time>2022-08-27T15:22:41Z</time>
      </trkpt>
      <trkpt lat="45.88762" lon="7.0777">
        <ele>2870</ele>
        <time>2022-08-27T15:22:43Z</time>
      </trkpt>
      <trkpt lat="45.88764" lon="7.07771">
        <ele>2870</ele>
        <time>2022-08-27T15:22:45Z</time>
      </trkpt>
      <trkpt lat="45.88766" lon="7.07772">
        <ele>2870</ele>
        <time>2022-08-27T15:22:47Z</time>
      </trkpt>
      <trkpt lat="45.88768" lon="7.07772">
        <ele>2870</ele>
        <time>2022-08-27T15:22:50Z</time>
      </trkpt>
      <trkpt lat="45.8877" lon="7.07773">
        <ele>2871</ele>
        <time>2022-08-27T15:22:53Z</time>
      </trkpt>
      <trkpt lat="45.88772" lon="7.07774">
        <ele>2871</ele>
        <time>2022-08-27T15:22:55Z</time>
      </trkpt>
      <trkpt lat="45.88774" lon="7.07775">
        <ele>2871</ele>
        <time>2022-08-27T15:22:57Z</time>
      </trkpt>
      <trkpt lat="45.88776" lon="7.07776">
        <ele>2872</ele>
        <time>2022-08-27T15:22:59Z</time>
      </trkpt>
      <trkpt lat="45.88778" lon="7.07777">
        <ele>2872</ele>
        <time>2022-08-27T15:23:01Z</time>
      </trkpt>
      <trkpt lat="45.8878" lon="7.07778">
        <ele>2872</ele>
        <time>2022-08-27T15:23:03Z</time>
      </trkpt>
      <trkpt lat="45.88782" lon="7.07778">
        <ele>2874</ele>
        <time>2022-08-27T15:23:05Z</time>
      </trkpt>
      <trkpt lat="45.88784" lon="7.07779">
        <ele>2875</ele>
        <time>2022-08-27T15:23:07Z</time>
      </trkpt>
      <trkpt lat="45.88786" lon="7.07779">
        <ele>2875</ele>
        <time>2022-08-27T15:23:09Z</time>
      </trkpt>
      <trkpt lat="45.88788" lon="7.0778">
        <ele>2875</ele>
        <time>2022-08-27T15:23:11Z</time>
      </trkpt>
      <trkpt lat="45.8879" lon="7.07782">
        <ele>2875</ele>
        <time>2022-08-27T15:23:13Z</time>
      </trkpt>
      <trkpt lat="45.88792" lon="7.07782">
        <ele>2875</ele>
        <time>2022-08-27T15:23:15Z</time>
      </trkpt>
      <trkpt lat="45.88794" lon="7.07781">
        <ele>2875</ele>
        <time>2022-08-27T15:23:17Z</time>
      </trkpt>
      <trkpt lat="45.88796" lon="7.07781">
        <ele>2875</ele>
        <time>2022-08-27T15:23:19Z</time>
      </trkpt>
      <trkpt lat="45.88798" lon="7.07781">
        <ele>2875</ele>
        <time>2022-08-27T15:23:21Z</time>
      </trkpt>
      <trkpt lat="45.88801" lon="7.0778">
        <ele>2875</ele>
        <time>2022-08-27T15:23:23Z</time>
      </trkpt>
      <trkpt lat="45.88803" lon="7.07779">
        <ele>2875</ele>
        <time>2022-08-27T15:23:25Z</time>
      </trkpt>
      <trkpt lat="45.88805" lon="7.07779">
        <ele>2876</ele>
        <time>2022-08-27T15:23:27Z</time>
      </trkpt>
      <trkpt lat="45.88807" lon="7.07779">
        <ele>2876</ele>
        <time>2022-08-27T15:23:29Z</time>
      </trkpt>
      <trkpt lat="45.8881" lon="7.07779">
        <ele>2877</ele>
        <time>2022-08-27T15:23:31Z</time>
      </trkpt>
      <trkpt lat="45.88812" lon="7.07779">
        <ele>2877</ele>
        <time>2022-08-27T15:23:33Z</time>
      </trkpt>
      <trkpt lat="45.88814" lon="7.07779">
        <ele>2877</ele>
        <time>2022-08-27T15:23:35Z</time>
      </trkpt>
      <trkpt lat="45.88817" lon="7.07779">
        <ele>2876</ele>
        <time>2022-08-27T15:23:37Z</time>
      </trkpt>
      <trkpt lat="45.88819" lon="7.0778">
        <ele>2877</ele>
        <time>2022-08-27T15:23:39Z</time>
      </trkpt>
      <trkpt lat="45.88821" lon="7.0778">
        <ele>2877</ele>
        <time>2022-08-27T15:23:41Z</time>
      </trkpt>
      <trkpt lat="45.88823" lon="7.0778">
        <ele>2877</ele>
        <time>2022-08-27T15:23:43Z</time>
      </trkpt>
      <trkpt lat="45.88826" lon="7.0778">
        <ele>2878</ele>
        <time>2022-08-27T15:23:46Z</time>
      </trkpt>
      <trkpt lat="45.88829" lon="7.0778">
        <ele>2878</ele>
        <time>2022-08-27T15:23:49Z</time>
      </trkpt>
      <trkpt lat="45.88831" lon="7.07781">
        <ele>2878</ele>
        <time>2022-08-27T15:23:52Z</time>
      </trkpt>
      <trkpt lat="45.88833" lon="7.07781">
        <ele>2878</ele>
        <time>2022-08-27T15:23:54Z</time>
      </trkpt>
      <trkpt lat="45.88835" lon="7.07781">
        <ele>2878</ele>
        <time>2022-08-27T15:23:56Z</time>
      </trkpt>
      <trkpt lat="45.88837" lon="7.07781">
        <ele>2879</ele>
        <time>2022-08-27T15:23:58Z</time>
      </trkpt>
      <trkpt lat="45.88839" lon="7.07781">
        <ele>2879</ele>
        <time>2022-08-27T15:24:00Z</time>
      </trkpt>
      <trkpt lat="45.88842" lon="7.0778">
        <ele>2879</ele>
        <time>2022-08-27T15:24:03Z</time>
      </trkpt>
      <trkpt lat="45.88844" lon="7.0778">
        <ele>2879</ele>
        <time>2022-08-27T15:24:05Z</time>
      </trkpt>
      <trkpt lat="45.88846" lon="7.0778">
        <ele>2879</ele>
        <time>2022-08-27T15:24:07Z</time>
      </trkpt>
      <trkpt lat="45.88848" lon="7.0778">
        <ele>2880</ele>
        <time>2022-08-27T15:24:09Z</time>
      </trkpt>
      <trkpt lat="45.8885" lon="7.0778">
        <ele>2880</ele>
        <time>2022-08-27T15:24:11Z</time>
      </trkpt>
      <trkpt lat="45.88853" lon="7.07779">
        <ele>2880</ele>
        <time>2022-08-27T15:24:14Z</time>
      </trkpt>
      <trkpt lat="45.88855" lon="7.07779">
        <ele>2881</ele>
        <time>2022-08-27T15:24:16Z</time>
      </trkpt>
      <trkpt lat="45.88857" lon="7.07779">
        <ele>2881</ele>
        <time>2022-08-27T15:24:18Z</time>
      </trkpt>
      <trkpt lat="45.8886" lon="7.07779">
        <ele>2882</ele>
        <time>2022-08-27T15:24:21Z</time>
      </trkpt>
      <trkpt lat="45.88862" lon="7.0778">
        <ele>2882</ele>
        <time>2022-08-27T15:24:23Z</time>
      </trkpt>
      <trkpt lat="45.88864" lon="7.0778">
        <ele>2883</ele>
        <time>2022-08-27T15:24:26Z</time>
      </trkpt>
      <trkpt lat="45.88866" lon="7.07781">
        <ele>2883</ele>
        <time>2022-08-27T15:24:29Z</time>
      </trkpt>
      <trkpt lat="45.88868" lon="7.0778">
        <ele>2884</ele>
        <time>2022-08-27T15:24:32Z</time>
      </trkpt>
      <trkpt lat="45.8887" lon="7.0778">
        <ele>2883</ele>
        <time>2022-08-27T15:24:35Z</time>
      </trkpt>
      <trkpt lat="45.88872" lon="7.0778">
        <ele>2884</ele>
        <time>2022-08-27T15:24:38Z</time>
      </trkpt>
      <trkpt lat="45.88875" lon="7.0778">
        <ele>2886</ele>
        <time>2022-08-27T15:24:41Z</time>
      </trkpt>
      <trkpt lat="45.88877" lon="7.07781">
        <ele>2886</ele>
        <time>2022-08-27T15:24:44Z</time>
      </trkpt>
      <trkpt lat="45.8888" lon="7.07782">
        <ele>2886</ele>
        <time>2022-08-27T15:24:47Z</time>
      </trkpt>
      <trkpt lat="45.88882" lon="7.07783">
        <ele>2886</ele>
        <time>2022-08-27T15:24:50Z</time>
      </trkpt>
      <trkpt lat="45.88885" lon="7.07784">
        <ele>2887</ele>
        <time>2022-08-27T15:24:53Z</time>
      </trkpt>
      <trkpt lat="45.88888" lon="7.07785">
        <ele>2887</ele>
        <time>2022-08-27T15:24:56Z</time>
      </trkpt>
      <trkpt lat="45.8889" lon="7.07786">
        <ele>2888</ele>
        <time>2022-08-27T15:24:59Z</time>
      </trkpt>
      <trkpt lat="45.88891" lon="7.07787">
        <ele>2889</ele>
        <time>2022-08-27T15:25:02Z</time>
      </trkpt>
      <trkpt lat="45.88893" lon="7.07788">
        <ele>2889</ele>
        <time>2022-08-27T15:25:05Z</time>
      </trkpt>
      <trkpt lat="45.88895" lon="7.07789">
        <ele>2890</ele>
        <time>2022-08-27T15:25:09Z</time>
      </trkpt>
      <trkpt lat="45.88897" lon="7.0779">
        <ele>2891</ele>
        <time>2022-08-27T15:25:12Z</time>
      </trkpt>
      <trkpt lat="45.88897" lon="7.0779">
        <ele>2890</ele>
        <time>2022-08-27T15:25:25Z</time>
      </trkpt>
      <trkpt lat="45.88899" lon="7.07791">
        <ele>2891</ele>
        <time>2022-08-27T15:25:29Z</time>
      </trkpt>
      <trkpt lat="45.88901" lon="7.0779">
        <ele>2891</ele>
        <time>2022-08-27T15:25:32Z</time>
      </trkpt>
      <trkpt lat="45.88903" lon="7.07789">
        <ele>2891</ele>
        <time>2022-08-27T15:25:35Z</time>
      </trkpt>
      <trkpt lat="45.88903" lon="7.07789">
        <ele>2888</ele>
        <time>2022-08-27T15:25:53Z</time>
      </trkpt>
      <trkpt lat="45.88904" lon="7.07791">
        <ele>2887</ele>
        <time>2022-08-27T15:25:57Z</time>
      </trkpt>
      <trkpt lat="45.88905" lon="7.07794">
        <ele>2886</ele>
        <time>2022-08-27T15:26:00Z</time>
      </trkpt>
      <trkpt lat="45.88906" lon="7.07797">
        <ele>2884</ele>
        <time>2022-08-27T15:26:02Z</time>
      </trkpt>
      <trkpt lat="45.88907" lon="7.078">
        <ele>2883</ele>
        <time>2022-08-27T15:26:05Z</time>
      </trkpt>
      <trkpt lat="45.88909" lon="7.07803">
        <ele>2883</ele>
        <time>2022-08-27T15:26:08Z</time>
      </trkpt>
      <trkpt lat="45.8891" lon="7.07805">
        <ele>2884</ele>
        <time>2022-08-27T15:26:10Z</time>
      </trkpt>
      <trkpt lat="45.88912" lon="7.07807">
        <ele>2883</ele>
        <time>2022-08-27T15:26:12Z</time>
      </trkpt>
      <trkpt lat="45.88914" lon="7.07808">
        <ele>2883</ele>
        <time>2022-08-27T15:26:15Z</time>
      </trkpt>
      <trkpt lat="45.88916" lon="7.0781">
        <ele>2880</ele>
        <time>2022-08-27T15:26:18Z</time>
      </trkpt>
      <trkpt lat="45.88919" lon="7.07811">
        <ele>2879</ele>
        <time>2022-08-27T15:26:21Z</time>
      </trkpt>
      <trkpt lat="45.88921" lon="7.07811">
        <ele>2879</ele>
        <time>2022-08-27T15:26:23Z</time>
      </trkpt>
      <trkpt lat="45.88923" lon="7.07811">
        <ele>2879</ele>
        <time>2022-08-27T15:26:25Z</time>
      </trkpt>
      <trkpt lat="45.88925" lon="7.0781">
        <ele>2878</ele>
        <time>2022-08-27T15:26:28Z</time>
      </trkpt>
      <trkpt lat="45.88928" lon="7.07809">
        <ele>2877</ele>
        <time>2022-08-27T15:26:32Z</time>
      </trkpt>
      <trkpt lat="45.8893" lon="7.07808">
        <ele>2877</ele>
        <time>2022-08-27T15:26:34Z</time>
      </trkpt>
      <trkpt lat="45.88933" lon="7.07807">
        <ele>2876</ele>
        <time>2022-08-27T15:26:36Z</time>
      </trkpt>
      <trkpt lat="45.88935" lon="7.07807">
        <ele>2876</ele>
        <time>2022-08-27T15:26:38Z</time>
      </trkpt>
      <trkpt lat="45.88937" lon="7.07807">
        <ele>2876</ele>
        <time>2022-08-27T15:26:40Z</time>
      </trkpt>
      <trkpt lat="45.8894" lon="7.07807">
        <ele>2876</ele>
        <time>2022-08-27T15:26:42Z</time>
      </trkpt>
      <trkpt lat="45.88942" lon="7.07809">
        <ele>2875</ele>
        <time>2022-08-27T15:26:44Z</time>
      </trkpt>
      <trkpt lat="45.88945" lon="7.0781">
        <ele>2875</ele>
        <time>2022-08-27T15:26:46Z</time>
      </trkpt>
      <trkpt lat="45.88948" lon="7.0781">
        <ele>2874</ele>
        <time>2022-08-27T15:26:48Z</time>
      </trkpt>
      <trkpt lat="45.8895" lon="7.0781">
        <ele>2874</ele>
        <time>2022-08-27T15:26:50Z</time>
      </trkpt>
      <trkpt lat="45.88953" lon="7.0781">
        <ele>2872</ele>
        <time>2022-08-27T15:26:52Z</time>
      </trkpt>
      <trkpt lat="45.88955" lon="7.0781">
        <ele>2872</ele>
        <time>2022-08-27T15:26:54Z</time>
      </trkpt>
      <trkpt lat="45.88957" lon="7.07809">
        <ele>2872</ele>
        <time>2022-08-27T15:26:56Z</time>
      </trkpt>
      <trkpt lat="45.88959" lon="7.07809">
        <ele>2874</ele>
        <time>2022-08-27T15:26:58Z</time>
      </trkpt>
      <trkpt lat="45.88962" lon="7.0781">
        <ele>2872</ele>
        <time>2022-08-27T15:27:00Z</time>
      </trkpt>
      <trkpt lat="45.88964" lon="7.07811">
        <ele>2872</ele>
        <time>2022-08-27T15:27:02Z</time>
      </trkpt>
      <trkpt lat="45.88967" lon="7.07811">
        <ele>2872</ele>
        <time>2022-08-27T15:27:04Z</time>
      </trkpt>
      <trkpt lat="45.88969" lon="7.07812">
        <ele>2872</ele>
        <time>2022-08-27T15:27:06Z</time>
      </trkpt>
      <trkpt lat="45.88971" lon="7.07812">
        <ele>2872</ele>
        <time>2022-08-27T15:27:09Z</time>
      </trkpt>
      <trkpt lat="45.88974" lon="7.07812">
        <ele>2872</ele>
        <time>2022-08-27T15:27:12Z</time>
      </trkpt>
      <trkpt lat="45.88976" lon="7.0781">
        <ele>2871</ele>
        <time>2022-08-27T15:27:14Z</time>
      </trkpt>
      <trkpt lat="45.88978" lon="7.07809">
        <ele>2871</ele>
        <time>2022-08-27T15:27:16Z</time>
      </trkpt>
      <trkpt lat="45.8898" lon="7.07808">
        <ele>2871</ele>
        <time>2022-08-27T15:27:18Z</time>
      </trkpt>
      <trkpt lat="45.88982" lon="7.07807">
        <ele>2871</ele>
        <time>2022-08-27T15:27:20Z</time>
      </trkpt>
      <trkpt lat="45.88984" lon="7.07806">
        <ele>2871</ele>
        <time>2022-08-27T15:27:22Z</time>
      </trkpt>
      <trkpt lat="45.88986" lon="7.07805">
        <ele>2870</ele>
        <time>2022-08-27T15:27:24Z</time>
      </trkpt>
      <trkpt lat="45.88988" lon="7.07805">
        <ele>2870</ele>
        <time>2022-08-27T15:27:26Z</time>
      </trkpt>
      <trkpt lat="45.8899" lon="7.07804">
        <ele>2870</ele>
        <time>2022-08-27T15:27:28Z</time>
      </trkpt>
      <trkpt lat="45.88993" lon="7.07804">
        <ele>2870</ele>
        <time>2022-08-27T15:27:30Z</time>
      </trkpt>
      <trkpt lat="45.88995" lon="7.07803">
        <ele>2870</ele>
        <time>2022-08-27T15:27:31Z</time>
      </trkpt>
      <trkpt lat="45.88997" lon="7.07803">
        <ele>2870</ele>
        <time>2022-08-27T15:27:32Z</time>
      </trkpt>
      <trkpt lat="45.88999" lon="7.07803">
        <ele>2869</ele>
        <time>2022-08-27T15:27:33Z</time>
      </trkpt>
      <trkpt lat="45.89001" lon="7.07803">
        <ele>2869</ele>
        <time>2022-08-27T15:27:34Z</time>
      </trkpt>
      <trkpt lat="45.89003" lon="7.07805">
        <ele>2869</ele>
        <time>2022-08-27T15:27:35Z</time>
      </trkpt>
      <trkpt lat="45.89005" lon="7.07806">
        <ele>2869</ele>
        <time>2022-08-27T15:27:36Z</time>
      </trkpt>
      <trkpt lat="45.89008" lon="7.07807">
        <ele>2869</ele>
        <time>2022-08-27T15:27:37Z</time>
      </trkpt>
      <trkpt lat="45.89009" lon="7.07807">
        <ele>2868</ele>
        <time>2022-08-27T15:27:38Z</time>
      </trkpt>
      <trkpt lat="45.89011" lon="7.07807">
        <ele>2868</ele>
        <time>2022-08-27T15:27:39Z</time>
      </trkpt>
      <trkpt lat="45.89012" lon="7.07806">
        <ele>2868</ele>
        <time>2022-08-27T15:27:40Z</time>
      </trkpt>
      <trkpt lat="45.89017" lon="7.07803">
        <ele>2868</ele>
        <time>2022-08-27T15:27:42Z</time>
      </trkpt>
      <trkpt lat="45.89018" lon="7.07803">
        <ele>2868</ele>
        <time>2022-08-27T15:27:43Z</time>
      </trkpt>
      <trkpt lat="45.89019" lon="7.07803">
        <ele>2868</ele>
        <time>2022-08-27T15:27:44Z</time>
      </trkpt>
      <trkpt lat="45.89023" lon="7.07804">
        <ele>2867</ele>
        <time>2022-08-27T15:27:46Z</time>
      </trkpt>
      <trkpt lat="45.89025" lon="7.07804">
        <ele>2867</ele>
        <time>2022-08-27T15:27:47Z</time>
      </trkpt>
      <trkpt lat="45.89026" lon="7.07804">
        <ele>2867</ele>
        <time>2022-08-27T15:27:48Z</time>
      </trkpt>
      <trkpt lat="45.89029" lon="7.07804">
        <ele>2867</ele>
        <time>2022-08-27T15:27:49Z</time>
      </trkpt>
      <trkpt lat="45.8903" lon="7.07804">
        <ele>2867</ele>
        <time>2022-08-27T15:27:50Z</time>
      </trkpt>
      <trkpt lat="45.89033" lon="7.07804">
        <ele>2866</ele>
        <time>2022-08-27T15:27:51Z</time>
      </trkpt>
      <trkpt lat="45.89035" lon="7.07803">
        <ele>2866</ele>
        <time>2022-08-27T15:27:52Z</time>
      </trkpt>
      <trkpt lat="45.89038" lon="7.07802">
        <ele>2866</ele>
        <time>2022-08-27T15:27:53Z</time>
      </trkpt>
      <trkpt lat="45.89039" lon="7.07802">
        <ele>2865</ele>
        <time>2022-08-27T15:27:54Z</time>
      </trkpt>
      <trkpt lat="45.89041" lon="7.07801">
        <ele>2865</ele>
        <time>2022-08-27T15:27:55Z</time>
      </trkpt>
      <trkpt lat="45.89043" lon="7.078">
        <ele>2865</ele>
        <time>2022-08-27T15:27:56Z</time>
      </trkpt>
      <trkpt lat="45.89046" lon="7.078">
        <ele>2865</ele>
        <time>2022-08-27T15:27:58Z</time>
      </trkpt>
      <trkpt lat="45.8905" lon="7.078">
        <ele>2865</ele>
        <time>2022-08-27T15:28:00Z</time>
      </trkpt>
      <trkpt lat="45.89051" lon="7.07801">
        <ele>2865</ele>
        <time>2022-08-27T15:28:01Z</time>
      </trkpt>
      <trkpt lat="45.89054" lon="7.07801">
        <ele>2865</ele>
        <time>2022-08-27T15:28:03Z</time>
      </trkpt>
      <trkpt lat="45.89057" lon="7.07803">
        <ele>2865</ele>
        <time>2022-08-27T15:28:05Z</time>
      </trkpt>
      <trkpt lat="45.89059" lon="7.07803">
        <ele>2865</ele>
        <time>2022-08-27T15:28:06Z</time>
      </trkpt>
      <trkpt lat="45.89062" lon="7.07806">
        <ele>2864</ele>
        <time>2022-08-27T15:28:08Z</time>
      </trkpt>
      <trkpt lat="45.89066" lon="7.07809">
        <ele>2864</ele>
        <time>2022-08-27T15:28:10Z</time>
      </trkpt>
      <trkpt lat="45.89066" lon="7.0781">
        <ele>2863</ele>
        <time>2022-08-27T15:28:11Z</time>
      </trkpt>
      <trkpt lat="45.89069" lon="7.07813">
        <ele>2863</ele>
        <time>2022-08-27T15:28:13Z</time>
      </trkpt>
      <trkpt lat="45.8907" lon="7.07815">
        <ele>2863</ele>
        <time>2022-08-27T15:28:14Z</time>
      </trkpt>
      <trkpt lat="45.89072" lon="7.07817">
        <ele>2863</ele>
        <time>2022-08-27T15:28:15Z</time>
      </trkpt>
      <trkpt lat="45.89073" lon="7.07818">
        <ele>2863</ele>
        <time>2022-08-27T15:28:16Z</time>
      </trkpt>
      <trkpt lat="45.89076" lon="7.07821">
        <ele>2863</ele>
        <time>2022-08-27T15:28:18Z</time>
      </trkpt>
      <trkpt lat="45.89078" lon="7.07825">
        <ele>2863</ele>
        <time>2022-08-27T15:28:20Z</time>
      </trkpt>
      <trkpt lat="45.89079" lon="7.07827">
        <ele>2863</ele>
        <time>2022-08-27T15:28:21Z</time>
      </trkpt>
      <trkpt lat="45.89081" lon="7.07828">
        <ele>2862</ele>
        <time>2022-08-27T15:28:22Z</time>
      </trkpt>
      <trkpt lat="45.89082" lon="7.0783">
        <ele>2862</ele>
        <time>2022-08-27T15:28:23Z</time>
      </trkpt>
      <trkpt lat="45.89084" lon="7.07831">
        <ele>2862</ele>
        <time>2022-08-27T15:28:24Z</time>
      </trkpt>
      <trkpt lat="45.89087" lon="7.07834">
        <ele>2860</ele>
        <time>2022-08-27T15:28:26Z</time>
      </trkpt>
      <trkpt lat="45.8909" lon="7.07835">
        <ele>2860</ele>
        <time>2022-08-27T15:28:28Z</time>
      </trkpt>
      <trkpt lat="45.89093" lon="7.07837">
        <ele>2860</ele>
        <time>2022-08-27T15:28:30Z</time>
      </trkpt>
      <trkpt lat="45.89096" lon="7.07839">
        <ele>2860</ele>
        <time>2022-08-27T15:28:32Z</time>
      </trkpt>
      <trkpt lat="45.89099" lon="7.07842">
        <ele>2859</ele>
        <time>2022-08-27T15:28:34Z</time>
      </trkpt>
      <trkpt lat="45.891" lon="7.07844">
        <ele>2859</ele>
        <time>2022-08-27T15:28:35Z</time>
      </trkpt>
      <trkpt lat="45.89102" lon="7.07848">
        <ele>2858</ele>
        <time>2022-08-27T15:28:37Z</time>
      </trkpt>
      <trkpt lat="45.89105" lon="7.0785">
        <ele>2858</ele>
        <time>2022-08-27T15:28:39Z</time>
      </trkpt>
      <trkpt lat="45.89108" lon="7.07853">
        <ele>2857</ele>
        <time>2022-08-27T15:28:41Z</time>
      </trkpt>
      <trkpt lat="45.89109" lon="7.07857">
        <ele>2857</ele>
        <time>2022-08-27T15:28:43Z</time>
      </trkpt>
      <trkpt lat="45.89111" lon="7.07861">
        <ele>2857</ele>
        <time>2022-08-27T15:28:45Z</time>
      </trkpt>
      <trkpt lat="45.89113" lon="7.07864">
        <ele>2857</ele>
        <time>2022-08-27T15:28:47Z</time>
      </trkpt>
      <trkpt lat="45.89114" lon="7.07868">
        <ele>2857</ele>
        <time>2022-08-27T15:28:49Z</time>
      </trkpt>
      <trkpt lat="45.89116" lon="7.0787">
        <ele>2857</ele>
        <time>2022-08-27T15:28:51Z</time>
      </trkpt>
      <trkpt lat="45.89118" lon="7.07868">
        <ele>2857</ele>
        <time>2022-08-27T15:28:55Z</time>
      </trkpt>
      <trkpt lat="45.89121" lon="7.07867">
        <ele>2857</ele>
        <time>2022-08-27T15:28:57Z</time>
      </trkpt>
      <trkpt lat="45.89125" lon="7.07866">
        <ele>2857</ele>
        <time>2022-08-27T15:28:59Z</time>
      </trkpt>
      <trkpt lat="45.89126" lon="7.07866">
        <ele>2857</ele>
        <time>2022-08-27T15:29:00Z</time>
      </trkpt>
      <trkpt lat="45.89129" lon="7.07864">
        <ele>2857</ele>
        <time>2022-08-27T15:29:02Z</time>
      </trkpt>
      <trkpt lat="45.89131" lon="7.07866">
        <ele>2857</ele>
        <time>2022-08-27T15:29:04Z</time>
      </trkpt>
      <trkpt lat="45.89132" lon="7.07871">
        <ele>2857</ele>
        <time>2022-08-27T15:29:06Z</time>
      </trkpt>
      <trkpt lat="45.89131" lon="7.07875">
        <ele>2856</ele>
        <time>2022-08-27T15:29:08Z</time>
      </trkpt>
      <trkpt lat="45.89131" lon="7.07879">
        <ele>2856</ele>
        <time>2022-08-27T15:29:10Z</time>
      </trkpt>
      <trkpt lat="45.8913" lon="7.07884">
        <ele>2855</ele>
        <time>2022-08-27T15:29:12Z</time>
      </trkpt>
      <trkpt lat="45.89131" lon="7.07889">
        <ele>2855</ele>
        <time>2022-08-27T15:29:14Z</time>
      </trkpt>
      <trkpt lat="45.89131" lon="7.07893">
        <ele>2855</ele>
        <time>2022-08-27T15:29:16Z</time>
      </trkpt>
      <trkpt lat="45.89132" lon="7.079">
        <ele>2854</ele>
        <time>2022-08-27T15:29:18Z</time>
      </trkpt>
      <trkpt lat="45.89132" lon="7.07901">
        <ele>2851</ele>
        <time>2022-08-27T15:29:19Z</time>
      </trkpt>
      <trkpt lat="45.89133" lon="7.07904">
        <ele>2851</ele>
        <time>2022-08-27T15:29:20Z</time>
      </trkpt>
      <trkpt lat="45.89134" lon="7.07908">
        <ele>2851</ele>
        <time>2022-08-27T15:29:22Z</time>
      </trkpt>
      <trkpt lat="45.89136" lon="7.07912">
        <ele>2851</ele>
        <time>2022-08-27T15:29:24Z</time>
      </trkpt>
      <trkpt lat="45.89136" lon="7.07917">
        <ele>2851</ele>
        <time>2022-08-27T15:29:26Z</time>
      </trkpt>
      <trkpt lat="45.89137" lon="7.07919">
        <ele>2851</ele>
        <time>2022-08-27T15:29:27Z</time>
      </trkpt>
      <trkpt lat="45.89138" lon="7.07922">
        <ele>2851</ele>
        <time>2022-08-27T15:29:28Z</time>
      </trkpt>
      <trkpt lat="45.89139" lon="7.07926">
        <ele>2851</ele>
        <time>2022-08-27T15:29:30Z</time>
      </trkpt>
      <trkpt lat="45.8914" lon="7.07931">
        <ele>2850</ele>
        <time>2022-08-27T15:29:32Z</time>
      </trkpt>
      <trkpt lat="45.8914" lon="7.07936">
        <ele>2850</ele>
        <time>2022-08-27T15:29:34Z</time>
      </trkpt>
      <trkpt lat="45.89141" lon="7.07938">
        <ele>2850</ele>
        <time>2022-08-27T15:29:35Z</time>
      </trkpt>
      <trkpt lat="45.89141" lon="7.07943">
        <ele>2850</ele>
        <time>2022-08-27T15:29:37Z</time>
      </trkpt>
      <trkpt lat="45.89142" lon="7.07948">
        <ele>2849</ele>
        <time>2022-08-27T15:29:39Z</time>
      </trkpt>
      <trkpt lat="45.89143" lon="7.07952">
        <ele>2849</ele>
        <time>2022-08-27T15:29:41Z</time>
      </trkpt>
      <trkpt lat="45.89145" lon="7.07955">
        <ele>2849</ele>
        <time>2022-08-27T15:29:43Z</time>
      </trkpt>
      <trkpt lat="45.89148" lon="7.07958">
        <ele>2849</ele>
        <time>2022-08-27T15:29:45Z</time>
      </trkpt>
      <trkpt lat="45.8915" lon="7.07961">
        <ele>2847</ele>
        <time>2022-08-27T15:29:47Z</time>
      </trkpt>
      <trkpt lat="45.89151" lon="7.07964">
        <ele>2847</ele>
        <time>2022-08-27T15:29:49Z</time>
      </trkpt>
      <trkpt lat="45.89153" lon="7.07967">
        <ele>2845</ele>
        <time>2022-08-27T15:29:51Z</time>
      </trkpt>
      <trkpt lat="45.89155" lon="7.0797">
        <ele>2845</ele>
        <time>2022-08-27T15:29:53Z</time>
      </trkpt>
      <trkpt lat="45.89157" lon="7.07972">
        <ele>2845</ele>
        <time>2022-08-27T15:29:55Z</time>
      </trkpt>
      <trkpt lat="45.89158" lon="7.07973">
        <ele>2843</ele>
        <time>2022-08-27T15:29:57Z</time>
      </trkpt>
      <trkpt lat="45.89159" lon="7.07975">
        <ele>2843</ele>
        <time>2022-08-27T15:29:59Z</time>
      </trkpt>
      <trkpt lat="45.89159" lon="7.0798">
        <ele>2843</ele>
        <time>2022-08-27T15:30:01Z</time>
      </trkpt>
      <trkpt lat="45.89159" lon="7.07983">
        <ele>2843</ele>
        <time>2022-08-27T15:30:02Z</time>
      </trkpt>
      <trkpt lat="45.89159" lon="7.07988">
        <ele>2843</ele>
        <time>2022-08-27T15:30:04Z</time>
      </trkpt>
      <trkpt lat="45.8916" lon="7.07992">
        <ele>2843</ele>
        <time>2022-08-27T15:30:06Z</time>
      </trkpt>
      <trkpt lat="45.8916" lon="7.07995">
        <ele>2843</ele>
        <time>2022-08-27T15:30:07Z</time>
      </trkpt>
      <trkpt lat="45.89161" lon="7.07997">
        <ele>2843</ele>
        <time>2022-08-27T15:30:08Z</time>
      </trkpt>
      <trkpt lat="45.89161" lon="7.08">
        <ele>2843</ele>
        <time>2022-08-27T15:30:09Z</time>
      </trkpt>
      <trkpt lat="45.89162" lon="7.08002">
        <ele>2843</ele>
        <time>2022-08-27T15:30:10Z</time>
      </trkpt>
      <trkpt lat="45.89163" lon="7.08004">
        <ele>2843</ele>
        <time>2022-08-27T15:30:11Z</time>
      </trkpt>
      <trkpt lat="45.89165" lon="7.08008">
        <ele>2843</ele>
        <time>2022-08-27T15:30:13Z</time>
      </trkpt>
      <trkpt lat="45.89167" lon="7.08012">
        <ele>2843</ele>
        <time>2022-08-27T15:30:15Z</time>
      </trkpt>
      <trkpt lat="45.89168" lon="7.08016">
        <ele>2842</ele>
        <time>2022-08-27T15:30:17Z</time>
      </trkpt>
      <trkpt lat="45.8917" lon="7.0802">
        <ele>2842</ele>
        <time>2022-08-27T15:30:19Z</time>
      </trkpt>
      <trkpt lat="45.89171" lon="7.08025">
        <ele>2841</ele>
        <time>2022-08-27T15:30:21Z</time>
      </trkpt>
      <trkpt lat="45.89172" lon="7.08029">
        <ele>2841</ele>
        <time>2022-08-27T15:30:23Z</time>
      </trkpt>
      <trkpt lat="45.89173" lon="7.08031">
        <ele>2840</ele>
        <time>2022-08-27T15:30:24Z</time>
      </trkpt>
      <trkpt lat="45.89174" lon="7.08032">
        <ele>2840</ele>
        <time>2022-08-27T15:30:25Z</time>
      </trkpt>
      <trkpt lat="45.89175" lon="7.08034">
        <ele>2839</ele>
        <time>2022-08-27T15:30:26Z</time>
      </trkpt>
      <trkpt lat="45.89177" lon="7.08038">
        <ele>2839</ele>
        <time>2022-08-27T15:30:28Z</time>
      </trkpt>
      <trkpt lat="45.89177" lon="7.08043">
        <ele>2839</ele>
        <time>2022-08-27T15:30:30Z</time>
      </trkpt>
      <trkpt lat="45.89177" lon="7.08047">
        <ele>2839</ele>
        <time>2022-08-27T15:30:32Z</time>
      </trkpt>
      <trkpt lat="45.8918" lon="7.08053">
        <ele>2839</ele>
        <time>2022-08-27T15:30:34Z</time>
      </trkpt>
      <trkpt lat="45.8918" lon="7.08054">
        <ele>2838</ele>
        <time>2022-08-27T15:30:35Z</time>
      </trkpt>
      <trkpt lat="45.89183" lon="7.08058">
        <ele>2838</ele>
        <time>2022-08-27T15:30:37Z</time>
      </trkpt>
      <trkpt lat="45.89183" lon="7.0806">
        <ele>2839</ele>
        <time>2022-08-27T15:30:38Z</time>
      </trkpt>
      <trkpt lat="45.89185" lon="7.08063">
        <ele>2839</ele>
        <time>2022-08-27T15:30:39Z</time>
      </trkpt>
      <trkpt lat="45.89187" lon="7.08067">
        <ele>2838</ele>
        <time>2022-08-27T15:30:41Z</time>
      </trkpt>
      <trkpt lat="45.89188" lon="7.08071">
        <ele>2838</ele>
        <time>2022-08-27T15:30:43Z</time>
      </trkpt>
      <trkpt lat="45.89189" lon="7.08073">
        <ele>2837</ele>
        <time>2022-08-27T15:30:44Z</time>
      </trkpt>
      <trkpt lat="45.8919" lon="7.08076">
        <ele>2837</ele>
        <time>2022-08-27T15:30:45Z</time>
      </trkpt>
      <trkpt lat="45.89191" lon="7.08081">
        <ele>2837</ele>
        <time>2022-08-27T15:30:47Z</time>
      </trkpt>
      <trkpt lat="45.89193" lon="7.08085">
        <ele>2835</ele>
        <time>2022-08-27T15:30:49Z</time>
      </trkpt>
      <trkpt lat="45.89194" lon="7.0809">
        <ele>2835</ele>
        <time>2022-08-27T15:30:51Z</time>
      </trkpt>
      <trkpt lat="45.89196" lon="7.08094">
        <ele>2835</ele>
        <time>2022-08-27T15:30:53Z</time>
      </trkpt>
      <trkpt lat="45.89197" lon="7.08097">
        <ele>2835</ele>
        <time>2022-08-27T15:30:54Z</time>
      </trkpt>
      <trkpt lat="45.89197" lon="7.081">
        <ele>2835</ele>
        <time>2022-08-27T15:30:55Z</time>
      </trkpt>
      <trkpt lat="45.89198" lon="7.08102">
        <ele>2834</ele>
        <time>2022-08-27T15:30:56Z</time>
      </trkpt>
      <trkpt lat="45.89199" lon="7.08107">
        <ele>2834</ele>
        <time>2022-08-27T15:30:58Z</time>
      </trkpt>
      <trkpt lat="45.892" lon="7.0811">
        <ele>2834</ele>
        <time>2022-08-27T15:31:00Z</time>
      </trkpt>
      <trkpt lat="45.89203" lon="7.08113">
        <ele>2833</ele>
        <time>2022-08-27T15:31:02Z</time>
      </trkpt>
      <trkpt lat="45.89206" lon="7.08116">
        <ele>2832</ele>
        <time>2022-08-27T15:31:04Z</time>
      </trkpt>
      <trkpt lat="45.89208" lon="7.08117">
        <ele>2832</ele>
        <time>2022-08-27T15:31:05Z</time>
      </trkpt>
      <trkpt lat="45.8921" lon="7.0812">
        <ele>2832</ele>
        <time>2022-08-27T15:31:07Z</time>
      </trkpt>
      <trkpt lat="45.8921" lon="7.08125">
        <ele>2831</ele>
        <time>2022-08-27T15:31:09Z</time>
      </trkpt>
      <trkpt lat="45.89209" lon="7.08128">
        <ele>2831</ele>
        <time>2022-08-27T15:31:12Z</time>
      </trkpt>
      <trkpt lat="45.89209" lon="7.08131">
        <ele>2832</ele>
        <time>2022-08-27T15:31:14Z</time>
      </trkpt>
      <trkpt lat="45.8921" lon="7.08134">
        <ele>2832</ele>
        <time>2022-08-27T15:31:16Z</time>
      </trkpt>
      <trkpt lat="45.89211" lon="7.08137">
        <ele>2833</ele>
        <time>2022-08-27T15:31:18Z</time>
      </trkpt>
      <trkpt lat="45.89211" lon="7.0814">
        <ele>2833</ele>
        <time>2022-08-27T15:31:20Z</time>
      </trkpt>
      <trkpt lat="45.8921" lon="7.08143">
        <ele>2833</ele>
        <time>2022-08-27T15:31:22Z</time>
      </trkpt>
      <trkpt lat="45.89208" lon="7.08145">
        <ele>2833</ele>
        <time>2022-08-27T15:31:26Z</time>
      </trkpt>
      <trkpt lat="45.89206" lon="7.08147">
        <ele>2834</ele>
        <time>2022-08-27T15:31:28Z</time>
      </trkpt>
      <trkpt lat="45.89205" lon="7.0815">
        <ele>2834</ele>
        <time>2022-08-27T15:31:30Z</time>
      </trkpt>
      <trkpt lat="45.89204" lon="7.08153">
        <ele>2834</ele>
        <time>2022-08-27T15:31:32Z</time>
      </trkpt>
      <trkpt lat="45.89203" lon="7.08157">
        <ele>2833</ele>
        <time>2022-08-27T15:31:34Z</time>
      </trkpt>
      <trkpt lat="45.89203" lon="7.08161">
        <ele>2833</ele>
        <time>2022-08-27T15:31:36Z</time>
      </trkpt>
      <trkpt lat="45.89203" lon="7.08165">
        <ele>2833</ele>
        <time>2022-08-27T15:31:38Z</time>
      </trkpt>
      <trkpt lat="45.89202" lon="7.08169">
        <ele>2833</ele>
        <time>2022-08-27T15:31:40Z</time>
      </trkpt>
      <trkpt lat="45.89203" lon="7.08174">
        <ele>2833</ele>
        <time>2022-08-27T15:31:42Z</time>
      </trkpt>
      <trkpt lat="45.89203" lon="7.08179">
        <ele>2832</ele>
        <time>2022-08-27T15:31:44Z</time>
      </trkpt>
      <trkpt lat="45.89203" lon="7.08182">
        <ele>2831</ele>
        <time>2022-08-27T15:31:45Z</time>
      </trkpt>
      <trkpt lat="45.89202" lon="7.08185">
        <ele>2831</ele>
        <time>2022-08-27T15:31:46Z</time>
      </trkpt>
      <trkpt lat="45.89202" lon="7.08188">
        <ele>2831</ele>
        <time>2022-08-27T15:31:47Z</time>
      </trkpt>
      <trkpt lat="45.89201" lon="7.08192">
        <ele>2830</ele>
        <time>2022-08-27T15:31:49Z</time>
      </trkpt>
      <trkpt lat="45.89201" lon="7.08195">
        <ele>2830</ele>
        <time>2022-08-27T15:31:50Z</time>
      </trkpt>
      <trkpt lat="45.892" lon="7.08197">
        <ele>2830</ele>
        <time>2022-08-27T15:31:51Z</time>
      </trkpt>
      <trkpt lat="45.892" lon="7.082">
        <ele>2829</ele>
        <time>2022-08-27T15:31:52Z</time>
      </trkpt>
      <trkpt lat="45.892" lon="7.08204">
        <ele>2828</ele>
        <time>2022-08-27T15:31:53Z</time>
      </trkpt>
      <trkpt lat="45.89199" lon="7.08207">
        <ele>2828</ele>
        <time>2022-08-27T15:31:54Z</time>
      </trkpt>
      <trkpt lat="45.89199" lon="7.0821">
        <ele>2828</ele>
        <time>2022-08-27T15:31:55Z</time>
      </trkpt>
      <trkpt lat="45.89199" lon="7.08213">
        <ele>2828</ele>
        <time>2022-08-27T15:31:56Z</time>
      </trkpt>
      <trkpt lat="45.892" lon="7.08215">
        <ele>2828</ele>
        <time>2022-08-27T15:31:57Z</time>
      </trkpt>
      <trkpt lat="45.892" lon="7.08218">
        <ele>2828</ele>
        <time>2022-08-27T15:31:58Z</time>
      </trkpt>
      <trkpt lat="45.892" lon="7.08221">
        <ele>2828</ele>
        <time>2022-08-27T15:31:59Z</time>
      </trkpt>
      <trkpt lat="45.892" lon="7.08224">
        <ele>2827</ele>
        <time>2022-08-27T15:32:00Z</time>
      </trkpt>
      <trkpt lat="45.892" lon="7.08226">
        <ele>2827</ele>
        <time>2022-08-27T15:32:01Z</time>
      </trkpt>
      <trkpt lat="45.89202" lon="7.08231">
        <ele>2827</ele>
        <time>2022-08-27T15:32:03Z</time>
      </trkpt>
      <trkpt lat="45.89203" lon="7.08235">
        <ele>2827</ele>
        <time>2022-08-27T15:32:05Z</time>
      </trkpt>
      <trkpt lat="45.89204" lon="7.08237">
        <ele>2827</ele>
        <time>2022-08-27T15:32:06Z</time>
      </trkpt>
      <trkpt lat="45.89205" lon="7.08239">
        <ele>2827</ele>
        <time>2022-08-27T15:32:07Z</time>
      </trkpt>
      <trkpt lat="45.89206" lon="7.08242">
        <ele>2827</ele>
        <time>2022-08-27T15:32:08Z</time>
      </trkpt>
      <trkpt lat="45.89207" lon="7.08246">
        <ele>2826</ele>
        <time>2022-08-27T15:32:10Z</time>
      </trkpt>
      <trkpt lat="45.89209" lon="7.0825">
        <ele>2825</ele>
        <time>2022-08-27T15:32:12Z</time>
      </trkpt>
      <trkpt lat="45.8921" lon="7.08252">
        <ele>2825</ele>
        <time>2022-08-27T15:32:13Z</time>
      </trkpt>
      <trkpt lat="45.89213" lon="7.08254">
        <ele>2825</ele>
        <time>2022-08-27T15:32:15Z</time>
      </trkpt>
      <trkpt lat="45.89215" lon="7.08256">
        <ele>2825</ele>
        <time>2022-08-27T15:32:17Z</time>
      </trkpt>
      <trkpt lat="45.89218" lon="7.08259">
        <ele>2825</ele>
        <time>2022-08-27T15:32:19Z</time>
      </trkpt>
      <trkpt lat="45.8922" lon="7.08262">
        <ele>2823</ele>
        <time>2022-08-27T15:32:21Z</time>
      </trkpt>
      <trkpt lat="45.89219" lon="7.08266">
        <ele>2823</ele>
        <time>2022-08-27T15:32:23Z</time>
      </trkpt>
      <trkpt lat="45.89219" lon="7.0827">
        <ele>2823</ele>
        <time>2022-08-27T15:32:25Z</time>
      </trkpt>
      <trkpt lat="45.89218" lon="7.08274">
        <ele>2822</ele>
        <time>2022-08-27T15:32:27Z</time>
      </trkpt>
      <trkpt lat="45.89218" lon="7.08279">
        <ele>2821</ele>
        <time>2022-08-27T15:32:29Z</time>
      </trkpt>
      <trkpt lat="45.89219" lon="7.08282">
        <ele>2821</ele>
        <time>2022-08-27T15:32:30Z</time>
      </trkpt>
      <trkpt lat="45.89219" lon="7.08287">
        <ele>2821</ele>
        <time>2022-08-27T15:32:32Z</time>
      </trkpt>
      <trkpt lat="45.89219" lon="7.0829">
        <ele>2821</ele>
        <time>2022-08-27T15:32:33Z</time>
      </trkpt>
      <trkpt lat="45.89218" lon="7.08292">
        <ele>2820</ele>
        <time>2022-08-27T15:32:34Z</time>
      </trkpt>
      <trkpt lat="45.89217" lon="7.08296">
        <ele>2820</ele>
        <time>2022-08-27T15:32:36Z</time>
      </trkpt>
      <trkpt lat="45.89217" lon="7.08301">
        <ele>2820</ele>
        <time>2022-08-27T15:32:38Z</time>
      </trkpt>
      <trkpt lat="45.89219" lon="7.08304">
        <ele>2820</ele>
        <time>2022-08-27T15:32:40Z</time>
      </trkpt>
      <trkpt lat="45.89222" lon="7.08307">
        <ele>2819</ele>
        <time>2022-08-27T15:32:42Z</time>
      </trkpt>
      <trkpt lat="45.89224" lon="7.0831">
        <ele>2819</ele>
        <time>2022-08-27T15:32:44Z</time>
      </trkpt>
      <trkpt lat="45.89225" lon="7.08312">
        <ele>2819</ele>
        <time>2022-08-27T15:32:46Z</time>
      </trkpt>
      <trkpt lat="45.89228" lon="7.08315">
        <ele>2818</ele>
        <time>2022-08-27T15:32:48Z</time>
      </trkpt>
      <trkpt lat="45.8923" lon="7.08319">
        <ele>2817</ele>
        <time>2022-08-27T15:32:50Z</time>
      </trkpt>
      <trkpt lat="45.8923" lon="7.08324">
        <ele>2817</ele>
        <time>2022-08-27T15:32:52Z</time>
      </trkpt>
      <trkpt lat="45.8923" lon="7.08329">
        <ele>2817</ele>
        <time>2022-08-27T15:32:54Z</time>
      </trkpt>
      <trkpt lat="45.89229" lon="7.08333">
        <ele>2816</ele>
        <time>2022-08-27T15:32:56Z</time>
      </trkpt>
      <trkpt lat="45.8923" lon="7.08336">
        <ele>2816</ele>
        <time>2022-08-27T15:32:58Z</time>
      </trkpt>
      <trkpt lat="45.89231" lon="7.08339">
        <ele>2814</ele>
        <time>2022-08-27T15:33:00Z</time>
      </trkpt>
      <trkpt lat="45.89231" lon="7.08344">
        <ele>2814</ele>
        <time>2022-08-27T15:33:02Z</time>
      </trkpt>
      <trkpt lat="45.89231" lon="7.08349">
        <ele>2813</ele>
        <time>2022-08-27T15:33:04Z</time>
      </trkpt>
      <trkpt lat="45.89231" lon="7.08353">
        <ele>2813</ele>
        <time>2022-08-27T15:33:06Z</time>
      </trkpt>
      <trkpt lat="45.8923" lon="7.08357">
        <ele>2810</ele>
        <time>2022-08-27T15:33:08Z</time>
      </trkpt>
      <trkpt lat="45.8923" lon="7.08361">
        <ele>2810</ele>
        <time>2022-08-27T15:33:10Z</time>
      </trkpt>
      <trkpt lat="45.8923" lon="7.08365">
        <ele>2810</ele>
        <time>2022-08-27T15:33:12Z</time>
      </trkpt>
      <trkpt lat="45.8923" lon="7.08371">
        <ele>2809</ele>
        <time>2022-08-27T15:33:14Z</time>
      </trkpt>
      <trkpt lat="45.8923" lon="7.08373">
        <ele>2809</ele>
        <time>2022-08-27T15:33:15Z</time>
      </trkpt>
      <trkpt lat="45.89229" lon="7.08378">
        <ele>2808</ele>
        <time>2022-08-27T15:33:17Z</time>
      </trkpt>
      <trkpt lat="45.89229" lon="7.08381">
        <ele>2808</ele>
        <time>2022-08-27T15:33:18Z</time>
      </trkpt>
      <trkpt lat="45.89228" lon="7.08386">
        <ele>2808</ele>
        <time>2022-08-27T15:33:20Z</time>
      </trkpt>
      <trkpt lat="45.89228" lon="7.08389">
        <ele>2808</ele>
        <time>2022-08-27T15:33:21Z</time>
      </trkpt>
      <trkpt lat="45.89228" lon="7.08392">
        <ele>2808</ele>
        <time>2022-08-27T15:33:22Z</time>
      </trkpt>
      <trkpt lat="45.89228" lon="7.08394">
        <ele>2808</ele>
        <time>2022-08-27T15:33:23Z</time>
      </trkpt>
      <trkpt lat="45.89228" lon="7.084">
        <ele>2808</ele>
        <time>2022-08-27T15:33:25Z</time>
      </trkpt>
      <trkpt lat="45.89228" lon="7.08402">
        <ele>2808</ele>
        <time>2022-08-27T15:33:26Z</time>
      </trkpt>
      <trkpt lat="45.89228" lon="7.08406">
        <ele>2808</ele>
        <time>2022-08-27T15:33:28Z</time>
      </trkpt>
      <trkpt lat="45.89227" lon="7.08411">
        <ele>2807</ele>
        <time>2022-08-27T15:33:30Z</time>
      </trkpt>
      <trkpt lat="45.89227" lon="7.08415">
        <ele>2806</ele>
        <time>2022-08-27T15:33:32Z</time>
      </trkpt>
      <trkpt lat="45.89225" lon="7.0842">
        <ele>2806</ele>
        <time>2022-08-27T15:33:34Z</time>
      </trkpt>
      <trkpt lat="45.89222" lon="7.08422">
        <ele>2806</ele>
        <time>2022-08-27T15:33:36Z</time>
      </trkpt>
      <trkpt lat="45.8922" lon="7.08423">
        <ele>2806</ele>
        <time>2022-08-27T15:33:37Z</time>
      </trkpt>
      <trkpt lat="45.89217" lon="7.08423">
        <ele>2805</ele>
        <time>2022-08-27T15:33:39Z</time>
      </trkpt>
      <trkpt lat="45.89215" lon="7.08423">
        <ele>2805</ele>
        <time>2022-08-27T15:33:40Z</time>
      </trkpt>
      <trkpt lat="45.89213" lon="7.08423">
        <ele>2806</ele>
        <time>2022-08-27T15:33:41Z</time>
      </trkpt>
      <trkpt lat="45.89211" lon="7.08423">
        <ele>2806</ele>
        <time>2022-08-27T15:33:42Z</time>
      </trkpt>
      <trkpt lat="45.89209" lon="7.08424">
        <ele>2806</ele>
        <time>2022-08-27T15:33:43Z</time>
      </trkpt>
      <trkpt lat="45.89206" lon="7.08427">
        <ele>2805</ele>
        <time>2022-08-27T15:33:45Z</time>
      </trkpt>
      <trkpt lat="45.89202" lon="7.0843">
        <ele>2805</ele>
        <time>2022-08-27T15:33:46Z</time>
      </trkpt>
      <trkpt lat="45.89201" lon="7.08431">
        <ele>2805</ele>
        <time>2022-08-27T15:33:47Z</time>
      </trkpt>
      <trkpt lat="45.89199" lon="7.08433">
        <ele>2805</ele>
        <time>2022-08-27T15:33:49Z</time>
      </trkpt>
      <trkpt lat="45.89197" lon="7.08435">
        <ele>2805</ele>
        <time>2022-08-27T15:33:50Z</time>
      </trkpt>
      <trkpt lat="45.89194" lon="7.08437">
        <ele>2805</ele>
        <time>2022-08-27T15:33:51Z</time>
      </trkpt>
      <trkpt lat="45.89193" lon="7.08437">
        <ele>2805</ele>
        <time>2022-08-27T15:33:52Z</time>
      </trkpt>
      <trkpt lat="45.89192" lon="7.08439">
        <ele>2805</ele>
        <time>2022-08-27T15:33:53Z</time>
      </trkpt>
      <trkpt lat="45.8919" lon="7.08441">
        <ele>2804</ele>
        <time>2022-08-27T15:33:54Z</time>
      </trkpt>
      <trkpt lat="45.89188" lon="7.08442">
        <ele>2804</ele>
        <time>2022-08-27T15:33:55Z</time>
      </trkpt>
      <trkpt lat="45.89185" lon="7.08445">
        <ele>2803</ele>
        <time>2022-08-27T15:33:57Z</time>
      </trkpt>
      <trkpt lat="45.89182" lon="7.08447">
        <ele>2803</ele>
        <time>2022-08-27T15:33:59Z</time>
      </trkpt>
      <trkpt lat="45.8918" lon="7.0845">
        <ele>2802</ele>
        <time>2022-08-27T15:34:01Z</time>
      </trkpt>
      <trkpt lat="45.89177" lon="7.08454">
        <ele>2802</ele>
        <time>2022-08-27T15:34:03Z</time>
      </trkpt>
      <trkpt lat="45.89177" lon="7.08455">
        <ele>2802</ele>
        <time>2022-08-27T15:34:04Z</time>
      </trkpt>
      <trkpt lat="45.89175" lon="7.08459">
        <ele>2802</ele>
        <time>2022-08-27T15:34:05Z</time>
      </trkpt>
      <trkpt lat="45.89175" lon="7.0846">
        <ele>2802</ele>
        <time>2022-08-27T15:34:06Z</time>
      </trkpt>
      <trkpt lat="45.89174" lon="7.08463">
        <ele>2801</ele>
        <time>2022-08-27T15:34:07Z</time>
      </trkpt>
      <trkpt lat="45.89173" lon="7.08466">
        <ele>2799</ele>
        <time>2022-08-27T15:34:09Z</time>
      </trkpt>
      <trkpt lat="45.89172" lon="7.0847">
        <ele>2799</ele>
        <time>2022-08-27T15:34:11Z</time>
      </trkpt>
      <trkpt lat="45.8917" lon="7.08474">
        <ele>2798</ele>
        <time>2022-08-27T15:34:13Z</time>
      </trkpt>
      <trkpt lat="45.89169" lon="7.08477">
        <ele>2798</ele>
        <time>2022-08-27T15:34:15Z</time>
      </trkpt>
      <trkpt lat="45.89167" lon="7.08481">
        <ele>2797</ele>
        <time>2022-08-27T15:34:17Z</time>
      </trkpt>
      <trkpt lat="45.89166" lon="7.08484">
        <ele>2796</ele>
        <time>2022-08-27T15:34:19Z</time>
      </trkpt>
      <trkpt lat="45.89164" lon="7.08488">
        <ele>2796</ele>
        <time>2022-08-27T15:34:21Z</time>
      </trkpt>
      <trkpt lat="45.89163" lon="7.08491">
        <ele>2796</ele>
        <time>2022-08-27T15:34:22Z</time>
      </trkpt>
      <trkpt lat="45.89162" lon="7.08494">
        <ele>2794</ele>
        <time>2022-08-27T15:34:24Z</time>
      </trkpt>
      <trkpt lat="45.89159" lon="7.08497">
        <ele>2794</ele>
        <time>2022-08-27T15:34:26Z</time>
      </trkpt>
      <trkpt lat="45.89157" lon="7.085">
        <ele>2793</ele>
        <time>2022-08-27T15:34:28Z</time>
      </trkpt>
      <trkpt lat="45.89155" lon="7.08504">
        <ele>2793</ele>
        <time>2022-08-27T15:34:30Z</time>
      </trkpt>
      <trkpt lat="45.89154" lon="7.08506">
        <ele>2793</ele>
        <time>2022-08-27T15:34:31Z</time>
      </trkpt>
      <trkpt lat="45.89153" lon="7.0851">
        <ele>2793</ele>
        <time>2022-08-27T15:34:33Z</time>
      </trkpt>
      <trkpt lat="45.89152" lon="7.08514">
        <ele>2792</ele>
        <time>2022-08-27T15:34:35Z</time>
      </trkpt>
      <trkpt lat="45.8915" lon="7.08519">
        <ele>2792</ele>
        <time>2022-08-27T15:34:37Z</time>
      </trkpt>
      <trkpt lat="45.89148" lon="7.08522">
        <ele>2791</ele>
        <time>2022-08-27T15:34:39Z</time>
      </trkpt>
      <trkpt lat="45.89147" lon="7.08527">
        <ele>2790</ele>
        <time>2022-08-27T15:34:41Z</time>
      </trkpt>
      <trkpt lat="45.89146" lon="7.08531">
        <ele>2789</ele>
        <time>2022-08-27T15:34:43Z</time>
      </trkpt>
      <trkpt lat="45.89145" lon="7.08536">
        <ele>2790</ele>
        <time>2022-08-27T15:34:45Z</time>
      </trkpt>
      <trkpt lat="45.89144" lon="7.08539">
        <ele>2789</ele>
        <time>2022-08-27T15:34:47Z</time>
      </trkpt>
      <trkpt lat="45.89144" lon="7.08544">
        <ele>2787</ele>
        <time>2022-08-27T15:34:49Z</time>
      </trkpt>
      <trkpt lat="45.89145" lon="7.08548">
        <ele>2786</ele>
        <time>2022-08-27T15:34:51Z</time>
      </trkpt>
      <trkpt lat="45.89146" lon="7.08552">
        <ele>2786</ele>
        <time>2022-08-27T15:34:53Z</time>
      </trkpt>
      <trkpt lat="45.89146" lon="7.08556">
        <ele>2786</ele>
        <time>2022-08-27T15:34:55Z</time>
      </trkpt>
      <trkpt lat="45.89148" lon="7.08559">
        <ele>2785</ele>
        <time>2022-08-27T15:34:57Z</time>
      </trkpt>
      <trkpt lat="45.89151" lon="7.0856">
        <ele>2785</ele>
        <time>2022-08-27T15:34:59Z</time>
      </trkpt>
      <trkpt lat="45.89154" lon="7.08559">
        <ele>2785</ele>
        <time>2022-08-27T15:35:01Z</time>
      </trkpt>
      <trkpt lat="45.89157" lon="7.08559">
        <ele>2785</ele>
        <time>2022-08-27T15:35:03Z</time>
      </trkpt>
      <trkpt lat="45.89159" lon="7.08561">
        <ele>2784</ele>
        <time>2022-08-27T15:35:05Z</time>
      </trkpt>
      <trkpt lat="45.89161" lon="7.08563">
        <ele>2784</ele>
        <time>2022-08-27T15:35:07Z</time>
      </trkpt>
      <trkpt lat="45.89164" lon="7.08564">
        <ele>2783</ele>
        <time>2022-08-27T15:35:09Z</time>
      </trkpt>
      <trkpt lat="45.89166" lon="7.08565">
        <ele>2782</ele>
        <time>2022-08-27T15:35:11Z</time>
      </trkpt>
      <trkpt lat="45.89168" lon="7.08569">
        <ele>2781</ele>
        <time>2022-08-27T15:35:13Z</time>
      </trkpt>
      <trkpt lat="45.89169" lon="7.08573">
        <ele>2780</ele>
        <time>2022-08-27T15:35:15Z</time>
      </trkpt>
      <trkpt lat="45.8917" lon="7.08578">
        <ele>2780</ele>
        <time>2022-08-27T15:35:17Z</time>
      </trkpt>
      <trkpt lat="45.89172" lon="7.08582">
        <ele>2779</ele>
        <time>2022-08-27T15:35:19Z</time>
      </trkpt>
      <trkpt lat="45.89173" lon="7.08587">
        <ele>2778</ele>
        <time>2022-08-27T15:35:21Z</time>
      </trkpt>
      <trkpt lat="45.89174" lon="7.0859">
        <ele>2778</ele>
        <time>2022-08-27T15:35:22Z</time>
      </trkpt>
      <trkpt lat="45.89174" lon="7.08594">
        <ele>2777</ele>
        <time>2022-08-27T15:35:24Z</time>
      </trkpt>
      <trkpt lat="45.89174" lon="7.08599">
        <ele>2777</ele>
        <time>2022-08-27T15:35:26Z</time>
      </trkpt>
      <trkpt lat="45.89173" lon="7.08601">
        <ele>2777</ele>
        <time>2022-08-27T15:35:27Z</time>
      </trkpt>
      <trkpt lat="45.89173" lon="7.08607">
        <ele>2775</ele>
        <time>2022-08-27T15:35:29Z</time>
      </trkpt>
      <trkpt lat="45.89173" lon="7.08609">
        <ele>2775</ele>
        <time>2022-08-27T15:35:30Z</time>
      </trkpt>
      <trkpt lat="45.89173" lon="7.08613">
        <ele>2775</ele>
        <time>2022-08-27T15:35:32Z</time>
      </trkpt>
      <trkpt lat="45.89175" lon="7.08617">
        <ele>2774</ele>
        <time>2022-08-27T15:35:34Z</time>
      </trkpt>
      <trkpt lat="45.89177" lon="7.08622">
        <ele>2774</ele>
        <time>2022-08-27T15:35:36Z</time>
      </trkpt>
      <trkpt lat="45.89179" lon="7.08626">
        <ele>2774</ele>
        <time>2022-08-27T15:35:38Z</time>
      </trkpt>
      <trkpt lat="45.8918" lon="7.08627">
        <ele>2773</ele>
        <time>2022-08-27T15:35:39Z</time>
      </trkpt>
      <trkpt lat="45.89183" lon="7.0863">
        <ele>2773</ele>
        <time>2022-08-27T15:35:41Z</time>
      </trkpt>
      <trkpt lat="45.89185" lon="7.08633">
        <ele>2773</ele>
        <time>2022-08-27T15:35:43Z</time>
      </trkpt>
      <trkpt lat="45.89186" lon="7.08637">
        <ele>2772</ele>
        <time>2022-08-27T15:35:45Z</time>
      </trkpt>
      <trkpt lat="45.89187" lon="7.08642">
        <ele>2772</ele>
        <time>2022-08-27T15:35:47Z</time>
      </trkpt>
      <trkpt lat="45.89188" lon="7.08644">
        <ele>2772</ele>
        <time>2022-08-27T15:35:48Z</time>
      </trkpt>
      <trkpt lat="45.89189" lon="7.08649">
        <ele>2772</ele>
        <time>2022-08-27T15:35:50Z</time>
      </trkpt>
      <trkpt lat="45.89189" lon="7.08654">
        <ele>2771</ele>
        <time>2022-08-27T15:35:52Z</time>
      </trkpt>
      <trkpt lat="45.8919" lon="7.08659">
        <ele>2770</ele>
        <time>2022-08-27T15:35:54Z</time>
      </trkpt>
      <trkpt lat="45.89191" lon="7.08663">
        <ele>2770</ele>
        <time>2022-08-27T15:35:56Z</time>
      </trkpt>
      <trkpt lat="45.89192" lon="7.08665">
        <ele>2768</ele>
        <time>2022-08-27T15:35:57Z</time>
      </trkpt>
      <trkpt lat="45.89193" lon="7.08667">
        <ele>2767</ele>
        <time>2022-08-27T15:35:58Z</time>
      </trkpt>
      <trkpt lat="45.89195" lon="7.0867">
        <ele>2767</ele>
        <time>2022-08-27T15:35:59Z</time>
      </trkpt>
      <trkpt lat="45.89196" lon="7.08672">
        <ele>2768</ele>
        <time>2022-08-27T15:36:00Z</time>
      </trkpt>
      <trkpt lat="45.89197" lon="7.08674">
        <ele>2768</ele>
        <time>2022-08-27T15:36:01Z</time>
      </trkpt>
      <trkpt lat="45.89198" lon="7.08676">
        <ele>2768</ele>
        <time>2022-08-27T15:36:02Z</time>
      </trkpt>
      <trkpt lat="45.89198" lon="7.08679">
        <ele>2768</ele>
        <time>2022-08-27T15:36:03Z</time>
      </trkpt>
      <trkpt lat="45.89199" lon="7.08681">
        <ele>2768</ele>
        <time>2022-08-27T15:36:04Z</time>
      </trkpt>
      <trkpt lat="45.892" lon="7.08684">
        <ele>2768</ele>
        <time>2022-08-27T15:36:05Z</time>
      </trkpt>
      <trkpt lat="45.89199" lon="7.08689">
        <ele>2768</ele>
        <time>2022-08-27T15:36:07Z</time>
      </trkpt>
      <trkpt lat="45.89198" lon="7.08692">
        <ele>2768</ele>
        <time>2022-08-27T15:36:09Z</time>
      </trkpt>
      <trkpt lat="45.89198" lon="7.08695">
        <ele>2768</ele>
        <time>2022-08-27T15:36:11Z</time>
      </trkpt>
      <trkpt lat="45.89197" lon="7.08699">
        <ele>2768</ele>
        <time>2022-08-27T15:36:13Z</time>
      </trkpt>
      <trkpt lat="45.89196" lon="7.08703">
        <ele>2768</ele>
        <time>2022-08-27T15:36:15Z</time>
      </trkpt>
      <trkpt lat="45.89196" lon="7.08706">
        <ele>2768</ele>
        <time>2022-08-27T15:36:17Z</time>
      </trkpt>
      <trkpt lat="45.89196" lon="7.0871">
        <ele>2768</ele>
        <time>2022-08-27T15:36:19Z</time>
      </trkpt>
      <trkpt lat="45.89196" lon="7.08714">
        <ele>2768</ele>
        <time>2022-08-27T15:36:21Z</time>
      </trkpt>
      <trkpt lat="45.89197" lon="7.08718">
        <ele>2768</ele>
        <time>2022-08-27T15:36:23Z</time>
      </trkpt>
      <trkpt lat="45.89198" lon="7.08722">
        <ele>2767</ele>
        <time>2022-08-27T15:36:25Z</time>
      </trkpt>
      <trkpt lat="45.892" lon="7.08726">
        <ele>2767</ele>
        <time>2022-08-27T15:36:27Z</time>
      </trkpt>
      <trkpt lat="45.89201" lon="7.08731">
        <ele>2766</ele>
        <time>2022-08-27T15:36:29Z</time>
      </trkpt>
      <trkpt lat="45.89201" lon="7.08733">
        <ele>2766</ele>
        <time>2022-08-27T15:36:30Z</time>
      </trkpt>
      <trkpt lat="45.89201" lon="7.08736">
        <ele>2766</ele>
        <time>2022-08-27T15:36:31Z</time>
      </trkpt>
      <trkpt lat="45.89201" lon="7.08738">
        <ele>2766</ele>
        <time>2022-08-27T15:36:32Z</time>
      </trkpt>
      <trkpt lat="45.89201" lon="7.08743">
        <ele>2766</ele>
        <time>2022-08-27T15:36:34Z</time>
      </trkpt>
      <trkpt lat="45.89202" lon="7.08745">
        <ele>2765</ele>
        <time>2022-08-27T15:36:35Z</time>
      </trkpt>
      <trkpt lat="45.89201" lon="7.08748">
        <ele>2763</ele>
        <time>2022-08-27T15:36:36Z</time>
      </trkpt>
      <trkpt lat="45.89201" lon="7.08751">
        <ele>2763</ele>
        <time>2022-08-27T15:36:37Z</time>
      </trkpt>
      <trkpt lat="45.89202" lon="7.08756">
        <ele>2762</ele>
        <time>2022-08-27T15:36:39Z</time>
      </trkpt>
      <trkpt lat="45.89202" lon="7.0876">
        <ele>2762</ele>
        <time>2022-08-27T15:36:41Z</time>
      </trkpt>
      <trkpt lat="45.89202" lon="7.08763">
        <ele>2762</ele>
        <time>2022-08-27T15:36:42Z</time>
      </trkpt>
      <trkpt lat="45.89202" lon="7.08766">
        <ele>2762</ele>
        <time>2022-08-27T15:36:43Z</time>
      </trkpt>
      <trkpt lat="45.89202" lon="7.08768">
        <ele>2762</ele>
        <time>2022-08-27T15:36:44Z</time>
      </trkpt>
      <trkpt lat="45.89202" lon="7.08773">
        <ele>2761</ele>
        <time>2022-08-27T15:36:46Z</time>
      </trkpt>
      <trkpt lat="45.89203" lon="7.08778">
        <ele>2761</ele>
        <time>2022-08-27T15:36:48Z</time>
      </trkpt>
      <trkpt lat="45.89203" lon="7.0878">
        <ele>2761</ele>
        <time>2022-08-27T15:36:49Z</time>
      </trkpt>
      <trkpt lat="45.89203" lon="7.08785">
        <ele>2760</ele>
        <time>2022-08-27T15:36:51Z</time>
      </trkpt>
      <trkpt lat="45.89202" lon="7.08789">
        <ele>2760</ele>
        <time>2022-08-27T15:36:53Z</time>
      </trkpt>
      <trkpt lat="45.89202" lon="7.08794">
        <ele>2759</ele>
        <time>2022-08-27T15:36:55Z</time>
      </trkpt>
      <trkpt lat="45.89202" lon="7.08799">
        <ele>2758</ele>
        <time>2022-08-27T15:36:57Z</time>
      </trkpt>
      <trkpt lat="45.89202" lon="7.08804">
        <ele>2758</ele>
        <time>2022-08-27T15:36:59Z</time>
      </trkpt>
      <trkpt lat="45.89202" lon="7.08808">
        <ele>2756</ele>
        <time>2022-08-27T15:37:01Z</time>
      </trkpt>
      <trkpt lat="45.89203" lon="7.08811">
        <ele>2756</ele>
        <time>2022-08-27T15:37:02Z</time>
      </trkpt>
      <trkpt lat="45.89204" lon="7.08815">
        <ele>2756</ele>
        <time>2022-08-27T15:37:04Z</time>
      </trkpt>
      <trkpt lat="45.89204" lon="7.0882">
        <ele>2756</ele>
        <time>2022-08-27T15:37:06Z</time>
      </trkpt>
      <trkpt lat="45.89203" lon="7.08825">
        <ele>2756</ele>
        <time>2022-08-27T15:37:08Z</time>
      </trkpt>
      <trkpt lat="45.89202" lon="7.08828">
        <ele>2756</ele>
        <time>2022-08-27T15:37:09Z</time>
      </trkpt>
      <trkpt lat="45.89201" lon="7.0883">
        <ele>2756</ele>
        <time>2022-08-27T15:37:10Z</time>
      </trkpt>
      <trkpt lat="45.892" lon="7.08835">
        <ele>2756</ele>
        <time>2022-08-27T15:37:12Z</time>
      </trkpt>
      <trkpt lat="45.892" lon="7.08839">
        <ele>2756</ele>
        <time>2022-08-27T15:37:14Z</time>
      </trkpt>
      <trkpt lat="45.89201" lon="7.08843">
        <ele>2755</ele>
        <time>2022-08-27T15:37:16Z</time>
      </trkpt>
      <trkpt lat="45.89202" lon="7.08847">
        <ele>2755</ele>
        <time>2022-08-27T15:37:18Z</time>
      </trkpt>
      <trkpt lat="45.89203" lon="7.08851">
        <ele>2755</ele>
        <time>2022-08-27T15:37:20Z</time>
      </trkpt>
      <trkpt lat="45.89204" lon="7.08855">
        <ele>2755</ele>
        <time>2022-08-27T15:37:22Z</time>
      </trkpt>
      <trkpt lat="45.89206" lon="7.08859">
        <ele>2754</ele>
        <time>2022-08-27T15:37:24Z</time>
      </trkpt>
      <trkpt lat="45.89207" lon="7.08863">
        <ele>2753</ele>
        <time>2022-08-27T15:37:26Z</time>
      </trkpt>
      <trkpt lat="45.89207" lon="7.08868">
        <ele>2753</ele>
        <time>2022-08-27T15:37:28Z</time>
      </trkpt>
      <trkpt lat="45.89207" lon="7.08872">
        <ele>2753</ele>
        <time>2022-08-27T15:37:30Z</time>
      </trkpt>
      <trkpt lat="45.89207" lon="7.08877">
        <ele>2753</ele>
        <time>2022-08-27T15:37:32Z</time>
      </trkpt>
      <trkpt lat="45.89208" lon="7.0888">
        <ele>2751</ele>
        <time>2022-08-27T15:37:33Z</time>
      </trkpt>
      <trkpt lat="45.89208" lon="7.08883">
        <ele>2751</ele>
        <time>2022-08-27T15:37:34Z</time>
      </trkpt>
      <trkpt lat="45.89208" lon="7.08885">
        <ele>2751</ele>
        <time>2022-08-27T15:37:35Z</time>
      </trkpt>
      <trkpt lat="45.89209" lon="7.0889">
        <ele>2751</ele>
        <time>2022-08-27T15:37:37Z</time>
      </trkpt>
      <trkpt lat="45.8921" lon="7.08895">
        <ele>2750</ele>
        <time>2022-08-27T15:37:39Z</time>
      </trkpt>
      <trkpt lat="45.8921" lon="7.08898">
        <ele>2750</ele>
        <time>2022-08-27T15:37:40Z</time>
      </trkpt>
      <trkpt lat="45.89209" lon="7.089">
        <ele>2749</ele>
        <time>2022-08-27T15:37:41Z</time>
      </trkpt>
      <trkpt lat="45.89209" lon="7.08903">
        <ele>2749</ele>
        <time>2022-08-27T15:37:42Z</time>
      </trkpt>
      <trkpt lat="45.8921" lon="7.08908">
        <ele>2749</ele>
        <time>2022-08-27T15:37:44Z</time>
      </trkpt>
      <trkpt lat="45.8921" lon="7.08912">
        <ele>2749</ele>
        <time>2022-08-27T15:37:45Z</time>
      </trkpt>
      <trkpt lat="45.8921" lon="7.08914">
        <ele>2749</ele>
        <time>2022-08-27T15:37:46Z</time>
      </trkpt>
      <trkpt lat="45.89209" lon="7.08917">
        <ele>2748</ele>
        <time>2022-08-27T15:37:47Z</time>
      </trkpt>
      <trkpt lat="45.8921" lon="7.0892">
        <ele>2747</ele>
        <time>2022-08-27T15:37:48Z</time>
      </trkpt>
      <trkpt lat="45.8921" lon="7.08923">
        <ele>2747</ele>
        <time>2022-08-27T15:37:49Z</time>
      </trkpt>
      <trkpt lat="45.8921" lon="7.08926">
        <ele>2747</ele>
        <time>2022-08-27T15:37:50Z</time>
      </trkpt>
      <trkpt lat="45.8921" lon="7.08931">
        <ele>2746</ele>
        <time>2022-08-27T15:37:52Z</time>
      </trkpt>
      <trkpt lat="45.8921" lon="7.08934">
        <ele>2746</ele>
        <time>2022-08-27T15:37:53Z</time>
      </trkpt>
      <trkpt lat="45.89209" lon="7.08939">
        <ele>2746</ele>
        <time>2022-08-27T15:37:55Z</time>
      </trkpt>
      <trkpt lat="45.8921" lon="7.08941">
        <ele>2746</ele>
        <time>2022-08-27T15:37:56Z</time>
      </trkpt>
      <trkpt lat="45.8921" lon="7.08944">
        <ele>2746</ele>
        <time>2022-08-27T15:37:57Z</time>
      </trkpt>
      <trkpt lat="45.89211" lon="7.08947">
        <ele>2746</ele>
        <time>2022-08-27T15:37:58Z</time>
      </trkpt>
      <trkpt lat="45.89211" lon="7.08949">
        <ele>2745</ele>
        <time>2022-08-27T15:37:59Z</time>
      </trkpt>
      <trkpt lat="45.89211" lon="7.08952">
        <ele>2745</ele>
        <time>2022-08-27T15:38:00Z</time>
      </trkpt>
      <trkpt lat="45.89212" lon="7.08955">
        <ele>2745</ele>
        <time>2022-08-27T15:38:01Z</time>
      </trkpt>
      <trkpt lat="45.89212" lon="7.08957">
        <ele>2745</ele>
        <time>2022-08-27T15:38:02Z</time>
      </trkpt>
      <trkpt lat="45.89213" lon="7.0896">
        <ele>2745</ele>
        <time>2022-08-27T15:38:03Z</time>
      </trkpt>
      <trkpt lat="45.89213" lon="7.08963">
        <ele>2745</ele>
        <time>2022-08-27T15:38:04Z</time>
      </trkpt>
      <trkpt lat="45.89214" lon="7.08965">
        <ele>2745</ele>
        <time>2022-08-27T15:38:05Z</time>
      </trkpt>
      <trkpt lat="45.89214" lon="7.0897">
        <ele>2745</ele>
        <time>2022-08-27T15:38:07Z</time>
      </trkpt>
      <trkpt lat="45.89214" lon="7.08974">
        <ele>2745</ele>
        <time>2022-08-27T15:38:09Z</time>
      </trkpt>
      <trkpt lat="45.89216" lon="7.08979">
        <ele>2744</ele>
        <time>2022-08-27T15:38:11Z</time>
      </trkpt>
      <trkpt lat="45.89217" lon="7.08983">
        <ele>2744</ele>
        <time>2022-08-27T15:38:13Z</time>
      </trkpt>
      <trkpt lat="45.89217" lon="7.08987">
        <ele>2744</ele>
        <time>2022-08-27T15:38:14Z</time>
      </trkpt>
      <trkpt lat="45.89217" lon="7.08989">
        <ele>2743</ele>
        <time>2022-08-27T15:38:15Z</time>
      </trkpt>
      <trkpt lat="45.89217" lon="7.08992">
        <ele>2742</ele>
        <time>2022-08-27T15:38:16Z</time>
      </trkpt>
      <trkpt lat="45.89218" lon="7.08995">
        <ele>2742</ele>
        <time>2022-08-27T15:38:17Z</time>
      </trkpt>
      <trkpt lat="45.89217" lon="7.08998">
        <ele>2742</ele>
        <time>2022-08-27T15:38:18Z</time>
      </trkpt>
      <trkpt lat="45.89216" lon="7.09002">
        <ele>2742</ele>
        <time>2022-08-27T15:38:20Z</time>
      </trkpt>
      <trkpt lat="45.89216" lon="7.09005">
        <ele>2742</ele>
        <time>2022-08-27T15:38:21Z</time>
      </trkpt>
      <trkpt lat="45.89215" lon="7.09009">
        <ele>2742</ele>
        <time>2022-08-27T15:38:22Z</time>
      </trkpt>
      <trkpt lat="45.89215" lon="7.09011">
        <ele>2741</ele>
        <time>2022-08-27T15:38:23Z</time>
      </trkpt>
      <trkpt lat="45.89214" lon="7.09014">
        <ele>2741</ele>
        <time>2022-08-27T15:38:24Z</time>
      </trkpt>
      <trkpt lat="45.89214" lon="7.09016">
        <ele>2741</ele>
        <time>2022-08-27T15:38:25Z</time>
      </trkpt>
      <trkpt lat="45.89213" lon="7.09021">
        <ele>2741</ele>
        <time>2022-08-27T15:38:27Z</time>
      </trkpt>
      <trkpt lat="45.89214" lon="7.09026">
        <ele>2741</ele>
        <time>2022-08-27T15:38:29Z</time>
      </trkpt>
      <trkpt lat="45.89214" lon="7.09032">
        <ele>2740</ele>
        <time>2022-08-27T15:38:31Z</time>
      </trkpt>
      <trkpt lat="45.89214" lon="7.09033">
        <ele>2740</ele>
        <time>2022-08-27T15:38:32Z</time>
      </trkpt>
      <trkpt lat="45.89213" lon="7.09039">
        <ele>2740</ele>
        <time>2022-08-27T15:38:34Z</time>
      </trkpt>
      <trkpt lat="45.89212" lon="7.09042">
        <ele>2740</ele>
        <time>2022-08-27T15:38:35Z</time>
      </trkpt>
      <trkpt lat="45.89211" lon="7.09044">
        <ele>2740</ele>
        <time>2022-08-27T15:38:36Z</time>
      </trkpt>
      <trkpt lat="45.89211" lon="7.0905">
        <ele>2740</ele>
        <time>2022-08-27T15:38:38Z</time>
      </trkpt>
      <trkpt lat="45.8921" lon="7.09053">
        <ele>2740</ele>
        <time>2022-08-27T15:38:39Z</time>
      </trkpt>
      <trkpt lat="45.8921" lon="7.09056">
        <ele>2740</ele>
        <time>2022-08-27T15:38:40Z</time>
      </trkpt>
      <trkpt lat="45.8921" lon="7.09059">
        <ele>2740</ele>
        <time>2022-08-27T15:38:41Z</time>
      </trkpt>
      <trkpt lat="45.8921" lon="7.09062">
        <ele>2740</ele>
        <time>2022-08-27T15:38:42Z</time>
      </trkpt>
      <trkpt lat="45.89209" lon="7.09064">
        <ele>2738</ele>
        <time>2022-08-27T15:38:43Z</time>
      </trkpt>
      <trkpt lat="45.89209" lon="7.09067">
        <ele>2738</ele>
        <time>2022-08-27T15:38:44Z</time>
      </trkpt>
      <trkpt lat="45.89209" lon="7.0907">
        <ele>2738</ele>
        <time>2022-08-27T15:38:45Z</time>
      </trkpt>
      <trkpt lat="45.89209" lon="7.09073">
        <ele>2738</ele>
        <time>2022-08-27T15:38:46Z</time>
      </trkpt>
      <trkpt lat="45.89209" lon="7.09078">
        <ele>2738</ele>
        <time>2022-08-27T15:38:48Z</time>
      </trkpt>
      <trkpt lat="45.89209" lon="7.09084">
        <ele>2738</ele>
        <time>2022-08-27T15:38:50Z</time>
      </trkpt>
      <trkpt lat="45.89209" lon="7.09086">
        <ele>2738</ele>
        <time>2022-08-27T15:38:51Z</time>
      </trkpt>
      <trkpt lat="45.89209" lon="7.09091">
        <ele>2736</ele>
        <time>2022-08-27T15:38:53Z</time>
      </trkpt>
      <trkpt lat="45.89209" lon="7.09093">
        <ele>2736</ele>
        <time>2022-08-27T15:38:54Z</time>
      </trkpt>
      <trkpt lat="45.89209" lon="7.09096">
        <ele>2736</ele>
        <time>2022-08-27T15:38:55Z</time>
      </trkpt>
      <trkpt lat="45.8921" lon="7.091">
        <ele>2736</ele>
        <time>2022-08-27T15:38:57Z</time>
      </trkpt>
      <trkpt lat="45.89212" lon="7.09103">
        <ele>2736</ele>
        <time>2022-08-27T15:38:59Z</time>
      </trkpt>
      <trkpt lat="45.89214" lon="7.09106">
        <ele>2735</ele>
        <time>2022-08-27T15:39:01Z</time>
      </trkpt>
      <trkpt lat="45.89215" lon="7.09108">
        <ele>2735</ele>
        <time>2022-08-27T15:39:02Z</time>
      </trkpt>
      <trkpt lat="45.89217" lon="7.09111">
        <ele>2735</ele>
        <time>2022-08-27T15:39:04Z</time>
      </trkpt>
      <trkpt lat="45.89219" lon="7.09114">
        <ele>2735</ele>
        <time>2022-08-27T15:39:06Z</time>
      </trkpt>
      <trkpt lat="45.8922" lon="7.09118">
        <ele>2734</ele>
        <time>2022-08-27T15:39:08Z</time>
      </trkpt>
      <trkpt lat="45.89221" lon="7.09121">
        <ele>2733</ele>
        <time>2022-08-27T15:39:10Z</time>
      </trkpt>
      <trkpt lat="45.8922" lon="7.09125">
        <ele>2733</ele>
        <time>2022-08-27T15:39:12Z</time>
      </trkpt>
      <trkpt lat="45.89219" lon="7.0913">
        <ele>2732</ele>
        <time>2022-08-27T15:39:14Z</time>
      </trkpt>
      <trkpt lat="45.89219" lon="7.09134">
        <ele>2731</ele>
        <time>2022-08-27T15:39:16Z</time>
      </trkpt>
      <trkpt lat="45.89218" lon="7.09139">
        <ele>2730</ele>
        <time>2022-08-27T15:39:18Z</time>
      </trkpt>
      <trkpt lat="45.89218" lon="7.09144">
        <ele>2730</ele>
        <time>2022-08-27T15:39:20Z</time>
      </trkpt>
      <trkpt lat="45.89218" lon="7.09147">
        <ele>2730</ele>
        <time>2022-08-27T15:39:21Z</time>
      </trkpt>
      <trkpt lat="45.89217" lon="7.09149">
        <ele>2730</ele>
        <time>2022-08-27T15:39:22Z</time>
      </trkpt>
      <trkpt lat="45.89217" lon="7.09152">
        <ele>2729</ele>
        <time>2022-08-27T15:39:23Z</time>
      </trkpt>
      <trkpt lat="45.89218" lon="7.09155">
        <ele>2729</ele>
        <time>2022-08-27T15:39:24Z</time>
      </trkpt>
      <trkpt lat="45.89218" lon="7.09158">
        <ele>2729</ele>
        <time>2022-08-27T15:39:25Z</time>
      </trkpt>
      <trkpt lat="45.89218" lon="7.0916">
        <ele>2728</ele>
        <time>2022-08-27T15:39:26Z</time>
      </trkpt>
      <trkpt lat="45.89219" lon="7.09165">
        <ele>2728</ele>
        <time>2022-08-27T15:39:28Z</time>
      </trkpt>
      <trkpt lat="45.89218" lon="7.09168">
        <ele>2728</ele>
        <time>2022-08-27T15:39:29Z</time>
      </trkpt>
      <trkpt lat="45.89218" lon="7.09173">
        <ele>2726</ele>
        <time>2022-08-27T15:39:31Z</time>
      </trkpt>
      <trkpt lat="45.89218" lon="7.09176">
        <ele>2725</ele>
        <time>2022-08-27T15:39:32Z</time>
      </trkpt>
      <trkpt lat="45.89218" lon="7.09178">
        <ele>2724</ele>
        <time>2022-08-27T15:39:33Z</time>
      </trkpt>
      <trkpt lat="45.89218" lon="7.09181">
        <ele>2724</ele>
        <time>2022-08-27T15:39:34Z</time>
      </trkpt>
      <trkpt lat="45.89218" lon="7.09183">
        <ele>2724</ele>
        <time>2022-08-27T15:39:35Z</time>
      </trkpt>
      <trkpt lat="45.89218" lon="7.09186">
        <ele>2724</ele>
        <time>2022-08-27T15:39:36Z</time>
      </trkpt>
      <trkpt lat="45.89217" lon="7.09189">
        <ele>2723</ele>
        <time>2022-08-27T15:39:37Z</time>
      </trkpt>
      <trkpt lat="45.89217" lon="7.09192">
        <ele>2723</ele>
        <time>2022-08-27T15:39:38Z</time>
      </trkpt>
      <trkpt lat="45.89216" lon="7.09197">
        <ele>2723</ele>
        <time>2022-08-27T15:39:39Z</time>
      </trkpt>
      <trkpt lat="45.89216" lon="7.09198">
        <ele>2723</ele>
        <time>2022-08-27T15:39:40Z</time>
      </trkpt>
      <trkpt lat="45.89216" lon="7.09201">
        <ele>2723</ele>
        <time>2022-08-27T15:39:41Z</time>
      </trkpt>
      <trkpt lat="45.89215" lon="7.09204">
        <ele>2722</ele>
        <time>2022-08-27T15:39:42Z</time>
      </trkpt>
      <trkpt lat="45.89215" lon="7.09207">
        <ele>2722</ele>
        <time>2022-08-27T15:39:43Z</time>
      </trkpt>
      <trkpt lat="45.89215" lon="7.0921">
        <ele>2722</ele>
        <time>2022-08-27T15:39:44Z</time>
      </trkpt>
      <trkpt lat="45.89215" lon="7.09213">
        <ele>2721</ele>
        <time>2022-08-27T15:39:45Z</time>
      </trkpt>
      <trkpt lat="45.89214" lon="7.09217">
        <ele>2721</ele>
        <time>2022-08-27T15:39:46Z</time>
      </trkpt>
      <trkpt lat="45.89214" lon="7.09218">
        <ele>2721</ele>
        <time>2022-08-27T15:39:47Z</time>
      </trkpt>
      <trkpt lat="45.89213" lon="7.09221">
        <ele>2721</ele>
        <time>2022-08-27T15:39:48Z</time>
      </trkpt>
      <trkpt lat="45.89213" lon="7.09223">
        <ele>2721</ele>
        <time>2022-08-27T15:39:49Z</time>
      </trkpt>
      <trkpt lat="45.89212" lon="7.09228">
        <ele>2721</ele>
        <time>2022-08-27T15:39:51Z</time>
      </trkpt>
      <trkpt lat="45.89211" lon="7.09233">
        <ele>2721</ele>
        <time>2022-08-27T15:39:53Z</time>
      </trkpt>
      <trkpt lat="45.89211" lon="7.09238">
        <ele>2719</ele>
        <time>2022-08-27T15:39:55Z</time>
      </trkpt>
      <trkpt lat="45.89211" lon="7.09241">
        <ele>2719</ele>
        <time>2022-08-27T15:39:56Z</time>
      </trkpt>
      <trkpt lat="45.89211" lon="7.09243">
        <ele>2718</ele>
        <time>2022-08-27T15:39:57Z</time>
      </trkpt>
      <trkpt lat="45.89211" lon="7.09246">
        <ele>2718</ele>
        <time>2022-08-27T15:39:58Z</time>
      </trkpt>
      <trkpt lat="45.8921" lon="7.09248">
        <ele>2718</ele>
        <time>2022-08-27T15:39:59Z</time>
      </trkpt>
      <trkpt lat="45.8921" lon="7.09253">
        <ele>2717</ele>
        <time>2022-08-27T15:40:01Z</time>
      </trkpt>
      <trkpt lat="45.8921" lon="7.09257">
        <ele>2717</ele>
        <time>2022-08-27T15:40:02Z</time>
      </trkpt>
      <trkpt lat="45.8921" lon="7.09259">
        <ele>2717</ele>
        <time>2022-08-27T15:40:03Z</time>
      </trkpt>
      <trkpt lat="45.8921" lon="7.09261">
        <ele>2717</ele>
        <time>2022-08-27T15:40:04Z</time>
      </trkpt>
      <trkpt lat="45.89211" lon="7.09264">
        <ele>2716</ele>
        <time>2022-08-27T15:40:05Z</time>
      </trkpt>
      <trkpt lat="45.89212" lon="7.09267">
        <ele>2716</ele>
        <time>2022-08-27T15:40:06Z</time>
      </trkpt>
      <trkpt lat="45.89212" lon="7.09269">
        <ele>2716</ele>
        <time>2022-08-27T15:40:07Z</time>
      </trkpt>
      <trkpt lat="45.89212" lon="7.09275">
        <ele>2716</ele>
        <time>2022-08-27T15:40:09Z</time>
      </trkpt>
      <trkpt lat="45.89212" lon="7.09277">
        <ele>2716</ele>
        <time>2022-08-27T15:40:10Z</time>
      </trkpt>
      <trkpt lat="45.89212" lon="7.09282">
        <ele>2714</ele>
        <time>2022-08-27T15:40:12Z</time>
      </trkpt>
      <trkpt lat="45.89212" lon="7.09285">
        <ele>2714</ele>
        <time>2022-08-27T15:40:13Z</time>
      </trkpt>
      <trkpt lat="45.89212" lon="7.09288">
        <ele>2714</ele>
        <time>2022-08-27T15:40:14Z</time>
      </trkpt>
      <trkpt lat="45.89212" lon="7.0929">
        <ele>2714</ele>
        <time>2022-08-27T15:40:15Z</time>
      </trkpt>
      <trkpt lat="45.89212" lon="7.09293">
        <ele>2714</ele>
        <time>2022-08-27T15:40:16Z</time>
      </trkpt>
      <trkpt lat="45.89212" lon="7.09295">
        <ele>2714</ele>
        <time>2022-08-27T15:40:17Z</time>
      </trkpt>
      <trkpt lat="45.89212" lon="7.09298">
        <ele>2714</ele>
        <time>2022-08-27T15:40:18Z</time>
      </trkpt>
      <trkpt lat="45.89213" lon="7.09303">
        <ele>2712</ele>
        <time>2022-08-27T15:40:20Z</time>
      </trkpt>
      <trkpt lat="45.89213" lon="7.09308">
        <ele>2712</ele>
        <time>2022-08-27T15:40:22Z</time>
      </trkpt>
      <trkpt lat="45.89213" lon="7.09313">
        <ele>2712</ele>
        <time>2022-08-27T15:40:24Z</time>
      </trkpt>
      <trkpt lat="45.89213" lon="7.09318">
        <ele>2712</ele>
        <time>2022-08-27T15:40:26Z</time>
      </trkpt>
      <trkpt lat="45.89212" lon="7.09323">
        <ele>2711</ele>
        <time>2022-08-27T15:40:28Z</time>
      </trkpt>
      <trkpt lat="45.89212" lon="7.09325">
        <ele>2710</ele>
        <time>2022-08-27T15:40:29Z</time>
      </trkpt>
      <trkpt lat="45.89212" lon="7.09327">
        <ele>2710</ele>
        <time>2022-08-27T15:40:30Z</time>
      </trkpt>
      <trkpt lat="45.89212" lon="7.0933">
        <ele>2710</ele>
        <time>2022-08-27T15:40:31Z</time>
      </trkpt>
      <trkpt lat="45.89214" lon="7.09334">
        <ele>2709</ele>
        <time>2022-08-27T15:40:33Z</time>
      </trkpt>
      <trkpt lat="45.89215" lon="7.09338">
        <ele>2709</ele>
        <time>2022-08-27T15:40:35Z</time>
      </trkpt>
      <trkpt lat="45.89218" lon="7.09342">
        <ele>2708</ele>
        <time>2022-08-27T15:40:37Z</time>
      </trkpt>
      <trkpt lat="45.89219" lon="7.09346">
        <ele>2707</ele>
        <time>2022-08-27T15:40:39Z</time>
      </trkpt>
      <trkpt lat="45.8922" lon="7.09351">
        <ele>2707</ele>
        <time>2022-08-27T15:40:41Z</time>
      </trkpt>
      <trkpt lat="45.89219" lon="7.09353">
        <ele>2707</ele>
        <time>2022-08-27T15:40:42Z</time>
      </trkpt>
      <trkpt lat="45.89219" lon="7.09358">
        <ele>2705</ele>
        <time>2022-08-27T15:40:44Z</time>
      </trkpt>
      <trkpt lat="45.89218" lon="7.0936">
        <ele>2705</ele>
        <time>2022-08-27T15:40:45Z</time>
      </trkpt>
      <trkpt lat="45.89218" lon="7.09365">
        <ele>2705</ele>
        <time>2022-08-27T15:40:47Z</time>
      </trkpt>
      <trkpt lat="45.89219" lon="7.09369">
        <ele>2705</ele>
        <time>2022-08-27T15:40:49Z</time>
      </trkpt>
      <trkpt lat="45.89219" lon="7.09374">
        <ele>2704</ele>
        <time>2022-08-27T15:40:51Z</time>
      </trkpt>
      <trkpt lat="45.8922" lon="7.09379">
        <ele>2704</ele>
        <time>2022-08-27T15:40:53Z</time>
      </trkpt>
      <trkpt lat="45.89221" lon="7.09382">
        <ele>2704</ele>
        <time>2022-08-27T15:40:55Z</time>
      </trkpt>
      <trkpt lat="45.89222" lon="7.09386">
        <ele>2702</ele>
        <time>2022-08-27T15:40:57Z</time>
      </trkpt>
      <trkpt lat="45.89223" lon="7.0939">
        <ele>2702</ele>
        <time>2022-08-27T15:40:59Z</time>
      </trkpt>
      <trkpt lat="45.89225" lon="7.09394">
        <ele>2702</ele>
        <time>2022-08-27T15:41:01Z</time>
      </trkpt>
      <trkpt lat="45.89227" lon="7.09397">
        <ele>2700</ele>
        <time>2022-08-27T15:41:03Z</time>
      </trkpt>
      <trkpt lat="45.89229" lon="7.09399">
        <ele>2699</ele>
        <time>2022-08-27T15:41:05Z</time>
      </trkpt>
      <trkpt lat="45.8923" lon="7.09403">
        <ele>2699</ele>
        <time>2022-08-27T15:41:07Z</time>
      </trkpt>
      <trkpt lat="45.89231" lon="7.09406">
        <ele>2698</ele>
        <time>2022-08-27T15:41:09Z</time>
      </trkpt>
      <trkpt lat="45.89232" lon="7.0941">
        <ele>2697</ele>
        <time>2022-08-27T15:41:11Z</time>
      </trkpt>
      <trkpt lat="45.89233" lon="7.09413">
        <ele>2696</ele>
        <time>2022-08-27T15:41:13Z</time>
      </trkpt>
      <trkpt lat="45.89234" lon="7.09416">
        <ele>2696</ele>
        <time>2022-08-27T15:41:15Z</time>
      </trkpt>
      <trkpt lat="45.89236" lon="7.09419">
        <ele>2696</ele>
        <time>2022-08-27T15:41:17Z</time>
      </trkpt>
      <trkpt lat="45.89237" lon="7.09421">
        <ele>2696</ele>
        <time>2022-08-27T15:41:19Z</time>
      </trkpt>
      <trkpt lat="45.89237" lon="7.09424">
        <ele>2695</ele>
        <time>2022-08-27T15:41:21Z</time>
      </trkpt>
      <trkpt lat="45.89239" lon="7.09427">
        <ele>2694</ele>
        <time>2022-08-27T15:41:23Z</time>
      </trkpt>
      <trkpt lat="45.8924" lon="7.09429">
        <ele>2693</ele>
        <time>2022-08-27T15:41:25Z</time>
      </trkpt>
      <trkpt lat="45.89242" lon="7.09432">
        <ele>2693</ele>
        <time>2022-08-27T15:41:27Z</time>
      </trkpt>
      <trkpt lat="45.89243" lon="7.09435">
        <ele>2692</ele>
        <time>2022-08-27T15:41:29Z</time>
      </trkpt>
      <trkpt lat="45.89244" lon="7.09438">
        <ele>2692</ele>
        <time>2022-08-27T15:41:31Z</time>
      </trkpt>
      <trkpt lat="45.89247" lon="7.09441">
        <ele>2690</ele>
        <time>2022-08-27T15:41:33Z</time>
      </trkpt>
      <trkpt lat="45.89249" lon="7.09444">
        <ele>2689</ele>
        <time>2022-08-27T15:41:35Z</time>
      </trkpt>
      <trkpt lat="45.89252" lon="7.09446">
        <ele>2688</ele>
        <time>2022-08-27T15:41:37Z</time>
      </trkpt>
      <trkpt lat="45.89253" lon="7.09449">
        <ele>2688</ele>
        <time>2022-08-27T15:41:39Z</time>
      </trkpt>
      <trkpt lat="45.89253" lon="7.09453">
        <ele>2686</ele>
        <time>2022-08-27T15:41:42Z</time>
      </trkpt>
      <trkpt lat="45.89252" lon="7.09457">
        <ele>2686</ele>
        <time>2022-08-27T15:41:44Z</time>
      </trkpt>
      <trkpt lat="45.89252" lon="7.09461">
        <ele>2685</ele>
        <time>2022-08-27T15:41:46Z</time>
      </trkpt>
      <trkpt lat="45.89251" lon="7.09465">
        <ele>2685</ele>
        <time>2022-08-27T15:41:48Z</time>
      </trkpt>
      <trkpt lat="45.8925" lon="7.09469">
        <ele>2684</ele>
        <time>2022-08-27T15:41:50Z</time>
      </trkpt>
      <trkpt lat="45.89251" lon="7.09473">
        <ele>2683</ele>
        <time>2022-08-27T15:41:52Z</time>
      </trkpt>
      <trkpt lat="45.89252" lon="7.09477">
        <ele>2682</ele>
        <time>2022-08-27T15:41:54Z</time>
      </trkpt>
      <trkpt lat="45.89253" lon="7.09479">
        <ele>2681</ele>
        <time>2022-08-27T15:41:56Z</time>
      </trkpt>
      <trkpt lat="45.89255" lon="7.09478">
        <ele>2681</ele>
        <time>2022-08-27T15:41:58Z</time>
      </trkpt>
      <trkpt lat="45.89257" lon="7.09474">
        <ele>2680</ele>
        <time>2022-08-27T15:42:00Z</time>
      </trkpt>
      <trkpt lat="45.8926" lon="7.09472">
        <ele>2680</ele>
        <time>2022-08-27T15:42:02Z</time>
      </trkpt>
      <trkpt lat="45.89262" lon="7.09473">
        <ele>2680</ele>
        <time>2022-08-27T15:42:04Z</time>
      </trkpt>
      <trkpt lat="45.89264" lon="7.09475">
        <ele>2678</ele>
        <time>2022-08-27T15:42:06Z</time>
      </trkpt>
      <trkpt lat="45.89265" lon="7.09479">
        <ele>2678</ele>
        <time>2022-08-27T15:42:08Z</time>
      </trkpt>
      <trkpt lat="45.89265" lon="7.09482">
        <ele>2678</ele>
        <time>2022-08-27T15:42:09Z</time>
      </trkpt>
      <trkpt lat="45.89266" lon="7.09484">
        <ele>2678</ele>
        <time>2022-08-27T15:42:10Z</time>
      </trkpt>
      <trkpt lat="45.89266" lon="7.09487">
        <ele>2677</ele>
        <time>2022-08-27T15:42:11Z</time>
      </trkpt>
      <trkpt lat="45.89267" lon="7.09489">
        <ele>2676</ele>
        <time>2022-08-27T15:42:12Z</time>
      </trkpt>
      <trkpt lat="45.89269" lon="7.09493">
        <ele>2676</ele>
        <time>2022-08-27T15:42:14Z</time>
      </trkpt>
      <trkpt lat="45.8927" lon="7.09495">
        <ele>2676</ele>
        <time>2022-08-27T15:42:15Z</time>
      </trkpt>
      <trkpt lat="45.89272" lon="7.09496">
        <ele>2676</ele>
        <time>2022-08-27T15:42:16Z</time>
      </trkpt>
      <trkpt lat="45.89274" lon="7.095">
        <ele>2676</ele>
        <time>2022-08-27T15:42:18Z</time>
      </trkpt>
      <trkpt lat="45.89275" lon="7.09504">
        <ele>2675</ele>
        <time>2022-08-27T15:42:20Z</time>
      </trkpt>
      <trkpt lat="45.89277" lon="7.09508">
        <ele>2674</ele>
        <time>2022-08-27T15:42:22Z</time>
      </trkpt>
      <trkpt lat="45.89279" lon="7.09512">
        <ele>2674</ele>
        <time>2022-08-27T15:42:24Z</time>
      </trkpt>
      <trkpt lat="45.8928" lon="7.09514">
        <ele>2674</ele>
        <time>2022-08-27T15:42:25Z</time>
      </trkpt>
      <trkpt lat="45.8928" lon="7.09517">
        <ele>2674</ele>
        <time>2022-08-27T15:42:26Z</time>
      </trkpt>
      <trkpt lat="45.89281" lon="7.09522">
        <ele>2674</ele>
        <time>2022-08-27T15:42:28Z</time>
      </trkpt>
      <trkpt lat="45.89282" lon="7.09526">
        <ele>2673</ele>
        <time>2022-08-27T15:42:30Z</time>
      </trkpt>
      <trkpt lat="45.89283" lon="7.0953">
        <ele>2672</ele>
        <time>2022-08-27T15:42:32Z</time>
      </trkpt>
      <trkpt lat="45.89283" lon="7.09535">
        <ele>2672</ele>
        <time>2022-08-27T15:42:34Z</time>
      </trkpt>
      <trkpt lat="45.89282" lon="7.09539">
        <ele>2671</ele>
        <time>2022-08-27T15:42:36Z</time>
      </trkpt>
      <trkpt lat="45.8928" lon="7.09543">
        <ele>2670</ele>
        <time>2022-08-27T15:42:38Z</time>
      </trkpt>
      <trkpt lat="45.8928" lon="7.09547">
        <ele>2669</ele>
        <time>2022-08-27T15:42:40Z</time>
      </trkpt>
      <trkpt lat="45.8928" lon="7.09551">
        <ele>2669</ele>
        <time>2022-08-27T15:42:42Z</time>
      </trkpt>
      <trkpt lat="45.89281" lon="7.09554">
        <ele>2669</ele>
        <time>2022-08-27T15:42:44Z</time>
      </trkpt>
      <trkpt lat="45.89283" lon="7.09558">
        <ele>2668</ele>
        <time>2022-08-27T15:42:46Z</time>
      </trkpt>
      <trkpt lat="45.89284" lon="7.09561">
        <ele>2666</ele>
        <time>2022-08-27T15:42:48Z</time>
      </trkpt>
      <trkpt lat="45.89284" lon="7.09565">
        <ele>2665</ele>
        <time>2022-08-27T15:42:50Z</time>
      </trkpt>
      <trkpt lat="45.89285" lon="7.09568">
        <ele>2664</ele>
        <time>2022-08-27T15:42:52Z</time>
      </trkpt>
      <trkpt lat="45.89285" lon="7.09571">
        <ele>2664</ele>
        <time>2022-08-27T15:42:54Z</time>
      </trkpt>
      <trkpt lat="45.89285" lon="7.09574">
        <ele>2663</ele>
        <time>2022-08-27T15:42:56Z</time>
      </trkpt>
      <trkpt lat="45.89286" lon="7.09577">
        <ele>2662</ele>
        <time>2022-08-27T15:42:58Z</time>
      </trkpt>
      <trkpt lat="45.89287" lon="7.0958">
        <ele>2662</ele>
        <time>2022-08-27T15:43:00Z</time>
      </trkpt>
      <trkpt lat="45.89288" lon="7.09584">
        <ele>2661</ele>
        <time>2022-08-27T15:43:02Z</time>
      </trkpt>
      <trkpt lat="45.89288" lon="7.09588">
        <ele>2660</ele>
        <time>2022-08-27T15:43:04Z</time>
      </trkpt>
      <trkpt lat="45.8929" lon="7.09593">
        <ele>2659</ele>
        <time>2022-08-27T15:43:06Z</time>
      </trkpt>
      <trkpt lat="45.8929" lon="7.09595">
        <ele>2659</ele>
        <time>2022-08-27T15:43:07Z</time>
      </trkpt>
      <trkpt lat="45.8929" lon="7.09597">
        <ele>2659</ele>
        <time>2022-08-27T15:43:08Z</time>
      </trkpt>
      <trkpt lat="45.8929" lon="7.09599">
        <ele>2658</ele>
        <time>2022-08-27T15:43:09Z</time>
      </trkpt>
      <trkpt lat="45.89291" lon="7.09601">
        <ele>2658</ele>
        <time>2022-08-27T15:43:10Z</time>
      </trkpt>
      <trkpt lat="45.89291" lon="7.09606">
        <ele>2658</ele>
        <time>2022-08-27T15:43:12Z</time>
      </trkpt>
      <trkpt lat="45.89293" lon="7.09612">
        <ele>2657</ele>
        <time>2022-08-27T15:43:14Z</time>
      </trkpt>
      <trkpt lat="45.89293" lon="7.09613">
        <ele>2657</ele>
        <time>2022-08-27T15:43:15Z</time>
      </trkpt>
      <trkpt lat="45.89295" lon="7.09617">
        <ele>2657</ele>
        <time>2022-08-27T15:43:17Z</time>
      </trkpt>
      <trkpt lat="45.89297" lon="7.09619">
        <ele>2657</ele>
        <time>2022-08-27T15:43:18Z</time>
      </trkpt>
      <trkpt lat="45.89298" lon="7.09623">
        <ele>2656</ele>
        <time>2022-08-27T15:43:20Z</time>
      </trkpt>
      <trkpt lat="45.893" lon="7.09628">
        <ele>2654</ele>
        <time>2022-08-27T15:43:22Z</time>
      </trkpt>
      <trkpt lat="45.89302" lon="7.09631">
        <ele>2654</ele>
        <time>2022-08-27T15:43:24Z</time>
      </trkpt>
      <trkpt lat="45.89303" lon="7.09635">
        <ele>2654</ele>
        <time>2022-08-27T15:43:26Z</time>
      </trkpt>
      <trkpt lat="45.89305" lon="7.09639">
        <ele>2653</ele>
        <time>2022-08-27T15:43:28Z</time>
      </trkpt>
      <trkpt lat="45.89306" lon="7.09642">
        <ele>2653</ele>
        <time>2022-08-27T15:43:30Z</time>
      </trkpt>
      <trkpt lat="45.89308" lon="7.09646">
        <ele>2653</ele>
        <time>2022-08-27T15:43:32Z</time>
      </trkpt>
      <trkpt lat="45.89308" lon="7.09649">
        <ele>2653</ele>
        <time>2022-08-27T15:43:34Z</time>
      </trkpt>
      <trkpt lat="45.8931" lon="7.09655">
        <ele>2652</ele>
        <time>2022-08-27T15:43:36Z</time>
      </trkpt>
      <trkpt lat="45.8931" lon="7.09657">
        <ele>2652</ele>
        <time>2022-08-27T15:43:37Z</time>
      </trkpt>
      <trkpt lat="45.8931" lon="7.09659">
        <ele>2652</ele>
        <time>2022-08-27T15:43:38Z</time>
      </trkpt>
      <trkpt lat="45.89311" lon="7.09661">
        <ele>2652</ele>
        <time>2022-08-27T15:43:39Z</time>
      </trkpt>
      <trkpt lat="45.89312" lon="7.09663">
        <ele>2651</ele>
        <time>2022-08-27T15:43:40Z</time>
      </trkpt>
      <trkpt lat="45.89312" lon="7.09666">
        <ele>2651</ele>
        <time>2022-08-27T15:43:41Z</time>
      </trkpt>
      <trkpt lat="45.89313" lon="7.09668">
        <ele>2651</ele>
        <time>2022-08-27T15:43:42Z</time>
      </trkpt>
      <trkpt lat="45.89314" lon="7.09673">
        <ele>2651</ele>
        <time>2022-08-27T15:43:44Z</time>
      </trkpt>
      <trkpt lat="45.89315" lon="7.09676">
        <ele>2651</ele>
        <time>2022-08-27T15:43:45Z</time>
      </trkpt>
      <trkpt lat="45.89317" lon="7.0968">
        <ele>2651</ele>
        <time>2022-08-27T15:43:47Z</time>
      </trkpt>
      <trkpt lat="45.89319" lon="7.09684">
        <ele>2650</ele>
        <time>2022-08-27T15:43:49Z</time>
      </trkpt>
      <trkpt lat="45.8932" lon="7.09687">
        <ele>2650</ele>
        <time>2022-08-27T15:43:50Z</time>
      </trkpt>
      <trkpt lat="45.89321" lon="7.09691">
        <ele>2649</ele>
        <time>2022-08-27T15:43:52Z</time>
      </trkpt>
      <trkpt lat="45.89322" lon="7.09694">
        <ele>2649</ele>
        <time>2022-08-27T15:43:53Z</time>
      </trkpt>
      <trkpt lat="45.89323" lon="7.09698">
        <ele>2649</ele>
        <time>2022-08-27T15:43:55Z</time>
      </trkpt>
      <trkpt lat="45.89325" lon="7.09702">
        <ele>2649</ele>
        <time>2022-08-27T15:43:57Z</time>
      </trkpt>
      <trkpt lat="45.89326" lon="7.09706">
        <ele>2648</ele>
        <time>2022-08-27T15:43:59Z</time>
      </trkpt>
      <trkpt lat="45.89328" lon="7.09711">
        <ele>2648</ele>
        <time>2022-08-27T15:44:01Z</time>
      </trkpt>
      <trkpt lat="45.89329" lon="7.09714">
        <ele>2648</ele>
        <time>2022-08-27T15:44:02Z</time>
      </trkpt>
      <trkpt lat="45.8933" lon="7.09718">
        <ele>2648</ele>
        <time>2022-08-27T15:44:04Z</time>
      </trkpt>
      <trkpt lat="45.89331" lon="7.09722">
        <ele>2648</ele>
        <time>2022-08-27T15:44:06Z</time>
      </trkpt>
      <trkpt lat="45.89333" lon="7.09726">
        <ele>2647</ele>
        <time>2022-08-27T15:44:08Z</time>
      </trkpt>
      <trkpt lat="45.89334" lon="7.0973">
        <ele>2647</ele>
        <time>2022-08-27T15:44:10Z</time>
      </trkpt>
      <trkpt lat="45.89337" lon="7.09735">
        <ele>2647</ele>
        <time>2022-08-27T15:44:12Z</time>
      </trkpt>
      <trkpt lat="45.89338" lon="7.09736">
        <ele>2647</ele>
        <time>2022-08-27T15:44:13Z</time>
      </trkpt>
      <trkpt lat="45.89339" lon="7.09738">
        <ele>2647</ele>
        <time>2022-08-27T15:44:14Z</time>
      </trkpt>
      <trkpt lat="45.8934" lon="7.0974">
        <ele>2646</ele>
        <time>2022-08-27T15:44:15Z</time>
      </trkpt>
      <trkpt lat="45.89341" lon="7.09745">
        <ele>2646</ele>
        <time>2022-08-27T15:44:17Z</time>
      </trkpt>
      <trkpt lat="45.89342" lon="7.09747">
        <ele>2646</ele>
        <time>2022-08-27T15:44:18Z</time>
      </trkpt>
      <trkpt lat="45.89343" lon="7.09751">
        <ele>2646</ele>
        <time>2022-08-27T15:44:20Z</time>
      </trkpt>
      <trkpt lat="45.89344" lon="7.09756">
        <ele>2646</ele>
        <time>2022-08-27T15:44:22Z</time>
      </trkpt>
      <trkpt lat="45.89345" lon="7.0976">
        <ele>2645</ele>
        <time>2022-08-27T15:44:24Z</time>
      </trkpt>
      <trkpt lat="45.89346" lon="7.09763">
        <ele>2644</ele>
        <time>2022-08-27T15:44:26Z</time>
      </trkpt>
      <trkpt lat="45.89348" lon="7.09767">
        <ele>2644</ele>
        <time>2022-08-27T15:44:28Z</time>
      </trkpt>
      <trkpt lat="45.8935" lon="7.0977">
        <ele>2644</ele>
        <time>2022-08-27T15:44:30Z</time>
      </trkpt>
      <trkpt lat="45.89352" lon="7.09773">
        <ele>2642</ele>
        <time>2022-08-27T15:44:32Z</time>
      </trkpt>
      <trkpt lat="45.89354" lon="7.09777">
        <ele>2641</ele>
        <time>2022-08-27T15:44:34Z</time>
      </trkpt>
      <trkpt lat="45.89355" lon="7.09782">
        <ele>2641</ele>
        <time>2022-08-27T15:44:36Z</time>
      </trkpt>
      <trkpt lat="45.89355" lon="7.09784">
        <ele>2641</ele>
        <time>2022-08-27T15:44:37Z</time>
      </trkpt>
      <trkpt lat="45.89355" lon="7.09787">
        <ele>2641</ele>
        <time>2022-08-27T15:44:38Z</time>
      </trkpt>
      <trkpt lat="45.89355" lon="7.09789">
        <ele>2640</ele>
        <time>2022-08-27T15:44:39Z</time>
      </trkpt>
      <trkpt lat="45.89356" lon="7.09792">
        <ele>2640</ele>
        <time>2022-08-27T15:44:40Z</time>
      </trkpt>
      <trkpt lat="45.89356" lon="7.09796">
        <ele>2639</ele>
        <time>2022-08-27T15:44:42Z</time>
      </trkpt>
      <trkpt lat="45.89355" lon="7.098">
        <ele>2639</ele>
        <time>2022-08-27T15:44:44Z</time>
      </trkpt>
      <trkpt lat="45.89356" lon="7.09804">
        <ele>2639</ele>
        <time>2022-08-27T15:44:46Z</time>
      </trkpt>
      <trkpt lat="45.89356" lon="7.09807">
        <ele>2639</ele>
        <time>2022-08-27T15:44:48Z</time>
      </trkpt>
      <trkpt lat="45.89356" lon="7.0981">
        <ele>2640</ele>
        <time>2022-08-27T15:44:50Z</time>
      </trkpt>
      <trkpt lat="45.89357" lon="7.09813">
        <ele>2641</ele>
        <time>2022-08-27T15:44:53Z</time>
      </trkpt>
      <trkpt lat="45.89359" lon="7.09816">
        <ele>2642</ele>
        <time>2022-08-27T15:44:56Z</time>
      </trkpt>
      <trkpt lat="45.89359" lon="7.09819">
        <ele>2642</ele>
        <time>2022-08-27T15:44:58Z</time>
      </trkpt>
      <trkpt lat="45.89359" lon="7.09823">
        <ele>2642</ele>
        <time>2022-08-27T15:45:00Z</time>
      </trkpt>
      <trkpt lat="45.8936" lon="7.09827">
        <ele>2642</ele>
        <time>2022-08-27T15:45:02Z</time>
      </trkpt>
      <trkpt lat="45.8936" lon="7.0983">
        <ele>2641</ele>
        <time>2022-08-27T15:45:04Z</time>
      </trkpt>
      <trkpt lat="45.89361" lon="7.09834">
        <ele>2641</ele>
        <time>2022-08-27T15:45:06Z</time>
      </trkpt>
      <trkpt lat="45.89362" lon="7.09837">
        <ele>2641</ele>
        <time>2022-08-27T15:45:08Z</time>
      </trkpt>
      <trkpt lat="45.89363" lon="7.09841">
        <ele>2641</ele>
        <time>2022-08-27T15:45:10Z</time>
      </trkpt>
      <trkpt lat="45.89363" lon="7.09844">
        <ele>2641</ele>
        <time>2022-08-27T15:45:12Z</time>
      </trkpt>
      <trkpt lat="45.89364" lon="7.09848">
        <ele>2641</ele>
        <time>2022-08-27T15:45:14Z</time>
      </trkpt>
      <trkpt lat="45.89365" lon="7.09851">
        <ele>2641</ele>
        <time>2022-08-27T15:45:16Z</time>
      </trkpt>
      <trkpt lat="45.89366" lon="7.09854">
        <ele>2641</ele>
        <time>2022-08-27T15:45:18Z</time>
      </trkpt>
      <trkpt lat="45.89367" lon="7.09858">
        <ele>2641</ele>
        <time>2022-08-27T15:45:20Z</time>
      </trkpt>
      <trkpt lat="45.89369" lon="7.0986">
        <ele>2641</ele>
        <time>2022-08-27T15:45:22Z</time>
      </trkpt>
      <trkpt lat="45.89371" lon="7.09864">
        <ele>2641</ele>
        <time>2022-08-27T15:45:24Z</time>
      </trkpt>
      <trkpt lat="45.89372" lon="7.09866">
        <ele>2641</ele>
        <time>2022-08-27T15:45:26Z</time>
      </trkpt>
      <trkpt lat="45.89374" lon="7.09869">
        <ele>2641</ele>
        <time>2022-08-27T15:45:28Z</time>
      </trkpt>
      <trkpt lat="45.89375" lon="7.09871">
        <ele>2641</ele>
        <time>2022-08-27T15:45:30Z</time>
      </trkpt>
      <trkpt lat="45.89376" lon="7.09874">
        <ele>2642</ele>
        <time>2022-08-27T15:45:33Z</time>
      </trkpt>
      <trkpt lat="45.89377" lon="7.09877">
        <ele>2644</ele>
        <time>2022-08-27T15:45:36Z</time>
      </trkpt>
      <trkpt lat="45.89379" lon="7.09879">
        <ele>2645</ele>
        <time>2022-08-27T15:45:38Z</time>
      </trkpt>
      <trkpt lat="45.8938" lon="7.09882">
        <ele>2645</ele>
        <time>2022-08-27T15:45:41Z</time>
      </trkpt>
      <trkpt lat="45.89382" lon="7.09884">
        <ele>2646</ele>
        <time>2022-08-27T15:45:44Z</time>
      </trkpt>
      <trkpt lat="45.89384" lon="7.09885">
        <ele>2647</ele>
        <time>2022-08-27T15:45:47Z</time>
      </trkpt>
      <trkpt lat="45.89387" lon="7.09886">
        <ele>2647</ele>
        <time>2022-08-27T15:45:50Z</time>
      </trkpt>
      <trkpt lat="45.89388" lon="7.09888">
        <ele>2647</ele>
        <time>2022-08-27T15:45:52Z</time>
      </trkpt>
      <trkpt lat="45.89391" lon="7.09889">
        <ele>2647</ele>
        <time>2022-08-27T15:45:55Z</time>
      </trkpt>
      <trkpt lat="45.89393" lon="7.0989">
        <ele>2648</ele>
        <time>2022-08-27T15:45:58Z</time>
      </trkpt>
      <trkpt lat="45.89395" lon="7.09892">
        <ele>2648</ele>
        <time>2022-08-27T15:46:00Z</time>
      </trkpt>
      <trkpt lat="45.89396" lon="7.09894">
        <ele>2648</ele>
        <time>2022-08-27T15:46:02Z</time>
      </trkpt>
      <trkpt lat="45.89398" lon="7.09896">
        <ele>2648</ele>
        <time>2022-08-27T15:46:04Z</time>
      </trkpt>
      <trkpt lat="45.89399" lon="7.09899">
        <ele>2648</ele>
        <time>2022-08-27T15:46:06Z</time>
      </trkpt>
      <trkpt lat="45.894" lon="7.09903">
        <ele>2648</ele>
        <time>2022-08-27T15:46:08Z</time>
      </trkpt>
      <trkpt lat="45.89401" lon="7.09906">
        <ele>2648</ele>
        <time>2022-08-27T15:46:10Z</time>
      </trkpt>
      <trkpt lat="45.89402" lon="7.0991">
        <ele>2648</ele>
        <time>2022-08-27T15:46:12Z</time>
      </trkpt>
      <trkpt lat="45.89404" lon="7.09913">
        <ele>2648</ele>
        <time>2022-08-27T15:46:14Z</time>
      </trkpt>
      <trkpt lat="45.89406" lon="7.09916">
        <ele>2648</ele>
        <time>2022-08-27T15:46:16Z</time>
      </trkpt>
      <trkpt lat="45.89408" lon="7.09918">
        <ele>2648</ele>
        <time>2022-08-27T15:46:18Z</time>
      </trkpt>
      <trkpt lat="45.89409" lon="7.0992">
        <ele>2648</ele>
        <time>2022-08-27T15:46:20Z</time>
      </trkpt>
      <trkpt lat="45.89411" lon="7.09923">
        <ele>2648</ele>
        <time>2022-08-27T15:46:22Z</time>
      </trkpt>
      <trkpt lat="45.89412" lon="7.09925">
        <ele>2648</ele>
        <time>2022-08-27T15:46:24Z</time>
      </trkpt>
      <trkpt lat="45.89414" lon="7.09928">
        <ele>2647</ele>
        <time>2022-08-27T15:46:26Z</time>
      </trkpt>
      <trkpt lat="45.89415" lon="7.0993">
        <ele>2646</ele>
        <time>2022-08-27T15:46:28Z</time>
      </trkpt>
      <trkpt lat="45.89417" lon="7.09933">
        <ele>2645</ele>
        <time>2022-08-27T15:46:30Z</time>
      </trkpt>
      <trkpt lat="45.89419" lon="7.09935">
        <ele>2645</ele>
        <time>2022-08-27T15:46:32Z</time>
      </trkpt>
      <trkpt lat="45.89421" lon="7.09939">
        <ele>2645</ele>
        <time>2022-08-27T15:46:34Z</time>
      </trkpt>
      <trkpt lat="45.89422" lon="7.09942">
        <ele>2642</ele>
        <time>2022-08-27T15:46:36Z</time>
      </trkpt>
      <trkpt lat="45.89423" lon="7.09947">
        <ele>2642</ele>
        <time>2022-08-27T15:46:38Z</time>
      </trkpt>
      <trkpt lat="45.89423" lon="7.0995">
        <ele>2642</ele>
        <time>2022-08-27T15:46:39Z</time>
      </trkpt>
      <trkpt lat="45.89423" lon="7.09955">
        <ele>2641</ele>
        <time>2022-08-27T15:46:41Z</time>
      </trkpt>
      <trkpt lat="45.89423" lon="7.09958">
        <ele>2641</ele>
        <time>2022-08-27T15:46:43Z</time>
      </trkpt>
      <trkpt lat="45.89423" lon="7.09962">
        <ele>2640</ele>
        <time>2022-08-27T15:46:45Z</time>
      </trkpt>
      <trkpt lat="45.89423" lon="7.09967">
        <ele>2640</ele>
        <time>2022-08-27T15:46:47Z</time>
      </trkpt>
      <trkpt lat="45.89424" lon="7.09969">
        <ele>2640</ele>
        <time>2022-08-27T15:46:48Z</time>
      </trkpt>
      <trkpt lat="45.89425" lon="7.09972">
        <ele>2639</ele>
        <time>2022-08-27T15:46:49Z</time>
      </trkpt>
      <trkpt lat="45.89426" lon="7.09974">
        <ele>2638</ele>
        <time>2022-08-27T15:46:50Z</time>
      </trkpt>
      <trkpt lat="45.89427" lon="7.09978">
        <ele>2638</ele>
        <time>2022-08-27T15:46:52Z</time>
      </trkpt>
      <trkpt lat="45.89429" lon="7.09981">
        <ele>2638</ele>
        <time>2022-08-27T15:46:54Z</time>
      </trkpt>
      <trkpt lat="45.8943" lon="7.09984">
        <ele>2638</ele>
        <time>2022-08-27T15:46:56Z</time>
      </trkpt>
      <trkpt lat="45.89432" lon="7.09987">
        <ele>2638</ele>
        <time>2022-08-27T15:46:58Z</time>
      </trkpt>
      <trkpt lat="45.89434" lon="7.0999">
        <ele>2638</ele>
        <time>2022-08-27T15:47:00Z</time>
      </trkpt>
      <trkpt lat="45.89437" lon="7.09992">
        <ele>2638</ele>
        <time>2022-08-27T15:47:02Z</time>
      </trkpt>
      <trkpt lat="45.89439" lon="7.09994">
        <ele>2638</ele>
        <time>2022-08-27T15:47:04Z</time>
      </trkpt>
      <trkpt lat="45.89441" lon="7.09996">
        <ele>2638</ele>
        <time>2022-08-27T15:47:06Z</time>
      </trkpt>
      <trkpt lat="45.89443" lon="7.09997">
        <ele>2637</ele>
        <time>2022-08-27T15:47:07Z</time>
      </trkpt>
      <trkpt lat="45.89444" lon="7.09999">
        <ele>2637</ele>
        <time>2022-08-27T15:47:08Z</time>
      </trkpt>
      <trkpt lat="45.89447" lon="7.10002">
        <ele>2637</ele>
        <time>2022-08-27T15:47:10Z</time>
      </trkpt>
      <trkpt lat="45.8945" lon="7.10005">
        <ele>2637</ele>
        <time>2022-08-27T15:47:12Z</time>
      </trkpt>
      <trkpt lat="45.89451" lon="7.10007">
        <ele>2636</ele>
        <time>2022-08-27T15:47:13Z</time>
      </trkpt>
      <trkpt lat="45.89453" lon="7.1001">
        <ele>2636</ele>
        <time>2022-08-27T15:47:15Z</time>
      </trkpt>
      <trkpt lat="45.89454" lon="7.10014">
        <ele>2636</ele>
        <time>2022-08-27T15:47:17Z</time>
      </trkpt>
      <trkpt lat="45.89456" lon="7.10017">
        <ele>2636</ele>
        <time>2022-08-27T15:47:19Z</time>
      </trkpt>
      <trkpt lat="45.89457" lon="7.1002">
        <ele>2636</ele>
        <time>2022-08-27T15:47:21Z</time>
      </trkpt>
      <trkpt lat="45.89458" lon="7.10022">
        <ele>2636</ele>
        <time>2022-08-27T15:47:23Z</time>
      </trkpt>
      <trkpt lat="45.8946" lon="7.10024">
        <ele>2637</ele>
        <time>2022-08-27T15:47:25Z</time>
      </trkpt>
      <trkpt lat="45.89462" lon="7.10026">
        <ele>2638</ele>
        <time>2022-08-27T15:47:27Z</time>
      </trkpt>
      <trkpt lat="45.89464" lon="7.10029">
        <ele>2638</ele>
        <time>2022-08-27T15:47:29Z</time>
      </trkpt>
      <trkpt lat="45.89466" lon="7.10031">
        <ele>2638</ele>
        <time>2022-08-27T15:47:31Z</time>
      </trkpt>
      <trkpt lat="45.89468" lon="7.10035">
        <ele>2638</ele>
        <time>2022-08-27T15:47:33Z</time>
      </trkpt>
      <trkpt lat="45.8947" lon="7.10038">
        <ele>2638</ele>
        <time>2022-08-27T15:47:35Z</time>
      </trkpt>
      <trkpt lat="45.89471" lon="7.10041">
        <ele>2638</ele>
        <time>2022-08-27T15:47:37Z</time>
      </trkpt>
      <trkpt lat="45.89473" lon="7.10044">
        <ele>2638</ele>
        <time>2022-08-27T15:47:39Z</time>
      </trkpt>
      <trkpt lat="45.89475" lon="7.10046">
        <ele>2636</ele>
        <time>2022-08-27T15:47:41Z</time>
      </trkpt>
      <trkpt lat="45.89476" lon="7.10048">
        <ele>2636</ele>
        <time>2022-08-27T15:47:42Z</time>
      </trkpt>
      <trkpt lat="45.89478" lon="7.10049">
        <ele>2636</ele>
        <time>2022-08-27T15:47:43Z</time>
      </trkpt>
      <trkpt lat="45.89479" lon="7.10051">
        <ele>2636</ele>
        <time>2022-08-27T15:47:44Z</time>
      </trkpt>
      <trkpt lat="45.8948" lon="7.10053">
        <ele>2636</ele>
        <time>2022-08-27T15:47:45Z</time>
      </trkpt>
      <trkpt lat="45.89482" lon="7.10057">
        <ele>2635</ele>
        <time>2022-08-27T15:47:47Z</time>
      </trkpt>
      <trkpt lat="45.89484" lon="7.10061">
        <ele>2635</ele>
        <time>2022-08-27T15:47:49Z</time>
      </trkpt>
      <trkpt lat="45.89486" lon="7.10065">
        <ele>2635</ele>
        <time>2022-08-27T15:47:51Z</time>
      </trkpt>
      <trkpt lat="45.89487" lon="7.10068">
        <ele>2634</ele>
        <time>2022-08-27T15:47:53Z</time>
      </trkpt>
      <trkpt lat="45.89489" lon="7.10071">
        <ele>2633</ele>
        <time>2022-08-27T15:47:55Z</time>
      </trkpt>
      <trkpt lat="45.89491" lon="7.10074">
        <ele>2633</ele>
        <time>2022-08-27T15:47:57Z</time>
      </trkpt>
      <trkpt lat="45.89493" lon="7.10077">
        <ele>2632</ele>
        <time>2022-08-27T15:47:59Z</time>
      </trkpt>
      <trkpt lat="45.89495" lon="7.1008">
        <ele>2631</ele>
        <time>2022-08-27T15:48:01Z</time>
      </trkpt>
      <trkpt lat="45.89498" lon="7.10083">
        <ele>2631</ele>
        <time>2022-08-27T15:48:03Z</time>
      </trkpt>
      <trkpt lat="45.89499" lon="7.10085">
        <ele>2631</ele>
        <time>2022-08-27T15:48:04Z</time>
      </trkpt>
      <trkpt lat="45.89501" lon="7.10087">
        <ele>2631</ele>
        <time>2022-08-27T15:48:05Z</time>
      </trkpt>
      <trkpt lat="45.89503" lon="7.10091">
        <ele>2629</ele>
        <time>2022-08-27T15:48:07Z</time>
      </trkpt>
      <trkpt lat="45.89504" lon="7.10094">
        <ele>2629</ele>
        <time>2022-08-27T15:48:09Z</time>
      </trkpt>
      <trkpt lat="45.89506" lon="7.10098">
        <ele>2629</ele>
        <time>2022-08-27T15:48:11Z</time>
      </trkpt>
      <trkpt lat="45.89507" lon="7.10102">
        <ele>2628</ele>
        <time>2022-08-27T15:48:13Z</time>
      </trkpt>
      <trkpt lat="45.89508" lon="7.10106">
        <ele>2628</ele>
        <time>2022-08-27T15:48:15Z</time>
      </trkpt>
      <trkpt lat="45.89509" lon="7.1011">
        <ele>2628</ele>
        <time>2022-08-27T15:48:17Z</time>
      </trkpt>
      <trkpt lat="45.8951" lon="7.10113">
        <ele>2627</ele>
        <time>2022-08-27T15:48:19Z</time>
      </trkpt>
      <trkpt lat="45.89511" lon="7.10117">
        <ele>2627</ele>
        <time>2022-08-27T15:48:21Z</time>
      </trkpt>
      <trkpt lat="45.89512" lon="7.10121">
        <ele>2626</ele>
        <time>2022-08-27T15:48:23Z</time>
      </trkpt>
      <trkpt lat="45.89513" lon="7.10125">
        <ele>2626</ele>
        <time>2022-08-27T15:48:25Z</time>
      </trkpt>
      <trkpt lat="45.89515" lon="7.10129">
        <ele>2626</ele>
        <time>2022-08-27T15:48:27Z</time>
      </trkpt>
      <trkpt lat="45.89516" lon="7.10132">
        <ele>2626</ele>
        <time>2022-08-27T15:48:29Z</time>
      </trkpt>
      <trkpt lat="45.89517" lon="7.10136">
        <ele>2625</ele>
        <time>2022-08-27T15:48:31Z</time>
      </trkpt>
      <trkpt lat="45.89518" lon="7.10139">
        <ele>2624</ele>
        <time>2022-08-27T15:48:33Z</time>
      </trkpt>
      <trkpt lat="45.89519" lon="7.10142">
        <ele>2624</ele>
        <time>2022-08-27T15:48:35Z</time>
      </trkpt>
      <trkpt lat="45.89521" lon="7.10146">
        <ele>2624</ele>
        <time>2022-08-27T15:48:37Z</time>
      </trkpt>
      <trkpt lat="45.89523" lon="7.10149">
        <ele>2624</ele>
        <time>2022-08-27T15:48:39Z</time>
      </trkpt>
      <trkpt lat="45.89524" lon="7.10153">
        <ele>2623</ele>
        <time>2022-08-27T15:48:41Z</time>
      </trkpt>
      <trkpt lat="45.89525" lon="7.10157">
        <ele>2623</ele>
        <time>2022-08-27T15:48:43Z</time>
      </trkpt>
      <trkpt lat="45.89525" lon="7.10161">
        <ele>2623</ele>
        <time>2022-08-27T15:48:45Z</time>
      </trkpt>
      <trkpt lat="45.89525" lon="7.10166">
        <ele>2622</ele>
        <time>2022-08-27T15:48:47Z</time>
      </trkpt>
      <trkpt lat="45.89526" lon="7.10171">
        <ele>2621</ele>
        <time>2022-08-27T15:48:49Z</time>
      </trkpt>
      <trkpt lat="45.89527" lon="7.10175">
        <ele>2620</ele>
        <time>2022-08-27T15:48:51Z</time>
      </trkpt>
      <trkpt lat="45.89528" lon="7.10179">
        <ele>2620</ele>
        <time>2022-08-27T15:48:53Z</time>
      </trkpt>
      <trkpt lat="45.89529" lon="7.10183">
        <ele>2620</ele>
        <time>2022-08-27T15:48:55Z</time>
      </trkpt>
      <trkpt lat="45.89531" lon="7.10186">
        <ele>2619</ele>
        <time>2022-08-27T15:48:57Z</time>
      </trkpt>
      <trkpt lat="45.89533" lon="7.10189">
        <ele>2619</ele>
        <time>2022-08-27T15:48:59Z</time>
      </trkpt>
      <trkpt lat="45.89535" lon="7.10191">
        <ele>2617</ele>
        <time>2022-08-27T15:49:01Z</time>
      </trkpt>
      <trkpt lat="45.89537" lon="7.10194">
        <ele>2617</ele>
        <time>2022-08-27T15:49:03Z</time>
      </trkpt>
      <trkpt lat="45.8954" lon="7.10197">
        <ele>2617</ele>
        <time>2022-08-27T15:49:05Z</time>
      </trkpt>
      <trkpt lat="45.89541" lon="7.102">
        <ele>2617</ele>
        <time>2022-08-27T15:49:07Z</time>
      </trkpt>
      <trkpt lat="45.89543" lon="7.10203">
        <ele>2616</ele>
        <time>2022-08-27T15:49:09Z</time>
      </trkpt>
      <trkpt lat="45.89544" lon="7.10207">
        <ele>2616</ele>
        <time>2022-08-27T15:49:11Z</time>
      </trkpt>
      <trkpt lat="45.89545" lon="7.1021">
        <ele>2616</ele>
        <time>2022-08-27T15:49:13Z</time>
      </trkpt>
      <trkpt lat="45.89547" lon="7.10213">
        <ele>2616</ele>
        <time>2022-08-27T15:49:15Z</time>
      </trkpt>
      <trkpt lat="45.89549" lon="7.10216">
        <ele>2615</ele>
        <time>2022-08-27T15:49:17Z</time>
      </trkpt>
      <trkpt lat="45.89549" lon="7.10221">
        <ele>2615</ele>
        <time>2022-08-27T15:49:19Z</time>
      </trkpt>
      <trkpt lat="45.89549" lon="7.10224">
        <ele>2615</ele>
        <time>2022-08-27T15:49:20Z</time>
      </trkpt>
      <trkpt lat="45.8955" lon="7.10226">
        <ele>2615</ele>
        <time>2022-08-27T15:49:21Z</time>
      </trkpt>
      <trkpt lat="45.89551" lon="7.1023">
        <ele>2614</ele>
        <time>2022-08-27T15:49:23Z</time>
      </trkpt>
      <trkpt lat="45.89552" lon="7.10233">
        <ele>2614</ele>
        <time>2022-08-27T15:49:25Z</time>
      </trkpt>
      <trkpt lat="45.89554" lon="7.10236">
        <ele>2614</ele>
        <time>2022-08-27T15:49:27Z</time>
      </trkpt>
      <trkpt lat="45.89556" lon="7.1024">
        <ele>2613</ele>
        <time>2022-08-27T15:49:29Z</time>
      </trkpt>
      <trkpt lat="45.89557" lon="7.10243">
        <ele>2613</ele>
        <time>2022-08-27T15:49:31Z</time>
      </trkpt>
      <trkpt lat="45.89557" lon="7.10247">
        <ele>2613</ele>
        <time>2022-08-27T15:49:33Z</time>
      </trkpt>
      <trkpt lat="45.89558" lon="7.10251">
        <ele>2613</ele>
        <time>2022-08-27T15:49:35Z</time>
      </trkpt>
      <trkpt lat="45.89559" lon="7.10255">
        <ele>2613</ele>
        <time>2022-08-27T15:49:37Z</time>
      </trkpt>
      <trkpt lat="45.8956" lon="7.10258">
        <ele>2613</ele>
        <time>2022-08-27T15:49:39Z</time>
      </trkpt>
      <trkpt lat="45.89562" lon="7.10263">
        <ele>2611</ele>
        <time>2022-08-27T15:49:41Z</time>
      </trkpt>
      <trkpt lat="45.89563" lon="7.10267">
        <ele>2611</ele>
        <time>2022-08-27T15:49:43Z</time>
      </trkpt>
      <trkpt lat="45.89564" lon="7.10272">
        <ele>2611</ele>
        <time>2022-08-27T15:49:45Z</time>
      </trkpt>
      <trkpt lat="45.89565" lon="7.10276">
        <ele>2611</ele>
        <time>2022-08-27T15:49:47Z</time>
      </trkpt>
      <trkpt lat="45.89566" lon="7.1028">
        <ele>2610</ele>
        <time>2022-08-27T15:49:49Z</time>
      </trkpt>
      <trkpt lat="45.89568" lon="7.10284">
        <ele>2610</ele>
        <time>2022-08-27T15:49:51Z</time>
      </trkpt>
      <trkpt lat="45.89569" lon="7.10287">
        <ele>2610</ele>
        <time>2022-08-27T15:49:53Z</time>
      </trkpt>
      <trkpt lat="45.89571" lon="7.10292">
        <ele>2610</ele>
        <time>2022-08-27T15:49:55Z</time>
      </trkpt>
      <trkpt lat="45.89572" lon="7.10297">
        <ele>2609</ele>
        <time>2022-08-27T15:49:57Z</time>
      </trkpt>
      <trkpt lat="45.89574" lon="7.10302">
        <ele>2609</ele>
        <time>2022-08-27T15:49:58Z</time>
      </trkpt>
      <trkpt lat="45.89574" lon="7.10304">
        <ele>2608</ele>
        <time>2022-08-27T15:49:59Z</time>
      </trkpt>
      <trkpt lat="45.89575" lon="7.10307">
        <ele>2608</ele>
        <time>2022-08-27T15:50:00Z</time>
      </trkpt>
      <trkpt lat="45.89576" lon="7.1031">
        <ele>2608</ele>
        <time>2022-08-27T15:50:01Z</time>
      </trkpt>
      <trkpt lat="45.89576" lon="7.10313">
        <ele>2608</ele>
        <time>2022-08-27T15:50:02Z</time>
      </trkpt>
      <trkpt lat="45.89577" lon="7.10315">
        <ele>2608</ele>
        <time>2022-08-27T15:50:03Z</time>
      </trkpt>
      <trkpt lat="45.89578" lon="7.10321">
        <ele>2608</ele>
        <time>2022-08-27T15:50:05Z</time>
      </trkpt>
      <trkpt lat="45.89579" lon="7.10322">
        <ele>2608</ele>
        <time>2022-08-27T15:50:06Z</time>
      </trkpt>
      <trkpt lat="45.8958" lon="7.10325">
        <ele>2608</ele>
        <time>2022-08-27T15:50:07Z</time>
      </trkpt>
      <trkpt lat="45.89581" lon="7.10327">
        <ele>2608</ele>
        <time>2022-08-27T15:50:08Z</time>
      </trkpt>
      <trkpt lat="45.89582" lon="7.10329">
        <ele>2608</ele>
        <time>2022-08-27T15:50:09Z</time>
      </trkpt>
      <trkpt lat="45.89583" lon="7.10331">
        <ele>2608</ele>
        <time>2022-08-27T15:50:10Z</time>
      </trkpt>
      <trkpt lat="45.89585" lon="7.10335">
        <ele>2608</ele>
        <time>2022-08-27T15:50:12Z</time>
      </trkpt>
      <trkpt lat="45.89588" lon="7.10338">
        <ele>2608</ele>
        <time>2022-08-27T15:50:14Z</time>
      </trkpt>
      <trkpt lat="45.8959" lon="7.10342">
        <ele>2608</ele>
        <time>2022-08-27T15:50:16Z</time>
      </trkpt>
      <trkpt lat="45.8959" lon="7.10345">
        <ele>2608</ele>
        <time>2022-08-27T15:50:17Z</time>
      </trkpt>
      <trkpt lat="45.89591" lon="7.10347">
        <ele>2608</ele>
        <time>2022-08-27T15:50:18Z</time>
      </trkpt>
      <trkpt lat="45.89592" lon="7.1035">
        <ele>2608</ele>
        <time>2022-08-27T15:50:19Z</time>
      </trkpt>
      <trkpt lat="45.89593" lon="7.10352">
        <ele>2608</ele>
        <time>2022-08-27T15:50:20Z</time>
      </trkpt>
      <trkpt lat="45.89594" lon="7.10355">
        <ele>2608</ele>
        <time>2022-08-27T15:50:21Z</time>
      </trkpt>
      <trkpt lat="45.89594" lon="7.10357">
        <ele>2608</ele>
        <time>2022-08-27T15:50:22Z</time>
      </trkpt>
      <trkpt lat="45.89595" lon="7.10359">
        <ele>2608</ele>
        <time>2022-08-27T15:50:23Z</time>
      </trkpt>
      <trkpt lat="45.89596" lon="7.10362">
        <ele>2608</ele>
        <time>2022-08-27T15:50:24Z</time>
      </trkpt>
      <trkpt lat="45.89597" lon="7.10364">
        <ele>2608</ele>
        <time>2022-08-27T15:50:25Z</time>
      </trkpt>
      <trkpt lat="45.89598" lon="7.10368">
        <ele>2608</ele>
        <time>2022-08-27T15:50:27Z</time>
      </trkpt>
      <trkpt lat="45.89599" lon="7.10372">
        <ele>2608</ele>
        <time>2022-08-27T15:50:29Z</time>
      </trkpt>
      <trkpt lat="45.89601" lon="7.10376">
        <ele>2608</ele>
        <time>2022-08-27T15:50:31Z</time>
      </trkpt>
      <trkpt lat="45.89602" lon="7.10381">
        <ele>2607</ele>
        <time>2022-08-27T15:50:33Z</time>
      </trkpt>
      <trkpt lat="45.89603" lon="7.10386">
        <ele>2607</ele>
        <time>2022-08-27T15:50:35Z</time>
      </trkpt>
      <trkpt lat="45.89603" lon="7.10391">
        <ele>2607</ele>
        <time>2022-08-27T15:50:37Z</time>
      </trkpt>
      <trkpt lat="45.89603" lon="7.10395">
        <ele>2607</ele>
        <time>2022-08-27T15:50:39Z</time>
      </trkpt>
      <trkpt lat="45.89604" lon="7.10399">
        <ele>2605</ele>
        <time>2022-08-27T15:50:41Z</time>
      </trkpt>
      <trkpt lat="45.89606" lon="7.10402">
        <ele>2605</ele>
        <time>2022-08-27T15:50:43Z</time>
      </trkpt>
      <trkpt lat="45.89607" lon="7.10408">
        <ele>2605</ele>
        <time>2022-08-27T15:50:45Z</time>
      </trkpt>
      <trkpt lat="45.89607" lon="7.10409">
        <ele>2604</ele>
        <time>2022-08-27T15:50:46Z</time>
      </trkpt>
      <trkpt lat="45.89608" lon="7.10413">
        <ele>2604</ele>
        <time>2022-08-27T15:50:48Z</time>
      </trkpt>
      <trkpt lat="45.8961" lon="7.10416">
        <ele>2604</ele>
        <time>2022-08-27T15:50:50Z</time>
      </trkpt>
      <trkpt lat="45.89611" lon="7.10421">
        <ele>2604</ele>
        <time>2022-08-27T15:50:52Z</time>
      </trkpt>
      <trkpt lat="45.89612" lon="7.10426">
        <ele>2603</ele>
        <time>2022-08-27T15:50:54Z</time>
      </trkpt>
      <trkpt lat="45.89613" lon="7.1043">
        <ele>2603</ele>
        <time>2022-08-27T15:50:56Z</time>
      </trkpt>
      <trkpt lat="45.89614" lon="7.10435">
        <ele>2603</ele>
        <time>2022-08-27T15:50:58Z</time>
      </trkpt>
      <trkpt lat="45.89616" lon="7.10439">
        <ele>2603</ele>
        <time>2022-08-27T15:51:00Z</time>
      </trkpt>
      <trkpt lat="45.89617" lon="7.10444">
        <ele>2602</ele>
        <time>2022-08-27T15:51:02Z</time>
      </trkpt>
      <trkpt lat="45.89618" lon="7.10449">
        <ele>2601</ele>
        <time>2022-08-27T15:51:04Z</time>
      </trkpt>
      <trkpt lat="45.89619" lon="7.10453">
        <ele>2601</ele>
        <time>2022-08-27T15:51:06Z</time>
      </trkpt>
      <trkpt lat="45.89619" lon="7.10458">
        <ele>2601</ele>
        <time>2022-08-27T15:51:08Z</time>
      </trkpt>
      <trkpt lat="45.8962" lon="7.10462">
        <ele>2601</ele>
        <time>2022-08-27T15:51:10Z</time>
      </trkpt>
      <trkpt lat="45.89621" lon="7.10466">
        <ele>2601</ele>
        <time>2022-08-27T15:51:12Z</time>
      </trkpt>
      <trkpt lat="45.89621" lon="7.10472">
        <ele>2601</ele>
        <time>2022-08-27T15:51:14Z</time>
      </trkpt>
      <trkpt lat="45.89621" lon="7.10474">
        <ele>2600</ele>
        <time>2022-08-27T15:51:15Z</time>
      </trkpt>
      <trkpt lat="45.89621" lon="7.10477">
        <ele>2600</ele>
        <time>2022-08-27T15:51:16Z</time>
      </trkpt>
      <trkpt lat="45.89621" lon="7.10482">
        <ele>2599</ele>
        <time>2022-08-27T15:51:18Z</time>
      </trkpt>
      <trkpt lat="45.89621" lon="7.10485">
        <ele>2598</ele>
        <time>2022-08-27T15:51:19Z</time>
      </trkpt>
      <trkpt lat="45.8962" lon="7.1049">
        <ele>2598</ele>
        <time>2022-08-27T15:51:21Z</time>
      </trkpt>
      <trkpt lat="45.8962" lon="7.10493">
        <ele>2598</ele>
        <time>2022-08-27T15:51:22Z</time>
      </trkpt>
      <trkpt lat="45.89621" lon="7.10496">
        <ele>2598</ele>
        <time>2022-08-27T15:51:23Z</time>
      </trkpt>
      <trkpt lat="45.89621" lon="7.10498">
        <ele>2597</ele>
        <time>2022-08-27T15:51:24Z</time>
      </trkpt>
      <trkpt lat="45.89621" lon="7.10501">
        <ele>2596</ele>
        <time>2022-08-27T15:51:25Z</time>
      </trkpt>
      <trkpt lat="45.89621" lon="7.10506">
        <ele>2596</ele>
        <time>2022-08-27T15:51:27Z</time>
      </trkpt>
      <trkpt lat="45.89622" lon="7.10511">
        <ele>2596</ele>
        <time>2022-08-27T15:51:29Z</time>
      </trkpt>
      <trkpt lat="45.89623" lon="7.10513">
        <ele>2596</ele>
        <time>2022-08-27T15:51:30Z</time>
      </trkpt>
      <trkpt lat="45.89624" lon="7.10516">
        <ele>2595</ele>
        <time>2022-08-27T15:51:31Z</time>
      </trkpt>
      <trkpt lat="45.89625" lon="7.10518">
        <ele>2593</ele>
        <time>2022-08-27T15:51:32Z</time>
      </trkpt>
      <trkpt lat="45.89626" lon="7.10523">
        <ele>2593</ele>
        <time>2022-08-27T15:51:34Z</time>
      </trkpt>
      <trkpt lat="45.89626" lon="7.10527">
        <ele>2593</ele>
        <time>2022-08-27T15:51:36Z</time>
      </trkpt>
      <trkpt lat="45.89627" lon="7.10532">
        <ele>2593</ele>
        <time>2022-08-27T15:51:38Z</time>
      </trkpt>
      <trkpt lat="45.89628" lon="7.10537">
        <ele>2592</ele>
        <time>2022-08-27T15:51:40Z</time>
      </trkpt>
      <trkpt lat="45.89629" lon="7.10541">
        <ele>2592</ele>
        <time>2022-08-27T15:51:42Z</time>
      </trkpt>
      <trkpt lat="45.8963" lon="7.10545">
        <ele>2592</ele>
        <time>2022-08-27T15:51:44Z</time>
      </trkpt>
      <trkpt lat="45.89631" lon="7.1055">
        <ele>2591</ele>
        <time>2022-08-27T15:51:46Z</time>
      </trkpt>
      <trkpt lat="45.89632" lon="7.10554">
        <ele>2591</ele>
        <time>2022-08-27T15:51:48Z</time>
      </trkpt>
      <trkpt lat="45.89634" lon="7.10559">
        <ele>2591</ele>
        <time>2022-08-27T15:51:50Z</time>
      </trkpt>
      <trkpt lat="45.89636" lon="7.10563">
        <ele>2590</ele>
        <time>2022-08-27T15:51:52Z</time>
      </trkpt>
      <trkpt lat="45.89637" lon="7.10568">
        <ele>2590</ele>
        <time>2022-08-27T15:51:54Z</time>
      </trkpt>
      <trkpt lat="45.89639" lon="7.10572">
        <ele>2590</ele>
        <time>2022-08-27T15:51:56Z</time>
      </trkpt>
      <trkpt lat="45.8964" lon="7.10574">
        <ele>2590</ele>
        <time>2022-08-27T15:51:57Z</time>
      </trkpt>
      <trkpt lat="45.89642" lon="7.10578">
        <ele>2590</ele>
        <time>2022-08-27T15:51:59Z</time>
      </trkpt>
      <trkpt lat="45.89642" lon="7.10583">
        <ele>2589</ele>
        <time>2022-08-27T15:52:01Z</time>
      </trkpt>
      <trkpt lat="45.89643" lon="7.10587">
        <ele>2588</ele>
        <time>2022-08-27T15:52:03Z</time>
      </trkpt>
      <trkpt lat="45.89644" lon="7.10592">
        <ele>2588</ele>
        <time>2022-08-27T15:52:05Z</time>
      </trkpt>
      <trkpt lat="45.89644" lon="7.10595">
        <ele>2588</ele>
        <time>2022-08-27T15:52:06Z</time>
      </trkpt>
      <trkpt lat="45.89645" lon="7.106">
        <ele>2587</ele>
        <time>2022-08-27T15:52:08Z</time>
      </trkpt>
      <trkpt lat="45.89646" lon="7.10605">
        <ele>2587</ele>
        <time>2022-08-27T15:52:10Z</time>
      </trkpt>
      <trkpt lat="45.89646" lon="7.10607">
        <ele>2586</ele>
        <time>2022-08-27T15:52:11Z</time>
      </trkpt>
      <trkpt lat="45.89647" lon="7.1061">
        <ele>2586</ele>
        <time>2022-08-27T15:52:12Z</time>
      </trkpt>
      <trkpt lat="45.89647" lon="7.10612">
        <ele>2586</ele>
        <time>2022-08-27T15:52:13Z</time>
      </trkpt>
      <trkpt lat="45.89648" lon="7.10614">
        <ele>2586</ele>
        <time>2022-08-27T15:52:14Z</time>
      </trkpt>
      <trkpt lat="45.89649" lon="7.10619">
        <ele>2585</ele>
        <time>2022-08-27T15:52:16Z</time>
      </trkpt>
      <trkpt lat="45.8965" lon="7.10621">
        <ele>2585</ele>
        <time>2022-08-27T15:52:17Z</time>
      </trkpt>
      <trkpt lat="45.89651" lon="7.10623">
        <ele>2585</ele>
        <time>2022-08-27T15:52:18Z</time>
      </trkpt>
      <trkpt lat="45.89651" lon="7.10625">
        <ele>2584</ele>
        <time>2022-08-27T15:52:19Z</time>
      </trkpt>
      <trkpt lat="45.89653" lon="7.10628">
        <ele>2584</ele>
        <time>2022-08-27T15:52:20Z</time>
      </trkpt>
      <trkpt lat="45.89655" lon="7.10632">
        <ele>2584</ele>
        <time>2022-08-27T15:52:22Z</time>
      </trkpt>
      <trkpt lat="45.89657" lon="7.10636">
        <ele>2584</ele>
        <time>2022-08-27T15:52:24Z</time>
      </trkpt>
      <trkpt lat="45.89659" lon="7.1064">
        <ele>2583</ele>
        <time>2022-08-27T15:52:26Z</time>
      </trkpt>
      <trkpt lat="45.8966" lon="7.10644">
        <ele>2583</ele>
        <time>2022-08-27T15:52:28Z</time>
      </trkpt>
      <trkpt lat="45.8966" lon="7.10648">
        <ele>2583</ele>
        <time>2022-08-27T15:52:30Z</time>
      </trkpt>
      <trkpt lat="45.89661" lon="7.10652">
        <ele>2581</ele>
        <time>2022-08-27T15:52:32Z</time>
      </trkpt>
      <trkpt lat="45.89662" lon="7.10656">
        <ele>2581</ele>
        <time>2022-08-27T15:52:34Z</time>
      </trkpt>
      <trkpt lat="45.89662" lon="7.1066">
        <ele>2580</ele>
        <time>2022-08-27T15:52:36Z</time>
      </trkpt>
      <trkpt lat="45.89664" lon="7.10664">
        <ele>2580</ele>
        <time>2022-08-27T15:52:38Z</time>
      </trkpt>
      <trkpt lat="45.89664" lon="7.10667">
        <ele>2579</ele>
        <time>2022-08-27T15:52:39Z</time>
      </trkpt>
      <trkpt lat="45.89664" lon="7.10671">
        <ele>2579</ele>
        <time>2022-08-27T15:52:41Z</time>
      </trkpt>
      <trkpt lat="45.89664" lon="7.10675">
        <ele>2579</ele>
        <time>2022-08-27T15:52:43Z</time>
      </trkpt>
      <trkpt lat="45.89665" lon="7.1068">
        <ele>2577</ele>
        <time>2022-08-27T15:52:45Z</time>
      </trkpt>
      <trkpt lat="45.89667" lon="7.10683">
        <ele>2577</ele>
        <time>2022-08-27T15:52:47Z</time>
      </trkpt>
      <trkpt lat="45.89668" lon="7.10688">
        <ele>2576</ele>
        <time>2022-08-27T15:52:49Z</time>
      </trkpt>
      <trkpt lat="45.8967" lon="7.10691">
        <ele>2575</ele>
        <time>2022-08-27T15:52:51Z</time>
      </trkpt>
      <trkpt lat="45.89672" lon="7.10695">
        <ele>2575</ele>
        <time>2022-08-27T15:52:53Z</time>
      </trkpt>
      <trkpt lat="45.89673" lon="7.10699">
        <ele>2575</ele>
        <time>2022-08-27T15:52:55Z</time>
      </trkpt>
      <trkpt lat="45.89675" lon="7.10703">
        <ele>2574</ele>
        <time>2022-08-27T15:52:57Z</time>
      </trkpt>
      <trkpt lat="45.89674" lon="7.10707">
        <ele>2574</ele>
        <time>2022-08-27T15:52:59Z</time>
      </trkpt>
      <trkpt lat="45.89671" lon="7.1071">
        <ele>2573</ele>
        <time>2022-08-27T15:53:01Z</time>
      </trkpt>
      <trkpt lat="45.8967" lon="7.10714">
        <ele>2573</ele>
        <time>2022-08-27T15:53:03Z</time>
      </trkpt>
      <trkpt lat="45.8967" lon="7.10718">
        <ele>2572</ele>
        <time>2022-08-27T15:53:05Z</time>
      </trkpt>
      <trkpt lat="45.8967" lon="7.10722">
        <ele>2571</ele>
        <time>2022-08-27T15:53:07Z</time>
      </trkpt>
      <trkpt lat="45.89671" lon="7.10727">
        <ele>2571</ele>
        <time>2022-08-27T15:53:09Z</time>
      </trkpt>
      <trkpt lat="45.89672" lon="7.10731">
        <ele>2569</ele>
        <time>2022-08-27T15:53:11Z</time>
      </trkpt>
      <trkpt lat="45.89672" lon="7.10735">
        <ele>2568</ele>
        <time>2022-08-27T15:53:13Z</time>
      </trkpt>
      <trkpt lat="45.89673" lon="7.10739">
        <ele>2566</ele>
        <time>2022-08-27T15:53:15Z</time>
      </trkpt>
      <trkpt lat="45.89673" lon="7.10742">
        <ele>2565</ele>
        <time>2022-08-27T15:53:17Z</time>
      </trkpt>
      <trkpt lat="45.89674" lon="7.10746">
        <ele>2564</ele>
        <time>2022-08-27T15:53:19Z</time>
      </trkpt>
      <trkpt lat="45.89674" lon="7.10751">
        <ele>2564</ele>
        <time>2022-08-27T15:53:21Z</time>
      </trkpt>
      <trkpt lat="45.89675" lon="7.10756">
        <ele>2563</ele>
        <time>2022-08-27T15:53:23Z</time>
      </trkpt>
      <trkpt lat="45.89676" lon="7.1076">
        <ele>2563</ele>
        <time>2022-08-27T15:53:25Z</time>
      </trkpt>
      <trkpt lat="45.89677" lon="7.10763">
        <ele>2562</ele>
        <time>2022-08-27T15:53:27Z</time>
      </trkpt>
      <trkpt lat="45.89678" lon="7.10767">
        <ele>2562</ele>
        <time>2022-08-27T15:53:29Z</time>
      </trkpt>
      <trkpt lat="45.89679" lon="7.1077">
        <ele>2560</ele>
        <time>2022-08-27T15:53:31Z</time>
      </trkpt>
      <trkpt lat="45.8968" lon="7.10774">
        <ele>2559</ele>
        <time>2022-08-27T15:53:33Z</time>
      </trkpt>
      <trkpt lat="45.89681" lon="7.10778">
        <ele>2559</ele>
        <time>2022-08-27T15:53:35Z</time>
      </trkpt>
      <trkpt lat="45.89682" lon="7.10782">
        <ele>2559</ele>
        <time>2022-08-27T15:53:37Z</time>
      </trkpt>
      <trkpt lat="45.89683" lon="7.10785">
        <ele>2557</ele>
        <time>2022-08-27T15:53:39Z</time>
      </trkpt>
      <trkpt lat="45.89685" lon="7.10789">
        <ele>2557</ele>
        <time>2022-08-27T15:53:41Z</time>
      </trkpt>
      <trkpt lat="45.89686" lon="7.10793">
        <ele>2555</ele>
        <time>2022-08-27T15:53:43Z</time>
      </trkpt>
      <trkpt lat="45.89687" lon="7.10796">
        <ele>2554</ele>
        <time>2022-08-27T15:53:45Z</time>
      </trkpt>
      <trkpt lat="45.89687" lon="7.10801">
        <ele>2554</ele>
        <time>2022-08-27T15:53:47Z</time>
      </trkpt>
      <trkpt lat="45.89687" lon="7.10805">
        <ele>2554</ele>
        <time>2022-08-27T15:53:49Z</time>
      </trkpt>
      <trkpt lat="45.89689" lon="7.10809">
        <ele>2553</ele>
        <time>2022-08-27T15:53:51Z</time>
      </trkpt>
      <trkpt lat="45.89691" lon="7.10812">
        <ele>2552</ele>
        <time>2022-08-27T15:53:53Z</time>
      </trkpt>
      <trkpt lat="45.89692" lon="7.10815">
        <ele>2552</ele>
        <time>2022-08-27T15:53:55Z</time>
      </trkpt>
      <trkpt lat="45.89693" lon="7.10819">
        <ele>2551</ele>
        <time>2022-08-27T15:53:57Z</time>
      </trkpt>
      <trkpt lat="45.89694" lon="7.10823">
        <ele>2550</ele>
        <time>2022-08-27T15:53:59Z</time>
      </trkpt>
      <trkpt lat="45.89695" lon="7.10828">
        <ele>2549</ele>
        <time>2022-08-27T15:54:01Z</time>
      </trkpt>
      <trkpt lat="45.89696" lon="7.10832">
        <ele>2549</ele>
        <time>2022-08-27T15:54:03Z</time>
      </trkpt>
      <trkpt lat="45.89697" lon="7.10835">
        <ele>2549</ele>
        <time>2022-08-27T15:54:05Z</time>
      </trkpt>
      <trkpt lat="45.89698" lon="7.1084">
        <ele>2549</ele>
        <time>2022-08-27T15:54:07Z</time>
      </trkpt>
      <trkpt lat="45.89698" lon="7.10844">
        <ele>2547</ele>
        <time>2022-08-27T15:54:09Z</time>
      </trkpt>
      <trkpt lat="45.897" lon="7.10848">
        <ele>2547</ele>
        <time>2022-08-27T15:54:11Z</time>
      </trkpt>
      <trkpt lat="45.89702" lon="7.10852">
        <ele>2547</ele>
        <time>2022-08-27T15:54:13Z</time>
      </trkpt>
      <trkpt lat="45.89704" lon="7.10855">
        <ele>2545</ele>
        <time>2022-08-27T15:54:15Z</time>
      </trkpt>
      <trkpt lat="45.89705" lon="7.10857">
        <ele>2545</ele>
        <time>2022-08-27T15:54:16Z</time>
      </trkpt>
      <trkpt lat="45.89706" lon="7.10861">
        <ele>2545</ele>
        <time>2022-08-27T15:54:18Z</time>
      </trkpt>
      <trkpt lat="45.89707" lon="7.10865">
        <ele>2544</ele>
        <time>2022-08-27T15:54:20Z</time>
      </trkpt>
      <trkpt lat="45.8971" lon="7.10868">
        <ele>2544</ele>
        <time>2022-08-27T15:54:22Z</time>
      </trkpt>
      <trkpt lat="45.89714" lon="7.1087">
        <ele>2542</ele>
        <time>2022-08-27T15:54:24Z</time>
      </trkpt>
      <trkpt lat="45.89716" lon="7.10873">
        <ele>2542</ele>
        <time>2022-08-27T15:54:26Z</time>
      </trkpt>
      <trkpt lat="45.89719" lon="7.10876">
        <ele>2542</ele>
        <time>2022-08-27T15:54:28Z</time>
      </trkpt>
      <trkpt lat="45.89722" lon="7.10879">
        <ele>2541</ele>
        <time>2022-08-27T15:54:30Z</time>
      </trkpt>
      <trkpt lat="45.89724" lon="7.10882">
        <ele>2540</ele>
        <time>2022-08-27T15:54:32Z</time>
      </trkpt>
      <trkpt lat="45.89726" lon="7.10884">
        <ele>2540</ele>
        <time>2022-08-27T15:54:34Z</time>
      </trkpt>
      <trkpt lat="45.89728" lon="7.10888">
        <ele>2540</ele>
        <time>2022-08-27T15:54:36Z</time>
      </trkpt>
      <trkpt lat="45.8973" lon="7.1089">
        <ele>2539</ele>
        <time>2022-08-27T15:54:38Z</time>
      </trkpt>
      <trkpt lat="45.89732" lon="7.10894">
        <ele>2538</ele>
        <time>2022-08-27T15:54:40Z</time>
      </trkpt>
      <trkpt lat="45.89733" lon="7.10896">
        <ele>2538</ele>
        <time>2022-08-27T15:54:41Z</time>
      </trkpt>
      <trkpt lat="45.89735" lon="7.109">
        <ele>2537</ele>
        <time>2022-08-27T15:54:43Z</time>
      </trkpt>
      <trkpt lat="45.89737" lon="7.10903">
        <ele>2537</ele>
        <time>2022-08-27T15:54:45Z</time>
      </trkpt>
      <trkpt lat="45.89738" lon="7.10907">
        <ele>2535</ele>
        <time>2022-08-27T15:54:47Z</time>
      </trkpt>
      <trkpt lat="45.89739" lon="7.10911">
        <ele>2535</ele>
        <time>2022-08-27T15:54:49Z</time>
      </trkpt>
      <trkpt lat="45.89741" lon="7.10915">
        <ele>2533</ele>
        <time>2022-08-27T15:54:51Z</time>
      </trkpt>
      <trkpt lat="45.89743" lon="7.10918">
        <ele>2533</ele>
        <time>2022-08-27T15:54:53Z</time>
      </trkpt>
      <trkpt lat="45.89744" lon="7.10921">
        <ele>2532</ele>
        <time>2022-08-27T15:54:55Z</time>
      </trkpt>
      <trkpt lat="45.89746" lon="7.10925">
        <ele>2531</ele>
        <time>2022-08-27T15:54:58Z</time>
      </trkpt>
      <trkpt lat="45.89748" lon="7.10928">
        <ele>2531</ele>
        <time>2022-08-27T15:54:59Z</time>
      </trkpt>
      <trkpt lat="45.89751" lon="7.10931">
        <ele>2530</ele>
        <time>2022-08-27T15:55:01Z</time>
      </trkpt>
      <trkpt lat="45.89753" lon="7.10934">
        <ele>2530</ele>
        <time>2022-08-27T15:55:03Z</time>
      </trkpt>
      <trkpt lat="45.89755" lon="7.10937">
        <ele>2530</ele>
        <time>2022-08-27T15:55:05Z</time>
      </trkpt>
      <trkpt lat="45.89756" lon="7.1094">
        <ele>2529</ele>
        <time>2022-08-27T15:55:07Z</time>
      </trkpt>
      <trkpt lat="45.89759" lon="7.10943">
        <ele>2528</ele>
        <time>2022-08-27T15:55:09Z</time>
      </trkpt>
      <trkpt lat="45.89761" lon="7.10945">
        <ele>2527</ele>
        <time>2022-08-27T15:55:11Z</time>
      </trkpt>
      <trkpt lat="45.89762" lon="7.10948">
        <ele>2526</ele>
        <time>2022-08-27T15:55:13Z</time>
      </trkpt>
      <trkpt lat="45.89764" lon="7.1095">
        <ele>2526</ele>
        <time>2022-08-27T15:55:15Z</time>
      </trkpt>
      <trkpt lat="45.89766" lon="7.10953">
        <ele>2526</ele>
        <time>2022-08-27T15:55:17Z</time>
      </trkpt>
      <trkpt lat="45.89767" lon="7.10956">
        <ele>2524</ele>
        <time>2022-08-27T15:55:19Z</time>
      </trkpt>
      <trkpt lat="45.8977" lon="7.10958">
        <ele>2524</ele>
        <time>2022-08-27T15:55:21Z</time>
      </trkpt>
      <trkpt lat="45.89772" lon="7.10961">
        <ele>2524</ele>
        <time>2022-08-27T15:55:23Z</time>
      </trkpt>
      <trkpt lat="45.89774" lon="7.10964">
        <ele>2524</ele>
        <time>2022-08-27T15:55:25Z</time>
      </trkpt>
      <trkpt lat="45.89776" lon="7.10967">
        <ele>2523</ele>
        <time>2022-08-27T15:55:27Z</time>
      </trkpt>
      <trkpt lat="45.89778" lon="7.1097">
        <ele>2522</ele>
        <time>2022-08-27T15:55:29Z</time>
      </trkpt>
      <trkpt lat="45.8978" lon="7.10974">
        <ele>2520</ele>
        <time>2022-08-27T15:55:31Z</time>
      </trkpt>
      <trkpt lat="45.89783" lon="7.10977">
        <ele>2520</ele>
        <time>2022-08-27T15:55:33Z</time>
      </trkpt>
      <trkpt lat="45.89785" lon="7.10979">
        <ele>2520</ele>
        <time>2022-08-27T15:55:35Z</time>
      </trkpt>
      <trkpt lat="45.89788" lon="7.10982">
        <ele>2519</ele>
        <time>2022-08-27T15:55:37Z</time>
      </trkpt>
      <trkpt lat="45.8979" lon="7.10985">
        <ele>2518</ele>
        <time>2022-08-27T15:55:39Z</time>
      </trkpt>
      <trkpt lat="45.89792" lon="7.10988">
        <ele>2517</ele>
        <time>2022-08-27T15:55:41Z</time>
      </trkpt>
      <trkpt lat="45.89793" lon="7.1099">
        <ele>2516</ele>
        <time>2022-08-27T15:55:43Z</time>
      </trkpt>
      <trkpt lat="45.89791" lon="7.10993">
        <ele>2516</ele>
        <time>2022-08-27T15:55:45Z</time>
      </trkpt>
      <trkpt lat="45.89788" lon="7.10994">
        <ele>2515</ele>
        <time>2022-08-27T15:55:47Z</time>
      </trkpt>
      <trkpt lat="45.89785" lon="7.10995">
        <ele>2515</ele>
        <time>2022-08-27T15:55:49Z</time>
      </trkpt>
      <trkpt lat="45.89782" lon="7.10995">
        <ele>2515</ele>
        <time>2022-08-27T15:55:51Z</time>
      </trkpt>
      <trkpt lat="45.89779" lon="7.10996">
        <ele>2514</ele>
        <time>2022-08-27T15:55:53Z</time>
      </trkpt>
      <trkpt lat="45.89776" lon="7.10996">
        <ele>2514</ele>
        <time>2022-08-27T15:55:55Z</time>
      </trkpt>
      <trkpt lat="45.89773" lon="7.10997">
        <ele>2513</ele>
        <time>2022-08-27T15:55:57Z</time>
      </trkpt>
      <trkpt lat="45.8977" lon="7.10997">
        <ele>2512</ele>
        <time>2022-08-27T15:55:59Z</time>
      </trkpt>
      <trkpt lat="45.89767" lon="7.10997">
        <ele>2512</ele>
        <time>2022-08-27T15:56:01Z</time>
      </trkpt>
      <trkpt lat="45.89765" lon="7.10997">
        <ele>2512</ele>
        <time>2022-08-27T15:56:03Z</time>
      </trkpt>
      <trkpt lat="45.89762" lon="7.10997">
        <ele>2511</ele>
        <time>2022-08-27T15:56:05Z</time>
      </trkpt>
      <trkpt lat="45.8976" lon="7.10998">
        <ele>2511</ele>
        <time>2022-08-27T15:56:07Z</time>
      </trkpt>
      <trkpt lat="45.89758" lon="7.10998">
        <ele>2511</ele>
        <time>2022-08-27T15:56:09Z</time>
      </trkpt>
      <trkpt lat="45.89755" lon="7.10997">
        <ele>2510</ele>
        <time>2022-08-27T15:56:11Z</time>
      </trkpt>
      <trkpt lat="45.89752" lon="7.10997">
        <ele>2510</ele>
        <time>2022-08-27T15:56:13Z</time>
      </trkpt>
      <trkpt lat="45.8975" lon="7.10997">
        <ele>2507</ele>
        <time>2022-08-27T15:56:15Z</time>
      </trkpt>
      <trkpt lat="45.89747" lon="7.10998">
        <ele>2507</ele>
        <time>2022-08-27T15:56:17Z</time>
      </trkpt>
      <trkpt lat="45.89744" lon="7.11">
        <ele>2507</ele>
        <time>2022-08-27T15:56:19Z</time>
      </trkpt>
      <trkpt lat="45.89741" lon="7.11001">
        <ele>2506</ele>
        <time>2022-08-27T15:56:21Z</time>
      </trkpt>
      <trkpt lat="45.89739" lon="7.11003">
        <ele>2506</ele>
        <time>2022-08-27T15:56:23Z</time>
      </trkpt>
      <trkpt lat="45.89738" lon="7.11006">
        <ele>2506</ele>
        <time>2022-08-27T15:56:26Z</time>
      </trkpt>
      <trkpt lat="45.89739" lon="7.11008">
        <ele>2506</ele>
        <time>2022-08-27T15:56:28Z</time>
      </trkpt>
      <trkpt lat="45.89741" lon="7.1101">
        <ele>2504</ele>
        <time>2022-08-27T15:56:30Z</time>
      </trkpt>
      <trkpt lat="45.89743" lon="7.11012">
        <ele>2504</ele>
        <time>2022-08-27T15:56:32Z</time>
      </trkpt>
      <trkpt lat="45.89745" lon="7.11014">
        <ele>2503</ele>
        <time>2022-08-27T15:56:34Z</time>
      </trkpt>
      <trkpt lat="45.89746" lon="7.11017">
        <ele>2503</ele>
        <time>2022-08-27T15:56:36Z</time>
      </trkpt>
      <trkpt lat="45.89748" lon="7.11019">
        <ele>2502</ele>
        <time>2022-08-27T15:56:38Z</time>
      </trkpt>
      <trkpt lat="45.89749" lon="7.11022">
        <ele>2501</ele>
        <time>2022-08-27T15:56:40Z</time>
      </trkpt>
      <trkpt lat="45.89751" lon="7.11024">
        <ele>2500</ele>
        <time>2022-08-27T15:56:42Z</time>
      </trkpt>
      <trkpt lat="45.89754" lon="7.11027">
        <ele>2500</ele>
        <time>2022-08-27T15:56:44Z</time>
      </trkpt>
      <trkpt lat="45.89756" lon="7.11029">
        <ele>2500</ele>
        <time>2022-08-27T15:56:46Z</time>
      </trkpt>
      <trkpt lat="45.89758" lon="7.11032">
        <ele>2499</ele>
        <time>2022-08-27T15:56:48Z</time>
      </trkpt>
      <trkpt lat="45.8976" lon="7.11034">
        <ele>2499</ele>
        <time>2022-08-27T15:56:50Z</time>
      </trkpt>
      <trkpt lat="45.89762" lon="7.11037">
        <ele>2498</ele>
        <time>2022-08-27T15:56:52Z</time>
      </trkpt>
      <trkpt lat="45.89763" lon="7.1104">
        <ele>2496</ele>
        <time>2022-08-27T15:56:54Z</time>
      </trkpt>
      <trkpt lat="45.89765" lon="7.11042">
        <ele>2496</ele>
        <time>2022-08-27T15:56:56Z</time>
      </trkpt>
      <trkpt lat="45.89768" lon="7.11044">
        <ele>2496</ele>
        <time>2022-08-27T15:56:58Z</time>
      </trkpt>
      <trkpt lat="45.8977" lon="7.11047">
        <ele>2494</ele>
        <time>2022-08-27T15:57:00Z</time>
      </trkpt>
      <trkpt lat="45.89772" lon="7.1105">
        <ele>2493</ele>
        <time>2022-08-27T15:57:02Z</time>
      </trkpt>
      <trkpt lat="45.89773" lon="7.11053">
        <ele>2493</ele>
        <time>2022-08-27T15:57:04Z</time>
      </trkpt>
      <trkpt lat="45.89774" lon="7.11056">
        <ele>2492</ele>
        <time>2022-08-27T15:57:06Z</time>
      </trkpt>
      <trkpt lat="45.89775" lon="7.11059">
        <ele>2492</ele>
        <time>2022-08-27T15:57:08Z</time>
      </trkpt>
      <trkpt lat="45.89777" lon="7.11061">
        <ele>2491</ele>
        <time>2022-08-27T15:57:10Z</time>
      </trkpt>
      <trkpt lat="45.89778" lon="7.11065">
        <ele>2490</ele>
        <time>2022-08-27T15:57:12Z</time>
      </trkpt>
      <trkpt lat="45.8978" lon="7.11069">
        <ele>2489</ele>
        <time>2022-08-27T15:57:14Z</time>
      </trkpt>
      <trkpt lat="45.89782" lon="7.11072">
        <ele>2489</ele>
        <time>2022-08-27T15:57:16Z</time>
      </trkpt>
      <trkpt lat="45.89784" lon="7.11075">
        <ele>2489</ele>
        <time>2022-08-27T15:57:18Z</time>
      </trkpt>
      <trkpt lat="45.89787" lon="7.11078">
        <ele>2488</ele>
        <time>2022-08-27T15:57:20Z</time>
      </trkpt>
      <trkpt lat="45.8979" lon="7.1108">
        <ele>2484</ele>
        <time>2022-08-27T15:57:22Z</time>
      </trkpt>
      <trkpt lat="45.89793" lon="7.11082">
        <ele>2484</ele>
        <time>2022-08-27T15:57:24Z</time>
      </trkpt>
      <trkpt lat="45.89795" lon="7.11083">
        <ele>2484</ele>
        <time>2022-08-27T15:57:26Z</time>
      </trkpt>
      <trkpt lat="45.89798" lon="7.11085">
        <ele>2484</ele>
        <time>2022-08-27T15:57:28Z</time>
      </trkpt>
      <trkpt lat="45.89801" lon="7.11088">
        <ele>2482</ele>
        <time>2022-08-27T15:57:30Z</time>
      </trkpt>
      <trkpt lat="45.89803" lon="7.1109">
        <ele>2482</ele>
        <time>2022-08-27T15:57:32Z</time>
      </trkpt>
      <trkpt lat="45.89806" lon="7.11092">
        <ele>2482</ele>
        <time>2022-08-27T15:57:34Z</time>
      </trkpt>
      <trkpt lat="45.89809" lon="7.11094">
        <ele>2482</ele>
        <time>2022-08-27T15:57:36Z</time>
      </trkpt>
      <trkpt lat="45.89812" lon="7.11097">
        <ele>2481</ele>
        <time>2022-08-27T15:57:38Z</time>
      </trkpt>
      <trkpt lat="45.89814" lon="7.11098">
        <ele>2481</ele>
        <time>2022-08-27T15:57:40Z</time>
      </trkpt>
      <trkpt lat="45.89817" lon="7.111">
        <ele>2480</ele>
        <time>2022-08-27T15:57:42Z</time>
      </trkpt>
      <trkpt lat="45.8982" lon="7.11102">
        <ele>2479</ele>
        <time>2022-08-27T15:57:44Z</time>
      </trkpt>
      <trkpt lat="45.89823" lon="7.11104">
        <ele>2479</ele>
        <time>2022-08-27T15:57:46Z</time>
      </trkpt>
      <trkpt lat="45.89825" lon="7.11106">
        <ele>2479</ele>
        <time>2022-08-27T15:57:48Z</time>
      </trkpt>
      <trkpt lat="45.89828" lon="7.11109">
        <ele>2478</ele>
        <time>2022-08-27T15:57:50Z</time>
      </trkpt>
      <trkpt lat="45.89831" lon="7.11111">
        <ele>2478</ele>
        <time>2022-08-27T15:57:52Z</time>
      </trkpt>
      <trkpt lat="45.89833" lon="7.11113">
        <ele>2477</ele>
        <time>2022-08-27T15:57:54Z</time>
      </trkpt>
      <trkpt lat="45.89836" lon="7.11115">
        <ele>2476</ele>
        <time>2022-08-27T15:57:56Z</time>
      </trkpt>
      <trkpt lat="45.89838" lon="7.11117">
        <ele>2476</ele>
        <time>2022-08-27T15:57:58Z</time>
      </trkpt>
      <trkpt lat="45.8984" lon="7.11119">
        <ele>2475</ele>
        <time>2022-08-27T15:58:00Z</time>
      </trkpt>
      <trkpt lat="45.89843" lon="7.11121">
        <ele>2474</ele>
        <time>2022-08-27T15:58:02Z</time>
      </trkpt>
      <trkpt lat="45.89845" lon="7.11123">
        <ele>2474</ele>
        <time>2022-08-27T15:58:04Z</time>
      </trkpt>
      <trkpt lat="45.89847" lon="7.11125">
        <ele>2474</ele>
        <time>2022-08-27T15:58:06Z</time>
      </trkpt>
      <trkpt lat="45.8985" lon="7.11128">
        <ele>2471</ele>
        <time>2022-08-27T15:58:08Z</time>
      </trkpt>
      <trkpt lat="45.89852" lon="7.1113">
        <ele>2471</ele>
        <time>2022-08-27T15:58:10Z</time>
      </trkpt>
      <trkpt lat="45.89854" lon="7.11133">
        <ele>2470</ele>
        <time>2022-08-27T15:58:12Z</time>
      </trkpt>
      <trkpt lat="45.89857" lon="7.11135">
        <ele>2470</ele>
        <time>2022-08-27T15:58:14Z</time>
      </trkpt>
      <trkpt lat="45.89859" lon="7.11137">
        <ele>2470</ele>
        <time>2022-08-27T15:58:16Z</time>
      </trkpt>
      <trkpt lat="45.89861" lon="7.1114">
        <ele>2468</ele>
        <time>2022-08-27T15:58:18Z</time>
      </trkpt>
      <trkpt lat="45.89863" lon="7.11142">
        <ele>2468</ele>
        <time>2022-08-27T15:58:20Z</time>
      </trkpt>
      <trkpt lat="45.89866" lon="7.11145">
        <ele>2468</ele>
        <time>2022-08-27T15:58:22Z</time>
      </trkpt>
      <trkpt lat="45.89868" lon="7.11148">
        <ele>2468</ele>
        <time>2022-08-27T15:58:24Z</time>
      </trkpt>
      <trkpt lat="45.8987" lon="7.11151">
        <ele>2468</ele>
        <time>2022-08-27T15:58:26Z</time>
      </trkpt>
      <trkpt lat="45.89872" lon="7.11153">
        <ele>2467</ele>
        <time>2022-08-27T15:58:28Z</time>
      </trkpt>
      <trkpt lat="45.89874" lon="7.11156">
        <ele>2465</ele>
        <time>2022-08-27T15:58:30Z</time>
      </trkpt>
      <trkpt lat="45.89876" lon="7.11158">
        <ele>2465</ele>
        <time>2022-08-27T15:58:32Z</time>
      </trkpt>
      <trkpt lat="45.89879" lon="7.1116">
        <ele>2464</ele>
        <time>2022-08-27T15:58:34Z</time>
      </trkpt>
      <trkpt lat="45.89882" lon="7.11161">
        <ele>2463</ele>
        <time>2022-08-27T15:58:36Z</time>
      </trkpt>
      <trkpt lat="45.89884" lon="7.11162">
        <ele>2462</ele>
        <time>2022-08-27T15:58:38Z</time>
      </trkpt>
      <trkpt lat="45.89887" lon="7.11164">
        <ele>2460</ele>
        <time>2022-08-27T15:58:40Z</time>
      </trkpt>
      <trkpt lat="45.8989" lon="7.11166">
        <ele>2459</ele>
        <time>2022-08-27T15:58:42Z</time>
      </trkpt>
      <trkpt lat="45.89893" lon="7.11169">
        <ele>2458</ele>
        <time>2022-08-27T15:58:44Z</time>
      </trkpt>
      <trkpt lat="45.89895" lon="7.11171">
        <ele>2457</ele>
        <time>2022-08-27T15:58:46Z</time>
      </trkpt>
      <trkpt lat="45.89897" lon="7.11173">
        <ele>2457</ele>
        <time>2022-08-27T15:58:48Z</time>
      </trkpt>
      <trkpt lat="45.899" lon="7.11175">
        <ele>2457</ele>
        <time>2022-08-27T15:58:50Z</time>
      </trkpt>
      <trkpt lat="45.89902" lon="7.11176">
        <ele>2457</ele>
        <time>2022-08-27T15:58:52Z</time>
      </trkpt>
      <trkpt lat="45.89906" lon="7.11177">
        <ele>2454</ele>
        <time>2022-08-27T15:58:54Z</time>
      </trkpt>
      <trkpt lat="45.89908" lon="7.11178">
        <ele>2454</ele>
        <time>2022-08-27T15:58:56Z</time>
      </trkpt>
      <trkpt lat="45.89911" lon="7.1118">
        <ele>2454</ele>
        <time>2022-08-27T15:58:58Z</time>
      </trkpt>
      <trkpt lat="45.89913" lon="7.11182">
        <ele>2453</ele>
        <time>2022-08-27T15:59:00Z</time>
      </trkpt>
      <trkpt lat="45.89915" lon="7.11183">
        <ele>2453</ele>
        <time>2022-08-27T15:59:02Z</time>
      </trkpt>
      <trkpt lat="45.89917" lon="7.11185">
        <ele>2452</ele>
        <time>2022-08-27T15:59:04Z</time>
      </trkpt>
      <trkpt lat="45.89919" lon="7.11187">
        <ele>2451</ele>
        <time>2022-08-27T15:59:06Z</time>
      </trkpt>
      <trkpt lat="45.89922" lon="7.11189">
        <ele>2451</ele>
        <time>2022-08-27T15:59:08Z</time>
      </trkpt>
      <trkpt lat="45.89925" lon="7.1119">
        <ele>2451</ele>
        <time>2022-08-27T15:59:10Z</time>
      </trkpt>
      <trkpt lat="45.89928" lon="7.11191">
        <ele>2450</ele>
        <time>2022-08-27T15:59:12Z</time>
      </trkpt>
      <trkpt lat="45.89931" lon="7.11192">
        <ele>2449</ele>
        <time>2022-08-27T15:59:14Z</time>
      </trkpt>
      <trkpt lat="45.89934" lon="7.11192">
        <ele>2449</ele>
        <time>2022-08-27T15:59:16Z</time>
      </trkpt>
      <trkpt lat="45.89937" lon="7.11193">
        <ele>2448</ele>
        <time>2022-08-27T15:59:18Z</time>
      </trkpt>
      <trkpt lat="45.8994" lon="7.11193">
        <ele>2448</ele>
        <time>2022-08-27T15:59:20Z</time>
      </trkpt>
      <trkpt lat="45.89943" lon="7.11194">
        <ele>2448</ele>
        <time>2022-08-27T15:59:22Z</time>
      </trkpt>
      <trkpt lat="45.89946" lon="7.11196">
        <ele>2447</ele>
        <time>2022-08-27T15:59:24Z</time>
      </trkpt>
      <trkpt lat="45.89948" lon="7.11197">
        <ele>2447</ele>
        <time>2022-08-27T15:59:26Z</time>
      </trkpt>
      <trkpt lat="45.89951" lon="7.11199">
        <ele>2447</ele>
        <time>2022-08-27T15:59:28Z</time>
      </trkpt>
      <trkpt lat="45.89954" lon="7.11201">
        <ele>2446</ele>
        <time>2022-08-27T15:59:30Z</time>
      </trkpt>
      <trkpt lat="45.89957" lon="7.11202">
        <ele>2446</ele>
        <time>2022-08-27T15:59:32Z</time>
      </trkpt>
      <trkpt lat="45.89959" lon="7.11203">
        <ele>2446</ele>
        <time>2022-08-27T15:59:33Z</time>
      </trkpt>
      <trkpt lat="45.89962" lon="7.11206">
        <ele>2445</ele>
        <time>2022-08-27T15:59:35Z</time>
      </trkpt>
      <trkpt lat="45.89965" lon="7.11207">
        <ele>2445</ele>
        <time>2022-08-27T15:59:37Z</time>
      </trkpt>
      <trkpt lat="45.89968" lon="7.11209">
        <ele>2445</ele>
        <time>2022-08-27T15:59:39Z</time>
      </trkpt>
      <trkpt lat="45.89971" lon="7.11211">
        <ele>2445</ele>
        <time>2022-08-27T15:59:41Z</time>
      </trkpt>
      <trkpt lat="45.89974" lon="7.11212">
        <ele>2444</ele>
        <time>2022-08-27T15:59:43Z</time>
      </trkpt>
      <trkpt lat="45.89977" lon="7.11214">
        <ele>2443</ele>
        <time>2022-08-27T15:59:45Z</time>
      </trkpt>
      <trkpt lat="45.8998" lon="7.11216">
        <ele>2443</ele>
        <time>2022-08-27T15:59:47Z</time>
      </trkpt>
      <trkpt lat="45.89982" lon="7.11218">
        <ele>2443</ele>
        <time>2022-08-27T15:59:49Z</time>
      </trkpt>
      <trkpt lat="45.89984" lon="7.1122">
        <ele>2442</ele>
        <time>2022-08-27T15:59:51Z</time>
      </trkpt>
      <trkpt lat="45.89986" lon="7.11222">
        <ele>2442</ele>
        <time>2022-08-27T15:59:53Z</time>
      </trkpt>
      <trkpt lat="45.89989" lon="7.11225">
        <ele>2442</ele>
        <time>2022-08-27T15:59:55Z</time>
      </trkpt>
      <trkpt lat="45.89991" lon="7.11227">
        <ele>2441</ele>
        <time>2022-08-27T15:59:57Z</time>
      </trkpt>
      <trkpt lat="45.89994" lon="7.11229">
        <ele>2440</ele>
        <time>2022-08-27T15:59:59Z</time>
      </trkpt>
      <trkpt lat="45.89994" lon="7.11234">
        <ele>2440</ele>
        <time>2022-08-27T16:00:02Z</time>
      </trkpt>
      <trkpt lat="45.89992" lon="7.11236">
        <ele>2440</ele>
        <time>2022-08-27T16:00:03Z</time>
      </trkpt>
      <trkpt lat="45.8999" lon="7.11238">
        <ele>2438</ele>
        <time>2022-08-27T16:00:05Z</time>
      </trkpt>
      <trkpt lat="45.89987" lon="7.1124">
        <ele>2438</ele>
        <time>2022-08-27T16:00:07Z</time>
      </trkpt>
      <trkpt lat="45.89984" lon="7.11242">
        <ele>2437</ele>
        <time>2022-08-27T16:00:09Z</time>
      </trkpt>
      <trkpt lat="45.89982" lon="7.11244">
        <ele>2438</ele>
        <time>2022-08-27T16:00:11Z</time>
      </trkpt>
      <trkpt lat="45.8998" lon="7.11245">
        <ele>2437</ele>
        <time>2022-08-27T16:00:12Z</time>
      </trkpt>
      <trkpt lat="45.89979" lon="7.11246">
        <ele>2437</ele>
        <time>2022-08-27T16:00:13Z</time>
      </trkpt>
      <trkpt lat="45.89977" lon="7.11246">
        <ele>2437</ele>
        <time>2022-08-27T16:00:14Z</time>
      </trkpt>
      <trkpt lat="45.89975" lon="7.11246">
        <ele>2437</ele>
        <time>2022-08-27T16:00:15Z</time>
      </trkpt>
      <trkpt lat="45.89972" lon="7.11248">
        <ele>2437</ele>
        <time>2022-08-27T16:00:17Z</time>
      </trkpt>
      <trkpt lat="45.89968" lon="7.1125">
        <ele>2437</ele>
        <time>2022-08-27T16:00:19Z</time>
      </trkpt>
      <trkpt lat="45.89966" lon="7.1125">
        <ele>2437</ele>
        <time>2022-08-27T16:00:20Z</time>
      </trkpt>
      <trkpt lat="45.89964" lon="7.11251">
        <ele>2436</ele>
        <time>2022-08-27T16:00:21Z</time>
      </trkpt>
      <trkpt lat="45.89961" lon="7.11251">
        <ele>2435</ele>
        <time>2022-08-27T16:00:23Z</time>
      </trkpt>
      <trkpt lat="45.89959" lon="7.11251">
        <ele>2435</ele>
        <time>2022-08-27T16:00:25Z</time>
      </trkpt>
      <trkpt lat="45.89956" lon="7.11252">
        <ele>2435</ele>
        <time>2022-08-27T16:00:27Z</time>
      </trkpt>
      <trkpt lat="45.89954" lon="7.11254">
        <ele>2435</ele>
        <time>2022-08-27T16:00:29Z</time>
      </trkpt>
      <trkpt lat="45.89951" lon="7.11254">
        <ele>2434</ele>
        <time>2022-08-27T16:00:31Z</time>
      </trkpt>
      <trkpt lat="45.89948" lon="7.11255">
        <ele>2434</ele>
        <time>2022-08-27T16:00:33Z</time>
      </trkpt>
      <trkpt lat="45.89945" lon="7.11256">
        <ele>2434</ele>
        <time>2022-08-27T16:00:35Z</time>
      </trkpt>
      <trkpt lat="45.89943" lon="7.11256">
        <ele>2434</ele>
        <time>2022-08-27T16:00:36Z</time>
      </trkpt>
      <trkpt lat="45.8994" lon="7.11256">
        <ele>2433</ele>
        <time>2022-08-27T16:00:38Z</time>
      </trkpt>
      <trkpt lat="45.89937" lon="7.11255">
        <ele>2431</ele>
        <time>2022-08-27T16:00:40Z</time>
      </trkpt>
      <trkpt lat="45.89935" lon="7.11255">
        <ele>2431</ele>
        <time>2022-08-27T16:00:41Z</time>
      </trkpt>
      <trkpt lat="45.89933" lon="7.11255">
        <ele>2431</ele>
        <time>2022-08-27T16:00:42Z</time>
      </trkpt>
      <trkpt lat="45.89931" lon="7.11255">
        <ele>2430</ele>
        <time>2022-08-27T16:00:43Z</time>
      </trkpt>
      <trkpt lat="45.89928" lon="7.11255">
        <ele>2430</ele>
        <time>2022-08-27T16:00:44Z</time>
      </trkpt>
      <trkpt lat="45.89926" lon="7.11255">
        <ele>2430</ele>
        <time>2022-08-27T16:00:45Z</time>
      </trkpt>
      <trkpt lat="45.89923" lon="7.11255">
        <ele>2430</ele>
        <time>2022-08-27T16:00:46Z</time>
      </trkpt>
      <trkpt lat="45.89922" lon="7.11254">
        <ele>2430</ele>
        <time>2022-08-27T16:00:47Z</time>
      </trkpt>
      <trkpt lat="45.8992" lon="7.11254">
        <ele>2428</ele>
        <time>2022-08-27T16:00:48Z</time>
      </trkpt>
      <trkpt lat="45.89917" lon="7.11254">
        <ele>2428</ele>
        <time>2022-08-27T16:00:49Z</time>
      </trkpt>
      <trkpt lat="45.89915" lon="7.11254">
        <ele>2428</ele>
        <time>2022-08-27T16:00:50Z</time>
      </trkpt>
      <trkpt lat="45.89913" lon="7.11255">
        <ele>2428</ele>
        <time>2022-08-27T16:00:51Z</time>
      </trkpt>
      <trkpt lat="45.89911" lon="7.11255">
        <ele>2428</ele>
        <time>2022-08-27T16:00:52Z</time>
      </trkpt>
      <trkpt lat="45.89909" lon="7.11255">
        <ele>2428</ele>
        <time>2022-08-27T16:00:53Z</time>
      </trkpt>
      <trkpt lat="45.89907" lon="7.11255">
        <ele>2428</ele>
        <time>2022-08-27T16:00:54Z</time>
      </trkpt>
      <trkpt lat="45.89905" lon="7.11255">
        <ele>2428</ele>
        <time>2022-08-27T16:00:55Z</time>
      </trkpt>
      <trkpt lat="45.89903" lon="7.11255">
        <ele>2428</ele>
        <time>2022-08-27T16:00:56Z</time>
      </trkpt>
      <trkpt lat="45.899" lon="7.11256">
        <ele>2426</ele>
        <time>2022-08-27T16:00:58Z</time>
      </trkpt>
      <trkpt lat="45.89898" lon="7.11256">
        <ele>2425</ele>
        <time>2022-08-27T16:00:59Z</time>
      </trkpt>
      <trkpt lat="45.89895" lon="7.11256">
        <ele>2425</ele>
        <time>2022-08-27T16:01:01Z</time>
      </trkpt>
      <trkpt lat="45.89892" lon="7.11258">
        <ele>2425</ele>
        <time>2022-08-27T16:01:03Z</time>
      </trkpt>
      <trkpt lat="45.89888" lon="7.11258">
        <ele>2425</ele>
        <time>2022-08-27T16:01:05Z</time>
      </trkpt>
      <trkpt lat="45.89885" lon="7.11258">
        <ele>2424</ele>
        <time>2022-08-27T16:01:07Z</time>
      </trkpt>
      <trkpt lat="45.89882" lon="7.11259">
        <ele>2423</ele>
        <time>2022-08-27T16:01:09Z</time>
      </trkpt>
      <trkpt lat="45.89879" lon="7.11258">
        <ele>2423</ele>
        <time>2022-08-27T16:01:11Z</time>
      </trkpt>
      <trkpt lat="45.89877" lon="7.11259">
        <ele>2422</ele>
        <time>2022-08-27T16:01:13Z</time>
      </trkpt>
      <trkpt lat="45.89875" lon="7.11261">
        <ele>2422</ele>
        <time>2022-08-27T16:01:15Z</time>
      </trkpt>
      <trkpt lat="45.89875" lon="7.11264">
        <ele>2420</ele>
        <time>2022-08-27T16:01:18Z</time>
      </trkpt>
      <trkpt lat="45.89877" lon="7.11267">
        <ele>2421</ele>
        <time>2022-08-27T16:01:22Z</time>
      </trkpt>
      <trkpt lat="45.89879" lon="7.11269">
        <ele>2421</ele>
        <time>2022-08-27T16:01:24Z</time>
      </trkpt>
      <trkpt lat="45.89879" lon="7.11272">
        <ele>2420</ele>
        <time>2022-08-27T16:01:26Z</time>
      </trkpt>
      <trkpt lat="45.89879" lon="7.11272">
        <ele>2420</ele>
        <time>2022-08-27T16:01:42Z</time>
      </trkpt>
      <trkpt lat="45.89881" lon="7.11272">
        <ele>2421</ele>
        <time>2022-08-27T16:01:56Z</time>
      </trkpt>
      <trkpt lat="45.89883" lon="7.11271">
        <ele>2421</ele>
        <time>2022-08-27T16:01:58Z</time>
      </trkpt>
      <trkpt lat="45.89885" lon="7.1127">
        <ele>2421</ele>
        <time>2022-08-27T16:02:00Z</time>
      </trkpt>
      <trkpt lat="45.89887" lon="7.1127">
        <ele>2421</ele>
        <time>2022-08-27T16:02:02Z</time>
      </trkpt>
      <trkpt lat="45.8989" lon="7.1127">
        <ele>2421</ele>
        <time>2022-08-27T16:02:04Z</time>
      </trkpt>
      <trkpt lat="45.89892" lon="7.11269">
        <ele>2421</ele>
        <time>2022-08-27T16:02:06Z</time>
      </trkpt>
      <trkpt lat="45.89894" lon="7.11268">
        <ele>2421</ele>
        <time>2022-08-27T16:02:08Z</time>
      </trkpt>
      <trkpt lat="45.89897" lon="7.11267">
        <ele>2421</ele>
        <time>2022-08-27T16:02:10Z</time>
      </trkpt>
      <trkpt lat="45.89899" lon="7.11267">
        <ele>2421</ele>
        <time>2022-08-27T16:02:12Z</time>
      </trkpt>
      <trkpt lat="45.89901" lon="7.11267">
        <ele>2421</ele>
        <time>2022-08-27T16:02:14Z</time>
      </trkpt>
      <trkpt lat="45.89904" lon="7.11268">
        <ele>2421</ele>
        <time>2022-08-27T16:02:16Z</time>
      </trkpt>
      <trkpt lat="45.89906" lon="7.11269">
        <ele>2421</ele>
        <time>2022-08-27T16:02:18Z</time>
      </trkpt>
      <trkpt lat="45.89907" lon="7.11271">
        <ele>2420</ele>
        <time>2022-08-27T16:02:20Z</time>
      </trkpt>
      <trkpt lat="45.89909" lon="7.11273">
        <ele>2420</ele>
        <time>2022-08-27T16:02:22Z</time>
      </trkpt>
      <trkpt lat="45.89911" lon="7.11275">
        <ele>2419</ele>
        <time>2022-08-27T16:02:24Z</time>
      </trkpt>
      <trkpt lat="45.89913" lon="7.11278">
        <ele>2419</ele>
        <time>2022-08-27T16:02:26Z</time>
      </trkpt>
      <trkpt lat="45.89914" lon="7.1128">
        <ele>2419</ele>
        <time>2022-08-27T16:02:28Z</time>
      </trkpt>
      <trkpt lat="45.89916" lon="7.11281">
        <ele>2418</ele>
        <time>2022-08-27T16:02:30Z</time>
      </trkpt>
      <trkpt lat="45.89917" lon="7.11283">
        <ele>2418</ele>
        <time>2022-08-27T16:02:32Z</time>
      </trkpt>
      <trkpt lat="45.89919" lon="7.11285">
        <ele>2417</ele>
        <time>2022-08-27T16:02:34Z</time>
      </trkpt>
      <trkpt lat="45.89921" lon="7.11287">
        <ele>2417</ele>
        <time>2022-08-27T16:02:37Z</time>
      </trkpt>
      <trkpt lat="45.89923" lon="7.11289">
        <ele>2416</ele>
        <time>2022-08-27T16:02:39Z</time>
      </trkpt>
      <trkpt lat="45.89925" lon="7.1129">
        <ele>2416</ele>
        <time>2022-08-27T16:02:41Z</time>
      </trkpt>
      <trkpt lat="45.89927" lon="7.11292">
        <ele>2416</ele>
        <time>2022-08-27T16:02:43Z</time>
      </trkpt>
      <trkpt lat="45.89929" lon="7.11294">
        <ele>2415</ele>
        <time>2022-08-27T16:02:45Z</time>
      </trkpt>
      <trkpt lat="45.89931" lon="7.11295">
        <ele>2415</ele>
        <time>2022-08-27T16:02:47Z</time>
      </trkpt>
      <trkpt lat="45.89932" lon="7.11297">
        <ele>2414</ele>
        <time>2022-08-27T16:02:52Z</time>
      </trkpt>
      <trkpt lat="45.89932" lon="7.11297">
        <ele>2414</ele>
        <time>2022-08-27T16:03:08Z</time>
      </trkpt>
      <trkpt lat="45.89932" lon="7.11297">
        <ele>2414</ele>
        <time>2022-08-27T16:03:29Z</time>
      </trkpt>
      <trkpt lat="45.89934" lon="7.11297">
        <ele>2414</ele>
        <time>2022-08-27T16:03:31Z</time>
      </trkpt>
      <trkpt lat="45.89936" lon="7.11298">
        <ele>2414</ele>
        <time>2022-08-27T16:03:33Z</time>
      </trkpt>
      <trkpt lat="45.89938" lon="7.113">
        <ele>2414</ele>
        <time>2022-08-27T16:03:35Z</time>
      </trkpt>
      <trkpt lat="45.89941" lon="7.11302">
        <ele>2413</ele>
        <time>2022-08-27T16:03:37Z</time>
      </trkpt>
      <trkpt lat="45.89943" lon="7.11303">
        <ele>2412</ele>
        <time>2022-08-27T16:03:39Z</time>
      </trkpt>
      <trkpt lat="45.89946" lon="7.11305">
        <ele>2412</ele>
        <time>2022-08-27T16:03:41Z</time>
      </trkpt>
      <trkpt lat="45.89948" lon="7.11307">
        <ele>2412</ele>
        <time>2022-08-27T16:03:43Z</time>
      </trkpt>
      <trkpt lat="45.89951" lon="7.11309">
        <ele>2412</ele>
        <time>2022-08-27T16:03:45Z</time>
      </trkpt>
      <trkpt lat="45.89954" lon="7.11311">
        <ele>2412</ele>
        <time>2022-08-27T16:03:47Z</time>
      </trkpt>
      <trkpt lat="45.89956" lon="7.11313">
        <ele>2412</ele>
        <time>2022-08-27T16:03:49Z</time>
      </trkpt>
      <trkpt lat="45.89959" lon="7.11315">
        <ele>2411</ele>
        <time>2022-08-27T16:03:51Z</time>
      </trkpt>
      <trkpt lat="45.89961" lon="7.11316">
        <ele>2411</ele>
        <time>2022-08-27T16:03:53Z</time>
      </trkpt>
      <trkpt lat="45.89963" lon="7.11316">
        <ele>2410</ele>
        <time>2022-08-27T16:03:55Z</time>
      </trkpt>
      <trkpt lat="45.89966" lon="7.11317">
        <ele>2409</ele>
        <time>2022-08-27T16:03:57Z</time>
      </trkpt>
      <trkpt lat="45.89968" lon="7.11318">
        <ele>2409</ele>
        <time>2022-08-27T16:03:59Z</time>
      </trkpt>
      <trkpt lat="45.89971" lon="7.11318">
        <ele>2409</ele>
        <time>2022-08-27T16:04:01Z</time>
      </trkpt>
      <trkpt lat="45.89974" lon="7.11319">
        <ele>2409</ele>
        <time>2022-08-27T16:04:03Z</time>
      </trkpt>
      <trkpt lat="45.89976" lon="7.11319">
        <ele>2408</ele>
        <time>2022-08-27T16:04:05Z</time>
      </trkpt>
      <trkpt lat="45.89979" lon="7.1132">
        <ele>2408</ele>
        <time>2022-08-27T16:04:07Z</time>
      </trkpt>
      <trkpt lat="45.89981" lon="7.11321">
        <ele>2406</ele>
        <time>2022-08-27T16:04:09Z</time>
      </trkpt>
      <trkpt lat="45.89984" lon="7.11321">
        <ele>2407</ele>
        <time>2022-08-27T16:04:11Z</time>
      </trkpt>
      <trkpt lat="45.89986" lon="7.11322">
        <ele>2406</ele>
        <time>2022-08-27T16:04:13Z</time>
      </trkpt>
      <trkpt lat="45.89989" lon="7.11323">
        <ele>2407</ele>
        <time>2022-08-27T16:04:15Z</time>
      </trkpt>
      <trkpt lat="45.89992" lon="7.11324">
        <ele>2406</ele>
        <time>2022-08-27T16:04:17Z</time>
      </trkpt>
      <trkpt lat="45.89994" lon="7.11325">
        <ele>2406</ele>
        <time>2022-08-27T16:04:19Z</time>
      </trkpt>
      <trkpt lat="45.89998" lon="7.11327">
        <ele>2405</ele>
        <time>2022-08-27T16:04:21Z</time>
      </trkpt>
      <trkpt lat="45.89999" lon="7.11328">
        <ele>2405</ele>
        <time>2022-08-27T16:04:22Z</time>
      </trkpt>
      <trkpt lat="45.90002" lon="7.11329">
        <ele>2405</ele>
        <time>2022-08-27T16:04:24Z</time>
      </trkpt>
      <trkpt lat="45.90005" lon="7.1133">
        <ele>2405</ele>
        <time>2022-08-27T16:04:26Z</time>
      </trkpt>
      <trkpt lat="45.90008" lon="7.11332">
        <ele>2404</ele>
        <time>2022-08-27T16:04:28Z</time>
      </trkpt>
      <trkpt lat="45.9001" lon="7.11332">
        <ele>2402</ele>
        <time>2022-08-27T16:04:30Z</time>
      </trkpt>
      <trkpt lat="45.90013" lon="7.11332">
        <ele>2401</ele>
        <time>2022-08-27T16:04:32Z</time>
      </trkpt>
      <trkpt lat="45.90015" lon="7.11334">
        <ele>2401</ele>
        <time>2022-08-27T16:04:33Z</time>
      </trkpt>
      <trkpt lat="45.90018" lon="7.11335">
        <ele>2401</ele>
        <time>2022-08-27T16:04:35Z</time>
      </trkpt>
      <trkpt lat="45.90021" lon="7.11336">
        <ele>2401</ele>
        <time>2022-08-27T16:04:37Z</time>
      </trkpt>
      <trkpt lat="45.90023" lon="7.11337">
        <ele>2401</ele>
        <time>2022-08-27T16:04:39Z</time>
      </trkpt>
      <trkpt lat="45.90026" lon="7.11338">
        <ele>2400</ele>
        <time>2022-08-27T16:04:41Z</time>
      </trkpt>
      <trkpt lat="45.90029" lon="7.11338">
        <ele>2400</ele>
        <time>2022-08-27T16:04:43Z</time>
      </trkpt>
      <trkpt lat="45.90032" lon="7.11338">
        <ele>2399</ele>
        <time>2022-08-27T16:04:45Z</time>
      </trkpt>
      <trkpt lat="45.90035" lon="7.11338">
        <ele>2399</ele>
        <time>2022-08-27T16:04:47Z</time>
      </trkpt>
      <trkpt lat="45.90039" lon="7.11339">
        <ele>2399</ele>
        <time>2022-08-27T16:04:49Z</time>
      </trkpt>
      <trkpt lat="45.90041" lon="7.11339">
        <ele>2397</ele>
        <time>2022-08-27T16:04:51Z</time>
      </trkpt>
      <trkpt lat="45.90044" lon="7.11339">
        <ele>2397</ele>
        <time>2022-08-27T16:04:53Z</time>
      </trkpt>
      <trkpt lat="45.90046" lon="7.11338">
        <ele>2398</ele>
        <time>2022-08-27T16:04:55Z</time>
      </trkpt>
      <trkpt lat="45.90049" lon="7.11339">
        <ele>2398</ele>
        <time>2022-08-27T16:04:57Z</time>
      </trkpt>
      <trkpt lat="45.90052" lon="7.11339">
        <ele>2397</ele>
        <time>2022-08-27T16:04:59Z</time>
      </trkpt>
      <trkpt lat="45.90054" lon="7.11339">
        <ele>2397</ele>
        <time>2022-08-27T16:05:01Z</time>
      </trkpt>
      <trkpt lat="45.90057" lon="7.1134">
        <ele>2397</ele>
        <time>2022-08-27T16:05:03Z</time>
      </trkpt>
      <trkpt lat="45.9006" lon="7.1134">
        <ele>2396</ele>
        <time>2022-08-27T16:05:05Z</time>
      </trkpt>
      <trkpt lat="45.90062" lon="7.11338">
        <ele>2395</ele>
        <time>2022-08-27T16:05:07Z</time>
      </trkpt>
      <trkpt lat="45.90065" lon="7.11337">
        <ele>2395</ele>
        <time>2022-08-27T16:05:09Z</time>
      </trkpt>
      <trkpt lat="45.90067" lon="7.11336">
        <ele>2395</ele>
        <time>2022-08-27T16:05:11Z</time>
      </trkpt>
      <trkpt lat="45.9007" lon="7.11334">
        <ele>2395</ele>
        <time>2022-08-27T16:05:13Z</time>
      </trkpt>
      <trkpt lat="45.90073" lon="7.11333">
        <ele>2395</ele>
        <time>2022-08-27T16:05:15Z</time>
      </trkpt>
      <trkpt lat="45.90075" lon="7.11333">
        <ele>2395</ele>
        <time>2022-08-27T16:05:17Z</time>
      </trkpt>
      <trkpt lat="45.90078" lon="7.11332">
        <ele>2395</ele>
        <time>2022-08-27T16:05:19Z</time>
      </trkpt>
      <trkpt lat="45.9008" lon="7.11331">
        <ele>2394</ele>
        <time>2022-08-27T16:05:21Z</time>
      </trkpt>
      <trkpt lat="45.90083" lon="7.11331">
        <ele>2394</ele>
        <time>2022-08-27T16:05:23Z</time>
      </trkpt>
      <trkpt lat="45.90085" lon="7.1133">
        <ele>2393</ele>
        <time>2022-08-27T16:05:25Z</time>
      </trkpt>
      <trkpt lat="45.90087" lon="7.11329">
        <ele>2393</ele>
        <time>2022-08-27T16:05:27Z</time>
      </trkpt>
      <trkpt lat="45.90089" lon="7.11328">
        <ele>2393</ele>
        <time>2022-08-27T16:05:29Z</time>
      </trkpt>
      <trkpt lat="45.90092" lon="7.11327">
        <ele>2393</ele>
        <time>2022-08-27T16:05:31Z</time>
      </trkpt>
      <trkpt lat="45.90095" lon="7.11326">
        <ele>2393</ele>
        <time>2022-08-27T16:05:33Z</time>
      </trkpt>
      <trkpt lat="45.90097" lon="7.11324">
        <ele>2392</ele>
        <time>2022-08-27T16:05:35Z</time>
      </trkpt>
      <trkpt lat="45.901" lon="7.11322">
        <ele>2392</ele>
        <time>2022-08-27T16:05:37Z</time>
      </trkpt>
      <trkpt lat="45.90101" lon="7.11321">
        <ele>2392</ele>
        <time>2022-08-27T16:05:38Z</time>
      </trkpt>
      <trkpt lat="45.90102" lon="7.11319">
        <ele>2392</ele>
        <time>2022-08-27T16:05:39Z</time>
      </trkpt>
      <trkpt lat="45.90103" lon="7.11318">
        <ele>2392</ele>
        <time>2022-08-27T16:05:40Z</time>
      </trkpt>
      <trkpt lat="45.90105" lon="7.11315">
        <ele>2392</ele>
        <time>2022-08-27T16:05:41Z</time>
      </trkpt>
      <trkpt lat="45.90106" lon="7.11314">
        <ele>2392</ele>
        <time>2022-08-27T16:05:42Z</time>
      </trkpt>
      <trkpt lat="45.90108" lon="7.11311">
        <ele>2392</ele>
        <time>2022-08-27T16:05:43Z</time>
      </trkpt>
      <trkpt lat="45.90109" lon="7.1131">
        <ele>2391</ele>
        <time>2022-08-27T16:05:44Z</time>
      </trkpt>
      <trkpt lat="45.90111" lon="7.11309">
        <ele>2391</ele>
        <time>2022-08-27T16:05:45Z</time>
      </trkpt>
      <trkpt lat="45.90113" lon="7.11308">
        <ele>2391</ele>
        <time>2022-08-27T16:05:46Z</time>
      </trkpt>
      <trkpt lat="45.90114" lon="7.11307">
        <ele>2391</ele>
        <time>2022-08-27T16:05:47Z</time>
      </trkpt>
      <trkpt lat="45.90116" lon="7.11307">
        <ele>2391</ele>
        <time>2022-08-27T16:05:48Z</time>
      </trkpt>
      <trkpt lat="45.90118" lon="7.11306">
        <ele>2391</ele>
        <time>2022-08-27T16:05:49Z</time>
      </trkpt>
      <trkpt lat="45.9012" lon="7.11306">
        <ele>2391</ele>
        <time>2022-08-27T16:05:50Z</time>
      </trkpt>
      <trkpt lat="45.90124" lon="7.11306">
        <ele>2391</ele>
        <time>2022-08-27T16:05:52Z</time>
      </trkpt>
      <trkpt lat="45.90127" lon="7.11305">
        <ele>2391</ele>
        <time>2022-08-27T16:05:54Z</time>
      </trkpt>
      <trkpt lat="45.9013" lon="7.11305">
        <ele>2390</ele>
        <time>2022-08-27T16:05:56Z</time>
      </trkpt>
      <trkpt lat="45.90133" lon="7.11306">
        <ele>2390</ele>
        <time>2022-08-27T16:05:58Z</time>
      </trkpt>
      <trkpt lat="45.90136" lon="7.11306">
        <ele>2390</ele>
        <time>2022-08-27T16:06:00Z</time>
      </trkpt>
      <trkpt lat="45.90139" lon="7.11305">
        <ele>2390</ele>
        <time>2022-08-27T16:06:02Z</time>
      </trkpt>
      <trkpt lat="45.90142" lon="7.11304">
        <ele>2389</ele>
        <time>2022-08-27T16:06:04Z</time>
      </trkpt>
      <trkpt lat="45.90145" lon="7.11303">
        <ele>2389</ele>
        <time>2022-08-27T16:06:06Z</time>
      </trkpt>
      <trkpt lat="45.90148" lon="7.11303">
        <ele>2389</ele>
        <time>2022-08-27T16:06:08Z</time>
      </trkpt>
      <trkpt lat="45.90151" lon="7.11302">
        <ele>2389</ele>
        <time>2022-08-27T16:06:10Z</time>
      </trkpt>
      <trkpt lat="45.90153" lon="7.11301">
        <ele>2389</ele>
        <time>2022-08-27T16:06:11Z</time>
      </trkpt>
      <trkpt lat="45.90154" lon="7.113">
        <ele>2389</ele>
        <time>2022-08-27T16:06:12Z</time>
      </trkpt>
      <trkpt lat="45.90156" lon="7.11299">
        <ele>2388</ele>
        <time>2022-08-27T16:06:13Z</time>
      </trkpt>
      <trkpt lat="45.90159" lon="7.11298">
        <ele>2388</ele>
        <time>2022-08-27T16:06:15Z</time>
      </trkpt>
      <trkpt lat="45.90162" lon="7.11298">
        <ele>2388</ele>
        <time>2022-08-27T16:06:17Z</time>
      </trkpt>
      <trkpt lat="45.90165" lon="7.11298">
        <ele>2388</ele>
        <time>2022-08-27T16:06:19Z</time>
      </trkpt>
      <trkpt lat="45.90168" lon="7.11299">
        <ele>2387</ele>
        <time>2022-08-27T16:06:21Z</time>
      </trkpt>
      <trkpt lat="45.90172" lon="7.11298">
        <ele>2386</ele>
        <time>2022-08-27T16:06:23Z</time>
      </trkpt>
      <trkpt lat="45.90174" lon="7.11297">
        <ele>2386</ele>
        <time>2022-08-27T16:06:25Z</time>
      </trkpt>
      <trkpt lat="45.90177" lon="7.11296">
        <ele>2386</ele>
        <time>2022-08-27T16:06:27Z</time>
      </trkpt>
      <trkpt lat="45.9018" lon="7.11296">
        <ele>2386</ele>
        <time>2022-08-27T16:06:29Z</time>
      </trkpt>
      <trkpt lat="45.90183" lon="7.11297">
        <ele>2386</ele>
        <time>2022-08-27T16:06:31Z</time>
      </trkpt>
      <trkpt lat="45.90186" lon="7.11299">
        <ele>2385</ele>
        <time>2022-08-27T16:06:33Z</time>
      </trkpt>
      <trkpt lat="45.90189" lon="7.11299">
        <ele>2384</ele>
        <time>2022-08-27T16:06:35Z</time>
      </trkpt>
      <trkpt lat="45.90192" lon="7.113">
        <ele>2384</ele>
        <time>2022-08-27T16:06:37Z</time>
      </trkpt>
      <trkpt lat="45.90195" lon="7.11301">
        <ele>2384</ele>
        <time>2022-08-27T16:06:39Z</time>
      </trkpt>
      <trkpt lat="45.90198" lon="7.11302">
        <ele>2384</ele>
        <time>2022-08-27T16:06:41Z</time>
      </trkpt>
      <trkpt lat="45.902" lon="7.11302">
        <ele>2384</ele>
        <time>2022-08-27T16:06:42Z</time>
      </trkpt>
      <trkpt lat="45.90202" lon="7.11303">
        <ele>2384</ele>
        <time>2022-08-27T16:06:43Z</time>
      </trkpt>
      <trkpt lat="45.90204" lon="7.11303">
        <ele>2384</ele>
        <time>2022-08-27T16:06:44Z</time>
      </trkpt>
      <trkpt lat="45.90206" lon="7.11303">
        <ele>2384</ele>
        <time>2022-08-27T16:06:45Z</time>
      </trkpt>
      <trkpt lat="45.90208" lon="7.11303">
        <ele>2384</ele>
        <time>2022-08-27T16:06:46Z</time>
      </trkpt>
      <trkpt lat="45.9021" lon="7.11303">
        <ele>2384</ele>
        <time>2022-08-27T16:06:47Z</time>
      </trkpt>
      <trkpt lat="45.90211" lon="7.11303">
        <ele>2384</ele>
        <time>2022-08-27T16:06:48Z</time>
      </trkpt>
      <trkpt lat="45.90213" lon="7.11303">
        <ele>2384</ele>
        <time>2022-08-27T16:06:49Z</time>
      </trkpt>
      <trkpt lat="45.90216" lon="7.11304">
        <ele>2384</ele>
        <time>2022-08-27T16:06:51Z</time>
      </trkpt>
      <trkpt lat="45.90219" lon="7.11304">
        <ele>2383</ele>
        <time>2022-08-27T16:06:53Z</time>
      </trkpt>
      <trkpt lat="45.90222" lon="7.11304">
        <ele>2383</ele>
        <time>2022-08-27T16:06:55Z</time>
      </trkpt>
      <trkpt lat="45.90223" lon="7.11303">
        <ele>2382</ele>
        <time>2022-08-27T16:06:56Z</time>
      </trkpt>
      <trkpt lat="45.90225" lon="7.11302">
        <ele>2382</ele>
        <time>2022-08-27T16:06:57Z</time>
      </trkpt>
      <trkpt lat="45.90227" lon="7.11301">
        <ele>2382</ele>
        <time>2022-08-27T16:06:58Z</time>
      </trkpt>
      <trkpt lat="45.9023" lon="7.113">
        <ele>2382</ele>
        <time>2022-08-27T16:06:59Z</time>
      </trkpt>
      <trkpt lat="45.90231" lon="7.113">
        <ele>2380</ele>
        <time>2022-08-27T16:07:00Z</time>
      </trkpt>
      <trkpt lat="45.90233" lon="7.11299">
        <ele>2380</ele>
        <time>2022-08-27T16:07:01Z</time>
      </trkpt>
      <trkpt lat="45.90235" lon="7.11298">
        <ele>2380</ele>
        <time>2022-08-27T16:07:02Z</time>
      </trkpt>
      <trkpt lat="45.90236" lon="7.11297">
        <ele>2380</ele>
        <time>2022-08-27T16:07:03Z</time>
      </trkpt>
      <trkpt lat="45.90239" lon="7.11297">
        <ele>2380</ele>
        <time>2022-08-27T16:07:04Z</time>
      </trkpt>
      <trkpt lat="45.9024" lon="7.11296">
        <ele>2381</ele>
        <time>2022-08-27T16:07:05Z</time>
      </trkpt>
      <trkpt lat="45.90243" lon="7.11295">
        <ele>2381</ele>
        <time>2022-08-27T16:07:07Z</time>
      </trkpt>
      <trkpt lat="45.90246" lon="7.11294">
        <ele>2381</ele>
        <time>2022-08-27T16:07:09Z</time>
      </trkpt>
      <trkpt lat="45.90249" lon="7.11293">
        <ele>2380</ele>
        <time>2022-08-27T16:07:11Z</time>
      </trkpt>
      <trkpt lat="45.90252" lon="7.11293">
        <ele>2380</ele>
        <time>2022-08-27T16:07:13Z</time>
      </trkpt>
      <trkpt lat="45.90255" lon="7.11292">
        <ele>2380</ele>
        <time>2022-08-27T16:07:15Z</time>
      </trkpt>
      <trkpt lat="45.90257" lon="7.11291">
        <ele>2380</ele>
        <time>2022-08-27T16:07:17Z</time>
      </trkpt>
      <trkpt lat="45.9026" lon="7.1129">
        <ele>2380</ele>
        <time>2022-08-27T16:07:19Z</time>
      </trkpt>
      <trkpt lat="45.90262" lon="7.11288">
        <ele>2380</ele>
        <time>2022-08-27T16:07:21Z</time>
      </trkpt>
      <trkpt lat="45.90263" lon="7.11286">
        <ele>2380</ele>
        <time>2022-08-27T16:07:23Z</time>
      </trkpt>
      <trkpt lat="45.90264" lon="7.11283">
        <ele>2380</ele>
        <time>2022-08-27T16:07:25Z</time>
      </trkpt>
      <trkpt lat="45.90264" lon="7.11279">
        <ele>2380</ele>
        <time>2022-08-27T16:07:27Z</time>
      </trkpt>
      <trkpt lat="45.90264" lon="7.11276">
        <ele>2379</ele>
        <time>2022-08-27T16:07:29Z</time>
      </trkpt>
      <trkpt lat="45.90264" lon="7.11272">
        <ele>2379</ele>
        <time>2022-08-27T16:07:31Z</time>
      </trkpt>
      <trkpt lat="45.90265" lon="7.11268">
        <ele>2378</ele>
        <time>2022-08-27T16:07:33Z</time>
      </trkpt>
      <trkpt lat="45.90265" lon="7.11265">
        <ele>2378</ele>
        <time>2022-08-27T16:07:34Z</time>
      </trkpt>
      <trkpt lat="45.90266" lon="7.11263">
        <ele>2378</ele>
        <time>2022-08-27T16:07:36Z</time>
      </trkpt>
      <trkpt lat="45.90266" lon="7.11261">
        <ele>2378</ele>
        <time>2022-08-27T16:07:37Z</time>
      </trkpt>
      <trkpt lat="45.9027" lon="7.11258">
        <ele>2375</ele>
        <time>2022-08-27T16:07:39Z</time>
      </trkpt>
      <trkpt lat="45.90272" lon="7.11257">
        <ele>2375</ele>
        <time>2022-08-27T16:07:40Z</time>
      </trkpt>
      <trkpt lat="45.90274" lon="7.11254">
        <ele>2375</ele>
        <time>2022-08-27T16:07:42Z</time>
      </trkpt>
      <trkpt lat="45.90277" lon="7.11252">
        <ele>2374</ele>
        <time>2022-08-27T16:07:44Z</time>
      </trkpt>
      <trkpt lat="45.90279" lon="7.11249">
        <ele>2373</ele>
        <time>2022-08-27T16:07:46Z</time>
      </trkpt>
      <trkpt lat="45.9028" lon="7.11244">
        <ele>2372</ele>
        <time>2022-08-27T16:07:48Z</time>
      </trkpt>
      <trkpt lat="45.90281" lon="7.1124">
        <ele>2372</ele>
        <time>2022-08-27T16:07:50Z</time>
      </trkpt>
      <trkpt lat="45.90283" lon="7.11236">
        <ele>2372</ele>
        <time>2022-08-27T16:07:52Z</time>
      </trkpt>
      <trkpt lat="45.90285" lon="7.11233">
        <ele>2371</ele>
        <time>2022-08-27T16:07:54Z</time>
      </trkpt>
      <trkpt lat="45.90287" lon="7.1123">
        <ele>2371</ele>
        <time>2022-08-27T16:07:56Z</time>
      </trkpt>
      <trkpt lat="45.90289" lon="7.11228">
        <ele>2370</ele>
        <time>2022-08-27T16:07:58Z</time>
      </trkpt>
      <trkpt lat="45.90292" lon="7.11226">
        <ele>2370</ele>
        <time>2022-08-27T16:08:00Z</time>
      </trkpt>
      <trkpt lat="45.90293" lon="7.11223">
        <ele>2369</ele>
        <time>2022-08-27T16:08:02Z</time>
      </trkpt>
      <trkpt lat="45.90294" lon="7.11221">
        <ele>2369</ele>
        <time>2022-08-27T16:08:04Z</time>
      </trkpt>
      <trkpt lat="45.90296" lon="7.11219">
        <ele>2369</ele>
        <time>2022-08-27T16:08:06Z</time>
      </trkpt>
      <trkpt lat="45.90298" lon="7.11217">
        <ele>2369</ele>
        <time>2022-08-27T16:08:08Z</time>
      </trkpt>
      <trkpt lat="45.90299" lon="7.11215">
        <ele>2369</ele>
        <time>2022-08-27T16:08:10Z</time>
      </trkpt>
      <trkpt lat="45.903" lon="7.11213">
        <ele>2370</ele>
        <time>2022-08-27T16:08:12Z</time>
      </trkpt>
      <trkpt lat="45.90303" lon="7.11211">
        <ele>2370</ele>
        <time>2022-08-27T16:08:14Z</time>
      </trkpt>
      <trkpt lat="45.90305" lon="7.11209">
        <ele>2370</ele>
        <time>2022-08-27T16:08:16Z</time>
      </trkpt>
      <trkpt lat="45.90307" lon="7.11206">
        <ele>2370</ele>
        <time>2022-08-27T16:08:18Z</time>
      </trkpt>
      <trkpt lat="45.9031" lon="7.11205">
        <ele>2370</ele>
        <time>2022-08-27T16:08:20Z</time>
      </trkpt>
      <trkpt lat="45.90313" lon="7.11204">
        <ele>2370</ele>
        <time>2022-08-27T16:08:22Z</time>
      </trkpt>
      <trkpt lat="45.90315" lon="7.11203">
        <ele>2370</ele>
        <time>2022-08-27T16:08:24Z</time>
      </trkpt>
      <trkpt lat="45.90317" lon="7.11202">
        <ele>2370</ele>
        <time>2022-08-27T16:08:26Z</time>
      </trkpt>
      <trkpt lat="45.9032" lon="7.11201">
        <ele>2370</ele>
        <time>2022-08-27T16:08:28Z</time>
      </trkpt>
      <trkpt lat="45.90323" lon="7.11201">
        <ele>2370</ele>
        <time>2022-08-27T16:08:30Z</time>
      </trkpt>
      <trkpt lat="45.90324" lon="7.112">
        <ele>2370</ele>
        <time>2022-08-27T16:08:33Z</time>
      </trkpt>
      <trkpt lat="45.90326" lon="7.11198">
        <ele>2372</ele>
        <time>2022-08-27T16:08:37Z</time>
      </trkpt>
      <trkpt lat="45.90328" lon="7.11197">
        <ele>2373</ele>
        <time>2022-08-27T16:08:40Z</time>
      </trkpt>
      <trkpt lat="45.9033" lon="7.11196">
        <ele>2373</ele>
        <time>2022-08-27T16:08:44Z</time>
      </trkpt>
      <trkpt lat="45.90332" lon="7.11194">
        <ele>2374</ele>
        <time>2022-08-27T16:08:47Z</time>
      </trkpt>
      <trkpt lat="45.90333" lon="7.11192">
        <ele>2374</ele>
        <time>2022-08-27T16:08:49Z</time>
      </trkpt>
      <trkpt lat="45.90335" lon="7.11189">
        <ele>2374</ele>
        <time>2022-08-27T16:08:51Z</time>
      </trkpt>
      <trkpt lat="45.90337" lon="7.11188">
        <ele>2374</ele>
        <time>2022-08-27T16:08:53Z</time>
      </trkpt>
      <trkpt lat="45.90339" lon="7.11187">
        <ele>2373</ele>
        <time>2022-08-27T16:08:55Z</time>
      </trkpt>
      <trkpt lat="45.90341" lon="7.11186">
        <ele>2372</ele>
        <time>2022-08-27T16:08:57Z</time>
      </trkpt>
      <trkpt lat="45.90344" lon="7.11184">
        <ele>2371</ele>
        <time>2022-08-27T16:09:00Z</time>
      </trkpt>
      <trkpt lat="45.90346" lon="7.11181">
        <ele>2370</ele>
        <time>2022-08-27T16:09:02Z</time>
      </trkpt>
      <trkpt lat="45.90347" lon="7.11177">
        <ele>2369</ele>
        <time>2022-08-27T16:09:04Z</time>
      </trkpt>
      <trkpt lat="45.90349" lon="7.11174">
        <ele>2369</ele>
        <time>2022-08-27T16:09:06Z</time>
      </trkpt>
      <trkpt lat="45.9035" lon="7.1117">
        <ele>2368</ele>
        <time>2022-08-27T16:09:08Z</time>
      </trkpt>
      <trkpt lat="45.90351" lon="7.11167">
        <ele>2369</ele>
        <time>2022-08-27T16:09:10Z</time>
      </trkpt>
      <trkpt lat="45.90352" lon="7.11164">
        <ele>2369</ele>
        <time>2022-08-27T16:09:12Z</time>
      </trkpt>
      <trkpt lat="45.90352" lon="7.11161">
        <ele>2369</ele>
        <time>2022-08-27T16:09:14Z</time>
      </trkpt>
      <trkpt lat="45.90353" lon="7.11158">
        <ele>2369</ele>
        <time>2022-08-27T16:09:16Z</time>
      </trkpt>
      <trkpt lat="45.90355" lon="7.11156">
        <ele>2369</ele>
        <time>2022-08-27T16:09:18Z</time>
      </trkpt>
      <trkpt lat="45.90356" lon="7.11153">
        <ele>2369</ele>
        <time>2022-08-27T16:09:20Z</time>
      </trkpt>
      <trkpt lat="45.90357" lon="7.1115">
        <ele>2368</ele>
        <time>2022-08-27T16:09:22Z</time>
      </trkpt>
      <trkpt lat="45.90358" lon="7.11147">
        <ele>2366</ele>
        <time>2022-08-27T16:09:24Z</time>
      </trkpt>
      <trkpt lat="45.90359" lon="7.11143">
        <ele>2366</ele>
        <time>2022-08-27T16:09:26Z</time>
      </trkpt>
      <trkpt lat="45.90359" lon="7.11138">
        <ele>2365</ele>
        <time>2022-08-27T16:09:28Z</time>
      </trkpt>
      <trkpt lat="45.90358" lon="7.11135">
        <ele>2365</ele>
        <time>2022-08-27T16:09:29Z</time>
      </trkpt>
      <trkpt lat="45.90357" lon="7.11131">
        <ele>2364</ele>
        <time>2022-08-27T16:09:31Z</time>
      </trkpt>
      <trkpt lat="45.90356" lon="7.11129">
        <ele>2364</ele>
        <time>2022-08-27T16:09:33Z</time>
      </trkpt>
      <trkpt lat="45.90355" lon="7.11126">
        <ele>2364</ele>
        <time>2022-08-27T16:09:36Z</time>
      </trkpt>
      <trkpt lat="45.90355" lon="7.11123">
        <ele>2363</ele>
        <time>2022-08-27T16:09:38Z</time>
      </trkpt>
      <trkpt lat="45.90353" lon="7.1112">
        <ele>2363</ele>
        <time>2022-08-27T16:09:40Z</time>
      </trkpt>
      <trkpt lat="45.90353" lon="7.11117">
        <ele>2363</ele>
        <time>2022-08-27T16:09:44Z</time>
      </trkpt>
      <trkpt lat="45.90352" lon="7.11113">
        <ele>2363</ele>
        <time>2022-08-27T16:09:47Z</time>
      </trkpt>
      <trkpt lat="45.90353" lon="7.1111">
        <ele>2363</ele>
        <time>2022-08-27T16:09:50Z</time>
      </trkpt>
      <trkpt lat="45.90355" lon="7.1111">
        <ele>2361</ele>
        <time>2022-08-27T16:09:54Z</time>
      </trkpt>
      <trkpt lat="45.90356" lon="7.11107">
        <ele>2361</ele>
        <time>2022-08-27T16:09:56Z</time>
      </trkpt>
      <trkpt lat="45.90357" lon="7.11105">
        <ele>2360</ele>
        <time>2022-08-27T16:09:58Z</time>
      </trkpt>
      <trkpt lat="45.90359" lon="7.11102">
        <ele>2359</ele>
        <time>2022-08-27T16:10:00Z</time>
      </trkpt>
      <trkpt lat="45.9036" lon="7.111">
        <ele>2358</ele>
        <time>2022-08-27T16:10:02Z</time>
      </trkpt>
      <trkpt lat="45.90362" lon="7.11098">
        <ele>2357</ele>
        <time>2022-08-27T16:10:04Z</time>
      </trkpt>
      <trkpt lat="45.90365" lon="7.11096">
        <ele>2356</ele>
        <time>2022-08-27T16:10:06Z</time>
      </trkpt>
      <trkpt lat="45.90366" lon="7.11094">
        <ele>2356</ele>
        <time>2022-08-27T16:10:08Z</time>
      </trkpt>
      <trkpt lat="45.90367" lon="7.11091">
        <ele>2356</ele>
        <time>2022-08-27T16:10:10Z</time>
      </trkpt>
      <trkpt lat="45.90367" lon="7.11088">
        <ele>2356</ele>
        <time>2022-08-27T16:10:12Z</time>
      </trkpt>
      <trkpt lat="45.90366" lon="7.11084">
        <ele>2356</ele>
        <time>2022-08-27T16:10:14Z</time>
      </trkpt>
      <trkpt lat="45.90366" lon="7.1108">
        <ele>2356</ele>
        <time>2022-08-27T16:10:17Z</time>
      </trkpt>
      <trkpt lat="45.90367" lon="7.11078">
        <ele>2356</ele>
        <time>2022-08-27T16:10:19Z</time>
      </trkpt>
      <trkpt lat="45.90367" lon="7.11074">
        <ele>2356</ele>
        <time>2022-08-27T16:10:21Z</time>
      </trkpt>
      <trkpt lat="45.90368" lon="7.11071">
        <ele>2356</ele>
        <time>2022-08-27T16:10:23Z</time>
      </trkpt>
      <trkpt lat="45.90369" lon="7.11068">
        <ele>2356</ele>
        <time>2022-08-27T16:10:25Z</time>
      </trkpt>
      <trkpt lat="45.9037" lon="7.11069">
        <ele>2356</ele>
        <time>2022-08-27T16:10:27Z</time>
      </trkpt>
      <trkpt lat="45.90372" lon="7.1107">
        <ele>2356</ele>
        <time>2022-08-27T16:10:28Z</time>
      </trkpt>
      <trkpt lat="45.90373" lon="7.1107">
        <ele>2356</ele>
        <time>2022-08-27T16:10:29Z</time>
      </trkpt>
      <trkpt lat="45.90374" lon="7.11071">
        <ele>2356</ele>
        <time>2022-08-27T16:10:30Z</time>
      </trkpt>
      <trkpt lat="45.90376" lon="7.11072">
        <ele>2356</ele>
        <time>2022-08-27T16:10:32Z</time>
      </trkpt>
      <trkpt lat="45.90377" lon="7.11072">
        <ele>2356</ele>
        <time>2022-08-27T16:10:33Z</time>
      </trkpt>
      <trkpt lat="45.90378" lon="7.11073">
        <ele>2356</ele>
        <time>2022-08-27T16:10:34Z</time>
      </trkpt>
      <trkpt lat="45.9038" lon="7.11074">
        <ele>2356</ele>
        <time>2022-08-27T16:10:35Z</time>
      </trkpt>
      <trkpt lat="45.90382" lon="7.11076">
        <ele>2355</ele>
        <time>2022-08-27T16:10:37Z</time>
      </trkpt>
      <trkpt lat="45.90384" lon="7.11077">
        <ele>2354</ele>
        <time>2022-08-27T16:10:38Z</time>
      </trkpt>
      <trkpt lat="45.90386" lon="7.11078">
        <ele>2354</ele>
        <time>2022-08-27T16:10:39Z</time>
      </trkpt>
      <trkpt lat="45.90389" lon="7.1108">
        <ele>2354</ele>
        <time>2022-08-27T16:10:41Z</time>
      </trkpt>
      <trkpt lat="45.90392" lon="7.11081">
        <ele>2354</ele>
        <time>2022-08-27T16:10:43Z</time>
      </trkpt>
      <trkpt lat="45.90395" lon="7.11082">
        <ele>2353</ele>
        <time>2022-08-27T16:10:45Z</time>
      </trkpt>
      <trkpt lat="45.90399" lon="7.11083">
        <ele>2352</ele>
        <time>2022-08-27T16:10:47Z</time>
      </trkpt>
      <trkpt lat="45.904" lon="7.11083">
        <ele>2352</ele>
        <time>2022-08-27T16:10:48Z</time>
      </trkpt>
      <trkpt lat="45.90403" lon="7.11083">
        <ele>2350</ele>
        <time>2022-08-27T16:10:49Z</time>
      </trkpt>
      <trkpt lat="45.90405" lon="7.11083">
        <ele>2350</ele>
        <time>2022-08-27T16:10:50Z</time>
      </trkpt>
      <trkpt lat="45.90407" lon="7.11083">
        <ele>2350</ele>
        <time>2022-08-27T16:10:51Z</time>
      </trkpt>
      <trkpt lat="45.90409" lon="7.11082">
        <ele>2350</ele>
        <time>2022-08-27T16:10:52Z</time>
      </trkpt>
      <trkpt lat="45.90411" lon="7.11082">
        <ele>2350</ele>
        <time>2022-08-27T16:10:53Z</time>
      </trkpt>
      <trkpt lat="45.90414" lon="7.11079">
        <ele>2350</ele>
        <time>2022-08-27T16:10:55Z</time>
      </trkpt>
      <trkpt lat="45.90417" lon="7.11077">
        <ele>2350</ele>
        <time>2022-08-27T16:10:57Z</time>
      </trkpt>
      <trkpt lat="45.9042" lon="7.11075">
        <ele>2350</ele>
        <time>2022-08-27T16:10:59Z</time>
      </trkpt>
      <trkpt lat="45.90422" lon="7.11072">
        <ele>2350</ele>
        <time>2022-08-27T16:11:01Z</time>
      </trkpt>
      <trkpt lat="45.90424" lon="7.11071">
        <ele>2350</ele>
        <time>2022-08-27T16:11:03Z</time>
      </trkpt>
      <trkpt lat="45.90426" lon="7.11069">
        <ele>2352</ele>
        <time>2022-08-27T16:11:06Z</time>
      </trkpt>
      <trkpt lat="45.90429" lon="7.11069">
        <ele>2353</ele>
        <time>2022-08-27T16:11:09Z</time>
      </trkpt>
      <trkpt lat="45.90431" lon="7.1107">
        <ele>2353</ele>
        <time>2022-08-27T16:11:11Z</time>
      </trkpt>
      <trkpt lat="45.90434" lon="7.11069">
        <ele>2352</ele>
        <time>2022-08-27T16:11:13Z</time>
      </trkpt>
      <trkpt lat="45.90436" lon="7.11068">
        <ele>2353</ele>
        <time>2022-08-27T16:11:15Z</time>
      </trkpt>
      <trkpt lat="45.90438" lon="7.11067">
        <ele>2353</ele>
        <time>2022-08-27T16:11:17Z</time>
      </trkpt>
      <trkpt lat="45.9044" lon="7.11066">
        <ele>2353</ele>
        <time>2022-08-27T16:11:19Z</time>
      </trkpt>
      <trkpt lat="45.90442" lon="7.11064">
        <ele>2353</ele>
        <time>2022-08-27T16:11:21Z</time>
      </trkpt>
      <trkpt lat="45.90444" lon="7.11062">
        <ele>2353</ele>
        <time>2022-08-27T16:11:23Z</time>
      </trkpt>
      <trkpt lat="45.90446" lon="7.11061">
        <ele>2353</ele>
        <time>2022-08-27T16:11:25Z</time>
      </trkpt>
      <trkpt lat="45.90449" lon="7.1106">
        <ele>2353</ele>
        <time>2022-08-27T16:11:28Z</time>
      </trkpt>
      <trkpt lat="45.9045" lon="7.11057">
        <ele>2353</ele>
        <time>2022-08-27T16:11:31Z</time>
      </trkpt>
      <trkpt lat="45.90452" lon="7.11054">
        <ele>2353</ele>
        <time>2022-08-27T16:11:33Z</time>
      </trkpt>
      <trkpt lat="45.90453" lon="7.11052">
        <ele>2352</ele>
        <time>2022-08-27T16:11:35Z</time>
      </trkpt>
      <trkpt lat="45.90456" lon="7.1105">
        <ele>2352</ele>
        <time>2022-08-27T16:11:38Z</time>
      </trkpt>
      <trkpt lat="45.90458" lon="7.11049">
        <ele>2350</ele>
        <time>2022-08-27T16:11:40Z</time>
      </trkpt>
      <trkpt lat="45.90461" lon="7.11047">
        <ele>2349</ele>
        <time>2022-08-27T16:11:42Z</time>
      </trkpt>
      <trkpt lat="45.90465" lon="7.11046">
        <ele>2348</ele>
        <time>2022-08-27T16:11:44Z</time>
      </trkpt>
      <trkpt lat="45.90467" lon="7.11046">
        <ele>2347</ele>
        <time>2022-08-27T16:11:46Z</time>
      </trkpt>
      <trkpt lat="45.90468" lon="7.11045">
        <ele>2346</ele>
        <time>2022-08-27T16:11:47Z</time>
      </trkpt>
      <trkpt lat="45.9047" lon="7.11045">
        <ele>2346</ele>
        <time>2022-08-27T16:11:48Z</time>
      </trkpt>
      <trkpt lat="45.90471" lon="7.11044">
        <ele>2346</ele>
        <time>2022-08-27T16:11:49Z</time>
      </trkpt>
      <trkpt lat="45.90474" lon="7.11044">
        <ele>2346</ele>
        <time>2022-08-27T16:11:51Z</time>
      </trkpt>
      <trkpt lat="45.90476" lon="7.11043">
        <ele>2346</ele>
        <time>2022-08-27T16:11:53Z</time>
      </trkpt>
      <trkpt lat="45.90479" lon="7.11044">
        <ele>2346</ele>
        <time>2022-08-27T16:11:55Z</time>
      </trkpt>
      <trkpt lat="45.90481" lon="7.11043">
        <ele>2344</ele>
        <time>2022-08-27T16:11:57Z</time>
      </trkpt>
      <trkpt lat="45.90483" lon="7.11042">
        <ele>2343</ele>
        <time>2022-08-27T16:11:59Z</time>
      </trkpt>
      <trkpt lat="45.90485" lon="7.11041">
        <ele>2342</ele>
        <time>2022-08-27T16:12:01Z</time>
      </trkpt>
      <trkpt lat="45.90488" lon="7.11041">
        <ele>2342</ele>
        <time>2022-08-27T16:12:03Z</time>
      </trkpt>
      <trkpt lat="45.9049" lon="7.11042">
        <ele>2339</ele>
        <time>2022-08-27T16:12:06Z</time>
      </trkpt>
      <trkpt lat="45.90492" lon="7.11044">
        <ele>2339</ele>
        <time>2022-08-27T16:12:08Z</time>
      </trkpt>
      <trkpt lat="45.90493" lon="7.11041">
        <ele>2339</ele>
        <time>2022-08-27T16:12:11Z</time>
      </trkpt>
      <trkpt lat="45.90494" lon="7.11038">
        <ele>2338</ele>
        <time>2022-08-27T16:12:14Z</time>
      </trkpt>
      <trkpt lat="45.90497" lon="7.11038">
        <ele>2337</ele>
        <time>2022-08-27T16:12:17Z</time>
      </trkpt>
      <trkpt lat="45.90499" lon="7.11036">
        <ele>2336</ele>
        <time>2022-08-27T16:12:19Z</time>
      </trkpt>
      <trkpt lat="45.905" lon="7.11034">
        <ele>2336</ele>
        <time>2022-08-27T16:12:21Z</time>
      </trkpt>
      <trkpt lat="45.90502" lon="7.1103">
        <ele>2334</ele>
        <time>2022-08-27T16:12:23Z</time>
      </trkpt>
      <trkpt lat="45.90503" lon="7.11027">
        <ele>2333</ele>
        <time>2022-08-27T16:12:25Z</time>
      </trkpt>
      <trkpt lat="45.90505" lon="7.11023">
        <ele>2332</ele>
        <time>2022-08-27T16:12:27Z</time>
      </trkpt>
      <trkpt lat="45.90506" lon="7.11018">
        <ele>2332</ele>
        <time>2022-08-27T16:12:29Z</time>
      </trkpt>
      <trkpt lat="45.90507" lon="7.11016">
        <ele>2332</ele>
        <time>2022-08-27T16:12:30Z</time>
      </trkpt>
      <trkpt lat="45.90509" lon="7.11012">
        <ele>2332</ele>
        <time>2022-08-27T16:12:31Z</time>
      </trkpt>
      <trkpt lat="45.90509" lon="7.11011">
        <ele>2331</ele>
        <time>2022-08-27T16:12:32Z</time>
      </trkpt>
      <trkpt lat="45.90511" lon="7.11007">
        <ele>2331</ele>
        <time>2022-08-27T16:12:34Z</time>
      </trkpt>
      <trkpt lat="45.90512" lon="7.11002">
        <ele>2331</ele>
        <time>2022-08-27T16:12:36Z</time>
      </trkpt>
      <trkpt lat="45.90514" lon="7.10998">
        <ele>2330</ele>
        <time>2022-08-27T16:12:38Z</time>
      </trkpt>
      <trkpt lat="45.90515" lon="7.10994">
        <ele>2329</ele>
        <time>2022-08-27T16:12:40Z</time>
      </trkpt>
      <trkpt lat="45.90516" lon="7.10991">
        <ele>2329</ele>
        <time>2022-08-27T16:12:42Z</time>
      </trkpt>
      <trkpt lat="45.90518" lon="7.10988">
        <ele>2328</ele>
        <time>2022-08-27T16:12:44Z</time>
      </trkpt>
      <trkpt lat="45.9052" lon="7.10984">
        <ele>2328</ele>
        <time>2022-08-27T16:12:46Z</time>
      </trkpt>
      <trkpt lat="45.90522" lon="7.10983">
        <ele>2328</ele>
        <time>2022-08-27T16:12:47Z</time>
      </trkpt>
      <trkpt lat="45.90524" lon="7.10979">
        <ele>2328</ele>
        <time>2022-08-27T16:12:49Z</time>
      </trkpt>
      <trkpt lat="45.90527" lon="7.10976">
        <ele>2327</ele>
        <time>2022-08-27T16:12:51Z</time>
      </trkpt>
      <trkpt lat="45.90529" lon="7.10973">
        <ele>2327</ele>
        <time>2022-08-27T16:12:53Z</time>
      </trkpt>
      <trkpt lat="45.90531" lon="7.10971">
        <ele>2326</ele>
        <time>2022-08-27T16:12:55Z</time>
      </trkpt>
      <trkpt lat="45.90533" lon="7.10969">
        <ele>2326</ele>
        <time>2022-08-27T16:12:57Z</time>
      </trkpt>
      <trkpt lat="45.90536" lon="7.10968">
        <ele>2324</ele>
        <time>2022-08-27T16:12:59Z</time>
      </trkpt>
      <trkpt lat="45.90538" lon="7.10967">
        <ele>2324</ele>
        <time>2022-08-27T16:13:01Z</time>
      </trkpt>
      <trkpt lat="45.9054" lon="7.10964">
        <ele>2323</ele>
        <time>2022-08-27T16:13:03Z</time>
      </trkpt>
      <trkpt lat="45.90542" lon="7.10961">
        <ele>2323</ele>
        <time>2022-08-27T16:13:05Z</time>
      </trkpt>
      <trkpt lat="45.90544" lon="7.10958">
        <ele>2322</ele>
        <time>2022-08-27T16:13:07Z</time>
      </trkpt>
      <trkpt lat="45.90545" lon="7.10953">
        <ele>2322</ele>
        <time>2022-08-27T16:13:09Z</time>
      </trkpt>
      <trkpt lat="45.90547" lon="7.10949">
        <ele>2322</ele>
        <time>2022-08-27T16:13:11Z</time>
      </trkpt>
      <trkpt lat="45.90549" lon="7.10945">
        <ele>2322</ele>
        <time>2022-08-27T16:13:13Z</time>
      </trkpt>
      <trkpt lat="45.90549" lon="7.10942">
        <ele>2321</ele>
        <time>2022-08-27T16:13:17Z</time>
      </trkpt>
      <trkpt lat="45.90551" lon="7.1094">
        <ele>2321</ele>
        <time>2022-08-27T16:13:19Z</time>
      </trkpt>
      <trkpt lat="45.90552" lon="7.10938">
        <ele>2319</ele>
        <time>2022-08-27T16:13:21Z</time>
      </trkpt>
      <trkpt lat="45.90553" lon="7.10935">
        <ele>2319</ele>
        <time>2022-08-27T16:13:23Z</time>
      </trkpt>
      <trkpt lat="45.90554" lon="7.10931">
        <ele>2319</ele>
        <time>2022-08-27T16:13:25Z</time>
      </trkpt>
      <trkpt lat="45.90556" lon="7.10927">
        <ele>2319</ele>
        <time>2022-08-27T16:13:27Z</time>
      </trkpt>
      <trkpt lat="45.90558" lon="7.10924">
        <ele>2317</ele>
        <time>2022-08-27T16:13:29Z</time>
      </trkpt>
      <trkpt lat="45.9056" lon="7.10923">
        <ele>2317</ele>
        <time>2022-08-27T16:13:31Z</time>
      </trkpt>
      <trkpt lat="45.90563" lon="7.10921">
        <ele>2316</ele>
        <time>2022-08-27T16:13:33Z</time>
      </trkpt>
      <trkpt lat="45.90565" lon="7.10918">
        <ele>2315</ele>
        <time>2022-08-27T16:13:35Z</time>
      </trkpt>
      <trkpt lat="45.90567" lon="7.10915">
        <ele>2315</ele>
        <time>2022-08-27T16:13:37Z</time>
      </trkpt>
      <trkpt lat="45.90568" lon="7.10911">
        <ele>2314</ele>
        <time>2022-08-27T16:13:39Z</time>
      </trkpt>
      <trkpt lat="45.9057" lon="7.10907">
        <ele>2314</ele>
        <time>2022-08-27T16:13:41Z</time>
      </trkpt>
      <trkpt lat="45.90571" lon="7.10903">
        <ele>2313</ele>
        <time>2022-08-27T16:13:43Z</time>
      </trkpt>
      <trkpt lat="45.90572" lon="7.109">
        <ele>2312</ele>
        <time>2022-08-27T16:13:45Z</time>
      </trkpt>
      <trkpt lat="45.90574" lon="7.10898">
        <ele>2312</ele>
        <time>2022-08-27T16:13:47Z</time>
      </trkpt>
      <trkpt lat="45.90576" lon="7.10897">
        <ele>2311</ele>
        <time>2022-08-27T16:13:49Z</time>
      </trkpt>
      <trkpt lat="45.90578" lon="7.10894">
        <ele>2311</ele>
        <time>2022-08-27T16:13:51Z</time>
      </trkpt>
      <trkpt lat="45.90579" lon="7.10893">
        <ele>2309</ele>
        <time>2022-08-27T16:13:53Z</time>
      </trkpt>
      <trkpt lat="45.9058" lon="7.1089">
        <ele>2309</ele>
        <time>2022-08-27T16:13:55Z</time>
      </trkpt>
      <trkpt lat="45.90582" lon="7.10887">
        <ele>2309</ele>
        <time>2022-08-27T16:13:57Z</time>
      </trkpt>
      <trkpt lat="45.90584" lon="7.10885">
        <ele>2307</ele>
        <time>2022-08-27T16:13:59Z</time>
      </trkpt>
      <trkpt lat="45.90585" lon="7.10884">
        <ele>2307</ele>
        <time>2022-08-27T16:14:01Z</time>
      </trkpt>
      <trkpt lat="45.90587" lon="7.10882">
        <ele>2307</ele>
        <time>2022-08-27T16:14:03Z</time>
      </trkpt>
      <trkpt lat="45.90589" lon="7.1088">
        <ele>2307</ele>
        <time>2022-08-27T16:14:05Z</time>
      </trkpt>
      <trkpt lat="45.90591" lon="7.10877">
        <ele>2307</ele>
        <time>2022-08-27T16:14:07Z</time>
      </trkpt>
      <trkpt lat="45.90592" lon="7.10873">
        <ele>2306</ele>
        <time>2022-08-27T16:14:09Z</time>
      </trkpt>
      <trkpt lat="45.90594" lon="7.10871">
        <ele>2306</ele>
        <time>2022-08-27T16:14:11Z</time>
      </trkpt>
      <trkpt lat="45.90595" lon="7.10868">
        <ele>2306</ele>
        <time>2022-08-27T16:14:13Z</time>
      </trkpt>
      <trkpt lat="45.90596" lon="7.10864">
        <ele>2306</ele>
        <time>2022-08-27T16:14:15Z</time>
      </trkpt>
      <trkpt lat="45.90598" lon="7.10862">
        <ele>2306</ele>
        <time>2022-08-27T16:14:17Z</time>
      </trkpt>
      <trkpt lat="45.90602" lon="7.1086">
        <ele>2305</ele>
        <time>2022-08-27T16:14:19Z</time>
      </trkpt>
      <trkpt lat="45.90603" lon="7.1086">
        <ele>2304</ele>
        <time>2022-08-27T16:14:20Z</time>
      </trkpt>
      <trkpt lat="45.90605" lon="7.10858">
        <ele>2304</ele>
        <time>2022-08-27T16:14:21Z</time>
      </trkpt>
      <trkpt lat="45.90607" lon="7.10857">
        <ele>2305</ele>
        <time>2022-08-27T16:14:22Z</time>
      </trkpt>
      <trkpt lat="45.90609" lon="7.10854">
        <ele>2305</ele>
        <time>2022-08-27T16:14:23Z</time>
      </trkpt>
      <trkpt lat="45.90611" lon="7.10852">
        <ele>2305</ele>
        <time>2022-08-27T16:14:24Z</time>
      </trkpt>
      <trkpt lat="45.90612" lon="7.10851">
        <ele>2304</ele>
        <time>2022-08-27T16:14:25Z</time>
      </trkpt>
      <trkpt lat="45.90614" lon="7.10848">
        <ele>2304</ele>
        <time>2022-08-27T16:14:26Z</time>
      </trkpt>
      <trkpt lat="45.90615" lon="7.10846">
        <ele>2304</ele>
        <time>2022-08-27T16:14:27Z</time>
      </trkpt>
      <trkpt lat="45.90616" lon="7.10844">
        <ele>2304</ele>
        <time>2022-08-27T16:14:28Z</time>
      </trkpt>
      <trkpt lat="45.90617" lon="7.1084">
        <ele>2304</ele>
        <time>2022-08-27T16:14:30Z</time>
      </trkpt>
      <trkpt lat="45.90617" lon="7.10838">
        <ele>2304</ele>
        <time>2022-08-27T16:14:32Z</time>
      </trkpt>
      <trkpt lat="45.90617" lon="7.10835">
        <ele>2304</ele>
        <time>2022-08-27T16:14:34Z</time>
      </trkpt>
      <trkpt lat="45.90617" lon="7.10831">
        <ele>2304</ele>
        <time>2022-08-27T16:14:37Z</time>
      </trkpt>
      <trkpt lat="45.90616" lon="7.10827">
        <ele>2305</ele>
        <time>2022-08-27T16:14:40Z</time>
      </trkpt>
      <trkpt lat="45.90616" lon="7.10824">
        <ele>2305</ele>
        <time>2022-08-27T16:14:43Z</time>
      </trkpt>
      <trkpt lat="45.90617" lon="7.10822">
        <ele>2305</ele>
        <time>2022-08-27T16:14:49Z</time>
      </trkpt>
      <trkpt lat="45.90619" lon="7.1082">
        <ele>2304</ele>
        <time>2022-08-27T16:14:53Z</time>
      </trkpt>
      <trkpt lat="45.90618" lon="7.10817">
        <ele>2304</ele>
        <time>2022-08-27T16:14:55Z</time>
      </trkpt>
      <trkpt lat="45.90617" lon="7.10814">
        <ele>2303</ele>
        <time>2022-08-27T16:14:57Z</time>
      </trkpt>
      <trkpt lat="45.90616" lon="7.1081">
        <ele>2302</ele>
        <time>2022-08-27T16:14:59Z</time>
      </trkpt>
      <trkpt lat="45.90615" lon="7.10807">
        <ele>2302</ele>
        <time>2022-08-27T16:15:01Z</time>
      </trkpt>
      <trkpt lat="45.90615" lon="7.10803">
        <ele>2302</ele>
        <time>2022-08-27T16:15:04Z</time>
      </trkpt>
      <trkpt lat="45.90614" lon="7.108">
        <ele>2302</ele>
        <time>2022-08-27T16:15:06Z</time>
      </trkpt>
      <trkpt lat="45.90614" lon="7.10796">
        <ele>2302</ele>
        <time>2022-08-27T16:15:08Z</time>
      </trkpt>
      <trkpt lat="45.90614" lon="7.10793">
        <ele>2302</ele>
        <time>2022-08-27T16:15:10Z</time>
      </trkpt>
      <trkpt lat="45.90614" lon="7.1079">
        <ele>2302</ele>
        <time>2022-08-27T16:15:12Z</time>
      </trkpt>
      <trkpt lat="45.90614" lon="7.10786">
        <ele>2301</ele>
        <time>2022-08-27T16:15:15Z</time>
      </trkpt>
      <trkpt lat="45.90614" lon="7.10784">
        <ele>2301</ele>
        <time>2022-08-27T16:15:17Z</time>
      </trkpt>
      <trkpt lat="45.90615" lon="7.1078">
        <ele>2300</ele>
        <time>2022-08-27T16:15:19Z</time>
      </trkpt>
      <trkpt lat="45.90615" lon="7.10778">
        <ele>2298</ele>
        <time>2022-08-27T16:15:21Z</time>
      </trkpt>
      <trkpt lat="45.90613" lon="7.10775">
        <ele>2298</ele>
        <time>2022-08-27T16:15:23Z</time>
      </trkpt>
      <trkpt lat="45.90612" lon="7.10772">
        <ele>2297</ele>
        <time>2022-08-27T16:15:25Z</time>
      </trkpt>
      <trkpt lat="45.90612" lon="7.10767">
        <ele>2296</ele>
        <time>2022-08-27T16:15:27Z</time>
      </trkpt>
      <trkpt lat="45.90611" lon="7.10763">
        <ele>2296</ele>
        <time>2022-08-27T16:15:29Z</time>
      </trkpt>
      <trkpt lat="45.9061" lon="7.1076">
        <ele>2296</ele>
        <time>2022-08-27T16:15:31Z</time>
      </trkpt>
      <trkpt lat="45.90611" lon="7.10757">
        <ele>2296</ele>
        <time>2022-08-27T16:15:33Z</time>
      </trkpt>
      <trkpt lat="45.90614" lon="7.10756">
        <ele>2296</ele>
        <time>2022-08-27T16:15:36Z</time>
      </trkpt>
      <trkpt lat="45.90616" lon="7.10756">
        <ele>2295</ele>
        <time>2022-08-27T16:15:38Z</time>
      </trkpt>
      <trkpt lat="45.90618" lon="7.10756">
        <ele>2295</ele>
        <time>2022-08-27T16:15:40Z</time>
      </trkpt>
      <trkpt lat="45.90621" lon="7.10756">
        <ele>2295</ele>
        <time>2022-08-27T16:15:42Z</time>
      </trkpt>
      <trkpt lat="45.90623" lon="7.10755">
        <ele>2296</ele>
        <time>2022-08-27T16:15:44Z</time>
      </trkpt>
      <trkpt lat="45.90624" lon="7.10753">
        <ele>2296</ele>
        <time>2022-08-27T16:15:46Z</time>
      </trkpt>
      <trkpt lat="45.90627" lon="7.10751">
        <ele>2297</ele>
        <time>2022-08-27T16:15:49Z</time>
      </trkpt>
      <trkpt lat="45.90629" lon="7.1075">
        <ele>2297</ele>
        <time>2022-08-27T16:15:51Z</time>
      </trkpt>
      <trkpt lat="45.90631" lon="7.10747">
        <ele>2298</ele>
        <time>2022-08-27T16:15:53Z</time>
      </trkpt>
      <trkpt lat="45.90633" lon="7.10746">
        <ele>2298</ele>
        <time>2022-08-27T16:15:55Z</time>
      </trkpt>
      <trkpt lat="45.90635" lon="7.10747">
        <ele>2298</ele>
        <time>2022-08-27T16:15:57Z</time>
      </trkpt>
      <trkpt lat="45.90638" lon="7.10747">
        <ele>2298</ele>
        <time>2022-08-27T16:15:59Z</time>
      </trkpt>
      <trkpt lat="45.90641" lon="7.10748">
        <ele>2298</ele>
        <time>2022-08-27T16:16:01Z</time>
      </trkpt>
      <trkpt lat="45.90644" lon="7.10749">
        <ele>2297</ele>
        <time>2022-08-27T16:16:03Z</time>
      </trkpt>
      <trkpt lat="45.90647" lon="7.10749">
        <ele>2297</ele>
        <time>2022-08-27T16:16:05Z</time>
      </trkpt>
      <trkpt lat="45.90649" lon="7.10749">
        <ele>2298</ele>
        <time>2022-08-27T16:16:07Z</time>
      </trkpt>
      <trkpt lat="45.90652" lon="7.10748">
        <ele>2298</ele>
        <time>2022-08-27T16:16:09Z</time>
      </trkpt>
      <trkpt lat="45.90655" lon="7.10746">
        <ele>2298</ele>
        <time>2022-08-27T16:16:11Z</time>
      </trkpt>
      <trkpt lat="45.90655" lon="7.10745">
        <ele>2297</ele>
        <time>2022-08-27T16:16:12Z</time>
      </trkpt>
      <trkpt lat="45.90657" lon="7.10742">
        <ele>2297</ele>
        <time>2022-08-27T16:16:14Z</time>
      </trkpt>
      <trkpt lat="45.90658" lon="7.10739">
        <ele>2297</ele>
        <time>2022-08-27T16:16:16Z</time>
      </trkpt>
      <trkpt lat="45.9066" lon="7.10736">
        <ele>2298</ele>
        <time>2022-08-27T16:16:18Z</time>
      </trkpt>
      <trkpt lat="45.90661" lon="7.10734">
        <ele>2300</ele>
        <time>2022-08-27T16:16:20Z</time>
      </trkpt>
      <trkpt lat="45.90662" lon="7.10731">
        <ele>2300</ele>
        <time>2022-08-27T16:16:23Z</time>
      </trkpt>
      <trkpt lat="45.90663" lon="7.10728">
        <ele>2300</ele>
        <time>2022-08-27T16:16:25Z</time>
      </trkpt>
      <trkpt lat="45.90664" lon="7.10724">
        <ele>2300</ele>
        <time>2022-08-27T16:16:27Z</time>
      </trkpt>
      <trkpt lat="45.90664" lon="7.1072">
        <ele>2300</ele>
        <time>2022-08-27T16:16:29Z</time>
      </trkpt>
      <trkpt lat="45.90664" lon="7.10717">
        <ele>2300</ele>
        <time>2022-08-27T16:16:31Z</time>
      </trkpt>
      <trkpt lat="45.90666" lon="7.10714">
        <ele>2300</ele>
        <time>2022-08-27T16:16:33Z</time>
      </trkpt>
      <trkpt lat="45.90668" lon="7.10712">
        <ele>2300</ele>
        <time>2022-08-27T16:16:35Z</time>
      </trkpt>
      <trkpt lat="45.9067" lon="7.1071">
        <ele>2300</ele>
        <time>2022-08-27T16:16:37Z</time>
      </trkpt>
      <trkpt lat="45.90675" lon="7.10705">
        <ele>2301</ele>
        <time>2022-08-27T16:16:43Z</time>
      </trkpt>
      <trkpt lat="45.90676" lon="7.10704">
        <ele>2301</ele>
        <time>2022-08-27T16:16:44Z</time>
      </trkpt>
      <trkpt lat="45.90677" lon="7.10703">
        <ele>2301</ele>
        <time>2022-08-27T16:16:45Z</time>
      </trkpt>
      <trkpt lat="45.90678" lon="7.10703">
        <ele>2301</ele>
        <time>2022-08-27T16:16:46Z</time>
      </trkpt>
      <trkpt lat="45.90679" lon="7.10702">
        <ele>2302</ele>
        <time>2022-08-27T16:16:48Z</time>
      </trkpt>
      <trkpt lat="45.9068" lon="7.10701">
        <ele>2303</ele>
        <time>2022-08-27T16:16:50Z</time>
      </trkpt>
      <trkpt lat="45.90681" lon="7.10701">
        <ele>2303</ele>
        <time>2022-08-27T16:16:51Z</time>
      </trkpt>
      <trkpt lat="45.90682" lon="7.107">
        <ele>2303</ele>
        <time>2022-08-27T16:16:52Z</time>
      </trkpt>
      <trkpt lat="45.90683" lon="7.10699">
        <ele>2303</ele>
        <time>2022-08-27T16:16:53Z</time>
      </trkpt>
      <trkpt lat="45.90691" lon="7.10701">
        <ele>2307</ele>
        <time>2022-08-27T16:17:05Z</time>
      </trkpt>
      <trkpt lat="45.90694" lon="7.107">
        <ele>2307</ele>
        <time>2022-08-27T16:17:09Z</time>
      </trkpt>
      <trkpt lat="45.90696" lon="7.107">
        <ele>2308</ele>
        <time>2022-08-27T16:17:12Z</time>
      </trkpt>
      <trkpt lat="45.907" lon="7.10701">
        <ele>2309</ele>
        <time>2022-08-27T16:17:16Z</time>
      </trkpt>
      <trkpt lat="45.90702" lon="7.10701">
        <ele>2309</ele>
        <time>2022-08-27T16:17:18Z</time>
      </trkpt>
      <trkpt lat="45.90703" lon="7.10701">
        <ele>2310</ele>
        <time>2022-08-27T16:17:20Z</time>
      </trkpt>
      <trkpt lat="45.90705" lon="7.107">
        <ele>2311</ele>
        <time>2022-08-27T16:17:22Z</time>
      </trkpt>
      <trkpt lat="45.90707" lon="7.107">
        <ele>2311</ele>
        <time>2022-08-27T16:17:25Z</time>
      </trkpt>
      <trkpt lat="45.90709" lon="7.10699">
        <ele>2311</ele>
        <time>2022-08-27T16:17:28Z</time>
      </trkpt>
      <trkpt lat="45.90711" lon="7.10698">
        <ele>2311</ele>
        <time>2022-08-27T16:17:30Z</time>
      </trkpt>
      <trkpt lat="45.90714" lon="7.10697">
        <ele>2311</ele>
        <time>2022-08-27T16:17:32Z</time>
      </trkpt>
      <trkpt lat="45.90716" lon="7.10696">
        <ele>2312</ele>
        <time>2022-08-27T16:17:34Z</time>
      </trkpt>
      <trkpt lat="45.90719" lon="7.10695">
        <ele>2312</ele>
        <time>2022-08-27T16:17:36Z</time>
      </trkpt>
      <trkpt lat="45.90721" lon="7.10693">
        <ele>2312</ele>
        <time>2022-08-27T16:17:38Z</time>
      </trkpt>
      <trkpt lat="45.90723" lon="7.10691">
        <ele>2312</ele>
        <time>2022-08-27T16:17:40Z</time>
      </trkpt>
      <trkpt lat="45.90726" lon="7.1069">
        <ele>2312</ele>
        <time>2022-08-27T16:17:42Z</time>
      </trkpt>
      <trkpt lat="45.90727" lon="7.10688">
        <ele>2312</ele>
        <time>2022-08-27T16:17:44Z</time>
      </trkpt>
      <trkpt lat="45.90729" lon="7.10686">
        <ele>2312</ele>
        <time>2022-08-27T16:17:46Z</time>
      </trkpt>
      <trkpt lat="45.9073" lon="7.10685">
        <ele>2313</ele>
        <time>2022-08-27T16:17:48Z</time>
      </trkpt>
      <trkpt lat="45.90733" lon="7.10683">
        <ele>2313</ele>
        <time>2022-08-27T16:17:51Z</time>
      </trkpt>
      <trkpt lat="45.90734" lon="7.10681">
        <ele>2314</ele>
        <time>2022-08-27T16:17:53Z</time>
      </trkpt>
      <trkpt lat="45.90735" lon="7.10678">
        <ele>2314</ele>
        <time>2022-08-27T16:17:56Z</time>
      </trkpt>
      <trkpt lat="45.90735" lon="7.10675">
        <ele>2314</ele>
        <time>2022-08-27T16:17:59Z</time>
      </trkpt>
      <trkpt lat="45.90737" lon="7.10673">
        <ele>2315</ele>
        <time>2022-08-27T16:18:02Z</time>
      </trkpt>
      <trkpt lat="45.90738" lon="7.1067">
        <ele>2315</ele>
        <time>2022-08-27T16:18:05Z</time>
      </trkpt>
      <trkpt lat="45.9074" lon="7.10668">
        <ele>2316</ele>
        <time>2022-08-27T16:18:07Z</time>
      </trkpt>
      <trkpt lat="45.90742" lon="7.10666">
        <ele>2317</ele>
        <time>2022-08-27T16:18:09Z</time>
      </trkpt>
      <trkpt lat="45.90743" lon="7.10664">
        <ele>2317</ele>
        <time>2022-08-27T16:18:11Z</time>
      </trkpt>
      <trkpt lat="45.90744" lon="7.10661">
        <ele>2318</ele>
        <time>2022-08-27T16:18:13Z</time>
      </trkpt>
      <trkpt lat="45.90746" lon="7.10657">
        <ele>2318</ele>
        <time>2022-08-27T16:18:16Z</time>
      </trkpt>
      <trkpt lat="45.90747" lon="7.10655">
        <ele>2318</ele>
        <time>2022-08-27T16:18:18Z</time>
      </trkpt>
      <trkpt lat="45.9075" lon="7.10651">
        <ele>2318</ele>
        <time>2022-08-27T16:18:21Z</time>
      </trkpt>
      <trkpt lat="45.90751" lon="7.10648">
        <ele>2318</ele>
        <time>2022-08-27T16:18:23Z</time>
      </trkpt>
      <trkpt lat="45.90752" lon="7.10645">
        <ele>2318</ele>
        <time>2022-08-27T16:18:25Z</time>
      </trkpt>
      <trkpt lat="45.90753" lon="7.10643">
        <ele>2318</ele>
        <time>2022-08-27T16:18:27Z</time>
      </trkpt>
      <trkpt lat="45.90754" lon="7.1064">
        <ele>2319</ele>
        <time>2022-08-27T16:18:29Z</time>
      </trkpt>
      <trkpt lat="45.90756" lon="7.10638">
        <ele>2319</ele>
        <time>2022-08-27T16:18:31Z</time>
      </trkpt>
      <trkpt lat="45.90758" lon="7.10635">
        <ele>2320</ele>
        <time>2022-08-27T16:18:33Z</time>
      </trkpt>
      <trkpt lat="45.90759" lon="7.10633">
        <ele>2320</ele>
        <time>2022-08-27T16:18:35Z</time>
      </trkpt>
      <trkpt lat="45.9076" lon="7.10631">
        <ele>2320</ele>
        <time>2022-08-27T16:18:37Z</time>
      </trkpt>
      <trkpt lat="45.90761" lon="7.10628">
        <ele>2321</ele>
        <time>2022-08-27T16:18:39Z</time>
      </trkpt>
      <trkpt lat="45.90762" lon="7.10626">
        <ele>2321</ele>
        <time>2022-08-27T16:18:41Z</time>
      </trkpt>
      <trkpt lat="45.90763" lon="7.10624">
        <ele>2322</ele>
        <time>2022-08-27T16:18:43Z</time>
      </trkpt>
      <trkpt lat="45.90764" lon="7.10621">
        <ele>2322</ele>
        <time>2022-08-27T16:18:45Z</time>
      </trkpt>
      <trkpt lat="45.90765" lon="7.10618">
        <ele>2322</ele>
        <time>2022-08-27T16:18:47Z</time>
      </trkpt>
      <trkpt lat="45.90766" lon="7.10615">
        <ele>2322</ele>
        <time>2022-08-27T16:18:49Z</time>
      </trkpt>
      <trkpt lat="45.90767" lon="7.10612">
        <ele>2323</ele>
        <time>2022-08-27T16:18:51Z</time>
      </trkpt>
      <trkpt lat="45.90768" lon="7.10609">
        <ele>2323</ele>
        <time>2022-08-27T16:18:53Z</time>
      </trkpt>
      <trkpt lat="45.9077" lon="7.10606">
        <ele>2323</ele>
        <time>2022-08-27T16:18:55Z</time>
      </trkpt>
      <trkpt lat="45.90772" lon="7.10603">
        <ele>2323</ele>
        <time>2022-08-27T16:18:57Z</time>
      </trkpt>
      <trkpt lat="45.90773" lon="7.10601">
        <ele>2323</ele>
        <time>2022-08-27T16:18:59Z</time>
      </trkpt>
      <trkpt lat="45.90775" lon="7.10598">
        <ele>2324</ele>
        <time>2022-08-27T16:19:01Z</time>
      </trkpt>
      <trkpt lat="45.90776" lon="7.10596">
        <ele>2324</ele>
        <time>2022-08-27T16:19:03Z</time>
      </trkpt>
      <trkpt lat="45.90777" lon="7.10593">
        <ele>2324</ele>
        <time>2022-08-27T16:19:05Z</time>
      </trkpt>
      <trkpt lat="45.90778" lon="7.1059">
        <ele>2326</ele>
        <time>2022-08-27T16:19:07Z</time>
      </trkpt>
      <trkpt lat="45.90779" lon="7.10587">
        <ele>2326</ele>
        <time>2022-08-27T16:19:10Z</time>
      </trkpt>
      <trkpt lat="45.90781" lon="7.10585">
        <ele>2327</ele>
        <time>2022-08-27T16:19:12Z</time>
      </trkpt>
      <trkpt lat="45.90782" lon="7.10583">
        <ele>2327</ele>
        <time>2022-08-27T16:19:14Z</time>
      </trkpt>
      <trkpt lat="45.90783" lon="7.1058">
        <ele>2328</ele>
        <time>2022-08-27T16:19:17Z</time>
      </trkpt>
      <trkpt lat="45.90783" lon="7.10577">
        <ele>2328</ele>
        <time>2022-08-27T16:19:19Z</time>
      </trkpt>
      <trkpt lat="45.90784" lon="7.10574">
        <ele>2328</ele>
        <time>2022-08-27T16:19:21Z</time>
      </trkpt>
      <trkpt lat="45.90784" lon="7.10572">
        <ele>2328</ele>
        <time>2022-08-27T16:19:23Z</time>
      </trkpt>
      <trkpt lat="45.90785" lon="7.10568">
        <ele>2329</ele>
        <time>2022-08-27T16:19:25Z</time>
      </trkpt>
      <trkpt lat="45.90785" lon="7.10566">
        <ele>2329</ele>
        <time>2022-08-27T16:19:27Z</time>
      </trkpt>
      <trkpt lat="45.90786" lon="7.10563">
        <ele>2329</ele>
        <time>2022-08-27T16:19:29Z</time>
      </trkpt>
      <trkpt lat="45.90787" lon="7.1056">
        <ele>2329</ele>
        <time>2022-08-27T16:19:31Z</time>
      </trkpt>
      <trkpt lat="45.90788" lon="7.10558">
        <ele>2330</ele>
        <time>2022-08-27T16:19:33Z</time>
      </trkpt>
      <trkpt lat="45.9079" lon="7.10555">
        <ele>2330</ele>
        <time>2022-08-27T16:19:35Z</time>
      </trkpt>
      <trkpt lat="45.90791" lon="7.10553">
        <ele>2331</ele>
        <time>2022-08-27T16:19:37Z</time>
      </trkpt>
      <trkpt lat="45.90793" lon="7.10551">
        <ele>2331</ele>
        <time>2022-08-27T16:19:39Z</time>
      </trkpt>
      <trkpt lat="45.90794" lon="7.10549">
        <ele>2331</ele>
        <time>2022-08-27T16:19:41Z</time>
      </trkpt>
      <trkpt lat="45.90796" lon="7.10547">
        <ele>2332</ele>
        <time>2022-08-27T16:19:43Z</time>
      </trkpt>
      <trkpt lat="45.90797" lon="7.10545">
        <ele>2332</ele>
        <time>2022-08-27T16:19:45Z</time>
      </trkpt>
      <trkpt lat="45.90799" lon="7.10543">
        <ele>2332</ele>
        <time>2022-08-27T16:19:47Z</time>
      </trkpt>
      <trkpt lat="45.908" lon="7.10541">
        <ele>2333</ele>
        <time>2022-08-27T16:19:49Z</time>
      </trkpt>
      <trkpt lat="45.90801" lon="7.10539">
        <ele>2333</ele>
        <time>2022-08-27T16:19:51Z</time>
      </trkpt>
      <trkpt lat="45.90803" lon="7.10537">
        <ele>2333</ele>
        <time>2022-08-27T16:19:53Z</time>
      </trkpt>
      <trkpt lat="45.90803" lon="7.10535">
        <ele>2334</ele>
        <time>2022-08-27T16:19:55Z</time>
      </trkpt>
      <trkpt lat="45.90805" lon="7.10532">
        <ele>2334</ele>
        <time>2022-08-27T16:19:58Z</time>
      </trkpt>
      <trkpt lat="45.90806" lon="7.10529">
        <ele>2335</ele>
        <time>2022-08-27T16:20:01Z</time>
      </trkpt>
      <trkpt lat="45.90806" lon="7.10525">
        <ele>2336</ele>
        <time>2022-08-27T16:20:04Z</time>
      </trkpt>
      <trkpt lat="45.90807" lon="7.10521">
        <ele>2337</ele>
        <time>2022-08-27T16:20:07Z</time>
      </trkpt>
      <trkpt lat="45.90808" lon="7.10517">
        <ele>2337</ele>
        <time>2022-08-27T16:20:10Z</time>
      </trkpt>
      <trkpt lat="45.90809" lon="7.10514">
        <ele>2337</ele>
        <time>2022-08-27T16:20:12Z</time>
      </trkpt>
      <trkpt lat="45.9081" lon="7.10511">
        <ele>2337</ele>
        <time>2022-08-27T16:20:14Z</time>
      </trkpt>
      <trkpt lat="45.90812" lon="7.10508">
        <ele>2337</ele>
        <time>2022-08-27T16:20:16Z</time>
      </trkpt>
      <trkpt lat="45.90813" lon="7.10506">
        <ele>2337</ele>
        <time>2022-08-27T16:20:18Z</time>
      </trkpt>
      <trkpt lat="45.90815" lon="7.10503">
        <ele>2337</ele>
        <time>2022-08-27T16:20:20Z</time>
      </trkpt>
      <trkpt lat="45.90817" lon="7.10501">
        <ele>2338</ele>
        <time>2022-08-27T16:20:22Z</time>
      </trkpt>
      <trkpt lat="45.90818" lon="7.10498">
        <ele>2338</ele>
        <time>2022-08-27T16:20:25Z</time>
      </trkpt>
      <trkpt lat="45.90818" lon="7.10495">
        <ele>2338</ele>
        <time>2022-08-27T16:20:28Z</time>
      </trkpt>
      <trkpt lat="45.9082" lon="7.10493">
        <ele>2339</ele>
        <time>2022-08-27T16:20:30Z</time>
      </trkpt>
      <trkpt lat="45.90822" lon="7.10492">
        <ele>2340</ele>
        <time>2022-08-27T16:20:32Z</time>
      </trkpt>
      <trkpt lat="45.90823" lon="7.10489">
        <ele>2340</ele>
        <time>2022-08-27T16:20:34Z</time>
      </trkpt>
      <trkpt lat="45.90824" lon="7.10485">
        <ele>2340</ele>
        <time>2022-08-27T16:20:37Z</time>
      </trkpt>
      <trkpt lat="45.90825" lon="7.10483">
        <ele>2341</ele>
        <time>2022-08-27T16:20:39Z</time>
      </trkpt>
      <trkpt lat="45.90827" lon="7.1048">
        <ele>2341</ele>
        <time>2022-08-27T16:20:42Z</time>
      </trkpt>
      <trkpt lat="45.90828" lon="7.10478">
        <ele>2342</ele>
        <time>2022-08-27T16:20:45Z</time>
      </trkpt>
      <trkpt lat="45.9083" lon="7.10475">
        <ele>2342</ele>
        <time>2022-08-27T16:20:48Z</time>
      </trkpt>
      <trkpt lat="45.9083" lon="7.10471">
        <ele>2342</ele>
        <time>2022-08-27T16:20:51Z</time>
      </trkpt>
      <trkpt lat="45.90831" lon="7.10468">
        <ele>2342</ele>
        <time>2022-08-27T16:20:54Z</time>
      </trkpt>
      <trkpt lat="45.90832" lon="7.10465">
        <ele>2343</ele>
        <time>2022-08-27T16:20:57Z</time>
      </trkpt>
      <trkpt lat="45.90832" lon="7.10462">
        <ele>2343</ele>
        <time>2022-08-27T16:20:59Z</time>
      </trkpt>
      <trkpt lat="45.90832" lon="7.10459">
        <ele>2343</ele>
        <time>2022-08-27T16:21:01Z</time>
      </trkpt>
      <trkpt lat="45.90832" lon="7.10455">
        <ele>2343</ele>
        <time>2022-08-27T16:21:03Z</time>
      </trkpt>
      <trkpt lat="45.90833" lon="7.10452">
        <ele>2343</ele>
        <time>2022-08-27T16:21:05Z</time>
      </trkpt>
      <trkpt lat="45.90833" lon="7.10448">
        <ele>2341</ele>
        <time>2022-08-27T16:21:07Z</time>
      </trkpt>
      <trkpt lat="45.90832" lon="7.10444">
        <ele>2341</ele>
        <time>2022-08-27T16:21:09Z</time>
      </trkpt>
      <trkpt lat="45.90832" lon="7.10441">
        <ele>2341</ele>
        <time>2022-08-27T16:21:11Z</time>
      </trkpt>
      <trkpt lat="45.90831" lon="7.10438">
        <ele>2341</ele>
        <time>2022-08-27T16:21:13Z</time>
      </trkpt>
      <trkpt lat="45.90831" lon="7.10435">
        <ele>2341</ele>
        <time>2022-08-27T16:21:15Z</time>
      </trkpt>
      <trkpt lat="45.90831" lon="7.10432">
        <ele>2341</ele>
        <time>2022-08-27T16:21:17Z</time>
      </trkpt>
      <trkpt lat="45.90831" lon="7.10428">
        <ele>2342</ele>
        <time>2022-08-27T16:21:19Z</time>
      </trkpt>
      <trkpt lat="45.9083" lon="7.10425">
        <ele>2342</ele>
        <time>2022-08-27T16:21:21Z</time>
      </trkpt>
      <trkpt lat="45.90829" lon="7.10421">
        <ele>2342</ele>
        <time>2022-08-27T16:21:23Z</time>
      </trkpt>
      <trkpt lat="45.90829" lon="7.10418">
        <ele>2342</ele>
        <time>2022-08-27T16:21:25Z</time>
      </trkpt>
      <trkpt lat="45.90828" lon="7.10416">
        <ele>2342</ele>
        <time>2022-08-27T16:21:27Z</time>
      </trkpt>
      <trkpt lat="45.90827" lon="7.10413">
        <ele>2342</ele>
        <time>2022-08-27T16:21:30Z</time>
      </trkpt>
      <trkpt lat="45.90825" lon="7.10411">
        <ele>2343</ele>
        <time>2022-08-27T16:21:32Z</time>
      </trkpt>
      <trkpt lat="45.90825" lon="7.10408">
        <ele>2344</ele>
        <time>2022-08-27T16:21:34Z</time>
      </trkpt>
      <trkpt lat="45.90824" lon="7.10404">
        <ele>2344</ele>
        <time>2022-08-27T16:21:37Z</time>
      </trkpt>
      <trkpt lat="45.90823" lon="7.10402">
        <ele>2345</ele>
        <time>2022-08-27T16:21:39Z</time>
      </trkpt>
      <trkpt lat="45.90823" lon="7.10399">
        <ele>2345</ele>
        <time>2022-08-27T16:21:41Z</time>
      </trkpt>
      <trkpt lat="45.90824" lon="7.10397">
        <ele>2345</ele>
        <time>2022-08-27T16:21:43Z</time>
      </trkpt>
      <trkpt lat="45.90824" lon="7.10393">
        <ele>2345</ele>
        <time>2022-08-27T16:21:45Z</time>
      </trkpt>
      <trkpt lat="45.90823" lon="7.10391">
        <ele>2346</ele>
        <time>2022-08-27T16:21:47Z</time>
      </trkpt>
      <trkpt lat="45.90822" lon="7.10387">
        <ele>2347</ele>
        <time>2022-08-27T16:21:50Z</time>
      </trkpt>
      <trkpt lat="45.90822" lon="7.10384">
        <ele>2347</ele>
        <time>2022-08-27T16:21:52Z</time>
      </trkpt>
      <trkpt lat="45.90822" lon="7.10381">
        <ele>2347</ele>
        <time>2022-08-27T16:21:54Z</time>
      </trkpt>
      <trkpt lat="45.90822" lon="7.10378">
        <ele>2347</ele>
        <time>2022-08-27T16:21:56Z</time>
      </trkpt>
      <trkpt lat="45.90821" lon="7.10375">
        <ele>2347</ele>
        <time>2022-08-27T16:21:58Z</time>
      </trkpt>
      <trkpt lat="45.90821" lon="7.10372">
        <ele>2348</ele>
        <time>2022-08-27T16:22:00Z</time>
      </trkpt>
      <trkpt lat="45.9082" lon="7.10369">
        <ele>2348</ele>
        <time>2022-08-27T16:22:02Z</time>
      </trkpt>
      <trkpt lat="45.9082" lon="7.10365">
        <ele>2348</ele>
        <time>2022-08-27T16:22:04Z</time>
      </trkpt>
      <trkpt lat="45.90819" lon="7.10362">
        <ele>2348</ele>
        <time>2022-08-27T16:22:06Z</time>
      </trkpt>
      <trkpt lat="45.90819" lon="7.1036">
        <ele>2348</ele>
        <time>2022-08-27T16:22:08Z</time>
      </trkpt>
      <trkpt lat="45.90819" lon="7.10356">
        <ele>2348</ele>
        <time>2022-08-27T16:22:10Z</time>
      </trkpt>
      <trkpt lat="45.9082" lon="7.10353">
        <ele>2348</ele>
        <time>2022-08-27T16:22:12Z</time>
      </trkpt>
      <trkpt lat="45.9082" lon="7.10349">
        <ele>2349</ele>
        <time>2022-08-27T16:22:14Z</time>
      </trkpt>
      <trkpt lat="45.90819" lon="7.10346">
        <ele>2349</ele>
        <time>2022-08-27T16:22:16Z</time>
      </trkpt>
      <trkpt lat="45.90818" lon="7.10343">
        <ele>2350</ele>
        <time>2022-08-27T16:22:18Z</time>
      </trkpt>
      <trkpt lat="45.90818" lon="7.10339">
        <ele>2350</ele>
        <time>2022-08-27T16:22:20Z</time>
      </trkpt>
      <trkpt lat="45.90817" lon="7.10336">
        <ele>2350</ele>
        <time>2022-08-27T16:22:22Z</time>
      </trkpt>
      <trkpt lat="45.90817" lon="7.10332">
        <ele>2350</ele>
        <time>2022-08-27T16:22:24Z</time>
      </trkpt>
      <trkpt lat="45.90815" lon="7.10328">
        <ele>2349</ele>
        <time>2022-08-27T16:22:26Z</time>
      </trkpt>
      <trkpt lat="45.90815" lon="7.10325">
        <ele>2349</ele>
        <time>2022-08-27T16:22:28Z</time>
      </trkpt>
      <trkpt lat="45.90814" lon="7.10322">
        <ele>2348</ele>
        <time>2022-08-27T16:22:30Z</time>
      </trkpt>
      <trkpt lat="45.90814" lon="7.10318">
        <ele>2348</ele>
        <time>2022-08-27T16:22:32Z</time>
      </trkpt>
      <trkpt lat="45.90814" lon="7.10315">
        <ele>2348</ele>
        <time>2022-08-27T16:22:34Z</time>
      </trkpt>
      <trkpt lat="45.90815" lon="7.10311">
        <ele>2348</ele>
        <time>2022-08-27T16:22:36Z</time>
      </trkpt>
      <trkpt lat="45.90816" lon="7.10307">
        <ele>2349</ele>
        <time>2022-08-27T16:22:38Z</time>
      </trkpt>
      <trkpt lat="45.90817" lon="7.10304">
        <ele>2349</ele>
        <time>2022-08-27T16:22:40Z</time>
      </trkpt>
      <trkpt lat="45.90819" lon="7.10301">
        <ele>2349</ele>
        <time>2022-08-27T16:22:42Z</time>
      </trkpt>
      <trkpt lat="45.9082" lon="7.10297">
        <ele>2349</ele>
        <time>2022-08-27T16:22:44Z</time>
      </trkpt>
      <trkpt lat="45.90822" lon="7.10294">
        <ele>2349</ele>
        <time>2022-08-27T16:22:46Z</time>
      </trkpt>
      <trkpt lat="45.90824" lon="7.10291">
        <ele>2349</ele>
        <time>2022-08-27T16:22:48Z</time>
      </trkpt>
      <trkpt lat="45.90826" lon="7.10287">
        <ele>2349</ele>
        <time>2022-08-27T16:22:50Z</time>
      </trkpt>
      <trkpt lat="45.90828" lon="7.10284">
        <ele>2349</ele>
        <time>2022-08-27T16:22:52Z</time>
      </trkpt>
      <trkpt lat="45.90829" lon="7.10281">
        <ele>2350</ele>
        <time>2022-08-27T16:22:54Z</time>
      </trkpt>
      <trkpt lat="45.90831" lon="7.10278">
        <ele>2350</ele>
        <time>2022-08-27T16:22:56Z</time>
      </trkpt>
      <trkpt lat="45.90832" lon="7.10275">
        <ele>2350</ele>
        <time>2022-08-27T16:22:58Z</time>
      </trkpt>
      <trkpt lat="45.90833" lon="7.10271">
        <ele>2350</ele>
        <time>2022-08-27T16:23:00Z</time>
      </trkpt>
      <trkpt lat="45.90835" lon="7.10268">
        <ele>2350</ele>
        <time>2022-08-27T16:23:02Z</time>
      </trkpt>
      <trkpt lat="45.90836" lon="7.10266">
        <ele>2350</ele>
        <time>2022-08-27T16:23:04Z</time>
      </trkpt>
      <trkpt lat="45.90838" lon="7.10263">
        <ele>2352</ele>
        <time>2022-08-27T16:23:06Z</time>
      </trkpt>
      <trkpt lat="45.90838" lon="7.1026">
        <ele>2352</ele>
        <time>2022-08-27T16:23:08Z</time>
      </trkpt>
      <trkpt lat="45.90839" lon="7.10257">
        <ele>2350</ele>
        <time>2022-08-27T16:23:10Z</time>
      </trkpt>
      <trkpt lat="45.90839" lon="7.10253">
        <ele>2350</ele>
        <time>2022-08-27T16:23:12Z</time>
      </trkpt>
      <trkpt lat="45.90839" lon="7.10249">
        <ele>2350</ele>
        <time>2022-08-27T16:23:14Z</time>
      </trkpt>
      <trkpt lat="45.9084" lon="7.10246">
        <ele>2350</ele>
        <time>2022-08-27T16:23:16Z</time>
      </trkpt>
      <trkpt lat="45.90841" lon="7.10242">
        <ele>2350</ele>
        <time>2022-08-27T16:23:18Z</time>
      </trkpt>
      <trkpt lat="45.90842" lon="7.10239">
        <ele>2350</ele>
        <time>2022-08-27T16:23:20Z</time>
      </trkpt>
      <trkpt lat="45.90843" lon="7.10236">
        <ele>2350</ele>
        <time>2022-08-27T16:23:22Z</time>
      </trkpt>
      <trkpt lat="45.90844" lon="7.10233">
        <ele>2350</ele>
        <time>2022-08-27T16:23:24Z</time>
      </trkpt>
      <trkpt lat="45.90846" lon="7.1023">
        <ele>2350</ele>
        <time>2022-08-27T16:23:26Z</time>
      </trkpt>
      <trkpt lat="45.90847" lon="7.10227">
        <ele>2350</ele>
        <time>2022-08-27T16:23:28Z</time>
      </trkpt>
      <trkpt lat="45.90848" lon="7.10224">
        <ele>2350</ele>
        <time>2022-08-27T16:23:30Z</time>
      </trkpt>
      <trkpt lat="45.90848" lon="7.10221">
        <ele>2350</ele>
        <time>2022-08-27T16:23:32Z</time>
      </trkpt>
      <trkpt lat="45.9085" lon="7.10219">
        <ele>2350</ele>
        <time>2022-08-27T16:23:34Z</time>
      </trkpt>
      <trkpt lat="45.90851" lon="7.10216">
        <ele>2352</ele>
        <time>2022-08-27T16:23:36Z</time>
      </trkpt>
      <trkpt lat="45.90853" lon="7.10213">
        <ele>2352</ele>
        <time>2022-08-27T16:23:38Z</time>
      </trkpt>
      <trkpt lat="45.90854" lon="7.1021">
        <ele>2352</ele>
        <time>2022-08-27T16:23:40Z</time>
      </trkpt>
      <trkpt lat="45.90855" lon="7.10207">
        <ele>2352</ele>
        <time>2022-08-27T16:23:42Z</time>
      </trkpt>
      <trkpt lat="45.90857" lon="7.10204">
        <ele>2353</ele>
        <time>2022-08-27T16:23:44Z</time>
      </trkpt>
      <trkpt lat="45.90858" lon="7.10201">
        <ele>2353</ele>
        <time>2022-08-27T16:23:46Z</time>
      </trkpt>
      <trkpt lat="45.90861" lon="7.10198">
        <ele>2353</ele>
        <time>2022-08-27T16:23:48Z</time>
      </trkpt>
      <trkpt lat="45.90863" lon="7.10195">
        <ele>2353</ele>
        <time>2022-08-27T16:23:50Z</time>
      </trkpt>
      <trkpt lat="45.90866" lon="7.10194">
        <ele>2353</ele>
        <time>2022-08-27T16:23:52Z</time>
      </trkpt>
      <trkpt lat="45.90868" lon="7.10192">
        <ele>2353</ele>
        <time>2022-08-27T16:23:54Z</time>
      </trkpt>
      <trkpt lat="45.9087" lon="7.1019">
        <ele>2353</ele>
        <time>2022-08-27T16:23:56Z</time>
      </trkpt>
      <trkpt lat="45.90872" lon="7.10188">
        <ele>2353</ele>
        <time>2022-08-27T16:23:58Z</time>
      </trkpt>
      <trkpt lat="45.90875" lon="7.10186">
        <ele>2353</ele>
        <time>2022-08-27T16:24:00Z</time>
      </trkpt>
      <trkpt lat="45.90877" lon="7.10185">
        <ele>2353</ele>
        <time>2022-08-27T16:24:01Z</time>
      </trkpt>
      <trkpt lat="45.90879" lon="7.10184">
        <ele>2352</ele>
        <time>2022-08-27T16:24:02Z</time>
      </trkpt>
      <trkpt lat="45.90881" lon="7.10181">
        <ele>2352</ele>
        <time>2022-08-27T16:24:04Z</time>
      </trkpt>
      <trkpt lat="45.90883" lon="7.10179">
        <ele>2352</ele>
        <time>2022-08-27T16:24:06Z</time>
      </trkpt>
      <trkpt lat="45.90885" lon="7.10176">
        <ele>2352</ele>
        <time>2022-08-27T16:24:08Z</time>
      </trkpt>
      <trkpt lat="45.90888" lon="7.10174">
        <ele>2352</ele>
        <time>2022-08-27T16:24:10Z</time>
      </trkpt>
      <trkpt lat="45.9089" lon="7.10172">
        <ele>2352</ele>
        <time>2022-08-27T16:24:12Z</time>
      </trkpt>
      <trkpt lat="45.90892" lon="7.10169">
        <ele>2352</ele>
        <time>2022-08-27T16:24:14Z</time>
      </trkpt>
      <trkpt lat="45.90894" lon="7.10165">
        <ele>2352</ele>
        <time>2022-08-27T16:24:16Z</time>
      </trkpt>
      <trkpt lat="45.90896" lon="7.10162">
        <ele>2352</ele>
        <time>2022-08-27T16:24:18Z</time>
      </trkpt>
      <trkpt lat="45.90897" lon="7.10159">
        <ele>2352</ele>
        <time>2022-08-27T16:24:20Z</time>
      </trkpt>
      <trkpt lat="45.90898" lon="7.10157">
        <ele>2350</ele>
        <time>2022-08-27T16:24:22Z</time>
      </trkpt>
      <trkpt lat="45.90899" lon="7.10154">
        <ele>2352</ele>
        <time>2022-08-27T16:24:24Z</time>
      </trkpt>
      <trkpt lat="45.909" lon="7.1015">
        <ele>2352</ele>
        <time>2022-08-27T16:24:27Z</time>
      </trkpt>
      <trkpt lat="45.90901" lon="7.10147">
        <ele>2352</ele>
        <time>2022-08-27T16:24:30Z</time>
      </trkpt>
      <trkpt lat="45.90902" lon="7.10144">
        <ele>2349</ele>
        <time>2022-08-27T16:24:34Z</time>
      </trkpt>
      <trkpt lat="45.90904" lon="7.10142">
        <ele>2349</ele>
        <time>2022-08-27T16:24:36Z</time>
      </trkpt>
      <trkpt lat="45.90905" lon="7.10138">
        <ele>2348</ele>
        <time>2022-08-27T16:24:38Z</time>
      </trkpt>
      <trkpt lat="45.90906" lon="7.10135">
        <ele>2348</ele>
        <time>2022-08-27T16:24:40Z</time>
      </trkpt>
      <trkpt lat="45.90906" lon="7.10131">
        <ele>2347</ele>
        <time>2022-08-27T16:24:42Z</time>
      </trkpt>
      <trkpt lat="45.90906" lon="7.10127">
        <ele>2347</ele>
        <time>2022-08-27T16:24:44Z</time>
      </trkpt>
      <trkpt lat="45.90905" lon="7.10124">
        <ele>2347</ele>
        <time>2022-08-27T16:24:46Z</time>
      </trkpt>
      <trkpt lat="45.90905" lon="7.10121">
        <ele>2347</ele>
        <time>2022-08-27T16:24:48Z</time>
      </trkpt>
      <trkpt lat="45.90904" lon="7.10119">
        <ele>2347</ele>
        <time>2022-08-27T16:24:50Z</time>
      </trkpt>
      <trkpt lat="45.90904" lon="7.10115">
        <ele>2347</ele>
        <time>2022-08-27T16:24:53Z</time>
      </trkpt>
      <trkpt lat="45.90905" lon="7.10112">
        <ele>2346</ele>
        <time>2022-08-27T16:24:55Z</time>
      </trkpt>
      <trkpt lat="45.90907" lon="7.10108">
        <ele>2345</ele>
        <time>2022-08-27T16:24:57Z</time>
      </trkpt>
      <trkpt lat="45.90908" lon="7.10105">
        <ele>2345</ele>
        <time>2022-08-27T16:24:58Z</time>
      </trkpt>
      <trkpt lat="45.90909" lon="7.101">
        <ele>2344</ele>
        <time>2022-08-27T16:25:00Z</time>
      </trkpt>
      <trkpt lat="45.90909" lon="7.10097">
        <ele>2344</ele>
        <time>2022-08-27T16:25:01Z</time>
      </trkpt>
      <trkpt lat="45.90909" lon="7.10095">
        <ele>2344</ele>
        <time>2022-08-27T16:25:02Z</time>
      </trkpt>
      <trkpt lat="45.90909" lon="7.10091">
        <ele>2343</ele>
        <time>2022-08-27T16:25:04Z</time>
      </trkpt>
      <trkpt lat="45.90909" lon="7.10088">
        <ele>2343</ele>
        <time>2022-08-27T16:25:06Z</time>
      </trkpt>
      <trkpt lat="45.90909" lon="7.10085">
        <ele>2343</ele>
        <time>2022-08-27T16:25:08Z</time>
      </trkpt>
      <trkpt lat="45.9091" lon="7.10082">
        <ele>2342</ele>
        <time>2022-08-27T16:25:11Z</time>
      </trkpt>
      <trkpt lat="45.9091" lon="7.10079">
        <ele>2341</ele>
        <time>2022-08-27T16:25:13Z</time>
      </trkpt>
      <trkpt lat="45.90912" lon="7.10077">
        <ele>2341</ele>
        <time>2022-08-27T16:25:15Z</time>
      </trkpt>
      <trkpt lat="45.90913" lon="7.10073">
        <ele>2339</ele>
        <time>2022-08-27T16:25:17Z</time>
      </trkpt>
      <trkpt lat="45.90914" lon="7.10071">
        <ele>2339</ele>
        <time>2022-08-27T16:25:18Z</time>
      </trkpt>
      <trkpt lat="45.90915" lon="7.10068">
        <ele>2338</ele>
        <time>2022-08-27T16:25:19Z</time>
      </trkpt>
      <trkpt lat="45.90916" lon="7.10065">
        <ele>2338</ele>
        <time>2022-08-27T16:25:20Z</time>
      </trkpt>
      <trkpt lat="45.90917" lon="7.10062">
        <ele>2338</ele>
        <time>2022-08-27T16:25:21Z</time>
      </trkpt>
      <trkpt lat="45.90917" lon="7.1006">
        <ele>2338</ele>
        <time>2022-08-27T16:25:22Z</time>
      </trkpt>
      <trkpt lat="45.90918" lon="7.10056">
        <ele>2337</ele>
        <time>2022-08-27T16:25:24Z</time>
      </trkpt>
      <trkpt lat="45.90919" lon="7.10052">
        <ele>2337</ele>
        <time>2022-08-27T16:25:26Z</time>
      </trkpt>
      <trkpt lat="45.9092" lon="7.10049">
        <ele>2337</ele>
        <time>2022-08-27T16:25:28Z</time>
      </trkpt>
      <trkpt lat="45.9092" lon="7.10045">
        <ele>2336</ele>
        <time>2022-08-27T16:25:30Z</time>
      </trkpt>
      <trkpt lat="45.90921" lon="7.10042">
        <ele>2336</ele>
        <time>2022-08-27T16:25:31Z</time>
      </trkpt>
      <trkpt lat="45.90921" lon="7.10039">
        <ele>2335</ele>
        <time>2022-08-27T16:25:32Z</time>
      </trkpt>
      <trkpt lat="45.90921" lon="7.10036">
        <ele>2334</ele>
        <time>2022-08-27T16:25:33Z</time>
      </trkpt>
      <trkpt lat="45.90921" lon="7.10034">
        <ele>2333</ele>
        <time>2022-08-27T16:25:34Z</time>
      </trkpt>
      <trkpt lat="45.90922" lon="7.10029">
        <ele>2333</ele>
        <time>2022-08-27T16:25:36Z</time>
      </trkpt>
      <trkpt lat="45.90923" lon="7.10026">
        <ele>2332</ele>
        <time>2022-08-27T16:25:38Z</time>
      </trkpt>
      <trkpt lat="45.90925" lon="7.10025">
        <ele>2332</ele>
        <time>2022-08-27T16:25:40Z</time>
      </trkpt>
      <trkpt lat="45.90927" lon="7.10024">
        <ele>2332</ele>
        <time>2022-08-27T16:25:42Z</time>
      </trkpt>
      <trkpt lat="45.90929" lon="7.10024">
        <ele>2333</ele>
        <time>2022-08-27T16:25:44Z</time>
      </trkpt>
      <trkpt lat="45.90931" lon="7.10023">
        <ele>2333</ele>
        <time>2022-08-27T16:25:46Z</time>
      </trkpt>
      <trkpt lat="45.90934" lon="7.10022">
        <ele>2333</ele>
        <time>2022-08-27T16:25:48Z</time>
      </trkpt>
      <trkpt lat="45.90935" lon="7.1002">
        <ele>2334</ele>
        <time>2022-08-27T16:25:50Z</time>
      </trkpt>
      <trkpt lat="45.90938" lon="7.10019">
        <ele>2335</ele>
        <time>2022-08-27T16:25:53Z</time>
      </trkpt>
      <trkpt lat="45.9094" lon="7.10017">
        <ele>2335</ele>
        <time>2022-08-27T16:25:56Z</time>
      </trkpt>
      <trkpt lat="45.90942" lon="7.10016">
        <ele>2335</ele>
        <time>2022-08-27T16:25:58Z</time>
      </trkpt>
      <trkpt lat="45.90943" lon="7.10015">
        <ele>2335</ele>
        <time>2022-08-27T16:26:00Z</time>
      </trkpt>
      <trkpt lat="45.90945" lon="7.10014">
        <ele>2336</ele>
        <time>2022-08-27T16:26:02Z</time>
      </trkpt>
      <trkpt lat="45.90947" lon="7.10013">
        <ele>2336</ele>
        <time>2022-08-27T16:26:04Z</time>
      </trkpt>
      <trkpt lat="45.90949" lon="7.10011">
        <ele>2336</ele>
        <time>2022-08-27T16:26:07Z</time>
      </trkpt>
      <trkpt lat="45.90951" lon="7.10009">
        <ele>2336</ele>
        <time>2022-08-27T16:26:11Z</time>
      </trkpt>
      <trkpt lat="45.90952" lon="7.10007">
        <ele>2336</ele>
        <time>2022-08-27T16:26:14Z</time>
      </trkpt>
      <trkpt lat="45.90955" lon="7.10006">
        <ele>2335</ele>
        <time>2022-08-27T16:26:16Z</time>
      </trkpt>
      <trkpt lat="45.90957" lon="7.10003">
        <ele>2334</ele>
        <time>2022-08-27T16:26:18Z</time>
      </trkpt>
      <trkpt lat="45.90959" lon="7.1">
        <ele>2334</ele>
        <time>2022-08-27T16:26:20Z</time>
      </trkpt>
      <trkpt lat="45.9096" lon="7.09997">
        <ele>2334</ele>
        <time>2022-08-27T16:26:22Z</time>
      </trkpt>
      <trkpt lat="45.90961" lon="7.09995">
        <ele>2334</ele>
        <time>2022-08-27T16:26:24Z</time>
      </trkpt>
      <trkpt lat="45.90963" lon="7.09992">
        <ele>2333</ele>
        <time>2022-08-27T16:26:26Z</time>
      </trkpt>
      <trkpt lat="45.90965" lon="7.09991">
        <ele>2333</ele>
        <time>2022-08-27T16:26:28Z</time>
      </trkpt>
      <trkpt lat="45.90968" lon="7.0999">
        <ele>2333</ele>
        <time>2022-08-27T16:26:30Z</time>
      </trkpt>
      <trkpt lat="45.9097" lon="7.09989">
        <ele>2332</ele>
        <time>2022-08-27T16:26:32Z</time>
      </trkpt>
      <trkpt lat="45.90972" lon="7.09988">
        <ele>2332</ele>
        <time>2022-08-27T16:26:34Z</time>
      </trkpt>
      <trkpt lat="45.90975" lon="7.09987">
        <ele>2332</ele>
        <time>2022-08-27T16:26:36Z</time>
      </trkpt>
      <trkpt lat="45.90977" lon="7.09986">
        <ele>2332</ele>
        <time>2022-08-27T16:26:39Z</time>
      </trkpt>
      <trkpt lat="45.90979" lon="7.09985">
        <ele>2331</ele>
        <time>2022-08-27T16:26:41Z</time>
      </trkpt>
      <trkpt lat="45.90981" lon="7.09984">
        <ele>2330</ele>
        <time>2022-08-27T16:26:43Z</time>
      </trkpt>
      <trkpt lat="45.90984" lon="7.09983">
        <ele>2330</ele>
        <time>2022-08-27T16:26:45Z</time>
      </trkpt>
      <trkpt lat="45.90986" lon="7.09981">
        <ele>2330</ele>
        <time>2022-08-27T16:26:47Z</time>
      </trkpt>
      <trkpt lat="45.90989" lon="7.0998">
        <ele>2330</ele>
        <time>2022-08-27T16:26:49Z</time>
      </trkpt>
      <trkpt lat="45.90992" lon="7.09978">
        <ele>2329</ele>
        <time>2022-08-27T16:26:51Z</time>
      </trkpt>
      <trkpt lat="45.90994" lon="7.09977">
        <ele>2329</ele>
        <time>2022-08-27T16:26:53Z</time>
      </trkpt>
      <trkpt lat="45.90996" lon="7.09975">
        <ele>2329</ele>
        <time>2022-08-27T16:26:55Z</time>
      </trkpt>
      <trkpt lat="45.90998" lon="7.09974">
        <ele>2329</ele>
        <time>2022-08-27T16:26:57Z</time>
      </trkpt>
      <trkpt lat="45.91" lon="7.09972">
        <ele>2329</ele>
        <time>2022-08-27T16:26:59Z</time>
      </trkpt>
      <trkpt lat="45.91003" lon="7.09971">
        <ele>2329</ele>
        <time>2022-08-27T16:27:01Z</time>
      </trkpt>
      <trkpt lat="45.91004" lon="7.09969">
        <ele>2330</ele>
        <time>2022-08-27T16:27:03Z</time>
      </trkpt>
      <trkpt lat="45.91006" lon="7.0997">
        <ele>2329</ele>
        <time>2022-08-27T16:27:06Z</time>
      </trkpt>
      <trkpt lat="45.91008" lon="7.09972">
        <ele>2329</ele>
        <time>2022-08-27T16:27:08Z</time>
      </trkpt>
      <trkpt lat="45.9101" lon="7.09971">
        <ele>2329</ele>
        <time>2022-08-27T16:27:10Z</time>
      </trkpt>
      <trkpt lat="45.91013" lon="7.09971">
        <ele>2327</ele>
        <time>2022-08-27T16:27:12Z</time>
      </trkpt>
      <trkpt lat="45.91016" lon="7.09969">
        <ele>2327</ele>
        <time>2022-08-27T16:27:14Z</time>
      </trkpt>
      <trkpt lat="45.91019" lon="7.09966">
        <ele>2327</ele>
        <time>2022-08-27T16:27:16Z</time>
      </trkpt>
      <trkpt lat="45.91021" lon="7.09964">
        <ele>2327</ele>
        <time>2022-08-27T16:27:19Z</time>
      </trkpt>
      <trkpt lat="45.91023" lon="7.09964">
        <ele>2327</ele>
        <time>2022-08-27T16:27:21Z</time>
      </trkpt>
      <trkpt lat="45.91025" lon="7.09965">
        <ele>2326</ele>
        <time>2022-08-27T16:27:23Z</time>
      </trkpt>
      <trkpt lat="45.91029" lon="7.09964">
        <ele>2326</ele>
        <time>2022-08-27T16:27:25Z</time>
      </trkpt>
      <trkpt lat="45.91032" lon="7.09965">
        <ele>2324</ele>
        <time>2022-08-27T16:27:27Z</time>
      </trkpt>
      <trkpt lat="45.91034" lon="7.09965">
        <ele>2323</ele>
        <time>2022-08-27T16:27:29Z</time>
      </trkpt>
      <trkpt lat="45.91037" lon="7.09963">
        <ele>2323</ele>
        <time>2022-08-27T16:27:31Z</time>
      </trkpt>
      <trkpt lat="45.9104" lon="7.09962">
        <ele>2322</ele>
        <time>2022-08-27T16:27:33Z</time>
      </trkpt>
      <trkpt lat="45.91042" lon="7.09963">
        <ele>2322</ele>
        <time>2022-08-27T16:27:35Z</time>
      </trkpt>
      <trkpt lat="45.91045" lon="7.09964">
        <ele>2321</ele>
        <time>2022-08-27T16:27:37Z</time>
      </trkpt>
      <trkpt lat="45.91048" lon="7.09965">
        <ele>2321</ele>
        <time>2022-08-27T16:27:39Z</time>
      </trkpt>
      <trkpt lat="45.91052" lon="7.09967">
        <ele>2320</ele>
        <time>2022-08-27T16:27:41Z</time>
      </trkpt>
      <trkpt lat="45.91054" lon="7.09967">
        <ele>2319</ele>
        <time>2022-08-27T16:27:43Z</time>
      </trkpt>
      <trkpt lat="45.91057" lon="7.09968">
        <ele>2318</ele>
        <time>2022-08-27T16:27:45Z</time>
      </trkpt>
      <trkpt lat="45.91059" lon="7.09968">
        <ele>2318</ele>
        <time>2022-08-27T16:27:47Z</time>
      </trkpt>
      <trkpt lat="45.91061" lon="7.0997">
        <ele>2317</ele>
        <time>2022-08-27T16:27:49Z</time>
      </trkpt>
      <trkpt lat="45.91063" lon="7.09972">
        <ele>2317</ele>
        <time>2022-08-27T16:27:51Z</time>
      </trkpt>
      <trkpt lat="45.91065" lon="7.09974">
        <ele>2317</ele>
        <time>2022-08-27T16:27:52Z</time>
      </trkpt>
      <trkpt lat="45.91068" lon="7.09975">
        <ele>2315</ele>
        <time>2022-08-27T16:27:54Z</time>
      </trkpt>
      <trkpt lat="45.91071" lon="7.09974">
        <ele>2314</ele>
        <time>2022-08-27T16:27:56Z</time>
      </trkpt>
      <trkpt lat="45.91074" lon="7.09974">
        <ele>2314</ele>
        <time>2022-08-27T16:27:57Z</time>
      </trkpt>
      <trkpt lat="45.91075" lon="7.09973">
        <ele>2314</ele>
        <time>2022-08-27T16:27:58Z</time>
      </trkpt>
      <trkpt lat="45.91077" lon="7.09973">
        <ele>2314</ele>
        <time>2022-08-27T16:27:59Z</time>
      </trkpt>
      <trkpt lat="45.91079" lon="7.09974">
        <ele>2313</ele>
        <time>2022-08-27T16:28:00Z</time>
      </trkpt>
      <trkpt lat="45.91083" lon="7.09975">
        <ele>2312</ele>
        <time>2022-08-27T16:28:02Z</time>
      </trkpt>
      <trkpt lat="45.91086" lon="7.09975">
        <ele>2311</ele>
        <time>2022-08-27T16:28:04Z</time>
      </trkpt>
      <trkpt lat="45.91088" lon="7.09975">
        <ele>2311</ele>
        <time>2022-08-27T16:28:06Z</time>
      </trkpt>
      <trkpt lat="45.9109" lon="7.09976">
        <ele>2311</ele>
        <time>2022-08-27T16:28:07Z</time>
      </trkpt>
      <trkpt lat="45.91092" lon="7.09976">
        <ele>2310</ele>
        <time>2022-08-27T16:28:08Z</time>
      </trkpt>
      <trkpt lat="45.91095" lon="7.09977">
        <ele>2310</ele>
        <time>2022-08-27T16:28:10Z</time>
      </trkpt>
      <trkpt lat="45.91099" lon="7.09979">
        <ele>2310</ele>
        <time>2022-08-27T16:28:12Z</time>
      </trkpt>
      <trkpt lat="45.911" lon="7.09979">
        <ele>2310</ele>
        <time>2022-08-27T16:28:13Z</time>
      </trkpt>
      <trkpt lat="45.91104" lon="7.09981">
        <ele>2309</ele>
        <time>2022-08-27T16:28:15Z</time>
      </trkpt>
      <trkpt lat="45.91107" lon="7.09982">
        <ele>2308</ele>
        <time>2022-08-27T16:28:17Z</time>
      </trkpt>
      <trkpt lat="45.91109" lon="7.09982">
        <ele>2307</ele>
        <time>2022-08-27T16:28:18Z</time>
      </trkpt>
      <trkpt lat="45.91111" lon="7.09983">
        <ele>2307</ele>
        <time>2022-08-27T16:28:19Z</time>
      </trkpt>
      <trkpt lat="45.91114" lon="7.09984">
        <ele>2307</ele>
        <time>2022-08-27T16:28:20Z</time>
      </trkpt>
      <trkpt lat="45.91115" lon="7.09984">
        <ele>2307</ele>
        <time>2022-08-27T16:28:21Z</time>
      </trkpt>
      <trkpt lat="45.91117" lon="7.09984">
        <ele>2306</ele>
        <time>2022-08-27T16:28:22Z</time>
      </trkpt>
      <trkpt lat="45.91119" lon="7.09984">
        <ele>2306</ele>
        <time>2022-08-27T16:28:23Z</time>
      </trkpt>
      <trkpt lat="45.91121" lon="7.09984">
        <ele>2306</ele>
        <time>2022-08-27T16:28:24Z</time>
      </trkpt>
      <trkpt lat="45.91124" lon="7.09985">
        <ele>2306</ele>
        <time>2022-08-27T16:28:25Z</time>
      </trkpt>
      <trkpt lat="45.91126" lon="7.09986">
        <ele>2306</ele>
        <time>2022-08-27T16:28:26Z</time>
      </trkpt>
      <trkpt lat="45.91128" lon="7.09986">
        <ele>2305</ele>
        <time>2022-08-27T16:28:27Z</time>
      </trkpt>
      <trkpt lat="45.9113" lon="7.09986">
        <ele>2305</ele>
        <time>2022-08-27T16:28:28Z</time>
      </trkpt>
      <trkpt lat="45.91132" lon="7.09985">
        <ele>2305</ele>
        <time>2022-08-27T16:28:29Z</time>
      </trkpt>
      <trkpt lat="45.91134" lon="7.09985">
        <ele>2305</ele>
        <time>2022-08-27T16:28:30Z</time>
      </trkpt>
      <trkpt lat="45.91136" lon="7.09985">
        <ele>2305</ele>
        <time>2022-08-27T16:28:31Z</time>
      </trkpt>
      <trkpt lat="45.91139" lon="7.09985">
        <ele>2304</ele>
        <time>2022-08-27T16:28:33Z</time>
      </trkpt>
      <trkpt lat="45.91141" lon="7.09987">
        <ele>2304</ele>
        <time>2022-08-27T16:28:35Z</time>
      </trkpt>
      <trkpt lat="45.91144" lon="7.09986">
        <ele>2304</ele>
        <time>2022-08-27T16:28:37Z</time>
      </trkpt>
      <trkpt lat="45.91146" lon="7.09984">
        <ele>2304</ele>
        <time>2022-08-27T16:28:38Z</time>
      </trkpt>
      <trkpt lat="45.91149" lon="7.09983">
        <ele>2304</ele>
        <time>2022-08-27T16:28:40Z</time>
      </trkpt>
      <trkpt lat="45.91152" lon="7.09982">
        <ele>2304</ele>
        <time>2022-08-27T16:28:42Z</time>
      </trkpt>
      <trkpt lat="45.91153" lon="7.0998">
        <ele>2304</ele>
        <time>2022-08-27T16:28:44Z</time>
      </trkpt>
      <trkpt lat="45.91153" lon="7.09977">
        <ele>2306</ele>
        <time>2022-08-27T16:28:46Z</time>
      </trkpt>
      <trkpt lat="45.91154" lon="7.09972">
        <ele>2305</ele>
        <time>2022-08-27T16:28:48Z</time>
      </trkpt>
      <trkpt lat="45.91154" lon="7.09969">
        <ele>2305</ele>
        <time>2022-08-27T16:28:49Z</time>
      </trkpt>
      <trkpt lat="45.91153" lon="7.09967">
        <ele>2305</ele>
        <time>2022-08-27T16:28:50Z</time>
      </trkpt>
      <trkpt lat="45.91152" lon="7.09964">
        <ele>2305</ele>
        <time>2022-08-27T16:28:51Z</time>
      </trkpt>
      <trkpt lat="45.91152" lon="7.09959">
        <ele>2305</ele>
        <time>2022-08-27T16:28:53Z</time>
      </trkpt>
      <trkpt lat="45.91151" lon="7.09956">
        <ele>2304</ele>
        <time>2022-08-27T16:28:55Z</time>
      </trkpt>
      <trkpt lat="45.91149" lon="7.09954">
        <ele>2304</ele>
        <time>2022-08-27T16:28:57Z</time>
      </trkpt>
      <trkpt lat="45.91148" lon="7.09951">
        <ele>2304</ele>
        <time>2022-08-27T16:28:59Z</time>
      </trkpt>
      <trkpt lat="45.91148" lon="7.09946">
        <ele>2304</ele>
        <time>2022-08-27T16:29:01Z</time>
      </trkpt>
      <trkpt lat="45.91147" lon="7.09941">
        <ele>2304</ele>
        <time>2022-08-27T16:29:03Z</time>
      </trkpt>
      <trkpt lat="45.91146" lon="7.09938">
        <ele>2304</ele>
        <time>2022-08-27T16:29:05Z</time>
      </trkpt>
      <trkpt lat="45.91144" lon="7.09935">
        <ele>2302</ele>
        <time>2022-08-27T16:29:07Z</time>
      </trkpt>
      <trkpt lat="45.91143" lon="7.0993">
        <ele>2302</ele>
        <time>2022-08-27T16:29:09Z</time>
      </trkpt>
      <trkpt lat="45.91143" lon="7.09926">
        <ele>2301</ele>
        <time>2022-08-27T16:29:11Z</time>
      </trkpt>
      <trkpt lat="45.91143" lon="7.09921">
        <ele>2301</ele>
        <time>2022-08-27T16:29:13Z</time>
      </trkpt>
      <trkpt lat="45.91144" lon="7.09918">
        <ele>2301</ele>
        <time>2022-08-27T16:29:14Z</time>
      </trkpt>
      <trkpt lat="45.91144" lon="7.09916">
        <ele>2301</ele>
        <time>2022-08-27T16:29:15Z</time>
      </trkpt>
      <trkpt lat="45.91144" lon="7.09913">
        <ele>2301</ele>
        <time>2022-08-27T16:29:16Z</time>
      </trkpt>
      <trkpt lat="45.91143" lon="7.0991">
        <ele>2301</ele>
        <time>2022-08-27T16:29:17Z</time>
      </trkpt>
      <trkpt lat="45.91141" lon="7.09907">
        <ele>2298</ele>
        <time>2022-08-27T16:29:19Z</time>
      </trkpt>
      <trkpt lat="45.91139" lon="7.09905">
        <ele>2298</ele>
        <time>2022-08-27T16:29:21Z</time>
      </trkpt>
      <trkpt lat="45.91138" lon="7.09901">
        <ele>2298</ele>
        <time>2022-08-27T16:29:23Z</time>
      </trkpt>
      <trkpt lat="45.91137" lon="7.09896">
        <ele>2297</ele>
        <time>2022-08-27T16:29:25Z</time>
      </trkpt>
      <trkpt lat="45.91137" lon="7.09894">
        <ele>2297</ele>
        <time>2022-08-27T16:29:26Z</time>
      </trkpt>
      <trkpt lat="45.91136" lon="7.09889">
        <ele>2297</ele>
        <time>2022-08-27T16:29:28Z</time>
      </trkpt>
      <trkpt lat="45.91134" lon="7.09884">
        <ele>2297</ele>
        <time>2022-08-27T16:29:30Z</time>
      </trkpt>
      <trkpt lat="45.91134" lon="7.09882">
        <ele>2297</ele>
        <time>2022-08-27T16:29:31Z</time>
      </trkpt>
      <trkpt lat="45.91133" lon="7.09879">
        <ele>2297</ele>
        <time>2022-08-27T16:29:32Z</time>
      </trkpt>
      <trkpt lat="45.9113" lon="7.09876">
        <ele>2296</ele>
        <time>2022-08-27T16:29:34Z</time>
      </trkpt>
      <trkpt lat="45.91129" lon="7.09874">
        <ele>2296</ele>
        <time>2022-08-27T16:29:35Z</time>
      </trkpt>
      <trkpt lat="45.91128" lon="7.09873">
        <ele>2296</ele>
        <time>2022-08-27T16:29:37Z</time>
      </trkpt>
      <trkpt lat="45.91127" lon="7.09871">
        <ele>2296</ele>
        <time>2022-08-27T16:29:38Z</time>
      </trkpt>
      <trkpt lat="45.91125" lon="7.09869">
        <ele>2296</ele>
        <time>2022-08-27T16:29:39Z</time>
      </trkpt>
      <trkpt lat="45.91123" lon="7.09865">
        <ele>2295</ele>
        <time>2022-08-27T16:29:41Z</time>
      </trkpt>
      <trkpt lat="45.91121" lon="7.09862">
        <ele>2295</ele>
        <time>2022-08-27T16:29:43Z</time>
      </trkpt>
      <trkpt lat="45.9112" lon="7.09857">
        <ele>2293</ele>
        <time>2022-08-27T16:29:45Z</time>
      </trkpt>
      <trkpt lat="45.9112" lon="7.09855">
        <ele>2293</ele>
        <time>2022-08-27T16:29:46Z</time>
      </trkpt>
      <trkpt lat="45.91119" lon="7.09852">
        <ele>2293</ele>
        <time>2022-08-27T16:29:47Z</time>
      </trkpt>
      <trkpt lat="45.91117" lon="7.09849">
        <ele>2293</ele>
        <time>2022-08-27T16:29:48Z</time>
      </trkpt>
      <trkpt lat="45.91117" lon="7.09848">
        <ele>2292</ele>
        <time>2022-08-27T16:29:49Z</time>
      </trkpt>
      <trkpt lat="45.91117" lon="7.09845">
        <ele>2292</ele>
        <time>2022-08-27T16:29:50Z</time>
      </trkpt>
      <trkpt lat="45.91117" lon="7.09842">
        <ele>2292</ele>
        <time>2022-08-27T16:29:51Z</time>
      </trkpt>
      <trkpt lat="45.91117" lon="7.09839">
        <ele>2291</ele>
        <time>2022-08-27T16:29:52Z</time>
      </trkpt>
      <trkpt lat="45.91117" lon="7.09835">
        <ele>2291</ele>
        <time>2022-08-27T16:29:54Z</time>
      </trkpt>
      <trkpt lat="45.91117" lon="7.0983">
        <ele>2289</ele>
        <time>2022-08-27T16:29:56Z</time>
      </trkpt>
      <trkpt lat="45.91117" lon="7.09826">
        <ele>2289</ele>
        <time>2022-08-27T16:29:57Z</time>
      </trkpt>
      <trkpt lat="45.91117" lon="7.09823">
        <ele>2289</ele>
        <time>2022-08-27T16:29:58Z</time>
      </trkpt>
      <trkpt lat="45.91117" lon="7.0982">
        <ele>2289</ele>
        <time>2022-08-27T16:29:59Z</time>
      </trkpt>
      <trkpt lat="45.91116" lon="7.09817">
        <ele>2288</ele>
        <time>2022-08-27T16:30:00Z</time>
      </trkpt>
      <trkpt lat="45.91116" lon="7.09814">
        <ele>2287</ele>
        <time>2022-08-27T16:30:01Z</time>
      </trkpt>
      <trkpt lat="45.91115" lon="7.09809">
        <ele>2286</ele>
        <time>2022-08-27T16:30:03Z</time>
      </trkpt>
      <trkpt lat="45.91114" lon="7.09807">
        <ele>2286</ele>
        <time>2022-08-27T16:30:04Z</time>
      </trkpt>
      <trkpt lat="45.91113" lon="7.09805">
        <ele>2286</ele>
        <time>2022-08-27T16:30:05Z</time>
      </trkpt>
      <trkpt lat="45.91113" lon="7.098">
        <ele>2286</ele>
        <time>2022-08-27T16:30:07Z</time>
      </trkpt>
      <trkpt lat="45.91111" lon="7.09797">
        <ele>2285</ele>
        <time>2022-08-27T16:30:09Z</time>
      </trkpt>
      <trkpt lat="45.9111" lon="7.09794">
        <ele>2285</ele>
        <time>2022-08-27T16:30:11Z</time>
      </trkpt>
      <trkpt lat="45.9111" lon="7.0979">
        <ele>2284</ele>
        <time>2022-08-27T16:30:13Z</time>
      </trkpt>
      <trkpt lat="45.91109" lon="7.09787">
        <ele>2284</ele>
        <time>2022-08-27T16:30:14Z</time>
      </trkpt>
      <trkpt lat="45.91109" lon="7.09785">
        <ele>2283</ele>
        <time>2022-08-27T16:30:16Z</time>
      </trkpt>
      <trkpt lat="45.91108" lon="7.09779">
        <ele>2283</ele>
        <time>2022-08-27T16:30:17Z</time>
      </trkpt>
      <trkpt lat="45.91107" lon="7.09778">
        <ele>2283</ele>
        <time>2022-08-27T16:30:18Z</time>
      </trkpt>
      <trkpt lat="45.91107" lon="7.09775">
        <ele>2283</ele>
        <time>2022-08-27T16:30:19Z</time>
      </trkpt>
      <trkpt lat="45.91106" lon="7.09771">
        <ele>2283</ele>
        <time>2022-08-27T16:30:21Z</time>
      </trkpt>
      <trkpt lat="45.91105" lon="7.09765">
        <ele>2282</ele>
        <time>2022-08-27T16:30:23Z</time>
      </trkpt>
      <trkpt lat="45.91102" lon="7.09763">
        <ele>2282</ele>
        <time>2022-08-27T16:30:25Z</time>
      </trkpt>
      <trkpt lat="45.91101" lon="7.0976">
        <ele>2281</ele>
        <time>2022-08-27T16:30:26Z</time>
      </trkpt>
      <trkpt lat="45.911" lon="7.09758">
        <ele>2281</ele>
        <time>2022-08-27T16:30:27Z</time>
      </trkpt>
      <trkpt lat="45.911" lon="7.09755">
        <ele>2281</ele>
        <time>2022-08-27T16:30:28Z</time>
      </trkpt>
      <trkpt lat="45.911" lon="7.09751">
        <ele>2281</ele>
        <time>2022-08-27T16:30:30Z</time>
      </trkpt>
      <trkpt lat="45.91098" lon="7.09746">
        <ele>2281</ele>
        <time>2022-08-27T16:30:32Z</time>
      </trkpt>
      <trkpt lat="45.91097" lon="7.09744">
        <ele>2280</ele>
        <time>2022-08-27T16:30:33Z</time>
      </trkpt>
      <trkpt lat="45.91096" lon="7.09737">
        <ele>2280</ele>
        <time>2022-08-27T16:30:36Z</time>
      </trkpt>
      <trkpt lat="45.91096" lon="7.09733">
        <ele>2279</ele>
        <time>2022-08-27T16:30:37Z</time>
      </trkpt>
      <trkpt lat="45.91097" lon="7.0973">
        <ele>2279</ele>
        <time>2022-08-27T16:30:38Z</time>
      </trkpt>
      <trkpt lat="45.91098" lon="7.09728">
        <ele>2278</ele>
        <time>2022-08-27T16:30:39Z</time>
      </trkpt>
      <trkpt lat="45.911" lon="7.09722">
        <ele>2278</ele>
        <time>2022-08-27T16:30:41Z</time>
      </trkpt>
      <trkpt lat="45.91101" lon="7.0972">
        <ele>2278</ele>
        <time>2022-08-27T16:30:42Z</time>
      </trkpt>
      <trkpt lat="45.91103" lon="7.09716">
        <ele>2278</ele>
        <time>2022-08-27T16:30:43Z</time>
      </trkpt>
      <trkpt lat="45.91104" lon="7.09715">
        <ele>2278</ele>
        <time>2022-08-27T16:30:44Z</time>
      </trkpt>
      <trkpt lat="45.91107" lon="7.09711">
        <ele>2278</ele>
        <time>2022-08-27T16:30:46Z</time>
      </trkpt>
      <trkpt lat="45.9111" lon="7.09709">
        <ele>2278</ele>
        <time>2022-08-27T16:30:49Z</time>
      </trkpt>
      <trkpt lat="45.91112" lon="7.09707">
        <ele>2278</ele>
        <time>2022-08-27T16:30:50Z</time>
      </trkpt>
      <trkpt lat="45.91114" lon="7.09704">
        <ele>2277</ele>
        <time>2022-08-27T16:30:52Z</time>
      </trkpt>
      <trkpt lat="45.91116" lon="7.09701">
        <ele>2277</ele>
        <time>2022-08-27T16:30:54Z</time>
      </trkpt>
      <trkpt lat="45.91118" lon="7.09699">
        <ele>2277</ele>
        <time>2022-08-27T16:30:56Z</time>
      </trkpt>
      <trkpt lat="45.91121" lon="7.09698">
        <ele>2276</ele>
        <time>2022-08-27T16:30:58Z</time>
      </trkpt>
      <trkpt lat="45.91123" lon="7.09695">
        <ele>2274</ele>
        <time>2022-08-27T16:31:01Z</time>
      </trkpt>
      <trkpt lat="45.91125" lon="7.09691">
        <ele>2274</ele>
        <time>2022-08-27T16:31:03Z</time>
      </trkpt>
      <trkpt lat="45.91127" lon="7.09688">
        <ele>2271</ele>
        <time>2022-08-27T16:31:05Z</time>
      </trkpt>
      <trkpt lat="45.91125" lon="7.09684">
        <ele>2271</ele>
        <time>2022-08-27T16:31:08Z</time>
      </trkpt>
      <trkpt lat="45.91123" lon="7.09681">
        <ele>2270</ele>
        <time>2022-08-27T16:31:10Z</time>
      </trkpt>
      <trkpt lat="45.91121" lon="7.09676">
        <ele>2270</ele>
        <time>2022-08-27T16:31:12Z</time>
      </trkpt>
      <trkpt lat="45.91121" lon="7.09674">
        <ele>2270</ele>
        <time>2022-08-27T16:31:13Z</time>
      </trkpt>
      <trkpt lat="45.9112" lon="7.09673">
        <ele>2270</ele>
        <time>2022-08-27T16:31:14Z</time>
      </trkpt>
      <trkpt lat="45.91119" lon="7.09671">
        <ele>2270</ele>
        <time>2022-08-27T16:31:15Z</time>
      </trkpt>
      <trkpt lat="45.91119" lon="7.09668">
        <ele>2269</ele>
        <time>2022-08-27T16:31:17Z</time>
      </trkpt>
      <trkpt lat="45.91118" lon="7.09665">
        <ele>2268</ele>
        <time>2022-08-27T16:31:20Z</time>
      </trkpt>
      <trkpt lat="45.91117" lon="7.09663">
        <ele>2268</ele>
        <time>2022-08-27T16:31:21Z</time>
      </trkpt>
      <trkpt lat="45.91116" lon="7.09659">
        <ele>2268</ele>
        <time>2022-08-27T16:31:23Z</time>
      </trkpt>
      <trkpt lat="45.91114" lon="7.09655">
        <ele>2266</ele>
        <time>2022-08-27T16:31:25Z</time>
      </trkpt>
      <trkpt lat="45.91112" lon="7.09652">
        <ele>2265</ele>
        <time>2022-08-27T16:31:27Z</time>
      </trkpt>
      <trkpt lat="45.91111" lon="7.0965">
        <ele>2265</ele>
        <time>2022-08-27T16:31:28Z</time>
      </trkpt>
      <trkpt lat="45.91109" lon="7.09648">
        <ele>2265</ele>
        <time>2022-08-27T16:31:29Z</time>
      </trkpt>
      <trkpt lat="45.91109" lon="7.09644">
        <ele>2265</ele>
        <time>2022-08-27T16:31:31Z</time>
      </trkpt>
      <trkpt lat="45.91111" lon="7.09641">
        <ele>2264</ele>
        <time>2022-08-27T16:31:33Z</time>
      </trkpt>
      <trkpt lat="45.91111" lon="7.09638">
        <ele>2263</ele>
        <time>2022-08-27T16:31:35Z</time>
      </trkpt>
      <trkpt lat="45.91112" lon="7.09635">
        <ele>2263</ele>
        <time>2022-08-27T16:31:37Z</time>
      </trkpt>
      <trkpt lat="45.91113" lon="7.09631">
        <ele>2262</ele>
        <time>2022-08-27T16:31:39Z</time>
      </trkpt>
      <trkpt lat="45.91114" lon="7.09629">
        <ele>2262</ele>
        <time>2022-08-27T16:31:40Z</time>
      </trkpt>
      <trkpt lat="45.91116" lon="7.09627">
        <ele>2261</ele>
        <time>2022-08-27T16:31:41Z</time>
      </trkpt>
      <trkpt lat="45.91117" lon="7.09625">
        <ele>2261</ele>
        <time>2022-08-27T16:31:42Z</time>
      </trkpt>
      <trkpt lat="45.91119" lon="7.09623">
        <ele>2261</ele>
        <time>2022-08-27T16:31:44Z</time>
      </trkpt>
      <trkpt lat="45.91119" lon="7.09618">
        <ele>2261</ele>
        <time>2022-08-27T16:31:45Z</time>
      </trkpt>
      <trkpt lat="45.9112" lon="7.09616">
        <ele>2261</ele>
        <time>2022-08-27T16:31:47Z</time>
      </trkpt>
      <trkpt lat="45.91122" lon="7.09613">
        <ele>2260</ele>
        <time>2022-08-27T16:31:49Z</time>
      </trkpt>
      <trkpt lat="45.91125" lon="7.09611">
        <ele>2259</ele>
        <time>2022-08-27T16:31:51Z</time>
      </trkpt>
      <trkpt lat="45.91127" lon="7.09611">
        <ele>2259</ele>
        <time>2022-08-27T16:31:53Z</time>
      </trkpt>
      <trkpt lat="45.91129" lon="7.09609">
        <ele>2258</ele>
        <time>2022-08-27T16:31:55Z</time>
      </trkpt>
      <trkpt lat="45.91132" lon="7.09609">
        <ele>2256</ele>
        <time>2022-08-27T16:31:58Z</time>
      </trkpt>
      <trkpt lat="45.91134" lon="7.09609">
        <ele>2256</ele>
        <time>2022-08-27T16:31:59Z</time>
      </trkpt>
      <trkpt lat="45.91137" lon="7.09611">
        <ele>2255</ele>
        <time>2022-08-27T16:32:01Z</time>
      </trkpt>
      <trkpt lat="45.91139" lon="7.09615">
        <ele>2254</ele>
        <time>2022-08-27T16:32:03Z</time>
      </trkpt>
      <trkpt lat="45.9114" lon="7.09616">
        <ele>2254</ele>
        <time>2022-08-27T16:32:04Z</time>
      </trkpt>
      <trkpt lat="45.91143" lon="7.09618">
        <ele>2254</ele>
        <time>2022-08-27T16:32:06Z</time>
      </trkpt>
      <trkpt lat="45.91145" lon="7.09619">
        <ele>2253</ele>
        <time>2022-08-27T16:32:08Z</time>
      </trkpt>
      <trkpt lat="45.91147" lon="7.09615">
        <ele>2253</ele>
        <time>2022-08-27T16:32:11Z</time>
      </trkpt>
      <trkpt lat="45.91148" lon="7.09612">
        <ele>2251</ele>
        <time>2022-08-27T16:32:13Z</time>
      </trkpt>
      <trkpt lat="45.91151" lon="7.09612">
        <ele>2250</ele>
        <time>2022-08-27T16:32:15Z</time>
      </trkpt>
      <trkpt lat="45.91154" lon="7.09612">
        <ele>2250</ele>
        <time>2022-08-27T16:32:17Z</time>
      </trkpt>
      <trkpt lat="45.91156" lon="7.09613">
        <ele>2250</ele>
        <time>2022-08-27T16:32:19Z</time>
      </trkpt>
      <trkpt lat="45.91158" lon="7.09614">
        <ele>2248</ele>
        <time>2022-08-27T16:32:21Z</time>
      </trkpt>
      <trkpt lat="45.9116" lon="7.09616">
        <ele>2246</ele>
        <time>2022-08-27T16:32:23Z</time>
      </trkpt>
      <trkpt lat="45.91162" lon="7.09619">
        <ele>2246</ele>
        <time>2022-08-27T16:32:25Z</time>
      </trkpt>
      <trkpt lat="45.91164" lon="7.09623">
        <ele>2245</ele>
        <time>2022-08-27T16:32:27Z</time>
      </trkpt>
      <trkpt lat="45.91166" lon="7.09626">
        <ele>2244</ele>
        <time>2022-08-27T16:32:29Z</time>
      </trkpt>
      <trkpt lat="45.91167" lon="7.0963">
        <ele>2243</ele>
        <time>2022-08-27T16:32:31Z</time>
      </trkpt>
      <trkpt lat="45.91169" lon="7.09632">
        <ele>2243</ele>
        <time>2022-08-27T16:32:33Z</time>
      </trkpt>
      <trkpt lat="45.9117" lon="7.09636">
        <ele>2242</ele>
        <time>2022-08-27T16:32:34Z</time>
      </trkpt>
      <trkpt lat="45.9117" lon="7.0964">
        <ele>2242</ele>
        <time>2022-08-27T16:32:36Z</time>
      </trkpt>
      <trkpt lat="45.91171" lon="7.09642">
        <ele>2242</ele>
        <time>2022-08-27T16:32:38Z</time>
      </trkpt>
      <trkpt lat="45.91172" lon="7.09645">
        <ele>2241</ele>
        <time>2022-08-27T16:32:41Z</time>
      </trkpt>
      <trkpt lat="45.91173" lon="7.09648">
        <ele>2241</ele>
        <time>2022-08-27T16:32:43Z</time>
      </trkpt>
      <trkpt lat="45.91174" lon="7.09652">
        <ele>2240</ele>
        <time>2022-08-27T16:32:46Z</time>
      </trkpt>
      <trkpt lat="45.91176" lon="7.09655">
        <ele>2240</ele>
        <time>2022-08-27T16:32:47Z</time>
      </trkpt>
      <trkpt lat="45.91178" lon="7.09659">
        <ele>2240</ele>
        <time>2022-08-27T16:32:49Z</time>
      </trkpt>
      <trkpt lat="45.91179" lon="7.09662">
        <ele>2239</ele>
        <time>2022-08-27T16:32:51Z</time>
      </trkpt>
      <trkpt lat="45.9118" lon="7.09664">
        <ele>2239</ele>
        <time>2022-08-27T16:32:53Z</time>
      </trkpt>
      <trkpt lat="45.91182" lon="7.09667">
        <ele>2238</ele>
        <time>2022-08-27T16:32:55Z</time>
      </trkpt>
      <trkpt lat="45.91183" lon="7.0967">
        <ele>2238</ele>
        <time>2022-08-27T16:32:57Z</time>
      </trkpt>
      <trkpt lat="45.91185" lon="7.09674">
        <ele>2238</ele>
        <time>2022-08-27T16:32:59Z</time>
      </trkpt>
      <trkpt lat="45.91186" lon="7.09677">
        <ele>2237</ele>
        <time>2022-08-27T16:33:01Z</time>
      </trkpt>
      <trkpt lat="45.91188" lon="7.0968">
        <ele>2236</ele>
        <time>2022-08-27T16:33:03Z</time>
      </trkpt>
      <trkpt lat="45.91189" lon="7.09682">
        <ele>2236</ele>
        <time>2022-08-27T16:33:04Z</time>
      </trkpt>
      <trkpt lat="45.9119" lon="7.09684">
        <ele>2236</ele>
        <time>2022-08-27T16:33:05Z</time>
      </trkpt>
      <trkpt lat="45.91192" lon="7.09685">
        <ele>2235</ele>
        <time>2022-08-27T16:33:06Z</time>
      </trkpt>
      <trkpt lat="45.91193" lon="7.09688">
        <ele>2234</ele>
        <time>2022-08-27T16:33:08Z</time>
      </trkpt>
      <trkpt lat="45.91196" lon="7.09689">
        <ele>2234</ele>
        <time>2022-08-27T16:33:10Z</time>
      </trkpt>
      <trkpt lat="45.91199" lon="7.0969">
        <ele>2232</ele>
        <time>2022-08-27T16:33:12Z</time>
      </trkpt>
      <trkpt lat="45.91202" lon="7.09692">
        <ele>2232</ele>
        <time>2022-08-27T16:33:14Z</time>
      </trkpt>
      <trkpt lat="45.91203" lon="7.09695">
        <ele>2232</ele>
        <time>2022-08-27T16:33:16Z</time>
      </trkpt>
      <trkpt lat="45.91205" lon="7.09697">
        <ele>2231</ele>
        <time>2022-08-27T16:33:18Z</time>
      </trkpt>
      <trkpt lat="45.91207" lon="7.09699">
        <ele>2231</ele>
        <time>2022-08-27T16:33:20Z</time>
      </trkpt>
      <trkpt lat="45.91208" lon="7.09702">
        <ele>2231</ele>
        <time>2022-08-27T16:33:23Z</time>
      </trkpt>
      <trkpt lat="45.9121" lon="7.09705">
        <ele>2231</ele>
        <time>2022-08-27T16:33:24Z</time>
      </trkpt>
      <trkpt lat="45.91212" lon="7.09708">
        <ele>2230</ele>
        <time>2022-08-27T16:33:26Z</time>
      </trkpt>
      <trkpt lat="45.91213" lon="7.09711">
        <ele>2230</ele>
        <time>2022-08-27T16:33:28Z</time>
      </trkpt>
      <trkpt lat="45.91214" lon="7.09714">
        <ele>2230</ele>
        <time>2022-08-27T16:33:30Z</time>
      </trkpt>
      <trkpt lat="45.91217" lon="7.09718">
        <ele>2230</ele>
        <time>2022-08-27T16:33:32Z</time>
      </trkpt>
      <trkpt lat="45.91219" lon="7.0972">
        <ele>2229</ele>
        <time>2022-08-27T16:33:33Z</time>
      </trkpt>
      <trkpt lat="45.9122" lon="7.09722">
        <ele>2229</ele>
        <time>2022-08-27T16:33:34Z</time>
      </trkpt>
      <trkpt lat="45.91221" lon="7.09724">
        <ele>2228</ele>
        <time>2022-08-27T16:33:35Z</time>
      </trkpt>
      <trkpt lat="45.91222" lon="7.09729">
        <ele>2228</ele>
        <time>2022-08-27T16:33:37Z</time>
      </trkpt>
      <trkpt lat="45.91224" lon="7.09732">
        <ele>2227</ele>
        <time>2022-08-27T16:33:39Z</time>
      </trkpt>
      <trkpt lat="45.91225" lon="7.09735">
        <ele>2227</ele>
        <time>2022-08-27T16:33:40Z</time>
      </trkpt>
      <trkpt lat="45.91227" lon="7.09738">
        <ele>2227</ele>
        <time>2022-08-27T16:33:41Z</time>
      </trkpt>
      <trkpt lat="45.91228" lon="7.09739">
        <ele>2227</ele>
        <time>2022-08-27T16:33:42Z</time>
      </trkpt>
      <trkpt lat="45.91229" lon="7.09741">
        <ele>2227</ele>
        <time>2022-08-27T16:33:43Z</time>
      </trkpt>
      <trkpt lat="45.9123" lon="7.09744">
        <ele>2225</ele>
        <time>2022-08-27T16:33:44Z</time>
      </trkpt>
      <trkpt lat="45.91231" lon="7.09746">
        <ele>2225</ele>
        <time>2022-08-27T16:33:45Z</time>
      </trkpt>
      <trkpt lat="45.91232" lon="7.09749">
        <ele>2225</ele>
        <time>2022-08-27T16:33:46Z</time>
      </trkpt>
      <trkpt lat="45.91233" lon="7.09753">
        <ele>2225</ele>
        <time>2022-08-27T16:33:48Z</time>
      </trkpt>
      <trkpt lat="45.91235" lon="7.09757">
        <ele>2225</ele>
        <time>2022-08-27T16:33:50Z</time>
      </trkpt>
      <trkpt lat="45.91237" lon="7.09761">
        <ele>2225</ele>
        <time>2022-08-27T16:33:52Z</time>
      </trkpt>
      <trkpt lat="45.91238" lon="7.09767">
        <ele>2225</ele>
        <time>2022-08-27T16:33:54Z</time>
      </trkpt>
      <trkpt lat="45.91238" lon="7.09768">
        <ele>2223</ele>
        <time>2022-08-27T16:33:55Z</time>
      </trkpt>
      <trkpt lat="45.91239" lon="7.09771">
        <ele>2223</ele>
        <time>2022-08-27T16:33:56Z</time>
      </trkpt>
      <trkpt lat="45.9124" lon="7.09773">
        <ele>2223</ele>
        <time>2022-08-27T16:33:57Z</time>
      </trkpt>
      <trkpt lat="45.91243" lon="7.0978">
        <ele>2222</ele>
        <time>2022-08-27T16:34:00Z</time>
      </trkpt>
      <trkpt lat="45.91244" lon="7.09783">
        <ele>2220</ele>
        <time>2022-08-27T16:34:02Z</time>
      </trkpt>
      <trkpt lat="45.91245" lon="7.09786">
        <ele>2220</ele>
        <time>2022-08-27T16:34:05Z</time>
      </trkpt>
      <trkpt lat="45.91247" lon="7.0979">
        <ele>2220</ele>
        <time>2022-08-27T16:34:06Z</time>
      </trkpt>
      <trkpt lat="45.91248" lon="7.09794">
        <ele>2220</ele>
        <time>2022-08-27T16:34:08Z</time>
      </trkpt>
      <trkpt lat="45.9125" lon="7.09797">
        <ele>2219</ele>
        <time>2022-08-27T16:34:10Z</time>
      </trkpt>
      <trkpt lat="45.91251" lon="7.098">
        <ele>2219</ele>
        <time>2022-08-27T16:34:12Z</time>
      </trkpt>
      <trkpt lat="45.91254" lon="7.09806">
        <ele>2219</ele>
        <time>2022-08-27T16:34:15Z</time>
      </trkpt>
      <trkpt lat="45.91255" lon="7.09808">
        <ele>2219</ele>
        <time>2022-08-27T16:34:16Z</time>
      </trkpt>
      <trkpt lat="45.91256" lon="7.0981">
        <ele>2219</ele>
        <time>2022-08-27T16:34:17Z</time>
      </trkpt>
      <trkpt lat="45.91258" lon="7.09814">
        <ele>2217</ele>
        <time>2022-08-27T16:34:20Z</time>
      </trkpt>
      <trkpt lat="45.9126" lon="7.09816">
        <ele>2217</ele>
        <time>2022-08-27T16:34:21Z</time>
      </trkpt>
      <trkpt lat="45.91262" lon="7.09819">
        <ele>2217</ele>
        <time>2022-08-27T16:34:23Z</time>
      </trkpt>
      <trkpt lat="45.91263" lon="7.09823">
        <ele>2217</ele>
        <time>2022-08-27T16:34:25Z</time>
      </trkpt>
      <trkpt lat="45.91265" lon="7.09827">
        <ele>2216</ele>
        <time>2022-08-27T16:34:27Z</time>
      </trkpt>
      <trkpt lat="45.91267" lon="7.0983">
        <ele>2216</ele>
        <time>2022-08-27T16:34:29Z</time>
      </trkpt>
      <trkpt lat="45.91269" lon="7.09834">
        <ele>2215</ele>
        <time>2022-08-27T16:34:31Z</time>
      </trkpt>
      <trkpt lat="45.91271" lon="7.09837">
        <ele>2214</ele>
        <time>2022-08-27T16:34:33Z</time>
      </trkpt>
      <trkpt lat="45.91273" lon="7.09841">
        <ele>2214</ele>
        <time>2022-08-27T16:34:35Z</time>
      </trkpt>
      <trkpt lat="45.91275" lon="7.09844">
        <ele>2214</ele>
        <time>2022-08-27T16:34:37Z</time>
      </trkpt>
      <trkpt lat="45.91276" lon="7.09849">
        <ele>2213</ele>
        <time>2022-08-27T16:34:40Z</time>
      </trkpt>
      <trkpt lat="45.91278" lon="7.09853">
        <ele>2213</ele>
        <time>2022-08-27T16:34:41Z</time>
      </trkpt>
      <trkpt lat="45.9128" lon="7.09856">
        <ele>2213</ele>
        <time>2022-08-27T16:34:43Z</time>
      </trkpt>
      <trkpt lat="45.91282" lon="7.0986">
        <ele>2213</ele>
        <time>2022-08-27T16:34:45Z</time>
      </trkpt>
      <trkpt lat="45.91284" lon="7.09863">
        <ele>2212</ele>
        <time>2022-08-27T16:34:47Z</time>
      </trkpt>
      <trkpt lat="45.91286" lon="7.09866">
        <ele>2212</ele>
        <time>2022-08-27T16:34:49Z</time>
      </trkpt>
      <trkpt lat="45.91287" lon="7.09868">
        <ele>2211</ele>
        <time>2022-08-27T16:34:50Z</time>
      </trkpt>
      <trkpt lat="45.91289" lon="7.09871">
        <ele>2211</ele>
        <time>2022-08-27T16:34:51Z</time>
      </trkpt>
      <trkpt lat="45.91289" lon="7.09876">
        <ele>2210</ele>
        <time>2022-08-27T16:34:53Z</time>
      </trkpt>
      <trkpt lat="45.9129" lon="7.0988">
        <ele>2210</ele>
        <time>2022-08-27T16:34:55Z</time>
      </trkpt>
      <trkpt lat="45.91291" lon="7.09884">
        <ele>2209</ele>
        <time>2022-08-27T16:34:57Z</time>
      </trkpt>
      <trkpt lat="45.91293" lon="7.09888">
        <ele>2209</ele>
        <time>2022-08-27T16:34:59Z</time>
      </trkpt>
      <trkpt lat="45.91294" lon="7.09893">
        <ele>2209</ele>
        <time>2022-08-27T16:35:01Z</time>
      </trkpt>
      <trkpt lat="45.91296" lon="7.09897">
        <ele>2208</ele>
        <time>2022-08-27T16:35:03Z</time>
      </trkpt>
      <trkpt lat="45.91297" lon="7.09899">
        <ele>2207</ele>
        <time>2022-08-27T16:35:04Z</time>
      </trkpt>
      <trkpt lat="45.91298" lon="7.09903">
        <ele>2207</ele>
        <time>2022-08-27T16:35:06Z</time>
      </trkpt>
      <trkpt lat="45.913" lon="7.09907">
        <ele>2206</ele>
        <time>2022-08-27T16:35:08Z</time>
      </trkpt>
      <trkpt lat="45.91302" lon="7.09911">
        <ele>2205</ele>
        <time>2022-08-27T16:35:10Z</time>
      </trkpt>
      <trkpt lat="45.91303" lon="7.09915">
        <ele>2205</ele>
        <time>2022-08-27T16:35:12Z</time>
      </trkpt>
      <trkpt lat="45.91305" lon="7.09918">
        <ele>2205</ele>
        <time>2022-08-27T16:35:14Z</time>
      </trkpt>
      <trkpt lat="45.91307" lon="7.09921">
        <ele>2204</ele>
        <time>2022-08-27T16:35:16Z</time>
      </trkpt>
      <trkpt lat="45.9131" lon="7.09924">
        <ele>2203</ele>
        <time>2022-08-27T16:35:19Z</time>
      </trkpt>
      <trkpt lat="45.91312" lon="7.09927">
        <ele>2202</ele>
        <time>2022-08-27T16:35:20Z</time>
      </trkpt>
      <trkpt lat="45.91312" lon="7.0993">
        <ele>2202</ele>
        <time>2022-08-27T16:35:21Z</time>
      </trkpt>
      <trkpt lat="45.91313" lon="7.09933">
        <ele>2201</ele>
        <time>2022-08-27T16:35:22Z</time>
      </trkpt>
      <trkpt lat="45.91315" lon="7.09938">
        <ele>2201</ele>
        <time>2022-08-27T16:35:24Z</time>
      </trkpt>
      <trkpt lat="45.91315" lon="7.09941">
        <ele>2201</ele>
        <time>2022-08-27T16:35:25Z</time>
      </trkpt>
      <trkpt lat="45.91316" lon="7.09943">
        <ele>2201</ele>
        <time>2022-08-27T16:35:26Z</time>
      </trkpt>
      <trkpt lat="45.91318" lon="7.09947">
        <ele>2201</ele>
        <time>2022-08-27T16:35:28Z</time>
      </trkpt>
      <trkpt lat="45.9132" lon="7.09949">
        <ele>2200</ele>
        <time>2022-08-27T16:35:30Z</time>
      </trkpt>
      <trkpt lat="45.91321" lon="7.09952">
        <ele>2200</ele>
        <time>2022-08-27T16:35:32Z</time>
      </trkpt>
      <trkpt lat="45.91323" lon="7.09955">
        <ele>2200</ele>
        <time>2022-08-27T16:35:34Z</time>
      </trkpt>
      <trkpt lat="45.91324" lon="7.09959">
        <ele>2199</ele>
        <time>2022-08-27T16:35:36Z</time>
      </trkpt>
      <trkpt lat="45.91326" lon="7.09961">
        <ele>2198</ele>
        <time>2022-08-27T16:35:38Z</time>
      </trkpt>
      <trkpt lat="45.91327" lon="7.09964">
        <ele>2198</ele>
        <time>2022-08-27T16:35:40Z</time>
      </trkpt>
      <trkpt lat="45.91328" lon="7.09967">
        <ele>2198</ele>
        <time>2022-08-27T16:35:42Z</time>
      </trkpt>
      <trkpt lat="45.9133" lon="7.0997">
        <ele>2198</ele>
        <time>2022-08-27T16:35:45Z</time>
      </trkpt>
      <trkpt lat="45.91333" lon="7.09972">
        <ele>2197</ele>
        <time>2022-08-27T16:35:46Z</time>
      </trkpt>
      <trkpt lat="45.91336" lon="7.09975">
        <ele>2197</ele>
        <time>2022-08-27T16:35:48Z</time>
      </trkpt>
      <trkpt lat="45.91338" lon="7.09978">
        <ele>2194</ele>
        <time>2022-08-27T16:35:50Z</time>
      </trkpt>
      <trkpt lat="45.9134" lon="7.0998">
        <ele>2194</ele>
        <time>2022-08-27T16:35:52Z</time>
      </trkpt>
      <trkpt lat="45.91342" lon="7.09983">
        <ele>2193</ele>
        <time>2022-08-27T16:35:55Z</time>
      </trkpt>
      <trkpt lat="45.91343" lon="7.09985">
        <ele>2193</ele>
        <time>2022-08-27T16:35:56Z</time>
      </trkpt>
      <trkpt lat="45.91344" lon="7.09988">
        <ele>2192</ele>
        <time>2022-08-27T16:35:58Z</time>
      </trkpt>
      <trkpt lat="45.91346" lon="7.09991">
        <ele>2192</ele>
        <time>2022-08-27T16:36:00Z</time>
      </trkpt>
      <trkpt lat="45.91347" lon="7.09994">
        <ele>2191</ele>
        <time>2022-08-27T16:36:02Z</time>
      </trkpt>
      <trkpt lat="45.91348" lon="7.09997">
        <ele>2190</ele>
        <time>2022-08-27T16:36:05Z</time>
      </trkpt>
      <trkpt lat="45.91349" lon="7.09999">
        <ele>2190</ele>
        <time>2022-08-27T16:36:06Z</time>
      </trkpt>
      <trkpt lat="45.91351" lon="7.10001">
        <ele>2188</ele>
        <time>2022-08-27T16:36:08Z</time>
      </trkpt>
      <trkpt lat="45.91353" lon="7.10004">
        <ele>2187</ele>
        <time>2022-08-27T16:36:10Z</time>
      </trkpt>
      <trkpt lat="45.91355" lon="7.10007">
        <ele>2186</ele>
        <time>2022-08-27T16:36:13Z</time>
      </trkpt>
      <trkpt lat="45.91357" lon="7.10009">
        <ele>2186</ele>
        <time>2022-08-27T16:36:15Z</time>
      </trkpt>
      <trkpt lat="45.9136" lon="7.10012">
        <ele>2186</ele>
        <time>2022-08-27T16:36:16Z</time>
      </trkpt>
      <trkpt lat="45.91362" lon="7.10014">
        <ele>2185</ele>
        <time>2022-08-27T16:36:18Z</time>
      </trkpt>
      <trkpt lat="45.91364" lon="7.10017">
        <ele>2184</ele>
        <time>2022-08-27T16:36:20Z</time>
      </trkpt>
      <trkpt lat="45.91366" lon="7.1002">
        <ele>2183</ele>
        <time>2022-08-27T16:36:23Z</time>
      </trkpt>
      <trkpt lat="45.91367" lon="7.10023">
        <ele>2182</ele>
        <time>2022-08-27T16:36:25Z</time>
      </trkpt>
      <trkpt lat="45.91368" lon="7.10027">
        <ele>2181</ele>
        <time>2022-08-27T16:36:28Z</time>
      </trkpt>
      <trkpt lat="45.91369" lon="7.10029">
        <ele>2181</ele>
        <time>2022-08-27T16:36:29Z</time>
      </trkpt>
      <trkpt lat="45.91371" lon="7.10028">
        <ele>2179</ele>
        <time>2022-08-27T16:36:34Z</time>
      </trkpt>
      <trkpt lat="45.91373" lon="7.10026">
        <ele>2178</ele>
        <time>2022-08-27T16:36:36Z</time>
      </trkpt>
      <trkpt lat="45.91374" lon="7.10025">
        <ele>2177</ele>
        <time>2022-08-27T16:36:38Z</time>
      </trkpt>
      <trkpt lat="45.91378" lon="7.10024">
        <ele>2176</ele>
        <time>2022-08-27T16:36:40Z</time>
      </trkpt>
      <trkpt lat="45.91379" lon="7.10025">
        <ele>2176</ele>
        <time>2022-08-27T16:36:41Z</time>
      </trkpt>
      <trkpt lat="45.9138" lon="7.10025">
        <ele>2175</ele>
        <time>2022-08-27T16:36:42Z</time>
      </trkpt>
      <trkpt lat="45.91382" lon="7.10026">
        <ele>2174</ele>
        <time>2022-08-27T16:36:43Z</time>
      </trkpt>
      <trkpt lat="45.91385" lon="7.10026">
        <ele>2173</ele>
        <time>2022-08-27T16:36:46Z</time>
      </trkpt>
      <trkpt lat="45.91388" lon="7.10026">
        <ele>2172</ele>
        <time>2022-08-27T16:36:47Z</time>
      </trkpt>
      <trkpt lat="45.9139" lon="7.10025">
        <ele>2172</ele>
        <time>2022-08-27T16:36:50Z</time>
      </trkpt>
      <trkpt lat="45.91392" lon="7.10023">
        <ele>2172</ele>
        <time>2022-08-27T16:36:53Z</time>
      </trkpt>
      <trkpt lat="45.91395" lon="7.10023">
        <ele>2172</ele>
        <time>2022-08-27T16:36:55Z</time>
      </trkpt>
      <trkpt lat="45.91396" lon="7.10021">
        <ele>2171</ele>
        <time>2022-08-27T16:36:57Z</time>
      </trkpt>
      <trkpt lat="45.91398" lon="7.1002">
        <ele>2170</ele>
        <time>2022-08-27T16:36:59Z</time>
      </trkpt>
      <trkpt lat="45.91401" lon="7.10019">
        <ele>2168</ele>
        <time>2022-08-27T16:37:02Z</time>
      </trkpt>
      <trkpt lat="45.91403" lon="7.10021">
        <ele>2168</ele>
        <time>2022-08-27T16:37:04Z</time>
      </trkpt>
      <trkpt lat="45.91405" lon="7.10023">
        <ele>2167</ele>
        <time>2022-08-27T16:37:06Z</time>
      </trkpt>
      <trkpt lat="45.91406" lon="7.10026">
        <ele>2166</ele>
        <time>2022-08-27T16:37:08Z</time>
      </trkpt>
      <trkpt lat="45.91408" lon="7.10027">
        <ele>2165</ele>
        <time>2022-08-27T16:37:10Z</time>
      </trkpt>
      <trkpt lat="45.91411" lon="7.10028">
        <ele>2164</ele>
        <time>2022-08-27T16:37:12Z</time>
      </trkpt>
      <trkpt lat="45.91413" lon="7.10028">
        <ele>2163</ele>
        <time>2022-08-27T16:37:14Z</time>
      </trkpt>
      <trkpt lat="45.91416" lon="7.10028">
        <ele>2163</ele>
        <time>2022-08-27T16:37:16Z</time>
      </trkpt>
      <trkpt lat="45.91418" lon="7.10029">
        <ele>2162</ele>
        <time>2022-08-27T16:37:18Z</time>
      </trkpt>
      <trkpt lat="45.9142" lon="7.1003">
        <ele>2161</ele>
        <time>2022-08-27T16:37:21Z</time>
      </trkpt>
      <trkpt lat="45.91422" lon="7.10031">
        <ele>2161</ele>
        <time>2022-08-27T16:37:22Z</time>
      </trkpt>
      <trkpt lat="45.91425" lon="7.10032">
        <ele>2158</ele>
        <time>2022-08-27T16:37:26Z</time>
      </trkpt>
      <trkpt lat="45.91427" lon="7.10033">
        <ele>2158</ele>
        <time>2022-08-27T16:37:27Z</time>
      </trkpt>
      <trkpt lat="45.91429" lon="7.10033">
        <ele>2158</ele>
        <time>2022-08-27T16:37:29Z</time>
      </trkpt>
      <trkpt lat="45.91432" lon="7.10033">
        <ele>2157</ele>
        <time>2022-08-27T16:37:31Z</time>
      </trkpt>
      <trkpt lat="45.91434" lon="7.10034">
        <ele>2157</ele>
        <time>2022-08-27T16:37:33Z</time>
      </trkpt>
      <trkpt lat="45.91436" lon="7.10035">
        <ele>2156</ele>
        <time>2022-08-27T16:37:35Z</time>
      </trkpt>
      <trkpt lat="45.91439" lon="7.10037">
        <ele>2155</ele>
        <time>2022-08-27T16:37:37Z</time>
      </trkpt>
      <trkpt lat="45.91441" lon="7.10037">
        <ele>2154</ele>
        <time>2022-08-27T16:37:39Z</time>
      </trkpt>
      <trkpt lat="45.91443" lon="7.10037">
        <ele>2154</ele>
        <time>2022-08-27T16:37:41Z</time>
      </trkpt>
      <trkpt lat="45.91445" lon="7.10039">
        <ele>2152</ele>
        <time>2022-08-27T16:37:44Z</time>
      </trkpt>
      <trkpt lat="45.91446" lon="7.10042">
        <ele>2152</ele>
        <time>2022-08-27T16:37:45Z</time>
      </trkpt>
      <trkpt lat="45.91448" lon="7.10043">
        <ele>2151</ele>
        <time>2022-08-27T16:37:47Z</time>
      </trkpt>
      <trkpt lat="45.9145" lon="7.10041">
        <ele>2151</ele>
        <time>2022-08-27T16:37:49Z</time>
      </trkpt>
      <trkpt lat="45.91452" lon="7.10041">
        <ele>2150</ele>
        <time>2022-08-27T16:37:51Z</time>
      </trkpt>
      <trkpt lat="45.91455" lon="7.10041">
        <ele>2149</ele>
        <time>2022-08-27T16:37:53Z</time>
      </trkpt>
      <trkpt lat="45.91457" lon="7.10039">
        <ele>2148</ele>
        <time>2022-08-27T16:37:55Z</time>
      </trkpt>
      <trkpt lat="45.9146" lon="7.10039">
        <ele>2147</ele>
        <time>2022-08-27T16:37:57Z</time>
      </trkpt>
      <trkpt lat="45.91462" lon="7.10041">
        <ele>2146</ele>
        <time>2022-08-27T16:37:59Z</time>
      </trkpt>
      <trkpt lat="45.91464" lon="7.10043">
        <ele>2146</ele>
        <time>2022-08-27T16:38:01Z</time>
      </trkpt>
      <trkpt lat="45.91466" lon="7.10046">
        <ele>2144</ele>
        <time>2022-08-27T16:38:03Z</time>
      </trkpt>
      <trkpt lat="45.91467" lon="7.10049">
        <ele>2142</ele>
        <time>2022-08-27T16:38:05Z</time>
      </trkpt>
      <trkpt lat="45.91469" lon="7.1005">
        <ele>2141</ele>
        <time>2022-08-27T16:38:08Z</time>
      </trkpt>
      <trkpt lat="45.91471" lon="7.10053">
        <ele>2140</ele>
        <time>2022-08-27T16:38:10Z</time>
      </trkpt>
      <trkpt lat="45.91474" lon="7.10054">
        <ele>2140</ele>
        <time>2022-08-27T16:38:13Z</time>
      </trkpt>
      <trkpt lat="45.91475" lon="7.10055">
        <ele>2140</ele>
        <time>2022-08-27T16:38:15Z</time>
      </trkpt>
      <trkpt lat="45.91478" lon="7.10057">
        <ele>2139</ele>
        <time>2022-08-27T16:38:18Z</time>
      </trkpt>
      <trkpt lat="45.9148" lon="7.10058">
        <ele>2139</ele>
        <time>2022-08-27T16:38:19Z</time>
      </trkpt>
      <trkpt lat="45.91482" lon="7.10059">
        <ele>2137</ele>
        <time>2022-08-27T16:38:22Z</time>
      </trkpt>
      <trkpt lat="45.91484" lon="7.1006">
        <ele>2137</ele>
        <time>2022-08-27T16:38:23Z</time>
      </trkpt>
      <trkpt lat="45.91487" lon="7.10062">
        <ele>2137</ele>
        <time>2022-08-27T16:38:25Z</time>
      </trkpt>
      <trkpt lat="45.91489" lon="7.10064">
        <ele>2135</ele>
        <time>2022-08-27T16:38:27Z</time>
      </trkpt>
      <trkpt lat="45.91492" lon="7.10066">
        <ele>2135</ele>
        <time>2022-08-27T16:38:29Z</time>
      </trkpt>
      <trkpt lat="45.91494" lon="7.10067">
        <ele>2135</ele>
        <time>2022-08-27T16:38:31Z</time>
      </trkpt>
      <trkpt lat="45.91496" lon="7.10067">
        <ele>2135</ele>
        <time>2022-08-27T16:38:33Z</time>
      </trkpt>
      <trkpt lat="45.91499" lon="7.10065">
        <ele>2133</ele>
        <time>2022-08-27T16:38:36Z</time>
      </trkpt>
      <trkpt lat="45.91501" lon="7.10064">
        <ele>2133</ele>
        <time>2022-08-27T16:38:39Z</time>
      </trkpt>
      <trkpt lat="45.91504" lon="7.10063">
        <ele>2133</ele>
        <time>2022-08-27T16:38:40Z</time>
      </trkpt>
      <trkpt lat="45.91505" lon="7.10062">
        <ele>2131</ele>
        <time>2022-08-27T16:38:42Z</time>
      </trkpt>
      <trkpt lat="45.91508" lon="7.1006">
        <ele>2131</ele>
        <time>2022-08-27T16:38:44Z</time>
      </trkpt>
      <trkpt lat="45.9151" lon="7.1006">
        <ele>2130</ele>
        <time>2022-08-27T16:38:46Z</time>
      </trkpt>
      <trkpt lat="45.91513" lon="7.1006">
        <ele>2129</ele>
        <time>2022-08-27T16:38:48Z</time>
      </trkpt>
      <trkpt lat="45.91516" lon="7.10061">
        <ele>2129</ele>
        <time>2022-08-27T16:38:50Z</time>
      </trkpt>
      <trkpt lat="45.91518" lon="7.10064">
        <ele>2128</ele>
        <time>2022-08-27T16:38:52Z</time>
      </trkpt>
      <trkpt lat="45.9152" lon="7.10066">
        <ele>2128</ele>
        <time>2022-08-27T16:38:54Z</time>
      </trkpt>
      <trkpt lat="45.91522" lon="7.10068">
        <ele>2127</ele>
        <time>2022-08-27T16:38:56Z</time>
      </trkpt>
      <trkpt lat="45.91524" lon="7.10069">
        <ele>2127</ele>
        <time>2022-08-27T16:38:58Z</time>
      </trkpt>
      <trkpt lat="45.91527" lon="7.10071">
        <ele>2125</ele>
        <time>2022-08-27T16:39:00Z</time>
      </trkpt>
      <trkpt lat="45.91529" lon="7.10072">
        <ele>2125</ele>
        <time>2022-08-27T16:39:02Z</time>
      </trkpt>
      <trkpt lat="45.91531" lon="7.10074">
        <ele>2124</ele>
        <time>2022-08-27T16:39:04Z</time>
      </trkpt>
      <trkpt lat="45.91534" lon="7.10075">
        <ele>2124</ele>
        <time>2022-08-27T16:39:07Z</time>
      </trkpt>
      <trkpt lat="45.91536" lon="7.10077">
        <ele>2124</ele>
        <time>2022-08-27T16:39:08Z</time>
      </trkpt>
      <trkpt lat="45.91538" lon="7.10078">
        <ele>2124</ele>
        <time>2022-08-27T16:39:10Z</time>
      </trkpt>
      <trkpt lat="45.91541" lon="7.1008">
        <ele>2123</ele>
        <time>2022-08-27T16:39:12Z</time>
      </trkpt>
      <trkpt lat="45.91543" lon="7.10082">
        <ele>2122</ele>
        <time>2022-08-27T16:39:14Z</time>
      </trkpt>
      <trkpt lat="45.91545" lon="7.10084">
        <ele>2122</ele>
        <time>2022-08-27T16:39:16Z</time>
      </trkpt>
      <trkpt lat="45.91546" lon="7.10086">
        <ele>2122</ele>
        <time>2022-08-27T16:39:18Z</time>
      </trkpt>
      <trkpt lat="45.91548" lon="7.10087">
        <ele>2121</ele>
        <time>2022-08-27T16:39:20Z</time>
      </trkpt>
      <trkpt lat="45.91549" lon="7.10091">
        <ele>2119</ele>
        <time>2022-08-27T16:39:22Z</time>
      </trkpt>
      <trkpt lat="45.91548" lon="7.10095">
        <ele>2119</ele>
        <time>2022-08-27T16:39:24Z</time>
      </trkpt>
      <trkpt lat="45.91547" lon="7.10099">
        <ele>2118</ele>
        <time>2022-08-27T16:39:26Z</time>
      </trkpt>
      <trkpt lat="45.91546" lon="7.10103">
        <ele>2118</ele>
        <time>2022-08-27T16:39:29Z</time>
      </trkpt>
      <trkpt lat="45.91545" lon="7.10107">
        <ele>2116</ele>
        <time>2022-08-27T16:39:30Z</time>
      </trkpt>
      <trkpt lat="45.91544" lon="7.1011">
        <ele>2115</ele>
        <time>2022-08-27T16:39:32Z</time>
      </trkpt>
      <trkpt lat="45.91544" lon="7.10114">
        <ele>2115</ele>
        <time>2022-08-27T16:39:34Z</time>
      </trkpt>
      <trkpt lat="45.91545" lon="7.10116">
        <ele>2115</ele>
        <time>2022-08-27T16:39:37Z</time>
      </trkpt>
      <trkpt lat="45.91548" lon="7.10118">
        <ele>2113</ele>
        <time>2022-08-27T16:39:39Z</time>
      </trkpt>
      <trkpt lat="45.91551" lon="7.10119">
        <ele>2112</ele>
        <time>2022-08-27T16:39:41Z</time>
      </trkpt>
      <trkpt lat="45.91553" lon="7.10119">
        <ele>2112</ele>
        <time>2022-08-27T16:39:43Z</time>
      </trkpt>
      <trkpt lat="45.91555" lon="7.10118">
        <ele>2111</ele>
        <time>2022-08-27T16:39:45Z</time>
      </trkpt>
      <trkpt lat="45.91558" lon="7.10116">
        <ele>2111</ele>
        <time>2022-08-27T16:39:47Z</time>
      </trkpt>
      <trkpt lat="45.9156" lon="7.10116">
        <ele>2110</ele>
        <time>2022-08-27T16:39:49Z</time>
      </trkpt>
      <trkpt lat="45.9156" lon="7.1012">
        <ele>2108</ele>
        <time>2022-08-27T16:39:51Z</time>
      </trkpt>
      <trkpt lat="45.9156" lon="7.10124">
        <ele>2107</ele>
        <time>2022-08-27T16:39:53Z</time>
      </trkpt>
      <trkpt lat="45.91559" lon="7.10127">
        <ele>2107</ele>
        <time>2022-08-27T16:39:55Z</time>
      </trkpt>
      <trkpt lat="45.91557" lon="7.1013">
        <ele>2105</ele>
        <time>2022-08-27T16:39:57Z</time>
      </trkpt>
      <trkpt lat="45.91555" lon="7.10132">
        <ele>2105</ele>
        <time>2022-08-27T16:39:59Z</time>
      </trkpt>
      <trkpt lat="45.91554" lon="7.10136">
        <ele>2104</ele>
        <time>2022-08-27T16:40:02Z</time>
      </trkpt>
      <trkpt lat="45.91551" lon="7.10139">
        <ele>2103</ele>
        <time>2022-08-27T16:40:04Z</time>
      </trkpt>
      <trkpt lat="45.91548" lon="7.1014">
        <ele>2103</ele>
        <time>2022-08-27T16:40:06Z</time>
      </trkpt>
      <trkpt lat="45.91546" lon="7.10141">
        <ele>2102</ele>
        <time>2022-08-27T16:40:09Z</time>
      </trkpt>
      <trkpt lat="45.91543" lon="7.10141">
        <ele>2102</ele>
        <time>2022-08-27T16:40:10Z</time>
      </trkpt>
      <trkpt lat="45.91541" lon="7.10143">
        <ele>2102</ele>
        <time>2022-08-27T16:40:13Z</time>
      </trkpt>
      <trkpt lat="45.9154" lon="7.10146">
        <ele>2099</ele>
        <time>2022-08-27T16:40:16Z</time>
      </trkpt>
      <trkpt lat="45.91539" lon="7.10149">
        <ele>2099</ele>
        <time>2022-08-27T16:40:18Z</time>
      </trkpt>
      <trkpt lat="45.91537" lon="7.10151">
        <ele>2098</ele>
        <time>2022-08-27T16:40:20Z</time>
      </trkpt>
      <trkpt lat="45.91535" lon="7.10153">
        <ele>2097</ele>
        <time>2022-08-27T16:40:22Z</time>
      </trkpt>
      <trkpt lat="45.91534" lon="7.10156">
        <ele>2096</ele>
        <time>2022-08-27T16:40:24Z</time>
      </trkpt>
      <trkpt lat="45.91531" lon="7.10158">
        <ele>2095</ele>
        <time>2022-08-27T16:40:26Z</time>
      </trkpt>
      <trkpt lat="45.91528" lon="7.10159">
        <ele>2094</ele>
        <time>2022-08-27T16:40:29Z</time>
      </trkpt>
      <trkpt lat="45.91525" lon="7.1016">
        <ele>2094</ele>
        <time>2022-08-27T16:40:30Z</time>
      </trkpt>
      <trkpt lat="45.91523" lon="7.10161">
        <ele>2094</ele>
        <time>2022-08-27T16:40:32Z</time>
      </trkpt>
      <trkpt lat="45.91521" lon="7.10163">
        <ele>2094</ele>
        <time>2022-08-27T16:40:34Z</time>
      </trkpt>
      <trkpt lat="45.91519" lon="7.10165">
        <ele>2094</ele>
        <time>2022-08-27T16:40:36Z</time>
      </trkpt>
      <trkpt lat="45.91518" lon="7.10167">
        <ele>2092</ele>
        <time>2022-08-27T16:40:38Z</time>
      </trkpt>
      <trkpt lat="45.91516" lon="7.10169">
        <ele>2092</ele>
        <time>2022-08-27T16:40:40Z</time>
      </trkpt>
      <trkpt lat="45.91515" lon="7.1017">
        <ele>2092</ele>
        <time>2022-08-27T16:40:42Z</time>
      </trkpt>
      <trkpt lat="45.91514" lon="7.10174">
        <ele>2090</ele>
        <time>2022-08-27T16:40:45Z</time>
      </trkpt>
      <trkpt lat="45.91514" lon="7.10177">
        <ele>2090</ele>
        <time>2022-08-27T16:40:47Z</time>
      </trkpt>
      <trkpt lat="45.91513" lon="7.1018">
        <ele>2089</ele>
        <time>2022-08-27T16:40:49Z</time>
      </trkpt>
      <trkpt lat="45.91512" lon="7.10182">
        <ele>2089</ele>
        <time>2022-08-27T16:40:52Z</time>
      </trkpt>
      <trkpt lat="45.91511" lon="7.10185">
        <ele>2089</ele>
        <time>2022-08-27T16:40:54Z</time>
      </trkpt>
      <trkpt lat="45.91513" lon="7.10188">
        <ele>2088</ele>
        <time>2022-08-27T16:41:05Z</time>
      </trkpt>
      <trkpt lat="45.91514" lon="7.10191">
        <ele>2088</ele>
        <time>2022-08-27T16:41:07Z</time>
      </trkpt>
      <trkpt lat="45.91515" lon="7.10193">
        <ele>2088</ele>
        <time>2022-08-27T16:41:09Z</time>
      </trkpt>
      <trkpt lat="45.91517" lon="7.10194">
        <ele>2087</ele>
        <time>2022-08-27T16:41:11Z</time>
      </trkpt>
      <trkpt lat="45.91518" lon="7.10197">
        <ele>2086</ele>
        <time>2022-08-27T16:41:14Z</time>
      </trkpt>
      <trkpt lat="45.9152" lon="7.10198">
        <ele>2084</ele>
        <time>2022-08-27T16:41:19Z</time>
      </trkpt>
      <trkpt lat="45.91522" lon="7.102">
        <ele>2084</ele>
        <time>2022-08-27T16:41:21Z</time>
      </trkpt>
      <trkpt lat="45.91523" lon="7.10202">
        <ele>2083</ele>
        <time>2022-08-27T16:41:23Z</time>
      </trkpt>
      <trkpt lat="45.91526" lon="7.10204">
        <ele>2082</ele>
        <time>2022-08-27T16:41:26Z</time>
      </trkpt>
      <trkpt lat="45.91528" lon="7.10206">
        <ele>2080</ele>
        <time>2022-08-27T16:41:28Z</time>
      </trkpt>
      <trkpt lat="45.91529" lon="7.10208">
        <ele>2080</ele>
        <time>2022-08-27T16:41:30Z</time>
      </trkpt>
      <trkpt lat="45.91531" lon="7.1021">
        <ele>2079</ele>
        <time>2022-08-27T16:41:32Z</time>
      </trkpt>
      <trkpt lat="45.91533" lon="7.10212">
        <ele>2078</ele>
        <time>2022-08-27T16:41:34Z</time>
      </trkpt>
      <trkpt lat="45.91535" lon="7.10216">
        <ele>2077</ele>
        <time>2022-08-27T16:41:37Z</time>
      </trkpt>
      <trkpt lat="45.91537" lon="7.10218">
        <ele>2077</ele>
        <time>2022-08-27T16:41:38Z</time>
      </trkpt>
      <trkpt lat="45.91539" lon="7.10221">
        <ele>2076</ele>
        <time>2022-08-27T16:41:40Z</time>
      </trkpt>
      <trkpt lat="45.91541" lon="7.10223">
        <ele>2074</ele>
        <time>2022-08-27T16:41:42Z</time>
      </trkpt>
      <trkpt lat="45.91542" lon="7.10226">
        <ele>2073</ele>
        <time>2022-08-27T16:41:44Z</time>
      </trkpt>
      <trkpt lat="45.91544" lon="7.10227">
        <ele>2073</ele>
        <time>2022-08-27T16:41:46Z</time>
      </trkpt>
      <trkpt lat="45.91545" lon="7.1023">
        <ele>2073</ele>
        <time>2022-08-27T16:41:49Z</time>
      </trkpt>
      <trkpt lat="45.91547" lon="7.10233">
        <ele>2073</ele>
        <time>2022-08-27T16:41:50Z</time>
      </trkpt>
      <trkpt lat="45.91548" lon="7.10238">
        <ele>2071</ele>
        <time>2022-08-27T16:41:52Z</time>
      </trkpt>
      <trkpt lat="45.91549" lon="7.10243">
        <ele>2071</ele>
        <time>2022-08-27T16:41:54Z</time>
      </trkpt>
      <trkpt lat="45.9155" lon="7.10247">
        <ele>2071</ele>
        <time>2022-08-27T16:41:56Z</time>
      </trkpt>
      <trkpt lat="45.91551" lon="7.1025">
        <ele>2070</ele>
        <time>2022-08-27T16:41:58Z</time>
      </trkpt>
      <trkpt lat="45.91553" lon="7.10252">
        <ele>2069</ele>
        <time>2022-08-27T16:42:00Z</time>
      </trkpt>
      <trkpt lat="45.91554" lon="7.10255">
        <ele>2069</ele>
        <time>2022-08-27T16:42:02Z</time>
      </trkpt>
      <trkpt lat="45.91555" lon="7.10258">
        <ele>2068</ele>
        <time>2022-08-27T16:42:04Z</time>
      </trkpt>
      <trkpt lat="45.91556" lon="7.10261">
        <ele>2068</ele>
        <time>2022-08-27T16:42:06Z</time>
      </trkpt>
      <trkpt lat="45.91557" lon="7.10263">
        <ele>2068</ele>
        <time>2022-08-27T16:42:08Z</time>
      </trkpt>
      <trkpt lat="45.91558" lon="7.10267">
        <ele>2067</ele>
        <time>2022-08-27T16:42:10Z</time>
      </trkpt>
      <trkpt lat="45.91559" lon="7.1027">
        <ele>2066</ele>
        <time>2022-08-27T16:42:13Z</time>
      </trkpt>
      <trkpt lat="45.9156" lon="7.10272">
        <ele>2064</ele>
        <time>2022-08-27T16:42:15Z</time>
      </trkpt>
      <trkpt lat="45.91561" lon="7.10276">
        <ele>2063</ele>
        <time>2022-08-27T16:42:17Z</time>
      </trkpt>
      <trkpt lat="45.91561" lon="7.10281">
        <ele>2062</ele>
        <time>2022-08-27T16:42:19Z</time>
      </trkpt>
      <trkpt lat="45.91561" lon="7.10284">
        <ele>2062</ele>
        <time>2022-08-27T16:42:22Z</time>
      </trkpt>
      <trkpt lat="45.91562" lon="7.10286">
        <ele>2062</ele>
        <time>2022-08-27T16:42:23Z</time>
      </trkpt>
      <trkpt lat="45.91565" lon="7.10289">
        <ele>2061</ele>
        <time>2022-08-27T16:42:25Z</time>
      </trkpt>
      <trkpt lat="45.91566" lon="7.10291">
        <ele>2060</ele>
        <time>2022-08-27T16:42:28Z</time>
      </trkpt>
      <trkpt lat="45.91567" lon="7.10291">
        <ele>2059</ele>
        <time>2022-08-27T16:42:29Z</time>
      </trkpt>
      <trkpt lat="45.91568" lon="7.10291">
        <ele>2058</ele>
        <time>2022-08-27T16:42:30Z</time>
      </trkpt>
      <trkpt lat="45.91569" lon="7.10291">
        <ele>2057</ele>
        <time>2022-08-27T16:42:32Z</time>
      </trkpt>
      <trkpt lat="45.9157" lon="7.10292">
        <ele>2056</ele>
        <time>2022-08-27T16:42:33Z</time>
      </trkpt>
      <trkpt lat="45.91571" lon="7.10292">
        <ele>2056</ele>
        <time>2022-08-27T16:42:34Z</time>
      </trkpt>
      <trkpt lat="45.91572" lon="7.10292">
        <ele>2055</ele>
        <time>2022-08-27T16:42:35Z</time>
      </trkpt>
      <trkpt lat="45.91576" lon="7.10293">
        <ele>2055</ele>
        <time>2022-08-27T16:42:37Z</time>
      </trkpt>
      <trkpt lat="45.91578" lon="7.10295">
        <ele>2054</ele>
        <time>2022-08-27T16:42:38Z</time>
      </trkpt>
      <trkpt lat="45.9158" lon="7.10296">
        <ele>2054</ele>
        <time>2022-08-27T16:42:40Z</time>
      </trkpt>
      <trkpt lat="45.91582" lon="7.10297">
        <ele>2053</ele>
        <time>2022-08-27T16:42:42Z</time>
      </trkpt>
      <trkpt lat="45.91583" lon="7.10299">
        <ele>2052</ele>
        <time>2022-08-27T16:42:44Z</time>
      </trkpt>
      <trkpt lat="45.91584" lon="7.10302">
        <ele>2052</ele>
        <time>2022-08-27T16:42:47Z</time>
      </trkpt>
      <trkpt lat="45.91583" lon="7.10305">
        <ele>2051</ele>
        <time>2022-08-27T16:42:51Z</time>
      </trkpt>
      <trkpt lat="45.91582" lon="7.10308">
        <ele>2050</ele>
        <time>2022-08-27T16:42:52Z</time>
      </trkpt>
      <trkpt lat="45.91582" lon="7.10311">
        <ele>2049</ele>
        <time>2022-08-27T16:42:55Z</time>
      </trkpt>
      <trkpt lat="45.9158" lon="7.10312">
        <ele>2048</ele>
        <time>2022-08-27T16:42:57Z</time>
      </trkpt>
      <trkpt lat="45.91578" lon="7.10314">
        <ele>2047</ele>
        <time>2022-08-27T16:43:01Z</time>
      </trkpt>
      <trkpt lat="45.91577" lon="7.10316">
        <ele>2047</ele>
        <time>2022-08-27T16:43:02Z</time>
      </trkpt>
      <trkpt lat="45.91576" lon="7.10318">
        <ele>2047</ele>
        <time>2022-08-27T16:43:03Z</time>
      </trkpt>
      <trkpt lat="45.91575" lon="7.10319">
        <ele>2045</ele>
        <time>2022-08-27T16:43:05Z</time>
      </trkpt>
      <trkpt lat="45.91575" lon="7.10321">
        <ele>2045</ele>
        <time>2022-08-27T16:43:06Z</time>
      </trkpt>
      <trkpt lat="45.91574" lon="7.10322">
        <ele>2045</ele>
        <time>2022-08-27T16:43:07Z</time>
      </trkpt>
      <trkpt lat="45.91573" lon="7.10324">
        <ele>2045</ele>
        <time>2022-08-27T16:43:09Z</time>
      </trkpt>
      <trkpt lat="45.91572" lon="7.10325">
        <ele>2045</ele>
        <time>2022-08-27T16:43:10Z</time>
      </trkpt>
      <trkpt lat="45.91572" lon="7.10327">
        <ele>2044</ele>
        <time>2022-08-27T16:43:11Z</time>
      </trkpt>
      <trkpt lat="45.91571" lon="7.1033">
        <ele>2042</ele>
        <time>2022-08-27T16:43:22Z</time>
      </trkpt>
      <trkpt lat="45.91571" lon="7.10334">
        <ele>2042</ele>
        <time>2022-08-27T16:43:25Z</time>
      </trkpt>
      <trkpt lat="45.9157" lon="7.10335">
        <ele>2041</ele>
        <time>2022-08-27T16:43:26Z</time>
      </trkpt>
      <trkpt lat="45.9157" lon="7.10336">
        <ele>2041</ele>
        <time>2022-08-27T16:43:27Z</time>
      </trkpt>
      <trkpt lat="45.9157" lon="7.10336">
        <ele>2040</ele>
        <time>2022-08-27T16:43:29Z</time>
      </trkpt>
      <trkpt lat="45.91569" lon="7.10337">
        <ele>2040</ele>
        <time>2022-08-27T16:43:30Z</time>
      </trkpt>
      <trkpt lat="45.91569" lon="7.10338">
        <ele>2038</ele>
        <time>2022-08-27T16:43:31Z</time>
      </trkpt>
      <trkpt lat="45.91569" lon="7.10338">
        <ele>2038</ele>
        <time>2022-08-27T16:43:32Z</time>
      </trkpt>
      <trkpt lat="45.91568" lon="7.10339">
        <ele>2037</ele>
        <time>2022-08-27T16:43:34Z</time>
      </trkpt>
      <trkpt lat="45.91568" lon="7.1034">
        <ele>2037</ele>
        <time>2022-08-27T16:43:36Z</time>
      </trkpt>
      <trkpt lat="45.91568" lon="7.10341">
        <ele>2037</ele>
        <time>2022-08-27T16:43:37Z</time>
      </trkpt>
      <trkpt lat="45.91564" lon="7.1035">
        <ele>2036</ele>
        <time>2022-08-27T16:43:38Z</time>
      </trkpt>
      <trkpt lat="45.91564" lon="7.10352">
        <ele>2036</ele>
        <time>2022-08-27T16:43:39Z</time>
      </trkpt>
      <trkpt lat="45.91563" lon="7.10355">
        <ele>2034</ele>
        <time>2022-08-27T16:43:41Z</time>
      </trkpt>
      <trkpt lat="45.91562" lon="7.10357">
        <ele>2034</ele>
        <time>2022-08-27T16:43:42Z</time>
      </trkpt>
      <trkpt lat="45.91561" lon="7.1036">
        <ele>2034</ele>
        <time>2022-08-27T16:43:43Z</time>
      </trkpt>
      <trkpt lat="45.91562" lon="7.10363">
        <ele>2033</ele>
        <time>2022-08-27T16:43:45Z</time>
      </trkpt>
      <trkpt lat="45.91563" lon="7.10366">
        <ele>2033</ele>
        <time>2022-08-27T16:43:46Z</time>
      </trkpt>
      <trkpt lat="45.91564" lon="7.10369">
        <ele>2033</ele>
        <time>2022-08-27T16:43:47Z</time>
      </trkpt>
      <trkpt lat="45.91565" lon="7.10372">
        <ele>2033</ele>
        <time>2022-08-27T16:43:48Z</time>
      </trkpt>
      <trkpt lat="45.91566" lon="7.10375">
        <ele>2033</ele>
        <time>2022-08-27T16:43:50Z</time>
      </trkpt>
      <trkpt lat="45.91568" lon="7.10378">
        <ele>2033</ele>
        <time>2022-08-27T16:43:52Z</time>
      </trkpt>
      <trkpt lat="45.91569" lon="7.10381">
        <ele>2033</ele>
        <time>2022-08-27T16:43:53Z</time>
      </trkpt>
      <trkpt lat="45.9157" lon="7.10383">
        <ele>2033</ele>
        <time>2022-08-27T16:43:54Z</time>
      </trkpt>
      <trkpt lat="45.91572" lon="7.10387">
        <ele>2032</ele>
        <time>2022-08-27T16:43:58Z</time>
      </trkpt>
      <trkpt lat="45.91572" lon="7.10387">
        <ele>2032</ele>
        <time>2022-08-27T16:43:59Z</time>
      </trkpt>
      <trkpt lat="45.91572" lon="7.10387">
        <ele>2032</ele>
        <time>2022-08-27T16:44:00Z</time>
      </trkpt>
      <trkpt lat="45.91572" lon="7.10386">
        <ele>2032</ele>
        <time>2022-08-27T16:44:02Z</time>
      </trkpt>
      <trkpt lat="45.91573" lon="7.10386">
        <ele>2031</ele>
        <time>2022-08-27T16:44:03Z</time>
      </trkpt>
      <trkpt lat="45.91573" lon="7.10386">
        <ele>2030</ele>
        <time>2022-08-27T16:44:04Z</time>
      </trkpt>
      <trkpt lat="45.91573" lon="7.10386">
        <ele>2030</ele>
        <time>2022-08-27T16:44:05Z</time>
      </trkpt>
      <trkpt lat="45.91573" lon="7.10385">
        <ele>2030</ele>
        <time>2022-08-27T16:44:07Z</time>
      </trkpt>
      <trkpt lat="45.91573" lon="7.10385">
        <ele>2030</ele>
        <time>2022-08-27T16:44:08Z</time>
      </trkpt>
      <trkpt lat="45.91573" lon="7.10385">
        <ele>2030</ele>
        <time>2022-08-27T16:44:09Z</time>
      </trkpt>
      <trkpt lat="45.91573" lon="7.10385">
        <ele>2030</ele>
        <time>2022-08-27T16:44:10Z</time>
      </trkpt>
      <trkpt lat="45.91574" lon="7.10384">
        <ele>2030</ele>
        <time>2022-08-27T16:44:12Z</time>
      </trkpt>
      <trkpt lat="45.91574" lon="7.10384">
        <ele>2030</ele>
        <time>2022-08-27T16:44:14Z</time>
      </trkpt>
      <trkpt lat="45.91574" lon="7.10384">
        <ele>2030</ele>
        <time>2022-08-27T16:44:15Z</time>
      </trkpt>
      <trkpt lat="45.91574" lon="7.10384">
        <ele>2030</ele>
        <time>2022-08-27T16:44:16Z</time>
      </trkpt>
      <trkpt lat="45.91574" lon="7.10383">
        <ele>2030</ele>
        <time>2022-08-27T16:44:17Z</time>
      </trkpt>
      <trkpt lat="45.91579" lon="7.10374">
        <ele>2030</ele>
        <time>2022-08-27T16:44:19Z</time>
      </trkpt>
      <trkpt lat="45.91581" lon="7.10373">
        <ele>2030</ele>
        <time>2022-08-27T16:44:21Z</time>
      </trkpt>
      <trkpt lat="45.91582" lon="7.10372">
        <ele>2029</ele>
        <time>2022-08-27T16:44:22Z</time>
      </trkpt>
      <trkpt lat="45.91583" lon="7.10371">
        <ele>2029</ele>
        <time>2022-08-27T16:44:23Z</time>
      </trkpt>
      <trkpt lat="45.91584" lon="7.10369">
        <ele>2029</ele>
        <time>2022-08-27T16:44:24Z</time>
      </trkpt>
      <trkpt lat="45.91586" lon="7.10368">
        <ele>2029</ele>
        <time>2022-08-27T16:44:25Z</time>
      </trkpt>
      <trkpt lat="45.91587" lon="7.10367">
        <ele>2029</ele>
        <time>2022-08-27T16:44:26Z</time>
      </trkpt>
      <trkpt lat="45.91588" lon="7.10366">
        <ele>2029</ele>
        <time>2022-08-27T16:44:27Z</time>
      </trkpt>
      <trkpt lat="45.9159" lon="7.10364">
        <ele>2029</ele>
        <time>2022-08-27T16:44:28Z</time>
      </trkpt>
      <trkpt lat="45.91591" lon="7.10363">
        <ele>2029</ele>
        <time>2022-08-27T16:44:30Z</time>
      </trkpt>
      <trkpt lat="45.91592" lon="7.10362">
        <ele>2029</ele>
        <time>2022-08-27T16:44:31Z</time>
      </trkpt>
      <trkpt lat="45.91594" lon="7.1036">
        <ele>2029</ele>
        <time>2022-08-27T16:44:32Z</time>
      </trkpt>
      <trkpt lat="45.91595" lon="7.10359">
        <ele>2028</ele>
        <time>2022-08-27T16:44:33Z</time>
      </trkpt>
      <trkpt lat="45.91596" lon="7.10358">
        <ele>2027</ele>
        <time>2022-08-27T16:44:34Z</time>
      </trkpt>
      <trkpt lat="45.91598" lon="7.10357">
        <ele>2028</ele>
        <time>2022-08-27T16:44:35Z</time>
      </trkpt>
      <trkpt lat="45.91599" lon="7.10356">
        <ele>2028</ele>
        <time>2022-08-27T16:44:37Z</time>
      </trkpt>
      <trkpt lat="45.916" lon="7.10355">
        <ele>2028</ele>
        <time>2022-08-27T16:44:39Z</time>
      </trkpt>
      <trkpt lat="45.91601" lon="7.10354">
        <ele>2028</ele>
        <time>2022-08-27T16:44:40Z</time>
      </trkpt>
      <trkpt lat="45.91603" lon="7.10353">
        <ele>2027</ele>
        <time>2022-08-27T16:44:41Z</time>
      </trkpt>
      <trkpt lat="45.91604" lon="7.10352">
        <ele>2027</ele>
        <time>2022-08-27T16:44:42Z</time>
      </trkpt>
      <trkpt lat="45.91606" lon="7.10352">
        <ele>2027</ele>
        <time>2022-08-27T16:44:44Z</time>
      </trkpt>
      <trkpt lat="45.91607" lon="7.10351">
        <ele>2027</ele>
        <time>2022-08-27T16:44:45Z</time>
      </trkpt>
      <trkpt lat="45.91609" lon="7.1035">
        <ele>2027</ele>
        <time>2022-08-27T16:44:46Z</time>
      </trkpt>
      <trkpt lat="45.9161" lon="7.10349">
        <ele>2027</ele>
        <time>2022-08-27T16:44:47Z</time>
      </trkpt>
      <trkpt lat="45.9162" lon="7.10344">
        <ele>2026</ele>
        <time>2022-08-27T16:44:54Z</time>
      </trkpt>
      <trkpt lat="45.91623" lon="7.10341">
        <ele>2026</ele>
        <time>2022-08-27T16:44:56Z</time>
      </trkpt>
      <trkpt lat="45.91624" lon="7.10338">
        <ele>2026</ele>
        <time>2022-08-27T16:44:57Z</time>
      </trkpt>
      <trkpt lat="45.91629" lon="7.10334">
        <ele>2026</ele>
        <time>2022-08-27T16:44:59Z</time>
      </trkpt>
      <trkpt lat="45.91631" lon="7.10333">
        <ele>2026</ele>
        <time>2022-08-27T16:45:00Z</time>
      </trkpt>
      <trkpt lat="45.91633" lon="7.10331">
        <ele>2025</ele>
        <time>2022-08-27T16:45:01Z</time>
      </trkpt>
      <trkpt lat="45.91635" lon="7.10329">
        <ele>2025</ele>
        <time>2022-08-27T16:45:02Z</time>
      </trkpt>
      <trkpt lat="45.91636" lon="7.10327">
        <ele>2024</ele>
        <time>2022-08-27T16:45:03Z</time>
      </trkpt>
      <trkpt lat="45.91639" lon="7.10325">
        <ele>2024</ele>
        <time>2022-08-27T16:45:04Z</time>
      </trkpt>
      <trkpt lat="45.9164" lon="7.10324">
        <ele>2024</ele>
        <time>2022-08-27T16:45:05Z</time>
      </trkpt>
      <trkpt lat="45.91641" lon="7.10321">
        <ele>2023</ele>
        <time>2022-08-27T16:45:07Z</time>
      </trkpt>
      <trkpt lat="45.91643" lon="7.10318">
        <ele>2023</ele>
        <time>2022-08-27T16:45:09Z</time>
      </trkpt>
      <trkpt lat="45.91644" lon="7.10316">
        <ele>2023</ele>
        <time>2022-08-27T16:45:12Z</time>
      </trkpt>
      <trkpt lat="45.91645" lon="7.10312">
        <ele>2024</ele>
        <time>2022-08-27T16:45:15Z</time>
      </trkpt>
      <trkpt lat="45.91646" lon="7.10309">
        <ele>2024</ele>
        <time>2022-08-27T16:45:18Z</time>
      </trkpt>
      <trkpt lat="45.91647" lon="7.10307">
        <ele>2024</ele>
        <time>2022-08-27T16:45:20Z</time>
      </trkpt>
      <trkpt lat="45.91648" lon="7.10305">
        <ele>2023</ele>
        <time>2022-08-27T16:45:22Z</time>
      </trkpt>
      <trkpt lat="45.91649" lon="7.10302">
        <ele>2023</ele>
        <time>2022-08-27T16:45:24Z</time>
      </trkpt>
      <trkpt lat="45.91651" lon="7.10299">
        <ele>2023</ele>
        <time>2022-08-27T16:45:26Z</time>
      </trkpt>
      <trkpt lat="45.91653" lon="7.10297">
        <ele>2022</ele>
        <time>2022-08-27T16:45:28Z</time>
      </trkpt>
      <trkpt lat="45.91654" lon="7.10295">
        <ele>2022</ele>
        <time>2022-08-27T16:45:30Z</time>
      </trkpt>
      <trkpt lat="45.91656" lon="7.10293">
        <ele>2022</ele>
        <time>2022-08-27T16:45:32Z</time>
      </trkpt>
      <trkpt lat="45.91658" lon="7.10291">
        <ele>2022</ele>
        <time>2022-08-27T16:45:34Z</time>
      </trkpt>
      <trkpt lat="45.91659" lon="7.10289">
        <ele>2022</ele>
        <time>2022-08-27T16:45:36Z</time>
      </trkpt>
      <trkpt lat="45.91661" lon="7.10287">
        <ele>2022</ele>
        <time>2022-08-27T16:45:39Z</time>
      </trkpt>
      <trkpt lat="45.91663" lon="7.10285">
        <ele>2022</ele>
        <time>2022-08-27T16:45:40Z</time>
      </trkpt>
      <trkpt lat="45.91664" lon="7.10281">
        <ele>2022</ele>
        <time>2022-08-27T16:45:42Z</time>
      </trkpt>
      <trkpt lat="45.91666" lon="7.10278">
        <ele>2021</ele>
        <time>2022-08-27T16:45:44Z</time>
      </trkpt>
      <trkpt lat="45.91668" lon="7.10275">
        <ele>2021</ele>
        <time>2022-08-27T16:45:46Z</time>
      </trkpt>
      <trkpt lat="45.91672" lon="7.10273">
        <ele>2021</ele>
        <time>2022-08-27T16:45:48Z</time>
      </trkpt>
      <trkpt lat="45.91676" lon="7.1027">
        <ele>2021</ele>
        <time>2022-08-27T16:45:50Z</time>
      </trkpt>
      <trkpt lat="45.91678" lon="7.10269">
        <ele>2021</ele>
        <time>2022-08-27T16:45:51Z</time>
      </trkpt>
      <trkpt lat="45.9168" lon="7.10267">
        <ele>2021</ele>
        <time>2022-08-27T16:45:52Z</time>
      </trkpt>
      <trkpt lat="45.91682" lon="7.10266">
        <ele>2021</ele>
        <time>2022-08-27T16:45:53Z</time>
      </trkpt>
      <trkpt lat="45.91683" lon="7.10265">
        <ele>2021</ele>
        <time>2022-08-27T16:45:54Z</time>
      </trkpt>
      <trkpt lat="45.91686" lon="7.10262">
        <ele>2021</ele>
        <time>2022-08-27T16:45:56Z</time>
      </trkpt>
      <trkpt lat="45.91688" lon="7.10259">
        <ele>2020</ele>
        <time>2022-08-27T16:45:58Z</time>
      </trkpt>
      <trkpt lat="45.9169" lon="7.10256">
        <ele>2020</ele>
        <time>2022-08-27T16:45:59Z</time>
      </trkpt>
      <trkpt lat="45.91691" lon="7.10255">
        <ele>2019</ele>
        <time>2022-08-27T16:46:00Z</time>
      </trkpt>
      <trkpt lat="45.91692" lon="7.10252">
        <ele>2019</ele>
        <time>2022-08-27T16:46:01Z</time>
      </trkpt>
      <trkpt lat="45.91694" lon="7.1025">
        <ele>2018</ele>
        <time>2022-08-27T16:46:02Z</time>
      </trkpt>
      <trkpt lat="45.91696" lon="7.10247">
        <ele>2018</ele>
        <time>2022-08-27T16:46:03Z</time>
      </trkpt>
      <trkpt lat="45.91698" lon="7.10244">
        <ele>2018</ele>
        <time>2022-08-27T16:46:04Z</time>
      </trkpt>
      <trkpt lat="45.91699" lon="7.10243">
        <ele>2018</ele>
        <time>2022-08-27T16:46:05Z</time>
      </trkpt>
      <trkpt lat="45.91701" lon="7.10241">
        <ele>2018</ele>
        <time>2022-08-27T16:46:06Z</time>
      </trkpt>
      <trkpt lat="45.91703" lon="7.10238">
        <ele>2017</ele>
        <time>2022-08-27T16:46:07Z</time>
      </trkpt>
      <trkpt lat="45.91704" lon="7.10237">
        <ele>2017</ele>
        <time>2022-08-27T16:46:08Z</time>
      </trkpt>
      <trkpt lat="45.91709" lon="7.10235">
        <ele>2017</ele>
        <time>2022-08-27T16:46:10Z</time>
      </trkpt>
      <trkpt lat="45.9171" lon="7.10235">
        <ele>2017</ele>
        <time>2022-08-27T16:46:11Z</time>
      </trkpt>
      <trkpt lat="45.91712" lon="7.10233">
        <ele>2017</ele>
        <time>2022-08-27T16:46:12Z</time>
      </trkpt>
      <trkpt lat="45.91715" lon="7.10232">
        <ele>2016</ele>
        <time>2022-08-27T16:46:13Z</time>
      </trkpt>
      <trkpt lat="45.91717" lon="7.1023">
        <ele>2016</ele>
        <time>2022-08-27T16:46:14Z</time>
      </trkpt>
      <trkpt lat="45.91719" lon="7.1023">
        <ele>2015</ele>
        <time>2022-08-27T16:46:15Z</time>
      </trkpt>
      <trkpt lat="45.91721" lon="7.10228">
        <ele>2015</ele>
        <time>2022-08-27T16:46:16Z</time>
      </trkpt>
      <trkpt lat="45.91723" lon="7.10225">
        <ele>2014</ele>
        <time>2022-08-27T16:46:18Z</time>
      </trkpt>
      <trkpt lat="45.91724" lon="7.10222">
        <ele>2014</ele>
        <time>2022-08-27T16:46:20Z</time>
      </trkpt>
      <trkpt lat="45.91725" lon="7.1022">
        <ele>2014</ele>
        <time>2022-08-27T16:46:22Z</time>
      </trkpt>
      <trkpt lat="45.91726" lon="7.10219">
        <ele>2015</ele>
        <time>2022-08-27T16:46:23Z</time>
      </trkpt>
      <trkpt lat="45.91727" lon="7.10217">
        <ele>2015</ele>
        <time>2022-08-27T16:46:24Z</time>
      </trkpt>
      <trkpt lat="45.91728" lon="7.10215">
        <ele>2015</ele>
        <time>2022-08-27T16:46:25Z</time>
      </trkpt>
      <trkpt lat="45.91728" lon="7.10214">
        <ele>2015</ele>
        <time>2022-08-27T16:46:26Z</time>
      </trkpt>
      <trkpt lat="45.91729" lon="7.10212">
        <ele>2015</ele>
        <time>2022-08-27T16:46:27Z</time>
      </trkpt>
      <trkpt lat="45.91731" lon="7.10211">
        <ele>2015</ele>
        <time>2022-08-27T16:46:29Z</time>
      </trkpt>
      <trkpt lat="45.91732" lon="7.10209">
        <ele>2015</ele>
        <time>2022-08-27T16:46:30Z</time>
      </trkpt>
      <trkpt lat="45.91733" lon="7.10207">
        <ele>2014</ele>
        <time>2022-08-27T16:46:31Z</time>
      </trkpt>
      <trkpt lat="45.91734" lon="7.10206">
        <ele>2014</ele>
        <time>2022-08-27T16:46:32Z</time>
      </trkpt>
      <trkpt lat="45.91735" lon="7.10204">
        <ele>2014</ele>
        <time>2022-08-27T16:46:34Z</time>
      </trkpt>
      <trkpt lat="45.91737" lon="7.10203">
        <ele>2014</ele>
        <time>2022-08-27T16:46:35Z</time>
      </trkpt>
      <trkpt lat="45.91739" lon="7.10201">
        <ele>2012</ele>
        <time>2022-08-27T16:46:36Z</time>
      </trkpt>
      <trkpt lat="45.91741" lon="7.102">
        <ele>2012</ele>
        <time>2022-08-27T16:46:37Z</time>
      </trkpt>
      <trkpt lat="45.91743" lon="7.10198">
        <ele>2012</ele>
        <time>2022-08-27T16:46:39Z</time>
      </trkpt>
      <trkpt lat="45.91745" lon="7.10197">
        <ele>2012</ele>
        <time>2022-08-27T16:46:40Z</time>
      </trkpt>
      <trkpt lat="45.91747" lon="7.10195">
        <ele>2012</ele>
        <time>2022-08-27T16:46:41Z</time>
      </trkpt>
      <trkpt lat="45.9175" lon="7.10191">
        <ele>2012</ele>
        <time>2022-08-27T16:46:43Z</time>
      </trkpt>
      <trkpt lat="45.91752" lon="7.10187">
        <ele>2012</ele>
        <time>2022-08-27T16:46:45Z</time>
      </trkpt>
      <trkpt lat="45.91753" lon="7.10184">
        <ele>2012</ele>
        <time>2022-08-27T16:46:47Z</time>
      </trkpt>
      <trkpt lat="45.91755" lon="7.10181">
        <ele>2012</ele>
        <time>2022-08-27T16:46:49Z</time>
      </trkpt>
      <trkpt lat="45.91756" lon="7.1018">
        <ele>2011</ele>
        <time>2022-08-27T16:46:50Z</time>
      </trkpt>
      <trkpt lat="45.91757" lon="7.10178">
        <ele>2011</ele>
        <time>2022-08-27T16:46:51Z</time>
      </trkpt>
      <trkpt lat="45.91758" lon="7.10177">
        <ele>2011</ele>
        <time>2022-08-27T16:46:53Z</time>
      </trkpt>
      <trkpt lat="45.91759" lon="7.10176">
        <ele>2011</ele>
        <time>2022-08-27T16:46:54Z</time>
      </trkpt>
      <trkpt lat="45.9176" lon="7.10175">
        <ele>2010</ele>
        <time>2022-08-27T16:46:55Z</time>
      </trkpt>
      <trkpt lat="45.91761" lon="7.10174">
        <ele>2010</ele>
        <time>2022-08-27T16:46:56Z</time>
      </trkpt>
      <trkpt lat="45.91762" lon="7.10173">
        <ele>2011</ele>
        <time>2022-08-27T16:46:57Z</time>
      </trkpt>
      <trkpt lat="45.91764" lon="7.10168">
        <ele>2011</ele>
        <time>2022-08-27T16:47:00Z</time>
      </trkpt>
      <trkpt lat="45.91764" lon="7.10164">
        <ele>2011</ele>
        <time>2022-08-27T16:47:02Z</time>
      </trkpt>
      <trkpt lat="45.91764" lon="7.10161">
        <ele>2011</ele>
        <time>2022-08-27T16:47:04Z</time>
      </trkpt>
      <trkpt lat="45.91764" lon="7.10158">
        <ele>2011</ele>
        <time>2022-08-27T16:47:06Z</time>
      </trkpt>
      <trkpt lat="45.91764" lon="7.10156">
        <ele>2012</ele>
        <time>2022-08-27T16:47:08Z</time>
      </trkpt>
      <trkpt lat="45.91765" lon="7.10153">
        <ele>2012</ele>
        <time>2022-08-27T16:47:10Z</time>
      </trkpt>
      <trkpt lat="45.91766" lon="7.1015">
        <ele>2012</ele>
        <time>2022-08-27T16:47:13Z</time>
      </trkpt>
      <trkpt lat="45.91767" lon="7.10148">
        <ele>2012</ele>
        <time>2022-08-27T16:47:14Z</time>
      </trkpt>
      <trkpt lat="45.91768" lon="7.10145">
        <ele>2012</ele>
        <time>2022-08-27T16:47:16Z</time>
      </trkpt>
      <trkpt lat="45.91769" lon="7.10142">
        <ele>2015</ele>
        <time>2022-08-27T16:47:19Z</time>
      </trkpt>
      <trkpt lat="45.9177" lon="7.10141">
        <ele>2015</ele>
        <time>2022-08-27T16:47:20Z</time>
      </trkpt>
      <trkpt lat="45.91771" lon="7.10141">
        <ele>2015</ele>
        <time>2022-08-27T16:47:22Z</time>
      </trkpt>
      <trkpt lat="45.91772" lon="7.1014">
        <ele>2015</ele>
        <time>2022-08-27T16:47:23Z</time>
      </trkpt>
      <trkpt lat="45.91773" lon="7.10139">
        <ele>2015</ele>
        <time>2022-08-27T16:47:24Z</time>
      </trkpt>
      <trkpt lat="45.91774" lon="7.10138">
        <ele>2015</ele>
        <time>2022-08-27T16:47:25Z</time>
      </trkpt>
      <trkpt lat="45.91775" lon="7.10137">
        <ele>2016</ele>
        <time>2022-08-27T16:47:27Z</time>
      </trkpt>
      <trkpt lat="45.91777" lon="7.10136">
        <ele>2016</ele>
        <time>2022-08-27T16:47:28Z</time>
      </trkpt>
      <trkpt lat="45.91777" lon="7.10137">
        <ele>2016</ele>
        <time>2022-08-27T16:47:29Z</time>
      </trkpt>
      <trkpt lat="45.91778" lon="7.10137">
        <ele>2016</ele>
        <time>2022-08-27T16:47:31Z</time>
      </trkpt>
      <trkpt lat="45.91779" lon="7.10137">
        <ele>2017</ele>
        <time>2022-08-27T16:47:32Z</time>
      </trkpt>
      <trkpt lat="45.9178" lon="7.10138">
        <ele>2017</ele>
        <time>2022-08-27T16:47:33Z</time>
      </trkpt>
      <trkpt lat="45.91781" lon="7.10138">
        <ele>2017</ele>
        <time>2022-08-27T16:47:34Z</time>
      </trkpt>
      <trkpt lat="45.91782" lon="7.10138">
        <ele>2017</ele>
        <time>2022-08-27T16:47:35Z</time>
      </trkpt>
      <trkpt lat="45.91784" lon="7.10136">
        <ele>2017</ele>
        <time>2022-08-27T16:47:37Z</time>
      </trkpt>
      <trkpt lat="45.91784" lon="7.10132">
        <ele>2018</ele>
        <time>2022-08-27T16:47:40Z</time>
      </trkpt>
      <trkpt lat="45.91786" lon="7.10128">
        <ele>2018</ele>
        <time>2022-08-27T16:47:45Z</time>
      </trkpt>
      <trkpt lat="45.91787" lon="7.10124">
        <ele>2019</ele>
        <time>2022-08-27T16:47:48Z</time>
      </trkpt>
      <trkpt lat="45.9179" lon="7.10122">
        <ele>2019</ele>
        <time>2022-08-27T16:47:51Z</time>
      </trkpt>
      <trkpt lat="45.91792" lon="7.10119">
        <ele>2020</ele>
        <time>2022-08-27T16:47:54Z</time>
      </trkpt>
      <trkpt lat="45.91793" lon="7.10117">
        <ele>2020</ele>
        <time>2022-08-27T16:47:56Z</time>
      </trkpt>
      <trkpt lat="45.91794" lon="7.10113">
        <ele>2020</ele>
        <time>2022-08-27T16:47:59Z</time>
      </trkpt>
      <trkpt lat="45.91796" lon="7.10111">
        <ele>2020</ele>
        <time>2022-08-27T16:48:02Z</time>
      </trkpt>
      <trkpt lat="45.91798" lon="7.10109">
        <ele>2020</ele>
        <time>2022-08-27T16:48:03Z</time>
      </trkpt>
      <trkpt lat="45.91798" lon="7.10106">
        <ele>2020</ele>
        <time>2022-08-27T16:48:05Z</time>
      </trkpt>
      <trkpt lat="45.91798" lon="7.10103">
        <ele>2021</ele>
        <time>2022-08-27T16:48:08Z</time>
      </trkpt>
      <trkpt lat="45.91797" lon="7.10099">
        <ele>2021</ele>
        <time>2022-08-27T16:48:11Z</time>
      </trkpt>
      <trkpt lat="45.91797" lon="7.10096">
        <ele>2021</ele>
        <time>2022-08-27T16:48:14Z</time>
      </trkpt>
      <trkpt lat="45.91797" lon="7.10093">
        <ele>2021</ele>
        <time>2022-08-27T16:48:15Z</time>
      </trkpt>
      <trkpt lat="45.91797" lon="7.10091">
        <ele>2021</ele>
        <time>2022-08-27T16:48:16Z</time>
      </trkpt>
      <trkpt lat="45.91796" lon="7.10089">
        <ele>2021</ele>
        <time>2022-08-27T16:48:17Z</time>
      </trkpt>
      <trkpt lat="45.91797" lon="7.10086">
        <ele>2021</ele>
        <time>2022-08-27T16:48:19Z</time>
      </trkpt>
      <trkpt lat="45.91797" lon="7.10086">
        <ele>2022</ele>
        <time>2022-08-27T16:48:38Z</time>
      </trkpt>
      <trkpt lat="45.91802" lon="7.10073">
        <ele>2022</ele>
        <time>2022-08-27T16:48:42Z</time>
      </trkpt>
      <trkpt lat="45.91812" lon="7.10069">
        <ele>2024</ele>
        <time>2022-08-27T16:48:49Z</time>
      </trkpt>
      <trkpt lat="45.91823" lon="7.10067">
        <ele>2025</ele>
        <time>2022-08-27T16:48:54Z</time>
      </trkpt>
      <trkpt lat="45.91825" lon="7.10067">
        <ele>2025</ele>
        <time>2022-08-27T16:48:55Z</time>
      </trkpt>
      <trkpt lat="45.91826" lon="7.10067">
        <ele>2025</ele>
        <time>2022-08-27T16:48:56Z</time>
      </trkpt>
      <trkpt lat="45.91828" lon="7.10067">
        <ele>2025</ele>
        <time>2022-08-27T16:48:57Z</time>
      </trkpt>
      <trkpt lat="45.91829" lon="7.10067">
        <ele>2025</ele>
        <time>2022-08-27T16:48:59Z</time>
      </trkpt>
      <trkpt lat="45.91831" lon="7.10067">
        <ele>2025</ele>
        <time>2022-08-27T16:49:00Z</time>
      </trkpt>
      <trkpt lat="45.91832" lon="7.10067">
        <ele>2025</ele>
        <time>2022-08-27T16:49:01Z</time>
      </trkpt>
      <trkpt lat="45.91834" lon="7.10065">
        <ele>2026</ele>
        <time>2022-08-27T16:49:02Z</time>
      </trkpt>
      <trkpt lat="45.91835" lon="7.10064">
        <ele>2026</ele>
        <time>2022-08-27T16:49:04Z</time>
      </trkpt>
      <trkpt lat="45.91836" lon="7.10063">
        <ele>2026</ele>
        <time>2022-08-27T16:49:06Z</time>
      </trkpt>
      <trkpt lat="45.91838" lon="7.10062">
        <ele>2026</ele>
        <time>2022-08-27T16:49:07Z</time>
      </trkpt>
      <trkpt lat="45.91839" lon="7.10061">
        <ele>2026</ele>
        <time>2022-08-27T16:49:08Z</time>
      </trkpt>
      <trkpt lat="45.9184" lon="7.10059">
        <ele>2026</ele>
        <time>2022-08-27T16:49:09Z</time>
      </trkpt>
      <trkpt lat="45.91841" lon="7.10059">
        <ele>2026</ele>
        <time>2022-08-27T16:49:10Z</time>
      </trkpt>
      <trkpt lat="45.91841" lon="7.10058">
        <ele>2026</ele>
        <time>2022-08-27T16:49:11Z</time>
      </trkpt>
      <trkpt lat="45.91842" lon="7.10058">
        <ele>2026</ele>
        <time>2022-08-27T16:49:12Z</time>
      </trkpt>
      <trkpt lat="45.91843" lon="7.10057">
        <ele>2026</ele>
        <time>2022-08-27T16:49:14Z</time>
      </trkpt>
      <trkpt lat="45.91843" lon="7.10056">
        <ele>2026</ele>
        <time>2022-08-27T16:49:15Z</time>
      </trkpt>
      <trkpt lat="45.91844" lon="7.10056">
        <ele>2026</ele>
        <time>2022-08-27T16:49:16Z</time>
      </trkpt>
      <trkpt lat="45.91845" lon="7.10055">
        <ele>2026</ele>
        <time>2022-08-27T16:49:17Z</time>
      </trkpt>
      <trkpt lat="45.91847" lon="7.10055">
        <ele>2025</ele>
        <time>2022-08-27T16:49:19Z</time>
      </trkpt>
      <trkpt lat="45.9185" lon="7.10054">
        <ele>2025</ele>
        <time>2022-08-27T16:49:21Z</time>
      </trkpt>
      <trkpt lat="45.91852" lon="7.10053">
        <ele>2024</ele>
        <time>2022-08-27T16:49:22Z</time>
      </trkpt>
      <trkpt lat="45.91854" lon="7.10054">
        <ele>2024</ele>
        <time>2022-08-27T16:49:23Z</time>
      </trkpt>
      <trkpt lat="45.91857" lon="7.10053">
        <ele>2024</ele>
        <time>2022-08-27T16:49:25Z</time>
      </trkpt>
      <trkpt lat="45.9186" lon="7.10053">
        <ele>2023</ele>
        <time>2022-08-27T16:49:27Z</time>
      </trkpt>
      <trkpt lat="45.91863" lon="7.10054">
        <ele>2023</ele>
        <time>2022-08-27T16:49:29Z</time>
      </trkpt>
      <trkpt lat="45.91866" lon="7.10056">
        <ele>2023</ele>
        <time>2022-08-27T16:49:31Z</time>
      </trkpt>
      <trkpt lat="45.91868" lon="7.10057">
        <ele>2022</ele>
        <time>2022-08-27T16:49:34Z</time>
      </trkpt>
      <trkpt lat="45.9187" lon="7.10059">
        <ele>2022</ele>
        <time>2022-08-27T16:49:35Z</time>
      </trkpt>
      <trkpt lat="45.91872" lon="7.1006">
        <ele>2021</ele>
        <time>2022-08-27T16:49:37Z</time>
      </trkpt>
      <trkpt lat="45.91875" lon="7.1006">
        <ele>2021</ele>
        <time>2022-08-27T16:49:39Z</time>
      </trkpt>
      <trkpt lat="45.91878" lon="7.1006">
        <ele>2021</ele>
        <time>2022-08-27T16:49:41Z</time>
      </trkpt>
      <trkpt lat="45.9188" lon="7.1006">
        <ele>2021</ele>
        <time>2022-08-27T16:49:44Z</time>
      </trkpt>
      <trkpt lat="45.91883" lon="7.10061">
        <ele>2021</ele>
        <time>2022-08-27T16:49:45Z</time>
      </trkpt>
      <trkpt lat="45.91885" lon="7.10061">
        <ele>2021</ele>
        <time>2022-08-27T16:49:47Z</time>
      </trkpt>
      <trkpt lat="45.91888" lon="7.1006">
        <ele>2021</ele>
        <time>2022-08-27T16:49:49Z</time>
      </trkpt>
      <trkpt lat="45.9189" lon="7.1006">
        <ele>2022</ele>
        <time>2022-08-27T16:49:52Z</time>
      </trkpt>
      <trkpt lat="45.91892" lon="7.1006">
        <ele>2022</ele>
        <time>2022-08-27T16:49:53Z</time>
      </trkpt>
      <trkpt lat="45.91894" lon="7.10061">
        <ele>2022</ele>
        <time>2022-08-27T16:49:55Z</time>
      </trkpt>
      <trkpt lat="45.91896" lon="7.10062">
        <ele>2022</ele>
        <time>2022-08-27T16:49:57Z</time>
      </trkpt>
      <trkpt lat="45.91898" lon="7.10063">
        <ele>2024</ele>
        <time>2022-08-27T16:49:59Z</time>
      </trkpt>
      <trkpt lat="45.919" lon="7.10064">
        <ele>2024</ele>
        <time>2022-08-27T16:50:01Z</time>
      </trkpt>
      <trkpt lat="45.91902" lon="7.10063">
        <ele>2024</ele>
        <time>2022-08-27T16:50:04Z</time>
      </trkpt>
      <trkpt lat="45.91904" lon="7.10063">
        <ele>2024</ele>
        <time>2022-08-27T16:50:06Z</time>
      </trkpt>
      <trkpt lat="45.91907" lon="7.10062">
        <ele>2025</ele>
        <time>2022-08-27T16:50:08Z</time>
      </trkpt>
      <trkpt lat="45.91909" lon="7.10061">
        <ele>2025</ele>
        <time>2022-08-27T16:50:10Z</time>
      </trkpt>
      <trkpt lat="45.91912" lon="7.1006">
        <ele>2025</ele>
        <time>2022-08-27T16:50:12Z</time>
      </trkpt>
      <trkpt lat="45.91914" lon="7.10059">
        <ele>2024</ele>
        <time>2022-08-27T16:50:14Z</time>
      </trkpt>
      <trkpt lat="45.91917" lon="7.10057">
        <ele>2024</ele>
        <time>2022-08-27T16:50:16Z</time>
      </trkpt>
      <trkpt lat="45.9192" lon="7.10057">
        <ele>2024</ele>
        <time>2022-08-27T16:50:18Z</time>
      </trkpt>
      <trkpt lat="45.91922" lon="7.10056">
        <ele>2024</ele>
        <time>2022-08-27T16:50:20Z</time>
      </trkpt>
      <trkpt lat="45.91925" lon="7.10055">
        <ele>2024</ele>
        <time>2022-08-27T16:50:22Z</time>
      </trkpt>
      <trkpt lat="45.91928" lon="7.10053">
        <ele>2024</ele>
        <time>2022-08-27T16:50:24Z</time>
      </trkpt>
      <trkpt lat="45.9193" lon="7.10051">
        <ele>2023</ele>
        <time>2022-08-27T16:50:26Z</time>
      </trkpt>
      <trkpt lat="45.91934" lon="7.10047">
        <ele>2023</ele>
        <time>2022-08-27T16:50:29Z</time>
      </trkpt>
      <trkpt lat="45.91935" lon="7.10046">
        <ele>2022</ele>
        <time>2022-08-27T16:50:30Z</time>
      </trkpt>
      <trkpt lat="45.91938" lon="7.10044">
        <ele>2022</ele>
        <time>2022-08-27T16:50:32Z</time>
      </trkpt>
      <trkpt lat="45.9194" lon="7.10041">
        <ele>2022</ele>
        <time>2022-08-27T16:50:35Z</time>
      </trkpt>
      <trkpt lat="45.91942" lon="7.10039">
        <ele>2022</ele>
        <time>2022-08-27T16:50:36Z</time>
      </trkpt>
      <trkpt lat="45.91944" lon="7.10037">
        <ele>2021</ele>
        <time>2022-08-27T16:50:38Z</time>
      </trkpt>
      <trkpt lat="45.91946" lon="7.10035">
        <ele>2021</ele>
        <time>2022-08-27T16:50:40Z</time>
      </trkpt>
      <trkpt lat="45.91948" lon="7.10032">
        <ele>2020</ele>
        <time>2022-08-27T16:50:43Z</time>
      </trkpt>
      <trkpt lat="45.9195" lon="7.10029">
        <ele>2020</ele>
        <time>2022-08-27T16:50:44Z</time>
      </trkpt>
      <trkpt lat="45.91952" lon="7.10026">
        <ele>2019</ele>
        <time>2022-08-27T16:50:46Z</time>
      </trkpt>
      <trkpt lat="45.91954" lon="7.10024">
        <ele>2019</ele>
        <time>2022-08-27T16:50:48Z</time>
      </trkpt>
      <trkpt lat="45.91956" lon="7.10022">
        <ele>2018</ele>
        <time>2022-08-27T16:50:50Z</time>
      </trkpt>
      <trkpt lat="45.91959" lon="7.1002">
        <ele>2018</ele>
        <time>2022-08-27T16:50:52Z</time>
      </trkpt>
      <trkpt lat="45.91961" lon="7.10019">
        <ele>2018</ele>
        <time>2022-08-27T16:50:54Z</time>
      </trkpt>
      <trkpt lat="45.91963" lon="7.10016">
        <ele>2017</ele>
        <time>2022-08-27T16:50:56Z</time>
      </trkpt>
      <trkpt lat="45.91965" lon="7.10014">
        <ele>2017</ele>
        <time>2022-08-27T16:50:58Z</time>
      </trkpt>
      <trkpt lat="45.91966" lon="7.10012">
        <ele>2017</ele>
        <time>2022-08-27T16:51:00Z</time>
      </trkpt>
      <trkpt lat="45.91968" lon="7.1001">
        <ele>2017</ele>
        <time>2022-08-27T16:51:01Z</time>
      </trkpt>
      <trkpt lat="45.91969" lon="7.10009">
        <ele>2016</ele>
        <time>2022-08-27T16:51:02Z</time>
      </trkpt>
      <trkpt lat="45.91971" lon="7.10006">
        <ele>2016</ele>
        <time>2022-08-27T16:51:04Z</time>
      </trkpt>
      <trkpt lat="45.91973" lon="7.10005">
        <ele>2016</ele>
        <time>2022-08-27T16:51:06Z</time>
      </trkpt>
      <trkpt lat="45.91976" lon="7.10002">
        <ele>2016</ele>
        <time>2022-08-27T16:51:08Z</time>
      </trkpt>
      <trkpt lat="45.91979" lon="7.1">
        <ele>2016</ele>
        <time>2022-08-27T16:51:10Z</time>
      </trkpt>
      <trkpt lat="45.91981" lon="7.09998">
        <ele>2016</ele>
        <time>2022-08-27T16:51:12Z</time>
      </trkpt>
      <trkpt lat="45.91983" lon="7.09998">
        <ele>2015</ele>
        <time>2022-08-27T16:51:14Z</time>
      </trkpt>
      <trkpt lat="45.91986" lon="7.1">
        <ele>2015</ele>
        <time>2022-08-27T16:51:16Z</time>
      </trkpt>
      <trkpt lat="45.91986" lon="7.10005">
        <ele>2014</ele>
        <time>2022-08-27T16:51:19Z</time>
      </trkpt>
      <trkpt lat="45.91985" lon="7.10011">
        <ele>2014</ele>
        <time>2022-08-27T16:51:20Z</time>
      </trkpt>
      <trkpt lat="45.91985" lon="7.10012">
        <ele>2012</ele>
        <time>2022-08-27T16:51:21Z</time>
      </trkpt>
      <trkpt lat="45.91985" lon="7.10014">
        <ele>2012</ele>
        <time>2022-08-27T16:51:22Z</time>
      </trkpt>
      <trkpt lat="45.91985" lon="7.10017">
        <ele>2012</ele>
        <time>2022-08-27T16:51:23Z</time>
      </trkpt>
      <trkpt lat="45.91984" lon="7.10021">
        <ele>2011</ele>
        <time>2022-08-27T16:51:25Z</time>
      </trkpt>
      <trkpt lat="45.91982" lon="7.10026">
        <ele>2011</ele>
        <time>2022-08-27T16:51:27Z</time>
      </trkpt>
      <trkpt lat="45.91983" lon="7.1003">
        <ele>2010</ele>
        <time>2022-08-27T16:51:29Z</time>
      </trkpt>
      <trkpt lat="45.91982" lon="7.10033">
        <ele>2010</ele>
        <time>2022-08-27T16:51:30Z</time>
      </trkpt>
      <trkpt lat="45.91983" lon="7.10036">
        <ele>2009</ele>
        <time>2022-08-27T16:51:31Z</time>
      </trkpt>
      <trkpt lat="45.91982" lon="7.1004">
        <ele>2009</ele>
        <time>2022-08-27T16:51:33Z</time>
      </trkpt>
      <trkpt lat="45.91982" lon="7.10044">
        <ele>2008</ele>
        <time>2022-08-27T16:51:35Z</time>
      </trkpt>
      <trkpt lat="45.9198" lon="7.10047">
        <ele>2008</ele>
        <time>2022-08-27T16:51:37Z</time>
      </trkpt>
      <trkpt lat="45.91978" lon="7.1005">
        <ele>2007</ele>
        <time>2022-08-27T16:51:40Z</time>
      </trkpt>
      <trkpt lat="45.91976" lon="7.10054">
        <ele>2007</ele>
        <time>2022-08-27T16:51:41Z</time>
      </trkpt>
      <trkpt lat="45.91974" lon="7.10056">
        <ele>2007</ele>
        <time>2022-08-27T16:51:42Z</time>
      </trkpt>
      <trkpt lat="45.91972" lon="7.10057">
        <ele>2007</ele>
        <time>2022-08-27T16:51:43Z</time>
      </trkpt>
      <trkpt lat="45.91971" lon="7.10059">
        <ele>2006</ele>
        <time>2022-08-27T16:51:45Z</time>
      </trkpt>
      <trkpt lat="45.91969" lon="7.10062">
        <ele>2006</ele>
        <time>2022-08-27T16:51:46Z</time>
      </trkpt>
      <trkpt lat="45.91967" lon="7.10065">
        <ele>2006</ele>
        <time>2022-08-27T16:51:48Z</time>
      </trkpt>
      <trkpt lat="45.91965" lon="7.10068">
        <ele>2005</ele>
        <time>2022-08-27T16:51:50Z</time>
      </trkpt>
      <trkpt lat="45.91963" lon="7.10071">
        <ele>2005</ele>
        <time>2022-08-27T16:51:53Z</time>
      </trkpt>
      <trkpt lat="45.91962" lon="7.10074">
        <ele>2005</ele>
        <time>2022-08-27T16:51:54Z</time>
      </trkpt>
      <trkpt lat="45.91961" lon="7.10077">
        <ele>2005</ele>
        <time>2022-08-27T16:51:56Z</time>
      </trkpt>
      <trkpt lat="45.9196" lon="7.10081">
        <ele>2004</ele>
        <time>2022-08-27T16:51:59Z</time>
      </trkpt>
      <trkpt lat="45.91959" lon="7.10084">
        <ele>2004</ele>
        <time>2022-08-27T16:52:00Z</time>
      </trkpt>
      <trkpt lat="45.91958" lon="7.10087">
        <ele>2004</ele>
        <time>2022-08-27T16:52:02Z</time>
      </trkpt>
      <trkpt lat="45.91956" lon="7.10091">
        <ele>2004</ele>
        <time>2022-08-27T16:52:04Z</time>
      </trkpt>
      <trkpt lat="45.91955" lon="7.10094">
        <ele>2004</ele>
        <time>2022-08-27T16:52:06Z</time>
      </trkpt>
      <trkpt lat="45.91954" lon="7.10097">
        <ele>2004</ele>
        <time>2022-08-27T16:52:08Z</time>
      </trkpt>
      <trkpt lat="45.91952" lon="7.101">
        <ele>2004</ele>
        <time>2022-08-27T16:52:10Z</time>
      </trkpt>
      <trkpt lat="45.9195" lon="7.10103">
        <ele>2004</ele>
        <time>2022-08-27T16:52:12Z</time>
      </trkpt>
      <trkpt lat="45.91949" lon="7.10106">
        <ele>2004</ele>
        <time>2022-08-27T16:52:14Z</time>
      </trkpt>
      <trkpt lat="45.91948" lon="7.10109">
        <ele>2004</ele>
        <time>2022-08-27T16:52:16Z</time>
      </trkpt>
      <trkpt lat="45.91948" lon="7.10112">
        <ele>2004</ele>
        <time>2022-08-27T16:52:18Z</time>
      </trkpt>
      <trkpt lat="45.91947" lon="7.10116">
        <ele>2004</ele>
        <time>2022-08-27T16:52:20Z</time>
      </trkpt>
      <trkpt lat="45.91947" lon="7.10119">
        <ele>2004</ele>
        <time>2022-08-27T16:52:23Z</time>
      </trkpt>
      <trkpt lat="45.91947" lon="7.10122">
        <ele>2004</ele>
        <time>2022-08-27T16:52:24Z</time>
      </trkpt>
      <trkpt lat="45.91947" lon="7.10125">
        <ele>2003</ele>
        <time>2022-08-27T16:52:26Z</time>
      </trkpt>
      <trkpt lat="45.91947" lon="7.10128">
        <ele>2002</ele>
        <time>2022-08-27T16:52:28Z</time>
      </trkpt>
      <trkpt lat="45.91947" lon="7.10131">
        <ele>2002</ele>
        <time>2022-08-27T16:52:30Z</time>
      </trkpt>
      <trkpt lat="45.91948" lon="7.10134">
        <ele>2001</ele>
        <time>2022-08-27T16:52:33Z</time>
      </trkpt>
      <trkpt lat="45.91948" lon="7.10138">
        <ele>2001</ele>
        <time>2022-08-27T16:52:34Z</time>
      </trkpt>
      <trkpt lat="45.9195" lon="7.10141">
        <ele>2001</ele>
        <time>2022-08-27T16:52:36Z</time>
      </trkpt>
      <trkpt lat="45.91951" lon="7.10144">
        <ele>2000</ele>
        <time>2022-08-27T16:52:38Z</time>
      </trkpt>
      <trkpt lat="45.91953" lon="7.10146">
        <ele>2000</ele>
        <time>2022-08-27T16:52:40Z</time>
      </trkpt>
      <trkpt lat="45.91956" lon="7.10148">
        <ele>2000</ele>
        <time>2022-08-27T16:52:42Z</time>
      </trkpt>
      <trkpt lat="45.91958" lon="7.1015">
        <ele>2000</ele>
        <time>2022-08-27T16:52:44Z</time>
      </trkpt>
      <trkpt lat="45.91961" lon="7.10151">
        <ele>2000</ele>
        <time>2022-08-27T16:52:46Z</time>
      </trkpt>
      <trkpt lat="45.91963" lon="7.10151">
        <ele>2000</ele>
        <time>2022-08-27T16:52:48Z</time>
      </trkpt>
      <trkpt lat="45.91966" lon="7.10151">
        <ele>1999</ele>
        <time>2022-08-27T16:52:50Z</time>
      </trkpt>
      <trkpt lat="45.91969" lon="7.10151">
        <ele>1999</ele>
        <time>2022-08-27T16:52:52Z</time>
      </trkpt>
      <trkpt lat="45.91971" lon="7.1015">
        <ele>1998</ele>
        <time>2022-08-27T16:52:54Z</time>
      </trkpt>
      <trkpt lat="45.91974" lon="7.10149">
        <ele>1998</ele>
        <time>2022-08-27T16:52:56Z</time>
      </trkpt>
      <trkpt lat="45.91977" lon="7.10149">
        <ele>1998</ele>
        <time>2022-08-27T16:52:59Z</time>
      </trkpt>
      <trkpt lat="45.9198" lon="7.10147">
        <ele>1998</ele>
        <time>2022-08-27T16:53:00Z</time>
      </trkpt>
      <trkpt lat="45.91983" lon="7.10146">
        <ele>1998</ele>
        <time>2022-08-27T16:53:02Z</time>
      </trkpt>
      <trkpt lat="45.91986" lon="7.10144">
        <ele>1998</ele>
        <time>2022-08-27T16:53:04Z</time>
      </trkpt>
      <trkpt lat="45.91988" lon="7.10142">
        <ele>1998</ele>
        <time>2022-08-27T16:53:07Z</time>
      </trkpt>
      <trkpt lat="45.91991" lon="7.1014">
        <ele>1998</ele>
        <time>2022-08-27T16:53:08Z</time>
      </trkpt>
      <trkpt lat="45.91993" lon="7.10138">
        <ele>1998</ele>
        <time>2022-08-27T16:53:10Z</time>
      </trkpt>
      <trkpt lat="45.91995" lon="7.10136">
        <ele>1997</ele>
        <time>2022-08-27T16:53:12Z</time>
      </trkpt>
      <trkpt lat="45.91997" lon="7.10134">
        <ele>1995</ele>
        <time>2022-08-27T16:53:15Z</time>
      </trkpt>
      <trkpt lat="45.92" lon="7.10131">
        <ele>1995</ele>
        <time>2022-08-27T16:53:16Z</time>
      </trkpt>
      <trkpt lat="45.92002" lon="7.10129">
        <ele>1995</ele>
        <time>2022-08-27T16:53:18Z</time>
      </trkpt>
      <trkpt lat="45.92005" lon="7.10127">
        <ele>1994</ele>
        <time>2022-08-27T16:53:20Z</time>
      </trkpt>
      <trkpt lat="45.92007" lon="7.10124">
        <ele>1994</ele>
        <time>2022-08-27T16:53:22Z</time>
      </trkpt>
      <trkpt lat="45.92009" lon="7.10122">
        <ele>1992</ele>
        <time>2022-08-27T16:53:24Z</time>
      </trkpt>
      <trkpt lat="45.92012" lon="7.10119">
        <ele>1992</ele>
        <time>2022-08-27T16:53:26Z</time>
      </trkpt>
      <trkpt lat="45.92014" lon="7.10116">
        <ele>1992</ele>
        <time>2022-08-27T16:53:28Z</time>
      </trkpt>
      <trkpt lat="45.92016" lon="7.10114">
        <ele>1992</ele>
        <time>2022-08-27T16:53:30Z</time>
      </trkpt>
      <trkpt lat="45.92018" lon="7.10111">
        <ele>1992</ele>
        <time>2022-08-27T16:53:32Z</time>
      </trkpt>
      <trkpt lat="45.9202" lon="7.10109">
        <ele>1992</ele>
        <time>2022-08-27T16:53:34Z</time>
      </trkpt>
      <trkpt lat="45.92022" lon="7.10107">
        <ele>1992</ele>
        <time>2022-08-27T16:53:36Z</time>
      </trkpt>
      <trkpt lat="45.92024" lon="7.10104">
        <ele>1991</ele>
        <time>2022-08-27T16:53:39Z</time>
      </trkpt>
      <trkpt lat="45.92027" lon="7.10101">
        <ele>1991</ele>
        <time>2022-08-27T16:53:40Z</time>
      </trkpt>
      <trkpt lat="45.92028" lon="7.10099">
        <ele>1991</ele>
        <time>2022-08-27T16:53:42Z</time>
      </trkpt>
      <trkpt lat="45.9203" lon="7.10097">
        <ele>1991</ele>
        <time>2022-08-27T16:53:44Z</time>
      </trkpt>
      <trkpt lat="45.92031" lon="7.10095">
        <ele>1991</ele>
        <time>2022-08-27T16:53:46Z</time>
      </trkpt>
      <trkpt lat="45.92033" lon="7.10092">
        <ele>1991</ele>
        <time>2022-08-27T16:53:48Z</time>
      </trkpt>
      <trkpt lat="45.92035" lon="7.1009">
        <ele>1991</ele>
        <time>2022-08-27T16:53:50Z</time>
      </trkpt>
      <trkpt lat="45.92036" lon="7.10087">
        <ele>1991</ele>
        <time>2022-08-27T16:53:52Z</time>
      </trkpt>
      <trkpt lat="45.92039" lon="7.10084">
        <ele>1991</ele>
        <time>2022-08-27T16:53:54Z</time>
      </trkpt>
      <trkpt lat="45.9204" lon="7.10081">
        <ele>1991</ele>
        <time>2022-08-27T16:53:56Z</time>
      </trkpt>
      <trkpt lat="45.92042" lon="7.10078">
        <ele>1991</ele>
        <time>2022-08-27T16:53:58Z</time>
      </trkpt>
      <trkpt lat="45.92044" lon="7.10076">
        <ele>1990</ele>
        <time>2022-08-27T16:54:00Z</time>
      </trkpt>
      <trkpt lat="45.92047" lon="7.10073">
        <ele>1990</ele>
        <time>2022-08-27T16:54:02Z</time>
      </trkpt>
      <trkpt lat="45.92049" lon="7.10072">
        <ele>1990</ele>
        <time>2022-08-27T16:54:04Z</time>
      </trkpt>
      <trkpt lat="45.92052" lon="7.10071">
        <ele>1990</ele>
        <time>2022-08-27T16:54:06Z</time>
      </trkpt>
      <trkpt lat="45.92055" lon="7.10072">
        <ele>1990</ele>
        <time>2022-08-27T16:54:08Z</time>
      </trkpt>
      <trkpt lat="45.92058" lon="7.10071">
        <ele>1990</ele>
        <time>2022-08-27T16:54:10Z</time>
      </trkpt>
      <trkpt lat="45.9206" lon="7.10069">
        <ele>1990</ele>
        <time>2022-08-27T16:54:12Z</time>
      </trkpt>
      <trkpt lat="45.92063" lon="7.10068">
        <ele>1989</ele>
        <time>2022-08-27T16:54:14Z</time>
      </trkpt>
      <trkpt lat="45.92066" lon="7.10068">
        <ele>1989</ele>
        <time>2022-08-27T16:54:16Z</time>
      </trkpt>
      <trkpt lat="45.92069" lon="7.10067">
        <ele>1989</ele>
        <time>2022-08-27T16:54:18Z</time>
      </trkpt>
      <trkpt lat="45.92071" lon="7.10066">
        <ele>1986</ele>
        <time>2022-08-27T16:54:20Z</time>
      </trkpt>
      <trkpt lat="45.92073" lon="7.10065">
        <ele>1986</ele>
        <time>2022-08-27T16:54:22Z</time>
      </trkpt>
      <trkpt lat="45.92075" lon="7.10064">
        <ele>1985</ele>
        <time>2022-08-27T16:54:24Z</time>
      </trkpt>
      <trkpt lat="45.92077" lon="7.10064">
        <ele>1985</ele>
        <time>2022-08-27T16:54:27Z</time>
      </trkpt>
      <trkpt lat="45.9208" lon="7.10064">
        <ele>1985</ele>
        <time>2022-08-27T16:54:28Z</time>
      </trkpt>
      <trkpt lat="45.92082" lon="7.10064">
        <ele>1985</ele>
        <time>2022-08-27T16:54:30Z</time>
      </trkpt>
      <trkpt lat="45.92085" lon="7.10063">
        <ele>1985</ele>
        <time>2022-08-27T16:54:32Z</time>
      </trkpt>
      <trkpt lat="45.92092" lon="7.10062">
        <ele>1985</ele>
        <time>2022-08-27T16:54:36Z</time>
      </trkpt>
      <trkpt lat="45.92094" lon="7.10061">
        <ele>1985</ele>
        <time>2022-08-27T16:54:37Z</time>
      </trkpt>
      <trkpt lat="45.92095" lon="7.1006">
        <ele>1985</ele>
        <time>2022-08-27T16:54:38Z</time>
      </trkpt>
      <trkpt lat="45.92097" lon="7.10059">
        <ele>1985</ele>
        <time>2022-08-27T16:54:39Z</time>
      </trkpt>
      <trkpt lat="45.921" lon="7.10058">
        <ele>1985</ele>
        <time>2022-08-27T16:54:41Z</time>
      </trkpt>
      <trkpt lat="45.92103" lon="7.10057">
        <ele>1985</ele>
        <time>2022-08-27T16:54:43Z</time>
      </trkpt>
      <trkpt lat="45.92104" lon="7.10057">
        <ele>1984</ele>
        <time>2022-08-27T16:54:44Z</time>
      </trkpt>
      <trkpt lat="45.92105" lon="7.10056">
        <ele>1984</ele>
        <time>2022-08-27T16:54:45Z</time>
      </trkpt>
      <trkpt lat="45.92107" lon="7.10056">
        <ele>1984</ele>
        <time>2022-08-27T16:54:47Z</time>
      </trkpt>
      <trkpt lat="45.92108" lon="7.10056">
        <ele>1984</ele>
        <time>2022-08-27T16:54:48Z</time>
      </trkpt>
      <trkpt lat="45.9211" lon="7.10055">
        <ele>1984</ele>
        <time>2022-08-27T16:54:50Z</time>
      </trkpt>
      <trkpt lat="45.92113" lon="7.10054">
        <ele>1984</ele>
        <time>2022-08-27T16:54:51Z</time>
      </trkpt>
      <trkpt lat="45.92116" lon="7.10053">
        <ele>1984</ele>
        <time>2022-08-27T16:54:53Z</time>
      </trkpt>
      <trkpt lat="45.92119" lon="7.10052">
        <ele>1984</ele>
        <time>2022-08-27T16:54:55Z</time>
      </trkpt>
      <trkpt lat="45.92121" lon="7.10051">
        <ele>1984</ele>
        <time>2022-08-27T16:54:57Z</time>
      </trkpt>
      <trkpt lat="45.92123" lon="7.1005">
        <ele>1984</ele>
        <time>2022-08-27T16:54:59Z</time>
      </trkpt>
      <trkpt lat="45.92126" lon="7.1005">
        <ele>1984</ele>
        <time>2022-08-27T16:55:01Z</time>
      </trkpt>
      <trkpt lat="45.92129" lon="7.1005">
        <ele>1984</ele>
        <time>2022-08-27T16:55:04Z</time>
      </trkpt>
      <trkpt lat="45.92132" lon="7.10049">
        <ele>1984</ele>
        <time>2022-08-27T16:55:06Z</time>
      </trkpt>
      <trkpt lat="45.92134" lon="7.10049">
        <ele>1984</ele>
        <time>2022-08-27T16:55:07Z</time>
      </trkpt>
      <trkpt lat="45.92137" lon="7.10048">
        <ele>1984</ele>
        <time>2022-08-27T16:55:10Z</time>
      </trkpt>
      <trkpt lat="45.92138" lon="7.10046">
        <ele>1983</ele>
        <time>2022-08-27T16:55:12Z</time>
      </trkpt>
      <trkpt lat="45.9214" lon="7.10046">
        <ele>1983</ele>
        <time>2022-08-27T16:55:14Z</time>
      </trkpt>
      <trkpt lat="45.92143" lon="7.10046">
        <ele>1983</ele>
        <time>2022-08-27T16:55:16Z</time>
      </trkpt>
      <trkpt lat="45.92145" lon="7.10045">
        <ele>1983</ele>
        <time>2022-08-27T16:55:18Z</time>
      </trkpt>
      <trkpt lat="45.92148" lon="7.10044">
        <ele>1983</ele>
        <time>2022-08-27T16:55:20Z</time>
      </trkpt>
      <trkpt lat="45.9215" lon="7.10043">
        <ele>1983</ele>
        <time>2022-08-27T16:55:21Z</time>
      </trkpt>
      <trkpt lat="45.92153" lon="7.10043">
        <ele>1982</ele>
        <time>2022-08-27T16:55:23Z</time>
      </trkpt>
      <trkpt lat="45.92157" lon="7.10043">
        <ele>1982</ele>
        <time>2022-08-27T16:55:25Z</time>
      </trkpt>
      <trkpt lat="45.9216" lon="7.10042">
        <ele>1982</ele>
        <time>2022-08-27T16:55:28Z</time>
      </trkpt>
      <trkpt lat="45.92162" lon="7.10041">
        <ele>1982</ele>
        <time>2022-08-27T16:55:29Z</time>
      </trkpt>
      <trkpt lat="45.92165" lon="7.1004">
        <ele>1982</ele>
        <time>2022-08-27T16:55:31Z</time>
      </trkpt>
      <trkpt lat="45.92167" lon="7.10038">
        <ele>1982</ele>
        <time>2022-08-27T16:55:33Z</time>
      </trkpt>
      <trkpt lat="45.9217" lon="7.10037">
        <ele>1982</ele>
        <time>2022-08-27T16:55:35Z</time>
      </trkpt>
      <trkpt lat="45.92172" lon="7.10035">
        <ele>1982</ele>
        <time>2022-08-27T16:55:37Z</time>
      </trkpt>
      <trkpt lat="45.92175" lon="7.10035">
        <ele>1982</ele>
        <time>2022-08-27T16:55:39Z</time>
      </trkpt>
      <trkpt lat="45.92178" lon="7.10034">
        <ele>1981</ele>
        <time>2022-08-27T16:55:41Z</time>
      </trkpt>
      <trkpt lat="45.9218" lon="7.10033">
        <ele>1981</ele>
        <time>2022-08-27T16:55:43Z</time>
      </trkpt>
      <trkpt lat="45.92182" lon="7.10031">
        <ele>1981</ele>
        <time>2022-08-27T16:55:45Z</time>
      </trkpt>
      <trkpt lat="45.92183" lon="7.1003">
        <ele>1981</ele>
        <time>2022-08-27T16:55:46Z</time>
      </trkpt>
      <trkpt lat="45.92184" lon="7.10028">
        <ele>1980</ele>
        <time>2022-08-27T16:55:47Z</time>
      </trkpt>
      <trkpt lat="45.92186" lon="7.10025">
        <ele>1980</ele>
        <time>2022-08-27T16:55:49Z</time>
      </trkpt>
      <trkpt lat="45.92188" lon="7.10022">
        <ele>1980</ele>
        <time>2022-08-27T16:55:51Z</time>
      </trkpt>
      <trkpt lat="45.92191" lon="7.10019">
        <ele>1980</ele>
        <time>2022-08-27T16:55:53Z</time>
      </trkpt>
      <trkpt lat="45.92193" lon="7.10017">
        <ele>1980</ele>
        <time>2022-08-27T16:55:55Z</time>
      </trkpt>
      <trkpt lat="45.92195" lon="7.10015">
        <ele>1980</ele>
        <time>2022-08-27T16:55:57Z</time>
      </trkpt>
      <trkpt lat="45.92197" lon="7.10013">
        <ele>1980</ele>
        <time>2022-08-27T16:55:59Z</time>
      </trkpt>
      <trkpt lat="45.922" lon="7.10011">
        <ele>1980</ele>
        <time>2022-08-27T16:56:01Z</time>
      </trkpt>
      <trkpt lat="45.92202" lon="7.10009">
        <ele>1980</ele>
        <time>2022-08-27T16:56:04Z</time>
      </trkpt>
      <trkpt lat="45.92204" lon="7.10007">
        <ele>1980</ele>
        <time>2022-08-27T16:56:06Z</time>
      </trkpt>
      <trkpt lat="45.92206" lon="7.10005">
        <ele>1979</ele>
        <time>2022-08-27T16:56:07Z</time>
      </trkpt>
      <trkpt lat="45.92209" lon="7.10003">
        <ele>1979</ele>
        <time>2022-08-27T16:56:09Z</time>
      </trkpt>
      <trkpt lat="45.92213" lon="7.10002">
        <ele>1979</ele>
        <time>2022-08-27T16:56:11Z</time>
      </trkpt>
      <trkpt lat="45.92214" lon="7.10001">
        <ele>1979</ele>
        <time>2022-08-27T16:56:12Z</time>
      </trkpt>
      <trkpt lat="45.92215" lon="7.10001">
        <ele>1979</ele>
        <time>2022-08-27T16:56:13Z</time>
      </trkpt>
      <trkpt lat="45.92216" lon="7.1">
        <ele>1979</ele>
        <time>2022-08-27T16:56:14Z</time>
      </trkpt>
      <trkpt lat="45.9222" lon="7.09998">
        <ele>1979</ele>
        <time>2022-08-27T16:56:16Z</time>
      </trkpt>
      <trkpt lat="45.92221" lon="7.09997">
        <ele>1979</ele>
        <time>2022-08-27T16:56:18Z</time>
      </trkpt>
      <trkpt lat="45.92223" lon="7.09997">
        <ele>1979</ele>
        <time>2022-08-27T16:56:19Z</time>
      </trkpt>
      <trkpt lat="45.92225" lon="7.09995">
        <ele>1979</ele>
        <time>2022-08-27T16:56:21Z</time>
      </trkpt>
      <trkpt lat="45.92228" lon="7.09993">
        <ele>1979</ele>
        <time>2022-08-27T16:56:23Z</time>
      </trkpt>
      <trkpt lat="45.9223" lon="7.09991">
        <ele>1979</ele>
        <time>2022-08-27T16:56:24Z</time>
      </trkpt>
      <trkpt lat="45.92233" lon="7.09988">
        <ele>1978</ele>
        <time>2022-08-27T16:56:26Z</time>
      </trkpt>
      <trkpt lat="45.92236" lon="7.09986">
        <ele>1978</ele>
        <time>2022-08-27T16:56:28Z</time>
      </trkpt>
      <trkpt lat="45.92238" lon="7.09984">
        <ele>1978</ele>
        <time>2022-08-27T16:56:30Z</time>
      </trkpt>
      <trkpt lat="45.92239" lon="7.09983">
        <ele>1978</ele>
        <time>2022-08-27T16:56:31Z</time>
      </trkpt>
      <trkpt lat="45.92241" lon="7.09981">
        <ele>1978</ele>
        <time>2022-08-27T16:56:32Z</time>
      </trkpt>
      <trkpt lat="45.92243" lon="7.09979">
        <ele>1977</ele>
        <time>2022-08-27T16:56:34Z</time>
      </trkpt>
      <trkpt lat="45.92245" lon="7.09976">
        <ele>1977</ele>
        <time>2022-08-27T16:56:36Z</time>
      </trkpt>
      <trkpt lat="45.92248" lon="7.09974">
        <ele>1977</ele>
        <time>2022-08-27T16:56:39Z</time>
      </trkpt>
      <trkpt lat="45.9225" lon="7.09972">
        <ele>1977</ele>
        <time>2022-08-27T16:56:40Z</time>
      </trkpt>
      <trkpt lat="45.92252" lon="7.09969">
        <ele>1977</ele>
        <time>2022-08-27T16:56:42Z</time>
      </trkpt>
      <trkpt lat="45.92253" lon="7.09967">
        <ele>1977</ele>
        <time>2022-08-27T16:56:44Z</time>
      </trkpt>
      <trkpt lat="45.92255" lon="7.09965">
        <ele>1977</ele>
        <time>2022-08-27T16:56:47Z</time>
      </trkpt>
      <trkpt lat="45.92256" lon="7.09962">
        <ele>1977</ele>
        <time>2022-08-27T16:56:48Z</time>
      </trkpt>
      <trkpt lat="45.92258" lon="7.09959">
        <ele>1977</ele>
        <time>2022-08-27T16:56:50Z</time>
      </trkpt>
      <trkpt lat="45.9226" lon="7.09955">
        <ele>1976</ele>
        <time>2022-08-27T16:56:52Z</time>
      </trkpt>
      <trkpt lat="45.92269" lon="7.09947">
        <ele>1976</ele>
        <time>2022-08-27T16:56:59Z</time>
      </trkpt>
      <trkpt lat="45.9227" lon="7.09946">
        <ele>1976</ele>
        <time>2022-08-27T16:57:01Z</time>
      </trkpt>
      <trkpt lat="45.92271" lon="7.09945">
        <ele>1976</ele>
        <time>2022-08-27T16:57:02Z</time>
      </trkpt>
      <trkpt lat="45.92272" lon="7.09944">
        <ele>1976</ele>
        <time>2022-08-27T16:57:03Z</time>
      </trkpt>
      <trkpt lat="45.92273" lon="7.09942">
        <ele>1976</ele>
        <time>2022-08-27T16:57:04Z</time>
      </trkpt>
      <trkpt lat="45.92274" lon="7.09941">
        <ele>1976</ele>
        <time>2022-08-27T16:57:05Z</time>
      </trkpt>
      <trkpt lat="45.92277" lon="7.09939">
        <ele>1976</ele>
        <time>2022-08-27T16:57:06Z</time>
      </trkpt>
      <trkpt lat="45.92279" lon="7.09938">
        <ele>1976</ele>
        <time>2022-08-27T16:57:08Z</time>
      </trkpt>
      <trkpt lat="45.92282" lon="7.09935">
        <ele>1975</ele>
        <time>2022-08-27T16:57:10Z</time>
      </trkpt>
      <trkpt lat="45.92284" lon="7.09933">
        <ele>1975</ele>
        <time>2022-08-27T16:57:12Z</time>
      </trkpt>
      <trkpt lat="45.92286" lon="7.0993">
        <ele>1975</ele>
        <time>2022-08-27T16:57:14Z</time>
      </trkpt>
      <trkpt lat="45.92288" lon="7.09927">
        <ele>1975</ele>
        <time>2022-08-27T16:57:16Z</time>
      </trkpt>
      <trkpt lat="45.9229" lon="7.09924">
        <ele>1975</ele>
        <time>2022-08-27T16:57:18Z</time>
      </trkpt>
      <trkpt lat="45.92292" lon="7.09921">
        <ele>1975</ele>
        <time>2022-08-27T16:57:20Z</time>
      </trkpt>
      <trkpt lat="45.92293" lon="7.09919">
        <ele>1974</ele>
        <time>2022-08-27T16:57:22Z</time>
      </trkpt>
      <trkpt lat="45.92296" lon="7.09916">
        <ele>1974</ele>
        <time>2022-08-27T16:57:24Z</time>
      </trkpt>
      <trkpt lat="45.92299" lon="7.09915">
        <ele>1974</ele>
        <time>2022-08-27T16:57:26Z</time>
      </trkpt>
      <trkpt lat="45.92301" lon="7.09912">
        <ele>1973</ele>
        <time>2022-08-27T16:57:28Z</time>
      </trkpt>
      <trkpt lat="45.92303" lon="7.0991">
        <ele>1973</ele>
        <time>2022-08-27T16:57:30Z</time>
      </trkpt>
      <trkpt lat="45.92305" lon="7.09906">
        <ele>1973</ele>
        <time>2022-08-27T16:57:32Z</time>
      </trkpt>
      <trkpt lat="45.92308" lon="7.09903">
        <ele>1973</ele>
        <time>2022-08-27T16:57:34Z</time>
      </trkpt>
      <trkpt lat="45.92311" lon="7.099">
        <ele>1972</ele>
        <time>2022-08-27T16:57:37Z</time>
      </trkpt>
      <trkpt lat="45.92313" lon="7.09897">
        <ele>1972</ele>
        <time>2022-08-27T16:57:38Z</time>
      </trkpt>
      <trkpt lat="45.92315" lon="7.09894">
        <ele>1972</ele>
        <time>2022-08-27T16:57:40Z</time>
      </trkpt>
      <trkpt lat="45.92317" lon="7.09891">
        <ele>1972</ele>
        <time>2022-08-27T16:57:42Z</time>
      </trkpt>
      <trkpt lat="45.92319" lon="7.09888">
        <ele>1972</ele>
        <time>2022-08-27T16:57:44Z</time>
      </trkpt>
      <trkpt lat="45.92321" lon="7.09885">
        <ele>1972</ele>
        <time>2022-08-27T16:57:46Z</time>
      </trkpt>
      <trkpt lat="45.92323" lon="7.09882">
        <ele>1972</ele>
        <time>2022-08-27T16:57:48Z</time>
      </trkpt>
      <trkpt lat="45.92325" lon="7.09879">
        <ele>1972</ele>
        <time>2022-08-27T16:57:50Z</time>
      </trkpt>
      <trkpt lat="45.92327" lon="7.09877">
        <ele>1971</ele>
        <time>2022-08-27T16:57:52Z</time>
      </trkpt>
      <trkpt lat="45.92328" lon="7.09874">
        <ele>1971</ele>
        <time>2022-08-27T16:57:54Z</time>
      </trkpt>
      <trkpt lat="45.92331" lon="7.09871">
        <ele>1970</ele>
        <time>2022-08-27T16:57:56Z</time>
      </trkpt>
      <trkpt lat="45.92333" lon="7.09867">
        <ele>1970</ele>
        <time>2022-08-27T16:57:58Z</time>
      </trkpt>
      <trkpt lat="45.92335" lon="7.09865">
        <ele>1970</ele>
        <time>2022-08-27T16:57:59Z</time>
      </trkpt>
      <trkpt lat="45.92336" lon="7.09863">
        <ele>1969</ele>
        <time>2022-08-27T16:58:00Z</time>
      </trkpt>
      <trkpt lat="45.92338" lon="7.09861">
        <ele>1969</ele>
        <time>2022-08-27T16:58:01Z</time>
      </trkpt>
      <trkpt lat="45.9234" lon="7.09859">
        <ele>1969</ele>
        <time>2022-08-27T16:58:02Z</time>
      </trkpt>
      <trkpt lat="45.92341" lon="7.09857">
        <ele>1969</ele>
        <time>2022-08-27T16:58:03Z</time>
      </trkpt>
      <trkpt lat="45.92343" lon="7.09855">
        <ele>1969</ele>
        <time>2022-08-27T16:58:04Z</time>
      </trkpt>
      <trkpt lat="45.92344" lon="7.09853">
        <ele>1969</ele>
        <time>2022-08-27T16:58:05Z</time>
      </trkpt>
      <trkpt lat="45.92346" lon="7.09851">
        <ele>1969</ele>
        <time>2022-08-27T16:58:06Z</time>
      </trkpt>
      <trkpt lat="45.92347" lon="7.09849">
        <ele>1969</ele>
        <time>2022-08-27T16:58:07Z</time>
      </trkpt>
      <trkpt lat="45.92349" lon="7.09846">
        <ele>1969</ele>
        <time>2022-08-27T16:58:08Z</time>
      </trkpt>
      <trkpt lat="45.9235" lon="7.09845">
        <ele>1969</ele>
        <time>2022-08-27T16:58:09Z</time>
      </trkpt>
      <trkpt lat="45.92352" lon="7.09843">
        <ele>1969</ele>
        <time>2022-08-27T16:58:10Z</time>
      </trkpt>
      <trkpt lat="45.92353" lon="7.09841">
        <ele>1969</ele>
        <time>2022-08-27T16:58:11Z</time>
      </trkpt>
      <trkpt lat="45.92355" lon="7.09838">
        <ele>1969</ele>
        <time>2022-08-27T16:58:12Z</time>
      </trkpt>
      <trkpt lat="45.92356" lon="7.09836">
        <ele>1969</ele>
        <time>2022-08-27T16:58:13Z</time>
      </trkpt>
      <trkpt lat="45.92357" lon="7.09833">
        <ele>1969</ele>
        <time>2022-08-27T16:58:14Z</time>
      </trkpt>
      <trkpt lat="45.92358" lon="7.0983">
        <ele>1969</ele>
        <time>2022-08-27T16:58:15Z</time>
      </trkpt>
      <trkpt lat="45.9236" lon="7.09829">
        <ele>1969</ele>
        <time>2022-08-27T16:58:16Z</time>
      </trkpt>
      <trkpt lat="45.92361" lon="7.09826">
        <ele>1969</ele>
        <time>2022-08-27T16:58:17Z</time>
      </trkpt>
      <trkpt lat="45.92362" lon="7.09824">
        <ele>1968</ele>
        <time>2022-08-27T16:58:19Z</time>
      </trkpt>
      <trkpt lat="45.92364" lon="7.0982">
        <ele>1968</ele>
        <time>2022-08-27T16:58:20Z</time>
      </trkpt>
      <trkpt lat="45.92367" lon="7.09817">
        <ele>1968</ele>
        <time>2022-08-27T16:58:22Z</time>
      </trkpt>
      <trkpt lat="45.92369" lon="7.09814">
        <ele>1968</ele>
        <time>2022-08-27T16:58:23Z</time>
      </trkpt>
      <trkpt lat="45.9237" lon="7.09813">
        <ele>1968</ele>
        <time>2022-08-27T16:58:24Z</time>
      </trkpt>
      <trkpt lat="45.92372" lon="7.0981">
        <ele>1968</ele>
        <time>2022-08-27T16:58:26Z</time>
      </trkpt>
      <trkpt lat="45.92373" lon="7.09806">
        <ele>1968</ele>
        <time>2022-08-27T16:58:28Z</time>
      </trkpt>
      <trkpt lat="45.92376" lon="7.09805">
        <ele>1968</ele>
        <time>2022-08-27T16:58:30Z</time>
      </trkpt>
      <trkpt lat="45.92378" lon="7.09803">
        <ele>1968</ele>
        <time>2022-08-27T16:58:32Z</time>
      </trkpt>
      <trkpt lat="45.9238" lon="7.098">
        <ele>1967</ele>
        <time>2022-08-27T16:58:34Z</time>
      </trkpt>
      <trkpt lat="45.92382" lon="7.09798">
        <ele>1967</ele>
        <time>2022-08-27T16:58:36Z</time>
      </trkpt>
      <trkpt lat="45.92384" lon="7.09795">
        <ele>1967</ele>
        <time>2022-08-27T16:58:38Z</time>
      </trkpt>
      <trkpt lat="45.92386" lon="7.09793">
        <ele>1967</ele>
        <time>2022-08-27T16:58:40Z</time>
      </trkpt>
      <trkpt lat="45.92389" lon="7.09791">
        <ele>1967</ele>
        <time>2022-08-27T16:58:42Z</time>
      </trkpt>
      <trkpt lat="45.92391" lon="7.09788">
        <ele>1967</ele>
        <time>2022-08-27T16:58:44Z</time>
      </trkpt>
      <trkpt lat="45.92394" lon="7.09786">
        <ele>1967</ele>
        <time>2022-08-27T16:58:46Z</time>
      </trkpt>
      <trkpt lat="45.92397" lon="7.09783">
        <ele>1967</ele>
        <time>2022-08-27T16:58:48Z</time>
      </trkpt>
      <trkpt lat="45.92398" lon="7.09781">
        <ele>1967</ele>
        <time>2022-08-27T16:58:49Z</time>
      </trkpt>
      <trkpt lat="45.924" lon="7.09778">
        <ele>1967</ele>
        <time>2022-08-27T16:58:51Z</time>
      </trkpt>
      <trkpt lat="45.92402" lon="7.09775">
        <ele>1967</ele>
        <time>2022-08-27T16:58:53Z</time>
      </trkpt>
      <trkpt lat="45.92405" lon="7.09773">
        <ele>1967</ele>
        <time>2022-08-27T16:58:55Z</time>
      </trkpt>
      <trkpt lat="45.92407" lon="7.09771">
        <ele>1967</ele>
        <time>2022-08-27T16:58:57Z</time>
      </trkpt>
      <trkpt lat="45.92409" lon="7.09769">
        <ele>1967</ele>
        <time>2022-08-27T16:58:59Z</time>
      </trkpt>
      <trkpt lat="45.92411" lon="7.09768">
        <ele>1967</ele>
        <time>2022-08-27T16:59:01Z</time>
      </trkpt>
      <trkpt lat="45.92414" lon="7.09767">
        <ele>1966</ele>
        <time>2022-08-27T16:59:03Z</time>
      </trkpt>
      <trkpt lat="45.92417" lon="7.09765">
        <ele>1966</ele>
        <time>2022-08-27T16:59:05Z</time>
      </trkpt>
      <trkpt lat="45.9242" lon="7.09764">
        <ele>1966</ele>
        <time>2022-08-27T16:59:07Z</time>
      </trkpt>
      <trkpt lat="45.92422" lon="7.09762">
        <ele>1966</ele>
        <time>2022-08-27T16:59:09Z</time>
      </trkpt>
      <trkpt lat="45.92424" lon="7.09761">
        <ele>1965</ele>
        <time>2022-08-27T16:59:11Z</time>
      </trkpt>
      <trkpt lat="45.92426" lon="7.0976">
        <ele>1965</ele>
        <time>2022-08-27T16:59:12Z</time>
      </trkpt>
      <trkpt lat="45.92428" lon="7.09759">
        <ele>1965</ele>
        <time>2022-08-27T16:59:14Z</time>
      </trkpt>
      <trkpt lat="45.92429" lon="7.09758">
        <ele>1965</ele>
        <time>2022-08-27T16:59:15Z</time>
      </trkpt>
      <trkpt lat="45.92432" lon="7.09756">
        <ele>1964</ele>
        <time>2022-08-27T16:59:18Z</time>
      </trkpt>
      <trkpt lat="45.92434" lon="7.09754">
        <ele>1964</ele>
        <time>2022-08-27T16:59:19Z</time>
      </trkpt>
      <trkpt lat="45.92437" lon="7.09752">
        <ele>1964</ele>
        <time>2022-08-27T16:59:21Z</time>
      </trkpt>
      <trkpt lat="45.92439" lon="7.09749">
        <ele>1964</ele>
        <time>2022-08-27T16:59:23Z</time>
      </trkpt>
      <trkpt lat="45.92441" lon="7.09746">
        <ele>1964</ele>
        <time>2022-08-27T16:59:25Z</time>
      </trkpt>
      <trkpt lat="45.92443" lon="7.09744">
        <ele>1964</ele>
        <time>2022-08-27T16:59:27Z</time>
      </trkpt>
      <trkpt lat="45.92445" lon="7.09742">
        <ele>1964</ele>
        <time>2022-08-27T16:59:29Z</time>
      </trkpt>
      <trkpt lat="45.92447" lon="7.09741">
        <ele>1964</ele>
        <time>2022-08-27T16:59:31Z</time>
      </trkpt>
      <trkpt lat="45.9245" lon="7.0974">
        <ele>1964</ele>
        <time>2022-08-27T16:59:33Z</time>
      </trkpt>
      <trkpt lat="45.92452" lon="7.09738">
        <ele>1964</ele>
        <time>2022-08-27T16:59:35Z</time>
      </trkpt>
      <trkpt lat="45.92455" lon="7.09737">
        <ele>1964</ele>
        <time>2022-08-27T16:59:37Z</time>
      </trkpt>
      <trkpt lat="45.92457" lon="7.09736">
        <ele>1964</ele>
        <time>2022-08-27T16:59:38Z</time>
      </trkpt>
      <trkpt lat="45.92459" lon="7.09736">
        <ele>1964</ele>
        <time>2022-08-27T16:59:39Z</time>
      </trkpt>
      <trkpt lat="45.92462" lon="7.09733">
        <ele>1964</ele>
        <time>2022-08-27T16:59:41Z</time>
      </trkpt>
      <trkpt lat="45.92464" lon="7.09732">
        <ele>1964</ele>
        <time>2022-08-27T16:59:43Z</time>
      </trkpt>
      <trkpt lat="45.92466" lon="7.0973">
        <ele>1963</ele>
        <time>2022-08-27T16:59:45Z</time>
      </trkpt>
      <trkpt lat="45.92468" lon="7.09728">
        <ele>1963</ele>
        <time>2022-08-27T16:59:47Z</time>
      </trkpt>
      <trkpt lat="45.9247" lon="7.09725">
        <ele>1963</ele>
        <time>2022-08-27T16:59:49Z</time>
      </trkpt>
      <trkpt lat="45.92472" lon="7.09722">
        <ele>1963</ele>
        <time>2022-08-27T16:59:51Z</time>
      </trkpt>
      <trkpt lat="45.92475" lon="7.09721">
        <ele>1963</ele>
        <time>2022-08-27T16:59:53Z</time>
      </trkpt>
      <trkpt lat="45.92477" lon="7.09718">
        <ele>1962</ele>
        <time>2022-08-27T16:59:55Z</time>
      </trkpt>
      <trkpt lat="45.92479" lon="7.09716">
        <ele>1962</ele>
        <time>2022-08-27T16:59:57Z</time>
      </trkpt>
      <trkpt lat="45.92482" lon="7.09714">
        <ele>1962</ele>
        <time>2022-08-27T16:59:59Z</time>
      </trkpt>
      <trkpt lat="45.92484" lon="7.09712">
        <ele>1962</ele>
        <time>2022-08-27T17:00:01Z</time>
      </trkpt>
      <trkpt lat="45.92485" lon="7.09709">
        <ele>1962</ele>
        <time>2022-08-27T17:00:03Z</time>
      </trkpt>
      <trkpt lat="45.92488" lon="7.09707">
        <ele>1962</ele>
        <time>2022-08-27T17:00:05Z</time>
      </trkpt>
      <trkpt lat="45.92491" lon="7.09705">
        <ele>1960</ele>
        <time>2022-08-27T17:00:07Z</time>
      </trkpt>
      <trkpt lat="45.92493" lon="7.09703">
        <ele>1960</ele>
        <time>2022-08-27T17:00:09Z</time>
      </trkpt>
      <trkpt lat="45.92494" lon="7.09698">
        <ele>1962</ele>
        <time>2022-08-27T17:00:11Z</time>
      </trkpt>
      <trkpt lat="45.92495" lon="7.09695">
        <ele>1960</ele>
        <time>2022-08-27T17:00:13Z</time>
      </trkpt>
      <trkpt lat="45.92497" lon="7.09692">
        <ele>1960</ele>
        <time>2022-08-27T17:00:15Z</time>
      </trkpt>
      <trkpt lat="45.92499" lon="7.09689">
        <ele>1960</ele>
        <time>2022-08-27T17:00:17Z</time>
      </trkpt>
      <trkpt lat="45.92501" lon="7.09687">
        <ele>1960</ele>
        <time>2022-08-27T17:00:19Z</time>
      </trkpt>
      <trkpt lat="45.92504" lon="7.09684">
        <ele>1960</ele>
        <time>2022-08-27T17:00:21Z</time>
      </trkpt>
      <trkpt lat="45.92507" lon="7.09682">
        <ele>1960</ele>
        <time>2022-08-27T17:00:23Z</time>
      </trkpt>
      <trkpt lat="45.92509" lon="7.09679">
        <ele>1960</ele>
        <time>2022-08-27T17:00:25Z</time>
      </trkpt>
      <trkpt lat="45.92511" lon="7.09677">
        <ele>1960</ele>
        <time>2022-08-27T17:00:27Z</time>
      </trkpt>
      <trkpt lat="45.92513" lon="7.09674">
        <ele>1960</ele>
        <time>2022-08-27T17:00:29Z</time>
      </trkpt>
      <trkpt lat="45.92516" lon="7.09673">
        <ele>1960</ele>
        <time>2022-08-27T17:00:32Z</time>
      </trkpt>
      <trkpt lat="45.92519" lon="7.09671">
        <ele>1960</ele>
        <time>2022-08-27T17:00:33Z</time>
      </trkpt>
      <trkpt lat="45.92521" lon="7.09669">
        <ele>1960</ele>
        <time>2022-08-27T17:00:35Z</time>
      </trkpt>
      <trkpt lat="45.92524" lon="7.09667">
        <ele>1960</ele>
        <time>2022-08-27T17:00:37Z</time>
      </trkpt>
      <trkpt lat="45.92527" lon="7.09667">
        <ele>1960</ele>
        <time>2022-08-27T17:00:39Z</time>
      </trkpt>
      <trkpt lat="45.92529" lon="7.09666">
        <ele>1960</ele>
        <time>2022-08-27T17:00:42Z</time>
      </trkpt>
      <trkpt lat="45.92532" lon="7.09664">
        <ele>1959</ele>
        <time>2022-08-27T17:00:43Z</time>
      </trkpt>
      <trkpt lat="45.92535" lon="7.09662">
        <ele>1959</ele>
        <time>2022-08-27T17:00:45Z</time>
      </trkpt>
      <trkpt lat="45.92537" lon="7.0966">
        <ele>1959</ele>
        <time>2022-08-27T17:00:47Z</time>
      </trkpt>
      <trkpt lat="45.9254" lon="7.09658">
        <ele>1959</ele>
        <time>2022-08-27T17:00:49Z</time>
      </trkpt>
      <trkpt lat="45.92542" lon="7.09655">
        <ele>1959</ele>
        <time>2022-08-27T17:00:51Z</time>
      </trkpt>
      <trkpt lat="45.92543" lon="7.09653">
        <ele>1959</ele>
        <time>2022-08-27T17:00:53Z</time>
      </trkpt>
      <trkpt lat="45.92546" lon="7.09651">
        <ele>1959</ele>
        <time>2022-08-27T17:00:55Z</time>
      </trkpt>
      <trkpt lat="45.92549" lon="7.09648">
        <ele>1959</ele>
        <time>2022-08-27T17:00:57Z</time>
      </trkpt>
      <trkpt lat="45.92552" lon="7.09647">
        <ele>1959</ele>
        <time>2022-08-27T17:00:59Z</time>
      </trkpt>
      <trkpt lat="45.92554" lon="7.09646">
        <ele>1959</ele>
        <time>2022-08-27T17:01:01Z</time>
      </trkpt>
      <trkpt lat="45.92557" lon="7.09645">
        <ele>1958</ele>
        <time>2022-08-27T17:01:04Z</time>
      </trkpt>
      <trkpt lat="45.92559" lon="7.09644">
        <ele>1958</ele>
        <time>2022-08-27T17:01:05Z</time>
      </trkpt>
      <trkpt lat="45.92562" lon="7.09644">
        <ele>1958</ele>
        <time>2022-08-27T17:01:07Z</time>
      </trkpt>
      <trkpt lat="45.92565" lon="7.09642">
        <ele>1957</ele>
        <time>2022-08-27T17:01:10Z</time>
      </trkpt>
      <trkpt lat="45.92568" lon="7.09641">
        <ele>1957</ele>
        <time>2022-08-27T17:01:11Z</time>
      </trkpt>
      <trkpt lat="45.92571" lon="7.0964">
        <ele>1957</ele>
        <time>2022-08-27T17:01:13Z</time>
      </trkpt>
      <trkpt lat="45.92573" lon="7.09639">
        <ele>1957</ele>
        <time>2022-08-27T17:01:15Z</time>
      </trkpt>
      <trkpt lat="45.92576" lon="7.09639">
        <ele>1957</ele>
        <time>2022-08-27T17:01:17Z</time>
      </trkpt>
      <trkpt lat="45.92578" lon="7.09639">
        <ele>1958</ele>
        <time>2022-08-27T17:01:19Z</time>
      </trkpt>
      <trkpt lat="45.9258" lon="7.09639">
        <ele>1958</ele>
        <time>2022-08-27T17:01:21Z</time>
      </trkpt>
      <trkpt lat="45.92583" lon="7.0964">
        <ele>1958</ele>
        <time>2022-08-27T17:01:23Z</time>
      </trkpt>
      <trkpt lat="45.92585" lon="7.09642">
        <ele>1958</ele>
        <time>2022-08-27T17:01:25Z</time>
      </trkpt>
      <trkpt lat="45.92587" lon="7.09643">
        <ele>1958</ele>
        <time>2022-08-27T17:01:27Z</time>
      </trkpt>
      <trkpt lat="45.92588" lon="7.09646">
        <ele>1958</ele>
        <time>2022-08-27T17:01:29Z</time>
      </trkpt>
      <trkpt lat="45.9259" lon="7.09649">
        <ele>1958</ele>
        <time>2022-08-27T17:01:31Z</time>
      </trkpt>
      <trkpt lat="45.92591" lon="7.09652">
        <ele>1958</ele>
        <time>2022-08-27T17:01:33Z</time>
      </trkpt>
      <trkpt lat="45.92593" lon="7.09655">
        <ele>1958</ele>
        <time>2022-08-27T17:01:35Z</time>
      </trkpt>
      <trkpt lat="45.92595" lon="7.09657">
        <ele>1958</ele>
        <time>2022-08-27T17:01:37Z</time>
      </trkpt>
      <trkpt lat="45.92597" lon="7.09658">
        <ele>1958</ele>
        <time>2022-08-27T17:01:39Z</time>
      </trkpt>
      <trkpt lat="45.926" lon="7.09658">
        <ele>1958</ele>
        <time>2022-08-27T17:01:41Z</time>
      </trkpt>
      <trkpt lat="45.92603" lon="7.09658">
        <ele>1958</ele>
        <time>2022-08-27T17:01:44Z</time>
      </trkpt>
      <trkpt lat="45.92606" lon="7.09658">
        <ele>1958</ele>
        <time>2022-08-27T17:01:45Z</time>
      </trkpt>
      <trkpt lat="45.92608" lon="7.09657">
        <ele>1958</ele>
        <time>2022-08-27T17:01:47Z</time>
      </trkpt>
      <trkpt lat="45.92611" lon="7.09656">
        <ele>1958</ele>
        <time>2022-08-27T17:01:49Z</time>
      </trkpt>
      <trkpt lat="45.92614" lon="7.09654">
        <ele>1958</ele>
        <time>2022-08-27T17:01:51Z</time>
      </trkpt>
      <trkpt lat="45.92616" lon="7.09653">
        <ele>1958</ele>
        <time>2022-08-27T17:01:53Z</time>
      </trkpt>
      <trkpt lat="45.92619" lon="7.09653">
        <ele>1958</ele>
        <time>2022-08-27T17:01:55Z</time>
      </trkpt>
      <trkpt lat="45.92621" lon="7.09653">
        <ele>1958</ele>
        <time>2022-08-27T17:01:58Z</time>
      </trkpt>
      <trkpt lat="45.92624" lon="7.09653">
        <ele>1959</ele>
        <time>2022-08-27T17:01:59Z</time>
      </trkpt>
      <trkpt lat="45.92626" lon="7.09653">
        <ele>1959</ele>
        <time>2022-08-27T17:02:01Z</time>
      </trkpt>
      <trkpt lat="45.92629" lon="7.09654">
        <ele>1960</ele>
        <time>2022-08-27T17:02:03Z</time>
      </trkpt>
      <trkpt lat="45.92631" lon="7.09656">
        <ele>1960</ele>
        <time>2022-08-27T17:02:05Z</time>
      </trkpt>
      <trkpt lat="45.92633" lon="7.09657">
        <ele>1962</ele>
        <time>2022-08-27T17:02:07Z</time>
      </trkpt>
      <trkpt lat="45.92635" lon="7.09659">
        <ele>1962</ele>
        <time>2022-08-27T17:02:09Z</time>
      </trkpt>
      <trkpt lat="45.92637" lon="7.0966">
        <ele>1962</ele>
        <time>2022-08-27T17:02:11Z</time>
      </trkpt>
      <trkpt lat="45.92639" lon="7.09661">
        <ele>1962</ele>
        <time>2022-08-27T17:02:14Z</time>
      </trkpt>
      <trkpt lat="45.92641" lon="7.09662">
        <ele>1962</ele>
        <time>2022-08-27T17:02:15Z</time>
      </trkpt>
      <trkpt lat="45.92644" lon="7.09663">
        <ele>1963</ele>
        <time>2022-08-27T17:02:17Z</time>
      </trkpt>
      <trkpt lat="45.92646" lon="7.09663">
        <ele>1963</ele>
        <time>2022-08-27T17:02:19Z</time>
      </trkpt>
      <trkpt lat="45.92648" lon="7.09664">
        <ele>1964</ele>
        <time>2022-08-27T17:02:21Z</time>
      </trkpt>
      <trkpt lat="45.9265" lon="7.09664">
        <ele>1964</ele>
        <time>2022-08-27T17:02:23Z</time>
      </trkpt>
      <trkpt lat="45.92652" lon="7.09664">
        <ele>1964</ele>
        <time>2022-08-27T17:02:25Z</time>
      </trkpt>
      <trkpt lat="45.92654" lon="7.09664">
        <ele>1964</ele>
        <time>2022-08-27T17:02:27Z</time>
      </trkpt>
      <trkpt lat="45.92656" lon="7.09665">
        <ele>1965</ele>
        <time>2022-08-27T17:02:30Z</time>
      </trkpt>
      <trkpt lat="45.92658" lon="7.09665">
        <ele>1965</ele>
        <time>2022-08-27T17:02:31Z</time>
      </trkpt>
      <trkpt lat="45.9266" lon="7.09665">
        <ele>1965</ele>
        <time>2022-08-27T17:02:33Z</time>
      </trkpt>
      <trkpt lat="45.92663" lon="7.09666">
        <ele>1965</ele>
        <time>2022-08-27T17:02:35Z</time>
      </trkpt>
      <trkpt lat="45.92665" lon="7.09667">
        <ele>1965</ele>
        <time>2022-08-27T17:02:38Z</time>
      </trkpt>
      <trkpt lat="45.92667" lon="7.09666">
        <ele>1965</ele>
        <time>2022-08-27T17:02:39Z</time>
      </trkpt>
      <trkpt lat="45.92669" lon="7.09666">
        <ele>1965</ele>
        <time>2022-08-27T17:02:41Z</time>
      </trkpt>
      <trkpt lat="45.92672" lon="7.09666">
        <ele>1965</ele>
        <time>2022-08-27T17:02:43Z</time>
      </trkpt>
      <trkpt lat="45.92674" lon="7.09664">
        <ele>1965</ele>
        <time>2022-08-27T17:02:45Z</time>
      </trkpt>
      <trkpt lat="45.92676" lon="7.09664">
        <ele>1965</ele>
        <time>2022-08-27T17:02:47Z</time>
      </trkpt>
      <trkpt lat="45.92679" lon="7.09663">
        <ele>1965</ele>
        <time>2022-08-27T17:02:49Z</time>
      </trkpt>
      <trkpt lat="45.92682" lon="7.09662">
        <ele>1965</ele>
        <time>2022-08-27T17:02:51Z</time>
      </trkpt>
      <trkpt lat="45.92684" lon="7.09662">
        <ele>1965</ele>
        <time>2022-08-27T17:02:53Z</time>
      </trkpt>
      <trkpt lat="45.92686" lon="7.09661">
        <ele>1965</ele>
        <time>2022-08-27T17:02:55Z</time>
      </trkpt>
      <trkpt lat="45.92689" lon="7.0966">
        <ele>1965</ele>
        <time>2022-08-27T17:02:57Z</time>
      </trkpt>
      <trkpt lat="45.92692" lon="7.0966">
        <ele>1965</ele>
        <time>2022-08-27T17:02:59Z</time>
      </trkpt>
      <trkpt lat="45.92695" lon="7.0966">
        <ele>1965</ele>
        <time>2022-08-27T17:03:01Z</time>
      </trkpt>
      <trkpt lat="45.92697" lon="7.09659">
        <ele>1965</ele>
        <time>2022-08-27T17:03:04Z</time>
      </trkpt>
      <trkpt lat="45.92699" lon="7.09659">
        <ele>1965</ele>
        <time>2022-08-27T17:03:05Z</time>
      </trkpt>
      <trkpt lat="45.92702" lon="7.09659">
        <ele>1965</ele>
        <time>2022-08-27T17:03:07Z</time>
      </trkpt>
      <trkpt lat="45.92705" lon="7.09658">
        <ele>1965</ele>
        <time>2022-08-27T17:03:09Z</time>
      </trkpt>
      <trkpt lat="45.92708" lon="7.09657">
        <ele>1966</ele>
        <time>2022-08-27T17:03:11Z</time>
      </trkpt>
      <trkpt lat="45.9271" lon="7.09657">
        <ele>1965</ele>
        <time>2022-08-27T17:03:13Z</time>
      </trkpt>
      <trkpt lat="45.92713" lon="7.09657">
        <ele>1965</ele>
        <time>2022-08-27T17:03:16Z</time>
      </trkpt>
      <trkpt lat="45.92716" lon="7.09657">
        <ele>1965</ele>
        <time>2022-08-27T17:03:17Z</time>
      </trkpt>
      <trkpt lat="45.92719" lon="7.09657">
        <ele>1965</ele>
        <time>2022-08-27T17:03:19Z</time>
      </trkpt>
      <trkpt lat="45.92721" lon="7.09657">
        <ele>1965</ele>
        <time>2022-08-27T17:03:21Z</time>
      </trkpt>
      <trkpt lat="45.92724" lon="7.09657">
        <ele>1965</ele>
        <time>2022-08-27T17:03:23Z</time>
      </trkpt>
      <trkpt lat="45.92727" lon="7.09656">
        <ele>1964</ele>
        <time>2022-08-27T17:03:25Z</time>
      </trkpt>
      <trkpt lat="45.92729" lon="7.09655">
        <ele>1964</ele>
        <time>2022-08-27T17:03:27Z</time>
      </trkpt>
      <trkpt lat="45.92732" lon="7.09655">
        <ele>1964</ele>
        <time>2022-08-27T17:03:29Z</time>
      </trkpt>
      <trkpt lat="45.92735" lon="7.09655">
        <ele>1964</ele>
        <time>2022-08-27T17:03:31Z</time>
      </trkpt>
      <trkpt lat="45.92738" lon="7.09655">
        <ele>1964</ele>
        <time>2022-08-27T17:03:33Z</time>
      </trkpt>
      <trkpt lat="45.92741" lon="7.09654">
        <ele>1964</ele>
        <time>2022-08-27T17:03:35Z</time>
      </trkpt>
      <trkpt lat="45.92743" lon="7.09654">
        <ele>1964</ele>
        <time>2022-08-27T17:03:37Z</time>
      </trkpt>
      <trkpt lat="45.92747" lon="7.09654">
        <ele>1964</ele>
        <time>2022-08-27T17:03:39Z</time>
      </trkpt>
      <trkpt lat="45.92749" lon="7.09653">
        <ele>1964</ele>
        <time>2022-08-27T17:03:41Z</time>
      </trkpt>
      <trkpt lat="45.92752" lon="7.09651">
        <ele>1964</ele>
        <time>2022-08-27T17:03:43Z</time>
      </trkpt>
      <trkpt lat="45.92755" lon="7.09649">
        <ele>1964</ele>
        <time>2022-08-27T17:03:45Z</time>
      </trkpt>
      <trkpt lat="45.92758" lon="7.09647">
        <ele>1964</ele>
        <time>2022-08-27T17:03:47Z</time>
      </trkpt>
      <trkpt lat="45.92761" lon="7.09645">
        <ele>1964</ele>
        <time>2022-08-27T17:03:49Z</time>
      </trkpt>
      <trkpt lat="45.92764" lon="7.09644">
        <ele>1964</ele>
        <time>2022-08-27T17:03:51Z</time>
      </trkpt>
      <trkpt lat="45.92767" lon="7.09641">
        <ele>1965</ele>
        <time>2022-08-27T17:03:53Z</time>
      </trkpt>
      <trkpt lat="45.9277" lon="7.09639">
        <ele>1965</ele>
        <time>2022-08-27T17:03:55Z</time>
      </trkpt>
      <trkpt lat="45.92773" lon="7.09638">
        <ele>1964</ele>
        <time>2022-08-27T17:03:57Z</time>
      </trkpt>
      <trkpt lat="45.92774" lon="7.09636">
        <ele>1964</ele>
        <time>2022-08-27T17:04:00Z</time>
      </trkpt>
      <trkpt lat="45.92776" lon="7.09634">
        <ele>1964</ele>
        <time>2022-08-27T17:04:01Z</time>
      </trkpt>
      <trkpt lat="45.92778" lon="7.09633">
        <ele>1964</ele>
        <time>2022-08-27T17:04:03Z</time>
      </trkpt>
      <trkpt lat="45.92781" lon="7.09631">
        <ele>1964</ele>
        <time>2022-08-27T17:04:05Z</time>
      </trkpt>
      <trkpt lat="45.92782" lon="7.09629">
        <ele>1964</ele>
        <time>2022-08-27T17:04:07Z</time>
      </trkpt>
      <trkpt lat="45.92785" lon="7.09627">
        <ele>1964</ele>
        <time>2022-08-27T17:04:10Z</time>
      </trkpt>
      <trkpt lat="45.92787" lon="7.09626">
        <ele>1964</ele>
        <time>2022-08-27T17:04:12Z</time>
      </trkpt>
      <trkpt lat="45.9279" lon="7.09624">
        <ele>1964</ele>
        <time>2022-08-27T17:04:14Z</time>
      </trkpt>
      <trkpt lat="45.92792" lon="7.09622">
        <ele>1964</ele>
        <time>2022-08-27T17:04:16Z</time>
      </trkpt>
      <trkpt lat="45.92793" lon="7.09621">
        <ele>1964</ele>
        <time>2022-08-27T17:04:18Z</time>
      </trkpt>
      <trkpt lat="45.92796" lon="7.0962">
        <ele>1964</ele>
        <time>2022-08-27T17:04:20Z</time>
      </trkpt>
      <trkpt lat="45.92799" lon="7.09616">
        <ele>1964</ele>
        <time>2022-08-27T17:04:23Z</time>
      </trkpt>
      <trkpt lat="45.928" lon="7.09615">
        <ele>1964</ele>
        <time>2022-08-27T17:04:24Z</time>
      </trkpt>
      <trkpt lat="45.92802" lon="7.09612">
        <ele>1964</ele>
        <time>2022-08-27T17:04:26Z</time>
      </trkpt>
      <trkpt lat="45.92805" lon="7.0961">
        <ele>1964</ele>
        <time>2022-08-27T17:04:28Z</time>
      </trkpt>
      <trkpt lat="45.92807" lon="7.09607">
        <ele>1964</ele>
        <time>2022-08-27T17:04:30Z</time>
      </trkpt>
      <trkpt lat="45.92809" lon="7.09605">
        <ele>1964</ele>
        <time>2022-08-27T17:04:32Z</time>
      </trkpt>
      <trkpt lat="45.92812" lon="7.09603">
        <ele>1964</ele>
        <time>2022-08-27T17:04:34Z</time>
      </trkpt>
      <trkpt lat="45.92815" lon="7.09601">
        <ele>1964</ele>
        <time>2022-08-27T17:04:36Z</time>
      </trkpt>
      <trkpt lat="45.92817" lon="7.09599">
        <ele>1964</ele>
        <time>2022-08-27T17:04:38Z</time>
      </trkpt>
      <trkpt lat="45.92819" lon="7.09596">
        <ele>1964</ele>
        <time>2022-08-27T17:04:40Z</time>
      </trkpt>
      <trkpt lat="45.92821" lon="7.09594">
        <ele>1964</ele>
        <time>2022-08-27T17:04:42Z</time>
      </trkpt>
      <trkpt lat="45.92823" lon="7.09592">
        <ele>1963</ele>
        <time>2022-08-27T17:04:44Z</time>
      </trkpt>
      <trkpt lat="45.92825" lon="7.0959">
        <ele>1963</ele>
        <time>2022-08-27T17:04:46Z</time>
      </trkpt>
      <trkpt lat="45.92827" lon="7.09587">
        <ele>1963</ele>
        <time>2022-08-27T17:04:48Z</time>
      </trkpt>
      <trkpt lat="45.92829" lon="7.09584">
        <ele>1963</ele>
        <time>2022-08-27T17:04:50Z</time>
      </trkpt>
      <trkpt lat="45.92831" lon="7.09581">
        <ele>1963</ele>
        <time>2022-08-27T17:04:52Z</time>
      </trkpt>
      <trkpt lat="45.92833" lon="7.09579">
        <ele>1963</ele>
        <time>2022-08-27T17:04:54Z</time>
      </trkpt>
      <trkpt lat="45.92835" lon="7.09577">
        <ele>1963</ele>
        <time>2022-08-27T17:04:56Z</time>
      </trkpt>
      <trkpt lat="45.92837" lon="7.09575">
        <ele>1963</ele>
        <time>2022-08-27T17:04:58Z</time>
      </trkpt>
      <trkpt lat="45.92839" lon="7.09572">
        <ele>1963</ele>
        <time>2022-08-27T17:05:00Z</time>
      </trkpt>
      <trkpt lat="45.92842" lon="7.0957">
        <ele>1963</ele>
        <time>2022-08-27T17:05:02Z</time>
      </trkpt>
      <trkpt lat="45.92844" lon="7.09568">
        <ele>1963</ele>
        <time>2022-08-27T17:05:04Z</time>
      </trkpt>
      <trkpt lat="45.92846" lon="7.09565">
        <ele>1964</ele>
        <time>2022-08-27T17:05:06Z</time>
      </trkpt>
      <trkpt lat="45.92848" lon="7.09563">
        <ele>1964</ele>
        <time>2022-08-27T17:05:08Z</time>
      </trkpt>
      <trkpt lat="45.9285" lon="7.0956">
        <ele>1964</ele>
        <time>2022-08-27T17:05:10Z</time>
      </trkpt>
      <trkpt lat="45.92851" lon="7.09558">
        <ele>1963</ele>
        <time>2022-08-27T17:05:13Z</time>
      </trkpt>
      <trkpt lat="45.92855" lon="7.09555">
        <ele>1963</ele>
        <time>2022-08-27T17:05:14Z</time>
      </trkpt>
      <trkpt lat="45.92856" lon="7.09555">
        <ele>1963</ele>
        <time>2022-08-27T17:05:15Z</time>
      </trkpt>
      <trkpt lat="45.92858" lon="7.09553">
        <ele>1963</ele>
        <time>2022-08-27T17:05:18Z</time>
      </trkpt>
      <trkpt lat="45.92861" lon="7.09552">
        <ele>1963</ele>
        <time>2022-08-27T17:05:19Z</time>
      </trkpt>
      <trkpt lat="45.92863" lon="7.0955">
        <ele>1963</ele>
        <time>2022-08-27T17:05:21Z</time>
      </trkpt>
      <trkpt lat="45.92865" lon="7.09549">
        <ele>1963</ele>
        <time>2022-08-27T17:05:23Z</time>
      </trkpt>
      <trkpt lat="45.92868" lon="7.09547">
        <ele>1963</ele>
        <time>2022-08-27T17:05:25Z</time>
      </trkpt>
      <trkpt lat="45.9287" lon="7.09546">
        <ele>1963</ele>
        <time>2022-08-27T17:05:27Z</time>
      </trkpt>
      <trkpt lat="45.92873" lon="7.09545">
        <ele>1963</ele>
        <time>2022-08-27T17:05:29Z</time>
      </trkpt>
      <trkpt lat="45.92876" lon="7.09544">
        <ele>1963</ele>
        <time>2022-08-27T17:05:31Z</time>
      </trkpt>
      <trkpt lat="45.92879" lon="7.09544">
        <ele>1963</ele>
        <time>2022-08-27T17:05:33Z</time>
      </trkpt>
      <trkpt lat="45.92882" lon="7.09543">
        <ele>1962</ele>
        <time>2022-08-27T17:05:36Z</time>
      </trkpt>
      <trkpt lat="45.92884" lon="7.09542">
        <ele>1962</ele>
        <time>2022-08-27T17:05:37Z</time>
      </trkpt>
      <trkpt lat="45.92887" lon="7.09542">
        <ele>1962</ele>
        <time>2022-08-27T17:05:39Z</time>
      </trkpt>
      <trkpt lat="45.9289" lon="7.09542">
        <ele>1960</ele>
        <time>2022-08-27T17:05:41Z</time>
      </trkpt>
      <trkpt lat="45.92892" lon="7.09542">
        <ele>1962</ele>
        <time>2022-08-27T17:05:43Z</time>
      </trkpt>
      <trkpt lat="45.92894" lon="7.09542">
        <ele>1960</ele>
        <time>2022-08-27T17:05:45Z</time>
      </trkpt>
      <trkpt lat="45.92897" lon="7.09541">
        <ele>1960</ele>
        <time>2022-08-27T17:05:47Z</time>
      </trkpt>
      <trkpt lat="45.92899" lon="7.09541">
        <ele>1960</ele>
        <time>2022-08-27T17:05:49Z</time>
      </trkpt>
      <trkpt lat="45.92901" lon="7.09542">
        <ele>1959</ele>
        <time>2022-08-27T17:05:51Z</time>
      </trkpt>
      <trkpt lat="45.92904" lon="7.09542">
        <ele>1959</ele>
        <time>2022-08-27T17:05:54Z</time>
      </trkpt>
      <trkpt lat="45.92908" lon="7.09543">
        <ele>1959</ele>
        <time>2022-08-27T17:05:55Z</time>
      </trkpt>
      <trkpt lat="45.9291" lon="7.09544">
        <ele>1959</ele>
        <time>2022-08-27T17:05:57Z</time>
      </trkpt>
      <trkpt lat="45.92912" lon="7.09544">
        <ele>1959</ele>
        <time>2022-08-27T17:05:59Z</time>
      </trkpt>
      <trkpt lat="45.92915" lon="7.09546">
        <ele>1959</ele>
        <time>2022-08-27T17:06:01Z</time>
      </trkpt>
      <trkpt lat="45.92918" lon="7.09547">
        <ele>1959</ele>
        <time>2022-08-27T17:06:03Z</time>
      </trkpt>
      <trkpt lat="45.9292" lon="7.09548">
        <ele>1959</ele>
        <time>2022-08-27T17:06:05Z</time>
      </trkpt>
      <trkpt lat="45.92923" lon="7.09549">
        <ele>1958</ele>
        <time>2022-08-27T17:06:07Z</time>
      </trkpt>
      <trkpt lat="45.92925" lon="7.09551">
        <ele>1958</ele>
        <time>2022-08-27T17:06:10Z</time>
      </trkpt>
      <trkpt lat="45.92928" lon="7.09552">
        <ele>1958</ele>
        <time>2022-08-27T17:06:11Z</time>
      </trkpt>
      <trkpt lat="45.92931" lon="7.09554">
        <ele>1958</ele>
        <time>2022-08-27T17:06:13Z</time>
      </trkpt>
      <trkpt lat="45.92934" lon="7.09556">
        <ele>1957</ele>
        <time>2022-08-27T17:06:15Z</time>
      </trkpt>
      <trkpt lat="45.92936" lon="7.09557">
        <ele>1957</ele>
        <time>2022-08-27T17:06:17Z</time>
      </trkpt>
      <trkpt lat="45.92939" lon="7.09559">
        <ele>1957</ele>
        <time>2022-08-27T17:06:19Z</time>
      </trkpt>
      <trkpt lat="45.92941" lon="7.0956">
        <ele>1957</ele>
        <time>2022-08-27T17:06:21Z</time>
      </trkpt>
      <trkpt lat="45.92944" lon="7.09562">
        <ele>1956</ele>
        <time>2022-08-27T17:06:23Z</time>
      </trkpt>
      <trkpt lat="45.92946" lon="7.09565">
        <ele>1956</ele>
        <time>2022-08-27T17:06:25Z</time>
      </trkpt>
      <trkpt lat="45.92947" lon="7.09567">
        <ele>1956</ele>
        <time>2022-08-27T17:06:27Z</time>
      </trkpt>
      <trkpt lat="45.9295" lon="7.09569">
        <ele>1955</ele>
        <time>2022-08-27T17:06:29Z</time>
      </trkpt>
      <trkpt lat="45.92951" lon="7.09571">
        <ele>1955</ele>
        <time>2022-08-27T17:06:31Z</time>
      </trkpt>
      <trkpt lat="45.92953" lon="7.09573">
        <ele>1954</ele>
        <time>2022-08-27T17:06:33Z</time>
      </trkpt>
      <trkpt lat="45.92954" lon="7.09575">
        <ele>1954</ele>
        <time>2022-08-27T17:06:34Z</time>
      </trkpt>
      <trkpt lat="45.92956" lon="7.09577">
        <ele>1954</ele>
        <time>2022-08-27T17:06:35Z</time>
      </trkpt>
      <trkpt lat="45.92957" lon="7.09578">
        <ele>1954</ele>
        <time>2022-08-27T17:06:36Z</time>
      </trkpt>
      <trkpt lat="45.92958" lon="7.0958">
        <ele>1954</ele>
        <time>2022-08-27T17:06:38Z</time>
      </trkpt>
      <trkpt lat="45.92959" lon="7.09581">
        <ele>1954</ele>
        <time>2022-08-27T17:06:39Z</time>
      </trkpt>
      <trkpt lat="45.9296" lon="7.09583">
        <ele>1954</ele>
        <time>2022-08-27T17:06:40Z</time>
      </trkpt>
      <trkpt lat="45.92961" lon="7.09584">
        <ele>1954</ele>
        <time>2022-08-27T17:06:41Z</time>
      </trkpt>
      <trkpt lat="45.92963" lon="7.09586">
        <ele>1954</ele>
        <time>2022-08-27T17:06:42Z</time>
      </trkpt>
      <trkpt lat="45.92964" lon="7.09587">
        <ele>1954</ele>
        <time>2022-08-27T17:06:43Z</time>
      </trkpt>
      <trkpt lat="45.92966" lon="7.0959">
        <ele>1953</ele>
        <time>2022-08-27T17:06:44Z</time>
      </trkpt>
      <trkpt lat="45.92968" lon="7.09592">
        <ele>1953</ele>
        <time>2022-08-27T17:06:46Z</time>
      </trkpt>
      <trkpt lat="45.9297" lon="7.09594">
        <ele>1953</ele>
        <time>2022-08-27T17:06:47Z</time>
      </trkpt>
      <trkpt lat="45.92972" lon="7.09596">
        <ele>1953</ele>
        <time>2022-08-27T17:06:48Z</time>
      </trkpt>
      <trkpt lat="45.92973" lon="7.09598">
        <ele>1953</ele>
        <time>2022-08-27T17:06:50Z</time>
      </trkpt>
      <trkpt lat="45.92974" lon="7.096">
        <ele>1953</ele>
        <time>2022-08-27T17:06:51Z</time>
      </trkpt>
      <trkpt lat="45.92975" lon="7.09602">
        <ele>1953</ele>
        <time>2022-08-27T17:06:52Z</time>
      </trkpt>
      <trkpt lat="45.92977" lon="7.09604">
        <ele>1953</ele>
        <time>2022-08-27T17:06:53Z</time>
      </trkpt>
      <trkpt lat="45.92978" lon="7.09606">
        <ele>1953</ele>
        <time>2022-08-27T17:06:54Z</time>
      </trkpt>
      <trkpt lat="45.92979" lon="7.09608">
        <ele>1952</ele>
        <time>2022-08-27T17:06:55Z</time>
      </trkpt>
      <trkpt lat="45.9298" lon="7.0961">
        <ele>1952</ele>
        <time>2022-08-27T17:06:56Z</time>
      </trkpt>
      <trkpt lat="45.92981" lon="7.09612">
        <ele>1952</ele>
        <time>2022-08-27T17:06:57Z</time>
      </trkpt>
      <trkpt lat="45.92983" lon="7.09614">
        <ele>1951</ele>
        <time>2022-08-27T17:06:59Z</time>
      </trkpt>
      <trkpt lat="45.92984" lon="7.09616">
        <ele>1951</ele>
        <time>2022-08-27T17:07:00Z</time>
      </trkpt>
      <trkpt lat="45.92984" lon="7.09616">
        <ele>1951</ele>
        <time>2022-08-27T17:07:01Z</time>
      </trkpt>
      <trkpt lat="45.92985" lon="7.09617">
        <ele>1951</ele>
        <time>2022-08-27T17:07:02Z</time>
      </trkpt>
      <trkpt lat="45.92985" lon="7.09618">
        <ele>1951</ele>
        <time>2022-08-27T17:07:04Z</time>
      </trkpt>
      <trkpt lat="45.92986" lon="7.09619">
        <ele>1951</ele>
        <time>2022-08-27T17:07:05Z</time>
      </trkpt>
      <trkpt lat="45.92986" lon="7.0962">
        <ele>1951</ele>
        <time>2022-08-27T17:07:06Z</time>
      </trkpt>
      <trkpt lat="45.92987" lon="7.0962">
        <ele>1950</ele>
        <time>2022-08-27T17:07:07Z</time>
      </trkpt>
      <trkpt lat="45.92992" lon="7.0963">
        <ele>1950</ele>
        <time>2022-08-27T17:07:09Z</time>
      </trkpt>
      <trkpt lat="45.92994" lon="7.09634">
        <ele>1950</ele>
        <time>2022-08-27T17:07:11Z</time>
      </trkpt>
      <trkpt lat="45.92996" lon="7.09636">
        <ele>1950</ele>
        <time>2022-08-27T17:07:13Z</time>
      </trkpt>
      <trkpt lat="45.92998" lon="7.09639">
        <ele>1949</ele>
        <time>2022-08-27T17:07:15Z</time>
      </trkpt>
      <trkpt lat="45.93001" lon="7.09641">
        <ele>1949</ele>
        <time>2022-08-27T17:07:17Z</time>
      </trkpt>
      <trkpt lat="45.93003" lon="7.09643">
        <ele>1949</ele>
        <time>2022-08-27T17:07:18Z</time>
      </trkpt>
      <trkpt lat="45.93005" lon="7.09646">
        <ele>1949</ele>
        <time>2022-08-27T17:07:20Z</time>
      </trkpt>
      <trkpt lat="45.93008" lon="7.09647">
        <ele>1949</ele>
        <time>2022-08-27T17:07:22Z</time>
      </trkpt>
      <trkpt lat="45.9301" lon="7.09649">
        <ele>1949</ele>
        <time>2022-08-27T17:07:25Z</time>
      </trkpt>
      <trkpt lat="45.93012" lon="7.09651">
        <ele>1949</ele>
        <time>2022-08-27T17:07:26Z</time>
      </trkpt>
      <trkpt lat="45.93015" lon="7.09654">
        <ele>1949</ele>
        <time>2022-08-27T17:07:28Z</time>
      </trkpt>
      <trkpt lat="45.93017" lon="7.09656">
        <ele>1949</ele>
        <time>2022-08-27T17:07:30Z</time>
      </trkpt>
      <trkpt lat="45.93019" lon="7.09659">
        <ele>1948</ele>
        <time>2022-08-27T17:07:32Z</time>
      </trkpt>
      <trkpt lat="45.93021" lon="7.09661">
        <ele>1948</ele>
        <time>2022-08-27T17:07:34Z</time>
      </trkpt>
      <trkpt lat="45.93023" lon="7.09663">
        <ele>1948</ele>
        <time>2022-08-27T17:07:36Z</time>
      </trkpt>
      <trkpt lat="45.93026" lon="7.09666">
        <ele>1948</ele>
        <time>2022-08-27T17:07:38Z</time>
      </trkpt>
      <trkpt lat="45.93028" lon="7.09668">
        <ele>1947</ele>
        <time>2022-08-27T17:07:40Z</time>
      </trkpt>
      <trkpt lat="45.93031" lon="7.09671">
        <ele>1947</ele>
        <time>2022-08-27T17:07:42Z</time>
      </trkpt>
      <trkpt lat="45.93033" lon="7.09674">
        <ele>1947</ele>
        <time>2022-08-27T17:07:44Z</time>
      </trkpt>
      <trkpt lat="45.93034" lon="7.09677">
        <ele>1947</ele>
        <time>2022-08-27T17:07:46Z</time>
      </trkpt>
      <trkpt lat="45.93037" lon="7.09679">
        <ele>1946</ele>
        <time>2022-08-27T17:07:49Z</time>
      </trkpt>
      <trkpt lat="45.93039" lon="7.09681">
        <ele>1946</ele>
        <time>2022-08-27T17:07:50Z</time>
      </trkpt>
      <trkpt lat="45.93041" lon="7.09683">
        <ele>1946</ele>
        <time>2022-08-27T17:07:52Z</time>
      </trkpt>
      <trkpt lat="45.93043" lon="7.09686">
        <ele>1946</ele>
        <time>2022-08-27T17:07:54Z</time>
      </trkpt>
      <trkpt lat="45.93045" lon="7.09688">
        <ele>1946</ele>
        <time>2022-08-27T17:07:56Z</time>
      </trkpt>
      <trkpt lat="45.93048" lon="7.0969">
        <ele>1946</ele>
        <time>2022-08-27T17:07:58Z</time>
      </trkpt>
      <trkpt lat="45.9305" lon="7.09692">
        <ele>1946</ele>
        <time>2022-08-27T17:08:01Z</time>
      </trkpt>
      <trkpt lat="45.93052" lon="7.09695">
        <ele>1946</ele>
        <time>2022-08-27T17:08:02Z</time>
      </trkpt>
      <trkpt lat="45.93054" lon="7.09697">
        <ele>1946</ele>
        <time>2022-08-27T17:08:04Z</time>
      </trkpt>
      <trkpt lat="45.93056" lon="7.09699">
        <ele>1946</ele>
        <time>2022-08-27T17:08:06Z</time>
      </trkpt>
      <trkpt lat="45.93059" lon="7.09702">
        <ele>1946</ele>
        <time>2022-08-27T17:08:08Z</time>
      </trkpt>
      <trkpt lat="45.93061" lon="7.09704">
        <ele>1946</ele>
        <time>2022-08-27T17:08:10Z</time>
      </trkpt>
      <trkpt lat="45.93063" lon="7.09706">
        <ele>1946</ele>
        <time>2022-08-27T17:08:12Z</time>
      </trkpt>
      <trkpt lat="45.93065" lon="7.09708">
        <ele>1946</ele>
        <time>2022-08-27T17:08:15Z</time>
      </trkpt>
      <trkpt lat="45.93067" lon="7.09711">
        <ele>1946</ele>
        <time>2022-08-27T17:08:16Z</time>
      </trkpt>
      <trkpt lat="45.93069" lon="7.09713">
        <ele>1945</ele>
        <time>2022-08-27T17:08:18Z</time>
      </trkpt>
      <trkpt lat="45.9307" lon="7.09716">
        <ele>1945</ele>
        <time>2022-08-27T17:08:20Z</time>
      </trkpt>
      <trkpt lat="45.93072" lon="7.09718">
        <ele>1945</ele>
        <time>2022-08-27T17:08:23Z</time>
      </trkpt>
      <trkpt lat="45.93075" lon="7.09721">
        <ele>1945</ele>
        <time>2022-08-27T17:08:24Z</time>
      </trkpt>
      <trkpt lat="45.93078" lon="7.09723">
        <ele>1945</ele>
        <time>2022-08-27T17:08:26Z</time>
      </trkpt>
      <trkpt lat="45.9308" lon="7.09726">
        <ele>1945</ele>
        <time>2022-08-27T17:08:28Z</time>
      </trkpt>
      <trkpt lat="45.93083" lon="7.09729">
        <ele>1945</ele>
        <time>2022-08-27T17:08:30Z</time>
      </trkpt>
      <trkpt lat="45.93086" lon="7.09732">
        <ele>1945</ele>
        <time>2022-08-27T17:08:32Z</time>
      </trkpt>
      <trkpt lat="45.93089" lon="7.09734">
        <ele>1945</ele>
        <time>2022-08-27T17:08:34Z</time>
      </trkpt>
      <trkpt lat="45.93091" lon="7.09737">
        <ele>1945</ele>
        <time>2022-08-27T17:08:36Z</time>
      </trkpt>
      <trkpt lat="45.93094" lon="7.09739">
        <ele>1945</ele>
        <time>2022-08-27T17:08:39Z</time>
      </trkpt>
      <trkpt lat="45.93096" lon="7.09742">
        <ele>1945</ele>
        <time>2022-08-27T17:08:40Z</time>
      </trkpt>
      <trkpt lat="45.93098" lon="7.09744">
        <ele>1945</ele>
        <time>2022-08-27T17:08:42Z</time>
      </trkpt>
      <trkpt lat="45.93099" lon="7.09746">
        <ele>1945</ele>
        <time>2022-08-27T17:08:45Z</time>
      </trkpt>
      <trkpt lat="45.931" lon="7.09749">
        <ele>1944</ele>
        <time>2022-08-27T17:08:46Z</time>
      </trkpt>
      <trkpt lat="45.93102" lon="7.09751">
        <ele>1944</ele>
        <time>2022-08-27T17:08:48Z</time>
      </trkpt>
      <trkpt lat="45.93104" lon="7.09753">
        <ele>1944</ele>
        <time>2022-08-27T17:08:50Z</time>
      </trkpt>
      <trkpt lat="45.93107" lon="7.09755">
        <ele>1944</ele>
        <time>2022-08-27T17:08:52Z</time>
      </trkpt>
      <trkpt lat="45.93109" lon="7.09757">
        <ele>1944</ele>
        <time>2022-08-27T17:08:54Z</time>
      </trkpt>
      <trkpt lat="45.93111" lon="7.09759">
        <ele>1944</ele>
        <time>2022-08-27T17:08:56Z</time>
      </trkpt>
      <trkpt lat="45.93113" lon="7.09762">
        <ele>1944</ele>
        <time>2022-08-27T17:08:58Z</time>
      </trkpt>
      <trkpt lat="45.93115" lon="7.09764">
        <ele>1944</ele>
        <time>2022-08-27T17:09:00Z</time>
      </trkpt>
      <trkpt lat="45.93117" lon="7.09767">
        <ele>1943</ele>
        <time>2022-08-27T17:09:05Z</time>
      </trkpt>
      <trkpt lat="45.93119" lon="7.09769">
        <ele>1943</ele>
        <time>2022-08-27T17:09:07Z</time>
      </trkpt>
      <trkpt lat="45.93122" lon="7.09771">
        <ele>1943</ele>
        <time>2022-08-27T17:09:09Z</time>
      </trkpt>
      <trkpt lat="45.93124" lon="7.09774">
        <ele>1943</ele>
        <time>2022-08-27T17:09:12Z</time>
      </trkpt>
      <trkpt lat="45.93126" lon="7.09776">
        <ele>1943</ele>
        <time>2022-08-27T17:09:13Z</time>
      </trkpt>
      <trkpt lat="45.93128" lon="7.09779">
        <ele>1943</ele>
        <time>2022-08-27T17:09:15Z</time>
      </trkpt>
      <trkpt lat="45.9313" lon="7.09782">
        <ele>1943</ele>
        <time>2022-08-27T17:09:17Z</time>
      </trkpt>
      <trkpt lat="45.93131" lon="7.09784">
        <ele>1943</ele>
        <time>2022-08-27T17:09:18Z</time>
      </trkpt>
      <trkpt lat="45.93133" lon="7.09786">
        <ele>1943</ele>
        <time>2022-08-27T17:09:19Z</time>
      </trkpt>
      <trkpt lat="45.93134" lon="7.09788">
        <ele>1943</ele>
        <time>2022-08-27T17:09:20Z</time>
      </trkpt>
      <trkpt lat="45.93136" lon="7.09791">
        <ele>1943</ele>
        <time>2022-08-27T17:09:22Z</time>
      </trkpt>
      <trkpt lat="45.93139" lon="7.09794">
        <ele>1943</ele>
        <time>2022-08-27T17:09:24Z</time>
      </trkpt>
      <trkpt lat="45.93141" lon="7.09797">
        <ele>1943</ele>
        <time>2022-08-27T17:09:26Z</time>
      </trkpt>
      <trkpt lat="45.93143" lon="7.098">
        <ele>1943</ele>
        <time>2022-08-27T17:09:29Z</time>
      </trkpt>
      <trkpt lat="45.93145" lon="7.09804">
        <ele>1943</ele>
        <time>2022-08-27T17:09:30Z</time>
      </trkpt>
      <trkpt lat="45.93147" lon="7.09807">
        <ele>1943</ele>
        <time>2022-08-27T17:09:32Z</time>
      </trkpt>
      <trkpt lat="45.93149" lon="7.09811">
        <ele>1943</ele>
        <time>2022-08-27T17:09:34Z</time>
      </trkpt>
      <trkpt lat="45.93151" lon="7.09814">
        <ele>1943</ele>
        <time>2022-08-27T17:09:36Z</time>
      </trkpt>
      <trkpt lat="45.93153" lon="7.09817">
        <ele>1943</ele>
        <time>2022-08-27T17:09:38Z</time>
      </trkpt>
      <trkpt lat="45.93154" lon="7.0982">
        <ele>1943</ele>
        <time>2022-08-27T17:09:40Z</time>
      </trkpt>
      <trkpt lat="45.93155" lon="7.09824">
        <ele>1943</ele>
        <time>2022-08-27T17:09:43Z</time>
      </trkpt>
      <trkpt lat="45.93157" lon="7.09827">
        <ele>1943</ele>
        <time>2022-08-27T17:09:44Z</time>
      </trkpt>
      <trkpt lat="45.93158" lon="7.09829">
        <ele>1943</ele>
        <time>2022-08-27T17:09:46Z</time>
      </trkpt>
      <trkpt lat="45.9316" lon="7.09832">
        <ele>1943</ele>
        <time>2022-08-27T17:09:48Z</time>
      </trkpt>
      <trkpt lat="45.93161" lon="7.09836">
        <ele>1943</ele>
        <time>2022-08-27T17:09:50Z</time>
      </trkpt>
      <trkpt lat="45.93163" lon="7.0984">
        <ele>1943</ele>
        <time>2022-08-27T17:09:52Z</time>
      </trkpt>
      <trkpt lat="45.93165" lon="7.09842">
        <ele>1943</ele>
        <time>2022-08-27T17:09:54Z</time>
      </trkpt>
      <trkpt lat="45.93167" lon="7.09845">
        <ele>1943</ele>
        <time>2022-08-27T17:09:56Z</time>
      </trkpt>
      <trkpt lat="45.93169" lon="7.09848">
        <ele>1943</ele>
        <time>2022-08-27T17:09:58Z</time>
      </trkpt>
      <trkpt lat="45.93171" lon="7.09851">
        <ele>1943</ele>
        <time>2022-08-27T17:10:01Z</time>
      </trkpt>
      <trkpt lat="45.93172" lon="7.09854">
        <ele>1942</ele>
        <time>2022-08-27T17:10:02Z</time>
      </trkpt>
      <trkpt lat="45.93174" lon="7.09857">
        <ele>1942</ele>
        <time>2022-08-27T17:10:04Z</time>
      </trkpt>
      <trkpt lat="45.93176" lon="7.09859">
        <ele>1942</ele>
        <time>2022-08-27T17:10:06Z</time>
      </trkpt>
      <trkpt lat="45.93178" lon="7.09861">
        <ele>1942</ele>
        <time>2022-08-27T17:10:08Z</time>
      </trkpt>
      <trkpt lat="45.93181" lon="7.09863">
        <ele>1942</ele>
        <time>2022-08-27T17:10:10Z</time>
      </trkpt>
      <trkpt lat="45.93183" lon="7.09865">
        <ele>1942</ele>
        <time>2022-08-27T17:10:12Z</time>
      </trkpt>
      <trkpt lat="45.93185" lon="7.09866">
        <ele>1942</ele>
        <time>2022-08-27T17:10:14Z</time>
      </trkpt>
      <trkpt lat="45.93187" lon="7.09868">
        <ele>1942</ele>
        <time>2022-08-27T17:10:16Z</time>
      </trkpt>
      <trkpt lat="45.93189" lon="7.09869">
        <ele>1942</ele>
        <time>2022-08-27T17:10:18Z</time>
      </trkpt>
      <trkpt lat="45.93191" lon="7.0987">
        <ele>1942</ele>
        <time>2022-08-27T17:10:20Z</time>
      </trkpt>
      <trkpt lat="45.93194" lon="7.0987">
        <ele>1942</ele>
        <time>2022-08-27T17:10:22Z</time>
      </trkpt>
      <trkpt lat="45.93197" lon="7.09869">
        <ele>1942</ele>
        <time>2022-08-27T17:10:24Z</time>
      </trkpt>
      <trkpt lat="45.93199" lon="7.09868">
        <ele>1942</ele>
        <time>2022-08-27T17:10:26Z</time>
      </trkpt>
      <trkpt lat="45.93202" lon="7.09868">
        <ele>1942</ele>
        <time>2022-08-27T17:10:28Z</time>
      </trkpt>
      <trkpt lat="45.93205" lon="7.09868">
        <ele>1942</ele>
        <time>2022-08-27T17:10:30Z</time>
      </trkpt>
      <trkpt lat="45.93208" lon="7.09868">
        <ele>1943</ele>
        <time>2022-08-27T17:10:33Z</time>
      </trkpt>
      <trkpt lat="45.93211" lon="7.09867">
        <ele>1942</ele>
        <time>2022-08-27T17:10:34Z</time>
      </trkpt>
      <trkpt lat="45.93214" lon="7.09866">
        <ele>1942</ele>
        <time>2022-08-27T17:10:36Z</time>
      </trkpt>
      <trkpt lat="45.93216" lon="7.09865">
        <ele>1942</ele>
        <time>2022-08-27T17:10:38Z</time>
      </trkpt>
      <trkpt lat="45.93218" lon="7.09865">
        <ele>1942</ele>
        <time>2022-08-27T17:10:39Z</time>
      </trkpt>
      <trkpt lat="45.93219" lon="7.09864">
        <ele>1941</ele>
        <time>2022-08-27T17:10:40Z</time>
      </trkpt>
      <trkpt lat="45.93222" lon="7.09863">
        <ele>1942</ele>
        <time>2022-08-27T17:10:42Z</time>
      </trkpt>
      <trkpt lat="45.93226" lon="7.09863">
        <ele>1942</ele>
        <time>2022-08-27T17:10:44Z</time>
      </trkpt>
      <trkpt lat="45.93229" lon="7.09863">
        <ele>1942</ele>
        <time>2022-08-27T17:10:46Z</time>
      </trkpt>
      <trkpt lat="45.93231" lon="7.09863">
        <ele>1942</ele>
        <time>2022-08-27T17:10:48Z</time>
      </trkpt>
      <trkpt lat="45.93234" lon="7.09863">
        <ele>1942</ele>
        <time>2022-08-27T17:10:50Z</time>
      </trkpt>
      <trkpt lat="45.93237" lon="7.09863">
        <ele>1942</ele>
        <time>2022-08-27T17:10:52Z</time>
      </trkpt>
      <trkpt lat="45.9324" lon="7.09864">
        <ele>1942</ele>
        <time>2022-08-27T17:10:54Z</time>
      </trkpt>
      <trkpt lat="45.93242" lon="7.09864">
        <ele>1942</ele>
        <time>2022-08-27T17:10:56Z</time>
      </trkpt>
      <trkpt lat="45.93245" lon="7.09865">
        <ele>1942</ele>
        <time>2022-08-27T17:10:59Z</time>
      </trkpt>
      <trkpt lat="45.93247" lon="7.09864">
        <ele>1942</ele>
        <time>2022-08-27T17:11:00Z</time>
      </trkpt>
      <trkpt lat="45.9325" lon="7.09864">
        <ele>1942</ele>
        <time>2022-08-27T17:11:02Z</time>
      </trkpt>
      <trkpt lat="45.93253" lon="7.09864">
        <ele>1942</ele>
        <time>2022-08-27T17:11:04Z</time>
      </trkpt>
      <trkpt lat="45.93256" lon="7.09864">
        <ele>1942</ele>
        <time>2022-08-27T17:11:06Z</time>
      </trkpt>
      <trkpt lat="45.93258" lon="7.09864">
        <ele>1942</ele>
        <time>2022-08-27T17:11:08Z</time>
      </trkpt>
      <trkpt lat="45.93261" lon="7.09865">
        <ele>1942</ele>
        <time>2022-08-27T17:11:11Z</time>
      </trkpt>
      <trkpt lat="45.93264" lon="7.09865">
        <ele>1942</ele>
        <time>2022-08-27T17:11:12Z</time>
      </trkpt>
      <trkpt lat="45.93265" lon="7.09864">
        <ele>1942</ele>
        <time>2022-08-27T17:11:14Z</time>
      </trkpt>
      <trkpt lat="45.93268" lon="7.09864">
        <ele>1942</ele>
        <time>2022-08-27T17:11:17Z</time>
      </trkpt>
      <trkpt lat="45.9327" lon="7.09865">
        <ele>1942</ele>
        <time>2022-08-27T17:11:19Z</time>
      </trkpt>
      <trkpt lat="45.93272" lon="7.09866">
        <ele>1942</ele>
        <time>2022-08-27T17:11:21Z</time>
      </trkpt>
      <trkpt lat="45.93275" lon="7.09867">
        <ele>1942</ele>
        <time>2022-08-27T17:11:23Z</time>
      </trkpt>
      <trkpt lat="45.93277" lon="7.09866">
        <ele>1942</ele>
        <time>2022-08-27T17:11:24Z</time>
      </trkpt>
      <trkpt lat="45.93278" lon="7.09865">
        <ele>1942</ele>
        <time>2022-08-27T17:11:25Z</time>
      </trkpt>
      <trkpt lat="45.9328" lon="7.09865">
        <ele>1942</ele>
        <time>2022-08-27T17:11:26Z</time>
      </trkpt>
      <trkpt lat="45.93281" lon="7.09864">
        <ele>1943</ele>
        <time>2022-08-27T17:11:27Z</time>
      </trkpt>
      <trkpt lat="45.93284" lon="7.09863">
        <ele>1943</ele>
        <time>2022-08-27T17:11:29Z</time>
      </trkpt>
      <trkpt lat="45.93286" lon="7.09864">
        <ele>1943</ele>
        <time>2022-08-27T17:11:33Z</time>
      </trkpt>
      <trkpt lat="45.93288" lon="7.09865">
        <ele>1944</ele>
        <time>2022-08-27T17:11:35Z</time>
      </trkpt>
      <trkpt lat="45.93291" lon="7.09866">
        <ele>1944</ele>
        <time>2022-08-27T17:11:37Z</time>
      </trkpt>
      <trkpt lat="45.93294" lon="7.09865">
        <ele>1943</ele>
        <time>2022-08-27T17:11:39Z</time>
      </trkpt>
      <trkpt lat="45.93296" lon="7.09866">
        <ele>1943</ele>
        <time>2022-08-27T17:11:40Z</time>
      </trkpt>
      <trkpt lat="45.93298" lon="7.09869">
        <ele>1943</ele>
        <time>2022-08-27T17:11:42Z</time>
      </trkpt>
      <trkpt lat="45.93301" lon="7.09869">
        <ele>1943</ele>
        <time>2022-08-27T17:11:45Z</time>
      </trkpt>
      <trkpt lat="45.93305" lon="7.09867">
        <ele>1943</ele>
        <time>2022-08-27T17:11:47Z</time>
      </trkpt>
      <trkpt lat="45.93308" lon="7.09867">
        <ele>1943</ele>
        <time>2022-08-27T17:11:49Z</time>
      </trkpt>
      <trkpt lat="45.9331" lon="7.09867">
        <ele>1943</ele>
        <time>2022-08-27T17:11:51Z</time>
      </trkpt>
      <trkpt lat="45.93312" lon="7.09867">
        <ele>1943</ele>
        <time>2022-08-27T17:11:53Z</time>
      </trkpt>
      <trkpt lat="45.93314" lon="7.09867">
        <ele>1943</ele>
        <time>2022-08-27T17:11:55Z</time>
      </trkpt>
      <trkpt lat="45.93316" lon="7.09867">
        <ele>1943</ele>
        <time>2022-08-27T17:11:57Z</time>
      </trkpt>
      <trkpt lat="45.93319" lon="7.09867">
        <ele>1944</ele>
        <time>2022-08-27T17:11:59Z</time>
      </trkpt>
      <trkpt lat="45.93321" lon="7.09866">
        <ele>1944</ele>
        <time>2022-08-27T17:12:01Z</time>
      </trkpt>
      <trkpt lat="45.93323" lon="7.09865">
        <ele>1944</ele>
        <time>2022-08-27T17:12:03Z</time>
      </trkpt>
      <trkpt lat="45.93326" lon="7.09865">
        <ele>1944</ele>
        <time>2022-08-27T17:12:05Z</time>
      </trkpt>
      <trkpt lat="45.93328" lon="7.09864">
        <ele>1944</ele>
        <time>2022-08-27T17:12:06Z</time>
      </trkpt>
      <trkpt lat="45.93331" lon="7.09862">
        <ele>1944</ele>
        <time>2022-08-27T17:12:08Z</time>
      </trkpt>
      <trkpt lat="45.93333" lon="7.09861">
        <ele>1944</ele>
        <time>2022-08-27T17:12:09Z</time>
      </trkpt>
      <trkpt lat="45.93336" lon="7.09859">
        <ele>1944</ele>
        <time>2022-08-27T17:12:11Z</time>
      </trkpt>
      <trkpt lat="45.93338" lon="7.09859">
        <ele>1944</ele>
        <time>2022-08-27T17:12:13Z</time>
      </trkpt>
      <trkpt lat="45.9334" lon="7.09858">
        <ele>1944</ele>
        <time>2022-08-27T17:12:15Z</time>
      </trkpt>
      <trkpt lat="45.93343" lon="7.09858">
        <ele>1944</ele>
        <time>2022-08-27T17:12:17Z</time>
      </trkpt>
      <trkpt lat="45.93346" lon="7.09858">
        <ele>1944</ele>
        <time>2022-08-27T17:12:18Z</time>
      </trkpt>
      <trkpt lat="45.93349" lon="7.09858">
        <ele>1944</ele>
        <time>2022-08-27T17:12:20Z</time>
      </trkpt>
      <trkpt lat="45.93352" lon="7.09857">
        <ele>1944</ele>
        <time>2022-08-27T17:12:22Z</time>
      </trkpt>
      <trkpt lat="45.93354" lon="7.09857">
        <ele>1944</ele>
        <time>2022-08-27T17:12:24Z</time>
      </trkpt>
      <trkpt lat="45.93357" lon="7.09857">
        <ele>1944</ele>
        <time>2022-08-27T17:12:26Z</time>
      </trkpt>
      <trkpt lat="45.9336" lon="7.09856">
        <ele>1944</ele>
        <time>2022-08-27T17:12:28Z</time>
      </trkpt>
      <trkpt lat="45.93362" lon="7.09856">
        <ele>1944</ele>
        <time>2022-08-27T17:12:30Z</time>
      </trkpt>
      <trkpt lat="45.93365" lon="7.09855">
        <ele>1944</ele>
        <time>2022-08-27T17:12:32Z</time>
      </trkpt>
      <trkpt lat="45.93368" lon="7.09854">
        <ele>1944</ele>
        <time>2022-08-27T17:12:34Z</time>
      </trkpt>
      <trkpt lat="45.9337" lon="7.09854">
        <ele>1944</ele>
        <time>2022-08-27T17:12:36Z</time>
      </trkpt>
      <trkpt lat="45.93373" lon="7.09854">
        <ele>1944</ele>
        <time>2022-08-27T17:12:38Z</time>
      </trkpt>
      <trkpt lat="45.93375" lon="7.09854">
        <ele>1944</ele>
        <time>2022-08-27T17:12:40Z</time>
      </trkpt>
      <trkpt lat="45.93378" lon="7.09853">
        <ele>1944</ele>
        <time>2022-08-27T17:12:42Z</time>
      </trkpt>
      <trkpt lat="45.93381" lon="7.09853">
        <ele>1944</ele>
        <time>2022-08-27T17:12:44Z</time>
      </trkpt>
      <trkpt lat="45.93383" lon="7.09852">
        <ele>1944</ele>
        <time>2022-08-27T17:12:46Z</time>
      </trkpt>
      <trkpt lat="45.93386" lon="7.09852">
        <ele>1944</ele>
        <time>2022-08-27T17:12:48Z</time>
      </trkpt>
      <trkpt lat="45.93389" lon="7.09851">
        <ele>1944</ele>
        <time>2022-08-27T17:12:50Z</time>
      </trkpt>
      <trkpt lat="45.93392" lon="7.09851">
        <ele>1943</ele>
        <time>2022-08-27T17:12:53Z</time>
      </trkpt>
      <trkpt lat="45.93394" lon="7.09851">
        <ele>1943</ele>
        <time>2022-08-27T17:12:54Z</time>
      </trkpt>
      <trkpt lat="45.93397" lon="7.0985">
        <ele>1943</ele>
        <time>2022-08-27T17:12:56Z</time>
      </trkpt>
      <trkpt lat="45.934" lon="7.0985">
        <ele>1943</ele>
        <time>2022-08-27T17:12:58Z</time>
      </trkpt>
      <trkpt lat="45.93402" lon="7.0985">
        <ele>1943</ele>
        <time>2022-08-27T17:13:00Z</time>
      </trkpt>
      <trkpt lat="45.93405" lon="7.09849">
        <ele>1943</ele>
        <time>2022-08-27T17:13:02Z</time>
      </trkpt>
      <trkpt lat="45.93407" lon="7.09848">
        <ele>1943</ele>
        <time>2022-08-27T17:13:04Z</time>
      </trkpt>
      <trkpt lat="45.9341" lon="7.09848">
        <ele>1943</ele>
        <time>2022-08-27T17:13:06Z</time>
      </trkpt>
      <trkpt lat="45.93412" lon="7.09848">
        <ele>1943</ele>
        <time>2022-08-27T17:13:08Z</time>
      </trkpt>
      <trkpt lat="45.93415" lon="7.09847">
        <ele>1943</ele>
        <time>2022-08-27T17:13:11Z</time>
      </trkpt>
      <trkpt lat="45.93417" lon="7.09847">
        <ele>1943</ele>
        <time>2022-08-27T17:13:12Z</time>
      </trkpt>
      <trkpt lat="45.9342" lon="7.09846">
        <ele>1943</ele>
        <time>2022-08-27T17:13:14Z</time>
      </trkpt>
      <trkpt lat="45.93423" lon="7.09845">
        <ele>1943</ele>
        <time>2022-08-27T17:13:16Z</time>
      </trkpt>
      <trkpt lat="45.93425" lon="7.09844">
        <ele>1943</ele>
        <time>2022-08-27T17:13:18Z</time>
      </trkpt>
      <trkpt lat="45.93428" lon="7.09844">
        <ele>1943</ele>
        <time>2022-08-27T17:13:20Z</time>
      </trkpt>
      <trkpt lat="45.9343" lon="7.09844">
        <ele>1943</ele>
        <time>2022-08-27T17:13:22Z</time>
      </trkpt>
      <trkpt lat="45.93432" lon="7.09843">
        <ele>1943</ele>
        <time>2022-08-27T17:13:24Z</time>
      </trkpt>
      <trkpt lat="45.93435" lon="7.09843">
        <ele>1943</ele>
        <time>2022-08-27T17:13:26Z</time>
      </trkpt>
      <trkpt lat="45.93438" lon="7.09842">
        <ele>1943</ele>
        <time>2022-08-27T17:13:29Z</time>
      </trkpt>
      <trkpt lat="45.9344" lon="7.09842">
        <ele>1943</ele>
        <time>2022-08-27T17:13:30Z</time>
      </trkpt>
      <trkpt lat="45.93443" lon="7.09841">
        <ele>1943</ele>
        <time>2022-08-27T17:13:32Z</time>
      </trkpt>
      <trkpt lat="45.93446" lon="7.09842">
        <ele>1943</ele>
        <time>2022-08-27T17:13:34Z</time>
      </trkpt>
      <trkpt lat="45.93449" lon="7.09841">
        <ele>1943</ele>
        <time>2022-08-27T17:13:36Z</time>
      </trkpt>
      <trkpt lat="45.93452" lon="7.09841">
        <ele>1943</ele>
        <time>2022-08-27T17:13:38Z</time>
      </trkpt>
      <trkpt lat="45.93455" lon="7.0984">
        <ele>1943</ele>
        <time>2022-08-27T17:13:41Z</time>
      </trkpt>
      <trkpt lat="45.93458" lon="7.0984">
        <ele>1943</ele>
        <time>2022-08-27T17:13:42Z</time>
      </trkpt>
      <trkpt lat="45.93459" lon="7.0984">
        <ele>1943</ele>
        <time>2022-08-27T17:13:43Z</time>
      </trkpt>
      <trkpt lat="45.93461" lon="7.0984">
        <ele>1943</ele>
        <time>2022-08-27T17:13:44Z</time>
      </trkpt>
      <trkpt lat="45.93464" lon="7.0984">
        <ele>1943</ele>
        <time>2022-08-27T17:13:46Z</time>
      </trkpt>
      <trkpt lat="45.93466" lon="7.0984">
        <ele>1943</ele>
        <time>2022-08-27T17:13:48Z</time>
      </trkpt>
      <trkpt lat="45.93469" lon="7.09839">
        <ele>1943</ele>
        <time>2022-08-27T17:13:50Z</time>
      </trkpt>
      <trkpt lat="45.93471" lon="7.0984">
        <ele>1943</ele>
        <time>2022-08-27T17:13:54Z</time>
      </trkpt>
      <trkpt lat="45.93475" lon="7.0984">
        <ele>1943</ele>
        <time>2022-08-27T17:13:56Z</time>
      </trkpt>
      <trkpt lat="45.93478" lon="7.0984">
        <ele>1943</ele>
        <time>2022-08-27T17:13:58Z</time>
      </trkpt>
      <trkpt lat="45.93481" lon="7.09839">
        <ele>1943</ele>
        <time>2022-08-27T17:14:00Z</time>
      </trkpt>
      <trkpt lat="45.93483" lon="7.09839">
        <ele>1943</ele>
        <time>2022-08-27T17:14:02Z</time>
      </trkpt>
      <trkpt lat="45.93486" lon="7.09839">
        <ele>1942</ele>
        <time>2022-08-27T17:14:05Z</time>
      </trkpt>
      <trkpt lat="45.9349" lon="7.09839">
        <ele>1942</ele>
        <time>2022-08-27T17:14:06Z</time>
      </trkpt>
      <trkpt lat="45.93493" lon="7.09839">
        <ele>1942</ele>
        <time>2022-08-27T17:14:08Z</time>
      </trkpt>
      <trkpt lat="45.93495" lon="7.09838">
        <ele>1942</ele>
        <time>2022-08-27T17:14:10Z</time>
      </trkpt>
      <trkpt lat="45.93498" lon="7.09838">
        <ele>1942</ele>
        <time>2022-08-27T17:14:12Z</time>
      </trkpt>
      <trkpt lat="45.935" lon="7.09839">
        <ele>1942</ele>
        <time>2022-08-27T17:14:15Z</time>
      </trkpt>
      <trkpt lat="45.93503" lon="7.09839">
        <ele>1942</ele>
        <time>2022-08-27T17:14:16Z</time>
      </trkpt>
      <trkpt lat="45.93506" lon="7.0984">
        <ele>1942</ele>
        <time>2022-08-27T17:14:18Z</time>
      </trkpt>
      <trkpt lat="45.93509" lon="7.0984">
        <ele>1942</ele>
        <time>2022-08-27T17:14:20Z</time>
      </trkpt>
      <trkpt lat="45.93512" lon="7.0984">
        <ele>1942</ele>
        <time>2022-08-27T17:14:22Z</time>
      </trkpt>
      <trkpt lat="45.93514" lon="7.09841">
        <ele>1942</ele>
        <time>2022-08-27T17:14:24Z</time>
      </trkpt>
      <trkpt lat="45.93517" lon="7.09841">
        <ele>1942</ele>
        <time>2022-08-27T17:14:26Z</time>
      </trkpt>
      <trkpt lat="45.93519" lon="7.09841">
        <ele>1942</ele>
        <time>2022-08-27T17:14:28Z</time>
      </trkpt>
      <trkpt lat="45.93523" lon="7.09841">
        <ele>1942</ele>
        <time>2022-08-27T17:14:30Z</time>
      </trkpt>
      <trkpt lat="45.93525" lon="7.09841">
        <ele>1942</ele>
        <time>2022-08-27T17:14:32Z</time>
      </trkpt>
      <trkpt lat="45.93528" lon="7.09841">
        <ele>1941</ele>
        <time>2022-08-27T17:14:34Z</time>
      </trkpt>
      <trkpt lat="45.9353" lon="7.09841">
        <ele>1941</ele>
        <time>2022-08-27T17:14:36Z</time>
      </trkpt>
      <trkpt lat="45.93533" lon="7.09841">
        <ele>1941</ele>
        <time>2022-08-27T17:14:38Z</time>
      </trkpt>
      <trkpt lat="45.93535" lon="7.09841">
        <ele>1941</ele>
        <time>2022-08-27T17:14:40Z</time>
      </trkpt>
      <trkpt lat="45.93537" lon="7.09841">
        <ele>1941</ele>
        <time>2022-08-27T17:14:42Z</time>
      </trkpt>
      <trkpt lat="45.9354" lon="7.09841">
        <ele>1941</ele>
        <time>2022-08-27T17:14:44Z</time>
      </trkpt>
      <trkpt lat="45.93542" lon="7.09841">
        <ele>1941</ele>
        <time>2022-08-27T17:14:46Z</time>
      </trkpt>
      <trkpt lat="45.93545" lon="7.09841">
        <ele>1941</ele>
        <time>2022-08-27T17:14:48Z</time>
      </trkpt>
      <trkpt lat="45.93548" lon="7.09841">
        <ele>1941</ele>
        <time>2022-08-27T17:14:50Z</time>
      </trkpt>
      <trkpt lat="45.9355" lon="7.09841">
        <ele>1941</ele>
        <time>2022-08-27T17:14:52Z</time>
      </trkpt>
      <trkpt lat="45.93553" lon="7.09841">
        <ele>1941</ele>
        <time>2022-08-27T17:14:54Z</time>
      </trkpt>
      <trkpt lat="45.93556" lon="7.09841">
        <ele>1941</ele>
        <time>2022-08-27T17:14:56Z</time>
      </trkpt>
      <trkpt lat="45.93559" lon="7.09841">
        <ele>1941</ele>
        <time>2022-08-27T17:14:58Z</time>
      </trkpt>
      <trkpt lat="45.93562" lon="7.09841">
        <ele>1941</ele>
        <time>2022-08-27T17:15:00Z</time>
      </trkpt>
      <trkpt lat="45.93564" lon="7.0984">
        <ele>1941</ele>
        <time>2022-08-27T17:15:02Z</time>
      </trkpt>
      <trkpt lat="45.93567" lon="7.0984">
        <ele>1940</ele>
        <time>2022-08-27T17:15:04Z</time>
      </trkpt>
      <trkpt lat="45.9357" lon="7.0984">
        <ele>1940</ele>
        <time>2022-08-27T17:15:06Z</time>
      </trkpt>
      <trkpt lat="45.93572" lon="7.0984">
        <ele>1940</ele>
        <time>2022-08-27T17:15:09Z</time>
      </trkpt>
      <trkpt lat="45.93574" lon="7.09841">
        <ele>1940</ele>
        <time>2022-08-27T17:15:12Z</time>
      </trkpt>
      <trkpt lat="45.93577" lon="7.09841">
        <ele>1940</ele>
        <time>2022-08-27T17:15:14Z</time>
      </trkpt>
      <trkpt lat="45.9358" lon="7.0984">
        <ele>1940</ele>
        <time>2022-08-27T17:15:16Z</time>
      </trkpt>
      <trkpt lat="45.93582" lon="7.0984">
        <ele>1940</ele>
        <time>2022-08-27T17:15:18Z</time>
      </trkpt>
      <trkpt lat="45.93585" lon="7.09839">
        <ele>1940</ele>
        <time>2022-08-27T17:15:20Z</time>
      </trkpt>
      <trkpt lat="45.93587" lon="7.09838">
        <ele>1941</ele>
        <time>2022-08-27T17:15:23Z</time>
      </trkpt>
      <trkpt lat="45.93589" lon="7.09836">
        <ele>1941</ele>
        <time>2022-08-27T17:15:24Z</time>
      </trkpt>
      <trkpt lat="45.93591" lon="7.09836">
        <ele>1940</ele>
        <time>2022-08-27T17:15:26Z</time>
      </trkpt>
      <trkpt lat="45.93593" lon="7.09835">
        <ele>1940</ele>
        <time>2022-08-27T17:15:28Z</time>
      </trkpt>
      <trkpt lat="45.93595" lon="7.09834">
        <ele>1939</ele>
        <time>2022-08-27T17:15:30Z</time>
      </trkpt>
      <trkpt lat="45.93594" lon="7.09838">
        <ele>1939</ele>
        <time>2022-08-27T17:15:51Z</time>
      </trkpt>
      <trkpt lat="45.93594" lon="7.09838">
        <ele>1939</ele>
        <time>2022-08-27T17:15:53Z</time>
      </trkpt>
      <trkpt lat="45.93593" lon="7.09841">
        <ele>1939</ele>
        <time>2022-08-27T17:15:55Z</time>
      </trkpt>
      <trkpt lat="45.93594" lon="7.09844">
        <ele>1939</ele>
        <time>2022-08-27T17:16:07Z</time>
      </trkpt>
      <trkpt lat="45.93595" lon="7.09846">
        <ele>1939</ele>
        <time>2022-08-27T17:16:16Z</time>
      </trkpt>
      <trkpt lat="45.93595" lon="7.09846">
        <ele>1939</ele>
        <time>2022-08-27T17:16:27Z</time>
      </trkpt>
      <trkpt lat="45.93596" lon="7.09843">
        <ele>1939</ele>
        <time>2022-08-27T17:16:43Z</time>
      </trkpt>
      <trkpt lat="45.93596" lon="7.09843">
        <ele>1939</ele>
        <time>2022-08-27T17:16:47Z</time>
      </trkpt>
      <trkpt lat="45.93596" lon="7.09843">
        <ele>1939</ele>
        <time>2022-08-27T17:17:04Z</time>
      </trkpt>
      <trkpt lat="45.93597" lon="7.09841">
        <ele>1939</ele>
        <time>2022-08-27T17:17:23Z</time>
      </trkpt>
      <trkpt lat="45.93597" lon="7.09841">
        <ele>1939</ele>
        <time>2022-08-27T17:17:24Z</time>
      </trkpt>
      <trkpt lat="45.936" lon="7.0984">
        <ele>1938</ele>
        <time>2022-08-27T17:17:26Z</time>
      </trkpt>
      <trkpt lat="45.93603" lon="7.09838">
        <ele>1939</ele>
        <time>2022-08-27T17:17:29Z</time>
      </trkpt>
      <trkpt lat="45.93605" lon="7.09836">
        <ele>1939</ele>
        <time>2022-08-27T17:17:31Z</time>
      </trkpt>
      <trkpt lat="45.93607" lon="7.09835">
        <ele>1939</ele>
        <time>2022-08-27T17:17:34Z</time>
      </trkpt>
      <trkpt lat="45.93609" lon="7.09834">
        <ele>1939</ele>
        <time>2022-08-27T17:17:35Z</time>
      </trkpt>
      <trkpt lat="45.93611" lon="7.09833">
        <ele>1939</ele>
        <time>2022-08-27T17:17:37Z</time>
      </trkpt>
      <trkpt lat="45.93613" lon="7.09832">
        <ele>1939</ele>
        <time>2022-08-27T17:17:39Z</time>
      </trkpt>
      <trkpt lat="45.93616" lon="7.09832">
        <ele>1938</ele>
        <time>2022-08-27T17:17:41Z</time>
      </trkpt>
      <trkpt lat="45.93619" lon="7.09831">
        <ele>1938</ele>
        <time>2022-08-27T17:17:43Z</time>
      </trkpt>
      <trkpt lat="45.93621" lon="7.0983">
        <ele>1938</ele>
        <time>2022-08-27T17:17:45Z</time>
      </trkpt>
      <trkpt lat="45.93619" lon="7.09829">
        <ele>1938</ele>
        <time>2022-08-27T17:17:51Z</time>
      </trkpt>
      <trkpt lat="45.93617" lon="7.09829">
        <ele>1938</ele>
        <time>2022-08-27T17:17:53Z</time>
      </trkpt>
      <trkpt lat="45.93615" lon="7.09829">
        <ele>1938</ele>
        <time>2022-08-27T17:17:56Z</time>
      </trkpt>
      <trkpt lat="45.93614" lon="7.09826">
        <ele>1937</ele>
        <time>2022-08-27T17:17:59Z</time>
      </trkpt>
      <trkpt lat="45.93612" lon="7.09824">
        <ele>1938</ele>
        <time>2022-08-27T17:18:02Z</time>
      </trkpt>
      <trkpt lat="45.93611" lon="7.09822">
        <ele>1938</ele>
        <time>2022-08-27T17:18:05Z</time>
      </trkpt>
      <trkpt lat="45.9361" lon="7.09819">
        <ele>1938</ele>
        <time>2022-08-27T17:18:09Z</time>
      </trkpt>
      <trkpt lat="45.93611" lon="7.09816">
        <ele>1938</ele>
        <time>2022-08-27T17:18:13Z</time>
      </trkpt>
      <trkpt lat="45.93611" lon="7.09814">
        <ele>1938</ele>
        <time>2022-08-27T17:18:19Z</time>
      </trkpt>
      <trkpt lat="45.93611" lon="7.09814">
        <ele>1938</ele>
        <time>2022-08-27T17:18:33Z</time>
      </trkpt>
      <trkpt lat="45.93612" lon="7.09811">
        <ele>1938</ele>
        <time>2022-08-27T17:18:39Z</time>
      </trkpt>
      <trkpt lat="45.93613" lon="7.09809">
        <ele>1938</ele>
        <time>2022-08-27T17:18:50Z</time>
      </trkpt>
      <trkpt lat="45.93613" lon="7.09809">
        <ele>1938</ele>
        <time>2022-08-27T17:18:52Z</time>
      </trkpt>
      <trkpt lat="45.93613" lon="7.09806">
        <ele>1937</ele>
        <time>2022-08-27T17:19:02Z</time>
      </trkpt>
      <trkpt lat="45.93613" lon="7.09806">
        <ele>1937</ele>
        <time>2022-08-27T17:19:13Z</time>
      </trkpt>
      <trkpt lat="45.93615" lon="7.09807">
        <ele>1938</ele>
        <time>2022-08-27T17:19:16Z</time>
      </trkpt>
      <trkpt lat="45.93615" lon="7.09807">
        <ele>1937</ele>
        <time>2022-08-27T17:19:31Z</time>
      </trkpt>
      <trkpt lat="45.93614" lon="7.0981">
        <ele>1937</ele>
        <time>2022-08-27T17:19:45Z</time>
      </trkpt>
      <trkpt lat="45.93614" lon="7.09813">
        <ele>1938</ele>
        <time>2022-08-27T17:19:47Z</time>
      </trkpt>
      <trkpt lat="45.93614" lon="7.09816">
        <ele>1938</ele>
        <time>2022-08-27T17:19:49Z</time>
      </trkpt>
      <trkpt lat="45.93613" lon="7.09818">
        <ele>1938</ele>
        <time>2022-08-27T17:19:54Z</time>
      </trkpt>
      <trkpt lat="45.93613" lon="7.09818">
        <ele>1938</ele>
        <time>2022-08-27T17:20:05Z</time>
      </trkpt>
      <trkpt lat="45.93611" lon="7.09819">
        <ele>1938</ele>
        <time>2022-08-27T17:20:06Z</time>
      </trkpt>
      <trkpt lat="45.93611" lon="7.09819">
        <ele>1937</ele>
        <time>2022-08-27T17:20:23Z</time>
      </trkpt>
      <trkpt lat="45.93613" lon="7.09818">
        <ele>1937</ele>
        <time>2022-08-27T17:20:26Z</time>
      </trkpt>
      <trkpt lat="45.93615" lon="7.09816">
        <ele>1937</ele>
        <time>2022-08-27T17:20:29Z</time>
      </trkpt>
      <trkpt lat="45.93615" lon="7.09813">
        <ele>1937</ele>
        <time>2022-08-27T17:20:37Z</time>
      </trkpt>
      <trkpt lat="45.93615" lon="7.09813">
        <ele>1937</ele>
        <time>2022-08-27T17:20:45Z</time>
      </trkpt>
      <trkpt lat="45.93615" lon="7.09813">
        <ele>1938</ele>
        <time>2022-08-27T17:21:02Z</time>
      </trkpt>
      <trkpt lat="45.93616" lon="7.09812">
        <ele>1938</ele>
        <time>2022-08-27T17:21:03Z</time>
      </trkpt>
      <trkpt lat="45.93616" lon="7.09812">
        <ele>1937</ele>
        <time>2022-08-27T17:21:24Z</time>
      </trkpt>
      <trkpt lat="45.93618" lon="7.09812">
        <ele>1937</ele>
        <time>2022-08-27T17:21:34Z</time>
      </trkpt>
      <trkpt lat="45.93618" lon="7.09812">
        <ele>1938</ele>
        <time>2022-08-27T17:21:41Z</time>
      </trkpt>
      <trkpt lat="45.93618" lon="7.09812">
        <ele>1937</ele>
        <time>2022-08-27T17:21:58Z</time>
      </trkpt>
      <trkpt lat="45.93618" lon="7.09812">
        <ele>1938</ele>
        <time>2022-08-27T17:22:15Z</time>
      </trkpt>
      <trkpt lat="45.9362" lon="7.0981">
        <ele>1938</ele>
        <time>2022-08-27T17:22:16Z</time>
      </trkpt>
      <trkpt lat="45.93621" lon="7.09811">
        <ele>1938</ele>
        <time>2022-08-27T17:22:22Z</time>
      </trkpt>
      <trkpt lat="45.93621" lon="7.09811">
        <ele>1937</ele>
        <time>2022-08-27T17:22:34Z</time>
      </trkpt>
      <trkpt lat="45.93621" lon="7.09808">
        <ele>1937</ele>
        <time>2022-08-27T17:22:44Z</time>
      </trkpt>
      <trkpt lat="45.93621" lon="7.09808">
        <ele>1937</ele>
        <time>2022-08-27T17:22:52Z</time>
      </trkpt>
      <trkpt lat="45.93621" lon="7.09808">
        <ele>1937</ele>
        <time>2022-08-27T17:23:09Z</time>
      </trkpt>
      <trkpt lat="45.93621" lon="7.09808">
        <ele>1937</ele>
        <time>2022-08-27T17:23:26Z</time>
      </trkpt>
      <trkpt lat="45.93621" lon="7.09808">
        <ele>1937</ele>
        <time>2022-08-27T17:23:43Z</time>
      </trkpt>
      <trkpt lat="45.93621" lon="7.09808">
        <ele>1937</ele>
        <time>2022-08-27T17:24:00Z</time>
      </trkpt>
      <trkpt lat="45.93621" lon="7.09808">
        <ele>1937</ele>
        <time>2022-08-27T17:24:17Z</time>
      </trkpt>
      <trkpt lat="45.93621" lon="7.09808">
        <ele>1937</ele>
        <time>2022-08-27T17:24:35Z</time>
      </trkpt>
      <trkpt lat="45.93622" lon="7.09807">
        <ele>1937</ele>
        <time>2022-08-27T17:24:44Z</time>
      </trkpt>
      <trkpt lat="45.93622" lon="7.09807">
        <ele>1937</ele>
        <time>2022-08-27T17:24:53Z</time>
      </trkpt>
      <trkpt lat="45.93622" lon="7.09807">
        <ele>1937</ele>
        <time>2022-08-27T17:25:09Z</time>
      </trkpt>
      <trkpt lat="45.93622" lon="7.09807">
        <ele>1937</ele>
        <time>2022-08-27T17:25:26Z</time>
      </trkpt>
      <trkpt lat="45.93622" lon="7.09807">
        <ele>1937</ele>
        <time>2022-08-27T17:25:43Z</time>
      </trkpt>
      <trkpt lat="45.93622" lon="7.09807">
        <ele>1937</ele>
        <time>2022-08-27T17:26:00Z</time>
      </trkpt>
      <trkpt lat="45.93622" lon="7.09807">
        <ele>1937</ele>
        <time>2022-08-27T17:26:17Z</time>
      </trkpt>
      <trkpt lat="45.93622" lon="7.09807">
        <ele>1937</ele>
        <time>2022-08-27T17:26:34Z</time>
      </trkpt>
      <trkpt lat="45.93622" lon="7.09807">
        <ele>1937</ele>
        <time>2022-08-27T17:26:51Z</time>
      </trkpt>
      <trkpt lat="45.93622" lon="7.09807">
        <ele>1937</ele>
        <time>2022-08-27T17:27:09Z</time>
      </trkpt>
      <trkpt lat="45.93622" lon="7.09807">
        <ele>1937</ele>
        <time>2022-08-27T17:27:27Z</time>
      </trkpt>
      <trkpt lat="45.93622" lon="7.09807">
        <ele>1937</ele>
        <time>2022-08-27T17:27:44Z</time>
      </trkpt>
      <trkpt lat="45.93622" lon="7.09807">
        <ele>1937</ele>
        <time>2022-08-27T17:28:03Z</time>
      </trkpt>
      <trkpt lat="45.93622" lon="7.09807">
        <ele>1937</ele>
        <time>2022-08-27T17:28:19Z</time>
      </trkpt>
      <trkpt lat="45.93621" lon="7.09809">
        <ele>1937</ele>
        <time>2022-08-27T17:28:30Z</time>
      </trkpt>
      <trkpt lat="45.93621" lon="7.09809">
        <ele>1937</ele>
        <time>2022-08-27T17:28:37Z</time>
      </trkpt>
      <trkpt lat="45.93621" lon="7.09809">
        <ele>1937</ele>
        <time>2022-08-27T17:28:54Z</time>
      </trkpt>
      <trkpt lat="45.93621" lon="7.09809">
        <ele>1937</ele>
        <time>2022-08-27T17:29:11Z</time>
      </trkpt>
      <trkpt lat="45.93621" lon="7.09809">
        <ele>1937</ele>
        <time>2022-08-27T17:29:28Z</time>
      </trkpt>
      <trkpt lat="45.9362" lon="7.09811">
        <ele>1937</ele>
        <time>2022-08-27T17:29:44Z</time>
      </trkpt>
      <trkpt lat="45.9362" lon="7.09811">
        <ele>1937</ele>
        <time>2022-08-27T17:29:46Z</time>
      </trkpt>
      <trkpt lat="45.9362" lon="7.09811">
        <ele>1937</ele>
        <time>2022-08-27T17:30:03Z</time>
      </trkpt>
      <trkpt lat="45.9362" lon="7.09811">
        <ele>1937</ele>
        <time>2022-08-27T17:30:20Z</time>
      </trkpt>
      <trkpt lat="45.9362" lon="7.09811">
        <ele>1937</ele>
        <time>2022-08-27T17:30:37Z</time>
      </trkpt>
      <trkpt lat="45.93618" lon="7.09812">
        <ele>1937</ele>
        <time>2022-08-27T17:30:51Z</time>
      </trkpt>
      <trkpt lat="45.93618" lon="7.09812">
        <ele>1937</ele>
        <time>2022-08-27T17:30:56Z</time>
      </trkpt>
      <trkpt lat="45.93618" lon="7.09812">
        <ele>1937</ele>
        <time>2022-08-27T17:31:14Z</time>
      </trkpt>
      <trkpt lat="45.93618" lon="7.09812">
        <ele>1937</ele>
        <time>2022-08-27T17:31:34Z</time>
      </trkpt>
      <trkpt lat="45.93618" lon="7.09812">
        <ele>1937</ele>
        <time>2022-08-27T17:31:53Z</time>
      </trkpt>
      <trkpt lat="45.93618" lon="7.09812">
        <ele>1937</ele>
        <time>2022-08-27T17:32:14Z</time>
      </trkpt>
      <trkpt lat="45.9362" lon="7.09812">
        <ele>1937</ele>
        <time>2022-08-27T17:32:16Z</time>
      </trkpt>
      <trkpt lat="45.9362" lon="7.09812">
        <ele>1937</ele>
        <time>2022-08-27T17:32:35Z</time>
      </trkpt>
      <trkpt lat="45.9362" lon="7.09812">
        <ele>1937</ele>
        <time>2022-08-27T17:32:53Z</time>
      </trkpt>
      <trkpt lat="45.9362" lon="7.09812">
        <ele>1937</ele>
        <time>2022-08-27T17:33:10Z</time>
      </trkpt>
      <trkpt lat="45.9362" lon="7.09812">
        <ele>1937</ele>
        <time>2022-08-27T17:33:27Z</time>
      </trkpt>
      <trkpt lat="45.9362" lon="7.09812">
        <ele>1937</ele>
        <time>2022-08-27T17:33:50Z</time>
      </trkpt>
      <trkpt lat="45.93619" lon="7.09809">
        <ele>1937</ele>
        <time>2022-08-27T17:34:05Z</time>
      </trkpt>
      <trkpt lat="45.93619" lon="7.09809">
        <ele>1937</ele>
        <time>2022-08-27T17:34:09Z</time>
      </trkpt>
      <trkpt lat="45.93619" lon="7.09809">
        <ele>1937</ele>
        <time>2022-08-27T17:34:30Z</time>
      </trkpt>
      <trkpt lat="45.93619" lon="7.09809">
        <ele>1937</ele>
        <time>2022-08-27T17:34:50Z</time>
      </trkpt>
      <trkpt lat="45.93621" lon="7.09811">
        <ele>1937</ele>
        <time>2022-08-27T17:35:08Z</time>
      </trkpt>
      <trkpt lat="45.93621" lon="7.09811">
        <ele>1937</ele>
        <time>2022-08-27T17:35:12Z</time>
      </trkpt>
      <trkpt lat="45.93621" lon="7.09811">
        <ele>1937</ele>
        <time>2022-08-27T17:35:30Z</time>
      </trkpt>
      <trkpt lat="45.9362" lon="7.09814">
        <ele>1937</ele>
        <time>2022-08-27T17:35:51Z</time>
      </trkpt>
      <trkpt lat="45.9362" lon="7.09814">
        <ele>1937</ele>
        <time>2022-08-27T17:35:52Z</time>
      </trkpt>
      <trkpt lat="45.9362" lon="7.09814">
        <ele>1937</ele>
        <time>2022-08-27T17:36:11Z</time>
      </trkpt>
      <trkpt lat="45.9362" lon="7.09814">
        <ele>1937</ele>
        <time>2022-08-27T17:36:30Z</time>
      </trkpt>
      <trkpt lat="45.9362" lon="7.09814">
        <ele>1937</ele>
        <time>2022-08-27T17:36:47Z</time>
      </trkpt>
      <trkpt lat="45.93618" lon="7.09815">
        <ele>1937</ele>
        <time>2022-08-27T17:37:00Z</time>
      </trkpt>
      <trkpt lat="45.93618" lon="7.09815">
        <ele>1937</ele>
        <time>2022-08-27T17:37:05Z</time>
      </trkpt>
      <trkpt lat="45.93618" lon="7.09815">
        <ele>1937</ele>
        <time>2022-08-27T17:37:25Z</time>
      </trkpt>
      <trkpt lat="45.93618" lon="7.09812">
        <ele>1937</ele>
        <time>2022-08-27T17:37:35Z</time>
      </trkpt>
      <trkpt lat="45.93618" lon="7.09812">
        <ele>1937</ele>
        <time>2022-08-27T17:37:48Z</time>
      </trkpt>
      <trkpt lat="45.93618" lon="7.09812">
        <ele>1937</ele>
        <time>2022-08-27T17:38:07Z</time>
      </trkpt>
      <trkpt lat="45.93618" lon="7.09812">
        <ele>1937</ele>
        <time>2022-08-27T17:38:26Z</time>
      </trkpt>
      <trkpt lat="45.93618" lon="7.09815">
        <ele>1937</ele>
        <time>2022-08-27T17:38:31Z</time>
      </trkpt>
      <trkpt lat="45.93618" lon="7.09815">
        <ele>1937</ele>
        <time>2022-08-27T17:38:32Z</time>
      </trkpt>
      <trkpt lat="45.93618" lon="7.09815">
        <ele>1937</ele>
        <time>2022-08-27T17:38:33Z</time>
      </trkpt>
      <trkpt lat="45.93618" lon="7.09815">
        <ele>1937</ele>
        <time>2022-08-27T17:38:34Z</time>
      </trkpt>
      <trkpt lat="45.93618" lon="7.09815">
        <ele>1937</ele>
        <time>2022-08-27T17:38:35Z</time>
      </trkpt>
      <trkpt lat="45.93618" lon="7.09814">
        <ele>1937</ele>
        <time>2022-08-27T17:38:36Z</time>
      </trkpt>
      <trkpt lat="45.93618" lon="7.09814">
        <ele>1937</ele>
        <time>2022-08-27T17:38:39Z</time>
      </trkpt>
      <trkpt lat="45.93618" lon="7.09814">
        <ele>1937</ele>
        <time>2022-08-27T17:38:40Z</time>
      </trkpt>
      <trkpt lat="45.93618" lon="7.09814">
        <ele>1937</ele>
        <time>2022-08-27T17:38:41Z</time>
      </trkpt>
      <trkpt lat="45.93618" lon="7.09814">
        <ele>1937</ele>
        <time>2022-08-27T17:38:43Z</time>
      </trkpt>
      <trkpt lat="45.93618" lon="7.09814">
        <ele>1937</ele>
        <time>2022-08-27T17:38:44Z</time>
      </trkpt>
      <trkpt lat="45.93618" lon="7.09814">
        <ele>1937</ele>
        <time>2022-08-27T17:38:46Z</time>
      </trkpt>
      <trkpt lat="45.93618" lon="7.09814">
        <ele>1937</ele>
        <time>2022-08-27T17:38:47Z</time>
      </trkpt>
      <trkpt lat="45.93618" lon="7.09814">
        <ele>1937</ele>
        <time>2022-08-27T17:38:50Z</time>
      </trkpt>
      <trkpt lat="45.93618" lon="7.09814">
        <ele>1937</ele>
        <time>2022-08-27T17:38:51Z</time>
      </trkpt>
      <trkpt lat="45.93618" lon="7.09814">
        <ele>1937</ele>
        <time>2022-08-27T17:38:54Z</time>
      </trkpt>
      <trkpt lat="45.93618" lon="7.09813">
        <ele>1937</ele>
        <time>2022-08-27T17:38:56Z</time>
      </trkpt>
      <trkpt lat="45.93618" lon="7.09813">
        <ele>1937</ele>
        <time>2022-08-27T17:38:58Z</time>
      </trkpt>
      <trkpt lat="45.93618" lon="7.09813">
        <ele>1937</ele>
        <time>2022-08-27T17:38:59Z</time>
      </trkpt>
      <trkpt lat="45.93618" lon="7.09813">
        <ele>1937</ele>
        <time>2022-08-27T17:39:02Z</time>
      </trkpt>
      <trkpt lat="45.93618" lon="7.09813">
        <ele>1937</ele>
        <time>2022-08-27T17:39:03Z</time>
      </trkpt>
      <trkpt lat="45.93618" lon="7.09813">
        <ele>1937</ele>
        <time>2022-08-27T17:39:06Z</time>
      </trkpt>
      <trkpt lat="45.93618" lon="7.09813">
        <ele>1937</ele>
        <time>2022-08-27T17:39:09Z</time>
      </trkpt>
      <trkpt lat="45.93618" lon="7.09813">
        <ele>1937</ele>
        <time>2022-08-27T17:39:10Z</time>
      </trkpt>
      <trkpt lat="45.93618" lon="7.09813">
        <ele>1937</ele>
        <time>2022-08-27T17:39:13Z</time>
      </trkpt>
      <trkpt lat="45.93618" lon="7.09813">
        <ele>1937</ele>
        <time>2022-08-27T17:39:14Z</time>
      </trkpt>
      <trkpt lat="45.93618" lon="7.09812">
        <ele>1937</ele>
        <time>2022-08-27T17:39:16Z</time>
      </trkpt>
      <trkpt lat="45.93618" lon="7.09812">
        <ele>1937</ele>
        <time>2022-08-27T17:39:17Z</time>
      </trkpt>
      <trkpt lat="45.93618" lon="7.09812">
        <ele>1937</ele>
        <time>2022-08-27T17:39:20Z</time>
      </trkpt>
      <trkpt lat="45.93618" lon="7.09812">
        <ele>1937</ele>
        <time>2022-08-27T17:39:21Z</time>
      </trkpt>
      <trkpt lat="45.93618" lon="7.09812">
        <ele>1937</ele>
        <time>2022-08-27T17:39:23Z</time>
      </trkpt>
      <trkpt lat="45.93618" lon="7.09812">
        <ele>1937</ele>
        <time>2022-08-27T17:39:25Z</time>
      </trkpt>
      <trkpt lat="45.93618" lon="7.09812">
        <ele>1937</ele>
        <time>2022-08-27T17:39:28Z</time>
      </trkpt>
      <trkpt lat="45.93618" lon="7.09812">
        <ele>1937</ele>
        <time>2022-08-27T17:39:29Z</time>
      </trkpt>
      <trkpt lat="45.93618" lon="7.09812">
        <ele>1937</ele>
        <time>2022-08-27T17:39:31Z</time>
      </trkpt>
      <trkpt lat="45.93618" lon="7.09812">
        <ele>1937</ele>
        <time>2022-08-27T17:39:32Z</time>
      </trkpt>
      <trkpt lat="45.93618" lon="7.09812">
        <ele>1937</ele>
        <time>2022-08-27T17:39:33Z</time>
      </trkpt>
      <trkpt lat="45.93618" lon="7.09811">
        <ele>1937</ele>
        <time>2022-08-27T17:39:36Z</time>
      </trkpt>
      <trkpt lat="45.93618" lon="7.09811">
        <ele>1937</ele>
        <time>2022-08-27T17:39:37Z</time>
      </trkpt>
      <trkpt lat="45.93617" lon="7.09811">
        <ele>1937</ele>
        <time>2022-08-27T17:39:38Z</time>
      </trkpt>
      <trkpt lat="45.93617" lon="7.09811">
        <ele>1937</ele>
        <time>2022-08-27T17:39:39Z</time>
      </trkpt>
      <trkpt lat="45.93617" lon="7.09811">
        <ele>1937</ele>
        <time>2022-08-27T17:39:40Z</time>
      </trkpt>
      <trkpt lat="45.93615" lon="7.09808">
        <ele>1937</ele>
        <time>2022-08-27T17:39:50Z</time>
      </trkpt>
      <trkpt lat="45.93615" lon="7.09808">
        <ele>1937</ele>
        <time>2022-08-27T17:40:01Z</time>
      </trkpt>
      <trkpt lat="45.93613" lon="7.09809">
        <ele>1937</ele>
        <time>2022-08-27T17:40:05Z</time>
      </trkpt>
      <trkpt lat="45.93613" lon="7.09809">
        <ele>1937</ele>
        <time>2022-08-27T17:40:22Z</time>
      </trkpt>
      <trkpt lat="45.93615" lon="7.09814">
        <ele>1937</ele>
        <time>2022-08-27T17:40:28Z</time>
      </trkpt>
      <trkpt lat="45.93615" lon="7.09814">
        <ele>1937</ele>
        <time>2022-08-27T17:40:44Z</time>
      </trkpt>
      <trkpt lat="45.93618" lon="7.09809">
        <ele>1937</ele>
        <time>2022-08-27T17:40:54Z</time>
      </trkpt>
      <trkpt lat="45.93617" lon="7.0981">
        <ele>1937</ele>
        <time>2022-08-27T17:40:55Z</time>
      </trkpt>
      <trkpt lat="45.93617" lon="7.0981">
        <ele>1937</ele>
        <time>2022-08-27T17:40:56Z</time>
      </trkpt>
      <trkpt lat="45.93617" lon="7.09811">
        <ele>1937</ele>
        <time>2022-08-27T17:40:57Z</time>
      </trkpt>
      <trkpt lat="45.93617" lon="7.09811">
        <ele>1937</ele>
        <time>2022-08-27T17:40:59Z</time>
      </trkpt>
      <trkpt lat="45.93617" lon="7.09811">
        <ele>1937</ele>
        <time>2022-08-27T17:41:00Z</time>
      </trkpt>
      <trkpt lat="45.93617" lon="7.09812">
        <ele>1937</ele>
        <time>2022-08-27T17:41:02Z</time>
      </trkpt>
      <trkpt lat="45.93617" lon="7.09812">
        <ele>1937</ele>
        <time>2022-08-27T17:41:03Z</time>
      </trkpt>
      <trkpt lat="45.93617" lon="7.09813">
        <ele>1937</ele>
        <time>2022-08-27T17:41:04Z</time>
      </trkpt>
      <trkpt lat="45.93617" lon="7.09813">
        <ele>1937</ele>
        <time>2022-08-27T17:41:05Z</time>
      </trkpt>
      <trkpt lat="45.93616" lon="7.09813">
        <ele>1937</ele>
        <time>2022-08-27T17:41:06Z</time>
      </trkpt>
      <trkpt lat="45.93616" lon="7.09814">
        <ele>1937</ele>
        <time>2022-08-27T17:41:07Z</time>
      </trkpt>
      <trkpt lat="45.93616" lon="7.09814">
        <ele>1937</ele>
        <time>2022-08-27T17:41:08Z</time>
      </trkpt>
      <trkpt lat="45.93616" lon="7.09814">
        <ele>1937</ele>
        <time>2022-08-27T17:41:09Z</time>
      </trkpt>
      <trkpt lat="45.93616" lon="7.09815">
        <ele>1937</ele>
        <time>2022-08-27T17:41:11Z</time>
      </trkpt>
      <trkpt lat="45.93616" lon="7.09815">
        <ele>1937</ele>
        <time>2022-08-27T17:41:12Z</time>
      </trkpt>
      <trkpt lat="45.93616" lon="7.09815">
        <ele>1937</ele>
        <time>2022-08-27T17:41:30Z</time>
      </trkpt>
      <trkpt lat="45.93616" lon="7.09818">
        <ele>1937</ele>
        <time>2022-08-27T17:41:43Z</time>
      </trkpt>
      <trkpt lat="45.93617" lon="7.09821">
        <ele>1937</ele>
        <time>2022-08-27T17:41:47Z</time>
      </trkpt>
      <trkpt lat="45.93617" lon="7.09824">
        <ele>1937</ele>
        <time>2022-08-27T17:41:51Z</time>
      </trkpt>
      <trkpt lat="45.93616" lon="7.09827">
        <ele>1937</ele>
        <time>2022-08-27T17:41:54Z</time>
      </trkpt>
      <trkpt lat="45.93615" lon="7.0983">
        <ele>1937</ele>
        <time>2022-08-27T17:41:58Z</time>
      </trkpt>
      <trkpt lat="45.93616" lon="7.09825">
        <ele>1937</ele>
        <time>2022-08-27T17:42:02Z</time>
      </trkpt>
      <trkpt lat="45.93614" lon="7.09823">
        <ele>1937</ele>
        <time>2022-08-27T17:42:06Z</time>
      </trkpt>
      <trkpt lat="45.93612" lon="7.09821">
        <ele>1937</ele>
        <time>2022-08-27T17:42:07Z</time>
      </trkpt>
      <trkpt lat="45.9361" lon="7.09823">
        <ele>1937</ele>
        <time>2022-08-27T17:42:12Z</time>
      </trkpt>
      <trkpt lat="45.93608" lon="7.09823">
        <ele>1937</ele>
        <time>2022-08-27T17:42:19Z</time>
      </trkpt>
      <trkpt lat="45.93608" lon="7.09823">
        <ele>1937</ele>
        <time>2022-08-27T17:42:27Z</time>
      </trkpt>
      <trkpt lat="45.93609" lon="7.09821">
        <ele>1937</ele>
        <time>2022-08-27T17:42:44Z</time>
      </trkpt>
      <trkpt lat="45.93609" lon="7.09821">
        <ele>1937</ele>
        <time>2022-08-27T17:42:48Z</time>
      </trkpt>
      <trkpt lat="45.93609" lon="7.09821">
        <ele>1937</ele>
        <time>2022-08-27T17:43:07Z</time>
      </trkpt>
      <trkpt lat="45.9361" lon="7.09818">
        <ele>1937</ele>
        <time>2022-08-27T17:43:18Z</time>
      </trkpt>
      <trkpt lat="45.9361" lon="7.09818">
        <ele>1937</ele>
        <time>2022-08-27T17:43:29Z</time>
      </trkpt>
      <trkpt lat="45.9361" lon="7.09816">
        <ele>1937</ele>
        <time>2022-08-27T17:43:33Z</time>
      </trkpt>
      <trkpt lat="45.9361" lon="7.09816">
        <ele>1937</ele>
        <time>2022-08-27T17:43:49Z</time>
      </trkpt>
      <trkpt lat="45.9361" lon="7.0982">
        <ele>1937</ele>
        <time>2022-08-27T17:43:54Z</time>
      </trkpt>
      <trkpt lat="45.93612" lon="7.09819">
        <ele>1937</ele>
        <time>2022-08-27T17:43:56Z</time>
      </trkpt>
      <trkpt lat="45.93612" lon="7.09815">
        <ele>1937</ele>
        <time>2022-08-27T17:44:00Z</time>
      </trkpt>
      <trkpt lat="45.93612" lon="7.09812">
        <ele>1937</ele>
        <time>2022-08-27T17:44:03Z</time>
      </trkpt>
      <trkpt lat="45.93612" lon="7.09812">
        <ele>1937</ele>
        <time>2022-08-27T17:44:18Z</time>
      </trkpt>
      <trkpt lat="45.93613" lon="7.09815">
        <ele>1937</ele>
        <time>2022-08-27T17:44:29Z</time>
      </trkpt>
      <trkpt lat="45.93614" lon="7.09818">
        <ele>1937</ele>
        <time>2022-08-27T17:44:33Z</time>
      </trkpt>
      <trkpt lat="45.93616" lon="7.09817">
        <ele>1937</ele>
        <time>2022-08-27T17:44:43Z</time>
      </trkpt>
      <trkpt lat="45.93616" lon="7.09817">
        <ele>1937</ele>
        <time>2022-08-27T17:44:50Z</time>
      </trkpt>
      <trkpt lat="45.93616" lon="7.09817">
        <ele>1937</ele>
        <time>2022-08-27T17:45:11Z</time>
      </trkpt>
      <trkpt lat="45.93617" lon="7.0982">
        <ele>1937</ele>
        <time>2022-08-27T17:45:13Z</time>
      </trkpt>
      <trkpt lat="45.93618" lon="7.09821">
        <ele>1937</ele>
        <time>2022-08-27T17:45:21Z</time>
      </trkpt>
      <trkpt lat="45.9362" lon="7.09823">
        <ele>1937</ele>
        <time>2022-08-27T17:45:24Z</time>
      </trkpt>
      <trkpt lat="45.93622" lon="7.09824">
        <ele>1937</ele>
        <time>2022-08-27T17:45:28Z</time>
      </trkpt>
      <trkpt lat="45.93624" lon="7.09821">
        <ele>1937</ele>
        <time>2022-08-27T17:45:32Z</time>
      </trkpt>
      <trkpt lat="45.93624" lon="7.0982">
        <ele>1937</ele>
        <time>2022-08-27T17:45:34Z</time>
      </trkpt>
      <trkpt lat="45.93624" lon="7.09818">
        <ele>1937</ele>
        <time>2022-08-27T17:45:36Z</time>
      </trkpt>
      <trkpt lat="45.93624" lon="7.09816">
        <ele>1937</ele>
        <time>2022-08-27T17:45:37Z</time>
      </trkpt>
      <trkpt lat="45.93623" lon="7.09814">
        <ele>1937</ele>
        <time>2022-08-27T17:45:38Z</time>
      </trkpt>
      <trkpt lat="45.93623" lon="7.09812">
        <ele>1937</ele>
        <time>2022-08-27T17:45:39Z</time>
      </trkpt>
      <trkpt lat="45.93623" lon="7.0981">
        <ele>1937</ele>
        <time>2022-08-27T17:45:40Z</time>
      </trkpt>
      <trkpt lat="45.93623" lon="7.09808">
        <ele>1937</ele>
        <time>2022-08-27T17:45:41Z</time>
      </trkpt>
      <trkpt lat="45.93623" lon="7.09806">
        <ele>1937</ele>
        <time>2022-08-27T17:45:42Z</time>
      </trkpt>
      <trkpt lat="45.93624" lon="7.09805">
        <ele>1937</ele>
        <time>2022-08-27T17:45:43Z</time>
      </trkpt>
      <trkpt lat="45.93624" lon="7.09803">
        <ele>1937</ele>
        <time>2022-08-27T17:45:44Z</time>
      </trkpt>
      <trkpt lat="45.93624" lon="7.09801">
        <ele>1937</ele>
        <time>2022-08-27T17:45:46Z</time>
      </trkpt>
      <trkpt lat="45.93624" lon="7.09799">
        <ele>1937</ele>
        <time>2022-08-27T17:45:47Z</time>
      </trkpt>
      <trkpt lat="45.93624" lon="7.09797">
        <ele>1937</ele>
        <time>2022-08-27T17:45:48Z</time>
      </trkpt>
      <trkpt lat="45.93625" lon="7.09795">
        <ele>1937</ele>
        <time>2022-08-27T17:45:49Z</time>
      </trkpt>
      <trkpt lat="45.93624" lon="7.09796">
        <ele>1937</ele>
        <time>2022-08-27T17:45:51Z</time>
      </trkpt>
      <trkpt lat="45.93624" lon="7.09797">
        <ele>1937</ele>
        <time>2022-08-27T17:45:52Z</time>
      </trkpt>
      <trkpt lat="45.93624" lon="7.09798">
        <ele>1937</ele>
        <time>2022-08-27T17:45:53Z</time>
      </trkpt>
      <trkpt lat="45.93624" lon="7.09799">
        <ele>1937</ele>
        <time>2022-08-27T17:45:54Z</time>
      </trkpt>
      <trkpt lat="45.93623" lon="7.09799">
        <ele>1937</ele>
        <time>2022-08-27T17:45:55Z</time>
      </trkpt>
      <trkpt lat="45.93623" lon="7.098">
        <ele>1937</ele>
        <time>2022-08-27T17:45:56Z</time>
      </trkpt>
      <trkpt lat="45.93623" lon="7.09801">
        <ele>1937</ele>
        <time>2022-08-27T17:45:57Z</time>
      </trkpt>
      <trkpt lat="45.93622" lon="7.09802">
        <ele>1937</ele>
        <time>2022-08-27T17:45:58Z</time>
      </trkpt>
      <trkpt lat="45.93622" lon="7.09803">
        <ele>1937</ele>
        <time>2022-08-27T17:46:00Z</time>
      </trkpt>
      <trkpt lat="45.93622" lon="7.09804">
        <ele>1937</ele>
        <time>2022-08-27T17:46:02Z</time>
      </trkpt>
      <trkpt lat="45.93622" lon="7.09804">
        <ele>1937</ele>
        <time>2022-08-27T17:46:03Z</time>
      </trkpt>
      <trkpt lat="45.93622" lon="7.09804">
        <ele>1937</ele>
        <time>2022-08-27T17:46:21Z</time>
      </trkpt>
      <trkpt lat="45.93622" lon="7.09804">
        <ele>1937</ele>
        <time>2022-08-27T17:46:39Z</time>
      </trkpt>
      <trkpt lat="45.93622" lon="7.09808">
        <ele>1937</ele>
        <time>2022-08-27T17:46:40Z</time>
      </trkpt>
      <trkpt lat="45.93623" lon="7.09811">
        <ele>1937</ele>
        <time>2022-08-27T17:46:55Z</time>
      </trkpt>
      <trkpt lat="45.93623" lon="7.09811">
        <ele>1937</ele>
        <time>2022-08-27T17:47:01Z</time>
      </trkpt>
      <trkpt lat="45.93623" lon="7.09811">
        <ele>1937</ele>
        <time>2022-08-27T17:47:18Z</time>
      </trkpt>
      <trkpt lat="45.93622" lon="7.09807">
        <ele>1937</ele>
        <time>2022-08-27T17:47:33Z</time>
      </trkpt>
      <trkpt lat="45.93622" lon="7.09807">
        <ele>1937</ele>
        <time>2022-08-27T17:47:39Z</time>
      </trkpt>
      <trkpt lat="45.93621" lon="7.09804">
        <ele>1937</ele>
        <time>2022-08-27T17:47:45Z</time>
      </trkpt>
      <trkpt lat="45.93622" lon="7.098">
        <ele>1937</ele>
        <time>2022-08-27T17:47:47Z</time>
      </trkpt>
      <trkpt lat="45.93622" lon="7.09799">
        <ele>1937</ele>
        <time>2022-08-27T17:47:49Z</time>
      </trkpt>
      <trkpt lat="45.93622" lon="7.09798">
        <ele>1937</ele>
        <time>2022-08-27T17:47:50Z</time>
      </trkpt>
      <trkpt lat="45.93622" lon="7.09797">
        <ele>1937</ele>
        <time>2022-08-27T17:47:51Z</time>
      </trkpt>
      <trkpt lat="45.93622" lon="7.09796">
        <ele>1937</ele>
        <time>2022-08-27T17:47:53Z</time>
      </trkpt>
      <trkpt lat="45.93622" lon="7.09795">
        <ele>1937</ele>
        <time>2022-08-27T17:47:54Z</time>
      </trkpt>
      <trkpt lat="45.93622" lon="7.09794">
        <ele>1937</ele>
        <time>2022-08-27T17:47:55Z</time>
      </trkpt>
      <trkpt lat="45.93623" lon="7.09794">
        <ele>1937</ele>
        <time>2022-08-27T17:47:56Z</time>
      </trkpt>
      <trkpt lat="45.93623" lon="7.09793">
        <ele>1937</ele>
        <time>2022-08-27T17:47:57Z</time>
      </trkpt>
      <trkpt lat="45.93624" lon="7.09793">
        <ele>1937</ele>
        <time>2022-08-27T17:47:58Z</time>
      </trkpt>
      <trkpt lat="45.93624" lon="7.09793">
        <ele>1937</ele>
        <time>2022-08-27T17:48:00Z</time>
      </trkpt>
      <trkpt lat="45.93625" lon="7.09793">
        <ele>1937</ele>
        <time>2022-08-27T17:48:01Z</time>
      </trkpt>
      <trkpt lat="45.93625" lon="7.09793">
        <ele>1937</ele>
        <time>2022-08-27T17:48:02Z</time>
      </trkpt>
      <trkpt lat="45.93626" lon="7.09792">
        <ele>1937</ele>
        <time>2022-08-27T17:48:03Z</time>
      </trkpt>
      <trkpt lat="45.93626" lon="7.09792">
        <ele>1937</ele>
        <time>2022-08-27T17:48:04Z</time>
      </trkpt>
      <trkpt lat="45.93625" lon="7.09792">
        <ele>1937</ele>
        <time>2022-08-27T17:48:25Z</time>
      </trkpt>
      <trkpt lat="45.93624" lon="7.09791">
        <ele>1937</ele>
        <time>2022-08-27T17:48:26Z</time>
      </trkpt>
      <trkpt lat="45.93624" lon="7.09789">
        <ele>1937</ele>
        <time>2022-08-27T17:48:27Z</time>
      </trkpt>
      <trkpt lat="45.93624" lon="7.09788">
        <ele>1937</ele>
        <time>2022-08-27T17:48:29Z</time>
      </trkpt>
      <trkpt lat="45.93624" lon="7.09787">
        <ele>1937</ele>
        <time>2022-08-27T17:48:31Z</time>
      </trkpt>
      <trkpt lat="45.93623" lon="7.09785">
        <ele>1937</ele>
        <time>2022-08-27T17:48:32Z</time>
      </trkpt>
      <trkpt lat="45.93623" lon="7.09784">
        <ele>1937</ele>
        <time>2022-08-27T17:48:33Z</time>
      </trkpt>
      <trkpt lat="45.93623" lon="7.09783">
        <ele>1937</ele>
        <time>2022-08-27T17:48:34Z</time>
      </trkpt>
      <trkpt lat="45.93623" lon="7.09782">
        <ele>1937</ele>
        <time>2022-08-27T17:48:36Z</time>
      </trkpt>
      <trkpt lat="45.93623" lon="7.0978">
        <ele>1937</ele>
        <time>2022-08-27T17:48:38Z</time>
      </trkpt>
      <trkpt lat="45.93622" lon="7.09779">
        <ele>1937</ele>
        <time>2022-08-27T17:48:39Z</time>
      </trkpt>
      <trkpt lat="45.93623" lon="7.09777">
        <ele>1937</ele>
        <time>2022-08-27T17:48:40Z</time>
      </trkpt>
      <trkpt lat="45.93623" lon="7.09775">
        <ele>1930</ele>
        <time>2022-08-27T17:48:41Z</time>
      </trkpt>
      <trkpt lat="45.93623" lon="7.09772">
        <ele>1930</ele>
        <time>2022-08-27T17:48:42Z</time>
      </trkpt>
      <trkpt lat="45.93624" lon="7.0977">
        <ele>1929</ele>
        <time>2022-08-27T17:48:44Z</time>
      </trkpt>
      <trkpt lat="45.93624" lon="7.09768">
        <ele>1929</ele>
        <time>2022-08-27T17:48:45Z</time>
      </trkpt>
      <trkpt lat="45.93624" lon="7.09766">
        <ele>1929</ele>
        <time>2022-08-27T17:48:46Z</time>
      </trkpt>
      <trkpt lat="45.93624" lon="7.09764">
        <ele>1928</ele>
        <time>2022-08-27T17:48:47Z</time>
      </trkpt>
      <trkpt lat="45.93624" lon="7.09763">
        <ele>1928</ele>
        <time>2022-08-27T17:48:49Z</time>
      </trkpt>
      <trkpt lat="45.93624" lon="7.09761">
        <ele>1928</ele>
        <time>2022-08-27T17:48:50Z</time>
      </trkpt>
      <trkpt lat="45.93623" lon="7.0976">
        <ele>1928</ele>
        <time>2022-08-27T17:48:51Z</time>
      </trkpt>
      <trkpt lat="45.93623" lon="7.09758">
        <ele>1928</ele>
        <time>2022-08-27T17:48:52Z</time>
      </trkpt>
      <trkpt lat="45.93623" lon="7.09757">
        <ele>1928</ele>
        <time>2022-08-27T17:48:54Z</time>
      </trkpt>
      <trkpt lat="45.93623" lon="7.09755">
        <ele>1928</ele>
        <time>2022-08-27T17:48:55Z</time>
      </trkpt>
      <trkpt lat="45.93624" lon="7.09753">
        <ele>1927</ele>
        <time>2022-08-27T17:48:59Z</time>
      </trkpt>
      <trkpt lat="45.93625" lon="7.0975">
        <ele>1926</ele>
        <time>2022-08-27T17:49:01Z</time>
      </trkpt>
      <trkpt lat="45.93625" lon="7.09747">
        <ele>1926</ele>
        <time>2022-08-27T17:49:03Z</time>
      </trkpt>
      <trkpt lat="45.93626" lon="7.09742">
        <ele>1925</ele>
        <time>2022-08-27T17:49:06Z</time>
      </trkpt>
      <trkpt lat="45.93627" lon="7.09739">
        <ele>1924</ele>
        <time>2022-08-27T17:49:08Z</time>
      </trkpt>
      <trkpt lat="45.93627" lon="7.09736">
        <ele>1924</ele>
        <time>2022-08-27T17:49:09Z</time>
      </trkpt>
      <trkpt lat="45.93628" lon="7.09733">
        <ele>1924</ele>
        <time>2022-08-27T17:49:10Z</time>
      </trkpt>
      <trkpt lat="45.93628" lon="7.0973">
        <ele>1924</ele>
        <time>2022-08-27T17:49:12Z</time>
      </trkpt>
      <trkpt lat="45.93628" lon="7.09727">
        <ele>1923</ele>
        <time>2022-08-27T17:49:13Z</time>
      </trkpt>
      <trkpt lat="45.93628" lon="7.09724">
        <ele>1923</ele>
        <time>2022-08-27T17:49:14Z</time>
      </trkpt>
      <trkpt lat="45.93629" lon="7.09721">
        <ele>1923</ele>
        <time>2022-08-27T17:49:16Z</time>
      </trkpt>
      <trkpt lat="45.93629" lon="7.09718">
        <ele>1923</ele>
        <time>2022-08-27T17:49:18Z</time>
      </trkpt>
      <trkpt lat="45.93629" lon="7.09716">
        <ele>1923</ele>
        <time>2022-08-27T17:49:19Z</time>
      </trkpt>
      <trkpt lat="45.93629" lon="7.09713">
        <ele>1923</ele>
        <time>2022-08-27T17:49:20Z</time>
      </trkpt>
      <trkpt lat="45.93629" lon="7.09711">
        <ele>1923</ele>
        <time>2022-08-27T17:49:21Z</time>
      </trkpt>
      <trkpt lat="45.93629" lon="7.09709">
        <ele>1923</ele>
        <time>2022-08-27T17:49:22Z</time>
      </trkpt>
      <trkpt lat="45.93629" lon="7.09708">
        <ele>1922</ele>
        <time>2022-08-27T17:49:23Z</time>
      </trkpt>
      <trkpt lat="45.93629" lon="7.09706">
        <ele>1922</ele>
        <time>2022-08-27T17:49:24Z</time>
      </trkpt>
      <trkpt lat="45.93629" lon="7.09705">
        <ele>1922</ele>
        <time>2022-08-27T17:49:25Z</time>
      </trkpt>
      <trkpt lat="45.9363" lon="7.09701">
        <ele>1922</ele>
        <time>2022-08-27T17:49:27Z</time>
      </trkpt>
      <trkpt lat="45.93632" lon="7.097">
        <ele>1922</ele>
        <time>2022-08-27T17:49:30Z</time>
      </trkpt>
      <trkpt lat="45.93632" lon="7.09699">
        <ele>1921</ele>
        <time>2022-08-27T17:49:31Z</time>
      </trkpt>
      <trkpt lat="45.93633" lon="7.09698">
        <ele>1920</ele>
        <time>2022-08-27T17:49:32Z</time>
      </trkpt>
      <trkpt lat="45.93633" lon="7.09696">
        <ele>1920</ele>
        <time>2022-08-27T17:49:33Z</time>
      </trkpt>
      <trkpt lat="45.93633" lon="7.09695">
        <ele>1919</ele>
        <time>2022-08-27T17:49:35Z</time>
      </trkpt>
      <trkpt lat="45.93633" lon="7.09694">
        <ele>1918</ele>
        <time>2022-08-27T17:49:37Z</time>
      </trkpt>
      <trkpt lat="45.93633" lon="7.09693">
        <ele>1918</ele>
        <time>2022-08-27T17:49:38Z</time>
      </trkpt>
      <trkpt lat="45.93634" lon="7.09685">
        <ele>1918</ele>
        <time>2022-08-27T17:49:39Z</time>
      </trkpt>
      <trkpt lat="45.93634" lon="7.09683">
        <ele>1919</ele>
        <time>2022-08-27T17:49:40Z</time>
      </trkpt>
      <trkpt lat="45.93634" lon="7.09681">
        <ele>1919</ele>
        <time>2022-08-27T17:49:42Z</time>
      </trkpt>
      <trkpt lat="45.93633" lon="7.0968">
        <ele>1919</ele>
        <time>2022-08-27T17:49:43Z</time>
      </trkpt>
      <trkpt lat="45.93633" lon="7.09678">
        <ele>1919</ele>
        <time>2022-08-27T17:49:44Z</time>
      </trkpt>
      <trkpt lat="45.93633" lon="7.09676">
        <ele>1919</ele>
        <time>2022-08-27T17:49:45Z</time>
      </trkpt>
      <trkpt lat="45.93632" lon="7.09675">
        <ele>1919</ele>
        <time>2022-08-27T17:49:46Z</time>
      </trkpt>
      <trkpt lat="45.93632" lon="7.09673">
        <ele>1919</ele>
        <time>2022-08-27T17:49:47Z</time>
      </trkpt>
      <trkpt lat="45.93632" lon="7.0967">
        <ele>1919</ele>
        <time>2022-08-27T17:49:49Z</time>
      </trkpt>
      <trkpt lat="45.93632" lon="7.09667">
        <ele>1919</ele>
        <time>2022-08-27T17:49:51Z</time>
      </trkpt>
      <trkpt lat="45.93633" lon="7.09663">
        <ele>1918</ele>
        <time>2022-08-27T17:49:53Z</time>
      </trkpt>
      <trkpt lat="45.93632" lon="7.0966">
        <ele>1917</ele>
        <time>2022-08-27T17:49:56Z</time>
      </trkpt>
      <trkpt lat="45.93632" lon="7.09656">
        <ele>1917</ele>
        <time>2022-08-27T17:49:57Z</time>
      </trkpt>
      <trkpt lat="45.93632" lon="7.09653">
        <ele>1917</ele>
        <time>2022-08-27T17:49:59Z</time>
      </trkpt>
      <trkpt lat="45.93632" lon="7.09647">
        <ele>1917</ele>
        <time>2022-08-27T17:50:02Z</time>
      </trkpt>
      <trkpt lat="45.93632" lon="7.09644">
        <ele>1918</ele>
        <time>2022-08-27T17:50:04Z</time>
      </trkpt>
      <trkpt lat="45.93633" lon="7.09641">
        <ele>1918</ele>
        <time>2022-08-27T17:50:06Z</time>
      </trkpt>
      <trkpt lat="45.93634" lon="7.09638">
        <ele>1918</ele>
        <time>2022-08-27T17:50:08Z</time>
      </trkpt>
      <trkpt lat="45.93635" lon="7.09635">
        <ele>1918</ele>
        <time>2022-08-27T17:50:10Z</time>
      </trkpt>
      <trkpt lat="45.93635" lon="7.09632">
        <ele>1918</ele>
        <time>2022-08-27T17:50:12Z</time>
      </trkpt>
      <trkpt lat="45.93635" lon="7.09629">
        <ele>1918</ele>
        <time>2022-08-27T17:50:14Z</time>
      </trkpt>
      <trkpt lat="45.93635" lon="7.09626">
        <ele>1918</ele>
        <time>2022-08-27T17:50:16Z</time>
      </trkpt>
      <trkpt lat="45.93636" lon="7.09622">
        <ele>1918</ele>
        <time>2022-08-27T17:50:19Z</time>
      </trkpt>
      <trkpt lat="45.93635" lon="7.09619">
        <ele>1918</ele>
        <time>2022-08-27T17:50:21Z</time>
      </trkpt>
      <trkpt lat="45.93634" lon="7.09616">
        <ele>1918</ele>
        <time>2022-08-27T17:50:23Z</time>
      </trkpt>
      <trkpt lat="45.93633" lon="7.09613">
        <ele>1918</ele>
        <time>2022-08-27T17:50:25Z</time>
      </trkpt>
      <trkpt lat="45.93633" lon="7.09609">
        <ele>1918</ele>
        <time>2022-08-27T17:50:27Z</time>
      </trkpt>
      <trkpt lat="45.93633" lon="7.09605">
        <ele>1918</ele>
        <time>2022-08-27T17:50:30Z</time>
      </trkpt>
      <trkpt lat="45.93633" lon="7.09601">
        <ele>1918</ele>
        <time>2022-08-27T17:50:31Z</time>
      </trkpt>
      <trkpt lat="45.93634" lon="7.09597">
        <ele>1917</ele>
        <time>2022-08-27T17:50:33Z</time>
      </trkpt>
      <trkpt lat="45.93635" lon="7.09595">
        <ele>1917</ele>
        <time>2022-08-27T17:50:35Z</time>
      </trkpt>
      <trkpt lat="45.93637" lon="7.09592">
        <ele>1917</ele>
        <time>2022-08-27T17:50:38Z</time>
      </trkpt>
      <trkpt lat="45.93638" lon="7.0959">
        <ele>1917</ele>
        <time>2022-08-27T17:50:39Z</time>
      </trkpt>
      <trkpt lat="45.93639" lon="7.09587">
        <ele>1917</ele>
        <time>2022-08-27T17:50:40Z</time>
      </trkpt>
      <trkpt lat="45.93641" lon="7.09585">
        <ele>1917</ele>
        <time>2022-08-27T17:50:41Z</time>
      </trkpt>
      <trkpt lat="45.93642" lon="7.09582">
        <ele>1918</ele>
        <time>2022-08-27T17:50:42Z</time>
      </trkpt>
      <trkpt lat="45.93643" lon="7.09582">
        <ele>1918</ele>
        <time>2022-08-27T17:50:43Z</time>
      </trkpt>
      <trkpt lat="45.93646" lon="7.09579">
        <ele>1918</ele>
        <time>2022-08-27T17:50:44Z</time>
      </trkpt>
      <trkpt lat="45.93648" lon="7.09577">
        <ele>1918</ele>
        <time>2022-08-27T17:50:46Z</time>
      </trkpt>
      <trkpt lat="45.9365" lon="7.09574">
        <ele>1917</ele>
        <time>2022-08-27T17:50:48Z</time>
      </trkpt>
      <trkpt lat="45.93652" lon="7.09571">
        <ele>1917</ele>
        <time>2022-08-27T17:50:50Z</time>
      </trkpt>
      <trkpt lat="45.93655" lon="7.09568">
        <ele>1916</ele>
        <time>2022-08-27T17:50:53Z</time>
      </trkpt>
      <trkpt lat="45.93657" lon="7.09565">
        <ele>1916</ele>
        <time>2022-08-27T17:50:54Z</time>
      </trkpt>
      <trkpt lat="45.93659" lon="7.09564">
        <ele>1916</ele>
        <time>2022-08-27T17:50:56Z</time>
      </trkpt>
      <trkpt lat="45.93662" lon="7.09563">
        <ele>1916</ele>
        <time>2022-08-27T17:50:58Z</time>
      </trkpt>
      <trkpt lat="45.93665" lon="7.09562">
        <ele>1916</ele>
        <time>2022-08-27T17:51:00Z</time>
      </trkpt>
      <trkpt lat="45.93667" lon="7.09561">
        <ele>1916</ele>
        <time>2022-08-27T17:51:02Z</time>
      </trkpt>
      <trkpt lat="45.93672" lon="7.09559">
        <ele>1916</ele>
        <time>2022-08-27T17:51:05Z</time>
      </trkpt>
      <trkpt lat="45.93674" lon="7.09559">
        <ele>1916</ele>
        <time>2022-08-27T17:51:06Z</time>
      </trkpt>
      <trkpt lat="45.93676" lon="7.09558">
        <ele>1916</ele>
        <time>2022-08-27T17:51:07Z</time>
      </trkpt>
      <trkpt lat="45.93678" lon="7.09557">
        <ele>1916</ele>
        <time>2022-08-27T17:51:08Z</time>
      </trkpt>
      <trkpt lat="45.93679" lon="7.09556">
        <ele>1916</ele>
        <time>2022-08-27T17:51:10Z</time>
      </trkpt>
      <trkpt lat="45.93681" lon="7.09555">
        <ele>1916</ele>
        <time>2022-08-27T17:51:11Z</time>
      </trkpt>
      <trkpt lat="45.93683" lon="7.09554">
        <ele>1916</ele>
        <time>2022-08-27T17:51:12Z</time>
      </trkpt>
      <trkpt lat="45.93685" lon="7.09553">
        <ele>1916</ele>
        <time>2022-08-27T17:51:14Z</time>
      </trkpt>
      <trkpt lat="45.93686" lon="7.09552">
        <ele>1916</ele>
        <time>2022-08-27T17:51:15Z</time>
      </trkpt>
      <trkpt lat="45.93687" lon="7.09551">
        <ele>1916</ele>
        <time>2022-08-27T17:51:16Z</time>
      </trkpt>
      <trkpt lat="45.93689" lon="7.09549">
        <ele>1916</ele>
        <time>2022-08-27T17:51:17Z</time>
      </trkpt>
      <trkpt lat="45.9369" lon="7.09548">
        <ele>1916</ele>
        <time>2022-08-27T17:51:19Z</time>
      </trkpt>
      <trkpt lat="45.93692" lon="7.09547">
        <ele>1916</ele>
        <time>2022-08-27T17:51:20Z</time>
      </trkpt>
      <trkpt lat="45.93694" lon="7.09533">
        <ele>1916</ele>
        <time>2022-08-27T17:51:29Z</time>
      </trkpt>
      <trkpt lat="45.93696" lon="7.09532">
        <ele>1916</ele>
        <time>2022-08-27T17:51:31Z</time>
      </trkpt>
      <trkpt lat="45.93697" lon="7.09531">
        <ele>1916</ele>
        <time>2022-08-27T17:51:32Z</time>
      </trkpt>
      <trkpt lat="45.93698" lon="7.09529">
        <ele>1916</ele>
        <time>2022-08-27T17:51:33Z</time>
      </trkpt>
      <trkpt lat="45.937" lon="7.09528">
        <ele>1916</ele>
        <time>2022-08-27T17:51:34Z</time>
      </trkpt>
      <trkpt lat="45.93701" lon="7.09527">
        <ele>1916</ele>
        <time>2022-08-27T17:51:36Z</time>
      </trkpt>
      <trkpt lat="45.93702" lon="7.09525">
        <ele>1916</ele>
        <time>2022-08-27T17:51:37Z</time>
      </trkpt>
      <trkpt lat="45.93705" lon="7.09527">
        <ele>1916</ele>
        <time>2022-08-27T17:51:38Z</time>
      </trkpt>
      <trkpt lat="45.93707" lon="7.09528">
        <ele>1916</ele>
        <time>2022-08-27T17:51:39Z</time>
      </trkpt>
      <trkpt lat="45.93709" lon="7.09529">
        <ele>1916</ele>
        <time>2022-08-27T17:51:41Z</time>
      </trkpt>
      <trkpt lat="45.93711" lon="7.0953">
        <ele>1916</ele>
        <time>2022-08-27T17:51:42Z</time>
      </trkpt>
      <trkpt lat="45.93715" lon="7.09529">
        <ele>1915</ele>
        <time>2022-08-27T17:51:43Z</time>
      </trkpt>
      <trkpt lat="45.93718" lon="7.09529">
        <ele>1915</ele>
        <time>2022-08-27T17:51:44Z</time>
      </trkpt>
      <trkpt lat="45.9372" lon="7.09528">
        <ele>1916</ele>
        <time>2022-08-27T17:51:45Z</time>
      </trkpt>
      <trkpt lat="45.93721" lon="7.09527">
        <ele>1916</ele>
        <time>2022-08-27T17:51:47Z</time>
      </trkpt>
      <trkpt lat="45.93723" lon="7.09526">
        <ele>1916</ele>
        <time>2022-08-27T17:51:48Z</time>
      </trkpt>
      <trkpt lat="45.93725" lon="7.09524">
        <ele>1916</ele>
        <time>2022-08-27T17:51:50Z</time>
      </trkpt>
      <trkpt lat="45.93727" lon="7.09523">
        <ele>1916</ele>
        <time>2022-08-27T17:51:52Z</time>
      </trkpt>
      <trkpt lat="45.9373" lon="7.09522">
        <ele>1916</ele>
        <time>2022-08-27T17:51:55Z</time>
      </trkpt>
      <trkpt lat="45.93734" lon="7.09524">
        <ele>1916</ele>
        <time>2022-08-27T17:51:56Z</time>
      </trkpt>
      <trkpt lat="45.93735" lon="7.09525">
        <ele>1916</ele>
        <time>2022-08-27T17:51:57Z</time>
      </trkpt>
      <trkpt lat="45.93736" lon="7.09527">
        <ele>1915</ele>
        <time>2022-08-27T17:51:58Z</time>
      </trkpt>
      <trkpt lat="45.93737" lon="7.0953">
        <ele>1915</ele>
        <time>2022-08-27T17:51:59Z</time>
      </trkpt>
      <trkpt lat="45.93739" lon="7.09533">
        <ele>1914</ele>
        <time>2022-08-27T17:52:02Z</time>
      </trkpt>
      <trkpt lat="45.93741" lon="7.09536">
        <ele>1914</ele>
        <time>2022-08-27T17:52:03Z</time>
      </trkpt>
      <trkpt lat="45.93743" lon="7.09539">
        <ele>1914</ele>
        <time>2022-08-27T17:52:04Z</time>
      </trkpt>
      <trkpt lat="45.93746" lon="7.09541">
        <ele>1914</ele>
        <time>2022-08-27T17:52:05Z</time>
      </trkpt>
      <trkpt lat="45.93748" lon="7.09543">
        <ele>1914</ele>
        <time>2022-08-27T17:52:07Z</time>
      </trkpt>
      <trkpt lat="45.9375" lon="7.09544">
        <ele>1914</ele>
        <time>2022-08-27T17:52:08Z</time>
      </trkpt>
      <trkpt lat="45.93752" lon="7.09546">
        <ele>1913</ele>
        <time>2022-08-27T17:52:09Z</time>
      </trkpt>
      <trkpt lat="45.93754" lon="7.09547">
        <ele>1912</ele>
        <time>2022-08-27T17:52:10Z</time>
      </trkpt>
      <trkpt lat="45.93755" lon="7.09549">
        <ele>1912</ele>
        <time>2022-08-27T17:52:12Z</time>
      </trkpt>
      <trkpt lat="45.93757" lon="7.0955">
        <ele>1912</ele>
        <time>2022-08-27T17:52:13Z</time>
      </trkpt>
      <trkpt lat="45.93764" lon="7.09555">
        <ele>1912</ele>
        <time>2022-08-27T17:52:14Z</time>
      </trkpt>
      <trkpt lat="45.93766" lon="7.09556">
        <ele>1912</ele>
        <time>2022-08-27T17:52:15Z</time>
      </trkpt>
      <trkpt lat="45.93768" lon="7.09558">
        <ele>1912</ele>
        <time>2022-08-27T17:52:17Z</time>
      </trkpt>
      <trkpt lat="45.9377" lon="7.0956">
        <ele>1912</ele>
        <time>2022-08-27T17:52:18Z</time>
      </trkpt>
      <trkpt lat="45.93772" lon="7.0956">
        <ele>1912</ele>
        <time>2022-08-27T17:52:19Z</time>
      </trkpt>
      <trkpt lat="45.93774" lon="7.0956">
        <ele>1912</ele>
        <time>2022-08-27T17:52:20Z</time>
      </trkpt>
      <trkpt lat="45.93777" lon="7.0956">
        <ele>1911</ele>
        <time>2022-08-27T17:52:22Z</time>
      </trkpt>
      <trkpt lat="45.93779" lon="7.0956">
        <ele>1911</ele>
        <time>2022-08-27T17:52:23Z</time>
      </trkpt>
      <trkpt lat="45.93781" lon="7.09559">
        <ele>1911</ele>
        <time>2022-08-27T17:52:24Z</time>
      </trkpt>
      <trkpt lat="45.93782" lon="7.09559">
        <ele>1911</ele>
        <time>2022-08-27T17:52:26Z</time>
      </trkpt>
      <trkpt lat="45.93784" lon="7.09558">
        <ele>1911</ele>
        <time>2022-08-27T17:52:27Z</time>
      </trkpt>
      <trkpt lat="45.93786" lon="7.09558">
        <ele>1911</ele>
        <time>2022-08-27T17:52:28Z</time>
      </trkpt>
      <trkpt lat="45.93787" lon="7.09558">
        <ele>1911</ele>
        <time>2022-08-27T17:52:30Z</time>
      </trkpt>
      <trkpt lat="45.93789" lon="7.09557">
        <ele>1911</ele>
        <time>2022-08-27T17:52:31Z</time>
      </trkpt>
      <trkpt lat="45.93798" lon="7.09555">
        <ele>1910</ele>
        <time>2022-08-27T17:52:37Z</time>
      </trkpt>
      <trkpt lat="45.938" lon="7.09554">
        <ele>1910</ele>
        <time>2022-08-27T17:52:40Z</time>
      </trkpt>
      <trkpt lat="45.93802" lon="7.09553">
        <ele>1910</ele>
        <time>2022-08-27T17:52:41Z</time>
      </trkpt>
      <trkpt lat="45.93803" lon="7.09552">
        <ele>1910</ele>
        <time>2022-08-27T17:52:42Z</time>
      </trkpt>
      <trkpt lat="45.93809" lon="7.09548">
        <ele>1910</ele>
        <time>2022-08-27T17:52:43Z</time>
      </trkpt>
      <trkpt lat="45.93809" lon="7.09547">
        <ele>1910</ele>
        <time>2022-08-27T17:52:45Z</time>
      </trkpt>
      <trkpt lat="45.9381" lon="7.09547">
        <ele>1910</ele>
        <time>2022-08-27T17:52:46Z</time>
      </trkpt>
      <trkpt lat="45.9381" lon="7.09546">
        <ele>1909</ele>
        <time>2022-08-27T17:52:47Z</time>
      </trkpt>
      <trkpt lat="45.93811" lon="7.09545">
        <ele>1909</ele>
        <time>2022-08-27T17:52:48Z</time>
      </trkpt>
      <trkpt lat="45.9382" lon="7.09539">
        <ele>1909</ele>
        <time>2022-08-27T17:52:50Z</time>
      </trkpt>
      <trkpt lat="45.93823" lon="7.09539">
        <ele>1909</ele>
        <time>2022-08-27T17:52:52Z</time>
      </trkpt>
      <trkpt lat="45.93826" lon="7.09538">
        <ele>1909</ele>
        <time>2022-08-27T17:52:53Z</time>
      </trkpt>
      <trkpt lat="45.93829" lon="7.09539">
        <ele>1908</ele>
        <time>2022-08-27T17:52:55Z</time>
      </trkpt>
      <trkpt lat="45.93832" lon="7.09541">
        <ele>1908</ele>
        <time>2022-08-27T17:52:56Z</time>
      </trkpt>
      <trkpt lat="45.93836" lon="7.09542">
        <ele>1908</ele>
        <time>2022-08-27T17:52:57Z</time>
      </trkpt>
      <trkpt lat="45.93838" lon="7.09544">
        <ele>1908</ele>
        <time>2022-08-27T17:52:58Z</time>
      </trkpt>
      <trkpt lat="45.9384" lon="7.09545">
        <ele>1908</ele>
        <time>2022-08-27T17:52:59Z</time>
      </trkpt>
      <trkpt lat="45.93842" lon="7.09547">
        <ele>1908</ele>
        <time>2022-08-27T17:53:00Z</time>
      </trkpt>
      <trkpt lat="45.93844" lon="7.09548">
        <ele>1907</ele>
        <time>2022-08-27T17:53:01Z</time>
      </trkpt>
      <trkpt lat="45.93852" lon="7.09555">
        <ele>1905</ele>
        <time>2022-08-27T17:53:06Z</time>
      </trkpt>
      <trkpt lat="45.93855" lon="7.09554">
        <ele>1905</ele>
        <time>2022-08-27T17:53:07Z</time>
      </trkpt>
      <trkpt lat="45.93858" lon="7.09553">
        <ele>1905</ele>
        <time>2022-08-27T17:53:08Z</time>
      </trkpt>
      <trkpt lat="45.93861" lon="7.09553">
        <ele>1905</ele>
        <time>2022-08-27T17:53:09Z</time>
      </trkpt>
      <trkpt lat="45.93863" lon="7.09553">
        <ele>1905</ele>
        <time>2022-08-27T17:53:11Z</time>
      </trkpt>
      <trkpt lat="45.93865" lon="7.09553">
        <ele>1905</ele>
        <time>2022-08-27T17:53:13Z</time>
      </trkpt>
      <trkpt lat="45.93867" lon="7.09553">
        <ele>1905</ele>
        <time>2022-08-27T17:53:14Z</time>
      </trkpt>
      <trkpt lat="45.93869" lon="7.09553">
        <ele>1905</ele>
        <time>2022-08-27T17:53:15Z</time>
      </trkpt>
      <trkpt lat="45.93871" lon="7.09554">
        <ele>1905</ele>
        <time>2022-08-27T17:53:16Z</time>
      </trkpt>
      <trkpt lat="45.93872" lon="7.09554">
        <ele>1904</ele>
        <time>2022-08-27T17:53:18Z</time>
      </trkpt>
      <trkpt lat="45.93873" lon="7.09554">
        <ele>1904</ele>
        <time>2022-08-27T17:53:19Z</time>
      </trkpt>
      <trkpt lat="45.93874" lon="7.09553">
        <ele>1904</ele>
        <time>2022-08-27T17:53:20Z</time>
      </trkpt>
      <trkpt lat="45.93875" lon="7.09553">
        <ele>1904</ele>
        <time>2022-08-27T17:53:21Z</time>
      </trkpt>
      <trkpt lat="45.93882" lon="7.09553">
        <ele>1904</ele>
        <time>2022-08-27T17:53:23Z</time>
      </trkpt>
      <trkpt lat="45.9389" lon="7.09558">
        <ele>1903</ele>
        <time>2022-08-27T17:53:25Z</time>
      </trkpt>
      <trkpt lat="45.93892" lon="7.09559">
        <ele>1904</ele>
        <time>2022-08-27T17:53:26Z</time>
      </trkpt>
      <trkpt lat="45.93894" lon="7.09561">
        <ele>1904</ele>
        <time>2022-08-27T17:53:27Z</time>
      </trkpt>
      <trkpt lat="45.93895" lon="7.09562">
        <ele>1904</ele>
        <time>2022-08-27T17:53:28Z</time>
      </trkpt>
      <trkpt lat="45.93897" lon="7.09563">
        <ele>1904</ele>
        <time>2022-08-27T17:53:30Z</time>
      </trkpt>
      <trkpt lat="45.93899" lon="7.09565">
        <ele>1904</ele>
        <time>2022-08-27T17:53:31Z</time>
      </trkpt>
      <trkpt lat="45.939" lon="7.09564">
        <ele>1904</ele>
        <time>2022-08-27T17:53:32Z</time>
      </trkpt>
      <trkpt lat="45.93902" lon="7.09563">
        <ele>1904</ele>
        <time>2022-08-27T17:53:33Z</time>
      </trkpt>
      <trkpt lat="45.93903" lon="7.09562">
        <ele>1904</ele>
        <time>2022-08-27T17:53:34Z</time>
      </trkpt>
      <trkpt lat="45.93905" lon="7.09561">
        <ele>1903</ele>
        <time>2022-08-27T17:53:36Z</time>
      </trkpt>
      <trkpt lat="45.93906" lon="7.09559">
        <ele>1903</ele>
        <time>2022-08-27T17:53:37Z</time>
      </trkpt>
      <trkpt lat="45.93908" lon="7.09558">
        <ele>1903</ele>
        <time>2022-08-27T17:53:38Z</time>
      </trkpt>
      <trkpt lat="45.93909" lon="7.09557">
        <ele>1902</ele>
        <time>2022-08-27T17:53:39Z</time>
      </trkpt>
      <trkpt lat="45.93911" lon="7.09555">
        <ele>1902</ele>
        <time>2022-08-27T17:53:40Z</time>
      </trkpt>
      <trkpt lat="45.93912" lon="7.09553">
        <ele>1902</ele>
        <time>2022-08-27T17:53:42Z</time>
      </trkpt>
      <trkpt lat="45.93914" lon="7.09551">
        <ele>1902</ele>
        <time>2022-08-27T17:53:43Z</time>
      </trkpt>
      <trkpt lat="45.93915" lon="7.0955">
        <ele>1902</ele>
        <time>2022-08-27T17:53:44Z</time>
      </trkpt>
      <trkpt lat="45.93918" lon="7.09549">
        <ele>1902</ele>
        <time>2022-08-27T17:53:46Z</time>
      </trkpt>
      <trkpt lat="45.9392" lon="7.09549">
        <ele>1902</ele>
        <time>2022-08-27T17:53:47Z</time>
      </trkpt>
      <trkpt lat="45.93922" lon="7.09549">
        <ele>1902</ele>
        <time>2022-08-27T17:53:48Z</time>
      </trkpt>
      <trkpt lat="45.93925" lon="7.09549">
        <ele>1902</ele>
        <time>2022-08-27T17:53:49Z</time>
      </trkpt>
      <trkpt lat="45.93927" lon="7.09547">
        <ele>1902</ele>
        <time>2022-08-27T17:53:51Z</time>
      </trkpt>
      <trkpt lat="45.93929" lon="7.09546">
        <ele>1902</ele>
        <time>2022-08-27T17:53:52Z</time>
      </trkpt>
      <trkpt lat="45.93931" lon="7.09544">
        <ele>1902</ele>
        <time>2022-08-27T17:53:53Z</time>
      </trkpt>
      <trkpt lat="45.93933" lon="7.09542">
        <ele>1902</ele>
        <time>2022-08-27T17:53:54Z</time>
      </trkpt>
      <trkpt lat="45.93939" lon="7.09539">
        <ele>1901</ele>
        <time>2022-08-27T17:53:56Z</time>
      </trkpt>
      <trkpt lat="45.9394" lon="7.09538">
        <ele>1901</ele>
        <time>2022-08-27T17:53:57Z</time>
      </trkpt>
      <trkpt lat="45.93942" lon="7.09537">
        <ele>1901</ele>
        <time>2022-08-27T17:53:58Z</time>
      </trkpt>
      <trkpt lat="45.93943" lon="7.09537">
        <ele>1901</ele>
        <time>2022-08-27T17:53:59Z</time>
      </trkpt>
      <trkpt lat="45.93945" lon="7.09536">
        <ele>1901</ele>
        <time>2022-08-27T17:54:00Z</time>
      </trkpt>
      <trkpt lat="45.93947" lon="7.09535">
        <ele>1901</ele>
        <time>2022-08-27T17:54:01Z</time>
      </trkpt>
      <trkpt lat="45.93951" lon="7.09534">
        <ele>1901</ele>
        <time>2022-08-27T17:54:03Z</time>
      </trkpt>
      <trkpt lat="45.93954" lon="7.09535">
        <ele>1901</ele>
        <time>2022-08-27T17:54:04Z</time>
      </trkpt>
      <trkpt lat="45.93954" lon="7.09535">
        <ele>1900</ele>
        <time>2022-08-27T17:54:05Z</time>
      </trkpt>
      <trkpt lat="45.93956" lon="7.09536">
        <ele>1900</ele>
        <time>2022-08-27T17:54:06Z</time>
      </trkpt>
      <trkpt lat="45.93959" lon="7.09536">
        <ele>1899</ele>
        <time>2022-08-27T17:54:07Z</time>
      </trkpt>
      <trkpt lat="45.93961" lon="7.09537">
        <ele>1899</ele>
        <time>2022-08-27T17:54:08Z</time>
      </trkpt>
      <trkpt lat="45.93963" lon="7.09537">
        <ele>1899</ele>
        <time>2022-08-27T17:54:10Z</time>
      </trkpt>
      <trkpt lat="45.93966" lon="7.09538">
        <ele>1899</ele>
        <time>2022-08-27T17:54:11Z</time>
      </trkpt>
      <trkpt lat="45.93967" lon="7.09538">
        <ele>1899</ele>
        <time>2022-08-27T17:54:12Z</time>
      </trkpt>
      <trkpt lat="45.93969" lon="7.09538">
        <ele>1898</ele>
        <time>2022-08-27T17:54:13Z</time>
      </trkpt>
      <trkpt lat="45.9397" lon="7.09538">
        <ele>1898</ele>
        <time>2022-08-27T17:54:15Z</time>
      </trkpt>
      <trkpt lat="45.93971" lon="7.09538">
        <ele>1898</ele>
        <time>2022-08-27T17:54:16Z</time>
      </trkpt>
      <trkpt lat="45.93973" lon="7.09538">
        <ele>1898</ele>
        <time>2022-08-27T17:54:17Z</time>
      </trkpt>
      <trkpt lat="45.93974" lon="7.09538">
        <ele>1898</ele>
        <time>2022-08-27T17:54:18Z</time>
      </trkpt>
      <trkpt lat="45.93976" lon="7.09538">
        <ele>1898</ele>
        <time>2022-08-27T17:54:19Z</time>
      </trkpt>
      <trkpt lat="45.93977" lon="7.09538">
        <ele>1897</ele>
        <time>2022-08-27T17:54:20Z</time>
      </trkpt>
      <trkpt lat="45.93979" lon="7.09538">
        <ele>1896</ele>
        <time>2022-08-27T17:54:22Z</time>
      </trkpt>
      <trkpt lat="45.93982" lon="7.09539">
        <ele>1896</ele>
        <time>2022-08-27T17:54:23Z</time>
      </trkpt>
      <trkpt lat="45.93984" lon="7.0954">
        <ele>1896</ele>
        <time>2022-08-27T17:54:24Z</time>
      </trkpt>
      <trkpt lat="45.93986" lon="7.09541">
        <ele>1895</ele>
        <time>2022-08-27T17:54:25Z</time>
      </trkpt>
      <trkpt lat="45.93995" lon="7.09545">
        <ele>1894</ele>
        <time>2022-08-27T17:54:30Z</time>
      </trkpt>
      <trkpt lat="45.94004" lon="7.09553">
        <ele>1894</ele>
        <time>2022-08-27T17:54:35Z</time>
      </trkpt>
      <trkpt lat="45.94011" lon="7.09555">
        <ele>1893</ele>
        <time>2022-08-27T17:54:39Z</time>
      </trkpt>
      <trkpt lat="45.94015" lon="7.09555">
        <ele>1891</ele>
        <time>2022-08-27T17:54:41Z</time>
      </trkpt>
      <trkpt lat="45.94018" lon="7.09555">
        <ele>1891</ele>
        <time>2022-08-27T17:54:43Z</time>
      </trkpt>
      <trkpt lat="45.9402" lon="7.09555">
        <ele>1891</ele>
        <time>2022-08-27T17:54:44Z</time>
      </trkpt>
      <trkpt lat="45.94022" lon="7.09556">
        <ele>1891</ele>
        <time>2022-08-27T17:54:45Z</time>
      </trkpt>
      <trkpt lat="45.94024" lon="7.09556">
        <ele>1891</ele>
        <time>2022-08-27T17:54:46Z</time>
      </trkpt>
      <trkpt lat="45.94026" lon="7.09556">
        <ele>1891</ele>
        <time>2022-08-27T17:54:47Z</time>
      </trkpt>
      <trkpt lat="45.94029" lon="7.09555">
        <ele>1891</ele>
        <time>2022-08-27T17:54:49Z</time>
      </trkpt>
      <trkpt lat="45.94031" lon="7.09554">
        <ele>1891</ele>
        <time>2022-08-27T17:54:50Z</time>
      </trkpt>
      <trkpt lat="45.94033" lon="7.09554">
        <ele>1891</ele>
        <time>2022-08-27T17:54:51Z</time>
      </trkpt>
      <trkpt lat="45.94035" lon="7.09553">
        <ele>1891</ele>
        <time>2022-08-27T17:54:52Z</time>
      </trkpt>
      <trkpt lat="45.94036" lon="7.09552">
        <ele>1891</ele>
        <time>2022-08-27T17:54:54Z</time>
      </trkpt>
      <trkpt lat="45.94038" lon="7.09551">
        <ele>1890</ele>
        <time>2022-08-27T17:54:55Z</time>
      </trkpt>
      <trkpt lat="45.94041" lon="7.09551">
        <ele>1890</ele>
        <time>2022-08-27T17:54:56Z</time>
      </trkpt>
      <trkpt lat="45.94043" lon="7.0955">
        <ele>1890</ele>
        <time>2022-08-27T17:54:58Z</time>
      </trkpt>
      <trkpt lat="45.94046" lon="7.09549">
        <ele>1890</ele>
        <time>2022-08-27T17:54:59Z</time>
      </trkpt>
      <trkpt lat="45.94049" lon="7.09548">
        <ele>1889</ele>
        <time>2022-08-27T17:55:00Z</time>
      </trkpt>
      <trkpt lat="45.94051" lon="7.0955">
        <ele>1889</ele>
        <time>2022-08-27T17:55:02Z</time>
      </trkpt>
      <trkpt lat="45.94054" lon="7.09551">
        <ele>1889</ele>
        <time>2022-08-27T17:55:03Z</time>
      </trkpt>
      <trkpt lat="45.94061" lon="7.09555">
        <ele>1889</ele>
        <time>2022-08-27T17:55:04Z</time>
      </trkpt>
      <trkpt lat="45.94062" lon="7.09556">
        <ele>1889</ele>
        <time>2022-08-27T17:55:05Z</time>
      </trkpt>
      <trkpt lat="45.94064" lon="7.09557">
        <ele>1889</ele>
        <time>2022-08-27T17:55:07Z</time>
      </trkpt>
      <trkpt lat="45.94065" lon="7.09558">
        <ele>1888</ele>
        <time>2022-08-27T17:55:08Z</time>
      </trkpt>
      <trkpt lat="45.94067" lon="7.0956">
        <ele>1888</ele>
        <time>2022-08-27T17:55:09Z</time>
      </trkpt>
      <trkpt lat="45.94069" lon="7.09561">
        <ele>1888</ele>
        <time>2022-08-27T17:55:10Z</time>
      </trkpt>
      <trkpt lat="45.9407" lon="7.09562">
        <ele>1888</ele>
        <time>2022-08-27T17:55:12Z</time>
      </trkpt>
      <trkpt lat="45.94072" lon="7.09564">
        <ele>1887</ele>
        <time>2022-08-27T17:55:13Z</time>
      </trkpt>
      <trkpt lat="45.94073" lon="7.09565">
        <ele>1887</ele>
        <time>2022-08-27T17:55:14Z</time>
      </trkpt>
      <trkpt lat="45.94075" lon="7.09567">
        <ele>1887</ele>
        <time>2022-08-27T17:55:15Z</time>
      </trkpt>
      <trkpt lat="45.94076" lon="7.09568">
        <ele>1887</ele>
        <time>2022-08-27T17:55:17Z</time>
      </trkpt>
      <trkpt lat="45.94078" lon="7.0957">
        <ele>1887</ele>
        <time>2022-08-27T17:55:18Z</time>
      </trkpt>
      <trkpt lat="45.94086" lon="7.09578">
        <ele>1886</ele>
        <time>2022-08-27T17:55:23Z</time>
      </trkpt>
      <trkpt lat="45.94089" lon="7.0958">
        <ele>1886</ele>
        <time>2022-08-27T17:55:25Z</time>
      </trkpt>
      <trkpt lat="45.94092" lon="7.09583">
        <ele>1886</ele>
        <time>2022-08-27T17:55:26Z</time>
      </trkpt>
      <trkpt lat="45.94095" lon="7.09585">
        <ele>1886</ele>
        <time>2022-08-27T17:55:27Z</time>
      </trkpt>
      <trkpt lat="45.94096" lon="7.09587">
        <ele>1886</ele>
        <time>2022-08-27T17:55:28Z</time>
      </trkpt>
      <trkpt lat="45.94097" lon="7.09588">
        <ele>1886</ele>
        <time>2022-08-27T17:55:30Z</time>
      </trkpt>
      <trkpt lat="45.94098" lon="7.0959">
        <ele>1886</ele>
        <time>2022-08-27T17:55:31Z</time>
      </trkpt>
      <trkpt lat="45.94099" lon="7.09591">
        <ele>1886</ele>
        <time>2022-08-27T17:55:32Z</time>
      </trkpt>
      <trkpt lat="45.941" lon="7.09592">
        <ele>1886</ele>
        <time>2022-08-27T17:55:33Z</time>
      </trkpt>
      <trkpt lat="45.94101" lon="7.09594">
        <ele>1886</ele>
        <time>2022-08-27T17:55:34Z</time>
      </trkpt>
      <trkpt lat="45.94102" lon="7.09595">
        <ele>1886</ele>
        <time>2022-08-27T17:55:35Z</time>
      </trkpt>
      <trkpt lat="45.94104" lon="7.09597">
        <ele>1885</ele>
        <time>2022-08-27T17:55:36Z</time>
      </trkpt>
      <trkpt lat="45.94105" lon="7.09598">
        <ele>1885</ele>
        <time>2022-08-27T17:55:37Z</time>
      </trkpt>
      <trkpt lat="45.94106" lon="7.09599">
        <ele>1885</ele>
        <time>2022-08-27T17:55:38Z</time>
      </trkpt>
      <trkpt lat="45.94107" lon="7.096">
        <ele>1885</ele>
        <time>2022-08-27T17:55:40Z</time>
      </trkpt>
      <trkpt lat="45.94109" lon="7.09601">
        <ele>1884</ele>
        <time>2022-08-27T17:55:41Z</time>
      </trkpt>
      <trkpt lat="45.9411" lon="7.09602">
        <ele>1884</ele>
        <time>2022-08-27T17:55:42Z</time>
      </trkpt>
      <trkpt lat="45.94111" lon="7.09603">
        <ele>1884</ele>
        <time>2022-08-27T17:55:43Z</time>
      </trkpt>
      <trkpt lat="45.94112" lon="7.09604">
        <ele>1884</ele>
        <time>2022-08-27T17:55:45Z</time>
      </trkpt>
      <trkpt lat="45.94113" lon="7.09605">
        <ele>1884</ele>
        <time>2022-08-27T17:55:46Z</time>
      </trkpt>
      <trkpt lat="45.94114" lon="7.09605">
        <ele>1884</ele>
        <time>2022-08-27T17:55:47Z</time>
      </trkpt>
      <trkpt lat="45.94115" lon="7.09606">
        <ele>1884</ele>
        <time>2022-08-27T17:55:48Z</time>
      </trkpt>
      <trkpt lat="45.94116" lon="7.09607">
        <ele>1884</ele>
        <time>2022-08-27T17:55:50Z</time>
      </trkpt>
      <trkpt lat="45.94117" lon="7.09607">
        <ele>1884</ele>
        <time>2022-08-27T17:55:51Z</time>
      </trkpt>
      <trkpt lat="45.94118" lon="7.09608">
        <ele>1884</ele>
        <time>2022-08-27T17:55:52Z</time>
      </trkpt>
      <trkpt lat="45.94121" lon="7.0961">
        <ele>1884</ele>
        <time>2022-08-27T17:55:53Z</time>
      </trkpt>
      <trkpt lat="45.94123" lon="7.09611">
        <ele>1884</ele>
        <time>2022-08-27T17:55:55Z</time>
      </trkpt>
      <trkpt lat="45.94125" lon="7.09613">
        <ele>1883</ele>
        <time>2022-08-27T17:55:57Z</time>
      </trkpt>
      <trkpt lat="45.94128" lon="7.09614">
        <ele>1883</ele>
        <time>2022-08-27T17:55:59Z</time>
      </trkpt>
      <trkpt lat="45.94137" lon="7.09617">
        <ele>1882</ele>
        <time>2022-08-27T17:56:09Z</time>
      </trkpt>
      <trkpt lat="45.94139" lon="7.09618">
        <ele>1881</ele>
        <time>2022-08-27T17:56:10Z</time>
      </trkpt>
      <trkpt lat="45.9414" lon="7.09618">
        <ele>1881</ele>
        <time>2022-08-27T17:56:11Z</time>
      </trkpt>
      <trkpt lat="45.94141" lon="7.09618">
        <ele>1881</ele>
        <time>2022-08-27T17:56:12Z</time>
      </trkpt>
      <trkpt lat="45.94143" lon="7.09619">
        <ele>1881</ele>
        <time>2022-08-27T17:56:14Z</time>
      </trkpt>
      <trkpt lat="45.94144" lon="7.09619">
        <ele>1880</ele>
        <time>2022-08-27T17:56:16Z</time>
      </trkpt>
      <trkpt lat="45.94145" lon="7.09619">
        <ele>1880</ele>
        <time>2022-08-27T17:56:17Z</time>
      </trkpt>
      <trkpt lat="45.94147" lon="7.09619">
        <ele>1880</ele>
        <time>2022-08-27T17:56:18Z</time>
      </trkpt>
      <trkpt lat="45.9415" lon="7.09619">
        <ele>1880</ele>
        <time>2022-08-27T17:56:19Z</time>
      </trkpt>
      <trkpt lat="45.94153" lon="7.09618">
        <ele>1880</ele>
        <time>2022-08-27T17:56:21Z</time>
      </trkpt>
      <trkpt lat="45.94156" lon="7.09618">
        <ele>1880</ele>
        <time>2022-08-27T17:56:22Z</time>
      </trkpt>
      <trkpt lat="45.94158" lon="7.09618">
        <ele>1879</ele>
        <time>2022-08-27T17:56:23Z</time>
      </trkpt>
      <trkpt lat="45.94161" lon="7.09619">
        <ele>1879</ele>
        <time>2022-08-27T17:56:24Z</time>
      </trkpt>
      <trkpt lat="45.94165" lon="7.09619">
        <ele>1879</ele>
        <time>2022-08-27T17:56:26Z</time>
      </trkpt>
      <trkpt lat="45.94168" lon="7.09619">
        <ele>1879</ele>
        <time>2022-08-27T17:56:27Z</time>
      </trkpt>
      <trkpt lat="45.94169" lon="7.09618">
        <ele>1879</ele>
        <time>2022-08-27T17:56:28Z</time>
      </trkpt>
      <trkpt lat="45.94173" lon="7.09619">
        <ele>1879</ele>
        <time>2022-08-27T17:56:30Z</time>
      </trkpt>
      <trkpt lat="45.94175" lon="7.09619">
        <ele>1879</ele>
        <time>2022-08-27T17:56:31Z</time>
      </trkpt>
      <trkpt lat="45.94179" lon="7.09618">
        <ele>1879</ele>
        <time>2022-08-27T17:56:33Z</time>
      </trkpt>
      <trkpt lat="45.94181" lon="7.09618">
        <ele>1879</ele>
        <time>2022-08-27T17:56:34Z</time>
      </trkpt>
      <trkpt lat="45.94184" lon="7.09617">
        <ele>1879</ele>
        <time>2022-08-27T17:56:36Z</time>
      </trkpt>
      <trkpt lat="45.94187" lon="7.09616">
        <ele>1879</ele>
        <time>2022-08-27T17:56:38Z</time>
      </trkpt>
      <trkpt lat="45.94189" lon="7.09615">
        <ele>1879</ele>
        <time>2022-08-27T17:56:40Z</time>
      </trkpt>
      <trkpt lat="45.942" lon="7.09612">
        <ele>1878</ele>
        <time>2022-08-27T17:56:45Z</time>
      </trkpt>
      <trkpt lat="45.94202" lon="7.09611">
        <ele>1878</ele>
        <time>2022-08-27T17:56:46Z</time>
      </trkpt>
      <trkpt lat="45.94205" lon="7.0961">
        <ele>1878</ele>
        <time>2022-08-27T17:56:48Z</time>
      </trkpt>
      <trkpt lat="45.94207" lon="7.0961">
        <ele>1878</ele>
        <time>2022-08-27T17:56:49Z</time>
      </trkpt>
      <trkpt lat="45.94209" lon="7.0961">
        <ele>1878</ele>
        <time>2022-08-27T17:56:50Z</time>
      </trkpt>
      <trkpt lat="45.9421" lon="7.0961">
        <ele>1878</ele>
        <time>2022-08-27T17:56:52Z</time>
      </trkpt>
      <trkpt lat="45.94212" lon="7.09609">
        <ele>1877</ele>
        <time>2022-08-27T17:56:53Z</time>
      </trkpt>
      <trkpt lat="45.94214" lon="7.09609">
        <ele>1876</ele>
        <time>2022-08-27T17:56:54Z</time>
      </trkpt>
      <trkpt lat="45.94215" lon="7.09608">
        <ele>1876</ele>
        <time>2022-08-27T17:56:55Z</time>
      </trkpt>
      <trkpt lat="45.94217" lon="7.09608">
        <ele>1876</ele>
        <time>2022-08-27T17:56:56Z</time>
      </trkpt>
      <trkpt lat="45.9422" lon="7.09607">
        <ele>1877</ele>
        <time>2022-08-27T17:56:57Z</time>
      </trkpt>
      <trkpt lat="45.94224" lon="7.09607">
        <ele>1877</ele>
        <time>2022-08-27T17:56:59Z</time>
      </trkpt>
      <trkpt lat="45.94227" lon="7.09606">
        <ele>1877</ele>
        <time>2022-08-27T17:57:00Z</time>
      </trkpt>
      <trkpt lat="45.94228" lon="7.09605">
        <ele>1877</ele>
        <time>2022-08-27T17:57:01Z</time>
      </trkpt>
      <trkpt lat="45.94229" lon="7.09605">
        <ele>1877</ele>
        <time>2022-08-27T17:57:02Z</time>
      </trkpt>
      <trkpt lat="45.9423" lon="7.09604">
        <ele>1877</ele>
        <time>2022-08-27T17:57:03Z</time>
      </trkpt>
      <trkpt lat="45.94232" lon="7.09603">
        <ele>1877</ele>
        <time>2022-08-27T17:57:04Z</time>
      </trkpt>
      <trkpt lat="45.94235" lon="7.09602">
        <ele>1877</ele>
        <time>2022-08-27T17:57:05Z</time>
      </trkpt>
      <trkpt lat="45.94237" lon="7.09598">
        <ele>1877</ele>
        <time>2022-08-27T17:57:07Z</time>
      </trkpt>
      <trkpt lat="45.9424" lon="7.09594">
        <ele>1877</ele>
        <time>2022-08-27T17:57:09Z</time>
      </trkpt>
      <trkpt lat="45.94242" lon="7.09592">
        <ele>1877</ele>
        <time>2022-08-27T17:57:11Z</time>
      </trkpt>
      <trkpt lat="45.94244" lon="7.09589">
        <ele>1876</ele>
        <time>2022-08-27T17:57:13Z</time>
      </trkpt>
      <trkpt lat="45.94246" lon="7.09586">
        <ele>1877</ele>
        <time>2022-08-27T17:57:15Z</time>
      </trkpt>
      <trkpt lat="45.9425" lon="7.09584">
        <ele>1876</ele>
        <time>2022-08-27T17:57:17Z</time>
      </trkpt>
      <trkpt lat="45.94253" lon="7.09582">
        <ele>1876</ele>
        <time>2022-08-27T17:57:19Z</time>
      </trkpt>
      <trkpt lat="45.94255" lon="7.09582">
        <ele>1876</ele>
        <time>2022-08-27T17:57:21Z</time>
      </trkpt>
      <trkpt lat="45.94256" lon="7.09583">
        <ele>1876</ele>
        <time>2022-08-27T17:57:22Z</time>
      </trkpt>
      <trkpt lat="45.94258" lon="7.09583">
        <ele>1876</ele>
        <time>2022-08-27T17:57:23Z</time>
      </trkpt>
      <trkpt lat="45.9426" lon="7.09584">
        <ele>1876</ele>
        <time>2022-08-27T17:57:24Z</time>
      </trkpt>
      <trkpt lat="45.94262" lon="7.09584">
        <ele>1876</ele>
        <time>2022-08-27T17:57:25Z</time>
      </trkpt>
      <trkpt lat="45.94264" lon="7.09585">
        <ele>1876</ele>
        <time>2022-08-27T17:57:26Z</time>
      </trkpt>
      <trkpt lat="45.94266" lon="7.09587">
        <ele>1876</ele>
        <time>2022-08-27T17:57:28Z</time>
      </trkpt>
      <trkpt lat="45.94269" lon="7.09588">
        <ele>1876</ele>
        <time>2022-08-27T17:57:29Z</time>
      </trkpt>
      <trkpt lat="45.94271" lon="7.0959">
        <ele>1875</ele>
        <time>2022-08-27T17:57:30Z</time>
      </trkpt>
      <trkpt lat="45.9428" lon="7.09593">
        <ele>1875</ele>
        <time>2022-08-27T17:57:34Z</time>
      </trkpt>
      <trkpt lat="45.94282" lon="7.09592">
        <ele>1875</ele>
        <time>2022-08-27T17:57:35Z</time>
      </trkpt>
      <trkpt lat="45.94284" lon="7.09592">
        <ele>1875</ele>
        <time>2022-08-27T17:57:36Z</time>
      </trkpt>
      <trkpt lat="45.94285" lon="7.09592">
        <ele>1875</ele>
        <time>2022-08-27T17:57:37Z</time>
      </trkpt>
      <trkpt lat="45.94287" lon="7.09591">
        <ele>1875</ele>
        <time>2022-08-27T17:57:39Z</time>
      </trkpt>
      <trkpt lat="45.94289" lon="7.09591">
        <ele>1875</ele>
        <time>2022-08-27T17:57:40Z</time>
      </trkpt>
      <trkpt lat="45.94299" lon="7.0959">
        <ele>1876</ele>
        <time>2022-08-27T17:57:49Z</time>
      </trkpt>
      <trkpt lat="45.94302" lon="7.09589">
        <ele>1876</ele>
        <time>2022-08-27T17:57:50Z</time>
      </trkpt>
      <trkpt lat="45.94304" lon="7.09589">
        <ele>1875</ele>
        <time>2022-08-27T17:57:52Z</time>
      </trkpt>
      <trkpt lat="45.94307" lon="7.09592">
        <ele>1875</ele>
        <time>2022-08-27T17:57:54Z</time>
      </trkpt>
      <trkpt lat="45.9431" lon="7.09593">
        <ele>1875</ele>
        <time>2022-08-27T17:57:56Z</time>
      </trkpt>
      <trkpt lat="45.94314" lon="7.09592">
        <ele>1875</ele>
        <time>2022-08-27T17:57:58Z</time>
      </trkpt>
      <trkpt lat="45.94318" lon="7.09593">
        <ele>1876</ele>
        <time>2022-08-27T17:58:00Z</time>
      </trkpt>
      <trkpt lat="45.94321" lon="7.09593">
        <ele>1876</ele>
        <time>2022-08-27T17:58:01Z</time>
      </trkpt>
      <trkpt lat="45.94322" lon="7.09593">
        <ele>1876</ele>
        <time>2022-08-27T17:58:02Z</time>
      </trkpt>
      <trkpt lat="45.94324" lon="7.09592">
        <ele>1876</ele>
        <time>2022-08-27T17:58:03Z</time>
      </trkpt>
      <trkpt lat="45.94328" lon="7.09592">
        <ele>1876</ele>
        <time>2022-08-27T17:58:05Z</time>
      </trkpt>
      <trkpt lat="45.9433" lon="7.09594">
        <ele>1876</ele>
        <time>2022-08-27T17:58:06Z</time>
      </trkpt>
      <trkpt lat="45.94332" lon="7.09596">
        <ele>1875</ele>
        <time>2022-08-27T17:58:07Z</time>
      </trkpt>
      <trkpt lat="45.94333" lon="7.09598">
        <ele>1875</ele>
        <time>2022-08-27T17:58:08Z</time>
      </trkpt>
      <trkpt lat="45.94336" lon="7.09601">
        <ele>1875</ele>
        <time>2022-08-27T17:58:10Z</time>
      </trkpt>
      <trkpt lat="45.94337" lon="7.09602">
        <ele>1875</ele>
        <time>2022-08-27T17:58:11Z</time>
      </trkpt>
      <trkpt lat="45.9434" lon="7.09605">
        <ele>1875</ele>
        <time>2022-08-27T17:58:13Z</time>
      </trkpt>
      <trkpt lat="45.94344" lon="7.09606">
        <ele>1875</ele>
        <time>2022-08-27T17:58:15Z</time>
      </trkpt>
      <trkpt lat="45.94345" lon="7.09606">
        <ele>1875</ele>
        <time>2022-08-27T17:58:16Z</time>
      </trkpt>
      <trkpt lat="45.94348" lon="7.09606">
        <ele>1874</ele>
        <time>2022-08-27T17:58:17Z</time>
      </trkpt>
      <trkpt lat="45.9435" lon="7.09607">
        <ele>1874</ele>
        <time>2022-08-27T17:58:18Z</time>
      </trkpt>
      <trkpt lat="45.94354" lon="7.09608">
        <ele>1873</ele>
        <time>2022-08-27T17:58:19Z</time>
      </trkpt>
      <trkpt lat="45.94356" lon="7.09609">
        <ele>1873</ele>
        <time>2022-08-27T17:58:20Z</time>
      </trkpt>
      <trkpt lat="45.94357" lon="7.0961">
        <ele>1873</ele>
        <time>2022-08-27T17:58:21Z</time>
      </trkpt>
      <trkpt lat="45.94359" lon="7.09611">
        <ele>1872</ele>
        <time>2022-08-27T17:58:22Z</time>
      </trkpt>
      <trkpt lat="45.94361" lon="7.09612">
        <ele>1872</ele>
        <time>2022-08-27T17:58:23Z</time>
      </trkpt>
      <trkpt lat="45.94363" lon="7.09613">
        <ele>1872</ele>
        <time>2022-08-27T17:58:24Z</time>
      </trkpt>
      <trkpt lat="45.94366" lon="7.09614">
        <ele>1871</ele>
        <time>2022-08-27T17:58:26Z</time>
      </trkpt>
      <trkpt lat="45.94368" lon="7.09615">
        <ele>1871</ele>
        <time>2022-08-27T17:58:27Z</time>
      </trkpt>
      <trkpt lat="45.94371" lon="7.09616">
        <ele>1871</ele>
        <time>2022-08-27T17:58:29Z</time>
      </trkpt>
      <trkpt lat="45.94373" lon="7.09618">
        <ele>1870</ele>
        <time>2022-08-27T17:58:31Z</time>
      </trkpt>
      <trkpt lat="45.94376" lon="7.09619">
        <ele>1870</ele>
        <time>2022-08-27T17:58:32Z</time>
      </trkpt>
      <trkpt lat="45.94378" lon="7.0962">
        <ele>1870</ele>
        <time>2022-08-27T17:58:33Z</time>
      </trkpt>
      <trkpt lat="45.9438" lon="7.0962">
        <ele>1870</ele>
        <time>2022-08-27T17:58:34Z</time>
      </trkpt>
      <trkpt lat="45.94383" lon="7.0962">
        <ele>1869</ele>
        <time>2022-08-27T17:58:36Z</time>
      </trkpt>
      <trkpt lat="45.94386" lon="7.09621">
        <ele>1869</ele>
        <time>2022-08-27T17:58:38Z</time>
      </trkpt>
      <trkpt lat="45.9439" lon="7.09622">
        <ele>1869</ele>
        <time>2022-08-27T17:58:41Z</time>
      </trkpt>
      <trkpt lat="45.94393" lon="7.09623">
        <ele>1869</ele>
        <time>2022-08-27T17:58:42Z</time>
      </trkpt>
      <trkpt lat="45.94395" lon="7.09624">
        <ele>1869</ele>
        <time>2022-08-27T17:58:43Z</time>
      </trkpt>
      <trkpt lat="45.94398" lon="7.09624">
        <ele>1868</ele>
        <time>2022-08-27T17:58:44Z</time>
      </trkpt>
      <trkpt lat="45.944" lon="7.09624">
        <ele>1868</ele>
        <time>2022-08-27T17:58:45Z</time>
      </trkpt>
      <trkpt lat="45.94403" lon="7.09625">
        <ele>1868</ele>
        <time>2022-08-27T17:58:47Z</time>
      </trkpt>
      <trkpt lat="45.94406" lon="7.09625">
        <ele>1867</ele>
        <time>2022-08-27T17:58:49Z</time>
      </trkpt>
      <trkpt lat="45.94408" lon="7.09625">
        <ele>1867</ele>
        <time>2022-08-27T17:58:51Z</time>
      </trkpt>
      <trkpt lat="45.9441" lon="7.09625">
        <ele>1867</ele>
        <time>2022-08-27T17:58:53Z</time>
      </trkpt>
      <trkpt lat="45.94413" lon="7.09625">
        <ele>1867</ele>
        <time>2022-08-27T17:58:54Z</time>
      </trkpt>
      <trkpt lat="45.94415" lon="7.09626">
        <ele>1867</ele>
        <time>2022-08-27T17:58:56Z</time>
      </trkpt>
      <trkpt lat="45.94423" lon="7.0963">
        <ele>1867</ele>
        <time>2022-08-27T17:59:03Z</time>
      </trkpt>
      <trkpt lat="45.94425" lon="7.09632">
        <ele>1867</ele>
        <time>2022-08-27T17:59:04Z</time>
      </trkpt>
      <trkpt lat="45.94428" lon="7.09633">
        <ele>1868</ele>
        <time>2022-08-27T17:59:07Z</time>
      </trkpt>
      <trkpt lat="45.9443" lon="7.09635">
        <ele>1868</ele>
        <time>2022-08-27T17:59:08Z</time>
      </trkpt>
      <trkpt lat="45.94432" lon="7.09635">
        <ele>1868</ele>
        <time>2022-08-27T17:59:10Z</time>
      </trkpt>
      <trkpt lat="45.94434" lon="7.09636">
        <ele>1869</ele>
        <time>2022-08-27T17:59:12Z</time>
      </trkpt>
      <trkpt lat="45.94436" lon="7.09637">
        <ele>1869</ele>
        <time>2022-08-27T17:59:14Z</time>
      </trkpt>
      <trkpt lat="45.94439" lon="7.09638">
        <ele>1869</ele>
        <time>2022-08-27T17:59:16Z</time>
      </trkpt>
      <trkpt lat="45.94441" lon="7.09639">
        <ele>1869</ele>
        <time>2022-08-27T17:59:18Z</time>
      </trkpt>
      <trkpt lat="45.94443" lon="7.0964">
        <ele>1869</ele>
        <time>2022-08-27T17:59:20Z</time>
      </trkpt>
      <trkpt lat="45.94446" lon="7.09641">
        <ele>1869</ele>
        <time>2022-08-27T17:59:22Z</time>
      </trkpt>
      <trkpt lat="45.94449" lon="7.09642">
        <ele>1869</ele>
        <time>2022-08-27T17:59:24Z</time>
      </trkpt>
      <trkpt lat="45.9445" lon="7.09643">
        <ele>1869</ele>
        <time>2022-08-27T17:59:26Z</time>
      </trkpt>
      <trkpt lat="45.94451" lon="7.09644">
        <ele>1869</ele>
        <time>2022-08-27T17:59:27Z</time>
      </trkpt>
      <trkpt lat="45.94452" lon="7.09645">
        <ele>1869</ele>
        <time>2022-08-27T17:59:28Z</time>
      </trkpt>
      <trkpt lat="45.94453" lon="7.09645">
        <ele>1869</ele>
        <time>2022-08-27T17:59:30Z</time>
      </trkpt>
      <trkpt lat="45.94454" lon="7.09646">
        <ele>1869</ele>
        <time>2022-08-27T17:59:31Z</time>
      </trkpt>
      <trkpt lat="45.94456" lon="7.09647">
        <ele>1870</ele>
        <time>2022-08-27T17:59:32Z</time>
      </trkpt>
      <trkpt lat="45.94457" lon="7.09649">
        <ele>1870</ele>
        <time>2022-08-27T17:59:33Z</time>
      </trkpt>
      <trkpt lat="45.94459" lon="7.09652">
        <ele>1870</ele>
        <time>2022-08-27T17:59:35Z</time>
      </trkpt>
      <trkpt lat="45.9446" lon="7.09655">
        <ele>1870</ele>
        <time>2022-08-27T17:59:37Z</time>
      </trkpt>
      <trkpt lat="45.94462" lon="7.09658">
        <ele>1872</ele>
        <time>2022-08-27T17:59:39Z</time>
      </trkpt>
      <trkpt lat="45.94463" lon="7.09659">
        <ele>1872</ele>
        <time>2022-08-27T17:59:40Z</time>
      </trkpt>
      <trkpt lat="45.94463" lon="7.0966">
        <ele>1872</ele>
        <time>2022-08-27T17:59:41Z</time>
      </trkpt>
      <trkpt lat="45.94464" lon="7.09661">
        <ele>1872</ele>
        <time>2022-08-27T17:59:42Z</time>
      </trkpt>
      <trkpt lat="45.94464" lon="7.09662">
        <ele>1872</ele>
        <time>2022-08-27T17:59:43Z</time>
      </trkpt>
      <trkpt lat="45.94466" lon="7.09665">
        <ele>1872</ele>
        <time>2022-08-27T17:59:45Z</time>
      </trkpt>
      <trkpt lat="45.94467" lon="7.09668">
        <ele>1872</ele>
        <time>2022-08-27T17:59:47Z</time>
      </trkpt>
      <trkpt lat="45.94468" lon="7.09671">
        <ele>1872</ele>
        <time>2022-08-27T17:59:49Z</time>
      </trkpt>
      <trkpt lat="45.9447" lon="7.09674">
        <ele>1872</ele>
        <time>2022-08-27T17:59:52Z</time>
      </trkpt>
      <trkpt lat="45.94471" lon="7.09677">
        <ele>1872</ele>
        <time>2022-08-27T17:59:53Z</time>
      </trkpt>
      <trkpt lat="45.94472" lon="7.09678">
        <ele>1873</ele>
        <time>2022-08-27T17:59:54Z</time>
      </trkpt>
      <trkpt lat="45.94473" lon="7.0968">
        <ele>1873</ele>
        <time>2022-08-27T17:59:55Z</time>
      </trkpt>
      <trkpt lat="45.94473" lon="7.09681">
        <ele>1873</ele>
        <time>2022-08-27T17:59:56Z</time>
      </trkpt>
      <trkpt lat="45.94474" lon="7.09682">
        <ele>1873</ele>
        <time>2022-08-27T17:59:57Z</time>
      </trkpt>
      <trkpt lat="45.94475" lon="7.09684">
        <ele>1873</ele>
        <time>2022-08-27T17:59:59Z</time>
      </trkpt>
      <trkpt lat="45.94475" lon="7.09688">
        <ele>1873</ele>
        <time>2022-08-27T18:00:01Z</time>
      </trkpt>
      <trkpt lat="45.94476" lon="7.09692">
        <ele>1873</ele>
        <time>2022-08-27T18:00:03Z</time>
      </trkpt>
      <trkpt lat="45.94477" lon="7.09695">
        <ele>1873</ele>
        <time>2022-08-27T18:00:06Z</time>
      </trkpt>
      <trkpt lat="45.94478" lon="7.09698">
        <ele>1873</ele>
        <time>2022-08-27T18:00:08Z</time>
      </trkpt>
      <trkpt lat="45.94478" lon="7.09701">
        <ele>1873</ele>
        <time>2022-08-27T18:00:10Z</time>
      </trkpt>
      <trkpt lat="45.94479" lon="7.09704">
        <ele>1873</ele>
        <time>2022-08-27T18:00:12Z</time>
      </trkpt>
      <trkpt lat="45.94481" lon="7.09708">
        <ele>1873</ele>
        <time>2022-08-27T18:00:14Z</time>
      </trkpt>
      <trkpt lat="45.94483" lon="7.09711">
        <ele>1873</ele>
        <time>2022-08-27T18:00:16Z</time>
      </trkpt>
      <trkpt lat="45.94484" lon="7.09714">
        <ele>1873</ele>
        <time>2022-08-27T18:00:18Z</time>
      </trkpt>
      <trkpt lat="45.94485" lon="7.09717">
        <ele>1873</ele>
        <time>2022-08-27T18:00:20Z</time>
      </trkpt>
      <trkpt lat="45.94487" lon="7.09719">
        <ele>1873</ele>
        <time>2022-08-27T18:00:22Z</time>
      </trkpt>
      <trkpt lat="45.94489" lon="7.09722">
        <ele>1872</ele>
        <time>2022-08-27T18:00:24Z</time>
      </trkpt>
      <trkpt lat="45.94491" lon="7.09725">
        <ele>1872</ele>
        <time>2022-08-27T18:00:26Z</time>
      </trkpt>
      <trkpt lat="45.94493" lon="7.09729">
        <ele>1872</ele>
        <time>2022-08-27T18:00:28Z</time>
      </trkpt>
      <trkpt lat="45.94494" lon="7.09732">
        <ele>1872</ele>
        <time>2022-08-27T18:00:30Z</time>
      </trkpt>
      <trkpt lat="45.94496" lon="7.09734">
        <ele>1872</ele>
        <time>2022-08-27T18:00:32Z</time>
      </trkpt>
      <trkpt lat="45.94499" lon="7.09736">
        <ele>1872</ele>
        <time>2022-08-27T18:00:34Z</time>
      </trkpt>
      <trkpt lat="45.94501" lon="7.09739">
        <ele>1872</ele>
        <time>2022-08-27T18:00:36Z</time>
      </trkpt>
      <trkpt lat="45.94502" lon="7.09742">
        <ele>1872</ele>
        <time>2022-08-27T18:00:38Z</time>
      </trkpt>
      <trkpt lat="45.94503" lon="7.09745">
        <ele>1872</ele>
        <time>2022-08-27T18:00:40Z</time>
      </trkpt>
      <trkpt lat="45.94504" lon="7.09747">
        <ele>1872</ele>
        <time>2022-08-27T18:00:42Z</time>
      </trkpt>
      <trkpt lat="45.94506" lon="7.09749">
        <ele>1872</ele>
        <time>2022-08-27T18:00:44Z</time>
      </trkpt>
      <trkpt lat="45.94509" lon="7.09751">
        <ele>1872</ele>
        <time>2022-08-27T18:00:46Z</time>
      </trkpt>
      <trkpt lat="45.94511" lon="7.09752">
        <ele>1873</ele>
        <time>2022-08-27T18:00:49Z</time>
      </trkpt>
      <trkpt lat="45.94512" lon="7.09755">
        <ele>1873</ele>
        <time>2022-08-27T18:00:50Z</time>
      </trkpt>
      <trkpt lat="45.94514" lon="7.09757">
        <ele>1873</ele>
        <time>2022-08-27T18:00:52Z</time>
      </trkpt>
      <trkpt lat="45.94517" lon="7.09759">
        <ele>1873</ele>
        <time>2022-08-27T18:00:54Z</time>
      </trkpt>
      <trkpt lat="45.94519" lon="7.09761">
        <ele>1872</ele>
        <time>2022-08-27T18:00:57Z</time>
      </trkpt>
      <trkpt lat="45.94521" lon="7.09764">
        <ele>1872</ele>
        <time>2022-08-27T18:00:58Z</time>
      </trkpt>
      <trkpt lat="45.94522" lon="7.09767">
        <ele>1872</ele>
        <time>2022-08-27T18:01:00Z</time>
      </trkpt>
      <trkpt lat="45.94523" lon="7.0977">
        <ele>1872</ele>
        <time>2022-08-27T18:01:02Z</time>
      </trkpt>
      <trkpt lat="45.94524" lon="7.09773">
        <ele>1872</ele>
        <time>2022-08-27T18:01:04Z</time>
      </trkpt>
      <trkpt lat="45.94526" lon="7.09775">
        <ele>1872</ele>
        <time>2022-08-27T18:01:06Z</time>
      </trkpt>
      <trkpt lat="45.94529" lon="7.09777">
        <ele>1872</ele>
        <time>2022-08-27T18:01:09Z</time>
      </trkpt>
      <trkpt lat="45.94531" lon="7.09779">
        <ele>1872</ele>
        <time>2022-08-27T18:01:11Z</time>
      </trkpt>
      <trkpt lat="45.94534" lon="7.09781">
        <ele>1872</ele>
        <time>2022-08-27T18:01:12Z</time>
      </trkpt>
      <trkpt lat="45.94536" lon="7.09784">
        <ele>1872</ele>
        <time>2022-08-27T18:01:14Z</time>
      </trkpt>
      <trkpt lat="45.94538" lon="7.09787">
        <ele>1872</ele>
        <time>2022-08-27T18:01:16Z</time>
      </trkpt>
      <trkpt lat="45.9454" lon="7.09789">
        <ele>1872</ele>
        <time>2022-08-27T18:01:19Z</time>
      </trkpt>
      <trkpt lat="45.94542" lon="7.09792">
        <ele>1872</ele>
        <time>2022-08-27T18:01:20Z</time>
      </trkpt>
      <trkpt lat="45.94544" lon="7.09795">
        <ele>1872</ele>
        <time>2022-08-27T18:01:22Z</time>
      </trkpt>
      <trkpt lat="45.94546" lon="7.09796">
        <ele>1872</ele>
        <time>2022-08-27T18:01:24Z</time>
      </trkpt>
      <trkpt lat="45.94548" lon="7.09797">
        <ele>1872</ele>
        <time>2022-08-27T18:01:26Z</time>
      </trkpt>
      <trkpt lat="45.9455" lon="7.09798">
        <ele>1872</ele>
        <time>2022-08-27T18:01:28Z</time>
      </trkpt>
      <trkpt lat="45.94552" lon="7.098">
        <ele>1872</ele>
        <time>2022-08-27T18:01:30Z</time>
      </trkpt>
      <trkpt lat="45.94553" lon="7.09804">
        <ele>1872</ele>
        <time>2022-08-27T18:01:32Z</time>
      </trkpt>
      <trkpt lat="45.94553" lon="7.09808">
        <ele>1872</ele>
        <time>2022-08-27T18:01:34Z</time>
      </trkpt>
      <trkpt lat="45.94553" lon="7.09813">
        <ele>1872</ele>
        <time>2022-08-27T18:01:37Z</time>
      </trkpt>
      <trkpt lat="45.94554" lon="7.09817">
        <ele>1872</ele>
        <time>2022-08-27T18:01:38Z</time>
      </trkpt>
      <trkpt lat="45.94553" lon="7.09821">
        <ele>1872</ele>
        <time>2022-08-27T18:01:40Z</time>
      </trkpt>
      <trkpt lat="45.94553" lon="7.09825">
        <ele>1871</ele>
        <time>2022-08-27T18:01:42Z</time>
      </trkpt>
      <trkpt lat="45.94554" lon="7.09829">
        <ele>1871</ele>
        <time>2022-08-27T18:01:44Z</time>
      </trkpt>
      <trkpt lat="45.94556" lon="7.09833">
        <ele>1870</ele>
        <time>2022-08-27T18:01:46Z</time>
      </trkpt>
      <trkpt lat="45.94558" lon="7.09836">
        <ele>1869</ele>
        <time>2022-08-27T18:01:48Z</time>
      </trkpt>
      <trkpt lat="45.9456" lon="7.09839">
        <ele>1869</ele>
        <time>2022-08-27T18:01:50Z</time>
      </trkpt>
      <trkpt lat="45.94563" lon="7.09842">
        <ele>1868</ele>
        <time>2022-08-27T18:01:52Z</time>
      </trkpt>
      <trkpt lat="45.94565" lon="7.09844">
        <ele>1868</ele>
        <time>2022-08-27T18:01:54Z</time>
      </trkpt>
      <trkpt lat="45.94567" lon="7.09847">
        <ele>1868</ele>
        <time>2022-08-27T18:01:56Z</time>
      </trkpt>
      <trkpt lat="45.94569" lon="7.0985">
        <ele>1868</ele>
        <time>2022-08-27T18:01:58Z</time>
      </trkpt>
      <trkpt lat="45.94571" lon="7.09852">
        <ele>1867</ele>
        <time>2022-08-27T18:02:00Z</time>
      </trkpt>
      <trkpt lat="45.94573" lon="7.09854">
        <ele>1867</ele>
        <time>2022-08-27T18:02:02Z</time>
      </trkpt>
      <trkpt lat="45.94575" lon="7.09857">
        <ele>1867</ele>
        <time>2022-08-27T18:02:04Z</time>
      </trkpt>
      <trkpt lat="45.94577" lon="7.09861">
        <ele>1867</ele>
        <time>2022-08-27T18:02:06Z</time>
      </trkpt>
      <trkpt lat="45.94579" lon="7.09864">
        <ele>1866</ele>
        <time>2022-08-27T18:02:08Z</time>
      </trkpt>
      <trkpt lat="45.9458" lon="7.09866">
        <ele>1866</ele>
        <time>2022-08-27T18:02:09Z</time>
      </trkpt>
      <trkpt lat="45.94584" lon="7.09869">
        <ele>1865</ele>
        <time>2022-08-27T18:02:11Z</time>
      </trkpt>
      <trkpt lat="45.94587" lon="7.09871">
        <ele>1865</ele>
        <time>2022-08-27T18:02:12Z</time>
      </trkpt>
      <trkpt lat="45.94588" lon="7.09871">
        <ele>1864</ele>
        <time>2022-08-27T18:02:13Z</time>
      </trkpt>
      <trkpt lat="45.9459" lon="7.09872">
        <ele>1864</ele>
        <time>2022-08-27T18:02:14Z</time>
      </trkpt>
      <trkpt lat="45.94593" lon="7.09874">
        <ele>1864</ele>
        <time>2022-08-27T18:02:16Z</time>
      </trkpt>
      <trkpt lat="45.94595" lon="7.09876">
        <ele>1864</ele>
        <time>2022-08-27T18:02:18Z</time>
      </trkpt>
      <trkpt lat="45.94597" lon="7.09877">
        <ele>1864</ele>
        <time>2022-08-27T18:02:20Z</time>
      </trkpt>
      <trkpt lat="45.946" lon="7.0988">
        <ele>1864</ele>
        <time>2022-08-27T18:02:22Z</time>
      </trkpt>
      <trkpt lat="45.94603" lon="7.09881">
        <ele>1863</ele>
        <time>2022-08-27T18:02:24Z</time>
      </trkpt>
      <trkpt lat="45.94606" lon="7.09882">
        <ele>1863</ele>
        <time>2022-08-27T18:02:26Z</time>
      </trkpt>
      <trkpt lat="45.94608" lon="7.09883">
        <ele>1863</ele>
        <time>2022-08-27T18:02:29Z</time>
      </trkpt>
      <trkpt lat="45.9461" lon="7.09886">
        <ele>1863</ele>
        <time>2022-08-27T18:02:30Z</time>
      </trkpt>
      <trkpt lat="45.94612" lon="7.0989">
        <ele>1862</ele>
        <time>2022-08-27T18:02:32Z</time>
      </trkpt>
      <trkpt lat="45.94614" lon="7.09894">
        <ele>1862</ele>
        <time>2022-08-27T18:02:34Z</time>
      </trkpt>
      <trkpt lat="45.94616" lon="7.09897">
        <ele>1860</ele>
        <time>2022-08-27T18:02:36Z</time>
      </trkpt>
      <trkpt lat="45.94618" lon="7.09899">
        <ele>1860</ele>
        <time>2022-08-27T18:02:37Z</time>
      </trkpt>
      <trkpt lat="45.94619" lon="7.099">
        <ele>1860</ele>
        <time>2022-08-27T18:02:38Z</time>
      </trkpt>
      <trkpt lat="45.94623" lon="7.099">
        <ele>1860</ele>
        <time>2022-08-27T18:02:40Z</time>
      </trkpt>
      <trkpt lat="45.94626" lon="7.099">
        <ele>1860</ele>
        <time>2022-08-27T18:02:42Z</time>
      </trkpt>
      <trkpt lat="45.94629" lon="7.09901">
        <ele>1860</ele>
        <time>2022-08-27T18:02:45Z</time>
      </trkpt>
      <trkpt lat="45.94632" lon="7.09902">
        <ele>1860</ele>
        <time>2022-08-27T18:02:46Z</time>
      </trkpt>
      <trkpt lat="45.94634" lon="7.09905">
        <ele>1860</ele>
        <time>2022-08-27T18:02:48Z</time>
      </trkpt>
      <trkpt lat="45.94637" lon="7.09908">
        <ele>1860</ele>
        <time>2022-08-27T18:02:50Z</time>
      </trkpt>
      <trkpt lat="45.9464" lon="7.0991">
        <ele>1860</ele>
        <time>2022-08-27T18:02:52Z</time>
      </trkpt>
      <trkpt lat="45.94642" lon="7.09911">
        <ele>1860</ele>
        <time>2022-08-27T18:02:55Z</time>
      </trkpt>
      <trkpt lat="45.94644" lon="7.09911">
        <ele>1860</ele>
        <time>2022-08-27T18:02:56Z</time>
      </trkpt>
      <trkpt lat="45.94646" lon="7.09911">
        <ele>1860</ele>
        <time>2022-08-27T18:02:58Z</time>
      </trkpt>
      <trkpt lat="45.94648" lon="7.0991">
        <ele>1860</ele>
        <time>2022-08-27T18:03:00Z</time>
      </trkpt>
      <trkpt lat="45.94651" lon="7.09911">
        <ele>1860</ele>
        <time>2022-08-27T18:03:02Z</time>
      </trkpt>
      <trkpt lat="45.94654" lon="7.09913">
        <ele>1860</ele>
        <time>2022-08-27T18:03:04Z</time>
      </trkpt>
      <trkpt lat="45.94657" lon="7.09915">
        <ele>1860</ele>
        <time>2022-08-27T18:03:06Z</time>
      </trkpt>
      <trkpt lat="45.94659" lon="7.09916">
        <ele>1860</ele>
        <time>2022-08-27T18:03:08Z</time>
      </trkpt>
      <trkpt lat="45.94663" lon="7.09918">
        <ele>1860</ele>
        <time>2022-08-27T18:03:10Z</time>
      </trkpt>
      <trkpt lat="45.94665" lon="7.09919">
        <ele>1860</ele>
        <time>2022-08-27T18:03:11Z</time>
      </trkpt>
      <trkpt lat="45.94667" lon="7.09921">
        <ele>1859</ele>
        <time>2022-08-27T18:03:14Z</time>
      </trkpt>
      <trkpt lat="45.94669" lon="7.09923">
        <ele>1858</ele>
        <time>2022-08-27T18:03:15Z</time>
      </trkpt>
      <trkpt lat="45.94672" lon="7.09925">
        <ele>1858</ele>
        <time>2022-08-27T18:03:17Z</time>
      </trkpt>
      <trkpt lat="45.94676" lon="7.09927">
        <ele>1857</ele>
        <time>2022-08-27T18:03:19Z</time>
      </trkpt>
      <trkpt lat="45.94679" lon="7.09928">
        <ele>1857</ele>
        <time>2022-08-27T18:03:21Z</time>
      </trkpt>
      <trkpt lat="45.94682" lon="7.09931">
        <ele>1856</ele>
        <time>2022-08-27T18:03:24Z</time>
      </trkpt>
      <trkpt lat="45.94684" lon="7.09934">
        <ele>1856</ele>
        <time>2022-08-27T18:03:25Z</time>
      </trkpt>
      <trkpt lat="45.94685" lon="7.09937">
        <ele>1856</ele>
        <time>2022-08-27T18:03:27Z</time>
      </trkpt>
      <trkpt lat="45.94687" lon="7.09938">
        <ele>1855</ele>
        <time>2022-08-27T18:03:29Z</time>
      </trkpt>
      <trkpt lat="45.9469" lon="7.09939">
        <ele>1855</ele>
        <time>2022-08-27T18:03:31Z</time>
      </trkpt>
      <trkpt lat="45.94692" lon="7.09939">
        <ele>1855</ele>
        <time>2022-08-27T18:03:32Z</time>
      </trkpt>
      <trkpt lat="45.94694" lon="7.0994">
        <ele>1854</ele>
        <time>2022-08-27T18:03:33Z</time>
      </trkpt>
      <trkpt lat="45.94696" lon="7.09941">
        <ele>1854</ele>
        <time>2022-08-27T18:03:35Z</time>
      </trkpt>
      <trkpt lat="45.94699" lon="7.09941">
        <ele>1854</ele>
        <time>2022-08-27T18:03:37Z</time>
      </trkpt>
      <trkpt lat="45.94701" lon="7.09942">
        <ele>1854</ele>
        <time>2022-08-27T18:03:40Z</time>
      </trkpt>
      <trkpt lat="45.94704" lon="7.09942">
        <ele>1854</ele>
        <time>2022-08-27T18:03:41Z</time>
      </trkpt>
      <trkpt lat="45.94707" lon="7.09942">
        <ele>1854</ele>
        <time>2022-08-27T18:03:43Z</time>
      </trkpt>
      <trkpt lat="45.9471" lon="7.09943">
        <ele>1854</ele>
        <time>2022-08-27T18:03:45Z</time>
      </trkpt>
      <trkpt lat="45.94713" lon="7.09944">
        <ele>1854</ele>
        <time>2022-08-27T18:03:47Z</time>
      </trkpt>
      <trkpt lat="45.94716" lon="7.09944">
        <ele>1853</ele>
        <time>2022-08-27T18:03:49Z</time>
      </trkpt>
      <trkpt lat="45.9472" lon="7.09947">
        <ele>1853</ele>
        <time>2022-08-27T18:03:52Z</time>
      </trkpt>
      <trkpt lat="45.94722" lon="7.09948">
        <ele>1853</ele>
        <time>2022-08-27T18:03:53Z</time>
      </trkpt>
      <trkpt lat="45.94725" lon="7.0995">
        <ele>1852</ele>
        <time>2022-08-27T18:03:55Z</time>
      </trkpt>
      <trkpt lat="45.94728" lon="7.09951">
        <ele>1852</ele>
        <time>2022-08-27T18:03:57Z</time>
      </trkpt>
      <trkpt lat="45.94731" lon="7.09952">
        <ele>1851</ele>
        <time>2022-08-27T18:04:00Z</time>
      </trkpt>
      <trkpt lat="45.94734" lon="7.09953">
        <ele>1851</ele>
        <time>2022-08-27T18:04:01Z</time>
      </trkpt>
      <trkpt lat="45.94737" lon="7.09953">
        <ele>1851</ele>
        <time>2022-08-27T18:04:03Z</time>
      </trkpt>
      <trkpt lat="45.94739" lon="7.09954">
        <ele>1851</ele>
        <time>2022-08-27T18:04:05Z</time>
      </trkpt>
      <trkpt lat="45.94742" lon="7.09954">
        <ele>1850</ele>
        <time>2022-08-27T18:04:07Z</time>
      </trkpt>
      <trkpt lat="45.94745" lon="7.09955">
        <ele>1850</ele>
        <time>2022-08-27T18:04:09Z</time>
      </trkpt>
      <trkpt lat="45.94748" lon="7.09956">
        <ele>1849</ele>
        <time>2022-08-27T18:04:11Z</time>
      </trkpt>
      <trkpt lat="45.94751" lon="7.09957">
        <ele>1849</ele>
        <time>2022-08-27T18:04:14Z</time>
      </trkpt>
      <trkpt lat="45.94754" lon="7.09957">
        <ele>1849</ele>
        <time>2022-08-27T18:04:15Z</time>
      </trkpt>
      <trkpt lat="45.94757" lon="7.09958">
        <ele>1849</ele>
        <time>2022-08-27T18:04:17Z</time>
      </trkpt>
      <trkpt lat="45.94759" lon="7.09959">
        <ele>1849</ele>
        <time>2022-08-27T18:04:19Z</time>
      </trkpt>
      <trkpt lat="45.94761" lon="7.0996">
        <ele>1849</ele>
        <time>2022-08-27T18:04:21Z</time>
      </trkpt>
      <trkpt lat="45.94763" lon="7.09961">
        <ele>1849</ele>
        <time>2022-08-27T18:04:23Z</time>
      </trkpt>
      <trkpt lat="45.94766" lon="7.0996">
        <ele>1849</ele>
        <time>2022-08-27T18:04:25Z</time>
      </trkpt>
      <trkpt lat="45.94769" lon="7.0996">
        <ele>1849</ele>
        <time>2022-08-27T18:04:27Z</time>
      </trkpt>
      <trkpt lat="45.94772" lon="7.09961">
        <ele>1847</ele>
        <time>2022-08-27T18:04:30Z</time>
      </trkpt>
      <trkpt lat="45.94774" lon="7.09962">
        <ele>1847</ele>
        <time>2022-08-27T18:04:31Z</time>
      </trkpt>
      <trkpt lat="45.94776" lon="7.09963">
        <ele>1846</ele>
        <time>2022-08-27T18:04:33Z</time>
      </trkpt>
      <trkpt lat="45.94779" lon="7.09963">
        <ele>1846</ele>
        <time>2022-08-27T18:04:35Z</time>
      </trkpt>
      <trkpt lat="45.94782" lon="7.09964">
        <ele>1846</ele>
        <time>2022-08-27T18:04:37Z</time>
      </trkpt>
      <trkpt lat="45.94784" lon="7.09965">
        <ele>1845</ele>
        <time>2022-08-27T18:04:39Z</time>
      </trkpt>
      <trkpt lat="45.94787" lon="7.09966">
        <ele>1845</ele>
        <time>2022-08-27T18:04:41Z</time>
      </trkpt>
      <trkpt lat="45.9479" lon="7.09967">
        <ele>1845</ele>
        <time>2022-08-27T18:04:43Z</time>
      </trkpt>
      <trkpt lat="45.94794" lon="7.09967">
        <ele>1844</ele>
        <time>2022-08-27T18:04:45Z</time>
      </trkpt>
      <trkpt lat="45.94797" lon="7.09967">
        <ele>1844</ele>
        <time>2022-08-27T18:04:47Z</time>
      </trkpt>
      <trkpt lat="45.948" lon="7.09967">
        <ele>1843</ele>
        <time>2022-08-27T18:04:49Z</time>
      </trkpt>
      <trkpt lat="45.94804" lon="7.09969">
        <ele>1842</ele>
        <time>2022-08-27T18:04:52Z</time>
      </trkpt>
      <trkpt lat="45.94805" lon="7.0997">
        <ele>1842</ele>
        <time>2022-08-27T18:04:53Z</time>
      </trkpt>
      <trkpt lat="45.94808" lon="7.0997">
        <ele>1842</ele>
        <time>2022-08-27T18:04:56Z</time>
      </trkpt>
      <trkpt lat="45.94812" lon="7.0997">
        <ele>1842</ele>
        <time>2022-08-27T18:04:57Z</time>
      </trkpt>
      <trkpt lat="45.94814" lon="7.09971">
        <ele>1841</ele>
        <time>2022-08-27T18:04:59Z</time>
      </trkpt>
      <trkpt lat="45.94815" lon="7.09971">
        <ele>1841</ele>
        <time>2022-08-27T18:05:00Z</time>
      </trkpt>
      <trkpt lat="45.94817" lon="7.09971">
        <ele>1840</ele>
        <time>2022-08-27T18:05:01Z</time>
      </trkpt>
      <trkpt lat="45.94818" lon="7.09971">
        <ele>1840</ele>
        <time>2022-08-27T18:05:02Z</time>
      </trkpt>
      <trkpt lat="45.94819" lon="7.09971">
        <ele>1840</ele>
        <time>2022-08-27T18:05:03Z</time>
      </trkpt>
      <trkpt lat="45.94822" lon="7.09971">
        <ele>1839</ele>
        <time>2022-08-27T18:05:06Z</time>
      </trkpt>
      <trkpt lat="45.94824" lon="7.09972">
        <ele>1839</ele>
        <time>2022-08-27T18:05:08Z</time>
      </trkpt>
      <trkpt lat="45.94828" lon="7.09973">
        <ele>1839</ele>
        <time>2022-08-27T18:05:09Z</time>
      </trkpt>
      <trkpt lat="45.94831" lon="7.09975">
        <ele>1838</ele>
        <time>2022-08-27T18:05:11Z</time>
      </trkpt>
      <trkpt lat="45.94834" lon="7.09977">
        <ele>1838</ele>
        <time>2022-08-27T18:05:12Z</time>
      </trkpt>
      <trkpt lat="45.94837" lon="7.09981">
        <ele>1838</ele>
        <time>2022-08-27T18:05:14Z</time>
      </trkpt>
      <trkpt lat="45.94847" lon="7.09986">
        <ele>1836</ele>
        <time>2022-08-27T18:05:20Z</time>
      </trkpt>
      <trkpt lat="45.94848" lon="7.09987">
        <ele>1836</ele>
        <time>2022-08-27T18:05:21Z</time>
      </trkpt>
      <trkpt lat="45.94849" lon="7.09988">
        <ele>1836</ele>
        <time>2022-08-27T18:05:22Z</time>
      </trkpt>
      <trkpt lat="45.9485" lon="7.09989">
        <ele>1836</ele>
        <time>2022-08-27T18:05:23Z</time>
      </trkpt>
      <trkpt lat="45.94851" lon="7.0999">
        <ele>1836</ele>
        <time>2022-08-27T18:05:24Z</time>
      </trkpt>
      <trkpt lat="45.94852" lon="7.09991">
        <ele>1836</ele>
        <time>2022-08-27T18:05:25Z</time>
      </trkpt>
      <trkpt lat="45.94854" lon="7.09993">
        <ele>1837</ele>
        <time>2022-08-27T18:05:27Z</time>
      </trkpt>
      <trkpt lat="45.94856" lon="7.09995">
        <ele>1837</ele>
        <time>2022-08-27T18:05:30Z</time>
      </trkpt>
      <trkpt lat="45.94858" lon="7.09997">
        <ele>1837</ele>
        <time>2022-08-27T18:05:33Z</time>
      </trkpt>
      <trkpt lat="45.94861" lon="7.09999">
        <ele>1837</ele>
        <time>2022-08-27T18:05:34Z</time>
      </trkpt>
      <trkpt lat="45.94863" lon="7.10001">
        <ele>1837</ele>
        <time>2022-08-27T18:05:36Z</time>
      </trkpt>
      <trkpt lat="45.94865" lon="7.10004">
        <ele>1837</ele>
        <time>2022-08-27T18:05:39Z</time>
      </trkpt>
      <trkpt lat="45.94867" lon="7.10007">
        <ele>1837</ele>
        <time>2022-08-27T18:05:40Z</time>
      </trkpt>
      <trkpt lat="45.94868" lon="7.10012">
        <ele>1836</ele>
        <time>2022-08-27T18:05:43Z</time>
      </trkpt>
      <trkpt lat="45.94869" lon="7.10016">
        <ele>1836</ele>
        <time>2022-08-27T18:05:46Z</time>
      </trkpt>
      <trkpt lat="45.94871" lon="7.10018">
        <ele>1836</ele>
        <time>2022-08-27T18:05:47Z</time>
      </trkpt>
      <trkpt lat="45.94874" lon="7.10018">
        <ele>1836</ele>
        <time>2022-08-27T18:05:49Z</time>
      </trkpt>
      <trkpt lat="45.94877" lon="7.1002">
        <ele>1836</ele>
        <time>2022-08-27T18:05:51Z</time>
      </trkpt>
      <trkpt lat="45.94878" lon="7.10021">
        <ele>1836</ele>
        <time>2022-08-27T18:05:53Z</time>
      </trkpt>
      <trkpt lat="45.94878" lon="7.10024">
        <ele>1836</ele>
        <time>2022-08-27T18:05:55Z</time>
      </trkpt>
      <trkpt lat="45.94879" lon="7.10028">
        <ele>1836</ele>
        <time>2022-08-27T18:05:58Z</time>
      </trkpt>
      <trkpt lat="45.94881" lon="7.1003">
        <ele>1837</ele>
        <time>2022-08-27T18:06:00Z</time>
      </trkpt>
      <trkpt lat="45.94883" lon="7.10032">
        <ele>1837</ele>
        <time>2022-08-27T18:06:03Z</time>
      </trkpt>
      <trkpt lat="45.94885" lon="7.10033">
        <ele>1837</ele>
        <time>2022-08-27T18:06:04Z</time>
      </trkpt>
      <trkpt lat="45.94887" lon="7.10034">
        <ele>1837</ele>
        <time>2022-08-27T18:06:06Z</time>
      </trkpt>
      <trkpt lat="45.9489" lon="7.10034">
        <ele>1837</ele>
        <time>2022-08-27T18:06:08Z</time>
      </trkpt>
      <trkpt lat="45.94892" lon="7.10035">
        <ele>1837</ele>
        <time>2022-08-27T18:06:11Z</time>
      </trkpt>
      <trkpt lat="45.94895" lon="7.10037">
        <ele>1837</ele>
        <time>2022-08-27T18:06:12Z</time>
      </trkpt>
      <trkpt lat="45.94901" lon="7.10042">
        <ele>1838</ele>
        <time>2022-08-27T18:06:17Z</time>
      </trkpt>
      <trkpt lat="45.94905" lon="7.10044">
        <ele>1838</ele>
        <time>2022-08-27T18:06:22Z</time>
      </trkpt>
      <trkpt lat="45.94907" lon="7.10045">
        <ele>1838</ele>
        <time>2022-08-27T18:06:23Z</time>
      </trkpt>
      <trkpt lat="45.94908" lon="7.10047">
        <ele>1837</ele>
        <time>2022-08-27T18:06:24Z</time>
      </trkpt>
      <trkpt lat="45.9491" lon="7.10048">
        <ele>1837</ele>
        <time>2022-08-27T18:06:25Z</time>
      </trkpt>
      <trkpt lat="45.94911" lon="7.10049">
        <ele>1837</ele>
        <time>2022-08-27T18:06:27Z</time>
      </trkpt>
      <trkpt lat="45.94912" lon="7.10051">
        <ele>1837</ele>
        <time>2022-08-27T18:06:29Z</time>
      </trkpt>
      <trkpt lat="45.94914" lon="7.10052">
        <ele>1837</ele>
        <time>2022-08-27T18:06:30Z</time>
      </trkpt>
      <trkpt lat="45.94915" lon="7.10053">
        <ele>1837</ele>
        <time>2022-08-27T18:06:31Z</time>
      </trkpt>
      <trkpt lat="45.94922" lon="7.10059">
        <ele>1838</ele>
        <time>2022-08-27T18:06:39Z</time>
      </trkpt>
      <trkpt lat="45.94923" lon="7.10061">
        <ele>1838</ele>
        <time>2022-08-27T18:06:40Z</time>
      </trkpt>
      <trkpt lat="45.94924" lon="7.10062">
        <ele>1838</ele>
        <time>2022-08-27T18:06:43Z</time>
      </trkpt>
      <trkpt lat="45.94925" lon="7.10063">
        <ele>1838</ele>
        <time>2022-08-27T18:06:45Z</time>
      </trkpt>
      <trkpt lat="45.94926" lon="7.10065">
        <ele>1838</ele>
        <time>2022-08-27T18:06:46Z</time>
      </trkpt>
      <trkpt lat="45.94927" lon="7.10066">
        <ele>1838</ele>
        <time>2022-08-27T18:06:47Z</time>
      </trkpt>
      <trkpt lat="45.94928" lon="7.10068">
        <ele>1839</ele>
        <time>2022-08-27T18:06:48Z</time>
      </trkpt>
      <trkpt lat="45.94929" lon="7.10069">
        <ele>1839</ele>
        <time>2022-08-27T18:06:49Z</time>
      </trkpt>
      <trkpt lat="45.9493" lon="7.1007">
        <ele>1839</ele>
        <time>2022-08-27T18:06:50Z</time>
      </trkpt>
      <trkpt lat="45.94939" lon="7.10077">
        <ele>1840</ele>
        <time>2022-08-27T18:06:58Z</time>
      </trkpt>
      <trkpt lat="45.9494" lon="7.10079">
        <ele>1841</ele>
        <time>2022-08-27T18:07:00Z</time>
      </trkpt>
      <trkpt lat="45.94942" lon="7.10082">
        <ele>1841</ele>
        <time>2022-08-27T18:07:02Z</time>
      </trkpt>
      <trkpt lat="45.94943" lon="7.10084">
        <ele>1842</ele>
        <time>2022-08-27T18:07:04Z</time>
      </trkpt>
      <trkpt lat="45.94945" lon="7.10086">
        <ele>1842</ele>
        <time>2022-08-27T18:07:05Z</time>
      </trkpt>
      <trkpt lat="45.94948" lon="7.1009">
        <ele>1842</ele>
        <time>2022-08-27T18:07:09Z</time>
      </trkpt>
      <trkpt lat="45.94949" lon="7.10091">
        <ele>1842</ele>
        <time>2022-08-27T18:07:10Z</time>
      </trkpt>
      <trkpt lat="45.94949" lon="7.10092">
        <ele>1842</ele>
        <time>2022-08-27T18:07:11Z</time>
      </trkpt>
      <trkpt lat="45.9495" lon="7.10093">
        <ele>1843</ele>
        <time>2022-08-27T18:07:12Z</time>
      </trkpt>
      <trkpt lat="45.94951" lon="7.10095">
        <ele>1843</ele>
        <time>2022-08-27T18:07:14Z</time>
      </trkpt>
      <trkpt lat="45.94951" lon="7.10096">
        <ele>1843</ele>
        <time>2022-08-27T18:07:15Z</time>
      </trkpt>
      <trkpt lat="45.94952" lon="7.10097">
        <ele>1843</ele>
        <time>2022-08-27T18:07:16Z</time>
      </trkpt>
      <trkpt lat="45.94952" lon="7.10098">
        <ele>1843</ele>
        <time>2022-08-27T18:07:17Z</time>
      </trkpt>
      <trkpt lat="45.94953" lon="7.10099">
        <ele>1843</ele>
        <time>2022-08-27T18:07:18Z</time>
      </trkpt>
      <trkpt lat="45.94954" lon="7.101">
        <ele>1843</ele>
        <time>2022-08-27T18:07:19Z</time>
      </trkpt>
      <trkpt lat="45.94954" lon="7.10102">
        <ele>1843</ele>
        <time>2022-08-27T18:07:20Z</time>
      </trkpt>
      <trkpt lat="45.94955" lon="7.10104">
        <ele>1844</ele>
        <time>2022-08-27T18:07:21Z</time>
      </trkpt>
      <trkpt lat="45.94956" lon="7.10106">
        <ele>1844</ele>
        <time>2022-08-27T18:07:22Z</time>
      </trkpt>
      <trkpt lat="45.94956" lon="7.10108">
        <ele>1844</ele>
        <time>2022-08-27T18:07:24Z</time>
      </trkpt>
      <trkpt lat="45.94957" lon="7.1011">
        <ele>1844</ele>
        <time>2022-08-27T18:07:25Z</time>
      </trkpt>
      <trkpt lat="45.94958" lon="7.10112">
        <ele>1844</ele>
        <time>2022-08-27T18:07:26Z</time>
      </trkpt>
      <trkpt lat="45.94959" lon="7.10113">
        <ele>1845</ele>
        <time>2022-08-27T18:07:27Z</time>
      </trkpt>
      <trkpt lat="45.9496" lon="7.10114">
        <ele>1846</ele>
        <time>2022-08-27T18:07:29Z</time>
      </trkpt>
      <trkpt lat="45.94961" lon="7.10116">
        <ele>1846</ele>
        <time>2022-08-27T18:07:31Z</time>
      </trkpt>
      <trkpt lat="45.94963" lon="7.10117">
        <ele>1846</ele>
        <time>2022-08-27T18:07:32Z</time>
      </trkpt>
      <trkpt lat="45.94964" lon="7.10118">
        <ele>1846</ele>
        <time>2022-08-27T18:07:33Z</time>
      </trkpt>
      <trkpt lat="45.94965" lon="7.10119">
        <ele>1846</ele>
        <time>2022-08-27T18:07:34Z</time>
      </trkpt>
      <trkpt lat="45.94966" lon="7.1012">
        <ele>1846</ele>
        <time>2022-08-27T18:07:35Z</time>
      </trkpt>
      <trkpt lat="45.94973" lon="7.10126">
        <ele>1846</ele>
        <time>2022-08-27T18:07:40Z</time>
      </trkpt>
      <trkpt lat="45.94975" lon="7.10128">
        <ele>1846</ele>
        <time>2022-08-27T18:07:42Z</time>
      </trkpt>
      <trkpt lat="45.94977" lon="7.10129">
        <ele>1846</ele>
        <time>2022-08-27T18:07:44Z</time>
      </trkpt>
      <trkpt lat="45.94979" lon="7.10132">
        <ele>1846</ele>
        <time>2022-08-27T18:07:45Z</time>
      </trkpt>
      <trkpt lat="45.94982" lon="7.10135">
        <ele>1845</ele>
        <time>2022-08-27T18:07:47Z</time>
      </trkpt>
      <trkpt lat="45.94983" lon="7.10138">
        <ele>1845</ele>
        <time>2022-08-27T18:07:50Z</time>
      </trkpt>
      <trkpt lat="45.94985" lon="7.10141">
        <ele>1844</ele>
        <time>2022-08-27T18:07:52Z</time>
      </trkpt>
      <trkpt lat="45.94987" lon="7.10144">
        <ele>1844</ele>
        <time>2022-08-27T18:07:53Z</time>
      </trkpt>
      <trkpt lat="45.94989" lon="7.10147">
        <ele>1844</ele>
        <time>2022-08-27T18:07:55Z</time>
      </trkpt>
      <trkpt lat="45.94992" lon="7.1015">
        <ele>1844</ele>
        <time>2022-08-27T18:07:57Z</time>
      </trkpt>
      <trkpt lat="45.94993" lon="7.10152">
        <ele>1843</ele>
        <time>2022-08-27T18:07:59Z</time>
      </trkpt>
      <trkpt lat="45.94994" lon="7.10153">
        <ele>1843</ele>
        <time>2022-08-27T18:08:00Z</time>
      </trkpt>
      <trkpt lat="45.94995" lon="7.10154">
        <ele>1843</ele>
        <time>2022-08-27T18:08:01Z</time>
      </trkpt>
      <trkpt lat="45.94996" lon="7.10154">
        <ele>1843</ele>
        <time>2022-08-27T18:08:02Z</time>
      </trkpt>
      <trkpt lat="45.94997" lon="7.10155">
        <ele>1842</ele>
        <time>2022-08-27T18:08:04Z</time>
      </trkpt>
      <trkpt lat="45.94998" lon="7.10156">
        <ele>1842</ele>
        <time>2022-08-27T18:08:05Z</time>
      </trkpt>
      <trkpt lat="45.94999" lon="7.10156">
        <ele>1842</ele>
        <time>2022-08-27T18:08:06Z</time>
      </trkpt>
      <trkpt lat="45.95" lon="7.10157">
        <ele>1842</ele>
        <time>2022-08-27T18:08:07Z</time>
      </trkpt>
      <trkpt lat="45.95001" lon="7.10158">
        <ele>1842</ele>
        <time>2022-08-27T18:08:09Z</time>
      </trkpt>
      <trkpt lat="45.95002" lon="7.10158">
        <ele>1842</ele>
        <time>2022-08-27T18:08:10Z</time>
      </trkpt>
      <trkpt lat="45.95003" lon="7.10159">
        <ele>1842</ele>
        <time>2022-08-27T18:08:11Z</time>
      </trkpt>
      <trkpt lat="45.95004" lon="7.1016">
        <ele>1841</ele>
        <time>2022-08-27T18:08:12Z</time>
      </trkpt>
      <trkpt lat="45.95005" lon="7.10161">
        <ele>1841</ele>
        <time>2022-08-27T18:08:13Z</time>
      </trkpt>
      <trkpt lat="45.95006" lon="7.10162">
        <ele>1841</ele>
        <time>2022-08-27T18:08:14Z</time>
      </trkpt>
      <trkpt lat="45.95007" lon="7.10163">
        <ele>1841</ele>
        <time>2022-08-27T18:08:16Z</time>
      </trkpt>
      <trkpt lat="45.95008" lon="7.10164">
        <ele>1840</ele>
        <time>2022-08-27T18:08:18Z</time>
      </trkpt>
      <trkpt lat="45.95009" lon="7.10165">
        <ele>1840</ele>
        <time>2022-08-27T18:08:19Z</time>
      </trkpt>
      <trkpt lat="45.9501" lon="7.10166">
        <ele>1840</ele>
        <time>2022-08-27T18:08:20Z</time>
      </trkpt>
      <trkpt lat="45.95011" lon="7.10167">
        <ele>1840</ele>
        <time>2022-08-27T18:08:21Z</time>
      </trkpt>
      <trkpt lat="45.95013" lon="7.10169">
        <ele>1841</ele>
        <time>2022-08-27T18:08:23Z</time>
      </trkpt>
      <trkpt lat="45.95015" lon="7.1017">
        <ele>1841</ele>
        <time>2022-08-27T18:08:24Z</time>
      </trkpt>
      <trkpt lat="45.95017" lon="7.10172">
        <ele>1841</ele>
        <time>2022-08-27T18:08:26Z</time>
      </trkpt>
      <trkpt lat="45.95019" lon="7.10174">
        <ele>1841</ele>
        <time>2022-08-27T18:08:27Z</time>
      </trkpt>
      <trkpt lat="45.9502" lon="7.10173">
        <ele>1841</ele>
        <time>2022-08-27T18:08:28Z</time>
      </trkpt>
      <trkpt lat="45.9502" lon="7.10173">
        <ele>1842</ele>
        <time>2022-08-27T18:08:29Z</time>
      </trkpt>
      <trkpt lat="45.95021" lon="7.10173">
        <ele>1842</ele>
        <time>2022-08-27T18:08:31Z</time>
      </trkpt>
      <trkpt lat="45.95022" lon="7.10172">
        <ele>1843</ele>
        <time>2022-08-27T18:08:32Z</time>
      </trkpt>
      <trkpt lat="45.95022" lon="7.10172">
        <ele>1843</ele>
        <time>2022-08-27T18:08:33Z</time>
      </trkpt>
      <trkpt lat="45.95029" lon="7.10168">
        <ele>1843</ele>
        <time>2022-08-27T18:08:35Z</time>
      </trkpt>
      <trkpt lat="45.95034" lon="7.10167">
        <ele>1844</ele>
        <time>2022-08-27T18:08:39Z</time>
      </trkpt>
      <trkpt lat="45.95036" lon="7.10167">
        <ele>1844</ele>
        <time>2022-08-27T18:08:42Z</time>
      </trkpt>
      <trkpt lat="45.95038" lon="7.10168">
        <ele>1844</ele>
        <time>2022-08-27T18:08:44Z</time>
      </trkpt>
      <trkpt lat="45.9504" lon="7.1017">
        <ele>1844</ele>
        <time>2022-08-27T18:08:45Z</time>
      </trkpt>
      <trkpt lat="45.95041" lon="7.10172">
        <ele>1844</ele>
        <time>2022-08-27T18:08:47Z</time>
      </trkpt>
      <trkpt lat="45.95043" lon="7.10174">
        <ele>1843</ele>
        <time>2022-08-27T18:08:49Z</time>
      </trkpt>
      <trkpt lat="45.95044" lon="7.10178">
        <ele>1842</ele>
        <time>2022-08-27T18:08:51Z</time>
      </trkpt>
      <trkpt lat="45.95045" lon="7.10182">
        <ele>1841</ele>
        <time>2022-08-27T18:08:53Z</time>
      </trkpt>
      <trkpt lat="45.95046" lon="7.10185">
        <ele>1841</ele>
        <time>2022-08-27T18:08:55Z</time>
      </trkpt>
      <trkpt lat="45.95047" lon="7.10189">
        <ele>1839</ele>
        <time>2022-08-27T18:08:57Z</time>
      </trkpt>
      <trkpt lat="45.95048" lon="7.1019">
        <ele>1839</ele>
        <time>2022-08-27T18:08:58Z</time>
      </trkpt>
      <trkpt lat="45.95048" lon="7.10191">
        <ele>1839</ele>
        <time>2022-08-27T18:08:59Z</time>
      </trkpt>
      <trkpt lat="45.95048" lon="7.10193">
        <ele>1839</ele>
        <time>2022-08-27T18:09:00Z</time>
      </trkpt>
      <trkpt lat="45.95049" lon="7.10194">
        <ele>1840</ele>
        <time>2022-08-27T18:09:01Z</time>
      </trkpt>
      <trkpt lat="45.95049" lon="7.10197">
        <ele>1840</ele>
        <time>2022-08-27T18:09:04Z</time>
      </trkpt>
      <trkpt lat="45.95052" lon="7.102">
        <ele>1840</ele>
        <time>2022-08-27T18:09:05Z</time>
      </trkpt>
      <trkpt lat="45.95054" lon="7.10203">
        <ele>1839</ele>
        <time>2022-08-27T18:09:07Z</time>
      </trkpt>
      <trkpt lat="45.95057" lon="7.10205">
        <ele>1838</ele>
        <time>2022-08-27T18:09:09Z</time>
      </trkpt>
      <trkpt lat="45.95059" lon="7.10206">
        <ele>1838</ele>
        <time>2022-08-27T18:09:11Z</time>
      </trkpt>
      <trkpt lat="45.95061" lon="7.10207">
        <ele>1838</ele>
        <time>2022-08-27T18:09:13Z</time>
      </trkpt>
      <trkpt lat="45.95063" lon="7.10207">
        <ele>1838</ele>
        <time>2022-08-27T18:09:15Z</time>
      </trkpt>
      <trkpt lat="45.95066" lon="7.10206">
        <ele>1838</ele>
        <time>2022-08-27T18:09:17Z</time>
      </trkpt>
      <trkpt lat="45.95069" lon="7.10205">
        <ele>1837</ele>
        <time>2022-08-27T18:09:19Z</time>
      </trkpt>
      <trkpt lat="45.95071" lon="7.10204">
        <ele>1837</ele>
        <time>2022-08-27T18:09:22Z</time>
      </trkpt>
      <trkpt lat="45.95074" lon="7.10203">
        <ele>1837</ele>
        <time>2022-08-27T18:09:23Z</time>
      </trkpt>
      <trkpt lat="45.95076" lon="7.10201">
        <ele>1837</ele>
        <time>2022-08-27T18:09:25Z</time>
      </trkpt>
      <trkpt lat="45.95078" lon="7.10199">
        <ele>1837</ele>
        <time>2022-08-27T18:09:27Z</time>
      </trkpt>
      <trkpt lat="45.9508" lon="7.10196">
        <ele>1837</ele>
        <time>2022-08-27T18:09:29Z</time>
      </trkpt>
      <trkpt lat="45.95082" lon="7.10192">
        <ele>1837</ele>
        <time>2022-08-27T18:09:31Z</time>
      </trkpt>
      <trkpt lat="45.95084" lon="7.1019">
        <ele>1835</ele>
        <time>2022-08-27T18:09:34Z</time>
      </trkpt>
      <trkpt lat="45.95088" lon="7.10188">
        <ele>1835</ele>
        <time>2022-08-27T18:09:36Z</time>
      </trkpt>
      <trkpt lat="45.95091" lon="7.10189">
        <ele>1835</ele>
        <time>2022-08-27T18:09:37Z</time>
      </trkpt>
      <trkpt lat="45.95093" lon="7.10191">
        <ele>1835</ele>
        <time>2022-08-27T18:09:39Z</time>
      </trkpt>
      <trkpt lat="45.95096" lon="7.10192">
        <ele>1835</ele>
        <time>2022-08-27T18:09:41Z</time>
      </trkpt>
      <trkpt lat="45.95098" lon="7.10192">
        <ele>1835</ele>
        <time>2022-08-27T18:09:43Z</time>
      </trkpt>
      <trkpt lat="45.95101" lon="7.10192">
        <ele>1834</ele>
        <time>2022-08-27T18:09:46Z</time>
      </trkpt>
      <trkpt lat="45.95103" lon="7.10192">
        <ele>1833</ele>
        <time>2022-08-27T18:09:49Z</time>
      </trkpt>
      <trkpt lat="45.95105" lon="7.10191">
        <ele>1830</ele>
        <time>2022-08-27T18:09:53Z</time>
      </trkpt>
      <trkpt lat="45.95108" lon="7.1019">
        <ele>1830</ele>
        <time>2022-08-27T18:09:54Z</time>
      </trkpt>
      <trkpt lat="45.9511" lon="7.10189">
        <ele>1830</ele>
        <time>2022-08-27T18:09:56Z</time>
      </trkpt>
      <trkpt lat="45.95113" lon="7.10188">
        <ele>1829</ele>
        <time>2022-08-27T18:09:58Z</time>
      </trkpt>
      <trkpt lat="45.95116" lon="7.10188">
        <ele>1829</ele>
        <time>2022-08-27T18:10:00Z</time>
      </trkpt>
      <trkpt lat="45.95118" lon="7.10189">
        <ele>1828</ele>
        <time>2022-08-27T18:10:03Z</time>
      </trkpt>
      <trkpt lat="45.95121" lon="7.1019">
        <ele>1826</ele>
        <time>2022-08-27T18:10:04Z</time>
      </trkpt>
      <trkpt lat="45.95124" lon="7.10191">
        <ele>1826</ele>
        <time>2022-08-27T18:10:06Z</time>
      </trkpt>
      <trkpt lat="45.95126" lon="7.10192">
        <ele>1826</ele>
        <time>2022-08-27T18:10:08Z</time>
      </trkpt>
      <trkpt lat="45.95129" lon="7.10194">
        <ele>1825</ele>
        <time>2022-08-27T18:10:10Z</time>
      </trkpt>
      <trkpt lat="45.95132" lon="7.10195">
        <ele>1824</ele>
        <time>2022-08-27T18:10:12Z</time>
      </trkpt>
      <trkpt lat="45.95134" lon="7.10197">
        <ele>1823</ele>
        <time>2022-08-27T18:10:14Z</time>
      </trkpt>
      <trkpt lat="45.95136" lon="7.10199">
        <ele>1821</ele>
        <time>2022-08-27T18:10:17Z</time>
      </trkpt>
      <trkpt lat="45.95139" lon="7.10202">
        <ele>1821</ele>
        <time>2022-08-27T18:10:19Z</time>
      </trkpt>
      <trkpt lat="45.95142" lon="7.10204">
        <ele>1820</ele>
        <time>2022-08-27T18:10:20Z</time>
      </trkpt>
      <trkpt lat="45.95145" lon="7.10206">
        <ele>1819</ele>
        <time>2022-08-27T18:10:22Z</time>
      </trkpt>
      <trkpt lat="45.95146" lon="7.10207">
        <ele>1819</ele>
        <time>2022-08-27T18:10:23Z</time>
      </trkpt>
      <trkpt lat="45.95148" lon="7.10208">
        <ele>1818</ele>
        <time>2022-08-27T18:10:24Z</time>
      </trkpt>
      <trkpt lat="45.9515" lon="7.10209">
        <ele>1818</ele>
        <time>2022-08-27T18:10:25Z</time>
      </trkpt>
      <trkpt lat="45.95153" lon="7.10212">
        <ele>1816</ele>
        <time>2022-08-27T18:10:27Z</time>
      </trkpt>
      <trkpt lat="45.95156" lon="7.10215">
        <ele>1816</ele>
        <time>2022-08-27T18:10:28Z</time>
      </trkpt>
      <trkpt lat="45.95157" lon="7.10216">
        <ele>1816</ele>
        <time>2022-08-27T18:10:29Z</time>
      </trkpt>
      <trkpt lat="45.95158" lon="7.10217">
        <ele>1816</ele>
        <time>2022-08-27T18:10:31Z</time>
      </trkpt>
      <trkpt lat="45.95161" lon="7.10222">
        <ele>1816</ele>
        <time>2022-08-27T18:10:32Z</time>
      </trkpt>
      <trkpt lat="45.95162" lon="7.10223">
        <ele>1816</ele>
        <time>2022-08-27T18:10:33Z</time>
      </trkpt>
      <trkpt lat="45.95164" lon="7.10224">
        <ele>1816</ele>
        <time>2022-08-27T18:10:34Z</time>
      </trkpt>
      <trkpt lat="45.95165" lon="7.10225">
        <ele>1815</ele>
        <time>2022-08-27T18:10:35Z</time>
      </trkpt>
      <trkpt lat="45.95167" lon="7.10226">
        <ele>1815</ele>
        <time>2022-08-27T18:10:36Z</time>
      </trkpt>
      <trkpt lat="45.9517" lon="7.10228">
        <ele>1815</ele>
        <time>2022-08-27T18:10:38Z</time>
      </trkpt>
      <trkpt lat="45.95172" lon="7.1023">
        <ele>1814</ele>
        <time>2022-08-27T18:10:41Z</time>
      </trkpt>
      <trkpt lat="45.95175" lon="7.10233">
        <ele>1814</ele>
        <time>2022-08-27T18:10:43Z</time>
      </trkpt>
      <trkpt lat="45.95177" lon="7.10235">
        <ele>1814</ele>
        <time>2022-08-27T18:10:44Z</time>
      </trkpt>
      <trkpt lat="45.9518" lon="7.10237">
        <ele>1814</ele>
        <time>2022-08-27T18:10:46Z</time>
      </trkpt>
      <trkpt lat="45.95183" lon="7.1024">
        <ele>1814</ele>
        <time>2022-08-27T18:10:48Z</time>
      </trkpt>
      <trkpt lat="45.95186" lon="7.10241">
        <ele>1812</ele>
        <time>2022-08-27T18:10:50Z</time>
      </trkpt>
      <trkpt lat="45.95188" lon="7.10243">
        <ele>1812</ele>
        <time>2022-08-27T18:10:52Z</time>
      </trkpt>
      <trkpt lat="45.95191" lon="7.10245">
        <ele>1812</ele>
        <time>2022-08-27T18:10:54Z</time>
      </trkpt>
      <trkpt lat="45.95194" lon="7.10247">
        <ele>1812</ele>
        <time>2022-08-27T18:10:56Z</time>
      </trkpt>
      <trkpt lat="45.95196" lon="7.10248">
        <ele>1812</ele>
        <time>2022-08-27T18:10:58Z</time>
      </trkpt>
      <trkpt lat="45.95199" lon="7.10249">
        <ele>1812</ele>
        <time>2022-08-27T18:11:00Z</time>
      </trkpt>
      <trkpt lat="45.95201" lon="7.1025">
        <ele>1812</ele>
        <time>2022-08-27T18:11:02Z</time>
      </trkpt>
      <trkpt lat="45.95203" lon="7.10252">
        <ele>1812</ele>
        <time>2022-08-27T18:11:05Z</time>
      </trkpt>
      <trkpt lat="45.95205" lon="7.10254">
        <ele>1812</ele>
        <time>2022-08-27T18:11:06Z</time>
      </trkpt>
      <trkpt lat="45.95207" lon="7.10256">
        <ele>1811</ele>
        <time>2022-08-27T18:11:09Z</time>
      </trkpt>
      <trkpt lat="45.95209" lon="7.10258">
        <ele>1811</ele>
        <time>2022-08-27T18:11:10Z</time>
      </trkpt>
      <trkpt lat="45.95211" lon="7.1026">
        <ele>1811</ele>
        <time>2022-08-27T18:11:13Z</time>
      </trkpt>
      <trkpt lat="45.95215" lon="7.10262">
        <ele>1811</ele>
        <time>2022-08-27T18:11:14Z</time>
      </trkpt>
      <trkpt lat="45.95218" lon="7.10263">
        <ele>1810</ele>
        <time>2022-08-27T18:11:16Z</time>
      </trkpt>
      <trkpt lat="45.95221" lon="7.10264">
        <ele>1809</ele>
        <time>2022-08-27T18:11:18Z</time>
      </trkpt>
      <trkpt lat="45.95223" lon="7.10263">
        <ele>1808</ele>
        <time>2022-08-27T18:11:20Z</time>
      </trkpt>
      <trkpt lat="45.95226" lon="7.10263">
        <ele>1808</ele>
        <time>2022-08-27T18:11:23Z</time>
      </trkpt>
      <trkpt lat="45.95228" lon="7.10262">
        <ele>1808</ele>
        <time>2022-08-27T18:11:24Z</time>
      </trkpt>
      <trkpt lat="45.9523" lon="7.10262">
        <ele>1808</ele>
        <time>2022-08-27T18:11:26Z</time>
      </trkpt>
      <trkpt lat="45.95233" lon="7.10262">
        <ele>1808</ele>
        <time>2022-08-27T18:11:28Z</time>
      </trkpt>
      <trkpt lat="45.95236" lon="7.10263">
        <ele>1808</ele>
        <time>2022-08-27T18:11:30Z</time>
      </trkpt>
      <trkpt lat="45.95239" lon="7.10262">
        <ele>1807</ele>
        <time>2022-08-27T18:11:32Z</time>
      </trkpt>
      <trkpt lat="45.95241" lon="7.10262">
        <ele>1807</ele>
        <time>2022-08-27T18:11:35Z</time>
      </trkpt>
      <trkpt lat="45.95244" lon="7.10262">
        <ele>1805</ele>
        <time>2022-08-27T18:11:37Z</time>
      </trkpt>
      <trkpt lat="45.95247" lon="7.10261">
        <ele>1805</ele>
        <time>2022-08-27T18:11:38Z</time>
      </trkpt>
      <trkpt lat="45.95249" lon="7.1026">
        <ele>1804</ele>
        <time>2022-08-27T18:11:40Z</time>
      </trkpt>
      <trkpt lat="45.95252" lon="7.10258">
        <ele>1804</ele>
        <time>2022-08-27T18:11:42Z</time>
      </trkpt>
      <trkpt lat="45.95254" lon="7.10258">
        <ele>1804</ele>
        <time>2022-08-27T18:11:44Z</time>
      </trkpt>
      <trkpt lat="45.95257" lon="7.10256">
        <ele>1802</ele>
        <time>2022-08-27T18:11:46Z</time>
      </trkpt>
      <trkpt lat="45.9526" lon="7.10254">
        <ele>1802</ele>
        <time>2022-08-27T18:11:48Z</time>
      </trkpt>
      <trkpt lat="45.95262" lon="7.10251">
        <ele>1802</ele>
        <time>2022-08-27T18:11:50Z</time>
      </trkpt>
      <trkpt lat="45.95264" lon="7.10248">
        <ele>1801</ele>
        <time>2022-08-27T18:11:52Z</time>
      </trkpt>
      <trkpt lat="45.95267" lon="7.10246">
        <ele>1801</ele>
        <time>2022-08-27T18:11:54Z</time>
      </trkpt>
      <trkpt lat="45.9527" lon="7.10245">
        <ele>1801</ele>
        <time>2022-08-27T18:11:56Z</time>
      </trkpt>
      <trkpt lat="45.95272" lon="7.10243">
        <ele>1800</ele>
        <time>2022-08-27T18:11:59Z</time>
      </trkpt>
      <trkpt lat="45.95276" lon="7.10242">
        <ele>1800</ele>
        <time>2022-08-27T18:12:01Z</time>
      </trkpt>
      <trkpt lat="45.95278" lon="7.10241">
        <ele>1800</ele>
        <time>2022-08-27T18:12:02Z</time>
      </trkpt>
      <trkpt lat="45.9528" lon="7.10241">
        <ele>1800</ele>
        <time>2022-08-27T18:12:03Z</time>
      </trkpt>
      <trkpt lat="45.95282" lon="7.10241">
        <ele>1799</ele>
        <time>2022-08-27T18:12:04Z</time>
      </trkpt>
      <trkpt lat="45.95286" lon="7.10241">
        <ele>1798</ele>
        <time>2022-08-27T18:12:06Z</time>
      </trkpt>
      <trkpt lat="45.95288" lon="7.10241">
        <ele>1798</ele>
        <time>2022-08-27T18:12:07Z</time>
      </trkpt>
      <trkpt lat="45.9529" lon="7.10241">
        <ele>1798</ele>
        <time>2022-08-27T18:12:08Z</time>
      </trkpt>
      <trkpt lat="45.95292" lon="7.10241">
        <ele>1797</ele>
        <time>2022-08-27T18:12:09Z</time>
      </trkpt>
      <trkpt lat="45.95294" lon="7.10241">
        <ele>1797</ele>
        <time>2022-08-27T18:12:11Z</time>
      </trkpt>
      <trkpt lat="45.95297" lon="7.10242">
        <ele>1796</ele>
        <time>2022-08-27T18:12:12Z</time>
      </trkpt>
      <trkpt lat="45.95301" lon="7.10242">
        <ele>1796</ele>
        <time>2022-08-27T18:12:14Z</time>
      </trkpt>
      <trkpt lat="45.95304" lon="7.10242">
        <ele>1796</ele>
        <time>2022-08-27T18:12:16Z</time>
      </trkpt>
      <trkpt lat="45.95308" lon="7.10243">
        <ele>1796</ele>
        <time>2022-08-27T18:12:19Z</time>
      </trkpt>
      <trkpt lat="45.95311" lon="7.10243">
        <ele>1796</ele>
        <time>2022-08-27T18:12:20Z</time>
      </trkpt>
      <trkpt lat="45.95314" lon="7.10243">
        <ele>1794</ele>
        <time>2022-08-27T18:12:23Z</time>
      </trkpt>
      <trkpt lat="45.95317" lon="7.10244">
        <ele>1794</ele>
        <time>2022-08-27T18:12:24Z</time>
      </trkpt>
      <trkpt lat="45.95319" lon="7.10245">
        <ele>1794</ele>
        <time>2022-08-27T18:12:26Z</time>
      </trkpt>
      <trkpt lat="45.95322" lon="7.10247">
        <ele>1794</ele>
        <time>2022-08-27T18:12:28Z</time>
      </trkpt>
      <trkpt lat="45.95325" lon="7.10249">
        <ele>1794</ele>
        <time>2022-08-27T18:12:30Z</time>
      </trkpt>
      <trkpt lat="45.95327" lon="7.1025">
        <ele>1793</ele>
        <time>2022-08-27T18:12:32Z</time>
      </trkpt>
      <trkpt lat="45.95329" lon="7.10252">
        <ele>1793</ele>
        <time>2022-08-27T18:12:34Z</time>
      </trkpt>
      <trkpt lat="45.95332" lon="7.10253">
        <ele>1793</ele>
        <time>2022-08-27T18:12:36Z</time>
      </trkpt>
      <trkpt lat="45.95334" lon="7.10254">
        <ele>1792</ele>
        <time>2022-08-27T18:12:38Z</time>
      </trkpt>
      <trkpt lat="45.95336" lon="7.10255">
        <ele>1792</ele>
        <time>2022-08-27T18:12:41Z</time>
      </trkpt>
      <trkpt lat="45.95339" lon="7.10256">
        <ele>1792</ele>
        <time>2022-08-27T18:12:43Z</time>
      </trkpt>
      <trkpt lat="45.95342" lon="7.10256">
        <ele>1791</ele>
        <time>2022-08-27T18:12:45Z</time>
      </trkpt>
      <trkpt lat="45.95344" lon="7.10257">
        <ele>1791</ele>
        <time>2022-08-27T18:12:46Z</time>
      </trkpt>
      <trkpt lat="45.95345" lon="7.10258">
        <ele>1791</ele>
        <time>2022-08-27T18:12:47Z</time>
      </trkpt>
      <trkpt lat="45.95347" lon="7.10259">
        <ele>1791</ele>
        <time>2022-08-27T18:12:49Z</time>
      </trkpt>
      <trkpt lat="45.95349" lon="7.1026">
        <ele>1791</ele>
        <time>2022-08-27T18:12:50Z</time>
      </trkpt>
      <trkpt lat="45.95351" lon="7.10261">
        <ele>1791</ele>
        <time>2022-08-27T18:12:51Z</time>
      </trkpt>
      <trkpt lat="45.95353" lon="7.10263">
        <ele>1791</ele>
        <time>2022-08-27T18:12:52Z</time>
      </trkpt>
      <trkpt lat="45.95354" lon="7.10265">
        <ele>1790</ele>
        <time>2022-08-27T18:12:54Z</time>
      </trkpt>
      <trkpt lat="45.95356" lon="7.10266">
        <ele>1790</ele>
        <time>2022-08-27T18:12:55Z</time>
      </trkpt>
      <trkpt lat="45.95358" lon="7.10268">
        <ele>1790</ele>
        <time>2022-08-27T18:12:56Z</time>
      </trkpt>
      <trkpt lat="45.95361" lon="7.1027">
        <ele>1789</ele>
        <time>2022-08-27T18:12:57Z</time>
      </trkpt>
      <trkpt lat="45.95363" lon="7.10272">
        <ele>1789</ele>
        <time>2022-08-27T18:12:58Z</time>
      </trkpt>
      <trkpt lat="45.95365" lon="7.10274">
        <ele>1789</ele>
        <time>2022-08-27T18:12:59Z</time>
      </trkpt>
      <trkpt lat="45.95367" lon="7.10275">
        <ele>1788</ele>
        <time>2022-08-27T18:13:01Z</time>
      </trkpt>
      <trkpt lat="45.95371" lon="7.10277">
        <ele>1788</ele>
        <time>2022-08-27T18:13:02Z</time>
      </trkpt>
      <trkpt lat="45.95375" lon="7.10278">
        <ele>1788</ele>
        <time>2022-08-27T18:13:04Z</time>
      </trkpt>
      <trkpt lat="45.95377" lon="7.10279">
        <ele>1788</ele>
        <time>2022-08-27T18:13:05Z</time>
      </trkpt>
      <trkpt lat="45.9538" lon="7.1028">
        <ele>1788</ele>
        <time>2022-08-27T18:13:07Z</time>
      </trkpt>
      <trkpt lat="45.95383" lon="7.1028">
        <ele>1788</ele>
        <time>2022-08-27T18:13:09Z</time>
      </trkpt>
      <trkpt lat="45.95386" lon="7.10281">
        <ele>1787</ele>
        <time>2022-08-27T18:13:11Z</time>
      </trkpt>
      <trkpt lat="45.9539" lon="7.10282">
        <ele>1787</ele>
        <time>2022-08-27T18:13:13Z</time>
      </trkpt>
      <trkpt lat="45.95393" lon="7.10283">
        <ele>1786</ele>
        <time>2022-08-27T18:13:16Z</time>
      </trkpt>
      <trkpt lat="45.95398" lon="7.10283">
        <ele>1786</ele>
        <time>2022-08-27T18:13:18Z</time>
      </trkpt>
      <trkpt lat="45.95401" lon="7.10285">
        <ele>1786</ele>
        <time>2022-08-27T18:13:20Z</time>
      </trkpt>
      <trkpt lat="45.95405" lon="7.10285">
        <ele>1786</ele>
        <time>2022-08-27T18:13:22Z</time>
      </trkpt>
      <trkpt lat="45.95408" lon="7.10286">
        <ele>1786</ele>
        <time>2022-08-27T18:13:24Z</time>
      </trkpt>
      <trkpt lat="45.95411" lon="7.10287">
        <ele>1785</ele>
        <time>2022-08-27T18:13:26Z</time>
      </trkpt>
      <trkpt lat="45.95414" lon="7.10288">
        <ele>1785</ele>
        <time>2022-08-27T18:13:28Z</time>
      </trkpt>
      <trkpt lat="45.95416" lon="7.10289">
        <ele>1785</ele>
        <time>2022-08-27T18:13:31Z</time>
      </trkpt>
      <trkpt lat="45.95418" lon="7.1029">
        <ele>1785</ele>
        <time>2022-08-27T18:13:33Z</time>
      </trkpt>
      <trkpt lat="45.95421" lon="7.10291">
        <ele>1785</ele>
        <time>2022-08-27T18:13:34Z</time>
      </trkpt>
      <trkpt lat="45.95424" lon="7.10293">
        <ele>1785</ele>
        <time>2022-08-27T18:13:36Z</time>
      </trkpt>
      <trkpt lat="45.95426" lon="7.10294">
        <ele>1785</ele>
        <time>2022-08-27T18:13:38Z</time>
      </trkpt>
      <trkpt lat="45.95428" lon="7.10295">
        <ele>1785</ele>
        <time>2022-08-27T18:13:41Z</time>
      </trkpt>
      <trkpt lat="45.95431" lon="7.10296">
        <ele>1785</ele>
        <time>2022-08-27T18:13:42Z</time>
      </trkpt>
      <trkpt lat="45.95433" lon="7.10298">
        <ele>1785</ele>
        <time>2022-08-27T18:13:44Z</time>
      </trkpt>
      <trkpt lat="45.95434" lon="7.10299">
        <ele>1785</ele>
        <time>2022-08-27T18:13:45Z</time>
      </trkpt>
      <trkpt lat="45.95435" lon="7.103">
        <ele>1784</ele>
        <time>2022-08-27T18:13:46Z</time>
      </trkpt>
      <trkpt lat="45.95437" lon="7.10301">
        <ele>1784</ele>
        <time>2022-08-27T18:13:47Z</time>
      </trkpt>
      <trkpt lat="45.95438" lon="7.10302">
        <ele>1784</ele>
        <time>2022-08-27T18:13:48Z</time>
      </trkpt>
      <trkpt lat="45.9544" lon="7.10303">
        <ele>1784</ele>
        <time>2022-08-27T18:13:49Z</time>
      </trkpt>
      <trkpt lat="45.95441" lon="7.10305">
        <ele>1784</ele>
        <time>2022-08-27T18:13:50Z</time>
      </trkpt>
      <trkpt lat="45.95443" lon="7.10306">
        <ele>1784</ele>
        <time>2022-08-27T18:13:51Z</time>
      </trkpt>
      <trkpt lat="45.95445" lon="7.10307">
        <ele>1784</ele>
        <time>2022-08-27T18:13:53Z</time>
      </trkpt>
      <trkpt lat="45.95448" lon="7.1031">
        <ele>1784</ele>
        <time>2022-08-27T18:13:54Z</time>
      </trkpt>
      <trkpt lat="45.95449" lon="7.10311">
        <ele>1784</ele>
        <time>2022-08-27T18:13:55Z</time>
      </trkpt>
      <trkpt lat="45.95451" lon="7.10313">
        <ele>1784</ele>
        <time>2022-08-27T18:13:56Z</time>
      </trkpt>
      <trkpt lat="45.95454" lon="7.10315">
        <ele>1784</ele>
        <time>2022-08-27T18:13:58Z</time>
      </trkpt>
      <trkpt lat="45.95456" lon="7.10317">
        <ele>1784</ele>
        <time>2022-08-27T18:13:59Z</time>
      </trkpt>
      <trkpt lat="45.95457" lon="7.10319">
        <ele>1784</ele>
        <time>2022-08-27T18:14:00Z</time>
      </trkpt>
      <trkpt lat="45.95459" lon="7.1032">
        <ele>1783</ele>
        <time>2022-08-27T18:14:01Z</time>
      </trkpt>
      <trkpt lat="45.95461" lon="7.10323">
        <ele>1783</ele>
        <time>2022-08-27T18:14:04Z</time>
      </trkpt>
      <trkpt lat="45.95464" lon="7.10325">
        <ele>1783</ele>
        <time>2022-08-27T18:14:05Z</time>
      </trkpt>
      <trkpt lat="45.95475" lon="7.10334">
        <ele>1783</ele>
        <time>2022-08-27T18:14:12Z</time>
      </trkpt>
      <trkpt lat="45.95478" lon="7.10337">
        <ele>1783</ele>
        <time>2022-08-27T18:14:15Z</time>
      </trkpt>
      <trkpt lat="45.9548" lon="7.10339">
        <ele>1783</ele>
        <time>2022-08-27T18:14:17Z</time>
      </trkpt>
      <trkpt lat="45.95483" lon="7.10342">
        <ele>1782</ele>
        <time>2022-08-27T18:14:19Z</time>
      </trkpt>
      <trkpt lat="45.95485" lon="7.10345">
        <ele>1782</ele>
        <time>2022-08-27T18:14:22Z</time>
      </trkpt>
      <trkpt lat="45.95488" lon="7.10347">
        <ele>1782</ele>
        <time>2022-08-27T18:14:24Z</time>
      </trkpt>
      <trkpt lat="45.9549" lon="7.10349">
        <ele>1782</ele>
        <time>2022-08-27T18:14:25Z</time>
      </trkpt>
      <trkpt lat="45.95493" lon="7.10351">
        <ele>1782</ele>
        <time>2022-08-27T18:14:27Z</time>
      </trkpt>
      <trkpt lat="45.95496" lon="7.10353">
        <ele>1782</ele>
        <time>2022-08-27T18:14:29Z</time>
      </trkpt>
      <trkpt lat="45.95497" lon="7.10354">
        <ele>1782</ele>
        <time>2022-08-27T18:14:30Z</time>
      </trkpt>
      <trkpt lat="45.95498" lon="7.10354">
        <ele>1783</ele>
        <time>2022-08-27T18:14:31Z</time>
      </trkpt>
      <trkpt lat="45.955" lon="7.10355">
        <ele>1783</ele>
        <time>2022-08-27T18:14:32Z</time>
      </trkpt>
      <trkpt lat="45.95501" lon="7.10356">
        <ele>1783</ele>
        <time>2022-08-27T18:14:33Z</time>
      </trkpt>
      <trkpt lat="45.95504" lon="7.10358">
        <ele>1783</ele>
        <time>2022-08-27T18:14:36Z</time>
      </trkpt>
      <trkpt lat="45.95506" lon="7.1036">
        <ele>1783</ele>
        <time>2022-08-27T18:14:38Z</time>
      </trkpt>
      <trkpt lat="45.95509" lon="7.10361">
        <ele>1783</ele>
        <time>2022-08-27T18:14:39Z</time>
      </trkpt>
      <trkpt lat="45.95511" lon="7.10362">
        <ele>1783</ele>
        <time>2022-08-27T18:14:41Z</time>
      </trkpt>
      <trkpt lat="45.95513" lon="7.10364">
        <ele>1783</ele>
        <time>2022-08-27T18:14:43Z</time>
      </trkpt>
      <trkpt lat="45.95515" lon="7.10366">
        <ele>1783</ele>
        <time>2022-08-27T18:14:45Z</time>
      </trkpt>
      <trkpt lat="45.95517" lon="7.10367">
        <ele>1783</ele>
        <time>2022-08-27T18:14:47Z</time>
      </trkpt>
      <trkpt lat="45.9552" lon="7.1037">
        <ele>1783</ele>
        <time>2022-08-27T18:14:49Z</time>
      </trkpt>
      <trkpt lat="45.95523" lon="7.10372">
        <ele>1782</ele>
        <time>2022-08-27T18:14:51Z</time>
      </trkpt>
      <trkpt lat="45.95527" lon="7.10378">
        <ele>1781</ele>
        <time>2022-08-27T18:14:55Z</time>
      </trkpt>
      <trkpt lat="45.95529" lon="7.1038">
        <ele>1781</ele>
        <time>2022-08-27T18:14:57Z</time>
      </trkpt>
      <trkpt lat="45.9553" lon="7.10382">
        <ele>1781</ele>
        <time>2022-08-27T18:14:58Z</time>
      </trkpt>
      <trkpt lat="45.95532" lon="7.10384">
        <ele>1781</ele>
        <time>2022-08-27T18:14:59Z</time>
      </trkpt>
      <trkpt lat="45.95533" lon="7.10385">
        <ele>1781</ele>
        <time>2022-08-27T18:15:00Z</time>
      </trkpt>
      <trkpt lat="45.95535" lon="7.10387">
        <ele>1781</ele>
        <time>2022-08-27T18:15:01Z</time>
      </trkpt>
      <trkpt lat="45.95536" lon="7.10389">
        <ele>1781</ele>
        <time>2022-08-27T18:15:02Z</time>
      </trkpt>
      <trkpt lat="45.95538" lon="7.10391">
        <ele>1781</ele>
        <time>2022-08-27T18:15:03Z</time>
      </trkpt>
      <trkpt lat="45.9554" lon="7.10394">
        <ele>1781</ele>
        <time>2022-08-27T18:15:04Z</time>
      </trkpt>
      <trkpt lat="45.95542" lon="7.10396">
        <ele>1781</ele>
        <time>2022-08-27T18:15:05Z</time>
      </trkpt>
      <trkpt lat="45.95544" lon="7.10399">
        <ele>1781</ele>
        <time>2022-08-27T18:15:06Z</time>
      </trkpt>
      <trkpt lat="45.95545" lon="7.104">
        <ele>1781</ele>
        <time>2022-08-27T18:15:07Z</time>
      </trkpt>
      <trkpt lat="45.95546" lon="7.10401">
        <ele>1781</ele>
        <time>2022-08-27T18:15:08Z</time>
      </trkpt>
      <trkpt lat="45.95547" lon="7.10402">
        <ele>1780</ele>
        <time>2022-08-27T18:15:10Z</time>
      </trkpt>
      <trkpt lat="45.95548" lon="7.10403">
        <ele>1780</ele>
        <time>2022-08-27T18:15:11Z</time>
      </trkpt>
      <trkpt lat="45.95554" lon="7.10409">
        <ele>1780</ele>
        <time>2022-08-27T18:15:12Z</time>
      </trkpt>
      <trkpt lat="45.95556" lon="7.10412">
        <ele>1780</ele>
        <time>2022-08-27T18:15:14Z</time>
      </trkpt>
      <trkpt lat="45.95558" lon="7.10414">
        <ele>1780</ele>
        <time>2022-08-27T18:15:15Z</time>
      </trkpt>
      <trkpt lat="45.9556" lon="7.10417">
        <ele>1780</ele>
        <time>2022-08-27T18:15:16Z</time>
      </trkpt>
      <trkpt lat="45.95561" lon="7.10418">
        <ele>1779</ele>
        <time>2022-08-27T18:15:18Z</time>
      </trkpt>
      <trkpt lat="45.95562" lon="7.1042">
        <ele>1779</ele>
        <time>2022-08-27T18:15:19Z</time>
      </trkpt>
      <trkpt lat="45.95563" lon="7.10421">
        <ele>1779</ele>
        <time>2022-08-27T18:15:20Z</time>
      </trkpt>
      <trkpt lat="45.95564" lon="7.10423">
        <ele>1778</ele>
        <time>2022-08-27T18:15:21Z</time>
      </trkpt>
      <trkpt lat="45.95565" lon="7.10424">
        <ele>1778</ele>
        <time>2022-08-27T18:15:22Z</time>
      </trkpt>
      <trkpt lat="45.95567" lon="7.10425">
        <ele>1777</ele>
        <time>2022-08-27T18:15:23Z</time>
      </trkpt>
      <trkpt lat="45.95568" lon="7.10427">
        <ele>1777</ele>
        <time>2022-08-27T18:15:24Z</time>
      </trkpt>
      <trkpt lat="45.9557" lon="7.10429">
        <ele>1777</ele>
        <time>2022-08-27T18:15:25Z</time>
      </trkpt>
      <trkpt lat="45.95571" lon="7.10431">
        <ele>1777</ele>
        <time>2022-08-27T18:15:26Z</time>
      </trkpt>
      <trkpt lat="45.95572" lon="7.10433">
        <ele>1777</ele>
        <time>2022-08-27T18:15:27Z</time>
      </trkpt>
      <trkpt lat="45.95574" lon="7.10435">
        <ele>1777</ele>
        <time>2022-08-27T18:15:28Z</time>
      </trkpt>
      <trkpt lat="45.95582" lon="7.10443">
        <ele>1777</ele>
        <time>2022-08-27T18:15:31Z</time>
      </trkpt>
      <trkpt lat="45.95583" lon="7.10445">
        <ele>1777</ele>
        <time>2022-08-27T18:15:33Z</time>
      </trkpt>
      <trkpt lat="45.95585" lon="7.10447">
        <ele>1777</ele>
        <time>2022-08-27T18:15:34Z</time>
      </trkpt>
      <trkpt lat="45.95587" lon="7.10449">
        <ele>1777</ele>
        <time>2022-08-27T18:15:35Z</time>
      </trkpt>
      <trkpt lat="45.95588" lon="7.10451">
        <ele>1777</ele>
        <time>2022-08-27T18:15:36Z</time>
      </trkpt>
      <trkpt lat="45.9559" lon="7.10453">
        <ele>1777</ele>
        <time>2022-08-27T18:15:37Z</time>
      </trkpt>
      <trkpt lat="45.95592" lon="7.10455">
        <ele>1777</ele>
        <time>2022-08-27T18:15:38Z</time>
      </trkpt>
      <trkpt lat="45.95593" lon="7.10457">
        <ele>1777</ele>
        <time>2022-08-27T18:15:39Z</time>
      </trkpt>
      <trkpt lat="45.95594" lon="7.10458">
        <ele>1777</ele>
        <time>2022-08-27T18:15:40Z</time>
      </trkpt>
      <trkpt lat="45.95596" lon="7.1046">
        <ele>1777</ele>
        <time>2022-08-27T18:15:41Z</time>
      </trkpt>
      <trkpt lat="45.95597" lon="7.10462">
        <ele>1777</ele>
        <time>2022-08-27T18:15:42Z</time>
      </trkpt>
      <trkpt lat="45.95599" lon="7.10467">
        <ele>1776</ele>
        <time>2022-08-27T18:15:44Z</time>
      </trkpt>
      <trkpt lat="45.95601" lon="7.10471">
        <ele>1775</ele>
        <time>2022-08-27T18:15:45Z</time>
      </trkpt>
      <trkpt lat="45.95603" lon="7.10476">
        <ele>1775</ele>
        <time>2022-08-27T18:15:47Z</time>
      </trkpt>
      <trkpt lat="45.95604" lon="7.10479">
        <ele>1774</ele>
        <time>2022-08-27T18:15:48Z</time>
      </trkpt>
      <trkpt lat="45.95605" lon="7.10481">
        <ele>1774</ele>
        <time>2022-08-27T18:15:49Z</time>
      </trkpt>
      <trkpt lat="45.95606" lon="7.10483">
        <ele>1774</ele>
        <time>2022-08-27T18:15:50Z</time>
      </trkpt>
      <trkpt lat="45.95608" lon="7.10485">
        <ele>1774</ele>
        <time>2022-08-27T18:15:51Z</time>
      </trkpt>
      <trkpt lat="45.95611" lon="7.10488">
        <ele>1774</ele>
        <time>2022-08-27T18:15:54Z</time>
      </trkpt>
      <trkpt lat="45.95613" lon="7.10492">
        <ele>1774</ele>
        <time>2022-08-27T18:15:55Z</time>
      </trkpt>
      <trkpt lat="45.95615" lon="7.10493">
        <ele>1773</ele>
        <time>2022-08-27T18:15:57Z</time>
      </trkpt>
      <trkpt lat="45.95616" lon="7.10495">
        <ele>1773</ele>
        <time>2022-08-27T18:15:58Z</time>
      </trkpt>
      <trkpt lat="45.95618" lon="7.10497">
        <ele>1773</ele>
        <time>2022-08-27T18:15:59Z</time>
      </trkpt>
      <trkpt lat="45.95619" lon="7.10499">
        <ele>1773</ele>
        <time>2022-08-27T18:16:00Z</time>
      </trkpt>
      <trkpt lat="45.95621" lon="7.10501">
        <ele>1772</ele>
        <time>2022-08-27T18:16:01Z</time>
      </trkpt>
      <trkpt lat="45.95623" lon="7.10504">
        <ele>1772</ele>
        <time>2022-08-27T18:16:03Z</time>
      </trkpt>
      <trkpt lat="45.95625" lon="7.10507">
        <ele>1772</ele>
        <time>2022-08-27T18:16:04Z</time>
      </trkpt>
      <trkpt lat="45.95627" lon="7.10508">
        <ele>1772</ele>
        <time>2022-08-27T18:16:06Z</time>
      </trkpt>
      <trkpt lat="45.95628" lon="7.10508">
        <ele>1772</ele>
        <time>2022-08-27T18:16:07Z</time>
      </trkpt>
      <trkpt lat="45.95629" lon="7.10509">
        <ele>1772</ele>
        <time>2022-08-27T18:16:08Z</time>
      </trkpt>
      <trkpt lat="45.95631" lon="7.1051">
        <ele>1772</ele>
        <time>2022-08-27T18:16:10Z</time>
      </trkpt>
      <trkpt lat="45.95632" lon="7.10511">
        <ele>1772</ele>
        <time>2022-08-27T18:16:11Z</time>
      </trkpt>
      <trkpt lat="45.95636" lon="7.10514">
        <ele>1772</ele>
        <time>2022-08-27T18:16:13Z</time>
      </trkpt>
      <trkpt lat="45.95638" lon="7.10514">
        <ele>1772</ele>
        <time>2022-08-27T18:16:15Z</time>
      </trkpt>
      <trkpt lat="45.95639" lon="7.10515">
        <ele>1772</ele>
        <time>2022-08-27T18:16:16Z</time>
      </trkpt>
      <trkpt lat="45.95641" lon="7.10515">
        <ele>1772</ele>
        <time>2022-08-27T18:16:17Z</time>
      </trkpt>
      <trkpt lat="45.95643" lon="7.10516">
        <ele>1772</ele>
        <time>2022-08-27T18:16:18Z</time>
      </trkpt>
      <trkpt lat="45.95644" lon="7.10517">
        <ele>1772</ele>
        <time>2022-08-27T18:16:20Z</time>
      </trkpt>
      <trkpt lat="45.95646" lon="7.10518">
        <ele>1772</ele>
        <time>2022-08-27T18:16:21Z</time>
      </trkpt>
      <trkpt lat="45.95647" lon="7.10519">
        <ele>1772</ele>
        <time>2022-08-27T18:16:22Z</time>
      </trkpt>
      <trkpt lat="45.95649" lon="7.10519">
        <ele>1771</ele>
        <time>2022-08-27T18:16:23Z</time>
      </trkpt>
      <trkpt lat="45.95651" lon="7.1052">
        <ele>1771</ele>
        <time>2022-08-27T18:16:25Z</time>
      </trkpt>
      <trkpt lat="45.95652" lon="7.10521">
        <ele>1771</ele>
        <time>2022-08-27T18:16:26Z</time>
      </trkpt>
      <trkpt lat="45.95659" lon="7.10523">
        <ele>1771</ele>
        <time>2022-08-27T18:16:30Z</time>
      </trkpt>
      <trkpt lat="45.95663" lon="7.10524">
        <ele>1771</ele>
        <time>2022-08-27T18:16:33Z</time>
      </trkpt>
      <trkpt lat="45.95665" lon="7.10523">
        <ele>1771</ele>
        <time>2022-08-27T18:16:35Z</time>
      </trkpt>
      <trkpt lat="45.95668" lon="7.10522">
        <ele>1771</ele>
        <time>2022-08-27T18:16:37Z</time>
      </trkpt>
      <trkpt lat="45.95678" lon="7.10522">
        <ele>1771</ele>
        <time>2022-08-27T18:16:44Z</time>
      </trkpt>
      <trkpt lat="45.95688" lon="7.1052">
        <ele>1771</ele>
        <time>2022-08-27T18:16:49Z</time>
      </trkpt>
      <trkpt lat="45.95692" lon="7.1052">
        <ele>1770</ele>
        <time>2022-08-27T18:16:51Z</time>
      </trkpt>
      <trkpt lat="45.95696" lon="7.10519">
        <ele>1769</ele>
        <time>2022-08-27T18:16:53Z</time>
      </trkpt>
      <trkpt lat="45.957" lon="7.10517">
        <ele>1769</ele>
        <time>2022-08-27T18:16:56Z</time>
      </trkpt>
      <trkpt lat="45.95701" lon="7.10517">
        <ele>1769</ele>
        <time>2022-08-27T18:16:57Z</time>
      </trkpt>
      <trkpt lat="45.95703" lon="7.10516">
        <ele>1768</ele>
        <time>2022-08-27T18:16:59Z</time>
      </trkpt>
      <trkpt lat="45.95705" lon="7.10515">
        <ele>1768</ele>
        <time>2022-08-27T18:17:02Z</time>
      </trkpt>
      <trkpt lat="45.95708" lon="7.10514">
        <ele>1768</ele>
        <time>2022-08-27T18:17:03Z</time>
      </trkpt>
      <trkpt lat="45.9571" lon="7.10513">
        <ele>1768</ele>
        <time>2022-08-27T18:17:04Z</time>
      </trkpt>
      <trkpt lat="45.95711" lon="7.10513">
        <ele>1768</ele>
        <time>2022-08-27T18:17:05Z</time>
      </trkpt>
      <trkpt lat="45.95713" lon="7.10512">
        <ele>1768</ele>
        <time>2022-08-27T18:17:07Z</time>
      </trkpt>
      <trkpt lat="45.95715" lon="7.10511">
        <ele>1768</ele>
        <time>2022-08-27T18:17:08Z</time>
      </trkpt>
      <trkpt lat="45.95717" lon="7.10511">
        <ele>1767</ele>
        <time>2022-08-27T18:17:09Z</time>
      </trkpt>
      <trkpt lat="45.95719" lon="7.10511">
        <ele>1767</ele>
        <time>2022-08-27T18:17:10Z</time>
      </trkpt>
      <trkpt lat="45.95722" lon="7.10511">
        <ele>1767</ele>
        <time>2022-08-27T18:17:12Z</time>
      </trkpt>
      <trkpt lat="45.95724" lon="7.10512">
        <ele>1767</ele>
        <time>2022-08-27T18:17:13Z</time>
      </trkpt>
      <trkpt lat="45.95727" lon="7.10512">
        <ele>1767</ele>
        <time>2022-08-27T18:17:14Z</time>
      </trkpt>
      <trkpt lat="45.95729" lon="7.10513">
        <ele>1767</ele>
        <time>2022-08-27T18:17:15Z</time>
      </trkpt>
      <trkpt lat="45.95731" lon="7.10514">
        <ele>1767</ele>
        <time>2022-08-27T18:17:17Z</time>
      </trkpt>
      <trkpt lat="45.95734" lon="7.10516">
        <ele>1767</ele>
        <time>2022-08-27T18:17:18Z</time>
      </trkpt>
      <trkpt lat="45.95736" lon="7.10517">
        <ele>1767</ele>
        <time>2022-08-27T18:17:19Z</time>
      </trkpt>
      <trkpt lat="45.95738" lon="7.10518">
        <ele>1767</ele>
        <time>2022-08-27T18:17:20Z</time>
      </trkpt>
      <trkpt lat="45.9574" lon="7.1052">
        <ele>1767</ele>
        <time>2022-08-27T18:17:22Z</time>
      </trkpt>
      <trkpt lat="45.95742" lon="7.10521">
        <ele>1767</ele>
        <time>2022-08-27T18:17:24Z</time>
      </trkpt>
      <trkpt lat="45.95745" lon="7.10523">
        <ele>1767</ele>
        <time>2022-08-27T18:17:25Z</time>
      </trkpt>
      <trkpt lat="45.95747" lon="7.10525">
        <ele>1767</ele>
        <time>2022-08-27T18:17:26Z</time>
      </trkpt>
      <trkpt lat="45.95749" lon="7.10526">
        <ele>1767</ele>
        <time>2022-08-27T18:17:27Z</time>
      </trkpt>
      <trkpt lat="45.95754" lon="7.10532">
        <ele>1766</ele>
        <time>2022-08-27T18:17:29Z</time>
      </trkpt>
      <trkpt lat="45.95762" lon="7.10541">
        <ele>1765</ele>
        <time>2022-08-27T18:17:34Z</time>
      </trkpt>
      <trkpt lat="45.9577" lon="7.1055">
        <ele>1764</ele>
        <time>2022-08-27T18:17:39Z</time>
      </trkpt>
      <trkpt lat="45.95779" lon="7.10558">
        <ele>1762</ele>
        <time>2022-08-27T18:17:46Z</time>
      </trkpt>
      <trkpt lat="45.95781" lon="7.10559">
        <ele>1762</ele>
        <time>2022-08-27T18:17:47Z</time>
      </trkpt>
      <trkpt lat="45.95783" lon="7.10561">
        <ele>1761</ele>
        <time>2022-08-27T18:17:48Z</time>
      </trkpt>
      <trkpt lat="45.95785" lon="7.10562">
        <ele>1761</ele>
        <time>2022-08-27T18:17:50Z</time>
      </trkpt>
      <trkpt lat="45.95787" lon="7.10564">
        <ele>1761</ele>
        <time>2022-08-27T18:17:51Z</time>
      </trkpt>
      <trkpt lat="45.95795" lon="7.10573">
        <ele>1760</ele>
        <time>2022-08-27T18:17:56Z</time>
      </trkpt>
      <trkpt lat="45.95803" lon="7.1058">
        <ele>1759</ele>
        <time>2022-08-27T18:18:01Z</time>
      </trkpt>
      <trkpt lat="45.95804" lon="7.1058">
        <ele>1759</ele>
        <time>2022-08-27T18:18:02Z</time>
      </trkpt>
      <trkpt lat="45.95805" lon="7.10581">
        <ele>1758</ele>
        <time>2022-08-27T18:18:03Z</time>
      </trkpt>
      <trkpt lat="45.95807" lon="7.10582">
        <ele>1758</ele>
        <time>2022-08-27T18:18:05Z</time>
      </trkpt>
      <trkpt lat="45.95808" lon="7.10582">
        <ele>1758</ele>
        <time>2022-08-27T18:18:06Z</time>
      </trkpt>
      <trkpt lat="45.95809" lon="7.10583">
        <ele>1758</ele>
        <time>2022-08-27T18:18:07Z</time>
      </trkpt>
      <trkpt lat="45.9581" lon="7.10584">
        <ele>1758</ele>
        <time>2022-08-27T18:18:08Z</time>
      </trkpt>
      <trkpt lat="45.95812" lon="7.10584">
        <ele>1758</ele>
        <time>2022-08-27T18:18:09Z</time>
      </trkpt>
      <trkpt lat="45.95813" lon="7.10585">
        <ele>1758</ele>
        <time>2022-08-27T18:18:10Z</time>
      </trkpt>
      <trkpt lat="45.95814" lon="7.10586">
        <ele>1758</ele>
        <time>2022-08-27T18:18:11Z</time>
      </trkpt>
      <trkpt lat="45.95815" lon="7.10587">
        <ele>1757</ele>
        <time>2022-08-27T18:18:12Z</time>
      </trkpt>
      <trkpt lat="45.95816" lon="7.10588">
        <ele>1757</ele>
        <time>2022-08-27T18:18:14Z</time>
      </trkpt>
      <trkpt lat="45.95818" lon="7.10589">
        <ele>1757</ele>
        <time>2022-08-27T18:18:15Z</time>
      </trkpt>
      <trkpt lat="45.95819" lon="7.1059">
        <ele>1757</ele>
        <time>2022-08-27T18:18:16Z</time>
      </trkpt>
      <trkpt lat="45.9582" lon="7.10591">
        <ele>1757</ele>
        <time>2022-08-27T18:18:17Z</time>
      </trkpt>
      <trkpt lat="45.95822" lon="7.10593">
        <ele>1756</ele>
        <time>2022-08-27T18:18:19Z</time>
      </trkpt>
      <trkpt lat="45.95824" lon="7.10594">
        <ele>1756</ele>
        <time>2022-08-27T18:18:20Z</time>
      </trkpt>
      <trkpt lat="45.95826" lon="7.10596">
        <ele>1756</ele>
        <time>2022-08-27T18:18:21Z</time>
      </trkpt>
      <trkpt lat="45.95828" lon="7.10598">
        <ele>1756</ele>
        <time>2022-08-27T18:18:22Z</time>
      </trkpt>
      <trkpt lat="45.95837" lon="7.10605">
        <ele>1756</ele>
        <time>2022-08-27T18:18:28Z</time>
      </trkpt>
      <trkpt lat="45.95841" lon="7.10607">
        <ele>1756</ele>
        <time>2022-08-27T18:18:30Z</time>
      </trkpt>
      <trkpt lat="45.95842" lon="7.10607">
        <ele>1756</ele>
        <time>2022-08-27T18:18:31Z</time>
      </trkpt>
      <trkpt lat="45.95843" lon="7.10608">
        <ele>1756</ele>
        <time>2022-08-27T18:18:32Z</time>
      </trkpt>
      <trkpt lat="45.95844" lon="7.10608">
        <ele>1756</ele>
        <time>2022-08-27T18:18:33Z</time>
      </trkpt>
      <trkpt lat="45.95845" lon="7.10608">
        <ele>1755</ele>
        <time>2022-08-27T18:18:34Z</time>
      </trkpt>
      <trkpt lat="45.95846" lon="7.10609">
        <ele>1755</ele>
        <time>2022-08-27T18:18:35Z</time>
      </trkpt>
      <trkpt lat="45.95853" lon="7.10611">
        <ele>1754</ele>
        <time>2022-08-27T18:18:36Z</time>
      </trkpt>
      <trkpt lat="45.95855" lon="7.10611">
        <ele>1754</ele>
        <time>2022-08-27T18:18:37Z</time>
      </trkpt>
      <trkpt lat="45.95858" lon="7.10611">
        <ele>1753</ele>
        <time>2022-08-27T18:18:38Z</time>
      </trkpt>
      <trkpt lat="45.95861" lon="7.10612">
        <ele>1753</ele>
        <time>2022-08-27T18:18:40Z</time>
      </trkpt>
      <trkpt lat="45.95863" lon="7.10613">
        <ele>1753</ele>
        <time>2022-08-27T18:18:42Z</time>
      </trkpt>
      <trkpt lat="45.95865" lon="7.10613">
        <ele>1753</ele>
        <time>2022-08-27T18:18:43Z</time>
      </trkpt>
      <trkpt lat="45.95867" lon="7.10613">
        <ele>1753</ele>
        <time>2022-08-27T18:18:44Z</time>
      </trkpt>
      <trkpt lat="45.95868" lon="7.10614">
        <ele>1752</ele>
        <time>2022-08-27T18:18:45Z</time>
      </trkpt>
      <trkpt lat="45.9587" lon="7.10615">
        <ele>1752</ele>
        <time>2022-08-27T18:18:47Z</time>
      </trkpt>
      <trkpt lat="45.95872" lon="7.10616">
        <ele>1751</ele>
        <time>2022-08-27T18:18:48Z</time>
      </trkpt>
      <trkpt lat="45.95874" lon="7.10617">
        <ele>1751</ele>
        <time>2022-08-27T18:18:49Z</time>
      </trkpt>
      <trkpt lat="45.95876" lon="7.10618">
        <ele>1751</ele>
        <time>2022-08-27T18:18:50Z</time>
      </trkpt>
      <trkpt lat="45.95878" lon="7.10619">
        <ele>1751</ele>
        <time>2022-08-27T18:18:51Z</time>
      </trkpt>
      <trkpt lat="45.9588" lon="7.1062">
        <ele>1750</ele>
        <time>2022-08-27T18:18:52Z</time>
      </trkpt>
      <trkpt lat="45.95882" lon="7.10622">
        <ele>1750</ele>
        <time>2022-08-27T18:18:53Z</time>
      </trkpt>
      <trkpt lat="45.95883" lon="7.10623">
        <ele>1750</ele>
        <time>2022-08-27T18:18:54Z</time>
      </trkpt>
      <trkpt lat="45.95885" lon="7.10624">
        <ele>1750</ele>
        <time>2022-08-27T18:18:56Z</time>
      </trkpt>
      <trkpt lat="45.95887" lon="7.10626">
        <ele>1750</ele>
        <time>2022-08-27T18:18:57Z</time>
      </trkpt>
      <trkpt lat="45.95888" lon="7.10627">
        <ele>1750</ele>
        <time>2022-08-27T18:18:58Z</time>
      </trkpt>
      <trkpt lat="45.9589" lon="7.10628">
        <ele>1750</ele>
        <time>2022-08-27T18:18:59Z</time>
      </trkpt>
      <trkpt lat="45.95892" lon="7.10629">
        <ele>1750</ele>
        <time>2022-08-27T18:19:01Z</time>
      </trkpt>
      <trkpt lat="45.95893" lon="7.1063">
        <ele>1749</ele>
        <time>2022-08-27T18:19:02Z</time>
      </trkpt>
      <trkpt lat="45.95895" lon="7.10631">
        <ele>1749</ele>
        <time>2022-08-27T18:19:03Z</time>
      </trkpt>
      <trkpt lat="45.95896" lon="7.10633">
        <ele>1749</ele>
        <time>2022-08-27T18:19:04Z</time>
      </trkpt>
      <trkpt lat="45.95897" lon="7.10636">
        <ele>1749</ele>
        <time>2022-08-27T18:19:05Z</time>
      </trkpt>
      <trkpt lat="45.95898" lon="7.10638">
        <ele>1749</ele>
        <time>2022-08-27T18:19:06Z</time>
      </trkpt>
      <trkpt lat="45.95899" lon="7.10642">
        <ele>1748</ele>
        <time>2022-08-27T18:19:08Z</time>
      </trkpt>
      <trkpt lat="45.959" lon="7.10644">
        <ele>1748</ele>
        <time>2022-08-27T18:19:09Z</time>
      </trkpt>
      <trkpt lat="45.95901" lon="7.10646">
        <ele>1748</ele>
        <time>2022-08-27T18:19:10Z</time>
      </trkpt>
      <trkpt lat="45.95901" lon="7.10649">
        <ele>1747</ele>
        <time>2022-08-27T18:19:11Z</time>
      </trkpt>
      <trkpt lat="45.95901" lon="7.10651">
        <ele>1747</ele>
        <time>2022-08-27T18:19:12Z</time>
      </trkpt>
      <trkpt lat="45.95902" lon="7.10656">
        <ele>1745</ele>
        <time>2022-08-27T18:19:14Z</time>
      </trkpt>
      <trkpt lat="45.95903" lon="7.10662">
        <ele>1745</ele>
        <time>2022-08-27T18:19:16Z</time>
      </trkpt>
      <trkpt lat="45.95904" lon="7.10665">
        <ele>1744</ele>
        <time>2022-08-27T18:19:17Z</time>
      </trkpt>
      <trkpt lat="45.95905" lon="7.10669">
        <ele>1744</ele>
        <time>2022-08-27T18:19:18Z</time>
      </trkpt>
      <trkpt lat="45.95905" lon="7.1067">
        <ele>1744</ele>
        <time>2022-08-27T18:19:19Z</time>
      </trkpt>
      <trkpt lat="45.95905" lon="7.10671">
        <ele>1744</ele>
        <time>2022-08-27T18:19:20Z</time>
      </trkpt>
      <trkpt lat="45.95907" lon="7.10676">
        <ele>1744</ele>
        <time>2022-08-27T18:19:21Z</time>
      </trkpt>
      <trkpt lat="45.95908" lon="7.10678">
        <ele>1743</ele>
        <time>2022-08-27T18:19:23Z</time>
      </trkpt>
      <trkpt lat="45.95909" lon="7.10684">
        <ele>1743</ele>
        <time>2022-08-27T18:19:24Z</time>
      </trkpt>
      <trkpt lat="45.9591" lon="7.10685">
        <ele>1743</ele>
        <time>2022-08-27T18:19:25Z</time>
      </trkpt>
      <trkpt lat="45.95911" lon="7.10688">
        <ele>1743</ele>
        <time>2022-08-27T18:19:26Z</time>
      </trkpt>
      <trkpt lat="45.95912" lon="7.10691">
        <ele>1742</ele>
        <time>2022-08-27T18:19:27Z</time>
      </trkpt>
      <trkpt lat="45.95913" lon="7.10694">
        <ele>1741</ele>
        <time>2022-08-27T18:19:28Z</time>
      </trkpt>
      <trkpt lat="45.95914" lon="7.10698">
        <ele>1741</ele>
        <time>2022-08-27T18:19:30Z</time>
      </trkpt>
      <trkpt lat="45.95915" lon="7.10701">
        <ele>1740</ele>
        <time>2022-08-27T18:19:31Z</time>
      </trkpt>
      <trkpt lat="45.95917" lon="7.10704">
        <ele>1740</ele>
        <time>2022-08-27T18:19:33Z</time>
      </trkpt>
      <trkpt lat="45.95919" lon="7.10707">
        <ele>1740</ele>
        <time>2022-08-27T18:19:35Z</time>
      </trkpt>
      <trkpt lat="45.9592" lon="7.1071">
        <ele>1739</ele>
        <time>2022-08-27T18:19:36Z</time>
      </trkpt>
      <trkpt lat="45.95921" lon="7.10712">
        <ele>1739</ele>
        <time>2022-08-27T18:19:37Z</time>
      </trkpt>
      <trkpt lat="45.95922" lon="7.10715">
        <ele>1739</ele>
        <time>2022-08-27T18:19:38Z</time>
      </trkpt>
      <trkpt lat="45.95923" lon="7.10717">
        <ele>1739</ele>
        <time>2022-08-27T18:19:40Z</time>
      </trkpt>
      <trkpt lat="45.95924" lon="7.10719">
        <ele>1739</ele>
        <time>2022-08-27T18:19:41Z</time>
      </trkpt>
      <trkpt lat="45.95925" lon="7.10721">
        <ele>1737</ele>
        <time>2022-08-27T18:19:42Z</time>
      </trkpt>
      <trkpt lat="45.95926" lon="7.10723">
        <ele>1737</ele>
        <time>2022-08-27T18:19:43Z</time>
      </trkpt>
      <trkpt lat="45.95927" lon="7.10725">
        <ele>1737</ele>
        <time>2022-08-27T18:19:44Z</time>
      </trkpt>
      <trkpt lat="45.95928" lon="7.10728">
        <ele>1737</ele>
        <time>2022-08-27T18:19:45Z</time>
      </trkpt>
      <trkpt lat="45.9593" lon="7.1073">
        <ele>1737</ele>
        <time>2022-08-27T18:19:46Z</time>
      </trkpt>
      <trkpt lat="45.95931" lon="7.10732">
        <ele>1737</ele>
        <time>2022-08-27T18:19:47Z</time>
      </trkpt>
      <trkpt lat="45.95933" lon="7.10736">
        <ele>1736</ele>
        <time>2022-08-27T18:19:49Z</time>
      </trkpt>
      <trkpt lat="45.95935" lon="7.10741">
        <ele>1736</ele>
        <time>2022-08-27T18:19:50Z</time>
      </trkpt>
      <trkpt lat="45.95936" lon="7.10743">
        <ele>1736</ele>
        <time>2022-08-27T18:19:51Z</time>
      </trkpt>
      <trkpt lat="45.95937" lon="7.10745">
        <ele>1736</ele>
        <time>2022-08-27T18:19:52Z</time>
      </trkpt>
      <trkpt lat="45.95938" lon="7.10747">
        <ele>1736</ele>
        <time>2022-08-27T18:19:54Z</time>
      </trkpt>
      <trkpt lat="45.95939" lon="7.10749">
        <ele>1736</ele>
        <time>2022-08-27T18:19:55Z</time>
      </trkpt>
      <trkpt lat="45.9594" lon="7.10751">
        <ele>1735</ele>
        <time>2022-08-27T18:19:56Z</time>
      </trkpt>
      <trkpt lat="45.95942" lon="7.10753">
        <ele>1735</ele>
        <time>2022-08-27T18:19:57Z</time>
      </trkpt>
      <trkpt lat="45.95943" lon="7.10756">
        <ele>1735</ele>
        <time>2022-08-27T18:19:59Z</time>
      </trkpt>
      <trkpt lat="45.95944" lon="7.10758">
        <ele>1735</ele>
        <time>2022-08-27T18:20:00Z</time>
      </trkpt>
      <trkpt lat="45.95945" lon="7.10761">
        <ele>1733</ele>
        <time>2022-08-27T18:20:01Z</time>
      </trkpt>
      <trkpt lat="45.95948" lon="7.10765">
        <ele>1733</ele>
        <time>2022-08-27T18:20:02Z</time>
      </trkpt>
      <trkpt lat="45.95954" lon="7.10774">
        <ele>1732</ele>
        <time>2022-08-27T18:20:09Z</time>
      </trkpt>
      <trkpt lat="45.9596" lon="7.10788">
        <ele>1730</ele>
        <time>2022-08-27T18:20:14Z</time>
      </trkpt>
      <trkpt lat="45.95961" lon="7.10791">
        <ele>1730</ele>
        <time>2022-08-27T18:20:16Z</time>
      </trkpt>
      <trkpt lat="45.95962" lon="7.10794">
        <ele>1730</ele>
        <time>2022-08-27T18:20:18Z</time>
      </trkpt>
      <trkpt lat="45.95963" lon="7.10797">
        <ele>1730</ele>
        <time>2022-08-27T18:20:19Z</time>
      </trkpt>
      <trkpt lat="45.95965" lon="7.108">
        <ele>1730</ele>
        <time>2022-08-27T18:20:20Z</time>
      </trkpt>
      <trkpt lat="45.95966" lon="7.10805">
        <ele>1729</ele>
        <time>2022-08-27T18:20:21Z</time>
      </trkpt>
      <trkpt lat="45.95966" lon="7.1081">
        <ele>1729</ele>
        <time>2022-08-27T18:20:23Z</time>
      </trkpt>
      <trkpt lat="45.95966" lon="7.10814">
        <ele>1729</ele>
        <time>2022-08-27T18:20:25Z</time>
      </trkpt>
      <trkpt lat="45.95966" lon="7.10818">
        <ele>1729</ele>
        <time>2022-08-27T18:20:26Z</time>
      </trkpt>
      <trkpt lat="45.95966" lon="7.10822">
        <ele>1728</ele>
        <time>2022-08-27T18:20:27Z</time>
      </trkpt>
      <trkpt lat="45.95968" lon="7.10824">
        <ele>1728</ele>
        <time>2022-08-27T18:20:28Z</time>
      </trkpt>
      <trkpt lat="45.95969" lon="7.10826">
        <ele>1728</ele>
        <time>2022-08-27T18:20:30Z</time>
      </trkpt>
      <trkpt lat="45.9597" lon="7.10828">
        <ele>1728</ele>
        <time>2022-08-27T18:20:31Z</time>
      </trkpt>
      <trkpt lat="45.95972" lon="7.10831">
        <ele>1728</ele>
        <time>2022-08-27T18:20:32Z</time>
      </trkpt>
      <trkpt lat="45.95973" lon="7.10833">
        <ele>1728</ele>
        <time>2022-08-27T18:20:33Z</time>
      </trkpt>
      <trkpt lat="45.95973" lon="7.10834">
        <ele>1727</ele>
        <time>2022-08-27T18:20:35Z</time>
      </trkpt>
      <trkpt lat="45.95974" lon="7.10835">
        <ele>1727</ele>
        <time>2022-08-27T18:20:37Z</time>
      </trkpt>
      <trkpt lat="45.95975" lon="7.10835">
        <ele>1727</ele>
        <time>2022-08-27T18:20:38Z</time>
      </trkpt>
      <trkpt lat="45.95975" lon="7.10836">
        <ele>1726</ele>
        <time>2022-08-27T18:20:39Z</time>
      </trkpt>
      <trkpt lat="45.95982" lon="7.10844">
        <ele>1726</ele>
        <time>2022-08-27T18:20:41Z</time>
      </trkpt>
      <trkpt lat="45.95983" lon="7.10845">
        <ele>1726</ele>
        <time>2022-08-27T18:20:42Z</time>
      </trkpt>
      <trkpt lat="45.95985" lon="7.10847">
        <ele>1726</ele>
        <time>2022-08-27T18:20:43Z</time>
      </trkpt>
      <trkpt lat="45.95986" lon="7.10848">
        <ele>1726</ele>
        <time>2022-08-27T18:20:44Z</time>
      </trkpt>
      <trkpt lat="45.95988" lon="7.10849">
        <ele>1726</ele>
        <time>2022-08-27T18:20:45Z</time>
      </trkpt>
      <trkpt lat="45.95989" lon="7.10851">
        <ele>1726</ele>
        <time>2022-08-27T18:20:46Z</time>
      </trkpt>
      <trkpt lat="45.9599" lon="7.10851">
        <ele>1726</ele>
        <time>2022-08-27T18:20:47Z</time>
      </trkpt>
      <trkpt lat="45.95991" lon="7.10851">
        <ele>1725</ele>
        <time>2022-08-27T18:20:49Z</time>
      </trkpt>
      <trkpt lat="45.95991" lon="7.10852">
        <ele>1725</ele>
        <time>2022-08-27T18:20:50Z</time>
      </trkpt>
      <trkpt lat="45.95992" lon="7.10852">
        <ele>1724</ele>
        <time>2022-08-27T18:20:51Z</time>
      </trkpt>
      <trkpt lat="45.95993" lon="7.10852">
        <ele>1724</ele>
        <time>2022-08-27T18:20:52Z</time>
      </trkpt>
      <trkpt lat="45.96002" lon="7.10858">
        <ele>1724</ele>
        <time>2022-08-27T18:20:54Z</time>
      </trkpt>
      <trkpt lat="45.96005" lon="7.1086">
        <ele>1723</ele>
        <time>2022-08-27T18:20:56Z</time>
      </trkpt>
      <trkpt lat="45.96007" lon="7.10862">
        <ele>1723</ele>
        <time>2022-08-27T18:20:57Z</time>
      </trkpt>
      <trkpt lat="45.9601" lon="7.10862">
        <ele>1722</ele>
        <time>2022-08-27T18:20:58Z</time>
      </trkpt>
      <trkpt lat="45.96012" lon="7.10862">
        <ele>1722</ele>
        <time>2022-08-27T18:20:59Z</time>
      </trkpt>
      <trkpt lat="45.96015" lon="7.10862">
        <ele>1722</ele>
        <time>2022-08-27T18:21:01Z</time>
      </trkpt>
      <trkpt lat="45.96017" lon="7.10861">
        <ele>1722</ele>
        <time>2022-08-27T18:21:02Z</time>
      </trkpt>
      <trkpt lat="45.96019" lon="7.10862">
        <ele>1722</ele>
        <time>2022-08-27T18:21:03Z</time>
      </trkpt>
      <trkpt lat="45.96021" lon="7.10862">
        <ele>1722</ele>
        <time>2022-08-27T18:21:04Z</time>
      </trkpt>
      <trkpt lat="45.96023" lon="7.10862">
        <ele>1722</ele>
        <time>2022-08-27T18:21:06Z</time>
      </trkpt>
      <trkpt lat="45.96025" lon="7.10862">
        <ele>1721</ele>
        <time>2022-08-27T18:21:07Z</time>
      </trkpt>
      <trkpt lat="45.96026" lon="7.10862">
        <ele>1721</ele>
        <time>2022-08-27T18:21:08Z</time>
      </trkpt>
      <trkpt lat="45.96028" lon="7.10863">
        <ele>1720</ele>
        <time>2022-08-27T18:21:09Z</time>
      </trkpt>
      <trkpt lat="45.96029" lon="7.10864">
        <ele>1720</ele>
        <time>2022-08-27T18:21:11Z</time>
      </trkpt>
      <trkpt lat="45.96031" lon="7.10865">
        <ele>1720</ele>
        <time>2022-08-27T18:21:12Z</time>
      </trkpt>
      <trkpt lat="45.96032" lon="7.10866">
        <ele>1720</ele>
        <time>2022-08-27T18:21:13Z</time>
      </trkpt>
      <trkpt lat="45.96034" lon="7.10867">
        <ele>1720</ele>
        <time>2022-08-27T18:21:14Z</time>
      </trkpt>
      <trkpt lat="45.96035" lon="7.10868">
        <ele>1719</ele>
        <time>2022-08-27T18:21:15Z</time>
      </trkpt>
      <trkpt lat="45.96044" lon="7.10873">
        <ele>1718</ele>
        <time>2022-08-27T18:21:17Z</time>
      </trkpt>
      <trkpt lat="45.96054" lon="7.10875">
        <ele>1717</ele>
        <time>2022-08-27T18:21:22Z</time>
      </trkpt>
      <trkpt lat="45.96055" lon="7.10876">
        <ele>1717</ele>
        <time>2022-08-27T18:21:23Z</time>
      </trkpt>
      <trkpt lat="45.96057" lon="7.10876">
        <ele>1717</ele>
        <time>2022-08-27T18:21:24Z</time>
      </trkpt>
      <trkpt lat="45.96059" lon="7.10876">
        <ele>1717</ele>
        <time>2022-08-27T18:21:25Z</time>
      </trkpt>
      <trkpt lat="45.96061" lon="7.10876">
        <ele>1717</ele>
        <time>2022-08-27T18:21:26Z</time>
      </trkpt>
      <trkpt lat="45.96063" lon="7.10877">
        <ele>1717</ele>
        <time>2022-08-27T18:21:27Z</time>
      </trkpt>
      <trkpt lat="45.96065" lon="7.10876">
        <ele>1716</ele>
        <time>2022-08-27T18:21:29Z</time>
      </trkpt>
      <trkpt lat="45.96067" lon="7.10876">
        <ele>1716</ele>
        <time>2022-08-27T18:21:30Z</time>
      </trkpt>
      <trkpt lat="45.9607" lon="7.10876">
        <ele>1716</ele>
        <time>2022-08-27T18:21:31Z</time>
      </trkpt>
      <trkpt lat="45.96072" lon="7.10876">
        <ele>1716</ele>
        <time>2022-08-27T18:21:32Z</time>
      </trkpt>
      <trkpt lat="45.96075" lon="7.10873">
        <ele>1716</ele>
        <time>2022-08-27T18:21:35Z</time>
      </trkpt>
      <trkpt lat="45.96075" lon="7.10873">
        <ele>1715</ele>
        <time>2022-08-27T18:21:36Z</time>
      </trkpt>
      <trkpt lat="45.96075" lon="7.10872">
        <ele>1715</ele>
        <time>2022-08-27T18:21:37Z</time>
      </trkpt>
      <trkpt lat="45.96075" lon="7.10872">
        <ele>1716</ele>
        <time>2022-08-27T18:21:38Z</time>
      </trkpt>
      <trkpt lat="45.96076" lon="7.10872">
        <ele>1716</ele>
        <time>2022-08-27T18:21:39Z</time>
      </trkpt>
      <trkpt lat="45.96076" lon="7.10872">
        <ele>1716</ele>
        <time>2022-08-27T18:21:41Z</time>
      </trkpt>
      <trkpt lat="45.96076" lon="7.10872">
        <ele>1716</ele>
        <time>2022-08-27T18:21:42Z</time>
      </trkpt>
      <trkpt lat="45.96076" lon="7.10872">
        <ele>1716</ele>
        <time>2022-08-27T18:21:43Z</time>
      </trkpt>
      <trkpt lat="45.96076" lon="7.10872">
        <ele>1716</ele>
        <time>2022-08-27T18:21:44Z</time>
      </trkpt>
      <trkpt lat="45.96076" lon="7.10872">
        <ele>1716</ele>
        <time>2022-08-27T18:21:45Z</time>
      </trkpt>
      <trkpt lat="45.96077" lon="7.10872">
        <ele>1716</ele>
        <time>2022-08-27T18:21:46Z</time>
      </trkpt>
      <trkpt lat="45.96077" lon="7.10872">
        <ele>1716</ele>
        <time>2022-08-27T18:21:47Z</time>
      </trkpt>
      <trkpt lat="45.96077" lon="7.10872">
        <ele>1716</ele>
        <time>2022-08-27T18:21:48Z</time>
      </trkpt>
      <trkpt lat="45.96077" lon="7.10872">
        <ele>1716</ele>
        <time>2022-08-27T18:21:49Z</time>
      </trkpt>
      <trkpt lat="45.96077" lon="7.10872">
        <ele>1716</ele>
        <time>2022-08-27T18:21:50Z</time>
      </trkpt>
      <trkpt lat="45.96078" lon="7.10872">
        <ele>1716</ele>
        <time>2022-08-27T18:21:51Z</time>
      </trkpt>
      <trkpt lat="45.96078" lon="7.10872">
        <ele>1716</ele>
        <time>2022-08-27T18:21:53Z</time>
      </trkpt>
      <trkpt lat="45.96078" lon="7.10872">
        <ele>1716</ele>
        <time>2022-08-27T18:21:54Z</time>
      </trkpt>
      <trkpt lat="45.96078" lon="7.10872">
        <ele>1716</ele>
        <time>2022-08-27T18:21:55Z</time>
      </trkpt>
      <trkpt lat="45.96078" lon="7.10872">
        <ele>1716</ele>
        <time>2022-08-27T18:21:56Z</time>
      </trkpt>
      <trkpt lat="45.96078" lon="7.10872">
        <ele>1715</ele>
        <time>2022-08-27T18:21:57Z</time>
      </trkpt>
      <trkpt lat="45.96079" lon="7.10872">
        <ele>1715</ele>
        <time>2022-08-27T18:21:58Z</time>
      </trkpt>
      <trkpt lat="45.96079" lon="7.10872">
        <ele>1715</ele>
        <time>2022-08-27T18:21:59Z</time>
      </trkpt>
      <trkpt lat="45.96079" lon="7.10872">
        <ele>1715</ele>
        <time>2022-08-27T18:22:00Z</time>
      </trkpt>
      <trkpt lat="45.96079" lon="7.10872">
        <ele>1715</ele>
        <time>2022-08-27T18:22:01Z</time>
      </trkpt>
      <trkpt lat="45.96079" lon="7.10872">
        <ele>1715</ele>
        <time>2022-08-27T18:22:03Z</time>
      </trkpt>
      <trkpt lat="45.9608" lon="7.10872">
        <ele>1715</ele>
        <time>2022-08-27T18:22:05Z</time>
      </trkpt>
      <trkpt lat="45.9608" lon="7.10872">
        <ele>1715</ele>
        <time>2022-08-27T18:22:06Z</time>
      </trkpt>
      <trkpt lat="45.9608" lon="7.10872">
        <ele>1715</ele>
        <time>2022-08-27T18:22:07Z</time>
      </trkpt>
      <trkpt lat="45.9608" lon="7.10872">
        <ele>1716</ele>
        <time>2022-08-27T18:22:08Z</time>
      </trkpt>
      <trkpt lat="45.96083" lon="7.10871">
        <ele>1716</ele>
        <time>2022-08-27T18:22:09Z</time>
      </trkpt>
      <trkpt lat="45.96085" lon="7.10871">
        <ele>1716</ele>
        <time>2022-08-27T18:22:12Z</time>
      </trkpt>
      <trkpt lat="45.96088" lon="7.10871">
        <ele>1716</ele>
        <time>2022-08-27T18:22:13Z</time>
      </trkpt>
      <trkpt lat="45.9609" lon="7.10871">
        <ele>1715</ele>
        <time>2022-08-27T18:22:14Z</time>
      </trkpt>
      <trkpt lat="45.96091" lon="7.1087">
        <ele>1715</ele>
        <time>2022-08-27T18:22:16Z</time>
      </trkpt>
      <trkpt lat="45.96093" lon="7.1087">
        <ele>1715</ele>
        <time>2022-08-27T18:22:17Z</time>
      </trkpt>
      <trkpt lat="45.96095" lon="7.10869">
        <ele>1715</ele>
        <time>2022-08-27T18:22:18Z</time>
      </trkpt>
      <trkpt lat="45.96096" lon="7.10869">
        <ele>1715</ele>
        <time>2022-08-27T18:22:19Z</time>
      </trkpt>
      <trkpt lat="45.96097" lon="7.10869">
        <ele>1716</ele>
        <time>2022-08-27T18:22:20Z</time>
      </trkpt>
      <trkpt lat="45.96098" lon="7.10868">
        <ele>1716</ele>
        <time>2022-08-27T18:22:21Z</time>
      </trkpt>
      <trkpt lat="45.96099" lon="7.10868">
        <ele>1716</ele>
        <time>2022-08-27T18:22:22Z</time>
      </trkpt>
      <trkpt lat="45.961" lon="7.10867">
        <ele>1716</ele>
        <time>2022-08-27T18:22:23Z</time>
      </trkpt>
      <trkpt lat="45.96103" lon="7.10866">
        <ele>1716</ele>
        <time>2022-08-27T18:22:24Z</time>
      </trkpt>
      <trkpt lat="45.96107" lon="7.10865">
        <ele>1716</ele>
        <time>2022-08-27T18:22:28Z</time>
      </trkpt>
      <trkpt lat="45.96109" lon="7.10865">
        <ele>1716</ele>
        <time>2022-08-27T18:22:30Z</time>
      </trkpt>
      <trkpt lat="45.96112" lon="7.10865">
        <ele>1716</ele>
        <time>2022-08-27T18:22:32Z</time>
      </trkpt>
      <trkpt lat="45.96115" lon="7.10864">
        <ele>1716</ele>
        <time>2022-08-27T18:22:33Z</time>
      </trkpt>
      <trkpt lat="45.96116" lon="7.10864">
        <ele>1716</ele>
        <time>2022-08-27T18:22:35Z</time>
      </trkpt>
      <trkpt lat="45.96117" lon="7.10863">
        <ele>1716</ele>
        <time>2022-08-27T18:22:36Z</time>
      </trkpt>
      <trkpt lat="45.96119" lon="7.10863">
        <ele>1716</ele>
        <time>2022-08-27T18:22:37Z</time>
      </trkpt>
      <trkpt lat="45.9612" lon="7.10862">
        <ele>1716</ele>
        <time>2022-08-27T18:22:38Z</time>
      </trkpt>
      <trkpt lat="45.96123" lon="7.10862">
        <ele>1716</ele>
        <time>2022-08-27T18:22:40Z</time>
      </trkpt>
      <trkpt lat="45.96126" lon="7.10861">
        <ele>1716</ele>
        <time>2022-08-27T18:22:41Z</time>
      </trkpt>
      <trkpt lat="45.96129" lon="7.1086">
        <ele>1716</ele>
        <time>2022-08-27T18:22:43Z</time>
      </trkpt>
      <trkpt lat="45.96131" lon="7.10859">
        <ele>1716</ele>
        <time>2022-08-27T18:22:45Z</time>
      </trkpt>
      <trkpt lat="45.96134" lon="7.10858">
        <ele>1716</ele>
        <time>2022-08-27T18:22:47Z</time>
      </trkpt>
      <trkpt lat="45.96137" lon="7.10858">
        <ele>1716</ele>
        <time>2022-08-27T18:22:49Z</time>
      </trkpt>
      <trkpt lat="45.96139" lon="7.10857">
        <ele>1716</ele>
        <time>2022-08-27T18:22:51Z</time>
      </trkpt>
      <trkpt lat="45.96142" lon="7.10857">
        <ele>1716</ele>
        <time>2022-08-27T18:22:53Z</time>
      </trkpt>
      <trkpt lat="45.96145" lon="7.10856">
        <ele>1716</ele>
        <time>2022-08-27T18:22:55Z</time>
      </trkpt>
      <trkpt lat="45.96147" lon="7.10856">
        <ele>1716</ele>
        <time>2022-08-27T18:22:57Z</time>
      </trkpt>
      <trkpt lat="45.96149" lon="7.10856">
        <ele>1716</ele>
        <time>2022-08-27T18:22:59Z</time>
      </trkpt>
      <trkpt lat="45.96152" lon="7.10856">
        <ele>1716</ele>
        <time>2022-08-27T18:23:01Z</time>
      </trkpt>
      <trkpt lat="45.96155" lon="7.10856">
        <ele>1716</ele>
        <time>2022-08-27T18:23:03Z</time>
      </trkpt>
      <trkpt lat="45.96158" lon="7.10857">
        <ele>1716</ele>
        <time>2022-08-27T18:23:05Z</time>
      </trkpt>
      <trkpt lat="45.9616" lon="7.10857">
        <ele>1716</ele>
        <time>2022-08-27T18:23:08Z</time>
      </trkpt>
      <trkpt lat="45.96163" lon="7.10858">
        <ele>1716</ele>
        <time>2022-08-27T18:23:10Z</time>
      </trkpt>
      <trkpt lat="45.96166" lon="7.10858">
        <ele>1716</ele>
        <time>2022-08-27T18:23:11Z</time>
      </trkpt>
      <trkpt lat="45.96169" lon="7.10859">
        <ele>1716</ele>
        <time>2022-08-27T18:23:14Z</time>
      </trkpt>
      <trkpt lat="45.96172" lon="7.1086">
        <ele>1716</ele>
        <time>2022-08-27T18:23:15Z</time>
      </trkpt>
      <trkpt lat="45.96175" lon="7.10862">
        <ele>1716</ele>
        <time>2022-08-27T18:23:17Z</time>
      </trkpt>
      <trkpt lat="45.96178" lon="7.10863">
        <ele>1716</ele>
        <time>2022-08-27T18:23:19Z</time>
      </trkpt>
      <trkpt lat="45.96179" lon="7.10863">
        <ele>1716</ele>
        <time>2022-08-27T18:23:20Z</time>
      </trkpt>
      <trkpt lat="45.96181" lon="7.10864">
        <ele>1716</ele>
        <time>2022-08-27T18:23:21Z</time>
      </trkpt>
      <trkpt lat="45.96182" lon="7.10864">
        <ele>1716</ele>
        <time>2022-08-27T18:23:22Z</time>
      </trkpt>
      <trkpt lat="45.96183" lon="7.10865">
        <ele>1716</ele>
        <time>2022-08-27T18:23:23Z</time>
      </trkpt>
      <trkpt lat="45.96186" lon="7.10865">
        <ele>1716</ele>
        <time>2022-08-27T18:23:25Z</time>
      </trkpt>
      <trkpt lat="45.96189" lon="7.10866">
        <ele>1716</ele>
        <time>2022-08-27T18:23:28Z</time>
      </trkpt>
      <trkpt lat="45.96192" lon="7.10866">
        <ele>1716</ele>
        <time>2022-08-27T18:23:29Z</time>
      </trkpt>
      <trkpt lat="45.96195" lon="7.10865">
        <ele>1717</ele>
        <time>2022-08-27T18:23:32Z</time>
      </trkpt>
      <trkpt lat="45.96198" lon="7.10864">
        <ele>1717</ele>
        <time>2022-08-27T18:23:33Z</time>
      </trkpt>
      <trkpt lat="45.96201" lon="7.10863">
        <ele>1717</ele>
        <time>2022-08-27T18:23:35Z</time>
      </trkpt>
      <trkpt lat="45.96203" lon="7.10862">
        <ele>1717</ele>
        <time>2022-08-27T18:23:37Z</time>
      </trkpt>
      <trkpt lat="45.96206" lon="7.1086">
        <ele>1717</ele>
        <time>2022-08-27T18:23:40Z</time>
      </trkpt>
      <trkpt lat="45.96209" lon="7.10858">
        <ele>1717</ele>
        <time>2022-08-27T18:23:41Z</time>
      </trkpt>
      <trkpt lat="45.96213" lon="7.10854">
        <ele>1717</ele>
        <time>2022-08-27T18:23:45Z</time>
      </trkpt>
      <trkpt lat="45.96222" lon="7.1085">
        <ele>1717</ele>
        <time>2022-08-27T18:23:51Z</time>
      </trkpt>
      <trkpt lat="45.96225" lon="7.1085">
        <ele>1717</ele>
        <time>2022-08-27T18:23:53Z</time>
      </trkpt>
      <trkpt lat="45.96227" lon="7.10849">
        <ele>1717</ele>
        <time>2022-08-27T18:23:54Z</time>
      </trkpt>
      <trkpt lat="45.96228" lon="7.10849">
        <ele>1717</ele>
        <time>2022-08-27T18:23:56Z</time>
      </trkpt>
      <trkpt lat="45.9623" lon="7.10848">
        <ele>1717</ele>
        <time>2022-08-27T18:23:57Z</time>
      </trkpt>
      <trkpt lat="45.96233" lon="7.10847">
        <ele>1717</ele>
        <time>2022-08-27T18:23:58Z</time>
      </trkpt>
      <trkpt lat="45.96235" lon="7.10845">
        <ele>1717</ele>
        <time>2022-08-27T18:24:00Z</time>
      </trkpt>
      <trkpt lat="45.96238" lon="7.10843">
        <ele>1717</ele>
        <time>2022-08-27T18:24:02Z</time>
      </trkpt>
      <trkpt lat="45.9624" lon="7.10844">
        <ele>1717</ele>
        <time>2022-08-27T18:24:04Z</time>
      </trkpt>
      <trkpt lat="45.96244" lon="7.10844">
        <ele>1718</ele>
        <time>2022-08-27T18:24:06Z</time>
      </trkpt>
      <trkpt lat="45.96247" lon="7.10843">
        <ele>1718</ele>
        <time>2022-08-27T18:24:08Z</time>
      </trkpt>
      <trkpt lat="45.96249" lon="7.10841">
        <ele>1718</ele>
        <time>2022-08-27T18:24:10Z</time>
      </trkpt>
      <trkpt lat="45.96252" lon="7.10841">
        <ele>1718</ele>
        <time>2022-08-27T18:24:12Z</time>
      </trkpt>
      <trkpt lat="45.96255" lon="7.10841">
        <ele>1718</ele>
        <time>2022-08-27T18:24:14Z</time>
      </trkpt>
      <trkpt lat="45.96257" lon="7.10841">
        <ele>1718</ele>
        <time>2022-08-27T18:24:16Z</time>
      </trkpt>
      <trkpt lat="45.9626" lon="7.10841">
        <ele>1718</ele>
        <time>2022-08-27T18:24:18Z</time>
      </trkpt>
      <trkpt lat="45.96263" lon="7.10841">
        <ele>1718</ele>
        <time>2022-08-27T18:24:20Z</time>
      </trkpt>
      <trkpt lat="45.96266" lon="7.10841">
        <ele>1718</ele>
        <time>2022-08-27T18:24:22Z</time>
      </trkpt>
      <trkpt lat="45.9627" lon="7.10839">
        <ele>1718</ele>
        <time>2022-08-27T18:24:25Z</time>
      </trkpt>
      <trkpt lat="45.96272" lon="7.10837">
        <ele>1717</ele>
        <time>2022-08-27T18:24:27Z</time>
      </trkpt>
      <trkpt lat="45.96275" lon="7.10836">
        <ele>1718</ele>
        <time>2022-08-27T18:24:29Z</time>
      </trkpt>
      <trkpt lat="45.96277" lon="7.10834">
        <ele>1718</ele>
        <time>2022-08-27T18:24:31Z</time>
      </trkpt>
      <trkpt lat="45.96279" lon="7.10833">
        <ele>1718</ele>
        <time>2022-08-27T18:24:33Z</time>
      </trkpt>
      <trkpt lat="45.96281" lon="7.10832">
        <ele>1718</ele>
        <time>2022-08-27T18:24:34Z</time>
      </trkpt>
      <trkpt lat="45.96283" lon="7.10831">
        <ele>1718</ele>
        <time>2022-08-27T18:24:36Z</time>
      </trkpt>
      <trkpt lat="45.96284" lon="7.1083">
        <ele>1718</ele>
        <time>2022-08-27T18:24:37Z</time>
      </trkpt>
      <trkpt lat="45.96286" lon="7.10827">
        <ele>1718</ele>
        <time>2022-08-27T18:24:39Z</time>
      </trkpt>
      <trkpt lat="45.96289" lon="7.10826">
        <ele>1718</ele>
        <time>2022-08-27T18:24:41Z</time>
      </trkpt>
      <trkpt lat="45.96293" lon="7.10824">
        <ele>1718</ele>
        <time>2022-08-27T18:24:44Z</time>
      </trkpt>
      <trkpt lat="45.96296" lon="7.10824">
        <ele>1718</ele>
        <time>2022-08-27T18:24:46Z</time>
      </trkpt>
      <trkpt lat="45.96299" lon="7.10826">
        <ele>1718</ele>
        <time>2022-08-27T18:24:48Z</time>
      </trkpt>
      <trkpt lat="45.96302" lon="7.10827">
        <ele>1718</ele>
        <time>2022-08-27T18:24:50Z</time>
      </trkpt>
      <trkpt lat="45.96305" lon="7.10828">
        <ele>1718</ele>
        <time>2022-08-27T18:24:53Z</time>
      </trkpt>
      <trkpt lat="45.96308" lon="7.10829">
        <ele>1718</ele>
        <time>2022-08-27T18:24:55Z</time>
      </trkpt>
      <trkpt lat="45.96309" lon="7.10829">
        <ele>1718</ele>
        <time>2022-08-27T18:24:56Z</time>
      </trkpt>
      <trkpt lat="45.96311" lon="7.1083">
        <ele>1718</ele>
        <time>2022-08-27T18:24:57Z</time>
      </trkpt>
      <trkpt lat="45.96313" lon="7.1083">
        <ele>1718</ele>
        <time>2022-08-27T18:24:58Z</time>
      </trkpt>
      <trkpt lat="45.96315" lon="7.1083">
        <ele>1718</ele>
        <time>2022-08-27T18:25:00Z</time>
      </trkpt>
      <trkpt lat="45.96319" lon="7.10828">
        <ele>1718</ele>
        <time>2022-08-27T18:25:03Z</time>
      </trkpt>
      <trkpt lat="45.96322" lon="7.10827">
        <ele>1718</ele>
        <time>2022-08-27T18:25:05Z</time>
      </trkpt>
      <trkpt lat="45.96323" lon="7.10826">
        <ele>1718</ele>
        <time>2022-08-27T18:25:07Z</time>
      </trkpt>
      <trkpt lat="45.96324" lon="7.10825">
        <ele>1718</ele>
        <time>2022-08-27T18:25:08Z</time>
      </trkpt>
      <trkpt lat="45.96325" lon="7.10824">
        <ele>1718</ele>
        <time>2022-08-27T18:25:09Z</time>
      </trkpt>
      <trkpt lat="45.96326" lon="7.10823">
        <ele>1718</ele>
        <time>2022-08-27T18:25:10Z</time>
      </trkpt>
      <trkpt lat="45.96327" lon="7.10822">
        <ele>1718</ele>
        <time>2022-08-27T18:25:11Z</time>
      </trkpt>
      <trkpt lat="45.96329" lon="7.10821">
        <ele>1718</ele>
        <time>2022-08-27T18:25:13Z</time>
      </trkpt>
      <trkpt lat="45.96331" lon="7.10819">
        <ele>1718</ele>
        <time>2022-08-27T18:25:14Z</time>
      </trkpt>
      <trkpt lat="45.96333" lon="7.10819">
        <ele>1718</ele>
        <time>2022-08-27T18:25:15Z</time>
      </trkpt>
      <trkpt lat="45.96334" lon="7.10818">
        <ele>1718</ele>
        <time>2022-08-27T18:25:16Z</time>
      </trkpt>
      <trkpt lat="45.96336" lon="7.10818">
        <ele>1718</ele>
        <time>2022-08-27T18:25:17Z</time>
      </trkpt>
      <trkpt lat="45.96337" lon="7.10817">
        <ele>1718</ele>
        <time>2022-08-27T18:25:18Z</time>
      </trkpt>
      <trkpt lat="45.9634" lon="7.10816">
        <ele>1718</ele>
        <time>2022-08-27T18:25:19Z</time>
      </trkpt>
      <trkpt lat="45.96344" lon="7.10816">
        <ele>1718</ele>
        <time>2022-08-27T18:25:21Z</time>
      </trkpt>
      <trkpt lat="45.96348" lon="7.10815">
        <ele>1718</ele>
        <time>2022-08-27T18:25:24Z</time>
      </trkpt>
      <trkpt lat="45.96351" lon="7.10815">
        <ele>1718</ele>
        <time>2022-08-27T18:25:26Z</time>
      </trkpt>
      <trkpt lat="45.96354" lon="7.10815">
        <ele>1718</ele>
        <time>2022-08-27T18:25:28Z</time>
      </trkpt>
      <trkpt lat="45.96357" lon="7.10816">
        <ele>1718</ele>
        <time>2022-08-27T18:25:30Z</time>
      </trkpt>
      <trkpt lat="45.9636" lon="7.10817">
        <ele>1718</ele>
        <time>2022-08-27T18:25:32Z</time>
      </trkpt>
      <trkpt lat="45.96361" lon="7.10817">
        <ele>1718</ele>
        <time>2022-08-27T18:25:33Z</time>
      </trkpt>
      <trkpt lat="45.96363" lon="7.10818">
        <ele>1719</ele>
        <time>2022-08-27T18:25:34Z</time>
      </trkpt>
      <trkpt lat="45.96364" lon="7.10818">
        <ele>1719</ele>
        <time>2022-08-27T18:25:35Z</time>
      </trkpt>
      <trkpt lat="45.96366" lon="7.10818">
        <ele>1719</ele>
        <time>2022-08-27T18:25:36Z</time>
      </trkpt>
      <trkpt lat="45.96368" lon="7.10819">
        <ele>1719</ele>
        <time>2022-08-27T18:25:38Z</time>
      </trkpt>
      <trkpt lat="45.96371" lon="7.10819">
        <ele>1719</ele>
        <time>2022-08-27T18:25:39Z</time>
      </trkpt>
      <trkpt lat="45.96373" lon="7.1082">
        <ele>1718</ele>
        <time>2022-08-27T18:25:41Z</time>
      </trkpt>
      <trkpt lat="45.96375" lon="7.1082">
        <ele>1718</ele>
        <time>2022-08-27T18:25:42Z</time>
      </trkpt>
      <trkpt lat="45.96377" lon="7.10821">
        <ele>1718</ele>
        <time>2022-08-27T18:25:43Z</time>
      </trkpt>
      <trkpt lat="45.96379" lon="7.10821">
        <ele>1718</ele>
        <time>2022-08-27T18:25:44Z</time>
      </trkpt>
      <trkpt lat="45.96382" lon="7.10821">
        <ele>1718</ele>
        <time>2022-08-27T18:25:46Z</time>
      </trkpt>
      <trkpt lat="45.96384" lon="7.10821">
        <ele>1718</ele>
        <time>2022-08-27T18:25:48Z</time>
      </trkpt>
      <trkpt lat="45.96386" lon="7.10821">
        <ele>1718</ele>
        <time>2022-08-27T18:25:49Z</time>
      </trkpt>
      <trkpt lat="45.96389" lon="7.10821">
        <ele>1718</ele>
        <time>2022-08-27T18:25:50Z</time>
      </trkpt>
      <trkpt lat="45.96391" lon="7.10821">
        <ele>1717</ele>
        <time>2022-08-27T18:25:51Z</time>
      </trkpt>
      <trkpt lat="45.96392" lon="7.10821">
        <ele>1717</ele>
        <time>2022-08-27T18:25:52Z</time>
      </trkpt>
      <trkpt lat="45.96403" lon="7.10821">
        <ele>1716</ele>
        <time>2022-08-27T18:25:58Z</time>
      </trkpt>
      <trkpt lat="45.96405" lon="7.10822">
        <ele>1716</ele>
        <time>2022-08-27T18:26:00Z</time>
      </trkpt>
      <trkpt lat="45.96407" lon="7.10823">
        <ele>1716</ele>
        <time>2022-08-27T18:26:01Z</time>
      </trkpt>
      <trkpt lat="45.96409" lon="7.10824">
        <ele>1716</ele>
        <time>2022-08-27T18:26:02Z</time>
      </trkpt>
      <trkpt lat="45.96411" lon="7.10825">
        <ele>1716</ele>
        <time>2022-08-27T18:26:03Z</time>
      </trkpt>
      <trkpt lat="45.96413" lon="7.10826">
        <ele>1715</ele>
        <time>2022-08-27T18:26:04Z</time>
      </trkpt>
      <trkpt lat="45.96415" lon="7.10828">
        <ele>1715</ele>
        <time>2022-08-27T18:26:05Z</time>
      </trkpt>
      <trkpt lat="45.96416" lon="7.10829">
        <ele>1715</ele>
        <time>2022-08-27T18:26:06Z</time>
      </trkpt>
      <trkpt lat="45.96418" lon="7.1083">
        <ele>1714</ele>
        <time>2022-08-27T18:26:07Z</time>
      </trkpt>
      <trkpt lat="45.9642" lon="7.10831">
        <ele>1714</ele>
        <time>2022-08-27T18:26:09Z</time>
      </trkpt>
      <trkpt lat="45.96421" lon="7.10833">
        <ele>1714</ele>
        <time>2022-08-27T18:26:10Z</time>
      </trkpt>
      <trkpt lat="45.96423" lon="7.10833">
        <ele>1714</ele>
        <time>2022-08-27T18:26:11Z</time>
      </trkpt>
      <trkpt lat="45.96424" lon="7.10833">
        <ele>1713</ele>
        <time>2022-08-27T18:26:13Z</time>
      </trkpt>
      <trkpt lat="45.96425" lon="7.10833">
        <ele>1713</ele>
        <time>2022-08-27T18:26:14Z</time>
      </trkpt>
      <trkpt lat="45.96427" lon="7.10833">
        <ele>1713</ele>
        <time>2022-08-27T18:26:15Z</time>
      </trkpt>
      <trkpt lat="45.96434" lon="7.10833">
        <ele>1712</ele>
        <time>2022-08-27T18:26:16Z</time>
      </trkpt>
      <trkpt lat="45.96436" lon="7.10833">
        <ele>1712</ele>
        <time>2022-08-27T18:26:18Z</time>
      </trkpt>
      <trkpt lat="45.96438" lon="7.10834">
        <ele>1712</ele>
        <time>2022-08-27T18:26:19Z</time>
      </trkpt>
      <trkpt lat="45.9644" lon="7.10834">
        <ele>1711</ele>
        <time>2022-08-27T18:26:20Z</time>
      </trkpt>
      <trkpt lat="45.96442" lon="7.10834">
        <ele>1711</ele>
        <time>2022-08-27T18:26:21Z</time>
      </trkpt>
      <trkpt lat="45.96445" lon="7.10834">
        <ele>1711</ele>
        <time>2022-08-27T18:26:23Z</time>
      </trkpt>
      <trkpt lat="45.96447" lon="7.10834">
        <ele>1710</ele>
        <time>2022-08-27T18:26:24Z</time>
      </trkpt>
      <trkpt lat="45.9645" lon="7.10834">
        <ele>1710</ele>
        <time>2022-08-27T18:26:25Z</time>
      </trkpt>
      <trkpt lat="45.96453" lon="7.10835">
        <ele>1710</ele>
        <time>2022-08-27T18:26:26Z</time>
      </trkpt>
      <trkpt lat="45.96456" lon="7.10834">
        <ele>1710</ele>
        <time>2022-08-27T18:26:28Z</time>
      </trkpt>
      <trkpt lat="45.96459" lon="7.10834">
        <ele>1710</ele>
        <time>2022-08-27T18:26:29Z</time>
      </trkpt>
      <trkpt lat="45.96463" lon="7.10833">
        <ele>1709</ele>
        <time>2022-08-27T18:26:30Z</time>
      </trkpt>
      <trkpt lat="45.96464" lon="7.10833">
        <ele>1709</ele>
        <time>2022-08-27T18:26:31Z</time>
      </trkpt>
      <trkpt lat="45.96466" lon="7.10833">
        <ele>1709</ele>
        <time>2022-08-27T18:26:33Z</time>
      </trkpt>
      <trkpt lat="45.96468" lon="7.10833">
        <ele>1709</ele>
        <time>2022-08-27T18:26:34Z</time>
      </trkpt>
      <trkpt lat="45.96469" lon="7.10833">
        <ele>1708</ele>
        <time>2022-08-27T18:26:35Z</time>
      </trkpt>
      <trkpt lat="45.96471" lon="7.10832">
        <ele>1708</ele>
        <time>2022-08-27T18:26:36Z</time>
      </trkpt>
      <trkpt lat="45.96472" lon="7.10832">
        <ele>1708</ele>
        <time>2022-08-27T18:26:37Z</time>
      </trkpt>
      <trkpt lat="45.96482" lon="7.10829">
        <ele>1707</ele>
        <time>2022-08-27T18:26:42Z</time>
      </trkpt>
      <trkpt lat="45.96484" lon="7.10827">
        <ele>1706</ele>
        <time>2022-08-27T18:26:44Z</time>
      </trkpt>
      <trkpt lat="45.96487" lon="7.10827">
        <ele>1706</ele>
        <time>2022-08-27T18:26:47Z</time>
      </trkpt>
      <trkpt lat="45.96489" lon="7.10827">
        <ele>1706</ele>
        <time>2022-08-27T18:26:48Z</time>
      </trkpt>
      <trkpt lat="45.96492" lon="7.10827">
        <ele>1706</ele>
        <time>2022-08-27T18:26:49Z</time>
      </trkpt>
      <trkpt lat="45.96495" lon="7.10827">
        <ele>1706</ele>
        <time>2022-08-27T18:26:50Z</time>
      </trkpt>
      <trkpt lat="45.96498" lon="7.10826">
        <ele>1705</ele>
        <time>2022-08-27T18:26:52Z</time>
      </trkpt>
      <trkpt lat="45.96501" lon="7.10826">
        <ele>1705</ele>
        <time>2022-08-27T18:26:53Z</time>
      </trkpt>
      <trkpt lat="45.96504" lon="7.10825">
        <ele>1704</ele>
        <time>2022-08-27T18:26:54Z</time>
      </trkpt>
      <trkpt lat="45.96514" lon="7.10821">
        <ele>1704</ele>
        <time>2022-08-27T18:26:59Z</time>
      </trkpt>
      <trkpt lat="45.96516" lon="7.10821">
        <ele>1704</ele>
        <time>2022-08-27T18:27:00Z</time>
      </trkpt>
      <trkpt lat="45.96517" lon="7.10821">
        <ele>1704</ele>
        <time>2022-08-27T18:27:01Z</time>
      </trkpt>
      <trkpt lat="45.96519" lon="7.10821">
        <ele>1704</ele>
        <time>2022-08-27T18:27:02Z</time>
      </trkpt>
      <trkpt lat="45.96521" lon="7.10821">
        <ele>1703</ele>
        <time>2022-08-27T18:27:04Z</time>
      </trkpt>
      <trkpt lat="45.96522" lon="7.10821">
        <ele>1703</ele>
        <time>2022-08-27T18:27:05Z</time>
      </trkpt>
      <trkpt lat="45.96524" lon="7.10815">
        <ele>1703</ele>
        <time>2022-08-27T18:27:10Z</time>
      </trkpt>
      <trkpt lat="45.96526" lon="7.10813">
        <ele>1702</ele>
        <time>2022-08-27T18:27:12Z</time>
      </trkpt>
      <trkpt lat="45.96528" lon="7.10812">
        <ele>1702</ele>
        <time>2022-08-27T18:27:13Z</time>
      </trkpt>
      <trkpt lat="45.96529" lon="7.10811">
        <ele>1701</ele>
        <time>2022-08-27T18:27:15Z</time>
      </trkpt>
      <trkpt lat="45.9653" lon="7.10809">
        <ele>1701</ele>
        <time>2022-08-27T18:27:16Z</time>
      </trkpt>
      <trkpt lat="45.96532" lon="7.1081">
        <ele>1701</ele>
        <time>2022-08-27T18:27:17Z</time>
      </trkpt>
      <trkpt lat="45.96533" lon="7.10811">
        <ele>1700</ele>
        <time>2022-08-27T18:27:18Z</time>
      </trkpt>
      <trkpt lat="45.96535" lon="7.10812">
        <ele>1700</ele>
        <time>2022-08-27T18:27:20Z</time>
      </trkpt>
      <trkpt lat="45.96536" lon="7.10812">
        <ele>1700</ele>
        <time>2022-08-27T18:27:21Z</time>
      </trkpt>
      <trkpt lat="45.96537" lon="7.10813">
        <ele>1700</ele>
        <time>2022-08-27T18:27:23Z</time>
      </trkpt>
      <trkpt lat="45.96539" lon="7.10814">
        <ele>1701</ele>
        <time>2022-08-27T18:27:24Z</time>
      </trkpt>
      <trkpt lat="45.9654" lon="7.10813">
        <ele>1701</ele>
        <time>2022-08-27T18:27:25Z</time>
      </trkpt>
      <trkpt lat="45.96541" lon="7.10813">
        <ele>1701</ele>
        <time>2022-08-27T18:27:26Z</time>
      </trkpt>
      <trkpt lat="45.96542" lon="7.10812">
        <ele>1702</ele>
        <time>2022-08-27T18:27:28Z</time>
      </trkpt>
      <trkpt lat="45.96543" lon="7.10812">
        <ele>1702</ele>
        <time>2022-08-27T18:27:29Z</time>
      </trkpt>
      <trkpt lat="45.96544" lon="7.10811">
        <ele>1702</ele>
        <time>2022-08-27T18:27:30Z</time>
      </trkpt>
      <trkpt lat="45.96545" lon="7.10811">
        <ele>1702</ele>
        <time>2022-08-27T18:27:31Z</time>
      </trkpt>
      <trkpt lat="45.96547" lon="7.1081">
        <ele>1702</ele>
        <time>2022-08-27T18:27:33Z</time>
      </trkpt>
      <trkpt lat="45.96549" lon="7.1081">
        <ele>1702</ele>
        <time>2022-08-27T18:27:35Z</time>
      </trkpt>
      <trkpt lat="45.96551" lon="7.1081">
        <ele>1702</ele>
        <time>2022-08-27T18:27:36Z</time>
      </trkpt>
      <trkpt lat="45.96554" lon="7.1081">
        <ele>1702</ele>
        <time>2022-08-27T18:27:37Z</time>
      </trkpt>
      <trkpt lat="45.96557" lon="7.10811">
        <ele>1702</ele>
        <time>2022-08-27T18:27:39Z</time>
      </trkpt>
      <trkpt lat="45.96558" lon="7.10811">
        <ele>1702</ele>
        <time>2022-08-27T18:27:40Z</time>
      </trkpt>
      <trkpt lat="45.96559" lon="7.10811">
        <ele>1702</ele>
        <time>2022-08-27T18:27:41Z</time>
      </trkpt>
      <trkpt lat="45.9656" lon="7.10811">
        <ele>1702</ele>
        <time>2022-08-27T18:27:42Z</time>
      </trkpt>
      <trkpt lat="45.96561" lon="7.10811">
        <ele>1703</ele>
        <time>2022-08-27T18:27:44Z</time>
      </trkpt>
      <trkpt lat="45.96561" lon="7.10811">
        <ele>1703</ele>
        <time>2022-08-27T18:27:45Z</time>
      </trkpt>
      <trkpt lat="45.96562" lon="7.10811">
        <ele>1704</ele>
        <time>2022-08-27T18:27:46Z</time>
      </trkpt>
      <trkpt lat="45.96563" lon="7.10811">
        <ele>1704</ele>
        <time>2022-08-27T18:27:47Z</time>
      </trkpt>
      <trkpt lat="45.96564" lon="7.10811">
        <ele>1704</ele>
        <time>2022-08-27T18:27:48Z</time>
      </trkpt>
      <trkpt lat="45.96565" lon="7.10811">
        <ele>1704</ele>
        <time>2022-08-27T18:27:49Z</time>
      </trkpt>
      <trkpt lat="45.96567" lon="7.10811">
        <ele>1704</ele>
        <time>2022-08-27T18:27:50Z</time>
      </trkpt>
      <trkpt lat="45.96568" lon="7.10811">
        <ele>1704</ele>
        <time>2022-08-27T18:27:51Z</time>
      </trkpt>
      <trkpt lat="45.9657" lon="7.1081">
        <ele>1704</ele>
        <time>2022-08-27T18:27:53Z</time>
      </trkpt>
      <trkpt lat="45.96571" lon="7.1081">
        <ele>1704</ele>
        <time>2022-08-27T18:27:54Z</time>
      </trkpt>
      <trkpt lat="45.96573" lon="7.10811">
        <ele>1705</ele>
        <time>2022-08-27T18:27:56Z</time>
      </trkpt>
      <trkpt lat="45.96574" lon="7.10812">
        <ele>1705</ele>
        <time>2022-08-27T18:27:58Z</time>
      </trkpt>
      <trkpt lat="45.96576" lon="7.10812">
        <ele>1705</ele>
        <time>2022-08-27T18:27:59Z</time>
      </trkpt>
      <trkpt lat="45.96577" lon="7.10813">
        <ele>1706</ele>
        <time>2022-08-27T18:28:00Z</time>
      </trkpt>
      <trkpt lat="45.96578" lon="7.10814">
        <ele>1706</ele>
        <time>2022-08-27T18:28:01Z</time>
      </trkpt>
      <trkpt lat="45.9658" lon="7.10814">
        <ele>1706</ele>
        <time>2022-08-27T18:28:03Z</time>
      </trkpt>
      <trkpt lat="45.96581" lon="7.10815">
        <ele>1706</ele>
        <time>2022-08-27T18:28:04Z</time>
      </trkpt>
      <trkpt lat="45.96583" lon="7.10816">
        <ele>1706</ele>
        <time>2022-08-27T18:28:05Z</time>
      </trkpt>
      <trkpt lat="45.96584" lon="7.10816">
        <ele>1706</ele>
        <time>2022-08-27T18:28:06Z</time>
      </trkpt>
      <trkpt lat="45.96594" lon="7.10819">
        <ele>1706</ele>
        <time>2022-08-27T18:28:15Z</time>
      </trkpt>
      <trkpt lat="45.96596" lon="7.10819">
        <ele>1706</ele>
        <time>2022-08-27T18:28:16Z</time>
      </trkpt>
      <trkpt lat="45.96605" lon="7.10822">
        <ele>1707</ele>
        <time>2022-08-27T18:28:23Z</time>
      </trkpt>
      <trkpt lat="45.96607" lon="7.10823">
        <ele>1707</ele>
        <time>2022-08-27T18:28:25Z</time>
      </trkpt>
      <trkpt lat="45.96609" lon="7.10824">
        <ele>1708</ele>
        <time>2022-08-27T18:28:28Z</time>
      </trkpt>
      <trkpt lat="45.9661" lon="7.10825">
        <ele>1708</ele>
        <time>2022-08-27T18:28:29Z</time>
      </trkpt>
      <trkpt lat="45.96612" lon="7.10827">
        <ele>1708</ele>
        <time>2022-08-27T18:28:30Z</time>
      </trkpt>
      <trkpt lat="45.96614" lon="7.10828">
        <ele>1709</ele>
        <time>2022-08-27T18:28:32Z</time>
      </trkpt>
      <trkpt lat="45.96615" lon="7.10829">
        <ele>1709</ele>
        <time>2022-08-27T18:28:33Z</time>
      </trkpt>
      <trkpt lat="45.9662" lon="7.10829">
        <ele>1709</ele>
        <time>2022-08-27T18:28:34Z</time>
      </trkpt>
      <trkpt lat="45.96622" lon="7.1083">
        <ele>1709</ele>
        <time>2022-08-27T18:28:36Z</time>
      </trkpt>
      <trkpt lat="45.96623" lon="7.10831">
        <ele>1709</ele>
        <time>2022-08-27T18:28:38Z</time>
      </trkpt>
      <trkpt lat="45.96626" lon="7.10833">
        <ele>1709</ele>
        <time>2022-08-27T18:28:41Z</time>
      </trkpt>
      <trkpt lat="45.96628" lon="7.10836">
        <ele>1710</ele>
        <time>2022-08-27T18:28:43Z</time>
      </trkpt>
      <trkpt lat="45.96629" lon="7.10838">
        <ele>1710</ele>
        <time>2022-08-27T18:28:46Z</time>
      </trkpt>
      <trkpt lat="45.96631" lon="7.10841">
        <ele>1710</ele>
        <time>2022-08-27T18:28:48Z</time>
      </trkpt>
      <trkpt lat="45.96632" lon="7.10844">
        <ele>1710</ele>
        <time>2022-08-27T18:28:49Z</time>
      </trkpt>
      <trkpt lat="45.96632" lon="7.10846">
        <ele>1711</ele>
        <time>2022-08-27T18:28:51Z</time>
      </trkpt>
      <trkpt lat="45.96633" lon="7.10848">
        <ele>1711</ele>
        <time>2022-08-27T18:28:53Z</time>
      </trkpt>
      <trkpt lat="45.96634" lon="7.1085">
        <ele>1711</ele>
        <time>2022-08-27T18:28:55Z</time>
      </trkpt>
      <trkpt lat="45.96635" lon="7.10852">
        <ele>1711</ele>
        <time>2022-08-27T18:28:56Z</time>
      </trkpt>
      <trkpt lat="45.96635" lon="7.10854">
        <ele>1711</ele>
        <time>2022-08-27T18:28:57Z</time>
      </trkpt>
      <trkpt lat="45.96636" lon="7.10856">
        <ele>1711</ele>
        <time>2022-08-27T18:28:58Z</time>
      </trkpt>
      <trkpt lat="45.96638" lon="7.10859">
        <ele>1712</ele>
        <time>2022-08-27T18:29:00Z</time>
      </trkpt>
      <trkpt lat="45.96639" lon="7.10862">
        <ele>1712</ele>
        <time>2022-08-27T18:29:01Z</time>
      </trkpt>
      <trkpt lat="45.9664" lon="7.10863">
        <ele>1712</ele>
        <time>2022-08-27T18:29:02Z</time>
      </trkpt>
      <trkpt lat="45.9664" lon="7.10864">
        <ele>1712</ele>
        <time>2022-08-27T18:29:03Z</time>
      </trkpt>
      <trkpt lat="45.96641" lon="7.10866">
        <ele>1712</ele>
        <time>2022-08-27T18:29:04Z</time>
      </trkpt>
      <trkpt lat="45.96641" lon="7.10867">
        <ele>1712</ele>
        <time>2022-08-27T18:29:05Z</time>
      </trkpt>
      <trkpt lat="45.96642" lon="7.1087">
        <ele>1712</ele>
        <time>2022-08-27T18:29:07Z</time>
      </trkpt>
      <trkpt lat="45.96645" lon="7.10871">
        <ele>1712</ele>
        <time>2022-08-27T18:29:10Z</time>
      </trkpt>
      <trkpt lat="45.96647" lon="7.10874">
        <ele>1713</ele>
        <time>2022-08-27T18:29:13Z</time>
      </trkpt>
      <trkpt lat="45.96652" lon="7.10874">
        <ele>1713</ele>
        <time>2022-08-27T18:29:16Z</time>
      </trkpt>
      <trkpt lat="45.96654" lon="7.10876">
        <ele>1713</ele>
        <time>2022-08-27T18:29:18Z</time>
      </trkpt>
      <trkpt lat="45.96656" lon="7.10876">
        <ele>1713</ele>
        <time>2022-08-27T18:29:19Z</time>
      </trkpt>
      <trkpt lat="45.96659" lon="7.10877">
        <ele>1713</ele>
        <time>2022-08-27T18:29:21Z</time>
      </trkpt>
      <trkpt lat="45.96661" lon="7.10877">
        <ele>1714</ele>
        <time>2022-08-27T18:29:22Z</time>
      </trkpt>
      <trkpt lat="45.96663" lon="7.10879">
        <ele>1714</ele>
        <time>2022-08-27T18:29:24Z</time>
      </trkpt>
      <trkpt lat="45.96665" lon="7.10881">
        <ele>1714</ele>
        <time>2022-08-27T18:29:26Z</time>
      </trkpt>
      <trkpt lat="45.96667" lon="7.10882">
        <ele>1714</ele>
        <time>2022-08-27T18:29:28Z</time>
      </trkpt>
      <trkpt lat="45.96668" lon="7.10884">
        <ele>1715</ele>
        <time>2022-08-27T18:29:31Z</time>
      </trkpt>
      <trkpt lat="45.96671" lon="7.10885">
        <ele>1715</ele>
        <time>2022-08-27T18:29:34Z</time>
      </trkpt>
      <trkpt lat="45.96671" lon="7.10885">
        <ele>1715</ele>
        <time>2022-08-27T18:29:35Z</time>
      </trkpt>
      <trkpt lat="45.96672" lon="7.10885">
        <ele>1716</ele>
        <time>2022-08-27T18:29:36Z</time>
      </trkpt>
      <trkpt lat="45.96673" lon="7.10885">
        <ele>1716</ele>
        <time>2022-08-27T18:29:38Z</time>
      </trkpt>
      <trkpt lat="45.96673" lon="7.10885">
        <ele>1717</ele>
        <time>2022-08-27T18:29:39Z</time>
      </trkpt>
      <trkpt lat="45.96674" lon="7.10886">
        <ele>1717</ele>
        <time>2022-08-27T18:29:40Z</time>
      </trkpt>
      <trkpt lat="45.96674" lon="7.10886">
        <ele>1717</ele>
        <time>2022-08-27T18:29:41Z</time>
      </trkpt>
      <trkpt lat="45.96675" lon="7.10886">
        <ele>1718</ele>
        <time>2022-08-27T18:29:43Z</time>
      </trkpt>
      <trkpt lat="45.96676" lon="7.10886">
        <ele>1718</ele>
        <time>2022-08-27T18:29:44Z</time>
      </trkpt>
      <trkpt lat="45.96676" lon="7.10886">
        <ele>1718</ele>
        <time>2022-08-27T18:29:45Z</time>
      </trkpt>
      <trkpt lat="45.96677" lon="7.10886">
        <ele>1718</ele>
        <time>2022-08-27T18:29:46Z</time>
      </trkpt>
      <trkpt lat="45.96679" lon="7.10887">
        <ele>1718</ele>
        <time>2022-08-27T18:29:49Z</time>
      </trkpt>
      <trkpt lat="45.96681" lon="7.10888">
        <ele>1719</ele>
        <time>2022-08-27T18:29:50Z</time>
      </trkpt>
      <trkpt lat="45.96684" lon="7.10889">
        <ele>1719</ele>
        <time>2022-08-27T18:29:53Z</time>
      </trkpt>
      <trkpt lat="45.96685" lon="7.10889">
        <ele>1720</ele>
        <time>2022-08-27T18:29:54Z</time>
      </trkpt>
      <trkpt lat="45.96686" lon="7.1089">
        <ele>1720</ele>
        <time>2022-08-27T18:29:55Z</time>
      </trkpt>
      <trkpt lat="45.96687" lon="7.1089">
        <ele>1720</ele>
        <time>2022-08-27T18:29:56Z</time>
      </trkpt>
      <trkpt lat="45.96688" lon="7.10891">
        <ele>1720</ele>
        <time>2022-08-27T18:29:58Z</time>
      </trkpt>
      <trkpt lat="45.96689" lon="7.10891">
        <ele>1720</ele>
        <time>2022-08-27T18:29:59Z</time>
      </trkpt>
      <trkpt lat="45.9669" lon="7.10892">
        <ele>1720</ele>
        <time>2022-08-27T18:30:00Z</time>
      </trkpt>
      <trkpt lat="45.96691" lon="7.10892">
        <ele>1720</ele>
        <time>2022-08-27T18:30:01Z</time>
      </trkpt>
      <trkpt lat="45.96692" lon="7.10893">
        <ele>1720</ele>
        <time>2022-08-27T18:30:03Z</time>
      </trkpt>
      <trkpt lat="45.96693" lon="7.10893">
        <ele>1721</ele>
        <time>2022-08-27T18:30:04Z</time>
      </trkpt>
      <trkpt lat="45.96694" lon="7.10894">
        <ele>1721</ele>
        <time>2022-08-27T18:30:05Z</time>
      </trkpt>
      <trkpt lat="45.96695" lon="7.10894">
        <ele>1721</ele>
        <time>2022-08-27T18:30:07Z</time>
      </trkpt>
      <trkpt lat="45.96696" lon="7.10895">
        <ele>1721</ele>
        <time>2022-08-27T18:30:08Z</time>
      </trkpt>
      <trkpt lat="45.96698" lon="7.10897">
        <ele>1722</ele>
        <time>2022-08-27T18:30:10Z</time>
      </trkpt>
      <trkpt lat="45.96699" lon="7.10898">
        <ele>1722</ele>
        <time>2022-08-27T18:30:11Z</time>
      </trkpt>
      <trkpt lat="45.96699" lon="7.10898">
        <ele>1722</ele>
        <time>2022-08-27T18:30:13Z</time>
      </trkpt>
      <trkpt lat="45.967" lon="7.10899">
        <ele>1722</ele>
        <time>2022-08-27T18:30:14Z</time>
      </trkpt>
      <trkpt lat="45.96701" lon="7.10899">
        <ele>1722</ele>
        <time>2022-08-27T18:30:15Z</time>
      </trkpt>
      <trkpt lat="45.96702" lon="7.109">
        <ele>1723</ele>
        <time>2022-08-27T18:30:16Z</time>
      </trkpt>
      <trkpt lat="45.96703" lon="7.109">
        <ele>1723</ele>
        <time>2022-08-27T18:30:18Z</time>
      </trkpt>
      <trkpt lat="45.96704" lon="7.10901">
        <ele>1723</ele>
        <time>2022-08-27T18:30:20Z</time>
      </trkpt>
      <trkpt lat="45.96705" lon="7.10902">
        <ele>1724</ele>
        <time>2022-08-27T18:30:21Z</time>
      </trkpt>
      <trkpt lat="45.96706" lon="7.10902">
        <ele>1724</ele>
        <time>2022-08-27T18:30:22Z</time>
      </trkpt>
      <trkpt lat="45.96707" lon="7.10903">
        <ele>1724</ele>
        <time>2022-08-27T18:30:23Z</time>
      </trkpt>
      <trkpt lat="45.96708" lon="7.10903">
        <ele>1724</ele>
        <time>2022-08-27T18:30:25Z</time>
      </trkpt>
      <trkpt lat="45.96708" lon="7.10904">
        <ele>1724</ele>
        <time>2022-08-27T18:30:26Z</time>
      </trkpt>
      <trkpt lat="45.96712" lon="7.10906">
        <ele>1724</ele>
        <time>2022-08-27T18:30:28Z</time>
      </trkpt>
      <trkpt lat="45.96713" lon="7.10907">
        <ele>1725</ele>
        <time>2022-08-27T18:30:30Z</time>
      </trkpt>
      <trkpt lat="45.96715" lon="7.10908">
        <ele>1725</ele>
        <time>2022-08-27T18:30:32Z</time>
      </trkpt>
      <trkpt lat="45.96718" lon="7.1091">
        <ele>1725</ele>
        <time>2022-08-27T18:30:34Z</time>
      </trkpt>
      <trkpt lat="45.9672" lon="7.10911">
        <ele>1726</ele>
        <time>2022-08-27T18:30:37Z</time>
      </trkpt>
      <trkpt lat="45.96724" lon="7.10911">
        <ele>1727</ele>
        <time>2022-08-27T18:30:40Z</time>
      </trkpt>
      <trkpt lat="45.96725" lon="7.10911">
        <ele>1727</ele>
        <time>2022-08-27T18:30:41Z</time>
      </trkpt>
      <trkpt lat="45.96726" lon="7.10912">
        <ele>1727</ele>
        <time>2022-08-27T18:30:42Z</time>
      </trkpt>
      <trkpt lat="45.96727" lon="7.10912">
        <ele>1727</ele>
        <time>2022-08-27T18:30:43Z</time>
      </trkpt>
      <trkpt lat="45.96728" lon="7.10912">
        <ele>1727</ele>
        <time>2022-08-27T18:30:45Z</time>
      </trkpt>
      <trkpt lat="45.96729" lon="7.10913">
        <ele>1728</ele>
        <time>2022-08-27T18:30:47Z</time>
      </trkpt>
      <trkpt lat="45.9673" lon="7.10913">
        <ele>1728</ele>
        <time>2022-08-27T18:30:48Z</time>
      </trkpt>
      <trkpt lat="45.96733" lon="7.10914">
        <ele>1728</ele>
        <time>2022-08-27T18:30:50Z</time>
      </trkpt>
      <trkpt lat="45.96735" lon="7.10916">
        <ele>1729</ele>
        <time>2022-08-27T18:30:54Z</time>
      </trkpt>
      <trkpt lat="45.96737" lon="7.10916">
        <ele>1729</ele>
        <time>2022-08-27T18:30:57Z</time>
      </trkpt>
      <trkpt lat="45.96739" lon="7.10916">
        <ele>1729</ele>
        <time>2022-08-27T18:30:59Z</time>
      </trkpt>
      <trkpt lat="45.96741" lon="7.10916">
        <ele>1729</ele>
        <time>2022-08-27T18:31:01Z</time>
      </trkpt>
      <trkpt lat="45.96743" lon="7.10917">
        <ele>1730</ele>
        <time>2022-08-27T18:31:04Z</time>
      </trkpt>
      <trkpt lat="45.96744" lon="7.10918">
        <ele>1731</ele>
        <time>2022-08-27T18:31:06Z</time>
      </trkpt>
      <trkpt lat="45.96745" lon="7.10918">
        <ele>1731</ele>
        <time>2022-08-27T18:31:07Z</time>
      </trkpt>
      <trkpt lat="45.96746" lon="7.10918">
        <ele>1731</ele>
        <time>2022-08-27T18:31:08Z</time>
      </trkpt>
      <trkpt lat="45.96747" lon="7.10919">
        <ele>1731</ele>
        <time>2022-08-27T18:31:09Z</time>
      </trkpt>
      <trkpt lat="45.96748" lon="7.10919">
        <ele>1731</ele>
        <time>2022-08-27T18:31:11Z</time>
      </trkpt>
      <trkpt lat="45.96749" lon="7.10919">
        <ele>1731</ele>
        <time>2022-08-27T18:31:13Z</time>
      </trkpt>
      <trkpt lat="45.9675" lon="7.10919">
        <ele>1731</ele>
        <time>2022-08-27T18:31:14Z</time>
      </trkpt>
      <trkpt lat="45.9675" lon="7.1092">
        <ele>1731</ele>
        <time>2022-08-27T18:31:15Z</time>
      </trkpt>
      <trkpt lat="45.96751" lon="7.1092">
        <ele>1731</ele>
        <time>2022-08-27T18:31:16Z</time>
      </trkpt>
      <trkpt lat="45.96755" lon="7.10919">
        <ele>1732</ele>
        <time>2022-08-27T18:31:18Z</time>
      </trkpt>
      <trkpt lat="45.96759" lon="7.10922">
        <ele>1733</ele>
        <time>2022-08-27T18:31:23Z</time>
      </trkpt>
      <trkpt lat="45.96762" lon="7.10924">
        <ele>1733</ele>
        <time>2022-08-27T18:31:24Z</time>
      </trkpt>
      <trkpt lat="45.96764" lon="7.10926">
        <ele>1733</ele>
        <time>2022-08-27T18:31:26Z</time>
      </trkpt>
      <trkpt lat="45.96767" lon="7.10927">
        <ele>1734</ele>
        <time>2022-08-27T18:31:28Z</time>
      </trkpt>
      <trkpt lat="45.96769" lon="7.10928">
        <ele>1733</ele>
        <time>2022-08-27T18:31:30Z</time>
      </trkpt>
      <trkpt lat="45.96771" lon="7.10928">
        <ele>1733</ele>
        <time>2022-08-27T18:31:33Z</time>
      </trkpt>
      <trkpt lat="45.96773" lon="7.10929">
        <ele>1733</ele>
        <time>2022-08-27T18:31:35Z</time>
      </trkpt>
      <trkpt lat="45.96775" lon="7.10928">
        <ele>1734</ele>
        <time>2022-08-27T18:31:37Z</time>
      </trkpt>
      <trkpt lat="45.96777" lon="7.10929">
        <ele>1734</ele>
        <time>2022-08-27T18:31:38Z</time>
      </trkpt>
      <trkpt lat="45.96779" lon="7.1093">
        <ele>1735</ele>
        <time>2022-08-27T18:31:41Z</time>
      </trkpt>
      <trkpt lat="45.9678" lon="7.1093">
        <ele>1736</ele>
        <time>2022-08-27T18:31:44Z</time>
      </trkpt>
      <trkpt lat="45.96781" lon="7.1093">
        <ele>1736</ele>
        <time>2022-08-27T18:31:46Z</time>
      </trkpt>
      <trkpt lat="45.96782" lon="7.1093">
        <ele>1736</ele>
        <time>2022-08-27T18:31:47Z</time>
      </trkpt>
      <trkpt lat="45.96783" lon="7.1093">
        <ele>1736</ele>
        <time>2022-08-27T18:31:48Z</time>
      </trkpt>
      <trkpt lat="45.96784" lon="7.10929">
        <ele>1736</ele>
        <time>2022-08-27T18:31:49Z</time>
      </trkpt>
      <trkpt lat="45.96784" lon="7.10929">
        <ele>1736</ele>
        <time>2022-08-27T18:31:51Z</time>
      </trkpt>
      <trkpt lat="45.96785" lon="7.10929">
        <ele>1736</ele>
        <time>2022-08-27T18:31:52Z</time>
      </trkpt>
      <trkpt lat="45.96786" lon="7.10929">
        <ele>1737</ele>
        <time>2022-08-27T18:31:53Z</time>
      </trkpt>
      <trkpt lat="45.96787" lon="7.10929">
        <ele>1737</ele>
        <time>2022-08-27T18:31:54Z</time>
      </trkpt>
      <trkpt lat="45.96788" lon="7.10929">
        <ele>1737</ele>
        <time>2022-08-27T18:31:55Z</time>
      </trkpt>
      <trkpt lat="45.96789" lon="7.10929">
        <ele>1737</ele>
        <time>2022-08-27T18:31:56Z</time>
      </trkpt>
      <trkpt lat="45.9679" lon="7.1093">
        <ele>1737</ele>
        <time>2022-08-27T18:31:57Z</time>
      </trkpt>
      <trkpt lat="45.96792" lon="7.1093">
        <ele>1737</ele>
        <time>2022-08-27T18:31:58Z</time>
      </trkpt>
      <trkpt lat="45.96793" lon="7.10931">
        <ele>1737</ele>
        <time>2022-08-27T18:31:59Z</time>
      </trkpt>
      <trkpt lat="45.96796" lon="7.10932">
        <ele>1737</ele>
        <time>2022-08-27T18:32:00Z</time>
      </trkpt>
      <trkpt lat="45.96797" lon="7.1093">
        <ele>1738</ele>
        <time>2022-08-27T18:32:04Z</time>
      </trkpt>
      <trkpt lat="45.96799" lon="7.10929">
        <ele>1739</ele>
        <time>2022-08-27T18:32:07Z</time>
      </trkpt>
      <trkpt lat="45.96801" lon="7.10928">
        <ele>1739</ele>
        <time>2022-08-27T18:32:08Z</time>
      </trkpt>
      <trkpt lat="45.96803" lon="7.10927">
        <ele>1740</ele>
        <time>2022-08-27T18:32:10Z</time>
      </trkpt>
      <trkpt lat="45.96806" lon="7.10926">
        <ele>1740</ele>
        <time>2022-08-27T18:32:12Z</time>
      </trkpt>
      <trkpt lat="45.96807" lon="7.10925">
        <ele>1741</ele>
        <time>2022-08-27T18:32:15Z</time>
      </trkpt>
      <trkpt lat="45.96808" lon="7.10925">
        <ele>1741</ele>
        <time>2022-08-27T18:32:16Z</time>
      </trkpt>
      <trkpt lat="45.96809" lon="7.10925">
        <ele>1741</ele>
        <time>2022-08-27T18:32:17Z</time>
      </trkpt>
      <trkpt lat="45.9681" lon="7.10924">
        <ele>1741</ele>
        <time>2022-08-27T18:32:18Z</time>
      </trkpt>
      <trkpt lat="45.96811" lon="7.10924">
        <ele>1742</ele>
        <time>2022-08-27T18:32:20Z</time>
      </trkpt>
      <trkpt lat="45.96811" lon="7.10923">
        <ele>1742</ele>
        <time>2022-08-27T18:32:22Z</time>
      </trkpt>
      <trkpt lat="45.96812" lon="7.10923">
        <ele>1742</ele>
        <time>2022-08-27T18:32:23Z</time>
      </trkpt>
      <trkpt lat="45.96813" lon="7.10922">
        <ele>1742</ele>
        <time>2022-08-27T18:32:24Z</time>
      </trkpt>
      <trkpt lat="45.96814" lon="7.10922">
        <ele>1742</ele>
        <time>2022-08-27T18:32:25Z</time>
      </trkpt>
      <trkpt lat="45.96815" lon="7.10921">
        <ele>1742</ele>
        <time>2022-08-27T18:32:26Z</time>
      </trkpt>
      <trkpt lat="45.96816" lon="7.10921">
        <ele>1743</ele>
        <time>2022-08-27T18:32:27Z</time>
      </trkpt>
      <trkpt lat="45.96817" lon="7.1092">
        <ele>1743</ele>
        <time>2022-08-27T18:32:28Z</time>
      </trkpt>
      <trkpt lat="45.96818" lon="7.1092">
        <ele>1744</ele>
        <time>2022-08-27T18:32:29Z</time>
      </trkpt>
      <trkpt lat="45.96819" lon="7.10919">
        <ele>1744</ele>
        <time>2022-08-27T18:32:30Z</time>
      </trkpt>
      <trkpt lat="45.9682" lon="7.10919">
        <ele>1744</ele>
        <time>2022-08-27T18:32:31Z</time>
      </trkpt>
      <trkpt lat="45.96821" lon="7.10918">
        <ele>1744</ele>
        <time>2022-08-27T18:32:32Z</time>
      </trkpt>
      <trkpt lat="45.96822" lon="7.10918">
        <ele>1745</ele>
        <time>2022-08-27T18:32:33Z</time>
      </trkpt>
      <trkpt lat="45.96823" lon="7.10917">
        <ele>1745</ele>
        <time>2022-08-27T18:32:35Z</time>
      </trkpt>
      <trkpt lat="45.96824" lon="7.10917">
        <ele>1745</ele>
        <time>2022-08-27T18:32:36Z</time>
      </trkpt>
      <trkpt lat="45.96825" lon="7.10916">
        <ele>1745</ele>
        <time>2022-08-27T18:32:37Z</time>
      </trkpt>
      <trkpt lat="45.96826" lon="7.10917">
        <ele>1745</ele>
        <time>2022-08-27T18:32:39Z</time>
      </trkpt>
      <trkpt lat="45.96827" lon="7.10917">
        <ele>1745</ele>
        <time>2022-08-27T18:32:40Z</time>
      </trkpt>
      <trkpt lat="45.96828" lon="7.10917">
        <ele>1745</ele>
        <time>2022-08-27T18:32:41Z</time>
      </trkpt>
      <trkpt lat="45.9683" lon="7.10917">
        <ele>1745</ele>
        <time>2022-08-27T18:32:43Z</time>
      </trkpt>
      <trkpt lat="45.96831" lon="7.10917">
        <ele>1745</ele>
        <time>2022-08-27T18:32:44Z</time>
      </trkpt>
      <trkpt lat="45.96832" lon="7.10917">
        <ele>1745</ele>
        <time>2022-08-27T18:32:45Z</time>
      </trkpt>
      <trkpt lat="45.96834" lon="7.10917">
        <ele>1745</ele>
        <time>2022-08-27T18:32:46Z</time>
      </trkpt>
      <trkpt lat="45.96835" lon="7.10918">
        <ele>1745</ele>
        <time>2022-08-27T18:32:47Z</time>
      </trkpt>
      <trkpt lat="45.96836" lon="7.10918">
        <ele>1745</ele>
        <time>2022-08-27T18:32:48Z</time>
      </trkpt>
      <trkpt lat="45.96838" lon="7.10918">
        <ele>1745</ele>
        <time>2022-08-27T18:32:49Z</time>
      </trkpt>
      <trkpt lat="45.96839" lon="7.10918">
        <ele>1745</ele>
        <time>2022-08-27T18:32:51Z</time>
      </trkpt>
      <trkpt lat="45.9684" lon="7.10919">
        <ele>1745</ele>
        <time>2022-08-27T18:32:52Z</time>
      </trkpt>
      <trkpt lat="45.96841" lon="7.10919">
        <ele>1745</ele>
        <time>2022-08-27T18:32:53Z</time>
      </trkpt>
      <trkpt lat="45.96843" lon="7.10919">
        <ele>1745</ele>
        <time>2022-08-27T18:32:54Z</time>
      </trkpt>
      <trkpt lat="45.96846" lon="7.1092">
        <ele>1745</ele>
        <time>2022-08-27T18:32:56Z</time>
      </trkpt>
      <trkpt lat="45.96848" lon="7.10921">
        <ele>1746</ele>
        <time>2022-08-27T18:32:59Z</time>
      </trkpt>
      <trkpt lat="45.96851" lon="7.10923">
        <ele>1746</ele>
        <time>2022-08-27T18:33:02Z</time>
      </trkpt>
      <trkpt lat="45.96856" lon="7.10927">
        <ele>1746</ele>
        <time>2022-08-27T18:33:08Z</time>
      </trkpt>
      <trkpt lat="45.96857" lon="7.10927">
        <ele>1746</ele>
        <time>2022-08-27T18:33:09Z</time>
      </trkpt>
      <trkpt lat="45.96858" lon="7.10927">
        <ele>1746</ele>
        <time>2022-08-27T18:33:10Z</time>
      </trkpt>
      <trkpt lat="45.9686" lon="7.10928">
        <ele>1746</ele>
        <time>2022-08-27T18:33:11Z</time>
      </trkpt>
      <trkpt lat="45.96861" lon="7.10928">
        <ele>1746</ele>
        <time>2022-08-27T18:33:13Z</time>
      </trkpt>
      <trkpt lat="45.96862" lon="7.10928">
        <ele>1746</ele>
        <time>2022-08-27T18:33:14Z</time>
      </trkpt>
      <trkpt lat="45.96863" lon="7.10929">
        <ele>1747</ele>
        <time>2022-08-27T18:33:15Z</time>
      </trkpt>
      <trkpt lat="45.96864" lon="7.10929">
        <ele>1747</ele>
        <time>2022-08-27T18:33:16Z</time>
      </trkpt>
      <trkpt lat="45.96865" lon="7.1093">
        <ele>1747</ele>
        <time>2022-08-27T18:33:17Z</time>
      </trkpt>
      <trkpt lat="45.96867" lon="7.10929">
        <ele>1747</ele>
        <time>2022-08-27T18:33:18Z</time>
      </trkpt>
      <trkpt lat="45.96868" lon="7.10929">
        <ele>1747</ele>
        <time>2022-08-27T18:33:19Z</time>
      </trkpt>
      <trkpt lat="45.96869" lon="7.10928">
        <ele>1747</ele>
        <time>2022-08-27T18:33:21Z</time>
      </trkpt>
      <trkpt lat="45.9687" lon="7.10928">
        <ele>1747</ele>
        <time>2022-08-27T18:33:22Z</time>
      </trkpt>
      <trkpt lat="45.96871" lon="7.10927">
        <ele>1747</ele>
        <time>2022-08-27T18:33:23Z</time>
      </trkpt>
      <trkpt lat="45.96872" lon="7.10927">
        <ele>1747</ele>
        <time>2022-08-27T18:33:24Z</time>
      </trkpt>
      <trkpt lat="45.96873" lon="7.10926">
        <ele>1747</ele>
        <time>2022-08-27T18:33:26Z</time>
      </trkpt>
      <trkpt lat="45.96874" lon="7.10926">
        <ele>1747</ele>
        <time>2022-08-27T18:33:27Z</time>
      </trkpt>
      <trkpt lat="45.96875" lon="7.10926">
        <ele>1747</ele>
        <time>2022-08-27T18:33:28Z</time>
      </trkpt>
      <trkpt lat="45.96876" lon="7.10926">
        <ele>1747</ele>
        <time>2022-08-27T18:33:29Z</time>
      </trkpt>
      <trkpt lat="45.96878" lon="7.10926">
        <ele>1747</ele>
        <time>2022-08-27T18:33:31Z</time>
      </trkpt>
      <trkpt lat="45.96879" lon="7.10926">
        <ele>1747</ele>
        <time>2022-08-27T18:33:32Z</time>
      </trkpt>
      <trkpt lat="45.9688" lon="7.10926">
        <ele>1747</ele>
        <time>2022-08-27T18:33:33Z</time>
      </trkpt>
      <trkpt lat="45.96881" lon="7.10927">
        <ele>1747</ele>
        <time>2022-08-27T18:33:34Z</time>
      </trkpt>
      <trkpt lat="45.96882" lon="7.10927">
        <ele>1747</ele>
        <time>2022-08-27T18:33:36Z</time>
      </trkpt>
      <trkpt lat="45.96883" lon="7.10927">
        <ele>1747</ele>
        <time>2022-08-27T18:33:37Z</time>
      </trkpt>
      <trkpt lat="45.96885" lon="7.10927">
        <ele>1747</ele>
        <time>2022-08-27T18:33:38Z</time>
      </trkpt>
      <trkpt lat="45.96887" lon="7.10927">
        <ele>1747</ele>
        <time>2022-08-27T18:33:39Z</time>
      </trkpt>
      <trkpt lat="45.96889" lon="7.10928">
        <ele>1747</ele>
        <time>2022-08-27T18:33:40Z</time>
      </trkpt>
      <trkpt lat="45.9689" lon="7.10928">
        <ele>1747</ele>
        <time>2022-08-27T18:33:41Z</time>
      </trkpt>
      <trkpt lat="45.96892" lon="7.10928">
        <ele>1747</ele>
        <time>2022-08-27T18:33:42Z</time>
      </trkpt>
      <trkpt lat="45.96894" lon="7.10928">
        <ele>1747</ele>
        <time>2022-08-27T18:33:45Z</time>
      </trkpt>
      <trkpt lat="45.96895" lon="7.10927">
        <ele>1747</ele>
        <time>2022-08-27T18:33:47Z</time>
      </trkpt>
      <trkpt lat="45.96897" lon="7.10927">
        <ele>1747</ele>
        <time>2022-08-27T18:33:49Z</time>
      </trkpt>
      <trkpt lat="45.96898" lon="7.10927">
        <ele>1747</ele>
        <time>2022-08-27T18:33:50Z</time>
      </trkpt>
      <trkpt lat="45.96899" lon="7.10927">
        <ele>1747</ele>
        <time>2022-08-27T18:33:51Z</time>
      </trkpt>
      <trkpt lat="45.96901" lon="7.10927">
        <ele>1747</ele>
        <time>2022-08-27T18:33:52Z</time>
      </trkpt>
      <trkpt lat="45.96902" lon="7.10927">
        <ele>1747</ele>
        <time>2022-08-27T18:33:54Z</time>
      </trkpt>
      <trkpt lat="45.96903" lon="7.10927">
        <ele>1747</ele>
        <time>2022-08-27T18:33:55Z</time>
      </trkpt>
      <trkpt lat="45.96905" lon="7.10926">
        <ele>1747</ele>
        <time>2022-08-27T18:33:56Z</time>
      </trkpt>
      <trkpt lat="45.96906" lon="7.10925">
        <ele>1747</ele>
        <time>2022-08-27T18:33:57Z</time>
      </trkpt>
      <trkpt lat="45.96907" lon="7.10924">
        <ele>1747</ele>
        <time>2022-08-27T18:33:59Z</time>
      </trkpt>
      <trkpt lat="45.96908" lon="7.10923">
        <ele>1747</ele>
        <time>2022-08-27T18:34:00Z</time>
      </trkpt>
      <trkpt lat="45.96909" lon="7.10922">
        <ele>1747</ele>
        <time>2022-08-27T18:34:01Z</time>
      </trkpt>
      <trkpt lat="45.96911" lon="7.10922">
        <ele>1747</ele>
        <time>2022-08-27T18:34:02Z</time>
      </trkpt>
      <trkpt lat="45.96912" lon="7.10921">
        <ele>1747</ele>
        <time>2022-08-27T18:34:03Z</time>
      </trkpt>
      <trkpt lat="45.96913" lon="7.1092">
        <ele>1747</ele>
        <time>2022-08-27T18:34:04Z</time>
      </trkpt>
      <trkpt lat="45.96915" lon="7.10919">
        <ele>1747</ele>
        <time>2022-08-27T18:34:05Z</time>
      </trkpt>
      <trkpt lat="45.96916" lon="7.10919">
        <ele>1747</ele>
        <time>2022-08-27T18:34:06Z</time>
      </trkpt>
      <trkpt lat="45.96918" lon="7.10919">
        <ele>1747</ele>
        <time>2022-08-27T18:34:07Z</time>
      </trkpt>
      <trkpt lat="45.96919" lon="7.10919">
        <ele>1748</ele>
        <time>2022-08-27T18:34:09Z</time>
      </trkpt>
      <trkpt lat="45.96921" lon="7.10918">
        <ele>1748</ele>
        <time>2022-08-27T18:34:10Z</time>
      </trkpt>
      <trkpt lat="45.96923" lon="7.10918">
        <ele>1748</ele>
        <time>2022-08-27T18:34:11Z</time>
      </trkpt>
      <trkpt lat="45.96926" lon="7.10917">
        <ele>1748</ele>
        <time>2022-08-27T18:34:13Z</time>
      </trkpt>
      <trkpt lat="45.96929" lon="7.10915">
        <ele>1747</ele>
        <time>2022-08-27T18:34:15Z</time>
      </trkpt>
      <trkpt lat="45.96932" lon="7.10917">
        <ele>1746</ele>
        <time>2022-08-27T18:34:17Z</time>
      </trkpt>
      <trkpt lat="45.9694" lon="7.10925">
        <ele>1746</ele>
        <time>2022-08-27T18:34:29Z</time>
      </trkpt>
      <trkpt lat="45.9695" lon="7.10927">
        <ele>1743</ele>
        <time>2022-08-27T18:34:37Z</time>
      </trkpt>
      <trkpt lat="45.96951" lon="7.10928">
        <ele>1743</ele>
        <time>2022-08-27T18:34:38Z</time>
      </trkpt>
      <trkpt lat="45.96953" lon="7.10929">
        <ele>1743</ele>
        <time>2022-08-27T18:34:39Z</time>
      </trkpt>
      <trkpt lat="45.96955" lon="7.1093">
        <ele>1742</ele>
        <time>2022-08-27T18:34:40Z</time>
      </trkpt>
      <trkpt lat="45.96957" lon="7.10931">
        <ele>1742</ele>
        <time>2022-08-27T18:34:42Z</time>
      </trkpt>
      <trkpt lat="45.96958" lon="7.10932">
        <ele>1742</ele>
        <time>2022-08-27T18:34:43Z</time>
      </trkpt>
      <trkpt lat="45.96967" lon="7.10939">
        <ele>1741</ele>
        <time>2022-08-27T18:34:52Z</time>
      </trkpt>
      <trkpt lat="45.96968" lon="7.1094">
        <ele>1740</ele>
        <time>2022-08-27T18:34:54Z</time>
      </trkpt>
      <trkpt lat="45.96969" lon="7.10941">
        <ele>1741</ele>
        <time>2022-08-27T18:34:55Z</time>
      </trkpt>
      <trkpt lat="45.96971" lon="7.10942">
        <ele>1741</ele>
        <time>2022-08-27T18:34:56Z</time>
      </trkpt>
      <trkpt lat="45.96972" lon="7.10943">
        <ele>1741</ele>
        <time>2022-08-27T18:34:57Z</time>
      </trkpt>
      <trkpt lat="45.96973" lon="7.10944">
        <ele>1740</ele>
        <time>2022-08-27T18:34:59Z</time>
      </trkpt>
      <trkpt lat="45.96975" lon="7.10945">
        <ele>1740</ele>
        <time>2022-08-27T18:35:00Z</time>
      </trkpt>
      <trkpt lat="45.96976" lon="7.10946">
        <ele>1740</ele>
        <time>2022-08-27T18:35:01Z</time>
      </trkpt>
      <trkpt lat="45.96986" lon="7.1095">
        <ele>1739</ele>
        <time>2022-08-27T18:35:06Z</time>
      </trkpt>
      <trkpt lat="45.96988" lon="7.10951">
        <ele>1739</ele>
        <time>2022-08-27T18:35:07Z</time>
      </trkpt>
      <trkpt lat="45.96989" lon="7.10952">
        <ele>1738</ele>
        <time>2022-08-27T18:35:08Z</time>
      </trkpt>
      <trkpt lat="45.96991" lon="7.10953">
        <ele>1738</ele>
        <time>2022-08-27T18:35:09Z</time>
      </trkpt>
      <trkpt lat="45.96992" lon="7.10953">
        <ele>1738</ele>
        <time>2022-08-27T18:35:11Z</time>
      </trkpt>
      <trkpt lat="45.96994" lon="7.10954">
        <ele>1738</ele>
        <time>2022-08-27T18:35:12Z</time>
      </trkpt>
      <trkpt lat="45.96996" lon="7.10955">
        <ele>1738</ele>
        <time>2022-08-27T18:35:13Z</time>
      </trkpt>
      <trkpt lat="45.96998" lon="7.10956">
        <ele>1737</ele>
        <time>2022-08-27T18:35:14Z</time>
      </trkpt>
      <trkpt lat="45.97" lon="7.10956">
        <ele>1737</ele>
        <time>2022-08-27T18:35:15Z</time>
      </trkpt>
      <trkpt lat="45.97002" lon="7.10957">
        <ele>1737</ele>
        <time>2022-08-27T18:35:16Z</time>
      </trkpt>
      <trkpt lat="45.97004" lon="7.10958">
        <ele>1737</ele>
        <time>2022-08-27T18:35:18Z</time>
      </trkpt>
      <trkpt lat="45.97006" lon="7.10959">
        <ele>1737</ele>
        <time>2022-08-27T18:35:19Z</time>
      </trkpt>
      <trkpt lat="45.97016" lon="7.10959">
        <ele>1736</ele>
        <time>2022-08-27T18:35:25Z</time>
      </trkpt>
      <trkpt lat="45.97019" lon="7.10959">
        <ele>1736</ele>
        <time>2022-08-27T18:35:26Z</time>
      </trkpt>
      <trkpt lat="45.97022" lon="7.1096">
        <ele>1736</ele>
        <time>2022-08-27T18:35:28Z</time>
      </trkpt>
      <trkpt lat="45.97022" lon="7.10961">
        <ele>1736</ele>
        <time>2022-08-27T18:35:30Z</time>
      </trkpt>
      <trkpt lat="45.97023" lon="7.10962">
        <ele>1734</ele>
        <time>2022-08-27T18:35:32Z</time>
      </trkpt>
      <trkpt lat="45.97024" lon="7.10962">
        <ele>1734</ele>
        <time>2022-08-27T18:35:33Z</time>
      </trkpt>
      <trkpt lat="45.97025" lon="7.10963">
        <ele>1733</ele>
        <time>2022-08-27T18:35:34Z</time>
      </trkpt>
      <trkpt lat="45.97025" lon="7.10964">
        <ele>1733</ele>
        <time>2022-08-27T18:35:35Z</time>
      </trkpt>
      <trkpt lat="45.97026" lon="7.10964">
        <ele>1733</ele>
        <time>2022-08-27T18:35:36Z</time>
      </trkpt>
      <trkpt lat="45.97028" lon="7.10966">
        <ele>1732</ele>
        <time>2022-08-27T18:35:37Z</time>
      </trkpt>
      <trkpt lat="45.97031" lon="7.10966">
        <ele>1732</ele>
        <time>2022-08-27T18:35:38Z</time>
      </trkpt>
      <trkpt lat="45.97032" lon="7.10965">
        <ele>1732</ele>
        <time>2022-08-27T18:35:39Z</time>
      </trkpt>
      <trkpt lat="45.97034" lon="7.10965">
        <ele>1732</ele>
        <time>2022-08-27T18:35:40Z</time>
      </trkpt>
      <trkpt lat="45.97036" lon="7.10964">
        <ele>1732</ele>
        <time>2022-08-27T18:35:41Z</time>
      </trkpt>
      <trkpt lat="45.97038" lon="7.10963">
        <ele>1732</ele>
        <time>2022-08-27T18:35:42Z</time>
      </trkpt>
      <trkpt lat="45.9704" lon="7.10962">
        <ele>1731</ele>
        <time>2022-08-27T18:35:43Z</time>
      </trkpt>
      <trkpt lat="45.97042" lon="7.10962">
        <ele>1731</ele>
        <time>2022-08-27T18:35:46Z</time>
      </trkpt>
      <trkpt lat="45.97044" lon="7.1096">
        <ele>1731</ele>
        <time>2022-08-27T18:35:47Z</time>
      </trkpt>
      <trkpt lat="45.97046" lon="7.10958">
        <ele>1731</ele>
        <time>2022-08-27T18:35:48Z</time>
      </trkpt>
      <trkpt lat="45.97048" lon="7.10957">
        <ele>1731</ele>
        <time>2022-08-27T18:35:51Z</time>
      </trkpt>
      <trkpt lat="45.9705" lon="7.10956">
        <ele>1731</ele>
        <time>2022-08-27T18:35:53Z</time>
      </trkpt>
      <trkpt lat="45.97052" lon="7.10956">
        <ele>1731</ele>
        <time>2022-08-27T18:35:54Z</time>
      </trkpt>
      <trkpt lat="45.97055" lon="7.10955">
        <ele>1731</ele>
        <time>2022-08-27T18:35:55Z</time>
      </trkpt>
      <trkpt lat="45.97057" lon="7.10954">
        <ele>1731</ele>
        <time>2022-08-27T18:35:56Z</time>
      </trkpt>
      <trkpt lat="45.97058" lon="7.10953">
        <ele>1731</ele>
        <time>2022-08-27T18:35:58Z</time>
      </trkpt>
      <trkpt lat="45.9706" lon="7.10952">
        <ele>1731</ele>
        <time>2022-08-27T18:35:59Z</time>
      </trkpt>
      <trkpt lat="45.97062" lon="7.10951">
        <ele>1730</ele>
        <time>2022-08-27T18:36:00Z</time>
      </trkpt>
      <trkpt lat="45.97064" lon="7.1095">
        <ele>1730</ele>
        <time>2022-08-27T18:36:01Z</time>
      </trkpt>
      <trkpt lat="45.97066" lon="7.10948">
        <ele>1730</ele>
        <time>2022-08-27T18:36:03Z</time>
      </trkpt>
      <trkpt lat="45.97068" lon="7.10946">
        <ele>1730</ele>
        <time>2022-08-27T18:36:04Z</time>
      </trkpt>
      <trkpt lat="45.9707" lon="7.10944">
        <ele>1730</ele>
        <time>2022-08-27T18:36:05Z</time>
      </trkpt>
      <trkpt lat="45.97072" lon="7.10942">
        <ele>1730</ele>
        <time>2022-08-27T18:36:06Z</time>
      </trkpt>
      <trkpt lat="45.97078" lon="7.10954">
        <ele>1731</ele>
        <time>2022-08-27T18:36:17Z</time>
      </trkpt>
      <trkpt lat="45.97079" lon="7.10956">
        <ele>1731</ele>
        <time>2022-08-27T18:36:18Z</time>
      </trkpt>
      <trkpt lat="45.97079" lon="7.10958">
        <ele>1731</ele>
        <time>2022-08-27T18:36:19Z</time>
      </trkpt>
      <trkpt lat="45.97079" lon="7.1096">
        <ele>1731</ele>
        <time>2022-08-27T18:36:20Z</time>
      </trkpt>
      <trkpt lat="45.9708" lon="7.10962">
        <ele>1731</ele>
        <time>2022-08-27T18:36:21Z</time>
      </trkpt>
      <trkpt lat="45.9708" lon="7.10963">
        <ele>1731</ele>
        <time>2022-08-27T18:36:22Z</time>
      </trkpt>
      <trkpt lat="45.97081" lon="7.10966">
        <ele>1731</ele>
        <time>2022-08-27T18:36:24Z</time>
      </trkpt>
      <trkpt lat="45.97081" lon="7.10968">
        <ele>1731</ele>
        <time>2022-08-27T18:36:25Z</time>
      </trkpt>
      <trkpt lat="45.97082" lon="7.10969">
        <ele>1731</ele>
        <time>2022-08-27T18:36:27Z</time>
      </trkpt>
      <trkpt lat="45.97082" lon="7.10971">
        <ele>1731</ele>
        <time>2022-08-27T18:36:29Z</time>
      </trkpt>
      <trkpt lat="45.97082" lon="7.10973">
        <ele>1730</ele>
        <time>2022-08-27T18:36:30Z</time>
      </trkpt>
      <trkpt lat="45.97082" lon="7.10975">
        <ele>1730</ele>
        <time>2022-08-27T18:36:31Z</time>
      </trkpt>
      <trkpt lat="45.97082" lon="7.10977">
        <ele>1730</ele>
        <time>2022-08-27T18:36:32Z</time>
      </trkpt>
      <trkpt lat="45.97082" lon="7.10979">
        <ele>1730</ele>
        <time>2022-08-27T18:36:33Z</time>
      </trkpt>
      <trkpt lat="45.97082" lon="7.1098">
        <ele>1730</ele>
        <time>2022-08-27T18:36:34Z</time>
      </trkpt>
      <trkpt lat="45.97082" lon="7.10982">
        <ele>1730</ele>
        <time>2022-08-27T18:36:35Z</time>
      </trkpt>
      <trkpt lat="45.97083" lon="7.10983">
        <ele>1729</ele>
        <time>2022-08-27T18:36:36Z</time>
      </trkpt>
      <trkpt lat="45.97083" lon="7.10985">
        <ele>1729</ele>
        <time>2022-08-27T18:36:37Z</time>
      </trkpt>
      <trkpt lat="45.97083" lon="7.10986">
        <ele>1729</ele>
        <time>2022-08-27T18:36:39Z</time>
      </trkpt>
      <trkpt lat="45.97084" lon="7.10987">
        <ele>1729</ele>
        <time>2022-08-27T18:36:40Z</time>
      </trkpt>
      <trkpt lat="45.97086" lon="7.10994">
        <ele>1729</ele>
        <time>2022-08-27T18:36:41Z</time>
      </trkpt>
      <trkpt lat="45.97092" lon="7.11004">
        <ele>1728</ele>
        <time>2022-08-27T18:36:47Z</time>
      </trkpt>
      <trkpt lat="45.97093" lon="7.11005">
        <ele>1727</ele>
        <time>2022-08-27T18:36:50Z</time>
      </trkpt>
      <trkpt lat="45.97094" lon="7.11007">
        <ele>1726</ele>
        <time>2022-08-27T18:36:52Z</time>
      </trkpt>
      <trkpt lat="45.97095" lon="7.11008">
        <ele>1726</ele>
        <time>2022-08-27T18:36:53Z</time>
      </trkpt>
      <trkpt lat="45.97096" lon="7.11009">
        <ele>1726</ele>
        <time>2022-08-27T18:36:54Z</time>
      </trkpt>
      <trkpt lat="45.97097" lon="7.1101">
        <ele>1725</ele>
        <time>2022-08-27T18:36:55Z</time>
      </trkpt>
      <trkpt lat="45.97098" lon="7.11011">
        <ele>1725</ele>
        <time>2022-08-27T18:36:56Z</time>
      </trkpt>
      <trkpt lat="45.97099" lon="7.11012">
        <ele>1724</ele>
        <time>2022-08-27T18:36:57Z</time>
      </trkpt>
      <trkpt lat="45.97106" lon="7.11021">
        <ele>1722</ele>
        <time>2022-08-27T18:37:05Z</time>
      </trkpt>
      <trkpt lat="45.97104" lon="7.11025">
        <ele>1721</ele>
        <time>2022-08-27T18:37:11Z</time>
      </trkpt>
      <trkpt lat="45.97095" lon="7.11026">
        <ele>1718</ele>
        <time>2022-08-27T18:37:19Z</time>
      </trkpt>
      <trkpt lat="45.97093" lon="7.11025">
        <ele>1718</ele>
        <time>2022-08-27T18:37:21Z</time>
      </trkpt>
      <trkpt lat="45.9709" lon="7.11024">
        <ele>1718</ele>
        <time>2022-08-27T18:37:23Z</time>
      </trkpt>
      <trkpt lat="45.97088" lon="7.11024">
        <ele>1718</ele>
        <time>2022-08-27T18:37:25Z</time>
      </trkpt>
      <trkpt lat="45.97085" lon="7.11023">
        <ele>1716</ele>
        <time>2022-08-27T18:37:27Z</time>
      </trkpt>
      <trkpt lat="45.97083" lon="7.11023">
        <ele>1716</ele>
        <time>2022-08-27T18:37:30Z</time>
      </trkpt>
      <trkpt lat="45.97081" lon="7.11023">
        <ele>1714</ele>
        <time>2022-08-27T18:37:33Z</time>
      </trkpt>
      <trkpt lat="45.97083" lon="7.11024">
        <ele>1713</ele>
        <time>2022-08-27T18:37:36Z</time>
      </trkpt>
      <trkpt lat="45.97085" lon="7.11026">
        <ele>1712</ele>
        <time>2022-08-27T18:37:40Z</time>
      </trkpt>
      <trkpt lat="45.97087" lon="7.11028">
        <ele>1712</ele>
        <time>2022-08-27T18:37:42Z</time>
      </trkpt>
      <trkpt lat="45.97089" lon="7.11031">
        <ele>1711</ele>
        <time>2022-08-27T18:37:46Z</time>
      </trkpt>
      <trkpt lat="45.97089" lon="7.11032">
        <ele>1710</ele>
        <time>2022-08-27T18:37:48Z</time>
      </trkpt>
      <trkpt lat="45.97089" lon="7.11033">
        <ele>1710</ele>
        <time>2022-08-27T18:37:49Z</time>
      </trkpt>
      <trkpt lat="45.97089" lon="7.11034">
        <ele>1710</ele>
        <time>2022-08-27T18:37:50Z</time>
      </trkpt>
      <trkpt lat="45.97089" lon="7.11035">
        <ele>1708</ele>
        <time>2022-08-27T18:37:52Z</time>
      </trkpt>
      <trkpt lat="45.97089" lon="7.11036">
        <ele>1708</ele>
        <time>2022-08-27T18:37:53Z</time>
      </trkpt>
      <trkpt lat="45.97089" lon="7.11037">
        <ele>1708</ele>
        <time>2022-08-27T18:37:54Z</time>
      </trkpt>
      <trkpt lat="45.97089" lon="7.11038">
        <ele>1708</ele>
        <time>2022-08-27T18:37:55Z</time>
      </trkpt>
      <trkpt lat="45.97089" lon="7.11039">
        <ele>1707</ele>
        <time>2022-08-27T18:37:57Z</time>
      </trkpt>
      <trkpt lat="45.97089" lon="7.1104">
        <ele>1707</ele>
        <time>2022-08-27T18:37:58Z</time>
      </trkpt>
      <trkpt lat="45.97089" lon="7.11042">
        <ele>1707</ele>
        <time>2022-08-27T18:37:59Z</time>
      </trkpt>
      <trkpt lat="45.97089" lon="7.11043">
        <ele>1706</ele>
        <time>2022-08-27T18:38:00Z</time>
      </trkpt>
      <trkpt lat="45.9709" lon="7.11043">
        <ele>1705</ele>
        <time>2022-08-27T18:38:02Z</time>
      </trkpt>
      <trkpt lat="45.9709" lon="7.11043">
        <ele>1704</ele>
        <time>2022-08-27T18:38:04Z</time>
      </trkpt>
      <trkpt lat="45.9709" lon="7.11044">
        <ele>1704</ele>
        <time>2022-08-27T18:38:05Z</time>
      </trkpt>
      <trkpt lat="45.97091" lon="7.11044">
        <ele>1704</ele>
        <time>2022-08-27T18:38:06Z</time>
      </trkpt>
      <trkpt lat="45.97091" lon="7.11045">
        <ele>1704</ele>
        <time>2022-08-27T18:38:07Z</time>
      </trkpt>
      <trkpt lat="45.97092" lon="7.11045">
        <ele>1703</ele>
        <time>2022-08-27T18:38:09Z</time>
      </trkpt>
      <trkpt lat="45.97092" lon="7.11046">
        <ele>1703</ele>
        <time>2022-08-27T18:38:10Z</time>
      </trkpt>
      <trkpt lat="45.97093" lon="7.11046">
        <ele>1703</ele>
        <time>2022-08-27T18:38:11Z</time>
      </trkpt>
      <trkpt lat="45.97093" lon="7.11046">
        <ele>1703</ele>
        <time>2022-08-27T18:38:12Z</time>
      </trkpt>
      <trkpt lat="45.97094" lon="7.11047">
        <ele>1703</ele>
        <time>2022-08-27T18:38:14Z</time>
      </trkpt>
      <trkpt lat="45.97094" lon="7.11047">
        <ele>1702</ele>
        <time>2022-08-27T18:38:15Z</time>
      </trkpt>
      <trkpt lat="45.97095" lon="7.11048">
        <ele>1702</ele>
        <time>2022-08-27T18:38:16Z</time>
      </trkpt>
      <trkpt lat="45.97095" lon="7.11048">
        <ele>1701</ele>
        <time>2022-08-27T18:38:17Z</time>
      </trkpt>
      <trkpt lat="45.97096" lon="7.11049">
        <ele>1701</ele>
        <time>2022-08-27T18:38:19Z</time>
      </trkpt>
      <trkpt lat="45.97096" lon="7.11049">
        <ele>1701</ele>
        <time>2022-08-27T18:38:21Z</time>
      </trkpt>
      <trkpt lat="45.97097" lon="7.11049">
        <ele>1700</ele>
        <time>2022-08-27T18:38:22Z</time>
      </trkpt>
      <trkpt lat="45.97097" lon="7.1105">
        <ele>1699</ele>
        <time>2022-08-27T18:38:23Z</time>
      </trkpt>
      <trkpt lat="45.97098" lon="7.1105">
        <ele>1699</ele>
        <time>2022-08-27T18:38:24Z</time>
      </trkpt>
      <trkpt lat="45.971" lon="7.11051">
        <ele>1699</ele>
        <time>2022-08-27T18:38:26Z</time>
      </trkpt>
      <trkpt lat="45.97101" lon="7.11051">
        <ele>1699</ele>
        <time>2022-08-27T18:38:27Z</time>
      </trkpt>
      <trkpt lat="45.97103" lon="7.11052">
        <ele>1698</ele>
        <time>2022-08-27T18:38:28Z</time>
      </trkpt>
      <trkpt lat="45.97104" lon="7.11052">
        <ele>1698</ele>
        <time>2022-08-27T18:38:29Z</time>
      </trkpt>
      <trkpt lat="45.97105" lon="7.11053">
        <ele>1698</ele>
        <time>2022-08-27T18:38:30Z</time>
      </trkpt>
      <trkpt lat="45.97107" lon="7.11054">
        <ele>1698</ele>
        <time>2022-08-27T18:38:31Z</time>
      </trkpt>
      <trkpt lat="45.97109" lon="7.11065">
        <ele>1697</ele>
        <time>2022-08-27T18:38:38Z</time>
      </trkpt>
      <trkpt lat="45.97111" lon="7.11069">
        <ele>1695</ele>
        <time>2022-08-27T18:38:42Z</time>
      </trkpt>
      <trkpt lat="45.97112" lon="7.1107">
        <ele>1694</ele>
        <time>2022-08-27T18:38:44Z</time>
      </trkpt>
      <trkpt lat="45.97112" lon="7.11071">
        <ele>1694</ele>
        <time>2022-08-27T18:38:45Z</time>
      </trkpt>
      <trkpt lat="45.97113" lon="7.11072">
        <ele>1694</ele>
        <time>2022-08-27T18:38:46Z</time>
      </trkpt>
      <trkpt lat="45.97114" lon="7.11073">
        <ele>1693</ele>
        <time>2022-08-27T18:38:47Z</time>
      </trkpt>
      <trkpt lat="45.97115" lon="7.11074">
        <ele>1693</ele>
        <time>2022-08-27T18:38:49Z</time>
      </trkpt>
      <trkpt lat="45.97116" lon="7.11075">
        <ele>1693</ele>
        <time>2022-08-27T18:38:50Z</time>
      </trkpt>
      <trkpt lat="45.97117" lon="7.11076">
        <ele>1693</ele>
        <time>2022-08-27T18:38:51Z</time>
      </trkpt>
      <trkpt lat="45.97118" lon="7.11077">
        <ele>1692</ele>
        <time>2022-08-27T18:38:52Z</time>
      </trkpt>
      <trkpt lat="45.97126" lon="7.11084">
        <ele>1691</ele>
        <time>2022-08-27T18:38:59Z</time>
      </trkpt>
      <trkpt lat="45.97133" lon="7.11093">
        <ele>1687</ele>
        <time>2022-08-27T18:39:11Z</time>
      </trkpt>
      <trkpt lat="45.97135" lon="7.11094">
        <ele>1686</ele>
        <time>2022-08-27T18:39:13Z</time>
      </trkpt>
      <trkpt lat="45.97136" lon="7.11095">
        <ele>1686</ele>
        <time>2022-08-27T18:39:14Z</time>
      </trkpt>
      <trkpt lat="45.97137" lon="7.11096">
        <ele>1685</ele>
        <time>2022-08-27T18:39:15Z</time>
      </trkpt>
      <trkpt lat="45.97138" lon="7.11098">
        <ele>1685</ele>
        <time>2022-08-27T18:39:16Z</time>
      </trkpt>
      <trkpt lat="45.9714" lon="7.11099">
        <ele>1685</ele>
        <time>2022-08-27T18:39:17Z</time>
      </trkpt>
      <trkpt lat="45.97141" lon="7.111">
        <ele>1685</ele>
        <time>2022-08-27T18:39:18Z</time>
      </trkpt>
      <trkpt lat="45.97142" lon="7.11101">
        <ele>1684</ele>
        <time>2022-08-27T18:39:19Z</time>
      </trkpt>
      <trkpt lat="45.97144" lon="7.11103">
        <ele>1683</ele>
        <time>2022-08-27T18:39:23Z</time>
      </trkpt>
      <trkpt lat="45.97145" lon="7.11108">
        <ele>1682</ele>
        <time>2022-08-27T18:39:28Z</time>
      </trkpt>
      <trkpt lat="45.97145" lon="7.11112">
        <ele>1681</ele>
        <time>2022-08-27T18:39:34Z</time>
      </trkpt>
      <trkpt lat="45.97146" lon="7.11115">
        <ele>1680</ele>
        <time>2022-08-27T18:39:37Z</time>
      </trkpt>
      <trkpt lat="45.97146" lon="7.11117">
        <ele>1680</ele>
        <time>2022-08-27T18:39:38Z</time>
      </trkpt>
      <trkpt lat="45.97147" lon="7.1112">
        <ele>1679</ele>
        <time>2022-08-27T18:39:39Z</time>
      </trkpt>
      <trkpt lat="45.97148" lon="7.11122">
        <ele>1679</ele>
        <time>2022-08-27T18:39:41Z</time>
      </trkpt>
      <trkpt lat="45.97148" lon="7.11125">
        <ele>1679</ele>
        <time>2022-08-27T18:39:42Z</time>
      </trkpt>
      <trkpt lat="45.97149" lon="7.11127">
        <ele>1679</ele>
        <time>2022-08-27T18:39:43Z</time>
      </trkpt>
      <trkpt lat="45.9715" lon="7.11129">
        <ele>1678</ele>
        <time>2022-08-27T18:39:44Z</time>
      </trkpt>
      <trkpt lat="45.97151" lon="7.11131">
        <ele>1678</ele>
        <time>2022-08-27T18:39:45Z</time>
      </trkpt>
      <trkpt lat="45.97152" lon="7.11133">
        <ele>1677</ele>
        <time>2022-08-27T18:39:47Z</time>
      </trkpt>
      <trkpt lat="45.97152" lon="7.11135">
        <ele>1676</ele>
        <time>2022-08-27T18:39:48Z</time>
      </trkpt>
      <trkpt lat="45.97153" lon="7.11137">
        <ele>1676</ele>
        <time>2022-08-27T18:39:49Z</time>
      </trkpt>
      <trkpt lat="45.97154" lon="7.11139">
        <ele>1676</ele>
        <time>2022-08-27T18:39:50Z</time>
      </trkpt>
      <trkpt lat="45.97156" lon="7.11141">
        <ele>1676</ele>
        <time>2022-08-27T18:39:52Z</time>
      </trkpt>
      <trkpt lat="45.97157" lon="7.11144">
        <ele>1675</ele>
        <time>2022-08-27T18:39:54Z</time>
      </trkpt>
      <trkpt lat="45.97158" lon="7.11146">
        <ele>1675</ele>
        <time>2022-08-27T18:39:56Z</time>
      </trkpt>
      <trkpt lat="45.9716" lon="7.11148">
        <ele>1674</ele>
        <time>2022-08-27T18:39:57Z</time>
      </trkpt>
      <trkpt lat="45.9716" lon="7.11148">
        <ele>1673</ele>
        <time>2022-08-27T18:39:58Z</time>
      </trkpt>
      <trkpt lat="45.97161" lon="7.11149">
        <ele>1673</ele>
        <time>2022-08-27T18:40:00Z</time>
      </trkpt>
      <trkpt lat="45.97162" lon="7.11149">
        <ele>1673</ele>
        <time>2022-08-27T18:40:01Z</time>
      </trkpt>
      <trkpt lat="45.97163" lon="7.11149">
        <ele>1673</ele>
        <time>2022-08-27T18:40:02Z</time>
      </trkpt>
      <trkpt lat="45.97163" lon="7.11149">
        <ele>1672</ele>
        <time>2022-08-27T18:40:03Z</time>
      </trkpt>
      <trkpt lat="45.97164" lon="7.11149">
        <ele>1672</ele>
        <time>2022-08-27T18:40:05Z</time>
      </trkpt>
      <trkpt lat="45.97165" lon="7.1115">
        <ele>1672</ele>
        <time>2022-08-27T18:40:06Z</time>
      </trkpt>
      <trkpt lat="45.97173" lon="7.1115">
        <ele>1672</ele>
        <time>2022-08-27T18:40:07Z</time>
      </trkpt>
      <trkpt lat="45.97175" lon="7.1115">
        <ele>1672</ele>
        <time>2022-08-27T18:40:08Z</time>
      </trkpt>
      <trkpt lat="45.97177" lon="7.1115">
        <ele>1671</ele>
        <time>2022-08-27T18:40:10Z</time>
      </trkpt>
      <trkpt lat="45.9718" lon="7.11149">
        <ele>1671</ele>
        <time>2022-08-27T18:40:11Z</time>
      </trkpt>
      <trkpt lat="45.97182" lon="7.11151">
        <ele>1671</ele>
        <time>2022-08-27T18:40:12Z</time>
      </trkpt>
      <trkpt lat="45.97183" lon="7.11152">
        <ele>1671</ele>
        <time>2022-08-27T18:40:13Z</time>
      </trkpt>
      <trkpt lat="45.97185" lon="7.11154">
        <ele>1670</ele>
        <time>2022-08-27T18:40:15Z</time>
      </trkpt>
      <trkpt lat="45.97187" lon="7.11155">
        <ele>1670</ele>
        <time>2022-08-27T18:40:16Z</time>
      </trkpt>
      <trkpt lat="45.97189" lon="7.11157">
        <ele>1669</ele>
        <time>2022-08-27T18:40:17Z</time>
      </trkpt>
      <trkpt lat="45.9719" lon="7.11157">
        <ele>1669</ele>
        <time>2022-08-27T18:40:18Z</time>
      </trkpt>
      <trkpt lat="45.97192" lon="7.11158">
        <ele>1669</ele>
        <time>2022-08-27T18:40:20Z</time>
      </trkpt>
      <trkpt lat="45.97194" lon="7.11158">
        <ele>1669</ele>
        <time>2022-08-27T18:40:21Z</time>
      </trkpt>
      <trkpt lat="45.97199" lon="7.1116">
        <ele>1669</ele>
        <time>2022-08-27T18:40:22Z</time>
      </trkpt>
      <trkpt lat="45.97209" lon="7.11158">
        <ele>1669</ele>
        <time>2022-08-27T18:40:30Z</time>
      </trkpt>
      <trkpt lat="45.9721" lon="7.11159">
        <ele>1669</ele>
        <time>2022-08-27T18:40:32Z</time>
      </trkpt>
      <trkpt lat="45.97212" lon="7.1116">
        <ele>1669</ele>
        <time>2022-08-27T18:40:34Z</time>
      </trkpt>
      <trkpt lat="45.97213" lon="7.11161">
        <ele>1669</ele>
        <time>2022-08-27T18:40:35Z</time>
      </trkpt>
      <trkpt lat="45.97215" lon="7.11161">
        <ele>1669</ele>
        <time>2022-08-27T18:40:36Z</time>
      </trkpt>
      <trkpt lat="45.97216" lon="7.11162">
        <ele>1668</ele>
        <time>2022-08-27T18:40:38Z</time>
      </trkpt>
      <trkpt lat="45.97218" lon="7.11163">
        <ele>1668</ele>
        <time>2022-08-27T18:40:39Z</time>
      </trkpt>
      <trkpt lat="45.97228" lon="7.11165">
        <ele>1665</ele>
        <time>2022-08-27T18:40:48Z</time>
      </trkpt>
      <trkpt lat="45.97229" lon="7.11165">
        <ele>1665</ele>
        <time>2022-08-27T18:40:49Z</time>
      </trkpt>
      <trkpt lat="45.97231" lon="7.11164">
        <ele>1665</ele>
        <time>2022-08-27T18:40:50Z</time>
      </trkpt>
      <trkpt lat="45.97232" lon="7.11164">
        <ele>1665</ele>
        <time>2022-08-27T18:40:51Z</time>
      </trkpt>
      <trkpt lat="45.97233" lon="7.11163">
        <ele>1664</ele>
        <time>2022-08-27T18:40:53Z</time>
      </trkpt>
      <trkpt lat="45.97235" lon="7.11163">
        <ele>1664</ele>
        <time>2022-08-27T18:40:55Z</time>
      </trkpt>
      <trkpt lat="45.97236" lon="7.11162">
        <ele>1664</ele>
        <time>2022-08-27T18:40:56Z</time>
      </trkpt>
      <trkpt lat="45.97238" lon="7.11161">
        <ele>1664</ele>
        <time>2022-08-27T18:40:57Z</time>
      </trkpt>
      <trkpt lat="45.97239" lon="7.11161">
        <ele>1664</ele>
        <time>2022-08-27T18:40:58Z</time>
      </trkpt>
      <trkpt lat="45.97241" lon="7.11162">
        <ele>1664</ele>
        <time>2022-08-27T18:40:59Z</time>
      </trkpt>
      <trkpt lat="45.97243" lon="7.11162">
        <ele>1664</ele>
        <time>2022-08-27T18:41:00Z</time>
      </trkpt>
      <trkpt lat="45.97245" lon="7.11162">
        <ele>1664</ele>
        <time>2022-08-27T18:41:01Z</time>
      </trkpt>
      <trkpt lat="45.97247" lon="7.11162">
        <ele>1664</ele>
        <time>2022-08-27T18:41:02Z</time>
      </trkpt>
      <trkpt lat="45.97249" lon="7.11163">
        <ele>1664</ele>
        <time>2022-08-27T18:41:03Z</time>
      </trkpt>
      <trkpt lat="45.97251" lon="7.11163">
        <ele>1664</ele>
        <time>2022-08-27T18:41:04Z</time>
      </trkpt>
      <trkpt lat="45.97252" lon="7.11164">
        <ele>1664</ele>
        <time>2022-08-27T18:41:05Z</time>
      </trkpt>
      <trkpt lat="45.97254" lon="7.11165">
        <ele>1664</ele>
        <time>2022-08-27T18:41:06Z</time>
      </trkpt>
      <trkpt lat="45.97256" lon="7.11166">
        <ele>1665</ele>
        <time>2022-08-27T18:41:07Z</time>
      </trkpt>
      <trkpt lat="45.97258" lon="7.11166">
        <ele>1665</ele>
        <time>2022-08-27T18:41:08Z</time>
      </trkpt>
      <trkpt lat="45.9726" lon="7.11167">
        <ele>1665</ele>
        <time>2022-08-27T18:41:09Z</time>
      </trkpt>
      <trkpt lat="45.97262" lon="7.11168">
        <ele>1665</ele>
        <time>2022-08-27T18:41:10Z</time>
      </trkpt>
      <trkpt lat="45.97264" lon="7.11169">
        <ele>1665</ele>
        <time>2022-08-27T18:41:12Z</time>
      </trkpt>
      <trkpt lat="45.97265" lon="7.1117">
        <ele>1664</ele>
        <time>2022-08-27T18:41:13Z</time>
      </trkpt>
      <trkpt lat="45.97275" lon="7.11172">
        <ele>1664</ele>
        <time>2022-08-27T18:41:20Z</time>
      </trkpt>
      <trkpt lat="45.97276" lon="7.11173">
        <ele>1664</ele>
        <time>2022-08-27T18:41:21Z</time>
      </trkpt>
      <trkpt lat="45.97276" lon="7.11174">
        <ele>1664</ele>
        <time>2022-08-27T18:41:22Z</time>
      </trkpt>
      <trkpt lat="45.97277" lon="7.11175">
        <ele>1664</ele>
        <time>2022-08-27T18:41:23Z</time>
      </trkpt>
      <trkpt lat="45.97278" lon="7.11176">
        <ele>1664</ele>
        <time>2022-08-27T18:41:24Z</time>
      </trkpt>
      <trkpt lat="45.97278" lon="7.11178">
        <ele>1664</ele>
        <time>2022-08-27T18:41:25Z</time>
      </trkpt>
      <trkpt lat="45.97281" lon="7.11181">
        <ele>1664</ele>
        <time>2022-08-27T18:41:27Z</time>
      </trkpt>
      <trkpt lat="45.97283" lon="7.11183">
        <ele>1664</ele>
        <time>2022-08-27T18:41:29Z</time>
      </trkpt>
      <trkpt lat="45.97286" lon="7.11184">
        <ele>1664</ele>
        <time>2022-08-27T18:41:31Z</time>
      </trkpt>
      <trkpt lat="45.9729" lon="7.11185">
        <ele>1664</ele>
        <time>2022-08-27T18:41:33Z</time>
      </trkpt>
      <trkpt lat="45.97292" lon="7.11188">
        <ele>1664</ele>
        <time>2022-08-27T18:41:35Z</time>
      </trkpt>
      <trkpt lat="45.97295" lon="7.11191">
        <ele>1663</ele>
        <time>2022-08-27T18:41:37Z</time>
      </trkpt>
      <trkpt lat="45.97304" lon="7.11194">
        <ele>1663</ele>
        <time>2022-08-27T18:41:45Z</time>
      </trkpt>
      <trkpt lat="45.97306" lon="7.11194">
        <ele>1663</ele>
        <time>2022-08-27T18:41:46Z</time>
      </trkpt>
      <trkpt lat="45.97307" lon="7.11195">
        <ele>1663</ele>
        <time>2022-08-27T18:41:47Z</time>
      </trkpt>
      <trkpt lat="45.97309" lon="7.11195">
        <ele>1663</ele>
        <time>2022-08-27T18:41:48Z</time>
      </trkpt>
      <trkpt lat="45.9731" lon="7.11196">
        <ele>1663</ele>
        <time>2022-08-27T18:41:50Z</time>
      </trkpt>
      <trkpt lat="45.97312" lon="7.11196">
        <ele>1662</ele>
        <time>2022-08-27T18:41:52Z</time>
      </trkpt>
      <trkpt lat="45.97314" lon="7.11197">
        <ele>1662</ele>
        <time>2022-08-27T18:41:53Z</time>
      </trkpt>
      <trkpt lat="45.97316" lon="7.11197">
        <ele>1662</ele>
        <time>2022-08-27T18:41:54Z</time>
      </trkpt>
      <trkpt lat="45.97317" lon="7.11198">
        <ele>1662</ele>
        <time>2022-08-27T18:41:55Z</time>
      </trkpt>
      <trkpt lat="45.97319" lon="7.11198">
        <ele>1662</ele>
        <time>2022-08-27T18:41:57Z</time>
      </trkpt>
      <trkpt lat="45.97321" lon="7.11198">
        <ele>1662</ele>
        <time>2022-08-27T18:41:58Z</time>
      </trkpt>
      <trkpt lat="45.97323" lon="7.11199">
        <ele>1662</ele>
        <time>2022-08-27T18:41:59Z</time>
      </trkpt>
      <trkpt lat="45.97325" lon="7.11199">
        <ele>1662</ele>
        <time>2022-08-27T18:42:00Z</time>
      </trkpt>
      <trkpt lat="45.97326" lon="7.11199">
        <ele>1662</ele>
        <time>2022-08-27T18:42:02Z</time>
      </trkpt>
      <trkpt lat="45.97327" lon="7.11199">
        <ele>1662</ele>
        <time>2022-08-27T18:42:03Z</time>
      </trkpt>
      <trkpt lat="45.97329" lon="7.11199">
        <ele>1662</ele>
        <time>2022-08-27T18:42:04Z</time>
      </trkpt>
      <trkpt lat="45.9733" lon="7.11199">
        <ele>1662</ele>
        <time>2022-08-27T18:42:05Z</time>
      </trkpt>
      <trkpt lat="45.97331" lon="7.11199">
        <ele>1662</ele>
        <time>2022-08-27T18:42:06Z</time>
      </trkpt>
      <trkpt lat="45.97332" lon="7.11199">
        <ele>1662</ele>
        <time>2022-08-27T18:42:07Z</time>
      </trkpt>
      <trkpt lat="45.97336" lon="7.11199">
        <ele>1662</ele>
        <time>2022-08-27T18:42:09Z</time>
      </trkpt>
      <trkpt lat="45.97338" lon="7.112">
        <ele>1662</ele>
        <time>2022-08-27T18:42:10Z</time>
      </trkpt>
      <trkpt lat="45.97342" lon="7.11203">
        <ele>1661</ele>
        <time>2022-08-27T18:42:13Z</time>
      </trkpt>
      <trkpt lat="45.97343" lon="7.11203">
        <ele>1661</ele>
        <time>2022-08-27T18:42:14Z</time>
      </trkpt>
      <trkpt lat="45.97344" lon="7.11204">
        <ele>1662</ele>
        <time>2022-08-27T18:42:15Z</time>
      </trkpt>
      <trkpt lat="45.97345" lon="7.11205">
        <ele>1662</ele>
        <time>2022-08-27T18:42:16Z</time>
      </trkpt>
      <trkpt lat="45.97347" lon="7.11205">
        <ele>1662</ele>
        <time>2022-08-27T18:42:18Z</time>
      </trkpt>
      <trkpt lat="45.97348" lon="7.11206">
        <ele>1662</ele>
        <time>2022-08-27T18:42:20Z</time>
      </trkpt>
      <trkpt lat="45.97349" lon="7.11207">
        <ele>1662</ele>
        <time>2022-08-27T18:42:21Z</time>
      </trkpt>
      <trkpt lat="45.97359" lon="7.11202">
        <ele>1662</ele>
        <time>2022-08-27T18:42:28Z</time>
      </trkpt>
      <trkpt lat="45.97361" lon="7.11202">
        <ele>1662</ele>
        <time>2022-08-27T18:42:29Z</time>
      </trkpt>
      <trkpt lat="45.97364" lon="7.11203">
        <ele>1662</ele>
        <time>2022-08-27T18:42:30Z</time>
      </trkpt>
      <trkpt lat="45.97366" lon="7.11203">
        <ele>1660</ele>
        <time>2022-08-27T18:42:32Z</time>
      </trkpt>
      <trkpt lat="45.97369" lon="7.11203">
        <ele>1660</ele>
        <time>2022-08-27T18:42:33Z</time>
      </trkpt>
      <trkpt lat="45.97371" lon="7.11204">
        <ele>1660</ele>
        <time>2022-08-27T18:42:34Z</time>
      </trkpt>
      <trkpt lat="45.97372" lon="7.11204">
        <ele>1660</ele>
        <time>2022-08-27T18:42:35Z</time>
      </trkpt>
      <trkpt lat="45.97374" lon="7.11204">
        <ele>1660</ele>
        <time>2022-08-27T18:42:37Z</time>
      </trkpt>
      <trkpt lat="45.97376" lon="7.11205">
        <ele>1660</ele>
        <time>2022-08-27T18:42:38Z</time>
      </trkpt>
      <trkpt lat="45.97378" lon="7.11205">
        <ele>1660</ele>
        <time>2022-08-27T18:42:39Z</time>
      </trkpt>
      <trkpt lat="45.9738" lon="7.11205">
        <ele>1660</ele>
        <time>2022-08-27T18:42:40Z</time>
      </trkpt>
      <trkpt lat="45.97382" lon="7.11205">
        <ele>1659</ele>
        <time>2022-08-27T18:42:41Z</time>
      </trkpt>
      <trkpt lat="45.97384" lon="7.11205">
        <ele>1659</ele>
        <time>2022-08-27T18:42:43Z</time>
      </trkpt>
      <trkpt lat="45.97386" lon="7.11205">
        <ele>1659</ele>
        <time>2022-08-27T18:42:45Z</time>
      </trkpt>
      <trkpt lat="45.97388" lon="7.11204">
        <ele>1659</ele>
        <time>2022-08-27T18:42:47Z</time>
      </trkpt>
      <trkpt lat="45.97391" lon="7.11203">
        <ele>1659</ele>
        <time>2022-08-27T18:42:49Z</time>
      </trkpt>
      <trkpt lat="45.97393" lon="7.11201">
        <ele>1660</ele>
        <time>2022-08-27T18:42:51Z</time>
      </trkpt>
      <trkpt lat="45.97396" lon="7.11199">
        <ele>1660</ele>
        <time>2022-08-27T18:42:53Z</time>
      </trkpt>
      <trkpt lat="45.97398" lon="7.11198">
        <ele>1660</ele>
        <time>2022-08-27T18:42:55Z</time>
      </trkpt>
      <trkpt lat="45.97399" lon="7.11197">
        <ele>1660</ele>
        <time>2022-08-27T18:42:57Z</time>
      </trkpt>
      <trkpt lat="45.97401" lon="7.11197">
        <ele>1660</ele>
        <time>2022-08-27T18:42:58Z</time>
      </trkpt>
      <trkpt lat="45.97402" lon="7.11196">
        <ele>1660</ele>
        <time>2022-08-27T18:42:59Z</time>
      </trkpt>
      <trkpt lat="45.97404" lon="7.11195">
        <ele>1660</ele>
        <time>2022-08-27T18:43:01Z</time>
      </trkpt>
      <trkpt lat="45.97405" lon="7.11195">
        <ele>1660</ele>
        <time>2022-08-27T18:43:02Z</time>
      </trkpt>
      <trkpt lat="45.97407" lon="7.11194">
        <ele>1660</ele>
        <time>2022-08-27T18:43:03Z</time>
      </trkpt>
      <trkpt lat="45.97408" lon="7.11194">
        <ele>1660</ele>
        <time>2022-08-27T18:43:04Z</time>
      </trkpt>
      <trkpt lat="45.97409" lon="7.11194">
        <ele>1660</ele>
        <time>2022-08-27T18:43:06Z</time>
      </trkpt>
      <trkpt lat="45.97409" lon="7.11194">
        <ele>1660</ele>
        <time>2022-08-27T18:43:07Z</time>
      </trkpt>
      <trkpt lat="45.9741" lon="7.11194">
        <ele>1660</ele>
        <time>2022-08-27T18:43:09Z</time>
      </trkpt>
      <trkpt lat="45.97411" lon="7.11193">
        <ele>1660</ele>
        <time>2022-08-27T18:43:10Z</time>
      </trkpt>
      <trkpt lat="45.97412" lon="7.11193">
        <ele>1660</ele>
        <time>2022-08-27T18:43:11Z</time>
      </trkpt>
      <trkpt lat="45.97419" lon="7.11192">
        <ele>1660</ele>
        <time>2022-08-27T18:43:12Z</time>
      </trkpt>
      <trkpt lat="45.97421" lon="7.11192">
        <ele>1660</ele>
        <time>2022-08-27T18:43:14Z</time>
      </trkpt>
      <trkpt lat="45.97423" lon="7.11192">
        <ele>1660</ele>
        <time>2022-08-27T18:43:16Z</time>
      </trkpt>
      <trkpt lat="45.97424" lon="7.11193">
        <ele>1660</ele>
        <time>2022-08-27T18:43:17Z</time>
      </trkpt>
      <trkpt lat="45.97426" lon="7.11193">
        <ele>1660</ele>
        <time>2022-08-27T18:43:18Z</time>
      </trkpt>
      <trkpt lat="45.97436" lon="7.11199">
        <ele>1659</ele>
        <time>2022-08-27T18:43:22Z</time>
      </trkpt>
      <trkpt lat="45.97438" lon="7.112">
        <ele>1659</ele>
        <time>2022-08-27T18:43:23Z</time>
      </trkpt>
      <trkpt lat="45.97441" lon="7.11201">
        <ele>1659</ele>
        <time>2022-08-27T18:43:25Z</time>
      </trkpt>
      <trkpt lat="45.97443" lon="7.11202">
        <ele>1659</ele>
        <time>2022-08-27T18:43:26Z</time>
      </trkpt>
      <trkpt lat="45.97445" lon="7.11203">
        <ele>1659</ele>
        <time>2022-08-27T18:43:27Z</time>
      </trkpt>
      <trkpt lat="45.97447" lon="7.11204">
        <ele>1659</ele>
        <time>2022-08-27T18:43:28Z</time>
      </trkpt>
      <trkpt lat="45.97449" lon="7.11205">
        <ele>1659</ele>
        <time>2022-08-27T18:43:30Z</time>
      </trkpt>
      <trkpt lat="45.9745" lon="7.11206">
        <ele>1659</ele>
        <time>2022-08-27T18:43:31Z</time>
      </trkpt>
      <trkpt lat="45.97452" lon="7.11207">
        <ele>1659</ele>
        <time>2022-08-27T18:43:32Z</time>
      </trkpt>
      <trkpt lat="45.97454" lon="7.11208">
        <ele>1659</ele>
        <time>2022-08-27T18:43:33Z</time>
      </trkpt>
      <trkpt lat="45.97463" lon="7.11213">
        <ele>1658</ele>
        <time>2022-08-27T18:43:40Z</time>
      </trkpt>
      <trkpt lat="45.97465" lon="7.11213">
        <ele>1658</ele>
        <time>2022-08-27T18:43:41Z</time>
      </trkpt>
      <trkpt lat="45.97466" lon="7.11214">
        <ele>1658</ele>
        <time>2022-08-27T18:43:42Z</time>
      </trkpt>
      <trkpt lat="45.97468" lon="7.11214">
        <ele>1658</ele>
        <time>2022-08-27T18:43:44Z</time>
      </trkpt>
      <trkpt lat="45.97469" lon="7.11215">
        <ele>1658</ele>
        <time>2022-08-27T18:43:45Z</time>
      </trkpt>
      <trkpt lat="45.97471" lon="7.11216">
        <ele>1658</ele>
        <time>2022-08-27T18:43:46Z</time>
      </trkpt>
      <trkpt lat="45.97472" lon="7.11216">
        <ele>1658</ele>
        <time>2022-08-27T18:43:47Z</time>
      </trkpt>
      <trkpt lat="45.97475" lon="7.11217">
        <ele>1658</ele>
        <time>2022-08-27T18:43:49Z</time>
      </trkpt>
      <trkpt lat="45.97477" lon="7.11218">
        <ele>1658</ele>
        <time>2022-08-27T18:43:51Z</time>
      </trkpt>
      <trkpt lat="45.9748" lon="7.11219">
        <ele>1658</ele>
        <time>2022-08-27T18:43:52Z</time>
      </trkpt>
      <trkpt lat="45.97482" lon="7.1122">
        <ele>1658</ele>
        <time>2022-08-27T18:43:53Z</time>
      </trkpt>
      <trkpt lat="45.97484" lon="7.1122">
        <ele>1658</ele>
        <time>2022-08-27T18:43:54Z</time>
      </trkpt>
      <trkpt lat="45.97486" lon="7.1122">
        <ele>1658</ele>
        <time>2022-08-27T18:43:56Z</time>
      </trkpt>
      <trkpt lat="45.97488" lon="7.1122">
        <ele>1658</ele>
        <time>2022-08-27T18:43:57Z</time>
      </trkpt>
      <trkpt lat="45.97489" lon="7.1122">
        <ele>1658</ele>
        <time>2022-08-27T18:43:58Z</time>
      </trkpt>
      <trkpt lat="45.97491" lon="7.1122">
        <ele>1658</ele>
        <time>2022-08-27T18:43:59Z</time>
      </trkpt>
      <trkpt lat="45.97493" lon="7.1122">
        <ele>1658</ele>
        <time>2022-08-27T18:44:01Z</time>
      </trkpt>
      <trkpt lat="45.97495" lon="7.11221">
        <ele>1658</ele>
        <time>2022-08-27T18:44:03Z</time>
      </trkpt>
      <trkpt lat="45.97497" lon="7.11222">
        <ele>1657</ele>
        <time>2022-08-27T18:44:04Z</time>
      </trkpt>
      <trkpt lat="45.97499" lon="7.11222">
        <ele>1657</ele>
        <time>2022-08-27T18:44:05Z</time>
      </trkpt>
      <trkpt lat="45.97502" lon="7.11224">
        <ele>1657</ele>
        <time>2022-08-27T18:44:07Z</time>
      </trkpt>
      <trkpt lat="45.97505" lon="7.11225">
        <ele>1657</ele>
        <time>2022-08-27T18:44:09Z</time>
      </trkpt>
      <trkpt lat="45.97507" lon="7.11226">
        <ele>1657</ele>
        <time>2022-08-27T18:44:11Z</time>
      </trkpt>
      <trkpt lat="45.97509" lon="7.11227">
        <ele>1657</ele>
        <time>2022-08-27T18:44:13Z</time>
      </trkpt>
      <trkpt lat="45.97511" lon="7.11228">
        <ele>1657</ele>
        <time>2022-08-27T18:44:14Z</time>
      </trkpt>
      <trkpt lat="45.97512" lon="7.11229">
        <ele>1657</ele>
        <time>2022-08-27T18:44:15Z</time>
      </trkpt>
      <trkpt lat="45.97514" lon="7.11229">
        <ele>1657</ele>
        <time>2022-08-27T18:44:17Z</time>
      </trkpt>
      <trkpt lat="45.97515" lon="7.1123">
        <ele>1657</ele>
        <time>2022-08-27T18:44:18Z</time>
      </trkpt>
      <trkpt lat="45.97517" lon="7.11231">
        <ele>1657</ele>
        <time>2022-08-27T18:44:19Z</time>
      </trkpt>
      <trkpt lat="45.97518" lon="7.11232">
        <ele>1657</ele>
        <time>2022-08-27T18:44:20Z</time>
      </trkpt>
      <trkpt lat="45.9752" lon="7.11235">
        <ele>1657</ele>
        <time>2022-08-27T18:44:22Z</time>
      </trkpt>
      <trkpt lat="45.97522" lon="7.11238">
        <ele>1657</ele>
        <time>2022-08-27T18:44:23Z</time>
      </trkpt>
      <trkpt lat="45.97523" lon="7.11241">
        <ele>1657</ele>
        <time>2022-08-27T18:44:24Z</time>
      </trkpt>
      <trkpt lat="45.97531" lon="7.11249">
        <ele>1657</ele>
        <time>2022-08-27T18:44:31Z</time>
      </trkpt>
      <trkpt lat="45.97532" lon="7.1125">
        <ele>1657</ele>
        <time>2022-08-27T18:44:32Z</time>
      </trkpt>
      <trkpt lat="45.97533" lon="7.1125">
        <ele>1657</ele>
        <time>2022-08-27T18:44:33Z</time>
      </trkpt>
      <trkpt lat="45.97534" lon="7.11251">
        <ele>1657</ele>
        <time>2022-08-27T18:44:34Z</time>
      </trkpt>
      <trkpt lat="45.97535" lon="7.11251">
        <ele>1657</ele>
        <time>2022-08-27T18:44:35Z</time>
      </trkpt>
      <trkpt lat="45.97536" lon="7.11252">
        <ele>1657</ele>
        <time>2022-08-27T18:44:36Z</time>
      </trkpt>
      <trkpt lat="45.97538" lon="7.11252">
        <ele>1657</ele>
        <time>2022-08-27T18:44:37Z</time>
      </trkpt>
      <trkpt lat="45.9754" lon="7.11253">
        <ele>1657</ele>
        <time>2022-08-27T18:44:39Z</time>
      </trkpt>
      <trkpt lat="45.97542" lon="7.11254">
        <ele>1657</ele>
        <time>2022-08-27T18:44:41Z</time>
      </trkpt>
      <trkpt lat="45.97545" lon="7.11255">
        <ele>1657</ele>
        <time>2022-08-27T18:44:43Z</time>
      </trkpt>
      <trkpt lat="45.97548" lon="7.11256">
        <ele>1657</ele>
        <time>2022-08-27T18:44:45Z</time>
      </trkpt>
      <trkpt lat="45.9755" lon="7.11257">
        <ele>1657</ele>
        <time>2022-08-27T18:44:47Z</time>
      </trkpt>
      <trkpt lat="45.97554" lon="7.11257">
        <ele>1656</ele>
        <time>2022-08-27T18:44:50Z</time>
      </trkpt>
      <trkpt lat="45.97556" lon="7.11258">
        <ele>1656</ele>
        <time>2022-08-27T18:44:52Z</time>
      </trkpt>
      <trkpt lat="45.97557" lon="7.11258">
        <ele>1655</ele>
        <time>2022-08-27T18:44:55Z</time>
      </trkpt>
      <trkpt lat="45.97559" lon="7.11258">
        <ele>1655</ele>
        <time>2022-08-27T18:44:56Z</time>
      </trkpt>
      <trkpt lat="45.9756" lon="7.11259">
        <ele>1655</ele>
        <time>2022-08-27T18:44:57Z</time>
      </trkpt>
      <trkpt lat="45.97561" lon="7.11259">
        <ele>1655</ele>
        <time>2022-08-27T18:44:58Z</time>
      </trkpt>
      <trkpt lat="45.97563" lon="7.11259">
        <ele>1655</ele>
        <time>2022-08-27T18:44:59Z</time>
      </trkpt>
      <trkpt lat="45.97564" lon="7.11259">
        <ele>1655</ele>
        <time>2022-08-27T18:45:00Z</time>
      </trkpt>
      <trkpt lat="45.97566" lon="7.11259">
        <ele>1655</ele>
        <time>2022-08-27T18:45:01Z</time>
      </trkpt>
      <trkpt lat="45.97568" lon="7.11259">
        <ele>1655</ele>
        <time>2022-08-27T18:45:02Z</time>
      </trkpt>
      <trkpt lat="45.9757" lon="7.11259">
        <ele>1655</ele>
        <time>2022-08-27T18:45:03Z</time>
      </trkpt>
      <trkpt lat="45.97573" lon="7.11262">
        <ele>1655</ele>
        <time>2022-08-27T18:45:05Z</time>
      </trkpt>
      <trkpt lat="45.97575" lon="7.11264">
        <ele>1655</ele>
        <time>2022-08-27T18:45:07Z</time>
      </trkpt>
      <trkpt lat="45.97578" lon="7.11266">
        <ele>1655</ele>
        <time>2022-08-27T18:45:10Z</time>
      </trkpt>
      <trkpt lat="45.9758" lon="7.11269">
        <ele>1655</ele>
        <time>2022-08-27T18:45:12Z</time>
      </trkpt>
      <trkpt lat="45.97582" lon="7.11271">
        <ele>1654</ele>
        <time>2022-08-27T18:45:14Z</time>
      </trkpt>
      <trkpt lat="45.97584" lon="7.11273">
        <ele>1654</ele>
        <time>2022-08-27T18:45:16Z</time>
      </trkpt>
      <trkpt lat="45.97586" lon="7.11275">
        <ele>1654</ele>
        <time>2022-08-27T18:45:18Z</time>
      </trkpt>
      <trkpt lat="45.97589" lon="7.11277">
        <ele>1654</ele>
        <time>2022-08-27T18:45:20Z</time>
      </trkpt>
      <trkpt lat="45.97591" lon="7.11278">
        <ele>1654</ele>
        <time>2022-08-27T18:45:21Z</time>
      </trkpt>
      <trkpt lat="45.97592" lon="7.1128">
        <ele>1654</ele>
        <time>2022-08-27T18:45:24Z</time>
      </trkpt>
      <trkpt lat="45.97594" lon="7.11281">
        <ele>1654</ele>
        <time>2022-08-27T18:45:26Z</time>
      </trkpt>
      <trkpt lat="45.97597" lon="7.11282">
        <ele>1654</ele>
        <time>2022-08-27T18:45:28Z</time>
      </trkpt>
      <trkpt lat="45.97599" lon="7.11282">
        <ele>1653</ele>
        <time>2022-08-27T18:45:30Z</time>
      </trkpt>
      <trkpt lat="45.97601" lon="7.11281">
        <ele>1653</ele>
        <time>2022-08-27T18:45:31Z</time>
      </trkpt>
      <trkpt lat="45.97604" lon="7.11281">
        <ele>1654</ele>
        <time>2022-08-27T18:45:34Z</time>
      </trkpt>
      <trkpt lat="45.97606" lon="7.11281">
        <ele>1654</ele>
        <time>2022-08-27T18:45:36Z</time>
      </trkpt>
      <trkpt lat="45.97608" lon="7.11281">
        <ele>1654</ele>
        <time>2022-08-27T18:45:38Z</time>
      </trkpt>
      <trkpt lat="45.9761" lon="7.11281">
        <ele>1654</ele>
        <time>2022-08-27T18:45:40Z</time>
      </trkpt>
      <trkpt lat="45.97612" lon="7.11283">
        <ele>1654</ele>
        <time>2022-08-27T18:45:41Z</time>
      </trkpt>
      <trkpt lat="45.97615" lon="7.11284">
        <ele>1654</ele>
        <time>2022-08-27T18:45:44Z</time>
      </trkpt>
      <trkpt lat="45.97617" lon="7.11285">
        <ele>1654</ele>
        <time>2022-08-27T18:45:46Z</time>
      </trkpt>
      <trkpt lat="45.9762" lon="7.11286">
        <ele>1654</ele>
        <time>2022-08-27T18:45:48Z</time>
      </trkpt>
      <trkpt lat="45.97621" lon="7.11287">
        <ele>1654</ele>
        <time>2022-08-27T18:45:50Z</time>
      </trkpt>
      <trkpt lat="45.97622" lon="7.11288">
        <ele>1654</ele>
        <time>2022-08-27T18:45:51Z</time>
      </trkpt>
      <trkpt lat="45.97624" lon="7.11289">
        <ele>1654</ele>
        <time>2022-08-27T18:45:52Z</time>
      </trkpt>
      <trkpt lat="45.97625" lon="7.1129">
        <ele>1654</ele>
        <time>2022-08-27T18:45:54Z</time>
      </trkpt>
      <trkpt lat="45.97626" lon="7.11291">
        <ele>1654</ele>
        <time>2022-08-27T18:45:55Z</time>
      </trkpt>
      <trkpt lat="45.97627" lon="7.11292">
        <ele>1654</ele>
        <time>2022-08-27T18:45:56Z</time>
      </trkpt>
      <trkpt lat="45.97629" lon="7.11293">
        <ele>1654</ele>
        <time>2022-08-27T18:45:57Z</time>
      </trkpt>
      <trkpt lat="45.97631" lon="7.11295">
        <ele>1654</ele>
        <time>2022-08-27T18:45:58Z</time>
      </trkpt>
      <trkpt lat="45.97632" lon="7.11297">
        <ele>1654</ele>
        <time>2022-08-27T18:45:59Z</time>
      </trkpt>
      <trkpt lat="45.97634" lon="7.11299">
        <ele>1654</ele>
        <time>2022-08-27T18:46:01Z</time>
      </trkpt>
      <trkpt lat="45.97636" lon="7.11301">
        <ele>1654</ele>
        <time>2022-08-27T18:46:02Z</time>
      </trkpt>
      <trkpt lat="45.97644" lon="7.11311">
        <ele>1654</ele>
        <time>2022-08-27T18:46:11Z</time>
      </trkpt>
      <trkpt lat="45.97645" lon="7.11312">
        <ele>1654</ele>
        <time>2022-08-27T18:46:12Z</time>
      </trkpt>
      <trkpt lat="45.97646" lon="7.11314">
        <ele>1654</ele>
        <time>2022-08-27T18:46:13Z</time>
      </trkpt>
      <trkpt lat="45.97648" lon="7.11316">
        <ele>1654</ele>
        <time>2022-08-27T18:46:14Z</time>
      </trkpt>
      <trkpt lat="45.97649" lon="7.11317">
        <ele>1654</ele>
        <time>2022-08-27T18:46:16Z</time>
      </trkpt>
      <trkpt lat="45.9765" lon="7.11319">
        <ele>1654</ele>
        <time>2022-08-27T18:46:18Z</time>
      </trkpt>
      <trkpt lat="45.97651" lon="7.1132">
        <ele>1654</ele>
        <time>2022-08-27T18:46:19Z</time>
      </trkpt>
      <trkpt lat="45.97654" lon="7.11323">
        <ele>1654</ele>
        <time>2022-08-27T18:46:20Z</time>
      </trkpt>
      <trkpt lat="45.97655" lon="7.11326">
        <ele>1654</ele>
        <time>2022-08-27T18:46:21Z</time>
      </trkpt>
      <trkpt lat="45.97657" lon="7.11329">
        <ele>1654</ele>
        <time>2022-08-27T18:46:24Z</time>
      </trkpt>
      <trkpt lat="45.97658" lon="7.11332">
        <ele>1654</ele>
        <time>2022-08-27T18:46:26Z</time>
      </trkpt>
      <trkpt lat="45.97659" lon="7.11334">
        <ele>1654</ele>
        <time>2022-08-27T18:46:28Z</time>
      </trkpt>
      <trkpt lat="45.9766" lon="7.11337">
        <ele>1654</ele>
        <time>2022-08-27T18:46:30Z</time>
      </trkpt>
      <trkpt lat="45.97662" lon="7.11339">
        <ele>1654</ele>
        <time>2022-08-27T18:46:34Z</time>
      </trkpt>
      <trkpt lat="45.97665" lon="7.11339">
        <ele>1654</ele>
        <time>2022-08-27T18:46:36Z</time>
      </trkpt>
      <trkpt lat="45.97668" lon="7.11339">
        <ele>1654</ele>
        <time>2022-08-27T18:46:38Z</time>
      </trkpt>
      <trkpt lat="45.97669" lon="7.1134">
        <ele>1654</ele>
        <time>2022-08-27T18:46:40Z</time>
      </trkpt>
      <trkpt lat="45.97672" lon="7.11341">
        <ele>1654</ele>
        <time>2022-08-27T18:46:41Z</time>
      </trkpt>
      <trkpt lat="45.97675" lon="7.11341">
        <ele>1654</ele>
        <time>2022-08-27T18:46:44Z</time>
      </trkpt>
      <trkpt lat="45.97678" lon="7.11343">
        <ele>1654</ele>
        <time>2022-08-27T18:46:46Z</time>
      </trkpt>
      <trkpt lat="45.9768" lon="7.11344">
        <ele>1654</ele>
        <time>2022-08-27T18:46:48Z</time>
      </trkpt>
      <trkpt lat="45.97682" lon="7.11345">
        <ele>1654</ele>
        <time>2022-08-27T18:46:50Z</time>
      </trkpt>
      <trkpt lat="45.97685" lon="7.11346">
        <ele>1654</ele>
        <time>2022-08-27T18:46:52Z</time>
      </trkpt>
      <trkpt lat="45.97687" lon="7.11345">
        <ele>1654</ele>
        <time>2022-08-27T18:46:54Z</time>
      </trkpt>
      <trkpt lat="45.97689" lon="7.11345">
        <ele>1654</ele>
        <time>2022-08-27T18:46:57Z</time>
      </trkpt>
      <trkpt lat="45.9769" lon="7.11344">
        <ele>1654</ele>
        <time>2022-08-27T18:46:59Z</time>
      </trkpt>
      <trkpt lat="45.977" lon="7.11344">
        <ele>1653</ele>
        <time>2022-08-27T18:47:07Z</time>
      </trkpt>
      <trkpt lat="45.97702" lon="7.11343">
        <ele>1653</ele>
        <time>2022-08-27T18:47:08Z</time>
      </trkpt>
      <trkpt lat="45.97703" lon="7.11342">
        <ele>1653</ele>
        <time>2022-08-27T18:47:09Z</time>
      </trkpt>
      <trkpt lat="45.97704" lon="7.11342">
        <ele>1653</ele>
        <time>2022-08-27T18:47:10Z</time>
      </trkpt>
      <trkpt lat="45.97705" lon="7.11341">
        <ele>1653</ele>
        <time>2022-08-27T18:47:12Z</time>
      </trkpt>
      <trkpt lat="45.97706" lon="7.11341">
        <ele>1653</ele>
        <time>2022-08-27T18:47:13Z</time>
      </trkpt>
      <trkpt lat="45.97708" lon="7.1134">
        <ele>1653</ele>
        <time>2022-08-27T18:47:14Z</time>
      </trkpt>
      <trkpt lat="45.97709" lon="7.1134">
        <ele>1653</ele>
        <time>2022-08-27T18:47:15Z</time>
      </trkpt>
      <trkpt lat="45.9771" lon="7.1134">
        <ele>1653</ele>
        <time>2022-08-27T18:47:17Z</time>
      </trkpt>
      <trkpt lat="45.97711" lon="7.1134">
        <ele>1653</ele>
        <time>2022-08-27T18:47:18Z</time>
      </trkpt>
      <trkpt lat="45.97712" lon="7.11339">
        <ele>1653</ele>
        <time>2022-08-27T18:47:19Z</time>
      </trkpt>
      <trkpt lat="45.97714" lon="7.11339">
        <ele>1653</ele>
        <time>2022-08-27T18:47:20Z</time>
      </trkpt>
      <trkpt lat="45.97715" lon="7.11339">
        <ele>1653</ele>
        <time>2022-08-27T18:47:22Z</time>
      </trkpt>
      <trkpt lat="45.97716" lon="7.11339">
        <ele>1653</ele>
        <time>2022-08-27T18:47:23Z</time>
      </trkpt>
      <trkpt lat="45.97717" lon="7.11338">
        <ele>1653</ele>
        <time>2022-08-27T18:47:24Z</time>
      </trkpt>
      <trkpt lat="45.97719" lon="7.11338">
        <ele>1653</ele>
        <time>2022-08-27T18:47:25Z</time>
      </trkpt>
      <trkpt lat="45.9772" lon="7.11338">
        <ele>1653</ele>
        <time>2022-08-27T18:47:26Z</time>
      </trkpt>
      <trkpt lat="45.97721" lon="7.11338">
        <ele>1653</ele>
        <time>2022-08-27T18:47:28Z</time>
      </trkpt>
      <trkpt lat="45.97723" lon="7.11337">
        <ele>1653</ele>
        <time>2022-08-27T18:47:29Z</time>
      </trkpt>
      <trkpt lat="45.97724" lon="7.11337">
        <ele>1652</ele>
        <time>2022-08-27T18:47:30Z</time>
      </trkpt>
      <trkpt lat="45.97725" lon="7.11337">
        <ele>1652</ele>
        <time>2022-08-27T18:47:31Z</time>
      </trkpt>
      <trkpt lat="45.97726" lon="7.11336">
        <ele>1652</ele>
        <time>2022-08-27T18:47:32Z</time>
      </trkpt>
      <trkpt lat="45.97729" lon="7.11335">
        <ele>1652</ele>
        <time>2022-08-27T18:47:34Z</time>
      </trkpt>
      <trkpt lat="45.97732" lon="7.11333">
        <ele>1652</ele>
        <time>2022-08-27T18:47:36Z</time>
      </trkpt>
      <trkpt lat="45.97735" lon="7.11331">
        <ele>1652</ele>
        <time>2022-08-27T18:47:37Z</time>
      </trkpt>
      <trkpt lat="45.97736" lon="7.1133">
        <ele>1651</ele>
        <time>2022-08-27T18:47:38Z</time>
      </trkpt>
      <trkpt lat="45.97738" lon="7.11329">
        <ele>1651</ele>
        <time>2022-08-27T18:47:39Z</time>
      </trkpt>
      <trkpt lat="45.97739" lon="7.11327">
        <ele>1652</ele>
        <time>2022-08-27T18:47:41Z</time>
      </trkpt>
      <trkpt lat="45.9774" lon="7.11326">
        <ele>1652</ele>
        <time>2022-08-27T18:47:42Z</time>
      </trkpt>
      <trkpt lat="45.97741" lon="7.11324">
        <ele>1652</ele>
        <time>2022-08-27T18:47:43Z</time>
      </trkpt>
      <trkpt lat="45.97744" lon="7.11321">
        <ele>1652</ele>
        <time>2022-08-27T18:47:45Z</time>
      </trkpt>
      <trkpt lat="45.97746" lon="7.1132">
        <ele>1652</ele>
        <time>2022-08-27T18:47:47Z</time>
      </trkpt>
      <trkpt lat="45.97747" lon="7.1132">
        <ele>1651</ele>
        <time>2022-08-27T18:47:49Z</time>
      </trkpt>
      <trkpt lat="45.97748" lon="7.1132">
        <ele>1651</ele>
        <time>2022-08-27T18:47:51Z</time>
      </trkpt>
      <trkpt lat="45.97749" lon="7.11321">
        <ele>1651</ele>
        <time>2022-08-27T18:47:52Z</time>
      </trkpt>
      <trkpt lat="45.9775" lon="7.11321">
        <ele>1651</ele>
        <time>2022-08-27T18:47:53Z</time>
      </trkpt>
      <trkpt lat="45.97752" lon="7.11321">
        <ele>1651</ele>
        <time>2022-08-27T18:47:55Z</time>
      </trkpt>
      <trkpt lat="45.97753" lon="7.11321">
        <ele>1651</ele>
        <time>2022-08-27T18:47:56Z</time>
      </trkpt>
      <trkpt lat="45.97754" lon="7.11321">
        <ele>1651</ele>
        <time>2022-08-27T18:47:57Z</time>
      </trkpt>
      <trkpt lat="45.97755" lon="7.11321">
        <ele>1651</ele>
        <time>2022-08-27T18:47:58Z</time>
      </trkpt>
      <trkpt lat="45.97757" lon="7.1132">
        <ele>1651</ele>
        <time>2022-08-27T18:48:00Z</time>
      </trkpt>
      <trkpt lat="45.97758" lon="7.11318">
        <ele>1651</ele>
        <time>2022-08-27T18:48:01Z</time>
      </trkpt>
      <trkpt lat="45.97759" lon="7.11317">
        <ele>1651</ele>
        <time>2022-08-27T18:48:02Z</time>
      </trkpt>
      <trkpt lat="45.97761" lon="7.11316">
        <ele>1651</ele>
        <time>2022-08-27T18:48:03Z</time>
      </trkpt>
      <trkpt lat="45.97762" lon="7.11315">
        <ele>1651</ele>
        <time>2022-08-27T18:48:05Z</time>
      </trkpt>
      <trkpt lat="45.97764" lon="7.11314">
        <ele>1651</ele>
        <time>2022-08-27T18:48:06Z</time>
      </trkpt>
      <trkpt lat="45.97766" lon="7.11314">
        <ele>1651</ele>
        <time>2022-08-27T18:48:07Z</time>
      </trkpt>
      <trkpt lat="45.97768" lon="7.11315">
        <ele>1651</ele>
        <time>2022-08-27T18:48:08Z</time>
      </trkpt>
      <trkpt lat="45.97769" lon="7.11315">
        <ele>1651</ele>
        <time>2022-08-27T18:48:10Z</time>
      </trkpt>
      <trkpt lat="45.97771" lon="7.11316">
        <ele>1650</ele>
        <time>2022-08-27T18:48:12Z</time>
      </trkpt>
      <trkpt lat="45.97773" lon="7.11316">
        <ele>1650</ele>
        <time>2022-08-27T18:48:13Z</time>
      </trkpt>
      <trkpt lat="45.9778" lon="7.11318">
        <ele>1651</ele>
        <time>2022-08-27T18:48:17Z</time>
      </trkpt>
      <trkpt lat="45.97782" lon="7.11318">
        <ele>1651</ele>
        <time>2022-08-27T18:48:18Z</time>
      </trkpt>
      <trkpt lat="45.97784" lon="7.11317">
        <ele>1651</ele>
        <time>2022-08-27T18:48:19Z</time>
      </trkpt>
      <trkpt lat="45.97786" lon="7.11318">
        <ele>1651</ele>
        <time>2022-08-27T18:48:21Z</time>
      </trkpt>
      <trkpt lat="45.97787" lon="7.11318">
        <ele>1651</ele>
        <time>2022-08-27T18:48:23Z</time>
      </trkpt>
      <trkpt lat="45.97788" lon="7.11318">
        <ele>1651</ele>
        <time>2022-08-27T18:48:25Z</time>
      </trkpt>
      <trkpt lat="45.97789" lon="7.11318">
        <ele>1651</ele>
        <time>2022-08-27T18:48:26Z</time>
      </trkpt>
      <trkpt lat="45.97789" lon="7.11318">
        <ele>1650</ele>
        <time>2022-08-27T18:48:27Z</time>
      </trkpt>
      <trkpt lat="45.97799" lon="7.11316">
        <ele>1650</ele>
        <time>2022-08-27T18:48:29Z</time>
      </trkpt>
      <trkpt lat="45.97801" lon="7.11316">
        <ele>1650</ele>
        <time>2022-08-27T18:48:31Z</time>
      </trkpt>
      <trkpt lat="45.97803" lon="7.11315">
        <ele>1650</ele>
        <time>2022-08-27T18:48:32Z</time>
      </trkpt>
      <trkpt lat="45.97806" lon="7.11314">
        <ele>1650</ele>
        <time>2022-08-27T18:48:33Z</time>
      </trkpt>
      <trkpt lat="45.97808" lon="7.11314">
        <ele>1650</ele>
        <time>2022-08-27T18:48:35Z</time>
      </trkpt>
      <trkpt lat="45.97811" lon="7.11314">
        <ele>1650</ele>
        <time>2022-08-27T18:48:38Z</time>
      </trkpt>
      <trkpt lat="45.97813" lon="7.11316">
        <ele>1650</ele>
        <time>2022-08-27T18:48:40Z</time>
      </trkpt>
      <trkpt lat="45.97817" lon="7.11315">
        <ele>1650</ele>
        <time>2022-08-27T18:48:43Z</time>
      </trkpt>
      <trkpt lat="45.97819" lon="7.11316">
        <ele>1650</ele>
        <time>2022-08-27T18:48:44Z</time>
      </trkpt>
      <trkpt lat="45.97821" lon="7.11316">
        <ele>1650</ele>
        <time>2022-08-27T18:48:45Z</time>
      </trkpt>
      <trkpt lat="45.97823" lon="7.11316">
        <ele>1650</ele>
        <time>2022-08-27T18:48:46Z</time>
      </trkpt>
      <trkpt lat="45.97824" lon="7.11316">
        <ele>1650</ele>
        <time>2022-08-27T18:48:48Z</time>
      </trkpt>
      <trkpt lat="45.97826" lon="7.11316">
        <ele>1649</ele>
        <time>2022-08-27T18:48:50Z</time>
      </trkpt>
      <trkpt lat="45.97828" lon="7.11316">
        <ele>1649</ele>
        <time>2022-08-27T18:48:51Z</time>
      </trkpt>
      <trkpt lat="45.97829" lon="7.11316">
        <ele>1650</ele>
        <time>2022-08-27T18:48:52Z</time>
      </trkpt>
      <trkpt lat="45.97831" lon="7.11316">
        <ele>1650</ele>
        <time>2022-08-27T18:48:53Z</time>
      </trkpt>
      <trkpt lat="45.97833" lon="7.11316">
        <ele>1650</ele>
        <time>2022-08-27T18:48:55Z</time>
      </trkpt>
      <trkpt lat="45.97834" lon="7.11316">
        <ele>1650</ele>
        <time>2022-08-27T18:48:56Z</time>
      </trkpt>
      <trkpt lat="45.97836" lon="7.11316">
        <ele>1650</ele>
        <time>2022-08-27T18:48:57Z</time>
      </trkpt>
      <trkpt lat="45.97838" lon="7.11316">
        <ele>1650</ele>
        <time>2022-08-27T18:48:58Z</time>
      </trkpt>
      <trkpt lat="45.97838" lon="7.11316">
        <ele>1650</ele>
        <time>2022-08-27T18:48:59Z</time>
      </trkpt>
      <trkpt lat="45.97839" lon="7.11316">
        <ele>1650</ele>
        <time>2022-08-27T18:49:00Z</time>
      </trkpt>
      <trkpt lat="45.9784" lon="7.11316">
        <ele>1650</ele>
        <time>2022-08-27T18:49:01Z</time>
      </trkpt>
      <trkpt lat="45.97841" lon="7.11315">
        <ele>1650</ele>
        <time>2022-08-27T18:49:03Z</time>
      </trkpt>
      <trkpt lat="45.97841" lon="7.11315">
        <ele>1650</ele>
        <time>2022-08-27T18:49:04Z</time>
      </trkpt>
      <trkpt lat="45.97842" lon="7.11315">
        <ele>1650</ele>
        <time>2022-08-27T18:49:05Z</time>
      </trkpt>
      <trkpt lat="45.97852" lon="7.11313">
        <ele>1651</ele>
        <time>2022-08-27T18:49:07Z</time>
      </trkpt>
      <trkpt lat="45.97854" lon="7.11313">
        <ele>1651</ele>
        <time>2022-08-27T18:49:09Z</time>
      </trkpt>
      <trkpt lat="45.97855" lon="7.11312">
        <ele>1651</ele>
        <time>2022-08-27T18:49:11Z</time>
      </trkpt>
      <trkpt lat="45.97857" lon="7.11312">
        <ele>1651</ele>
        <time>2022-08-27T18:49:12Z</time>
      </trkpt>
      <trkpt lat="45.97858" lon="7.11312">
        <ele>1651</ele>
        <time>2022-08-27T18:49:13Z</time>
      </trkpt>
      <trkpt lat="45.9786" lon="7.11312">
        <ele>1651</ele>
        <time>2022-08-27T18:49:14Z</time>
      </trkpt>
      <trkpt lat="45.97861" lon="7.11312">
        <ele>1651</ele>
        <time>2022-08-27T18:49:16Z</time>
      </trkpt>
      <trkpt lat="45.97863" lon="7.11311">
        <ele>1651</ele>
        <time>2022-08-27T18:49:17Z</time>
      </trkpt>
      <trkpt lat="45.97864" lon="7.11311">
        <ele>1651</ele>
        <time>2022-08-27T18:49:18Z</time>
      </trkpt>
      <trkpt lat="45.97865" lon="7.11311">
        <ele>1651</ele>
        <time>2022-08-27T18:49:19Z</time>
      </trkpt>
      <trkpt lat="45.97875" lon="7.11311">
        <ele>1650</ele>
        <time>2022-08-27T18:49:26Z</time>
      </trkpt>
      <trkpt lat="45.97876" lon="7.11311">
        <ele>1651</ele>
        <time>2022-08-27T18:49:28Z</time>
      </trkpt>
      <trkpt lat="45.97877" lon="7.11311">
        <ele>1651</ele>
        <time>2022-08-27T18:49:29Z</time>
      </trkpt>
      <trkpt lat="45.97879" lon="7.1131">
        <ele>1651</ele>
        <time>2022-08-27T18:49:30Z</time>
      </trkpt>
      <trkpt lat="45.9788" lon="7.1131">
        <ele>1651</ele>
        <time>2022-08-27T18:49:31Z</time>
      </trkpt>
      <trkpt lat="45.97882" lon="7.1131">
        <ele>1651</ele>
        <time>2022-08-27T18:49:33Z</time>
      </trkpt>
      <trkpt lat="45.97883" lon="7.11309">
        <ele>1651</ele>
        <time>2022-08-27T18:49:34Z</time>
      </trkpt>
      <trkpt lat="45.97884" lon="7.11309">
        <ele>1651</ele>
        <time>2022-08-27T18:49:35Z</time>
      </trkpt>
      <trkpt lat="45.97894" lon="7.11305">
        <ele>1651</ele>
        <time>2022-08-27T18:49:41Z</time>
      </trkpt>
      <trkpt lat="45.97895" lon="7.11304">
        <ele>1651</ele>
        <time>2022-08-27T18:49:42Z</time>
      </trkpt>
      <trkpt lat="45.97896" lon="7.11304">
        <ele>1651</ele>
        <time>2022-08-27T18:49:43Z</time>
      </trkpt>
      <trkpt lat="45.97897" lon="7.11304">
        <ele>1651</ele>
        <time>2022-08-27T18:49:45Z</time>
      </trkpt>
      <trkpt lat="45.97898" lon="7.11304">
        <ele>1651</ele>
        <time>2022-08-27T18:49:46Z</time>
      </trkpt>
      <trkpt lat="45.97899" lon="7.11303">
        <ele>1651</ele>
        <time>2022-08-27T18:49:47Z</time>
      </trkpt>
      <trkpt lat="45.979" lon="7.11303">
        <ele>1651</ele>
        <time>2022-08-27T18:49:49Z</time>
      </trkpt>
      <trkpt lat="45.97901" lon="7.11303">
        <ele>1651</ele>
        <time>2022-08-27T18:49:50Z</time>
      </trkpt>
      <trkpt lat="45.97902" lon="7.11303">
        <ele>1651</ele>
        <time>2022-08-27T18:49:51Z</time>
      </trkpt>
      <trkpt lat="45.97903" lon="7.11303">
        <ele>1651</ele>
        <time>2022-08-27T18:49:52Z</time>
      </trkpt>
      <trkpt lat="45.97905" lon="7.11301">
        <ele>1651</ele>
        <time>2022-08-27T18:49:54Z</time>
      </trkpt>
      <trkpt lat="45.97908" lon="7.113">
        <ele>1651</ele>
        <time>2022-08-27T18:49:55Z</time>
      </trkpt>
      <trkpt lat="45.97911" lon="7.11298">
        <ele>1651</ele>
        <time>2022-08-27T18:49:56Z</time>
      </trkpt>
      <trkpt lat="45.97912" lon="7.11297">
        <ele>1651</ele>
        <time>2022-08-27T18:49:57Z</time>
      </trkpt>
      <trkpt lat="45.97914" lon="7.11296">
        <ele>1651</ele>
        <time>2022-08-27T18:49:59Z</time>
      </trkpt>
      <trkpt lat="45.97916" lon="7.11295">
        <ele>1651</ele>
        <time>2022-08-27T18:50:00Z</time>
      </trkpt>
      <trkpt lat="45.97918" lon="7.11294">
        <ele>1650</ele>
        <time>2022-08-27T18:50:01Z</time>
      </trkpt>
      <trkpt lat="45.97919" lon="7.11293">
        <ele>1650</ele>
        <time>2022-08-27T18:50:02Z</time>
      </trkpt>
      <trkpt lat="45.97921" lon="7.11292">
        <ele>1650</ele>
        <time>2022-08-27T18:50:04Z</time>
      </trkpt>
      <trkpt lat="45.97922" lon="7.11291">
        <ele>1650</ele>
        <time>2022-08-27T18:50:05Z</time>
      </trkpt>
      <trkpt lat="45.97924" lon="7.1129">
        <ele>1650</ele>
        <time>2022-08-27T18:50:06Z</time>
      </trkpt>
      <trkpt lat="45.97925" lon="7.11289">
        <ele>1650</ele>
        <time>2022-08-27T18:50:07Z</time>
      </trkpt>
      <trkpt lat="45.97927" lon="7.11288">
        <ele>1650</ele>
        <time>2022-08-27T18:50:08Z</time>
      </trkpt>
      <trkpt lat="45.97928" lon="7.11287">
        <ele>1650</ele>
        <time>2022-08-27T18:50:09Z</time>
      </trkpt>
      <trkpt lat="45.9793" lon="7.11286">
        <ele>1650</ele>
        <time>2022-08-27T18:50:10Z</time>
      </trkpt>
      <trkpt lat="45.97931" lon="7.11285">
        <ele>1650</ele>
        <time>2022-08-27T18:50:11Z</time>
      </trkpt>
      <trkpt lat="45.97933" lon="7.11285">
        <ele>1650</ele>
        <time>2022-08-27T18:50:12Z</time>
      </trkpt>
      <trkpt lat="45.97934" lon="7.11284">
        <ele>1650</ele>
        <time>2022-08-27T18:50:14Z</time>
      </trkpt>
      <trkpt lat="45.97935" lon="7.11283">
        <ele>1650</ele>
        <time>2022-08-27T18:50:15Z</time>
      </trkpt>
      <trkpt lat="45.97937" lon="7.11282">
        <ele>1651</ele>
        <time>2022-08-27T18:50:16Z</time>
      </trkpt>
      <trkpt lat="45.97939" lon="7.11281">
        <ele>1651</ele>
        <time>2022-08-27T18:50:17Z</time>
      </trkpt>
      <trkpt lat="45.97941" lon="7.1128">
        <ele>1651</ele>
        <time>2022-08-27T18:50:20Z</time>
      </trkpt>
      <trkpt lat="45.97944" lon="7.11278">
        <ele>1651</ele>
        <time>2022-08-27T18:50:23Z</time>
      </trkpt>
      <trkpt lat="45.97947" lon="7.11278">
        <ele>1650</ele>
        <time>2022-08-27T18:50:25Z</time>
      </trkpt>
      <trkpt lat="45.9795" lon="7.11276">
        <ele>1650</ele>
        <time>2022-08-27T18:50:27Z</time>
      </trkpt>
      <trkpt lat="45.97953" lon="7.11274">
        <ele>1650</ele>
        <time>2022-08-27T18:50:31Z</time>
      </trkpt>
      <trkpt lat="45.97955" lon="7.11274">
        <ele>1650</ele>
        <time>2022-08-27T18:50:33Z</time>
      </trkpt>
      <trkpt lat="45.97958" lon="7.11275">
        <ele>1650</ele>
        <time>2022-08-27T18:50:35Z</time>
      </trkpt>
      <trkpt lat="45.97962" lon="7.11276">
        <ele>1650</ele>
        <time>2022-08-27T18:50:37Z</time>
      </trkpt>
      <trkpt lat="45.97963" lon="7.11277">
        <ele>1650</ele>
        <time>2022-08-27T18:50:38Z</time>
      </trkpt>
      <trkpt lat="45.97964" lon="7.11278">
        <ele>1650</ele>
        <time>2022-08-27T18:50:39Z</time>
      </trkpt>
      <trkpt lat="45.97966" lon="7.11279">
        <ele>1650</ele>
        <time>2022-08-27T18:50:40Z</time>
      </trkpt>
      <trkpt lat="45.97967" lon="7.11279">
        <ele>1650</ele>
        <time>2022-08-27T18:50:42Z</time>
      </trkpt>
      <trkpt lat="45.97968" lon="7.1128">
        <ele>1650</ele>
        <time>2022-08-27T18:50:43Z</time>
      </trkpt>
      <trkpt lat="45.9797" lon="7.11281">
        <ele>1650</ele>
        <time>2022-08-27T18:50:44Z</time>
      </trkpt>
      <trkpt lat="45.97971" lon="7.11285">
        <ele>1650</ele>
        <time>2022-08-27T18:50:46Z</time>
      </trkpt>
      <trkpt lat="45.97972" lon="7.11289">
        <ele>1650</ele>
        <time>2022-08-27T18:50:48Z</time>
      </trkpt>
      <trkpt lat="45.97972" lon="7.11293">
        <ele>1650</ele>
        <time>2022-08-27T18:50:50Z</time>
      </trkpt>
      <trkpt lat="45.97972" lon="7.11296">
        <ele>1650</ele>
        <time>2022-08-27T18:50:52Z</time>
      </trkpt>
      <trkpt lat="45.97972" lon="7.11299">
        <ele>1650</ele>
        <time>2022-08-27T18:50:54Z</time>
      </trkpt>
      <trkpt lat="45.97972" lon="7.11304">
        <ele>1650</ele>
        <time>2022-08-27T18:50:56Z</time>
      </trkpt>
      <trkpt lat="45.97972" lon="7.1131">
        <ele>1649</ele>
        <time>2022-08-27T18:50:58Z</time>
      </trkpt>
      <trkpt lat="45.97972" lon="7.11311">
        <ele>1649</ele>
        <time>2022-08-27T18:50:59Z</time>
      </trkpt>
      <trkpt lat="45.97972" lon="7.11312">
        <ele>1649</ele>
        <time>2022-08-27T18:51:01Z</time>
      </trkpt>
      <trkpt lat="45.97973" lon="7.11314">
        <ele>1648</ele>
        <time>2022-08-27T18:51:02Z</time>
      </trkpt>
      <trkpt lat="45.97973" lon="7.11315">
        <ele>1648</ele>
        <time>2022-08-27T18:51:03Z</time>
      </trkpt>
      <trkpt lat="45.97973" lon="7.11331">
        <ele>1648</ele>
        <time>2022-08-27T18:51:05Z</time>
      </trkpt>
      <trkpt lat="45.97973" lon="7.11335">
        <ele>1648</ele>
        <time>2022-08-27T18:51:06Z</time>
      </trkpt>
      <trkpt lat="45.97973" lon="7.11338">
        <ele>1648</ele>
        <time>2022-08-27T18:51:07Z</time>
      </trkpt>
      <trkpt lat="45.97973" lon="7.1134">
        <ele>1647</ele>
        <time>2022-08-27T18:51:08Z</time>
      </trkpt>
      <trkpt lat="45.97974" lon="7.11343">
        <ele>1647</ele>
        <time>2022-08-27T18:51:09Z</time>
      </trkpt>
      <trkpt lat="45.97974" lon="7.11345">
        <ele>1647</ele>
        <time>2022-08-27T18:51:10Z</time>
      </trkpt>
      <trkpt lat="45.97975" lon="7.11349">
        <ele>1646</ele>
        <time>2022-08-27T18:51:12Z</time>
      </trkpt>
      <trkpt lat="45.97975" lon="7.11353">
        <ele>1646</ele>
        <time>2022-08-27T18:51:14Z</time>
      </trkpt>
      <trkpt lat="45.97975" lon="7.11359">
        <ele>1646</ele>
        <time>2022-08-27T18:51:16Z</time>
      </trkpt>
      <trkpt lat="45.97975" lon="7.11364">
        <ele>1646</ele>
        <time>2022-08-27T18:51:17Z</time>
      </trkpt>
      <trkpt lat="45.97975" lon="7.11367">
        <ele>1646</ele>
        <time>2022-08-27T18:51:19Z</time>
      </trkpt>
      <trkpt lat="45.97975" lon="7.11371">
        <ele>1646</ele>
        <time>2022-08-27T18:51:21Z</time>
      </trkpt>
      <trkpt lat="45.97975" lon="7.11376">
        <ele>1644</ele>
        <time>2022-08-27T18:51:23Z</time>
      </trkpt>
      <trkpt lat="45.97975" lon="7.1138">
        <ele>1644</ele>
        <time>2022-08-27T18:51:25Z</time>
      </trkpt>
      <trkpt lat="45.97974" lon="7.11382">
        <ele>1644</ele>
        <time>2022-08-27T18:51:26Z</time>
      </trkpt>
      <trkpt lat="45.97973" lon="7.11385">
        <ele>1644</ele>
        <time>2022-08-27T18:51:27Z</time>
      </trkpt>
      <trkpt lat="45.97973" lon="7.11389">
        <ele>1644</ele>
        <time>2022-08-27T18:51:29Z</time>
      </trkpt>
      <trkpt lat="45.97973" lon="7.11391">
        <ele>1644</ele>
        <time>2022-08-27T18:51:30Z</time>
      </trkpt>
      <trkpt lat="45.97972" lon="7.11393">
        <ele>1644</ele>
        <time>2022-08-27T18:51:31Z</time>
      </trkpt>
      <trkpt lat="45.97972" lon="7.11395">
        <ele>1644</ele>
        <time>2022-08-27T18:51:32Z</time>
      </trkpt>
      <trkpt lat="45.97971" lon="7.11398">
        <ele>1644</ele>
        <time>2022-08-27T18:51:33Z</time>
      </trkpt>
      <trkpt lat="45.9797" lon="7.114">
        <ele>1644</ele>
        <time>2022-08-27T18:51:34Z</time>
      </trkpt>
      <trkpt lat="45.9797" lon="7.11403">
        <ele>1644</ele>
        <time>2022-08-27T18:51:35Z</time>
      </trkpt>
      <trkpt lat="45.97969" lon="7.11406">
        <ele>1644</ele>
        <time>2022-08-27T18:51:36Z</time>
      </trkpt>
      <trkpt lat="45.97969" lon="7.1141">
        <ele>1643</ele>
        <time>2022-08-27T18:51:38Z</time>
      </trkpt>
      <trkpt lat="45.97968" lon="7.11415">
        <ele>1642</ele>
        <time>2022-08-27T18:51:40Z</time>
      </trkpt>
      <trkpt lat="45.97968" lon="7.11417">
        <ele>1642</ele>
        <time>2022-08-27T18:51:41Z</time>
      </trkpt>
      <trkpt lat="45.97968" lon="7.11419">
        <ele>1642</ele>
        <time>2022-08-27T18:51:42Z</time>
      </trkpt>
      <trkpt lat="45.97968" lon="7.11422">
        <ele>1642</ele>
        <time>2022-08-27T18:51:43Z</time>
      </trkpt>
      <trkpt lat="45.97968" lon="7.11426">
        <ele>1642</ele>
        <time>2022-08-27T18:51:45Z</time>
      </trkpt>
      <trkpt lat="45.97967" lon="7.11428">
        <ele>1642</ele>
        <time>2022-08-27T18:51:46Z</time>
      </trkpt>
      <trkpt lat="45.97967" lon="7.11431">
        <ele>1642</ele>
        <time>2022-08-27T18:51:47Z</time>
      </trkpt>
      <trkpt lat="45.97966" lon="7.11433">
        <ele>1641</ele>
        <time>2022-08-27T18:51:48Z</time>
      </trkpt>
      <trkpt lat="45.97966" lon="7.11438">
        <ele>1641</ele>
        <time>2022-08-27T18:51:49Z</time>
      </trkpt>
      <trkpt lat="45.97965" lon="7.11439">
        <ele>1641</ele>
        <time>2022-08-27T18:51:50Z</time>
      </trkpt>
      <trkpt lat="45.97964" lon="7.11443">
        <ele>1641</ele>
        <time>2022-08-27T18:51:52Z</time>
      </trkpt>
      <trkpt lat="45.97964" lon="7.11447">
        <ele>1641</ele>
        <time>2022-08-27T18:51:54Z</time>
      </trkpt>
      <trkpt lat="45.97963" lon="7.11451">
        <ele>1640</ele>
        <time>2022-08-27T18:51:56Z</time>
      </trkpt>
      <trkpt lat="45.97963" lon="7.11454">
        <ele>1640</ele>
        <time>2022-08-27T18:51:58Z</time>
      </trkpt>
      <trkpt lat="45.97963" lon="7.11458">
        <ele>1640</ele>
        <time>2022-08-27T18:52:00Z</time>
      </trkpt>
      <trkpt lat="45.97962" lon="7.11462">
        <ele>1639</ele>
        <time>2022-08-27T18:52:02Z</time>
      </trkpt>
      <trkpt lat="45.97962" lon="7.11466">
        <ele>1639</ele>
        <time>2022-08-27T18:52:04Z</time>
      </trkpt>
      <trkpt lat="45.97962" lon="7.11469">
        <ele>1639</ele>
        <time>2022-08-27T18:52:06Z</time>
      </trkpt>
      <trkpt lat="45.97962" lon="7.11472">
        <ele>1639</ele>
        <time>2022-08-27T18:52:08Z</time>
      </trkpt>
      <trkpt lat="45.97962" lon="7.11477">
        <ele>1639</ele>
        <time>2022-08-27T18:52:09Z</time>
      </trkpt>
      <trkpt lat="45.97961" lon="7.11481">
        <ele>1638</ele>
        <time>2022-08-27T18:52:12Z</time>
      </trkpt>
      <trkpt lat="45.97961" lon="7.11485">
        <ele>1638</ele>
        <time>2022-08-27T18:52:14Z</time>
      </trkpt>
      <trkpt lat="45.9796" lon="7.11488">
        <ele>1637</ele>
        <time>2022-08-27T18:52:16Z</time>
      </trkpt>
      <trkpt lat="45.9796" lon="7.11492">
        <ele>1637</ele>
        <time>2022-08-27T18:52:18Z</time>
      </trkpt>
      <trkpt lat="45.97959" lon="7.11496">
        <ele>1637</ele>
        <time>2022-08-27T18:52:20Z</time>
      </trkpt>
      <trkpt lat="45.97958" lon="7.115">
        <ele>1637</ele>
        <time>2022-08-27T18:52:21Z</time>
      </trkpt>
      <trkpt lat="45.97957" lon="7.11504">
        <ele>1636</ele>
        <time>2022-08-27T18:52:24Z</time>
      </trkpt>
      <trkpt lat="45.97956" lon="7.11508">
        <ele>1636</ele>
        <time>2022-08-27T18:52:26Z</time>
      </trkpt>
      <trkpt lat="45.97956" lon="7.11511">
        <ele>1636</ele>
        <time>2022-08-27T18:52:27Z</time>
      </trkpt>
      <trkpt lat="45.97955" lon="7.11516">
        <ele>1636</ele>
        <time>2022-08-27T18:52:29Z</time>
      </trkpt>
      <trkpt lat="45.97954" lon="7.1152">
        <ele>1635</ele>
        <time>2022-08-27T18:52:31Z</time>
      </trkpt>
      <trkpt lat="45.97953" lon="7.11522">
        <ele>1635</ele>
        <time>2022-08-27T18:52:32Z</time>
      </trkpt>
      <trkpt lat="45.97952" lon="7.11525">
        <ele>1635</ele>
        <time>2022-08-27T18:52:33Z</time>
      </trkpt>
      <trkpt lat="45.97951" lon="7.11527">
        <ele>1635</ele>
        <time>2022-08-27T18:52:35Z</time>
      </trkpt>
      <trkpt lat="45.9795" lon="7.11529">
        <ele>1635</ele>
        <time>2022-08-27T18:52:36Z</time>
      </trkpt>
      <trkpt lat="45.97949" lon="7.11532">
        <ele>1634</ele>
        <time>2022-08-27T18:52:37Z</time>
      </trkpt>
      <trkpt lat="45.97948" lon="7.11535">
        <ele>1633</ele>
        <time>2022-08-27T18:52:38Z</time>
      </trkpt>
      <trkpt lat="45.97947" lon="7.11537">
        <ele>1633</ele>
        <time>2022-08-27T18:52:39Z</time>
      </trkpt>
      <trkpt lat="45.97947" lon="7.1154">
        <ele>1633</ele>
        <time>2022-08-27T18:52:41Z</time>
      </trkpt>
      <trkpt lat="45.97947" lon="7.11543">
        <ele>1633</ele>
        <time>2022-08-27T18:52:42Z</time>
      </trkpt>
      <trkpt lat="45.97947" lon="7.11546">
        <ele>1632</ele>
        <time>2022-08-27T18:52:43Z</time>
      </trkpt>
      <trkpt lat="45.97947" lon="7.11549">
        <ele>1632</ele>
        <time>2022-08-27T18:52:45Z</time>
      </trkpt>
      <trkpt lat="45.97946" lon="7.11552">
        <ele>1632</ele>
        <time>2022-08-27T18:52:46Z</time>
      </trkpt>
      <trkpt lat="45.97946" lon="7.11556">
        <ele>1632</ele>
        <time>2022-08-27T18:52:48Z</time>
      </trkpt>
      <trkpt lat="45.97944" lon="7.1157">
        <ele>1630</ele>
        <time>2022-08-27T18:52:55Z</time>
      </trkpt>
      <trkpt lat="45.97943" lon="7.11572">
        <ele>1630</ele>
        <time>2022-08-27T18:52:57Z</time>
      </trkpt>
      <trkpt lat="45.97943" lon="7.11574">
        <ele>1630</ele>
        <time>2022-08-27T18:52:58Z</time>
      </trkpt>
      <trkpt lat="45.97942" lon="7.11576">
        <ele>1630</ele>
        <time>2022-08-27T18:52:59Z</time>
      </trkpt>
      <trkpt lat="45.97941" lon="7.11578">
        <ele>1630</ele>
        <time>2022-08-27T18:53:00Z</time>
      </trkpt>
      <trkpt lat="45.97941" lon="7.1158">
        <ele>1630</ele>
        <time>2022-08-27T18:53:02Z</time>
      </trkpt>
      <trkpt lat="45.9794" lon="7.11582">
        <ele>1630</ele>
        <time>2022-08-27T18:53:03Z</time>
      </trkpt>
      <trkpt lat="45.97939" lon="7.11584">
        <ele>1630</ele>
        <time>2022-08-27T18:53:04Z</time>
      </trkpt>
      <trkpt lat="45.97938" lon="7.11586">
        <ele>1630</ele>
        <time>2022-08-27T18:53:05Z</time>
      </trkpt>
      <trkpt lat="45.97936" lon="7.11588">
        <ele>1630</ele>
        <time>2022-08-27T18:53:06Z</time>
      </trkpt>
      <trkpt lat="45.97935" lon="7.1159">
        <ele>1630</ele>
        <time>2022-08-27T18:53:08Z</time>
      </trkpt>
      <trkpt lat="45.97934" lon="7.11592">
        <ele>1630</ele>
        <time>2022-08-27T18:53:09Z</time>
      </trkpt>
      <trkpt lat="45.97933" lon="7.11595">
        <ele>1630</ele>
        <time>2022-08-27T18:53:10Z</time>
      </trkpt>
      <trkpt lat="45.97933" lon="7.11597">
        <ele>1630</ele>
        <time>2022-08-27T18:53:11Z</time>
      </trkpt>
      <trkpt lat="45.97932" lon="7.116">
        <ele>1630</ele>
        <time>2022-08-27T18:53:13Z</time>
      </trkpt>
      <trkpt lat="45.97932" lon="7.11602">
        <ele>1630</ele>
        <time>2022-08-27T18:53:14Z</time>
      </trkpt>
      <trkpt lat="45.97931" lon="7.11605">
        <ele>1630</ele>
        <time>2022-08-27T18:53:15Z</time>
      </trkpt>
      <trkpt lat="45.97931" lon="7.11608">
        <ele>1629</ele>
        <time>2022-08-27T18:53:16Z</time>
      </trkpt>
      <trkpt lat="45.9793" lon="7.1161">
        <ele>1629</ele>
        <time>2022-08-27T18:53:18Z</time>
      </trkpt>
      <trkpt lat="45.9793" lon="7.11613">
        <ele>1629</ele>
        <time>2022-08-27T18:53:19Z</time>
      </trkpt>
      <trkpt lat="45.9793" lon="7.11615">
        <ele>1629</ele>
        <time>2022-08-27T18:53:20Z</time>
      </trkpt>
      <trkpt lat="45.97929" lon="7.11618">
        <ele>1629</ele>
        <time>2022-08-27T18:53:21Z</time>
      </trkpt>
      <trkpt lat="45.97929" lon="7.11622">
        <ele>1629</ele>
        <time>2022-08-27T18:53:23Z</time>
      </trkpt>
      <trkpt lat="45.97928" lon="7.11625">
        <ele>1629</ele>
        <time>2022-08-27T18:53:25Z</time>
      </trkpt>
      <trkpt lat="45.97927" lon="7.11628">
        <ele>1628</ele>
        <time>2022-08-27T18:53:27Z</time>
      </trkpt>
      <trkpt lat="45.97926" lon="7.11631">
        <ele>1628</ele>
        <time>2022-08-27T18:53:29Z</time>
      </trkpt>
      <trkpt lat="45.97925" lon="7.11636">
        <ele>1628</ele>
        <time>2022-08-27T18:53:31Z</time>
      </trkpt>
      <trkpt lat="45.97923" lon="7.1164">
        <ele>1628</ele>
        <time>2022-08-27T18:53:33Z</time>
      </trkpt>
      <trkpt lat="45.97923" lon="7.11644">
        <ele>1627</ele>
        <time>2022-08-27T18:53:35Z</time>
      </trkpt>
      <trkpt lat="45.97923" lon="7.11646">
        <ele>1627</ele>
        <time>2022-08-27T18:53:36Z</time>
      </trkpt>
      <trkpt lat="45.97922" lon="7.11648">
        <ele>1627</ele>
        <time>2022-08-27T18:53:37Z</time>
      </trkpt>
      <trkpt lat="45.97922" lon="7.11649">
        <ele>1627</ele>
        <time>2022-08-27T18:53:38Z</time>
      </trkpt>
      <trkpt lat="45.97922" lon="7.11651">
        <ele>1627</ele>
        <time>2022-08-27T18:53:39Z</time>
      </trkpt>
      <trkpt lat="45.97921" lon="7.11656">
        <ele>1627</ele>
        <time>2022-08-27T18:53:40Z</time>
      </trkpt>
      <trkpt lat="45.9792" lon="7.1166">
        <ele>1627</ele>
        <time>2022-08-27T18:53:41Z</time>
      </trkpt>
      <trkpt lat="45.97919" lon="7.11662">
        <ele>1627</ele>
        <time>2022-08-27T18:53:43Z</time>
      </trkpt>
      <trkpt lat="45.97918" lon="7.11666">
        <ele>1626</ele>
        <time>2022-08-27T18:53:45Z</time>
      </trkpt>
      <trkpt lat="45.97916" lon="7.11669">
        <ele>1626</ele>
        <time>2022-08-27T18:53:47Z</time>
      </trkpt>
      <trkpt lat="45.97915" lon="7.11673">
        <ele>1626</ele>
        <time>2022-08-27T18:53:49Z</time>
      </trkpt>
      <trkpt lat="45.97914" lon="7.11675">
        <ele>1626</ele>
        <time>2022-08-27T18:53:51Z</time>
      </trkpt>
      <trkpt lat="45.97914" lon="7.11678">
        <ele>1626</ele>
        <time>2022-08-27T18:53:53Z</time>
      </trkpt>
      <trkpt lat="45.97914" lon="7.11681">
        <ele>1626</ele>
        <time>2022-08-27T18:53:55Z</time>
      </trkpt>
      <trkpt lat="45.97913" lon="7.11684">
        <ele>1625</ele>
        <time>2022-08-27T18:53:57Z</time>
      </trkpt>
      <trkpt lat="45.97912" lon="7.11688">
        <ele>1625</ele>
        <time>2022-08-27T18:53:58Z</time>
      </trkpt>
      <trkpt lat="45.97911" lon="7.11691">
        <ele>1625</ele>
        <time>2022-08-27T18:54:01Z</time>
      </trkpt>
      <trkpt lat="45.9791" lon="7.11695">
        <ele>1624</ele>
        <time>2022-08-27T18:54:03Z</time>
      </trkpt>
      <trkpt lat="45.97909" lon="7.117">
        <ele>1624</ele>
        <time>2022-08-27T18:54:05Z</time>
      </trkpt>
      <trkpt lat="45.97908" lon="7.11703">
        <ele>1624</ele>
        <time>2022-08-27T18:54:07Z</time>
      </trkpt>
      <trkpt lat="45.97907" lon="7.11707">
        <ele>1624</ele>
        <time>2022-08-27T18:54:09Z</time>
      </trkpt>
      <trkpt lat="45.97907" lon="7.11709">
        <ele>1623</ele>
        <time>2022-08-27T18:54:11Z</time>
      </trkpt>
      <trkpt lat="45.97906" lon="7.1171">
        <ele>1623</ele>
        <time>2022-08-27T18:54:12Z</time>
      </trkpt>
      <trkpt lat="45.97906" lon="7.11711">
        <ele>1623</ele>
        <time>2022-08-27T18:54:13Z</time>
      </trkpt>
      <trkpt lat="45.97905" lon="7.11713">
        <ele>1623</ele>
        <time>2022-08-27T18:54:15Z</time>
      </trkpt>
      <trkpt lat="45.97905" lon="7.11714">
        <ele>1623</ele>
        <time>2022-08-27T18:54:16Z</time>
      </trkpt>
      <trkpt lat="45.97902" lon="7.11724">
        <ele>1623</ele>
        <time>2022-08-27T18:54:17Z</time>
      </trkpt>
      <trkpt lat="45.97902" lon="7.11726">
        <ele>1623</ele>
        <time>2022-08-27T18:54:18Z</time>
      </trkpt>
      <trkpt lat="45.97901" lon="7.11729">
        <ele>1623</ele>
        <time>2022-08-27T18:54:20Z</time>
      </trkpt>
      <trkpt lat="45.979" lon="7.11731">
        <ele>1623</ele>
        <time>2022-08-27T18:54:21Z</time>
      </trkpt>
      <trkpt lat="45.979" lon="7.11734">
        <ele>1623</ele>
        <time>2022-08-27T18:54:22Z</time>
      </trkpt>
      <trkpt lat="45.979" lon="7.11747">
        <ele>1622</ele>
        <time>2022-08-27T18:54:30Z</time>
      </trkpt>
      <trkpt lat="45.97899" lon="7.1175">
        <ele>1622</ele>
        <time>2022-08-27T18:54:32Z</time>
      </trkpt>
      <trkpt lat="45.97898" lon="7.11753">
        <ele>1622</ele>
        <time>2022-08-27T18:54:34Z</time>
      </trkpt>
      <trkpt lat="45.97897" lon="7.11756">
        <ele>1622</ele>
        <time>2022-08-27T18:54:35Z</time>
      </trkpt>
      <trkpt lat="45.97896" lon="7.1176">
        <ele>1622</ele>
        <time>2022-08-27T18:54:36Z</time>
      </trkpt>
      <trkpt lat="45.97896" lon="7.11763">
        <ele>1622</ele>
        <time>2022-08-27T18:54:37Z</time>
      </trkpt>
      <trkpt lat="45.97895" lon="7.11765">
        <ele>1621</ele>
        <time>2022-08-27T18:54:39Z</time>
      </trkpt>
      <trkpt lat="45.97895" lon="7.11768">
        <ele>1621</ele>
        <time>2022-08-27T18:54:40Z</time>
      </trkpt>
      <trkpt lat="45.97895" lon="7.11774">
        <ele>1621</ele>
        <time>2022-08-27T18:54:43Z</time>
      </trkpt>
      <trkpt lat="45.97894" lon="7.11777">
        <ele>1619</ele>
        <time>2022-08-27T18:54:46Z</time>
      </trkpt>
      <trkpt lat="45.97893" lon="7.11779">
        <ele>1619</ele>
        <time>2022-08-27T18:54:47Z</time>
      </trkpt>
      <trkpt lat="45.97892" lon="7.11781">
        <ele>1619</ele>
        <time>2022-08-27T18:54:49Z</time>
      </trkpt>
      <trkpt lat="45.97891" lon="7.11784">
        <ele>1619</ele>
        <time>2022-08-27T18:54:50Z</time>
      </trkpt>
      <trkpt lat="45.9789" lon="7.11786">
        <ele>1619</ele>
        <time>2022-08-27T18:54:51Z</time>
      </trkpt>
      <trkpt lat="45.97889" lon="7.11791">
        <ele>1619</ele>
        <time>2022-08-27T18:54:52Z</time>
      </trkpt>
      <trkpt lat="45.97888" lon="7.11794">
        <ele>1619</ele>
        <time>2022-08-27T18:54:53Z</time>
      </trkpt>
      <trkpt lat="45.97886" lon="7.11798">
        <ele>1618</ele>
        <time>2022-08-27T18:54:56Z</time>
      </trkpt>
      <trkpt lat="45.97886" lon="7.11801">
        <ele>1618</ele>
        <time>2022-08-27T18:54:58Z</time>
      </trkpt>
      <trkpt lat="45.97887" lon="7.11805">
        <ele>1618</ele>
        <time>2022-08-27T18:55:00Z</time>
      </trkpt>
      <trkpt lat="45.97887" lon="7.1181">
        <ele>1617</ele>
        <time>2022-08-27T18:55:02Z</time>
      </trkpt>
      <trkpt lat="45.97887" lon="7.11813">
        <ele>1617</ele>
        <time>2022-08-27T18:55:04Z</time>
      </trkpt>
      <trkpt lat="45.97888" lon="7.11816">
        <ele>1617</ele>
        <time>2022-08-27T18:55:06Z</time>
      </trkpt>
      <trkpt lat="45.97891" lon="7.11827">
        <ele>1616</ele>
        <time>2022-08-27T18:55:13Z</time>
      </trkpt>
      <trkpt lat="45.97891" lon="7.11828">
        <ele>1616</ele>
        <time>2022-08-27T18:55:14Z</time>
      </trkpt>
      <trkpt lat="45.97891" lon="7.1183">
        <ele>1616</ele>
        <time>2022-08-27T18:55:15Z</time>
      </trkpt>
      <trkpt lat="45.97891" lon="7.11832">
        <ele>1616</ele>
        <time>2022-08-27T18:55:16Z</time>
      </trkpt>
      <trkpt lat="45.97891" lon="7.11836">
        <ele>1616</ele>
        <time>2022-08-27T18:55:18Z</time>
      </trkpt>
      <trkpt lat="45.97892" lon="7.11839">
        <ele>1615</ele>
        <time>2022-08-27T18:55:20Z</time>
      </trkpt>
      <trkpt lat="45.97892" lon="7.11841">
        <ele>1615</ele>
        <time>2022-08-27T18:55:21Z</time>
      </trkpt>
      <trkpt lat="45.97893" lon="7.11843">
        <ele>1615</ele>
        <time>2022-08-27T18:55:22Z</time>
      </trkpt>
      <trkpt lat="45.97893" lon="7.11845">
        <ele>1615</ele>
        <time>2022-08-27T18:55:23Z</time>
      </trkpt>
      <trkpt lat="45.97893" lon="7.11848">
        <ele>1615</ele>
        <time>2022-08-27T18:55:25Z</time>
      </trkpt>
      <trkpt lat="45.97894" lon="7.1185">
        <ele>1615</ele>
        <time>2022-08-27T18:55:26Z</time>
      </trkpt>
      <trkpt lat="45.97894" lon="7.11854">
        <ele>1615</ele>
        <time>2022-08-27T18:55:27Z</time>
      </trkpt>
      <trkpt lat="45.97896" lon="7.11857">
        <ele>1615</ele>
        <time>2022-08-27T18:55:29Z</time>
      </trkpt>
      <trkpt lat="45.97896" lon="7.1186">
        <ele>1615</ele>
        <time>2022-08-27T18:55:30Z</time>
      </trkpt>
      <trkpt lat="45.97896" lon="7.11865">
        <ele>1615</ele>
        <time>2022-08-27T18:55:32Z</time>
      </trkpt>
      <trkpt lat="45.97897" lon="7.11868">
        <ele>1615</ele>
        <time>2022-08-27T18:55:34Z</time>
      </trkpt>
      <trkpt lat="45.97897" lon="7.1187">
        <ele>1615</ele>
        <time>2022-08-27T18:55:35Z</time>
      </trkpt>
      <trkpt lat="45.97898" lon="7.11872">
        <ele>1615</ele>
        <time>2022-08-27T18:55:37Z</time>
      </trkpt>
      <trkpt lat="45.97898" lon="7.11874">
        <ele>1615</ele>
        <time>2022-08-27T18:55:39Z</time>
      </trkpt>
      <trkpt lat="45.97899" lon="7.11876">
        <ele>1615</ele>
        <time>2022-08-27T18:55:40Z</time>
      </trkpt>
      <trkpt lat="45.979" lon="7.11878">
        <ele>1615</ele>
        <time>2022-08-27T18:55:41Z</time>
      </trkpt>
      <trkpt lat="45.979" lon="7.11881">
        <ele>1615</ele>
        <time>2022-08-27T18:55:42Z</time>
      </trkpt>
      <trkpt lat="45.97905" lon="7.11892">
        <ele>1615</ele>
        <time>2022-08-27T18:55:46Z</time>
      </trkpt>
      <trkpt lat="45.97906" lon="7.11895">
        <ele>1615</ele>
        <time>2022-08-27T18:55:47Z</time>
      </trkpt>
      <trkpt lat="45.97907" lon="7.11897">
        <ele>1615</ele>
        <time>2022-08-27T18:55:48Z</time>
      </trkpt>
      <trkpt lat="45.97908" lon="7.119">
        <ele>1615</ele>
        <time>2022-08-27T18:55:50Z</time>
      </trkpt>
      <trkpt lat="45.97908" lon="7.11902">
        <ele>1615</ele>
        <time>2022-08-27T18:55:51Z</time>
      </trkpt>
      <trkpt lat="45.97909" lon="7.11905">
        <ele>1615</ele>
        <time>2022-08-27T18:55:52Z</time>
      </trkpt>
      <trkpt lat="45.9791" lon="7.11907">
        <ele>1615</ele>
        <time>2022-08-27T18:55:53Z</time>
      </trkpt>
      <trkpt lat="45.9791" lon="7.11909">
        <ele>1615</ele>
        <time>2022-08-27T18:55:55Z</time>
      </trkpt>
      <trkpt lat="45.9791" lon="7.11911">
        <ele>1615</ele>
        <time>2022-08-27T18:55:56Z</time>
      </trkpt>
      <trkpt lat="45.97911" lon="7.11913">
        <ele>1615</ele>
        <time>2022-08-27T18:55:57Z</time>
      </trkpt>
      <trkpt lat="45.97911" lon="7.11916">
        <ele>1615</ele>
        <time>2022-08-27T18:55:58Z</time>
      </trkpt>
      <trkpt lat="45.97911" lon="7.11918">
        <ele>1614</ele>
        <time>2022-08-27T18:55:59Z</time>
      </trkpt>
      <trkpt lat="45.97911" lon="7.1192">
        <ele>1614</ele>
        <time>2022-08-27T18:56:00Z</time>
      </trkpt>
      <trkpt lat="45.97911" lon="7.11922">
        <ele>1614</ele>
        <time>2022-08-27T18:56:01Z</time>
      </trkpt>
      <trkpt lat="45.97911" lon="7.11925">
        <ele>1614</ele>
        <time>2022-08-27T18:56:02Z</time>
      </trkpt>
      <trkpt lat="45.97912" lon="7.11928">
        <ele>1614</ele>
        <time>2022-08-27T18:56:04Z</time>
      </trkpt>
      <trkpt lat="45.97912" lon="7.11931">
        <ele>1614</ele>
        <time>2022-08-27T18:56:06Z</time>
      </trkpt>
      <trkpt lat="45.97913" lon="7.11935">
        <ele>1614</ele>
        <time>2022-08-27T18:56:08Z</time>
      </trkpt>
      <trkpt lat="45.97913" lon="7.11938">
        <ele>1614</ele>
        <time>2022-08-27T18:56:10Z</time>
      </trkpt>
      <trkpt lat="45.97913" lon="7.1194">
        <ele>1613</ele>
        <time>2022-08-27T18:56:11Z</time>
      </trkpt>
      <trkpt lat="45.97914" lon="7.11943">
        <ele>1614</ele>
        <time>2022-08-27T18:56:12Z</time>
      </trkpt>
      <trkpt lat="45.97914" lon="7.11945">
        <ele>1614</ele>
        <time>2022-08-27T18:56:14Z</time>
      </trkpt>
      <trkpt lat="45.97914" lon="7.11948">
        <ele>1614</ele>
        <time>2022-08-27T18:56:15Z</time>
      </trkpt>
      <trkpt lat="45.97915" lon="7.11951">
        <ele>1613</ele>
        <time>2022-08-27T18:56:16Z</time>
      </trkpt>
      <trkpt lat="45.97916" lon="7.11953">
        <ele>1613</ele>
        <time>2022-08-27T18:56:17Z</time>
      </trkpt>
      <trkpt lat="45.97917" lon="7.11955">
        <ele>1613</ele>
        <time>2022-08-27T18:56:19Z</time>
      </trkpt>
      <trkpt lat="45.97918" lon="7.11958">
        <ele>1613</ele>
        <time>2022-08-27T18:56:20Z</time>
      </trkpt>
      <trkpt lat="45.97919" lon="7.1196">
        <ele>1613</ele>
        <time>2022-08-27T18:56:21Z</time>
      </trkpt>
      <trkpt lat="45.97921" lon="7.11964">
        <ele>1613</ele>
        <time>2022-08-27T18:56:22Z</time>
      </trkpt>
      <trkpt lat="45.97922" lon="7.11967">
        <ele>1613</ele>
        <time>2022-08-27T18:56:24Z</time>
      </trkpt>
      <trkpt lat="45.97923" lon="7.1197">
        <ele>1612</ele>
        <time>2022-08-27T18:56:26Z</time>
      </trkpt>
      <trkpt lat="45.97924" lon="7.11973">
        <ele>1612</ele>
        <time>2022-08-27T18:56:27Z</time>
      </trkpt>
      <trkpt lat="45.97927" lon="7.11988">
        <ele>1613</ele>
        <time>2022-08-27T18:56:32Z</time>
      </trkpt>
      <trkpt lat="45.97927" lon="7.11991">
        <ele>1612</ele>
        <time>2022-08-27T18:56:34Z</time>
      </trkpt>
      <trkpt lat="45.97927" lon="7.11993">
        <ele>1612</ele>
        <time>2022-08-27T18:56:35Z</time>
      </trkpt>
      <trkpt lat="45.97927" lon="7.11995">
        <ele>1612</ele>
        <time>2022-08-27T18:56:36Z</time>
      </trkpt>
      <trkpt lat="45.97927" lon="7.11998">
        <ele>1612</ele>
        <time>2022-08-27T18:56:37Z</time>
      </trkpt>
      <trkpt lat="45.97927" lon="7.12002">
        <ele>1612</ele>
        <time>2022-08-27T18:56:40Z</time>
      </trkpt>
      <trkpt lat="45.97928" lon="7.12006">
        <ele>1612</ele>
        <time>2022-08-27T18:56:42Z</time>
      </trkpt>
      <trkpt lat="45.97929" lon="7.12009">
        <ele>1612</ele>
        <time>2022-08-27T18:56:44Z</time>
      </trkpt>
      <trkpt lat="45.9793" lon="7.12024">
        <ele>1611</ele>
        <time>2022-08-27T18:56:52Z</time>
      </trkpt>
      <trkpt lat="45.9793" lon="7.12025">
        <ele>1611</ele>
        <time>2022-08-27T18:56:53Z</time>
      </trkpt>
      <trkpt lat="45.9793" lon="7.12026">
        <ele>1611</ele>
        <time>2022-08-27T18:56:54Z</time>
      </trkpt>
      <trkpt lat="45.9793" lon="7.12028">
        <ele>1611</ele>
        <time>2022-08-27T18:56:55Z</time>
      </trkpt>
      <trkpt lat="45.9793" lon="7.12029">
        <ele>1611</ele>
        <time>2022-08-27T18:56:56Z</time>
      </trkpt>
      <trkpt lat="45.9793" lon="7.1203">
        <ele>1611</ele>
        <time>2022-08-27T18:56:57Z</time>
      </trkpt>
      <trkpt lat="45.97931" lon="7.12033">
        <ele>1611</ele>
        <time>2022-08-27T18:56:58Z</time>
      </trkpt>
      <trkpt lat="45.97932" lon="7.12037">
        <ele>1611</ele>
        <time>2022-08-27T18:56:59Z</time>
      </trkpt>
      <trkpt lat="45.97933" lon="7.12038">
        <ele>1610</ele>
        <time>2022-08-27T18:57:02Z</time>
      </trkpt>
      <trkpt lat="45.97933" lon="7.1204">
        <ele>1611</ele>
        <time>2022-08-27T18:57:03Z</time>
      </trkpt>
      <trkpt lat="45.97934" lon="7.12041">
        <ele>1611</ele>
        <time>2022-08-27T18:57:04Z</time>
      </trkpt>
      <trkpt lat="45.97935" lon="7.12043">
        <ele>1611</ele>
        <time>2022-08-27T18:57:05Z</time>
      </trkpt>
      <trkpt lat="45.97936" lon="7.12044">
        <ele>1611</ele>
        <time>2022-08-27T18:57:07Z</time>
      </trkpt>
      <trkpt lat="45.97937" lon="7.12046">
        <ele>1611</ele>
        <time>2022-08-27T18:57:08Z</time>
      </trkpt>
      <trkpt lat="45.97938" lon="7.12047">
        <ele>1610</ele>
        <time>2022-08-27T18:57:09Z</time>
      </trkpt>
      <trkpt lat="45.97939" lon="7.12048">
        <ele>1610</ele>
        <time>2022-08-27T18:57:10Z</time>
      </trkpt>
      <trkpt lat="45.97939" lon="7.12049">
        <ele>1610</ele>
        <time>2022-08-27T18:57:11Z</time>
      </trkpt>
      <trkpt lat="45.9794" lon="7.12051">
        <ele>1610</ele>
        <time>2022-08-27T18:57:12Z</time>
      </trkpt>
      <trkpt lat="45.97941" lon="7.12052">
        <ele>1610</ele>
        <time>2022-08-27T18:57:14Z</time>
      </trkpt>
      <trkpt lat="45.97941" lon="7.12053">
        <ele>1610</ele>
        <time>2022-08-27T18:57:15Z</time>
      </trkpt>
      <trkpt lat="45.97942" lon="7.12054">
        <ele>1610</ele>
        <time>2022-08-27T18:57:16Z</time>
      </trkpt>
      <trkpt lat="45.97943" lon="7.12055">
        <ele>1610</ele>
        <time>2022-08-27T18:57:17Z</time>
      </trkpt>
      <trkpt lat="45.97944" lon="7.12057">
        <ele>1610</ele>
        <time>2022-08-27T18:57:18Z</time>
      </trkpt>
      <trkpt lat="45.97944" lon="7.12058">
        <ele>1610</ele>
        <time>2022-08-27T18:57:19Z</time>
      </trkpt>
      <trkpt lat="45.9795" lon="7.1207">
        <ele>1609</ele>
        <time>2022-08-27T18:57:25Z</time>
      </trkpt>
      <trkpt lat="45.97951" lon="7.12073">
        <ele>1609</ele>
        <time>2022-08-27T18:57:26Z</time>
      </trkpt>
      <trkpt lat="45.97952" lon="7.12075">
        <ele>1609</ele>
        <time>2022-08-27T18:57:27Z</time>
      </trkpt>
      <trkpt lat="45.97953" lon="7.12077">
        <ele>1609</ele>
        <time>2022-08-27T18:57:28Z</time>
      </trkpt>
      <trkpt lat="45.97954" lon="7.1208">
        <ele>1610</ele>
        <time>2022-08-27T18:57:30Z</time>
      </trkpt>
      <trkpt lat="45.97955" lon="7.12082">
        <ele>1610</ele>
        <time>2022-08-27T18:57:31Z</time>
      </trkpt>
      <trkpt lat="45.97957" lon="7.12088">
        <ele>1610</ele>
        <time>2022-08-27T18:57:35Z</time>
      </trkpt>
      <trkpt lat="45.97958" lon="7.1209">
        <ele>1610</ele>
        <time>2022-08-27T18:57:36Z</time>
      </trkpt>
      <trkpt lat="45.97959" lon="7.12092">
        <ele>1610</ele>
        <time>2022-08-27T18:57:37Z</time>
      </trkpt>
      <trkpt lat="45.9796" lon="7.12094">
        <ele>1610</ele>
        <time>2022-08-27T18:57:38Z</time>
      </trkpt>
      <trkpt lat="45.97961" lon="7.12096">
        <ele>1610</ele>
        <time>2022-08-27T18:57:40Z</time>
      </trkpt>
      <trkpt lat="45.97962" lon="7.12098">
        <ele>1610</ele>
        <time>2022-08-27T18:57:42Z</time>
      </trkpt>
      <trkpt lat="45.97963" lon="7.121">
        <ele>1610</ele>
        <time>2022-08-27T18:57:43Z</time>
      </trkpt>
      <trkpt lat="45.97964" lon="7.12102">
        <ele>1610</ele>
        <time>2022-08-27T18:57:45Z</time>
      </trkpt>
      <trkpt lat="45.97965" lon="7.12105">
        <ele>1610</ele>
        <time>2022-08-27T18:57:47Z</time>
      </trkpt>
      <trkpt lat="45.97965" lon="7.12107">
        <ele>1610</ele>
        <time>2022-08-27T18:57:48Z</time>
      </trkpt>
      <trkpt lat="45.97966" lon="7.12109">
        <ele>1610</ele>
        <time>2022-08-27T18:57:49Z</time>
      </trkpt>
      <trkpt lat="45.97967" lon="7.12112">
        <ele>1609</ele>
        <time>2022-08-27T18:57:50Z</time>
      </trkpt>
      <trkpt lat="45.97971" lon="7.12121">
        <ele>1609</ele>
        <time>2022-08-27T18:57:55Z</time>
      </trkpt>
      <trkpt lat="45.97973" lon="7.12125">
        <ele>1609</ele>
        <time>2022-08-27T18:57:57Z</time>
      </trkpt>
      <trkpt lat="45.97975" lon="7.12129">
        <ele>1609</ele>
        <time>2022-08-27T18:57:59Z</time>
      </trkpt>
      <trkpt lat="45.97977" lon="7.12131">
        <ele>1609</ele>
        <time>2022-08-27T18:58:00Z</time>
      </trkpt>
      <trkpt lat="45.97979" lon="7.12132">
        <ele>1609</ele>
        <time>2022-08-27T18:58:03Z</time>
      </trkpt>
      <trkpt lat="45.9798" lon="7.12133">
        <ele>1609</ele>
        <time>2022-08-27T18:58:04Z</time>
      </trkpt>
      <trkpt lat="45.97981" lon="7.12134">
        <ele>1609</ele>
        <time>2022-08-27T18:58:05Z</time>
      </trkpt>
      <trkpt lat="45.97983" lon="7.12135">
        <ele>1609</ele>
        <time>2022-08-27T18:58:06Z</time>
      </trkpt>
      <trkpt lat="45.97984" lon="7.12136">
        <ele>1609</ele>
        <time>2022-08-27T18:58:07Z</time>
      </trkpt>
      <trkpt lat="45.97986" lon="7.12138">
        <ele>1609</ele>
        <time>2022-08-27T18:58:08Z</time>
      </trkpt>
      <trkpt lat="45.97987" lon="7.12141">
        <ele>1609</ele>
        <time>2022-08-27T18:58:09Z</time>
      </trkpt>
      <trkpt lat="45.97989" lon="7.12145">
        <ele>1608</ele>
        <time>2022-08-27T18:58:10Z</time>
      </trkpt>
      <trkpt lat="45.9799" lon="7.12149">
        <ele>1606</ele>
        <time>2022-08-27T18:58:13Z</time>
      </trkpt>
      <trkpt lat="45.97992" lon="7.12152">
        <ele>1606</ele>
        <time>2022-08-27T18:58:15Z</time>
      </trkpt>
      <trkpt lat="45.97996" lon="7.12164">
        <ele>1605</ele>
        <time>2022-08-27T18:58:22Z</time>
      </trkpt>
      <trkpt lat="45.98" lon="7.12173">
        <ele>1604</ele>
        <time>2022-08-27T18:58:29Z</time>
      </trkpt>
      <trkpt lat="45.98001" lon="7.12177">
        <ele>1603</ele>
        <time>2022-08-27T18:58:31Z</time>
      </trkpt>
      <trkpt lat="45.98002" lon="7.12179">
        <ele>1602</ele>
        <time>2022-08-27T18:58:32Z</time>
      </trkpt>
      <trkpt lat="45.98002" lon="7.12181">
        <ele>1601</ele>
        <time>2022-08-27T18:58:34Z</time>
      </trkpt>
      <trkpt lat="45.98003" lon="7.12182">
        <ele>1601</ele>
        <time>2022-08-27T18:58:36Z</time>
      </trkpt>
      <trkpt lat="45.98003" lon="7.12184">
        <ele>1601</ele>
        <time>2022-08-27T18:58:37Z</time>
      </trkpt>
      <trkpt lat="45.98004" lon="7.12188">
        <ele>1601</ele>
        <time>2022-08-27T18:58:38Z</time>
      </trkpt>
      <trkpt lat="45.98005" lon="7.1219">
        <ele>1599</ele>
        <time>2022-08-27T18:58:41Z</time>
      </trkpt>
      <trkpt lat="45.98006" lon="7.12193">
        <ele>1599</ele>
        <time>2022-08-27T18:58:43Z</time>
      </trkpt>
      <trkpt lat="45.98007" lon="7.12196">
        <ele>1599</ele>
        <time>2022-08-27T18:58:45Z</time>
      </trkpt>
      <trkpt lat="45.98008" lon="7.12198">
        <ele>1599</ele>
        <time>2022-08-27T18:58:47Z</time>
      </trkpt>
      <trkpt lat="45.9801" lon="7.122">
        <ele>1598</ele>
        <time>2022-08-27T18:58:49Z</time>
      </trkpt>
      <trkpt lat="45.98012" lon="7.12202">
        <ele>1597</ele>
        <time>2022-08-27T18:58:52Z</time>
      </trkpt>
      <trkpt lat="45.98013" lon="7.12207">
        <ele>1595</ele>
        <time>2022-08-27T18:58:56Z</time>
      </trkpt>
      <trkpt lat="45.98015" lon="7.12208">
        <ele>1594</ele>
        <time>2022-08-27T18:58:59Z</time>
      </trkpt>
      <trkpt lat="45.98017" lon="7.1221">
        <ele>1594</ele>
        <time>2022-08-27T18:59:01Z</time>
      </trkpt>
      <trkpt lat="45.98018" lon="7.12215">
        <ele>1593</ele>
        <time>2022-08-27T18:59:04Z</time>
      </trkpt>
      <trkpt lat="45.98019" lon="7.12217">
        <ele>1593</ele>
        <time>2022-08-27T18:59:06Z</time>
      </trkpt>
      <trkpt lat="45.98021" lon="7.1222">
        <ele>1593</ele>
        <time>2022-08-27T18:59:08Z</time>
      </trkpt>
      <trkpt lat="45.98023" lon="7.12222">
        <ele>1591</ele>
        <time>2022-08-27T18:59:11Z</time>
      </trkpt>
      <trkpt lat="45.98024" lon="7.12225">
        <ele>1591</ele>
        <time>2022-08-27T18:59:13Z</time>
      </trkpt>
      <trkpt lat="45.98025" lon="7.12228">
        <ele>1590</ele>
        <time>2022-08-27T18:59:15Z</time>
      </trkpt>
      <trkpt lat="45.98026" lon="7.1223">
        <ele>1590</ele>
        <time>2022-08-27T18:59:17Z</time>
      </trkpt>
      <trkpt lat="45.98027" lon="7.12233">
        <ele>1588</ele>
        <time>2022-08-27T18:59:19Z</time>
      </trkpt>
      <trkpt lat="45.98028" lon="7.12235">
        <ele>1588</ele>
        <time>2022-08-27T18:59:21Z</time>
      </trkpt>
      <trkpt lat="45.9803" lon="7.12238">
        <ele>1588</ele>
        <time>2022-08-27T18:59:23Z</time>
      </trkpt>
      <trkpt lat="45.98032" lon="7.1224">
        <ele>1586</ele>
        <time>2022-08-27T18:59:25Z</time>
      </trkpt>
      <trkpt lat="45.98034" lon="7.12244">
        <ele>1585</ele>
        <time>2022-08-27T18:59:30Z</time>
      </trkpt>
      <trkpt lat="45.98035" lon="7.12248">
        <ele>1583</ele>
        <time>2022-08-27T18:59:34Z</time>
      </trkpt>
      <trkpt lat="45.98037" lon="7.12251">
        <ele>1581</ele>
        <time>2022-08-27T18:59:36Z</time>
      </trkpt>
      <trkpt lat="45.98041" lon="7.12264">
        <ele>1581</ele>
        <time>2022-08-27T18:59:41Z</time>
      </trkpt>
      <trkpt lat="45.98041" lon="7.12266">
        <ele>1580</ele>
        <time>2022-08-27T18:59:42Z</time>
      </trkpt>
      <trkpt lat="45.98041" lon="7.12268">
        <ele>1580</ele>
        <time>2022-08-27T18:59:43Z</time>
      </trkpt>
      <trkpt lat="45.98042" lon="7.1227">
        <ele>1580</ele>
        <time>2022-08-27T18:59:45Z</time>
      </trkpt>
      <trkpt lat="45.98042" lon="7.12272">
        <ele>1579</ele>
        <time>2022-08-27T18:59:46Z</time>
      </trkpt>
      <trkpt lat="45.98043" lon="7.12276">
        <ele>1579</ele>
        <time>2022-08-27T18:59:47Z</time>
      </trkpt>
      <trkpt lat="45.98044" lon="7.12279">
        <ele>1578</ele>
        <time>2022-08-27T18:59:50Z</time>
      </trkpt>
      <trkpt lat="45.98046" lon="7.12282">
        <ele>1577</ele>
        <time>2022-08-27T18:59:52Z</time>
      </trkpt>
      <trkpt lat="45.98048" lon="7.12284">
        <ele>1577</ele>
        <time>2022-08-27T18:59:54Z</time>
      </trkpt>
      <trkpt lat="45.9805" lon="7.1229">
        <ele>1576</ele>
        <time>2022-08-27T18:59:57Z</time>
      </trkpt>
      <trkpt lat="45.98051" lon="7.12294">
        <ele>1576</ele>
        <time>2022-08-27T18:59:59Z</time>
      </trkpt>
      <trkpt lat="45.98052" lon="7.12298">
        <ele>1576</ele>
        <time>2022-08-27T19:00:01Z</time>
      </trkpt>
      <trkpt lat="45.98053" lon="7.12302">
        <ele>1575</ele>
        <time>2022-08-27T19:00:03Z</time>
      </trkpt>
      <trkpt lat="45.98055" lon="7.12305">
        <ele>1575</ele>
        <time>2022-08-27T19:00:05Z</time>
      </trkpt>
      <trkpt lat="45.98057" lon="7.1231">
        <ele>1573</ele>
        <time>2022-08-27T19:00:08Z</time>
      </trkpt>
      <trkpt lat="45.98057" lon="7.12313">
        <ele>1573</ele>
        <time>2022-08-27T19:00:10Z</time>
      </trkpt>
      <trkpt lat="45.98058" lon="7.12316">
        <ele>1572</ele>
        <time>2022-08-27T19:00:13Z</time>
      </trkpt>
      <trkpt lat="45.9806" lon="7.12319">
        <ele>1572</ele>
        <time>2022-08-27T19:00:15Z</time>
      </trkpt>
      <trkpt lat="45.98062" lon="7.12319">
        <ele>1571</ele>
        <time>2022-08-27T19:00:18Z</time>
      </trkpt>
      <trkpt lat="45.98063" lon="7.12321">
        <ele>1571</ele>
        <time>2022-08-27T19:00:19Z</time>
      </trkpt>
      <trkpt lat="45.98064" lon="7.12324">
        <ele>1571</ele>
        <time>2022-08-27T19:00:21Z</time>
      </trkpt>
      <trkpt lat="45.98065" lon="7.12326">
        <ele>1570</ele>
        <time>2022-08-27T19:00:22Z</time>
      </trkpt>
      <trkpt lat="45.98066" lon="7.12328">
        <ele>1570</ele>
        <time>2022-08-27T19:00:23Z</time>
      </trkpt>
      <trkpt lat="45.98067" lon="7.1233">
        <ele>1570</ele>
        <time>2022-08-27T19:00:24Z</time>
      </trkpt>
      <trkpt lat="45.98068" lon="7.12333">
        <ele>1570</ele>
        <time>2022-08-27T19:00:26Z</time>
      </trkpt>
      <trkpt lat="45.9807" lon="7.12335">
        <ele>1570</ele>
        <time>2022-08-27T19:00:28Z</time>
      </trkpt>
      <trkpt lat="45.98071" lon="7.12338">
        <ele>1569</ele>
        <time>2022-08-27T19:00:30Z</time>
      </trkpt>
      <trkpt lat="45.98073" lon="7.12342">
        <ele>1569</ele>
        <time>2022-08-27T19:00:32Z</time>
      </trkpt>
      <trkpt lat="45.98075" lon="7.12345">
        <ele>1567</ele>
        <time>2022-08-27T19:00:34Z</time>
      </trkpt>
      <trkpt lat="45.98077" lon="7.12346">
        <ele>1567</ele>
        <time>2022-08-27T19:00:36Z</time>
      </trkpt>
      <trkpt lat="45.98079" lon="7.12348">
        <ele>1567</ele>
        <time>2022-08-27T19:00:38Z</time>
      </trkpt>
      <trkpt lat="45.9808" lon="7.12351">
        <ele>1566</ele>
        <time>2022-08-27T19:00:40Z</time>
      </trkpt>
      <trkpt lat="45.98082" lon="7.12352">
        <ele>1566</ele>
        <time>2022-08-27T19:00:42Z</time>
      </trkpt>
      <trkpt lat="45.98083" lon="7.12355">
        <ele>1566</ele>
        <time>2022-08-27T19:00:44Z</time>
      </trkpt>
      <trkpt lat="45.98085" lon="7.12358">
        <ele>1565</ele>
        <time>2022-08-27T19:00:47Z</time>
      </trkpt>
      <trkpt lat="45.98086" lon="7.12361">
        <ele>1565</ele>
        <time>2022-08-27T19:00:49Z</time>
      </trkpt>
      <trkpt lat="45.98087" lon="7.12364">
        <ele>1563</ele>
        <time>2022-08-27T19:00:51Z</time>
      </trkpt>
      <trkpt lat="45.98089" lon="7.12366">
        <ele>1563</ele>
        <time>2022-08-27T19:00:54Z</time>
      </trkpt>
      <trkpt lat="45.98091" lon="7.12367">
        <ele>1562</ele>
        <time>2022-08-27T19:00:57Z</time>
      </trkpt>
      <trkpt lat="45.98091" lon="7.12368">
        <ele>1562</ele>
        <time>2022-08-27T19:00:58Z</time>
      </trkpt>
      <trkpt lat="45.98092" lon="7.12369">
        <ele>1562</ele>
        <time>2022-08-27T19:01:00Z</time>
      </trkpt>
      <trkpt lat="45.98092" lon="7.1237">
        <ele>1562</ele>
        <time>2022-08-27T19:01:01Z</time>
      </trkpt>
      <trkpt lat="45.98093" lon="7.12371">
        <ele>1561</ele>
        <time>2022-08-27T19:01:02Z</time>
      </trkpt>
      <trkpt lat="45.98093" lon="7.12372">
        <ele>1561</ele>
        <time>2022-08-27T19:01:03Z</time>
      </trkpt>
      <trkpt lat="45.98094" lon="7.12373">
        <ele>1561</ele>
        <time>2022-08-27T19:01:05Z</time>
      </trkpt>
      <trkpt lat="45.98094" lon="7.12374">
        <ele>1561</ele>
        <time>2022-08-27T19:01:06Z</time>
      </trkpt>
      <trkpt lat="45.98095" lon="7.12375">
        <ele>1560</ele>
        <time>2022-08-27T19:01:07Z</time>
      </trkpt>
      <trkpt lat="45.98095" lon="7.12376">
        <ele>1560</ele>
        <time>2022-08-27T19:01:09Z</time>
      </trkpt>
      <trkpt lat="45.98096" lon="7.12377">
        <ele>1559</ele>
        <time>2022-08-27T19:01:10Z</time>
      </trkpt>
      <trkpt lat="45.98096" lon="7.12378">
        <ele>1559</ele>
        <time>2022-08-27T19:01:11Z</time>
      </trkpt>
      <trkpt lat="45.98097" lon="7.12379">
        <ele>1559</ele>
        <time>2022-08-27T19:01:12Z</time>
      </trkpt>
      <trkpt lat="45.98097" lon="7.1238">
        <ele>1558</ele>
        <time>2022-08-27T19:01:13Z</time>
      </trkpt>
      <trkpt lat="45.98098" lon="7.12381">
        <ele>1558</ele>
        <time>2022-08-27T19:01:14Z</time>
      </trkpt>
      <trkpt lat="45.98099" lon="7.12382">
        <ele>1557</ele>
        <time>2022-08-27T19:01:15Z</time>
      </trkpt>
      <trkpt lat="45.981" lon="7.12383">
        <ele>1556</ele>
        <time>2022-08-27T19:01:16Z</time>
      </trkpt>
      <trkpt lat="45.98101" lon="7.12385">
        <ele>1556</ele>
        <time>2022-08-27T19:01:18Z</time>
      </trkpt>
      <trkpt lat="45.98101" lon="7.12386">
        <ele>1556</ele>
        <time>2022-08-27T19:01:19Z</time>
      </trkpt>
      <trkpt lat="45.98102" lon="7.12387">
        <ele>1556</ele>
        <time>2022-08-27T19:01:20Z</time>
      </trkpt>
      <trkpt lat="45.98103" lon="7.12388">
        <ele>1556</ele>
        <time>2022-08-27T19:01:21Z</time>
      </trkpt>
      <trkpt lat="45.98104" lon="7.12389">
        <ele>1555</ele>
        <time>2022-08-27T19:01:22Z</time>
      </trkpt>
      <trkpt lat="45.98105" lon="7.12391">
        <ele>1555</ele>
        <time>2022-08-27T19:01:23Z</time>
      </trkpt>
      <trkpt lat="45.98105" lon="7.12392">
        <ele>1555</ele>
        <time>2022-08-27T19:01:24Z</time>
      </trkpt>
      <trkpt lat="45.98106" lon="7.12393">
        <ele>1554</ele>
        <time>2022-08-27T19:01:25Z</time>
      </trkpt>
      <trkpt lat="45.98106" lon="7.12395">
        <ele>1554</ele>
        <time>2022-08-27T19:01:26Z</time>
      </trkpt>
      <trkpt lat="45.98107" lon="7.12396">
        <ele>1554</ele>
        <time>2022-08-27T19:01:27Z</time>
      </trkpt>
      <trkpt lat="45.98111" lon="7.12407">
        <ele>1552</ele>
        <time>2022-08-27T19:01:32Z</time>
      </trkpt>
      <trkpt lat="45.98112" lon="7.12408">
        <ele>1552</ele>
        <time>2022-08-27T19:01:33Z</time>
      </trkpt>
      <trkpt lat="45.98112" lon="7.1241">
        <ele>1551</ele>
        <time>2022-08-27T19:01:34Z</time>
      </trkpt>
      <trkpt lat="45.98112" lon="7.12411">
        <ele>1551</ele>
        <time>2022-08-27T19:01:35Z</time>
      </trkpt>
      <trkpt lat="45.98113" lon="7.12413">
        <ele>1550</ele>
        <time>2022-08-27T19:01:37Z</time>
      </trkpt>
      <trkpt lat="45.98113" lon="7.12414">
        <ele>1550</ele>
        <time>2022-08-27T19:01:38Z</time>
      </trkpt>
      <trkpt lat="45.98113" lon="7.12415">
        <ele>1550</ele>
        <time>2022-08-27T19:01:39Z</time>
      </trkpt>
      <trkpt lat="45.98113" lon="7.12417">
        <ele>1549</ele>
        <time>2022-08-27T19:01:40Z</time>
      </trkpt>
      <trkpt lat="45.98115" lon="7.12421">
        <ele>1548</ele>
        <time>2022-08-27T19:01:44Z</time>
      </trkpt>
      <trkpt lat="45.98118" lon="7.12421">
        <ele>1548</ele>
        <time>2022-08-27T19:01:46Z</time>
      </trkpt>
      <trkpt lat="45.98123" lon="7.12416">
        <ele>1547</ele>
        <time>2022-08-27T19:01:48Z</time>
      </trkpt>
      <trkpt lat="45.98125" lon="7.12414">
        <ele>1546</ele>
        <time>2022-08-27T19:01:51Z</time>
      </trkpt>
      <trkpt lat="45.98126" lon="7.12412">
        <ele>1546</ele>
        <time>2022-08-27T19:01:52Z</time>
      </trkpt>
      <trkpt lat="45.98128" lon="7.12409">
        <ele>1546</ele>
        <time>2022-08-27T19:01:53Z</time>
      </trkpt>
      <trkpt lat="45.9813" lon="7.12407">
        <ele>1546</ele>
        <time>2022-08-27T19:01:54Z</time>
      </trkpt>
      <trkpt lat="45.98131" lon="7.12405">
        <ele>1545</ele>
        <time>2022-08-27T19:01:56Z</time>
      </trkpt>
      <trkpt lat="45.98132" lon="7.12402">
        <ele>1545</ele>
        <time>2022-08-27T19:01:57Z</time>
      </trkpt>
      <trkpt lat="45.98133" lon="7.124">
        <ele>1544</ele>
        <time>2022-08-27T19:01:58Z</time>
      </trkpt>
      <trkpt lat="45.98135" lon="7.12398">
        <ele>1544</ele>
        <time>2022-08-27T19:01:59Z</time>
      </trkpt>
      <trkpt lat="45.98136" lon="7.12395">
        <ele>1543</ele>
        <time>2022-08-27T19:02:00Z</time>
      </trkpt>
      <trkpt lat="45.98138" lon="7.1239">
        <ele>1543</ele>
        <time>2022-08-27T19:02:01Z</time>
      </trkpt>
      <trkpt lat="45.98139" lon="7.12387">
        <ele>1542</ele>
        <time>2022-08-27T19:02:02Z</time>
      </trkpt>
      <trkpt lat="45.98139" lon="7.12385">
        <ele>1542</ele>
        <time>2022-08-27T19:02:03Z</time>
      </trkpt>
      <trkpt lat="45.9814" lon="7.12382">
        <ele>1542</ele>
        <time>2022-08-27T19:02:04Z</time>
      </trkpt>
      <trkpt lat="45.9814" lon="7.12379">
        <ele>1542</ele>
        <time>2022-08-27T19:02:05Z</time>
      </trkpt>
      <trkpt lat="45.98142" lon="7.12377">
        <ele>1542</ele>
        <time>2022-08-27T19:02:06Z</time>
      </trkpt>
      <trkpt lat="45.98143" lon="7.12375">
        <ele>1542</ele>
        <time>2022-08-27T19:02:07Z</time>
      </trkpt>
      <trkpt lat="45.98145" lon="7.12373">
        <ele>1540</ele>
        <time>2022-08-27T19:02:08Z</time>
      </trkpt>
      <trkpt lat="45.98147" lon="7.12372">
        <ele>1540</ele>
        <time>2022-08-27T19:02:10Z</time>
      </trkpt>
      <trkpt lat="45.98149" lon="7.1237">
        <ele>1540</ele>
        <time>2022-08-27T19:02:11Z</time>
      </trkpt>
      <trkpt lat="45.98151" lon="7.12368">
        <ele>1540</ele>
        <time>2022-08-27T19:02:12Z</time>
      </trkpt>
      <trkpt lat="45.98153" lon="7.12366">
        <ele>1540</ele>
        <time>2022-08-27T19:02:13Z</time>
      </trkpt>
      <trkpt lat="45.98155" lon="7.12364">
        <ele>1540</ele>
        <time>2022-08-27T19:02:15Z</time>
      </trkpt>
      <trkpt lat="45.98157" lon="7.12363">
        <ele>1540</ele>
        <time>2022-08-27T19:02:16Z</time>
      </trkpt>
      <trkpt lat="45.98159" lon="7.12361">
        <ele>1540</ele>
        <time>2022-08-27T19:02:17Z</time>
      </trkpt>
      <trkpt lat="45.9816" lon="7.12359">
        <ele>1540</ele>
        <time>2022-08-27T19:02:18Z</time>
      </trkpt>
      <trkpt lat="45.98162" lon="7.12357">
        <ele>1540</ele>
        <time>2022-08-27T19:02:20Z</time>
      </trkpt>
      <trkpt lat="45.98163" lon="7.12355">
        <ele>1540</ele>
        <time>2022-08-27T19:02:21Z</time>
      </trkpt>
      <trkpt lat="45.98164" lon="7.12353">
        <ele>1540</ele>
        <time>2022-08-27T19:02:22Z</time>
      </trkpt>
      <trkpt lat="45.98166" lon="7.12352">
        <ele>1540</ele>
        <time>2022-08-27T19:02:23Z</time>
      </trkpt>
      <trkpt lat="45.98167" lon="7.1235">
        <ele>1540</ele>
        <time>2022-08-27T19:02:25Z</time>
      </trkpt>
      <trkpt lat="45.98168" lon="7.12348">
        <ele>1540</ele>
        <time>2022-08-27T19:02:26Z</time>
      </trkpt>
      <trkpt lat="45.98177" lon="7.12342">
        <ele>1540</ele>
        <time>2022-08-27T19:02:31Z</time>
      </trkpt>
      <trkpt lat="45.98178" lon="7.12341">
        <ele>1540</ele>
        <time>2022-08-27T19:02:32Z</time>
      </trkpt>
      <trkpt lat="45.98178" lon="7.12341">
        <ele>1540</ele>
        <time>2022-08-27T19:02:33Z</time>
      </trkpt>
      <trkpt lat="45.98179" lon="7.1234">
        <ele>1540</ele>
        <time>2022-08-27T19:02:34Z</time>
      </trkpt>
      <trkpt lat="45.9818" lon="7.1234">
        <ele>1540</ele>
        <time>2022-08-27T19:02:36Z</time>
      </trkpt>
      <trkpt lat="45.98181" lon="7.12339">
        <ele>1540</ele>
        <time>2022-08-27T19:02:38Z</time>
      </trkpt>
      <trkpt lat="45.98182" lon="7.12338">
        <ele>1540</ele>
        <time>2022-08-27T19:02:39Z</time>
      </trkpt>
      <trkpt lat="45.98188" lon="7.12334">
        <ele>1540</ele>
        <time>2022-08-27T19:02:40Z</time>
      </trkpt>
      <trkpt lat="45.98189" lon="7.12334">
        <ele>1540</ele>
        <time>2022-08-27T19:02:41Z</time>
      </trkpt>
      <trkpt lat="45.9819" lon="7.12333">
        <ele>1540</ele>
        <time>2022-08-27T19:02:43Z</time>
      </trkpt>
      <trkpt lat="45.98191" lon="7.12332">
        <ele>1540</ele>
        <time>2022-08-27T19:02:44Z</time>
      </trkpt>
      <trkpt lat="45.98192" lon="7.12331">
        <ele>1540</ele>
        <time>2022-08-27T19:02:45Z</time>
      </trkpt>
      <trkpt lat="45.98193" lon="7.12331">
        <ele>1540</ele>
        <time>2022-08-27T19:02:46Z</time>
      </trkpt>
      <trkpt lat="45.98194" lon="7.1233">
        <ele>1540</ele>
        <time>2022-08-27T19:02:47Z</time>
      </trkpt>
      <trkpt lat="45.98195" lon="7.12329">
        <ele>1540</ele>
        <time>2022-08-27T19:02:48Z</time>
      </trkpt>
      <trkpt lat="45.98197" lon="7.12328">
        <ele>1540</ele>
        <time>2022-08-27T19:02:49Z</time>
      </trkpt>
      <trkpt lat="45.98198" lon="7.12326">
        <ele>1540</ele>
        <time>2022-08-27T19:02:50Z</time>
      </trkpt>
      <trkpt lat="45.982" lon="7.12325">
        <ele>1540</ele>
        <time>2022-08-27T19:02:51Z</time>
      </trkpt>
      <trkpt lat="45.98202" lon="7.12323">
        <ele>1540</ele>
        <time>2022-08-27T19:02:52Z</time>
      </trkpt>
      <trkpt lat="45.98203" lon="7.12322">
        <ele>1540</ele>
        <time>2022-08-27T19:02:53Z</time>
      </trkpt>
      <trkpt lat="45.98205" lon="7.12321">
        <ele>1540</ele>
        <time>2022-08-27T19:02:54Z</time>
      </trkpt>
      <trkpt lat="45.98207" lon="7.1232">
        <ele>1540</ele>
        <time>2022-08-27T19:02:55Z</time>
      </trkpt>
      <trkpt lat="45.98208" lon="7.12318">
        <ele>1540</ele>
        <time>2022-08-27T19:02:56Z</time>
      </trkpt>
      <trkpt lat="45.9821" lon="7.12317">
        <ele>1540</ele>
        <time>2022-08-27T19:02:57Z</time>
      </trkpt>
      <trkpt lat="45.98212" lon="7.12316">
        <ele>1540</ele>
        <time>2022-08-27T19:02:58Z</time>
      </trkpt>
      <trkpt lat="45.98222" lon="7.12314">
        <ele>1540</ele>
        <time>2022-08-27T19:03:03Z</time>
      </trkpt>
      <trkpt lat="45.98223" lon="7.12313">
        <ele>1539</ele>
        <time>2022-08-27T19:03:04Z</time>
      </trkpt>
      <trkpt lat="45.98225" lon="7.12312">
        <ele>1540</ele>
        <time>2022-08-27T19:03:05Z</time>
      </trkpt>
      <trkpt lat="45.98226" lon="7.12311">
        <ele>1540</ele>
        <time>2022-08-27T19:03:07Z</time>
      </trkpt>
      <trkpt lat="45.98228" lon="7.12309">
        <ele>1540</ele>
        <time>2022-08-27T19:03:08Z</time>
      </trkpt>
      <trkpt lat="45.98229" lon="7.12308">
        <ele>1540</ele>
        <time>2022-08-27T19:03:09Z</time>
      </trkpt>
      <trkpt lat="45.98231" lon="7.12307">
        <ele>1540</ele>
        <time>2022-08-27T19:03:10Z</time>
      </trkpt>
      <trkpt lat="45.98232" lon="7.12306">
        <ele>1540</ele>
        <time>2022-08-27T19:03:12Z</time>
      </trkpt>
      <trkpt lat="45.98232" lon="7.12305">
        <ele>1540</ele>
        <time>2022-08-27T19:03:13Z</time>
      </trkpt>
      <trkpt lat="45.98233" lon="7.12304">
        <ele>1540</ele>
        <time>2022-08-27T19:03:14Z</time>
      </trkpt>
      <trkpt lat="45.98233" lon="7.12304">
        <ele>1540</ele>
        <time>2022-08-27T19:03:15Z</time>
      </trkpt>
      <trkpt lat="45.98241" lon="7.12294">
        <ele>1540</ele>
        <time>2022-08-27T19:03:17Z</time>
      </trkpt>
      <trkpt lat="45.98243" lon="7.12292">
        <ele>1540</ele>
        <time>2022-08-27T19:03:18Z</time>
      </trkpt>
      <trkpt lat="45.98245" lon="7.1229">
        <ele>1540</ele>
        <time>2022-08-27T19:03:19Z</time>
      </trkpt>
      <trkpt lat="45.98251" lon="7.12287">
        <ele>1540</ele>
        <time>2022-08-27T19:03:24Z</time>
      </trkpt>
      <trkpt lat="45.98253" lon="7.12285">
        <ele>1540</ele>
        <time>2022-08-27T19:03:26Z</time>
      </trkpt>
      <trkpt lat="45.98256" lon="7.12284">
        <ele>1541</ele>
        <time>2022-08-27T19:03:28Z</time>
      </trkpt>
      <trkpt lat="45.98258" lon="7.12282">
        <ele>1541</ele>
        <time>2022-08-27T19:03:30Z</time>
      </trkpt>
      <trkpt lat="45.9826" lon="7.12281">
        <ele>1541</ele>
        <time>2022-08-27T19:03:32Z</time>
      </trkpt>
      <trkpt lat="45.98264" lon="7.1228">
        <ele>1541</ele>
        <time>2022-08-27T19:03:35Z</time>
      </trkpt>
      <trkpt lat="45.98267" lon="7.12279">
        <ele>1541</ele>
        <time>2022-08-27T19:03:38Z</time>
      </trkpt>
      <trkpt lat="45.98269" lon="7.12279">
        <ele>1541</ele>
        <time>2022-08-27T19:03:39Z</time>
      </trkpt>
      <trkpt lat="45.98272" lon="7.12278">
        <ele>1542</ele>
        <time>2022-08-27T19:03:42Z</time>
      </trkpt>
      <trkpt lat="45.98275" lon="7.12278">
        <ele>1542</ele>
        <time>2022-08-27T19:03:44Z</time>
      </trkpt>
      <trkpt lat="45.98277" lon="7.12277">
        <ele>1542</ele>
        <time>2022-08-27T19:03:46Z</time>
      </trkpt>
      <trkpt lat="45.9828" lon="7.12277">
        <ele>1542</ele>
        <time>2022-08-27T19:03:48Z</time>
      </trkpt>
      <trkpt lat="45.98282" lon="7.12276">
        <ele>1543</ele>
        <time>2022-08-27T19:03:50Z</time>
      </trkpt>
      <trkpt lat="45.98285" lon="7.12275">
        <ele>1543</ele>
        <time>2022-08-27T19:03:52Z</time>
      </trkpt>
      <trkpt lat="45.98288" lon="7.12274">
        <ele>1543</ele>
        <time>2022-08-27T19:03:54Z</time>
      </trkpt>
      <trkpt lat="45.98291" lon="7.12274">
        <ele>1543</ele>
        <time>2022-08-27T19:03:56Z</time>
      </trkpt>
      <trkpt lat="45.98293" lon="7.12273">
        <ele>1543</ele>
        <time>2022-08-27T19:04:01Z</time>
      </trkpt>
      <trkpt lat="45.98296" lon="7.12272">
        <ele>1542</ele>
        <time>2022-08-27T19:04:03Z</time>
      </trkpt>
      <trkpt lat="45.98299" lon="7.12271">
        <ele>1543</ele>
        <time>2022-08-27T19:04:05Z</time>
      </trkpt>
      <trkpt lat="45.98302" lon="7.1227">
        <ele>1543</ele>
        <time>2022-08-27T19:04:06Z</time>
      </trkpt>
      <trkpt lat="45.98305" lon="7.12269">
        <ele>1543</ele>
        <time>2022-08-27T19:04:09Z</time>
      </trkpt>
      <trkpt lat="45.98309" lon="7.12268">
        <ele>1543</ele>
        <time>2022-08-27T19:04:11Z</time>
      </trkpt>
      <trkpt lat="45.98312" lon="7.12268">
        <ele>1543</ele>
        <time>2022-08-27T19:04:13Z</time>
      </trkpt>
      <trkpt lat="45.98315" lon="7.12267">
        <ele>1543</ele>
        <time>2022-08-27T19:04:15Z</time>
      </trkpt>
      <trkpt lat="45.98318" lon="7.12266">
        <ele>1543</ele>
        <time>2022-08-27T19:04:17Z</time>
      </trkpt>
      <trkpt lat="45.98321" lon="7.12265">
        <ele>1542</ele>
        <time>2022-08-27T19:04:19Z</time>
      </trkpt>
      <trkpt lat="45.98324" lon="7.12264">
        <ele>1542</ele>
        <time>2022-08-27T19:04:20Z</time>
      </trkpt>
      <trkpt lat="45.98326" lon="7.12263">
        <ele>1542</ele>
        <time>2022-08-27T19:04:23Z</time>
      </trkpt>
      <trkpt lat="45.98329" lon="7.12262">
        <ele>1542</ele>
        <time>2022-08-27T19:04:25Z</time>
      </trkpt>
      <trkpt lat="45.98332" lon="7.12261">
        <ele>1542</ele>
        <time>2022-08-27T19:04:27Z</time>
      </trkpt>
      <trkpt lat="45.98335" lon="7.1226">
        <ele>1542</ele>
        <time>2022-08-27T19:04:29Z</time>
      </trkpt>
      <trkpt lat="45.98338" lon="7.12259">
        <ele>1542</ele>
        <time>2022-08-27T19:04:30Z</time>
      </trkpt>
      <trkpt lat="45.98341" lon="7.12258">
        <ele>1542</ele>
        <time>2022-08-27T19:04:33Z</time>
      </trkpt>
      <trkpt lat="45.98344" lon="7.12257">
        <ele>1542</ele>
        <time>2022-08-27T19:04:35Z</time>
      </trkpt>
      <trkpt lat="45.98347" lon="7.12257">
        <ele>1542</ele>
        <time>2022-08-27T19:04:37Z</time>
      </trkpt>
      <trkpt lat="45.9835" lon="7.12256">
        <ele>1542</ele>
        <time>2022-08-27T19:04:39Z</time>
      </trkpt>
      <trkpt lat="45.98353" lon="7.12255">
        <ele>1541</ele>
        <time>2022-08-27T19:04:41Z</time>
      </trkpt>
      <trkpt lat="45.98355" lon="7.12254">
        <ele>1541</ele>
        <time>2022-08-27T19:04:43Z</time>
      </trkpt>
      <trkpt lat="45.98358" lon="7.12253">
        <ele>1541</ele>
        <time>2022-08-27T19:04:45Z</time>
      </trkpt>
      <trkpt lat="45.98361" lon="7.12252">
        <ele>1541</ele>
        <time>2022-08-27T19:04:47Z</time>
      </trkpt>
      <trkpt lat="45.98364" lon="7.12251">
        <ele>1541</ele>
        <time>2022-08-27T19:04:49Z</time>
      </trkpt>
      <trkpt lat="45.98367" lon="7.1225">
        <ele>1541</ele>
        <time>2022-08-27T19:04:51Z</time>
      </trkpt>
      <trkpt lat="45.98368" lon="7.12249">
        <ele>1541</ele>
        <time>2022-08-27T19:04:54Z</time>
      </trkpt>
      <trkpt lat="45.9837" lon="7.12248">
        <ele>1541</ele>
        <time>2022-08-27T19:04:55Z</time>
      </trkpt>
      <trkpt lat="45.98372" lon="7.12247">
        <ele>1541</ele>
        <time>2022-08-27T19:04:56Z</time>
      </trkpt>
      <trkpt lat="45.98373" lon="7.12245">
        <ele>1541</ele>
        <time>2022-08-27T19:04:57Z</time>
      </trkpt>
      <trkpt lat="45.98375" lon="7.12244">
        <ele>1541</ele>
        <time>2022-08-27T19:04:59Z</time>
      </trkpt>
      <trkpt lat="45.98377" lon="7.12243">
        <ele>1541</ele>
        <time>2022-08-27T19:05:00Z</time>
      </trkpt>
      <trkpt lat="45.98379" lon="7.12242">
        <ele>1541</ele>
        <time>2022-08-27T19:05:01Z</time>
      </trkpt>
      <trkpt lat="45.98381" lon="7.12241">
        <ele>1541</ele>
        <time>2022-08-27T19:05:02Z</time>
      </trkpt>
      <trkpt lat="45.98383" lon="7.1224">
        <ele>1541</ele>
        <time>2022-08-27T19:05:04Z</time>
      </trkpt>
      <trkpt lat="45.9839" lon="7.1223">
        <ele>1541</ele>
        <time>2022-08-27T19:05:11Z</time>
      </trkpt>
      <trkpt lat="45.98392" lon="7.12228">
        <ele>1540</ele>
        <time>2022-08-27T19:05:13Z</time>
      </trkpt>
      <trkpt lat="45.98394" lon="7.12226">
        <ele>1540</ele>
        <time>2022-08-27T19:05:15Z</time>
      </trkpt>
      <trkpt lat="45.98397" lon="7.12224">
        <ele>1540</ele>
        <time>2022-08-27T19:05:16Z</time>
      </trkpt>
      <trkpt lat="45.98399" lon="7.12221">
        <ele>1540</ele>
        <time>2022-08-27T19:05:19Z</time>
      </trkpt>
      <trkpt lat="45.98401" lon="7.12219">
        <ele>1540</ele>
        <time>2022-08-27T19:05:20Z</time>
      </trkpt>
      <trkpt lat="45.98401" lon="7.12218">
        <ele>1540</ele>
        <time>2022-08-27T19:05:21Z</time>
      </trkpt>
      <trkpt lat="45.98402" lon="7.12217">
        <ele>1540</ele>
        <time>2022-08-27T19:05:23Z</time>
      </trkpt>
      <trkpt lat="45.98403" lon="7.12215">
        <ele>1540</ele>
        <time>2022-08-27T19:05:24Z</time>
      </trkpt>
      <trkpt lat="45.98404" lon="7.12214">
        <ele>1540</ele>
        <time>2022-08-27T19:05:25Z</time>
      </trkpt>
      <trkpt lat="45.98404" lon="7.12213">
        <ele>1539</ele>
        <time>2022-08-27T19:05:26Z</time>
      </trkpt>
      <trkpt lat="45.98405" lon="7.12212">
        <ele>1539</ele>
        <time>2022-08-27T19:05:27Z</time>
      </trkpt>
      <trkpt lat="45.98406" lon="7.12211">
        <ele>1539</ele>
        <time>2022-08-27T19:05:28Z</time>
      </trkpt>
      <trkpt lat="45.98408" lon="7.12209">
        <ele>1539</ele>
        <time>2022-08-27T19:05:29Z</time>
      </trkpt>
      <trkpt lat="45.9841" lon="7.12207">
        <ele>1539</ele>
        <time>2022-08-27T19:05:31Z</time>
      </trkpt>
      <trkpt lat="45.98412" lon="7.12205">
        <ele>1539</ele>
        <time>2022-08-27T19:05:33Z</time>
      </trkpt>
      <trkpt lat="45.98414" lon="7.12204">
        <ele>1539</ele>
        <time>2022-08-27T19:05:35Z</time>
      </trkpt>
      <trkpt lat="45.98416" lon="7.12202">
        <ele>1538</ele>
        <time>2022-08-27T19:05:37Z</time>
      </trkpt>
      <trkpt lat="45.98417" lon="7.122">
        <ele>1538</ele>
        <time>2022-08-27T19:05:39Z</time>
      </trkpt>
      <trkpt lat="45.98419" lon="7.12197">
        <ele>1538</ele>
        <time>2022-08-27T19:05:41Z</time>
      </trkpt>
      <trkpt lat="45.9842" lon="7.12195">
        <ele>1538</ele>
        <time>2022-08-27T19:05:43Z</time>
      </trkpt>
      <trkpt lat="45.98422" lon="7.12194">
        <ele>1538</ele>
        <time>2022-08-27T19:05:45Z</time>
      </trkpt>
      <trkpt lat="45.98424" lon="7.12192">
        <ele>1538</ele>
        <time>2022-08-27T19:05:47Z</time>
      </trkpt>
      <trkpt lat="45.98425" lon="7.12191">
        <ele>1538</ele>
        <time>2022-08-27T19:05:49Z</time>
      </trkpt>
      <trkpt lat="45.98426" lon="7.12191">
        <ele>1538</ele>
        <time>2022-08-27T19:05:50Z</time>
      </trkpt>
      <trkpt lat="45.98427" lon="7.1219">
        <ele>1538</ele>
        <time>2022-08-27T19:05:51Z</time>
      </trkpt>
      <trkpt lat="45.98428" lon="7.1219">
        <ele>1538</ele>
        <time>2022-08-27T19:05:53Z</time>
      </trkpt>
      <trkpt lat="45.98429" lon="7.12189">
        <ele>1538</ele>
        <time>2022-08-27T19:05:54Z</time>
      </trkpt>
      <trkpt lat="45.98435" lon="7.12185">
        <ele>1538</ele>
        <time>2022-08-27T19:05:55Z</time>
      </trkpt>
      <trkpt lat="45.98436" lon="7.12184">
        <ele>1538</ele>
        <time>2022-08-27T19:05:56Z</time>
      </trkpt>
      <trkpt lat="45.98438" lon="7.12183">
        <ele>1538</ele>
        <time>2022-08-27T19:05:58Z</time>
      </trkpt>
      <trkpt lat="45.98439" lon="7.12181">
        <ele>1538</ele>
        <time>2022-08-27T19:05:59Z</time>
      </trkpt>
      <trkpt lat="45.9844" lon="7.1218">
        <ele>1538</ele>
        <time>2022-08-27T19:06:00Z</time>
      </trkpt>
      <trkpt lat="45.98441" lon="7.12179">
        <ele>1538</ele>
        <time>2022-08-27T19:06:01Z</time>
      </trkpt>
      <trkpt lat="45.98445" lon="7.12176">
        <ele>1538</ele>
        <time>2022-08-27T19:06:03Z</time>
      </trkpt>
      <trkpt lat="45.98448" lon="7.12175">
        <ele>1538</ele>
        <time>2022-08-27T19:06:05Z</time>
      </trkpt>
      <trkpt lat="45.9845" lon="7.12174">
        <ele>1538</ele>
        <time>2022-08-27T19:06:07Z</time>
      </trkpt>
      <trkpt lat="45.98453" lon="7.12173">
        <ele>1537</ele>
        <time>2022-08-27T19:06:09Z</time>
      </trkpt>
      <trkpt lat="45.98454" lon="7.12172">
        <ele>1537</ele>
        <time>2022-08-27T19:06:11Z</time>
      </trkpt>
      <trkpt lat="45.98456" lon="7.1217">
        <ele>1537</ele>
        <time>2022-08-27T19:06:13Z</time>
      </trkpt>
      <trkpt lat="45.98457" lon="7.12169">
        <ele>1537</ele>
        <time>2022-08-27T19:06:14Z</time>
      </trkpt>
      <trkpt lat="45.98458" lon="7.12167">
        <ele>1537</ele>
        <time>2022-08-27T19:06:15Z</time>
      </trkpt>
      <trkpt lat="45.9846" lon="7.12166">
        <ele>1537</ele>
        <time>2022-08-27T19:06:16Z</time>
      </trkpt>
      <trkpt lat="45.98461" lon="7.12164">
        <ele>1537</ele>
        <time>2022-08-27T19:06:17Z</time>
      </trkpt>
      <trkpt lat="45.98463" lon="7.12163">
        <ele>1537</ele>
        <time>2022-08-27T19:06:18Z</time>
      </trkpt>
      <trkpt lat="45.98465" lon="7.12162">
        <ele>1536</ele>
        <time>2022-08-27T19:06:19Z</time>
      </trkpt>
      <trkpt lat="45.98467" lon="7.1216">
        <ele>1536</ele>
        <time>2022-08-27T19:06:20Z</time>
      </trkpt>
      <trkpt lat="45.98468" lon="7.12159">
        <ele>1536</ele>
        <time>2022-08-27T19:06:22Z</time>
      </trkpt>
      <trkpt lat="45.9847" lon="7.12157">
        <ele>1536</ele>
        <time>2022-08-27T19:06:23Z</time>
      </trkpt>
      <trkpt lat="45.98472" lon="7.12156">
        <ele>1536</ele>
        <time>2022-08-27T19:06:24Z</time>
      </trkpt>
      <trkpt lat="45.98473" lon="7.12155">
        <ele>1536</ele>
        <time>2022-08-27T19:06:25Z</time>
      </trkpt>
      <trkpt lat="45.98475" lon="7.12153">
        <ele>1536</ele>
        <time>2022-08-27T19:06:27Z</time>
      </trkpt>
      <trkpt lat="45.98477" lon="7.12152">
        <ele>1536</ele>
        <time>2022-08-27T19:06:28Z</time>
      </trkpt>
      <trkpt lat="45.98478" lon="7.1215">
        <ele>1536</ele>
        <time>2022-08-27T19:06:29Z</time>
      </trkpt>
      <trkpt lat="45.98479" lon="7.12149">
        <ele>1536</ele>
        <time>2022-08-27T19:06:30Z</time>
      </trkpt>
      <trkpt lat="45.98481" lon="7.12148">
        <ele>1536</ele>
        <time>2022-08-27T19:06:32Z</time>
      </trkpt>
      <trkpt lat="45.98482" lon="7.12147">
        <ele>1534</ele>
        <time>2022-08-27T19:06:34Z</time>
      </trkpt>
      <trkpt lat="45.98483" lon="7.12146">
        <ele>1534</ele>
        <time>2022-08-27T19:06:35Z</time>
      </trkpt>
      <trkpt lat="45.98484" lon="7.12145">
        <ele>1534</ele>
        <time>2022-08-27T19:06:36Z</time>
      </trkpt>
      <trkpt lat="45.98485" lon="7.12143">
        <ele>1534</ele>
        <time>2022-08-27T19:06:37Z</time>
      </trkpt>
      <trkpt lat="45.98487" lon="7.12142">
        <ele>1534</ele>
        <time>2022-08-27T19:06:38Z</time>
      </trkpt>
      <trkpt lat="45.98488" lon="7.12141">
        <ele>1534</ele>
        <time>2022-08-27T19:06:39Z</time>
      </trkpt>
      <trkpt lat="45.9849" lon="7.1214">
        <ele>1534</ele>
        <time>2022-08-27T19:06:40Z</time>
      </trkpt>
      <trkpt lat="45.98491" lon="7.12139">
        <ele>1534</ele>
        <time>2022-08-27T19:06:41Z</time>
      </trkpt>
      <trkpt lat="45.98493" lon="7.12139">
        <ele>1534</ele>
        <time>2022-08-27T19:06:43Z</time>
      </trkpt>
      <trkpt lat="45.98494" lon="7.12138">
        <ele>1534</ele>
        <time>2022-08-27T19:06:44Z</time>
      </trkpt>
      <trkpt lat="45.98496" lon="7.12137">
        <ele>1535</ele>
        <time>2022-08-27T19:06:45Z</time>
      </trkpt>
      <trkpt lat="45.98497" lon="7.12136">
        <ele>1535</ele>
        <time>2022-08-27T19:06:46Z</time>
      </trkpt>
      <trkpt lat="45.98499" lon="7.12136">
        <ele>1535</ele>
        <time>2022-08-27T19:06:47Z</time>
      </trkpt>
      <trkpt lat="45.985" lon="7.12135">
        <ele>1534</ele>
        <time>2022-08-27T19:06:48Z</time>
      </trkpt>
      <trkpt lat="45.98502" lon="7.12134">
        <ele>1534</ele>
        <time>2022-08-27T19:06:50Z</time>
      </trkpt>
      <trkpt lat="45.98504" lon="7.12134">
        <ele>1534</ele>
        <time>2022-08-27T19:06:51Z</time>
      </trkpt>
      <trkpt lat="45.98505" lon="7.12133">
        <ele>1534</ele>
        <time>2022-08-27T19:06:52Z</time>
      </trkpt>
      <trkpt lat="45.98506" lon="7.12133">
        <ele>1534</ele>
        <time>2022-08-27T19:06:53Z</time>
      </trkpt>
      <trkpt lat="45.98507" lon="7.12132">
        <ele>1534</ele>
        <time>2022-08-27T19:06:55Z</time>
      </trkpt>
      <trkpt lat="45.98509" lon="7.12131">
        <ele>1534</ele>
        <time>2022-08-27T19:06:56Z</time>
      </trkpt>
      <trkpt lat="45.9851" lon="7.1213">
        <ele>1534</ele>
        <time>2022-08-27T19:06:57Z</time>
      </trkpt>
      <trkpt lat="45.98511" lon="7.1213">
        <ele>1534</ele>
        <time>2022-08-27T19:06:58Z</time>
      </trkpt>
      <trkpt lat="45.98512" lon="7.12129">
        <ele>1534</ele>
        <time>2022-08-27T19:06:59Z</time>
      </trkpt>
      <trkpt lat="45.98513" lon="7.12128">
        <ele>1534</ele>
        <time>2022-08-27T19:07:00Z</time>
      </trkpt>
      <trkpt lat="45.98515" lon="7.12128">
        <ele>1534</ele>
        <time>2022-08-27T19:07:01Z</time>
      </trkpt>
      <trkpt lat="45.98517" lon="7.12127">
        <ele>1534</ele>
        <time>2022-08-27T19:07:02Z</time>
      </trkpt>
      <trkpt lat="45.98518" lon="7.12127">
        <ele>1534</ele>
        <time>2022-08-27T19:07:03Z</time>
      </trkpt>
      <trkpt lat="45.9852" lon="7.12126">
        <ele>1534</ele>
        <time>2022-08-27T19:07:05Z</time>
      </trkpt>
      <trkpt lat="45.98522" lon="7.12126">
        <ele>1534</ele>
        <time>2022-08-27T19:07:06Z</time>
      </trkpt>
      <trkpt lat="45.98523" lon="7.12125">
        <ele>1533</ele>
        <time>2022-08-27T19:07:07Z</time>
      </trkpt>
      <trkpt lat="45.98525" lon="7.12125">
        <ele>1533</ele>
        <time>2022-08-27T19:07:08Z</time>
      </trkpt>
      <trkpt lat="45.98527" lon="7.12126">
        <ele>1533</ele>
        <time>2022-08-27T19:07:10Z</time>
      </trkpt>
      <trkpt lat="45.98528" lon="7.12126">
        <ele>1532</ele>
        <time>2022-08-27T19:07:12Z</time>
      </trkpt>
      <trkpt lat="45.9853" lon="7.12127">
        <ele>1532</ele>
        <time>2022-08-27T19:07:13Z</time>
      </trkpt>
      <trkpt lat="45.98532" lon="7.12127">
        <ele>1532</ele>
        <time>2022-08-27T19:07:14Z</time>
      </trkpt>
      <trkpt lat="45.98533" lon="7.12128">
        <ele>1532</ele>
        <time>2022-08-27T19:07:15Z</time>
      </trkpt>
      <trkpt lat="45.98534" lon="7.12128">
        <ele>1532</ele>
        <time>2022-08-27T19:07:16Z</time>
      </trkpt>
      <trkpt lat="45.98536" lon="7.12129">
        <ele>1532</ele>
        <time>2022-08-27T19:07:17Z</time>
      </trkpt>
      <trkpt lat="45.98537" lon="7.12129">
        <ele>1532</ele>
        <time>2022-08-27T19:07:18Z</time>
      </trkpt>
      <trkpt lat="45.98546" lon="7.12133">
        <ele>1532</ele>
        <time>2022-08-27T19:07:20Z</time>
      </trkpt>
      <trkpt lat="45.98549" lon="7.12135">
        <ele>1532</ele>
        <time>2022-08-27T19:07:21Z</time>
      </trkpt>
      <trkpt lat="45.98552" lon="7.12137">
        <ele>1532</ele>
        <time>2022-08-27T19:07:22Z</time>
      </trkpt>
      <trkpt lat="45.98554" lon="7.12138">
        <ele>1532</ele>
        <time>2022-08-27T19:07:23Z</time>
      </trkpt>
      <trkpt lat="45.98556" lon="7.1214">
        <ele>1532</ele>
        <time>2022-08-27T19:07:25Z</time>
      </trkpt>
      <trkpt lat="45.98558" lon="7.12141">
        <ele>1532</ele>
        <time>2022-08-27T19:07:26Z</time>
      </trkpt>
      <trkpt lat="45.9856" lon="7.12143">
        <ele>1532</ele>
        <time>2022-08-27T19:07:27Z</time>
      </trkpt>
      <trkpt lat="45.98562" lon="7.12144">
        <ele>1532</ele>
        <time>2022-08-27T19:07:29Z</time>
      </trkpt>
      <trkpt lat="45.98564" lon="7.12146">
        <ele>1532</ele>
        <time>2022-08-27T19:07:30Z</time>
      </trkpt>
      <trkpt lat="45.98565" lon="7.12147">
        <ele>1532</ele>
        <time>2022-08-27T19:07:31Z</time>
      </trkpt>
      <trkpt lat="45.98567" lon="7.12149">
        <ele>1532</ele>
        <time>2022-08-27T19:07:32Z</time>
      </trkpt>
      <trkpt lat="45.98569" lon="7.1215">
        <ele>1532</ele>
        <time>2022-08-27T19:07:33Z</time>
      </trkpt>
      <trkpt lat="45.98575" lon="7.12156">
        <ele>1532</ele>
        <time>2022-08-27T19:07:35Z</time>
      </trkpt>
      <trkpt lat="45.98578" lon="7.12158">
        <ele>1531</ele>
        <time>2022-08-27T19:07:38Z</time>
      </trkpt>
      <trkpt lat="45.9858" lon="7.12159">
        <ele>1531</ele>
        <time>2022-08-27T19:07:39Z</time>
      </trkpt>
      <trkpt lat="45.98582" lon="7.12161">
        <ele>1531</ele>
        <time>2022-08-27T19:07:40Z</time>
      </trkpt>
      <trkpt lat="45.98584" lon="7.12161">
        <ele>1531</ele>
        <time>2022-08-27T19:07:41Z</time>
      </trkpt>
      <trkpt lat="45.98588" lon="7.12164">
        <ele>1531</ele>
        <time>2022-08-27T19:07:43Z</time>
      </trkpt>
      <trkpt lat="45.98589" lon="7.12165">
        <ele>1531</ele>
        <time>2022-08-27T19:07:44Z</time>
      </trkpt>
      <trkpt lat="45.98592" lon="7.12167">
        <ele>1531</ele>
        <time>2022-08-27T19:07:46Z</time>
      </trkpt>
      <trkpt lat="45.98595" lon="7.12169">
        <ele>1531</ele>
        <time>2022-08-27T19:07:48Z</time>
      </trkpt>
      <trkpt lat="45.98598" lon="7.1217">
        <ele>1531</ele>
        <time>2022-08-27T19:07:49Z</time>
      </trkpt>
      <trkpt lat="45.986" lon="7.1217">
        <ele>1531</ele>
        <time>2022-08-27T19:07:50Z</time>
      </trkpt>
      <trkpt lat="45.98603" lon="7.12171">
        <ele>1531</ele>
        <time>2022-08-27T19:07:52Z</time>
      </trkpt>
      <trkpt lat="45.98605" lon="7.12171">
        <ele>1531</ele>
        <time>2022-08-27T19:07:53Z</time>
      </trkpt>
      <trkpt lat="45.98606" lon="7.12171">
        <ele>1531</ele>
        <time>2022-08-27T19:07:54Z</time>
      </trkpt>
      <trkpt lat="45.98608" lon="7.1217">
        <ele>1531</ele>
        <time>2022-08-27T19:07:55Z</time>
      </trkpt>
      <trkpt lat="45.9861" lon="7.1217">
        <ele>1531</ele>
        <time>2022-08-27T19:07:56Z</time>
      </trkpt>
      <trkpt lat="45.98611" lon="7.1217">
        <ele>1530</ele>
        <time>2022-08-27T19:07:57Z</time>
      </trkpt>
      <trkpt lat="45.98613" lon="7.12169">
        <ele>1530</ele>
        <time>2022-08-27T19:07:58Z</time>
      </trkpt>
      <trkpt lat="45.98617" lon="7.12167">
        <ele>1530</ele>
        <time>2022-08-27T19:08:00Z</time>
      </trkpt>
      <trkpt lat="45.98618" lon="7.12167">
        <ele>1530</ele>
        <time>2022-08-27T19:08:01Z</time>
      </trkpt>
      <trkpt lat="45.9862" lon="7.12166">
        <ele>1530</ele>
        <time>2022-08-27T19:08:02Z</time>
      </trkpt>
      <trkpt lat="45.98622" lon="7.12165">
        <ele>1530</ele>
        <time>2022-08-27T19:08:03Z</time>
      </trkpt>
      <trkpt lat="45.98623" lon="7.12164">
        <ele>1530</ele>
        <time>2022-08-27T19:08:04Z</time>
      </trkpt>
      <trkpt lat="45.98625" lon="7.12163">
        <ele>1530</ele>
        <time>2022-08-27T19:08:05Z</time>
      </trkpt>
      <trkpt lat="45.98627" lon="7.12162">
        <ele>1530</ele>
        <time>2022-08-27T19:08:06Z</time>
      </trkpt>
      <trkpt lat="45.9863" lon="7.1216">
        <ele>1530</ele>
        <time>2022-08-27T19:08:08Z</time>
      </trkpt>
      <trkpt lat="45.98633" lon="7.12158">
        <ele>1529</ele>
        <time>2022-08-27T19:08:10Z</time>
      </trkpt>
      <trkpt lat="45.98636" lon="7.12156">
        <ele>1529</ele>
        <time>2022-08-27T19:08:11Z</time>
      </trkpt>
      <trkpt lat="45.98639" lon="7.12153">
        <ele>1529</ele>
        <time>2022-08-27T19:08:14Z</time>
      </trkpt>
      <trkpt lat="45.98641" lon="7.12151">
        <ele>1529</ele>
        <time>2022-08-27T19:08:16Z</time>
      </trkpt>
      <trkpt lat="45.98643" lon="7.12149">
        <ele>1529</ele>
        <time>2022-08-27T19:08:18Z</time>
      </trkpt>
      <trkpt lat="45.98645" lon="7.12148">
        <ele>1528</ele>
        <time>2022-08-27T19:08:20Z</time>
      </trkpt>
      <trkpt lat="45.98647" lon="7.12147">
        <ele>1528</ele>
        <time>2022-08-27T19:08:22Z</time>
      </trkpt>
      <trkpt lat="45.98648" lon="7.12146">
        <ele>1528</ele>
        <time>2022-08-27T19:08:24Z</time>
      </trkpt>
      <trkpt lat="45.98648" lon="7.12146">
        <ele>1528</ele>
        <time>2022-08-27T19:08:26Z</time>
      </trkpt>
      <trkpt lat="45.98649" lon="7.12146">
        <ele>1528</ele>
        <time>2022-08-27T19:08:27Z</time>
      </trkpt>
      <trkpt lat="45.9865" lon="7.12146">
        <ele>1527</ele>
        <time>2022-08-27T19:08:28Z</time>
      </trkpt>
      <trkpt lat="45.9865" lon="7.12146">
        <ele>1527</ele>
        <time>2022-08-27T19:08:29Z</time>
      </trkpt>
      <trkpt lat="45.98659" lon="7.12143">
        <ele>1528</ele>
        <time>2022-08-27T19:08:31Z</time>
      </trkpt>
      <trkpt lat="45.9866" lon="7.12142">
        <ele>1528</ele>
        <time>2022-08-27T19:08:32Z</time>
      </trkpt>
      <trkpt lat="45.98661" lon="7.12142">
        <ele>1527</ele>
        <time>2022-08-27T19:08:33Z</time>
      </trkpt>
      <trkpt lat="45.98663" lon="7.12141">
        <ele>1527</ele>
        <time>2022-08-27T19:08:34Z</time>
      </trkpt>
      <trkpt lat="45.98664" lon="7.12141">
        <ele>1527</ele>
        <time>2022-08-27T19:08:35Z</time>
      </trkpt>
      <trkpt lat="45.98666" lon="7.1214">
        <ele>1527</ele>
        <time>2022-08-27T19:08:36Z</time>
      </trkpt>
      <trkpt lat="45.98668" lon="7.12141">
        <ele>1527</ele>
        <time>2022-08-27T19:08:37Z</time>
      </trkpt>
      <trkpt lat="45.9867" lon="7.12142">
        <ele>1527</ele>
        <time>2022-08-27T19:08:39Z</time>
      </trkpt>
      <trkpt lat="45.98672" lon="7.12143">
        <ele>1527</ele>
        <time>2022-08-27T19:08:41Z</time>
      </trkpt>
      <trkpt lat="45.98674" lon="7.12143">
        <ele>1527</ele>
        <time>2022-08-27T19:08:42Z</time>
      </trkpt>
      <trkpt lat="45.98677" lon="7.12145">
        <ele>1527</ele>
        <time>2022-08-27T19:08:43Z</time>
      </trkpt>
      <trkpt lat="45.9868" lon="7.12146">
        <ele>1527</ele>
        <time>2022-08-27T19:08:46Z</time>
      </trkpt>
      <trkpt lat="45.98683" lon="7.12147">
        <ele>1527</ele>
        <time>2022-08-27T19:08:48Z</time>
      </trkpt>
      <trkpt lat="45.98685" lon="7.12149">
        <ele>1527</ele>
        <time>2022-08-27T19:08:50Z</time>
      </trkpt>
      <trkpt lat="45.98687" lon="7.12151">
        <ele>1526</ele>
        <time>2022-08-27T19:08:52Z</time>
      </trkpt>
      <trkpt lat="45.9869" lon="7.12153">
        <ele>1526</ele>
        <time>2022-08-27T19:08:54Z</time>
      </trkpt>
      <trkpt lat="45.98692" lon="7.12155">
        <ele>1526</ele>
        <time>2022-08-27T19:08:56Z</time>
      </trkpt>
      <trkpt lat="45.98695" lon="7.12157">
        <ele>1526</ele>
        <time>2022-08-27T19:08:58Z</time>
      </trkpt>
      <trkpt lat="45.98697" lon="7.12159">
        <ele>1526</ele>
        <time>2022-08-27T19:09:00Z</time>
      </trkpt>
      <trkpt lat="45.987" lon="7.12161">
        <ele>1526</ele>
        <time>2022-08-27T19:09:02Z</time>
      </trkpt>
      <trkpt lat="45.98703" lon="7.12165">
        <ele>1526</ele>
        <time>2022-08-27T19:09:04Z</time>
      </trkpt>
      <trkpt lat="45.98705" lon="7.12167">
        <ele>1524</ele>
        <time>2022-08-27T19:09:07Z</time>
      </trkpt>
      <trkpt lat="45.98708" lon="7.12168">
        <ele>1524</ele>
        <time>2022-08-27T19:09:09Z</time>
      </trkpt>
      <trkpt lat="45.98709" lon="7.12171">
        <ele>1524</ele>
        <time>2022-08-27T19:09:11Z</time>
      </trkpt>
      <trkpt lat="45.98711" lon="7.12173">
        <ele>1524</ele>
        <time>2022-08-27T19:09:13Z</time>
      </trkpt>
      <trkpt lat="45.98713" lon="7.12175">
        <ele>1524</ele>
        <time>2022-08-27T19:09:14Z</time>
      </trkpt>
      <trkpt lat="45.98715" lon="7.12178">
        <ele>1524</ele>
        <time>2022-08-27T19:09:17Z</time>
      </trkpt>
      <trkpt lat="45.98717" lon="7.12181">
        <ele>1524</ele>
        <time>2022-08-27T19:09:19Z</time>
      </trkpt>
      <trkpt lat="45.98719" lon="7.12183">
        <ele>1524</ele>
        <time>2022-08-27T19:09:21Z</time>
      </trkpt>
      <trkpt lat="45.98721" lon="7.12186">
        <ele>1524</ele>
        <time>2022-08-27T19:09:23Z</time>
      </trkpt>
      <trkpt lat="45.98723" lon="7.12189">
        <ele>1524</ele>
        <time>2022-08-27T19:09:25Z</time>
      </trkpt>
      <trkpt lat="45.98725" lon="7.12193">
        <ele>1523</ele>
        <time>2022-08-27T19:09:27Z</time>
      </trkpt>
      <trkpt lat="45.98728" lon="7.12195">
        <ele>1522</ele>
        <time>2022-08-27T19:09:29Z</time>
      </trkpt>
      <trkpt lat="45.9873" lon="7.12198">
        <ele>1522</ele>
        <time>2022-08-27T19:09:31Z</time>
      </trkpt>
      <trkpt lat="45.98732" lon="7.12201">
        <ele>1522</ele>
        <time>2022-08-27T19:09:33Z</time>
      </trkpt>
      <trkpt lat="45.98734" lon="7.12204">
        <ele>1522</ele>
        <time>2022-08-27T19:09:35Z</time>
      </trkpt>
      <trkpt lat="45.98736" lon="7.12207">
        <ele>1522</ele>
        <time>2022-08-27T19:09:37Z</time>
      </trkpt>
      <trkpt lat="45.98737" lon="7.12211">
        <ele>1522</ele>
        <time>2022-08-27T19:09:39Z</time>
      </trkpt>
      <trkpt lat="45.98739" lon="7.12215">
        <ele>1522</ele>
        <time>2022-08-27T19:09:41Z</time>
      </trkpt>
      <trkpt lat="45.98741" lon="7.12218">
        <ele>1522</ele>
        <time>2022-08-27T19:09:43Z</time>
      </trkpt>
      <trkpt lat="45.98742" lon="7.1222">
        <ele>1519</ele>
        <time>2022-08-27T19:09:45Z</time>
      </trkpt>
      <trkpt lat="45.98743" lon="7.12222">
        <ele>1519</ele>
        <time>2022-08-27T19:09:46Z</time>
      </trkpt>
      <trkpt lat="45.98743" lon="7.12224">
        <ele>1519</ele>
        <time>2022-08-27T19:09:47Z</time>
      </trkpt>
      <trkpt lat="45.98745" lon="7.12227">
        <ele>1519</ele>
        <time>2022-08-27T19:09:48Z</time>
      </trkpt>
      <trkpt lat="45.98746" lon="7.1223">
        <ele>1519</ele>
        <time>2022-08-27T19:09:50Z</time>
      </trkpt>
      <trkpt lat="45.98748" lon="7.12232">
        <ele>1519</ele>
        <time>2022-08-27T19:09:51Z</time>
      </trkpt>
      <trkpt lat="45.9875" lon="7.12235">
        <ele>1519</ele>
        <time>2022-08-27T19:09:52Z</time>
      </trkpt>
      <trkpt lat="45.9875" lon="7.12237">
        <ele>1519</ele>
        <time>2022-08-27T19:09:55Z</time>
      </trkpt>
      <trkpt lat="45.98751" lon="7.12239">
        <ele>1519</ele>
        <time>2022-08-27T19:09:56Z</time>
      </trkpt>
      <trkpt lat="45.98752" lon="7.12241">
        <ele>1519</ele>
        <time>2022-08-27T19:09:57Z</time>
      </trkpt>
      <trkpt lat="45.98753" lon="7.12243">
        <ele>1519</ele>
        <time>2022-08-27T19:09:59Z</time>
      </trkpt>
      <trkpt lat="45.98755" lon="7.12246">
        <ele>1519</ele>
        <time>2022-08-27T19:10:01Z</time>
      </trkpt>
      <trkpt lat="45.98757" lon="7.12249">
        <ele>1518</ele>
        <time>2022-08-27T19:10:03Z</time>
      </trkpt>
      <trkpt lat="45.98759" lon="7.12253">
        <ele>1518</ele>
        <time>2022-08-27T19:10:05Z</time>
      </trkpt>
      <trkpt lat="45.9876" lon="7.12255">
        <ele>1518</ele>
        <time>2022-08-27T19:10:06Z</time>
      </trkpt>
      <trkpt lat="45.98761" lon="7.12257">
        <ele>1517</ele>
        <time>2022-08-27T19:10:07Z</time>
      </trkpt>
      <trkpt lat="45.98762" lon="7.12258">
        <ele>1517</ele>
        <time>2022-08-27T19:10:08Z</time>
      </trkpt>
      <trkpt lat="45.98763" lon="7.1226">
        <ele>1517</ele>
        <time>2022-08-27T19:10:10Z</time>
      </trkpt>
      <trkpt lat="45.98764" lon="7.12262">
        <ele>1517</ele>
        <time>2022-08-27T19:10:11Z</time>
      </trkpt>
      <trkpt lat="45.98765" lon="7.12263">
        <ele>1517</ele>
        <time>2022-08-27T19:10:12Z</time>
      </trkpt>
      <trkpt lat="45.98766" lon="7.12265">
        <ele>1517</ele>
        <time>2022-08-27T19:10:13Z</time>
      </trkpt>
      <trkpt lat="45.98768" lon="7.12266">
        <ele>1517</ele>
        <time>2022-08-27T19:10:15Z</time>
      </trkpt>
      <trkpt lat="45.98769" lon="7.12267">
        <ele>1516</ele>
        <time>2022-08-27T19:10:16Z</time>
      </trkpt>
      <trkpt lat="45.9877" lon="7.12268">
        <ele>1516</ele>
        <time>2022-08-27T19:10:17Z</time>
      </trkpt>
      <trkpt lat="45.98771" lon="7.12269">
        <ele>1516</ele>
        <time>2022-08-27T19:10:18Z</time>
      </trkpt>
      <trkpt lat="45.98772" lon="7.12271">
        <ele>1516</ele>
        <time>2022-08-27T19:10:19Z</time>
      </trkpt>
      <trkpt lat="45.98773" lon="7.12272">
        <ele>1516</ele>
        <time>2022-08-27T19:10:20Z</time>
      </trkpt>
      <trkpt lat="45.98774" lon="7.12273">
        <ele>1516</ele>
        <time>2022-08-27T19:10:22Z</time>
      </trkpt>
      <trkpt lat="45.98776" lon="7.12275">
        <ele>1515</ele>
        <time>2022-08-27T19:10:23Z</time>
      </trkpt>
      <trkpt lat="45.98778" lon="7.12276">
        <ele>1515</ele>
        <time>2022-08-27T19:10:24Z</time>
      </trkpt>
      <trkpt lat="45.9878" lon="7.12278">
        <ele>1515</ele>
        <time>2022-08-27T19:10:25Z</time>
      </trkpt>
      <trkpt lat="45.98781" lon="7.1228">
        <ele>1515</ele>
        <time>2022-08-27T19:10:27Z</time>
      </trkpt>
      <trkpt lat="45.98784" lon="7.12281">
        <ele>1515</ele>
        <time>2022-08-27T19:10:29Z</time>
      </trkpt>
      <trkpt lat="45.98786" lon="7.12281">
        <ele>1515</ele>
        <time>2022-08-27T19:10:31Z</time>
      </trkpt>
      <trkpt lat="45.98788" lon="7.12281">
        <ele>1514</ele>
        <time>2022-08-27T19:10:33Z</time>
      </trkpt>
      <trkpt lat="45.9879" lon="7.12282">
        <ele>1513</ele>
        <time>2022-08-27T19:10:35Z</time>
      </trkpt>
      <trkpt lat="45.98792" lon="7.12284">
        <ele>1513</ele>
        <time>2022-08-27T19:10:37Z</time>
      </trkpt>
      <trkpt lat="45.98795" lon="7.12285">
        <ele>1513</ele>
        <time>2022-08-27T19:10:39Z</time>
      </trkpt>
      <trkpt lat="45.98797" lon="7.12286">
        <ele>1513</ele>
        <time>2022-08-27T19:10:41Z</time>
      </trkpt>
      <trkpt lat="45.98799" lon="7.12287">
        <ele>1513</ele>
        <time>2022-08-27T19:10:43Z</time>
      </trkpt>
      <trkpt lat="45.98801" lon="7.12289">
        <ele>1512</ele>
        <time>2022-08-27T19:10:45Z</time>
      </trkpt>
      <trkpt lat="45.98804" lon="7.1229">
        <ele>1512</ele>
        <time>2022-08-27T19:10:47Z</time>
      </trkpt>
      <trkpt lat="45.98806" lon="7.12291">
        <ele>1511</ele>
        <time>2022-08-27T19:10:49Z</time>
      </trkpt>
      <trkpt lat="45.98809" lon="7.12293">
        <ele>1511</ele>
        <time>2022-08-27T19:10:51Z</time>
      </trkpt>
      <trkpt lat="45.9881" lon="7.12296">
        <ele>1510</ele>
        <time>2022-08-27T19:10:53Z</time>
      </trkpt>
      <trkpt lat="45.98812" lon="7.12299">
        <ele>1510</ele>
        <time>2022-08-27T19:10:55Z</time>
      </trkpt>
      <trkpt lat="45.98813" lon="7.12303">
        <ele>1510</ele>
        <time>2022-08-27T19:10:57Z</time>
      </trkpt>
      <trkpt lat="45.98815" lon="7.12307">
        <ele>1510</ele>
        <time>2022-08-27T19:10:59Z</time>
      </trkpt>
      <trkpt lat="45.98817" lon="7.1231">
        <ele>1509</ele>
        <time>2022-08-27T19:11:01Z</time>
      </trkpt>
      <trkpt lat="45.98818" lon="7.12312">
        <ele>1509</ele>
        <time>2022-08-27T19:11:02Z</time>
      </trkpt>
      <trkpt lat="45.98819" lon="7.12315">
        <ele>1508</ele>
        <time>2022-08-27T19:11:03Z</time>
      </trkpt>
      <trkpt lat="45.98821" lon="7.12317">
        <ele>1508</ele>
        <time>2022-08-27T19:11:05Z</time>
      </trkpt>
      <trkpt lat="45.98822" lon="7.1232">
        <ele>1508</ele>
        <time>2022-08-27T19:11:06Z</time>
      </trkpt>
      <trkpt lat="45.98823" lon="7.12321">
        <ele>1508</ele>
        <time>2022-08-27T19:11:07Z</time>
      </trkpt>
      <trkpt lat="45.98825" lon="7.12325">
        <ele>1508</ele>
        <time>2022-08-27T19:11:08Z</time>
      </trkpt>
      <trkpt lat="45.98826" lon="7.12328">
        <ele>1508</ele>
        <time>2022-08-27T19:11:10Z</time>
      </trkpt>
      <trkpt lat="45.98827" lon="7.12332">
        <ele>1507</ele>
        <time>2022-08-27T19:11:12Z</time>
      </trkpt>
      <trkpt lat="45.98828" lon="7.12336">
        <ele>1507</ele>
        <time>2022-08-27T19:11:14Z</time>
      </trkpt>
      <trkpt lat="45.98829" lon="7.12339">
        <ele>1507</ele>
        <time>2022-08-27T19:11:16Z</time>
      </trkpt>
      <trkpt lat="45.9883" lon="7.12342">
        <ele>1507</ele>
        <time>2022-08-27T19:11:18Z</time>
      </trkpt>
      <trkpt lat="45.98832" lon="7.12347">
        <ele>1506</ele>
        <time>2022-08-27T19:11:21Z</time>
      </trkpt>
      <trkpt lat="45.98833" lon="7.12349">
        <ele>1506</ele>
        <time>2022-08-27T19:11:23Z</time>
      </trkpt>
      <trkpt lat="45.98835" lon="7.12352">
        <ele>1506</ele>
        <time>2022-08-27T19:11:25Z</time>
      </trkpt>
      <trkpt lat="45.98837" lon="7.12354">
        <ele>1505</ele>
        <time>2022-08-27T19:11:27Z</time>
      </trkpt>
      <trkpt lat="45.98839" lon="7.12357">
        <ele>1505</ele>
        <time>2022-08-27T19:11:28Z</time>
      </trkpt>
      <trkpt lat="45.9884" lon="7.1236">
        <ele>1505</ele>
        <time>2022-08-27T19:11:31Z</time>
      </trkpt>
      <trkpt lat="45.98842" lon="7.12362">
        <ele>1505</ele>
        <time>2022-08-27T19:11:33Z</time>
      </trkpt>
      <trkpt lat="45.98844" lon="7.12364">
        <ele>1505</ele>
        <time>2022-08-27T19:11:35Z</time>
      </trkpt>
      <trkpt lat="45.98845" lon="7.12366">
        <ele>1505</ele>
        <time>2022-08-27T19:11:37Z</time>
      </trkpt>
      <trkpt lat="45.98847" lon="7.12369">
        <ele>1504</ele>
        <time>2022-08-27T19:11:39Z</time>
      </trkpt>
      <trkpt lat="45.98848" lon="7.1237">
        <ele>1504</ele>
        <time>2022-08-27T19:11:41Z</time>
      </trkpt>
      <trkpt lat="45.9885" lon="7.12373">
        <ele>1504</ele>
        <time>2022-08-27T19:11:44Z</time>
      </trkpt>
      <trkpt lat="45.98851" lon="7.12374">
        <ele>1504</ele>
        <time>2022-08-27T19:11:45Z</time>
      </trkpt>
      <trkpt lat="45.98853" lon="7.12375">
        <ele>1504</ele>
        <time>2022-08-27T19:11:47Z</time>
      </trkpt>
      <trkpt lat="45.98854" lon="7.12376">
        <ele>1504</ele>
        <time>2022-08-27T19:11:48Z</time>
      </trkpt>
      <trkpt lat="45.98856" lon="7.12377">
        <ele>1504</ele>
        <time>2022-08-27T19:11:49Z</time>
      </trkpt>
      <trkpt lat="45.98857" lon="7.12378">
        <ele>1504</ele>
        <time>2022-08-27T19:11:50Z</time>
      </trkpt>
      <trkpt lat="45.98859" lon="7.12379">
        <ele>1504</ele>
        <time>2022-08-27T19:11:51Z</time>
      </trkpt>
      <trkpt lat="45.98861" lon="7.1238">
        <ele>1503</ele>
        <time>2022-08-27T19:11:52Z</time>
      </trkpt>
      <trkpt lat="45.98862" lon="7.1238">
        <ele>1503</ele>
        <time>2022-08-27T19:11:53Z</time>
      </trkpt>
      <trkpt lat="45.98866" lon="7.12381">
        <ele>1503</ele>
        <time>2022-08-27T19:11:55Z</time>
      </trkpt>
      <trkpt lat="45.98868" lon="7.12381">
        <ele>1502</ele>
        <time>2022-08-27T19:11:57Z</time>
      </trkpt>
      <trkpt lat="45.98871" lon="7.12382">
        <ele>1502</ele>
        <time>2022-08-27T19:11:59Z</time>
      </trkpt>
      <trkpt lat="45.98873" lon="7.12382">
        <ele>1502</ele>
        <time>2022-08-27T19:12:01Z</time>
      </trkpt>
      <trkpt lat="45.98876" lon="7.12382">
        <ele>1502</ele>
        <time>2022-08-27T19:12:03Z</time>
      </trkpt>
      <trkpt lat="45.98877" lon="7.12382">
        <ele>1502</ele>
        <time>2022-08-27T19:12:05Z</time>
      </trkpt>
      <trkpt lat="45.98879" lon="7.12383">
        <ele>1502</ele>
        <time>2022-08-27T19:12:06Z</time>
      </trkpt>
      <trkpt lat="45.98881" lon="7.12383">
        <ele>1501</ele>
        <time>2022-08-27T19:12:09Z</time>
      </trkpt>
      <trkpt lat="45.98884" lon="7.12384">
        <ele>1501</ele>
        <time>2022-08-27T19:12:11Z</time>
      </trkpt>
      <trkpt lat="45.98886" lon="7.12384">
        <ele>1501</ele>
        <time>2022-08-27T19:12:13Z</time>
      </trkpt>
      <trkpt lat="45.98889" lon="7.12385">
        <ele>1501</ele>
        <time>2022-08-27T19:12:15Z</time>
      </trkpt>
      <trkpt lat="45.98891" lon="7.12385">
        <ele>1501</ele>
        <time>2022-08-27T19:12:17Z</time>
      </trkpt>
      <trkpt lat="45.98893" lon="7.12386">
        <ele>1501</ele>
        <time>2022-08-27T19:12:18Z</time>
      </trkpt>
      <trkpt lat="45.98895" lon="7.12388">
        <ele>1500</ele>
        <time>2022-08-27T19:12:21Z</time>
      </trkpt>
      <trkpt lat="45.98897" lon="7.12388">
        <ele>1500</ele>
        <time>2022-08-27T19:12:23Z</time>
      </trkpt>
      <trkpt lat="45.98899" lon="7.1239">
        <ele>1499</ele>
        <time>2022-08-27T19:12:25Z</time>
      </trkpt>
      <trkpt lat="45.98902" lon="7.1239">
        <ele>1499</ele>
        <time>2022-08-27T19:12:26Z</time>
      </trkpt>
      <trkpt lat="45.98905" lon="7.12392">
        <ele>1499</ele>
        <time>2022-08-27T19:12:29Z</time>
      </trkpt>
      <trkpt lat="45.98907" lon="7.12394">
        <ele>1498</ele>
        <time>2022-08-27T19:12:31Z</time>
      </trkpt>
      <trkpt lat="45.9891" lon="7.12395">
        <ele>1498</ele>
        <time>2022-08-27T19:12:33Z</time>
      </trkpt>
      <trkpt lat="45.98912" lon="7.12396">
        <ele>1497</ele>
        <time>2022-08-27T19:12:35Z</time>
      </trkpt>
      <trkpt lat="45.98915" lon="7.12398">
        <ele>1497</ele>
        <time>2022-08-27T19:12:37Z</time>
      </trkpt>
      <trkpt lat="45.98916" lon="7.124">
        <ele>1497</ele>
        <time>2022-08-27T19:12:39Z</time>
      </trkpt>
      <trkpt lat="45.98918" lon="7.12402">
        <ele>1497</ele>
        <time>2022-08-27T19:12:41Z</time>
      </trkpt>
      <trkpt lat="45.9892" lon="7.12405">
        <ele>1497</ele>
        <time>2022-08-27T19:12:43Z</time>
      </trkpt>
      <trkpt lat="45.98921" lon="7.12407">
        <ele>1497</ele>
        <time>2022-08-27T19:12:44Z</time>
      </trkpt>
      <trkpt lat="45.98922" lon="7.1241">
        <ele>1496</ele>
        <time>2022-08-27T19:12:45Z</time>
      </trkpt>
      <trkpt lat="45.98924" lon="7.12412">
        <ele>1496</ele>
        <time>2022-08-27T19:12:47Z</time>
      </trkpt>
      <trkpt lat="45.98925" lon="7.12415">
        <ele>1496</ele>
        <time>2022-08-27T19:12:48Z</time>
      </trkpt>
      <trkpt lat="45.98926" lon="7.12417">
        <ele>1496</ele>
        <time>2022-08-27T19:12:49Z</time>
      </trkpt>
      <trkpt lat="45.98928" lon="7.12422">
        <ele>1496</ele>
        <time>2022-08-27T19:12:52Z</time>
      </trkpt>
      <trkpt lat="45.98929" lon="7.12427">
        <ele>1496</ele>
        <time>2022-08-27T19:12:54Z</time>
      </trkpt>
      <trkpt lat="45.9893" lon="7.12429">
        <ele>1495</ele>
        <time>2022-08-27T19:12:56Z</time>
      </trkpt>
      <trkpt lat="45.98932" lon="7.12431">
        <ele>1495</ele>
        <time>2022-08-27T19:12:57Z</time>
      </trkpt>
      <trkpt lat="45.98933" lon="7.12434">
        <ele>1495</ele>
        <time>2022-08-27T19:12:58Z</time>
      </trkpt>
      <trkpt lat="45.98935" lon="7.12437">
        <ele>1495</ele>
        <time>2022-08-27T19:13:00Z</time>
      </trkpt>
      <trkpt lat="45.98936" lon="7.1244">
        <ele>1495</ele>
        <time>2022-08-27T19:13:02Z</time>
      </trkpt>
      <trkpt lat="45.98937" lon="7.12443">
        <ele>1495</ele>
        <time>2022-08-27T19:13:04Z</time>
      </trkpt>
      <trkpt lat="45.98938" lon="7.12446">
        <ele>1495</ele>
        <time>2022-08-27T19:13:06Z</time>
      </trkpt>
      <trkpt lat="45.9894" lon="7.1245">
        <ele>1495</ele>
        <time>2022-08-27T19:13:08Z</time>
      </trkpt>
      <trkpt lat="45.98941" lon="7.12453">
        <ele>1495</ele>
        <time>2022-08-27T19:13:09Z</time>
      </trkpt>
      <trkpt lat="45.98941" lon="7.12456">
        <ele>1495</ele>
        <time>2022-08-27T19:13:12Z</time>
      </trkpt>
      <trkpt lat="45.98942" lon="7.1246">
        <ele>1494</ele>
        <time>2022-08-27T19:13:14Z</time>
      </trkpt>
      <trkpt lat="45.98942" lon="7.12464">
        <ele>1494</ele>
        <time>2022-08-27T19:13:16Z</time>
      </trkpt>
      <trkpt lat="45.98944" lon="7.12471">
        <ele>1493</ele>
        <time>2022-08-27T19:13:20Z</time>
      </trkpt>
      <trkpt lat="45.98945" lon="7.12475">
        <ele>1493</ele>
        <time>2022-08-27T19:13:22Z</time>
      </trkpt>
      <trkpt lat="45.98945" lon="7.12479">
        <ele>1493</ele>
        <time>2022-08-27T19:13:24Z</time>
      </trkpt>
      <trkpt lat="45.98945" lon="7.12482">
        <ele>1492</ele>
        <time>2022-08-27T19:13:26Z</time>
      </trkpt>
      <trkpt lat="45.98945" lon="7.12486">
        <ele>1492</ele>
        <time>2022-08-27T19:13:27Z</time>
      </trkpt>
      <trkpt lat="45.98945" lon="7.12489">
        <ele>1492</ele>
        <time>2022-08-27T19:13:30Z</time>
      </trkpt>
      <trkpt lat="45.98944" lon="7.12492">
        <ele>1491</ele>
        <time>2022-08-27T19:13:32Z</time>
      </trkpt>
      <trkpt lat="45.98945" lon="7.12496">
        <ele>1491</ele>
        <time>2022-08-27T19:13:34Z</time>
      </trkpt>
      <trkpt lat="45.98935" lon="7.12501">
        <ele>1489</ele>
        <time>2022-08-27T19:13:40Z</time>
      </trkpt>
      <trkpt lat="45.98928" lon="7.12514">
        <ele>1489</ele>
        <time>2022-08-27T19:13:45Z</time>
      </trkpt>
      <trkpt lat="45.98928" lon="7.12517">
        <ele>1489</ele>
        <time>2022-08-27T19:13:46Z</time>
      </trkpt>
      <trkpt lat="45.98927" lon="7.1252">
        <ele>1488</ele>
        <time>2022-08-27T19:13:47Z</time>
      </trkpt>
      <trkpt lat="45.98927" lon="7.12524">
        <ele>1488</ele>
        <time>2022-08-27T19:13:49Z</time>
      </trkpt>
      <trkpt lat="45.98927" lon="7.12527">
        <ele>1488</ele>
        <time>2022-08-27T19:13:50Z</time>
      </trkpt>
      <trkpt lat="45.98925" lon="7.12534">
        <ele>1488</ele>
        <time>2022-08-27T19:13:53Z</time>
      </trkpt>
      <trkpt lat="45.98923" lon="7.12537">
        <ele>1488</ele>
        <time>2022-08-27T19:13:55Z</time>
      </trkpt>
      <trkpt lat="45.9892" lon="7.12539">
        <ele>1488</ele>
        <time>2022-08-27T19:13:57Z</time>
      </trkpt>
      <trkpt lat="45.98918" lon="7.1254">
        <ele>1488</ele>
        <time>2022-08-27T19:13:59Z</time>
      </trkpt>
      <trkpt lat="45.98917" lon="7.12542">
        <ele>1488</ele>
        <time>2022-08-27T19:14:00Z</time>
      </trkpt>
      <trkpt lat="45.98915" lon="7.12544">
        <ele>1488</ele>
        <time>2022-08-27T19:14:01Z</time>
      </trkpt>
      <trkpt lat="45.98913" lon="7.12545">
        <ele>1488</ele>
        <time>2022-08-27T19:14:03Z</time>
      </trkpt>
      <trkpt lat="45.98912" lon="7.12547">
        <ele>1488</ele>
        <time>2022-08-27T19:14:04Z</time>
      </trkpt>
      <trkpt lat="45.98909" lon="7.12549">
        <ele>1488</ele>
        <time>2022-08-27T19:14:05Z</time>
      </trkpt>
      <trkpt lat="45.98907" lon="7.12552">
        <ele>1489</ele>
        <time>2022-08-27T19:14:07Z</time>
      </trkpt>
      <trkpt lat="45.98904" lon="7.12554">
        <ele>1489</ele>
        <time>2022-08-27T19:14:09Z</time>
      </trkpt>
      <trkpt lat="45.98903" lon="7.12556">
        <ele>1489</ele>
        <time>2022-08-27T19:14:11Z</time>
      </trkpt>
      <trkpt lat="45.98902" lon="7.12559">
        <ele>1489</ele>
        <time>2022-08-27T19:14:13Z</time>
      </trkpt>
      <trkpt lat="45.98901" lon="7.12561">
        <ele>1489</ele>
        <time>2022-08-27T19:14:14Z</time>
      </trkpt>
      <trkpt lat="45.98899" lon="7.12563">
        <ele>1489</ele>
        <time>2022-08-27T19:14:15Z</time>
      </trkpt>
      <trkpt lat="45.98898" lon="7.12564">
        <ele>1489</ele>
        <time>2022-08-27T19:14:17Z</time>
      </trkpt>
      <trkpt lat="45.98897" lon="7.12566">
        <ele>1489</ele>
        <time>2022-08-27T19:14:18Z</time>
      </trkpt>
      <trkpt lat="45.98896" lon="7.12568">
        <ele>1489</ele>
        <time>2022-08-27T19:14:19Z</time>
      </trkpt>
      <trkpt lat="45.98895" lon="7.1257">
        <ele>1489</ele>
        <time>2022-08-27T19:14:20Z</time>
      </trkpt>
      <trkpt lat="45.98895" lon="7.12571">
        <ele>1489</ele>
        <time>2022-08-27T19:14:22Z</time>
      </trkpt>
      <trkpt lat="45.98894" lon="7.12573">
        <ele>1489</ele>
        <time>2022-08-27T19:14:23Z</time>
      </trkpt>
      <trkpt lat="45.98893" lon="7.12575">
        <ele>1489</ele>
        <time>2022-08-27T19:14:24Z</time>
      </trkpt>
      <trkpt lat="45.98893" lon="7.12577">
        <ele>1489</ele>
        <time>2022-08-27T19:14:25Z</time>
      </trkpt>
      <trkpt lat="45.98892" lon="7.12579">
        <ele>1489</ele>
        <time>2022-08-27T19:14:27Z</time>
      </trkpt>
      <trkpt lat="45.98892" lon="7.1258">
        <ele>1489</ele>
        <time>2022-08-27T19:14:28Z</time>
      </trkpt>
      <trkpt lat="45.98891" lon="7.12582">
        <ele>1490</ele>
        <time>2022-08-27T19:14:29Z</time>
      </trkpt>
      <trkpt lat="45.98891" lon="7.12586">
        <ele>1490</ele>
        <time>2022-08-27T19:14:30Z</time>
      </trkpt>
      <trkpt lat="45.98892" lon="7.12589">
        <ele>1490</ele>
        <time>2022-08-27T19:14:31Z</time>
      </trkpt>
      <trkpt lat="45.98892" lon="7.12593">
        <ele>1490</ele>
        <time>2022-08-27T19:14:34Z</time>
      </trkpt>
      <trkpt lat="45.98892" lon="7.12596">
        <ele>1491</ele>
        <time>2022-08-27T19:14:36Z</time>
      </trkpt>
      <trkpt lat="45.98891" lon="7.12599">
        <ele>1491</ele>
        <time>2022-08-27T19:14:38Z</time>
      </trkpt>
      <trkpt lat="45.9889" lon="7.12603">
        <ele>1491</ele>
        <time>2022-08-27T19:14:40Z</time>
      </trkpt>
      <trkpt lat="45.9889" lon="7.12606">
        <ele>1491</ele>
        <time>2022-08-27T19:14:42Z</time>
      </trkpt>
      <trkpt lat="45.98891" lon="7.12608">
        <ele>1491</ele>
        <time>2022-08-27T19:14:44Z</time>
      </trkpt>
      <trkpt lat="45.98891" lon="7.1261">
        <ele>1492</ele>
        <time>2022-08-27T19:14:46Z</time>
      </trkpt>
      <trkpt lat="45.98892" lon="7.12612">
        <ele>1492</ele>
        <time>2022-08-27T19:14:47Z</time>
      </trkpt>
      <trkpt lat="45.98892" lon="7.12614">
        <ele>1492</ele>
        <time>2022-08-27T19:14:48Z</time>
      </trkpt>
      <trkpt lat="45.98893" lon="7.12616">
        <ele>1492</ele>
        <time>2022-08-27T19:14:50Z</time>
      </trkpt>
      <trkpt lat="45.98893" lon="7.12618">
        <ele>1492</ele>
        <time>2022-08-27T19:14:51Z</time>
      </trkpt>
      <trkpt lat="45.98894" lon="7.1262">
        <ele>1492</ele>
        <time>2022-08-27T19:14:52Z</time>
      </trkpt>
      <trkpt lat="45.98895" lon="7.12622">
        <ele>1492</ele>
        <time>2022-08-27T19:14:53Z</time>
      </trkpt>
      <trkpt lat="45.98896" lon="7.12623">
        <ele>1492</ele>
        <time>2022-08-27T19:14:55Z</time>
      </trkpt>
      <trkpt lat="45.98897" lon="7.12625">
        <ele>1492</ele>
        <time>2022-08-27T19:14:56Z</time>
      </trkpt>
      <trkpt lat="45.98898" lon="7.12626">
        <ele>1492</ele>
        <time>2022-08-27T19:14:57Z</time>
      </trkpt>
      <trkpt lat="45.98899" lon="7.12628">
        <ele>1492</ele>
        <time>2022-08-27T19:14:58Z</time>
      </trkpt>
      <trkpt lat="45.989" lon="7.1263">
        <ele>1492</ele>
        <time>2022-08-27T19:14:59Z</time>
      </trkpt>
      <trkpt lat="45.98902" lon="7.12631">
        <ele>1492</ele>
        <time>2022-08-27T19:15:00Z</time>
      </trkpt>
      <trkpt lat="45.98903" lon="7.12632">
        <ele>1492</ele>
        <time>2022-08-27T19:15:01Z</time>
      </trkpt>
      <trkpt lat="45.98904" lon="7.12634">
        <ele>1492</ele>
        <time>2022-08-27T19:15:02Z</time>
      </trkpt>
      <trkpt lat="45.98906" lon="7.12635">
        <ele>1492</ele>
        <time>2022-08-27T19:15:03Z</time>
      </trkpt>
      <trkpt lat="45.98907" lon="7.12636">
        <ele>1492</ele>
        <time>2022-08-27T19:15:04Z</time>
      </trkpt>
      <trkpt lat="45.98909" lon="7.12638">
        <ele>1492</ele>
        <time>2022-08-27T19:15:05Z</time>
      </trkpt>
      <trkpt lat="45.98911" lon="7.12639">
        <ele>1491</ele>
        <time>2022-08-27T19:15:06Z</time>
      </trkpt>
      <trkpt lat="45.98913" lon="7.1264">
        <ele>1490</ele>
        <time>2022-08-27T19:15:07Z</time>
      </trkpt>
      <trkpt lat="45.98915" lon="7.12642">
        <ele>1490</ele>
        <time>2022-08-27T19:15:08Z</time>
      </trkpt>
      <trkpt lat="45.98917" lon="7.12643">
        <ele>1490</ele>
        <time>2022-08-27T19:15:09Z</time>
      </trkpt>
      <trkpt lat="45.98919" lon="7.12644">
        <ele>1490</ele>
        <time>2022-08-27T19:15:10Z</time>
      </trkpt>
      <trkpt lat="45.98921" lon="7.12646">
        <ele>1490</ele>
        <time>2022-08-27T19:15:11Z</time>
      </trkpt>
      <trkpt lat="45.98923" lon="7.12646">
        <ele>1490</ele>
        <time>2022-08-27T19:15:12Z</time>
      </trkpt>
      <trkpt lat="45.98924" lon="7.12647">
        <ele>1490</ele>
        <time>2022-08-27T19:15:13Z</time>
      </trkpt>
      <trkpt lat="45.98925" lon="7.12647">
        <ele>1490</ele>
        <time>2022-08-27T19:15:14Z</time>
      </trkpt>
      <trkpt lat="45.98926" lon="7.12648">
        <ele>1490</ele>
        <time>2022-08-27T19:15:15Z</time>
      </trkpt>
      <trkpt lat="45.9893" lon="7.12649">
        <ele>1490</ele>
        <time>2022-08-27T19:15:16Z</time>
      </trkpt>
      <trkpt lat="45.98935" lon="7.1265">
        <ele>1490</ele>
        <time>2022-08-27T19:15:18Z</time>
      </trkpt>
      <trkpt lat="45.98936" lon="7.1265">
        <ele>1490</ele>
        <time>2022-08-27T19:15:20Z</time>
      </trkpt>
      <trkpt lat="45.98938" lon="7.12651">
        <ele>1490</ele>
        <time>2022-08-27T19:15:21Z</time>
      </trkpt>
      <trkpt lat="45.98939" lon="7.12651">
        <ele>1490</ele>
        <time>2022-08-27T19:15:22Z</time>
      </trkpt>
      <trkpt lat="45.98942" lon="7.12651">
        <ele>1489</ele>
        <time>2022-08-27T19:15:24Z</time>
      </trkpt>
      <trkpt lat="45.98945" lon="7.12651">
        <ele>1489</ele>
        <time>2022-08-27T19:15:26Z</time>
      </trkpt>
      <trkpt lat="45.98949" lon="7.12652">
        <ele>1489</ele>
        <time>2022-08-27T19:15:28Z</time>
      </trkpt>
      <trkpt lat="45.98952" lon="7.12653">
        <ele>1489</ele>
        <time>2022-08-27T19:15:30Z</time>
      </trkpt>
      <trkpt lat="45.98954" lon="7.12654">
        <ele>1488</ele>
        <time>2022-08-27T19:15:31Z</time>
      </trkpt>
      <trkpt lat="45.98955" lon="7.12655">
        <ele>1488</ele>
        <time>2022-08-27T19:15:32Z</time>
      </trkpt>
      <trkpt lat="45.98957" lon="7.12656">
        <ele>1487</ele>
        <time>2022-08-27T19:15:33Z</time>
      </trkpt>
      <trkpt lat="45.9896" lon="7.12657">
        <ele>1487</ele>
        <time>2022-08-27T19:15:35Z</time>
      </trkpt>
      <trkpt lat="45.98963" lon="7.1266">
        <ele>1487</ele>
        <time>2022-08-27T19:15:37Z</time>
      </trkpt>
      <trkpt lat="45.98966" lon="7.12662">
        <ele>1487</ele>
        <time>2022-08-27T19:15:39Z</time>
      </trkpt>
      <trkpt lat="45.9897" lon="7.12664">
        <ele>1487</ele>
        <time>2022-08-27T19:15:40Z</time>
      </trkpt>
      <trkpt lat="45.98971" lon="7.12666">
        <ele>1487</ele>
        <time>2022-08-27T19:15:42Z</time>
      </trkpt>
      <trkpt lat="45.98973" lon="7.12667">
        <ele>1487</ele>
        <time>2022-08-27T19:15:43Z</time>
      </trkpt>
      <trkpt lat="45.98977" lon="7.12669">
        <ele>1486</ele>
        <time>2022-08-27T19:15:45Z</time>
      </trkpt>
      <trkpt lat="45.98978" lon="7.1267">
        <ele>1486</ele>
        <time>2022-08-27T19:15:46Z</time>
      </trkpt>
      <trkpt lat="45.9898" lon="7.12671">
        <ele>1486</ele>
        <time>2022-08-27T19:15:47Z</time>
      </trkpt>
      <trkpt lat="45.98983" lon="7.12674">
        <ele>1486</ele>
        <time>2022-08-27T19:15:49Z</time>
      </trkpt>
      <trkpt lat="45.98985" lon="7.12676">
        <ele>1486</ele>
        <time>2022-08-27T19:15:50Z</time>
      </trkpt>
      <trkpt lat="45.98987" lon="7.12677">
        <ele>1486</ele>
        <time>2022-08-27T19:15:51Z</time>
      </trkpt>
      <trkpt lat="45.9899" lon="7.12678">
        <ele>1486</ele>
        <time>2022-08-27T19:15:53Z</time>
      </trkpt>
      <trkpt lat="45.98994" lon="7.1268">
        <ele>1485</ele>
        <time>2022-08-27T19:15:55Z</time>
      </trkpt>
      <trkpt lat="45.98996" lon="7.1268">
        <ele>1485</ele>
        <time>2022-08-27T19:15:56Z</time>
      </trkpt>
      <trkpt lat="45.98997" lon="7.1268">
        <ele>1485</ele>
        <time>2022-08-27T19:15:57Z</time>
      </trkpt>
      <trkpt lat="45.98999" lon="7.1268">
        <ele>1485</ele>
        <time>2022-08-27T19:15:58Z</time>
      </trkpt>
      <trkpt lat="45.99005" lon="7.12679">
        <ele>1484</ele>
        <time>2022-08-27T19:16:00Z</time>
      </trkpt>
      <trkpt lat="45.99007" lon="7.12678">
        <ele>1484</ele>
        <time>2022-08-27T19:16:02Z</time>
      </trkpt>
      <trkpt lat="45.99011" lon="7.12677">
        <ele>1484</ele>
        <time>2022-08-27T19:16:03Z</time>
      </trkpt>
      <trkpt lat="45.99012" lon="7.12677">
        <ele>1483</ele>
        <time>2022-08-27T19:16:04Z</time>
      </trkpt>
      <trkpt lat="45.99015" lon="7.12677">
        <ele>1483</ele>
        <time>2022-08-27T19:16:05Z</time>
      </trkpt>
      <trkpt lat="45.99016" lon="7.12677">
        <ele>1483</ele>
        <time>2022-08-27T19:16:06Z</time>
      </trkpt>
      <trkpt lat="45.99019" lon="7.12675">
        <ele>1483</ele>
        <time>2022-08-27T19:16:08Z</time>
      </trkpt>
      <trkpt lat="45.99022" lon="7.12674">
        <ele>1483</ele>
        <time>2022-08-27T19:16:10Z</time>
      </trkpt>
      <trkpt lat="45.99025" lon="7.12673">
        <ele>1483</ele>
        <time>2022-08-27T19:16:12Z</time>
      </trkpt>
      <trkpt lat="45.99029" lon="7.12673">
        <ele>1483</ele>
        <time>2022-08-27T19:16:14Z</time>
      </trkpt>
      <trkpt lat="45.99031" lon="7.12673">
        <ele>1483</ele>
        <time>2022-08-27T19:16:15Z</time>
      </trkpt>
      <trkpt lat="45.99042" lon="7.12674">
        <ele>1483</ele>
        <time>2022-08-27T19:16:21Z</time>
      </trkpt>
      <trkpt lat="45.99043" lon="7.12673">
        <ele>1483</ele>
        <time>2022-08-27T19:16:23Z</time>
      </trkpt>
      <trkpt lat="45.99045" lon="7.12673">
        <ele>1483</ele>
        <time>2022-08-27T19:16:24Z</time>
      </trkpt>
      <trkpt lat="45.99046" lon="7.12672">
        <ele>1482</ele>
        <time>2022-08-27T19:16:25Z</time>
      </trkpt>
      <trkpt lat="45.9905" lon="7.12671">
        <ele>1482</ele>
        <time>2022-08-27T19:16:26Z</time>
      </trkpt>
      <trkpt lat="45.99054" lon="7.12671">
        <ele>1482</ele>
        <time>2022-08-27T19:16:27Z</time>
      </trkpt>
      <trkpt lat="45.99057" lon="7.12672">
        <ele>1482</ele>
        <time>2022-08-27T19:16:29Z</time>
      </trkpt>
      <trkpt lat="45.99057" lon="7.12672">
        <ele>1482</ele>
        <time>2022-08-27T19:16:30Z</time>
      </trkpt>
      <trkpt lat="45.9906" lon="7.12672">
        <ele>1482</ele>
        <time>2022-08-27T19:16:31Z</time>
      </trkpt>
      <trkpt lat="45.99063" lon="7.12671">
        <ele>1481</ele>
        <time>2022-08-27T19:16:32Z</time>
      </trkpt>
      <trkpt lat="45.99067" lon="7.12671">
        <ele>1481</ele>
        <time>2022-08-27T19:16:35Z</time>
      </trkpt>
      <trkpt lat="45.9907" lon="7.12673">
        <ele>1481</ele>
        <time>2022-08-27T19:16:36Z</time>
      </trkpt>
      <trkpt lat="45.99071" lon="7.12673">
        <ele>1481</ele>
        <time>2022-08-27T19:16:37Z</time>
      </trkpt>
      <trkpt lat="45.99073" lon="7.12674">
        <ele>1481</ele>
        <time>2022-08-27T19:16:39Z</time>
      </trkpt>
      <trkpt lat="45.99077" lon="7.12673">
        <ele>1481</ele>
        <time>2022-08-27T19:16:41Z</time>
      </trkpt>
      <trkpt lat="45.99078" lon="7.12673">
        <ele>1480</ele>
        <time>2022-08-27T19:16:42Z</time>
      </trkpt>
      <trkpt lat="45.9908" lon="7.12673">
        <ele>1480</ele>
        <time>2022-08-27T19:16:43Z</time>
      </trkpt>
      <trkpt lat="45.99084" lon="7.12673">
        <ele>1480</ele>
        <time>2022-08-27T19:16:45Z</time>
      </trkpt>
      <trkpt lat="45.99086" lon="7.12673">
        <ele>1480</ele>
        <time>2022-08-27T19:16:46Z</time>
      </trkpt>
      <trkpt lat="45.99087" lon="7.12674">
        <ele>1479</ele>
        <time>2022-08-27T19:16:47Z</time>
      </trkpt>
      <trkpt lat="45.99089" lon="7.12674">
        <ele>1479</ele>
        <time>2022-08-27T19:16:48Z</time>
      </trkpt>
      <trkpt lat="45.99091" lon="7.12674">
        <ele>1479</ele>
        <time>2022-08-27T19:16:49Z</time>
      </trkpt>
      <trkpt lat="45.99093" lon="7.12675">
        <ele>1479</ele>
        <time>2022-08-27T19:16:50Z</time>
      </trkpt>
      <trkpt lat="45.99096" lon="7.12675">
        <ele>1478</ele>
        <time>2022-08-27T19:16:52Z</time>
      </trkpt>
      <trkpt lat="45.99099" lon="7.12676">
        <ele>1478</ele>
        <time>2022-08-27T19:16:53Z</time>
      </trkpt>
      <trkpt lat="45.991" lon="7.12676">
        <ele>1478</ele>
        <time>2022-08-27T19:16:54Z</time>
      </trkpt>
      <trkpt lat="45.99102" lon="7.12677">
        <ele>1478</ele>
        <time>2022-08-27T19:16:55Z</time>
      </trkpt>
      <trkpt lat="45.99105" lon="7.12678">
        <ele>1478</ele>
        <time>2022-08-27T19:16:57Z</time>
      </trkpt>
      <trkpt lat="45.99108" lon="7.12679">
        <ele>1478</ele>
        <time>2022-08-27T19:16:59Z</time>
      </trkpt>
      <trkpt lat="45.99112" lon="7.1268">
        <ele>1477</ele>
        <time>2022-08-27T19:17:01Z</time>
      </trkpt>
      <trkpt lat="45.99115" lon="7.1268">
        <ele>1477</ele>
        <time>2022-08-27T19:17:03Z</time>
      </trkpt>
      <trkpt lat="45.99119" lon="7.12681">
        <ele>1477</ele>
        <time>2022-08-27T19:17:05Z</time>
      </trkpt>
      <trkpt lat="45.99122" lon="7.12682">
        <ele>1476</ele>
        <time>2022-08-27T19:17:07Z</time>
      </trkpt>
      <trkpt lat="45.99124" lon="7.12683">
        <ele>1476</ele>
        <time>2022-08-27T19:17:08Z</time>
      </trkpt>
      <trkpt lat="45.99126" lon="7.12683">
        <ele>1476</ele>
        <time>2022-08-27T19:17:09Z</time>
      </trkpt>
      <trkpt lat="45.99128" lon="7.12683">
        <ele>1476</ele>
        <time>2022-08-27T19:17:10Z</time>
      </trkpt>
      <trkpt lat="45.99132" lon="7.12684">
        <ele>1475</ele>
        <time>2022-08-27T19:17:12Z</time>
      </trkpt>
      <trkpt lat="45.99134" lon="7.12684">
        <ele>1475</ele>
        <time>2022-08-27T19:17:13Z</time>
      </trkpt>
      <trkpt lat="45.99136" lon="7.12684">
        <ele>1474</ele>
        <time>2022-08-27T19:17:14Z</time>
      </trkpt>
      <trkpt lat="45.99137" lon="7.12685">
        <ele>1474</ele>
        <time>2022-08-27T19:17:15Z</time>
      </trkpt>
      <trkpt lat="45.99141" lon="7.12686">
        <ele>1474</ele>
        <time>2022-08-27T19:17:17Z</time>
      </trkpt>
      <trkpt lat="45.99144" lon="7.12687">
        <ele>1474</ele>
        <time>2022-08-27T19:17:19Z</time>
      </trkpt>
      <trkpt lat="45.99148" lon="7.12687">
        <ele>1474</ele>
        <time>2022-08-27T19:17:21Z</time>
      </trkpt>
      <trkpt lat="45.99151" lon="7.12687">
        <ele>1473</ele>
        <time>2022-08-27T19:17:23Z</time>
      </trkpt>
      <trkpt lat="45.99153" lon="7.12686">
        <ele>1473</ele>
        <time>2022-08-27T19:17:24Z</time>
      </trkpt>
      <trkpt lat="45.99157" lon="7.12686">
        <ele>1472</ele>
        <time>2022-08-27T19:17:26Z</time>
      </trkpt>
      <trkpt lat="45.99159" lon="7.12686">
        <ele>1472</ele>
        <time>2022-08-27T19:17:27Z</time>
      </trkpt>
      <trkpt lat="45.99161" lon="7.12686">
        <ele>1472</ele>
        <time>2022-08-27T19:17:28Z</time>
      </trkpt>
      <trkpt lat="45.99164" lon="7.12685">
        <ele>1472</ele>
        <time>2022-08-27T19:17:30Z</time>
      </trkpt>
      <trkpt lat="45.99166" lon="7.12685">
        <ele>1472</ele>
        <time>2022-08-27T19:17:31Z</time>
      </trkpt>
      <trkpt lat="45.99169" lon="7.12685">
        <ele>1472</ele>
        <time>2022-08-27T19:17:33Z</time>
      </trkpt>
      <trkpt lat="45.99173" lon="7.12685">
        <ele>1472</ele>
        <time>2022-08-27T19:17:34Z</time>
      </trkpt>
      <trkpt lat="45.99177" lon="7.12685">
        <ele>1471</ele>
        <time>2022-08-27T19:17:37Z</time>
      </trkpt>
      <trkpt lat="45.99179" lon="7.12684">
        <ele>1471</ele>
        <time>2022-08-27T19:17:38Z</time>
      </trkpt>
      <trkpt lat="45.9918" lon="7.12684">
        <ele>1470</ele>
        <time>2022-08-27T19:17:39Z</time>
      </trkpt>
      <trkpt lat="45.99182" lon="7.12683">
        <ele>1470</ele>
        <time>2022-08-27T19:17:40Z</time>
      </trkpt>
      <trkpt lat="45.99183" lon="7.12682">
        <ele>1470</ele>
        <time>2022-08-27T19:17:41Z</time>
      </trkpt>
      <trkpt lat="45.99185" lon="7.12682">
        <ele>1470</ele>
        <time>2022-08-27T19:17:42Z</time>
      </trkpt>
      <trkpt lat="45.99187" lon="7.12682">
        <ele>1470</ele>
        <time>2022-08-27T19:17:43Z</time>
      </trkpt>
      <trkpt lat="45.99191" lon="7.12682">
        <ele>1469</ele>
        <time>2022-08-27T19:17:45Z</time>
      </trkpt>
      <trkpt lat="45.99195" lon="7.12683">
        <ele>1469</ele>
        <time>2022-08-27T19:17:46Z</time>
      </trkpt>
      <trkpt lat="45.99197" lon="7.12683">
        <ele>1469</ele>
        <time>2022-08-27T19:17:48Z</time>
      </trkpt>
      <trkpt lat="45.99199" lon="7.12683">
        <ele>1469</ele>
        <time>2022-08-27T19:17:49Z</time>
      </trkpt>
      <trkpt lat="45.99201" lon="7.12683">
        <ele>1468</ele>
        <time>2022-08-27T19:17:50Z</time>
      </trkpt>
      <trkpt lat="45.99203" lon="7.12683">
        <ele>1468</ele>
        <time>2022-08-27T19:17:51Z</time>
      </trkpt>
      <trkpt lat="45.99205" lon="7.12682">
        <ele>1468</ele>
        <time>2022-08-27T19:17:52Z</time>
      </trkpt>
      <trkpt lat="45.99207" lon="7.12682">
        <ele>1468</ele>
        <time>2022-08-27T19:17:53Z</time>
      </trkpt>
      <trkpt lat="45.99208" lon="7.12681">
        <ele>1468</ele>
        <time>2022-08-27T19:17:54Z</time>
      </trkpt>
      <trkpt lat="45.99212" lon="7.1268">
        <ele>1468</ele>
        <time>2022-08-27T19:17:55Z</time>
      </trkpt>
      <trkpt lat="45.99213" lon="7.1268">
        <ele>1468</ele>
        <time>2022-08-27T19:17:56Z</time>
      </trkpt>
      <trkpt lat="45.99215" lon="7.12679">
        <ele>1467</ele>
        <time>2022-08-27T19:17:57Z</time>
      </trkpt>
      <trkpt lat="45.99217" lon="7.12679">
        <ele>1467</ele>
        <time>2022-08-27T19:17:58Z</time>
      </trkpt>
      <trkpt lat="45.9922" lon="7.12679">
        <ele>1466</ele>
        <time>2022-08-27T19:18:00Z</time>
      </trkpt>
      <trkpt lat="45.99223" lon="7.1268">
        <ele>1466</ele>
        <time>2022-08-27T19:18:02Z</time>
      </trkpt>
      <trkpt lat="45.99225" lon="7.1268">
        <ele>1466</ele>
        <time>2022-08-27T19:18:03Z</time>
      </trkpt>
      <trkpt lat="45.99229" lon="7.12679">
        <ele>1465</ele>
        <time>2022-08-27T19:18:05Z</time>
      </trkpt>
      <trkpt lat="45.9923" lon="7.12679">
        <ele>1465</ele>
        <time>2022-08-27T19:18:06Z</time>
      </trkpt>
      <trkpt lat="45.99234" lon="7.12679">
        <ele>1465</ele>
        <time>2022-08-27T19:18:08Z</time>
      </trkpt>
      <trkpt lat="45.99238" lon="7.12679">
        <ele>1464</ele>
        <time>2022-08-27T19:18:10Z</time>
      </trkpt>
      <trkpt lat="45.9924" lon="7.12678">
        <ele>1464</ele>
        <time>2022-08-27T19:18:11Z</time>
      </trkpt>
      <trkpt lat="45.99243" lon="7.12677">
        <ele>1464</ele>
        <time>2022-08-27T19:18:13Z</time>
      </trkpt>
      <trkpt lat="45.99245" lon="7.12677">
        <ele>1464</ele>
        <time>2022-08-27T19:18:14Z</time>
      </trkpt>
      <trkpt lat="45.99247" lon="7.12677">
        <ele>1464</ele>
        <time>2022-08-27T19:18:15Z</time>
      </trkpt>
      <trkpt lat="45.99251" lon="7.12677">
        <ele>1463</ele>
        <time>2022-08-27T19:18:17Z</time>
      </trkpt>
      <trkpt lat="45.99253" lon="7.12677">
        <ele>1463</ele>
        <time>2022-08-27T19:18:18Z</time>
      </trkpt>
      <trkpt lat="45.99255" lon="7.12677">
        <ele>1463</ele>
        <time>2022-08-27T19:18:19Z</time>
      </trkpt>
      <trkpt lat="45.99257" lon="7.12675">
        <ele>1463</ele>
        <time>2022-08-27T19:18:20Z</time>
      </trkpt>
      <trkpt lat="45.9926" lon="7.12673">
        <ele>1462</ele>
        <time>2022-08-27T19:18:22Z</time>
      </trkpt>
      <trkpt lat="45.99263" lon="7.12673">
        <ele>1462</ele>
        <time>2022-08-27T19:18:24Z</time>
      </trkpt>
      <trkpt lat="45.99265" lon="7.12673">
        <ele>1462</ele>
        <time>2022-08-27T19:18:26Z</time>
      </trkpt>
      <trkpt lat="45.99267" lon="7.12672">
        <ele>1462</ele>
        <time>2022-08-27T19:18:28Z</time>
      </trkpt>
      <trkpt lat="45.9927" lon="7.12672">
        <ele>1462</ele>
        <time>2022-08-27T19:18:30Z</time>
      </trkpt>
      <trkpt lat="45.99272" lon="7.12672">
        <ele>1462</ele>
        <time>2022-08-27T19:18:32Z</time>
      </trkpt>
      <trkpt lat="45.99275" lon="7.12672">
        <ele>1462</ele>
        <time>2022-08-27T19:18:34Z</time>
      </trkpt>
      <trkpt lat="45.99278" lon="7.12672">
        <ele>1461</ele>
        <time>2022-08-27T19:18:36Z</time>
      </trkpt>
      <trkpt lat="45.99281" lon="7.12672">
        <ele>1461</ele>
        <time>2022-08-27T19:18:38Z</time>
      </trkpt>
      <trkpt lat="45.99285" lon="7.12672">
        <ele>1461</ele>
        <time>2022-08-27T19:18:40Z</time>
      </trkpt>
      <trkpt lat="45.99288" lon="7.12671">
        <ele>1461</ele>
        <time>2022-08-27T19:18:42Z</time>
      </trkpt>
      <trkpt lat="45.99291" lon="7.12671">
        <ele>1461</ele>
        <time>2022-08-27T19:18:44Z</time>
      </trkpt>
      <trkpt lat="45.99293" lon="7.12672">
        <ele>1461</ele>
        <time>2022-08-27T19:18:45Z</time>
      </trkpt>
      <trkpt lat="45.99295" lon="7.12672">
        <ele>1461</ele>
        <time>2022-08-27T19:18:48Z</time>
      </trkpt>
      <trkpt lat="45.99299" lon="7.12674">
        <ele>1461</ele>
        <time>2022-08-27T19:18:50Z</time>
      </trkpt>
      <trkpt lat="45.993" lon="7.12674">
        <ele>1461</ele>
        <time>2022-08-27T19:18:51Z</time>
      </trkpt>
      <trkpt lat="45.99303" lon="7.12675">
        <ele>1461</ele>
        <time>2022-08-27T19:18:52Z</time>
      </trkpt>
      <trkpt lat="45.99304" lon="7.12675">
        <ele>1461</ele>
        <time>2022-08-27T19:18:53Z</time>
      </trkpt>
      <trkpt lat="45.99306" lon="7.12675">
        <ele>1461</ele>
        <time>2022-08-27T19:18:54Z</time>
      </trkpt>
      <trkpt lat="45.99308" lon="7.12676">
        <ele>1461</ele>
        <time>2022-08-27T19:18:55Z</time>
      </trkpt>
      <trkpt lat="45.9931" lon="7.12677">
        <ele>1461</ele>
        <time>2022-08-27T19:18:56Z</time>
      </trkpt>
      <trkpt lat="45.99314" lon="7.12678">
        <ele>1461</ele>
        <time>2022-08-27T19:18:57Z</time>
      </trkpt>
      <trkpt lat="45.99317" lon="7.1268">
        <ele>1461</ele>
        <time>2022-08-27T19:18:59Z</time>
      </trkpt>
      <trkpt lat="45.99319" lon="7.12681">
        <ele>1461</ele>
        <time>2022-08-27T19:19:00Z</time>
      </trkpt>
      <trkpt lat="45.99321" lon="7.12682">
        <ele>1460</ele>
        <time>2022-08-27T19:19:01Z</time>
      </trkpt>
      <trkpt lat="45.99323" lon="7.12683">
        <ele>1460</ele>
        <time>2022-08-27T19:19:02Z</time>
      </trkpt>
      <trkpt lat="45.99325" lon="7.12684">
        <ele>1460</ele>
        <time>2022-08-27T19:19:03Z</time>
      </trkpt>
      <trkpt lat="45.99328" lon="7.12686">
        <ele>1460</ele>
        <time>2022-08-27T19:19:05Z</time>
      </trkpt>
      <trkpt lat="45.9933" lon="7.12687">
        <ele>1460</ele>
        <time>2022-08-27T19:19:06Z</time>
      </trkpt>
      <trkpt lat="45.99332" lon="7.12688">
        <ele>1460</ele>
        <time>2022-08-27T19:19:07Z</time>
      </trkpt>
      <trkpt lat="45.99333" lon="7.1269">
        <ele>1460</ele>
        <time>2022-08-27T19:19:08Z</time>
      </trkpt>
      <trkpt lat="45.99335" lon="7.12691">
        <ele>1460</ele>
        <time>2022-08-27T19:19:09Z</time>
      </trkpt>
      <trkpt lat="45.99338" lon="7.12693">
        <ele>1460</ele>
        <time>2022-08-27T19:19:11Z</time>
      </trkpt>
      <trkpt lat="45.99341" lon="7.12696">
        <ele>1459</ele>
        <time>2022-08-27T19:19:13Z</time>
      </trkpt>
      <trkpt lat="45.99344" lon="7.12699">
        <ele>1458</ele>
        <time>2022-08-27T19:19:15Z</time>
      </trkpt>
      <trkpt lat="45.99347" lon="7.12701">
        <ele>1458</ele>
        <time>2022-08-27T19:19:16Z</time>
      </trkpt>
      <trkpt lat="45.99348" lon="7.12703">
        <ele>1458</ele>
        <time>2022-08-27T19:19:18Z</time>
      </trkpt>
      <trkpt lat="45.99351" lon="7.12705">
        <ele>1458</ele>
        <time>2022-08-27T19:19:20Z</time>
      </trkpt>
      <trkpt lat="45.99353" lon="7.12706">
        <ele>1458</ele>
        <time>2022-08-27T19:19:21Z</time>
      </trkpt>
      <trkpt lat="45.99355" lon="7.12707">
        <ele>1458</ele>
        <time>2022-08-27T19:19:22Z</time>
      </trkpt>
      <trkpt lat="45.99357" lon="7.12708">
        <ele>1458</ele>
        <time>2022-08-27T19:19:23Z</time>
      </trkpt>
      <trkpt lat="45.99359" lon="7.12708">
        <ele>1458</ele>
        <time>2022-08-27T19:19:24Z</time>
      </trkpt>
      <trkpt lat="45.99362" lon="7.12709">
        <ele>1458</ele>
        <time>2022-08-27T19:19:26Z</time>
      </trkpt>
      <trkpt lat="45.99364" lon="7.12711">
        <ele>1457</ele>
        <time>2022-08-27T19:19:28Z</time>
      </trkpt>
      <trkpt lat="45.99366" lon="7.12711">
        <ele>1457</ele>
        <time>2022-08-27T19:19:30Z</time>
      </trkpt>
      <trkpt lat="45.99369" lon="7.12712">
        <ele>1457</ele>
        <time>2022-08-27T19:19:32Z</time>
      </trkpt>
      <trkpt lat="45.99371" lon="7.12713">
        <ele>1457</ele>
        <time>2022-08-27T19:19:34Z</time>
      </trkpt>
      <trkpt lat="45.99373" lon="7.12713">
        <ele>1456</ele>
        <time>2022-08-27T19:19:36Z</time>
      </trkpt>
      <trkpt lat="45.99376" lon="7.12713">
        <ele>1456</ele>
        <time>2022-08-27T19:19:38Z</time>
      </trkpt>
      <trkpt lat="45.99378" lon="7.12713">
        <ele>1456</ele>
        <time>2022-08-27T19:19:40Z</time>
      </trkpt>
      <trkpt lat="45.99382" lon="7.12713">
        <ele>1456</ele>
        <time>2022-08-27T19:19:42Z</time>
      </trkpt>
      <trkpt lat="45.99385" lon="7.12713">
        <ele>1455</ele>
        <time>2022-08-27T19:19:44Z</time>
      </trkpt>
      <trkpt lat="45.99388" lon="7.12714">
        <ele>1455</ele>
        <time>2022-08-27T19:19:46Z</time>
      </trkpt>
      <trkpt lat="45.9939" lon="7.12715">
        <ele>1455</ele>
        <time>2022-08-27T19:19:47Z</time>
      </trkpt>
      <trkpt lat="45.99393" lon="7.12716">
        <ele>1455</ele>
        <time>2022-08-27T19:19:50Z</time>
      </trkpt>
      <trkpt lat="45.99395" lon="7.12716">
        <ele>1454</ele>
        <time>2022-08-27T19:19:52Z</time>
      </trkpt>
      <trkpt lat="45.99397" lon="7.12717">
        <ele>1454</ele>
        <time>2022-08-27T19:19:54Z</time>
      </trkpt>
      <trkpt lat="45.994" lon="7.12717">
        <ele>1454</ele>
        <time>2022-08-27T19:19:56Z</time>
      </trkpt>
      <trkpt lat="45.99404" lon="7.12718">
        <ele>1454</ele>
        <time>2022-08-27T19:19:58Z</time>
      </trkpt>
      <trkpt lat="45.99406" lon="7.12718">
        <ele>1454</ele>
        <time>2022-08-27T19:19:59Z</time>
      </trkpt>
      <trkpt lat="45.99408" lon="7.12719">
        <ele>1454</ele>
        <time>2022-08-27T19:20:00Z</time>
      </trkpt>
      <trkpt lat="45.9941" lon="7.1272">
        <ele>1454</ele>
        <time>2022-08-27T19:20:01Z</time>
      </trkpt>
      <trkpt lat="45.99411" lon="7.1272">
        <ele>1454</ele>
        <time>2022-08-27T19:20:02Z</time>
      </trkpt>
      <trkpt lat="45.99413" lon="7.12721">
        <ele>1453</ele>
        <time>2022-08-27T19:20:03Z</time>
      </trkpt>
      <trkpt lat="45.99415" lon="7.12723">
        <ele>1453</ele>
        <time>2022-08-27T19:20:04Z</time>
      </trkpt>
      <trkpt lat="45.99417" lon="7.12724">
        <ele>1453</ele>
        <time>2022-08-27T19:20:05Z</time>
      </trkpt>
      <trkpt lat="45.99419" lon="7.12726">
        <ele>1453</ele>
        <time>2022-08-27T19:20:06Z</time>
      </trkpt>
      <trkpt lat="45.99421" lon="7.12728">
        <ele>1453</ele>
        <time>2022-08-27T19:20:08Z</time>
      </trkpt>
      <trkpt lat="45.99423" lon="7.1273">
        <ele>1452</ele>
        <time>2022-08-27T19:20:09Z</time>
      </trkpt>
      <trkpt lat="45.99424" lon="7.1273">
        <ele>1452</ele>
        <time>2022-08-27T19:20:10Z</time>
      </trkpt>
      <trkpt lat="45.99426" lon="7.12731">
        <ele>1452</ele>
        <time>2022-08-27T19:20:11Z</time>
      </trkpt>
      <trkpt lat="45.99427" lon="7.12731">
        <ele>1452</ele>
        <time>2022-08-27T19:20:13Z</time>
      </trkpt>
      <trkpt lat="45.99428" lon="7.12732">
        <ele>1452</ele>
        <time>2022-08-27T19:20:14Z</time>
      </trkpt>
      <trkpt lat="45.99435" lon="7.12737">
        <ele>1452</ele>
        <time>2022-08-27T19:20:15Z</time>
      </trkpt>
      <trkpt lat="45.99437" lon="7.12739">
        <ele>1452</ele>
        <time>2022-08-27T19:20:16Z</time>
      </trkpt>
      <trkpt lat="45.99438" lon="7.12742">
        <ele>1452</ele>
        <time>2022-08-27T19:20:17Z</time>
      </trkpt>
      <trkpt lat="45.9944" lon="7.12744">
        <ele>1452</ele>
        <time>2022-08-27T19:20:18Z</time>
      </trkpt>
      <trkpt lat="45.99441" lon="7.12746">
        <ele>1452</ele>
        <time>2022-08-27T19:20:19Z</time>
      </trkpt>
      <trkpt lat="45.99442" lon="7.12748">
        <ele>1452</ele>
        <time>2022-08-27T19:20:20Z</time>
      </trkpt>
      <trkpt lat="45.99444" lon="7.1275">
        <ele>1452</ele>
        <time>2022-08-27T19:20:21Z</time>
      </trkpt>
      <trkpt lat="45.99445" lon="7.12753">
        <ele>1452</ele>
        <time>2022-08-27T19:20:22Z</time>
      </trkpt>
      <trkpt lat="45.99446" lon="7.12755">
        <ele>1452</ele>
        <time>2022-08-27T19:20:23Z</time>
      </trkpt>
      <trkpt lat="45.99448" lon="7.12756">
        <ele>1452</ele>
        <time>2022-08-27T19:20:24Z</time>
      </trkpt>
      <trkpt lat="45.9945" lon="7.12758">
        <ele>1452</ele>
        <time>2022-08-27T19:20:25Z</time>
      </trkpt>
      <trkpt lat="45.99452" lon="7.1276">
        <ele>1452</ele>
        <time>2022-08-27T19:20:26Z</time>
      </trkpt>
      <trkpt lat="45.99454" lon="7.12761">
        <ele>1451</ele>
        <time>2022-08-27T19:20:28Z</time>
      </trkpt>
      <trkpt lat="45.99456" lon="7.12763">
        <ele>1451</ele>
        <time>2022-08-27T19:20:29Z</time>
      </trkpt>
      <trkpt lat="45.99457" lon="7.12764">
        <ele>1450</ele>
        <time>2022-08-27T19:20:30Z</time>
      </trkpt>
      <trkpt lat="45.99459" lon="7.12765">
        <ele>1450</ele>
        <time>2022-08-27T19:20:31Z</time>
      </trkpt>
      <trkpt lat="45.99461" lon="7.12766">
        <ele>1450</ele>
        <time>2022-08-27T19:20:32Z</time>
      </trkpt>
      <trkpt lat="45.99463" lon="7.12768">
        <ele>1450</ele>
        <time>2022-08-27T19:20:33Z</time>
      </trkpt>
      <trkpt lat="45.99464" lon="7.12769">
        <ele>1450</ele>
        <time>2022-08-27T19:20:34Z</time>
      </trkpt>
      <trkpt lat="45.99475" lon="7.12774">
        <ele>1450</ele>
        <time>2022-08-27T19:20:39Z</time>
      </trkpt>
      <trkpt lat="45.99475" lon="7.12774">
        <ele>1450</ele>
        <time>2022-08-27T19:20:41Z</time>
      </trkpt>
      <trkpt lat="45.99476" lon="7.12774">
        <ele>1450</ele>
        <time>2022-08-27T19:20:42Z</time>
      </trkpt>
      <trkpt lat="45.99477" lon="7.12775">
        <ele>1450</ele>
        <time>2022-08-27T19:20:43Z</time>
      </trkpt>
      <trkpt lat="45.99478" lon="7.12775">
        <ele>1450</ele>
        <time>2022-08-27T19:20:44Z</time>
      </trkpt>
      <trkpt lat="45.99487" lon="7.12778">
        <ele>1450</ele>
        <time>2022-08-27T19:20:46Z</time>
      </trkpt>
      <trkpt lat="45.99489" lon="7.12778">
        <ele>1449</ele>
        <time>2022-08-27T19:20:47Z</time>
      </trkpt>
      <trkpt lat="45.99492" lon="7.12778">
        <ele>1449</ele>
        <time>2022-08-27T19:20:48Z</time>
      </trkpt>
      <trkpt lat="45.99494" lon="7.12778">
        <ele>1449</ele>
        <time>2022-08-27T19:20:49Z</time>
      </trkpt>
      <trkpt lat="45.99496" lon="7.12778">
        <ele>1449</ele>
        <time>2022-08-27T19:20:51Z</time>
      </trkpt>
      <trkpt lat="45.99497" lon="7.12779">
        <ele>1449</ele>
        <time>2022-08-27T19:20:52Z</time>
      </trkpt>
      <trkpt lat="45.99499" lon="7.12779">
        <ele>1449</ele>
        <time>2022-08-27T19:20:53Z</time>
      </trkpt>
      <trkpt lat="45.995" lon="7.12779">
        <ele>1448</ele>
        <time>2022-08-27T19:20:54Z</time>
      </trkpt>
      <trkpt lat="45.99502" lon="7.1278">
        <ele>1448</ele>
        <time>2022-08-27T19:20:55Z</time>
      </trkpt>
      <trkpt lat="45.99503" lon="7.1278">
        <ele>1448</ele>
        <time>2022-08-27T19:20:56Z</time>
      </trkpt>
      <trkpt lat="45.99506" lon="7.12778">
        <ele>1448</ele>
        <time>2022-08-27T19:21:03Z</time>
      </trkpt>
      <trkpt lat="45.99508" lon="7.12778">
        <ele>1448</ele>
        <time>2022-08-27T19:21:04Z</time>
      </trkpt>
      <trkpt lat="45.9951" lon="7.1278">
        <ele>1448</ele>
        <time>2022-08-27T19:21:07Z</time>
      </trkpt>
      <trkpt lat="45.99513" lon="7.12781">
        <ele>1448</ele>
        <time>2022-08-27T19:21:09Z</time>
      </trkpt>
      <trkpt lat="45.99517" lon="7.12784">
        <ele>1448</ele>
        <time>2022-08-27T19:21:12Z</time>
      </trkpt>
      <trkpt lat="45.99519" lon="7.12785">
        <ele>1448</ele>
        <time>2022-08-27T19:21:14Z</time>
      </trkpt>
      <trkpt lat="45.99521" lon="7.12788">
        <ele>1447</ele>
        <time>2022-08-27T19:21:16Z</time>
      </trkpt>
      <trkpt lat="45.99522" lon="7.1279">
        <ele>1447</ele>
        <time>2022-08-27T19:21:18Z</time>
      </trkpt>
      <trkpt lat="45.99524" lon="7.12793">
        <ele>1447</ele>
        <time>2022-08-27T19:21:20Z</time>
      </trkpt>
      <trkpt lat="45.99525" lon="7.12796">
        <ele>1447</ele>
        <time>2022-08-27T19:21:22Z</time>
      </trkpt>
      <trkpt lat="45.99526" lon="7.12799">
        <ele>1447</ele>
        <time>2022-08-27T19:21:24Z</time>
      </trkpt>
      <trkpt lat="45.99527" lon="7.12802">
        <ele>1447</ele>
        <time>2022-08-27T19:21:26Z</time>
      </trkpt>
      <trkpt lat="45.99529" lon="7.12802">
        <ele>1447</ele>
        <time>2022-08-27T19:21:28Z</time>
      </trkpt>
      <trkpt lat="45.99531" lon="7.12802">
        <ele>1447</ele>
        <time>2022-08-27T19:21:29Z</time>
      </trkpt>
      <trkpt lat="45.99533" lon="7.12802">
        <ele>1447</ele>
        <time>2022-08-27T19:21:30Z</time>
      </trkpt>
      <trkpt lat="45.99534" lon="7.12803">
        <ele>1447</ele>
        <time>2022-08-27T19:21:32Z</time>
      </trkpt>
      <trkpt lat="45.99536" lon="7.12803">
        <ele>1447</ele>
        <time>2022-08-27T19:21:33Z</time>
      </trkpt>
      <trkpt lat="45.99538" lon="7.12803">
        <ele>1447</ele>
        <time>2022-08-27T19:21:34Z</time>
      </trkpt>
      <trkpt lat="45.99539" lon="7.12804">
        <ele>1447</ele>
        <time>2022-08-27T19:21:35Z</time>
      </trkpt>
      <trkpt lat="45.99541" lon="7.12804">
        <ele>1447</ele>
        <time>2022-08-27T19:21:37Z</time>
      </trkpt>
      <trkpt lat="45.99542" lon="7.12805">
        <ele>1447</ele>
        <time>2022-08-27T19:21:38Z</time>
      </trkpt>
      <trkpt lat="45.99543" lon="7.12806">
        <ele>1447</ele>
        <time>2022-08-27T19:21:39Z</time>
      </trkpt>
      <trkpt lat="45.99545" lon="7.12806">
        <ele>1447</ele>
        <time>2022-08-27T19:21:40Z</time>
      </trkpt>
      <trkpt lat="45.99546" lon="7.12807">
        <ele>1447</ele>
        <time>2022-08-27T19:21:41Z</time>
      </trkpt>
      <trkpt lat="45.99547" lon="7.12808">
        <ele>1447</ele>
        <time>2022-08-27T19:21:42Z</time>
      </trkpt>
      <trkpt lat="45.99549" lon="7.12808">
        <ele>1447</ele>
        <time>2022-08-27T19:21:44Z</time>
      </trkpt>
      <trkpt lat="45.99551" lon="7.12809">
        <ele>1447</ele>
        <time>2022-08-27T19:21:45Z</time>
      </trkpt>
      <trkpt lat="45.99553" lon="7.12809">
        <ele>1446</ele>
        <time>2022-08-27T19:21:46Z</time>
      </trkpt>
      <trkpt lat="45.99555" lon="7.1281">
        <ele>1446</ele>
        <time>2022-08-27T19:21:48Z</time>
      </trkpt>
      <trkpt lat="45.99557" lon="7.1281">
        <ele>1446</ele>
        <time>2022-08-27T19:21:49Z</time>
      </trkpt>
      <trkpt lat="45.99559" lon="7.1281">
        <ele>1446</ele>
        <time>2022-08-27T19:21:50Z</time>
      </trkpt>
      <trkpt lat="45.99561" lon="7.1281">
        <ele>1446</ele>
        <time>2022-08-27T19:21:51Z</time>
      </trkpt>
      <trkpt lat="45.99563" lon="7.12809">
        <ele>1446</ele>
        <time>2022-08-27T19:21:53Z</time>
      </trkpt>
      <trkpt lat="45.99566" lon="7.12809">
        <ele>1446</ele>
        <time>2022-08-27T19:21:54Z</time>
      </trkpt>
      <trkpt lat="45.99568" lon="7.12809">
        <ele>1446</ele>
        <time>2022-08-27T19:21:55Z</time>
      </trkpt>
      <trkpt lat="45.99571" lon="7.12809">
        <ele>1446</ele>
        <time>2022-08-27T19:21:56Z</time>
      </trkpt>
      <trkpt lat="45.99573" lon="7.1281">
        <ele>1446</ele>
        <time>2022-08-27T19:21:58Z</time>
      </trkpt>
      <trkpt lat="45.99575" lon="7.1281">
        <ele>1446</ele>
        <time>2022-08-27T19:21:59Z</time>
      </trkpt>
      <trkpt lat="45.99585" lon="7.1281">
        <ele>1446</ele>
        <time>2022-08-27T19:22:05Z</time>
      </trkpt>
      <trkpt lat="45.99586" lon="7.1281">
        <ele>1446</ele>
        <time>2022-08-27T19:22:06Z</time>
      </trkpt>
      <trkpt lat="45.99588" lon="7.1281">
        <ele>1445</ele>
        <time>2022-08-27T19:22:07Z</time>
      </trkpt>
      <trkpt lat="45.99589" lon="7.1281">
        <ele>1445</ele>
        <time>2022-08-27T19:22:08Z</time>
      </trkpt>
      <trkpt lat="45.9959" lon="7.1281">
        <ele>1445</ele>
        <time>2022-08-27T19:22:10Z</time>
      </trkpt>
      <trkpt lat="45.99592" lon="7.12809">
        <ele>1445</ele>
        <time>2022-08-27T19:22:11Z</time>
      </trkpt>
      <trkpt lat="45.99593" lon="7.12809">
        <ele>1445</ele>
        <time>2022-08-27T19:22:12Z</time>
      </trkpt>
      <trkpt lat="45.99594" lon="7.12809">
        <ele>1444</ele>
        <time>2022-08-27T19:22:13Z</time>
      </trkpt>
      <trkpt lat="45.99597" lon="7.1281">
        <ele>1444</ele>
        <time>2022-08-27T19:22:14Z</time>
      </trkpt>
      <trkpt lat="45.99598" lon="7.1281">
        <ele>1444</ele>
        <time>2022-08-27T19:22:15Z</time>
      </trkpt>
      <trkpt lat="45.99599" lon="7.1281">
        <ele>1444</ele>
        <time>2022-08-27T19:22:16Z</time>
      </trkpt>
      <trkpt lat="45.99601" lon="7.1281">
        <ele>1444</ele>
        <time>2022-08-27T19:22:18Z</time>
      </trkpt>
      <trkpt lat="45.99602" lon="7.1281">
        <ele>1444</ele>
        <time>2022-08-27T19:22:19Z</time>
      </trkpt>
      <trkpt lat="45.99604" lon="7.1281">
        <ele>1444</ele>
        <time>2022-08-27T19:22:20Z</time>
      </trkpt>
      <trkpt lat="45.99605" lon="7.1281">
        <ele>1444</ele>
        <time>2022-08-27T19:22:21Z</time>
      </trkpt>
      <trkpt lat="45.99606" lon="7.1281">
        <ele>1444</ele>
        <time>2022-08-27T19:22:22Z</time>
      </trkpt>
      <trkpt lat="45.99609" lon="7.1281">
        <ele>1444</ele>
        <time>2022-08-27T19:22:24Z</time>
      </trkpt>
      <trkpt lat="45.99611" lon="7.12811">
        <ele>1444</ele>
        <time>2022-08-27T19:22:25Z</time>
      </trkpt>
      <trkpt lat="45.99613" lon="7.12812">
        <ele>1444</ele>
        <time>2022-08-27T19:22:26Z</time>
      </trkpt>
      <trkpt lat="45.99615" lon="7.12813">
        <ele>1444</ele>
        <time>2022-08-27T19:22:27Z</time>
      </trkpt>
      <trkpt lat="45.99616" lon="7.12814">
        <ele>1444</ele>
        <time>2022-08-27T19:22:29Z</time>
      </trkpt>
      <trkpt lat="45.99618" lon="7.12815">
        <ele>1444</ele>
        <time>2022-08-27T19:22:30Z</time>
      </trkpt>
      <trkpt lat="45.99619" lon="7.12816">
        <ele>1444</ele>
        <time>2022-08-27T19:22:31Z</time>
      </trkpt>
      <trkpt lat="45.9962" lon="7.12818">
        <ele>1444</ele>
        <time>2022-08-27T19:22:32Z</time>
      </trkpt>
      <trkpt lat="45.99622" lon="7.12819">
        <ele>1444</ele>
        <time>2022-08-27T19:22:33Z</time>
      </trkpt>
      <trkpt lat="45.99623" lon="7.1282">
        <ele>1443</ele>
        <time>2022-08-27T19:22:34Z</time>
      </trkpt>
      <trkpt lat="45.99625" lon="7.1282">
        <ele>1443</ele>
        <time>2022-08-27T19:22:36Z</time>
      </trkpt>
      <trkpt lat="45.99626" lon="7.12821">
        <ele>1443</ele>
        <time>2022-08-27T19:22:37Z</time>
      </trkpt>
      <trkpt lat="45.99628" lon="7.12821">
        <ele>1443</ele>
        <time>2022-08-27T19:22:38Z</time>
      </trkpt>
      <trkpt lat="45.9963" lon="7.12821">
        <ele>1443</ele>
        <time>2022-08-27T19:22:39Z</time>
      </trkpt>
      <trkpt lat="45.99631" lon="7.12821">
        <ele>1443</ele>
        <time>2022-08-27T19:22:40Z</time>
      </trkpt>
      <trkpt lat="45.99633" lon="7.12821">
        <ele>1443</ele>
        <time>2022-08-27T19:22:41Z</time>
      </trkpt>
      <trkpt lat="45.99635" lon="7.12821">
        <ele>1443</ele>
        <time>2022-08-27T19:22:42Z</time>
      </trkpt>
      <trkpt lat="45.99636" lon="7.12821">
        <ele>1443</ele>
        <time>2022-08-27T19:22:43Z</time>
      </trkpt>
      <trkpt lat="45.99638" lon="7.1282">
        <ele>1443</ele>
        <time>2022-08-27T19:22:44Z</time>
      </trkpt>
      <trkpt lat="45.9964" lon="7.1282">
        <ele>1443</ele>
        <time>2022-08-27T19:22:45Z</time>
      </trkpt>
      <trkpt lat="45.99642" lon="7.12819">
        <ele>1443</ele>
        <time>2022-08-27T19:22:46Z</time>
      </trkpt>
      <trkpt lat="45.99644" lon="7.12819">
        <ele>1443</ele>
        <time>2022-08-27T19:22:47Z</time>
      </trkpt>
      <trkpt lat="45.99646" lon="7.12819">
        <ele>1443</ele>
        <time>2022-08-27T19:22:49Z</time>
      </trkpt>
      <trkpt lat="45.99647" lon="7.12818">
        <ele>1443</ele>
        <time>2022-08-27T19:22:50Z</time>
      </trkpt>
      <trkpt lat="45.99649" lon="7.12818">
        <ele>1443</ele>
        <time>2022-08-27T19:22:51Z</time>
      </trkpt>
      <trkpt lat="45.99651" lon="7.12818">
        <ele>1443</ele>
        <time>2022-08-27T19:22:52Z</time>
      </trkpt>
      <trkpt lat="45.99653" lon="7.12818">
        <ele>1443</ele>
        <time>2022-08-27T19:22:54Z</time>
      </trkpt>
      <trkpt lat="45.99655" lon="7.12819">
        <ele>1443</ele>
        <time>2022-08-27T19:22:56Z</time>
      </trkpt>
      <trkpt lat="45.99657" lon="7.12819">
        <ele>1443</ele>
        <time>2022-08-27T19:22:57Z</time>
      </trkpt>
      <trkpt lat="45.99659" lon="7.1282">
        <ele>1443</ele>
        <time>2022-08-27T19:22:59Z</time>
      </trkpt>
      <trkpt lat="45.99661" lon="7.1282">
        <ele>1443</ele>
        <time>2022-08-27T19:23:00Z</time>
      </trkpt>
      <trkpt lat="45.99662" lon="7.1282">
        <ele>1443</ele>
        <time>2022-08-27T19:23:02Z</time>
      </trkpt>
      <trkpt lat="45.99664" lon="7.12821">
        <ele>1443</ele>
        <time>2022-08-27T19:23:03Z</time>
      </trkpt>
      <trkpt lat="45.99665" lon="7.12821">
        <ele>1443</ele>
        <time>2022-08-27T19:23:04Z</time>
      </trkpt>
      <trkpt lat="45.99667" lon="7.12821">
        <ele>1443</ele>
        <time>2022-08-27T19:23:05Z</time>
      </trkpt>
      <trkpt lat="45.99669" lon="7.12821">
        <ele>1443</ele>
        <time>2022-08-27T19:23:06Z</time>
      </trkpt>
      <trkpt lat="45.9967" lon="7.12821">
        <ele>1443</ele>
        <time>2022-08-27T19:23:07Z</time>
      </trkpt>
      <trkpt lat="45.99672" lon="7.12821">
        <ele>1443</ele>
        <time>2022-08-27T19:23:08Z</time>
      </trkpt>
      <trkpt lat="45.99674" lon="7.12821">
        <ele>1443</ele>
        <time>2022-08-27T19:23:09Z</time>
      </trkpt>
      <trkpt lat="45.99676" lon="7.12821">
        <ele>1443</ele>
        <time>2022-08-27T19:23:10Z</time>
      </trkpt>
      <trkpt lat="45.99678" lon="7.12821">
        <ele>1443</ele>
        <time>2022-08-27T19:23:12Z</time>
      </trkpt>
      <trkpt lat="45.9968" lon="7.12821">
        <ele>1443</ele>
        <time>2022-08-27T19:23:13Z</time>
      </trkpt>
      <trkpt lat="45.99681" lon="7.12822">
        <ele>1443</ele>
        <time>2022-08-27T19:23:14Z</time>
      </trkpt>
      <trkpt lat="45.99683" lon="7.12822">
        <ele>1443</ele>
        <time>2022-08-27T19:23:15Z</time>
      </trkpt>
      <trkpt lat="45.99684" lon="7.12822">
        <ele>1443</ele>
        <time>2022-08-27T19:23:16Z</time>
      </trkpt>
      <trkpt lat="45.99685" lon="7.12823">
        <ele>1443</ele>
        <time>2022-08-27T19:23:18Z</time>
      </trkpt>
      <trkpt lat="45.99686" lon="7.12823">
        <ele>1443</ele>
        <time>2022-08-27T19:23:19Z</time>
      </trkpt>
      <trkpt lat="45.99688" lon="7.12824">
        <ele>1443</ele>
        <time>2022-08-27T19:23:20Z</time>
      </trkpt>
      <trkpt lat="45.99689" lon="7.12824">
        <ele>1443</ele>
        <time>2022-08-27T19:23:21Z</time>
      </trkpt>
      <trkpt lat="45.9969" lon="7.12825">
        <ele>1443</ele>
        <time>2022-08-27T19:23:22Z</time>
      </trkpt>
      <trkpt lat="45.99692" lon="7.12825">
        <ele>1443</ele>
        <time>2022-08-27T19:23:23Z</time>
      </trkpt>
      <trkpt lat="45.99694" lon="7.12825">
        <ele>1443</ele>
        <time>2022-08-27T19:23:24Z</time>
      </trkpt>
      <trkpt lat="45.99696" lon="7.12825">
        <ele>1443</ele>
        <time>2022-08-27T19:23:25Z</time>
      </trkpt>
      <trkpt lat="45.99698" lon="7.12825">
        <ele>1443</ele>
        <time>2022-08-27T19:23:27Z</time>
      </trkpt>
      <trkpt lat="45.99699" lon="7.12826">
        <ele>1443</ele>
        <time>2022-08-27T19:23:28Z</time>
      </trkpt>
      <trkpt lat="45.99701" lon="7.12826">
        <ele>1443</ele>
        <time>2022-08-27T19:23:29Z</time>
      </trkpt>
      <trkpt lat="45.99703" lon="7.12826">
        <ele>1443</ele>
        <time>2022-08-27T19:23:30Z</time>
      </trkpt>
      <trkpt lat="45.99705" lon="7.12826">
        <ele>1444</ele>
        <time>2022-08-27T19:23:32Z</time>
      </trkpt>
      <trkpt lat="45.99707" lon="7.12826">
        <ele>1444</ele>
        <time>2022-08-27T19:23:33Z</time>
      </trkpt>
      <trkpt lat="45.99709" lon="7.12827">
        <ele>1444</ele>
        <time>2022-08-27T19:23:34Z</time>
      </trkpt>
      <trkpt lat="45.9971" lon="7.12826">
        <ele>1444</ele>
        <time>2022-08-27T19:23:35Z</time>
      </trkpt>
      <trkpt lat="45.99711" lon="7.12826">
        <ele>1444</ele>
        <time>2022-08-27T19:23:37Z</time>
      </trkpt>
      <trkpt lat="45.99713" lon="7.12826">
        <ele>1444</ele>
        <time>2022-08-27T19:23:38Z</time>
      </trkpt>
      <trkpt lat="45.99714" lon="7.12826">
        <ele>1444</ele>
        <time>2022-08-27T19:23:39Z</time>
      </trkpt>
      <trkpt lat="45.99715" lon="7.12826">
        <ele>1444</ele>
        <time>2022-08-27T19:23:40Z</time>
      </trkpt>
      <trkpt lat="45.99717" lon="7.12826">
        <ele>1444</ele>
        <time>2022-08-27T19:23:41Z</time>
      </trkpt>
      <trkpt lat="45.99718" lon="7.12826">
        <ele>1445</ele>
        <time>2022-08-27T19:23:42Z</time>
      </trkpt>
      <trkpt lat="45.9972" lon="7.12826">
        <ele>1445</ele>
        <time>2022-08-27T19:23:43Z</time>
      </trkpt>
      <trkpt lat="45.99722" lon="7.12826">
        <ele>1445</ele>
        <time>2022-08-27T19:23:44Z</time>
      </trkpt>
      <trkpt lat="45.99724" lon="7.12826">
        <ele>1445</ele>
        <time>2022-08-27T19:23:45Z</time>
      </trkpt>
      <trkpt lat="45.99726" lon="7.12827">
        <ele>1445</ele>
        <time>2022-08-27T19:23:47Z</time>
      </trkpt>
      <trkpt lat="45.99728" lon="7.12827">
        <ele>1445</ele>
        <time>2022-08-27T19:23:48Z</time>
      </trkpt>
      <trkpt lat="45.99729" lon="7.12827">
        <ele>1446</ele>
        <time>2022-08-27T19:23:49Z</time>
      </trkpt>
      <trkpt lat="45.99731" lon="7.12827">
        <ele>1446</ele>
        <time>2022-08-27T19:23:50Z</time>
      </trkpt>
      <trkpt lat="45.99732" lon="7.12827">
        <ele>1447</ele>
        <time>2022-08-27T19:23:52Z</time>
      </trkpt>
      <trkpt lat="45.99733" lon="7.12827">
        <ele>1447</ele>
        <time>2022-08-27T19:23:53Z</time>
      </trkpt>
      <trkpt lat="45.99734" lon="7.12827">
        <ele>1447</ele>
        <time>2022-08-27T19:23:54Z</time>
      </trkpt>
      <trkpt lat="45.99736" lon="7.12827">
        <ele>1447</ele>
        <time>2022-08-27T19:23:55Z</time>
      </trkpt>
      <trkpt lat="45.99737" lon="7.12827">
        <ele>1447</ele>
        <time>2022-08-27T19:23:56Z</time>
      </trkpt>
      <trkpt lat="45.99739" lon="7.12826">
        <ele>1447</ele>
        <time>2022-08-27T19:23:57Z</time>
      </trkpt>
      <trkpt lat="45.99741" lon="7.12825">
        <ele>1447</ele>
        <time>2022-08-27T19:23:58Z</time>
      </trkpt>
      <trkpt lat="45.99742" lon="7.12825">
        <ele>1447</ele>
        <time>2022-08-27T19:23:59Z</time>
      </trkpt>
      <trkpt lat="45.99744" lon="7.12824">
        <ele>1447</ele>
        <time>2022-08-27T19:24:01Z</time>
      </trkpt>
      <trkpt lat="45.99746" lon="7.12823">
        <ele>1447</ele>
        <time>2022-08-27T19:24:02Z</time>
      </trkpt>
      <trkpt lat="45.99748" lon="7.12823">
        <ele>1448</ele>
        <time>2022-08-27T19:24:03Z</time>
      </trkpt>
      <trkpt lat="45.99749" lon="7.12823">
        <ele>1448</ele>
        <time>2022-08-27T19:24:04Z</time>
      </trkpt>
      <trkpt lat="45.9975" lon="7.12822">
        <ele>1448</ele>
        <time>2022-08-27T19:24:06Z</time>
      </trkpt>
      <trkpt lat="45.99752" lon="7.12822">
        <ele>1448</ele>
        <time>2022-08-27T19:24:07Z</time>
      </trkpt>
      <trkpt lat="45.99753" lon="7.12821">
        <ele>1448</ele>
        <time>2022-08-27T19:24:08Z</time>
      </trkpt>
      <trkpt lat="45.99755" lon="7.12821">
        <ele>1449</ele>
        <time>2022-08-27T19:24:09Z</time>
      </trkpt>
      <trkpt lat="45.99756" lon="7.12821">
        <ele>1449</ele>
        <time>2022-08-27T19:24:11Z</time>
      </trkpt>
      <trkpt lat="45.99758" lon="7.1282">
        <ele>1449</ele>
        <time>2022-08-27T19:24:12Z</time>
      </trkpt>
      <trkpt lat="45.99759" lon="7.1282">
        <ele>1449</ele>
        <time>2022-08-27T19:24:13Z</time>
      </trkpt>
      <trkpt lat="45.9976" lon="7.12819">
        <ele>1449</ele>
        <time>2022-08-27T19:24:14Z</time>
      </trkpt>
      <trkpt lat="45.99761" lon="7.12819">
        <ele>1449</ele>
        <time>2022-08-27T19:24:15Z</time>
      </trkpt>
      <trkpt lat="45.99763" lon="7.12818">
        <ele>1449</ele>
        <time>2022-08-27T19:24:16Z</time>
      </trkpt>
      <trkpt lat="45.99765" lon="7.12816">
        <ele>1449</ele>
        <time>2022-08-27T19:24:17Z</time>
      </trkpt>
      <trkpt lat="45.99768" lon="7.12815">
        <ele>1450</ele>
        <time>2022-08-27T19:24:19Z</time>
      </trkpt>
      <trkpt lat="45.9977" lon="7.12814">
        <ele>1450</ele>
        <time>2022-08-27T19:24:21Z</time>
      </trkpt>
      <trkpt lat="45.99773" lon="7.12813">
        <ele>1450</ele>
        <time>2022-08-27T19:24:23Z</time>
      </trkpt>
      <trkpt lat="45.99776" lon="7.12812">
        <ele>1450</ele>
        <time>2022-08-27T19:24:25Z</time>
      </trkpt>
      <trkpt lat="45.99778" lon="7.12811">
        <ele>1450</ele>
        <time>2022-08-27T19:24:27Z</time>
      </trkpt>
      <trkpt lat="45.99781" lon="7.12809">
        <ele>1450</ele>
        <time>2022-08-27T19:24:29Z</time>
      </trkpt>
      <trkpt lat="45.99783" lon="7.12808">
        <ele>1450</ele>
        <time>2022-08-27T19:24:30Z</time>
      </trkpt>
      <trkpt lat="45.99786" lon="7.12807">
        <ele>1451</ele>
        <time>2022-08-27T19:24:33Z</time>
      </trkpt>
      <trkpt lat="45.99789" lon="7.12805">
        <ele>1451</ele>
        <time>2022-08-27T19:24:35Z</time>
      </trkpt>
      <trkpt lat="45.99792" lon="7.12805">
        <ele>1450</ele>
        <time>2022-08-27T19:24:37Z</time>
      </trkpt>
      <trkpt lat="45.99795" lon="7.12804">
        <ele>1450</ele>
        <time>2022-08-27T19:24:39Z</time>
      </trkpt>
      <trkpt lat="45.99798" lon="7.12805">
        <ele>1450</ele>
        <time>2022-08-27T19:24:41Z</time>
      </trkpt>
      <trkpt lat="45.99799" lon="7.12806">
        <ele>1450</ele>
        <time>2022-08-27T19:24:42Z</time>
      </trkpt>
      <trkpt lat="45.998" lon="7.12808">
        <ele>1450</ele>
        <time>2022-08-27T19:24:43Z</time>
      </trkpt>
      <trkpt lat="45.99801" lon="7.12809">
        <ele>1450</ele>
        <time>2022-08-27T19:24:44Z</time>
      </trkpt>
      <trkpt lat="45.99803" lon="7.12811">
        <ele>1450</ele>
        <time>2022-08-27T19:24:45Z</time>
      </trkpt>
      <trkpt lat="45.99805" lon="7.12816">
        <ele>1450</ele>
        <time>2022-08-27T19:24:46Z</time>
      </trkpt>
      <trkpt lat="45.99807" lon="7.1282">
        <ele>1450</ele>
        <time>2022-08-27T19:24:48Z</time>
      </trkpt>
      <trkpt lat="45.99808" lon="7.12821">
        <ele>1450</ele>
        <time>2022-08-27T19:24:49Z</time>
      </trkpt>
      <trkpt lat="45.99809" lon="7.12824">
        <ele>1450</ele>
        <time>2022-08-27T19:24:50Z</time>
      </trkpt>
      <trkpt lat="45.9981" lon="7.12826">
        <ele>1450</ele>
        <time>2022-08-27T19:24:51Z</time>
      </trkpt>
      <trkpt lat="45.99812" lon="7.12828">
        <ele>1449</ele>
        <time>2022-08-27T19:24:52Z</time>
      </trkpt>
      <trkpt lat="45.99815" lon="7.1283">
        <ele>1449</ele>
        <time>2022-08-27T19:24:53Z</time>
      </trkpt>
      <trkpt lat="45.99816" lon="7.12831">
        <ele>1449</ele>
        <time>2022-08-27T19:24:54Z</time>
      </trkpt>
      <trkpt lat="45.99817" lon="7.12831">
        <ele>1449</ele>
        <time>2022-08-27T19:24:55Z</time>
      </trkpt>
      <trkpt lat="45.99819" lon="7.12831">
        <ele>1449</ele>
        <time>2022-08-27T19:24:56Z</time>
      </trkpt>
      <trkpt lat="45.99822" lon="7.12829">
        <ele>1449</ele>
        <time>2022-08-27T19:24:58Z</time>
      </trkpt>
      <trkpt lat="45.99823" lon="7.12824">
        <ele>1449</ele>
        <time>2022-08-27T19:25:00Z</time>
      </trkpt>
      <trkpt lat="45.99825" lon="7.12821">
        <ele>1449</ele>
        <time>2022-08-27T19:25:02Z</time>
      </trkpt>
      <trkpt lat="45.99826" lon="7.12818">
        <ele>1449</ele>
        <time>2022-08-27T19:25:03Z</time>
      </trkpt>
      <trkpt lat="45.99828" lon="7.12813">
        <ele>1449</ele>
        <time>2022-08-27T19:25:06Z</time>
      </trkpt>
      <trkpt lat="45.99829" lon="7.1281">
        <ele>1449</ele>
        <time>2022-08-27T19:25:08Z</time>
      </trkpt>
      <trkpt lat="45.99829" lon="7.12807">
        <ele>1449</ele>
        <time>2022-08-27T19:25:10Z</time>
      </trkpt>
      <trkpt lat="45.9983" lon="7.12804">
        <ele>1449</ele>
        <time>2022-08-27T19:25:13Z</time>
      </trkpt>
      <trkpt lat="45.99832" lon="7.12801">
        <ele>1449</ele>
        <time>2022-08-27T19:25:14Z</time>
      </trkpt>
      <trkpt lat="45.99833" lon="7.12797">
        <ele>1449</ele>
        <time>2022-08-27T19:25:16Z</time>
      </trkpt>
      <trkpt lat="45.99836" lon="7.12796">
        <ele>1449</ele>
        <time>2022-08-27T19:25:18Z</time>
      </trkpt>
      <trkpt lat="45.99838" lon="7.12794">
        <ele>1449</ele>
        <time>2022-08-27T19:25:20Z</time>
      </trkpt>
      <trkpt lat="45.9984" lon="7.12791">
        <ele>1449</ele>
        <time>2022-08-27T19:25:22Z</time>
      </trkpt>
      <trkpt lat="45.99843" lon="7.1279">
        <ele>1449</ele>
        <time>2022-08-27T19:25:24Z</time>
      </trkpt>
      <trkpt lat="45.99845" lon="7.12791">
        <ele>1449</ele>
        <time>2022-08-27T19:25:26Z</time>
      </trkpt>
      <trkpt lat="45.99848" lon="7.12792">
        <ele>1449</ele>
        <time>2022-08-27T19:25:28Z</time>
      </trkpt>
      <trkpt lat="45.9985" lon="7.12792">
        <ele>1449</ele>
        <time>2022-08-27T19:25:30Z</time>
      </trkpt>
      <trkpt lat="45.99853" lon="7.12792">
        <ele>1449</ele>
        <time>2022-08-27T19:25:32Z</time>
      </trkpt>
      <trkpt lat="45.99856" lon="7.12792">
        <ele>1449</ele>
        <time>2022-08-27T19:25:34Z</time>
      </trkpt>
      <trkpt lat="45.99859" lon="7.12792">
        <ele>1449</ele>
        <time>2022-08-27T19:25:36Z</time>
      </trkpt>
      <trkpt lat="45.99864" lon="7.12793">
        <ele>1449</ele>
        <time>2022-08-27T19:25:38Z</time>
      </trkpt>
      <trkpt lat="45.99867" lon="7.12793">
        <ele>1449</ele>
        <time>2022-08-27T19:25:40Z</time>
      </trkpt>
      <trkpt lat="45.99868" lon="7.12793">
        <ele>1448</ele>
        <time>2022-08-27T19:25:41Z</time>
      </trkpt>
      <trkpt lat="45.9987" lon="7.12793">
        <ele>1448</ele>
        <time>2022-08-27T19:25:42Z</time>
      </trkpt>
      <trkpt lat="45.99873" lon="7.12793">
        <ele>1448</ele>
        <time>2022-08-27T19:25:43Z</time>
      </trkpt>
      <trkpt lat="45.99875" lon="7.12792">
        <ele>1448</ele>
        <time>2022-08-27T19:25:44Z</time>
      </trkpt>
      <trkpt lat="45.99877" lon="7.12792">
        <ele>1448</ele>
        <time>2022-08-27T19:25:45Z</time>
      </trkpt>
      <trkpt lat="45.99879" lon="7.12792">
        <ele>1447</ele>
        <time>2022-08-27T19:25:46Z</time>
      </trkpt>
      <trkpt lat="45.99881" lon="7.12792">
        <ele>1447</ele>
        <time>2022-08-27T19:25:47Z</time>
      </trkpt>
      <trkpt lat="45.99883" lon="7.12792">
        <ele>1447</ele>
        <time>2022-08-27T19:25:48Z</time>
      </trkpt>
      <trkpt lat="45.99885" lon="7.12791">
        <ele>1447</ele>
        <time>2022-08-27T19:25:49Z</time>
      </trkpt>
      <trkpt lat="45.99887" lon="7.12791">
        <ele>1447</ele>
        <time>2022-08-27T19:25:50Z</time>
      </trkpt>
      <trkpt lat="45.99889" lon="7.12791">
        <ele>1447</ele>
        <time>2022-08-27T19:25:51Z</time>
      </trkpt>
      <trkpt lat="45.99892" lon="7.1279">
        <ele>1447</ele>
        <time>2022-08-27T19:25:52Z</time>
      </trkpt>
      <trkpt lat="45.99893" lon="7.1279">
        <ele>1446</ele>
        <time>2022-08-27T19:25:53Z</time>
      </trkpt>
      <trkpt lat="45.99895" lon="7.1279">
        <ele>1446</ele>
        <time>2022-08-27T19:25:54Z</time>
      </trkpt>
      <trkpt lat="45.99898" lon="7.12791">
        <ele>1446</ele>
        <time>2022-08-27T19:25:56Z</time>
      </trkpt>
      <trkpt lat="45.999" lon="7.12791">
        <ele>1446</ele>
        <time>2022-08-27T19:25:57Z</time>
      </trkpt>
      <trkpt lat="45.99902" lon="7.12793">
        <ele>1446</ele>
        <time>2022-08-27T19:25:59Z</time>
      </trkpt>
      <trkpt lat="45.99906" lon="7.12793">
        <ele>1446</ele>
        <time>2022-08-27T19:26:01Z</time>
      </trkpt>
      <trkpt lat="45.9991" lon="7.12794">
        <ele>1445</ele>
        <time>2022-08-27T19:26:03Z</time>
      </trkpt>
      <trkpt lat="45.99911" lon="7.12795">
        <ele>1445</ele>
        <time>2022-08-27T19:26:04Z</time>
      </trkpt>
      <trkpt lat="45.99912" lon="7.12795">
        <ele>1445</ele>
        <time>2022-08-27T19:26:05Z</time>
      </trkpt>
      <trkpt lat="45.99913" lon="7.12796">
        <ele>1445</ele>
        <time>2022-08-27T19:26:06Z</time>
      </trkpt>
      <trkpt lat="45.99915" lon="7.12797">
        <ele>1444</ele>
        <time>2022-08-27T19:26:07Z</time>
      </trkpt>
      <trkpt lat="45.99918" lon="7.12798">
        <ele>1444</ele>
        <time>2022-08-27T19:26:09Z</time>
      </trkpt>
      <trkpt lat="45.99921" lon="7.128">
        <ele>1444</ele>
        <time>2022-08-27T19:26:11Z</time>
      </trkpt>
      <trkpt lat="45.99924" lon="7.12801">
        <ele>1444</ele>
        <time>2022-08-27T19:26:13Z</time>
      </trkpt>
      <trkpt lat="45.99928" lon="7.12803">
        <ele>1443</ele>
        <time>2022-08-27T19:26:15Z</time>
      </trkpt>
      <trkpt lat="45.99931" lon="7.12805">
        <ele>1442</ele>
        <time>2022-08-27T19:26:17Z</time>
      </trkpt>
      <trkpt lat="45.99933" lon="7.12807">
        <ele>1442</ele>
        <time>2022-08-27T19:26:18Z</time>
      </trkpt>
      <trkpt lat="45.99934" lon="7.12808">
        <ele>1442</ele>
        <time>2022-08-27T19:26:19Z</time>
      </trkpt>
      <trkpt lat="45.99937" lon="7.12811">
        <ele>1441</ele>
        <time>2022-08-27T19:26:21Z</time>
      </trkpt>
      <trkpt lat="45.99939" lon="7.12812">
        <ele>1441</ele>
        <time>2022-08-27T19:26:22Z</time>
      </trkpt>
      <trkpt lat="45.99942" lon="7.12814">
        <ele>1440</ele>
        <time>2022-08-27T19:26:24Z</time>
      </trkpt>
      <trkpt lat="45.99944" lon="7.12815">
        <ele>1439</ele>
        <time>2022-08-27T19:26:25Z</time>
      </trkpt>
      <trkpt lat="45.99946" lon="7.12816">
        <ele>1439</ele>
        <time>2022-08-27T19:26:26Z</time>
      </trkpt>
      <trkpt lat="45.99947" lon="7.12818">
        <ele>1439</ele>
        <time>2022-08-27T19:26:27Z</time>
      </trkpt>
      <trkpt lat="45.99949" lon="7.12819">
        <ele>1439</ele>
        <time>2022-08-27T19:26:28Z</time>
      </trkpt>
      <trkpt lat="45.99951" lon="7.1282">
        <ele>1439</ele>
        <time>2022-08-27T19:26:29Z</time>
      </trkpt>
      <trkpt lat="45.99952" lon="7.12821">
        <ele>1439</ele>
        <time>2022-08-27T19:26:30Z</time>
      </trkpt>
      <trkpt lat="45.99955" lon="7.12824">
        <ele>1437</ele>
        <time>2022-08-27T19:26:32Z</time>
      </trkpt>
      <trkpt lat="45.99958" lon="7.12826">
        <ele>1437</ele>
        <time>2022-08-27T19:26:34Z</time>
      </trkpt>
      <trkpt lat="45.9996" lon="7.12828">
        <ele>1437</ele>
        <time>2022-08-27T19:26:35Z</time>
      </trkpt>
      <trkpt lat="45.99962" lon="7.12829">
        <ele>1436</ele>
        <time>2022-08-27T19:26:36Z</time>
      </trkpt>
      <trkpt lat="45.99965" lon="7.12831">
        <ele>1436</ele>
        <time>2022-08-27T19:26:37Z</time>
      </trkpt>
      <trkpt lat="45.99966" lon="7.12832">
        <ele>1436</ele>
        <time>2022-08-27T19:26:38Z</time>
      </trkpt>
      <trkpt lat="45.99968" lon="7.12832">
        <ele>1436</ele>
        <time>2022-08-27T19:26:39Z</time>
      </trkpt>
      <trkpt lat="45.99971" lon="7.12834">
        <ele>1435</ele>
        <time>2022-08-27T19:26:41Z</time>
      </trkpt>
      <trkpt lat="45.99974" lon="7.12835">
        <ele>1435</ele>
        <time>2022-08-27T19:26:42Z</time>
      </trkpt>
      <trkpt lat="45.99975" lon="7.12836">
        <ele>1435</ele>
        <time>2022-08-27T19:26:43Z</time>
      </trkpt>
      <trkpt lat="45.99977" lon="7.12837">
        <ele>1435</ele>
        <time>2022-08-27T19:26:44Z</time>
      </trkpt>
      <trkpt lat="45.99979" lon="7.12837">
        <ele>1435</ele>
        <time>2022-08-27T19:26:45Z</time>
      </trkpt>
      <trkpt lat="45.99981" lon="7.12837">
        <ele>1435</ele>
        <time>2022-08-27T19:26:46Z</time>
      </trkpt>
      <trkpt lat="45.99982" lon="7.12837">
        <ele>1435</ele>
        <time>2022-08-27T19:26:47Z</time>
      </trkpt>
      <trkpt lat="45.99984" lon="7.12837">
        <ele>1435</ele>
        <time>2022-08-27T19:26:48Z</time>
      </trkpt>
      <trkpt lat="45.99988" lon="7.12835">
        <ele>1435</ele>
        <time>2022-08-27T19:26:49Z</time>
      </trkpt>
      <trkpt lat="45.99989" lon="7.12834">
        <ele>1433</ele>
        <time>2022-08-27T19:26:50Z</time>
      </trkpt>
      <trkpt lat="45.99991" lon="7.12834">
        <ele>1433</ele>
        <time>2022-08-27T19:26:51Z</time>
      </trkpt>
      <trkpt lat="45.99994" lon="7.12832">
        <ele>1433</ele>
        <time>2022-08-27T19:26:53Z</time>
      </trkpt>
      <trkpt lat="45.99996" lon="7.12831">
        <ele>1433</ele>
        <time>2022-08-27T19:26:54Z</time>
      </trkpt>
      <trkpt lat="45.99998" lon="7.1283">
        <ele>1433</ele>
        <time>2022-08-27T19:26:55Z</time>
      </trkpt>
      <trkpt lat="46" lon="7.12829">
        <ele>1433</ele>
        <time>2022-08-27T19:26:56Z</time>
      </trkpt>
      <trkpt lat="46.00003" lon="7.12828">
        <ele>1433</ele>
        <time>2022-08-27T19:26:57Z</time>
      </trkpt>
      <trkpt lat="46.00004" lon="7.12828">
        <ele>1432</ele>
        <time>2022-08-27T19:26:58Z</time>
      </trkpt>
      <trkpt lat="46.00007" lon="7.12825">
        <ele>1432</ele>
        <time>2022-08-27T19:27:00Z</time>
      </trkpt>
      <trkpt lat="46.00009" lon="7.12824">
        <ele>1431</ele>
        <time>2022-08-27T19:27:02Z</time>
      </trkpt>
      <trkpt lat="46.00012" lon="7.12822">
        <ele>1430</ele>
        <time>2022-08-27T19:27:04Z</time>
      </trkpt>
      <trkpt lat="46.00013" lon="7.12822">
        <ele>1430</ele>
        <time>2022-08-27T19:27:06Z</time>
      </trkpt>
      <trkpt lat="46.00023" lon="7.12817">
        <ele>1430</ele>
        <time>2022-08-27T19:27:14Z</time>
      </trkpt>
      <trkpt lat="46.00025" lon="7.12817">
        <ele>1430</ele>
        <time>2022-08-27T19:27:16Z</time>
      </trkpt>
      <trkpt lat="46.00026" lon="7.12817">
        <ele>1430</ele>
        <time>2022-08-27T19:27:17Z</time>
      </trkpt>
      <trkpt lat="46.00027" lon="7.12817">
        <ele>1430</ele>
        <time>2022-08-27T19:27:18Z</time>
      </trkpt>
      <trkpt lat="46.00028" lon="7.12817">
        <ele>1430</ele>
        <time>2022-08-27T19:27:20Z</time>
      </trkpt>
      <trkpt lat="46.0003" lon="7.12817">
        <ele>1430</ele>
        <time>2022-08-27T19:27:21Z</time>
      </trkpt>
      <trkpt lat="46.00031" lon="7.12817">
        <ele>1430</ele>
        <time>2022-08-27T19:27:22Z</time>
      </trkpt>
      <trkpt lat="46.00032" lon="7.12817">
        <ele>1430</ele>
        <time>2022-08-27T19:27:23Z</time>
      </trkpt>
      <trkpt lat="46.00033" lon="7.12817">
        <ele>1429</ele>
        <time>2022-08-27T19:27:24Z</time>
      </trkpt>
      <trkpt lat="46.00035" lon="7.12817">
        <ele>1429</ele>
        <time>2022-08-27T19:27:26Z</time>
      </trkpt>
      <trkpt lat="46.00037" lon="7.12817">
        <ele>1429</ele>
        <time>2022-08-27T19:27:27Z</time>
      </trkpt>
      <trkpt lat="46.00039" lon="7.12817">
        <ele>1429</ele>
        <time>2022-08-27T19:27:28Z</time>
      </trkpt>
      <trkpt lat="46.00042" lon="7.12817">
        <ele>1429</ele>
        <time>2022-08-27T19:27:29Z</time>
      </trkpt>
      <trkpt lat="46.00044" lon="7.12817">
        <ele>1429</ele>
        <time>2022-08-27T19:27:30Z</time>
      </trkpt>
      <trkpt lat="46.00046" lon="7.12817">
        <ele>1429</ele>
        <time>2022-08-27T19:27:31Z</time>
      </trkpt>
      <trkpt lat="46.00047" lon="7.12817">
        <ele>1428</ele>
        <time>2022-08-27T19:27:32Z</time>
      </trkpt>
      <trkpt lat="46.00048" lon="7.12817">
        <ele>1428</ele>
        <time>2022-08-27T19:27:33Z</time>
      </trkpt>
      <trkpt lat="46.00049" lon="7.12817">
        <ele>1428</ele>
        <time>2022-08-27T19:27:34Z</time>
      </trkpt>
      <trkpt lat="46.0005" lon="7.12817">
        <ele>1428</ele>
        <time>2022-08-27T19:27:35Z</time>
      </trkpt>
      <trkpt lat="46.00052" lon="7.12816">
        <ele>1428</ele>
        <time>2022-08-27T19:27:36Z</time>
      </trkpt>
      <trkpt lat="46.00055" lon="7.12815">
        <ele>1428</ele>
        <time>2022-08-27T19:27:38Z</time>
      </trkpt>
      <trkpt lat="46.00057" lon="7.12814">
        <ele>1428</ele>
        <time>2022-08-27T19:27:40Z</time>
      </trkpt>
      <trkpt lat="46.00059" lon="7.12812">
        <ele>1428</ele>
        <time>2022-08-27T19:27:42Z</time>
      </trkpt>
      <trkpt lat="46.00061" lon="7.1281">
        <ele>1428</ele>
        <time>2022-08-27T19:27:44Z</time>
      </trkpt>
      <trkpt lat="46.00064" lon="7.12807">
        <ele>1428</ele>
        <time>2022-08-27T19:27:46Z</time>
      </trkpt>
      <trkpt lat="46.00065" lon="7.12805">
        <ele>1427</ele>
        <time>2022-08-27T19:27:47Z</time>
      </trkpt>
      <trkpt lat="46.00067" lon="7.12802">
        <ele>1427</ele>
        <time>2022-08-27T19:27:49Z</time>
      </trkpt>
      <trkpt lat="46.00069" lon="7.12801">
        <ele>1427</ele>
        <time>2022-08-27T19:27:51Z</time>
      </trkpt>
      <trkpt lat="46.0007" lon="7.12799">
        <ele>1426</ele>
        <time>2022-08-27T19:27:52Z</time>
      </trkpt>
      <trkpt lat="46.00072" lon="7.12797">
        <ele>1426</ele>
        <time>2022-08-27T19:27:53Z</time>
      </trkpt>
      <trkpt lat="46.00073" lon="7.12796">
        <ele>1426</ele>
        <time>2022-08-27T19:27:54Z</time>
      </trkpt>
      <trkpt lat="46.00074" lon="7.12794">
        <ele>1425</ele>
        <time>2022-08-27T19:27:55Z</time>
      </trkpt>
      <trkpt lat="46.00084" lon="7.12788">
        <ele>1423</ele>
        <time>2022-08-27T19:28:00Z</time>
      </trkpt>
      <trkpt lat="46.00085" lon="7.12786">
        <ele>1423</ele>
        <time>2022-08-27T19:28:01Z</time>
      </trkpt>
      <trkpt lat="46.00087" lon="7.12785">
        <ele>1423</ele>
        <time>2022-08-27T19:28:02Z</time>
      </trkpt>
      <trkpt lat="46.00088" lon="7.12783">
        <ele>1422</ele>
        <time>2022-08-27T19:28:04Z</time>
      </trkpt>
      <trkpt lat="46.0009" lon="7.12782">
        <ele>1422</ele>
        <time>2022-08-27T19:28:06Z</time>
      </trkpt>
      <trkpt lat="46.00092" lon="7.1278">
        <ele>1421</ele>
        <time>2022-08-27T19:28:07Z</time>
      </trkpt>
      <trkpt lat="46.00093" lon="7.12779">
        <ele>1421</ele>
        <time>2022-08-27T19:28:08Z</time>
      </trkpt>
      <trkpt lat="46.00095" lon="7.12777">
        <ele>1421</ele>
        <time>2022-08-27T19:28:09Z</time>
      </trkpt>
      <trkpt lat="46.00096" lon="7.12776">
        <ele>1421</ele>
        <time>2022-08-27T19:28:10Z</time>
      </trkpt>
      <trkpt lat="46.00098" lon="7.12774">
        <ele>1421</ele>
        <time>2022-08-27T19:28:11Z</time>
      </trkpt>
      <trkpt lat="46.001" lon="7.12773">
        <ele>1420</ele>
        <time>2022-08-27T19:28:12Z</time>
      </trkpt>
      <trkpt lat="46.00101" lon="7.12772">
        <ele>1420</ele>
        <time>2022-08-27T19:28:13Z</time>
      </trkpt>
      <trkpt lat="46.00103" lon="7.12771">
        <ele>1420</ele>
        <time>2022-08-27T19:28:14Z</time>
      </trkpt>
      <trkpt lat="46.00105" lon="7.1277">
        <ele>1420</ele>
        <time>2022-08-27T19:28:15Z</time>
      </trkpt>
      <trkpt lat="46.00107" lon="7.12769">
        <ele>1419</ele>
        <time>2022-08-27T19:28:17Z</time>
      </trkpt>
      <trkpt lat="46.00109" lon="7.12768">
        <ele>1419</ele>
        <time>2022-08-27T19:28:18Z</time>
      </trkpt>
      <trkpt lat="46.00111" lon="7.12767">
        <ele>1419</ele>
        <time>2022-08-27T19:28:19Z</time>
      </trkpt>
      <trkpt lat="46.00112" lon="7.12765">
        <ele>1419</ele>
        <time>2022-08-27T19:28:20Z</time>
      </trkpt>
      <trkpt lat="46.00114" lon="7.12764">
        <ele>1419</ele>
        <time>2022-08-27T19:28:22Z</time>
      </trkpt>
      <trkpt lat="46.00116" lon="7.12763">
        <ele>1419</ele>
        <time>2022-08-27T19:28:23Z</time>
      </trkpt>
      <trkpt lat="46.00118" lon="7.12761">
        <ele>1419</ele>
        <time>2022-08-27T19:28:24Z</time>
      </trkpt>
      <trkpt lat="46.00119" lon="7.12761">
        <ele>1419</ele>
        <time>2022-08-27T19:28:25Z</time>
      </trkpt>
      <trkpt lat="46.0012" lon="7.12761">
        <ele>1418</ele>
        <time>2022-08-27T19:28:27Z</time>
      </trkpt>
      <trkpt lat="46.00122" lon="7.1276">
        <ele>1417</ele>
        <time>2022-08-27T19:28:28Z</time>
      </trkpt>
      <trkpt lat="46.00123" lon="7.1276">
        <ele>1417</ele>
        <time>2022-08-27T19:28:29Z</time>
      </trkpt>
      <trkpt lat="46.00125" lon="7.1276">
        <ele>1417</ele>
        <time>2022-08-27T19:28:30Z</time>
      </trkpt>
      <trkpt lat="46.00126" lon="7.1276">
        <ele>1417</ele>
        <time>2022-08-27T19:28:31Z</time>
      </trkpt>
      <trkpt lat="46.00127" lon="7.12759">
        <ele>1416</ele>
        <time>2022-08-27T19:28:32Z</time>
      </trkpt>
      <trkpt lat="46.00136" lon="7.12753">
        <ele>1415</ele>
        <time>2022-08-27T19:28:37Z</time>
      </trkpt>
      <trkpt lat="46.00138" lon="7.12752">
        <ele>1415</ele>
        <time>2022-08-27T19:28:38Z</time>
      </trkpt>
      <trkpt lat="46.00139" lon="7.12752">
        <ele>1414</ele>
        <time>2022-08-27T19:28:39Z</time>
      </trkpt>
      <trkpt lat="46.0014" lon="7.12751">
        <ele>1414</ele>
        <time>2022-08-27T19:28:40Z</time>
      </trkpt>
      <trkpt lat="46.00142" lon="7.1275">
        <ele>1414</ele>
        <time>2022-08-27T19:28:42Z</time>
      </trkpt>
      <trkpt lat="46.00143" lon="7.12749">
        <ele>1413</ele>
        <time>2022-08-27T19:28:44Z</time>
      </trkpt>
      <trkpt lat="46.00144" lon="7.12749">
        <ele>1413</ele>
        <time>2022-08-27T19:28:45Z</time>
      </trkpt>
      <trkpt lat="46.00146" lon="7.12748">
        <ele>1413</ele>
        <time>2022-08-27T19:28:46Z</time>
      </trkpt>
      <trkpt lat="46.00148" lon="7.12747">
        <ele>1412</ele>
        <time>2022-08-27T19:28:48Z</time>
      </trkpt>
      <trkpt lat="46.00146" lon="7.12745">
        <ele>1411</ele>
        <time>2022-08-27T19:28:51Z</time>
      </trkpt>
      <trkpt lat="46.00147" lon="7.12742">
        <ele>1410</ele>
        <time>2022-08-27T19:28:54Z</time>
      </trkpt>
      <trkpt lat="46.0015" lon="7.1274">
        <ele>1409</ele>
        <time>2022-08-27T19:28:56Z</time>
      </trkpt>
      <trkpt lat="46.00153" lon="7.12738">
        <ele>1409</ele>
        <time>2022-08-27T19:28:58Z</time>
      </trkpt>
      <trkpt lat="46.00156" lon="7.12738">
        <ele>1408</ele>
        <time>2022-08-27T19:29:00Z</time>
      </trkpt>
      <trkpt lat="46.00158" lon="7.12738">
        <ele>1408</ele>
        <time>2022-08-27T19:29:02Z</time>
      </trkpt>
      <trkpt lat="46.00161" lon="7.12738">
        <ele>1407</ele>
        <time>2022-08-27T19:29:04Z</time>
      </trkpt>
      <trkpt lat="46.00164" lon="7.12737">
        <ele>1407</ele>
        <time>2022-08-27T19:29:06Z</time>
      </trkpt>
      <trkpt lat="46.00167" lon="7.12736">
        <ele>1407</ele>
        <time>2022-08-27T19:29:07Z</time>
      </trkpt>
      <trkpt lat="46.0017" lon="7.12735">
        <ele>1407</ele>
        <time>2022-08-27T19:29:10Z</time>
      </trkpt>
      <trkpt lat="46.00172" lon="7.12734">
        <ele>1407</ele>
        <time>2022-08-27T19:29:12Z</time>
      </trkpt>
      <trkpt lat="46.00175" lon="7.12732">
        <ele>1407</ele>
        <time>2022-08-27T19:29:14Z</time>
      </trkpt>
      <trkpt lat="46.00178" lon="7.1273">
        <ele>1407</ele>
        <time>2022-08-27T19:29:16Z</time>
      </trkpt>
      <trkpt lat="46.00181" lon="7.12728">
        <ele>1407</ele>
        <time>2022-08-27T19:29:18Z</time>
      </trkpt>
      <trkpt lat="46.00184" lon="7.12726">
        <ele>1407</ele>
        <time>2022-08-27T19:29:20Z</time>
      </trkpt>
      <trkpt lat="46.00186" lon="7.12725">
        <ele>1406</ele>
        <time>2022-08-27T19:29:21Z</time>
      </trkpt>
      <trkpt lat="46.00188" lon="7.12723">
        <ele>1406</ele>
        <time>2022-08-27T19:29:24Z</time>
      </trkpt>
      <trkpt lat="46.00191" lon="7.12721">
        <ele>1406</ele>
        <time>2022-08-27T19:29:26Z</time>
      </trkpt>
      <trkpt lat="46.00193" lon="7.12721">
        <ele>1406</ele>
        <time>2022-08-27T19:29:28Z</time>
      </trkpt>
      <trkpt lat="46.00196" lon="7.12719">
        <ele>1406</ele>
        <time>2022-08-27T19:29:30Z</time>
      </trkpt>
      <trkpt lat="46.00198" lon="7.12716">
        <ele>1406</ele>
        <time>2022-08-27T19:29:32Z</time>
      </trkpt>
      <trkpt lat="46.00205" lon="7.12707">
        <ele>1405</ele>
        <time>2022-08-27T19:29:39Z</time>
      </trkpt>
      <trkpt lat="46.00207" lon="7.12705">
        <ele>1403</ele>
        <time>2022-08-27T19:29:41Z</time>
      </trkpt>
      <trkpt lat="46.0021" lon="7.12703">
        <ele>1403</ele>
        <time>2022-08-27T19:29:43Z</time>
      </trkpt>
      <trkpt lat="46.00211" lon="7.12702">
        <ele>1403</ele>
        <time>2022-08-27T19:29:44Z</time>
      </trkpt>
      <trkpt lat="46.00212" lon="7.12701">
        <ele>1403</ele>
        <time>2022-08-27T19:29:45Z</time>
      </trkpt>
      <trkpt lat="46.00214" lon="7.127">
        <ele>1403</ele>
        <time>2022-08-27T19:29:46Z</time>
      </trkpt>
      <trkpt lat="46.00216" lon="7.12698">
        <ele>1403</ele>
        <time>2022-08-27T19:29:47Z</time>
      </trkpt>
      <trkpt lat="46.00217" lon="7.12698">
        <ele>1403</ele>
        <time>2022-08-27T19:29:48Z</time>
      </trkpt>
      <trkpt lat="46.00219" lon="7.12698">
        <ele>1402</ele>
        <time>2022-08-27T19:29:49Z</time>
      </trkpt>
      <trkpt lat="46.00221" lon="7.12697">
        <ele>1402</ele>
        <time>2022-08-27T19:29:50Z</time>
      </trkpt>
      <trkpt lat="46.00223" lon="7.12695">
        <ele>1402</ele>
        <time>2022-08-27T19:29:51Z</time>
      </trkpt>
      <trkpt lat="46.00225" lon="7.12695">
        <ele>1402</ele>
        <time>2022-08-27T19:29:52Z</time>
      </trkpt>
      <trkpt lat="46.00227" lon="7.12695">
        <ele>1402</ele>
        <time>2022-08-27T19:29:53Z</time>
      </trkpt>
      <trkpt lat="46.00231" lon="7.12692">
        <ele>1401</ele>
        <time>2022-08-27T19:29:55Z</time>
      </trkpt>
      <trkpt lat="46.00233" lon="7.12691">
        <ele>1401</ele>
        <time>2022-08-27T19:29:56Z</time>
      </trkpt>
      <trkpt lat="46.00241" lon="7.12681">
        <ele>1398</ele>
        <time>2022-08-27T19:30:02Z</time>
      </trkpt>
      <trkpt lat="46.00242" lon="7.12679">
        <ele>1398</ele>
        <time>2022-08-27T19:30:03Z</time>
      </trkpt>
      <trkpt lat="46.00244" lon="7.12676">
        <ele>1397</ele>
        <time>2022-08-27T19:30:04Z</time>
      </trkpt>
      <trkpt lat="46.00245" lon="7.12674">
        <ele>1397</ele>
        <time>2022-08-27T19:30:05Z</time>
      </trkpt>
      <trkpt lat="46.00247" lon="7.12671">
        <ele>1397</ele>
        <time>2022-08-27T19:30:06Z</time>
      </trkpt>
      <trkpt lat="46.00248" lon="7.12669">
        <ele>1397</ele>
        <time>2022-08-27T19:30:07Z</time>
      </trkpt>
      <trkpt lat="46.00249" lon="7.12667">
        <ele>1397</ele>
        <time>2022-08-27T19:30:08Z</time>
      </trkpt>
      <trkpt lat="46.0025" lon="7.12665">
        <ele>1397</ele>
        <time>2022-08-27T19:30:10Z</time>
      </trkpt>
      <trkpt lat="46.00252" lon="7.12663">
        <ele>1396</ele>
        <time>2022-08-27T19:30:11Z</time>
      </trkpt>
      <trkpt lat="46.00253" lon="7.12661">
        <ele>1396</ele>
        <time>2022-08-27T19:30:12Z</time>
      </trkpt>
      <trkpt lat="46.00255" lon="7.12652">
        <ele>1395</ele>
        <time>2022-08-27T19:30:17Z</time>
      </trkpt>
      <trkpt lat="46.00257" lon="7.12649">
        <ele>1394</ele>
        <time>2022-08-27T19:30:19Z</time>
      </trkpt>
      <trkpt lat="46.00257" lon="7.12647">
        <ele>1394</ele>
        <time>2022-08-27T19:30:21Z</time>
      </trkpt>
      <trkpt lat="46.00258" lon="7.12645">
        <ele>1394</ele>
        <time>2022-08-27T19:30:22Z</time>
      </trkpt>
      <trkpt lat="46.00258" lon="7.12643">
        <ele>1394</ele>
        <time>2022-08-27T19:30:23Z</time>
      </trkpt>
      <trkpt lat="46.00258" lon="7.12641">
        <ele>1394</ele>
        <time>2022-08-27T19:30:24Z</time>
      </trkpt>
      <trkpt lat="46.00258" lon="7.12637">
        <ele>1393</ele>
        <time>2022-08-27T19:30:25Z</time>
      </trkpt>
      <trkpt lat="46.00259" lon="7.12633">
        <ele>1393</ele>
        <time>2022-08-27T19:30:27Z</time>
      </trkpt>
      <trkpt lat="46.00259" lon="7.12631">
        <ele>1393</ele>
        <time>2022-08-27T19:30:29Z</time>
      </trkpt>
      <trkpt lat="46.00259" lon="7.12628">
        <ele>1393</ele>
        <time>2022-08-27T19:30:30Z</time>
      </trkpt>
      <trkpt lat="46.00258" lon="7.12626">
        <ele>1393</ele>
        <time>2022-08-27T19:30:31Z</time>
      </trkpt>
      <trkpt lat="46.00258" lon="7.12624">
        <ele>1393</ele>
        <time>2022-08-27T19:30:32Z</time>
      </trkpt>
      <trkpt lat="46.00259" lon="7.12617">
        <ele>1392</ele>
        <time>2022-08-27T19:30:36Z</time>
      </trkpt>
      <trkpt lat="46.0026" lon="7.12613">
        <ele>1392</ele>
        <time>2022-08-27T19:30:38Z</time>
      </trkpt>
      <trkpt lat="46.00261" lon="7.12609">
        <ele>1392</ele>
        <time>2022-08-27T19:30:40Z</time>
      </trkpt>
      <trkpt lat="46.00263" lon="7.12606">
        <ele>1392</ele>
        <time>2022-08-27T19:30:42Z</time>
      </trkpt>
      <trkpt lat="46.00265" lon="7.12603">
        <ele>1392</ele>
        <time>2022-08-27T19:30:44Z</time>
      </trkpt>
      <trkpt lat="46.00266" lon="7.126">
        <ele>1392</ele>
        <time>2022-08-27T19:30:46Z</time>
      </trkpt>
      <trkpt lat="46.00267" lon="7.12597">
        <ele>1392</ele>
        <time>2022-08-27T19:30:47Z</time>
      </trkpt>
      <trkpt lat="46.00267" lon="7.12595">
        <ele>1392</ele>
        <time>2022-08-27T19:30:48Z</time>
      </trkpt>
      <trkpt lat="46.00268" lon="7.12592">
        <ele>1392</ele>
        <time>2022-08-27T19:30:50Z</time>
      </trkpt>
      <trkpt lat="46.00269" lon="7.1259">
        <ele>1393</ele>
        <time>2022-08-27T19:30:51Z</time>
      </trkpt>
      <trkpt lat="46.00269" lon="7.12587">
        <ele>1393</ele>
        <time>2022-08-27T19:30:52Z</time>
      </trkpt>
      <trkpt lat="46.0027" lon="7.12585">
        <ele>1393</ele>
        <time>2022-08-27T19:30:53Z</time>
      </trkpt>
      <trkpt lat="46.0027" lon="7.12583">
        <ele>1393</ele>
        <time>2022-08-27T19:30:55Z</time>
      </trkpt>
      <trkpt lat="46.00271" lon="7.12581">
        <ele>1394</ele>
        <time>2022-08-27T19:30:57Z</time>
      </trkpt>
      <trkpt lat="46.00272" lon="7.12579">
        <ele>1394</ele>
        <time>2022-08-27T19:30:58Z</time>
      </trkpt>
      <trkpt lat="46.00272" lon="7.12577">
        <ele>1394</ele>
        <time>2022-08-27T19:30:59Z</time>
      </trkpt>
      <trkpt lat="46.00273" lon="7.12575">
        <ele>1394</ele>
        <time>2022-08-27T19:31:00Z</time>
      </trkpt>
      <trkpt lat="46.00276" lon="7.1257">
        <ele>1394</ele>
        <time>2022-08-27T19:31:02Z</time>
      </trkpt>
      <trkpt lat="46.00277" lon="7.1257">
        <ele>1394</ele>
        <time>2022-08-27T19:31:03Z</time>
      </trkpt>
      <trkpt lat="46.00279" lon="7.12569">
        <ele>1394</ele>
        <time>2022-08-27T19:31:04Z</time>
      </trkpt>
      <trkpt lat="46.00281" lon="7.12569">
        <ele>1394</ele>
        <time>2022-08-27T19:31:05Z</time>
      </trkpt>
      <trkpt lat="46.00282" lon="7.12569">
        <ele>1394</ele>
        <time>2022-08-27T19:31:07Z</time>
      </trkpt>
      <trkpt lat="46.00284" lon="7.12568">
        <ele>1394</ele>
        <time>2022-08-27T19:31:08Z</time>
      </trkpt>
      <trkpt lat="46.00286" lon="7.12568">
        <ele>1394</ele>
        <time>2022-08-27T19:31:09Z</time>
      </trkpt>
      <trkpt lat="46.00288" lon="7.12568">
        <ele>1394</ele>
        <time>2022-08-27T19:31:11Z</time>
      </trkpt>
      <trkpt lat="46.0029" lon="7.12567">
        <ele>1394</ele>
        <time>2022-08-27T19:31:13Z</time>
      </trkpt>
      <trkpt lat="46.00291" lon="7.12567">
        <ele>1394</ele>
        <time>2022-08-27T19:31:15Z</time>
      </trkpt>
      <trkpt lat="46.00293" lon="7.12566">
        <ele>1393</ele>
        <time>2022-08-27T19:31:16Z</time>
      </trkpt>
      <trkpt lat="46.00294" lon="7.12566">
        <ele>1393</ele>
        <time>2022-08-27T19:31:17Z</time>
      </trkpt>
      <trkpt lat="46.00295" lon="7.12566">
        <ele>1393</ele>
        <time>2022-08-27T19:31:19Z</time>
      </trkpt>
      <trkpt lat="46.00297" lon="7.12565">
        <ele>1393</ele>
        <time>2022-08-27T19:31:20Z</time>
      </trkpt>
      <trkpt lat="46.00298" lon="7.12565">
        <ele>1393</ele>
        <time>2022-08-27T19:31:21Z</time>
      </trkpt>
      <trkpt lat="46.00299" lon="7.12565">
        <ele>1393</ele>
        <time>2022-08-27T19:31:22Z</time>
      </trkpt>
      <trkpt lat="46.00309" lon="7.12562">
        <ele>1393</ele>
        <time>2022-08-27T19:31:29Z</time>
      </trkpt>
      <trkpt lat="46.0031" lon="7.12562">
        <ele>1392</ele>
        <time>2022-08-27T19:31:31Z</time>
      </trkpt>
      <trkpt lat="46.0031" lon="7.12561">
        <ele>1392</ele>
        <time>2022-08-27T19:31:33Z</time>
      </trkpt>
      <trkpt lat="46.00311" lon="7.1256">
        <ele>1392</ele>
        <time>2022-08-27T19:31:35Z</time>
      </trkpt>
      <trkpt lat="46.00312" lon="7.1256">
        <ele>1392</ele>
        <time>2022-08-27T19:31:37Z</time>
      </trkpt>
      <trkpt lat="46.00313" lon="7.12559">
        <ele>1392</ele>
        <time>2022-08-27T19:31:38Z</time>
      </trkpt>
      <trkpt lat="46.00313" lon="7.12558">
        <ele>1392</ele>
        <time>2022-08-27T19:31:39Z</time>
      </trkpt>
      <trkpt lat="46.00314" lon="7.12557">
        <ele>1392</ele>
        <time>2022-08-27T19:31:40Z</time>
      </trkpt>
      <trkpt lat="46.00315" lon="7.12557">
        <ele>1392</ele>
        <time>2022-08-27T19:31:41Z</time>
      </trkpt>
      <trkpt lat="46.00315" lon="7.12556">
        <ele>1392</ele>
        <time>2022-08-27T19:31:42Z</time>
      </trkpt>
      <trkpt lat="46.00316" lon="7.12555">
        <ele>1392</ele>
        <time>2022-08-27T19:31:44Z</time>
      </trkpt>
      <trkpt lat="46.00317" lon="7.12555">
        <ele>1392</ele>
        <time>2022-08-27T19:31:45Z</time>
      </trkpt>
      <trkpt lat="46.00318" lon="7.12554">
        <ele>1392</ele>
        <time>2022-08-27T19:31:46Z</time>
      </trkpt>
      <trkpt lat="46.00327" lon="7.1255">
        <ele>1392</ele>
        <time>2022-08-27T19:31:52Z</time>
      </trkpt>
      <trkpt lat="46.00328" lon="7.12549">
        <ele>1392</ele>
        <time>2022-08-27T19:31:54Z</time>
      </trkpt>
      <trkpt lat="46.00329" lon="7.12549">
        <ele>1392</ele>
        <time>2022-08-27T19:31:56Z</time>
      </trkpt>
      <trkpt lat="46.00331" lon="7.12548">
        <ele>1392</ele>
        <time>2022-08-27T19:31:57Z</time>
      </trkpt>
      <trkpt lat="46.00332" lon="7.12548">
        <ele>1392</ele>
        <time>2022-08-27T19:31:58Z</time>
      </trkpt>
      <trkpt lat="46.00333" lon="7.12547">
        <ele>1392</ele>
        <time>2022-08-27T19:31:59Z</time>
      </trkpt>
      <trkpt lat="46.00334" lon="7.12547">
        <ele>1392</ele>
        <time>2022-08-27T19:32:00Z</time>
      </trkpt>
      <trkpt lat="46.00336" lon="7.12546">
        <ele>1391</ele>
        <time>2022-08-27T19:32:01Z</time>
      </trkpt>
      <trkpt lat="46.00337" lon="7.12546">
        <ele>1391</ele>
        <time>2022-08-27T19:32:02Z</time>
      </trkpt>
      <trkpt lat="46.00339" lon="7.12546">
        <ele>1391</ele>
        <time>2022-08-27T19:32:03Z</time>
      </trkpt>
      <trkpt lat="46.0034" lon="7.12545">
        <ele>1390</ele>
        <time>2022-08-27T19:32:04Z</time>
      </trkpt>
      <trkpt lat="46.00342" lon="7.12545">
        <ele>1390</ele>
        <time>2022-08-27T19:32:06Z</time>
      </trkpt>
      <trkpt lat="46.00343" lon="7.12545">
        <ele>1390</ele>
        <time>2022-08-27T19:32:07Z</time>
      </trkpt>
      <trkpt lat="46.00345" lon="7.12545">
        <ele>1390</ele>
        <time>2022-08-27T19:32:08Z</time>
      </trkpt>
      <trkpt lat="46.00347" lon="7.12543">
        <ele>1390</ele>
        <time>2022-08-27T19:32:09Z</time>
      </trkpt>
      <trkpt lat="46.00348" lon="7.12542">
        <ele>1390</ele>
        <time>2022-08-27T19:32:11Z</time>
      </trkpt>
      <trkpt lat="46.0035" lon="7.12541">
        <ele>1390</ele>
        <time>2022-08-27T19:32:13Z</time>
      </trkpt>
      <trkpt lat="46.00351" lon="7.12539">
        <ele>1390</ele>
        <time>2022-08-27T19:32:14Z</time>
      </trkpt>
      <trkpt lat="46.00353" lon="7.12538">
        <ele>1390</ele>
        <time>2022-08-27T19:32:15Z</time>
      </trkpt>
      <trkpt lat="46.00355" lon="7.12537">
        <ele>1390</ele>
        <time>2022-08-27T19:32:18Z</time>
      </trkpt>
      <trkpt lat="46.00358" lon="7.12535">
        <ele>1390</ele>
        <time>2022-08-27T19:32:21Z</time>
      </trkpt>
      <trkpt lat="46.00361" lon="7.12533">
        <ele>1390</ele>
        <time>2022-08-27T19:32:23Z</time>
      </trkpt>
      <trkpt lat="46.00363" lon="7.12531">
        <ele>1390</ele>
        <time>2022-08-27T19:32:25Z</time>
      </trkpt>
      <trkpt lat="46.00365" lon="7.1253">
        <ele>1390</ele>
        <time>2022-08-27T19:32:26Z</time>
      </trkpt>
      <trkpt lat="46.00366" lon="7.12529">
        <ele>1390</ele>
        <time>2022-08-27T19:32:27Z</time>
      </trkpt>
      <trkpt lat="46.00368" lon="7.12528">
        <ele>1390</ele>
        <time>2022-08-27T19:32:29Z</time>
      </trkpt>
      <trkpt lat="46.0037" lon="7.12527">
        <ele>1390</ele>
        <time>2022-08-27T19:32:30Z</time>
      </trkpt>
      <trkpt lat="46.00373" lon="7.12524">
        <ele>1390</ele>
        <time>2022-08-27T19:32:31Z</time>
      </trkpt>
      <trkpt lat="46.00375" lon="7.12523">
        <ele>1390</ele>
        <time>2022-08-27T19:32:33Z</time>
      </trkpt>
      <trkpt lat="46.00378" lon="7.12522">
        <ele>1390</ele>
        <time>2022-08-27T19:32:35Z</time>
      </trkpt>
      <trkpt lat="46.0038" lon="7.12521">
        <ele>1389</ele>
        <time>2022-08-27T19:32:37Z</time>
      </trkpt>
      <trkpt lat="46.00383" lon="7.12519">
        <ele>1389</ele>
        <time>2022-08-27T19:32:39Z</time>
      </trkpt>
      <trkpt lat="46.00385" lon="7.12517">
        <ele>1389</ele>
        <time>2022-08-27T19:32:41Z</time>
      </trkpt>
      <trkpt lat="46.00388" lon="7.12516">
        <ele>1389</ele>
        <time>2022-08-27T19:32:43Z</time>
      </trkpt>
      <trkpt lat="46.0039" lon="7.12514">
        <ele>1389</ele>
        <time>2022-08-27T19:32:45Z</time>
      </trkpt>
      <trkpt lat="46.00392" lon="7.12513">
        <ele>1389</ele>
        <time>2022-08-27T19:32:47Z</time>
      </trkpt>
      <trkpt lat="46.00395" lon="7.12512">
        <ele>1389</ele>
        <time>2022-08-27T19:32:49Z</time>
      </trkpt>
      <trkpt lat="46.00397" lon="7.12511">
        <ele>1389</ele>
        <time>2022-08-27T19:32:51Z</time>
      </trkpt>
      <trkpt lat="46.004" lon="7.1251">
        <ele>1389</ele>
        <time>2022-08-27T19:32:53Z</time>
      </trkpt>
      <trkpt lat="46.00402" lon="7.12509">
        <ele>1389</ele>
        <time>2022-08-27T19:32:55Z</time>
      </trkpt>
      <trkpt lat="46.00404" lon="7.12508">
        <ele>1389</ele>
        <time>2022-08-27T19:32:57Z</time>
      </trkpt>
      <trkpt lat="46.00406" lon="7.12507">
        <ele>1389</ele>
        <time>2022-08-27T19:32:59Z</time>
      </trkpt>
      <trkpt lat="46.00409" lon="7.12506">
        <ele>1389</ele>
        <time>2022-08-27T19:33:01Z</time>
      </trkpt>
      <trkpt lat="46.00411" lon="7.12504">
        <ele>1389</ele>
        <time>2022-08-27T19:33:02Z</time>
      </trkpt>
      <trkpt lat="46.00413" lon="7.12503">
        <ele>1389</ele>
        <time>2022-08-27T19:33:05Z</time>
      </trkpt>
      <trkpt lat="46.00416" lon="7.12501">
        <ele>1389</ele>
        <time>2022-08-27T19:33:07Z</time>
      </trkpt>
      <trkpt lat="46.00418" lon="7.125">
        <ele>1389</ele>
        <time>2022-08-27T19:33:09Z</time>
      </trkpt>
      <trkpt lat="46.0042" lon="7.12498">
        <ele>1388</ele>
        <time>2022-08-27T19:33:11Z</time>
      </trkpt>
      <trkpt lat="46.00422" lon="7.12496">
        <ele>1388</ele>
        <time>2022-08-27T19:33:13Z</time>
      </trkpt>
      <trkpt lat="46.00424" lon="7.12494">
        <ele>1388</ele>
        <time>2022-08-27T19:33:15Z</time>
      </trkpt>
      <trkpt lat="46.00427" lon="7.12492">
        <ele>1388</ele>
        <time>2022-08-27T19:33:17Z</time>
      </trkpt>
      <trkpt lat="46.00429" lon="7.1249">
        <ele>1388</ele>
        <time>2022-08-27T19:33:19Z</time>
      </trkpt>
      <trkpt lat="46.00432" lon="7.12489">
        <ele>1388</ele>
        <time>2022-08-27T19:33:21Z</time>
      </trkpt>
      <trkpt lat="46.00434" lon="7.12487">
        <ele>1388</ele>
        <time>2022-08-27T19:33:23Z</time>
      </trkpt>
      <trkpt lat="46.00435" lon="7.12486">
        <ele>1388</ele>
        <time>2022-08-27T19:33:24Z</time>
      </trkpt>
      <trkpt lat="46.00437" lon="7.12485">
        <ele>1388</ele>
        <time>2022-08-27T19:33:25Z</time>
      </trkpt>
      <trkpt lat="46.00438" lon="7.12484">
        <ele>1388</ele>
        <time>2022-08-27T19:33:27Z</time>
      </trkpt>
      <trkpt lat="46.0044" lon="7.12483">
        <ele>1388</ele>
        <time>2022-08-27T19:33:28Z</time>
      </trkpt>
      <trkpt lat="46.00441" lon="7.12482">
        <ele>1388</ele>
        <time>2022-08-27T19:33:30Z</time>
      </trkpt>
      <trkpt lat="46.00443" lon="7.12481">
        <ele>1388</ele>
        <time>2022-08-27T19:33:31Z</time>
      </trkpt>
      <trkpt lat="46.00446" lon="7.1248">
        <ele>1388</ele>
        <time>2022-08-27T19:33:32Z</time>
      </trkpt>
      <trkpt lat="46.00447" lon="7.12479">
        <ele>1388</ele>
        <time>2022-08-27T19:33:35Z</time>
      </trkpt>
      <trkpt lat="46.00449" lon="7.12478">
        <ele>1388</ele>
        <time>2022-08-27T19:33:36Z</time>
      </trkpt>
      <trkpt lat="46.00451" lon="7.12477">
        <ele>1388</ele>
        <time>2022-08-27T19:33:37Z</time>
      </trkpt>
      <trkpt lat="46.00453" lon="7.12474">
        <ele>1388</ele>
        <time>2022-08-27T19:33:39Z</time>
      </trkpt>
      <trkpt lat="46.00455" lon="7.12472">
        <ele>1388</ele>
        <time>2022-08-27T19:33:40Z</time>
      </trkpt>
      <trkpt lat="46.00458" lon="7.12469">
        <ele>1388</ele>
        <time>2022-08-27T19:33:43Z</time>
      </trkpt>
      <trkpt lat="46.00461" lon="7.12468">
        <ele>1388</ele>
        <time>2022-08-27T19:33:45Z</time>
      </trkpt>
      <trkpt lat="46.00463" lon="7.12465">
        <ele>1388</ele>
        <time>2022-08-27T19:33:47Z</time>
      </trkpt>
      <trkpt lat="46.00466" lon="7.12463">
        <ele>1388</ele>
        <time>2022-08-27T19:33:49Z</time>
      </trkpt>
      <trkpt lat="46.00468" lon="7.12461">
        <ele>1388</ele>
        <time>2022-08-27T19:33:51Z</time>
      </trkpt>
      <trkpt lat="46.00471" lon="7.1246">
        <ele>1388</ele>
        <time>2022-08-27T19:33:53Z</time>
      </trkpt>
      <trkpt lat="46.00473" lon="7.12459">
        <ele>1388</ele>
        <time>2022-08-27T19:33:55Z</time>
      </trkpt>
      <trkpt lat="46.00475" lon="7.12457">
        <ele>1388</ele>
        <time>2022-08-27T19:33:57Z</time>
      </trkpt>
      <trkpt lat="46.00478" lon="7.12456">
        <ele>1388</ele>
        <time>2022-08-27T19:33:59Z</time>
      </trkpt>
      <trkpt lat="46.0048" lon="7.12454">
        <ele>1388</ele>
        <time>2022-08-27T19:34:01Z</time>
      </trkpt>
      <trkpt lat="46.00483" lon="7.12453">
        <ele>1388</ele>
        <time>2022-08-27T19:34:03Z</time>
      </trkpt>
      <trkpt lat="46.00485" lon="7.12452">
        <ele>1388</ele>
        <time>2022-08-27T19:34:05Z</time>
      </trkpt>
      <trkpt lat="46.00487" lon="7.12451">
        <ele>1388</ele>
        <time>2022-08-27T19:34:07Z</time>
      </trkpt>
      <trkpt lat="46.00489" lon="7.12449">
        <ele>1388</ele>
        <time>2022-08-27T19:34:09Z</time>
      </trkpt>
      <trkpt lat="46.00492" lon="7.12449">
        <ele>1388</ele>
        <time>2022-08-27T19:34:11Z</time>
      </trkpt>
      <trkpt lat="46.00493" lon="7.12448">
        <ele>1388</ele>
        <time>2022-08-27T19:34:12Z</time>
      </trkpt>
      <trkpt lat="46.00494" lon="7.12447">
        <ele>1388</ele>
        <time>2022-08-27T19:34:14Z</time>
      </trkpt>
      <trkpt lat="46.00495" lon="7.12446">
        <ele>1388</ele>
        <time>2022-08-27T19:34:15Z</time>
      </trkpt>
      <trkpt lat="46.00496" lon="7.12445">
        <ele>1388</ele>
        <time>2022-08-27T19:34:16Z</time>
      </trkpt>
      <trkpt lat="46.00497" lon="7.12444">
        <ele>1388</ele>
        <time>2022-08-27T19:34:17Z</time>
      </trkpt>
      <trkpt lat="46.00498" lon="7.12443">
        <ele>1388</ele>
        <time>2022-08-27T19:34:18Z</time>
      </trkpt>
      <trkpt lat="46.00499" lon="7.12441">
        <ele>1388</ele>
        <time>2022-08-27T19:34:19Z</time>
      </trkpt>
      <trkpt lat="46.005" lon="7.12439">
        <ele>1388</ele>
        <time>2022-08-27T19:34:20Z</time>
      </trkpt>
      <trkpt lat="46.00501" lon="7.12437">
        <ele>1388</ele>
        <time>2022-08-27T19:34:22Z</time>
      </trkpt>
      <trkpt lat="46.00502" lon="7.12436">
        <ele>1388</ele>
        <time>2022-08-27T19:34:23Z</time>
      </trkpt>
      <trkpt lat="46.00503" lon="7.12434">
        <ele>1388</ele>
        <time>2022-08-27T19:34:24Z</time>
      </trkpt>
      <trkpt lat="46.00514" lon="7.12432">
        <ele>1388</ele>
        <time>2022-08-27T19:34:31Z</time>
      </trkpt>
      <trkpt lat="46.00515" lon="7.12432">
        <ele>1388</ele>
        <time>2022-08-27T19:34:32Z</time>
      </trkpt>
      <trkpt lat="46.00517" lon="7.12432">
        <ele>1388</ele>
        <time>2022-08-27T19:34:33Z</time>
      </trkpt>
      <trkpt lat="46.00518" lon="7.12432">
        <ele>1388</ele>
        <time>2022-08-27T19:34:34Z</time>
      </trkpt>
      <trkpt lat="46.0052" lon="7.12431">
        <ele>1388</ele>
        <time>2022-08-27T19:34:36Z</time>
      </trkpt>
      <trkpt lat="46.00521" lon="7.12431">
        <ele>1388</ele>
        <time>2022-08-27T19:34:37Z</time>
      </trkpt>
      <trkpt lat="46.00523" lon="7.12431">
        <ele>1388</ele>
        <time>2022-08-27T19:34:38Z</time>
      </trkpt>
      <trkpt lat="46.00524" lon="7.12431">
        <ele>1388</ele>
        <time>2022-08-27T19:34:39Z</time>
      </trkpt>
      <trkpt lat="46.00526" lon="7.1243">
        <ele>1389</ele>
        <time>2022-08-27T19:34:41Z</time>
      </trkpt>
      <trkpt lat="46.00527" lon="7.1243">
        <ele>1389</ele>
        <time>2022-08-27T19:34:43Z</time>
      </trkpt>
      <trkpt lat="46.00529" lon="7.12429">
        <ele>1389</ele>
        <time>2022-08-27T19:34:44Z</time>
      </trkpt>
      <trkpt lat="46.00531" lon="7.12429">
        <ele>1389</ele>
        <time>2022-08-27T19:34:45Z</time>
      </trkpt>
      <trkpt lat="46.00532" lon="7.12429">
        <ele>1389</ele>
        <time>2022-08-27T19:34:46Z</time>
      </trkpt>
      <trkpt lat="46.00541" lon="7.12426">
        <ele>1390</ele>
        <time>2022-08-27T19:34:54Z</time>
      </trkpt>
      <trkpt lat="46.00543" lon="7.12425">
        <ele>1390</ele>
        <time>2022-08-27T19:34:55Z</time>
      </trkpt>
      <trkpt lat="46.00544" lon="7.12425">
        <ele>1391</ele>
        <time>2022-08-27T19:34:56Z</time>
      </trkpt>
      <trkpt lat="46.00545" lon="7.12425">
        <ele>1391</ele>
        <time>2022-08-27T19:34:57Z</time>
      </trkpt>
      <trkpt lat="46.00546" lon="7.12424">
        <ele>1392</ele>
        <time>2022-08-27T19:34:59Z</time>
      </trkpt>
      <trkpt lat="46.00547" lon="7.12424">
        <ele>1392</ele>
        <time>2022-08-27T19:35:00Z</time>
      </trkpt>
      <trkpt lat="46.00549" lon="7.12424">
        <ele>1392</ele>
        <time>2022-08-27T19:35:02Z</time>
      </trkpt>
      <trkpt lat="46.0055" lon="7.12423">
        <ele>1392</ele>
        <time>2022-08-27T19:35:03Z</time>
      </trkpt>
      <trkpt lat="46.00551" lon="7.12423">
        <ele>1392</ele>
        <time>2022-08-27T19:35:04Z</time>
      </trkpt>
      <trkpt lat="46.00554" lon="7.12422">
        <ele>1392</ele>
        <time>2022-08-27T19:35:06Z</time>
      </trkpt>
      <trkpt lat="46.00556" lon="7.12421">
        <ele>1393</ele>
        <time>2022-08-27T19:35:08Z</time>
      </trkpt>
      <trkpt lat="46.00559" lon="7.12419">
        <ele>1393</ele>
        <time>2022-08-27T19:35:10Z</time>
      </trkpt>
      <trkpt lat="46.0056" lon="7.12417">
        <ele>1394</ele>
        <time>2022-08-27T19:35:12Z</time>
      </trkpt>
      <trkpt lat="46.00563" lon="7.12416">
        <ele>1394</ele>
        <time>2022-08-27T19:35:14Z</time>
      </trkpt>
      <trkpt lat="46.00564" lon="7.12416">
        <ele>1394</ele>
        <time>2022-08-27T19:35:16Z</time>
      </trkpt>
      <trkpt lat="46.00567" lon="7.12415">
        <ele>1394</ele>
        <time>2022-08-27T19:35:18Z</time>
      </trkpt>
      <trkpt lat="46.00568" lon="7.12415">
        <ele>1394</ele>
        <time>2022-08-27T19:35:20Z</time>
      </trkpt>
      <trkpt lat="46.0057" lon="7.12414">
        <ele>1395</ele>
        <time>2022-08-27T19:35:22Z</time>
      </trkpt>
      <trkpt lat="46.00572" lon="7.12412">
        <ele>1395</ele>
        <time>2022-08-27T19:35:24Z</time>
      </trkpt>
      <trkpt lat="46.00574" lon="7.12411">
        <ele>1395</ele>
        <time>2022-08-27T19:35:27Z</time>
      </trkpt>
      <trkpt lat="46.00576" lon="7.12409">
        <ele>1395</ele>
        <time>2022-08-27T19:35:29Z</time>
      </trkpt>
      <trkpt lat="46.00578" lon="7.12406">
        <ele>1396</ele>
        <time>2022-08-27T19:35:31Z</time>
      </trkpt>
      <trkpt lat="46.0058" lon="7.12403">
        <ele>1396</ele>
        <time>2022-08-27T19:35:33Z</time>
      </trkpt>
      <trkpt lat="46.00582" lon="7.124">
        <ele>1396</ele>
        <time>2022-08-27T19:35:35Z</time>
      </trkpt>
      <trkpt lat="46.00583" lon="7.12396">
        <ele>1396</ele>
        <time>2022-08-27T19:35:37Z</time>
      </trkpt>
      <trkpt lat="46.00585" lon="7.12393">
        <ele>1397</ele>
        <time>2022-08-27T19:35:39Z</time>
      </trkpt>
      <trkpt lat="46.00586" lon="7.12391">
        <ele>1397</ele>
        <time>2022-08-27T19:35:42Z</time>
      </trkpt>
      <trkpt lat="46.00588" lon="7.12389">
        <ele>1397</ele>
        <time>2022-08-27T19:35:45Z</time>
      </trkpt>
      <trkpt lat="46.00589" lon="7.12387">
        <ele>1397</ele>
        <time>2022-08-27T19:35:47Z</time>
      </trkpt>
      <trkpt lat="46.0059" lon="7.12386">
        <ele>1397</ele>
        <time>2022-08-27T19:35:48Z</time>
      </trkpt>
      <trkpt lat="46.00591" lon="7.12385">
        <ele>1397</ele>
        <time>2022-08-27T19:35:49Z</time>
      </trkpt>
      <trkpt lat="46.00593" lon="7.12385">
        <ele>1397</ele>
        <time>2022-08-27T19:35:51Z</time>
      </trkpt>
      <trkpt lat="46.00594" lon="7.12384">
        <ele>1397</ele>
        <time>2022-08-27T19:35:52Z</time>
      </trkpt>
      <trkpt lat="46.00595" lon="7.12383">
        <ele>1397</ele>
        <time>2022-08-27T19:35:53Z</time>
      </trkpt>
      <trkpt lat="46.00596" lon="7.12383">
        <ele>1397</ele>
        <time>2022-08-27T19:35:54Z</time>
      </trkpt>
      <trkpt lat="46.00597" lon="7.12382">
        <ele>1398</ele>
        <time>2022-08-27T19:35:56Z</time>
      </trkpt>
      <trkpt lat="46.00598" lon="7.12381">
        <ele>1398</ele>
        <time>2022-08-27T19:35:57Z</time>
      </trkpt>
      <trkpt lat="46.00598" lon="7.1238">
        <ele>1398</ele>
        <time>2022-08-27T19:35:59Z</time>
      </trkpt>
      <trkpt lat="46.00599" lon="7.12379">
        <ele>1398</ele>
        <time>2022-08-27T19:36:00Z</time>
      </trkpt>
      <trkpt lat="46.00599" lon="7.12378">
        <ele>1398</ele>
        <time>2022-08-27T19:36:01Z</time>
      </trkpt>
      <trkpt lat="46.006" lon="7.12377">
        <ele>1398</ele>
        <time>2022-08-27T19:36:02Z</time>
      </trkpt>
      <trkpt lat="46.006" lon="7.12376">
        <ele>1399</ele>
        <time>2022-08-27T19:36:03Z</time>
      </trkpt>
      <trkpt lat="46.00601" lon="7.12375">
        <ele>1399</ele>
        <time>2022-08-27T19:36:04Z</time>
      </trkpt>
      <trkpt lat="46.00601" lon="7.12373">
        <ele>1399</ele>
        <time>2022-08-27T19:36:05Z</time>
      </trkpt>
      <trkpt lat="46.00602" lon="7.12372">
        <ele>1399</ele>
        <time>2022-08-27T19:36:06Z</time>
      </trkpt>
      <trkpt lat="46.00602" lon="7.12371">
        <ele>1399</ele>
        <time>2022-08-27T19:36:08Z</time>
      </trkpt>
      <trkpt lat="46.00603" lon="7.1237">
        <ele>1400</ele>
        <time>2022-08-27T19:36:09Z</time>
      </trkpt>
      <trkpt lat="46.00603" lon="7.12369">
        <ele>1401</ele>
        <time>2022-08-27T19:36:10Z</time>
      </trkpt>
      <trkpt lat="46.00603" lon="7.12368">
        <ele>1401</ele>
        <time>2022-08-27T19:36:11Z</time>
      </trkpt>
      <trkpt lat="46.00603" lon="7.12367">
        <ele>1401</ele>
        <time>2022-08-27T19:36:13Z</time>
      </trkpt>
      <trkpt lat="46.00603" lon="7.12365">
        <ele>1401</ele>
        <time>2022-08-27T19:36:14Z</time>
      </trkpt>
      <trkpt lat="46.00603" lon="7.12364">
        <ele>1401</ele>
        <time>2022-08-27T19:36:15Z</time>
      </trkpt>
      <trkpt lat="46.00603" lon="7.12363">
        <ele>1401</ele>
        <time>2022-08-27T19:36:16Z</time>
      </trkpt>
      <trkpt lat="46.00603" lon="7.12362">
        <ele>1402</ele>
        <time>2022-08-27T19:36:18Z</time>
      </trkpt>
      <trkpt lat="46.00603" lon="7.12361">
        <ele>1402</ele>
        <time>2022-08-27T19:36:20Z</time>
      </trkpt>
      <trkpt lat="46.00604" lon="7.12359">
        <ele>1402</ele>
        <time>2022-08-27T19:36:21Z</time>
      </trkpt>
      <trkpt lat="46.00604" lon="7.12358">
        <ele>1403</ele>
        <time>2022-08-27T19:36:22Z</time>
      </trkpt>
      <trkpt lat="46.00604" lon="7.12357">
        <ele>1403</ele>
        <time>2022-08-27T19:36:23Z</time>
      </trkpt>
      <trkpt lat="46.00605" lon="7.12351">
        <ele>1404</ele>
        <time>2022-08-27T19:36:29Z</time>
      </trkpt>
      <trkpt lat="46.00608" lon="7.12339">
        <ele>1406</ele>
        <time>2022-08-27T19:36:42Z</time>
      </trkpt>
      <trkpt lat="46.00608" lon="7.12338">
        <ele>1406</ele>
        <time>2022-08-27T19:36:44Z</time>
      </trkpt>
      <trkpt lat="46.00609" lon="7.12337">
        <ele>1407</ele>
        <time>2022-08-27T19:36:45Z</time>
      </trkpt>
      <trkpt lat="46.00609" lon="7.12335">
        <ele>1407</ele>
        <time>2022-08-27T19:36:47Z</time>
      </trkpt>
      <trkpt lat="46.0061" lon="7.12334">
        <ele>1407</ele>
        <time>2022-08-27T19:36:49Z</time>
      </trkpt>
      <trkpt lat="46.0061" lon="7.12333">
        <ele>1407</ele>
        <time>2022-08-27T19:36:50Z</time>
      </trkpt>
      <trkpt lat="46.00611" lon="7.12332">
        <ele>1408</ele>
        <time>2022-08-27T19:36:51Z</time>
      </trkpt>
      <trkpt lat="46.00611" lon="7.12331">
        <ele>1408</ele>
        <time>2022-08-27T19:36:52Z</time>
      </trkpt>
      <trkpt lat="46.00611" lon="7.1233">
        <ele>1408</ele>
        <time>2022-08-27T19:36:54Z</time>
      </trkpt>
      <trkpt lat="46.00612" lon="7.12329">
        <ele>1408</ele>
        <time>2022-08-27T19:36:56Z</time>
      </trkpt>
      <trkpt lat="46.00612" lon="7.12328">
        <ele>1408</ele>
        <time>2022-08-27T19:36:57Z</time>
      </trkpt>
      <trkpt lat="46.00613" lon="7.12326">
        <ele>1409</ele>
        <time>2022-08-27T19:36:58Z</time>
      </trkpt>
      <trkpt lat="46.00614" lon="7.12325">
        <ele>1409</ele>
        <time>2022-08-27T19:36:59Z</time>
      </trkpt>
      <trkpt lat="46.00615" lon="7.12323">
        <ele>1409</ele>
        <time>2022-08-27T19:37:00Z</time>
      </trkpt>
      <trkpt lat="46.00616" lon="7.12321">
        <ele>1409</ele>
        <time>2022-08-27T19:37:02Z</time>
      </trkpt>
      <trkpt lat="46.00617" lon="7.1232">
        <ele>1409</ele>
        <time>2022-08-27T19:37:03Z</time>
      </trkpt>
      <trkpt lat="46.00618" lon="7.12318">
        <ele>1410</ele>
        <time>2022-08-27T19:37:04Z</time>
      </trkpt>
      <trkpt lat="46.00619" lon="7.12316">
        <ele>1410</ele>
        <time>2022-08-27T19:37:05Z</time>
      </trkpt>
      <trkpt lat="46.00619" lon="7.12316">
        <ele>1410</ele>
        <time>2022-08-27T19:37:07Z</time>
      </trkpt>
      <trkpt lat="46.0062" lon="7.12316">
        <ele>1410</ele>
        <time>2022-08-27T19:37:08Z</time>
      </trkpt>
      <trkpt lat="46.00621" lon="7.12316">
        <ele>1410</ele>
        <time>2022-08-27T19:37:09Z</time>
      </trkpt>
      <trkpt lat="46.00621" lon="7.12316">
        <ele>1411</ele>
        <time>2022-08-27T19:37:10Z</time>
      </trkpt>
      <trkpt lat="46.00622" lon="7.12315">
        <ele>1411</ele>
        <time>2022-08-27T19:37:12Z</time>
      </trkpt>
      <trkpt lat="46.00623" lon="7.12315">
        <ele>1411</ele>
        <time>2022-08-27T19:37:14Z</time>
      </trkpt>
      <trkpt lat="46.00624" lon="7.12315">
        <ele>1412</ele>
        <time>2022-08-27T19:37:15Z</time>
      </trkpt>
      <trkpt lat="46.00624" lon="7.12315">
        <ele>1412</ele>
        <time>2022-08-27T19:37:16Z</time>
      </trkpt>
      <trkpt lat="46.00625" lon="7.12315">
        <ele>1412</ele>
        <time>2022-08-27T19:37:17Z</time>
      </trkpt>
      <trkpt lat="46.00626" lon="7.12315">
        <ele>1412</ele>
        <time>2022-08-27T19:37:18Z</time>
      </trkpt>
      <trkpt lat="46.00626" lon="7.12314">
        <ele>1412</ele>
        <time>2022-08-27T19:37:19Z</time>
      </trkpt>
      <trkpt lat="46.00627" lon="7.12314">
        <ele>1412</ele>
        <time>2022-08-27T19:37:20Z</time>
      </trkpt>
      <trkpt lat="46.00628" lon="7.12314">
        <ele>1412</ele>
        <time>2022-08-27T19:37:21Z</time>
      </trkpt>
      <trkpt lat="46.00628" lon="7.12315">
        <ele>1413</ele>
        <time>2022-08-27T19:37:22Z</time>
      </trkpt>
      <trkpt lat="46.00629" lon="7.12316">
        <ele>1413</ele>
        <time>2022-08-27T19:37:23Z</time>
      </trkpt>
      <trkpt lat="46.00629" lon="7.12318">
        <ele>1414</ele>
        <time>2022-08-27T19:37:24Z</time>
      </trkpt>
      <trkpt lat="46.0063" lon="7.12319">
        <ele>1414</ele>
        <time>2022-08-27T19:37:26Z</time>
      </trkpt>
      <trkpt lat="46.0063" lon="7.1232">
        <ele>1415</ele>
        <time>2022-08-27T19:37:28Z</time>
      </trkpt>
      <trkpt lat="46.0063" lon="7.12321">
        <ele>1415</ele>
        <time>2022-08-27T19:37:29Z</time>
      </trkpt>
      <trkpt lat="46.00631" lon="7.12322">
        <ele>1415</ele>
        <time>2022-08-27T19:37:30Z</time>
      </trkpt>
      <trkpt lat="46.00631" lon="7.12323">
        <ele>1415</ele>
        <time>2022-08-27T19:37:31Z</time>
      </trkpt>
      <trkpt lat="46.00632" lon="7.12324">
        <ele>1415</ele>
        <time>2022-08-27T19:37:32Z</time>
      </trkpt>
      <trkpt lat="46.00632" lon="7.12326">
        <ele>1415</ele>
        <time>2022-08-27T19:37:33Z</time>
      </trkpt>
      <trkpt lat="46.00632" lon="7.12327">
        <ele>1415</ele>
        <time>2022-08-27T19:37:34Z</time>
      </trkpt>
      <trkpt lat="46.00632" lon="7.12329">
        <ele>1415</ele>
        <time>2022-08-27T19:37:35Z</time>
      </trkpt>
      <trkpt lat="46.00633" lon="7.1233">
        <ele>1415</ele>
        <time>2022-08-27T19:37:36Z</time>
      </trkpt>
      <trkpt lat="46.00633" lon="7.12332">
        <ele>1415</ele>
        <time>2022-08-27T19:37:38Z</time>
      </trkpt>
      <trkpt lat="46.00633" lon="7.12333">
        <ele>1415</ele>
        <time>2022-08-27T19:37:39Z</time>
      </trkpt>
      <trkpt lat="46.00633" lon="7.12335">
        <ele>1416</ele>
        <time>2022-08-27T19:37:40Z</time>
      </trkpt>
      <trkpt lat="46.00633" lon="7.12336">
        <ele>1416</ele>
        <time>2022-08-27T19:37:41Z</time>
      </trkpt>
      <trkpt lat="46.00634" lon="7.12338">
        <ele>1416</ele>
        <time>2022-08-27T19:37:43Z</time>
      </trkpt>
      <trkpt lat="46.00634" lon="7.12339">
        <ele>1417</ele>
        <time>2022-08-27T19:37:44Z</time>
      </trkpt>
      <trkpt lat="46.00634" lon="7.1234">
        <ele>1417</ele>
        <time>2022-08-27T19:37:45Z</time>
      </trkpt>
      <trkpt lat="46.00635" lon="7.12341">
        <ele>1417</ele>
        <time>2022-08-27T19:37:46Z</time>
      </trkpt>
      <trkpt lat="46.00636" lon="7.12342">
        <ele>1417</ele>
        <time>2022-08-27T19:37:48Z</time>
      </trkpt>
      <trkpt lat="46.00637" lon="7.12343">
        <ele>1417</ele>
        <time>2022-08-27T19:37:49Z</time>
      </trkpt>
      <trkpt lat="46.00638" lon="7.12344">
        <ele>1417</ele>
        <time>2022-08-27T19:37:50Z</time>
      </trkpt>
      <trkpt lat="46.00638" lon="7.12345">
        <ele>1417</ele>
        <time>2022-08-27T19:37:51Z</time>
      </trkpt>
      <trkpt lat="46.00639" lon="7.12346">
        <ele>1418</ele>
        <time>2022-08-27T19:37:53Z</time>
      </trkpt>
      <trkpt lat="46.0064" lon="7.12347">
        <ele>1418</ele>
        <time>2022-08-27T19:37:54Z</time>
      </trkpt>
      <trkpt lat="46.00641" lon="7.12348">
        <ele>1419</ele>
        <time>2022-08-27T19:37:55Z</time>
      </trkpt>
      <trkpt lat="46.00642" lon="7.12349">
        <ele>1419</ele>
        <time>2022-08-27T19:37:56Z</time>
      </trkpt>
      <trkpt lat="46.00642" lon="7.1235">
        <ele>1419</ele>
        <time>2022-08-27T19:37:58Z</time>
      </trkpt>
      <trkpt lat="46.00643" lon="7.12351">
        <ele>1419</ele>
        <time>2022-08-27T19:37:59Z</time>
      </trkpt>
      <trkpt lat="46.00644" lon="7.12352">
        <ele>1419</ele>
        <time>2022-08-27T19:38:00Z</time>
      </trkpt>
      <trkpt lat="46.00644" lon="7.12353">
        <ele>1419</ele>
        <time>2022-08-27T19:38:01Z</time>
      </trkpt>
      <trkpt lat="46.00645" lon="7.12354">
        <ele>1419</ele>
        <time>2022-08-27T19:38:03Z</time>
      </trkpt>
      <trkpt lat="46.00646" lon="7.12355">
        <ele>1419</ele>
        <time>2022-08-27T19:38:04Z</time>
      </trkpt>
      <trkpt lat="46.00647" lon="7.12356">
        <ele>1419</ele>
        <time>2022-08-27T19:38:05Z</time>
      </trkpt>
      <trkpt lat="46.00647" lon="7.12357">
        <ele>1419</ele>
        <time>2022-08-27T19:38:06Z</time>
      </trkpt>
      <trkpt lat="46.00649" lon="7.12358">
        <ele>1419</ele>
        <time>2022-08-27T19:38:08Z</time>
      </trkpt>
      <trkpt lat="46.0065" lon="7.12358">
        <ele>1419</ele>
        <time>2022-08-27T19:38:09Z</time>
      </trkpt>
      <trkpt lat="46.00651" lon="7.12359">
        <ele>1419</ele>
        <time>2022-08-27T19:38:10Z</time>
      </trkpt>
      <trkpt lat="46.00652" lon="7.12359">
        <ele>1419</ele>
        <time>2022-08-27T19:38:12Z</time>
      </trkpt>
      <trkpt lat="46.00653" lon="7.12359">
        <ele>1419</ele>
        <time>2022-08-27T19:38:13Z</time>
      </trkpt>
      <trkpt lat="46.00654" lon="7.1236">
        <ele>1419</ele>
        <time>2022-08-27T19:38:14Z</time>
      </trkpt>
      <trkpt lat="46.00657" lon="7.1236">
        <ele>1419</ele>
        <time>2022-08-27T19:38:17Z</time>
      </trkpt>
      <trkpt lat="46.00659" lon="7.12359">
        <ele>1419</ele>
        <time>2022-08-27T19:38:19Z</time>
      </trkpt>
      <trkpt lat="46.00661" lon="7.12358">
        <ele>1419</ele>
        <time>2022-08-27T19:38:20Z</time>
      </trkpt>
      <trkpt lat="46.00663" lon="7.12358">
        <ele>1420</ele>
        <time>2022-08-27T19:38:23Z</time>
      </trkpt>
      <trkpt lat="46.00666" lon="7.12356">
        <ele>1420</ele>
        <time>2022-08-27T19:38:26Z</time>
      </trkpt>
      <trkpt lat="46.0067" lon="7.12356">
        <ele>1420</ele>
        <time>2022-08-27T19:38:29Z</time>
      </trkpt>
      <trkpt lat="46.00672" lon="7.12355">
        <ele>1420</ele>
        <time>2022-08-27T19:38:31Z</time>
      </trkpt>
      <trkpt lat="46.00674" lon="7.12354">
        <ele>1420</ele>
        <time>2022-08-27T19:38:33Z</time>
      </trkpt>
      <trkpt lat="46.00676" lon="7.12353">
        <ele>1420</ele>
        <time>2022-08-27T19:38:35Z</time>
      </trkpt>
      <trkpt lat="46.00678" lon="7.12353">
        <ele>1421</ele>
        <time>2022-08-27T19:38:37Z</time>
      </trkpt>
      <trkpt lat="46.0068" lon="7.12353">
        <ele>1421</ele>
        <time>2022-08-27T19:38:39Z</time>
      </trkpt>
      <trkpt lat="46.00682" lon="7.12352">
        <ele>1421</ele>
        <time>2022-08-27T19:38:41Z</time>
      </trkpt>
      <trkpt lat="46.00684" lon="7.12351">
        <ele>1422</ele>
        <time>2022-08-27T19:38:43Z</time>
      </trkpt>
      <trkpt lat="46.00687" lon="7.12351">
        <ele>1422</ele>
        <time>2022-08-27T19:38:45Z</time>
      </trkpt>
      <trkpt lat="46.00689" lon="7.1235">
        <ele>1422</ele>
        <time>2022-08-27T19:38:48Z</time>
      </trkpt>
      <trkpt lat="46.00692" lon="7.12349">
        <ele>1422</ele>
        <time>2022-08-27T19:38:51Z</time>
      </trkpt>
      <trkpt lat="46.00693" lon="7.12348">
        <ele>1423</ele>
        <time>2022-08-27T19:38:52Z</time>
      </trkpt>
      <trkpt lat="46.00694" lon="7.12348">
        <ele>1423</ele>
        <time>2022-08-27T19:38:53Z</time>
      </trkpt>
      <trkpt lat="46.00695" lon="7.12347">
        <ele>1423</ele>
        <time>2022-08-27T19:38:55Z</time>
      </trkpt>
      <trkpt lat="46.00696" lon="7.12347">
        <ele>1423</ele>
        <time>2022-08-27T19:38:56Z</time>
      </trkpt>
      <trkpt lat="46.00697" lon="7.12346">
        <ele>1423</ele>
        <time>2022-08-27T19:38:57Z</time>
      </trkpt>
      <trkpt lat="46.00702" lon="7.12334">
        <ele>1425</ele>
        <time>2022-08-27T19:39:07Z</time>
      </trkpt>
      <trkpt lat="46.00707" lon="7.12322">
        <ele>1426</ele>
        <time>2022-08-27T19:39:14Z</time>
      </trkpt>
      <trkpt lat="46.00708" lon="7.12322">
        <ele>1426</ele>
        <time>2022-08-27T19:39:16Z</time>
      </trkpt>
      <trkpt lat="46.0071" lon="7.12321">
        <ele>1426</ele>
        <time>2022-08-27T19:39:17Z</time>
      </trkpt>
      <trkpt lat="46.00711" lon="7.12321">
        <ele>1426</ele>
        <time>2022-08-27T19:39:18Z</time>
      </trkpt>
      <trkpt lat="46.00712" lon="7.12321">
        <ele>1426</ele>
        <time>2022-08-27T19:39:19Z</time>
      </trkpt>
      <trkpt lat="46.00714" lon="7.1232">
        <ele>1426</ele>
        <time>2022-08-27T19:39:21Z</time>
      </trkpt>
      <trkpt lat="46.00715" lon="7.1232">
        <ele>1426</ele>
        <time>2022-08-27T19:39:22Z</time>
      </trkpt>
      <trkpt lat="46.00716" lon="7.1232">
        <ele>1426</ele>
        <time>2022-08-27T19:39:23Z</time>
      </trkpt>
      <trkpt lat="46.00717" lon="7.1232">
        <ele>1427</ele>
        <time>2022-08-27T19:39:24Z</time>
      </trkpt>
      <trkpt lat="46.00718" lon="7.1232">
        <ele>1427</ele>
        <time>2022-08-27T19:39:25Z</time>
      </trkpt>
      <trkpt lat="46.00718" lon="7.1232">
        <ele>1427</ele>
        <time>2022-08-27T19:39:26Z</time>
      </trkpt>
      <trkpt lat="46.00719" lon="7.1232">
        <ele>1428</ele>
        <time>2022-08-27T19:39:28Z</time>
      </trkpt>
      <trkpt lat="46.0072" lon="7.1232">
        <ele>1428</ele>
        <time>2022-08-27T19:39:29Z</time>
      </trkpt>
      <trkpt lat="46.00721" lon="7.1232">
        <ele>1428</ele>
        <time>2022-08-27T19:39:30Z</time>
      </trkpt>
      <trkpt lat="46.00721" lon="7.1232">
        <ele>1429</ele>
        <time>2022-08-27T19:39:32Z</time>
      </trkpt>
      <trkpt lat="46.00722" lon="7.1232">
        <ele>1429</ele>
        <time>2022-08-27T19:39:33Z</time>
      </trkpt>
      <trkpt lat="46.00723" lon="7.12321">
        <ele>1429</ele>
        <time>2022-08-27T19:39:34Z</time>
      </trkpt>
      <trkpt lat="46.00723" lon="7.12321">
        <ele>1429</ele>
        <time>2022-08-27T19:39:35Z</time>
      </trkpt>
      <trkpt lat="46.00724" lon="7.12321">
        <ele>1429</ele>
        <time>2022-08-27T19:39:37Z</time>
      </trkpt>
      <trkpt lat="46.00725" lon="7.12321">
        <ele>1429</ele>
        <time>2022-08-27T19:39:38Z</time>
      </trkpt>
      <trkpt lat="46.00725" lon="7.12321">
        <ele>1429</ele>
        <time>2022-08-27T19:39:39Z</time>
      </trkpt>
      <trkpt lat="46.00726" lon="7.12322">
        <ele>1429</ele>
        <time>2022-08-27T19:39:40Z</time>
      </trkpt>
      <trkpt lat="46.00726" lon="7.12323">
        <ele>1430</ele>
        <time>2022-08-27T19:39:41Z</time>
      </trkpt>
      <trkpt lat="46.00727" lon="7.12324">
        <ele>1430</ele>
        <time>2022-08-27T19:39:42Z</time>
      </trkpt>
      <trkpt lat="46.00727" lon="7.12325">
        <ele>1431</ele>
        <time>2022-08-27T19:39:44Z</time>
      </trkpt>
      <trkpt lat="46.00727" lon="7.12326">
        <ele>1431</ele>
        <time>2022-08-27T19:39:45Z</time>
      </trkpt>
      <trkpt lat="46.00728" lon="7.12327">
        <ele>1431</ele>
        <time>2022-08-27T19:39:47Z</time>
      </trkpt>
      <trkpt lat="46.00728" lon="7.12328">
        <ele>1431</ele>
        <time>2022-08-27T19:39:48Z</time>
      </trkpt>
      <trkpt lat="46.00729" lon="7.12329">
        <ele>1431</ele>
        <time>2022-08-27T19:39:49Z</time>
      </trkpt>
      <trkpt lat="46.00729" lon="7.1233">
        <ele>1432</ele>
        <time>2022-08-27T19:39:50Z</time>
      </trkpt>
      <trkpt lat="46.00729" lon="7.12331">
        <ele>1432</ele>
        <time>2022-08-27T19:39:52Z</time>
      </trkpt>
      <trkpt lat="46.0073" lon="7.12332">
        <ele>1432</ele>
        <time>2022-08-27T19:39:53Z</time>
      </trkpt>
      <trkpt lat="46.0073" lon="7.12333">
        <ele>1432</ele>
        <time>2022-08-27T19:39:54Z</time>
      </trkpt>
      <trkpt lat="46.00739" lon="7.12333">
        <ele>1434</ele>
        <time>2022-08-27T19:40:06Z</time>
      </trkpt>
      <trkpt lat="46.00739" lon="7.12333">
        <ele>1435</ele>
        <time>2022-08-27T19:40:17Z</time>
      </trkpt>
      <trkpt lat="46.00747" lon="7.12326">
        <ele>1435</ele>
        <time>2022-08-27T19:40:20Z</time>
      </trkpt>
      <trkpt lat="46.00751" lon="7.12314">
        <ele>1438</ele>
        <time>2022-08-27T19:40:32Z</time>
      </trkpt>
      <trkpt lat="46.00751" lon="7.12314">
        <ele>1439</ele>
        <time>2022-08-27T19:40:41Z</time>
      </trkpt>
      <trkpt lat="46.0076" lon="7.12306">
        <ele>1439</ele>
        <time>2022-08-27T19:40:44Z</time>
      </trkpt>
      <trkpt lat="46.00762" lon="7.12305">
        <ele>1439</ele>
        <time>2022-08-27T19:40:46Z</time>
      </trkpt>
      <trkpt lat="46.00763" lon="7.12304">
        <ele>1439</ele>
        <time>2022-08-27T19:40:47Z</time>
      </trkpt>
      <trkpt lat="46.00764" lon="7.12303">
        <ele>1439</ele>
        <time>2022-08-27T19:40:48Z</time>
      </trkpt>
      <trkpt lat="46.00765" lon="7.12302">
        <ele>1439</ele>
        <time>2022-08-27T19:40:49Z</time>
      </trkpt>
      <trkpt lat="46.00766" lon="7.12301">
        <ele>1440</ele>
        <time>2022-08-27T19:40:51Z</time>
      </trkpt>
      <trkpt lat="46.00768" lon="7.123">
        <ele>1440</ele>
        <time>2022-08-27T19:40:52Z</time>
      </trkpt>
      <trkpt lat="46.00769" lon="7.12299">
        <ele>1440</ele>
        <time>2022-08-27T19:40:53Z</time>
      </trkpt>
      <trkpt lat="46.0077" lon="7.123">
        <ele>1440</ele>
        <time>2022-08-27T19:40:54Z</time>
      </trkpt>
      <trkpt lat="46.00772" lon="7.123">
        <ele>1440</ele>
        <time>2022-08-27T19:40:55Z</time>
      </trkpt>
      <trkpt lat="46.00773" lon="7.123">
        <ele>1440</ele>
        <time>2022-08-27T19:40:56Z</time>
      </trkpt>
      <trkpt lat="46.00775" lon="7.12301">
        <ele>1441</ele>
        <time>2022-08-27T19:40:58Z</time>
      </trkpt>
      <trkpt lat="46.00776" lon="7.12301">
        <ele>1441</ele>
        <time>2022-08-27T19:41:00Z</time>
      </trkpt>
      <trkpt lat="46.00778" lon="7.12302">
        <ele>1441</ele>
        <time>2022-08-27T19:41:01Z</time>
      </trkpt>
      <trkpt lat="46.00779" lon="7.12302">
        <ele>1441</ele>
        <time>2022-08-27T19:41:03Z</time>
      </trkpt>
      <trkpt lat="46.00781" lon="7.12302">
        <ele>1440</ele>
        <time>2022-08-27T19:41:04Z</time>
      </trkpt>
      <trkpt lat="46.00783" lon="7.12302">
        <ele>1441</ele>
        <time>2022-08-27T19:41:06Z</time>
      </trkpt>
      <trkpt lat="46.00784" lon="7.12301">
        <ele>1441</ele>
        <time>2022-08-27T19:41:08Z</time>
      </trkpt>
      <trkpt lat="46.00786" lon="7.12301">
        <ele>1441</ele>
        <time>2022-08-27T19:41:09Z</time>
      </trkpt>
      <trkpt lat="46.00788" lon="7.12301">
        <ele>1441</ele>
        <time>2022-08-27T19:41:10Z</time>
      </trkpt>
      <trkpt lat="46.00789" lon="7.12301">
        <ele>1441</ele>
        <time>2022-08-27T19:41:11Z</time>
      </trkpt>
      <trkpt lat="46.00791" lon="7.123">
        <ele>1441</ele>
        <time>2022-08-27T19:41:13Z</time>
      </trkpt>
      <trkpt lat="46.00793" lon="7.123">
        <ele>1441</ele>
        <time>2022-08-27T19:41:14Z</time>
      </trkpt>
      <trkpt lat="46.00795" lon="7.12299">
        <ele>1441</ele>
        <time>2022-08-27T19:41:15Z</time>
      </trkpt>
      <trkpt lat="46.00796" lon="7.12299">
        <ele>1441</ele>
        <time>2022-08-27T19:41:16Z</time>
      </trkpt>
      <trkpt lat="46.00797" lon="7.12299">
        <ele>1441</ele>
        <time>2022-08-27T19:41:18Z</time>
      </trkpt>
      <trkpt lat="46.00797" lon="7.12299">
        <ele>1441</ele>
        <time>2022-08-27T19:41:19Z</time>
      </trkpt>
      <trkpt lat="46.00797" lon="7.12299">
        <ele>1440</ele>
        <time>2022-08-27T19:41:20Z</time>
      </trkpt>
      <trkpt lat="46.00797" lon="7.12299">
        <ele>1440</ele>
        <time>2022-08-27T19:41:22Z</time>
      </trkpt>
      <trkpt lat="46.00797" lon="7.12299">
        <ele>1440</ele>
        <time>2022-08-27T19:41:23Z</time>
      </trkpt>
      <trkpt lat="46.00798" lon="7.12299">
        <ele>1440</ele>
        <time>2022-08-27T19:41:24Z</time>
      </trkpt>
      <trkpt lat="46.00798" lon="7.12299">
        <ele>1441</ele>
        <time>2022-08-27T19:41:26Z</time>
      </trkpt>
      <trkpt lat="46.00798" lon="7.12299">
        <ele>1441</ele>
        <time>2022-08-27T19:41:27Z</time>
      </trkpt>
      <trkpt lat="46.00798" lon="7.12299">
        <ele>1441</ele>
        <time>2022-08-27T19:41:28Z</time>
      </trkpt>
      <trkpt lat="46.00798" lon="7.12299">
        <ele>1441</ele>
        <time>2022-08-27T19:41:29Z</time>
      </trkpt>
      <trkpt lat="46.00798" lon="7.12299">
        <ele>1441</ele>
        <time>2022-08-27T19:41:31Z</time>
      </trkpt>
      <trkpt lat="46.00799" lon="7.12299">
        <ele>1441</ele>
        <time>2022-08-27T19:41:32Z</time>
      </trkpt>
      <trkpt lat="46.00799" lon="7.12299">
        <ele>1441</ele>
        <time>2022-08-27T19:41:33Z</time>
      </trkpt>
      <trkpt lat="46.00799" lon="7.12299">
        <ele>1441</ele>
        <time>2022-08-27T19:41:34Z</time>
      </trkpt>
      <trkpt lat="46.00799" lon="7.12299">
        <ele>1441</ele>
        <time>2022-08-27T19:41:36Z</time>
      </trkpt>
      <trkpt lat="46.00799" lon="7.12299">
        <ele>1441</ele>
        <time>2022-08-27T19:41:37Z</time>
      </trkpt>
      <trkpt lat="46.008" lon="7.12299">
        <ele>1441</ele>
        <time>2022-08-27T19:41:38Z</time>
      </trkpt>
      <trkpt lat="46.008" lon="7.12299">
        <ele>1441</ele>
        <time>2022-08-27T19:41:39Z</time>
      </trkpt>
      <trkpt lat="46.008" lon="7.12299">
        <ele>1441</ele>
        <time>2022-08-27T19:41:41Z</time>
      </trkpt>
      <trkpt lat="46.008" lon="7.12299">
        <ele>1441</ele>
        <time>2022-08-27T19:41:43Z</time>
      </trkpt>
      <trkpt lat="46.008" lon="7.12299">
        <ele>1441</ele>
        <time>2022-08-27T19:41:44Z</time>
      </trkpt>
      <trkpt lat="46.008" lon="7.12299">
        <ele>1441</ele>
        <time>2022-08-27T19:41:45Z</time>
      </trkpt>
      <trkpt lat="46.00801" lon="7.12299">
        <ele>1440</ele>
        <time>2022-08-27T19:41:46Z</time>
      </trkpt>
      <trkpt lat="46.00801" lon="7.12299">
        <ele>1440</ele>
        <time>2022-08-27T19:41:47Z</time>
      </trkpt>
      <trkpt lat="46.00801" lon="7.12299">
        <ele>1440</ele>
        <time>2022-08-27T19:41:48Z</time>
      </trkpt>
      <trkpt lat="46.00801" lon="7.12299">
        <ele>1440</ele>
        <time>2022-08-27T19:41:49Z</time>
      </trkpt>
      <trkpt lat="46.00801" lon="7.12299">
        <ele>1440</ele>
        <time>2022-08-27T19:41:50Z</time>
      </trkpt>
      <trkpt lat="46.00802" lon="7.12299">
        <ele>1440</ele>
        <time>2022-08-27T19:41:51Z</time>
      </trkpt>
      <trkpt lat="46.00802" lon="7.12299">
        <ele>1440</ele>
        <time>2022-08-27T19:41:52Z</time>
      </trkpt>
      <trkpt lat="46.00802" lon="7.12299">
        <ele>1440</ele>
        <time>2022-08-27T19:41:53Z</time>
      </trkpt>
      <trkpt lat="46.00802" lon="7.123">
        <ele>1440</ele>
        <time>2022-08-27T19:41:55Z</time>
      </trkpt>
      <trkpt lat="46.00802" lon="7.123">
        <ele>1440</ele>
        <time>2022-08-27T19:41:56Z</time>
      </trkpt>
      <trkpt lat="46.00802" lon="7.123">
        <ele>1440</ele>
        <time>2022-08-27T19:41:58Z</time>
      </trkpt>
      <trkpt lat="46.00803" lon="7.123">
        <ele>1440</ele>
        <time>2022-08-27T19:42:00Z</time>
      </trkpt>
      <trkpt lat="46.00803" lon="7.123">
        <ele>1440</ele>
        <time>2022-08-27T19:42:01Z</time>
      </trkpt>
      <trkpt lat="46.00803" lon="7.123">
        <ele>1440</ele>
        <time>2022-08-27T19:42:02Z</time>
      </trkpt>
      <trkpt lat="46.00803" lon="7.123">
        <ele>1440</ele>
        <time>2022-08-27T19:42:03Z</time>
      </trkpt>
      <trkpt lat="46.00803" lon="7.123">
        <ele>1440</ele>
        <time>2022-08-27T19:42:05Z</time>
      </trkpt>
      <trkpt lat="46.00804" lon="7.123">
        <ele>1440</ele>
        <time>2022-08-27T19:42:07Z</time>
      </trkpt>
      <trkpt lat="46.00804" lon="7.123">
        <ele>1440</ele>
        <time>2022-08-27T19:42:09Z</time>
      </trkpt>
      <trkpt lat="46.00804" lon="7.123">
        <ele>1440</ele>
        <time>2022-08-27T19:42:10Z</time>
      </trkpt>
      <trkpt lat="46.00804" lon="7.123">
        <ele>1440</ele>
        <time>2022-08-27T19:42:11Z</time>
      </trkpt>
      <trkpt lat="46.00804" lon="7.123">
        <ele>1440</ele>
        <time>2022-08-27T19:42:12Z</time>
      </trkpt>
      <trkpt lat="46.00804" lon="7.123">
        <ele>1440</ele>
        <time>2022-08-27T19:42:13Z</time>
      </trkpt>
      <trkpt lat="46.00805" lon="7.123">
        <ele>1440</ele>
        <time>2022-08-27T19:42:14Z</time>
      </trkpt>
      <trkpt lat="46.00805" lon="7.123">
        <ele>1440</ele>
        <time>2022-08-27T19:42:15Z</time>
      </trkpt>
      <trkpt lat="46.00805" lon="7.123">
        <ele>1440</ele>
        <time>2022-08-27T19:42:16Z</time>
      </trkpt>
      <trkpt lat="46.00805" lon="7.123">
        <ele>1440</ele>
        <time>2022-08-27T19:42:17Z</time>
      </trkpt>
      <trkpt lat="46.00805" lon="7.123">
        <ele>1440</ele>
        <time>2022-08-27T19:42:19Z</time>
      </trkpt>
      <trkpt lat="46.00806" lon="7.123">
        <ele>1439</ele>
        <time>2022-08-27T19:42:20Z</time>
      </trkpt>
      <trkpt lat="46.00806" lon="7.123">
        <ele>1439</ele>
        <time>2022-08-27T19:42:21Z</time>
      </trkpt>
      <trkpt lat="46.00806" lon="7.123">
        <ele>1439</ele>
        <time>2022-08-27T19:42:22Z</time>
      </trkpt>
      <trkpt lat="46.00806" lon="7.123">
        <ele>1439</ele>
        <time>2022-08-27T19:42:23Z</time>
      </trkpt>
      <trkpt lat="46.00807" lon="7.12301">
        <ele>1439</ele>
        <time>2022-08-27T19:42:24Z</time>
      </trkpt>
      <trkpt lat="46.00807" lon="7.12301">
        <ele>1439</ele>
        <time>2022-08-27T19:42:25Z</time>
      </trkpt>
      <trkpt lat="46.00807" lon="7.12301">
        <ele>1439</ele>
        <time>2022-08-27T19:42:26Z</time>
      </trkpt>
      <trkpt lat="46.00808" lon="7.12301">
        <ele>1439</ele>
        <time>2022-08-27T19:42:27Z</time>
      </trkpt>
      <trkpt lat="46.00808" lon="7.12301">
        <ele>1440</ele>
        <time>2022-08-27T19:42:28Z</time>
      </trkpt>
      <trkpt lat="46.00808" lon="7.12301">
        <ele>1440</ele>
        <time>2022-08-27T19:42:30Z</time>
      </trkpt>
      <trkpt lat="46.00809" lon="7.12301">
        <ele>1440</ele>
        <time>2022-08-27T19:42:32Z</time>
      </trkpt>
      <trkpt lat="46.00809" lon="7.12302">
        <ele>1440</ele>
        <time>2022-08-27T19:42:33Z</time>
      </trkpt>
      <trkpt lat="46.00809" lon="7.12302">
        <ele>1440</ele>
        <time>2022-08-27T19:42:34Z</time>
      </trkpt>
      <trkpt lat="46.0081" lon="7.12302">
        <ele>1440</ele>
        <time>2022-08-27T19:42:35Z</time>
      </trkpt>
      <trkpt lat="46.0081" lon="7.12302">
        <ele>1440</ele>
        <time>2022-08-27T19:42:36Z</time>
      </trkpt>
      <trkpt lat="46.0081" lon="7.12302">
        <ele>1440</ele>
        <time>2022-08-27T19:42:38Z</time>
      </trkpt>
      <trkpt lat="46.00811" lon="7.12302">
        <ele>1440</ele>
        <time>2022-08-27T19:42:39Z</time>
      </trkpt>
      <trkpt lat="46.00811" lon="7.12303">
        <ele>1440</ele>
        <time>2022-08-27T19:42:40Z</time>
      </trkpt>
      <trkpt lat="46.00811" lon="7.12303">
        <ele>1440</ele>
        <time>2022-08-27T19:42:41Z</time>
      </trkpt>
      <trkpt lat="46.00812" lon="7.12303">
        <ele>1440</ele>
        <time>2022-08-27T19:42:42Z</time>
      </trkpt>
      <trkpt lat="46.00812" lon="7.12303">
        <ele>1440</ele>
        <time>2022-08-27T19:42:43Z</time>
      </trkpt>
      <trkpt lat="46.00812" lon="7.12303">
        <ele>1440</ele>
        <time>2022-08-27T19:42:44Z</time>
      </trkpt>
      <trkpt lat="46.00813" lon="7.12303">
        <ele>1440</ele>
        <time>2022-08-27T19:42:45Z</time>
      </trkpt>
      <trkpt lat="46.00813" lon="7.12303">
        <ele>1440</ele>
        <time>2022-08-27T19:42:46Z</time>
      </trkpt>
      <trkpt lat="46.00813" lon="7.12304">
        <ele>1440</ele>
        <time>2022-08-27T19:42:47Z</time>
      </trkpt>
      <trkpt lat="46.00814" lon="7.12304">
        <ele>1440</ele>
        <time>2022-08-27T19:42:49Z</time>
      </trkpt>
      <trkpt lat="46.00814" lon="7.12304">
        <ele>1440</ele>
        <time>2022-08-27T19:42:50Z</time>
      </trkpt>
      <trkpt lat="46.00814" lon="7.12304">
        <ele>1440</ele>
        <time>2022-08-27T19:42:51Z</time>
      </trkpt>
      <trkpt lat="46.00815" lon="7.12304">
        <ele>1440</ele>
        <time>2022-08-27T19:42:52Z</time>
      </trkpt>
      <trkpt lat="46.00815" lon="7.12304">
        <ele>1440</ele>
        <time>2022-08-27T19:42:53Z</time>
      </trkpt>
      <trkpt lat="46.00814" lon="7.12304">
        <ele>1440</ele>
        <time>2022-08-27T19:42:54Z</time>
      </trkpt>
      <trkpt lat="46.00814" lon="7.12304">
        <ele>1440</ele>
        <time>2022-08-27T19:42:57Z</time>
      </trkpt>
      <trkpt lat="46.00814" lon="7.12304">
        <ele>1440</ele>
        <time>2022-08-27T19:42:59Z</time>
      </trkpt>
      <trkpt lat="46.00814" lon="7.12304">
        <ele>1440</ele>
        <time>2022-08-27T19:43:00Z</time>
      </trkpt>
      <trkpt lat="46.00814" lon="7.12304">
        <ele>1440</ele>
        <time>2022-08-27T19:43:02Z</time>
      </trkpt>
      <trkpt lat="46.00814" lon="7.12304">
        <ele>1440</ele>
        <time>2022-08-27T19:43:03Z</time>
      </trkpt>
      <trkpt lat="46.00814" lon="7.12304">
        <ele>1440</ele>
        <time>2022-08-27T19:43:05Z</time>
      </trkpt>
      <trkpt lat="46.00814" lon="7.12304">
        <ele>1440</ele>
        <time>2022-08-27T19:43:07Z</time>
      </trkpt>
      <trkpt lat="46.00814" lon="7.12304">
        <ele>1440</ele>
        <time>2022-08-27T19:43:08Z</time>
      </trkpt>
      <trkpt lat="46.00814" lon="7.12304">
        <ele>1440</ele>
        <time>2022-08-27T19:43:10Z</time>
      </trkpt>
      <trkpt lat="46.00813" lon="7.12304">
        <ele>1440</ele>
        <time>2022-08-27T19:43:12Z</time>
      </trkpt>
      <trkpt lat="46.00813" lon="7.12304">
        <ele>1440</ele>
        <time>2022-08-27T19:43:13Z</time>
      </trkpt>
      <trkpt lat="46.00813" lon="7.12304">
        <ele>1440</ele>
        <time>2022-08-27T19:43:16Z</time>
      </trkpt>
      <trkpt lat="46.00813" lon="7.12304">
        <ele>1439</ele>
        <time>2022-08-27T19:43:17Z</time>
      </trkpt>
      <trkpt lat="46.00813" lon="7.12304">
        <ele>1439</ele>
        <time>2022-08-27T19:43:19Z</time>
      </trkpt>
      <trkpt lat="46.00813" lon="7.12304">
        <ele>1440</ele>
        <time>2022-08-27T19:43:21Z</time>
      </trkpt>
      <trkpt lat="46.00813" lon="7.12304">
        <ele>1440</ele>
        <time>2022-08-27T19:43:22Z</time>
      </trkpt>
      <trkpt lat="46.00813" lon="7.12304">
        <ele>1440</ele>
        <time>2022-08-27T19:43:25Z</time>
      </trkpt>
      <trkpt lat="46.00813" lon="7.12304">
        <ele>1440</ele>
        <time>2022-08-27T19:43:26Z</time>
      </trkpt>
      <trkpt lat="46.00813" lon="7.12304">
        <ele>1440</ele>
        <time>2022-08-27T19:43:27Z</time>
      </trkpt>
      <trkpt lat="46.00813" lon="7.12304">
        <ele>1440</ele>
        <time>2022-08-27T19:43:28Z</time>
      </trkpt>
      <trkpt lat="46.00812" lon="7.12304">
        <ele>1440</ele>
        <time>2022-08-27T19:43:31Z</time>
      </trkpt>
      <trkpt lat="46.00812" lon="7.12304">
        <ele>1441</ele>
        <time>2022-08-27T19:43:32Z</time>
      </trkpt>
      <trkpt lat="46.00812" lon="7.12304">
        <ele>1441</ele>
        <time>2022-08-27T19:43:35Z</time>
      </trkpt>
      <trkpt lat="46.00812" lon="7.12304">
        <ele>1440</ele>
        <time>2022-08-27T19:43:38Z</time>
      </trkpt>
      <trkpt lat="46.00812" lon="7.12304">
        <ele>1440</ele>
        <time>2022-08-27T19:43:39Z</time>
      </trkpt>
      <trkpt lat="46.00812" lon="7.12304">
        <ele>1440</ele>
        <time>2022-08-27T19:43:41Z</time>
      </trkpt>
      <trkpt lat="46.00812" lon="7.12304">
        <ele>1440</ele>
        <time>2022-08-27T19:43:42Z</time>
      </trkpt>
      <trkpt lat="46.00812" lon="7.12304">
        <ele>1440</ele>
        <time>2022-08-27T19:43:44Z</time>
      </trkpt>
      <trkpt lat="46.00812" lon="7.12304">
        <ele>1440</ele>
        <time>2022-08-27T19:43:46Z</time>
      </trkpt>
      <trkpt lat="46.00812" lon="7.12304">
        <ele>1440</ele>
        <time>2022-08-27T19:43:47Z</time>
      </trkpt>
      <trkpt lat="46.00811" lon="7.12304">
        <ele>1440</ele>
        <time>2022-08-27T19:43:49Z</time>
      </trkpt>
      <trkpt lat="46.00811" lon="7.12304">
        <ele>1440</ele>
        <time>2022-08-27T19:43:51Z</time>
      </trkpt>
      <trkpt lat="46.00811" lon="7.12304">
        <ele>1440</ele>
        <time>2022-08-27T19:43:52Z</time>
      </trkpt>
      <trkpt lat="46.00811" lon="7.12304">
        <ele>1440</ele>
        <time>2022-08-27T19:43:55Z</time>
      </trkpt>
      <trkpt lat="46.00811" lon="7.12304">
        <ele>1440</ele>
        <time>2022-08-27T19:43:56Z</time>
      </trkpt>
      <trkpt lat="46.00811" lon="7.12304">
        <ele>1440</ele>
        <time>2022-08-27T19:43:58Z</time>
      </trkpt>
      <trkpt lat="46.00811" lon="7.12304">
        <ele>1440</ele>
        <time>2022-08-27T19:44:00Z</time>
      </trkpt>
      <trkpt lat="46.00811" lon="7.12304">
        <ele>1440</ele>
        <time>2022-08-27T19:44:01Z</time>
      </trkpt>
      <trkpt lat="46.00811" lon="7.12304">
        <ele>1440</ele>
        <time>2022-08-27T19:44:03Z</time>
      </trkpt>
      <trkpt lat="46.00811" lon="7.12304">
        <ele>1440</ele>
        <time>2022-08-27T19:44:05Z</time>
      </trkpt>
      <trkpt lat="46.0081" lon="7.12304">
        <ele>1440</ele>
        <time>2022-08-27T19:44:06Z</time>
      </trkpt>
      <trkpt lat="46.0081" lon="7.12304">
        <ele>1440</ele>
        <time>2022-08-27T19:44:08Z</time>
      </trkpt>
      <trkpt lat="46.0081" lon="7.12304">
        <ele>1440</ele>
        <time>2022-08-27T19:44:09Z</time>
      </trkpt>
      <trkpt lat="46.0081" lon="7.12304">
        <ele>1440</ele>
        <time>2022-08-27T19:44:11Z</time>
      </trkpt>
      <trkpt lat="46.0081" lon="7.12304">
        <ele>1440</ele>
        <time>2022-08-27T19:44:14Z</time>
      </trkpt>
      <trkpt lat="46.0081" lon="7.12304">
        <ele>1441</ele>
        <time>2022-08-27T19:44:15Z</time>
      </trkpt>
      <trkpt lat="46.0081" lon="7.12304">
        <ele>1441</ele>
        <time>2022-08-27T19:44:17Z</time>
      </trkpt>
      <trkpt lat="46.0081" lon="7.12304">
        <ele>1441</ele>
        <time>2022-08-27T19:44:18Z</time>
      </trkpt>
      <trkpt lat="46.0081" lon="7.12304">
        <ele>1441</ele>
        <time>2022-08-27T19:44:20Z</time>
      </trkpt>
      <trkpt lat="46.0081" lon="7.12304">
        <ele>1440</ele>
        <time>2022-08-27T19:44:22Z</time>
      </trkpt>
      <trkpt lat="46.00809" lon="7.12304">
        <ele>1440</ele>
        <time>2022-08-27T19:44:23Z</time>
      </trkpt>
      <trkpt lat="46.00809" lon="7.12304">
        <ele>1440</ele>
        <time>2022-08-27T19:44:25Z</time>
      </trkpt>
      <trkpt lat="46.00809" lon="7.12304">
        <ele>1440</ele>
        <time>2022-08-27T19:44:27Z</time>
      </trkpt>
      <trkpt lat="46.00809" lon="7.12304">
        <ele>1440</ele>
        <time>2022-08-27T19:44:28Z</time>
      </trkpt>
      <trkpt lat="46.00809" lon="7.12304">
        <ele>1440</ele>
        <time>2022-08-27T19:44:30Z</time>
      </trkpt>
      <trkpt lat="46.00809" lon="7.12304">
        <ele>1440</ele>
        <time>2022-08-27T19:44:32Z</time>
      </trkpt>
      <trkpt lat="46.00809" lon="7.12304">
        <ele>1440</ele>
        <time>2022-08-27T19:44:34Z</time>
      </trkpt>
      <trkpt lat="46.00809" lon="7.12304">
        <ele>1440</ele>
        <time>2022-08-27T19:44:37Z</time>
      </trkpt>
      <trkpt lat="46.00809" lon="7.12305">
        <ele>1441</ele>
        <time>2022-08-27T19:44:38Z</time>
      </trkpt>
      <trkpt lat="46.00809" lon="7.12305">
        <ele>1441</ele>
        <time>2022-08-27T19:44:40Z</time>
      </trkpt>
      <trkpt lat="46.00808" lon="7.12305">
        <ele>1441</ele>
        <time>2022-08-27T19:44:42Z</time>
      </trkpt>
      <trkpt lat="46.00808" lon="7.12305">
        <ele>1441</ele>
        <time>2022-08-27T19:44:43Z</time>
      </trkpt>
      <trkpt lat="46.00808" lon="7.12305">
        <ele>1441</ele>
        <time>2022-08-27T19:44:45Z</time>
      </trkpt>
      <trkpt lat="46.00808" lon="7.12305">
        <ele>1441</ele>
        <time>2022-08-27T19:44:46Z</time>
      </trkpt>
      <trkpt lat="46.00808" lon="7.12305">
        <ele>1441</ele>
        <time>2022-08-27T19:44:49Z</time>
      </trkpt>
      <trkpt lat="46.00808" lon="7.12305">
        <ele>1441</ele>
        <time>2022-08-27T19:44:52Z</time>
      </trkpt>
      <trkpt lat="46.00808" lon="7.12305">
        <ele>1441</ele>
        <time>2022-08-27T19:44:53Z</time>
      </trkpt>
      <trkpt lat="46.00808" lon="7.12305">
        <ele>1440</ele>
        <time>2022-08-27T19:44:56Z</time>
      </trkpt>
      <trkpt lat="46.00808" lon="7.12305">
        <ele>1440</ele>
        <time>2022-08-27T19:44:57Z</time>
      </trkpt>
      <trkpt lat="46.00808" lon="7.12305">
        <ele>1440</ele>
        <time>2022-08-27T19:44:59Z</time>
      </trkpt>
      <trkpt lat="46.00807" lon="7.12305">
        <ele>1440</ele>
        <time>2022-08-27T19:45:01Z</time>
      </trkpt>
      <trkpt lat="46.00807" lon="7.12305">
        <ele>1440</ele>
        <time>2022-08-27T19:45:02Z</time>
      </trkpt>
      <trkpt lat="46.00807" lon="7.12305">
        <ele>1440</ele>
        <time>2022-08-27T19:45:04Z</time>
      </trkpt>
      <trkpt lat="46.00807" lon="7.12305">
        <ele>1441</ele>
        <time>2022-08-27T19:45:06Z</time>
      </trkpt>
      <trkpt lat="46.00807" lon="7.12305">
        <ele>1441</ele>
        <time>2022-08-27T19:45:07Z</time>
      </trkpt>
      <trkpt lat="46.00807" lon="7.12305">
        <ele>1441</ele>
        <time>2022-08-27T19:45:10Z</time>
      </trkpt>
      <trkpt lat="46.00807" lon="7.12305">
        <ele>1441</ele>
        <time>2022-08-27T19:45:11Z</time>
      </trkpt>
      <trkpt lat="46.00807" lon="7.12305">
        <ele>1440</ele>
        <time>2022-08-27T19:45:14Z</time>
      </trkpt>
      <trkpt lat="46.00807" lon="7.12305">
        <ele>1440</ele>
        <time>2022-08-27T19:45:16Z</time>
      </trkpt>
      <trkpt lat="46.00807" lon="7.12305">
        <ele>1440</ele>
        <time>2022-08-27T19:45:17Z</time>
      </trkpt>
      <trkpt lat="46.00806" lon="7.12305">
        <ele>1441</ele>
        <time>2022-08-27T19:45:20Z</time>
      </trkpt>
      <trkpt lat="46.00806" lon="7.12305">
        <ele>1440</ele>
        <time>2022-08-27T19:45:22Z</time>
      </trkpt>
      <trkpt lat="46.00806" lon="7.12305">
        <ele>1440</ele>
        <time>2022-08-27T19:45:24Z</time>
      </trkpt>
      <trkpt lat="46.00806" lon="7.12305">
        <ele>1441</ele>
        <time>2022-08-27T19:45:26Z</time>
      </trkpt>
      <trkpt lat="46.00806" lon="7.12305">
        <ele>1441</ele>
        <time>2022-08-27T19:45:27Z</time>
      </trkpt>
      <trkpt lat="46.00806" lon="7.12305">
        <ele>1441</ele>
        <time>2022-08-27T19:45:31Z</time>
      </trkpt>
      <trkpt lat="46.00806" lon="7.12305">
        <ele>1440</ele>
        <time>2022-08-27T19:45:33Z</time>
      </trkpt>
      <trkpt lat="46.00806" lon="7.12305">
        <ele>1440</ele>
        <time>2022-08-27T19:45:34Z</time>
      </trkpt>
      <trkpt lat="46.00806" lon="7.12305">
        <ele>1440</ele>
        <time>2022-08-27T19:45:36Z</time>
      </trkpt>
      <trkpt lat="46.00806" lon="7.12305">
        <ele>1440</ele>
        <time>2022-08-27T19:45:38Z</time>
      </trkpt>
      <trkpt lat="46.00805" lon="7.12305">
        <ele>1440</ele>
        <time>2022-08-27T19:45:39Z</time>
      </trkpt>
      <trkpt lat="46.00805" lon="7.12305">
        <ele>1440</ele>
        <time>2022-08-27T19:45:41Z</time>
      </trkpt>
      <trkpt lat="46.00805" lon="7.12305">
        <ele>1440</ele>
        <time>2022-08-27T19:45:42Z</time>
      </trkpt>
      <trkpt lat="46.00805" lon="7.12305">
        <ele>1440</ele>
        <time>2022-08-27T19:45:44Z</time>
      </trkpt>
      <trkpt lat="46.00805" lon="7.12305">
        <ele>1440</ele>
        <time>2022-08-27T19:45:46Z</time>
      </trkpt>
      <trkpt lat="46.00805" lon="7.12305">
        <ele>1441</ele>
        <time>2022-08-27T19:45:48Z</time>
      </trkpt>
      <trkpt lat="46.00805" lon="7.12305">
        <ele>1441</ele>
        <time>2022-08-27T19:45:50Z</time>
      </trkpt>
      <trkpt lat="46.00805" lon="7.12305">
        <ele>1441</ele>
        <time>2022-08-27T19:45:51Z</time>
      </trkpt>
      <trkpt lat="46.00805" lon="7.12305">
        <ele>1441</ele>
        <time>2022-08-27T19:45:53Z</time>
      </trkpt>
      <trkpt lat="46.00805" lon="7.12305">
        <ele>1441</ele>
        <time>2022-08-27T19:45:54Z</time>
      </trkpt>
      <trkpt lat="46.00805" lon="7.12305">
        <ele>1441</ele>
        <time>2022-08-27T19:45:56Z</time>
      </trkpt>
      <trkpt lat="46.00804" lon="7.12305">
        <ele>1441</ele>
        <time>2022-08-27T19:45:57Z</time>
      </trkpt>
      <trkpt lat="46.00804" lon="7.12305">
        <ele>1441</ele>
        <time>2022-08-27T19:46:00Z</time>
      </trkpt>
      <trkpt lat="46.00804" lon="7.12305">
        <ele>1440</ele>
        <time>2022-08-27T19:46:02Z</time>
      </trkpt>
      <trkpt lat="46.00804" lon="7.12305">
        <ele>1440</ele>
        <time>2022-08-27T19:46:03Z</time>
      </trkpt>
      <trkpt lat="46.00804" lon="7.12305">
        <ele>1440</ele>
        <time>2022-08-27T19:46:06Z</time>
      </trkpt>
      <trkpt lat="46.00804" lon="7.12305">
        <ele>1440</ele>
        <time>2022-08-27T19:46:07Z</time>
      </trkpt>
      <trkpt lat="46.00804" lon="7.12305">
        <ele>1440</ele>
        <time>2022-08-27T19:46:10Z</time>
      </trkpt>
      <trkpt lat="46.00804" lon="7.12304">
        <ele>1441</ele>
        <time>2022-08-27T19:46:12Z</time>
      </trkpt>
      <trkpt lat="46.00803" lon="7.12304">
        <ele>1442</ele>
        <time>2022-08-27T19:46:13Z</time>
      </trkpt>
      <trkpt lat="46.00803" lon="7.12303">
        <ele>1442</ele>
        <time>2022-08-27T19:46:14Z</time>
      </trkpt>
      <trkpt lat="46.00803" lon="7.12303">
        <ele>1442</ele>
        <time>2022-08-27T19:46:16Z</time>
      </trkpt>
      <trkpt lat="46.00803" lon="7.12303">
        <ele>1442</ele>
        <time>2022-08-27T19:46:17Z</time>
      </trkpt>
      <trkpt lat="46.00803" lon="7.12302">
        <ele>1442</ele>
        <time>2022-08-27T19:46:18Z</time>
      </trkpt>
      <trkpt lat="46.00802" lon="7.12302">
        <ele>1442</ele>
        <time>2022-08-27T19:46:19Z</time>
      </trkpt>
      <trkpt lat="46.00802" lon="7.12301">
        <ele>1441</ele>
        <time>2022-08-27T19:46:21Z</time>
      </trkpt>
      <trkpt lat="46.00802" lon="7.12301">
        <ele>1441</ele>
        <time>2022-08-27T19:46:22Z</time>
      </trkpt>
      <trkpt lat="46.00802" lon="7.123">
        <ele>1441</ele>
        <time>2022-08-27T19:46:23Z</time>
      </trkpt>
      <trkpt lat="46.00801" lon="7.123">
        <ele>1441</ele>
        <time>2022-08-27T19:46:24Z</time>
      </trkpt>
      <trkpt lat="46.00801" lon="7.123">
        <ele>1441</ele>
        <time>2022-08-27T19:46:26Z</time>
      </trkpt>
      <trkpt lat="46.00801" lon="7.12299">
        <ele>1441</ele>
        <time>2022-08-27T19:46:28Z</time>
      </trkpt>
      <trkpt lat="46.00801" lon="7.12299">
        <ele>1441</ele>
        <time>2022-08-27T19:46:29Z</time>
      </trkpt>
      <trkpt lat="46.00801" lon="7.12298">
        <ele>1441</ele>
        <time>2022-08-27T19:46:30Z</time>
      </trkpt>
      <trkpt lat="46.008" lon="7.12298">
        <ele>1441</ele>
        <time>2022-08-27T19:46:31Z</time>
      </trkpt>
      <trkpt lat="46.008" lon="7.12297">
        <ele>1441</ele>
        <time>2022-08-27T19:46:33Z</time>
      </trkpt>
      <trkpt lat="46.008" lon="7.12297">
        <ele>1441</ele>
        <time>2022-08-27T19:46:34Z</time>
      </trkpt>
      <trkpt lat="46.008" lon="7.12297">
        <ele>1441</ele>
        <time>2022-08-27T19:46:35Z</time>
      </trkpt>
      <trkpt lat="46.008" lon="7.12296">
        <ele>1441</ele>
        <time>2022-08-27T19:46:36Z</time>
      </trkpt>
      <trkpt lat="46.00799" lon="7.12296">
        <ele>1441</ele>
        <time>2022-08-27T19:46:38Z</time>
      </trkpt>
      <trkpt lat="46.00799" lon="7.12295">
        <ele>1441</ele>
        <time>2022-08-27T19:46:39Z</time>
      </trkpt>
      <trkpt lat="46.00799" lon="7.12295">
        <ele>1441</ele>
        <time>2022-08-27T19:46:40Z</time>
      </trkpt>
      <trkpt lat="46.00799" lon="7.12294">
        <ele>1441</ele>
        <time>2022-08-27T19:46:41Z</time>
      </trkpt>
      <trkpt lat="46.00799" lon="7.12294">
        <ele>1441</ele>
        <time>2022-08-27T19:46:43Z</time>
      </trkpt>
      <trkpt lat="46.00798" lon="7.12293">
        <ele>1442</ele>
        <time>2022-08-27T19:46:45Z</time>
      </trkpt>
      <trkpt lat="46.00798" lon="7.12293">
        <ele>1442</ele>
        <time>2022-08-27T19:46:46Z</time>
      </trkpt>
      <trkpt lat="46.00799" lon="7.12294">
        <ele>1442</ele>
        <time>2022-08-27T19:46:47Z</time>
      </trkpt>
      <trkpt lat="46.008" lon="7.12295">
        <ele>1442</ele>
        <time>2022-08-27T19:46:49Z</time>
      </trkpt>
      <trkpt lat="46.00801" lon="7.12296">
        <ele>1441</ele>
        <time>2022-08-27T19:46:50Z</time>
      </trkpt>
      <trkpt lat="46.00802" lon="7.12297">
        <ele>1441</ele>
        <time>2022-08-27T19:46:51Z</time>
      </trkpt>
      <trkpt lat="46.00803" lon="7.12298">
        <ele>1441</ele>
        <time>2022-08-27T19:46:52Z</time>
      </trkpt>
      <trkpt lat="46.00803" lon="7.12299">
        <ele>1441</ele>
        <time>2022-08-27T19:46:54Z</time>
      </trkpt>
      <trkpt lat="46.00804" lon="7.123">
        <ele>1441</ele>
        <time>2022-08-27T19:46:55Z</time>
      </trkpt>
      <trkpt lat="46.00805" lon="7.12301">
        <ele>1441</ele>
        <time>2022-08-27T19:46:56Z</time>
      </trkpt>
      <trkpt lat="46.00806" lon="7.12301">
        <ele>1442</ele>
        <time>2022-08-27T19:46:57Z</time>
      </trkpt>
      <trkpt lat="46.00815" lon="7.12304">
        <ele>1442</ele>
        <time>2022-08-27T19:47:04Z</time>
      </trkpt>
      <trkpt lat="46.00817" lon="7.12304">
        <ele>1442</ele>
        <time>2022-08-27T19:47:05Z</time>
      </trkpt>
      <trkpt lat="46.00818" lon="7.12305">
        <ele>1442</ele>
        <time>2022-08-27T19:47:07Z</time>
      </trkpt>
      <trkpt lat="46.0082" lon="7.12305">
        <ele>1442</ele>
        <time>2022-08-27T19:47:09Z</time>
      </trkpt>
      <trkpt lat="46.00821" lon="7.12305">
        <ele>1442</ele>
        <time>2022-08-27T19:47:10Z</time>
      </trkpt>
      <trkpt lat="46.00823" lon="7.12305">
        <ele>1442</ele>
        <time>2022-08-27T19:47:11Z</time>
      </trkpt>
      <trkpt lat="46.00824" lon="7.12306">
        <ele>1442</ele>
        <time>2022-08-27T19:47:12Z</time>
      </trkpt>
      <trkpt lat="46.00826" lon="7.12306">
        <ele>1442</ele>
        <time>2022-08-27T19:47:13Z</time>
      </trkpt>
      <trkpt lat="46.00828" lon="7.12307">
        <ele>1442</ele>
        <time>2022-08-27T19:47:15Z</time>
      </trkpt>
      <trkpt lat="46.00831" lon="7.12308">
        <ele>1442</ele>
        <time>2022-08-27T19:47:17Z</time>
      </trkpt>
      <trkpt lat="46.00833" lon="7.12309">
        <ele>1442</ele>
        <time>2022-08-27T19:47:18Z</time>
      </trkpt>
      <trkpt lat="46.00834" lon="7.1231">
        <ele>1442</ele>
        <time>2022-08-27T19:47:19Z</time>
      </trkpt>
      <trkpt lat="46.00836" lon="7.1231">
        <ele>1442</ele>
        <time>2022-08-27T19:47:20Z</time>
      </trkpt>
      <trkpt lat="46.00838" lon="7.12311">
        <ele>1441</ele>
        <time>2022-08-27T19:47:22Z</time>
      </trkpt>
      <trkpt lat="46.00839" lon="7.12312">
        <ele>1441</ele>
        <time>2022-08-27T19:47:23Z</time>
      </trkpt>
      <trkpt lat="46.00841" lon="7.12313">
        <ele>1441</ele>
        <time>2022-08-27T19:47:24Z</time>
      </trkpt>
      <trkpt lat="46.00842" lon="7.12314">
        <ele>1441</ele>
        <time>2022-08-27T19:47:25Z</time>
      </trkpt>
      <trkpt lat="46.00844" lon="7.12314">
        <ele>1442</ele>
        <time>2022-08-27T19:47:27Z</time>
      </trkpt>
      <trkpt lat="46.00845" lon="7.12314">
        <ele>1442</ele>
        <time>2022-08-27T19:47:28Z</time>
      </trkpt>
      <trkpt lat="46.00847" lon="7.12314">
        <ele>1442</ele>
        <time>2022-08-27T19:47:29Z</time>
      </trkpt>
      <trkpt lat="46.00849" lon="7.12315">
        <ele>1442</ele>
        <time>2022-08-27T19:47:30Z</time>
      </trkpt>
      <trkpt lat="46.0085" lon="7.12315">
        <ele>1442</ele>
        <time>2022-08-27T19:47:32Z</time>
      </trkpt>
      <trkpt lat="46.00852" lon="7.12315">
        <ele>1442</ele>
        <time>2022-08-27T19:47:33Z</time>
      </trkpt>
      <trkpt lat="46.00853" lon="7.12316">
        <ele>1442</ele>
        <time>2022-08-27T19:47:34Z</time>
      </trkpt>
      <trkpt lat="46.00855" lon="7.12317">
        <ele>1442</ele>
        <time>2022-08-27T19:47:35Z</time>
      </trkpt>
      <trkpt lat="46.00856" lon="7.12318">
        <ele>1442</ele>
        <time>2022-08-27T19:47:37Z</time>
      </trkpt>
      <trkpt lat="46.00858" lon="7.12319">
        <ele>1442</ele>
        <time>2022-08-27T19:47:38Z</time>
      </trkpt>
      <trkpt lat="46.00859" lon="7.1232">
        <ele>1442</ele>
        <time>2022-08-27T19:47:39Z</time>
      </trkpt>
      <trkpt lat="46.00861" lon="7.1232">
        <ele>1443</ele>
        <time>2022-08-27T19:47:40Z</time>
      </trkpt>
      <trkpt lat="46.00862" lon="7.12321">
        <ele>1443</ele>
        <time>2022-08-27T19:47:42Z</time>
      </trkpt>
      <trkpt lat="46.00863" lon="7.12322">
        <ele>1443</ele>
        <time>2022-08-27T19:47:44Z</time>
      </trkpt>
      <trkpt lat="46.00865" lon="7.12323">
        <ele>1443</ele>
        <time>2022-08-27T19:47:45Z</time>
      </trkpt>
      <trkpt lat="46.00866" lon="7.12323">
        <ele>1443</ele>
        <time>2022-08-27T19:47:46Z</time>
      </trkpt>
      <trkpt lat="46.00867" lon="7.12324">
        <ele>1443</ele>
        <time>2022-08-27T19:47:47Z</time>
      </trkpt>
      <trkpt lat="46.00868" lon="7.12325">
        <ele>1444</ele>
        <time>2022-08-27T19:47:49Z</time>
      </trkpt>
      <trkpt lat="46.0087" lon="7.12326">
        <ele>1445</ele>
        <time>2022-08-27T19:47:50Z</time>
      </trkpt>
      <trkpt lat="46.0087" lon="7.12326">
        <ele>1445</ele>
        <time>2022-08-27T19:47:51Z</time>
      </trkpt>
      <trkpt lat="46.0087" lon="7.12326">
        <ele>1445</ele>
        <time>2022-08-27T19:47:52Z</time>
      </trkpt>
      <trkpt lat="46.00871" lon="7.12326">
        <ele>1445</ele>
        <time>2022-08-27T19:47:53Z</time>
      </trkpt>
      <trkpt lat="46.00871" lon="7.12326">
        <ele>1446</ele>
        <time>2022-08-27T19:47:55Z</time>
      </trkpt>
      <trkpt lat="46.00872" lon="7.12326">
        <ele>1446</ele>
        <time>2022-08-27T19:47:56Z</time>
      </trkpt>
      <trkpt lat="46.00872" lon="7.12326">
        <ele>1446</ele>
        <time>2022-08-27T19:47:57Z</time>
      </trkpt>
      <trkpt lat="46.00873" lon="7.12326">
        <ele>1447</ele>
        <time>2022-08-27T19:47:58Z</time>
      </trkpt>
      <trkpt lat="46.00873" lon="7.12326">
        <ele>1447</ele>
        <time>2022-08-27T19:48:00Z</time>
      </trkpt>
      <trkpt lat="46.00873" lon="7.12327">
        <ele>1447</ele>
        <time>2022-08-27T19:48:01Z</time>
      </trkpt>
      <trkpt lat="46.00874" lon="7.12327">
        <ele>1448</ele>
        <time>2022-08-27T19:48:02Z</time>
      </trkpt>
      <trkpt lat="46.00874" lon="7.12327">
        <ele>1448</ele>
        <time>2022-08-27T19:48:03Z</time>
      </trkpt>
      <trkpt lat="46.00875" lon="7.12327">
        <ele>1448</ele>
        <time>2022-08-27T19:48:05Z</time>
      </trkpt>
      <trkpt lat="46.00875" lon="7.12327">
        <ele>1448</ele>
        <time>2022-08-27T19:48:06Z</time>
      </trkpt>
      <trkpt lat="46.00876" lon="7.12327">
        <ele>1448</ele>
        <time>2022-08-27T19:48:07Z</time>
      </trkpt>
      <trkpt lat="46.00876" lon="7.12327">
        <ele>1449</ele>
        <time>2022-08-27T19:48:08Z</time>
      </trkpt>
      <trkpt lat="46.00876" lon="7.12327">
        <ele>1449</ele>
        <time>2022-08-27T19:48:10Z</time>
      </trkpt>
      <trkpt lat="46.00877" lon="7.12327">
        <ele>1449</ele>
        <time>2022-08-27T19:48:11Z</time>
      </trkpt>
      <trkpt lat="46.00877" lon="7.12327">
        <ele>1449</ele>
        <time>2022-08-27T19:48:12Z</time>
      </trkpt>
      <trkpt lat="46.00878" lon="7.12328">
        <ele>1450</ele>
        <time>2022-08-27T19:48:13Z</time>
      </trkpt>
      <trkpt lat="46.00878" lon="7.12328">
        <ele>1450</ele>
        <time>2022-08-27T19:48:14Z</time>
      </trkpt>
      <trkpt lat="46.00879" lon="7.12328">
        <ele>1450</ele>
        <time>2022-08-27T19:48:15Z</time>
      </trkpt>
      <trkpt lat="46.00888" lon="7.12328">
        <ele>1452</ele>
        <time>2022-08-27T19:48:27Z</time>
      </trkpt>
      <trkpt lat="46.00889" lon="7.12329">
        <ele>1452</ele>
        <time>2022-08-27T19:48:28Z</time>
      </trkpt>
      <trkpt lat="46.0089" lon="7.12329">
        <ele>1452</ele>
        <time>2022-08-27T19:48:29Z</time>
      </trkpt>
      <trkpt lat="46.00891" lon="7.12329">
        <ele>1452</ele>
        <time>2022-08-27T19:48:30Z</time>
      </trkpt>
      <trkpt lat="46.00892" lon="7.12329">
        <ele>1452</ele>
        <time>2022-08-27T19:48:32Z</time>
      </trkpt>
      <trkpt lat="46.00893" lon="7.12329">
        <ele>1452</ele>
        <time>2022-08-27T19:48:34Z</time>
      </trkpt>
      <trkpt lat="46.00893" lon="7.1233">
        <ele>1452</ele>
        <time>2022-08-27T19:48:35Z</time>
      </trkpt>
      <trkpt lat="46.00894" lon="7.1233">
        <ele>1452</ele>
        <time>2022-08-27T19:48:36Z</time>
      </trkpt>
      <trkpt lat="46.00895" lon="7.1233">
        <ele>1453</ele>
        <time>2022-08-27T19:48:37Z</time>
      </trkpt>
      <trkpt lat="46.00896" lon="7.1233">
        <ele>1453</ele>
        <time>2022-08-27T19:48:39Z</time>
      </trkpt>
      <trkpt lat="46.00897" lon="7.12331">
        <ele>1453</ele>
        <time>2022-08-27T19:48:40Z</time>
      </trkpt>
      <trkpt lat="46.00906" lon="7.12335">
        <ele>1456</ele>
        <time>2022-08-27T19:48:52Z</time>
      </trkpt>
      <trkpt lat="46.00907" lon="7.12336">
        <ele>1456</ele>
        <time>2022-08-27T19:48:53Z</time>
      </trkpt>
      <trkpt lat="46.00907" lon="7.12337">
        <ele>1457</ele>
        <time>2022-08-27T19:48:54Z</time>
      </trkpt>
      <trkpt lat="46.00908" lon="7.12338">
        <ele>1457</ele>
        <time>2022-08-27T19:48:55Z</time>
      </trkpt>
      <trkpt lat="46.00908" lon="7.12338">
        <ele>1457</ele>
        <time>2022-08-27T19:48:56Z</time>
      </trkpt>
      <trkpt lat="46.00909" lon="7.12339">
        <ele>1457</ele>
        <time>2022-08-27T19:48:58Z</time>
      </trkpt>
      <trkpt lat="46.00909" lon="7.1234">
        <ele>1457</ele>
        <time>2022-08-27T19:48:59Z</time>
      </trkpt>
      <trkpt lat="46.0091" lon="7.12341">
        <ele>1457</ele>
        <time>2022-08-27T19:49:01Z</time>
      </trkpt>
      <trkpt lat="46.0091" lon="7.12341">
        <ele>1457</ele>
        <time>2022-08-27T19:49:02Z</time>
      </trkpt>
      <trkpt lat="46.00911" lon="7.12342">
        <ele>1458</ele>
        <time>2022-08-27T19:49:03Z</time>
      </trkpt>
      <trkpt lat="46.00912" lon="7.12343">
        <ele>1458</ele>
        <time>2022-08-27T19:49:04Z</time>
      </trkpt>
      <trkpt lat="46.00912" lon="7.12344">
        <ele>1458</ele>
        <time>2022-08-27T19:49:05Z</time>
      </trkpt>
      <trkpt lat="46.00913" lon="7.12345">
        <ele>1459</ele>
        <time>2022-08-27T19:49:06Z</time>
      </trkpt>
      <trkpt lat="46.00913" lon="7.12345">
        <ele>1459</ele>
        <time>2022-08-27T19:49:07Z</time>
      </trkpt>
      <trkpt lat="46.00914" lon="7.12345">
        <ele>1459</ele>
        <time>2022-08-27T19:49:08Z</time>
      </trkpt>
      <trkpt lat="46.00915" lon="7.12345">
        <ele>1459</ele>
        <time>2022-08-27T19:49:09Z</time>
      </trkpt>
      <trkpt lat="46.00915" lon="7.12345">
        <ele>1459</ele>
        <time>2022-08-27T19:49:11Z</time>
      </trkpt>
      <trkpt lat="46.00916" lon="7.12345">
        <ele>1460</ele>
        <time>2022-08-27T19:49:12Z</time>
      </trkpt>
      <trkpt lat="46.00917" lon="7.12345">
        <ele>1460</ele>
        <time>2022-08-27T19:49:13Z</time>
      </trkpt>
      <trkpt lat="46.00917" lon="7.12345">
        <ele>1460</ele>
        <time>2022-08-27T19:49:14Z</time>
      </trkpt>
      <trkpt lat="46.00918" lon="7.12345">
        <ele>1460</ele>
        <time>2022-08-27T19:49:16Z</time>
      </trkpt>
      <trkpt lat="46.00919" lon="7.12346">
        <ele>1461</ele>
        <time>2022-08-27T19:49:17Z</time>
      </trkpt>
      <trkpt lat="46.00919" lon="7.12346">
        <ele>1461</ele>
        <time>2022-08-27T19:49:18Z</time>
      </trkpt>
      <trkpt lat="46.0092" lon="7.12346">
        <ele>1462</ele>
        <time>2022-08-27T19:49:19Z</time>
      </trkpt>
      <trkpt lat="46.00921" lon="7.12346">
        <ele>1462</ele>
        <time>2022-08-27T19:49:20Z</time>
      </trkpt>
      <trkpt lat="46.00922" lon="7.12346">
        <ele>1462</ele>
        <time>2022-08-27T19:49:21Z</time>
      </trkpt>
      <trkpt lat="46.00922" lon="7.12346">
        <ele>1462</ele>
        <time>2022-08-27T19:49:22Z</time>
      </trkpt>
      <trkpt lat="46.00923" lon="7.12346">
        <ele>1462</ele>
        <time>2022-08-27T19:49:23Z</time>
      </trkpt>
      <trkpt lat="46.00924" lon="7.12346">
        <ele>1462</ele>
        <time>2022-08-27T19:49:24Z</time>
      </trkpt>
      <trkpt lat="46.00924" lon="7.12347">
        <ele>1463</ele>
        <time>2022-08-27T19:49:26Z</time>
      </trkpt>
      <trkpt lat="46.00925" lon="7.12347">
        <ele>1463</ele>
        <time>2022-08-27T19:49:27Z</time>
      </trkpt>
      <trkpt lat="46.00926" lon="7.12347">
        <ele>1463</ele>
        <time>2022-08-27T19:49:28Z</time>
      </trkpt>
      <trkpt lat="46.00927" lon="7.12347">
        <ele>1464</ele>
        <time>2022-08-27T19:49:29Z</time>
      </trkpt>
      <trkpt lat="46.00927" lon="7.12347">
        <ele>1464</ele>
        <time>2022-08-27T19:49:31Z</time>
      </trkpt>
      <trkpt lat="46.00928" lon="7.12347">
        <ele>1464</ele>
        <time>2022-08-27T19:49:33Z</time>
      </trkpt>
      <trkpt lat="46.00929" lon="7.12348">
        <ele>1464</ele>
        <time>2022-08-27T19:49:34Z</time>
      </trkpt>
      <trkpt lat="46.00929" lon="7.12348">
        <ele>1465</ele>
        <time>2022-08-27T19:49:36Z</time>
      </trkpt>
      <trkpt lat="46.0093" lon="7.12348">
        <ele>1465</ele>
        <time>2022-08-27T19:49:38Z</time>
      </trkpt>
      <trkpt lat="46.00931" lon="7.12348">
        <ele>1465</ele>
        <time>2022-08-27T19:49:39Z</time>
      </trkpt>
      <trkpt lat="46.00932" lon="7.12348">
        <ele>1465</ele>
        <time>2022-08-27T19:49:40Z</time>
      </trkpt>
      <trkpt lat="46.00933" lon="7.12349">
        <ele>1466</ele>
        <time>2022-08-27T19:49:41Z</time>
      </trkpt>
      <trkpt lat="46.00934" lon="7.12349">
        <ele>1466</ele>
        <time>2022-08-27T19:49:43Z</time>
      </trkpt>
      <trkpt lat="46.00935" lon="7.1235">
        <ele>1466</ele>
        <time>2022-08-27T19:49:44Z</time>
      </trkpt>
      <trkpt lat="46.00936" lon="7.1235">
        <ele>1466</ele>
        <time>2022-08-27T19:49:45Z</time>
      </trkpt>
      <trkpt lat="46.00937" lon="7.1235">
        <ele>1467</ele>
        <time>2022-08-27T19:49:46Z</time>
      </trkpt>
      <trkpt lat="46.00938" lon="7.12351">
        <ele>1467</ele>
        <time>2022-08-27T19:49:48Z</time>
      </trkpt>
      <trkpt lat="46.00939" lon="7.12351">
        <ele>1467</ele>
        <time>2022-08-27T19:49:50Z</time>
      </trkpt>
      <trkpt lat="46.0094" lon="7.12351">
        <ele>1467</ele>
        <time>2022-08-27T19:49:51Z</time>
      </trkpt>
      <trkpt lat="46.00941" lon="7.12351">
        <ele>1467</ele>
        <time>2022-08-27T19:49:52Z</time>
      </trkpt>
      <trkpt lat="46.00942" lon="7.12351">
        <ele>1467</ele>
        <time>2022-08-27T19:49:53Z</time>
      </trkpt>
      <trkpt lat="46.00943" lon="7.12351">
        <ele>1467</ele>
        <time>2022-08-27T19:49:55Z</time>
      </trkpt>
      <trkpt lat="46.00944" lon="7.12351">
        <ele>1468</ele>
        <time>2022-08-27T19:49:57Z</time>
      </trkpt>
      <trkpt lat="46.00945" lon="7.1235">
        <ele>1468</ele>
        <time>2022-08-27T19:49:58Z</time>
      </trkpt>
      <trkpt lat="46.00947" lon="7.1235">
        <ele>1468</ele>
        <time>2022-08-27T19:49:59Z</time>
      </trkpt>
      <trkpt lat="46.00948" lon="7.1235">
        <ele>1468</ele>
        <time>2022-08-27T19:50:00Z</time>
      </trkpt>
      <trkpt lat="46.00949" lon="7.1235">
        <ele>1468</ele>
        <time>2022-08-27T19:50:01Z</time>
      </trkpt>
      <trkpt lat="46.0095" lon="7.1235">
        <ele>1468</ele>
        <time>2022-08-27T19:50:02Z</time>
      </trkpt>
      <trkpt lat="46.0095" lon="7.1235">
        <ele>1473</ele>
        <time>2022-08-27T19:50:23Z</time>
      </trkpt>
      <trkpt lat="46.00956" lon="7.1234">
        <ele>1474</ele>
        <time>2022-08-27T19:50:28Z</time>
      </trkpt>
      <trkpt lat="46.00947" lon="7.12335">
        <ele>1477</ele>
        <time>2022-08-27T19:50:42Z</time>
      </trkpt>
      <trkpt lat="46.00947" lon="7.12334">
        <ele>1477</ele>
        <time>2022-08-27T19:50:45Z</time>
      </trkpt>
      <trkpt lat="46.00947" lon="7.12333">
        <ele>1477</ele>
        <time>2022-08-27T19:50:46Z</time>
      </trkpt>
      <trkpt lat="46.00947" lon="7.12332">
        <ele>1478</ele>
        <time>2022-08-27T19:50:47Z</time>
      </trkpt>
      <trkpt lat="46.00948" lon="7.12331">
        <ele>1478</ele>
        <time>2022-08-27T19:50:49Z</time>
      </trkpt>
      <trkpt lat="46.00948" lon="7.1233">
        <ele>1478</ele>
        <time>2022-08-27T19:50:50Z</time>
      </trkpt>
      <trkpt lat="46.00948" lon="7.12329">
        <ele>1479</ele>
        <time>2022-08-27T19:50:52Z</time>
      </trkpt>
      <trkpt lat="46.00948" lon="7.12328">
        <ele>1479</ele>
        <time>2022-08-27T19:50:53Z</time>
      </trkpt>
      <trkpt lat="46.00948" lon="7.12327">
        <ele>1479</ele>
        <time>2022-08-27T19:50:54Z</time>
      </trkpt>
      <trkpt lat="46.00948" lon="7.12326">
        <ele>1480</ele>
        <time>2022-08-27T19:50:56Z</time>
      </trkpt>
      <trkpt lat="46.00948" lon="7.12325">
        <ele>1480</ele>
        <time>2022-08-27T19:50:57Z</time>
      </trkpt>
      <trkpt lat="46.00948" lon="7.12324">
        <ele>1480</ele>
        <time>2022-08-27T19:50:58Z</time>
      </trkpt>
      <trkpt lat="46.00948" lon="7.12324">
        <ele>1480</ele>
        <time>2022-08-27T19:50:59Z</time>
      </trkpt>
      <trkpt lat="46.00948" lon="7.12323">
        <ele>1480</ele>
        <time>2022-08-27T19:51:01Z</time>
      </trkpt>
      <trkpt lat="46.00948" lon="7.12322">
        <ele>1481</ele>
        <time>2022-08-27T19:51:02Z</time>
      </trkpt>
      <trkpt lat="46.00946" lon="7.12309">
        <ele>1483</ele>
        <time>2022-08-27T19:51:21Z</time>
      </trkpt>
      <trkpt lat="46.00946" lon="7.12309">
        <ele>1484</ele>
        <time>2022-08-27T19:51:24Z</time>
      </trkpt>
      <trkpt lat="46.00944" lon="7.12295">
        <ele>1486</ele>
        <time>2022-08-27T19:51:39Z</time>
      </trkpt>
      <trkpt lat="46.00944" lon="7.12294">
        <ele>1486</ele>
        <time>2022-08-27T19:51:40Z</time>
      </trkpt>
      <trkpt lat="46.00945" lon="7.12293">
        <ele>1486</ele>
        <time>2022-08-27T19:51:41Z</time>
      </trkpt>
      <trkpt lat="46.00945" lon="7.12291">
        <ele>1486</ele>
        <time>2022-08-27T19:51:42Z</time>
      </trkpt>
      <trkpt lat="46.00945" lon="7.1229">
        <ele>1487</ele>
        <time>2022-08-27T19:51:44Z</time>
      </trkpt>
      <trkpt lat="46.00945" lon="7.12288">
        <ele>1488</ele>
        <time>2022-08-27T19:51:46Z</time>
      </trkpt>
      <trkpt lat="46.00945" lon="7.12287">
        <ele>1488</ele>
        <time>2022-08-27T19:51:47Z</time>
      </trkpt>
      <trkpt lat="46.00946" lon="7.12286">
        <ele>1488</ele>
        <time>2022-08-27T19:51:49Z</time>
      </trkpt>
      <trkpt lat="46.00946" lon="7.12284">
        <ele>1488</ele>
        <time>2022-08-27T19:51:51Z</time>
      </trkpt>
      <trkpt lat="46.00946" lon="7.12283">
        <ele>1488</ele>
        <time>2022-08-27T19:51:52Z</time>
      </trkpt>
      <trkpt lat="46.00946" lon="7.12282">
        <ele>1488</ele>
        <time>2022-08-27T19:51:53Z</time>
      </trkpt>
      <trkpt lat="46.00947" lon="7.12281">
        <ele>1488</ele>
        <time>2022-08-27T19:51:54Z</time>
      </trkpt>
      <trkpt lat="46.00948" lon="7.1228">
        <ele>1489</ele>
        <time>2022-08-27T19:51:56Z</time>
      </trkpt>
      <trkpt lat="46.00949" lon="7.12279">
        <ele>1489</ele>
        <time>2022-08-27T19:51:58Z</time>
      </trkpt>
      <trkpt lat="46.00949" lon="7.12279">
        <ele>1490</ele>
        <time>2022-08-27T19:51:59Z</time>
      </trkpt>
      <trkpt lat="46.0095" lon="7.12278">
        <ele>1490</ele>
        <time>2022-08-27T19:52:00Z</time>
      </trkpt>
      <trkpt lat="46.00951" lon="7.12277">
        <ele>1490</ele>
        <time>2022-08-27T19:52:01Z</time>
      </trkpt>
      <trkpt lat="46.00952" lon="7.12276">
        <ele>1490</ele>
        <time>2022-08-27T19:52:03Z</time>
      </trkpt>
      <trkpt lat="46.00952" lon="7.12275">
        <ele>1490</ele>
        <time>2022-08-27T19:52:04Z</time>
      </trkpt>
      <trkpt lat="46.00953" lon="7.12275">
        <ele>1490</ele>
        <time>2022-08-27T19:52:05Z</time>
      </trkpt>
      <trkpt lat="46.00954" lon="7.12274">
        <ele>1490</ele>
        <time>2022-08-27T19:52:06Z</time>
      </trkpt>
      <trkpt lat="46.00955" lon="7.12273">
        <ele>1490</ele>
        <time>2022-08-27T19:52:08Z</time>
      </trkpt>
      <trkpt lat="46.00956" lon="7.12272">
        <ele>1490</ele>
        <time>2022-08-27T19:52:10Z</time>
      </trkpt>
      <trkpt lat="46.00957" lon="7.12271">
        <ele>1491</ele>
        <time>2022-08-27T19:52:12Z</time>
      </trkpt>
      <trkpt lat="46.00958" lon="7.1227">
        <ele>1491</ele>
        <time>2022-08-27T19:52:13Z</time>
      </trkpt>
      <trkpt lat="46.00959" lon="7.12269">
        <ele>1491</ele>
        <time>2022-08-27T19:52:14Z</time>
      </trkpt>
      <trkpt lat="46.0096" lon="7.12268">
        <ele>1491</ele>
        <time>2022-08-27T19:52:15Z</time>
      </trkpt>
      <trkpt lat="46.00961" lon="7.12267">
        <ele>1491</ele>
        <time>2022-08-27T19:52:16Z</time>
      </trkpt>
      <trkpt lat="46.00962" lon="7.12266">
        <ele>1492</ele>
        <time>2022-08-27T19:52:17Z</time>
      </trkpt>
      <trkpt lat="46.00963" lon="7.12264">
        <ele>1492</ele>
        <time>2022-08-27T19:52:18Z</time>
      </trkpt>
      <trkpt lat="46.00964" lon="7.12263">
        <ele>1492</ele>
        <time>2022-08-27T19:52:19Z</time>
      </trkpt>
      <trkpt lat="46.00965" lon="7.12261">
        <ele>1492</ele>
        <time>2022-08-27T19:52:20Z</time>
      </trkpt>
      <trkpt lat="46.00966" lon="7.1226">
        <ele>1492</ele>
        <time>2022-08-27T19:52:22Z</time>
      </trkpt>
      <trkpt lat="46.00967" lon="7.12259">
        <ele>1493</ele>
        <time>2022-08-27T19:52:23Z</time>
      </trkpt>
      <trkpt lat="46.00968" lon="7.12257">
        <ele>1493</ele>
        <time>2022-08-27T19:52:24Z</time>
      </trkpt>
      <trkpt lat="46.00969" lon="7.12256">
        <ele>1493</ele>
        <time>2022-08-27T19:52:25Z</time>
      </trkpt>
      <trkpt lat="46.00969" lon="7.12254">
        <ele>1493</ele>
        <time>2022-08-27T19:52:27Z</time>
      </trkpt>
      <trkpt lat="46.00969" lon="7.12253">
        <ele>1493</ele>
        <time>2022-08-27T19:52:29Z</time>
      </trkpt>
      <trkpt lat="46.00969" lon="7.12252">
        <ele>1493</ele>
        <time>2022-08-27T19:52:30Z</time>
      </trkpt>
      <trkpt lat="46.0097" lon="7.12251">
        <ele>1493</ele>
        <time>2022-08-27T19:52:31Z</time>
      </trkpt>
      <trkpt lat="46.0097" lon="7.1225">
        <ele>1494</ele>
        <time>2022-08-27T19:52:32Z</time>
      </trkpt>
      <trkpt lat="46.0097" lon="7.12249">
        <ele>1494</ele>
        <time>2022-08-27T19:52:34Z</time>
      </trkpt>
      <trkpt lat="46.0097" lon="7.12247">
        <ele>1494</ele>
        <time>2022-08-27T19:52:35Z</time>
      </trkpt>
      <trkpt lat="46.0097" lon="7.12246">
        <ele>1494</ele>
        <time>2022-08-27T19:52:36Z</time>
      </trkpt>
      <trkpt lat="46.00971" lon="7.12245">
        <ele>1494</ele>
        <time>2022-08-27T19:52:37Z</time>
      </trkpt>
      <trkpt lat="46.00971" lon="7.12244">
        <ele>1494</ele>
        <time>2022-08-27T19:52:38Z</time>
      </trkpt>
      <trkpt lat="46.00971" lon="7.12243">
        <ele>1494</ele>
        <time>2022-08-27T19:52:39Z</time>
      </trkpt>
      <trkpt lat="46.00971" lon="7.12241">
        <ele>1495</ele>
        <time>2022-08-27T19:52:40Z</time>
      </trkpt>
      <trkpt lat="46.00971" lon="7.12239">
        <ele>1495</ele>
        <time>2022-08-27T19:52:41Z</time>
      </trkpt>
      <trkpt lat="46.00972" lon="7.12237">
        <ele>1495</ele>
        <time>2022-08-27T19:52:42Z</time>
      </trkpt>
      <trkpt lat="46.00972" lon="7.12235">
        <ele>1496</ele>
        <time>2022-08-27T19:52:44Z</time>
      </trkpt>
      <trkpt lat="46.00972" lon="7.12233">
        <ele>1496</ele>
        <time>2022-08-27T19:52:46Z</time>
      </trkpt>
      <trkpt lat="46.00972" lon="7.12231">
        <ele>1496</ele>
        <time>2022-08-27T19:52:47Z</time>
      </trkpt>
      <trkpt lat="46.00972" lon="7.12229">
        <ele>1496</ele>
        <time>2022-08-27T19:52:48Z</time>
      </trkpt>
      <trkpt lat="46.00972" lon="7.12228">
        <ele>1496</ele>
        <time>2022-08-27T19:52:49Z</time>
      </trkpt>
      <trkpt lat="46.00973" lon="7.12226">
        <ele>1496</ele>
        <time>2022-08-27T19:52:51Z</time>
      </trkpt>
      <trkpt lat="46.00973" lon="7.12224">
        <ele>1496</ele>
        <time>2022-08-27T19:52:52Z</time>
      </trkpt>
      <trkpt lat="46.00973" lon="7.12222">
        <ele>1496</ele>
        <time>2022-08-27T19:52:53Z</time>
      </trkpt>
      <trkpt lat="46.00973" lon="7.1222">
        <ele>1496</ele>
        <time>2022-08-27T19:52:54Z</time>
      </trkpt>
      <trkpt lat="46.00973" lon="7.12219">
        <ele>1496</ele>
        <time>2022-08-27T19:52:56Z</time>
      </trkpt>
      <trkpt lat="46.00973" lon="7.12217">
        <ele>1496</ele>
        <time>2022-08-27T19:52:57Z</time>
      </trkpt>
      <trkpt lat="46.00973" lon="7.12215">
        <ele>1496</ele>
        <time>2022-08-27T19:52:58Z</time>
      </trkpt>
      <trkpt lat="46.00971" lon="7.12202">
        <ele>1497</ele>
        <time>2022-08-27T19:53:05Z</time>
      </trkpt>
      <trkpt lat="46.00971" lon="7.12199">
        <ele>1497</ele>
        <time>2022-08-27T19:53:06Z</time>
      </trkpt>
      <trkpt lat="46.0097" lon="7.12196">
        <ele>1497</ele>
        <time>2022-08-27T19:53:07Z</time>
      </trkpt>
      <trkpt lat="46.0097" lon="7.12194">
        <ele>1498</ele>
        <time>2022-08-27T19:53:09Z</time>
      </trkpt>
      <trkpt lat="46.0097" lon="7.12191">
        <ele>1498</ele>
        <time>2022-08-27T19:53:10Z</time>
      </trkpt>
      <trkpt lat="46.00969" lon="7.12189">
        <ele>1498</ele>
        <time>2022-08-27T19:53:11Z</time>
      </trkpt>
      <trkpt lat="46.0097" lon="7.12187">
        <ele>1498</ele>
        <time>2022-08-27T19:53:12Z</time>
      </trkpt>
      <trkpt lat="46.00971" lon="7.12186">
        <ele>1498</ele>
        <time>2022-08-27T19:53:14Z</time>
      </trkpt>
      <trkpt lat="46.00972" lon="7.12185">
        <ele>1498</ele>
        <time>2022-08-27T19:53:15Z</time>
      </trkpt>
      <trkpt lat="46.00972" lon="7.12184">
        <ele>1498</ele>
        <time>2022-08-27T19:53:16Z</time>
      </trkpt>
      <trkpt lat="46.00973" lon="7.12183">
        <ele>1498</ele>
        <time>2022-08-27T19:53:17Z</time>
      </trkpt>
      <trkpt lat="46.00974" lon="7.12182">
        <ele>1499</ele>
        <time>2022-08-27T19:53:19Z</time>
      </trkpt>
      <trkpt lat="46.00974" lon="7.12181">
        <ele>1499</ele>
        <time>2022-08-27T19:53:20Z</time>
      </trkpt>
      <trkpt lat="46.00975" lon="7.1218">
        <ele>1499</ele>
        <time>2022-08-27T19:53:21Z</time>
      </trkpt>
      <trkpt lat="46.00976" lon="7.12179">
        <ele>1499</ele>
        <time>2022-08-27T19:53:22Z</time>
      </trkpt>
      <trkpt lat="46.00976" lon="7.12177">
        <ele>1499</ele>
        <time>2022-08-27T19:53:24Z</time>
      </trkpt>
      <trkpt lat="46.00977" lon="7.12176">
        <ele>1500</ele>
        <time>2022-08-27T19:53:26Z</time>
      </trkpt>
      <trkpt lat="46.00977" lon="7.12174">
        <ele>1500</ele>
        <time>2022-08-27T19:53:27Z</time>
      </trkpt>
      <trkpt lat="46.00978" lon="7.12173">
        <ele>1500</ele>
        <time>2022-08-27T19:53:28Z</time>
      </trkpt>
      <trkpt lat="46.00978" lon="7.12171">
        <ele>1500</ele>
        <time>2022-08-27T19:53:29Z</time>
      </trkpt>
      <trkpt lat="46.00979" lon="7.1217">
        <ele>1501</ele>
        <time>2022-08-27T19:53:31Z</time>
      </trkpt>
      <trkpt lat="46.00979" lon="7.12168">
        <ele>1501</ele>
        <time>2022-08-27T19:53:32Z</time>
      </trkpt>
      <trkpt lat="46.0098" lon="7.12167">
        <ele>1501</ele>
        <time>2022-08-27T19:53:33Z</time>
      </trkpt>
      <trkpt lat="46.0098" lon="7.12165">
        <ele>1501</ele>
        <time>2022-08-27T19:53:34Z</time>
      </trkpt>
      <trkpt lat="46.0098" lon="7.12164">
        <ele>1501</ele>
        <time>2022-08-27T19:53:36Z</time>
      </trkpt>
      <trkpt lat="46.00981" lon="7.12162">
        <ele>1501</ele>
        <time>2022-08-27T19:53:37Z</time>
      </trkpt>
      <trkpt lat="46.00981" lon="7.12161">
        <ele>1501</ele>
        <time>2022-08-27T19:53:38Z</time>
      </trkpt>
      <trkpt lat="46.00981" lon="7.12159">
        <ele>1501</ele>
        <time>2022-08-27T19:53:39Z</time>
      </trkpt>
      <trkpt lat="46.00982" lon="7.12158">
        <ele>1501</ele>
        <time>2022-08-27T19:53:41Z</time>
      </trkpt>
      <trkpt lat="46.00982" lon="7.12156">
        <ele>1502</ele>
        <time>2022-08-27T19:53:43Z</time>
      </trkpt>
      <trkpt lat="46.00982" lon="7.12155">
        <ele>1502</ele>
        <time>2022-08-27T19:53:44Z</time>
      </trkpt>
      <trkpt lat="46.00982" lon="7.12153">
        <ele>1502</ele>
        <time>2022-08-27T19:53:45Z</time>
      </trkpt>
      <trkpt lat="46.00983" lon="7.12152">
        <ele>1503</ele>
        <time>2022-08-27T19:53:47Z</time>
      </trkpt>
      <trkpt lat="46.00983" lon="7.12151">
        <ele>1503</ele>
        <time>2022-08-27T19:53:48Z</time>
      </trkpt>
      <trkpt lat="46.00984" lon="7.1215">
        <ele>1503</ele>
        <time>2022-08-27T19:53:49Z</time>
      </trkpt>
      <trkpt lat="46.00984" lon="7.12148">
        <ele>1503</ele>
        <time>2022-08-27T19:53:50Z</time>
      </trkpt>
      <trkpt lat="46.00985" lon="7.12147">
        <ele>1503</ele>
        <time>2022-08-27T19:53:51Z</time>
      </trkpt>
      <trkpt lat="46.00985" lon="7.12146">
        <ele>1504</ele>
        <time>2022-08-27T19:53:52Z</time>
      </trkpt>
      <trkpt lat="46.00986" lon="7.12145">
        <ele>1504</ele>
        <time>2022-08-27T19:53:53Z</time>
      </trkpt>
      <trkpt lat="46.00986" lon="7.12143">
        <ele>1504</ele>
        <time>2022-08-27T19:53:54Z</time>
      </trkpt>
      <trkpt lat="46.00987" lon="7.12142">
        <ele>1504</ele>
        <time>2022-08-27T19:53:55Z</time>
      </trkpt>
      <trkpt lat="46.00987" lon="7.12141">
        <ele>1504</ele>
        <time>2022-08-27T19:53:56Z</time>
      </trkpt>
      <trkpt lat="46.0099" lon="7.12127">
        <ele>1505</ele>
        <time>2022-08-27T19:54:04Z</time>
      </trkpt>
      <trkpt lat="46.00991" lon="7.12126">
        <ele>1506</ele>
        <time>2022-08-27T19:54:06Z</time>
      </trkpt>
      <trkpt lat="46.00992" lon="7.12126">
        <ele>1506</ele>
        <time>2022-08-27T19:54:07Z</time>
      </trkpt>
      <trkpt lat="46.00993" lon="7.12125">
        <ele>1506</ele>
        <time>2022-08-27T19:54:08Z</time>
      </trkpt>
      <trkpt lat="46.00994" lon="7.12124">
        <ele>1506</ele>
        <time>2022-08-27T19:54:09Z</time>
      </trkpt>
      <trkpt lat="46.00995" lon="7.12123">
        <ele>1506</ele>
        <time>2022-08-27T19:54:11Z</time>
      </trkpt>
      <trkpt lat="46.00997" lon="7.12122">
        <ele>1506</ele>
        <time>2022-08-27T19:54:12Z</time>
      </trkpt>
      <trkpt lat="46.00998" lon="7.12121">
        <ele>1506</ele>
        <time>2022-08-27T19:54:13Z</time>
      </trkpt>
      <trkpt lat="46.00999" lon="7.1212">
        <ele>1507</ele>
        <time>2022-08-27T19:54:14Z</time>
      </trkpt>
      <trkpt lat="46.00999" lon="7.1212">
        <ele>1507</ele>
        <time>2022-08-27T19:54:16Z</time>
      </trkpt>
      <trkpt lat="46.01" lon="7.12119">
        <ele>1507</ele>
        <time>2022-08-27T19:54:17Z</time>
      </trkpt>
      <trkpt lat="46.01001" lon="7.12118">
        <ele>1507</ele>
        <time>2022-08-27T19:54:18Z</time>
      </trkpt>
      <trkpt lat="46.01002" lon="7.12117">
        <ele>1508</ele>
        <time>2022-08-27T19:54:19Z</time>
      </trkpt>
      <trkpt lat="46.01003" lon="7.12116">
        <ele>1508</ele>
        <time>2022-08-27T19:54:21Z</time>
      </trkpt>
      <trkpt lat="46.01004" lon="7.12115">
        <ele>1508</ele>
        <time>2022-08-27T19:54:23Z</time>
      </trkpt>
      <trkpt lat="46.01004" lon="7.12114">
        <ele>1508</ele>
        <time>2022-08-27T19:54:24Z</time>
      </trkpt>
      <trkpt lat="46.01005" lon="7.12114">
        <ele>1509</ele>
        <time>2022-08-27T19:54:25Z</time>
      </trkpt>
      <trkpt lat="46.01006" lon="7.12112">
        <ele>1509</ele>
        <time>2022-08-27T19:54:26Z</time>
      </trkpt>
      <trkpt lat="46.01007" lon="7.12111">
        <ele>1509</ele>
        <time>2022-08-27T19:54:28Z</time>
      </trkpt>
      <trkpt lat="46.01008" lon="7.1211">
        <ele>1509</ele>
        <time>2022-08-27T19:54:29Z</time>
      </trkpt>
      <trkpt lat="46.01009" lon="7.12109">
        <ele>1509</ele>
        <time>2022-08-27T19:54:30Z</time>
      </trkpt>
      <trkpt lat="46.01009" lon="7.12108">
        <ele>1510</ele>
        <time>2022-08-27T19:54:31Z</time>
      </trkpt>
      <trkpt lat="46.0101" lon="7.12106">
        <ele>1510</ele>
        <time>2022-08-27T19:54:33Z</time>
      </trkpt>
      <trkpt lat="46.01011" lon="7.12105">
        <ele>1510</ele>
        <time>2022-08-27T19:54:34Z</time>
      </trkpt>
      <trkpt lat="46.01012" lon="7.12104">
        <ele>1510</ele>
        <time>2022-08-27T19:54:35Z</time>
      </trkpt>
      <trkpt lat="46.01013" lon="7.12103">
        <ele>1510</ele>
        <time>2022-08-27T19:54:36Z</time>
      </trkpt>
      <trkpt lat="46.01014" lon="7.12101">
        <ele>1511</ele>
        <time>2022-08-27T19:54:38Z</time>
      </trkpt>
      <trkpt lat="46.01015" lon="7.121">
        <ele>1511</ele>
        <time>2022-08-27T19:54:40Z</time>
      </trkpt>
      <trkpt lat="46.01017" lon="7.12098">
        <ele>1511</ele>
        <time>2022-08-27T19:54:41Z</time>
      </trkpt>
      <trkpt lat="46.01018" lon="7.12097">
        <ele>1511</ele>
        <time>2022-08-27T19:54:42Z</time>
      </trkpt>
      <trkpt lat="46.01019" lon="7.12095">
        <ele>1511</ele>
        <time>2022-08-27T19:54:43Z</time>
      </trkpt>
      <trkpt lat="46.01026" lon="7.12085">
        <ele>1513</ele>
        <time>2022-08-27T19:54:48Z</time>
      </trkpt>
      <trkpt lat="46.01027" lon="7.12084">
        <ele>1513</ele>
        <time>2022-08-27T19:54:49Z</time>
      </trkpt>
      <trkpt lat="46.01028" lon="7.12083">
        <ele>1513</ele>
        <time>2022-08-27T19:54:50Z</time>
      </trkpt>
      <trkpt lat="46.01029" lon="7.12081">
        <ele>1513</ele>
        <time>2022-08-27T19:54:51Z</time>
      </trkpt>
      <trkpt lat="46.01031" lon="7.1208">
        <ele>1513</ele>
        <time>2022-08-27T19:54:53Z</time>
      </trkpt>
      <trkpt lat="46.01032" lon="7.12079">
        <ele>1513</ele>
        <time>2022-08-27T19:54:54Z</time>
      </trkpt>
      <trkpt lat="46.01033" lon="7.12077">
        <ele>1513</ele>
        <time>2022-08-27T19:54:55Z</time>
      </trkpt>
      <trkpt lat="46.01034" lon="7.12075">
        <ele>1514</ele>
        <time>2022-08-27T19:54:56Z</time>
      </trkpt>
      <trkpt lat="46.01036" lon="7.12073">
        <ele>1514</ele>
        <time>2022-08-27T19:54:58Z</time>
      </trkpt>
      <trkpt lat="46.01037" lon="7.12071">
        <ele>1514</ele>
        <time>2022-08-27T19:54:59Z</time>
      </trkpt>
      <trkpt lat="46.01038" lon="7.12069">
        <ele>1514</ele>
        <time>2022-08-27T19:55:00Z</time>
      </trkpt>
      <trkpt lat="46.0104" lon="7.12067">
        <ele>1514</ele>
        <time>2022-08-27T19:55:01Z</time>
      </trkpt>
      <trkpt lat="46.0104" lon="7.12066">
        <ele>1515</ele>
        <time>2022-08-27T19:55:03Z</time>
      </trkpt>
      <trkpt lat="46.0104" lon="7.12065">
        <ele>1515</ele>
        <time>2022-08-27T19:55:04Z</time>
      </trkpt>
      <trkpt lat="46.0104" lon="7.12063">
        <ele>1515</ele>
        <time>2022-08-27T19:55:05Z</time>
      </trkpt>
      <trkpt lat="46.0104" lon="7.12062">
        <ele>1515</ele>
        <time>2022-08-27T19:55:06Z</time>
      </trkpt>
      <trkpt lat="46.0104" lon="7.12061">
        <ele>1515</ele>
        <time>2022-08-27T19:55:07Z</time>
      </trkpt>
      <trkpt lat="46.0104" lon="7.12059">
        <ele>1515</ele>
        <time>2022-08-27T19:55:08Z</time>
      </trkpt>
      <trkpt lat="46.0104" lon="7.12058">
        <ele>1515</ele>
        <time>2022-08-27T19:55:09Z</time>
      </trkpt>
      <trkpt lat="46.0104" lon="7.12057">
        <ele>1515</ele>
        <time>2022-08-27T19:55:10Z</time>
      </trkpt>
      <trkpt lat="46.01041" lon="7.12056">
        <ele>1515</ele>
        <time>2022-08-27T19:55:11Z</time>
      </trkpt>
      <trkpt lat="46.01042" lon="7.12054">
        <ele>1516</ele>
        <time>2022-08-27T19:55:13Z</time>
      </trkpt>
      <trkpt lat="46.01042" lon="7.12053">
        <ele>1516</ele>
        <time>2022-08-27T19:55:14Z</time>
      </trkpt>
      <trkpt lat="46.01043" lon="7.12052">
        <ele>1516</ele>
        <time>2022-08-27T19:55:15Z</time>
      </trkpt>
      <trkpt lat="46.01044" lon="7.12051">
        <ele>1516</ele>
        <time>2022-08-27T19:55:16Z</time>
      </trkpt>
      <trkpt lat="46.01045" lon="7.1205">
        <ele>1516</ele>
        <time>2022-08-27T19:55:18Z</time>
      </trkpt>
      <trkpt lat="46.01045" lon="7.12049">
        <ele>1516</ele>
        <time>2022-08-27T19:55:20Z</time>
      </trkpt>
      <trkpt lat="46.01046" lon="7.12048">
        <ele>1517</ele>
        <time>2022-08-27T19:55:21Z</time>
      </trkpt>
      <trkpt lat="46.01047" lon="7.12046">
        <ele>1517</ele>
        <time>2022-08-27T19:55:22Z</time>
      </trkpt>
      <trkpt lat="46.01048" lon="7.12044">
        <ele>1517</ele>
        <time>2022-08-27T19:55:23Z</time>
      </trkpt>
      <trkpt lat="46.01048" lon="7.12043">
        <ele>1517</ele>
        <time>2022-08-27T19:55:24Z</time>
      </trkpt>
      <trkpt lat="46.01049" lon="7.12041">
        <ele>1518</ele>
        <time>2022-08-27T19:55:26Z</time>
      </trkpt>
      <trkpt lat="46.0105" lon="7.12039">
        <ele>1518</ele>
        <time>2022-08-27T19:55:28Z</time>
      </trkpt>
      <trkpt lat="46.01051" lon="7.12038">
        <ele>1518</ele>
        <time>2022-08-27T19:55:29Z</time>
      </trkpt>
      <trkpt lat="46.01051" lon="7.12036">
        <ele>1518</ele>
        <time>2022-08-27T19:55:30Z</time>
      </trkpt>
      <trkpt lat="46.01051" lon="7.12035">
        <ele>1518</ele>
        <time>2022-08-27T19:55:31Z</time>
      </trkpt>
      <trkpt lat="46.01051" lon="7.12034">
        <ele>1518</ele>
        <time>2022-08-27T19:55:33Z</time>
      </trkpt>
      <trkpt lat="46.01052" lon="7.12033">
        <ele>1518</ele>
        <time>2022-08-27T19:55:34Z</time>
      </trkpt>
      <trkpt lat="46.01052" lon="7.12032">
        <ele>1518</ele>
        <time>2022-08-27T19:55:35Z</time>
      </trkpt>
      <trkpt lat="46.01052" lon="7.12031">
        <ele>1519</ele>
        <time>2022-08-27T19:55:37Z</time>
      </trkpt>
      <trkpt lat="46.01052" lon="7.1203">
        <ele>1520</ele>
        <time>2022-08-27T19:55:38Z</time>
      </trkpt>
      <trkpt lat="46.01052" lon="7.12029">
        <ele>1520</ele>
        <time>2022-08-27T19:55:39Z</time>
      </trkpt>
      <trkpt lat="46.01052" lon="7.12028">
        <ele>1520</ele>
        <time>2022-08-27T19:55:41Z</time>
      </trkpt>
      <trkpt lat="46.01052" lon="7.12027">
        <ele>1520</ele>
        <time>2022-08-27T19:55:42Z</time>
      </trkpt>
      <trkpt lat="46.01052" lon="7.12026">
        <ele>1521</ele>
        <time>2022-08-27T19:55:43Z</time>
      </trkpt>
      <trkpt lat="46.01052" lon="7.12025">
        <ele>1521</ele>
        <time>2022-08-27T19:55:44Z</time>
      </trkpt>
      <trkpt lat="46.01052" lon="7.12024">
        <ele>1521</ele>
        <time>2022-08-27T19:55:46Z</time>
      </trkpt>
      <trkpt lat="46.01052" lon="7.12022">
        <ele>1521</ele>
        <time>2022-08-27T19:55:47Z</time>
      </trkpt>
      <trkpt lat="46.01063" lon="7.12019">
        <ele>1522</ele>
        <time>2022-08-27T19:55:56Z</time>
      </trkpt>
      <trkpt lat="46.01064" lon="7.12017">
        <ele>1522</ele>
        <time>2022-08-27T19:55:57Z</time>
      </trkpt>
      <trkpt lat="46.01066" lon="7.12016">
        <ele>1522</ele>
        <time>2022-08-27T19:55:58Z</time>
      </trkpt>
      <trkpt lat="46.01067" lon="7.12015">
        <ele>1522</ele>
        <time>2022-08-27T19:56:00Z</time>
      </trkpt>
      <trkpt lat="46.01068" lon="7.12014">
        <ele>1522</ele>
        <time>2022-08-27T19:56:01Z</time>
      </trkpt>
      <trkpt lat="46.01069" lon="7.12013">
        <ele>1522</ele>
        <time>2022-08-27T19:56:02Z</time>
      </trkpt>
      <trkpt lat="46.01071" lon="7.12011">
        <ele>1523</ele>
        <time>2022-08-27T19:56:03Z</time>
      </trkpt>
      <trkpt lat="46.01072" lon="7.12012">
        <ele>1523</ele>
        <time>2022-08-27T19:56:05Z</time>
      </trkpt>
      <trkpt lat="46.01074" lon="7.12012">
        <ele>1523</ele>
        <time>2022-08-27T19:56:06Z</time>
      </trkpt>
      <trkpt lat="46.01076" lon="7.12012">
        <ele>1523</ele>
        <time>2022-08-27T19:56:07Z</time>
      </trkpt>
      <trkpt lat="46.01077" lon="7.12012">
        <ele>1524</ele>
        <time>2022-08-27T19:56:08Z</time>
      </trkpt>
      <trkpt lat="46.01079" lon="7.12012">
        <ele>1524</ele>
        <time>2022-08-27T19:56:10Z</time>
      </trkpt>
      <trkpt lat="46.0108" lon="7.12013">
        <ele>1524</ele>
        <time>2022-08-27T19:56:11Z</time>
      </trkpt>
      <trkpt lat="46.01081" lon="7.12012">
        <ele>1524</ele>
        <time>2022-08-27T19:56:12Z</time>
      </trkpt>
      <trkpt lat="46.01082" lon="7.12012">
        <ele>1525</ele>
        <time>2022-08-27T19:56:13Z</time>
      </trkpt>
      <trkpt lat="46.01083" lon="7.12012">
        <ele>1525</ele>
        <time>2022-08-27T19:56:15Z</time>
      </trkpt>
      <trkpt lat="46.01084" lon="7.12011">
        <ele>1525</ele>
        <time>2022-08-27T19:56:17Z</time>
      </trkpt>
      <trkpt lat="46.01085" lon="7.12011">
        <ele>1526</ele>
        <time>2022-08-27T19:56:18Z</time>
      </trkpt>
      <trkpt lat="46.01086" lon="7.12011">
        <ele>1526</ele>
        <time>2022-08-27T19:56:19Z</time>
      </trkpt>
      <trkpt lat="46.01087" lon="7.1201">
        <ele>1526</ele>
        <time>2022-08-27T19:56:20Z</time>
      </trkpt>
      <trkpt lat="46.01088" lon="7.1201">
        <ele>1526</ele>
        <time>2022-08-27T19:56:22Z</time>
      </trkpt>
      <trkpt lat="46.01089" lon="7.1201">
        <ele>1526</ele>
        <time>2022-08-27T19:56:23Z</time>
      </trkpt>
      <trkpt lat="46.0109" lon="7.1201">
        <ele>1526</ele>
        <time>2022-08-27T19:56:24Z</time>
      </trkpt>
      <trkpt lat="46.01091" lon="7.12009">
        <ele>1527</ele>
        <time>2022-08-27T19:56:25Z</time>
      </trkpt>
      <trkpt lat="46.01092" lon="7.12009">
        <ele>1527</ele>
        <time>2022-08-27T19:56:26Z</time>
      </trkpt>
      <trkpt lat="46.01093" lon="7.12009">
        <ele>1527</ele>
        <time>2022-08-27T19:56:28Z</time>
      </trkpt>
      <trkpt lat="46.01095" lon="7.12008">
        <ele>1527</ele>
        <time>2022-08-27T19:56:29Z</time>
      </trkpt>
      <trkpt lat="46.01096" lon="7.12008">
        <ele>1527</ele>
        <time>2022-08-27T19:56:30Z</time>
      </trkpt>
      <trkpt lat="46.01097" lon="7.12008">
        <ele>1527</ele>
        <time>2022-08-27T19:56:31Z</time>
      </trkpt>
      <trkpt lat="46.01098" lon="7.12007">
        <ele>1527</ele>
        <time>2022-08-27T19:56:32Z</time>
      </trkpt>
      <trkpt lat="46.01099" lon="7.12007">
        <ele>1527</ele>
        <time>2022-08-27T19:56:33Z</time>
      </trkpt>
      <trkpt lat="46.011" lon="7.12006">
        <ele>1527</ele>
        <time>2022-08-27T19:56:34Z</time>
      </trkpt>
      <trkpt lat="46.011" lon="7.12005">
        <ele>1528</ele>
        <time>2022-08-27T19:56:35Z</time>
      </trkpt>
      <trkpt lat="46.01101" lon="7.12004">
        <ele>1528</ele>
        <time>2022-08-27T19:56:36Z</time>
      </trkpt>
      <trkpt lat="46.01102" lon="7.12003">
        <ele>1529</ele>
        <time>2022-08-27T19:56:38Z</time>
      </trkpt>
      <trkpt lat="46.01103" lon="7.12002">
        <ele>1529</ele>
        <time>2022-08-27T19:56:39Z</time>
      </trkpt>
      <trkpt lat="46.01103" lon="7.12001">
        <ele>1529</ele>
        <time>2022-08-27T19:56:40Z</time>
      </trkpt>
      <trkpt lat="46.01104" lon="7.12">
        <ele>1529</ele>
        <time>2022-08-27T19:56:41Z</time>
      </trkpt>
      <trkpt lat="46.01105" lon="7.11999">
        <ele>1529</ele>
        <time>2022-08-27T19:56:42Z</time>
      </trkpt>
      <trkpt lat="46.01106" lon="7.11998">
        <ele>1529</ele>
        <time>2022-08-27T19:56:43Z</time>
      </trkpt>
      <trkpt lat="46.01107" lon="7.11996">
        <ele>1529</ele>
        <time>2022-08-27T19:56:44Z</time>
      </trkpt>
      <trkpt lat="46.01108" lon="7.11995">
        <ele>1529</ele>
        <time>2022-08-27T19:56:45Z</time>
      </trkpt>
      <trkpt lat="46.01109" lon="7.11993">
        <ele>1529</ele>
        <time>2022-08-27T19:56:46Z</time>
      </trkpt>
      <trkpt lat="46.01111" lon="7.11991">
        <ele>1530</ele>
        <time>2022-08-27T19:56:48Z</time>
      </trkpt>
      <trkpt lat="46.01112" lon="7.1199">
        <ele>1530</ele>
        <time>2022-08-27T19:56:50Z</time>
      </trkpt>
      <trkpt lat="46.01113" lon="7.11988">
        <ele>1530</ele>
        <time>2022-08-27T19:56:51Z</time>
      </trkpt>
      <trkpt lat="46.01117" lon="7.11976">
        <ele>1532</ele>
        <time>2022-08-27T19:57:02Z</time>
      </trkpt>
      <trkpt lat="46.01118" lon="7.11975">
        <ele>1532</ele>
        <time>2022-08-27T19:57:03Z</time>
      </trkpt>
      <trkpt lat="46.01118" lon="7.11974">
        <ele>1532</ele>
        <time>2022-08-27T19:57:04Z</time>
      </trkpt>
      <trkpt lat="46.01118" lon="7.11973">
        <ele>1532</ele>
        <time>2022-08-27T19:57:05Z</time>
      </trkpt>
      <trkpt lat="46.01118" lon="7.11972">
        <ele>1532</ele>
        <time>2022-08-27T19:57:07Z</time>
      </trkpt>
      <trkpt lat="46.01119" lon="7.11971">
        <ele>1532</ele>
        <time>2022-08-27T19:57:08Z</time>
      </trkpt>
      <trkpt lat="46.01119" lon="7.1197">
        <ele>1532</ele>
        <time>2022-08-27T19:57:09Z</time>
      </trkpt>
      <trkpt lat="46.01119" lon="7.11969">
        <ele>1533</ele>
        <time>2022-08-27T19:57:10Z</time>
      </trkpt>
      <trkpt lat="46.0112" lon="7.11967">
        <ele>1533</ele>
        <time>2022-08-27T19:57:12Z</time>
      </trkpt>
      <trkpt lat="46.0112" lon="7.11966">
        <ele>1534</ele>
        <time>2022-08-27T19:57:13Z</time>
      </trkpt>
      <trkpt lat="46.0112" lon="7.11965">
        <ele>1534</ele>
        <time>2022-08-27T19:57:14Z</time>
      </trkpt>
      <trkpt lat="46.0112" lon="7.11964">
        <ele>1534</ele>
        <time>2022-08-27T19:57:15Z</time>
      </trkpt>
      <trkpt lat="46.01121" lon="7.11963">
        <ele>1534</ele>
        <time>2022-08-27T19:57:16Z</time>
      </trkpt>
      <trkpt lat="46.01123" lon="7.11949">
        <ele>1535</ele>
        <time>2022-08-27T19:57:24Z</time>
      </trkpt>
      <trkpt lat="46.01128" lon="7.11937">
        <ele>1535</ele>
        <time>2022-08-27T19:57:33Z</time>
      </trkpt>
      <trkpt lat="46.01128" lon="7.11936">
        <ele>1536</ele>
        <time>2022-08-27T19:57:35Z</time>
      </trkpt>
      <trkpt lat="46.01128" lon="7.11934">
        <ele>1536</ele>
        <time>2022-08-27T19:57:36Z</time>
      </trkpt>
      <trkpt lat="46.01127" lon="7.11932">
        <ele>1536</ele>
        <time>2022-08-27T19:57:37Z</time>
      </trkpt>
      <trkpt lat="46.01127" lon="7.1193">
        <ele>1536</ele>
        <time>2022-08-27T19:57:38Z</time>
      </trkpt>
      <trkpt lat="46.01126" lon="7.11929">
        <ele>1536</ele>
        <time>2022-08-27T19:57:40Z</time>
      </trkpt>
      <trkpt lat="46.01126" lon="7.11927">
        <ele>1536</ele>
        <time>2022-08-27T19:57:41Z</time>
      </trkpt>
      <trkpt lat="46.01125" lon="7.11925">
        <ele>1536</ele>
        <time>2022-08-27T19:57:42Z</time>
      </trkpt>
      <trkpt lat="46.01125" lon="7.11924">
        <ele>1536</ele>
        <time>2022-08-27T19:57:43Z</time>
      </trkpt>
      <trkpt lat="46.01124" lon="7.11923">
        <ele>1536</ele>
        <time>2022-08-27T19:57:45Z</time>
      </trkpt>
      <trkpt lat="46.01123" lon="7.11921">
        <ele>1536</ele>
        <time>2022-08-27T19:57:46Z</time>
      </trkpt>
      <trkpt lat="46.01122" lon="7.1192">
        <ele>1537</ele>
        <time>2022-08-27T19:57:47Z</time>
      </trkpt>
      <trkpt lat="46.01121" lon="7.11919">
        <ele>1537</ele>
        <time>2022-08-27T19:57:48Z</time>
      </trkpt>
      <trkpt lat="46.0112" lon="7.11918">
        <ele>1537</ele>
        <time>2022-08-27T19:57:50Z</time>
      </trkpt>
      <trkpt lat="46.0112" lon="7.11917">
        <ele>1537</ele>
        <time>2022-08-27T19:57:51Z</time>
      </trkpt>
      <trkpt lat="46.01119" lon="7.11916">
        <ele>1537</ele>
        <time>2022-08-27T19:57:52Z</time>
      </trkpt>
      <trkpt lat="46.01118" lon="7.11914">
        <ele>1537</ele>
        <time>2022-08-27T19:57:53Z</time>
      </trkpt>
      <trkpt lat="46.01117" lon="7.11912">
        <ele>1537</ele>
        <time>2022-08-27T19:57:54Z</time>
      </trkpt>
      <trkpt lat="46.01116" lon="7.1191">
        <ele>1538</ele>
        <time>2022-08-27T19:57:55Z</time>
      </trkpt>
      <trkpt lat="46.01115" lon="7.11908">
        <ele>1538</ele>
        <time>2022-08-27T19:57:57Z</time>
      </trkpt>
      <trkpt lat="46.01115" lon="7.11906">
        <ele>1538</ele>
        <time>2022-08-27T19:57:58Z</time>
      </trkpt>
      <trkpt lat="46.01114" lon="7.11905">
        <ele>1538</ele>
        <time>2022-08-27T19:57:59Z</time>
      </trkpt>
      <trkpt lat="46.01114" lon="7.11903">
        <ele>1538</ele>
        <time>2022-08-27T19:58:00Z</time>
      </trkpt>
      <trkpt lat="46.01114" lon="7.119">
        <ele>1538</ele>
        <time>2022-08-27T19:58:01Z</time>
      </trkpt>
      <trkpt lat="46.01114" lon="7.11898">
        <ele>1538</ele>
        <time>2022-08-27T19:58:02Z</time>
      </trkpt>
      <trkpt lat="46.01114" lon="7.11896">
        <ele>1538</ele>
        <time>2022-08-27T19:58:04Z</time>
      </trkpt>
      <trkpt lat="46.01113" lon="7.11894">
        <ele>1538</ele>
        <time>2022-08-27T19:58:05Z</time>
      </trkpt>
      <trkpt lat="46.01113" lon="7.11892">
        <ele>1538</ele>
        <time>2022-08-27T19:58:06Z</time>
      </trkpt>
      <trkpt lat="46.01113" lon="7.1189">
        <ele>1538</ele>
        <time>2022-08-27T19:58:07Z</time>
      </trkpt>
      <trkpt lat="46.01119" lon="7.11879">
        <ele>1539</ele>
        <time>2022-08-27T19:58:14Z</time>
      </trkpt>
      <trkpt lat="46.0112" lon="7.11865">
        <ele>1540</ele>
        <time>2022-08-27T19:58:24Z</time>
      </trkpt>
      <trkpt lat="46.01121" lon="7.11864">
        <ele>1540</ele>
        <time>2022-08-27T19:58:25Z</time>
      </trkpt>
      <trkpt lat="46.01122" lon="7.11863">
        <ele>1540</ele>
        <time>2022-08-27T19:58:26Z</time>
      </trkpt>
      <trkpt lat="46.01123" lon="7.11862">
        <ele>1540</ele>
        <time>2022-08-27T19:58:28Z</time>
      </trkpt>
      <trkpt lat="46.01124" lon="7.11861">
        <ele>1541</ele>
        <time>2022-08-27T19:58:29Z</time>
      </trkpt>
      <trkpt lat="46.01125" lon="7.1186">
        <ele>1541</ele>
        <time>2022-08-27T19:58:30Z</time>
      </trkpt>
      <trkpt lat="46.01126" lon="7.11859">
        <ele>1541</ele>
        <time>2022-08-27T19:58:31Z</time>
      </trkpt>
      <trkpt lat="46.01128" lon="7.11858">
        <ele>1541</ele>
        <time>2022-08-27T19:58:32Z</time>
      </trkpt>
      <trkpt lat="46.01128" lon="7.11857">
        <ele>1541</ele>
        <time>2022-08-27T19:58:33Z</time>
      </trkpt>
      <trkpt lat="46.01129" lon="7.11855">
        <ele>1541</ele>
        <time>2022-08-27T19:58:34Z</time>
      </trkpt>
      <trkpt lat="46.0113" lon="7.11854">
        <ele>1541</ele>
        <time>2022-08-27T19:58:35Z</time>
      </trkpt>
      <trkpt lat="46.01131" lon="7.11852">
        <ele>1541</ele>
        <time>2022-08-27T19:58:37Z</time>
      </trkpt>
      <trkpt lat="46.01132" lon="7.11851">
        <ele>1541</ele>
        <time>2022-08-27T19:58:38Z</time>
      </trkpt>
      <trkpt lat="46.01132" lon="7.11849">
        <ele>1541</ele>
        <time>2022-08-27T19:58:39Z</time>
      </trkpt>
      <trkpt lat="46.01133" lon="7.11848">
        <ele>1542</ele>
        <time>2022-08-27T19:58:40Z</time>
      </trkpt>
      <trkpt lat="46.0114" lon="7.11839">
        <ele>1543</ele>
        <time>2022-08-27T19:58:47Z</time>
      </trkpt>
      <trkpt lat="46.01141" lon="7.11838">
        <ele>1543</ele>
        <time>2022-08-27T19:58:48Z</time>
      </trkpt>
      <trkpt lat="46.01142" lon="7.11836">
        <ele>1543</ele>
        <time>2022-08-27T19:58:49Z</time>
      </trkpt>
      <trkpt lat="46.01142" lon="7.11835">
        <ele>1544</ele>
        <time>2022-08-27T19:58:51Z</time>
      </trkpt>
      <trkpt lat="46.01143" lon="7.11834">
        <ele>1544</ele>
        <time>2022-08-27T19:58:52Z</time>
      </trkpt>
      <trkpt lat="46.01144" lon="7.11833">
        <ele>1544</ele>
        <time>2022-08-27T19:58:53Z</time>
      </trkpt>
      <trkpt lat="46.01145" lon="7.11831">
        <ele>1544</ele>
        <time>2022-08-27T19:58:54Z</time>
      </trkpt>
      <trkpt lat="46.01145" lon="7.1183">
        <ele>1544</ele>
        <time>2022-08-27T19:58:55Z</time>
      </trkpt>
      <trkpt lat="46.01146" lon="7.11829">
        <ele>1544</ele>
        <time>2022-08-27T19:58:56Z</time>
      </trkpt>
      <trkpt lat="46.01147" lon="7.11827">
        <ele>1544</ele>
        <time>2022-08-27T19:58:57Z</time>
      </trkpt>
      <trkpt lat="46.01147" lon="7.11826">
        <ele>1544</ele>
        <time>2022-08-27T19:58:58Z</time>
      </trkpt>
      <trkpt lat="46.01147" lon="7.11825">
        <ele>1544</ele>
        <time>2022-08-27T19:58:59Z</time>
      </trkpt>
      <trkpt lat="46.01148" lon="7.11823">
        <ele>1545</ele>
        <time>2022-08-27T19:59:01Z</time>
      </trkpt>
      <trkpt lat="46.01148" lon="7.11822">
        <ele>1545</ele>
        <time>2022-08-27T19:59:02Z</time>
      </trkpt>
      <trkpt lat="46.01149" lon="7.1182">
        <ele>1545</ele>
        <time>2022-08-27T19:59:03Z</time>
      </trkpt>
      <trkpt lat="46.01149" lon="7.11819">
        <ele>1545</ele>
        <time>2022-08-27T19:59:04Z</time>
      </trkpt>
      <trkpt lat="46.0115" lon="7.11817">
        <ele>1545</ele>
        <time>2022-08-27T19:59:05Z</time>
      </trkpt>
      <trkpt lat="46.0115" lon="7.11816">
        <ele>1545</ele>
        <time>2022-08-27T19:59:06Z</time>
      </trkpt>
      <trkpt lat="46.01154" lon="7.11803">
        <ele>1546</ele>
        <time>2022-08-27T19:59:13Z</time>
      </trkpt>
      <trkpt lat="46.01159" lon="7.1179">
        <ele>1547</ele>
        <time>2022-08-27T19:59:23Z</time>
      </trkpt>
      <trkpt lat="46.0116" lon="7.1179">
        <ele>1547</ele>
        <time>2022-08-27T19:59:25Z</time>
      </trkpt>
      <trkpt lat="46.01161" lon="7.1179">
        <ele>1546</ele>
        <time>2022-08-27T19:59:26Z</time>
      </trkpt>
      <trkpt lat="46.01161" lon="7.11789">
        <ele>1546</ele>
        <time>2022-08-27T19:59:27Z</time>
      </trkpt>
      <trkpt lat="46.01162" lon="7.11789">
        <ele>1546</ele>
        <time>2022-08-27T19:59:28Z</time>
      </trkpt>
      <trkpt lat="46.01163" lon="7.11789">
        <ele>1546</ele>
        <time>2022-08-27T19:59:30Z</time>
      </trkpt>
      <trkpt lat="46.01164" lon="7.11788">
        <ele>1546</ele>
        <time>2022-08-27T19:59:31Z</time>
      </trkpt>
      <trkpt lat="46.01165" lon="7.11788">
        <ele>1546</ele>
        <time>2022-08-27T19:59:32Z</time>
      </trkpt>
      <trkpt lat="46.01166" lon="7.11787">
        <ele>1547</ele>
        <time>2022-08-27T19:59:33Z</time>
      </trkpt>
      <trkpt lat="46.01167" lon="7.11787">
        <ele>1547</ele>
        <time>2022-08-27T19:59:35Z</time>
      </trkpt>
      <trkpt lat="46.01168" lon="7.11787">
        <ele>1547</ele>
        <time>2022-08-27T19:59:36Z</time>
      </trkpt>
      <trkpt lat="46.01168" lon="7.11786">
        <ele>1547</ele>
        <time>2022-08-27T19:59:37Z</time>
      </trkpt>
      <trkpt lat="46.01169" lon="7.11786">
        <ele>1547</ele>
        <time>2022-08-27T19:59:38Z</time>
      </trkpt>
      <trkpt lat="46.0117" lon="7.11788">
        <ele>1547</ele>
        <time>2022-08-27T19:59:39Z</time>
      </trkpt>
      <trkpt lat="46.01172" lon="7.11791">
        <ele>1547</ele>
        <time>2022-08-27T19:59:40Z</time>
      </trkpt>
      <trkpt lat="46.01173" lon="7.11793">
        <ele>1547</ele>
        <time>2022-08-27T19:59:41Z</time>
      </trkpt>
      <trkpt lat="46.01174" lon="7.11795">
        <ele>1547</ele>
        <time>2022-08-27T19:59:43Z</time>
      </trkpt>
      <trkpt lat="46.01175" lon="7.11798">
        <ele>1547</ele>
        <time>2022-08-27T19:59:44Z</time>
      </trkpt>
      <trkpt lat="46.01175" lon="7.118">
        <ele>1547</ele>
        <time>2022-08-27T19:59:45Z</time>
      </trkpt>
      <trkpt lat="46.01175" lon="7.11803">
        <ele>1547</ele>
        <time>2022-08-27T19:59:46Z</time>
      </trkpt>
      <trkpt lat="46.01175" lon="7.11806">
        <ele>1547</ele>
        <time>2022-08-27T19:59:48Z</time>
      </trkpt>
      <trkpt lat="46.01174" lon="7.11808">
        <ele>1547</ele>
        <time>2022-08-27T19:59:49Z</time>
      </trkpt>
      <trkpt lat="46.01174" lon="7.11811">
        <ele>1548</ele>
        <time>2022-08-27T19:59:50Z</time>
      </trkpt>
      <trkpt lat="46.01174" lon="7.11813">
        <ele>1548</ele>
        <time>2022-08-27T19:59:51Z</time>
      </trkpt>
      <trkpt lat="46.01175" lon="7.11815">
        <ele>1548</ele>
        <time>2022-08-27T19:59:53Z</time>
      </trkpt>
      <trkpt lat="46.01175" lon="7.11816">
        <ele>1548</ele>
        <time>2022-08-27T19:59:54Z</time>
      </trkpt>
      <trkpt lat="46.01175" lon="7.11818">
        <ele>1548</ele>
        <time>2022-08-27T19:59:55Z</time>
      </trkpt>
      <trkpt lat="46.01175" lon="7.1182">
        <ele>1548</ele>
        <time>2022-08-27T19:59:56Z</time>
      </trkpt>
      <trkpt lat="46.01176" lon="7.11822">
        <ele>1548</ele>
        <time>2022-08-27T19:59:58Z</time>
      </trkpt>
      <trkpt lat="46.01176" lon="7.11823">
        <ele>1548</ele>
        <time>2022-08-27T19:59:59Z</time>
      </trkpt>
      <trkpt lat="46.01176" lon="7.11825">
        <ele>1549</ele>
        <time>2022-08-27T20:00:00Z</time>
      </trkpt>
      <trkpt lat="46.01175" lon="7.11838">
        <ele>1550</ele>
        <time>2022-08-27T20:00:11Z</time>
      </trkpt>
      <trkpt lat="46.01174" lon="7.11839">
        <ele>1550</ele>
        <time>2022-08-27T20:00:12Z</time>
      </trkpt>
      <trkpt lat="46.01174" lon="7.1184">
        <ele>1550</ele>
        <time>2022-08-27T20:00:13Z</time>
      </trkpt>
      <trkpt lat="46.01174" lon="7.11841">
        <ele>1551</ele>
        <time>2022-08-27T20:00:14Z</time>
      </trkpt>
      <trkpt lat="46.01174" lon="7.11842">
        <ele>1551</ele>
        <time>2022-08-27T20:00:16Z</time>
      </trkpt>
      <trkpt lat="46.01173" lon="7.11843">
        <ele>1551</ele>
        <time>2022-08-27T20:00:17Z</time>
      </trkpt>
      <trkpt lat="46.01173" lon="7.11844">
        <ele>1551</ele>
        <time>2022-08-27T20:00:18Z</time>
      </trkpt>
      <trkpt lat="46.01173" lon="7.11845">
        <ele>1552</ele>
        <time>2022-08-27T20:00:19Z</time>
      </trkpt>
      <trkpt lat="46.01173" lon="7.11846">
        <ele>1552</ele>
        <time>2022-08-27T20:00:21Z</time>
      </trkpt>
      <trkpt lat="46.01172" lon="7.11847">
        <ele>1552</ele>
        <time>2022-08-27T20:00:22Z</time>
      </trkpt>
      <trkpt lat="46.01172" lon="7.11848">
        <ele>1552</ele>
        <time>2022-08-27T20:00:23Z</time>
      </trkpt>
      <trkpt lat="46.01172" lon="7.11849">
        <ele>1553</ele>
        <time>2022-08-27T20:00:24Z</time>
      </trkpt>
      <trkpt lat="46.01172" lon="7.11849">
        <ele>1553</ele>
        <time>2022-08-27T20:00:25Z</time>
      </trkpt>
      <trkpt lat="46.01171" lon="7.1185">
        <ele>1553</ele>
        <time>2022-08-27T20:00:26Z</time>
      </trkpt>
      <trkpt lat="46.01171" lon="7.11852">
        <ele>1553</ele>
        <time>2022-08-27T20:00:27Z</time>
      </trkpt>
      <trkpt lat="46.0117" lon="7.11854">
        <ele>1554</ele>
        <time>2022-08-27T20:00:29Z</time>
      </trkpt>
      <trkpt lat="46.0117" lon="7.11856">
        <ele>1554</ele>
        <time>2022-08-27T20:00:30Z</time>
      </trkpt>
      <trkpt lat="46.01169" lon="7.11857">
        <ele>1554</ele>
        <time>2022-08-27T20:00:31Z</time>
      </trkpt>
      <trkpt lat="46.01169" lon="7.11859">
        <ele>1554</ele>
        <time>2022-08-27T20:00:32Z</time>
      </trkpt>
      <trkpt lat="46.01169" lon="7.11861">
        <ele>1554</ele>
        <time>2022-08-27T20:00:34Z</time>
      </trkpt>
      <trkpt lat="46.01168" lon="7.11863">
        <ele>1555</ele>
        <time>2022-08-27T20:00:35Z</time>
      </trkpt>
      <trkpt lat="46.01168" lon="7.11864">
        <ele>1555</ele>
        <time>2022-08-27T20:00:36Z</time>
      </trkpt>
      <trkpt lat="46.01167" lon="7.11866">
        <ele>1555</ele>
        <time>2022-08-27T20:00:37Z</time>
      </trkpt>
      <trkpt lat="46.01167" lon="7.11868">
        <ele>1555</ele>
        <time>2022-08-27T20:00:39Z</time>
      </trkpt>
      <trkpt lat="46.01167" lon="7.11869">
        <ele>1555</ele>
        <time>2022-08-27T20:00:41Z</time>
      </trkpt>
      <trkpt lat="46.01166" lon="7.11871">
        <ele>1556</ele>
        <time>2022-08-27T20:00:42Z</time>
      </trkpt>
      <trkpt lat="46.01166" lon="7.11872">
        <ele>1556</ele>
        <time>2022-08-27T20:00:43Z</time>
      </trkpt>
      <trkpt lat="46.01166" lon="7.11874">
        <ele>1556</ele>
        <time>2022-08-27T20:00:45Z</time>
      </trkpt>
      <trkpt lat="46.01166" lon="7.11876">
        <ele>1556</ele>
        <time>2022-08-27T20:00:46Z</time>
      </trkpt>
      <trkpt lat="46.01166" lon="7.11878">
        <ele>1556</ele>
        <time>2022-08-27T20:00:47Z</time>
      </trkpt>
      <trkpt lat="46.01167" lon="7.1188">
        <ele>1556</ele>
        <time>2022-08-27T20:00:48Z</time>
      </trkpt>
      <trkpt lat="46.01167" lon="7.11882">
        <ele>1556</ele>
        <time>2022-08-27T20:00:50Z</time>
      </trkpt>
      <trkpt lat="46.01168" lon="7.11885">
        <ele>1557</ele>
        <time>2022-08-27T20:00:51Z</time>
      </trkpt>
      <trkpt lat="46.01169" lon="7.11887">
        <ele>1557</ele>
        <time>2022-08-27T20:00:52Z</time>
      </trkpt>
      <trkpt lat="46.01169" lon="7.11889">
        <ele>1557</ele>
        <time>2022-08-27T20:00:53Z</time>
      </trkpt>
      <trkpt lat="46.01169" lon="7.1189">
        <ele>1558</ele>
        <time>2022-08-27T20:00:54Z</time>
      </trkpt>
      <trkpt lat="46.0117" lon="7.11891">
        <ele>1558</ele>
        <time>2022-08-27T20:00:55Z</time>
      </trkpt>
      <trkpt lat="46.0117" lon="7.11892">
        <ele>1558</ele>
        <time>2022-08-27T20:00:56Z</time>
      </trkpt>
      <trkpt lat="46.0117" lon="7.11893">
        <ele>1558</ele>
        <time>2022-08-27T20:00:57Z</time>
      </trkpt>
      <trkpt lat="46.0117" lon="7.11894">
        <ele>1558</ele>
        <time>2022-08-27T20:00:58Z</time>
      </trkpt>
      <trkpt lat="46.0117" lon="7.11895">
        <ele>1558</ele>
        <time>2022-08-27T20:01:00Z</time>
      </trkpt>
      <trkpt lat="46.0117" lon="7.11896">
        <ele>1559</ele>
        <time>2022-08-27T20:01:02Z</time>
      </trkpt>
      <trkpt lat="46.0117" lon="7.11897">
        <ele>1559</ele>
        <time>2022-08-27T20:01:04Z</time>
      </trkpt>
      <trkpt lat="46.0117" lon="7.11898">
        <ele>1559</ele>
        <time>2022-08-27T20:01:05Z</time>
      </trkpt>
      <trkpt lat="46.0117" lon="7.11899">
        <ele>1559</ele>
        <time>2022-08-27T20:01:06Z</time>
      </trkpt>
      <trkpt lat="46.0117" lon="7.119">
        <ele>1559</ele>
        <time>2022-08-27T20:01:07Z</time>
      </trkpt>
      <trkpt lat="46.0117" lon="7.11901">
        <ele>1559</ele>
        <time>2022-08-27T20:01:08Z</time>
      </trkpt>
      <trkpt lat="46.01171" lon="7.11902">
        <ele>1560</ele>
        <time>2022-08-27T20:01:09Z</time>
      </trkpt>
      <trkpt lat="46.01171" lon="7.11903">
        <ele>1560</ele>
        <time>2022-08-27T20:01:10Z</time>
      </trkpt>
      <trkpt lat="46.01171" lon="7.11905">
        <ele>1560</ele>
        <time>2022-08-27T20:01:11Z</time>
      </trkpt>
      <trkpt lat="46.01172" lon="7.11906">
        <ele>1560</ele>
        <time>2022-08-27T20:01:12Z</time>
      </trkpt>
      <trkpt lat="46.01172" lon="7.11907">
        <ele>1560</ele>
        <time>2022-08-27T20:01:14Z</time>
      </trkpt>
      <trkpt lat="46.01172" lon="7.11909">
        <ele>1560</ele>
        <time>2022-08-27T20:01:15Z</time>
      </trkpt>
      <trkpt lat="46.01173" lon="7.1191">
        <ele>1561</ele>
        <time>2022-08-27T20:01:16Z</time>
      </trkpt>
      <trkpt lat="46.01173" lon="7.11911">
        <ele>1561</ele>
        <time>2022-08-27T20:01:17Z</time>
      </trkpt>
      <trkpt lat="46.01173" lon="7.11913">
        <ele>1561</ele>
        <time>2022-08-27T20:01:19Z</time>
      </trkpt>
      <trkpt lat="46.01174" lon="7.11914">
        <ele>1561</ele>
        <time>2022-08-27T20:01:21Z</time>
      </trkpt>
      <trkpt lat="46.01174" lon="7.11915">
        <ele>1562</ele>
        <time>2022-08-27T20:01:22Z</time>
      </trkpt>
      <trkpt lat="46.01174" lon="7.11917">
        <ele>1562</ele>
        <time>2022-08-27T20:01:23Z</time>
      </trkpt>
      <trkpt lat="46.01175" lon="7.11919">
        <ele>1562</ele>
        <time>2022-08-27T20:01:24Z</time>
      </trkpt>
      <trkpt lat="46.01175" lon="7.1192">
        <ele>1562</ele>
        <time>2022-08-27T20:01:25Z</time>
      </trkpt>
      <trkpt lat="46.01175" lon="7.11922">
        <ele>1562</ele>
        <time>2022-08-27T20:01:26Z</time>
      </trkpt>
      <trkpt lat="46.01176" lon="7.11924">
        <ele>1563</ele>
        <time>2022-08-27T20:01:27Z</time>
      </trkpt>
      <trkpt lat="46.01176" lon="7.11925">
        <ele>1563</ele>
        <time>2022-08-27T20:01:29Z</time>
      </trkpt>
      <trkpt lat="46.01177" lon="7.11927">
        <ele>1563</ele>
        <time>2022-08-27T20:01:30Z</time>
      </trkpt>
      <trkpt lat="46.01177" lon="7.11929">
        <ele>1563</ele>
        <time>2022-08-27T20:01:31Z</time>
      </trkpt>
      <trkpt lat="46.01178" lon="7.11931">
        <ele>1564</ele>
        <time>2022-08-27T20:01:32Z</time>
      </trkpt>
      <trkpt lat="46.01178" lon="7.11933">
        <ele>1564</ele>
        <time>2022-08-27T20:01:34Z</time>
      </trkpt>
      <trkpt lat="46.01178" lon="7.11935">
        <ele>1564</ele>
        <time>2022-08-27T20:01:35Z</time>
      </trkpt>
      <trkpt lat="46.01179" lon="7.11937">
        <ele>1564</ele>
        <time>2022-08-27T20:01:36Z</time>
      </trkpt>
      <trkpt lat="46.01179" lon="7.11939">
        <ele>1564</ele>
        <time>2022-08-27T20:01:38Z</time>
      </trkpt>
      <trkpt lat="46.0118" lon="7.11942">
        <ele>1564</ele>
        <time>2022-08-27T20:01:39Z</time>
      </trkpt>
      <trkpt lat="46.01184" lon="7.11952">
        <ele>1564</ele>
        <time>2022-08-27T20:01:47Z</time>
      </trkpt>
      <trkpt lat="46.01187" lon="7.11956">
        <ele>1564</ele>
        <time>2022-08-27T20:01:51Z</time>
      </trkpt>
      <trkpt lat="46.01188" lon="7.11957">
        <ele>1564</ele>
        <time>2022-08-27T20:01:53Z</time>
      </trkpt>
      <trkpt lat="46.01191" lon="7.11958">
        <ele>1564</ele>
        <time>2022-08-27T20:01:55Z</time>
      </trkpt>
      <trkpt lat="46.01193" lon="7.11959">
        <ele>1564</ele>
        <time>2022-08-27T20:01:57Z</time>
      </trkpt>
      <trkpt lat="46.01195" lon="7.1196">
        <ele>1564</ele>
        <time>2022-08-27T20:01:59Z</time>
      </trkpt>
      <trkpt lat="46.01197" lon="7.11961">
        <ele>1564</ele>
        <time>2022-08-27T20:02:01Z</time>
      </trkpt>
      <trkpt lat="46.01198" lon="7.11963">
        <ele>1564</ele>
        <time>2022-08-27T20:02:03Z</time>
      </trkpt>
      <trkpt lat="46.012" lon="7.11965">
        <ele>1564</ele>
        <time>2022-08-27T20:02:05Z</time>
      </trkpt>
      <trkpt lat="46.01202" lon="7.11965">
        <ele>1564</ele>
        <time>2022-08-27T20:02:08Z</time>
      </trkpt>
      <trkpt lat="46.01204" lon="7.11964">
        <ele>1564</ele>
        <time>2022-08-27T20:02:10Z</time>
      </trkpt>
      <trkpt lat="46.01206" lon="7.11962">
        <ele>1564</ele>
        <time>2022-08-27T20:02:12Z</time>
      </trkpt>
      <trkpt lat="46.01208" lon="7.11961">
        <ele>1565</ele>
        <time>2022-08-27T20:02:15Z</time>
      </trkpt>
      <trkpt lat="46.01218" lon="7.11962">
        <ele>1567</ele>
        <time>2022-08-27T20:02:31Z</time>
      </trkpt>
      <trkpt lat="46.01219" lon="7.11961">
        <ele>1567</ele>
        <time>2022-08-27T20:02:32Z</time>
      </trkpt>
      <trkpt lat="46.0122" lon="7.11961">
        <ele>1567</ele>
        <time>2022-08-27T20:02:33Z</time>
      </trkpt>
      <trkpt lat="46.01221" lon="7.11961">
        <ele>1568</ele>
        <time>2022-08-27T20:02:35Z</time>
      </trkpt>
      <trkpt lat="46.01222" lon="7.1196">
        <ele>1568</ele>
        <time>2022-08-27T20:02:36Z</time>
      </trkpt>
      <trkpt lat="46.01223" lon="7.1196">
        <ele>1569</ele>
        <time>2022-08-27T20:02:37Z</time>
      </trkpt>
      <trkpt lat="46.01224" lon="7.1196">
        <ele>1569</ele>
        <time>2022-08-27T20:02:38Z</time>
      </trkpt>
      <trkpt lat="46.01225" lon="7.11959">
        <ele>1569</ele>
        <time>2022-08-27T20:02:39Z</time>
      </trkpt>
      <trkpt lat="46.01226" lon="7.11959">
        <ele>1569</ele>
        <time>2022-08-27T20:02:40Z</time>
      </trkpt>
      <trkpt lat="46.01228" lon="7.11959">
        <ele>1569</ele>
        <time>2022-08-27T20:02:41Z</time>
      </trkpt>
      <trkpt lat="46.01237" lon="7.11959">
        <ele>1571</ele>
        <time>2022-08-27T20:02:54Z</time>
      </trkpt>
      <trkpt lat="46.01238" lon="7.1196">
        <ele>1571</ele>
        <time>2022-08-27T20:02:56Z</time>
      </trkpt>
      <trkpt lat="46.01239" lon="7.1196">
        <ele>1571</ele>
        <time>2022-08-27T20:02:57Z</time>
      </trkpt>
      <trkpt lat="46.0124" lon="7.1196">
        <ele>1571</ele>
        <time>2022-08-27T20:02:58Z</time>
      </trkpt>
      <trkpt lat="46.01241" lon="7.11961">
        <ele>1572</ele>
        <time>2022-08-27T20:02:59Z</time>
      </trkpt>
      <trkpt lat="46.01242" lon="7.11961">
        <ele>1572</ele>
        <time>2022-08-27T20:03:01Z</time>
      </trkpt>
      <trkpt lat="46.01243" lon="7.11962">
        <ele>1572</ele>
        <time>2022-08-27T20:03:02Z</time>
      </trkpt>
      <trkpt lat="46.01244" lon="7.11962">
        <ele>1572</ele>
        <time>2022-08-27T20:03:03Z</time>
      </trkpt>
      <trkpt lat="46.01245" lon="7.11963">
        <ele>1573</ele>
        <time>2022-08-27T20:03:04Z</time>
      </trkpt>
      <trkpt lat="46.01246" lon="7.11963">
        <ele>1573</ele>
        <time>2022-08-27T20:03:05Z</time>
      </trkpt>
      <trkpt lat="46.01247" lon="7.11963">
        <ele>1573</ele>
        <time>2022-08-27T20:03:06Z</time>
      </trkpt>
      <trkpt lat="46.01248" lon="7.11963">
        <ele>1573</ele>
        <time>2022-08-27T20:03:07Z</time>
      </trkpt>
      <trkpt lat="46.0125" lon="7.11963">
        <ele>1574</ele>
        <time>2022-08-27T20:03:08Z</time>
      </trkpt>
      <trkpt lat="46.01251" lon="7.11963">
        <ele>1574</ele>
        <time>2022-08-27T20:03:09Z</time>
      </trkpt>
      <trkpt lat="46.01252" lon="7.11963">
        <ele>1574</ele>
        <time>2022-08-27T20:03:11Z</time>
      </trkpt>
      <trkpt lat="46.01254" lon="7.11963">
        <ele>1574</ele>
        <time>2022-08-27T20:03:13Z</time>
      </trkpt>
      <trkpt lat="46.01255" lon="7.11963">
        <ele>1574</ele>
        <time>2022-08-27T20:03:14Z</time>
      </trkpt>
      <trkpt lat="46.01256" lon="7.11963">
        <ele>1575</ele>
        <time>2022-08-27T20:03:15Z</time>
      </trkpt>
      <trkpt lat="46.01257" lon="7.11963">
        <ele>1575</ele>
        <time>2022-08-27T20:03:17Z</time>
      </trkpt>
      <trkpt lat="46.01258" lon="7.11963">
        <ele>1575</ele>
        <time>2022-08-27T20:03:18Z</time>
      </trkpt>
      <trkpt lat="46.01259" lon="7.11963">
        <ele>1575</ele>
        <time>2022-08-27T20:03:19Z</time>
      </trkpt>
      <trkpt lat="46.0126" lon="7.11963">
        <ele>1575</ele>
        <time>2022-08-27T20:03:20Z</time>
      </trkpt>
      <trkpt lat="46.0126" lon="7.11963">
        <ele>1575</ele>
        <time>2022-08-27T20:03:22Z</time>
      </trkpt>
      <trkpt lat="46.01261" lon="7.11964">
        <ele>1575</ele>
        <time>2022-08-27T20:03:23Z</time>
      </trkpt>
      <trkpt lat="46.01262" lon="7.11964">
        <ele>1575</ele>
        <time>2022-08-27T20:03:24Z</time>
      </trkpt>
      <trkpt lat="46.01263" lon="7.11964">
        <ele>1575</ele>
        <time>2022-08-27T20:03:25Z</time>
      </trkpt>
      <trkpt lat="46.01264" lon="7.11964">
        <ele>1576</ele>
        <time>2022-08-27T20:03:27Z</time>
      </trkpt>
      <trkpt lat="46.01265" lon="7.11964">
        <ele>1576</ele>
        <time>2022-08-27T20:03:28Z</time>
      </trkpt>
      <trkpt lat="46.01265" lon="7.11964">
        <ele>1576</ele>
        <time>2022-08-27T20:03:29Z</time>
      </trkpt>
      <trkpt lat="46.01266" lon="7.11965">
        <ele>1576</ele>
        <time>2022-08-27T20:03:30Z</time>
      </trkpt>
      <trkpt lat="46.01267" lon="7.11965">
        <ele>1576</ele>
        <time>2022-08-27T20:03:32Z</time>
      </trkpt>
      <trkpt lat="46.01268" lon="7.11966">
        <ele>1576</ele>
        <time>2022-08-27T20:03:34Z</time>
      </trkpt>
      <trkpt lat="46.01269" lon="7.11966">
        <ele>1577</ele>
        <time>2022-08-27T20:03:35Z</time>
      </trkpt>
      <trkpt lat="46.0127" lon="7.11967">
        <ele>1577</ele>
        <time>2022-08-27T20:03:36Z</time>
      </trkpt>
      <trkpt lat="46.01271" lon="7.11967">
        <ele>1577</ele>
        <time>2022-08-27T20:03:37Z</time>
      </trkpt>
      <trkpt lat="46.01272" lon="7.11967">
        <ele>1578</ele>
        <time>2022-08-27T20:03:39Z</time>
      </trkpt>
      <trkpt lat="46.01273" lon="7.11968">
        <ele>1578</ele>
        <time>2022-08-27T20:03:40Z</time>
      </trkpt>
      <trkpt lat="46.01274" lon="7.11968">
        <ele>1578</ele>
        <time>2022-08-27T20:03:41Z</time>
      </trkpt>
      <trkpt lat="46.01275" lon="7.11969">
        <ele>1578</ele>
        <time>2022-08-27T20:03:42Z</time>
      </trkpt>
      <trkpt lat="46.01284" lon="7.11971">
        <ele>1579</ele>
        <time>2022-08-27T20:03:56Z</time>
      </trkpt>
      <trkpt lat="46.01285" lon="7.11972">
        <ele>1580</ele>
        <time>2022-08-27T20:03:58Z</time>
      </trkpt>
      <trkpt lat="46.01287" lon="7.11973">
        <ele>1580</ele>
        <time>2022-08-27T20:03:59Z</time>
      </trkpt>
      <trkpt lat="46.01288" lon="7.11974">
        <ele>1580</ele>
        <time>2022-08-27T20:04:00Z</time>
      </trkpt>
      <trkpt lat="46.0129" lon="7.11975">
        <ele>1580</ele>
        <time>2022-08-27T20:04:01Z</time>
      </trkpt>
      <trkpt lat="46.01291" lon="7.11975">
        <ele>1581</ele>
        <time>2022-08-27T20:04:03Z</time>
      </trkpt>
      <trkpt lat="46.01293" lon="7.11976">
        <ele>1581</ele>
        <time>2022-08-27T20:04:04Z</time>
      </trkpt>
      <trkpt lat="46.01293" lon="7.11977">
        <ele>1581</ele>
        <time>2022-08-27T20:04:05Z</time>
      </trkpt>
      <trkpt lat="46.01294" lon="7.11977">
        <ele>1581</ele>
        <time>2022-08-27T20:04:06Z</time>
      </trkpt>
      <trkpt lat="46.01295" lon="7.11978">
        <ele>1581</ele>
        <time>2022-08-27T20:04:08Z</time>
      </trkpt>
      <trkpt lat="46.01296" lon="7.11978">
        <ele>1581</ele>
        <time>2022-08-27T20:04:10Z</time>
      </trkpt>
      <trkpt lat="46.01296" lon="7.11979">
        <ele>1581</ele>
        <time>2022-08-27T20:04:11Z</time>
      </trkpt>
      <trkpt lat="46.01297" lon="7.11979">
        <ele>1581</ele>
        <time>2022-08-27T20:04:12Z</time>
      </trkpt>
      <trkpt lat="46.01298" lon="7.1198">
        <ele>1581</ele>
        <time>2022-08-27T20:04:14Z</time>
      </trkpt>
      <trkpt lat="46.01299" lon="7.1198">
        <ele>1582</ele>
        <time>2022-08-27T20:04:15Z</time>
      </trkpt>
      <trkpt lat="46.01299" lon="7.11981">
        <ele>1582</ele>
        <time>2022-08-27T20:04:16Z</time>
      </trkpt>
      <trkpt lat="46.013" lon="7.11981">
        <ele>1582</ele>
        <time>2022-08-27T20:04:17Z</time>
      </trkpt>
      <trkpt lat="46.01301" lon="7.11982">
        <ele>1582</ele>
        <time>2022-08-27T20:04:18Z</time>
      </trkpt>
      <trkpt lat="46.01302" lon="7.11983">
        <ele>1582</ele>
        <time>2022-08-27T20:04:19Z</time>
      </trkpt>
      <trkpt lat="46.01303" lon="7.11984">
        <ele>1582</ele>
        <time>2022-08-27T20:04:20Z</time>
      </trkpt>
      <trkpt lat="46.01304" lon="7.11986">
        <ele>1582</ele>
        <time>2022-08-27T20:04:21Z</time>
      </trkpt>
      <trkpt lat="46.01305" lon="7.11987">
        <ele>1582</ele>
        <time>2022-08-27T20:04:23Z</time>
      </trkpt>
      <trkpt lat="46.01306" lon="7.11989">
        <ele>1582</ele>
        <time>2022-08-27T20:04:24Z</time>
      </trkpt>
      <trkpt lat="46.01306" lon="7.1199">
        <ele>1583</ele>
        <time>2022-08-27T20:04:25Z</time>
      </trkpt>
      <trkpt lat="46.01307" lon="7.11992">
        <ele>1583</ele>
        <time>2022-08-27T20:04:26Z</time>
      </trkpt>
      <trkpt lat="46.01313" lon="7.12002">
        <ele>1585</ele>
        <time>2022-08-27T20:04:43Z</time>
      </trkpt>
      <trkpt lat="46.01313" lon="7.12002">
        <ele>1585</ele>
        <time>2022-08-27T20:04:48Z</time>
      </trkpt>
      <trkpt lat="46.0132" lon="7.12012">
        <ele>1585</ele>
        <time>2022-08-27T20:04:52Z</time>
      </trkpt>
      <trkpt lat="46.01321" lon="7.12013">
        <ele>1585</ele>
        <time>2022-08-27T20:04:53Z</time>
      </trkpt>
      <trkpt lat="46.01322" lon="7.12014">
        <ele>1585</ele>
        <time>2022-08-27T20:04:54Z</time>
      </trkpt>
      <trkpt lat="46.01323" lon="7.12016">
        <ele>1585</ele>
        <time>2022-08-27T20:04:55Z</time>
      </trkpt>
      <trkpt lat="46.01324" lon="7.12017">
        <ele>1585</ele>
        <time>2022-08-27T20:04:57Z</time>
      </trkpt>
      <trkpt lat="46.01326" lon="7.12019">
        <ele>1585</ele>
        <time>2022-08-27T20:04:58Z</time>
      </trkpt>
      <trkpt lat="46.01327" lon="7.1202">
        <ele>1585</ele>
        <time>2022-08-27T20:04:59Z</time>
      </trkpt>
      <trkpt lat="46.01327" lon="7.12021">
        <ele>1585</ele>
        <time>2022-08-27T20:05:00Z</time>
      </trkpt>
      <trkpt lat="46.01328" lon="7.12022">
        <ele>1586</ele>
        <time>2022-08-27T20:05:02Z</time>
      </trkpt>
      <trkpt lat="46.01328" lon="7.12023">
        <ele>1586</ele>
        <time>2022-08-27T20:05:04Z</time>
      </trkpt>
      <trkpt lat="46.01329" lon="7.12024">
        <ele>1587</ele>
        <time>2022-08-27T20:05:05Z</time>
      </trkpt>
      <trkpt lat="46.01329" lon="7.12025">
        <ele>1587</ele>
        <time>2022-08-27T20:05:07Z</time>
      </trkpt>
      <trkpt lat="46.01329" lon="7.12026">
        <ele>1587</ele>
        <time>2022-08-27T20:05:08Z</time>
      </trkpt>
      <trkpt lat="46.0133" lon="7.12027">
        <ele>1587</ele>
        <time>2022-08-27T20:05:09Z</time>
      </trkpt>
      <trkpt lat="46.01331" lon="7.12028">
        <ele>1587</ele>
        <time>2022-08-27T20:05:10Z</time>
      </trkpt>
      <trkpt lat="46.01331" lon="7.12029">
        <ele>1587</ele>
        <time>2022-08-27T20:05:11Z</time>
      </trkpt>
      <trkpt lat="46.01332" lon="7.1203">
        <ele>1588</ele>
        <time>2022-08-27T20:05:12Z</time>
      </trkpt>
      <trkpt lat="46.01332" lon="7.12031">
        <ele>1588</ele>
        <time>2022-08-27T20:05:14Z</time>
      </trkpt>
      <trkpt lat="46.01333" lon="7.12032">
        <ele>1589</ele>
        <time>2022-08-27T20:05:16Z</time>
      </trkpt>
      <trkpt lat="46.01334" lon="7.12033">
        <ele>1589</ele>
        <time>2022-08-27T20:05:17Z</time>
      </trkpt>
      <trkpt lat="46.01334" lon="7.12034">
        <ele>1589</ele>
        <time>2022-08-27T20:05:18Z</time>
      </trkpt>
      <trkpt lat="46.01335" lon="7.12034">
        <ele>1589</ele>
        <time>2022-08-27T20:05:19Z</time>
      </trkpt>
      <trkpt lat="46.01336" lon="7.12035">
        <ele>1589</ele>
        <time>2022-08-27T20:05:20Z</time>
      </trkpt>
      <trkpt lat="46.01337" lon="7.12035">
        <ele>1589</ele>
        <time>2022-08-27T20:05:21Z</time>
      </trkpt>
      <trkpt lat="46.01338" lon="7.12036">
        <ele>1589</ele>
        <time>2022-08-27T20:05:23Z</time>
      </trkpt>
      <trkpt lat="46.01338" lon="7.12037">
        <ele>1590</ele>
        <time>2022-08-27T20:05:24Z</time>
      </trkpt>
      <trkpt lat="46.01339" lon="7.12037">
        <ele>1590</ele>
        <time>2022-08-27T20:05:26Z</time>
      </trkpt>
      <trkpt lat="46.0134" lon="7.12038">
        <ele>1590</ele>
        <time>2022-08-27T20:05:28Z</time>
      </trkpt>
      <trkpt lat="46.01341" lon="7.12039">
        <ele>1590</ele>
        <time>2022-08-27T20:05:30Z</time>
      </trkpt>
      <trkpt lat="46.01342" lon="7.12039">
        <ele>1590</ele>
        <time>2022-08-27T20:05:31Z</time>
      </trkpt>
      <trkpt lat="46.01343" lon="7.1204">
        <ele>1590</ele>
        <time>2022-08-27T20:05:32Z</time>
      </trkpt>
      <trkpt lat="46.01352" lon="7.12045">
        <ele>1592</ele>
        <time>2022-08-27T20:05:40Z</time>
      </trkpt>
      <trkpt lat="46.01352" lon="7.12045">
        <ele>1594</ele>
        <time>2022-08-27T20:05:52Z</time>
      </trkpt>
      <trkpt lat="46.01357" lon="7.12052">
        <ele>1595</ele>
        <time>2022-08-27T20:05:57Z</time>
      </trkpt>
      <trkpt lat="46.01357" lon="7.12052">
        <ele>1595</ele>
        <time>2022-08-27T20:05:58Z</time>
      </trkpt>
      <trkpt lat="46.01358" lon="7.12053">
        <ele>1595</ele>
        <time>2022-08-27T20:05:59Z</time>
      </trkpt>
      <trkpt lat="46.01358" lon="7.12054">
        <ele>1595</ele>
        <time>2022-08-27T20:06:00Z</time>
      </trkpt>
      <trkpt lat="46.01359" lon="7.12055">
        <ele>1596</ele>
        <time>2022-08-27T20:06:02Z</time>
      </trkpt>
      <trkpt lat="46.01359" lon="7.12056">
        <ele>1596</ele>
        <time>2022-08-27T20:06:03Z</time>
      </trkpt>
      <trkpt lat="46.0136" lon="7.12056">
        <ele>1596</ele>
        <time>2022-08-27T20:06:04Z</time>
      </trkpt>
      <trkpt lat="46.0136" lon="7.12057">
        <ele>1596</ele>
        <time>2022-08-27T20:06:05Z</time>
      </trkpt>
      <trkpt lat="46.01361" lon="7.12058">
        <ele>1597</ele>
        <time>2022-08-27T20:06:06Z</time>
      </trkpt>
      <trkpt lat="46.01361" lon="7.12058">
        <ele>1597</ele>
        <time>2022-08-27T20:06:07Z</time>
      </trkpt>
      <trkpt lat="46.01362" lon="7.12059">
        <ele>1597</ele>
        <time>2022-08-27T20:06:09Z</time>
      </trkpt>
      <trkpt lat="46.01362" lon="7.1206">
        <ele>1597</ele>
        <time>2022-08-27T20:06:10Z</time>
      </trkpt>
      <trkpt lat="46.01363" lon="7.12061">
        <ele>1598</ele>
        <time>2022-08-27T20:06:12Z</time>
      </trkpt>
      <trkpt lat="46.01363" lon="7.12061">
        <ele>1598</ele>
        <time>2022-08-27T20:06:14Z</time>
      </trkpt>
      <trkpt lat="46.01364" lon="7.12062">
        <ele>1598</ele>
        <time>2022-08-27T20:06:15Z</time>
      </trkpt>
      <trkpt lat="46.01364" lon="7.12063">
        <ele>1599</ele>
        <time>2022-08-27T20:06:16Z</time>
      </trkpt>
      <trkpt lat="46.01365" lon="7.12063">
        <ele>1599</ele>
        <time>2022-08-27T20:06:17Z</time>
      </trkpt>
      <trkpt lat="46.01365" lon="7.12064">
        <ele>1599</ele>
        <time>2022-08-27T20:06:19Z</time>
      </trkpt>
      <trkpt lat="46.01366" lon="7.12065">
        <ele>1599</ele>
        <time>2022-08-27T20:06:20Z</time>
      </trkpt>
      <trkpt lat="46.01366" lon="7.12065">
        <ele>1599</ele>
        <time>2022-08-27T20:06:21Z</time>
      </trkpt>
      <trkpt lat="46.01369" lon="7.12068">
        <ele>1600</ele>
        <time>2022-08-27T20:06:27Z</time>
      </trkpt>
      <trkpt lat="46.01371" lon="7.12069">
        <ele>1600</ele>
        <time>2022-08-27T20:06:30Z</time>
      </trkpt>
      <trkpt lat="46.01373" lon="7.1207">
        <ele>1601</ele>
        <time>2022-08-27T20:06:33Z</time>
      </trkpt>
      <trkpt lat="46.01374" lon="7.12072">
        <ele>1601</ele>
        <time>2022-08-27T20:06:34Z</time>
      </trkpt>
      <trkpt lat="46.01375" lon="7.12073">
        <ele>1602</ele>
        <time>2022-08-27T20:06:36Z</time>
      </trkpt>
      <trkpt lat="46.01376" lon="7.12074">
        <ele>1602</ele>
        <time>2022-08-27T20:06:37Z</time>
      </trkpt>
      <trkpt lat="46.01377" lon="7.12075">
        <ele>1602</ele>
        <time>2022-08-27T20:06:38Z</time>
      </trkpt>
      <trkpt lat="46.01378" lon="7.12077">
        <ele>1603</ele>
        <time>2022-08-27T20:06:39Z</time>
      </trkpt>
      <trkpt lat="46.01379" lon="7.12078">
        <ele>1603</ele>
        <time>2022-08-27T20:06:41Z</time>
      </trkpt>
      <trkpt lat="46.0138" lon="7.12079">
        <ele>1603</ele>
        <time>2022-08-27T20:06:42Z</time>
      </trkpt>
      <trkpt lat="46.01381" lon="7.1208">
        <ele>1603</ele>
        <time>2022-08-27T20:06:43Z</time>
      </trkpt>
      <trkpt lat="46.01382" lon="7.12081">
        <ele>1604</ele>
        <time>2022-08-27T20:06:44Z</time>
      </trkpt>
      <trkpt lat="46.01383" lon="7.12082">
        <ele>1604</ele>
        <time>2022-08-27T20:06:45Z</time>
      </trkpt>
      <trkpt lat="46.01383" lon="7.12083">
        <ele>1604</ele>
        <time>2022-08-27T20:06:46Z</time>
      </trkpt>
      <trkpt lat="46.01384" lon="7.12084">
        <ele>1604</ele>
        <time>2022-08-27T20:06:47Z</time>
      </trkpt>
      <trkpt lat="46.01385" lon="7.12085">
        <ele>1603</ele>
        <time>2022-08-27T20:06:48Z</time>
      </trkpt>
      <trkpt lat="46.01386" lon="7.12086">
        <ele>1603</ele>
        <time>2022-08-27T20:06:49Z</time>
      </trkpt>
      <trkpt lat="46.01387" lon="7.12087">
        <ele>1603</ele>
        <time>2022-08-27T20:06:50Z</time>
      </trkpt>
      <trkpt lat="46.01387" lon="7.12088">
        <ele>1604</ele>
        <time>2022-08-27T20:06:51Z</time>
      </trkpt>
      <trkpt lat="46.01388" lon="7.12087">
        <ele>1604</ele>
        <time>2022-08-27T20:06:52Z</time>
      </trkpt>
      <trkpt lat="46.01389" lon="7.12087">
        <ele>1604</ele>
        <time>2022-08-27T20:06:53Z</time>
      </trkpt>
      <trkpt lat="46.01389" lon="7.12087">
        <ele>1604</ele>
        <time>2022-08-27T20:06:54Z</time>
      </trkpt>
      <trkpt lat="46.0139" lon="7.12087">
        <ele>1605</ele>
        <time>2022-08-27T20:06:56Z</time>
      </trkpt>
      <trkpt lat="46.01391" lon="7.12087">
        <ele>1605</ele>
        <time>2022-08-27T20:06:57Z</time>
      </trkpt>
      <trkpt lat="46.01391" lon="7.12087">
        <ele>1605</ele>
        <time>2022-08-27T20:06:58Z</time>
      </trkpt>
      <trkpt lat="46.01392" lon="7.12086">
        <ele>1605</ele>
        <time>2022-08-27T20:06:59Z</time>
      </trkpt>
      <trkpt lat="46.01392" lon="7.12086">
        <ele>1605</ele>
        <time>2022-08-27T20:07:01Z</time>
      </trkpt>
      <trkpt lat="46.01392" lon="7.12085">
        <ele>1606</ele>
        <time>2022-08-27T20:07:03Z</time>
      </trkpt>
      <trkpt lat="46.01393" lon="7.12085">
        <ele>1606</ele>
        <time>2022-08-27T20:07:04Z</time>
      </trkpt>
      <trkpt lat="46.01393" lon="7.12084">
        <ele>1606</ele>
        <time>2022-08-27T20:07:06Z</time>
      </trkpt>
      <trkpt lat="46.01393" lon="7.12084">
        <ele>1606</ele>
        <time>2022-08-27T20:07:07Z</time>
      </trkpt>
      <trkpt lat="46.01394" lon="7.12084">
        <ele>1606</ele>
        <time>2022-08-27T20:07:08Z</time>
      </trkpt>
      <trkpt lat="46.01394" lon="7.12083">
        <ele>1607</ele>
        <time>2022-08-27T20:07:09Z</time>
      </trkpt>
      <trkpt lat="46.01394" lon="7.12083">
        <ele>1607</ele>
        <time>2022-08-27T20:07:11Z</time>
      </trkpt>
      <trkpt lat="46.01394" lon="7.12082">
        <ele>1607</ele>
        <time>2022-08-27T20:07:13Z</time>
      </trkpt>
      <trkpt lat="46.01395" lon="7.12082">
        <ele>1607</ele>
        <time>2022-08-27T20:07:14Z</time>
      </trkpt>
      <trkpt lat="46.01395" lon="7.12081">
        <ele>1607</ele>
        <time>2022-08-27T20:07:15Z</time>
      </trkpt>
      <trkpt lat="46.01395" lon="7.12081">
        <ele>1607</ele>
        <time>2022-08-27T20:07:16Z</time>
      </trkpt>
      <trkpt lat="46.01396" lon="7.1208">
        <ele>1608</ele>
        <time>2022-08-27T20:07:18Z</time>
      </trkpt>
      <trkpt lat="46.01396" lon="7.1208">
        <ele>1608</ele>
        <time>2022-08-27T20:07:20Z</time>
      </trkpt>
      <trkpt lat="46.01396" lon="7.12079">
        <ele>1608</ele>
        <time>2022-08-27T20:07:22Z</time>
      </trkpt>
      <trkpt lat="46.01396" lon="7.12079">
        <ele>1608</ele>
        <time>2022-08-27T20:07:23Z</time>
      </trkpt>
      <trkpt lat="46.01397" lon="7.12078">
        <ele>1608</ele>
        <time>2022-08-27T20:07:24Z</time>
      </trkpt>
      <trkpt lat="46.01397" lon="7.12078">
        <ele>1608</ele>
        <time>2022-08-27T20:07:25Z</time>
      </trkpt>
      <trkpt lat="46.01397" lon="7.12077">
        <ele>1608</ele>
        <time>2022-08-27T20:07:26Z</time>
      </trkpt>
      <trkpt lat="46.01398" lon="7.12077">
        <ele>1608</ele>
        <time>2022-08-27T20:07:27Z</time>
      </trkpt>
      <trkpt lat="46.01398" lon="7.12076">
        <ele>1609</ele>
        <time>2022-08-27T20:07:29Z</time>
      </trkpt>
      <trkpt lat="46.01398" lon="7.12076">
        <ele>1609</ele>
        <time>2022-08-27T20:07:30Z</time>
      </trkpt>
      <trkpt lat="46.01398" lon="7.12075">
        <ele>1609</ele>
        <time>2022-08-27T20:07:31Z</time>
      </trkpt>
      <trkpt lat="46.01398" lon="7.12075">
        <ele>1609</ele>
        <time>2022-08-27T20:07:32Z</time>
      </trkpt>
      <trkpt lat="46.01398" lon="7.12075">
        <ele>1610</ele>
        <time>2022-08-27T20:07:34Z</time>
      </trkpt>
      <trkpt lat="46.01398" lon="7.12074">
        <ele>1610</ele>
        <time>2022-08-27T20:07:35Z</time>
      </trkpt>
      <trkpt lat="46.01398" lon="7.12074">
        <ele>1610</ele>
        <time>2022-08-27T20:07:36Z</time>
      </trkpt>
      <trkpt lat="46.01398" lon="7.12073">
        <ele>1610</ele>
        <time>2022-08-27T20:07:37Z</time>
      </trkpt>
      <trkpt lat="46.01398" lon="7.12073">
        <ele>1610</ele>
        <time>2022-08-27T20:07:39Z</time>
      </trkpt>
      <trkpt lat="46.01398" lon="7.12073">
        <ele>1610</ele>
        <time>2022-08-27T20:07:40Z</time>
      </trkpt>
      <trkpt lat="46.01398" lon="7.12072">
        <ele>1611</ele>
        <time>2022-08-27T20:07:41Z</time>
      </trkpt>
      <trkpt lat="46.01398" lon="7.12072">
        <ele>1611</ele>
        <time>2022-08-27T20:07:42Z</time>
      </trkpt>
      <trkpt lat="46.01397" lon="7.12071">
        <ele>1611</ele>
        <time>2022-08-27T20:07:43Z</time>
      </trkpt>
      <trkpt lat="46.01397" lon="7.12071">
        <ele>1611</ele>
        <time>2022-08-27T20:07:44Z</time>
      </trkpt>
      <trkpt lat="46.01396" lon="7.1206">
        <ele>1611</ele>
        <time>2022-08-27T20:07:46Z</time>
      </trkpt>
      <trkpt lat="46.01395" lon="7.12059">
        <ele>1611</ele>
        <time>2022-08-27T20:07:47Z</time>
      </trkpt>
      <trkpt lat="46.01395" lon="7.12058">
        <ele>1612</ele>
        <time>2022-08-27T20:07:48Z</time>
      </trkpt>
      <trkpt lat="46.01394" lon="7.12057">
        <ele>1612</ele>
        <time>2022-08-27T20:07:49Z</time>
      </trkpt>
      <trkpt lat="46.01394" lon="7.12055">
        <ele>1613</ele>
        <time>2022-08-27T20:07:51Z</time>
      </trkpt>
      <trkpt lat="46.01394" lon="7.12054">
        <ele>1613</ele>
        <time>2022-08-27T20:07:52Z</time>
      </trkpt>
      <trkpt lat="46.01393" lon="7.12053">
        <ele>1614</ele>
        <time>2022-08-27T20:07:53Z</time>
      </trkpt>
      <trkpt lat="46.01393" lon="7.12052">
        <ele>1614</ele>
        <time>2022-08-27T20:07:54Z</time>
      </trkpt>
      <trkpt lat="46.01392" lon="7.12051">
        <ele>1614</ele>
        <time>2022-08-27T20:07:55Z</time>
      </trkpt>
      <trkpt lat="46.01392" lon="7.12049">
        <ele>1614</ele>
        <time>2022-08-27T20:07:56Z</time>
      </trkpt>
      <trkpt lat="46.0139" lon="7.12039">
        <ele>1616</ele>
        <time>2022-08-27T20:08:12Z</time>
      </trkpt>
      <trkpt lat="46.01389" lon="7.12036">
        <ele>1617</ele>
        <time>2022-08-27T20:08:15Z</time>
      </trkpt>
      <trkpt lat="46.01388" lon="7.12033">
        <ele>1617</ele>
        <time>2022-08-27T20:08:19Z</time>
      </trkpt>
      <trkpt lat="46.01386" lon="7.12031">
        <ele>1618</ele>
        <time>2022-08-27T20:08:26Z</time>
      </trkpt>
      <trkpt lat="46.01387" lon="7.12029">
        <ele>1619</ele>
        <time>2022-08-27T20:08:28Z</time>
      </trkpt>
      <trkpt lat="46.01389" lon="7.12028">
        <ele>1619</ele>
        <time>2022-08-27T20:08:29Z</time>
      </trkpt>
      <trkpt lat="46.0139" lon="7.12026">
        <ele>1619</ele>
        <time>2022-08-27T20:08:30Z</time>
      </trkpt>
      <trkpt lat="46.01391" lon="7.12025">
        <ele>1619</ele>
        <time>2022-08-27T20:08:31Z</time>
      </trkpt>
      <trkpt lat="46.01394" lon="7.12022">
        <ele>1619</ele>
        <time>2022-08-27T20:08:33Z</time>
      </trkpt>
      <trkpt lat="46.01396" lon="7.1202">
        <ele>1619</ele>
        <time>2022-08-27T20:08:35Z</time>
      </trkpt>
      <trkpt lat="46.01398" lon="7.12016">
        <ele>1620</ele>
        <time>2022-08-27T20:08:40Z</time>
      </trkpt>
      <trkpt lat="46.014" lon="7.12014">
        <ele>1621</ele>
        <time>2022-08-27T20:08:42Z</time>
      </trkpt>
      <trkpt lat="46.01401" lon="7.12013">
        <ele>1621</ele>
        <time>2022-08-27T20:08:43Z</time>
      </trkpt>
      <trkpt lat="46.01402" lon="7.12012">
        <ele>1621</ele>
        <time>2022-08-27T20:08:45Z</time>
      </trkpt>
      <trkpt lat="46.01402" lon="7.12011">
        <ele>1622</ele>
        <time>2022-08-27T20:08:46Z</time>
      </trkpt>
      <trkpt lat="46.01403" lon="7.1201">
        <ele>1622</ele>
        <time>2022-08-27T20:08:47Z</time>
      </trkpt>
      <trkpt lat="46.01404" lon="7.12009">
        <ele>1622</ele>
        <time>2022-08-27T20:08:48Z</time>
      </trkpt>
      <trkpt lat="46.01406" lon="7.12006">
        <ele>1623</ele>
        <time>2022-08-27T20:08:52Z</time>
      </trkpt>
      <trkpt lat="46.01407" lon="7.12005">
        <ele>1623</ele>
        <time>2022-08-27T20:08:53Z</time>
      </trkpt>
      <trkpt lat="46.01408" lon="7.12004">
        <ele>1623</ele>
        <time>2022-08-27T20:08:55Z</time>
      </trkpt>
      <trkpt lat="46.01408" lon="7.12003">
        <ele>1623</ele>
        <time>2022-08-27T20:08:57Z</time>
      </trkpt>
      <trkpt lat="46.01409" lon="7.12003">
        <ele>1624</ele>
        <time>2022-08-27T20:08:58Z</time>
      </trkpt>
      <trkpt lat="46.01409" lon="7.12002">
        <ele>1624</ele>
        <time>2022-08-27T20:08:59Z</time>
      </trkpt>
      <trkpt lat="46.0141" lon="7.12001">
        <ele>1624</ele>
        <time>2022-08-27T20:09:00Z</time>
      </trkpt>
      <trkpt lat="46.01411" lon="7.12">
        <ele>1624</ele>
        <time>2022-08-27T20:09:02Z</time>
      </trkpt>
      <trkpt lat="46.01411" lon="7.11999">
        <ele>1625</ele>
        <time>2022-08-27T20:09:03Z</time>
      </trkpt>
      <trkpt lat="46.01412" lon="7.11996">
        <ele>1625</ele>
        <time>2022-08-27T20:09:07Z</time>
      </trkpt>
      <trkpt lat="46.01413" lon="7.11994">
        <ele>1626</ele>
        <time>2022-08-27T20:09:11Z</time>
      </trkpt>
      <trkpt lat="46.01414" lon="7.11991">
        <ele>1627</ele>
        <time>2022-08-27T20:09:17Z</time>
      </trkpt>
      <trkpt lat="46.01414" lon="7.1199">
        <ele>1627</ele>
        <time>2022-08-27T20:09:18Z</time>
      </trkpt>
      <trkpt lat="46.01415" lon="7.11989">
        <ele>1627</ele>
        <time>2022-08-27T20:09:19Z</time>
      </trkpt>
      <trkpt lat="46.01415" lon="7.11988">
        <ele>1628</ele>
        <time>2022-08-27T20:09:21Z</time>
      </trkpt>
      <trkpt lat="46.01416" lon="7.11987">
        <ele>1628</ele>
        <time>2022-08-27T20:09:22Z</time>
      </trkpt>
      <trkpt lat="46.01416" lon="7.11986">
        <ele>1628</ele>
        <time>2022-08-27T20:09:23Z</time>
      </trkpt>
      <trkpt lat="46.01417" lon="7.11985">
        <ele>1628</ele>
        <time>2022-08-27T20:09:24Z</time>
      </trkpt>
      <trkpt lat="46.01417" lon="7.11984">
        <ele>1628</ele>
        <time>2022-08-27T20:09:26Z</time>
      </trkpt>
      <trkpt lat="46.01417" lon="7.11983">
        <ele>1628</ele>
        <time>2022-08-27T20:09:27Z</time>
      </trkpt>
      <trkpt lat="46.01418" lon="7.11982">
        <ele>1628</ele>
        <time>2022-08-27T20:09:28Z</time>
      </trkpt>
      <trkpt lat="46.01418" lon="7.11982">
        <ele>1628</ele>
        <time>2022-08-27T20:09:29Z</time>
      </trkpt>
      <trkpt lat="46.01419" lon="7.11981">
        <ele>1628</ele>
        <time>2022-08-27T20:09:30Z</time>
      </trkpt>
      <trkpt lat="46.01419" lon="7.1198">
        <ele>1628</ele>
        <time>2022-08-27T20:09:31Z</time>
      </trkpt>
      <trkpt lat="46.0142" lon="7.11978">
        <ele>1628</ele>
        <time>2022-08-27T20:09:33Z</time>
      </trkpt>
      <trkpt lat="46.01421" lon="7.11977">
        <ele>1628</ele>
        <time>2022-08-27T20:09:34Z</time>
      </trkpt>
      <trkpt lat="46.01422" lon="7.11976">
        <ele>1629</ele>
        <time>2022-08-27T20:09:35Z</time>
      </trkpt>
      <trkpt lat="46.01423" lon="7.11974">
        <ele>1629</ele>
        <time>2022-08-27T20:09:36Z</time>
      </trkpt>
      <trkpt lat="46.01424" lon="7.11973">
        <ele>1629</ele>
        <time>2022-08-27T20:09:37Z</time>
      </trkpt>
      <trkpt lat="46.01424" lon="7.11972">
        <ele>1629</ele>
        <time>2022-08-27T20:09:38Z</time>
      </trkpt>
      <trkpt lat="46.01426" lon="7.11969">
        <ele>1629</ele>
        <time>2022-08-27T20:09:40Z</time>
      </trkpt>
      <trkpt lat="46.01427" lon="7.11968">
        <ele>1629</ele>
        <time>2022-08-27T20:09:41Z</time>
      </trkpt>
      <trkpt lat="46.01428" lon="7.11967">
        <ele>1630</ele>
        <time>2022-08-27T20:09:43Z</time>
      </trkpt>
      <trkpt lat="46.01429" lon="7.11967">
        <ele>1630</ele>
        <time>2022-08-27T20:09:45Z</time>
      </trkpt>
      <trkpt lat="46.0143" lon="7.11966">
        <ele>1630</ele>
        <time>2022-08-27T20:09:46Z</time>
      </trkpt>
      <trkpt lat="46.01431" lon="7.11966">
        <ele>1630</ele>
        <time>2022-08-27T20:09:47Z</time>
      </trkpt>
      <trkpt lat="46.01432" lon="7.11965">
        <ele>1630</ele>
        <time>2022-08-27T20:09:48Z</time>
      </trkpt>
      <trkpt lat="46.01433" lon="7.11964">
        <ele>1630</ele>
        <time>2022-08-27T20:09:50Z</time>
      </trkpt>
      <trkpt lat="46.01434" lon="7.11964">
        <ele>1630</ele>
        <time>2022-08-27T20:09:52Z</time>
      </trkpt>
      <trkpt lat="46.01435" lon="7.11963">
        <ele>1630</ele>
        <time>2022-08-27T20:09:53Z</time>
      </trkpt>
      <trkpt lat="46.01436" lon="7.11963">
        <ele>1630</ele>
        <time>2022-08-27T20:09:54Z</time>
      </trkpt>
      <trkpt lat="46.01436" lon="7.11963">
        <ele>1630</ele>
        <time>2022-08-27T20:09:56Z</time>
      </trkpt>
      <trkpt lat="46.01437" lon="7.11963">
        <ele>1631</ele>
        <time>2022-08-27T20:09:57Z</time>
      </trkpt>
      <trkpt lat="46.01437" lon="7.11963">
        <ele>1632</ele>
        <time>2022-08-27T20:09:58Z</time>
      </trkpt>
      <trkpt lat="46.01438" lon="7.11963">
        <ele>1632</ele>
        <time>2022-08-27T20:09:59Z</time>
      </trkpt>
      <trkpt lat="46.01439" lon="7.11963">
        <ele>1633</ele>
        <time>2022-08-27T20:10:01Z</time>
      </trkpt>
      <trkpt lat="46.01439" lon="7.11963">
        <ele>1633</ele>
        <time>2022-08-27T20:10:02Z</time>
      </trkpt>
      <trkpt lat="46.0144" lon="7.11963">
        <ele>1633</ele>
        <time>2022-08-27T20:10:03Z</time>
      </trkpt>
      <trkpt lat="46.0144" lon="7.11963">
        <ele>1633</ele>
        <time>2022-08-27T20:10:04Z</time>
      </trkpt>
      <trkpt lat="46.01441" lon="7.11963">
        <ele>1633</ele>
        <time>2022-08-27T20:10:06Z</time>
      </trkpt>
      <trkpt lat="46.01442" lon="7.11963">
        <ele>1633</ele>
        <time>2022-08-27T20:10:07Z</time>
      </trkpt>
      <trkpt lat="46.01442" lon="7.11962">
        <ele>1633</ele>
        <time>2022-08-27T20:10:08Z</time>
      </trkpt>
      <trkpt lat="46.01443" lon="7.11962">
        <ele>1634</ele>
        <time>2022-08-27T20:10:09Z</time>
      </trkpt>
      <trkpt lat="46.01444" lon="7.11962">
        <ele>1634</ele>
        <time>2022-08-27T20:10:10Z</time>
      </trkpt>
      <trkpt lat="46.01444" lon="7.11962">
        <ele>1634</ele>
        <time>2022-08-27T20:10:11Z</time>
      </trkpt>
      <trkpt lat="46.01446" lon="7.11962">
        <ele>1634</ele>
        <time>2022-08-27T20:10:13Z</time>
      </trkpt>
      <trkpt lat="46.01447" lon="7.11963">
        <ele>1634</ele>
        <time>2022-08-27T20:10:14Z</time>
      </trkpt>
      <trkpt lat="46.01448" lon="7.11963">
        <ele>1634</ele>
        <time>2022-08-27T20:10:15Z</time>
      </trkpt>
      <trkpt lat="46.0145" lon="7.11963">
        <ele>1634</ele>
        <time>2022-08-27T20:10:16Z</time>
      </trkpt>
      <trkpt lat="46.01451" lon="7.11963">
        <ele>1634</ele>
        <time>2022-08-27T20:10:18Z</time>
      </trkpt>
      <trkpt lat="46.01453" lon="7.11963">
        <ele>1634</ele>
        <time>2022-08-27T20:10:19Z</time>
      </trkpt>
      <trkpt lat="46.01454" lon="7.11963">
        <ele>1634</ele>
        <time>2022-08-27T20:10:20Z</time>
      </trkpt>
      <trkpt lat="46.01456" lon="7.11963">
        <ele>1634</ele>
        <time>2022-08-27T20:10:21Z</time>
      </trkpt>
      <trkpt lat="46.01458" lon="7.11963">
        <ele>1635</ele>
        <time>2022-08-27T20:10:22Z</time>
      </trkpt>
      <trkpt lat="46.0146" lon="7.11963">
        <ele>1635</ele>
        <time>2022-08-27T20:10:23Z</time>
      </trkpt>
      <trkpt lat="46.01462" lon="7.11962">
        <ele>1635</ele>
        <time>2022-08-27T20:10:25Z</time>
      </trkpt>
      <trkpt lat="46.01464" lon="7.11962">
        <ele>1635</ele>
        <time>2022-08-27T20:10:26Z</time>
      </trkpt>
      <trkpt lat="46.01465" lon="7.11962">
        <ele>1636</ele>
        <time>2022-08-27T20:10:27Z</time>
      </trkpt>
      <trkpt lat="46.01466" lon="7.11962">
        <ele>1636</ele>
        <time>2022-08-27T20:10:28Z</time>
      </trkpt>
      <trkpt lat="46.01467" lon="7.11963">
        <ele>1636</ele>
        <time>2022-08-27T20:10:30Z</time>
      </trkpt>
      <trkpt lat="46.01468" lon="7.11963">
        <ele>1636</ele>
        <time>2022-08-27T20:10:31Z</time>
      </trkpt>
      <trkpt lat="46.01469" lon="7.11963">
        <ele>1637</ele>
        <time>2022-08-27T20:10:32Z</time>
      </trkpt>
      <trkpt lat="46.0147" lon="7.11963">
        <ele>1637</ele>
        <time>2022-08-27T20:10:33Z</time>
      </trkpt>
      <trkpt lat="46.01471" lon="7.11963">
        <ele>1637</ele>
        <time>2022-08-27T20:10:35Z</time>
      </trkpt>
      <trkpt lat="46.01473" lon="7.11963">
        <ele>1638</ele>
        <time>2022-08-27T20:10:37Z</time>
      </trkpt>
      <trkpt lat="46.01474" lon="7.11963">
        <ele>1638</ele>
        <time>2022-08-27T20:10:38Z</time>
      </trkpt>
      <trkpt lat="46.01483" lon="7.11966">
        <ele>1639</ele>
        <time>2022-08-27T20:10:47Z</time>
      </trkpt>
      <trkpt lat="46.01493" lon="7.11964">
        <ele>1638</ele>
        <time>2022-08-27T20:10:58Z</time>
      </trkpt>
      <trkpt lat="46.01494" lon="7.11964">
        <ele>1638</ele>
        <time>2022-08-27T20:10:59Z</time>
      </trkpt>
      <trkpt lat="46.01495" lon="7.11964">
        <ele>1638</ele>
        <time>2022-08-27T20:11:00Z</time>
      </trkpt>
      <trkpt lat="46.01496" lon="7.11963">
        <ele>1639</ele>
        <time>2022-08-27T20:11:01Z</time>
      </trkpt>
      <trkpt lat="46.01497" lon="7.11963">
        <ele>1639</ele>
        <time>2022-08-27T20:11:03Z</time>
      </trkpt>
      <trkpt lat="46.01498" lon="7.11963">
        <ele>1639</ele>
        <time>2022-08-27T20:11:04Z</time>
      </trkpt>
      <trkpt lat="46.01499" lon="7.11963">
        <ele>1639</ele>
        <time>2022-08-27T20:11:05Z</time>
      </trkpt>
      <trkpt lat="46.015" lon="7.11963">
        <ele>1639</ele>
        <time>2022-08-27T20:11:06Z</time>
      </trkpt>
      <trkpt lat="46.01501" lon="7.11963">
        <ele>1639</ele>
        <time>2022-08-27T20:11:07Z</time>
      </trkpt>
      <trkpt lat="46.01502" lon="7.11963">
        <ele>1639</ele>
        <time>2022-08-27T20:11:08Z</time>
      </trkpt>
      <trkpt lat="46.01508" lon="7.11972">
        <ele>1639</ele>
        <time>2022-08-27T20:11:18Z</time>
      </trkpt>
      <trkpt lat="46.0151" lon="7.11972">
        <ele>1639</ele>
        <time>2022-08-27T20:11:19Z</time>
      </trkpt>
      <trkpt lat="46.01511" lon="7.11973">
        <ele>1639</ele>
        <time>2022-08-27T20:11:20Z</time>
      </trkpt>
      <trkpt lat="46.01513" lon="7.11973">
        <ele>1639</ele>
        <time>2022-08-27T20:11:21Z</time>
      </trkpt>
      <trkpt lat="46.01514" lon="7.11974">
        <ele>1639</ele>
        <time>2022-08-27T20:11:23Z</time>
      </trkpt>
      <trkpt lat="46.01516" lon="7.11974">
        <ele>1639</ele>
        <time>2022-08-27T20:11:24Z</time>
      </trkpt>
      <trkpt lat="46.01517" lon="7.11975">
        <ele>1639</ele>
        <time>2022-08-27T20:11:25Z</time>
      </trkpt>
      <trkpt lat="46.01527" lon="7.11978">
        <ele>1642</ele>
        <time>2022-08-27T20:11:42Z</time>
      </trkpt>
      <trkpt lat="46.01528" lon="7.11977">
        <ele>1642</ele>
        <time>2022-08-27T20:11:43Z</time>
      </trkpt>
      <trkpt lat="46.01529" lon="7.11977">
        <ele>1642</ele>
        <time>2022-08-27T20:11:44Z</time>
      </trkpt>
      <trkpt lat="46.01531" lon="7.11977">
        <ele>1642</ele>
        <time>2022-08-27T20:11:46Z</time>
      </trkpt>
      <trkpt lat="46.01532" lon="7.11977">
        <ele>1642</ele>
        <time>2022-08-27T20:11:47Z</time>
      </trkpt>
      <trkpt lat="46.01533" lon="7.11977">
        <ele>1642</ele>
        <time>2022-08-27T20:11:48Z</time>
      </trkpt>
      <trkpt lat="46.01535" lon="7.11976">
        <ele>1642</ele>
        <time>2022-08-27T20:11:49Z</time>
      </trkpt>
      <trkpt lat="46.01536" lon="7.11976">
        <ele>1642</ele>
        <time>2022-08-27T20:11:50Z</time>
      </trkpt>
      <trkpt lat="46.01538" lon="7.11976">
        <ele>1642</ele>
        <time>2022-08-27T20:11:51Z</time>
      </trkpt>
      <trkpt lat="46.01541" lon="7.11975">
        <ele>1643</ele>
        <time>2022-08-27T20:11:52Z</time>
      </trkpt>
      <trkpt lat="46.01543" lon="7.11975">
        <ele>1643</ele>
        <time>2022-08-27T20:11:53Z</time>
      </trkpt>
      <trkpt lat="46.01545" lon="7.11974">
        <ele>1643</ele>
        <time>2022-08-27T20:11:55Z</time>
      </trkpt>
      <trkpt lat="46.01547" lon="7.11974">
        <ele>1643</ele>
        <time>2022-08-27T20:11:56Z</time>
      </trkpt>
      <trkpt lat="46.01548" lon="7.11974">
        <ele>1643</ele>
        <time>2022-08-27T20:11:57Z</time>
      </trkpt>
      <trkpt lat="46.01549" lon="7.11975">
        <ele>1643</ele>
        <time>2022-08-27T20:11:58Z</time>
      </trkpt>
      <trkpt lat="46.0155" lon="7.11975">
        <ele>1643</ele>
        <time>2022-08-27T20:11:59Z</time>
      </trkpt>
      <trkpt lat="46.0155" lon="7.11976">
        <ele>1644</ele>
        <time>2022-08-27T20:12:01Z</time>
      </trkpt>
      <trkpt lat="46.01551" lon="7.11976">
        <ele>1644</ele>
        <time>2022-08-27T20:12:02Z</time>
      </trkpt>
      <trkpt lat="46.01552" lon="7.11977">
        <ele>1645</ele>
        <time>2022-08-27T20:12:03Z</time>
      </trkpt>
      <trkpt lat="46.01553" lon="7.11977">
        <ele>1645</ele>
        <time>2022-08-27T20:12:05Z</time>
      </trkpt>
      <trkpt lat="46.01554" lon="7.11978">
        <ele>1645</ele>
        <time>2022-08-27T20:12:06Z</time>
      </trkpt>
      <trkpt lat="46.01554" lon="7.11978">
        <ele>1645</ele>
        <time>2022-08-27T20:12:07Z</time>
      </trkpt>
      <trkpt lat="46.01555" lon="7.11979">
        <ele>1645</ele>
        <time>2022-08-27T20:12:09Z</time>
      </trkpt>
      <trkpt lat="46.01556" lon="7.11979">
        <ele>1645</ele>
        <time>2022-08-27T20:12:10Z</time>
      </trkpt>
      <trkpt lat="46.01557" lon="7.11979">
        <ele>1646</ele>
        <time>2022-08-27T20:12:11Z</time>
      </trkpt>
      <trkpt lat="46.01558" lon="7.11979">
        <ele>1646</ele>
        <time>2022-08-27T20:12:12Z</time>
      </trkpt>
      <trkpt lat="46.01558" lon="7.11979">
        <ele>1646</ele>
        <time>2022-08-27T20:12:14Z</time>
      </trkpt>
      <trkpt lat="46.01559" lon="7.11978">
        <ele>1646</ele>
        <time>2022-08-27T20:12:15Z</time>
      </trkpt>
      <trkpt lat="46.0156" lon="7.11978">
        <ele>1646</ele>
        <time>2022-08-27T20:12:16Z</time>
      </trkpt>
      <trkpt lat="46.01561" lon="7.11978">
        <ele>1646</ele>
        <time>2022-08-27T20:12:17Z</time>
      </trkpt>
      <trkpt lat="46.01562" lon="7.11978">
        <ele>1646</ele>
        <time>2022-08-27T20:12:19Z</time>
      </trkpt>
      <trkpt lat="46.01562" lon="7.11978">
        <ele>1647</ele>
        <time>2022-08-27T20:12:20Z</time>
      </trkpt>
      <trkpt lat="46.01563" lon="7.11977">
        <ele>1647</ele>
        <time>2022-08-27T20:12:21Z</time>
      </trkpt>
      <trkpt lat="46.01564" lon="7.11977">
        <ele>1647</ele>
        <time>2022-08-27T20:12:22Z</time>
      </trkpt>
      <trkpt lat="46.01565" lon="7.11977">
        <ele>1647</ele>
        <time>2022-08-27T20:12:23Z</time>
      </trkpt>
      <trkpt lat="46.01566" lon="7.11977">
        <ele>1648</ele>
        <time>2022-08-27T20:12:24Z</time>
      </trkpt>
      <trkpt lat="46.01566" lon="7.11977">
        <ele>1648</ele>
        <time>2022-08-27T20:12:26Z</time>
      </trkpt>
      <trkpt lat="46.01567" lon="7.11976">
        <ele>1648</ele>
        <time>2022-08-27T20:12:28Z</time>
      </trkpt>
      <trkpt lat="46.01567" lon="7.11976">
        <ele>1648</ele>
        <time>2022-08-27T20:12:29Z</time>
      </trkpt>
      <trkpt lat="46.01568" lon="7.11976">
        <ele>1648</ele>
        <time>2022-08-27T20:12:30Z</time>
      </trkpt>
      <trkpt lat="46.01569" lon="7.11976">
        <ele>1648</ele>
        <time>2022-08-27T20:12:31Z</time>
      </trkpt>
      <trkpt lat="46.01569" lon="7.11975">
        <ele>1649</ele>
        <time>2022-08-27T20:12:33Z</time>
      </trkpt>
      <trkpt lat="46.0157" lon="7.11975">
        <ele>1650</ele>
        <time>2022-08-27T20:12:34Z</time>
      </trkpt>
      <trkpt lat="46.0157" lon="7.11975">
        <ele>1650</ele>
        <time>2022-08-27T20:12:35Z</time>
      </trkpt>
      <trkpt lat="46.01571" lon="7.11975">
        <ele>1650</ele>
        <time>2022-08-27T20:12:36Z</time>
      </trkpt>
      <trkpt lat="46.01572" lon="7.11974">
        <ele>1650</ele>
        <time>2022-08-27T20:12:38Z</time>
      </trkpt>
      <trkpt lat="46.01572" lon="7.11974">
        <ele>1650</ele>
        <time>2022-08-27T20:12:39Z</time>
      </trkpt>
      <trkpt lat="46.01573" lon="7.11974">
        <ele>1650</ele>
        <time>2022-08-27T20:12:40Z</time>
      </trkpt>
      <trkpt lat="46.01573" lon="7.11974">
        <ele>1650</ele>
        <time>2022-08-27T20:12:41Z</time>
      </trkpt>
      <trkpt lat="46.01574" lon="7.11973">
        <ele>1651</ele>
        <time>2022-08-27T20:12:43Z</time>
      </trkpt>
      <trkpt lat="46.01574" lon="7.11973">
        <ele>1651</ele>
        <time>2022-08-27T20:12:44Z</time>
      </trkpt>
      <trkpt lat="46.01575" lon="7.11973">
        <ele>1651</ele>
        <time>2022-08-27T20:12:45Z</time>
      </trkpt>
      <trkpt lat="46.01576" lon="7.11973">
        <ele>1651</ele>
        <time>2022-08-27T20:12:46Z</time>
      </trkpt>
      <trkpt lat="46.01577" lon="7.11972">
        <ele>1652</ele>
        <time>2022-08-27T20:12:47Z</time>
      </trkpt>
      <trkpt lat="46.01578" lon="7.11972">
        <ele>1652</ele>
        <time>2022-08-27T20:12:48Z</time>
      </trkpt>
      <trkpt lat="46.01579" lon="7.11971">
        <ele>1652</ele>
        <time>2022-08-27T20:12:50Z</time>
      </trkpt>
      <trkpt lat="46.01579" lon="7.11971">
        <ele>1652</ele>
        <time>2022-08-27T20:12:51Z</time>
      </trkpt>
      <trkpt lat="46.0158" lon="7.11971">
        <ele>1652</ele>
        <time>2022-08-27T20:12:52Z</time>
      </trkpt>
      <trkpt lat="46.01581" lon="7.1197">
        <ele>1653</ele>
        <time>2022-08-27T20:12:53Z</time>
      </trkpt>
      <trkpt lat="46.01582" lon="7.1197">
        <ele>1653</ele>
        <time>2022-08-27T20:12:55Z</time>
      </trkpt>
      <trkpt lat="46.01583" lon="7.1197">
        <ele>1653</ele>
        <time>2022-08-27T20:12:56Z</time>
      </trkpt>
      <trkpt lat="46.01584" lon="7.11969">
        <ele>1654</ele>
        <time>2022-08-27T20:12:57Z</time>
      </trkpt>
      <trkpt lat="46.01585" lon="7.11969">
        <ele>1654</ele>
        <time>2022-08-27T20:12:58Z</time>
      </trkpt>
      <trkpt lat="46.01586" lon="7.11969">
        <ele>1654</ele>
        <time>2022-08-27T20:13:00Z</time>
      </trkpt>
      <trkpt lat="46.01587" lon="7.11969">
        <ele>1654</ele>
        <time>2022-08-27T20:13:02Z</time>
      </trkpt>
      <trkpt lat="46.01588" lon="7.11969">
        <ele>1654</ele>
        <time>2022-08-27T20:13:03Z</time>
      </trkpt>
      <trkpt lat="46.0159" lon="7.11969">
        <ele>1655</ele>
        <time>2022-08-27T20:13:04Z</time>
      </trkpt>
      <trkpt lat="46.01591" lon="7.11969">
        <ele>1655</ele>
        <time>2022-08-27T20:13:05Z</time>
      </trkpt>
      <trkpt lat="46.01592" lon="7.11969">
        <ele>1655</ele>
        <time>2022-08-27T20:13:06Z</time>
      </trkpt>
      <trkpt lat="46.01593" lon="7.11969">
        <ele>1655</ele>
        <time>2022-08-27T20:13:07Z</time>
      </trkpt>
      <trkpt lat="46.01594" lon="7.11968">
        <ele>1655</ele>
        <time>2022-08-27T20:13:08Z</time>
      </trkpt>
      <trkpt lat="46.01595" lon="7.11968">
        <ele>1655</ele>
        <time>2022-08-27T20:13:09Z</time>
      </trkpt>
      <trkpt lat="46.01596" lon="7.11968">
        <ele>1656</ele>
        <time>2022-08-27T20:13:10Z</time>
      </trkpt>
      <trkpt lat="46.01597" lon="7.11968">
        <ele>1656</ele>
        <time>2022-08-27T20:13:12Z</time>
      </trkpt>
      <trkpt lat="46.01598" lon="7.11968">
        <ele>1656</ele>
        <time>2022-08-27T20:13:13Z</time>
      </trkpt>
      <trkpt lat="46.01598" lon="7.11967">
        <ele>1656</ele>
        <time>2022-08-27T20:13:14Z</time>
      </trkpt>
      <trkpt lat="46.01599" lon="7.11967">
        <ele>1656</ele>
        <time>2022-08-27T20:13:15Z</time>
      </trkpt>
      <trkpt lat="46.016" lon="7.11967">
        <ele>1656</ele>
        <time>2022-08-27T20:13:17Z</time>
      </trkpt>
      <trkpt lat="46.01601" lon="7.11967">
        <ele>1656</ele>
        <time>2022-08-27T20:13:19Z</time>
      </trkpt>
      <trkpt lat="46.01602" lon="7.11967">
        <ele>1656</ele>
        <time>2022-08-27T20:13:21Z</time>
      </trkpt>
      <trkpt lat="46.01603" lon="7.11966">
        <ele>1656</ele>
        <time>2022-08-27T20:13:22Z</time>
      </trkpt>
      <trkpt lat="46.01605" lon="7.11967">
        <ele>1655</ele>
        <time>2022-08-27T20:13:23Z</time>
      </trkpt>
      <trkpt lat="46.01607" lon="7.11967">
        <ele>1655</ele>
        <time>2022-08-27T20:13:25Z</time>
      </trkpt>
      <trkpt lat="46.01608" lon="7.11967">
        <ele>1654</ele>
        <time>2022-08-27T20:13:26Z</time>
      </trkpt>
      <trkpt lat="46.0161" lon="7.11967">
        <ele>1654</ele>
        <time>2022-08-27T20:13:27Z</time>
      </trkpt>
      <trkpt lat="46.01612" lon="7.11967">
        <ele>1654</ele>
        <time>2022-08-27T20:13:28Z</time>
      </trkpt>
      <trkpt lat="46.01615" lon="7.11966">
        <ele>1652</ele>
        <time>2022-08-27T20:13:34Z</time>
      </trkpt>
      <trkpt lat="46.01615" lon="7.11965">
        <ele>1650</ele>
        <time>2022-08-27T20:13:36Z</time>
      </trkpt>
      <trkpt lat="46.01615" lon="7.11964">
        <ele>1650</ele>
        <time>2022-08-27T20:13:37Z</time>
      </trkpt>
      <trkpt lat="46.01615" lon="7.11963">
        <ele>1649</ele>
        <time>2022-08-27T20:13:38Z</time>
      </trkpt>
      <trkpt lat="46.01616" lon="7.11962">
        <ele>1649</ele>
        <time>2022-08-27T20:13:40Z</time>
      </trkpt>
      <trkpt lat="46.01616" lon="7.11961">
        <ele>1648</ele>
        <time>2022-08-27T20:13:42Z</time>
      </trkpt>
      <trkpt lat="46.01616" lon="7.1196">
        <ele>1648</ele>
        <time>2022-08-27T20:13:43Z</time>
      </trkpt>
      <trkpt lat="46.01616" lon="7.11959">
        <ele>1648</ele>
        <time>2022-08-27T20:13:44Z</time>
      </trkpt>
      <trkpt lat="46.01617" lon="7.11949">
        <ele>1647</ele>
        <time>2022-08-27T20:13:45Z</time>
      </trkpt>
      <trkpt lat="46.01618" lon="7.11947">
        <ele>1647</ele>
        <time>2022-08-27T20:13:47Z</time>
      </trkpt>
      <trkpt lat="46.01618" lon="7.11944">
        <ele>1647</ele>
        <time>2022-08-27T20:13:48Z</time>
      </trkpt>
      <trkpt lat="46.01619" lon="7.11942">
        <ele>1646</ele>
        <time>2022-08-27T20:13:50Z</time>
      </trkpt>
      <trkpt lat="46.0162" lon="7.11939">
        <ele>1646</ele>
        <time>2022-08-27T20:13:51Z</time>
      </trkpt>
      <trkpt lat="46.01621" lon="7.11938">
        <ele>1646</ele>
        <time>2022-08-27T20:13:52Z</time>
      </trkpt>
      <trkpt lat="46.01623" lon="7.11937">
        <ele>1646</ele>
        <time>2022-08-27T20:13:53Z</time>
      </trkpt>
      <trkpt lat="46.01624" lon="7.11937">
        <ele>1645</ele>
        <time>2022-08-27T20:13:55Z</time>
      </trkpt>
      <trkpt lat="46.01625" lon="7.11936">
        <ele>1645</ele>
        <time>2022-08-27T20:13:56Z</time>
      </trkpt>
      <trkpt lat="46.01627" lon="7.11935">
        <ele>1644</ele>
        <time>2022-08-27T20:13:57Z</time>
      </trkpt>
      <trkpt lat="46.01628" lon="7.11934">
        <ele>1644</ele>
        <time>2022-08-27T20:13:58Z</time>
      </trkpt>
      <trkpt lat="46.0163" lon="7.11933">
        <ele>1644</ele>
        <time>2022-08-27T20:13:59Z</time>
      </trkpt>
      <trkpt lat="46.01631" lon="7.11933">
        <ele>1643</ele>
        <time>2022-08-27T20:14:01Z</time>
      </trkpt>
      <trkpt lat="46.01632" lon="7.11932">
        <ele>1643</ele>
        <time>2022-08-27T20:14:02Z</time>
      </trkpt>
      <trkpt lat="46.01632" lon="7.11932">
        <ele>1643</ele>
        <time>2022-08-27T20:14:03Z</time>
      </trkpt>
      <trkpt lat="46.01633" lon="7.11932">
        <ele>1643</ele>
        <time>2022-08-27T20:14:04Z</time>
      </trkpt>
      <trkpt lat="46.01642" lon="7.11928">
        <ele>1643</ele>
        <time>2022-08-27T20:14:06Z</time>
      </trkpt>
      <trkpt lat="46.01643" lon="7.11929">
        <ele>1643</ele>
        <time>2022-08-27T20:14:07Z</time>
      </trkpt>
      <trkpt lat="46.01644" lon="7.11929">
        <ele>1643</ele>
        <time>2022-08-27T20:14:08Z</time>
      </trkpt>
      <trkpt lat="46.01645" lon="7.11929">
        <ele>1643</ele>
        <time>2022-08-27T20:14:09Z</time>
      </trkpt>
      <trkpt lat="46.01647" lon="7.11929">
        <ele>1644</ele>
        <time>2022-08-27T20:14:11Z</time>
      </trkpt>
      <trkpt lat="46.01648" lon="7.11929">
        <ele>1644</ele>
        <time>2022-08-27T20:14:13Z</time>
      </trkpt>
      <trkpt lat="46.01649" lon="7.1193">
        <ele>1644</ele>
        <time>2022-08-27T20:14:14Z</time>
      </trkpt>
      <trkpt lat="46.0165" lon="7.1193">
        <ele>1644</ele>
        <time>2022-08-27T20:14:15Z</time>
      </trkpt>
      <trkpt lat="46.01651" lon="7.1193">
        <ele>1644</ele>
        <time>2022-08-27T20:14:16Z</time>
      </trkpt>
      <trkpt lat="46.01652" lon="7.1193">
        <ele>1644</ele>
        <time>2022-08-27T20:14:18Z</time>
      </trkpt>
      <trkpt lat="46.01653" lon="7.1193">
        <ele>1645</ele>
        <time>2022-08-27T20:14:19Z</time>
      </trkpt>
      <trkpt lat="46.01654" lon="7.11929">
        <ele>1645</ele>
        <time>2022-08-27T20:14:20Z</time>
      </trkpt>
      <trkpt lat="46.01655" lon="7.11929">
        <ele>1646</ele>
        <time>2022-08-27T20:14:21Z</time>
      </trkpt>
      <trkpt lat="46.01656" lon="7.11929">
        <ele>1646</ele>
        <time>2022-08-27T20:14:23Z</time>
      </trkpt>
      <trkpt lat="46.01657" lon="7.11929">
        <ele>1647</ele>
        <time>2022-08-27T20:14:25Z</time>
      </trkpt>
      <trkpt lat="46.01657" lon="7.11929">
        <ele>1647</ele>
        <time>2022-08-27T20:14:26Z</time>
      </trkpt>
      <trkpt lat="46.01658" lon="7.11929">
        <ele>1647</ele>
        <time>2022-08-27T20:14:27Z</time>
      </trkpt>
      <trkpt lat="46.01659" lon="7.11929">
        <ele>1647</ele>
        <time>2022-08-27T20:14:28Z</time>
      </trkpt>
      <trkpt lat="46.0166" lon="7.11929">
        <ele>1647</ele>
        <time>2022-08-27T20:14:30Z</time>
      </trkpt>
      <trkpt lat="46.01661" lon="7.11928">
        <ele>1647</ele>
        <time>2022-08-27T20:14:31Z</time>
      </trkpt>
      <trkpt lat="46.01662" lon="7.11928">
        <ele>1647</ele>
        <time>2022-08-27T20:14:32Z</time>
      </trkpt>
      <trkpt lat="46.01663" lon="7.11928">
        <ele>1647</ele>
        <time>2022-08-27T20:14:33Z</time>
      </trkpt>
      <trkpt lat="46.01664" lon="7.11928">
        <ele>1647</ele>
        <time>2022-08-27T20:14:34Z</time>
      </trkpt>
      <trkpt lat="46.01665" lon="7.11927">
        <ele>1647</ele>
        <time>2022-08-27T20:14:35Z</time>
      </trkpt>
      <trkpt lat="46.01668" lon="7.11927">
        <ele>1647</ele>
        <time>2022-08-27T20:14:37Z</time>
      </trkpt>
      <trkpt lat="46.01672" lon="7.11926">
        <ele>1647</ele>
        <time>2022-08-27T20:14:39Z</time>
      </trkpt>
      <trkpt lat="46.01675" lon="7.11925">
        <ele>1648</ele>
        <time>2022-08-27T20:14:41Z</time>
      </trkpt>
      <trkpt lat="46.01678" lon="7.11924">
        <ele>1648</ele>
        <time>2022-08-27T20:14:42Z</time>
      </trkpt>
      <trkpt lat="46.01679" lon="7.11924">
        <ele>1648</ele>
        <time>2022-08-27T20:14:43Z</time>
      </trkpt>
      <trkpt lat="46.01681" lon="7.11923">
        <ele>1648</ele>
        <time>2022-08-27T20:14:44Z</time>
      </trkpt>
      <trkpt lat="46.01683" lon="7.11922">
        <ele>1649</ele>
        <time>2022-08-27T20:14:45Z</time>
      </trkpt>
      <trkpt lat="46.01685" lon="7.11921">
        <ele>1649</ele>
        <time>2022-08-27T20:14:47Z</time>
      </trkpt>
      <trkpt lat="46.01687" lon="7.1192">
        <ele>1649</ele>
        <time>2022-08-27T20:14:48Z</time>
      </trkpt>
      <trkpt lat="46.01689" lon="7.11919">
        <ele>1649</ele>
        <time>2022-08-27T20:14:49Z</time>
      </trkpt>
      <trkpt lat="46.01698" lon="7.11915">
        <ele>1648</ele>
        <time>2022-08-27T20:14:56Z</time>
      </trkpt>
      <trkpt lat="46.017" lon="7.11915">
        <ele>1648</ele>
        <time>2022-08-27T20:14:57Z</time>
      </trkpt>
      <trkpt lat="46.01702" lon="7.11915">
        <ele>1648</ele>
        <time>2022-08-27T20:14:58Z</time>
      </trkpt>
      <trkpt lat="46.01704" lon="7.11915">
        <ele>1648</ele>
        <time>2022-08-27T20:15:00Z</time>
      </trkpt>
      <trkpt lat="46.01706" lon="7.11915">
        <ele>1648</ele>
        <time>2022-08-27T20:15:01Z</time>
      </trkpt>
      <trkpt lat="46.01709" lon="7.11914">
        <ele>1648</ele>
        <time>2022-08-27T20:15:03Z</time>
      </trkpt>
      <trkpt lat="46.01711" lon="7.11913">
        <ele>1648</ele>
        <time>2022-08-27T20:15:04Z</time>
      </trkpt>
      <trkpt lat="46.01712" lon="7.11912">
        <ele>1648</ele>
        <time>2022-08-27T20:15:05Z</time>
      </trkpt>
      <trkpt lat="46.01713" lon="7.11912">
        <ele>1648</ele>
        <time>2022-08-27T20:15:06Z</time>
      </trkpt>
      <trkpt lat="46.01714" lon="7.11911">
        <ele>1648</ele>
        <time>2022-08-27T20:15:07Z</time>
      </trkpt>
      <trkpt lat="46.01715" lon="7.1191">
        <ele>1648</ele>
        <time>2022-08-27T20:15:08Z</time>
      </trkpt>
      <trkpt lat="46.01716" lon="7.1191">
        <ele>1648</ele>
        <time>2022-08-27T20:15:10Z</time>
      </trkpt>
      <trkpt lat="46.01718" lon="7.11909">
        <ele>1648</ele>
        <time>2022-08-27T20:15:12Z</time>
      </trkpt>
      <trkpt lat="46.01719" lon="7.11908">
        <ele>1648</ele>
        <time>2022-08-27T20:15:13Z</time>
      </trkpt>
      <trkpt lat="46.0172" lon="7.11908">
        <ele>1648</ele>
        <time>2022-08-27T20:15:15Z</time>
      </trkpt>
      <trkpt lat="46.01721" lon="7.11907">
        <ele>1647</ele>
        <time>2022-08-27T20:15:17Z</time>
      </trkpt>
      <trkpt lat="46.01723" lon="7.11907">
        <ele>1647</ele>
        <time>2022-08-27T20:15:18Z</time>
      </trkpt>
      <trkpt lat="46.01724" lon="7.11906">
        <ele>1647</ele>
        <time>2022-08-27T20:15:19Z</time>
      </trkpt>
      <trkpt lat="46.01725" lon="7.11906">
        <ele>1647</ele>
        <time>2022-08-27T20:15:20Z</time>
      </trkpt>
      <trkpt lat="46.01726" lon="7.11905">
        <ele>1646</ele>
        <time>2022-08-27T20:15:22Z</time>
      </trkpt>
      <trkpt lat="46.01728" lon="7.11905">
        <ele>1646</ele>
        <time>2022-08-27T20:15:24Z</time>
      </trkpt>
      <trkpt lat="46.01729" lon="7.11904">
        <ele>1646</ele>
        <time>2022-08-27T20:15:25Z</time>
      </trkpt>
      <trkpt lat="46.0173" lon="7.11904">
        <ele>1646</ele>
        <time>2022-08-27T20:15:26Z</time>
      </trkpt>
      <trkpt lat="46.01731" lon="7.11904">
        <ele>1647</ele>
        <time>2022-08-27T20:15:27Z</time>
      </trkpt>
      <trkpt lat="46.01733" lon="7.11904">
        <ele>1647</ele>
        <time>2022-08-27T20:15:28Z</time>
      </trkpt>
      <trkpt lat="46.01734" lon="7.11904">
        <ele>1647</ele>
        <time>2022-08-27T20:15:30Z</time>
      </trkpt>
      <trkpt lat="46.01735" lon="7.11904">
        <ele>1647</ele>
        <time>2022-08-27T20:15:31Z</time>
      </trkpt>
      <trkpt lat="46.01736" lon="7.11904">
        <ele>1647</ele>
        <time>2022-08-27T20:15:32Z</time>
      </trkpt>
      <trkpt lat="46.01739" lon="7.11905">
        <ele>1647</ele>
        <time>2022-08-27T20:15:36Z</time>
      </trkpt>
      <trkpt lat="46.01742" lon="7.11906">
        <ele>1647</ele>
        <time>2022-08-27T20:15:42Z</time>
      </trkpt>
      <trkpt lat="46.01746" lon="7.11905">
        <ele>1647</ele>
        <time>2022-08-27T20:15:44Z</time>
      </trkpt>
      <trkpt lat="46.01748" lon="7.11906">
        <ele>1647</ele>
        <time>2022-08-27T20:15:45Z</time>
      </trkpt>
      <trkpt lat="46.01749" lon="7.11905">
        <ele>1647</ele>
        <time>2022-08-27T20:15:46Z</time>
      </trkpt>
      <trkpt lat="46.0175" lon="7.11905">
        <ele>1647</ele>
        <time>2022-08-27T20:15:48Z</time>
      </trkpt>
      <trkpt lat="46.01751" lon="7.11905">
        <ele>1647</ele>
        <time>2022-08-27T20:15:49Z</time>
      </trkpt>
      <trkpt lat="46.01753" lon="7.11904">
        <ele>1648</ele>
        <time>2022-08-27T20:15:50Z</time>
      </trkpt>
      <trkpt lat="46.01754" lon="7.11904">
        <ele>1648</ele>
        <time>2022-08-27T20:15:51Z</time>
      </trkpt>
      <trkpt lat="46.01755" lon="7.11903">
        <ele>1648</ele>
        <time>2022-08-27T20:15:52Z</time>
      </trkpt>
      <trkpt lat="46.01757" lon="7.11903">
        <ele>1648</ele>
        <time>2022-08-27T20:15:53Z</time>
      </trkpt>
      <trkpt lat="46.01757" lon="7.11902">
        <ele>1648</ele>
        <time>2022-08-27T20:15:54Z</time>
      </trkpt>
      <trkpt lat="46.01758" lon="7.11902">
        <ele>1650</ele>
        <time>2022-08-27T20:15:55Z</time>
      </trkpt>
      <trkpt lat="46.01758" lon="7.11901">
        <ele>1650</ele>
        <time>2022-08-27T20:15:56Z</time>
      </trkpt>
      <trkpt lat="46.01759" lon="7.11901">
        <ele>1650</ele>
        <time>2022-08-27T20:15:57Z</time>
      </trkpt>
      <trkpt lat="46.01759" lon="7.119">
        <ele>1650</ele>
        <time>2022-08-27T20:15:58Z</time>
      </trkpt>
      <trkpt lat="46.0176" lon="7.11899">
        <ele>1650</ele>
        <time>2022-08-27T20:16:00Z</time>
      </trkpt>
      <trkpt lat="46.0176" lon="7.11899">
        <ele>1650</ele>
        <time>2022-08-27T20:16:01Z</time>
      </trkpt>
      <trkpt lat="46.0176" lon="7.11898">
        <ele>1650</ele>
        <time>2022-08-27T20:16:03Z</time>
      </trkpt>
      <trkpt lat="46.01761" lon="7.11898">
        <ele>1650</ele>
        <time>2022-08-27T20:16:04Z</time>
      </trkpt>
      <trkpt lat="46.01761" lon="7.11897">
        <ele>1650</ele>
        <time>2022-08-27T20:16:05Z</time>
      </trkpt>
      <trkpt lat="46.01762" lon="7.11896">
        <ele>1651</ele>
        <time>2022-08-27T20:16:06Z</time>
      </trkpt>
      <trkpt lat="46.01762" lon="7.11896">
        <ele>1651</ele>
        <time>2022-08-27T20:16:08Z</time>
      </trkpt>
      <trkpt lat="46.01763" lon="7.11895">
        <ele>1652</ele>
        <time>2022-08-27T20:16:09Z</time>
      </trkpt>
      <trkpt lat="46.01763" lon="7.11894">
        <ele>1652</ele>
        <time>2022-08-27T20:16:10Z</time>
      </trkpt>
      <trkpt lat="46.01765" lon="7.11894">
        <ele>1652</ele>
        <time>2022-08-27T20:16:12Z</time>
      </trkpt>
      <trkpt lat="46.01766" lon="7.11894">
        <ele>1652</ele>
        <time>2022-08-27T20:16:13Z</time>
      </trkpt>
      <trkpt lat="46.01767" lon="7.11893">
        <ele>1652</ele>
        <time>2022-08-27T20:16:14Z</time>
      </trkpt>
      <trkpt lat="46.01769" lon="7.11893">
        <ele>1652</ele>
        <time>2022-08-27T20:16:16Z</time>
      </trkpt>
      <trkpt lat="46.0177" lon="7.11893">
        <ele>1652</ele>
        <time>2022-08-27T20:16:17Z</time>
      </trkpt>
      <trkpt lat="46.01771" lon="7.11892">
        <ele>1652</ele>
        <time>2022-08-27T20:16:18Z</time>
      </trkpt>
      <trkpt lat="46.01773" lon="7.11892">
        <ele>1652</ele>
        <time>2022-08-27T20:16:19Z</time>
      </trkpt>
      <trkpt lat="46.0178" lon="7.11899">
        <ele>1653</ele>
        <time>2022-08-27T20:16:31Z</time>
      </trkpt>
      <trkpt lat="46.01783" lon="7.11901">
        <ele>1653</ele>
        <time>2022-08-27T20:16:32Z</time>
      </trkpt>
      <trkpt lat="46.01785" lon="7.11903">
        <ele>1653</ele>
        <time>2022-08-27T20:16:33Z</time>
      </trkpt>
      <trkpt lat="46.01787" lon="7.11905">
        <ele>1653</ele>
        <time>2022-08-27T20:16:35Z</time>
      </trkpt>
      <trkpt lat="46.01789" lon="7.11907">
        <ele>1653</ele>
        <time>2022-08-27T20:16:36Z</time>
      </trkpt>
      <trkpt lat="46.01792" lon="7.11908">
        <ele>1653</ele>
        <time>2022-08-27T20:16:38Z</time>
      </trkpt>
      <trkpt lat="46.01794" lon="7.11909">
        <ele>1654</ele>
        <time>2022-08-27T20:16:40Z</time>
      </trkpt>
      <trkpt lat="46.01796" lon="7.11909">
        <ele>1654</ele>
        <time>2022-08-27T20:16:42Z</time>
      </trkpt>
      <trkpt lat="46.01798" lon="7.11912">
        <ele>1654</ele>
        <time>2022-08-27T20:16:45Z</time>
      </trkpt>
      <trkpt lat="46.018" lon="7.11914">
        <ele>1655</ele>
        <time>2022-08-27T20:16:47Z</time>
      </trkpt>
      <trkpt lat="46.01801" lon="7.11915">
        <ele>1655</ele>
        <time>2022-08-27T20:16:48Z</time>
      </trkpt>
      <trkpt lat="46.01802" lon="7.11917">
        <ele>1655</ele>
        <time>2022-08-27T20:16:50Z</time>
      </trkpt>
      <trkpt lat="46.01803" lon="7.11918">
        <ele>1655</ele>
        <time>2022-08-27T20:16:52Z</time>
      </trkpt>
      <trkpt lat="46.01805" lon="7.1192">
        <ele>1655</ele>
        <time>2022-08-27T20:16:53Z</time>
      </trkpt>
      <trkpt lat="46.01806" lon="7.11921">
        <ele>1655</ele>
        <time>2022-08-27T20:16:54Z</time>
      </trkpt>
      <trkpt lat="46.01807" lon="7.11923">
        <ele>1655</ele>
        <time>2022-08-27T20:16:55Z</time>
      </trkpt>
      <trkpt lat="46.01808" lon="7.11924">
        <ele>1655</ele>
        <time>2022-08-27T20:16:56Z</time>
      </trkpt>
      <trkpt lat="46.01809" lon="7.11926">
        <ele>1656</ele>
        <time>2022-08-27T20:16:57Z</time>
      </trkpt>
      <trkpt lat="46.0181" lon="7.11927">
        <ele>1656</ele>
        <time>2022-08-27T20:16:58Z</time>
      </trkpt>
      <trkpt lat="46.01811" lon="7.11928">
        <ele>1656</ele>
        <time>2022-08-27T20:16:59Z</time>
      </trkpt>
      <trkpt lat="46.01812" lon="7.1193">
        <ele>1656</ele>
        <time>2022-08-27T20:17:00Z</time>
      </trkpt>
      <trkpt lat="46.01813" lon="7.11931">
        <ele>1656</ele>
        <time>2022-08-27T20:17:01Z</time>
      </trkpt>
      <trkpt lat="46.01813" lon="7.11932">
        <ele>1657</ele>
        <time>2022-08-27T20:17:02Z</time>
      </trkpt>
      <trkpt lat="46.01815" lon="7.11934">
        <ele>1657</ele>
        <time>2022-08-27T20:17:03Z</time>
      </trkpt>
      <trkpt lat="46.01817" lon="7.11934">
        <ele>1657</ele>
        <time>2022-08-27T20:17:06Z</time>
      </trkpt>
      <trkpt lat="46.01818" lon="7.11935">
        <ele>1658</ele>
        <time>2022-08-27T20:17:09Z</time>
      </trkpt>
      <trkpt lat="46.01818" lon="7.11935">
        <ele>1658</ele>
        <time>2022-08-27T20:17:10Z</time>
      </trkpt>
      <trkpt lat="46.01818" lon="7.11936">
        <ele>1658</ele>
        <time>2022-08-27T20:17:11Z</time>
      </trkpt>
      <trkpt lat="46.01819" lon="7.11936">
        <ele>1658</ele>
        <time>2022-08-27T20:17:13Z</time>
      </trkpt>
      <trkpt lat="46.01819" lon="7.11936">
        <ele>1659</ele>
        <time>2022-08-27T20:17:14Z</time>
      </trkpt>
      <trkpt lat="46.01819" lon="7.11937">
        <ele>1659</ele>
        <time>2022-08-27T20:17:15Z</time>
      </trkpt>
      <trkpt lat="46.0182" lon="7.11937">
        <ele>1659</ele>
        <time>2022-08-27T20:17:16Z</time>
      </trkpt>
      <trkpt lat="46.0182" lon="7.11937">
        <ele>1659</ele>
        <time>2022-08-27T20:17:18Z</time>
      </trkpt>
      <trkpt lat="46.01821" lon="7.11938">
        <ele>1659</ele>
        <time>2022-08-27T20:17:19Z</time>
      </trkpt>
      <trkpt lat="46.01821" lon="7.11938">
        <ele>1659</ele>
        <time>2022-08-27T20:17:20Z</time>
      </trkpt>
      <trkpt lat="46.01821" lon="7.11941">
        <ele>1660</ele>
        <time>2022-08-27T20:17:23Z</time>
      </trkpt>
      <trkpt lat="46.01821" lon="7.11944">
        <ele>1661</ele>
        <time>2022-08-27T20:17:25Z</time>
      </trkpt>
      <trkpt lat="46.01822" lon="7.11947">
        <ele>1661</ele>
        <time>2022-08-27T20:17:28Z</time>
      </trkpt>
      <trkpt lat="46.01823" lon="7.1195">
        <ele>1661</ele>
        <time>2022-08-27T20:17:31Z</time>
      </trkpt>
      <trkpt lat="46.01825" lon="7.11952">
        <ele>1662</ele>
        <time>2022-08-27T20:17:33Z</time>
      </trkpt>
      <trkpt lat="46.01826" lon="7.11953">
        <ele>1662</ele>
        <time>2022-08-27T20:17:35Z</time>
      </trkpt>
      <trkpt lat="46.01828" lon="7.11955">
        <ele>1663</ele>
        <time>2022-08-27T20:17:37Z</time>
      </trkpt>
      <trkpt lat="46.0183" lon="7.11957">
        <ele>1663</ele>
        <time>2022-08-27T20:17:40Z</time>
      </trkpt>
      <trkpt lat="46.01832" lon="7.11958">
        <ele>1663</ele>
        <time>2022-08-27T20:17:43Z</time>
      </trkpt>
      <trkpt lat="46.01834" lon="7.11959">
        <ele>1663</ele>
        <time>2022-08-27T20:17:46Z</time>
      </trkpt>
      <trkpt lat="46.01836" lon="7.11961">
        <ele>1665</ele>
        <time>2022-08-27T20:17:49Z</time>
      </trkpt>
      <trkpt lat="46.01837" lon="7.11963">
        <ele>1665</ele>
        <time>2022-08-27T20:17:52Z</time>
      </trkpt>
      <trkpt lat="46.01839" lon="7.11965">
        <ele>1666</ele>
        <time>2022-08-27T20:17:56Z</time>
      </trkpt>
      <trkpt lat="46.01841" lon="7.11966">
        <ele>1667</ele>
        <time>2022-08-27T20:17:59Z</time>
      </trkpt>
      <trkpt lat="46.01842" lon="7.11968">
        <ele>1667</ele>
        <time>2022-08-27T20:18:01Z</time>
      </trkpt>
      <trkpt lat="46.01844" lon="7.1197">
        <ele>1667</ele>
        <time>2022-08-27T20:18:04Z</time>
      </trkpt>
      <trkpt lat="46.01844" lon="7.1197">
        <ele>1667</ele>
        <time>2022-08-27T20:18:06Z</time>
      </trkpt>
      <trkpt lat="46.01845" lon="7.11971">
        <ele>1667</ele>
        <time>2022-08-27T20:18:07Z</time>
      </trkpt>
      <trkpt lat="46.01846" lon="7.11971">
        <ele>1667</ele>
        <time>2022-08-27T20:18:08Z</time>
      </trkpt>
      <trkpt lat="46.01846" lon="7.11971">
        <ele>1668</ele>
        <time>2022-08-27T20:18:10Z</time>
      </trkpt>
      <trkpt lat="46.01847" lon="7.11972">
        <ele>1668</ele>
        <time>2022-08-27T20:18:11Z</time>
      </trkpt>
      <trkpt lat="46.01848" lon="7.11972">
        <ele>1668</ele>
        <time>2022-08-27T20:18:12Z</time>
      </trkpt>
      <trkpt lat="46.0185" lon="7.11973">
        <ele>1669</ele>
        <time>2022-08-27T20:18:14Z</time>
      </trkpt>
      <trkpt lat="46.01859" lon="7.11978">
        <ele>1673</ele>
        <time>2022-08-27T20:18:34Z</time>
      </trkpt>
      <trkpt lat="46.01859" lon="7.11978">
        <ele>1673</ele>
        <time>2022-08-27T20:18:37Z</time>
      </trkpt>
      <trkpt lat="46.01861" lon="7.11983">
        <ele>1674</ele>
        <time>2022-08-27T20:18:41Z</time>
      </trkpt>
      <trkpt lat="46.01862" lon="7.11985">
        <ele>1674</ele>
        <time>2022-08-27T20:18:44Z</time>
      </trkpt>
      <trkpt lat="46.01869" lon="7.11994">
        <ele>1678</ele>
        <time>2022-08-27T20:18:56Z</time>
      </trkpt>
      <trkpt lat="46.01871" lon="7.11997">
        <ele>1678</ele>
        <time>2022-08-27T20:19:01Z</time>
      </trkpt>
      <trkpt lat="46.01872" lon="7.11997">
        <ele>1679</ele>
        <time>2022-08-27T20:19:03Z</time>
      </trkpt>
      <trkpt lat="46.01873" lon="7.11998">
        <ele>1678</ele>
        <time>2022-08-27T20:19:05Z</time>
      </trkpt>
      <trkpt lat="46.01873" lon="7.11998">
        <ele>1678</ele>
        <time>2022-08-27T20:19:06Z</time>
      </trkpt>
      <trkpt lat="46.01874" lon="7.11998">
        <ele>1679</ele>
        <time>2022-08-27T20:19:07Z</time>
      </trkpt>
      <trkpt lat="46.01875" lon="7.11998">
        <ele>1679</ele>
        <time>2022-08-27T20:19:08Z</time>
      </trkpt>
      <trkpt lat="46.01875" lon="7.11998">
        <ele>1679</ele>
        <time>2022-08-27T20:19:10Z</time>
      </trkpt>
      <trkpt lat="46.01876" lon="7.11998">
        <ele>1679</ele>
        <time>2022-08-27T20:19:11Z</time>
      </trkpt>
      <trkpt lat="46.01876" lon="7.11998">
        <ele>1679</ele>
        <time>2022-08-27T20:19:12Z</time>
      </trkpt>
      <trkpt lat="46.01877" lon="7.11998">
        <ele>1679</ele>
        <time>2022-08-27T20:19:13Z</time>
      </trkpt>
      <trkpt lat="46.01879" lon="7.11999">
        <ele>1679</ele>
        <time>2022-08-27T20:19:17Z</time>
      </trkpt>
      <trkpt lat="46.0188" lon="7.11999">
        <ele>1679</ele>
        <time>2022-08-27T20:19:18Z</time>
      </trkpt>
      <trkpt lat="46.01881" lon="7.12">
        <ele>1679</ele>
        <time>2022-08-27T20:19:20Z</time>
      </trkpt>
      <trkpt lat="46.01882" lon="7.12">
        <ele>1679</ele>
        <time>2022-08-27T20:19:22Z</time>
      </trkpt>
      <trkpt lat="46.01883" lon="7.12001">
        <ele>1679</ele>
        <time>2022-08-27T20:19:23Z</time>
      </trkpt>
      <trkpt lat="46.01884" lon="7.12001">
        <ele>1679</ele>
        <time>2022-08-27T20:19:24Z</time>
      </trkpt>
      <trkpt lat="46.01885" lon="7.12001">
        <ele>1679</ele>
        <time>2022-08-27T20:19:26Z</time>
      </trkpt>
      <trkpt lat="46.01886" lon="7.12002">
        <ele>1679</ele>
        <time>2022-08-27T20:19:27Z</time>
      </trkpt>
      <trkpt lat="46.01887" lon="7.12002">
        <ele>1679</ele>
        <time>2022-08-27T20:19:28Z</time>
      </trkpt>
      <trkpt lat="46.01888" lon="7.12003">
        <ele>1679</ele>
        <time>2022-08-27T20:19:29Z</time>
      </trkpt>
      <trkpt lat="46.01889" lon="7.12003">
        <ele>1679</ele>
        <time>2022-08-27T20:19:30Z</time>
      </trkpt>
      <trkpt lat="46.01891" lon="7.1199">
        <ele>1681</ele>
        <time>2022-08-27T20:19:41Z</time>
      </trkpt>
      <trkpt lat="46.0189" lon="7.11989">
        <ele>1681</ele>
        <time>2022-08-27T20:19:42Z</time>
      </trkpt>
      <trkpt lat="46.0189" lon="7.11988">
        <ele>1682</ele>
        <time>2022-08-27T20:19:43Z</time>
      </trkpt>
      <trkpt lat="46.01889" lon="7.11987">
        <ele>1682</ele>
        <time>2022-08-27T20:19:45Z</time>
      </trkpt>
      <trkpt lat="46.01888" lon="7.11986">
        <ele>1682</ele>
        <time>2022-08-27T20:19:46Z</time>
      </trkpt>
      <trkpt lat="46.01887" lon="7.11985">
        <ele>1682</ele>
        <time>2022-08-27T20:19:47Z</time>
      </trkpt>
      <trkpt lat="46.01886" lon="7.11984">
        <ele>1682</ele>
        <time>2022-08-27T20:19:48Z</time>
      </trkpt>
      <trkpt lat="46.01885" lon="7.11984">
        <ele>1682</ele>
        <time>2022-08-27T20:19:50Z</time>
      </trkpt>
      <trkpt lat="46.01884" lon="7.11983">
        <ele>1682</ele>
        <time>2022-08-27T20:19:52Z</time>
      </trkpt>
      <trkpt lat="46.01883" lon="7.11982">
        <ele>1683</ele>
        <time>2022-08-27T20:19:53Z</time>
      </trkpt>
      <trkpt lat="46.01882" lon="7.1198">
        <ele>1683</ele>
        <time>2022-08-27T20:19:54Z</time>
      </trkpt>
      <trkpt lat="46.01881" lon="7.11978">
        <ele>1683</ele>
        <time>2022-08-27T20:19:55Z</time>
      </trkpt>
      <trkpt lat="46.0188" lon="7.11977">
        <ele>1683</ele>
        <time>2022-08-27T20:19:57Z</time>
      </trkpt>
      <trkpt lat="46.01879" lon="7.11975">
        <ele>1683</ele>
        <time>2022-08-27T20:19:58Z</time>
      </trkpt>
      <trkpt lat="46.01877" lon="7.11973">
        <ele>1683</ele>
        <time>2022-08-27T20:20:00Z</time>
      </trkpt>
      <trkpt lat="46.01876" lon="7.11971">
        <ele>1683</ele>
        <time>2022-08-27T20:20:01Z</time>
      </trkpt>
      <trkpt lat="46.01876" lon="7.1197">
        <ele>1684</ele>
        <time>2022-08-27T20:20:02Z</time>
      </trkpt>
      <trkpt lat="46.01875" lon="7.11969">
        <ele>1685</ele>
        <time>2022-08-27T20:20:04Z</time>
      </trkpt>
      <trkpt lat="46.01874" lon="7.11968">
        <ele>1685</ele>
        <time>2022-08-27T20:20:05Z</time>
      </trkpt>
      <trkpt lat="46.01873" lon="7.11967">
        <ele>1685</ele>
        <time>2022-08-27T20:20:06Z</time>
      </trkpt>
      <trkpt lat="46.01872" lon="7.11966">
        <ele>1685</ele>
        <time>2022-08-27T20:20:07Z</time>
      </trkpt>
      <trkpt lat="46.01872" lon="7.11965">
        <ele>1685</ele>
        <time>2022-08-27T20:20:09Z</time>
      </trkpt>
      <trkpt lat="46.01871" lon="7.11963">
        <ele>1685</ele>
        <time>2022-08-27T20:20:10Z</time>
      </trkpt>
      <trkpt lat="46.0187" lon="7.11962">
        <ele>1685</ele>
        <time>2022-08-27T20:20:11Z</time>
      </trkpt>
      <trkpt lat="46.01869" lon="7.11961">
        <ele>1685</ele>
        <time>2022-08-27T20:20:12Z</time>
      </trkpt>
      <trkpt lat="46.01868" lon="7.11961">
        <ele>1685</ele>
        <time>2022-08-27T20:20:14Z</time>
      </trkpt>
      <trkpt lat="46.01866" lon="7.1196">
        <ele>1685</ele>
        <time>2022-08-27T20:20:15Z</time>
      </trkpt>
      <trkpt lat="46.01865" lon="7.11959">
        <ele>1686</ele>
        <time>2022-08-27T20:20:16Z</time>
      </trkpt>
      <trkpt lat="46.01863" lon="7.11958">
        <ele>1686</ele>
        <time>2022-08-27T20:20:17Z</time>
      </trkpt>
      <trkpt lat="46.01862" lon="7.11957">
        <ele>1686</ele>
        <time>2022-08-27T20:20:18Z</time>
      </trkpt>
      <trkpt lat="46.0186" lon="7.11957">
        <ele>1686</ele>
        <time>2022-08-27T20:20:19Z</time>
      </trkpt>
      <trkpt lat="46.01859" lon="7.11955">
        <ele>1686</ele>
        <time>2022-08-27T20:20:21Z</time>
      </trkpt>
      <trkpt lat="46.01857" lon="7.11953">
        <ele>1686</ele>
        <time>2022-08-27T20:20:22Z</time>
      </trkpt>
      <trkpt lat="46.01856" lon="7.11952">
        <ele>1686</ele>
        <time>2022-08-27T20:20:23Z</time>
      </trkpt>
      <trkpt lat="46.01855" lon="7.1195">
        <ele>1686</ele>
        <time>2022-08-27T20:20:24Z</time>
      </trkpt>
      <trkpt lat="46.01853" lon="7.11948">
        <ele>1686</ele>
        <time>2022-08-27T20:20:25Z</time>
      </trkpt>
      <trkpt lat="46.01853" lon="7.11947">
        <ele>1686</ele>
        <time>2022-08-27T20:20:26Z</time>
      </trkpt>
      <trkpt lat="46.01853" lon="7.11947">
        <ele>1686</ele>
        <time>2022-08-27T20:20:27Z</time>
      </trkpt>
      <trkpt lat="46.01853" lon="7.11946">
        <ele>1686</ele>
        <time>2022-08-27T20:20:28Z</time>
      </trkpt>
      <trkpt lat="46.01852" lon="7.11945">
        <ele>1686</ele>
        <time>2022-08-27T20:20:30Z</time>
      </trkpt>
      <trkpt lat="46.01852" lon="7.11945">
        <ele>1686</ele>
        <time>2022-08-27T20:20:31Z</time>
      </trkpt>
      <trkpt lat="46.01852" lon="7.11944">
        <ele>1686</ele>
        <time>2022-08-27T20:20:32Z</time>
      </trkpt>
      <trkpt lat="46.01852" lon="7.11943">
        <ele>1686</ele>
        <time>2022-08-27T20:20:33Z</time>
      </trkpt>
      <trkpt lat="46.01846" lon="7.11933">
        <ele>1686</ele>
        <time>2022-08-27T20:20:35Z</time>
      </trkpt>
      <trkpt lat="46.01844" lon="7.11932">
        <ele>1686</ele>
        <time>2022-08-27T20:20:37Z</time>
      </trkpt>
      <trkpt lat="46.01842" lon="7.11931">
        <ele>1686</ele>
        <time>2022-08-27T20:20:38Z</time>
      </trkpt>
      <trkpt lat="46.0184" lon="7.1193">
        <ele>1686</ele>
        <time>2022-08-27T20:20:39Z</time>
      </trkpt>
      <trkpt lat="46.01832" lon="7.11923">
        <ele>1684</ele>
        <time>2022-08-27T20:20:47Z</time>
      </trkpt>
      <trkpt lat="46.01828" lon="7.1191">
        <ele>1683</ele>
        <time>2022-08-27T20:20:57Z</time>
      </trkpt>
      <trkpt lat="46.01828" lon="7.11909">
        <ele>1683</ele>
        <time>2022-08-27T20:20:59Z</time>
      </trkpt>
      <trkpt lat="46.01827" lon="7.11907">
        <ele>1683</ele>
        <time>2022-08-27T20:21:00Z</time>
      </trkpt>
      <trkpt lat="46.01827" lon="7.11906">
        <ele>1683</ele>
        <time>2022-08-27T20:21:01Z</time>
      </trkpt>
      <trkpt lat="46.01827" lon="7.11905">
        <ele>1683</ele>
        <time>2022-08-27T20:21:02Z</time>
      </trkpt>
      <trkpt lat="46.01827" lon="7.11903">
        <ele>1682</ele>
        <time>2022-08-27T20:21:04Z</time>
      </trkpt>
      <trkpt lat="46.01826" lon="7.11902">
        <ele>1682</ele>
        <time>2022-08-27T20:21:06Z</time>
      </trkpt>
      <trkpt lat="46.01826" lon="7.11901">
        <ele>1682</ele>
        <time>2022-08-27T20:21:07Z</time>
      </trkpt>
      <trkpt lat="46.01826" lon="7.119">
        <ele>1683</ele>
        <time>2022-08-27T20:21:08Z</time>
      </trkpt>
      <trkpt lat="46.01826" lon="7.11898">
        <ele>1683</ele>
        <time>2022-08-27T20:21:09Z</time>
      </trkpt>
      <trkpt lat="46.01825" lon="7.11897">
        <ele>1683</ele>
        <time>2022-08-27T20:21:10Z</time>
      </trkpt>
      <trkpt lat="46.01825" lon="7.11896">
        <ele>1683</ele>
        <time>2022-08-27T20:21:11Z</time>
      </trkpt>
      <trkpt lat="46.01824" lon="7.11895">
        <ele>1683</ele>
        <time>2022-08-27T20:21:12Z</time>
      </trkpt>
      <trkpt lat="46.01824" lon="7.11894">
        <ele>1683</ele>
        <time>2022-08-27T20:21:13Z</time>
      </trkpt>
      <trkpt lat="46.01823" lon="7.11893">
        <ele>1683</ele>
        <time>2022-08-27T20:21:15Z</time>
      </trkpt>
      <trkpt lat="46.01823" lon="7.11892">
        <ele>1684</ele>
        <time>2022-08-27T20:21:16Z</time>
      </trkpt>
      <trkpt lat="46.01822" lon="7.11891">
        <ele>1685</ele>
        <time>2022-08-27T20:21:17Z</time>
      </trkpt>
      <trkpt lat="46.01822" lon="7.1189">
        <ele>1685</ele>
        <time>2022-08-27T20:21:18Z</time>
      </trkpt>
      <trkpt lat="46.01821" lon="7.11888">
        <ele>1685</ele>
        <time>2022-08-27T20:21:20Z</time>
      </trkpt>
      <trkpt lat="46.01821" lon="7.11887">
        <ele>1685</ele>
        <time>2022-08-27T20:21:21Z</time>
      </trkpt>
      <trkpt lat="46.0182" lon="7.11886">
        <ele>1685</ele>
        <time>2022-08-27T20:21:22Z</time>
      </trkpt>
      <trkpt lat="46.0182" lon="7.11885">
        <ele>1686</ele>
        <time>2022-08-27T20:21:23Z</time>
      </trkpt>
      <trkpt lat="46.01819" lon="7.11883">
        <ele>1686</ele>
        <time>2022-08-27T20:21:25Z</time>
      </trkpt>
      <trkpt lat="46.01819" lon="7.11882">
        <ele>1686</ele>
        <time>2022-08-27T20:21:26Z</time>
      </trkpt>
      <trkpt lat="46.01819" lon="7.11881">
        <ele>1686</ele>
        <time>2022-08-27T20:21:27Z</time>
      </trkpt>
      <trkpt lat="46.01818" lon="7.11879">
        <ele>1686</ele>
        <time>2022-08-27T20:21:28Z</time>
      </trkpt>
      <trkpt lat="46.01818" lon="7.11878">
        <ele>1686</ele>
        <time>2022-08-27T20:21:30Z</time>
      </trkpt>
      <trkpt lat="46.01818" lon="7.11876">
        <ele>1686</ele>
        <time>2022-08-27T20:21:31Z</time>
      </trkpt>
      <trkpt lat="46.01817" lon="7.11875">
        <ele>1687</ele>
        <time>2022-08-27T20:21:32Z</time>
      </trkpt>
      <trkpt lat="46.01817" lon="7.11874">
        <ele>1687</ele>
        <time>2022-08-27T20:21:33Z</time>
      </trkpt>
      <trkpt lat="46.01817" lon="7.11872">
        <ele>1687</ele>
        <time>2022-08-27T20:21:35Z</time>
      </trkpt>
      <trkpt lat="46.01817" lon="7.11871">
        <ele>1688</ele>
        <time>2022-08-27T20:21:37Z</time>
      </trkpt>
      <trkpt lat="46.01817" lon="7.11869">
        <ele>1688</ele>
        <time>2022-08-27T20:21:38Z</time>
      </trkpt>
      <trkpt lat="46.01818" lon="7.11868">
        <ele>1688</ele>
        <time>2022-08-27T20:21:39Z</time>
      </trkpt>
      <trkpt lat="46.01818" lon="7.11866">
        <ele>1688</ele>
        <time>2022-08-27T20:21:40Z</time>
      </trkpt>
      <trkpt lat="46.01818" lon="7.11865">
        <ele>1688</ele>
        <time>2022-08-27T20:21:42Z</time>
      </trkpt>
      <trkpt lat="46.01818" lon="7.11863">
        <ele>1688</ele>
        <time>2022-08-27T20:21:43Z</time>
      </trkpt>
      <trkpt lat="46.01818" lon="7.11862">
        <ele>1688</ele>
        <time>2022-08-27T20:21:44Z</time>
      </trkpt>
      <trkpt lat="46.01818" lon="7.11861">
        <ele>1689</ele>
        <time>2022-08-27T20:21:45Z</time>
      </trkpt>
      <trkpt lat="46.01818" lon="7.11859">
        <ele>1689</ele>
        <time>2022-08-27T20:21:47Z</time>
      </trkpt>
      <trkpt lat="46.01818" lon="7.11858">
        <ele>1689</ele>
        <time>2022-08-27T20:21:49Z</time>
      </trkpt>
      <trkpt lat="46.01818" lon="7.11857">
        <ele>1690</ele>
        <time>2022-08-27T20:21:50Z</time>
      </trkpt>
      <trkpt lat="46.01818" lon="7.11856">
        <ele>1690</ele>
        <time>2022-08-27T20:21:51Z</time>
      </trkpt>
      <trkpt lat="46.01817" lon="7.11855">
        <ele>1690</ele>
        <time>2022-08-27T20:21:52Z</time>
      </trkpt>
      <trkpt lat="46.01817" lon="7.11853">
        <ele>1690</ele>
        <time>2022-08-27T20:21:54Z</time>
      </trkpt>
      <trkpt lat="46.01817" lon="7.11852">
        <ele>1690</ele>
        <time>2022-08-27T20:21:55Z</time>
      </trkpt>
      <trkpt lat="46.01817" lon="7.11851">
        <ele>1691</ele>
        <time>2022-08-27T20:21:56Z</time>
      </trkpt>
      <trkpt lat="46.01817" lon="7.1185">
        <ele>1691</ele>
        <time>2022-08-27T20:21:57Z</time>
      </trkpt>
      <trkpt lat="46.01816" lon="7.11848">
        <ele>1691</ele>
        <time>2022-08-27T20:21:58Z</time>
      </trkpt>
      <trkpt lat="46.01816" lon="7.11847">
        <ele>1692</ele>
        <time>2022-08-27T20:21:59Z</time>
      </trkpt>
      <trkpt lat="46.01817" lon="7.11848">
        <ele>1692</ele>
        <time>2022-08-27T20:22:00Z</time>
      </trkpt>
      <trkpt lat="46.01818" lon="7.11848">
        <ele>1692</ele>
        <time>2022-08-27T20:22:01Z</time>
      </trkpt>
      <trkpt lat="46.01819" lon="7.11848">
        <ele>1692</ele>
        <time>2022-08-27T20:22:02Z</time>
      </trkpt>
      <trkpt lat="46.0182" lon="7.11848">
        <ele>1692</ele>
        <time>2022-08-27T20:22:04Z</time>
      </trkpt>
      <trkpt lat="46.01821" lon="7.11849">
        <ele>1692</ele>
        <time>2022-08-27T20:22:05Z</time>
      </trkpt>
      <trkpt lat="46.01822" lon="7.11849">
        <ele>1692</ele>
        <time>2022-08-27T20:22:06Z</time>
      </trkpt>
      <trkpt lat="46.01823" lon="7.11849">
        <ele>1692</ele>
        <time>2022-08-27T20:22:07Z</time>
      </trkpt>
      <trkpt lat="46.01824" lon="7.1185">
        <ele>1693</ele>
        <time>2022-08-27T20:22:09Z</time>
      </trkpt>
      <trkpt lat="46.01825" lon="7.1185">
        <ele>1693</ele>
        <time>2022-08-27T20:22:10Z</time>
      </trkpt>
      <trkpt lat="46.01826" lon="7.1185">
        <ele>1693</ele>
        <time>2022-08-27T20:22:11Z</time>
      </trkpt>
      <trkpt lat="46.01828" lon="7.1185">
        <ele>1693</ele>
        <time>2022-08-27T20:22:12Z</time>
      </trkpt>
      <trkpt lat="46.0183" lon="7.11851">
        <ele>1693</ele>
        <time>2022-08-27T20:22:13Z</time>
      </trkpt>
      <trkpt lat="46.01832" lon="7.11851">
        <ele>1694</ele>
        <time>2022-08-27T20:22:15Z</time>
      </trkpt>
      <trkpt lat="46.01834" lon="7.11852">
        <ele>1694</ele>
        <time>2022-08-27T20:22:16Z</time>
      </trkpt>
      <trkpt lat="46.01837" lon="7.11852">
        <ele>1694</ele>
        <time>2022-08-27T20:22:17Z</time>
      </trkpt>
      <trkpt lat="46.01839" lon="7.11853">
        <ele>1694</ele>
        <time>2022-08-27T20:22:18Z</time>
      </trkpt>
      <trkpt lat="46.0184" lon="7.11855">
        <ele>1694</ele>
        <time>2022-08-27T20:22:19Z</time>
      </trkpt>
      <trkpt lat="46.01842" lon="7.11856">
        <ele>1694</ele>
        <time>2022-08-27T20:22:20Z</time>
      </trkpt>
      <trkpt lat="46.01844" lon="7.11857">
        <ele>1695</ele>
        <time>2022-08-27T20:22:22Z</time>
      </trkpt>
      <trkpt lat="46.01846" lon="7.11858">
        <ele>1695</ele>
        <time>2022-08-27T20:22:23Z</time>
      </trkpt>
      <trkpt lat="46.01837" lon="7.11854">
        <ele>1697</ele>
        <time>2022-08-27T20:22:32Z</time>
      </trkpt>
      <trkpt lat="46.01831" lon="7.11844">
        <ele>1698</ele>
        <time>2022-08-27T20:22:40Z</time>
      </trkpt>
      <trkpt lat="46.01831" lon="7.11842">
        <ele>1698</ele>
        <time>2022-08-27T20:22:41Z</time>
      </trkpt>
      <trkpt lat="46.01831" lon="7.11841">
        <ele>1699</ele>
        <time>2022-08-27T20:22:42Z</time>
      </trkpt>
      <trkpt lat="46.01831" lon="7.1184">
        <ele>1699</ele>
        <time>2022-08-27T20:22:43Z</time>
      </trkpt>
      <trkpt lat="46.01832" lon="7.11838">
        <ele>1699</ele>
        <time>2022-08-27T20:22:45Z</time>
      </trkpt>
      <trkpt lat="46.01832" lon="7.11837">
        <ele>1699</ele>
        <time>2022-08-27T20:22:46Z</time>
      </trkpt>
      <trkpt lat="46.01832" lon="7.11836">
        <ele>1699</ele>
        <time>2022-08-27T20:22:47Z</time>
      </trkpt>
      <trkpt lat="46.01832" lon="7.11834">
        <ele>1699</ele>
        <time>2022-08-27T20:22:48Z</time>
      </trkpt>
      <trkpt lat="46.01832" lon="7.11833">
        <ele>1699</ele>
        <time>2022-08-27T20:22:50Z</time>
      </trkpt>
      <trkpt lat="46.01832" lon="7.11832">
        <ele>1699</ele>
        <time>2022-08-27T20:22:51Z</time>
      </trkpt>
      <trkpt lat="46.01832" lon="7.1183">
        <ele>1699</ele>
        <time>2022-08-27T20:22:52Z</time>
      </trkpt>
      <trkpt lat="46.01833" lon="7.11829">
        <ele>1700</ele>
        <time>2022-08-27T20:22:53Z</time>
      </trkpt>
      <trkpt lat="46.01833" lon="7.11829">
        <ele>1700</ele>
        <time>2022-08-27T20:22:54Z</time>
      </trkpt>
      <trkpt lat="46.01833" lon="7.11828">
        <ele>1700</ele>
        <time>2022-08-27T20:22:55Z</time>
      </trkpt>
      <trkpt lat="46.01833" lon="7.11827">
        <ele>1701</ele>
        <time>2022-08-27T20:22:57Z</time>
      </trkpt>
      <trkpt lat="46.01833" lon="7.11826">
        <ele>1701</ele>
        <time>2022-08-27T20:22:58Z</time>
      </trkpt>
      <trkpt lat="46.01833" lon="7.11825">
        <ele>1701</ele>
        <time>2022-08-27T20:22:59Z</time>
      </trkpt>
      <trkpt lat="46.01833" lon="7.11824">
        <ele>1701</ele>
        <time>2022-08-27T20:23:00Z</time>
      </trkpt>
      <trkpt lat="46.01833" lon="7.11823">
        <ele>1702</ele>
        <time>2022-08-27T20:23:02Z</time>
      </trkpt>
      <trkpt lat="46.01834" lon="7.11823">
        <ele>1702</ele>
        <time>2022-08-27T20:23:04Z</time>
      </trkpt>
      <trkpt lat="46.01834" lon="7.11822">
        <ele>1702</ele>
        <time>2022-08-27T20:23:05Z</time>
      </trkpt>
      <trkpt lat="46.01834" lon="7.11821">
        <ele>1702</ele>
        <time>2022-08-27T20:23:06Z</time>
      </trkpt>
      <trkpt lat="46.01834" lon="7.1182">
        <ele>1703</ele>
        <time>2022-08-27T20:23:07Z</time>
      </trkpt>
      <trkpt lat="46.01834" lon="7.11819">
        <ele>1703</ele>
        <time>2022-08-27T20:23:09Z</time>
      </trkpt>
      <trkpt lat="46.01834" lon="7.11818">
        <ele>1703</ele>
        <time>2022-08-27T20:23:10Z</time>
      </trkpt>
      <trkpt lat="46.01834" lon="7.11817">
        <ele>1703</ele>
        <time>2022-08-27T20:23:11Z</time>
      </trkpt>
      <trkpt lat="46.01834" lon="7.11817">
        <ele>1707</ele>
        <time>2022-08-27T20:23:32Z</time>
      </trkpt>
      <trkpt lat="46.0184" lon="7.11828">
        <ele>1708</ele>
        <time>2022-08-27T20:23:36Z</time>
      </trkpt>
      <trkpt lat="46.01845" lon="7.1184">
        <ele>1709</ele>
        <time>2022-08-27T20:23:48Z</time>
      </trkpt>
      <trkpt lat="46.01845" lon="7.1184">
        <ele>1710</ele>
        <time>2022-08-27T20:23:55Z</time>
      </trkpt>
      <trkpt lat="46.01848" lon="7.11848">
        <ele>1711</ele>
        <time>2022-08-27T20:24:03Z</time>
      </trkpt>
      <trkpt lat="46.01848" lon="7.11845">
        <ele>1713</ele>
        <time>2022-08-27T20:24:14Z</time>
      </trkpt>
      <trkpt lat="46.01847" lon="7.11841">
        <ele>1713</ele>
        <time>2022-08-27T20:24:17Z</time>
      </trkpt>
      <trkpt lat="46.01847" lon="7.11838">
        <ele>1715</ele>
        <time>2022-08-27T20:24:22Z</time>
      </trkpt>
      <trkpt lat="46.01847" lon="7.11836">
        <ele>1715</ele>
        <time>2022-08-27T20:24:27Z</time>
      </trkpt>
      <trkpt lat="46.01847" lon="7.11832">
        <ele>1717</ele>
        <time>2022-08-27T20:24:31Z</time>
      </trkpt>
      <trkpt lat="46.01847" lon="7.1183">
        <ele>1717</ele>
        <time>2022-08-27T20:24:34Z</time>
      </trkpt>
      <trkpt lat="46.01847" lon="7.11826">
        <ele>1717</ele>
        <time>2022-08-27T20:24:37Z</time>
      </trkpt>
      <trkpt lat="46.01847" lon="7.11823">
        <ele>1717</ele>
        <time>2022-08-27T20:24:39Z</time>
      </trkpt>
      <trkpt lat="46.01847" lon="7.11819">
        <ele>1718</ele>
        <time>2022-08-27T20:24:41Z</time>
      </trkpt>
      <trkpt lat="46.01847" lon="7.11816">
        <ele>1719</ele>
        <time>2022-08-27T20:24:43Z</time>
      </trkpt>
      <trkpt lat="46.01847" lon="7.11813">
        <ele>1719</ele>
        <time>2022-08-27T20:24:45Z</time>
      </trkpt>
      <trkpt lat="46.01848" lon="7.11811">
        <ele>1719</ele>
        <time>2022-08-27T20:24:47Z</time>
      </trkpt>
      <trkpt lat="46.01848" lon="7.1181">
        <ele>1719</ele>
        <time>2022-08-27T20:24:48Z</time>
      </trkpt>
      <trkpt lat="46.01848" lon="7.11809">
        <ele>1719</ele>
        <time>2022-08-27T20:24:49Z</time>
      </trkpt>
      <trkpt lat="46.01848" lon="7.11808">
        <ele>1719</ele>
        <time>2022-08-27T20:24:50Z</time>
      </trkpt>
      <trkpt lat="46.01849" lon="7.11805">
        <ele>1720</ele>
        <time>2022-08-27T20:24:53Z</time>
      </trkpt>
      <trkpt lat="46.01849" lon="7.11801">
        <ele>1721</ele>
        <time>2022-08-27T20:24:57Z</time>
      </trkpt>
      <trkpt lat="46.0185" lon="7.11798">
        <ele>1722</ele>
        <time>2022-08-27T20:25:00Z</time>
      </trkpt>
      <trkpt lat="46.0185" lon="7.11796">
        <ele>1723</ele>
        <time>2022-08-27T20:25:05Z</time>
      </trkpt>
      <trkpt lat="46.01851" lon="7.11796">
        <ele>1723</ele>
        <time>2022-08-27T20:25:06Z</time>
      </trkpt>
      <trkpt lat="46.01852" lon="7.11796">
        <ele>1723</ele>
        <time>2022-08-27T20:25:07Z</time>
      </trkpt>
      <trkpt lat="46.01853" lon="7.11795">
        <ele>1723</ele>
        <time>2022-08-27T20:25:09Z</time>
      </trkpt>
      <trkpt lat="46.01854" lon="7.11795">
        <ele>1723</ele>
        <time>2022-08-27T20:25:10Z</time>
      </trkpt>
      <trkpt lat="46.01854" lon="7.11795">
        <ele>1723</ele>
        <time>2022-08-27T20:25:11Z</time>
      </trkpt>
      <trkpt lat="46.01855" lon="7.11795">
        <ele>1724</ele>
        <time>2022-08-27T20:25:12Z</time>
      </trkpt>
      <trkpt lat="46.01856" lon="7.11795">
        <ele>1724</ele>
        <time>2022-08-27T20:25:14Z</time>
      </trkpt>
      <trkpt lat="46.01857" lon="7.11795">
        <ele>1724</ele>
        <time>2022-08-27T20:25:15Z</time>
      </trkpt>
      <trkpt lat="46.01857" lon="7.11795">
        <ele>1725</ele>
        <time>2022-08-27T20:25:16Z</time>
      </trkpt>
      <trkpt lat="46.01858" lon="7.11795">
        <ele>1725</ele>
        <time>2022-08-27T20:25:17Z</time>
      </trkpt>
      <trkpt lat="46.01859" lon="7.11794">
        <ele>1725</ele>
        <time>2022-08-27T20:25:18Z</time>
      </trkpt>
      <trkpt lat="46.0186" lon="7.11794">
        <ele>1725</ele>
        <time>2022-08-27T20:25:19Z</time>
      </trkpt>
      <trkpt lat="46.01868" lon="7.11801">
        <ele>1727</ele>
        <time>2022-08-27T20:25:27Z</time>
      </trkpt>
      <trkpt lat="46.01868" lon="7.11802">
        <ele>1727</ele>
        <time>2022-08-27T20:25:28Z</time>
      </trkpt>
      <trkpt lat="46.01868" lon="7.11803">
        <ele>1727</ele>
        <time>2022-08-27T20:25:29Z</time>
      </trkpt>
      <trkpt lat="46.01869" lon="7.11804">
        <ele>1727</ele>
        <time>2022-08-27T20:25:30Z</time>
      </trkpt>
      <trkpt lat="46.01869" lon="7.11804">
        <ele>1727</ele>
        <time>2022-08-27T20:25:32Z</time>
      </trkpt>
      <trkpt lat="46.01869" lon="7.11805">
        <ele>1727</ele>
        <time>2022-08-27T20:25:33Z</time>
      </trkpt>
      <trkpt lat="46.01869" lon="7.11806">
        <ele>1728</ele>
        <time>2022-08-27T20:25:34Z</time>
      </trkpt>
      <trkpt lat="46.01869" lon="7.11807">
        <ele>1728</ele>
        <time>2022-08-27T20:25:35Z</time>
      </trkpt>
      <trkpt lat="46.0187" lon="7.11807">
        <ele>1728</ele>
        <time>2022-08-27T20:25:37Z</time>
      </trkpt>
      <trkpt lat="46.0187" lon="7.11808">
        <ele>1728</ele>
        <time>2022-08-27T20:25:38Z</time>
      </trkpt>
      <trkpt lat="46.0187" lon="7.11809">
        <ele>1728</ele>
        <time>2022-08-27T20:25:39Z</time>
      </trkpt>
      <trkpt lat="46.0187" lon="7.1181">
        <ele>1728</ele>
        <time>2022-08-27T20:25:40Z</time>
      </trkpt>
      <trkpt lat="46.01871" lon="7.11811">
        <ele>1728</ele>
        <time>2022-08-27T20:25:42Z</time>
      </trkpt>
      <trkpt lat="46.01871" lon="7.11811">
        <ele>1728</ele>
        <time>2022-08-27T20:25:44Z</time>
      </trkpt>
      <trkpt lat="46.01871" lon="7.11812">
        <ele>1728</ele>
        <time>2022-08-27T20:25:45Z</time>
      </trkpt>
      <trkpt lat="46.01871" lon="7.11813">
        <ele>1728</ele>
        <time>2022-08-27T20:25:46Z</time>
      </trkpt>
      <trkpt lat="46.01871" lon="7.11814">
        <ele>1729</ele>
        <time>2022-08-27T20:25:47Z</time>
      </trkpt>
      <trkpt lat="46.01872" lon="7.11814">
        <ele>1729</ele>
        <time>2022-08-27T20:25:48Z</time>
      </trkpt>
      <trkpt lat="46.01872" lon="7.11815">
        <ele>1729</ele>
        <time>2022-08-27T20:25:49Z</time>
      </trkpt>
      <trkpt lat="46.01873" lon="7.11815">
        <ele>1729</ele>
        <time>2022-08-27T20:25:50Z</time>
      </trkpt>
      <trkpt lat="46.01873" lon="7.11816">
        <ele>1730</ele>
        <time>2022-08-27T20:25:52Z</time>
      </trkpt>
      <trkpt lat="46.01874" lon="7.11817">
        <ele>1730</ele>
        <time>2022-08-27T20:25:53Z</time>
      </trkpt>
      <trkpt lat="46.01874" lon="7.11817">
        <ele>1730</ele>
        <time>2022-08-27T20:25:54Z</time>
      </trkpt>
      <trkpt lat="46.01875" lon="7.11818">
        <ele>1730</ele>
        <time>2022-08-27T20:25:55Z</time>
      </trkpt>
      <trkpt lat="46.01875" lon="7.11818">
        <ele>1731</ele>
        <time>2022-08-27T20:25:57Z</time>
      </trkpt>
      <trkpt lat="46.01876" lon="7.11819">
        <ele>1731</ele>
        <time>2022-08-27T20:25:59Z</time>
      </trkpt>
      <trkpt lat="46.01876" lon="7.1182">
        <ele>1731</ele>
        <time>2022-08-27T20:26:01Z</time>
      </trkpt>
      <trkpt lat="46.01877" lon="7.1182">
        <ele>1732</ele>
        <time>2022-08-27T20:26:02Z</time>
      </trkpt>
      <trkpt lat="46.01877" lon="7.11821">
        <ele>1732</ele>
        <time>2022-08-27T20:26:03Z</time>
      </trkpt>
      <trkpt lat="46.01878" lon="7.11822">
        <ele>1732</ele>
        <time>2022-08-27T20:26:04Z</time>
      </trkpt>
      <trkpt lat="46.01878" lon="7.11822">
        <ele>1732</ele>
        <time>2022-08-27T20:26:05Z</time>
      </trkpt>
      <trkpt lat="46.01879" lon="7.11821">
        <ele>1732</ele>
        <time>2022-08-27T20:26:06Z</time>
      </trkpt>
      <trkpt lat="46.01879" lon="7.1182">
        <ele>1732</ele>
        <time>2022-08-27T20:26:07Z</time>
      </trkpt>
      <trkpt lat="46.0188" lon="7.11818">
        <ele>1732</ele>
        <time>2022-08-27T20:26:08Z</time>
      </trkpt>
      <trkpt lat="46.0188" lon="7.11817">
        <ele>1732</ele>
        <time>2022-08-27T20:26:10Z</time>
      </trkpt>
      <trkpt lat="46.01881" lon="7.11816">
        <ele>1732</ele>
        <time>2022-08-27T20:26:11Z</time>
      </trkpt>
      <trkpt lat="46.01881" lon="7.11814">
        <ele>1733</ele>
        <time>2022-08-27T20:26:12Z</time>
      </trkpt>
      <trkpt lat="46.01882" lon="7.11813">
        <ele>1733</ele>
        <time>2022-08-27T20:26:13Z</time>
      </trkpt>
      <trkpt lat="46.01882" lon="7.11812">
        <ele>1733</ele>
        <time>2022-08-27T20:26:15Z</time>
      </trkpt>
      <trkpt lat="46.01883" lon="7.11811">
        <ele>1733</ele>
        <time>2022-08-27T20:26:16Z</time>
      </trkpt>
      <trkpt lat="46.01883" lon="7.11811">
        <ele>1733</ele>
        <time>2022-08-27T20:26:17Z</time>
      </trkpt>
      <trkpt lat="46.01884" lon="7.11811">
        <ele>1734</ele>
        <time>2022-08-27T20:26:18Z</time>
      </trkpt>
      <trkpt lat="46.01885" lon="7.11811">
        <ele>1734</ele>
        <time>2022-08-27T20:26:20Z</time>
      </trkpt>
      <trkpt lat="46.01885" lon="7.11811">
        <ele>1735</ele>
        <time>2022-08-27T20:26:22Z</time>
      </trkpt>
      <trkpt lat="46.01886" lon="7.11811">
        <ele>1735</ele>
        <time>2022-08-27T20:26:23Z</time>
      </trkpt>
      <trkpt lat="46.01887" lon="7.11811">
        <ele>1735</ele>
        <time>2022-08-27T20:26:24Z</time>
      </trkpt>
      <trkpt lat="46.01887" lon="7.11811">
        <ele>1736</ele>
        <time>2022-08-27T20:26:25Z</time>
      </trkpt>
      <trkpt lat="46.01888" lon="7.11811">
        <ele>1736</ele>
        <time>2022-08-27T20:26:27Z</time>
      </trkpt>
      <trkpt lat="46.01889" lon="7.11811">
        <ele>1736</ele>
        <time>2022-08-27T20:26:29Z</time>
      </trkpt>
      <trkpt lat="46.01889" lon="7.11811">
        <ele>1736</ele>
        <time>2022-08-27T20:26:30Z</time>
      </trkpt>
      <trkpt lat="46.0189" lon="7.11811">
        <ele>1736</ele>
        <time>2022-08-27T20:26:31Z</time>
      </trkpt>
      <trkpt lat="46.01891" lon="7.11811">
        <ele>1736</ele>
        <time>2022-08-27T20:26:32Z</time>
      </trkpt>
      <trkpt lat="46.01891" lon="7.11811">
        <ele>1736</ele>
        <time>2022-08-27T20:26:33Z</time>
      </trkpt>
      <trkpt lat="46.01892" lon="7.11811">
        <ele>1736</ele>
        <time>2022-08-27T20:26:34Z</time>
      </trkpt>
      <trkpt lat="46.01899" lon="7.1182">
        <ele>1737</ele>
        <time>2022-08-27T20:26:41Z</time>
      </trkpt>
      <trkpt lat="46.019" lon="7.1182">
        <ele>1737</ele>
        <time>2022-08-27T20:26:42Z</time>
      </trkpt>
      <trkpt lat="46.01901" lon="7.1182">
        <ele>1738</ele>
        <time>2022-08-27T20:26:43Z</time>
      </trkpt>
      <trkpt lat="46.01901" lon="7.11821">
        <ele>1738</ele>
        <time>2022-08-27T20:26:44Z</time>
      </trkpt>
      <trkpt lat="46.01902" lon="7.11821">
        <ele>1738</ele>
        <time>2022-08-27T20:26:46Z</time>
      </trkpt>
      <trkpt lat="46.01903" lon="7.11821">
        <ele>1738</ele>
        <time>2022-08-27T20:26:47Z</time>
      </trkpt>
      <trkpt lat="46.01903" lon="7.11822">
        <ele>1738</ele>
        <time>2022-08-27T20:26:48Z</time>
      </trkpt>
      <trkpt lat="46.01904" lon="7.11822">
        <ele>1738</ele>
        <time>2022-08-27T20:26:49Z</time>
      </trkpt>
      <trkpt lat="46.01905" lon="7.11823">
        <ele>1738</ele>
        <time>2022-08-27T20:26:51Z</time>
      </trkpt>
      <trkpt lat="46.01905" lon="7.11823">
        <ele>1739</ele>
        <time>2022-08-27T20:26:52Z</time>
      </trkpt>
      <trkpt lat="46.01906" lon="7.11823">
        <ele>1739</ele>
        <time>2022-08-27T20:26:53Z</time>
      </trkpt>
      <trkpt lat="46.01907" lon="7.11824">
        <ele>1739</ele>
        <time>2022-08-27T20:26:54Z</time>
      </trkpt>
      <trkpt lat="46.01907" lon="7.11824">
        <ele>1739</ele>
        <time>2022-08-27T20:26:56Z</time>
      </trkpt>
      <trkpt lat="46.01908" lon="7.11825">
        <ele>1739</ele>
        <time>2022-08-27T20:26:58Z</time>
      </trkpt>
      <trkpt lat="46.01909" lon="7.11825">
        <ele>1739</ele>
        <time>2022-08-27T20:26:59Z</time>
      </trkpt>
      <trkpt lat="46.0191" lon="7.11826">
        <ele>1739</ele>
        <time>2022-08-27T20:27:00Z</time>
      </trkpt>
      <trkpt lat="46.01911" lon="7.11827">
        <ele>1740</ele>
        <time>2022-08-27T20:27:01Z</time>
      </trkpt>
      <trkpt lat="46.01913" lon="7.11828">
        <ele>1740</ele>
        <time>2022-08-27T20:27:02Z</time>
      </trkpt>
      <trkpt lat="46.01914" lon="7.11829">
        <ele>1739</ele>
        <time>2022-08-27T20:27:04Z</time>
      </trkpt>
      <trkpt lat="46.01916" lon="7.1183">
        <ele>1739</ele>
        <time>2022-08-27T20:27:05Z</time>
      </trkpt>
      <trkpt lat="46.01917" lon="7.11831">
        <ele>1739</ele>
        <time>2022-08-27T20:27:06Z</time>
      </trkpt>
      <trkpt lat="46.01918" lon="7.11831">
        <ele>1739</ele>
        <time>2022-08-27T20:27:07Z</time>
      </trkpt>
      <trkpt lat="46.01919" lon="7.11832">
        <ele>1739</ele>
        <time>2022-08-27T20:27:09Z</time>
      </trkpt>
      <trkpt lat="46.01921" lon="7.11832">
        <ele>1739</ele>
        <time>2022-08-27T20:27:10Z</time>
      </trkpt>
      <trkpt lat="46.01922" lon="7.11832">
        <ele>1739</ele>
        <time>2022-08-27T20:27:11Z</time>
      </trkpt>
      <trkpt lat="46.01923" lon="7.11832">
        <ele>1739</ele>
        <time>2022-08-27T20:27:12Z</time>
      </trkpt>
      <trkpt lat="46.01925" lon="7.11832">
        <ele>1739</ele>
        <time>2022-08-27T20:27:14Z</time>
      </trkpt>
      <trkpt lat="46.01926" lon="7.11833">
        <ele>1739</ele>
        <time>2022-08-27T20:27:15Z</time>
      </trkpt>
      <trkpt lat="46.01935" lon="7.11836">
        <ele>1737</ele>
        <time>2022-08-27T20:27:24Z</time>
      </trkpt>
      <trkpt lat="46.01943" lon="7.11844">
        <ele>1737</ele>
        <time>2022-08-27T20:27:29Z</time>
      </trkpt>
      <trkpt lat="46.01943" lon="7.11846">
        <ele>1737</ele>
        <time>2022-08-27T20:27:30Z</time>
      </trkpt>
      <trkpt lat="46.01943" lon="7.11847">
        <ele>1737</ele>
        <time>2022-08-27T20:27:31Z</time>
      </trkpt>
      <trkpt lat="46.01943" lon="7.11849">
        <ele>1737</ele>
        <time>2022-08-27T20:27:32Z</time>
      </trkpt>
      <trkpt lat="46.01943" lon="7.11851">
        <ele>1737</ele>
        <time>2022-08-27T20:27:34Z</time>
      </trkpt>
      <trkpt lat="46.01943" lon="7.11852">
        <ele>1736</ele>
        <time>2022-08-27T20:27:36Z</time>
      </trkpt>
      <trkpt lat="46.01943" lon="7.11854">
        <ele>1736</ele>
        <time>2022-08-27T20:27:37Z</time>
      </trkpt>
      <trkpt lat="46.01943" lon="7.11855">
        <ele>1735</ele>
        <time>2022-08-27T20:27:38Z</time>
      </trkpt>
      <trkpt lat="46.01943" lon="7.11857">
        <ele>1735</ele>
        <time>2022-08-27T20:27:39Z</time>
      </trkpt>
      <trkpt lat="46.01944" lon="7.11858">
        <ele>1735</ele>
        <time>2022-08-27T20:27:40Z</time>
      </trkpt>
      <trkpt lat="46.01944" lon="7.1186">
        <ele>1735</ele>
        <time>2022-08-27T20:27:41Z</time>
      </trkpt>
      <trkpt lat="46.01945" lon="7.11861">
        <ele>1735</ele>
        <time>2022-08-27T20:27:42Z</time>
      </trkpt>
      <trkpt lat="46.01945" lon="7.11862">
        <ele>1735</ele>
        <time>2022-08-27T20:27:43Z</time>
      </trkpt>
      <trkpt lat="46.01946" lon="7.11863">
        <ele>1735</ele>
        <time>2022-08-27T20:27:45Z</time>
      </trkpt>
      <trkpt lat="46.01946" lon="7.11865">
        <ele>1735</ele>
        <time>2022-08-27T20:27:46Z</time>
      </trkpt>
      <trkpt lat="46.01947" lon="7.11866">
        <ele>1735</ele>
        <time>2022-08-27T20:27:47Z</time>
      </trkpt>
      <trkpt lat="46.01947" lon="7.11867">
        <ele>1735</ele>
        <time>2022-08-27T20:27:48Z</time>
      </trkpt>
      <trkpt lat="46.01948" lon="7.11868">
        <ele>1735</ele>
        <time>2022-08-27T20:27:50Z</time>
      </trkpt>
      <trkpt lat="46.01948" lon="7.11869">
        <ele>1735</ele>
        <time>2022-08-27T20:27:51Z</time>
      </trkpt>
      <trkpt lat="46.01957" lon="7.11866">
        <ele>1735</ele>
        <time>2022-08-27T20:27:59Z</time>
      </trkpt>
      <trkpt lat="46.01958" lon="7.11867">
        <ele>1735</ele>
        <time>2022-08-27T20:28:00Z</time>
      </trkpt>
      <trkpt lat="46.01959" lon="7.11868">
        <ele>1735</ele>
        <time>2022-08-27T20:28:01Z</time>
      </trkpt>
      <trkpt lat="46.0196" lon="7.11869">
        <ele>1735</ele>
        <time>2022-08-27T20:28:02Z</time>
      </trkpt>
      <trkpt lat="46.0196" lon="7.1187">
        <ele>1735</ele>
        <time>2022-08-27T20:28:04Z</time>
      </trkpt>
      <trkpt lat="46.01961" lon="7.11871">
        <ele>1735</ele>
        <time>2022-08-27T20:28:05Z</time>
      </trkpt>
      <trkpt lat="46.01962" lon="7.11872">
        <ele>1735</ele>
        <time>2022-08-27T20:28:06Z</time>
      </trkpt>
      <trkpt lat="46.01963" lon="7.11873">
        <ele>1735</ele>
        <time>2022-08-27T20:28:07Z</time>
      </trkpt>
      <trkpt lat="46.01964" lon="7.11874">
        <ele>1736</ele>
        <time>2022-08-27T20:28:09Z</time>
      </trkpt>
      <trkpt lat="46.01965" lon="7.11875">
        <ele>1736</ele>
        <time>2022-08-27T20:28:10Z</time>
      </trkpt>
      <trkpt lat="46.01966" lon="7.11876">
        <ele>1736</ele>
        <time>2022-08-27T20:28:11Z</time>
      </trkpt>
      <trkpt lat="46.01967" lon="7.11876">
        <ele>1736</ele>
        <time>2022-08-27T20:28:12Z</time>
      </trkpt>
      <trkpt lat="46.01968" lon="7.11877">
        <ele>1736</ele>
        <time>2022-08-27T20:28:14Z</time>
      </trkpt>
      <trkpt lat="46.0197" lon="7.11877">
        <ele>1736</ele>
        <time>2022-08-27T20:28:16Z</time>
      </trkpt>
      <trkpt lat="46.01971" lon="7.11878">
        <ele>1736</ele>
        <time>2022-08-27T20:28:17Z</time>
      </trkpt>
      <trkpt lat="46.01972" lon="7.11879">
        <ele>1737</ele>
        <time>2022-08-27T20:28:18Z</time>
      </trkpt>
      <trkpt lat="46.01974" lon="7.11879">
        <ele>1737</ele>
        <time>2022-08-27T20:28:19Z</time>
      </trkpt>
      <trkpt lat="46.01974" lon="7.1188">
        <ele>1737</ele>
        <time>2022-08-27T20:28:21Z</time>
      </trkpt>
      <trkpt lat="46.01975" lon="7.1188">
        <ele>1738</ele>
        <time>2022-08-27T20:28:22Z</time>
      </trkpt>
      <trkpt lat="46.01976" lon="7.11881">
        <ele>1738</ele>
        <time>2022-08-27T20:28:23Z</time>
      </trkpt>
      <trkpt lat="46.01977" lon="7.11882">
        <ele>1738</ele>
        <time>2022-08-27T20:28:24Z</time>
      </trkpt>
      <trkpt lat="46.01977" lon="7.11883">
        <ele>1738</ele>
        <time>2022-08-27T20:28:26Z</time>
      </trkpt>
      <trkpt lat="46.01978" lon="7.11883">
        <ele>1738</ele>
        <time>2022-08-27T20:28:27Z</time>
      </trkpt>
      <trkpt lat="46.01979" lon="7.11884">
        <ele>1738</ele>
        <time>2022-08-27T20:28:28Z</time>
      </trkpt>
      <trkpt lat="46.0198" lon="7.11885">
        <ele>1738</ele>
        <time>2022-08-27T20:28:29Z</time>
      </trkpt>
      <trkpt lat="46.0198" lon="7.11885">
        <ele>1738</ele>
        <time>2022-08-27T20:28:31Z</time>
      </trkpt>
      <trkpt lat="46.01981" lon="7.11886">
        <ele>1738</ele>
        <time>2022-08-27T20:28:32Z</time>
      </trkpt>
      <trkpt lat="46.01982" lon="7.11887">
        <ele>1738</ele>
        <time>2022-08-27T20:28:33Z</time>
      </trkpt>
      <trkpt lat="46.01983" lon="7.11887">
        <ele>1737</ele>
        <time>2022-08-27T20:28:34Z</time>
      </trkpt>
      <trkpt lat="46.01984" lon="7.11888">
        <ele>1737</ele>
        <time>2022-08-27T20:28:35Z</time>
      </trkpt>
      <trkpt lat="46.01984" lon="7.11888">
        <ele>1737</ele>
        <time>2022-08-27T20:28:37Z</time>
      </trkpt>
      <trkpt lat="46.01985" lon="7.11889">
        <ele>1737</ele>
        <time>2022-08-27T20:28:38Z</time>
      </trkpt>
      <trkpt lat="46.01986" lon="7.11889">
        <ele>1737</ele>
        <time>2022-08-27T20:28:39Z</time>
      </trkpt>
      <trkpt lat="46.01987" lon="7.1189">
        <ele>1737</ele>
        <time>2022-08-27T20:28:40Z</time>
      </trkpt>
      <trkpt lat="46.01988" lon="7.1189">
        <ele>1738</ele>
        <time>2022-08-27T20:28:42Z</time>
      </trkpt>
      <trkpt lat="46.01988" lon="7.1189">
        <ele>1738</ele>
        <time>2022-08-27T20:28:43Z</time>
      </trkpt>
      <trkpt lat="46.01989" lon="7.11891">
        <ele>1739</ele>
        <time>2022-08-27T20:28:44Z</time>
      </trkpt>
      <trkpt lat="46.0199" lon="7.11891">
        <ele>1739</ele>
        <time>2022-08-27T20:28:45Z</time>
      </trkpt>
      <trkpt lat="46.01991" lon="7.11892">
        <ele>1739</ele>
        <time>2022-08-27T20:28:46Z</time>
      </trkpt>
      <trkpt lat="46.01992" lon="7.11892">
        <ele>1739</ele>
        <time>2022-08-27T20:28:47Z</time>
      </trkpt>
      <trkpt lat="46.01993" lon="7.11892">
        <ele>1739</ele>
        <time>2022-08-27T20:28:48Z</time>
      </trkpt>
      <trkpt lat="46.01994" lon="7.11891">
        <ele>1739</ele>
        <time>2022-08-27T20:28:49Z</time>
      </trkpt>
      <trkpt lat="46.01995" lon="7.11891">
        <ele>1739</ele>
        <time>2022-08-27T20:28:51Z</time>
      </trkpt>
      <trkpt lat="46.01996" lon="7.11891">
        <ele>1739</ele>
        <time>2022-08-27T20:28:52Z</time>
      </trkpt>
      <trkpt lat="46.01997" lon="7.11891">
        <ele>1739</ele>
        <time>2022-08-27T20:28:53Z</time>
      </trkpt>
      <trkpt lat="46.01998" lon="7.11891">
        <ele>1740</ele>
        <time>2022-08-27T20:28:54Z</time>
      </trkpt>
      <trkpt lat="46.01999" lon="7.11891">
        <ele>1740</ele>
        <time>2022-08-27T20:28:56Z</time>
      </trkpt>
      <trkpt lat="46.02" lon="7.11891">
        <ele>1740</ele>
        <time>2022-08-27T20:28:57Z</time>
      </trkpt>
      <trkpt lat="46.02009" lon="7.11892">
        <ele>1741</ele>
        <time>2022-08-27T20:29:06Z</time>
      </trkpt>
      <trkpt lat="46.0201" lon="7.11893">
        <ele>1741</ele>
        <time>2022-08-27T20:29:07Z</time>
      </trkpt>
      <trkpt lat="46.02011" lon="7.11893">
        <ele>1741</ele>
        <time>2022-08-27T20:29:08Z</time>
      </trkpt>
      <trkpt lat="46.02013" lon="7.11893">
        <ele>1741</ele>
        <time>2022-08-27T20:29:09Z</time>
      </trkpt>
      <trkpt lat="46.02014" lon="7.11894">
        <ele>1741</ele>
        <time>2022-08-27T20:29:11Z</time>
      </trkpt>
      <trkpt lat="46.02015" lon="7.11894">
        <ele>1741</ele>
        <time>2022-08-27T20:29:13Z</time>
      </trkpt>
      <trkpt lat="46.02016" lon="7.11894">
        <ele>1741</ele>
        <time>2022-08-27T20:29:14Z</time>
      </trkpt>
      <trkpt lat="46.02018" lon="7.11895">
        <ele>1741</ele>
        <time>2022-08-27T20:29:15Z</time>
      </trkpt>
      <trkpt lat="46.02019" lon="7.11895">
        <ele>1741</ele>
        <time>2022-08-27T20:29:16Z</time>
      </trkpt>
      <trkpt lat="46.02027" lon="7.11902">
        <ele>1739</ele>
        <time>2022-08-27T20:29:23Z</time>
      </trkpt>
      <trkpt lat="46.0203" lon="7.11904">
        <ele>1739</ele>
        <time>2022-08-27T20:29:26Z</time>
      </trkpt>
      <trkpt lat="46.02031" lon="7.11903">
        <ele>1739</ele>
        <time>2022-08-27T20:29:28Z</time>
      </trkpt>
      <trkpt lat="46.02032" lon="7.11903">
        <ele>1739</ele>
        <time>2022-08-27T20:29:30Z</time>
      </trkpt>
      <trkpt lat="46.02033" lon="7.11903">
        <ele>1739</ele>
        <time>2022-08-27T20:29:31Z</time>
      </trkpt>
      <trkpt lat="46.02035" lon="7.11902">
        <ele>1739</ele>
        <time>2022-08-27T20:29:32Z</time>
      </trkpt>
      <trkpt lat="46.02036" lon="7.11902">
        <ele>1739</ele>
        <time>2022-08-27T20:29:34Z</time>
      </trkpt>
      <trkpt lat="46.02037" lon="7.11902">
        <ele>1739</ele>
        <time>2022-08-27T20:29:35Z</time>
      </trkpt>
      <trkpt lat="46.02038" lon="7.11902">
        <ele>1739</ele>
        <time>2022-08-27T20:29:36Z</time>
      </trkpt>
      <trkpt lat="46.0204" lon="7.11901">
        <ele>1739</ele>
        <time>2022-08-27T20:29:37Z</time>
      </trkpt>
      <trkpt lat="46.02041" lon="7.11901">
        <ele>1739</ele>
        <time>2022-08-27T20:29:38Z</time>
      </trkpt>
      <trkpt lat="46.02043" lon="7.119">
        <ele>1739</ele>
        <time>2022-08-27T20:29:39Z</time>
      </trkpt>
      <trkpt lat="46.02044" lon="7.11899">
        <ele>1739</ele>
        <time>2022-08-27T20:29:40Z</time>
      </trkpt>
      <trkpt lat="46.02046" lon="7.11899">
        <ele>1740</ele>
        <time>2022-08-27T20:29:42Z</time>
      </trkpt>
      <trkpt lat="46.02047" lon="7.11898">
        <ele>1740</ele>
        <time>2022-08-27T20:29:43Z</time>
      </trkpt>
      <trkpt lat="46.02049" lon="7.11898">
        <ele>1740</ele>
        <time>2022-08-27T20:29:44Z</time>
      </trkpt>
      <trkpt lat="46.0205" lon="7.11895">
        <ele>1739</ele>
        <time>2022-08-27T20:29:45Z</time>
      </trkpt>
      <trkpt lat="46.02051" lon="7.11893">
        <ele>1739</ele>
        <time>2022-08-27T20:29:47Z</time>
      </trkpt>
      <trkpt lat="46.02053" lon="7.1189">
        <ele>1739</ele>
        <time>2022-08-27T20:29:49Z</time>
      </trkpt>
      <trkpt lat="46.02054" lon="7.11888">
        <ele>1739</ele>
        <time>2022-08-27T20:29:50Z</time>
      </trkpt>
      <trkpt lat="46.02055" lon="7.11885">
        <ele>1739</ele>
        <time>2022-08-27T20:29:51Z</time>
      </trkpt>
      <trkpt lat="46.02055" lon="7.11883">
        <ele>1739</ele>
        <time>2022-08-27T20:29:53Z</time>
      </trkpt>
      <trkpt lat="46.02056" lon="7.11881">
        <ele>1739</ele>
        <time>2022-08-27T20:29:54Z</time>
      </trkpt>
      <trkpt lat="46.02056" lon="7.11879">
        <ele>1739</ele>
        <time>2022-08-27T20:29:55Z</time>
      </trkpt>
      <trkpt lat="46.02056" lon="7.11877">
        <ele>1738</ele>
        <time>2022-08-27T20:29:56Z</time>
      </trkpt>
      <trkpt lat="46.02057" lon="7.11875">
        <ele>1738</ele>
        <time>2022-08-27T20:29:57Z</time>
      </trkpt>
      <trkpt lat="46.02057" lon="7.11873">
        <ele>1738</ele>
        <time>2022-08-27T20:29:58Z</time>
      </trkpt>
      <trkpt lat="46.02067" lon="7.11874">
        <ele>1734</ele>
        <time>2022-08-27T20:30:12Z</time>
      </trkpt>
      <trkpt lat="46.02068" lon="7.11875">
        <ele>1734</ele>
        <time>2022-08-27T20:30:13Z</time>
      </trkpt>
      <trkpt lat="46.02068" lon="7.11877">
        <ele>1733</ele>
        <time>2022-08-27T20:30:14Z</time>
      </trkpt>
      <trkpt lat="46.02069" lon="7.11878">
        <ele>1733</ele>
        <time>2022-08-27T20:30:15Z</time>
      </trkpt>
      <trkpt lat="46.0207" lon="7.1188">
        <ele>1733</ele>
        <time>2022-08-27T20:30:17Z</time>
      </trkpt>
      <trkpt lat="46.0207" lon="7.11882">
        <ele>1733</ele>
        <time>2022-08-27T20:30:18Z</time>
      </trkpt>
      <trkpt lat="46.02071" lon="7.11883">
        <ele>1733</ele>
        <time>2022-08-27T20:30:19Z</time>
      </trkpt>
      <trkpt lat="46.02071" lon="7.11885">
        <ele>1733</ele>
        <time>2022-08-27T20:30:20Z</time>
      </trkpt>
      <trkpt lat="46.02072" lon="7.11886">
        <ele>1733</ele>
        <time>2022-08-27T20:30:21Z</time>
      </trkpt>
      <trkpt lat="46.02074" lon="7.11887">
        <ele>1732</ele>
        <time>2022-08-27T20:30:22Z</time>
      </trkpt>
      <trkpt lat="46.02075" lon="7.11888">
        <ele>1731</ele>
        <time>2022-08-27T20:30:23Z</time>
      </trkpt>
      <trkpt lat="46.02076" lon="7.11889">
        <ele>1731</ele>
        <time>2022-08-27T20:30:24Z</time>
      </trkpt>
      <trkpt lat="46.02078" lon="7.1189">
        <ele>1730</ele>
        <time>2022-08-27T20:30:26Z</time>
      </trkpt>
      <trkpt lat="46.02079" lon="7.11891">
        <ele>1730</ele>
        <time>2022-08-27T20:30:27Z</time>
      </trkpt>
      <trkpt lat="46.02081" lon="7.11892">
        <ele>1730</ele>
        <time>2022-08-27T20:30:28Z</time>
      </trkpt>
      <trkpt lat="46.02083" lon="7.11892">
        <ele>1729</ele>
        <time>2022-08-27T20:30:29Z</time>
      </trkpt>
      <trkpt lat="46.02084" lon="7.11893">
        <ele>1728</ele>
        <time>2022-08-27T20:30:31Z</time>
      </trkpt>
      <trkpt lat="46.02086" lon="7.11894">
        <ele>1728</ele>
        <time>2022-08-27T20:30:32Z</time>
      </trkpt>
      <trkpt lat="46.02088" lon="7.11894">
        <ele>1728</ele>
        <time>2022-08-27T20:30:33Z</time>
      </trkpt>
      <trkpt lat="46.0209" lon="7.11895">
        <ele>1729</ele>
        <time>2022-08-27T20:30:34Z</time>
      </trkpt>
      <trkpt lat="46.02097" lon="7.11904">
        <ele>1729</ele>
        <time>2022-08-27T20:30:43Z</time>
      </trkpt>
      <trkpt lat="46.02105" lon="7.11911">
        <ele>1728</ele>
        <time>2022-08-27T20:30:55Z</time>
      </trkpt>
      <trkpt lat="46.02106" lon="7.11911">
        <ele>1728</ele>
        <time>2022-08-27T20:30:56Z</time>
      </trkpt>
      <trkpt lat="46.02107" lon="7.11912">
        <ele>1728</ele>
        <time>2022-08-27T20:30:57Z</time>
      </trkpt>
      <trkpt lat="46.02108" lon="7.11913">
        <ele>1728</ele>
        <time>2022-08-27T20:30:58Z</time>
      </trkpt>
      <trkpt lat="46.02109" lon="7.11914">
        <ele>1728</ele>
        <time>2022-08-27T20:31:00Z</time>
      </trkpt>
      <trkpt lat="46.0211" lon="7.11915">
        <ele>1728</ele>
        <time>2022-08-27T20:31:01Z</time>
      </trkpt>
      <trkpt lat="46.02111" lon="7.11916">
        <ele>1728</ele>
        <time>2022-08-27T20:31:02Z</time>
      </trkpt>
      <trkpt lat="46.02112" lon="7.11916">
        <ele>1728</ele>
        <time>2022-08-27T20:31:03Z</time>
      </trkpt>
      <trkpt lat="46.02113" lon="7.11917">
        <ele>1728</ele>
        <time>2022-08-27T20:31:04Z</time>
      </trkpt>
      <trkpt lat="46.02115" lon="7.11919">
        <ele>1728</ele>
        <time>2022-08-27T20:31:05Z</time>
      </trkpt>
      <trkpt lat="46.02116" lon="7.11921">
        <ele>1728</ele>
        <time>2022-08-27T20:31:06Z</time>
      </trkpt>
      <trkpt lat="46.02118" lon="7.11921">
        <ele>1728</ele>
        <time>2022-08-27T20:31:07Z</time>
      </trkpt>
      <trkpt lat="46.02119" lon="7.11922">
        <ele>1728</ele>
        <time>2022-08-27T20:31:09Z</time>
      </trkpt>
      <trkpt lat="46.0212" lon="7.11922">
        <ele>1728</ele>
        <time>2022-08-27T20:31:10Z</time>
      </trkpt>
      <trkpt lat="46.02121" lon="7.11923">
        <ele>1728</ele>
        <time>2022-08-27T20:31:11Z</time>
      </trkpt>
      <trkpt lat="46.02123" lon="7.11924">
        <ele>1728</ele>
        <time>2022-08-27T20:31:12Z</time>
      </trkpt>
      <trkpt lat="46.02124" lon="7.11924">
        <ele>1728</ele>
        <time>2022-08-27T20:31:14Z</time>
      </trkpt>
      <trkpt lat="46.02125" lon="7.11925">
        <ele>1728</ele>
        <time>2022-08-27T20:31:15Z</time>
      </trkpt>
      <trkpt lat="46.02126" lon="7.11925">
        <ele>1728</ele>
        <time>2022-08-27T20:31:16Z</time>
      </trkpt>
      <trkpt lat="46.02127" lon="7.11925">
        <ele>1728</ele>
        <time>2022-08-27T20:31:17Z</time>
      </trkpt>
      <trkpt lat="46.02128" lon="7.11926">
        <ele>1728</ele>
        <time>2022-08-27T20:31:19Z</time>
      </trkpt>
      <trkpt lat="46.02129" lon="7.11926">
        <ele>1728</ele>
        <time>2022-08-27T20:31:20Z</time>
      </trkpt>
      <trkpt lat="46.0213" lon="7.11926">
        <ele>1729</ele>
        <time>2022-08-27T20:31:21Z</time>
      </trkpt>
      <trkpt lat="46.02131" lon="7.11927">
        <ele>1729</ele>
        <time>2022-08-27T20:31:22Z</time>
      </trkpt>
      <trkpt lat="46.02133" lon="7.11927">
        <ele>1729</ele>
        <time>2022-08-27T20:31:24Z</time>
      </trkpt>
      <trkpt lat="46.02134" lon="7.11927">
        <ele>1729</ele>
        <time>2022-08-27T20:31:25Z</time>
      </trkpt>
      <trkpt lat="46.02135" lon="7.11928">
        <ele>1728</ele>
        <time>2022-08-27T20:31:26Z</time>
      </trkpt>
      <trkpt lat="46.02145" lon="7.11925">
        <ele>1729</ele>
        <time>2022-08-27T20:31:31Z</time>
      </trkpt>
      <trkpt lat="46.02146" lon="7.11926">
        <ele>1729</ele>
        <time>2022-08-27T20:31:32Z</time>
      </trkpt>
      <trkpt lat="46.02148" lon="7.11926">
        <ele>1728</ele>
        <time>2022-08-27T20:31:33Z</time>
      </trkpt>
      <trkpt lat="46.0215" lon="7.11926">
        <ele>1728</ele>
        <time>2022-08-27T20:31:34Z</time>
      </trkpt>
      <trkpt lat="46.02151" lon="7.11926">
        <ele>1728</ele>
        <time>2022-08-27T20:31:36Z</time>
      </trkpt>
      <trkpt lat="46.02153" lon="7.11927">
        <ele>1728</ele>
        <time>2022-08-27T20:31:38Z</time>
      </trkpt>
      <trkpt lat="46.02154" lon="7.11927">
        <ele>1728</ele>
        <time>2022-08-27T20:31:39Z</time>
      </trkpt>
      <trkpt lat="46.02155" lon="7.11927">
        <ele>1728</ele>
        <time>2022-08-27T20:31:41Z</time>
      </trkpt>
      <trkpt lat="46.02156" lon="7.11927">
        <ele>1728</ele>
        <time>2022-08-27T20:31:43Z</time>
      </trkpt>
      <trkpt lat="46.02157" lon="7.11927">
        <ele>1728</ele>
        <time>2022-08-27T20:31:44Z</time>
      </trkpt>
      <trkpt lat="46.02158" lon="7.11927">
        <ele>1728</ele>
        <time>2022-08-27T20:31:45Z</time>
      </trkpt>
      <trkpt lat="46.02159" lon="7.11928">
        <ele>1728</ele>
        <time>2022-08-27T20:31:47Z</time>
      </trkpt>
      <trkpt lat="46.0216" lon="7.11928">
        <ele>1728</ele>
        <time>2022-08-27T20:31:48Z</time>
      </trkpt>
      <trkpt lat="46.02161" lon="7.11928">
        <ele>1728</ele>
        <time>2022-08-27T20:31:49Z</time>
      </trkpt>
      <trkpt lat="46.02163" lon="7.11928">
        <ele>1728</ele>
        <time>2022-08-27T20:31:50Z</time>
      </trkpt>
      <trkpt lat="46.02164" lon="7.11928">
        <ele>1728</ele>
        <time>2022-08-27T20:31:51Z</time>
      </trkpt>
      <trkpt lat="46.02167" lon="7.11929">
        <ele>1728</ele>
        <time>2022-08-27T20:31:53Z</time>
      </trkpt>
      <trkpt lat="46.02168" lon="7.11929">
        <ele>1728</ele>
        <time>2022-08-27T20:31:54Z</time>
      </trkpt>
      <trkpt lat="46.02169" lon="7.1193">
        <ele>1728</ele>
        <time>2022-08-27T20:31:56Z</time>
      </trkpt>
      <trkpt lat="46.02169" lon="7.11931">
        <ele>1728</ele>
        <time>2022-08-27T20:31:57Z</time>
      </trkpt>
      <trkpt lat="46.0217" lon="7.11932">
        <ele>1728</ele>
        <time>2022-08-27T20:31:58Z</time>
      </trkpt>
      <trkpt lat="46.02171" lon="7.11932">
        <ele>1728</ele>
        <time>2022-08-27T20:31:59Z</time>
      </trkpt>
      <trkpt lat="46.02172" lon="7.11933">
        <ele>1728</ele>
        <time>2022-08-27T20:32:01Z</time>
      </trkpt>
      <trkpt lat="46.02173" lon="7.11934">
        <ele>1728</ele>
        <time>2022-08-27T20:32:02Z</time>
      </trkpt>
      <trkpt lat="46.02174" lon="7.11935">
        <ele>1728</ele>
        <time>2022-08-27T20:32:03Z</time>
      </trkpt>
      <trkpt lat="46.02175" lon="7.11936">
        <ele>1728</ele>
        <time>2022-08-27T20:32:04Z</time>
      </trkpt>
      <trkpt lat="46.02176" lon="7.11937">
        <ele>1728</ele>
        <time>2022-08-27T20:32:06Z</time>
      </trkpt>
      <trkpt lat="46.02177" lon="7.11938">
        <ele>1729</ele>
        <time>2022-08-27T20:32:07Z</time>
      </trkpt>
      <trkpt lat="46.02178" lon="7.11939">
        <ele>1729</ele>
        <time>2022-08-27T20:32:08Z</time>
      </trkpt>
      <trkpt lat="46.02179" lon="7.11941">
        <ele>1729</ele>
        <time>2022-08-27T20:32:09Z</time>
      </trkpt>
      <trkpt lat="46.0218" lon="7.11942">
        <ele>1729</ele>
        <time>2022-08-27T20:32:11Z</time>
      </trkpt>
      <trkpt lat="46.02181" lon="7.11943">
        <ele>1729</ele>
        <time>2022-08-27T20:32:12Z</time>
      </trkpt>
      <trkpt lat="46.02182" lon="7.11944">
        <ele>1729</ele>
        <time>2022-08-27T20:32:13Z</time>
      </trkpt>
      <trkpt lat="46.02183" lon="7.11946">
        <ele>1729</ele>
        <time>2022-08-27T20:32:14Z</time>
      </trkpt>
      <trkpt lat="46.02184" lon="7.11948">
        <ele>1729</ele>
        <time>2022-08-27T20:32:16Z</time>
      </trkpt>
      <trkpt lat="46.02185" lon="7.1195">
        <ele>1729</ele>
        <time>2022-08-27T20:32:17Z</time>
      </trkpt>
      <trkpt lat="46.02186" lon="7.11952">
        <ele>1729</ele>
        <time>2022-08-27T20:32:18Z</time>
      </trkpt>
      <trkpt lat="46.02188" lon="7.11954">
        <ele>1729</ele>
        <time>2022-08-27T20:32:19Z</time>
      </trkpt>
      <trkpt lat="46.02189" lon="7.11956">
        <ele>1728</ele>
        <time>2022-08-27T20:32:21Z</time>
      </trkpt>
      <trkpt lat="46.02191" lon="7.11957">
        <ele>1728</ele>
        <time>2022-08-27T20:32:23Z</time>
      </trkpt>
      <trkpt lat="46.02193" lon="7.11958">
        <ele>1728</ele>
        <time>2022-08-27T20:32:24Z</time>
      </trkpt>
      <trkpt lat="46.02195" lon="7.11959">
        <ele>1728</ele>
        <time>2022-08-27T20:32:25Z</time>
      </trkpt>
      <trkpt lat="46.02197" lon="7.11961">
        <ele>1728</ele>
        <time>2022-08-27T20:32:26Z</time>
      </trkpt>
      <trkpt lat="46.022" lon="7.11961">
        <ele>1729</ele>
        <time>2022-08-27T20:32:30Z</time>
      </trkpt>
      <trkpt lat="46.02201" lon="7.11961">
        <ele>1729</ele>
        <time>2022-08-27T20:32:31Z</time>
      </trkpt>
      <trkpt lat="46.02202" lon="7.11961">
        <ele>1729</ele>
        <time>2022-08-27T20:32:32Z</time>
      </trkpt>
      <trkpt lat="46.02203" lon="7.11961">
        <ele>1730</ele>
        <time>2022-08-27T20:32:33Z</time>
      </trkpt>
      <trkpt lat="46.02203" lon="7.11962">
        <ele>1730</ele>
        <time>2022-08-27T20:32:35Z</time>
      </trkpt>
      <trkpt lat="46.02204" lon="7.11962">
        <ele>1730</ele>
        <time>2022-08-27T20:32:36Z</time>
      </trkpt>
      <trkpt lat="46.02205" lon="7.11962">
        <ele>1730</ele>
        <time>2022-08-27T20:32:37Z</time>
      </trkpt>
      <trkpt lat="46.02207" lon="7.11962">
        <ele>1730</ele>
        <time>2022-08-27T20:32:38Z</time>
      </trkpt>
      <trkpt lat="46.02207" lon="7.11961">
        <ele>1731</ele>
        <time>2022-08-27T20:32:40Z</time>
      </trkpt>
      <trkpt lat="46.02208" lon="7.11961">
        <ele>1731</ele>
        <time>2022-08-27T20:32:41Z</time>
      </trkpt>
      <trkpt lat="46.02209" lon="7.11961">
        <ele>1731</ele>
        <time>2022-08-27T20:32:42Z</time>
      </trkpt>
      <trkpt lat="46.0221" lon="7.11961">
        <ele>1731</ele>
        <time>2022-08-27T20:32:44Z</time>
      </trkpt>
      <trkpt lat="46.0221" lon="7.11961">
        <ele>1731</ele>
        <time>2022-08-27T20:32:45Z</time>
      </trkpt>
      <trkpt lat="46.02211" lon="7.11961">
        <ele>1732</ele>
        <time>2022-08-27T20:32:46Z</time>
      </trkpt>
      <trkpt lat="46.02212" lon="7.1196">
        <ele>1732</ele>
        <time>2022-08-27T20:32:47Z</time>
      </trkpt>
      <trkpt lat="46.02213" lon="7.11961">
        <ele>1732</ele>
        <time>2022-08-27T20:32:50Z</time>
      </trkpt>
      <trkpt lat="46.02215" lon="7.11963">
        <ele>1732</ele>
        <time>2022-08-27T20:32:53Z</time>
      </trkpt>
      <trkpt lat="46.02217" lon="7.11965">
        <ele>1732</ele>
        <time>2022-08-27T20:32:55Z</time>
      </trkpt>
      <trkpt lat="46.02217" lon="7.11966">
        <ele>1732</ele>
        <time>2022-08-27T20:32:56Z</time>
      </trkpt>
      <trkpt lat="46.02218" lon="7.11967">
        <ele>1732</ele>
        <time>2022-08-27T20:32:57Z</time>
      </trkpt>
      <trkpt lat="46.02219" lon="7.11969">
        <ele>1733</ele>
        <time>2022-08-27T20:32:59Z</time>
      </trkpt>
      <trkpt lat="46.02219" lon="7.1197">
        <ele>1733</ele>
        <time>2022-08-27T20:33:00Z</time>
      </trkpt>
      <trkpt lat="46.0222" lon="7.11972">
        <ele>1732</ele>
        <time>2022-08-27T20:33:01Z</time>
      </trkpt>
      <trkpt lat="46.02221" lon="7.11974">
        <ele>1733</ele>
        <time>2022-08-27T20:33:03Z</time>
      </trkpt>
      <trkpt lat="46.02225" lon="7.11978">
        <ele>1733</ele>
        <time>2022-08-27T20:33:06Z</time>
      </trkpt>
      <trkpt lat="46.02227" lon="7.11979">
        <ele>1733</ele>
        <time>2022-08-27T20:33:08Z</time>
      </trkpt>
      <trkpt lat="46.02231" lon="7.11981">
        <ele>1733</ele>
        <time>2022-08-27T20:33:11Z</time>
      </trkpt>
      <trkpt lat="46.02232" lon="7.11983">
        <ele>1733</ele>
        <time>2022-08-27T20:33:12Z</time>
      </trkpt>
      <trkpt lat="46.02233" lon="7.11985">
        <ele>1733</ele>
        <time>2022-08-27T20:33:13Z</time>
      </trkpt>
      <trkpt lat="46.02233" lon="7.11986">
        <ele>1733</ele>
        <time>2022-08-27T20:33:14Z</time>
      </trkpt>
      <trkpt lat="46.02234" lon="7.11988">
        <ele>1733</ele>
        <time>2022-08-27T20:33:16Z</time>
      </trkpt>
      <trkpt lat="46.02235" lon="7.1199">
        <ele>1733</ele>
        <time>2022-08-27T20:33:18Z</time>
      </trkpt>
      <trkpt lat="46.02236" lon="7.11991">
        <ele>1733</ele>
        <time>2022-08-27T20:33:19Z</time>
      </trkpt>
      <trkpt lat="46.02237" lon="7.11993">
        <ele>1732</ele>
        <time>2022-08-27T20:33:20Z</time>
      </trkpt>
      <trkpt lat="46.02238" lon="7.11995">
        <ele>1732</ele>
        <time>2022-08-27T20:33:21Z</time>
      </trkpt>
      <trkpt lat="46.02239" lon="7.11996">
        <ele>1732</ele>
        <time>2022-08-27T20:33:23Z</time>
      </trkpt>
      <trkpt lat="46.0224" lon="7.11997">
        <ele>1732</ele>
        <time>2022-08-27T20:33:24Z</time>
      </trkpt>
      <trkpt lat="46.02241" lon="7.11999">
        <ele>1732</ele>
        <time>2022-08-27T20:33:25Z</time>
      </trkpt>
      <trkpt lat="46.02241" lon="7.12">
        <ele>1732</ele>
        <time>2022-08-27T20:33:26Z</time>
      </trkpt>
      <trkpt lat="46.02242" lon="7.12002">
        <ele>1731</ele>
        <time>2022-08-27T20:33:28Z</time>
      </trkpt>
      <trkpt lat="46.02243" lon="7.12003">
        <ele>1731</ele>
        <time>2022-08-27T20:33:29Z</time>
      </trkpt>
      <trkpt lat="46.02244" lon="7.12004">
        <ele>1731</ele>
        <time>2022-08-27T20:33:30Z</time>
      </trkpt>
      <trkpt lat="46.02246" lon="7.12005">
        <ele>1730</ele>
        <time>2022-08-27T20:33:31Z</time>
      </trkpt>
      <trkpt lat="46.02247" lon="7.12005">
        <ele>1729</ele>
        <time>2022-08-27T20:33:33Z</time>
      </trkpt>
      <trkpt lat="46.02248" lon="7.12006">
        <ele>1729</ele>
        <time>2022-08-27T20:33:34Z</time>
      </trkpt>
      <trkpt lat="46.02249" lon="7.12007">
        <ele>1728</ele>
        <time>2022-08-27T20:33:35Z</time>
      </trkpt>
      <trkpt lat="46.0225" lon="7.12007">
        <ele>1728</ele>
        <time>2022-08-27T20:33:36Z</time>
      </trkpt>
      <trkpt lat="46.02252" lon="7.12008">
        <ele>1728</ele>
        <time>2022-08-27T20:33:37Z</time>
      </trkpt>
      <trkpt lat="46.02253" lon="7.12009">
        <ele>1728</ele>
        <time>2022-08-27T20:33:39Z</time>
      </trkpt>
      <trkpt lat="46.02255" lon="7.1201">
        <ele>1728</ele>
        <time>2022-08-27T20:33:41Z</time>
      </trkpt>
      <trkpt lat="46.02257" lon="7.1201">
        <ele>1727</ele>
        <time>2022-08-27T20:33:42Z</time>
      </trkpt>
      <trkpt lat="46.02263" lon="7.12013">
        <ele>1727</ele>
        <time>2022-08-27T20:33:43Z</time>
      </trkpt>
      <trkpt lat="46.02263" lon="7.12014">
        <ele>1727</ele>
        <time>2022-08-27T20:33:44Z</time>
      </trkpt>
      <trkpt lat="46.02264" lon="7.12014">
        <ele>1727</ele>
        <time>2022-08-27T20:33:46Z</time>
      </trkpt>
      <trkpt lat="46.02265" lon="7.12015">
        <ele>1728</ele>
        <time>2022-08-27T20:33:47Z</time>
      </trkpt>
      <trkpt lat="46.02266" lon="7.12016">
        <ele>1728</ele>
        <time>2022-08-27T20:33:48Z</time>
      </trkpt>
      <trkpt lat="46.02267" lon="7.12016">
        <ele>1728</ele>
        <time>2022-08-27T20:33:49Z</time>
      </trkpt>
      <trkpt lat="46.02268" lon="7.12017">
        <ele>1728</ele>
        <time>2022-08-27T20:33:50Z</time>
      </trkpt>
      <trkpt lat="46.02269" lon="7.12017">
        <ele>1728</ele>
        <time>2022-08-27T20:33:51Z</time>
      </trkpt>
      <trkpt lat="46.0227" lon="7.12018">
        <ele>1728</ele>
        <time>2022-08-27T20:33:52Z</time>
      </trkpt>
      <trkpt lat="46.02271" lon="7.12018">
        <ele>1728</ele>
        <time>2022-08-27T20:33:53Z</time>
      </trkpt>
      <trkpt lat="46.02272" lon="7.12019">
        <ele>1728</ele>
        <time>2022-08-27T20:33:54Z</time>
      </trkpt>
      <trkpt lat="46.02273" lon="7.12019">
        <ele>1728</ele>
        <time>2022-08-27T20:33:56Z</time>
      </trkpt>
      <trkpt lat="46.02274" lon="7.12019">
        <ele>1728</ele>
        <time>2022-08-27T20:33:57Z</time>
      </trkpt>
      <trkpt lat="46.02276" lon="7.12019">
        <ele>1728</ele>
        <time>2022-08-27T20:33:58Z</time>
      </trkpt>
      <trkpt lat="46.02277" lon="7.1202">
        <ele>1729</ele>
        <time>2022-08-27T20:34:00Z</time>
      </trkpt>
      <trkpt lat="46.02278" lon="7.1202">
        <ele>1729</ele>
        <time>2022-08-27T20:34:01Z</time>
      </trkpt>
      <trkpt lat="46.02279" lon="7.1202">
        <ele>1729</ele>
        <time>2022-08-27T20:34:02Z</time>
      </trkpt>
      <trkpt lat="46.0228" lon="7.12021">
        <ele>1729</ele>
        <time>2022-08-27T20:34:03Z</time>
      </trkpt>
      <trkpt lat="46.02281" lon="7.12021">
        <ele>1729</ele>
        <time>2022-08-27T20:34:05Z</time>
      </trkpt>
      <trkpt lat="46.02281" lon="7.12021">
        <ele>1729</ele>
        <time>2022-08-27T20:34:06Z</time>
      </trkpt>
      <trkpt lat="46.02282" lon="7.12022">
        <ele>1729</ele>
        <time>2022-08-27T20:34:07Z</time>
      </trkpt>
      <trkpt lat="46.02283" lon="7.12022">
        <ele>1729</ele>
        <time>2022-08-27T20:34:08Z</time>
      </trkpt>
      <trkpt lat="46.02284" lon="7.12022">
        <ele>1729</ele>
        <time>2022-08-27T20:34:10Z</time>
      </trkpt>
      <trkpt lat="46.02285" lon="7.12023">
        <ele>1730</ele>
        <time>2022-08-27T20:34:11Z</time>
      </trkpt>
      <trkpt lat="46.02285" lon="7.12023">
        <ele>1730</ele>
        <time>2022-08-27T20:34:12Z</time>
      </trkpt>
      <trkpt lat="46.02286" lon="7.12024">
        <ele>1730</ele>
        <time>2022-08-27T20:34:13Z</time>
      </trkpt>
      <trkpt lat="46.02287" lon="7.12024">
        <ele>1730</ele>
        <time>2022-08-27T20:34:15Z</time>
      </trkpt>
      <trkpt lat="46.02288" lon="7.12024">
        <ele>1730</ele>
        <time>2022-08-27T20:34:16Z</time>
      </trkpt>
      <trkpt lat="46.02289" lon="7.12024">
        <ele>1730</ele>
        <time>2022-08-27T20:34:17Z</time>
      </trkpt>
      <trkpt lat="46.02291" lon="7.12025">
        <ele>1730</ele>
        <time>2022-08-27T20:34:18Z</time>
      </trkpt>
      <trkpt lat="46.02292" lon="7.12025">
        <ele>1731</ele>
        <time>2022-08-27T20:34:19Z</time>
      </trkpt>
      <trkpt lat="46.02294" lon="7.12025">
        <ele>1731</ele>
        <time>2022-08-27T20:34:21Z</time>
      </trkpt>
      <trkpt lat="46.02296" lon="7.12025">
        <ele>1731</ele>
        <time>2022-08-27T20:34:22Z</time>
      </trkpt>
      <trkpt lat="46.02297" lon="7.12026">
        <ele>1731</ele>
        <time>2022-08-27T20:34:23Z</time>
      </trkpt>
      <trkpt lat="46.02298" lon="7.12026">
        <ele>1731</ele>
        <time>2022-08-27T20:34:24Z</time>
      </trkpt>
      <trkpt lat="46.02299" lon="7.12026">
        <ele>1732</ele>
        <time>2022-08-27T20:34:26Z</time>
      </trkpt>
      <trkpt lat="46.023" lon="7.12027">
        <ele>1732</ele>
        <time>2022-08-27T20:34:28Z</time>
      </trkpt>
      <trkpt lat="46.02301" lon="7.12027">
        <ele>1732</ele>
        <time>2022-08-27T20:34:29Z</time>
      </trkpt>
      <trkpt lat="46.02302" lon="7.12028">
        <ele>1732</ele>
        <time>2022-08-27T20:34:30Z</time>
      </trkpt>
      <trkpt lat="46.02303" lon="7.12028">
        <ele>1732</ele>
        <time>2022-08-27T20:34:31Z</time>
      </trkpt>
      <trkpt lat="46.02304" lon="7.12029">
        <ele>1732</ele>
        <time>2022-08-27T20:34:33Z</time>
      </trkpt>
      <trkpt lat="46.02305" lon="7.12029">
        <ele>1732</ele>
        <time>2022-08-27T20:34:34Z</time>
      </trkpt>
      <trkpt lat="46.02306" lon="7.12029">
        <ele>1732</ele>
        <time>2022-08-27T20:34:35Z</time>
      </trkpt>
      <trkpt lat="46.02307" lon="7.1203">
        <ele>1733</ele>
        <time>2022-08-27T20:34:36Z</time>
      </trkpt>
      <trkpt lat="46.02307" lon="7.1203">
        <ele>1733</ele>
        <time>2022-08-27T20:34:38Z</time>
      </trkpt>
      <trkpt lat="46.02308" lon="7.12031">
        <ele>1733</ele>
        <time>2022-08-27T20:34:39Z</time>
      </trkpt>
      <trkpt lat="46.02308" lon="7.12031">
        <ele>1734</ele>
        <time>2022-08-27T20:34:40Z</time>
      </trkpt>
      <trkpt lat="46.02309" lon="7.12032">
        <ele>1734</ele>
        <time>2022-08-27T20:34:41Z</time>
      </trkpt>
      <trkpt lat="46.02309" lon="7.12032">
        <ele>1734</ele>
        <time>2022-08-27T20:34:43Z</time>
      </trkpt>
      <trkpt lat="46.0231" lon="7.12033">
        <ele>1735</ele>
        <time>2022-08-27T20:34:44Z</time>
      </trkpt>
      <trkpt lat="46.0231" lon="7.12033">
        <ele>1735</ele>
        <time>2022-08-27T20:34:45Z</time>
      </trkpt>
      <trkpt lat="46.02311" lon="7.12034">
        <ele>1735</ele>
        <time>2022-08-27T20:34:46Z</time>
      </trkpt>
      <trkpt lat="46.02311" lon="7.12034">
        <ele>1735</ele>
        <time>2022-08-27T20:34:48Z</time>
      </trkpt>
      <trkpt lat="46.02312" lon="7.12035">
        <ele>1735</ele>
        <time>2022-08-27T20:34:50Z</time>
      </trkpt>
      <trkpt lat="46.02312" lon="7.12035">
        <ele>1735</ele>
        <time>2022-08-27T20:34:51Z</time>
      </trkpt>
      <trkpt lat="46.02313" lon="7.12036">
        <ele>1736</ele>
        <time>2022-08-27T20:34:53Z</time>
      </trkpt>
      <trkpt lat="46.02313" lon="7.12036">
        <ele>1736</ele>
        <time>2022-08-27T20:34:54Z</time>
      </trkpt>
      <trkpt lat="46.02314" lon="7.12037">
        <ele>1736</ele>
        <time>2022-08-27T20:34:55Z</time>
      </trkpt>
      <trkpt lat="46.02314" lon="7.12037">
        <ele>1736</ele>
        <time>2022-08-27T20:34:56Z</time>
      </trkpt>
      <trkpt lat="46.02315" lon="7.12038">
        <ele>1736</ele>
        <time>2022-08-27T20:34:57Z</time>
      </trkpt>
      <trkpt lat="46.02323" lon="7.12045">
        <ele>1738</ele>
        <time>2022-08-27T20:35:07Z</time>
      </trkpt>
      <trkpt lat="46.02325" lon="7.12045">
        <ele>1738</ele>
        <time>2022-08-27T20:35:08Z</time>
      </trkpt>
      <trkpt lat="46.02326" lon="7.12046">
        <ele>1739</ele>
        <time>2022-08-27T20:35:09Z</time>
      </trkpt>
      <trkpt lat="46.02327" lon="7.12047">
        <ele>1739</ele>
        <time>2022-08-27T20:35:10Z</time>
      </trkpt>
      <trkpt lat="46.02328" lon="7.12048">
        <ele>1739</ele>
        <time>2022-08-27T20:35:12Z</time>
      </trkpt>
      <trkpt lat="46.0233" lon="7.12048">
        <ele>1739</ele>
        <time>2022-08-27T20:35:14Z</time>
      </trkpt>
      <trkpt lat="46.02331" lon="7.12049">
        <ele>1739</ele>
        <time>2022-08-27T20:35:15Z</time>
      </trkpt>
      <trkpt lat="46.02332" lon="7.1205">
        <ele>1739</ele>
        <time>2022-08-27T20:35:16Z</time>
      </trkpt>
      <trkpt lat="46.02333" lon="7.12051">
        <ele>1739</ele>
        <time>2022-08-27T20:35:17Z</time>
      </trkpt>
      <trkpt lat="46.02334" lon="7.12051">
        <ele>1739</ele>
        <time>2022-08-27T20:35:19Z</time>
      </trkpt>
      <trkpt lat="46.02335" lon="7.12052">
        <ele>1739</ele>
        <time>2022-08-27T20:35:20Z</time>
      </trkpt>
      <trkpt lat="46.02335" lon="7.12053">
        <ele>1740</ele>
        <time>2022-08-27T20:35:21Z</time>
      </trkpt>
      <trkpt lat="46.02336" lon="7.12054">
        <ele>1740</ele>
        <time>2022-08-27T20:35:22Z</time>
      </trkpt>
      <trkpt lat="46.02337" lon="7.12055">
        <ele>1740</ele>
        <time>2022-08-27T20:35:24Z</time>
      </trkpt>
      <trkpt lat="46.02337" lon="7.12056">
        <ele>1740</ele>
        <time>2022-08-27T20:35:25Z</time>
      </trkpt>
      <trkpt lat="46.02338" lon="7.12057">
        <ele>1740</ele>
        <time>2022-08-27T20:35:26Z</time>
      </trkpt>
      <trkpt lat="46.02339" lon="7.12057">
        <ele>1740</ele>
        <time>2022-08-27T20:35:27Z</time>
      </trkpt>
      <trkpt lat="46.0234" lon="7.12058">
        <ele>1740</ele>
        <time>2022-08-27T20:35:28Z</time>
      </trkpt>
      <trkpt lat="46.02341" lon="7.12059">
        <ele>1740</ele>
        <time>2022-08-27T20:35:29Z</time>
      </trkpt>
      <trkpt lat="46.02342" lon="7.1206">
        <ele>1740</ele>
        <time>2022-08-27T20:35:31Z</time>
      </trkpt>
      <trkpt lat="46.02343" lon="7.12061">
        <ele>1741</ele>
        <time>2022-08-27T20:35:32Z</time>
      </trkpt>
      <trkpt lat="46.02344" lon="7.12062">
        <ele>1741</ele>
        <time>2022-08-27T20:35:33Z</time>
      </trkpt>
      <trkpt lat="46.02346" lon="7.12062">
        <ele>1741</ele>
        <time>2022-08-27T20:35:35Z</time>
      </trkpt>
      <trkpt lat="46.02347" lon="7.12063">
        <ele>1741</ele>
        <time>2022-08-27T20:35:36Z</time>
      </trkpt>
      <trkpt lat="46.02348" lon="7.12064">
        <ele>1742</ele>
        <time>2022-08-27T20:35:37Z</time>
      </trkpt>
      <trkpt lat="46.0235" lon="7.12065">
        <ele>1742</ele>
        <time>2022-08-27T20:35:40Z</time>
      </trkpt>
      <trkpt lat="46.02353" lon="7.12065">
        <ele>1742</ele>
        <time>2022-08-27T20:35:43Z</time>
      </trkpt>
      <trkpt lat="46.02356" lon="7.12066">
        <ele>1742</ele>
        <time>2022-08-27T20:35:46Z</time>
      </trkpt>
      <trkpt lat="46.02358" lon="7.12066">
        <ele>1743</ele>
        <time>2022-08-27T20:35:51Z</time>
      </trkpt>
      <trkpt lat="46.02361" lon="7.12066">
        <ele>1744</ele>
        <time>2022-08-27T20:35:56Z</time>
      </trkpt>
      <trkpt lat="46.02361" lon="7.12065">
        <ele>1745</ele>
        <time>2022-08-27T20:35:58Z</time>
      </trkpt>
      <trkpt lat="46.02362" lon="7.12065">
        <ele>1745</ele>
        <time>2022-08-27T20:35:59Z</time>
      </trkpt>
      <trkpt lat="46.02363" lon="7.12065">
        <ele>1745</ele>
        <time>2022-08-27T20:36:00Z</time>
      </trkpt>
      <trkpt lat="46.02363" lon="7.12065">
        <ele>1745</ele>
        <time>2022-08-27T20:36:02Z</time>
      </trkpt>
      <trkpt lat="46.02364" lon="7.12064">
        <ele>1745</ele>
        <time>2022-08-27T20:36:03Z</time>
      </trkpt>
      <trkpt lat="46.02364" lon="7.12064">
        <ele>1745</ele>
        <time>2022-08-27T20:36:04Z</time>
      </trkpt>
      <trkpt lat="46.02365" lon="7.12064">
        <ele>1745</ele>
        <time>2022-08-27T20:36:05Z</time>
      </trkpt>
      <trkpt lat="46.02366" lon="7.12064">
        <ele>1746</ele>
        <time>2022-08-27T20:36:06Z</time>
      </trkpt>
      <trkpt lat="46.02366" lon="7.12063">
        <ele>1746</ele>
        <time>2022-08-27T20:36:08Z</time>
      </trkpt>
      <trkpt lat="46.02367" lon="7.12063">
        <ele>1747</ele>
        <time>2022-08-27T20:36:09Z</time>
      </trkpt>
      <trkpt lat="46.02368" lon="7.12063">
        <ele>1747</ele>
        <time>2022-08-27T20:36:10Z</time>
      </trkpt>
      <trkpt lat="46.02368" lon="7.12063">
        <ele>1747</ele>
        <time>2022-08-27T20:36:11Z</time>
      </trkpt>
      <trkpt lat="46.02378" lon="7.12061">
        <ele>1749</ele>
        <time>2022-08-27T20:36:23Z</time>
      </trkpt>
      <trkpt lat="46.02381" lon="7.12063">
        <ele>1749</ele>
        <time>2022-08-27T20:36:27Z</time>
      </trkpt>
      <trkpt lat="46.02384" lon="7.12065">
        <ele>1751</ele>
        <time>2022-08-27T20:36:36Z</time>
      </trkpt>
      <trkpt lat="46.02386" lon="7.12065">
        <ele>1751</ele>
        <time>2022-08-27T20:36:38Z</time>
      </trkpt>
      <trkpt lat="46.02389" lon="7.12065">
        <ele>1752</ele>
        <time>2022-08-27T20:36:40Z</time>
      </trkpt>
      <trkpt lat="46.02391" lon="7.12064">
        <ele>1752</ele>
        <time>2022-08-27T20:36:42Z</time>
      </trkpt>
      <trkpt lat="46.02394" lon="7.12065">
        <ele>1752</ele>
        <time>2022-08-27T20:36:45Z</time>
      </trkpt>
      <trkpt lat="46.02397" lon="7.12067">
        <ele>1752</ele>
        <time>2022-08-27T20:36:47Z</time>
      </trkpt>
      <trkpt lat="46.02399" lon="7.12069">
        <ele>1753</ele>
        <time>2022-08-27T20:36:49Z</time>
      </trkpt>
      <trkpt lat="46.02401" lon="7.12072">
        <ele>1753</ele>
        <time>2022-08-27T20:36:51Z</time>
      </trkpt>
      <trkpt lat="46.02402" lon="7.12075">
        <ele>1753</ele>
        <time>2022-08-27T20:36:53Z</time>
      </trkpt>
      <trkpt lat="46.02404" lon="7.12079">
        <ele>1753</ele>
        <time>2022-08-27T20:36:55Z</time>
      </trkpt>
      <trkpt lat="46.02404" lon="7.12082">
        <ele>1753</ele>
        <time>2022-08-27T20:36:57Z</time>
      </trkpt>
      <trkpt lat="46.02405" lon="7.12086">
        <ele>1753</ele>
        <time>2022-08-27T20:36:59Z</time>
      </trkpt>
      <trkpt lat="46.02405" lon="7.12089">
        <ele>1753</ele>
        <time>2022-08-27T20:37:01Z</time>
      </trkpt>
      <trkpt lat="46.02406" lon="7.12092">
        <ele>1754</ele>
        <time>2022-08-27T20:37:03Z</time>
      </trkpt>
      <trkpt lat="46.02408" lon="7.12093">
        <ele>1754</ele>
        <time>2022-08-27T20:37:07Z</time>
      </trkpt>
      <trkpt lat="46.02411" lon="7.12093">
        <ele>1754</ele>
        <time>2022-08-27T20:37:09Z</time>
      </trkpt>
      <trkpt lat="46.02413" lon="7.12092">
        <ele>1754</ele>
        <time>2022-08-27T20:37:11Z</time>
      </trkpt>
      <trkpt lat="46.02415" lon="7.12092">
        <ele>1754</ele>
        <time>2022-08-27T20:37:13Z</time>
      </trkpt>
      <trkpt lat="46.02417" lon="7.12093">
        <ele>1754</ele>
        <time>2022-08-27T20:37:15Z</time>
      </trkpt>
      <trkpt lat="46.02419" lon="7.12094">
        <ele>1755</ele>
        <time>2022-08-27T20:37:17Z</time>
      </trkpt>
      <trkpt lat="46.02421" lon="7.12094">
        <ele>1755</ele>
        <time>2022-08-27T20:37:19Z</time>
      </trkpt>
      <trkpt lat="46.02423" lon="7.12094">
        <ele>1755</ele>
        <time>2022-08-27T20:37:21Z</time>
      </trkpt>
      <trkpt lat="46.02425" lon="7.12095">
        <ele>1756</ele>
        <time>2022-08-27T20:37:23Z</time>
      </trkpt>
      <trkpt lat="46.02428" lon="7.12095">
        <ele>1756</ele>
        <time>2022-08-27T20:37:25Z</time>
      </trkpt>
      <trkpt lat="46.0243" lon="7.12095">
        <ele>1756</ele>
        <time>2022-08-27T20:37:27Z</time>
      </trkpt>
      <trkpt lat="46.02432" lon="7.12096">
        <ele>1756</ele>
        <time>2022-08-27T20:37:30Z</time>
      </trkpt>
      <trkpt lat="46.02434" lon="7.12097">
        <ele>1756</ele>
        <time>2022-08-27T20:37:32Z</time>
      </trkpt>
      <trkpt lat="46.02436" lon="7.12098">
        <ele>1756</ele>
        <time>2022-08-27T20:37:34Z</time>
      </trkpt>
      <trkpt lat="46.02438" lon="7.12098">
        <ele>1757</ele>
        <time>2022-08-27T20:37:36Z</time>
      </trkpt>
      <trkpt lat="46.0244" lon="7.12099">
        <ele>1757</ele>
        <time>2022-08-27T20:37:38Z</time>
      </trkpt>
      <trkpt lat="46.02442" lon="7.121">
        <ele>1757</ele>
        <time>2022-08-27T20:37:41Z</time>
      </trkpt>
      <trkpt lat="46.02444" lon="7.12101">
        <ele>1757</ele>
        <time>2022-08-27T20:37:43Z</time>
      </trkpt>
      <trkpt lat="46.02446" lon="7.12104">
        <ele>1757</ele>
        <time>2022-08-27T20:37:46Z</time>
      </trkpt>
      <trkpt lat="46.02447" lon="7.12106">
        <ele>1758</ele>
        <time>2022-08-27T20:37:48Z</time>
      </trkpt>
      <trkpt lat="46.02448" lon="7.12108">
        <ele>1758</ele>
        <time>2022-08-27T20:37:50Z</time>
      </trkpt>
      <trkpt lat="46.02449" lon="7.12111">
        <ele>1759</ele>
        <time>2022-08-27T20:37:53Z</time>
      </trkpt>
      <trkpt lat="46.0245" lon="7.12114">
        <ele>1759</ele>
        <time>2022-08-27T20:37:56Z</time>
      </trkpt>
      <trkpt lat="46.02451" lon="7.12116">
        <ele>1759</ele>
        <time>2022-08-27T20:37:58Z</time>
      </trkpt>
      <trkpt lat="46.02452" lon="7.12119">
        <ele>1759</ele>
        <time>2022-08-27T20:38:00Z</time>
      </trkpt>
      <trkpt lat="46.02453" lon="7.12121">
        <ele>1761</ele>
        <time>2022-08-27T20:38:04Z</time>
      </trkpt>
      <trkpt lat="46.02454" lon="7.12122">
        <ele>1761</ele>
        <time>2022-08-27T20:38:05Z</time>
      </trkpt>
      <trkpt lat="46.02454" lon="7.12124">
        <ele>1761</ele>
        <time>2022-08-27T20:38:06Z</time>
      </trkpt>
      <trkpt lat="46.02454" lon="7.12125">
        <ele>1761</ele>
        <time>2022-08-27T20:38:08Z</time>
      </trkpt>
      <trkpt lat="46.02454" lon="7.12127">
        <ele>1761</ele>
        <time>2022-08-27T20:38:09Z</time>
      </trkpt>
      <trkpt lat="46.02455" lon="7.12128">
        <ele>1761</ele>
        <time>2022-08-27T20:38:10Z</time>
      </trkpt>
      <trkpt lat="46.02455" lon="7.12131">
        <ele>1761</ele>
        <time>2022-08-27T20:38:12Z</time>
      </trkpt>
      <trkpt lat="46.02456" lon="7.12135">
        <ele>1761</ele>
        <time>2022-08-27T20:38:16Z</time>
      </trkpt>
      <trkpt lat="46.02456" lon="7.12135">
        <ele>1761</ele>
        <time>2022-08-27T20:38:17Z</time>
      </trkpt>
      <trkpt lat="46.02456" lon="7.12136">
        <ele>1762</ele>
        <time>2022-08-27T20:38:18Z</time>
      </trkpt>
      <trkpt lat="46.02457" lon="7.12136">
        <ele>1763</ele>
        <time>2022-08-27T20:38:20Z</time>
      </trkpt>
      <trkpt lat="46.02457" lon="7.12137">
        <ele>1763</ele>
        <time>2022-08-27T20:38:22Z</time>
      </trkpt>
      <trkpt lat="46.02457" lon="7.12137">
        <ele>1763</ele>
        <time>2022-08-27T20:38:23Z</time>
      </trkpt>
      <trkpt lat="46.02458" lon="7.12138">
        <ele>1763</ele>
        <time>2022-08-27T20:38:24Z</time>
      </trkpt>
      <trkpt lat="46.02458" lon="7.12138">
        <ele>1763</ele>
        <time>2022-08-27T20:38:26Z</time>
      </trkpt>
      <trkpt lat="46.02458" lon="7.12139">
        <ele>1764</ele>
        <time>2022-08-27T20:38:27Z</time>
      </trkpt>
      <trkpt lat="46.02458" lon="7.12139">
        <ele>1764</ele>
        <time>2022-08-27T20:38:28Z</time>
      </trkpt>
      <trkpt lat="46.02459" lon="7.1214">
        <ele>1764</ele>
        <time>2022-08-27T20:38:29Z</time>
      </trkpt>
      <trkpt lat="46.02459" lon="7.1214">
        <ele>1765</ele>
        <time>2022-08-27T20:38:31Z</time>
      </trkpt>
      <trkpt lat="46.02459" lon="7.12141">
        <ele>1765</ele>
        <time>2022-08-27T20:38:32Z</time>
      </trkpt>
      <trkpt lat="46.0246" lon="7.12141">
        <ele>1765</ele>
        <time>2022-08-27T20:38:33Z</time>
      </trkpt>
      <trkpt lat="46.02464" lon="7.12149">
        <ele>1765</ele>
        <time>2022-08-27T20:38:34Z</time>
      </trkpt>
      <trkpt lat="46.02465" lon="7.1215">
        <ele>1765</ele>
        <time>2022-08-27T20:38:36Z</time>
      </trkpt>
      <trkpt lat="46.02466" lon="7.12151">
        <ele>1765</ele>
        <time>2022-08-27T20:38:37Z</time>
      </trkpt>
      <trkpt lat="46.02466" lon="7.12151">
        <ele>1765</ele>
        <time>2022-08-27T20:38:38Z</time>
      </trkpt>
      <trkpt lat="46.02467" lon="7.12152">
        <ele>1765</ele>
        <time>2022-08-27T20:38:39Z</time>
      </trkpt>
      <trkpt lat="46.02467" lon="7.12153">
        <ele>1765</ele>
        <time>2022-08-27T20:38:41Z</time>
      </trkpt>
      <trkpt lat="46.02468" lon="7.12154">
        <ele>1766</ele>
        <time>2022-08-27T20:38:43Z</time>
      </trkpt>
      <trkpt lat="46.02468" lon="7.12155">
        <ele>1766</ele>
        <time>2022-08-27T20:38:44Z</time>
      </trkpt>
      <trkpt lat="46.02469" lon="7.12156">
        <ele>1766</ele>
        <time>2022-08-27T20:38:45Z</time>
      </trkpt>
      <trkpt lat="46.0247" lon="7.12157">
        <ele>1766</ele>
        <time>2022-08-27T20:38:46Z</time>
      </trkpt>
      <trkpt lat="46.0247" lon="7.12158">
        <ele>1766</ele>
        <time>2022-08-27T20:38:47Z</time>
      </trkpt>
      <trkpt lat="46.02471" lon="7.12158">
        <ele>1767</ele>
        <time>2022-08-27T20:38:48Z</time>
      </trkpt>
      <trkpt lat="46.02472" lon="7.12159">
        <ele>1767</ele>
        <time>2022-08-27T20:38:49Z</time>
      </trkpt>
      <trkpt lat="46.02473" lon="7.12159">
        <ele>1767</ele>
        <time>2022-08-27T20:38:50Z</time>
      </trkpt>
      <trkpt lat="46.02474" lon="7.12159">
        <ele>1767</ele>
        <time>2022-08-27T20:38:51Z</time>
      </trkpt>
      <trkpt lat="46.02475" lon="7.12159">
        <ele>1767</ele>
        <time>2022-08-27T20:38:53Z</time>
      </trkpt>
      <trkpt lat="46.02475" lon="7.12159">
        <ele>1768</ele>
        <time>2022-08-27T20:38:54Z</time>
      </trkpt>
      <trkpt lat="46.02476" lon="7.12159">
        <ele>1768</ele>
        <time>2022-08-27T20:38:55Z</time>
      </trkpt>
      <trkpt lat="46.02483" lon="7.1216">
        <ele>1768</ele>
        <time>2022-08-27T20:38:56Z</time>
      </trkpt>
      <trkpt lat="46.02484" lon="7.12159">
        <ele>1768</ele>
        <time>2022-08-27T20:38:58Z</time>
      </trkpt>
      <trkpt lat="46.02486" lon="7.12159">
        <ele>1768</ele>
        <time>2022-08-27T20:39:00Z</time>
      </trkpt>
      <trkpt lat="46.02487" lon="7.12159">
        <ele>1768</ele>
        <time>2022-08-27T20:39:01Z</time>
      </trkpt>
      <trkpt lat="46.02488" lon="7.12159">
        <ele>1768</ele>
        <time>2022-08-27T20:39:02Z</time>
      </trkpt>
      <trkpt lat="46.02489" lon="7.12158">
        <ele>1768</ele>
        <time>2022-08-27T20:39:03Z</time>
      </trkpt>
      <trkpt lat="46.0249" lon="7.12158">
        <ele>1768</ele>
        <time>2022-08-27T20:39:04Z</time>
      </trkpt>
      <trkpt lat="46.02492" lon="7.12158">
        <ele>1769</ele>
        <time>2022-08-27T20:39:05Z</time>
      </trkpt>
      <trkpt lat="46.02493" lon="7.12158">
        <ele>1769</ele>
        <time>2022-08-27T20:39:06Z</time>
      </trkpt>
      <trkpt lat="46.02494" lon="7.12157">
        <ele>1769</ele>
        <time>2022-08-27T20:39:07Z</time>
      </trkpt>
      <trkpt lat="46.02495" lon="7.12157">
        <ele>1769</ele>
        <time>2022-08-27T20:39:08Z</time>
      </trkpt>
      <trkpt lat="46.02496" lon="7.12157">
        <ele>1770</ele>
        <time>2022-08-27T20:39:10Z</time>
      </trkpt>
      <trkpt lat="46.02497" lon="7.12157">
        <ele>1770</ele>
        <time>2022-08-27T20:39:11Z</time>
      </trkpt>
      <trkpt lat="46.02498" lon="7.12156">
        <ele>1771</ele>
        <time>2022-08-27T20:39:12Z</time>
      </trkpt>
      <trkpt lat="46.02499" lon="7.12156">
        <ele>1771</ele>
        <time>2022-08-27T20:39:13Z</time>
      </trkpt>
      <trkpt lat="46.025" lon="7.12156">
        <ele>1771</ele>
        <time>2022-08-27T20:39:14Z</time>
      </trkpt>
      <trkpt lat="46.02501" lon="7.12156">
        <ele>1771</ele>
        <time>2022-08-27T20:39:15Z</time>
      </trkpt>
      <trkpt lat="46.02502" lon="7.12155">
        <ele>1771</ele>
        <time>2022-08-27T20:39:16Z</time>
      </trkpt>
      <trkpt lat="46.02502" lon="7.12155">
        <ele>1771</ele>
        <time>2022-08-27T20:39:18Z</time>
      </trkpt>
      <trkpt lat="46.02503" lon="7.12155">
        <ele>1771</ele>
        <time>2022-08-27T20:39:19Z</time>
      </trkpt>
      <trkpt lat="46.02504" lon="7.12154">
        <ele>1771</ele>
        <time>2022-08-27T20:39:21Z</time>
      </trkpt>
      <trkpt lat="46.02505" lon="7.12154">
        <ele>1771</ele>
        <time>2022-08-27T20:39:23Z</time>
      </trkpt>
      <trkpt lat="46.02506" lon="7.12153">
        <ele>1771</ele>
        <time>2022-08-27T20:39:24Z</time>
      </trkpt>
      <trkpt lat="46.02506" lon="7.12153">
        <ele>1771</ele>
        <time>2022-08-27T20:39:25Z</time>
      </trkpt>
      <trkpt lat="46.02507" lon="7.12152">
        <ele>1771</ele>
        <time>2022-08-27T20:39:26Z</time>
      </trkpt>
      <trkpt lat="46.02508" lon="7.12152">
        <ele>1771</ele>
        <time>2022-08-27T20:39:28Z</time>
      </trkpt>
      <trkpt lat="46.02509" lon="7.12152">
        <ele>1772</ele>
        <time>2022-08-27T20:39:29Z</time>
      </trkpt>
      <trkpt lat="46.02509" lon="7.12151">
        <ele>1772</ele>
        <time>2022-08-27T20:39:30Z</time>
      </trkpt>
      <trkpt lat="46.0251" lon="7.12151">
        <ele>1772</ele>
        <time>2022-08-27T20:39:31Z</time>
      </trkpt>
      <trkpt lat="46.02512" lon="7.1215">
        <ele>1772</ele>
        <time>2022-08-27T20:39:33Z</time>
      </trkpt>
      <trkpt lat="46.02513" lon="7.1215">
        <ele>1773</ele>
        <time>2022-08-27T20:39:34Z</time>
      </trkpt>
      <trkpt lat="46.02514" lon="7.12149">
        <ele>1773</ele>
        <time>2022-08-27T20:39:35Z</time>
      </trkpt>
      <trkpt lat="46.02515" lon="7.12149">
        <ele>1773</ele>
        <time>2022-08-27T20:39:36Z</time>
      </trkpt>
      <trkpt lat="46.02517" lon="7.12148">
        <ele>1773</ele>
        <time>2022-08-27T20:39:38Z</time>
      </trkpt>
      <trkpt lat="46.02518" lon="7.12148">
        <ele>1774</ele>
        <time>2022-08-27T20:39:40Z</time>
      </trkpt>
      <trkpt lat="46.02519" lon="7.12147">
        <ele>1774</ele>
        <time>2022-08-27T20:39:41Z</time>
      </trkpt>
      <trkpt lat="46.0252" lon="7.12147">
        <ele>1774</ele>
        <time>2022-08-27T20:39:42Z</time>
      </trkpt>
      <trkpt lat="46.02521" lon="7.12146">
        <ele>1774</ele>
        <time>2022-08-27T20:39:43Z</time>
      </trkpt>
      <trkpt lat="46.02522" lon="7.12145">
        <ele>1774</ele>
        <time>2022-08-27T20:39:45Z</time>
      </trkpt>
      <trkpt lat="46.02523" lon="7.12145">
        <ele>1775</ele>
        <time>2022-08-27T20:39:46Z</time>
      </trkpt>
      <trkpt lat="46.02524" lon="7.12144">
        <ele>1775</ele>
        <time>2022-08-27T20:39:47Z</time>
      </trkpt>
      <trkpt lat="46.02525" lon="7.12144">
        <ele>1775</ele>
        <time>2022-08-27T20:39:48Z</time>
      </trkpt>
      <trkpt lat="46.02526" lon="7.12143">
        <ele>1775</ele>
        <time>2022-08-27T20:39:50Z</time>
      </trkpt>
      <trkpt lat="46.02526" lon="7.12143">
        <ele>1776</ele>
        <time>2022-08-27T20:39:52Z</time>
      </trkpt>
      <trkpt lat="46.02527" lon="7.12142">
        <ele>1776</ele>
        <time>2022-08-27T20:39:53Z</time>
      </trkpt>
      <trkpt lat="46.02528" lon="7.12142">
        <ele>1776</ele>
        <time>2022-08-27T20:39:54Z</time>
      </trkpt>
      <trkpt lat="46.02529" lon="7.12141">
        <ele>1776</ele>
        <time>2022-08-27T20:39:55Z</time>
      </trkpt>
      <trkpt lat="46.0253" lon="7.1214">
        <ele>1776</ele>
        <time>2022-08-27T20:39:57Z</time>
      </trkpt>
      <trkpt lat="46.02531" lon="7.12138">
        <ele>1776</ele>
        <time>2022-08-27T20:39:58Z</time>
      </trkpt>
      <trkpt lat="46.02532" lon="7.12137">
        <ele>1776</ele>
        <time>2022-08-27T20:39:59Z</time>
      </trkpt>
      <trkpt lat="46.02532" lon="7.12136">
        <ele>1776</ele>
        <time>2022-08-27T20:40:00Z</time>
      </trkpt>
      <trkpt lat="46.02533" lon="7.12135">
        <ele>1777</ele>
        <time>2022-08-27T20:40:02Z</time>
      </trkpt>
      <trkpt lat="46.02534" lon="7.12134">
        <ele>1777</ele>
        <time>2022-08-27T20:40:03Z</time>
      </trkpt>
      <trkpt lat="46.02535" lon="7.12133">
        <ele>1777</ele>
        <time>2022-08-27T20:40:04Z</time>
      </trkpt>
      <trkpt lat="46.02539" lon="7.1213">
        <ele>1777</ele>
        <time>2022-08-27T20:40:08Z</time>
      </trkpt>
      <trkpt lat="46.02541" lon="7.12129">
        <ele>1777</ele>
        <time>2022-08-27T20:40:10Z</time>
      </trkpt>
      <trkpt lat="46.02541" lon="7.12126">
        <ele>1778</ele>
        <time>2022-08-27T20:40:12Z</time>
      </trkpt>
      <trkpt lat="46.02542" lon="7.12123">
        <ele>1778</ele>
        <time>2022-08-27T20:40:15Z</time>
      </trkpt>
      <trkpt lat="46.02544" lon="7.12122">
        <ele>1778</ele>
        <time>2022-08-27T20:40:18Z</time>
      </trkpt>
      <trkpt lat="46.02547" lon="7.12121">
        <ele>1778</ele>
        <time>2022-08-27T20:40:21Z</time>
      </trkpt>
      <trkpt lat="46.02548" lon="7.12119">
        <ele>1779</ele>
        <time>2022-08-27T20:40:23Z</time>
      </trkpt>
      <trkpt lat="46.02549" lon="7.12116">
        <ele>1779</ele>
        <time>2022-08-27T20:40:26Z</time>
      </trkpt>
      <trkpt lat="46.02552" lon="7.12116">
        <ele>1780</ele>
        <time>2022-08-27T20:40:32Z</time>
      </trkpt>
      <trkpt lat="46.02554" lon="7.12115">
        <ele>1780</ele>
        <time>2022-08-27T20:40:35Z</time>
      </trkpt>
      <trkpt lat="46.02556" lon="7.12113">
        <ele>1781</ele>
        <time>2022-08-27T20:40:37Z</time>
      </trkpt>
      <trkpt lat="46.02558" lon="7.12112">
        <ele>1781</ele>
        <time>2022-08-27T20:40:39Z</time>
      </trkpt>
      <trkpt lat="46.02559" lon="7.12109">
        <ele>1781</ele>
        <time>2022-08-27T20:40:42Z</time>
      </trkpt>
      <trkpt lat="46.02561" lon="7.12109">
        <ele>1782</ele>
        <time>2022-08-27T20:40:44Z</time>
      </trkpt>
      <trkpt lat="46.02564" lon="7.12109">
        <ele>1782</ele>
        <time>2022-08-27T20:40:47Z</time>
      </trkpt>
      <trkpt lat="46.02565" lon="7.12107">
        <ele>1782</ele>
        <time>2022-08-27T20:40:51Z</time>
      </trkpt>
      <trkpt lat="46.02568" lon="7.12106">
        <ele>1783</ele>
        <time>2022-08-27T20:40:54Z</time>
      </trkpt>
      <trkpt lat="46.0257" lon="7.12106">
        <ele>1784</ele>
        <time>2022-08-27T20:40:56Z</time>
      </trkpt>
      <trkpt lat="46.02572" lon="7.12105">
        <ele>1785</ele>
        <time>2022-08-27T20:40:59Z</time>
      </trkpt>
      <trkpt lat="46.02573" lon="7.12104">
        <ele>1785</ele>
        <time>2022-08-27T20:41:02Z</time>
      </trkpt>
      <trkpt lat="46.02575" lon="7.12104">
        <ele>1785</ele>
        <time>2022-08-27T20:41:04Z</time>
      </trkpt>
      <trkpt lat="46.02577" lon="7.12104">
        <ele>1785</ele>
        <time>2022-08-27T20:41:05Z</time>
      </trkpt>
      <trkpt lat="46.02578" lon="7.12105">
        <ele>1785</ele>
        <time>2022-08-27T20:41:06Z</time>
      </trkpt>
      <trkpt lat="46.02579" lon="7.12105">
        <ele>1785</ele>
        <time>2022-08-27T20:41:08Z</time>
      </trkpt>
      <trkpt lat="46.0258" lon="7.12105">
        <ele>1786</ele>
        <time>2022-08-27T20:41:09Z</time>
      </trkpt>
      <trkpt lat="46.02581" lon="7.12105">
        <ele>1786</ele>
        <time>2022-08-27T20:41:10Z</time>
      </trkpt>
      <trkpt lat="46.02582" lon="7.12105">
        <ele>1786</ele>
        <time>2022-08-27T20:41:11Z</time>
      </trkpt>
      <trkpt lat="46.02584" lon="7.12106">
        <ele>1786</ele>
        <time>2022-08-27T20:41:13Z</time>
      </trkpt>
      <trkpt lat="46.02585" lon="7.12106">
        <ele>1787</ele>
        <time>2022-08-27T20:41:14Z</time>
      </trkpt>
      <trkpt lat="46.02594" lon="7.12106">
        <ele>1789</ele>
        <time>2022-08-27T20:41:26Z</time>
      </trkpt>
      <trkpt lat="46.02595" lon="7.12106">
        <ele>1789</ele>
        <time>2022-08-27T20:41:27Z</time>
      </trkpt>
      <trkpt lat="46.02596" lon="7.12106">
        <ele>1789</ele>
        <time>2022-08-27T20:41:28Z</time>
      </trkpt>
      <trkpt lat="46.02598" lon="7.12106">
        <ele>1790</ele>
        <time>2022-08-27T20:41:29Z</time>
      </trkpt>
      <trkpt lat="46.02599" lon="7.12106">
        <ele>1790</ele>
        <time>2022-08-27T20:41:31Z</time>
      </trkpt>
      <trkpt lat="46.026" lon="7.12106">
        <ele>1790</ele>
        <time>2022-08-27T20:41:32Z</time>
      </trkpt>
      <trkpt lat="46.02601" lon="7.12106">
        <ele>1790</ele>
        <time>2022-08-27T20:41:33Z</time>
      </trkpt>
      <trkpt lat="46.02602" lon="7.12106">
        <ele>1790</ele>
        <time>2022-08-27T20:41:34Z</time>
      </trkpt>
      <trkpt lat="46.02603" lon="7.12106">
        <ele>1790</ele>
        <time>2022-08-27T20:41:36Z</time>
      </trkpt>
      <trkpt lat="46.02604" lon="7.12105">
        <ele>1790</ele>
        <time>2022-08-27T20:41:37Z</time>
      </trkpt>
      <trkpt lat="46.02606" lon="7.12107">
        <ele>1792</ele>
        <time>2022-08-27T20:41:44Z</time>
      </trkpt>
      <trkpt lat="46.02605" lon="7.12108">
        <ele>1792</ele>
        <time>2022-08-27T20:41:46Z</time>
      </trkpt>
      <trkpt lat="46.02604" lon="7.12109">
        <ele>1792</ele>
        <time>2022-08-27T20:41:47Z</time>
      </trkpt>
      <trkpt lat="46.02603" lon="7.1211">
        <ele>1792</ele>
        <time>2022-08-27T20:41:48Z</time>
      </trkpt>
      <trkpt lat="46.02602" lon="7.12111">
        <ele>1793</ele>
        <time>2022-08-27T20:41:49Z</time>
      </trkpt>
      <trkpt lat="46.02599" lon="7.12114">
        <ele>1793</ele>
        <time>2022-08-27T20:41:53Z</time>
      </trkpt>
      <trkpt lat="46.02596" lon="7.12117">
        <ele>1794</ele>
        <time>2022-08-27T20:41:56Z</time>
      </trkpt>
      <trkpt lat="46.02594" lon="7.12118">
        <ele>1794</ele>
        <time>2022-08-27T20:41:58Z</time>
      </trkpt>
      <trkpt lat="46.02592" lon="7.12119">
        <ele>1794</ele>
        <time>2022-08-27T20:42:00Z</time>
      </trkpt>
      <trkpt lat="46.0259" lon="7.1212">
        <ele>1794</ele>
        <time>2022-08-27T20:42:03Z</time>
      </trkpt>
      <trkpt lat="46.02587" lon="7.12123">
        <ele>1795</ele>
        <time>2022-08-27T20:42:06Z</time>
      </trkpt>
      <trkpt lat="46.02585" lon="7.12125">
        <ele>1795</ele>
        <time>2022-08-27T20:42:09Z</time>
      </trkpt>
      <trkpt lat="46.02584" lon="7.12126">
        <ele>1795</ele>
        <time>2022-08-27T20:42:11Z</time>
      </trkpt>
      <trkpt lat="46.02582" lon="7.12128">
        <ele>1796</ele>
        <time>2022-08-27T20:42:13Z</time>
      </trkpt>
      <trkpt lat="46.0258" lon="7.1213">
        <ele>1796</ele>
        <time>2022-08-27T20:42:15Z</time>
      </trkpt>
      <trkpt lat="46.02579" lon="7.12133">
        <ele>1796</ele>
        <time>2022-08-27T20:42:17Z</time>
      </trkpt>
      <trkpt lat="46.02578" lon="7.12135">
        <ele>1796</ele>
        <time>2022-08-27T20:42:19Z</time>
      </trkpt>
      <trkpt lat="46.02576" lon="7.12137">
        <ele>1796</ele>
        <time>2022-08-27T20:42:21Z</time>
      </trkpt>
      <trkpt lat="46.02575" lon="7.12139">
        <ele>1797</ele>
        <time>2022-08-27T20:42:23Z</time>
      </trkpt>
      <trkpt lat="46.02574" lon="7.12142">
        <ele>1797</ele>
        <time>2022-08-27T20:42:25Z</time>
      </trkpt>
      <trkpt lat="46.02572" lon="7.12144">
        <ele>1797</ele>
        <time>2022-08-27T20:42:27Z</time>
      </trkpt>
      <trkpt lat="46.02571" lon="7.12146">
        <ele>1797</ele>
        <time>2022-08-27T20:42:29Z</time>
      </trkpt>
      <trkpt lat="46.02569" lon="7.12148">
        <ele>1798</ele>
        <time>2022-08-27T20:42:32Z</time>
      </trkpt>
      <trkpt lat="46.02568" lon="7.12151">
        <ele>1799</ele>
        <time>2022-08-27T20:42:35Z</time>
      </trkpt>
      <trkpt lat="46.02567" lon="7.12155">
        <ele>1799</ele>
        <time>2022-08-27T20:42:38Z</time>
      </trkpt>
      <trkpt lat="46.02566" lon="7.12158">
        <ele>1799</ele>
        <time>2022-08-27T20:42:41Z</time>
      </trkpt>
      <trkpt lat="46.02565" lon="7.12161">
        <ele>1799</ele>
        <time>2022-08-27T20:42:43Z</time>
      </trkpt>
      <trkpt lat="46.02563" lon="7.12163">
        <ele>1800</ele>
        <time>2022-08-27T20:42:45Z</time>
      </trkpt>
      <trkpt lat="46.02562" lon="7.12165">
        <ele>1800</ele>
        <time>2022-08-27T20:42:47Z</time>
      </trkpt>
      <trkpt lat="46.02561" lon="7.12168">
        <ele>1800</ele>
        <time>2022-08-27T20:42:49Z</time>
      </trkpt>
      <trkpt lat="46.02561" lon="7.12171">
        <ele>1800</ele>
        <time>2022-08-27T20:42:51Z</time>
      </trkpt>
      <trkpt lat="46.0256" lon="7.12174">
        <ele>1800</ele>
        <time>2022-08-27T20:42:53Z</time>
      </trkpt>
      <trkpt lat="46.02558" lon="7.12177">
        <ele>1800</ele>
        <time>2022-08-27T20:42:55Z</time>
      </trkpt>
      <trkpt lat="46.02557" lon="7.12179">
        <ele>1800</ele>
        <time>2022-08-27T20:42:57Z</time>
      </trkpt>
      <trkpt lat="46.02555" lon="7.12182">
        <ele>1800</ele>
        <time>2022-08-27T20:43:00Z</time>
      </trkpt>
      <trkpt lat="46.02554" lon="7.12185">
        <ele>1800</ele>
        <time>2022-08-27T20:43:02Z</time>
      </trkpt>
      <trkpt lat="46.02552" lon="7.12187">
        <ele>1801</ele>
        <time>2022-08-27T20:43:04Z</time>
      </trkpt>
      <trkpt lat="46.02551" lon="7.1219">
        <ele>1801</ele>
        <time>2022-08-27T20:43:06Z</time>
      </trkpt>
      <trkpt lat="46.02549" lon="7.12193">
        <ele>1801</ele>
        <time>2022-08-27T20:43:08Z</time>
      </trkpt>
      <trkpt lat="46.02548" lon="7.12195">
        <ele>1801</ele>
        <time>2022-08-27T20:43:10Z</time>
      </trkpt>
      <trkpt lat="46.02546" lon="7.12197">
        <ele>1802</ele>
        <time>2022-08-27T20:43:12Z</time>
      </trkpt>
      <trkpt lat="46.02545" lon="7.12199">
        <ele>1803</ele>
        <time>2022-08-27T20:43:14Z</time>
      </trkpt>
      <trkpt lat="46.02544" lon="7.12202">
        <ele>1803</ele>
        <time>2022-08-27T20:43:16Z</time>
      </trkpt>
      <trkpt lat="46.02543" lon="7.12204">
        <ele>1803</ele>
        <time>2022-08-27T20:43:18Z</time>
      </trkpt>
      <trkpt lat="46.02542" lon="7.12208">
        <ele>1803</ele>
        <time>2022-08-27T20:43:20Z</time>
      </trkpt>
      <trkpt lat="46.02542" lon="7.12211">
        <ele>1803</ele>
        <time>2022-08-27T20:43:22Z</time>
      </trkpt>
      <trkpt lat="46.02543" lon="7.12213">
        <ele>1803</ele>
        <time>2022-08-27T20:43:24Z</time>
      </trkpt>
      <trkpt lat="46.02543" lon="7.12216">
        <ele>1803</ele>
        <time>2022-08-27T20:43:26Z</time>
      </trkpt>
      <trkpt lat="46.02542" lon="7.1222">
        <ele>1803</ele>
        <time>2022-08-27T20:43:29Z</time>
      </trkpt>
      <trkpt lat="46.02543" lon="7.12223">
        <ele>1803</ele>
        <time>2022-08-27T20:43:31Z</time>
      </trkpt>
      <trkpt lat="46.02544" lon="7.12226">
        <ele>1803</ele>
        <time>2022-08-27T20:43:33Z</time>
      </trkpt>
      <trkpt lat="46.02545" lon="7.12228">
        <ele>1803</ele>
        <time>2022-08-27T20:43:35Z</time>
      </trkpt>
      <trkpt lat="46.02546" lon="7.12231">
        <ele>1804</ele>
        <time>2022-08-27T20:43:37Z</time>
      </trkpt>
      <trkpt lat="46.02547" lon="7.12235">
        <ele>1804</ele>
        <time>2022-08-27T20:43:39Z</time>
      </trkpt>
      <trkpt lat="46.02549" lon="7.12238">
        <ele>1804</ele>
        <time>2022-08-27T20:43:41Z</time>
      </trkpt>
      <trkpt lat="46.0255" lon="7.12241">
        <ele>1804</ele>
        <time>2022-08-27T20:43:43Z</time>
      </trkpt>
      <trkpt lat="46.02552" lon="7.12244">
        <ele>1804</ele>
        <time>2022-08-27T20:43:45Z</time>
      </trkpt>
      <trkpt lat="46.02554" lon="7.12246">
        <ele>1805</ele>
        <time>2022-08-27T20:43:47Z</time>
      </trkpt>
      <trkpt lat="46.02556" lon="7.12246">
        <ele>1805</ele>
        <time>2022-08-27T20:43:50Z</time>
      </trkpt>
      <trkpt lat="46.02559" lon="7.12246">
        <ele>1805</ele>
        <time>2022-08-27T20:43:53Z</time>
      </trkpt>
      <trkpt lat="46.02561" lon="7.12245">
        <ele>1805</ele>
        <time>2022-08-27T20:43:55Z</time>
      </trkpt>
      <trkpt lat="46.02563" lon="7.12244">
        <ele>1805</ele>
        <time>2022-08-27T20:43:57Z</time>
      </trkpt>
      <trkpt lat="46.02564" lon="7.12242">
        <ele>1805</ele>
        <time>2022-08-27T20:44:00Z</time>
      </trkpt>
      <trkpt lat="46.02567" lon="7.12241">
        <ele>1805</ele>
        <time>2022-08-27T20:44:03Z</time>
      </trkpt>
      <trkpt lat="46.02569" lon="7.1224">
        <ele>1804</ele>
        <time>2022-08-27T20:44:05Z</time>
      </trkpt>
      <trkpt lat="46.02571" lon="7.12238">
        <ele>1804</ele>
        <time>2022-08-27T20:44:08Z</time>
      </trkpt>
      <trkpt lat="46.02571" lon="7.12235">
        <ele>1804</ele>
        <time>2022-08-27T20:44:11Z</time>
      </trkpt>
      <trkpt lat="46.02574" lon="7.12233">
        <ele>1804</ele>
        <time>2022-08-27T20:44:14Z</time>
      </trkpt>
      <trkpt lat="46.02577" lon="7.12232">
        <ele>1804</ele>
        <time>2022-08-27T20:44:16Z</time>
      </trkpt>
      <trkpt lat="46.02578" lon="7.1223">
        <ele>1804</ele>
        <time>2022-08-27T20:44:18Z</time>
      </trkpt>
      <trkpt lat="46.0258" lon="7.12228">
        <ele>1804</ele>
        <time>2022-08-27T20:44:21Z</time>
      </trkpt>
      <trkpt lat="46.02581" lon="7.12225">
        <ele>1803</ele>
        <time>2022-08-27T20:44:34Z</time>
      </trkpt>
      <trkpt lat="46.02581" lon="7.12225">
        <ele>1803</ele>
        <time>2022-08-27T20:44:37Z</time>
      </trkpt>
      <trkpt lat="46.02583" lon="7.12225">
        <ele>1803</ele>
        <time>2022-08-27T20:44:48Z</time>
      </trkpt>
      <trkpt lat="46.02583" lon="7.12225">
        <ele>1803</ele>
        <time>2022-08-27T20:44:58Z</time>
      </trkpt>
      <trkpt lat="46.02583" lon="7.12225">
        <ele>1803</ele>
        <time>2022-08-27T20:45:15Z</time>
      </trkpt>
      <trkpt lat="46.02583" lon="7.12225">
        <ele>1804</ele>
        <time>2022-08-27T20:45:33Z</time>
      </trkpt>
      <trkpt lat="46.02584" lon="7.12225">
        <ele>1803</ele>
        <time>2022-08-27T20:45:40Z</time>
      </trkpt>
      <trkpt lat="46.02586" lon="7.12225">
        <ele>1803</ele>
        <time>2022-08-27T20:45:51Z</time>
      </trkpt>
      <trkpt lat="46.02586" lon="7.12225">
        <ele>1803</ele>
        <time>2022-08-27T20:45:53Z</time>
      </trkpt>
      <trkpt lat="46.02586" lon="7.12222">
        <ele>1804</ele>
        <time>2022-08-27T20:46:03Z</time>
      </trkpt>
      <trkpt lat="46.02587" lon="7.1222">
        <ele>1804</ele>
        <time>2022-08-27T20:46:08Z</time>
      </trkpt>
      <trkpt lat="46.02588" lon="7.12218">
        <ele>1804</ele>
        <time>2022-08-27T20:46:12Z</time>
      </trkpt>
      <trkpt lat="46.02588" lon="7.12215">
        <ele>1804</ele>
        <time>2022-08-27T20:46:14Z</time>
      </trkpt>
      <trkpt lat="46.0259" lon="7.12215">
        <ele>1804</ele>
        <time>2022-08-27T20:46:22Z</time>
      </trkpt>
      <trkpt lat="46.0259" lon="7.12215">
        <ele>1804</ele>
        <time>2022-08-27T20:46:32Z</time>
      </trkpt>
      <trkpt lat="46.0259" lon="7.12215">
        <ele>1804</ele>
        <time>2022-08-27T20:46:49Z</time>
      </trkpt>
      <trkpt lat="46.0259" lon="7.12212">
        <ele>1804</ele>
        <time>2022-08-27T20:46:51Z</time>
      </trkpt>
      <trkpt lat="46.0259" lon="7.12209">
        <ele>1804</ele>
        <time>2022-08-27T20:47:01Z</time>
      </trkpt>
      <trkpt lat="46.02589" lon="7.12207">
        <ele>1804</ele>
        <time>2022-08-27T20:47:09Z</time>
      </trkpt>
      <trkpt lat="46.02589" lon="7.12207">
        <ele>1804</ele>
        <time>2022-08-27T20:47:19Z</time>
      </trkpt>
      <trkpt lat="46.02588" lon="7.12205">
        <ele>1804</ele>
        <time>2022-08-27T20:47:24Z</time>
      </trkpt>
      <trkpt lat="46.02588" lon="7.12205">
        <ele>1804</ele>
        <time>2022-08-27T20:47:37Z</time>
      </trkpt>
      <trkpt lat="46.02591" lon="7.12208">
        <ele>1804</ele>
        <time>2022-08-27T20:47:40Z</time>
      </trkpt>
      <trkpt lat="46.02591" lon="7.12208">
        <ele>1804</ele>
        <time>2022-08-27T20:47:55Z</time>
      </trkpt>
      <trkpt lat="46.02593" lon="7.12209">
        <ele>1804</ele>
        <time>2022-08-27T20:48:03Z</time>
      </trkpt>
      <trkpt lat="46.02593" lon="7.12209">
        <ele>1804</ele>
        <time>2022-08-27T20:48:13Z</time>
      </trkpt>
      <trkpt lat="46.02591" lon="7.12209">
        <ele>1804</ele>
        <time>2022-08-27T20:48:14Z</time>
      </trkpt>
      <trkpt lat="46.02588" lon="7.1221">
        <ele>1804</ele>
        <time>2022-08-27T20:48:19Z</time>
      </trkpt>
      <trkpt lat="46.02587" lon="7.12212">
        <ele>1804</ele>
        <time>2022-08-27T20:48:24Z</time>
      </trkpt>
      <trkpt lat="46.02585" lon="7.12211">
        <ele>1804</ele>
        <time>2022-08-27T20:48:28Z</time>
      </trkpt>
      <trkpt lat="46.02585" lon="7.12211">
        <ele>1804</ele>
        <time>2022-08-27T20:48:34Z</time>
      </trkpt>
      <trkpt lat="46.02585" lon="7.12211">
        <ele>1804</ele>
        <time>2022-08-27T20:48:51Z</time>
      </trkpt>
      <trkpt lat="46.02585" lon="7.12211">
        <ele>1803</ele>
        <time>2022-08-27T20:49:08Z</time>
      </trkpt>
      <trkpt lat="46.02587" lon="7.1221">
        <ele>1804</ele>
        <time>2022-08-27T20:49:24Z</time>
      </trkpt>
      <trkpt lat="46.02587" lon="7.1221">
        <ele>1804</ele>
        <time>2022-08-27T20:49:25Z</time>
      </trkpt>
      <trkpt lat="46.02587" lon="7.1221">
        <ele>1803</ele>
        <time>2022-08-27T20:49:43Z</time>
      </trkpt>
      <trkpt lat="46.02588" lon="7.12207">
        <ele>1804</ele>
        <time>2022-08-27T20:50:00Z</time>
      </trkpt>
      <trkpt lat="46.02588" lon="7.12207">
        <ele>1804</ele>
        <time>2022-08-27T20:50:04Z</time>
      </trkpt>
      <trkpt lat="46.02586" lon="7.12208">
        <ele>1804</ele>
        <time>2022-08-27T20:50:06Z</time>
      </trkpt>
      <trkpt lat="46.02586" lon="7.12208">
        <ele>1804</ele>
        <time>2022-08-27T20:50:27Z</time>
      </trkpt>
      <trkpt lat="46.02586" lon="7.12208">
        <ele>1804</ele>
        <time>2022-08-27T20:50:46Z</time>
      </trkpt>
      <trkpt lat="46.02586" lon="7.12208">
        <ele>1805</ele>
        <time>2022-08-27T20:51:03Z</time>
      </trkpt>
      <trkpt lat="46.02586" lon="7.12208">
        <ele>1804</ele>
        <time>2022-08-27T20:51:19Z</time>
      </trkpt>
      <trkpt lat="46.02586" lon="7.12208">
        <ele>1805</ele>
        <time>2022-08-27T20:51:36Z</time>
      </trkpt>
      <trkpt lat="46.02586" lon="7.12208">
        <ele>1805</ele>
        <time>2022-08-27T20:51:53Z</time>
      </trkpt>
      <trkpt lat="46.02586" lon="7.12208">
        <ele>1805</ele>
        <time>2022-08-27T20:52:10Z</time>
      </trkpt>
      <trkpt lat="46.02585" lon="7.1221">
        <ele>1805</ele>
        <time>2022-08-27T20:52:14Z</time>
      </trkpt>
      <trkpt lat="46.02585" lon="7.1221">
        <ele>1805</ele>
        <time>2022-08-27T20:52:28Z</time>
      </trkpt>
      <trkpt lat="46.02585" lon="7.1221">
        <ele>1805</ele>
        <time>2022-08-27T20:52:45Z</time>
      </trkpt>
      <trkpt lat="46.02585" lon="7.1221">
        <ele>1805</ele>
        <time>2022-08-27T20:53:02Z</time>
      </trkpt>
      <trkpt lat="46.02585" lon="7.1221">
        <ele>1805</ele>
        <time>2022-08-27T20:53:20Z</time>
      </trkpt>
      <trkpt lat="46.02585" lon="7.1221">
        <ele>1805</ele>
        <time>2022-08-27T20:53:37Z</time>
      </trkpt>
      <trkpt lat="46.02585" lon="7.1221">
        <ele>1805</ele>
        <time>2022-08-27T20:53:54Z</time>
      </trkpt>
      <trkpt lat="46.02585" lon="7.1221">
        <ele>1805</ele>
        <time>2022-08-27T20:54:10Z</time>
      </trkpt>
      <trkpt lat="46.02585" lon="7.1221">
        <ele>1805</ele>
        <time>2022-08-27T20:54:27Z</time>
      </trkpt>
      <trkpt lat="46.02585" lon="7.1221">
        <ele>1805</ele>
        <time>2022-08-27T20:54:44Z</time>
      </trkpt>
      <trkpt lat="46.02585" lon="7.1221">
        <ele>1805</ele>
        <time>2022-08-27T20:55:01Z</time>
      </trkpt>
      <trkpt lat="46.02585" lon="7.1221">
        <ele>1805</ele>
        <time>2022-08-27T20:55:18Z</time>
      </trkpt>
      <trkpt lat="46.02585" lon="7.1221">
        <ele>1805</ele>
        <time>2022-08-27T20:55:35Z</time>
      </trkpt>
      <trkpt lat="46.02585" lon="7.1221">
        <ele>1805</ele>
        <time>2022-08-27T20:55:52Z</time>
      </trkpt>
      <trkpt lat="46.02585" lon="7.1221">
        <ele>1805</ele>
        <time>2022-08-27T20:56:10Z</time>
      </trkpt>
      <trkpt lat="46.02585" lon="7.1221">
        <ele>1805</ele>
        <time>2022-08-27T20:56:28Z</time>
      </trkpt>
      <trkpt lat="46.02585" lon="7.1221">
        <ele>1805</ele>
        <time>2022-08-27T20:56:45Z</time>
      </trkpt>
      <trkpt lat="46.02585" lon="7.1221">
        <ele>1805</ele>
        <time>2022-08-27T20:57:01Z</time>
      </trkpt>
      <trkpt lat="46.02585" lon="7.1221">
        <ele>1805</ele>
        <time>2022-08-27T20:57:18Z</time>
      </trkpt>
      <trkpt lat="46.02585" lon="7.1221">
        <ele>1805</ele>
        <time>2022-08-27T20:57:41Z</time>
      </trkpt>
      <trkpt lat="46.02585" lon="7.1221">
        <ele>1805</ele>
        <time>2022-08-27T20:58:00Z</time>
      </trkpt>
      <trkpt lat="46.02585" lon="7.1221">
        <ele>1805</ele>
        <time>2022-08-27T20:58:16Z</time>
      </trkpt>
      <trkpt lat="46.02585" lon="7.1221">
        <ele>1805</ele>
        <time>2022-08-27T20:58:33Z</time>
      </trkpt>
      <trkpt lat="46.02585" lon="7.1221">
        <ele>1805</ele>
        <time>2022-08-27T20:58:50Z</time>
      </trkpt>
      <trkpt lat="46.02585" lon="7.1221">
        <ele>1805</ele>
        <time>2022-08-27T20:59:07Z</time>
      </trkpt>
      <trkpt lat="46.02585" lon="7.1221">
        <ele>1805</ele>
        <time>2022-08-27T20:59:24Z</time>
      </trkpt>
      <trkpt lat="46.02585" lon="7.1221">
        <ele>1805</ele>
        <time>2022-08-27T20:59:41Z</time>
      </trkpt>
      <trkpt lat="46.02585" lon="7.1221">
        <ele>1805</ele>
        <time>2022-08-27T20:59:58Z</time>
      </trkpt>
      <trkpt lat="46.02585" lon="7.1221">
        <ele>1805</ele>
        <time>2022-08-27T21:00:15Z</time>
      </trkpt>
      <trkpt lat="46.02585" lon="7.1221">
        <ele>1805</ele>
        <time>2022-08-27T21:00:32Z</time>
      </trkpt>
      <trkpt lat="46.02585" lon="7.1221">
        <ele>1805</ele>
        <time>2022-08-27T21:00:48Z</time>
      </trkpt>
      <trkpt lat="46.02585" lon="7.1221">
        <ele>1805</ele>
        <time>2022-08-27T21:01:05Z</time>
      </trkpt>
      <trkpt lat="46.02585" lon="7.1221">
        <ele>1805</ele>
        <time>2022-08-27T21:01:22Z</time>
      </trkpt>
      <trkpt lat="46.02585" lon="7.1221">
        <ele>1805</ele>
        <time>2022-08-27T21:01:39Z</time>
      </trkpt>
      <trkpt lat="46.02585" lon="7.1221">
        <ele>1805</ele>
        <time>2022-08-27T21:01:56Z</time>
      </trkpt>
      <trkpt lat="46.02585" lon="7.1221">
        <ele>1805</ele>
        <time>2022-08-27T21:02:13Z</time>
      </trkpt>
      <trkpt lat="46.02585" lon="7.1221">
        <ele>1805</ele>
        <time>2022-08-27T21:02:30Z</time>
      </trkpt>
      <trkpt lat="46.02585" lon="7.1221">
        <ele>1805</ele>
        <time>2022-08-27T21:02:47Z</time>
      </trkpt>
      <trkpt lat="46.02586" lon="7.12212">
        <ele>1805</ele>
        <time>2022-08-27T21:02:53Z</time>
      </trkpt>
      <trkpt lat="46.02586" lon="7.12212">
        <ele>1805</ele>
        <time>2022-08-27T21:03:05Z</time>
      </trkpt>
      <trkpt lat="46.02586" lon="7.12212">
        <ele>1805</ele>
        <time>2022-08-27T21:03:21Z</time>
      </trkpt>
      <trkpt lat="46.02586" lon="7.12212">
        <ele>1805</ele>
        <time>2022-08-27T21:03:38Z</time>
      </trkpt>
      <trkpt lat="46.02586" lon="7.12209">
        <ele>1805</ele>
        <time>2022-08-27T21:03:49Z</time>
      </trkpt>
      <trkpt lat="46.02586" lon="7.12209">
        <ele>1805</ele>
        <time>2022-08-27T21:03:56Z</time>
      </trkpt>
      <trkpt lat="46.02586" lon="7.12209">
        <ele>1805</ele>
        <time>2022-08-27T21:04:13Z</time>
      </trkpt>
      <trkpt lat="46.02586" lon="7.12209">
        <ele>1805</ele>
        <time>2022-08-27T21:04:30Z</time>
      </trkpt>
      <trkpt lat="46.02586" lon="7.12209">
        <ele>1805</ele>
        <time>2022-08-27T21:04:47Z</time>
      </trkpt>
      <trkpt lat="46.02586" lon="7.12209">
        <ele>1805</ele>
        <time>2022-08-27T21:05:05Z</time>
      </trkpt>
      <trkpt lat="46.02587" lon="7.12212">
        <ele>1805</ele>
        <time>2022-08-27T21:05:07Z</time>
      </trkpt>
      <trkpt lat="46.02587" lon="7.12212">
        <ele>1805</ele>
        <time>2022-08-27T21:05:08Z</time>
      </trkpt>
      <trkpt lat="46.02587" lon="7.12213">
        <ele>1805</ele>
        <time>2022-08-27T21:05:09Z</time>
      </trkpt>
      <trkpt lat="46.02586" lon="7.12213">
        <ele>1805</ele>
        <time>2022-08-27T21:05:10Z</time>
      </trkpt>
      <trkpt lat="46.02586" lon="7.12214">
        <ele>1805</ele>
        <time>2022-08-27T21:05:11Z</time>
      </trkpt>
      <trkpt lat="46.02586" lon="7.12214">
        <ele>1805</ele>
        <time>2022-08-27T21:05:12Z</time>
      </trkpt>
      <trkpt lat="46.02586" lon="7.12215">
        <ele>1805</ele>
        <time>2022-08-27T21:05:13Z</time>
      </trkpt>
      <trkpt lat="46.02586" lon="7.12215">
        <ele>1805</ele>
        <time>2022-08-27T21:05:14Z</time>
      </trkpt>
      <trkpt lat="46.02586" lon="7.12216">
        <ele>1805</ele>
        <time>2022-08-27T21:05:15Z</time>
      </trkpt>
      <trkpt lat="46.02586" lon="7.12216">
        <ele>1805</ele>
        <time>2022-08-27T21:05:17Z</time>
      </trkpt>
      <trkpt lat="46.02585" lon="7.12217">
        <ele>1805</ele>
        <time>2022-08-27T21:05:18Z</time>
      </trkpt>
      <trkpt lat="46.02585" lon="7.12217">
        <ele>1805</ele>
        <time>2022-08-27T21:05:19Z</time>
      </trkpt>
      <trkpt lat="46.02585" lon="7.12218">
        <ele>1805</ele>
        <time>2022-08-27T21:05:20Z</time>
      </trkpt>
      <trkpt lat="46.02583" lon="7.1222">
        <ele>1805</ele>
        <time>2022-08-27T21:05:25Z</time>
      </trkpt>
      <trkpt lat="46.02583" lon="7.1222">
        <ele>1805</ele>
        <time>2022-08-27T21:05:38Z</time>
      </trkpt>
      <trkpt lat="46.02581" lon="7.1222">
        <ele>1805</ele>
        <time>2022-08-27T21:05:41Z</time>
      </trkpt>
      <trkpt lat="46.02581" lon="7.1222">
        <ele>1805</ele>
        <time>2022-08-27T21:05:56Z</time>
      </trkpt>
      <trkpt lat="46.02584" lon="7.12216">
        <ele>1805</ele>
        <time>2022-08-27T21:06:14Z</time>
      </trkpt>
      <trkpt lat="46.02584" lon="7.12216">
        <ele>1805</ele>
        <time>2022-08-27T21:06:15Z</time>
      </trkpt>
      <trkpt lat="46.02584" lon="7.12216">
        <ele>1805</ele>
        <time>2022-08-27T21:06:31Z</time>
      </trkpt>
      <trkpt lat="46.02584" lon="7.12216">
        <ele>1805</ele>
        <time>2022-08-27T21:06:48Z</time>
      </trkpt>
      <trkpt lat="46.02585" lon="7.12215">
        <ele>1805</ele>
        <time>2022-08-27T21:07:05Z</time>
      </trkpt>
      <trkpt lat="46.02585" lon="7.12215">
        <ele>1805</ele>
        <time>2022-08-27T21:07:06Z</time>
      </trkpt>
      <trkpt lat="46.02588" lon="7.12211">
        <ele>1805</ele>
        <time>2022-08-27T21:07:21Z</time>
      </trkpt>
      <trkpt lat="46.02588" lon="7.12211">
        <ele>1805</ele>
        <time>2022-08-27T21:07:24Z</time>
      </trkpt>
      <trkpt lat="46.02588" lon="7.12211">
        <ele>1805</ele>
        <time>2022-08-27T21:07:41Z</time>
      </trkpt>
      <trkpt lat="46.02588" lon="7.12211">
        <ele>1805</ele>
        <time>2022-08-27T21:07:58Z</time>
      </trkpt>
      <trkpt lat="46.02588" lon="7.12211">
        <ele>1805</ele>
        <time>2022-08-27T21:08:15Z</time>
      </trkpt>
      <trkpt lat="46.02588" lon="7.12211">
        <ele>1805</ele>
        <time>2022-08-27T21:08:32Z</time>
      </trkpt>
      <trkpt lat="46.02588" lon="7.12211">
        <ele>1805</ele>
        <time>2022-08-27T21:08:49Z</time>
      </trkpt>
      <trkpt lat="46.02588" lon="7.12211">
        <ele>1805</ele>
        <time>2022-08-27T21:09:07Z</time>
      </trkpt>
      <trkpt lat="46.02588" lon="7.12211">
        <ele>1805</ele>
        <time>2022-08-27T21:09:24Z</time>
      </trkpt>
      <trkpt lat="46.0259" lon="7.12208">
        <ele>1805</ele>
        <time>2022-08-27T21:09:33Z</time>
      </trkpt>
      <trkpt lat="46.0259" lon="7.12208">
        <ele>1805</ele>
        <time>2022-08-27T21:09:41Z</time>
      </trkpt>
      <trkpt lat="46.0259" lon="7.12208">
        <ele>1805</ele>
        <time>2022-08-27T21:09:58Z</time>
      </trkpt>
      <trkpt lat="46.0259" lon="7.12208">
        <ele>1805</ele>
        <time>2022-08-27T21:10:15Z</time>
      </trkpt>
      <trkpt lat="46.0259" lon="7.12208">
        <ele>1805</ele>
        <time>2022-08-27T21:10:32Z</time>
      </trkpt>
      <trkpt lat="46.02588" lon="7.12209">
        <ele>1805</ele>
        <time>2022-08-27T21:10:38Z</time>
      </trkpt>
      <trkpt lat="46.02588" lon="7.12209">
        <ele>1805</ele>
        <time>2022-08-27T21:10:50Z</time>
      </trkpt>
      <trkpt lat="46.02588" lon="7.12212">
        <ele>1805</ele>
        <time>2022-08-27T21:11:00Z</time>
      </trkpt>
      <trkpt lat="46.02588" lon="7.12212">
        <ele>1805</ele>
        <time>2022-08-27T21:11:08Z</time>
      </trkpt>
      <trkpt lat="46.02587" lon="7.12214">
        <ele>1805</ele>
        <time>2022-08-27T21:11:17Z</time>
      </trkpt>
      <trkpt lat="46.02587" lon="7.12214">
        <ele>1805</ele>
        <time>2022-08-27T21:11:25Z</time>
      </trkpt>
      <trkpt lat="46.02587" lon="7.12214">
        <ele>1805</ele>
        <time>2022-08-27T21:11:42Z</time>
      </trkpt>
      <trkpt lat="46.02587" lon="7.12214">
        <ele>1805</ele>
        <time>2022-08-27T21:12:00Z</time>
      </trkpt>
      <trkpt lat="46.02587" lon="7.12214">
        <ele>1805</ele>
        <time>2022-08-27T21:12:17Z</time>
      </trkpt>
      <trkpt lat="46.02587" lon="7.12214">
        <ele>1805</ele>
        <time>2022-08-27T21:12:35Z</time>
      </trkpt>
      <trkpt lat="46.02587" lon="7.12214">
        <ele>1805</ele>
        <time>2022-08-27T21:12:51Z</time>
      </trkpt>
      <trkpt lat="46.02587" lon="7.12214">
        <ele>1805</ele>
        <time>2022-08-27T21:13:08Z</time>
      </trkpt>
      <trkpt lat="46.02587" lon="7.12214">
        <ele>1805</ele>
        <time>2022-08-27T21:13:26Z</time>
      </trkpt>
      <trkpt lat="46.02588" lon="7.12211">
        <ele>1805</ele>
        <time>2022-08-27T21:13:34Z</time>
      </trkpt>
      <trkpt lat="46.02588" lon="7.12211">
        <ele>1805</ele>
        <time>2022-08-27T21:13:45Z</time>
      </trkpt>
      <trkpt lat="46.02588" lon="7.12211">
        <ele>1805</ele>
        <time>2022-08-27T21:14:05Z</time>
      </trkpt>
      <trkpt lat="46.0259" lon="7.1221">
        <ele>1805</ele>
        <time>2022-08-27T21:14:09Z</time>
      </trkpt>
      <trkpt lat="46.02592" lon="7.12209">
        <ele>1805</ele>
        <time>2022-08-27T21:14:13Z</time>
      </trkpt>
      <trkpt lat="46.02593" lon="7.12208">
        <ele>1805</ele>
        <time>2022-08-27T21:14:22Z</time>
      </trkpt>
      <trkpt lat="46.02593" lon="7.12208">
        <ele>1805</ele>
        <time>2022-08-27T21:14:29Z</time>
      </trkpt>
      <trkpt lat="46.02595" lon="7.12206">
        <ele>1805</ele>
        <time>2022-08-27T21:14:37Z</time>
      </trkpt>
      <trkpt lat="46.02595" lon="7.12206">
        <ele>1805</ele>
        <time>2022-08-27T21:14:47Z</time>
      </trkpt>
      <trkpt lat="46.02595" lon="7.12206">
        <ele>1805</ele>
        <time>2022-08-27T21:15:03Z</time>
      </trkpt>
      <trkpt lat="46.02594" lon="7.12207">
        <ele>1805</ele>
        <time>2022-08-27T21:15:07Z</time>
      </trkpt>
      <trkpt lat="46.02592" lon="7.12207">
        <ele>1805</ele>
        <time>2022-08-27T21:15:16Z</time>
      </trkpt>
      <trkpt lat="46.0259" lon="7.12208">
        <ele>1805</ele>
        <time>2022-08-27T21:15:20Z</time>
      </trkpt>
      <trkpt lat="46.02589" lon="7.12211">
        <ele>1805</ele>
        <time>2022-08-27T21:15:24Z</time>
      </trkpt>
      <trkpt lat="46.02587" lon="7.12212">
        <ele>1805</ele>
        <time>2022-08-27T21:15:29Z</time>
      </trkpt>
      <trkpt lat="46.02587" lon="7.12212">
        <ele>1805</ele>
        <time>2022-08-27T21:15:40Z</time>
      </trkpt>
      <trkpt lat="46.02587" lon="7.12212">
        <ele>1805</ele>
        <time>2022-08-27T21:16:01Z</time>
      </trkpt>
      <trkpt lat="46.02587" lon="7.12212">
        <ele>1805</ele>
        <time>2022-08-27T21:16:19Z</time>
      </trkpt>
      <trkpt lat="46.02587" lon="7.12212">
        <ele>1805</ele>
        <time>2022-08-27T21:16:36Z</time>
      </trkpt>
      <trkpt lat="46.02587" lon="7.12212">
        <ele>1805</ele>
        <time>2022-08-27T21:16:53Z</time>
      </trkpt>
      <trkpt lat="46.02589" lon="7.12211">
        <ele>1805</ele>
        <time>2022-08-27T21:16:57Z</time>
      </trkpt>
      <trkpt lat="46.02589" lon="7.12211">
        <ele>1805</ele>
        <time>2022-08-27T21:17:11Z</time>
      </trkpt>
      <trkpt lat="46.02589" lon="7.12211">
        <ele>1805</ele>
        <time>2022-08-27T21:17:28Z</time>
      </trkpt>
      <trkpt lat="46.02589" lon="7.12211">
        <ele>1805</ele>
        <time>2022-08-27T21:17:45Z</time>
      </trkpt>
      <trkpt lat="46.02589" lon="7.12211">
        <ele>1805</ele>
        <time>2022-08-27T21:18:02Z</time>
      </trkpt>
      <trkpt lat="46.02589" lon="7.12211">
        <ele>1805</ele>
        <time>2022-08-27T21:18:19Z</time>
      </trkpt>
      <trkpt lat="46.02589" lon="7.12211">
        <ele>1805</ele>
        <time>2022-08-27T21:18:36Z</time>
      </trkpt>
      <trkpt lat="46.02589" lon="7.12211">
        <ele>1805</ele>
        <time>2022-08-27T21:18:52Z</time>
      </trkpt>
      <trkpt lat="46.02589" lon="7.12208">
        <ele>1805</ele>
        <time>2022-08-27T21:19:00Z</time>
      </trkpt>
      <trkpt lat="46.02589" lon="7.12208">
        <ele>1805</ele>
        <time>2022-08-27T21:19:10Z</time>
      </trkpt>
      <trkpt lat="46.02589" lon="7.12208">
        <ele>1805</ele>
        <time>2022-08-27T21:19:27Z</time>
      </trkpt>
      <trkpt lat="46.02587" lon="7.12207">
        <ele>1805</ele>
        <time>2022-08-27T21:19:40Z</time>
      </trkpt>
      <trkpt lat="46.02587" lon="7.12207">
        <ele>1805</ele>
        <time>2022-08-27T21:19:45Z</time>
      </trkpt>
      <trkpt lat="46.02587" lon="7.12207">
        <ele>1805</ele>
        <time>2022-08-27T21:20:04Z</time>
      </trkpt>
      <trkpt lat="46.02587" lon="7.12207">
        <ele>1805</ele>
        <time>2022-08-27T21:20:23Z</time>
      </trkpt>
      <trkpt lat="46.02586" lon="7.12209">
        <ele>1805</ele>
        <time>2022-08-27T21:20:27Z</time>
      </trkpt>
      <trkpt lat="46.02586" lon="7.12212">
        <ele>1805</ele>
        <time>2022-08-27T21:20:31Z</time>
      </trkpt>
      <trkpt lat="46.02586" lon="7.12212">
        <ele>1805</ele>
        <time>2022-08-27T21:20:44Z</time>
      </trkpt>
      <trkpt lat="46.02586" lon="7.12212">
        <ele>1805</ele>
        <time>2022-08-27T21:21:01Z</time>
      </trkpt>
      <trkpt lat="46.02584" lon="7.1221">
        <ele>1805</ele>
        <time>2022-08-27T21:21:17Z</time>
      </trkpt>
      <trkpt lat="46.02584" lon="7.1221">
        <ele>1805</ele>
        <time>2022-08-27T21:21:19Z</time>
      </trkpt>
      <trkpt lat="46.02584" lon="7.1221">
        <ele>1805</ele>
        <time>2022-08-27T21:21:36Z</time>
      </trkpt>
      <trkpt lat="46.02586" lon="7.12208">
        <ele>1805</ele>
        <time>2022-08-27T21:21:53Z</time>
      </trkpt>
      <trkpt lat="46.02586" lon="7.12208">
        <ele>1805</ele>
        <time>2022-08-27T21:21:54Z</time>
      </trkpt>
      <trkpt lat="46.02586" lon="7.12208">
        <ele>1805</ele>
        <time>2022-08-27T21:22:11Z</time>
      </trkpt>
      <trkpt lat="46.02586" lon="7.12208">
        <ele>1805</ele>
        <time>2022-08-27T21:22:28Z</time>
      </trkpt>
      <trkpt lat="46.02586" lon="7.12208">
        <ele>1805</ele>
        <time>2022-08-27T21:22:45Z</time>
      </trkpt>
      <trkpt lat="46.02588" lon="7.12208">
        <ele>1805</ele>
        <time>2022-08-27T21:22:50Z</time>
      </trkpt>
      <trkpt lat="46.02588" lon="7.12208">
        <ele>1805</ele>
        <time>2022-08-27T21:23:03Z</time>
      </trkpt>
      <trkpt lat="46.02587" lon="7.12211">
        <ele>1805</ele>
        <time>2022-08-27T21:23:05Z</time>
      </trkpt>
      <trkpt lat="46.02587" lon="7.12211">
        <ele>1805</ele>
        <time>2022-08-27T21:23:24Z</time>
      </trkpt>
      <trkpt lat="46.02589" lon="7.1221">
        <ele>1805</ele>
        <time>2022-08-27T21:23:30Z</time>
      </trkpt>
      <trkpt lat="46.02589" lon="7.1221">
        <ele>1805</ele>
        <time>2022-08-27T21:23:31Z</time>
      </trkpt>
      <trkpt lat="46.02589" lon="7.1221">
        <ele>1805</ele>
        <time>2022-08-27T21:23:32Z</time>
      </trkpt>
      <trkpt lat="46.02589" lon="7.1221">
        <ele>1805</ele>
        <time>2022-08-27T21:23:34Z</time>
      </trkpt>
      <trkpt lat="46.0259" lon="7.1221">
        <ele>1805</ele>
        <time>2022-08-27T21:23:35Z</time>
      </trkpt>
      <trkpt lat="46.0259" lon="7.1221">
        <ele>1805</ele>
        <time>2022-08-27T21:23:36Z</time>
      </trkpt>
      <trkpt lat="46.0259" lon="7.1221">
        <ele>1805</ele>
        <time>2022-08-27T21:23:37Z</time>
      </trkpt>
      <trkpt lat="46.0259" lon="7.1221">
        <ele>1805</ele>
        <time>2022-08-27T21:23:39Z</time>
      </trkpt>
      <trkpt lat="46.02591" lon="7.1221">
        <ele>1805</ele>
        <time>2022-08-27T21:23:40Z</time>
      </trkpt>
      <trkpt lat="46.02591" lon="7.1221">
        <ele>1805</ele>
        <time>2022-08-27T21:23:41Z</time>
      </trkpt>
      <trkpt lat="46.02591" lon="7.1221">
        <ele>1805</ele>
        <time>2022-08-27T21:23:42Z</time>
      </trkpt>
      <trkpt lat="46.02591" lon="7.1221">
        <ele>1805</ele>
        <time>2022-08-27T21:23:43Z</time>
      </trkpt>
      <trkpt lat="46.02592" lon="7.1221">
        <ele>1805</ele>
        <time>2022-08-27T21:23:45Z</time>
      </trkpt>
      <trkpt lat="46.02592" lon="7.1221">
        <ele>1805</ele>
        <time>2022-08-27T21:23:46Z</time>
      </trkpt>
      <trkpt lat="46.02592" lon="7.1221">
        <ele>1805</ele>
        <time>2022-08-27T21:23:47Z</time>
      </trkpt>
      <trkpt lat="46.02592" lon="7.1221">
        <ele>1805</ele>
        <time>2022-08-27T21:23:48Z</time>
      </trkpt>
      <trkpt lat="46.02593" lon="7.1221">
        <ele>1805</ele>
        <time>2022-08-27T21:23:49Z</time>
      </trkpt>
      <trkpt lat="46.02593" lon="7.1221">
        <ele>1805</ele>
        <time>2022-08-27T21:23:51Z</time>
      </trkpt>
      <trkpt lat="46.02593" lon="7.1221">
        <ele>1805</ele>
        <time>2022-08-27T21:23:52Z</time>
      </trkpt>
      <trkpt lat="46.02593" lon="7.1221">
        <ele>1805</ele>
        <time>2022-08-27T21:23:53Z</time>
      </trkpt>
      <trkpt lat="46.02593" lon="7.1221">
        <ele>1805</ele>
        <time>2022-08-27T21:23:54Z</time>
      </trkpt>
      <trkpt lat="46.02594" lon="7.1221">
        <ele>1805</ele>
        <time>2022-08-27T21:23:56Z</time>
      </trkpt>
      <trkpt lat="46.02594" lon="7.1221">
        <ele>1805</ele>
        <time>2022-08-27T21:23:58Z</time>
      </trkpt>
      <trkpt lat="46.02594" lon="7.1221">
        <ele>1805</ele>
        <time>2022-08-27T21:23:59Z</time>
      </trkpt>
      <trkpt lat="46.02594" lon="7.1221">
        <ele>1805</ele>
        <time>2022-08-27T21:24:00Z</time>
      </trkpt>
      <trkpt lat="46.02595" lon="7.1221">
        <ele>1805</ele>
        <time>2022-08-27T21:24:01Z</time>
      </trkpt>
      <trkpt lat="46.02595" lon="7.1221">
        <ele>1805</ele>
        <time>2022-08-27T21:24:02Z</time>
      </trkpt>
      <trkpt lat="46.02595" lon="7.1221">
        <ele>1805</ele>
        <time>2022-08-27T21:24:03Z</time>
      </trkpt>
      <trkpt lat="46.02595" lon="7.1221">
        <ele>1805</ele>
        <time>2022-08-27T21:24:05Z</time>
      </trkpt>
      <trkpt lat="46.02596" lon="7.1221">
        <ele>1805</ele>
        <time>2022-08-27T21:24:06Z</time>
      </trkpt>
      <trkpt lat="46.02596" lon="7.1221">
        <ele>1805</ele>
        <time>2022-08-27T21:24:07Z</time>
      </trkpt>
      <trkpt lat="46.02596" lon="7.1221">
        <ele>1805</ele>
        <time>2022-08-27T21:24:08Z</time>
      </trkpt>
      <trkpt lat="46.02596" lon="7.1221">
        <ele>1805</ele>
        <time>2022-08-27T21:24:10Z</time>
      </trkpt>
      <trkpt lat="46.02597" lon="7.1221">
        <ele>1805</ele>
        <time>2022-08-27T21:24:11Z</time>
      </trkpt>
      <trkpt lat="46.02597" lon="7.1221">
        <ele>1805</ele>
        <time>2022-08-27T21:24:12Z</time>
      </trkpt>
      <trkpt lat="46.02597" lon="7.1221">
        <ele>1805</ele>
        <time>2022-08-27T21:24:13Z</time>
      </trkpt>
      <trkpt lat="46.02597" lon="7.1221">
        <ele>1805</ele>
        <time>2022-08-27T21:24:15Z</time>
      </trkpt>
      <trkpt lat="46.02598" lon="7.1221">
        <ele>1805</ele>
        <time>2022-08-27T21:24:17Z</time>
      </trkpt>
      <trkpt lat="46.02598" lon="7.1221">
        <ele>1805</ele>
        <time>2022-08-27T21:24:18Z</time>
      </trkpt>
      <trkpt lat="46.02598" lon="7.1221">
        <ele>1805</ele>
        <time>2022-08-27T21:24:19Z</time>
      </trkpt>
      <trkpt lat="46.02598" lon="7.1221">
        <ele>1805</ele>
        <time>2022-08-27T21:24:20Z</time>
      </trkpt>
      <trkpt lat="46.02598" lon="7.1221">
        <ele>1805</ele>
        <time>2022-08-27T21:24:21Z</time>
      </trkpt>
      <trkpt lat="46.02599" lon="7.1221">
        <ele>1805</ele>
        <time>2022-08-27T21:24:22Z</time>
      </trkpt>
      <trkpt lat="46.02599" lon="7.1221">
        <ele>1805</ele>
        <time>2022-08-27T21:24:23Z</time>
      </trkpt>
      <trkpt lat="46.02599" lon="7.1221">
        <ele>1805</ele>
        <time>2022-08-27T21:24:24Z</time>
      </trkpt>
      <trkpt lat="46.02599" lon="7.1221">
        <ele>1805</ele>
        <time>2022-08-27T21:24:25Z</time>
      </trkpt>
      <trkpt lat="46.026" lon="7.1221">
        <ele>1805</ele>
        <time>2022-08-27T21:24:26Z</time>
      </trkpt>
      <trkpt lat="46.026" lon="7.1221">
        <ele>1805</ele>
        <time>2022-08-27T21:24:27Z</time>
      </trkpt>
      <trkpt lat="46.02599" lon="7.12211">
        <ele>1805</ele>
        <time>2022-08-27T21:24:29Z</time>
      </trkpt>
      <trkpt lat="46.02598" lon="7.12211">
        <ele>1805</ele>
        <time>2022-08-27T21:24:30Z</time>
      </trkpt>
      <trkpt lat="46.02597" lon="7.12211">
        <ele>1805</ele>
        <time>2022-08-27T21:24:31Z</time>
      </trkpt>
      <trkpt lat="46.02597" lon="7.12212">
        <ele>1805</ele>
        <time>2022-08-27T21:24:32Z</time>
      </trkpt>
      <trkpt lat="46.0259" lon="7.12214">
        <ele>1805</ele>
        <time>2022-08-27T21:24:34Z</time>
      </trkpt>
      <trkpt lat="46.02587" lon="7.12213">
        <ele>1805</ele>
        <time>2022-08-27T21:24:38Z</time>
      </trkpt>
      <trkpt lat="46.02587" lon="7.12213">
        <ele>1805</ele>
        <time>2022-08-27T21:24:55Z</time>
      </trkpt>
      <trkpt lat="46.02587" lon="7.12216">
        <ele>1805</ele>
        <time>2022-08-27T21:24:56Z</time>
      </trkpt>
      <trkpt lat="46.02587" lon="7.12216">
        <ele>1805</ele>
        <time>2022-08-27T21:25:14Z</time>
      </trkpt>
      <trkpt lat="46.02587" lon="7.12216">
        <ele>1805</ele>
        <time>2022-08-27T21:25:30Z</time>
      </trkpt>
      <trkpt lat="46.02587" lon="7.12214">
        <ele>1805</ele>
        <time>2022-08-27T21:25:33Z</time>
      </trkpt>
      <trkpt lat="46.02587" lon="7.12214">
        <ele>1805</ele>
        <time>2022-08-27T21:25:48Z</time>
      </trkpt>
      <trkpt lat="46.02587" lon="7.12214">
        <ele>1805</ele>
        <time>2022-08-27T21:26:05Z</time>
      </trkpt>
      <trkpt lat="46.02587" lon="7.12214">
        <ele>1805</ele>
        <time>2022-08-27T21:26:22Z</time>
      </trkpt>
      <trkpt lat="46.02587" lon="7.12214">
        <ele>1805</ele>
        <time>2022-08-27T21:26:39Z</time>
      </trkpt>
      <trkpt lat="46.02587" lon="7.12214">
        <ele>1805</ele>
        <time>2022-08-27T21:26:56Z</time>
      </trkpt>
      <trkpt lat="46.02587" lon="7.12214">
        <ele>1805</ele>
        <time>2022-08-27T21:27:15Z</time>
      </trkpt>
      <trkpt lat="46.02586" lon="7.12212">
        <ele>1805</ele>
        <time>2022-08-27T21:27:32Z</time>
      </trkpt>
      <trkpt lat="46.02585" lon="7.12209">
        <ele>1805</ele>
        <time>2022-08-27T21:27:34Z</time>
      </trkpt>
      <trkpt lat="46.02584" lon="7.12207">
        <ele>1805</ele>
        <time>2022-08-27T21:27:37Z</time>
      </trkpt>
      <trkpt lat="46.02583" lon="7.12208">
        <ele>1805</ele>
        <time>2022-08-27T21:27:44Z</time>
      </trkpt>
      <trkpt lat="46.02581" lon="7.1221">
        <ele>1805</ele>
        <time>2022-08-27T21:27:48Z</time>
      </trkpt>
      <trkpt lat="46.02581" lon="7.12213">
        <ele>1805</ele>
        <time>2022-08-27T21:27:51Z</time>
      </trkpt>
      <trkpt lat="46.02581" lon="7.12217">
        <ele>1805</ele>
        <time>2022-08-27T21:27:54Z</time>
      </trkpt>
      <trkpt lat="46.0258" lon="7.1222">
        <ele>1805</ele>
        <time>2022-08-27T21:27:57Z</time>
      </trkpt>
      <trkpt lat="46.02579" lon="7.12223">
        <ele>1805</ele>
        <time>2022-08-27T21:27:59Z</time>
      </trkpt>
      <trkpt lat="46.02581" lon="7.12223">
        <ele>1805</ele>
        <time>2022-08-27T21:28:05Z</time>
      </trkpt>
      <trkpt lat="46.0258" lon="7.12226">
        <ele>1805</ele>
        <time>2022-08-27T21:28:12Z</time>
      </trkpt>
      <trkpt lat="46.02582" lon="7.12226">
        <ele>1805</ele>
        <time>2022-08-27T21:28:17Z</time>
      </trkpt>
      <trkpt lat="46.02583" lon="7.12226">
        <ele>1805</ele>
        <time>2022-08-27T21:28:18Z</time>
      </trkpt>
      <trkpt lat="46.02583" lon="7.12227">
        <ele>1805</ele>
        <time>2022-08-27T21:28:19Z</time>
      </trkpt>
      <trkpt lat="46.02584" lon="7.12227">
        <ele>1805</ele>
        <time>2022-08-27T21:28:20Z</time>
      </trkpt>
      <trkpt lat="46.02585" lon="7.12228">
        <ele>1805</ele>
        <time>2022-08-27T21:28:21Z</time>
      </trkpt>
      <trkpt lat="46.02585" lon="7.12228">
        <ele>1805</ele>
        <time>2022-08-27T21:28:22Z</time>
      </trkpt>
      <trkpt lat="46.02586" lon="7.12228">
        <ele>1805</ele>
        <time>2022-08-27T21:28:23Z</time>
      </trkpt>
      <trkpt lat="46.02586" lon="7.12229">
        <ele>1805</ele>
        <time>2022-08-27T21:28:24Z</time>
      </trkpt>
      <trkpt lat="46.02584" lon="7.12228">
        <ele>1805</ele>
        <time>2022-08-27T21:28:25Z</time>
      </trkpt>
      <trkpt lat="46.02582" lon="7.12229">
        <ele>1805</ele>
        <time>2022-08-27T21:28:39Z</time>
      </trkpt>
      <trkpt lat="46.02582" lon="7.12229">
        <ele>1805</ele>
        <time>2022-08-27T21:28:44Z</time>
      </trkpt>
      <trkpt lat="46.02581" lon="7.12231">
        <ele>1805</ele>
        <time>2022-08-27T21:28:53Z</time>
      </trkpt>
      <trkpt lat="46.02581" lon="7.12231">
        <ele>1805</ele>
        <time>2022-08-27T21:29:03Z</time>
      </trkpt>
      <trkpt lat="46.02582" lon="7.12228">
        <ele>1805</ele>
        <time>2022-08-27T21:29:16Z</time>
      </trkpt>
      <trkpt lat="46.02582" lon="7.12228">
        <ele>1805</ele>
        <time>2022-08-27T21:29:22Z</time>
      </trkpt>
      <trkpt lat="46.02581" lon="7.12226">
        <ele>1805</ele>
        <time>2022-08-27T21:29:32Z</time>
      </trkpt>
      <trkpt lat="46.02582" lon="7.12224">
        <ele>1805</ele>
        <time>2022-08-27T21:29:38Z</time>
      </trkpt>
      <trkpt lat="46.02581" lon="7.12226">
        <ele>1805</ele>
        <time>2022-08-27T21:29:48Z</time>
      </trkpt>
      <trkpt lat="46.02581" lon="7.12226">
        <ele>1805</ele>
        <time>2022-08-27T21:29:52Z</time>
      </trkpt>
      <trkpt lat="46.02579" lon="7.12229">
        <ele>1805</ele>
        <time>2022-08-27T21:29:53Z</time>
      </trkpt>
      <trkpt lat="46.02578" lon="7.12231">
        <ele>1805</ele>
        <time>2022-08-27T21:29:57Z</time>
      </trkpt>
      <trkpt lat="46.02576" lon="7.12234">
        <ele>1805</ele>
        <time>2022-08-27T21:30:00Z</time>
      </trkpt>
      <trkpt lat="46.02578" lon="7.12234">
        <ele>1805</ele>
        <time>2022-08-27T21:30:06Z</time>
      </trkpt>
      <trkpt lat="46.02578" lon="7.12234">
        <ele>1805</ele>
        <time>2022-08-27T21:30:14Z</time>
      </trkpt>
      <trkpt lat="46.02578" lon="7.12234">
        <ele>1805</ele>
        <time>2022-08-27T21:30:32Z</time>
      </trkpt>
      <trkpt lat="46.02577" lon="7.12237">
        <ele>1805</ele>
        <time>2022-08-27T21:30:36Z</time>
      </trkpt>
      <trkpt lat="46.02577" lon="7.1224">
        <ele>1805</ele>
        <time>2022-08-27T21:30:40Z</time>
      </trkpt>
      <trkpt lat="46.02578" lon="7.12243">
        <ele>1805</ele>
        <time>2022-08-27T21:30:43Z</time>
      </trkpt>
      <trkpt lat="46.0258" lon="7.12245">
        <ele>1805</ele>
        <time>2022-08-27T21:30:46Z</time>
      </trkpt>
      <trkpt lat="46.02582" lon="7.12246">
        <ele>1805</ele>
        <time>2022-08-27T21:30:48Z</time>
      </trkpt>
      <trkpt lat="46.02583" lon="7.12247">
        <ele>1805</ele>
        <time>2022-08-27T21:30:50Z</time>
      </trkpt>
      <trkpt lat="46.02585" lon="7.12249">
        <ele>1805</ele>
        <time>2022-08-27T21:30:52Z</time>
      </trkpt>
      <trkpt lat="46.02588" lon="7.1225">
        <ele>1805</ele>
        <time>2022-08-27T21:30:55Z</time>
      </trkpt>
      <trkpt lat="46.0259" lon="7.12252">
        <ele>1805</ele>
        <time>2022-08-27T21:30:57Z</time>
      </trkpt>
      <trkpt lat="46.02592" lon="7.12254">
        <ele>1805</ele>
        <time>2022-08-27T21:30:59Z</time>
      </trkpt>
      <trkpt lat="46.02594" lon="7.12256">
        <ele>1805</ele>
        <time>2022-08-27T21:31:02Z</time>
      </trkpt>
      <trkpt lat="46.02596" lon="7.12255">
        <ele>1805</ele>
        <time>2022-08-27T21:31:05Z</time>
      </trkpt>
      <trkpt lat="46.02597" lon="7.12254">
        <ele>1805</ele>
        <time>2022-08-27T21:31:07Z</time>
      </trkpt>
      <trkpt lat="46.02598" lon="7.12252">
        <ele>1805</ele>
        <time>2022-08-27T21:31:08Z</time>
      </trkpt>
      <trkpt lat="46.02599" lon="7.12251">
        <ele>1805</ele>
        <time>2022-08-27T21:31:09Z</time>
      </trkpt>
      <trkpt lat="46.026" lon="7.1225">
        <ele>1805</ele>
        <time>2022-08-27T21:31:11Z</time>
      </trkpt>
      <trkpt lat="46.02601" lon="7.12248">
        <ele>1805</ele>
        <time>2022-08-27T21:31:13Z</time>
      </trkpt>
      <trkpt lat="46.02602" lon="7.12247">
        <ele>1805</ele>
        <time>2022-08-27T21:31:15Z</time>
      </trkpt>
      <trkpt lat="46.02603" lon="7.12246">
        <ele>1805</ele>
        <time>2022-08-27T21:31:16Z</time>
      </trkpt>
      <trkpt lat="46.02611" lon="7.12237">
        <ele>1805</ele>
        <time>2022-08-27T21:31:25Z</time>
      </trkpt>
      <trkpt lat="46.02619" lon="7.12229">
        <ele>1805</ele>
        <time>2022-08-27T21:31:32Z</time>
      </trkpt>
      <trkpt lat="46.0262" lon="7.12228">
        <ele>1805</ele>
        <time>2022-08-27T21:31:34Z</time>
      </trkpt>
      <trkpt lat="46.0262" lon="7.12227">
        <ele>1805</ele>
        <time>2022-08-27T21:31:35Z</time>
      </trkpt>
      <trkpt lat="46.02621" lon="7.12226">
        <ele>1805</ele>
        <time>2022-08-27T21:31:36Z</time>
      </trkpt>
      <trkpt lat="46.02622" lon="7.12225">
        <ele>1805</ele>
        <time>2022-08-27T21:31:37Z</time>
      </trkpt>
      <trkpt lat="46.02623" lon="7.12224">
        <ele>1805</ele>
        <time>2022-08-27T21:31:39Z</time>
      </trkpt>
      <trkpt lat="46.02624" lon="7.12223">
        <ele>1805</ele>
        <time>2022-08-27T21:31:40Z</time>
      </trkpt>
      <trkpt lat="46.02624" lon="7.12221">
        <ele>1805</ele>
        <time>2022-08-27T21:31:41Z</time>
      </trkpt>
      <trkpt lat="46.02625" lon="7.1222">
        <ele>1805</ele>
        <time>2022-08-27T21:31:42Z</time>
      </trkpt>
      <trkpt lat="46.02626" lon="7.12219">
        <ele>1805</ele>
        <time>2022-08-27T21:31:43Z</time>
      </trkpt>
      <trkpt lat="46.02627" lon="7.12219">
        <ele>1805</ele>
        <time>2022-08-27T21:31:44Z</time>
      </trkpt>
      <trkpt lat="46.02628" lon="7.12218">
        <ele>1805</ele>
        <time>2022-08-27T21:31:45Z</time>
      </trkpt>
      <trkpt lat="46.02629" lon="7.12218">
        <ele>1805</ele>
        <time>2022-08-27T21:31:46Z</time>
      </trkpt>
      <trkpt lat="46.0263" lon="7.12217">
        <ele>1805</ele>
        <time>2022-08-27T21:31:47Z</time>
      </trkpt>
      <trkpt lat="46.02631" lon="7.12216">
        <ele>1805</ele>
        <time>2022-08-27T21:31:48Z</time>
      </trkpt>
      <trkpt lat="46.02634" lon="7.12213">
        <ele>1805</ele>
        <time>2022-08-27T21:31:50Z</time>
      </trkpt>
      <trkpt lat="46.02636" lon="7.12211">
        <ele>1805</ele>
        <time>2022-08-27T21:31:52Z</time>
      </trkpt>
      <trkpt lat="46.02637" lon="7.12208">
        <ele>1805</ele>
        <time>2022-08-27T21:31:54Z</time>
      </trkpt>
      <trkpt lat="46.02639" lon="7.12206">
        <ele>1805</ele>
        <time>2022-08-27T21:31:56Z</time>
      </trkpt>
      <trkpt lat="46.0264" lon="7.12203">
        <ele>1805</ele>
        <time>2022-08-27T21:31:58Z</time>
      </trkpt>
      <trkpt lat="46.02642" lon="7.122">
        <ele>1805</ele>
        <time>2022-08-27T21:31:59Z</time>
      </trkpt>
      <trkpt lat="46.02643" lon="7.12198">
        <ele>1805</ele>
        <time>2022-08-27T21:32:00Z</time>
      </trkpt>
      <trkpt lat="46.02644" lon="7.12196">
        <ele>1805</ele>
        <time>2022-08-27T21:32:02Z</time>
      </trkpt>
      <trkpt lat="46.02645" lon="7.12194">
        <ele>1805</ele>
        <time>2022-08-27T21:32:03Z</time>
      </trkpt>
      <trkpt lat="46.02646" lon="7.12193">
        <ele>1805</ele>
        <time>2022-08-27T21:32:04Z</time>
      </trkpt>
      <trkpt lat="46.02647" lon="7.12191">
        <ele>1805</ele>
        <time>2022-08-27T21:32:05Z</time>
      </trkpt>
      <trkpt lat="46.02648" lon="7.12189">
        <ele>1805</ele>
        <time>2022-08-27T21:32:07Z</time>
      </trkpt>
      <trkpt lat="46.0265" lon="7.12188">
        <ele>1805</ele>
        <time>2022-08-27T21:32:08Z</time>
      </trkpt>
      <trkpt lat="46.02652" lon="7.12185">
        <ele>1805</ele>
        <time>2022-08-27T21:32:11Z</time>
      </trkpt>
      <trkpt lat="46.02653" lon="7.12182">
        <ele>1805</ele>
        <time>2022-08-27T21:32:13Z</time>
      </trkpt>
      <trkpt lat="46.02654" lon="7.1218">
        <ele>1805</ele>
        <time>2022-08-27T21:32:15Z</time>
      </trkpt>
      <trkpt lat="46.02655" lon="7.12178">
        <ele>1805</ele>
        <time>2022-08-27T21:32:16Z</time>
      </trkpt>
      <trkpt lat="46.02656" lon="7.12176">
        <ele>1805</ele>
        <time>2022-08-27T21:32:17Z</time>
      </trkpt>
      <trkpt lat="46.02657" lon="7.12173">
        <ele>1805</ele>
        <time>2022-08-27T21:32:18Z</time>
      </trkpt>
      <trkpt lat="46.02658" lon="7.12172">
        <ele>1805</ele>
        <time>2022-08-27T21:32:20Z</time>
      </trkpt>
      <trkpt lat="46.02659" lon="7.1217">
        <ele>1805</ele>
        <time>2022-08-27T21:32:22Z</time>
      </trkpt>
      <trkpt lat="46.0266" lon="7.12168">
        <ele>1805</ele>
        <time>2022-08-27T21:32:23Z</time>
      </trkpt>
      <trkpt lat="46.02662" lon="7.12166">
        <ele>1805</ele>
        <time>2022-08-27T21:32:24Z</time>
      </trkpt>
      <trkpt lat="46.02662" lon="7.12163">
        <ele>1805</ele>
        <time>2022-08-27T21:32:25Z</time>
      </trkpt>
      <trkpt lat="46.02664" lon="7.12161">
        <ele>1805</ele>
        <time>2022-08-27T21:32:27Z</time>
      </trkpt>
      <trkpt lat="46.02665" lon="7.12158">
        <ele>1805</ele>
        <time>2022-08-27T21:32:29Z</time>
      </trkpt>
      <trkpt lat="46.02666" lon="7.12156">
        <ele>1805</ele>
        <time>2022-08-27T21:32:31Z</time>
      </trkpt>
      <trkpt lat="46.02667" lon="7.12154">
        <ele>1805</ele>
        <time>2022-08-27T21:32:33Z</time>
      </trkpt>
      <trkpt lat="46.02668" lon="7.12152">
        <ele>1805</ele>
        <time>2022-08-27T21:32:35Z</time>
      </trkpt>
      <trkpt lat="46.0267" lon="7.12149">
        <ele>1805</ele>
        <time>2022-08-27T21:32:38Z</time>
      </trkpt>
      <trkpt lat="46.02671" lon="7.12147">
        <ele>1805</ele>
        <time>2022-08-27T21:32:40Z</time>
      </trkpt>
      <trkpt lat="46.02673" lon="7.12144">
        <ele>1805</ele>
        <time>2022-08-27T21:32:43Z</time>
      </trkpt>
      <trkpt lat="46.02675" lon="7.12143">
        <ele>1805</ele>
        <time>2022-08-27T21:32:45Z</time>
      </trkpt>
      <trkpt lat="46.02678" lon="7.12142">
        <ele>1805</ele>
        <time>2022-08-27T21:32:47Z</time>
      </trkpt>
      <trkpt lat="46.0268" lon="7.12141">
        <ele>1805</ele>
        <time>2022-08-27T21:32:49Z</time>
      </trkpt>
      <trkpt lat="46.02681" lon="7.12139">
        <ele>1805</ele>
        <time>2022-08-27T21:32:51Z</time>
      </trkpt>
      <trkpt lat="46.02683" lon="7.12137">
        <ele>1805</ele>
        <time>2022-08-27T21:32:53Z</time>
      </trkpt>
      <trkpt lat="46.02685" lon="7.12135">
        <ele>1805</ele>
        <time>2022-08-27T21:32:55Z</time>
      </trkpt>
      <trkpt lat="46.02686" lon="7.12132">
        <ele>1805</ele>
        <time>2022-08-27T21:32:57Z</time>
      </trkpt>
      <trkpt lat="46.02693" lon="7.1212">
        <ele>1805</ele>
        <time>2022-08-27T21:33:05Z</time>
      </trkpt>
      <trkpt lat="46.02694" lon="7.12119">
        <ele>1805</ele>
        <time>2022-08-27T21:33:06Z</time>
      </trkpt>
      <trkpt lat="46.02695" lon="7.12118">
        <ele>1805</ele>
        <time>2022-08-27T21:33:07Z</time>
      </trkpt>
      <trkpt lat="46.02696" lon="7.12117">
        <ele>1805</ele>
        <time>2022-08-27T21:33:09Z</time>
      </trkpt>
      <trkpt lat="46.02697" lon="7.12116">
        <ele>1805</ele>
        <time>2022-08-27T21:33:10Z</time>
      </trkpt>
      <trkpt lat="46.02698" lon="7.12114">
        <ele>1805</ele>
        <time>2022-08-27T21:33:11Z</time>
      </trkpt>
      <trkpt lat="46.02699" lon="7.12113">
        <ele>1805</ele>
        <time>2022-08-27T21:33:12Z</time>
      </trkpt>
      <trkpt lat="46.027" lon="7.12112">
        <ele>1805</ele>
        <time>2022-08-27T21:33:13Z</time>
      </trkpt>
      <trkpt lat="46.02701" lon="7.12109">
        <ele>1805</ele>
        <time>2022-08-27T21:33:14Z</time>
      </trkpt>
      <trkpt lat="46.02703" lon="7.12108">
        <ele>1805</ele>
        <time>2022-08-27T21:33:16Z</time>
      </trkpt>
      <trkpt lat="46.02705" lon="7.12106">
        <ele>1805</ele>
        <time>2022-08-27T21:33:18Z</time>
      </trkpt>
      <trkpt lat="46.02707" lon="7.12102">
        <ele>1805</ele>
        <time>2022-08-27T21:33:21Z</time>
      </trkpt>
      <trkpt lat="46.02708" lon="7.121">
        <ele>1805</ele>
        <time>2022-08-27T21:33:23Z</time>
      </trkpt>
      <trkpt lat="46.02709" lon="7.12097">
        <ele>1805</ele>
        <time>2022-08-27T21:33:25Z</time>
      </trkpt>
      <trkpt lat="46.02711" lon="7.12094">
        <ele>1805</ele>
        <time>2022-08-27T21:33:27Z</time>
      </trkpt>
      <trkpt lat="46.02712" lon="7.12092">
        <ele>1805</ele>
        <time>2022-08-27T21:33:29Z</time>
      </trkpt>
      <trkpt lat="46.02714" lon="7.12089">
        <ele>1805</ele>
        <time>2022-08-27T21:33:31Z</time>
      </trkpt>
      <trkpt lat="46.02715" lon="7.12086">
        <ele>1805</ele>
        <time>2022-08-27T21:33:33Z</time>
      </trkpt>
      <trkpt lat="46.02716" lon="7.12083">
        <ele>1805</ele>
        <time>2022-08-27T21:33:35Z</time>
      </trkpt>
      <trkpt lat="46.02718" lon="7.12079">
        <ele>1805</ele>
        <time>2022-08-27T21:33:37Z</time>
      </trkpt>
      <trkpt lat="46.02719" lon="7.12077">
        <ele>1805</ele>
        <time>2022-08-27T21:33:39Z</time>
      </trkpt>
      <trkpt lat="46.0272" lon="7.12074">
        <ele>1805</ele>
        <time>2022-08-27T21:33:40Z</time>
      </trkpt>
      <trkpt lat="46.02721" lon="7.12072">
        <ele>1805</ele>
        <time>2022-08-27T21:33:41Z</time>
      </trkpt>
      <trkpt lat="46.02722" lon="7.1207">
        <ele>1805</ele>
        <time>2022-08-27T21:33:43Z</time>
      </trkpt>
      <trkpt lat="46.02723" lon="7.12067">
        <ele>1805</ele>
        <time>2022-08-27T21:33:44Z</time>
      </trkpt>
      <trkpt lat="46.02723" lon="7.12066">
        <ele>1805</ele>
        <time>2022-08-27T21:33:45Z</time>
      </trkpt>
      <trkpt lat="46.02724" lon="7.12064">
        <ele>1805</ele>
        <time>2022-08-27T21:33:47Z</time>
      </trkpt>
      <trkpt lat="46.02725" lon="7.12063">
        <ele>1805</ele>
        <time>2022-08-27T21:33:48Z</time>
      </trkpt>
      <trkpt lat="46.02726" lon="7.12061">
        <ele>1805</ele>
        <time>2022-08-27T21:33:49Z</time>
      </trkpt>
      <trkpt lat="46.02726" lon="7.1206">
        <ele>1805</ele>
        <time>2022-08-27T21:33:50Z</time>
      </trkpt>
      <trkpt lat="46.02729" lon="7.12057">
        <ele>1805</ele>
        <time>2022-08-27T21:33:51Z</time>
      </trkpt>
      <trkpt lat="46.0273" lon="7.12055">
        <ele>1805</ele>
        <time>2022-08-27T21:33:53Z</time>
      </trkpt>
      <trkpt lat="46.02733" lon="7.12054">
        <ele>1805</ele>
        <time>2022-08-27T21:33:55Z</time>
      </trkpt>
      <trkpt lat="46.02737" lon="7.12049">
        <ele>1805</ele>
        <time>2022-08-27T21:34:00Z</time>
      </trkpt>
      <trkpt lat="46.02739" lon="7.12046">
        <ele>1805</ele>
        <time>2022-08-27T21:34:02Z</time>
      </trkpt>
      <trkpt lat="46.02742" lon="7.12044">
        <ele>1805</ele>
        <time>2022-08-27T21:34:04Z</time>
      </trkpt>
      <trkpt lat="46.02743" lon="7.12042">
        <ele>1805</ele>
        <time>2022-08-27T21:34:06Z</time>
      </trkpt>
      <trkpt lat="46.02744" lon="7.1204">
        <ele>1805</ele>
        <time>2022-08-27T21:34:07Z</time>
      </trkpt>
      <trkpt lat="46.02745" lon="7.12039">
        <ele>1805</ele>
        <time>2022-08-27T21:34:08Z</time>
      </trkpt>
      <trkpt lat="46.02745" lon="7.12037">
        <ele>1805</ele>
        <time>2022-08-27T21:34:09Z</time>
      </trkpt>
      <trkpt lat="46.02746" lon="7.12036">
        <ele>1805</ele>
        <time>2022-08-27T21:34:10Z</time>
      </trkpt>
      <trkpt lat="46.02747" lon="7.12034">
        <ele>1805</ele>
        <time>2022-08-27T21:34:11Z</time>
      </trkpt>
      <trkpt lat="46.02748" lon="7.12032">
        <ele>1805</ele>
        <time>2022-08-27T21:34:12Z</time>
      </trkpt>
      <trkpt lat="46.02751" lon="7.12031">
        <ele>1805</ele>
        <time>2022-08-27T21:34:14Z</time>
      </trkpt>
      <trkpt lat="46.02754" lon="7.12032">
        <ele>1805</ele>
        <time>2022-08-27T21:34:16Z</time>
      </trkpt>
      <trkpt lat="46.02757" lon="7.12032">
        <ele>1805</ele>
        <time>2022-08-27T21:34:18Z</time>
      </trkpt>
      <trkpt lat="46.02759" lon="7.12034">
        <ele>1805</ele>
        <time>2022-08-27T21:34:20Z</time>
      </trkpt>
      <trkpt lat="46.02762" lon="7.12034">
        <ele>1805</ele>
        <time>2022-08-27T21:34:22Z</time>
      </trkpt>
      <trkpt lat="46.02764" lon="7.12034">
        <ele>1805</ele>
        <time>2022-08-27T21:34:24Z</time>
      </trkpt>
      <trkpt lat="46.02766" lon="7.12034">
        <ele>1805</ele>
        <time>2022-08-27T21:34:26Z</time>
      </trkpt>
      <trkpt lat="46.02769" lon="7.12033">
        <ele>1805</ele>
        <time>2022-08-27T21:34:28Z</time>
      </trkpt>
      <trkpt lat="46.02772" lon="7.12033">
        <ele>1805</ele>
        <time>2022-08-27T21:34:30Z</time>
      </trkpt>
      <trkpt lat="46.02774" lon="7.1203">
        <ele>1805</ele>
        <time>2022-08-27T21:34:33Z</time>
      </trkpt>
      <trkpt lat="46.02777" lon="7.1203">
        <ele>1805</ele>
        <time>2022-08-27T21:34:35Z</time>
      </trkpt>
      <trkpt lat="46.0278" lon="7.12029">
        <ele>1805</ele>
        <time>2022-08-27T21:34:37Z</time>
      </trkpt>
      <trkpt lat="46.02782" lon="7.12027">
        <ele>1805</ele>
        <time>2022-08-27T21:34:39Z</time>
      </trkpt>
      <trkpt lat="46.02785" lon="7.12026">
        <ele>1805</ele>
        <time>2022-08-27T21:34:41Z</time>
      </trkpt>
      <trkpt lat="46.02787" lon="7.12024">
        <ele>1805</ele>
        <time>2022-08-27T21:34:43Z</time>
      </trkpt>
      <trkpt lat="46.02789" lon="7.12023">
        <ele>1805</ele>
        <time>2022-08-27T21:34:45Z</time>
      </trkpt>
      <trkpt lat="46.02791" lon="7.12022">
        <ele>1805</ele>
        <time>2022-08-27T21:34:46Z</time>
      </trkpt>
      <trkpt lat="46.02792" lon="7.12021">
        <ele>1805</ele>
        <time>2022-08-27T21:34:47Z</time>
      </trkpt>
      <trkpt lat="46.02794" lon="7.1202">
        <ele>1805</ele>
        <time>2022-08-27T21:34:49Z</time>
      </trkpt>
      <trkpt lat="46.02797" lon="7.12016">
        <ele>1805</ele>
        <time>2022-08-27T21:34:52Z</time>
      </trkpt>
      <trkpt lat="46.02799" lon="7.12014">
        <ele>1805</ele>
        <time>2022-08-27T21:34:54Z</time>
      </trkpt>
      <trkpt lat="46.028" lon="7.12012">
        <ele>1805</ele>
        <time>2022-08-27T21:34:56Z</time>
      </trkpt>
      <trkpt lat="46.02802" lon="7.1201">
        <ele>1805</ele>
        <time>2022-08-27T21:34:58Z</time>
      </trkpt>
      <trkpt lat="46.02803" lon="7.12007">
        <ele>1805</ele>
        <time>2022-08-27T21:35:00Z</time>
      </trkpt>
      <trkpt lat="46.02805" lon="7.12005">
        <ele>1805</ele>
        <time>2022-08-27T21:35:02Z</time>
      </trkpt>
      <trkpt lat="46.02807" lon="7.12002">
        <ele>1805</ele>
        <time>2022-08-27T21:35:04Z</time>
      </trkpt>
      <trkpt lat="46.02809" lon="7.11998">
        <ele>1805</ele>
        <time>2022-08-27T21:35:06Z</time>
      </trkpt>
      <trkpt lat="46.0281" lon="7.11994">
        <ele>1805</ele>
        <time>2022-08-27T21:35:08Z</time>
      </trkpt>
      <trkpt lat="46.0281" lon="7.11991">
        <ele>1805</ele>
        <time>2022-08-27T21:35:10Z</time>
      </trkpt>
      <trkpt lat="46.02812" lon="7.11988">
        <ele>1805</ele>
        <time>2022-08-27T21:35:12Z</time>
      </trkpt>
      <trkpt lat="46.02813" lon="7.11984">
        <ele>1805</ele>
        <time>2022-08-27T21:35:14Z</time>
      </trkpt>
      <trkpt lat="46.02814" lon="7.1198">
        <ele>1805</ele>
        <time>2022-08-27T21:35:16Z</time>
      </trkpt>
      <trkpt lat="46.02814" lon="7.11978">
        <ele>1805</ele>
        <time>2022-08-27T21:35:17Z</time>
      </trkpt>
      <trkpt lat="46.02815" lon="7.11976">
        <ele>1805</ele>
        <time>2022-08-27T21:35:18Z</time>
      </trkpt>
      <trkpt lat="46.02815" lon="7.11974">
        <ele>1805</ele>
        <time>2022-08-27T21:35:20Z</time>
      </trkpt>
      <trkpt lat="46.02816" lon="7.11972">
        <ele>1805</ele>
        <time>2022-08-27T21:35:22Z</time>
      </trkpt>
      <trkpt lat="46.02817" lon="7.1197">
        <ele>1805</ele>
        <time>2022-08-27T21:35:23Z</time>
      </trkpt>
      <trkpt lat="46.02817" lon="7.11967">
        <ele>1805</ele>
        <time>2022-08-27T21:35:25Z</time>
      </trkpt>
      <trkpt lat="46.02817" lon="7.11964">
        <ele>1805</ele>
        <time>2022-08-27T21:35:26Z</time>
      </trkpt>
      <trkpt lat="46.02818" lon="7.1196">
        <ele>1805</ele>
        <time>2022-08-27T21:35:27Z</time>
      </trkpt>
      <trkpt lat="46.02818" lon="7.11957">
        <ele>1805</ele>
        <time>2022-08-27T21:35:29Z</time>
      </trkpt>
      <trkpt lat="46.02817" lon="7.11955">
        <ele>1805</ele>
        <time>2022-08-27T21:35:31Z</time>
      </trkpt>
      <trkpt lat="46.02817" lon="7.11952">
        <ele>1805</ele>
        <time>2022-08-27T21:35:32Z</time>
      </trkpt>
      <trkpt lat="46.02817" lon="7.1195">
        <ele>1805</ele>
        <time>2022-08-27T21:35:33Z</time>
      </trkpt>
      <trkpt lat="46.02817" lon="7.11948">
        <ele>1805</ele>
        <time>2022-08-27T21:35:35Z</time>
      </trkpt>
      <trkpt lat="46.02817" lon="7.11946">
        <ele>1805</ele>
        <time>2022-08-27T21:35:36Z</time>
      </trkpt>
      <trkpt lat="46.02817" lon="7.11944">
        <ele>1805</ele>
        <time>2022-08-27T21:35:37Z</time>
      </trkpt>
      <trkpt lat="46.02817" lon="7.11942">
        <ele>1805</ele>
        <time>2022-08-27T21:35:38Z</time>
      </trkpt>
      <trkpt lat="46.02817" lon="7.1194">
        <ele>1805</ele>
        <time>2022-08-27T21:35:40Z</time>
      </trkpt>
      <trkpt lat="46.02817" lon="7.11938">
        <ele>1805</ele>
        <time>2022-08-27T21:35:41Z</time>
      </trkpt>
      <trkpt lat="46.02817" lon="7.11937">
        <ele>1805</ele>
        <time>2022-08-27T21:35:42Z</time>
      </trkpt>
      <trkpt lat="46.02817" lon="7.11935">
        <ele>1805</ele>
        <time>2022-08-27T21:35:43Z</time>
      </trkpt>
      <trkpt lat="46.02817" lon="7.11933">
        <ele>1805</ele>
        <time>2022-08-27T21:35:44Z</time>
      </trkpt>
      <trkpt lat="46.02816" lon="7.11931">
        <ele>1805</ele>
        <time>2022-08-27T21:35:45Z</time>
      </trkpt>
      <trkpt lat="46.02816" lon="7.1193">
        <ele>1805</ele>
        <time>2022-08-27T21:35:46Z</time>
      </trkpt>
      <trkpt lat="46.02817" lon="7.11927">
        <ele>1805</ele>
        <time>2022-08-27T21:35:47Z</time>
      </trkpt>
      <trkpt lat="46.02817" lon="7.11924">
        <ele>1805</ele>
        <time>2022-08-27T21:35:49Z</time>
      </trkpt>
      <trkpt lat="46.02817" lon="7.11921">
        <ele>1805</ele>
        <time>2022-08-27T21:35:50Z</time>
      </trkpt>
      <trkpt lat="46.02818" lon="7.11918">
        <ele>1805</ele>
        <time>2022-08-27T21:35:52Z</time>
      </trkpt>
      <trkpt lat="46.02818" lon="7.11916">
        <ele>1805</ele>
        <time>2022-08-27T21:35:54Z</time>
      </trkpt>
      <trkpt lat="46.02818" lon="7.11913">
        <ele>1805</ele>
        <time>2022-08-27T21:35:55Z</time>
      </trkpt>
      <trkpt lat="46.02818" lon="7.11911">
        <ele>1805</ele>
        <time>2022-08-27T21:35:56Z</time>
      </trkpt>
      <trkpt lat="46.02819" lon="7.11909">
        <ele>1805</ele>
        <time>2022-08-27T21:35:57Z</time>
      </trkpt>
      <trkpt lat="46.02819" lon="7.11907">
        <ele>1805</ele>
        <time>2022-08-27T21:35:59Z</time>
      </trkpt>
      <trkpt lat="46.02819" lon="7.11904">
        <ele>1805</ele>
        <time>2022-08-27T21:36:00Z</time>
      </trkpt>
      <trkpt lat="46.02819" lon="7.11902">
        <ele>1805</ele>
        <time>2022-08-27T21:36:01Z</time>
      </trkpt>
      <trkpt lat="46.02819" lon="7.11899">
        <ele>1805</ele>
        <time>2022-08-27T21:36:03Z</time>
      </trkpt>
      <trkpt lat="46.0282" lon="7.11896">
        <ele>1805</ele>
        <time>2022-08-27T21:36:04Z</time>
      </trkpt>
      <trkpt lat="46.0282" lon="7.11894">
        <ele>1805</ele>
        <time>2022-08-27T21:36:05Z</time>
      </trkpt>
      <trkpt lat="46.0282" lon="7.11891">
        <ele>1805</ele>
        <time>2022-08-27T21:36:06Z</time>
      </trkpt>
      <trkpt lat="46.02821" lon="7.11887">
        <ele>1805</ele>
        <time>2022-08-27T21:36:08Z</time>
      </trkpt>
      <trkpt lat="46.02822" lon="7.11885">
        <ele>1805</ele>
        <time>2022-08-27T21:36:09Z</time>
      </trkpt>
      <trkpt lat="46.02823" lon="7.11883">
        <ele>1805</ele>
        <time>2022-08-27T21:36:10Z</time>
      </trkpt>
      <trkpt lat="46.02824" lon="7.11881">
        <ele>1805</ele>
        <time>2022-08-27T21:36:11Z</time>
      </trkpt>
      <trkpt lat="46.02825" lon="7.11879">
        <ele>1805</ele>
        <time>2022-08-27T21:36:13Z</time>
      </trkpt>
      <trkpt lat="46.02825" lon="7.11877">
        <ele>1805</ele>
        <time>2022-08-27T21:36:14Z</time>
      </trkpt>
      <trkpt lat="46.02826" lon="7.11875">
        <ele>1805</ele>
        <time>2022-08-27T21:36:15Z</time>
      </trkpt>
      <trkpt lat="46.02827" lon="7.11873">
        <ele>1805</ele>
        <time>2022-08-27T21:36:16Z</time>
      </trkpt>
      <trkpt lat="46.02827" lon="7.11871">
        <ele>1805</ele>
        <time>2022-08-27T21:36:18Z</time>
      </trkpt>
      <trkpt lat="46.02828" lon="7.1187">
        <ele>1805</ele>
        <time>2022-08-27T21:36:19Z</time>
      </trkpt>
      <trkpt lat="46.02828" lon="7.11868">
        <ele>1805</ele>
        <time>2022-08-27T21:36:20Z</time>
      </trkpt>
      <trkpt lat="46.02829" lon="7.11867">
        <ele>1805</ele>
        <time>2022-08-27T21:36:21Z</time>
      </trkpt>
      <trkpt lat="46.0283" lon="7.11865">
        <ele>1805</ele>
        <time>2022-08-27T21:36:22Z</time>
      </trkpt>
      <trkpt lat="46.0283" lon="7.11863">
        <ele>1805</ele>
        <time>2022-08-27T21:36:24Z</time>
      </trkpt>
      <trkpt lat="46.02831" lon="7.11862">
        <ele>1805</ele>
        <time>2022-08-27T21:36:25Z</time>
      </trkpt>
      <trkpt lat="46.02831" lon="7.11859">
        <ele>1805</ele>
        <time>2022-08-27T21:36:26Z</time>
      </trkpt>
      <trkpt lat="46.02831" lon="7.11857">
        <ele>1805</ele>
        <time>2022-08-27T21:36:27Z</time>
      </trkpt>
      <trkpt lat="46.02832" lon="7.11855">
        <ele>1805</ele>
        <time>2022-08-27T21:36:28Z</time>
      </trkpt>
      <trkpt lat="46.02832" lon="7.11853">
        <ele>1805</ele>
        <time>2022-08-27T21:36:30Z</time>
      </trkpt>
      <trkpt lat="46.02833" lon="7.1185">
        <ele>1805</ele>
        <time>2022-08-27T21:36:31Z</time>
      </trkpt>
      <trkpt lat="46.02833" lon="7.11848">
        <ele>1805</ele>
        <time>2022-08-27T21:36:32Z</time>
      </trkpt>
      <trkpt lat="46.02833" lon="7.11847">
        <ele>1805</ele>
        <time>2022-08-27T21:36:33Z</time>
      </trkpt>
      <trkpt lat="46.02834" lon="7.11845">
        <ele>1805</ele>
        <time>2022-08-27T21:36:35Z</time>
      </trkpt>
      <trkpt lat="46.02834" lon="7.11844">
        <ele>1805</ele>
        <time>2022-08-27T21:36:37Z</time>
      </trkpt>
      <trkpt lat="46.02834" lon="7.11842">
        <ele>1805</ele>
        <time>2022-08-27T21:36:38Z</time>
      </trkpt>
      <trkpt lat="46.02835" lon="7.11841">
        <ele>1805</ele>
        <time>2022-08-27T21:36:39Z</time>
      </trkpt>
      <trkpt lat="46.02838" lon="7.11832">
        <ele>1805</ele>
        <time>2022-08-27T21:36:40Z</time>
      </trkpt>
      <trkpt lat="46.02839" lon="7.11831">
        <ele>1805</ele>
        <time>2022-08-27T21:36:41Z</time>
      </trkpt>
      <trkpt lat="46.0284" lon="7.11829">
        <ele>1805</ele>
        <time>2022-08-27T21:36:43Z</time>
      </trkpt>
      <trkpt lat="46.02841" lon="7.11827">
        <ele>1805</ele>
        <time>2022-08-27T21:36:44Z</time>
      </trkpt>
      <trkpt lat="46.02842" lon="7.11826">
        <ele>1805</ele>
        <time>2022-08-27T21:36:45Z</time>
      </trkpt>
      <trkpt lat="46.02844" lon="7.11823">
        <ele>1805</ele>
        <time>2022-08-27T21:36:47Z</time>
      </trkpt>
      <trkpt lat="46.02848" lon="7.11819">
        <ele>1805</ele>
        <time>2022-08-27T21:36:50Z</time>
      </trkpt>
      <trkpt lat="46.02849" lon="7.11817">
        <ele>1805</ele>
        <time>2022-08-27T21:36:52Z</time>
      </trkpt>
      <trkpt lat="46.02851" lon="7.11815">
        <ele>1805</ele>
        <time>2022-08-27T21:36:54Z</time>
      </trkpt>
      <trkpt lat="46.02853" lon="7.11812">
        <ele>1805</ele>
        <time>2022-08-27T21:36:56Z</time>
      </trkpt>
      <trkpt lat="46.02855" lon="7.11811">
        <ele>1805</ele>
        <time>2022-08-27T21:36:58Z</time>
      </trkpt>
      <trkpt lat="46.02857" lon="7.1181">
        <ele>1805</ele>
        <time>2022-08-27T21:37:00Z</time>
      </trkpt>
      <trkpt lat="46.02859" lon="7.11809">
        <ele>1805</ele>
        <time>2022-08-27T21:37:02Z</time>
      </trkpt>
      <trkpt lat="46.02861" lon="7.11807">
        <ele>1805</ele>
        <time>2022-08-27T21:37:04Z</time>
      </trkpt>
      <trkpt lat="46.02864" lon="7.11805">
        <ele>1805</ele>
        <time>2022-08-27T21:37:06Z</time>
      </trkpt>
      <trkpt lat="46.02866" lon="7.11803">
        <ele>1805</ele>
        <time>2022-08-27T21:37:08Z</time>
      </trkpt>
      <trkpt lat="46.02868" lon="7.11801">
        <ele>1805</ele>
        <time>2022-08-27T21:37:10Z</time>
      </trkpt>
      <trkpt lat="46.0287" lon="7.11799">
        <ele>1805</ele>
        <time>2022-08-27T21:37:12Z</time>
      </trkpt>
      <trkpt lat="46.02872" lon="7.11797">
        <ele>1805</ele>
        <time>2022-08-27T21:37:14Z</time>
      </trkpt>
      <trkpt lat="46.02874" lon="7.11796">
        <ele>1805</ele>
        <time>2022-08-27T21:37:16Z</time>
      </trkpt>
      <trkpt lat="46.02876" lon="7.11794">
        <ele>1805</ele>
        <time>2022-08-27T21:37:18Z</time>
      </trkpt>
      <trkpt lat="46.02878" lon="7.11792">
        <ele>1805</ele>
        <time>2022-08-27T21:37:20Z</time>
      </trkpt>
      <trkpt lat="46.0288" lon="7.11789">
        <ele>1805</ele>
        <time>2022-08-27T21:37:22Z</time>
      </trkpt>
      <trkpt lat="46.02882" lon="7.11787">
        <ele>1805</ele>
        <time>2022-08-27T21:37:25Z</time>
      </trkpt>
      <trkpt lat="46.02884" lon="7.11785">
        <ele>1805</ele>
        <time>2022-08-27T21:37:27Z</time>
      </trkpt>
      <trkpt lat="46.02886" lon="7.11783">
        <ele>1805</ele>
        <time>2022-08-27T21:37:29Z</time>
      </trkpt>
      <trkpt lat="46.02888" lon="7.11781">
        <ele>1805</ele>
        <time>2022-08-27T21:37:31Z</time>
      </trkpt>
      <trkpt lat="46.0289" lon="7.11778">
        <ele>1805</ele>
        <time>2022-08-27T21:37:33Z</time>
      </trkpt>
      <trkpt lat="46.02893" lon="7.11775">
        <ele>1805</ele>
        <time>2022-08-27T21:37:35Z</time>
      </trkpt>
      <trkpt lat="46.02894" lon="7.11774">
        <ele>1805</ele>
        <time>2022-08-27T21:37:36Z</time>
      </trkpt>
      <trkpt lat="46.02895" lon="7.11772">
        <ele>1805</ele>
        <time>2022-08-27T21:37:37Z</time>
      </trkpt>
      <trkpt lat="46.02896" lon="7.11771">
        <ele>1805</ele>
        <time>2022-08-27T21:37:38Z</time>
      </trkpt>
      <trkpt lat="46.02897" lon="7.1177">
        <ele>1805</ele>
        <time>2022-08-27T21:37:40Z</time>
      </trkpt>
      <trkpt lat="46.02898" lon="7.11769">
        <ele>1805</ele>
        <time>2022-08-27T21:37:41Z</time>
      </trkpt>
      <trkpt lat="46.02899" lon="7.11768">
        <ele>1805</ele>
        <time>2022-08-27T21:37:43Z</time>
      </trkpt>
      <trkpt lat="46.029" lon="7.11766">
        <ele>1805</ele>
        <time>2022-08-27T21:37:44Z</time>
      </trkpt>
      <trkpt lat="46.02902" lon="7.11764">
        <ele>1805</ele>
        <time>2022-08-27T21:37:45Z</time>
      </trkpt>
      <trkpt lat="46.02906" lon="7.11759">
        <ele>1805</ele>
        <time>2022-08-27T21:37:49Z</time>
      </trkpt>
      <trkpt lat="46.02909" lon="7.11757">
        <ele>1805</ele>
        <time>2022-08-27T21:37:51Z</time>
      </trkpt>
      <trkpt lat="46.02911" lon="7.11754">
        <ele>1805</ele>
        <time>2022-08-27T21:37:53Z</time>
      </trkpt>
      <trkpt lat="46.02913" lon="7.11751">
        <ele>1805</ele>
        <time>2022-08-27T21:37:55Z</time>
      </trkpt>
      <trkpt lat="46.02915" lon="7.11748">
        <ele>1805</ele>
        <time>2022-08-27T21:37:57Z</time>
      </trkpt>
      <trkpt lat="46.02917" lon="7.11745">
        <ele>1805</ele>
        <time>2022-08-27T21:37:59Z</time>
      </trkpt>
      <trkpt lat="46.02919" lon="7.11743">
        <ele>1805</ele>
        <time>2022-08-27T21:38:01Z</time>
      </trkpt>
      <trkpt lat="46.02922" lon="7.11738">
        <ele>1805</ele>
        <time>2022-08-27T21:38:03Z</time>
      </trkpt>
      <trkpt lat="46.02923" lon="7.11737">
        <ele>1805</ele>
        <time>2022-08-27T21:38:05Z</time>
      </trkpt>
      <trkpt lat="46.02924" lon="7.11735">
        <ele>1805</ele>
        <time>2022-08-27T21:38:06Z</time>
      </trkpt>
      <trkpt lat="46.02925" lon="7.11734">
        <ele>1805</ele>
        <time>2022-08-27T21:38:07Z</time>
      </trkpt>
      <trkpt lat="46.02927" lon="7.11732">
        <ele>1805</ele>
        <time>2022-08-27T21:38:09Z</time>
      </trkpt>
      <trkpt lat="46.02928" lon="7.11729">
        <ele>1805</ele>
        <time>2022-08-27T21:38:11Z</time>
      </trkpt>
      <trkpt lat="46.0293" lon="7.11727">
        <ele>1805</ele>
        <time>2022-08-27T21:38:13Z</time>
      </trkpt>
      <trkpt lat="46.02931" lon="7.11726">
        <ele>1805</ele>
        <time>2022-08-27T21:38:14Z</time>
      </trkpt>
      <trkpt lat="46.02932" lon="7.11724">
        <ele>1805</ele>
        <time>2022-08-27T21:38:15Z</time>
      </trkpt>
      <trkpt lat="46.02933" lon="7.11722">
        <ele>1805</ele>
        <time>2022-08-27T21:38:17Z</time>
      </trkpt>
      <trkpt lat="46.02935" lon="7.1172">
        <ele>1805</ele>
        <time>2022-08-27T21:38:19Z</time>
      </trkpt>
      <trkpt lat="46.02938" lon="7.11719">
        <ele>1805</ele>
        <time>2022-08-27T21:38:21Z</time>
      </trkpt>
      <trkpt lat="46.02943" lon="7.11716">
        <ele>1805</ele>
        <time>2022-08-27T21:38:25Z</time>
      </trkpt>
      <trkpt lat="46.02945" lon="7.11715">
        <ele>1805</ele>
        <time>2022-08-27T21:38:27Z</time>
      </trkpt>
      <trkpt lat="46.02948" lon="7.11714">
        <ele>1805</ele>
        <time>2022-08-27T21:38:29Z</time>
      </trkpt>
      <trkpt lat="46.02949" lon="7.11713">
        <ele>1805</ele>
        <time>2022-08-27T21:38:32Z</time>
      </trkpt>
      <trkpt lat="46.0295" lon="7.11712">
        <ele>1805</ele>
        <time>2022-08-27T21:38:33Z</time>
      </trkpt>
      <trkpt lat="46.02952" lon="7.11712">
        <ele>1805</ele>
        <time>2022-08-27T21:38:35Z</time>
      </trkpt>
      <trkpt lat="46.02953" lon="7.11711">
        <ele>1805</ele>
        <time>2022-08-27T21:38:36Z</time>
      </trkpt>
      <trkpt lat="46.02959" lon="7.11708">
        <ele>1805</ele>
        <time>2022-08-27T21:38:37Z</time>
      </trkpt>
      <trkpt lat="46.02959" lon="7.11708">
        <ele>1805</ele>
        <time>2022-08-27T21:38:38Z</time>
      </trkpt>
      <trkpt lat="46.0296" lon="7.11707">
        <ele>1805</ele>
        <time>2022-08-27T21:38:40Z</time>
      </trkpt>
      <trkpt lat="46.02961" lon="7.11707">
        <ele>1805</ele>
        <time>2022-08-27T21:38:41Z</time>
      </trkpt>
      <trkpt lat="46.02961" lon="7.11707">
        <ele>1805</ele>
        <time>2022-08-27T21:38:42Z</time>
      </trkpt>
      <trkpt lat="46.02962" lon="7.11707">
        <ele>1805</ele>
        <time>2022-08-27T21:38:43Z</time>
      </trkpt>
      <trkpt lat="46.02971" lon="7.11702">
        <ele>1805</ele>
        <time>2022-08-27T21:38:45Z</time>
      </trkpt>
      <trkpt lat="46.02972" lon="7.11702">
        <ele>1805</ele>
        <time>2022-08-27T21:38:46Z</time>
      </trkpt>
      <trkpt lat="46.02973" lon="7.11701">
        <ele>1805</ele>
        <time>2022-08-27T21:38:47Z</time>
      </trkpt>
      <trkpt lat="46.02975" lon="7.117">
        <ele>1805</ele>
        <time>2022-08-27T21:38:48Z</time>
      </trkpt>
      <trkpt lat="46.02976" lon="7.11699">
        <ele>1805</ele>
        <time>2022-08-27T21:38:50Z</time>
      </trkpt>
      <trkpt lat="46.02977" lon="7.11698">
        <ele>1805</ele>
        <time>2022-08-27T21:38:51Z</time>
      </trkpt>
      <trkpt lat="46.02978" lon="7.11697">
        <ele>1805</ele>
        <time>2022-08-27T21:38:52Z</time>
      </trkpt>
      <trkpt lat="46.0298" lon="7.11696">
        <ele>1805</ele>
        <time>2022-08-27T21:38:54Z</time>
      </trkpt>
      <trkpt lat="46.02983" lon="7.11694">
        <ele>1805</ele>
        <time>2022-08-27T21:38:56Z</time>
      </trkpt>
      <trkpt lat="46.02985" lon="7.11692">
        <ele>1805</ele>
        <time>2022-08-27T21:38:58Z</time>
      </trkpt>
      <trkpt lat="46.02987" lon="7.1169">
        <ele>1805</ele>
        <time>2022-08-27T21:39:00Z</time>
      </trkpt>
      <trkpt lat="46.02989" lon="7.11688">
        <ele>1805</ele>
        <time>2022-08-27T21:39:02Z</time>
      </trkpt>
      <trkpt lat="46.02991" lon="7.11686">
        <ele>1805</ele>
        <time>2022-08-27T21:39:04Z</time>
      </trkpt>
      <trkpt lat="46.02993" lon="7.11684">
        <ele>1805</ele>
        <time>2022-08-27T21:39:06Z</time>
      </trkpt>
      <trkpt lat="46.02995" lon="7.11681">
        <ele>1805</ele>
        <time>2022-08-27T21:39:08Z</time>
      </trkpt>
      <trkpt lat="46.02996" lon="7.11679">
        <ele>1805</ele>
        <time>2022-08-27T21:39:10Z</time>
      </trkpt>
      <trkpt lat="46.02997" lon="7.11677">
        <ele>1805</ele>
        <time>2022-08-27T21:39:11Z</time>
      </trkpt>
      <trkpt lat="46.02998" lon="7.11675">
        <ele>1805</ele>
        <time>2022-08-27T21:39:12Z</time>
      </trkpt>
      <trkpt lat="46.02999" lon="7.11673">
        <ele>1805</ele>
        <time>2022-08-27T21:39:13Z</time>
      </trkpt>
      <trkpt lat="46.03" lon="7.11672">
        <ele>1805</ele>
        <time>2022-08-27T21:39:15Z</time>
      </trkpt>
      <trkpt lat="46.03001" lon="7.1167">
        <ele>1805</ele>
        <time>2022-08-27T21:39:16Z</time>
      </trkpt>
      <trkpt lat="46.03003" lon="7.11667">
        <ele>1805</ele>
        <time>2022-08-27T21:39:18Z</time>
      </trkpt>
      <trkpt lat="46.03004" lon="7.11665">
        <ele>1805</ele>
        <time>2022-08-27T21:39:20Z</time>
      </trkpt>
      <trkpt lat="46.03014" lon="7.11658">
        <ele>1805</ele>
        <time>2022-08-27T21:39:27Z</time>
      </trkpt>
      <trkpt lat="46.03015" lon="7.11656">
        <ele>1805</ele>
        <time>2022-08-27T21:39:29Z</time>
      </trkpt>
      <trkpt lat="46.03015" lon="7.11653">
        <ele>1805</ele>
        <time>2022-08-27T21:39:30Z</time>
      </trkpt>
      <trkpt lat="46.03016" lon="7.11651">
        <ele>1805</ele>
        <time>2022-08-27T21:39:31Z</time>
      </trkpt>
      <trkpt lat="46.03016" lon="7.11648">
        <ele>1805</ele>
        <time>2022-08-27T21:39:32Z</time>
      </trkpt>
      <trkpt lat="46.03017" lon="7.11646">
        <ele>1805</ele>
        <time>2022-08-27T21:39:33Z</time>
      </trkpt>
      <trkpt lat="46.03021" lon="7.11633">
        <ele>1805</ele>
        <time>2022-08-27T21:39:43Z</time>
      </trkpt>
      <trkpt lat="46.03022" lon="7.11633">
        <ele>1805</ele>
        <time>2022-08-27T21:39:44Z</time>
      </trkpt>
      <trkpt lat="46.03023" lon="7.11633">
        <ele>1805</ele>
        <time>2022-08-27T21:39:45Z</time>
      </trkpt>
      <trkpt lat="46.03024" lon="7.11633">
        <ele>1805</ele>
        <time>2022-08-27T21:39:46Z</time>
      </trkpt>
      <trkpt lat="46.03025" lon="7.11633">
        <ele>1805</ele>
        <time>2022-08-27T21:39:48Z</time>
      </trkpt>
      <trkpt lat="46.03026" lon="7.11632">
        <ele>1805</ele>
        <time>2022-08-27T21:39:49Z</time>
      </trkpt>
      <trkpt lat="46.03034" lon="7.11631">
        <ele>1805</ele>
        <time>2022-08-27T21:39:50Z</time>
      </trkpt>
      <trkpt lat="46.03036" lon="7.1163">
        <ele>1805</ele>
        <time>2022-08-27T21:39:51Z</time>
      </trkpt>
      <trkpt lat="46.03038" lon="7.1163">
        <ele>1805</ele>
        <time>2022-08-27T21:39:53Z</time>
      </trkpt>
      <trkpt lat="46.03041" lon="7.11629">
        <ele>1805</ele>
        <time>2022-08-27T21:39:54Z</time>
      </trkpt>
      <trkpt lat="46.03043" lon="7.11627">
        <ele>1805</ele>
        <time>2022-08-27T21:39:55Z</time>
      </trkpt>
      <trkpt lat="46.03045" lon="7.11626">
        <ele>1805</ele>
        <time>2022-08-27T21:39:56Z</time>
      </trkpt>
      <trkpt lat="46.03047" lon="7.11625">
        <ele>1805</ele>
        <time>2022-08-27T21:39:58Z</time>
      </trkpt>
      <trkpt lat="46.03049" lon="7.11623">
        <ele>1805</ele>
        <time>2022-08-27T21:39:59Z</time>
      </trkpt>
      <trkpt lat="46.0305" lon="7.11621">
        <ele>1805</ele>
        <time>2022-08-27T21:40:00Z</time>
      </trkpt>
      <trkpt lat="46.03052" lon="7.11619">
        <ele>1805</ele>
        <time>2022-08-27T21:40:01Z</time>
      </trkpt>
      <trkpt lat="46.03053" lon="7.11617">
        <ele>1805</ele>
        <time>2022-08-27T21:40:03Z</time>
      </trkpt>
      <trkpt lat="46.03054" lon="7.11614">
        <ele>1805</ele>
        <time>2022-08-27T21:40:04Z</time>
      </trkpt>
      <trkpt lat="46.03055" lon="7.11612">
        <ele>1805</ele>
        <time>2022-08-27T21:40:05Z</time>
      </trkpt>
      <trkpt lat="46.03054" lon="7.11598">
        <ele>1805</ele>
        <time>2022-08-27T21:40:12Z</time>
      </trkpt>
      <trkpt lat="46.03053" lon="7.11597">
        <ele>1805</ele>
        <time>2022-08-27T21:40:13Z</time>
      </trkpt>
      <trkpt lat="46.03051" lon="7.11595">
        <ele>1805</ele>
        <time>2022-08-27T21:40:14Z</time>
      </trkpt>
      <trkpt lat="46.0305" lon="7.11594">
        <ele>1805</ele>
        <time>2022-08-27T21:40:15Z</time>
      </trkpt>
      <trkpt lat="46.03048" lon="7.11592">
        <ele>1805</ele>
        <time>2022-08-27T21:40:16Z</time>
      </trkpt>
      <trkpt lat="46.03046" lon="7.11591">
        <ele>1805</ele>
        <time>2022-08-27T21:40:17Z</time>
      </trkpt>
      <trkpt lat="46.03048" lon="7.1159">
        <ele>1805</ele>
        <time>2022-08-27T21:40:19Z</time>
      </trkpt>
      <trkpt lat="46.0305" lon="7.11589">
        <ele>1805</ele>
        <time>2022-08-27T21:40:20Z</time>
      </trkpt>
      <trkpt lat="46.03051" lon="7.11589">
        <ele>1805</ele>
        <time>2022-08-27T21:40:21Z</time>
      </trkpt>
      <trkpt lat="46.03053" lon="7.11588">
        <ele>1805</ele>
        <time>2022-08-27T21:40:22Z</time>
      </trkpt>
      <trkpt lat="46.03055" lon="7.11587">
        <ele>1805</ele>
        <time>2022-08-27T21:40:24Z</time>
      </trkpt>
      <trkpt lat="46.03056" lon="7.11587">
        <ele>1805</ele>
        <time>2022-08-27T21:40:25Z</time>
      </trkpt>
      <trkpt lat="46.03058" lon="7.11586">
        <ele>1805</ele>
        <time>2022-08-27T21:40:26Z</time>
      </trkpt>
      <trkpt lat="46.03059" lon="7.11585">
        <ele>1805</ele>
        <time>2022-08-27T21:40:27Z</time>
      </trkpt>
      <trkpt lat="46.0306" lon="7.11584">
        <ele>1805</ele>
        <time>2022-08-27T21:40:28Z</time>
      </trkpt>
      <trkpt lat="46.03061" lon="7.11583">
        <ele>1805</ele>
        <time>2022-08-27T21:40:29Z</time>
      </trkpt>
      <trkpt lat="46.03069" lon="7.11576">
        <ele>1805</ele>
        <time>2022-08-27T21:40:31Z</time>
      </trkpt>
      <trkpt lat="46.03071" lon="7.11574">
        <ele>1805</ele>
        <time>2022-08-27T21:40:32Z</time>
      </trkpt>
      <trkpt lat="46.03073" lon="7.11571">
        <ele>1805</ele>
        <time>2022-08-27T21:40:33Z</time>
      </trkpt>
      <trkpt lat="46.03075" lon="7.11569">
        <ele>1805</ele>
        <time>2022-08-27T21:40:34Z</time>
      </trkpt>
      <trkpt lat="46.03081" lon="7.11558">
        <ele>1805</ele>
        <time>2022-08-27T21:40:39Z</time>
      </trkpt>
      <trkpt lat="46.03081" lon="7.11555">
        <ele>1805</ele>
        <time>2022-08-27T21:40:40Z</time>
      </trkpt>
      <trkpt lat="46.03082" lon="7.11553">
        <ele>1805</ele>
        <time>2022-08-27T21:40:41Z</time>
      </trkpt>
      <trkpt lat="46.03082" lon="7.1155">
        <ele>1805</ele>
        <time>2022-08-27T21:40:42Z</time>
      </trkpt>
      <trkpt lat="46.03082" lon="7.11547">
        <ele>1805</ele>
        <time>2022-08-27T21:40:43Z</time>
      </trkpt>
      <trkpt lat="46.03082" lon="7.11545">
        <ele>1805</ele>
        <time>2022-08-27T21:40:44Z</time>
      </trkpt>
      <trkpt lat="46.03081" lon="7.1154">
        <ele>1805</ele>
        <time>2022-08-27T21:40:45Z</time>
      </trkpt>
      <trkpt lat="46.0308" lon="7.11535">
        <ele>1805</ele>
        <time>2022-08-27T21:40:46Z</time>
      </trkpt>
      <trkpt lat="46.03079" lon="7.1153">
        <ele>1805</ele>
        <time>2022-08-27T21:40:47Z</time>
      </trkpt>
      <trkpt lat="46.03077" lon="7.1153">
        <ele>1805</ele>
        <time>2022-08-27T21:40:48Z</time>
      </trkpt>
      <trkpt lat="46.03074" lon="7.11529">
        <ele>1805</ele>
        <time>2022-08-27T21:40:50Z</time>
      </trkpt>
      <trkpt lat="46.03072" lon="7.11528">
        <ele>1805</ele>
        <time>2022-08-27T21:40:51Z</time>
      </trkpt>
      <trkpt lat="46.0307" lon="7.11527">
        <ele>1805</ele>
        <time>2022-08-27T21:40:52Z</time>
      </trkpt>
      <trkpt lat="46.03069" lon="7.11524">
        <ele>1805</ele>
        <time>2022-08-27T21:40:53Z</time>
      </trkpt>
      <trkpt lat="46.03068" lon="7.11521">
        <ele>1805</ele>
        <time>2022-08-27T21:40:54Z</time>
      </trkpt>
      <trkpt lat="46.03067" lon="7.11519">
        <ele>1805</ele>
        <time>2022-08-27T21:40:55Z</time>
      </trkpt>
      <trkpt lat="46.03066" lon="7.11516">
        <ele>1805</ele>
        <time>2022-08-27T21:40:57Z</time>
      </trkpt>
      <trkpt lat="46.03064" lon="7.11513">
        <ele>1805</ele>
        <time>2022-08-27T21:40:58Z</time>
      </trkpt>
      <trkpt lat="46.03064" lon="7.11511">
        <ele>1805</ele>
        <time>2022-08-27T21:40:59Z</time>
      </trkpt>
      <trkpt lat="46.03064" lon="7.11508">
        <ele>1805</ele>
        <time>2022-08-27T21:41:00Z</time>
      </trkpt>
      <trkpt lat="46.03064" lon="7.11505">
        <ele>1805</ele>
        <time>2022-08-27T21:41:01Z</time>
      </trkpt>
      <trkpt lat="46.03064" lon="7.11502">
        <ele>1805</ele>
        <time>2022-08-27T21:41:03Z</time>
      </trkpt>
      <trkpt lat="46.03064" lon="7.115">
        <ele>1805</ele>
        <time>2022-08-27T21:41:04Z</time>
      </trkpt>
      <trkpt lat="46.03064" lon="7.11496">
        <ele>1805</ele>
        <time>2022-08-27T21:41:06Z</time>
      </trkpt>
      <trkpt lat="46.03064" lon="7.11492">
        <ele>1805</ele>
        <time>2022-08-27T21:41:09Z</time>
      </trkpt>
      <trkpt lat="46.03065" lon="7.11488">
        <ele>1805</ele>
        <time>2022-08-27T21:41:11Z</time>
      </trkpt>
      <trkpt lat="46.03065" lon="7.11487">
        <ele>1805</ele>
        <time>2022-08-27T21:41:12Z</time>
      </trkpt>
      <trkpt lat="46.03065" lon="7.11485">
        <ele>1805</ele>
        <time>2022-08-27T21:41:14Z</time>
      </trkpt>
      <trkpt lat="46.03066" lon="7.11483">
        <ele>1805</ele>
        <time>2022-08-27T21:41:15Z</time>
      </trkpt>
      <trkpt lat="46.03066" lon="7.11481">
        <ele>1805</ele>
        <time>2022-08-27T21:41:16Z</time>
      </trkpt>
      <trkpt lat="46.03066" lon="7.1148">
        <ele>1805</ele>
        <time>2022-08-27T21:41:17Z</time>
      </trkpt>
      <trkpt lat="46.03066" lon="7.11478">
        <ele>1805</ele>
        <time>2022-08-27T21:41:18Z</time>
      </trkpt>
      <trkpt lat="46.03067" lon="7.11476">
        <ele>1805</ele>
        <time>2022-08-27T21:41:19Z</time>
      </trkpt>
      <trkpt lat="46.03067" lon="7.11473">
        <ele>1805</ele>
        <time>2022-08-27T21:41:20Z</time>
      </trkpt>
      <trkpt lat="46.03068" lon="7.11469">
        <ele>1805</ele>
        <time>2022-08-27T21:41:22Z</time>
      </trkpt>
      <trkpt lat="46.03069" lon="7.11465">
        <ele>1805</ele>
        <time>2022-08-27T21:41:24Z</time>
      </trkpt>
      <trkpt lat="46.03069" lon="7.11461">
        <ele>1805</ele>
        <time>2022-08-27T21:41:26Z</time>
      </trkpt>
      <trkpt lat="46.0307" lon="7.11458">
        <ele>1805</ele>
        <time>2022-08-27T21:41:28Z</time>
      </trkpt>
      <trkpt lat="46.03071" lon="7.11455">
        <ele>1805</ele>
        <time>2022-08-27T21:41:30Z</time>
      </trkpt>
      <trkpt lat="46.03072" lon="7.11452">
        <ele>1805</ele>
        <time>2022-08-27T21:41:32Z</time>
      </trkpt>
      <trkpt lat="46.03073" lon="7.11449">
        <ele>1805</ele>
        <time>2022-08-27T21:41:34Z</time>
      </trkpt>
      <trkpt lat="46.03073" lon="7.11445">
        <ele>1805</ele>
        <time>2022-08-27T21:41:36Z</time>
      </trkpt>
      <trkpt lat="46.03074" lon="7.11442">
        <ele>1805</ele>
        <time>2022-08-27T21:41:38Z</time>
      </trkpt>
      <trkpt lat="46.03074" lon="7.11438">
        <ele>1805</ele>
        <time>2022-08-27T21:41:40Z</time>
      </trkpt>
      <trkpt lat="46.03075" lon="7.11434">
        <ele>1805</ele>
        <time>2022-08-27T21:41:42Z</time>
      </trkpt>
      <trkpt lat="46.03076" lon="7.1143">
        <ele>1805</ele>
        <time>2022-08-27T21:41:44Z</time>
      </trkpt>
      <trkpt lat="46.03077" lon="7.11426">
        <ele>1805</ele>
        <time>2022-08-27T21:41:46Z</time>
      </trkpt>
      <trkpt lat="46.03078" lon="7.11422">
        <ele>1805</ele>
        <time>2022-08-27T21:41:48Z</time>
      </trkpt>
      <trkpt lat="46.03079" lon="7.11419">
        <ele>1805</ele>
        <time>2022-08-27T21:41:50Z</time>
      </trkpt>
      <trkpt lat="46.0308" lon="7.11416">
        <ele>1805</ele>
        <time>2022-08-27T21:41:52Z</time>
      </trkpt>
      <trkpt lat="46.03081" lon="7.11413">
        <ele>1805</ele>
        <time>2022-08-27T21:41:54Z</time>
      </trkpt>
      <trkpt lat="46.03082" lon="7.1141">
        <ele>1805</ele>
        <time>2022-08-27T21:41:56Z</time>
      </trkpt>
      <trkpt lat="46.03083" lon="7.11406">
        <ele>1805</ele>
        <time>2022-08-27T21:41:58Z</time>
      </trkpt>
      <trkpt lat="46.03084" lon="7.11403">
        <ele>1805</ele>
        <time>2022-08-27T21:42:00Z</time>
      </trkpt>
      <trkpt lat="46.03085" lon="7.11401">
        <ele>1805</ele>
        <time>2022-08-27T21:42:02Z</time>
      </trkpt>
      <trkpt lat="46.03086" lon="7.11397">
        <ele>1805</ele>
        <time>2022-08-27T21:42:04Z</time>
      </trkpt>
      <trkpt lat="46.03087" lon="7.11394">
        <ele>1805</ele>
        <time>2022-08-27T21:42:06Z</time>
      </trkpt>
      <trkpt lat="46.03088" lon="7.11391">
        <ele>1805</ele>
        <time>2022-08-27T21:42:08Z</time>
      </trkpt>
      <trkpt lat="46.03088" lon="7.11388">
        <ele>1805</ele>
        <time>2022-08-27T21:42:10Z</time>
      </trkpt>
      <trkpt lat="46.03089" lon="7.11386">
        <ele>1805</ele>
        <time>2022-08-27T21:42:12Z</time>
      </trkpt>
      <trkpt lat="46.0309" lon="7.11382">
        <ele>1805</ele>
        <time>2022-08-27T21:42:14Z</time>
      </trkpt>
      <trkpt lat="46.03091" lon="7.11379">
        <ele>1805</ele>
        <time>2022-08-27T21:42:16Z</time>
      </trkpt>
      <trkpt lat="46.03092" lon="7.11377">
        <ele>1805</ele>
        <time>2022-08-27T21:42:18Z</time>
      </trkpt>
      <trkpt lat="46.03092" lon="7.11373">
        <ele>1805</ele>
        <time>2022-08-27T21:42:20Z</time>
      </trkpt>
      <trkpt lat="46.03093" lon="7.1137">
        <ele>1805</ele>
        <time>2022-08-27T21:42:22Z</time>
      </trkpt>
      <trkpt lat="46.03093" lon="7.11368">
        <ele>1805</ele>
        <time>2022-08-27T21:42:24Z</time>
      </trkpt>
      <trkpt lat="46.03094" lon="7.11365">
        <ele>1805</ele>
        <time>2022-08-27T21:42:25Z</time>
      </trkpt>
      <trkpt lat="46.03094" lon="7.11363">
        <ele>1805</ele>
        <time>2022-08-27T21:42:26Z</time>
      </trkpt>
      <trkpt lat="46.03094" lon="7.1136">
        <ele>1805</ele>
        <time>2022-08-27T21:42:27Z</time>
      </trkpt>
      <trkpt lat="46.03096" lon="7.11355">
        <ele>1805</ele>
        <time>2022-08-27T21:42:30Z</time>
      </trkpt>
      <trkpt lat="46.03097" lon="7.11352">
        <ele>1805</ele>
        <time>2022-08-27T21:42:32Z</time>
      </trkpt>
      <trkpt lat="46.03099" lon="7.11348">
        <ele>1805</ele>
        <time>2022-08-27T21:42:36Z</time>
      </trkpt>
      <trkpt lat="46.031" lon="7.11346">
        <ele>1805</ele>
        <time>2022-08-27T21:42:38Z</time>
      </trkpt>
      <trkpt lat="46.03101" lon="7.11343">
        <ele>1805</ele>
        <time>2022-08-27T21:42:40Z</time>
      </trkpt>
      <trkpt lat="46.03102" lon="7.11339">
        <ele>1810</ele>
        <time>2022-08-27T21:42:43Z</time>
      </trkpt>
      <trkpt lat="46.03103" lon="7.11336">
        <ele>1810</ele>
        <time>2022-08-27T21:42:45Z</time>
      </trkpt>
      <trkpt lat="46.03104" lon="7.11334">
        <ele>1810</ele>
        <time>2022-08-27T21:42:47Z</time>
      </trkpt>
      <trkpt lat="46.03105" lon="7.11331">
        <ele>1810</ele>
        <time>2022-08-27T21:42:49Z</time>
      </trkpt>
      <trkpt lat="46.03106" lon="7.11328">
        <ele>1811</ele>
        <time>2022-08-27T21:42:51Z</time>
      </trkpt>
      <trkpt lat="46.03107" lon="7.11325">
        <ele>1811</ele>
        <time>2022-08-27T21:42:53Z</time>
      </trkpt>
      <trkpt lat="46.03108" lon="7.11323">
        <ele>1811</ele>
        <time>2022-08-27T21:42:55Z</time>
      </trkpt>
      <trkpt lat="46.0311" lon="7.1132">
        <ele>1811</ele>
        <time>2022-08-27T21:42:57Z</time>
      </trkpt>
      <trkpt lat="46.03111" lon="7.11317">
        <ele>1811</ele>
        <time>2022-08-27T21:42:59Z</time>
      </trkpt>
      <trkpt lat="46.03112" lon="7.11314">
        <ele>1811</ele>
        <time>2022-08-27T21:43:01Z</time>
      </trkpt>
      <trkpt lat="46.03114" lon="7.11312">
        <ele>1812</ele>
        <time>2022-08-27T21:43:03Z</time>
      </trkpt>
      <trkpt lat="46.03115" lon="7.11309">
        <ele>1812</ele>
        <time>2022-08-27T21:43:05Z</time>
      </trkpt>
      <trkpt lat="46.03116" lon="7.11307">
        <ele>1812</ele>
        <time>2022-08-27T21:43:07Z</time>
      </trkpt>
      <trkpt lat="46.03116" lon="7.11304">
        <ele>1813</ele>
        <time>2022-08-27T21:43:09Z</time>
      </trkpt>
      <trkpt lat="46.03117" lon="7.11302">
        <ele>1813</ele>
        <time>2022-08-27T21:43:11Z</time>
      </trkpt>
      <trkpt lat="46.03118" lon="7.113">
        <ele>1813</ele>
        <time>2022-08-27T21:43:13Z</time>
      </trkpt>
      <trkpt lat="46.03119" lon="7.11297">
        <ele>1813</ele>
        <time>2022-08-27T21:43:15Z</time>
      </trkpt>
      <trkpt lat="46.0312" lon="7.11293">
        <ele>1813</ele>
        <time>2022-08-27T21:43:17Z</time>
      </trkpt>
      <trkpt lat="46.03121" lon="7.11291">
        <ele>1813</ele>
        <time>2022-08-27T21:43:19Z</time>
      </trkpt>
      <trkpt lat="46.03122" lon="7.11288">
        <ele>1814</ele>
        <time>2022-08-27T21:43:21Z</time>
      </trkpt>
      <trkpt lat="46.03123" lon="7.11285">
        <ele>1815</ele>
        <time>2022-08-27T21:43:23Z</time>
      </trkpt>
      <trkpt lat="46.03124" lon="7.11283">
        <ele>1815</ele>
        <time>2022-08-27T21:43:25Z</time>
      </trkpt>
      <trkpt lat="46.03125" lon="7.11279">
        <ele>1815</ele>
        <time>2022-08-27T21:43:28Z</time>
      </trkpt>
      <trkpt lat="46.03126" lon="7.11276">
        <ele>1815</ele>
        <time>2022-08-27T21:43:30Z</time>
      </trkpt>
      <trkpt lat="46.03127" lon="7.11273">
        <ele>1815</ele>
        <time>2022-08-27T21:43:32Z</time>
      </trkpt>
      <trkpt lat="46.0313" lon="7.1127">
        <ele>1815</ele>
        <time>2022-08-27T21:43:34Z</time>
      </trkpt>
      <trkpt lat="46.0313" lon="7.11268">
        <ele>1815</ele>
        <time>2022-08-27T21:43:36Z</time>
      </trkpt>
      <trkpt lat="46.03131" lon="7.11267">
        <ele>1815</ele>
        <time>2022-08-27T21:43:37Z</time>
      </trkpt>
      <trkpt lat="46.03132" lon="7.11265">
        <ele>1816</ele>
        <time>2022-08-27T21:43:38Z</time>
      </trkpt>
      <trkpt lat="46.03134" lon="7.11262">
        <ele>1816</ele>
        <time>2022-08-27T21:43:39Z</time>
      </trkpt>
      <trkpt lat="46.03135" lon="7.11258">
        <ele>1816</ele>
        <time>2022-08-27T21:43:41Z</time>
      </trkpt>
      <trkpt lat="46.03136" lon="7.11253">
        <ele>1816</ele>
        <time>2022-08-27T21:43:44Z</time>
      </trkpt>
      <trkpt lat="46.03137" lon="7.1125">
        <ele>1817</ele>
        <time>2022-08-27T21:43:46Z</time>
      </trkpt>
      <trkpt lat="46.03137" lon="7.11247">
        <ele>1817</ele>
        <time>2022-08-27T21:43:47Z</time>
      </trkpt>
      <trkpt lat="46.03139" lon="7.11244">
        <ele>1817</ele>
        <time>2022-08-27T21:43:49Z</time>
      </trkpt>
      <trkpt lat="46.03139" lon="7.1124">
        <ele>1817</ele>
        <time>2022-08-27T21:43:51Z</time>
      </trkpt>
      <trkpt lat="46.0314" lon="7.11237">
        <ele>1817</ele>
        <time>2022-08-27T21:43:54Z</time>
      </trkpt>
      <trkpt lat="46.03141" lon="7.11232">
        <ele>1817</ele>
        <time>2022-08-27T21:43:57Z</time>
      </trkpt>
      <trkpt lat="46.03142" lon="7.1123">
        <ele>1817</ele>
        <time>2022-08-27T21:43:59Z</time>
      </trkpt>
      <trkpt lat="46.03142" lon="7.11228">
        <ele>1817</ele>
        <time>2022-08-27T21:44:00Z</time>
      </trkpt>
      <trkpt lat="46.03143" lon="7.11226">
        <ele>1817</ele>
        <time>2022-08-27T21:44:01Z</time>
      </trkpt>
      <trkpt lat="46.03143" lon="7.11224">
        <ele>1817</ele>
        <time>2022-08-27T21:44:02Z</time>
      </trkpt>
      <trkpt lat="46.03146" lon="7.11217">
        <ele>1818</ele>
        <time>2022-08-27T21:44:07Z</time>
      </trkpt>
      <trkpt lat="46.03148" lon="7.11213">
        <ele>1818</ele>
        <time>2022-08-27T21:44:09Z</time>
      </trkpt>
      <trkpt lat="46.03149" lon="7.11211">
        <ele>1818</ele>
        <time>2022-08-27T21:44:10Z</time>
      </trkpt>
      <trkpt lat="46.0315" lon="7.11209">
        <ele>1818</ele>
        <time>2022-08-27T21:44:11Z</time>
      </trkpt>
      <trkpt lat="46.03151" lon="7.11207">
        <ele>1818</ele>
        <time>2022-08-27T21:44:12Z</time>
      </trkpt>
      <trkpt lat="46.03152" lon="7.11206">
        <ele>1818</ele>
        <time>2022-08-27T21:44:14Z</time>
      </trkpt>
      <trkpt lat="46.03153" lon="7.11204">
        <ele>1818</ele>
        <time>2022-08-27T21:44:15Z</time>
      </trkpt>
      <trkpt lat="46.03153" lon="7.11202">
        <ele>1818</ele>
        <time>2022-08-27T21:44:16Z</time>
      </trkpt>
      <trkpt lat="46.03153" lon="7.11199">
        <ele>1818</ele>
        <time>2022-08-27T21:44:17Z</time>
      </trkpt>
      <trkpt lat="46.03154" lon="7.11197">
        <ele>1818</ele>
        <time>2022-08-27T21:44:19Z</time>
      </trkpt>
      <trkpt lat="46.03154" lon="7.11195">
        <ele>1818</ele>
        <time>2022-08-27T21:44:20Z</time>
      </trkpt>
      <trkpt lat="46.03155" lon="7.11192">
        <ele>1818</ele>
        <time>2022-08-27T21:44:21Z</time>
      </trkpt>
      <trkpt lat="46.03155" lon="7.1119">
        <ele>1818</ele>
        <time>2022-08-27T21:44:22Z</time>
      </trkpt>
      <trkpt lat="46.03155" lon="7.11188">
        <ele>1818</ele>
        <time>2022-08-27T21:44:24Z</time>
      </trkpt>
      <trkpt lat="46.03155" lon="7.11186">
        <ele>1819</ele>
        <time>2022-08-27T21:44:25Z</time>
      </trkpt>
      <trkpt lat="46.03155" lon="7.11184">
        <ele>1819</ele>
        <time>2022-08-27T21:44:26Z</time>
      </trkpt>
      <trkpt lat="46.03155" lon="7.11182">
        <ele>1819</ele>
        <time>2022-08-27T21:44:27Z</time>
      </trkpt>
      <trkpt lat="46.03155" lon="7.11181">
        <ele>1819</ele>
        <time>2022-08-27T21:44:29Z</time>
      </trkpt>
      <trkpt lat="46.03155" lon="7.11179">
        <ele>1819</ele>
        <time>2022-08-27T21:44:31Z</time>
      </trkpt>
      <trkpt lat="46.03155" lon="7.11177">
        <ele>1819</ele>
        <time>2022-08-27T21:44:32Z</time>
      </trkpt>
      <trkpt lat="46.03156" lon="7.11174">
        <ele>1819</ele>
        <time>2022-08-27T21:44:33Z</time>
      </trkpt>
      <trkpt lat="46.03157" lon="7.11171">
        <ele>1819</ele>
        <time>2022-08-27T21:44:34Z</time>
      </trkpt>
      <trkpt lat="46.03157" lon="7.11168">
        <ele>1819</ele>
        <time>2022-08-27T21:44:35Z</time>
      </trkpt>
      <trkpt lat="46.03158" lon="7.11165">
        <ele>1819</ele>
        <time>2022-08-27T21:44:37Z</time>
      </trkpt>
      <trkpt lat="46.03158" lon="7.11163">
        <ele>1819</ele>
        <time>2022-08-27T21:44:38Z</time>
      </trkpt>
      <trkpt lat="46.03159" lon="7.1116">
        <ele>1819</ele>
        <time>2022-08-27T21:44:39Z</time>
      </trkpt>
      <trkpt lat="46.03159" lon="7.11158">
        <ele>1819</ele>
        <time>2022-08-27T21:44:40Z</time>
      </trkpt>
      <trkpt lat="46.0316" lon="7.11156">
        <ele>1819</ele>
        <time>2022-08-27T21:44:42Z</time>
      </trkpt>
      <trkpt lat="46.0316" lon="7.11154">
        <ele>1819</ele>
        <time>2022-08-27T21:44:43Z</time>
      </trkpt>
      <trkpt lat="46.0316" lon="7.11152">
        <ele>1819</ele>
        <time>2022-08-27T21:44:44Z</time>
      </trkpt>
      <trkpt lat="46.03162" lon="7.11148">
        <ele>1819</ele>
        <time>2022-08-27T21:44:46Z</time>
      </trkpt>
      <trkpt lat="46.03162" lon="7.11146">
        <ele>1819</ele>
        <time>2022-08-27T21:44:48Z</time>
      </trkpt>
      <trkpt lat="46.03163" lon="7.11143">
        <ele>1818</ele>
        <time>2022-08-27T21:44:49Z</time>
      </trkpt>
      <trkpt lat="46.03163" lon="7.11141">
        <ele>1819</ele>
        <time>2022-08-27T21:44:50Z</time>
      </trkpt>
      <trkpt lat="46.03164" lon="7.11139">
        <ele>1819</ele>
        <time>2022-08-27T21:44:52Z</time>
      </trkpt>
      <trkpt lat="46.03164" lon="7.11137">
        <ele>1819</ele>
        <time>2022-08-27T21:44:53Z</time>
      </trkpt>
      <trkpt lat="46.03164" lon="7.11135">
        <ele>1818</ele>
        <time>2022-08-27T21:44:54Z</time>
      </trkpt>
      <trkpt lat="46.03165" lon="7.11132">
        <ele>1818</ele>
        <time>2022-08-27T21:44:55Z</time>
      </trkpt>
      <trkpt lat="46.03165" lon="7.1113">
        <ele>1819</ele>
        <time>2022-08-27T21:44:56Z</time>
      </trkpt>
      <trkpt lat="46.03166" lon="7.11128">
        <ele>1819</ele>
        <time>2022-08-27T21:44:57Z</time>
      </trkpt>
      <trkpt lat="46.03166" lon="7.11125">
        <ele>1819</ele>
        <time>2022-08-27T21:44:59Z</time>
      </trkpt>
      <trkpt lat="46.03166" lon="7.11123">
        <ele>1818</ele>
        <time>2022-08-27T21:45:00Z</time>
      </trkpt>
      <trkpt lat="46.03167" lon="7.11119">
        <ele>1819</ele>
        <time>2022-08-27T21:45:02Z</time>
      </trkpt>
      <trkpt lat="46.03168" lon="7.11115">
        <ele>1819</ele>
        <time>2022-08-27T21:45:04Z</time>
      </trkpt>
      <trkpt lat="46.03169" lon="7.11111">
        <ele>1819</ele>
        <time>2022-08-27T21:45:06Z</time>
      </trkpt>
      <trkpt lat="46.03171" lon="7.11107">
        <ele>1818</ele>
        <time>2022-08-27T21:45:08Z</time>
      </trkpt>
      <trkpt lat="46.03171" lon="7.11103">
        <ele>1818</ele>
        <time>2022-08-27T21:45:10Z</time>
      </trkpt>
      <trkpt lat="46.03171" lon="7.11099">
        <ele>1818</ele>
        <time>2022-08-27T21:45:12Z</time>
      </trkpt>
      <trkpt lat="46.03171" lon="7.11095">
        <ele>1818</ele>
        <time>2022-08-27T21:45:14Z</time>
      </trkpt>
      <trkpt lat="46.03172" lon="7.11092">
        <ele>1818</ele>
        <time>2022-08-27T21:45:16Z</time>
      </trkpt>
      <trkpt lat="46.03172" lon="7.11089">
        <ele>1818</ele>
        <time>2022-08-27T21:45:18Z</time>
      </trkpt>
      <trkpt lat="46.03173" lon="7.11085">
        <ele>1818</ele>
        <time>2022-08-27T21:45:20Z</time>
      </trkpt>
      <trkpt lat="46.03173" lon="7.11081">
        <ele>1818</ele>
        <time>2022-08-27T21:45:22Z</time>
      </trkpt>
      <trkpt lat="46.03174" lon="7.11077">
        <ele>1818</ele>
        <time>2022-08-27T21:45:24Z</time>
      </trkpt>
      <trkpt lat="46.03175" lon="7.11074">
        <ele>1817</ele>
        <time>2022-08-27T21:45:26Z</time>
      </trkpt>
      <trkpt lat="46.03175" lon="7.1107">
        <ele>1818</ele>
        <time>2022-08-27T21:45:28Z</time>
      </trkpt>
      <trkpt lat="46.03176" lon="7.11067">
        <ele>1818</ele>
        <time>2022-08-27T21:45:30Z</time>
      </trkpt>
      <trkpt lat="46.03177" lon="7.11063">
        <ele>1817</ele>
        <time>2022-08-27T21:45:32Z</time>
      </trkpt>
      <trkpt lat="46.03177" lon="7.11061">
        <ele>1817</ele>
        <time>2022-08-27T21:45:34Z</time>
      </trkpt>
      <trkpt lat="46.03178" lon="7.11058">
        <ele>1817</ele>
        <time>2022-08-27T21:45:36Z</time>
      </trkpt>
      <trkpt lat="46.03179" lon="7.11055">
        <ele>1817</ele>
        <time>2022-08-27T21:45:38Z</time>
      </trkpt>
      <trkpt lat="46.0318" lon="7.11051">
        <ele>1818</ele>
        <time>2022-08-27T21:45:40Z</time>
      </trkpt>
      <trkpt lat="46.03181" lon="7.11047">
        <ele>1818</ele>
        <time>2022-08-27T21:45:42Z</time>
      </trkpt>
      <trkpt lat="46.03181" lon="7.11044">
        <ele>1818</ele>
        <time>2022-08-27T21:45:44Z</time>
      </trkpt>
      <trkpt lat="46.03183" lon="7.11039">
        <ele>1818</ele>
        <time>2022-08-27T21:45:46Z</time>
      </trkpt>
      <trkpt lat="46.03184" lon="7.11035">
        <ele>1818</ele>
        <time>2022-08-27T21:45:48Z</time>
      </trkpt>
      <trkpt lat="46.03185" lon="7.11031">
        <ele>1818</ele>
        <time>2022-08-27T21:45:49Z</time>
      </trkpt>
      <trkpt lat="46.03186" lon="7.11028">
        <ele>1818</ele>
        <time>2022-08-27T21:45:51Z</time>
      </trkpt>
      <trkpt lat="46.03186" lon="7.11025">
        <ele>1818</ele>
        <time>2022-08-27T21:45:53Z</time>
      </trkpt>
      <trkpt lat="46.03187" lon="7.11022">
        <ele>1818</ele>
        <time>2022-08-27T21:45:55Z</time>
      </trkpt>
      <trkpt lat="46.03188" lon="7.11018">
        <ele>1818</ele>
        <time>2022-08-27T21:45:57Z</time>
      </trkpt>
      <trkpt lat="46.03189" lon="7.11015">
        <ele>1818</ele>
        <time>2022-08-27T21:45:59Z</time>
      </trkpt>
      <trkpt lat="46.0319" lon="7.11013">
        <ele>1818</ele>
        <time>2022-08-27T21:46:00Z</time>
      </trkpt>
      <trkpt lat="46.03191" lon="7.11011">
        <ele>1818</ele>
        <time>2022-08-27T21:46:01Z</time>
      </trkpt>
      <trkpt lat="46.03191" lon="7.11009">
        <ele>1818</ele>
        <time>2022-08-27T21:46:03Z</time>
      </trkpt>
      <trkpt lat="46.03192" lon="7.11007">
        <ele>1818</ele>
        <time>2022-08-27T21:46:04Z</time>
      </trkpt>
      <trkpt lat="46.03193" lon="7.11005">
        <ele>1818</ele>
        <time>2022-08-27T21:46:05Z</time>
      </trkpt>
      <trkpt lat="46.03193" lon="7.11003">
        <ele>1818</ele>
        <time>2022-08-27T21:46:06Z</time>
      </trkpt>
      <trkpt lat="46.03194" lon="7.11001">
        <ele>1818</ele>
        <time>2022-08-27T21:46:08Z</time>
      </trkpt>
      <trkpt lat="46.03195" lon="7.10999">
        <ele>1818</ele>
        <time>2022-08-27T21:46:09Z</time>
      </trkpt>
      <trkpt lat="46.03195" lon="7.10997">
        <ele>1818</ele>
        <time>2022-08-27T21:46:10Z</time>
      </trkpt>
      <trkpt lat="46.03196" lon="7.10994">
        <ele>1818</ele>
        <time>2022-08-27T21:46:11Z</time>
      </trkpt>
      <trkpt lat="46.03196" lon="7.10992">
        <ele>1818</ele>
        <time>2022-08-27T21:46:12Z</time>
      </trkpt>
      <trkpt lat="46.03197" lon="7.1099">
        <ele>1818</ele>
        <time>2022-08-27T21:46:13Z</time>
      </trkpt>
      <trkpt lat="46.03198" lon="7.10986">
        <ele>1818</ele>
        <time>2022-08-27T21:46:14Z</time>
      </trkpt>
      <trkpt lat="46.03198" lon="7.10985">
        <ele>1818</ele>
        <time>2022-08-27T21:46:16Z</time>
      </trkpt>
      <trkpt lat="46.03198" lon="7.10983">
        <ele>1818</ele>
        <time>2022-08-27T21:46:17Z</time>
      </trkpt>
      <trkpt lat="46.03199" lon="7.10981">
        <ele>1818</ele>
        <time>2022-08-27T21:46:18Z</time>
      </trkpt>
      <trkpt lat="46.03199" lon="7.10979">
        <ele>1818</ele>
        <time>2022-08-27T21:46:19Z</time>
      </trkpt>
      <trkpt lat="46.03199" lon="7.10975">
        <ele>1818</ele>
        <time>2022-08-27T21:46:20Z</time>
      </trkpt>
      <trkpt lat="46.03199" lon="7.10971">
        <ele>1818</ele>
        <time>2022-08-27T21:46:22Z</time>
      </trkpt>
      <trkpt lat="46.03199" lon="7.10968">
        <ele>1818</ele>
        <time>2022-08-27T21:46:24Z</time>
      </trkpt>
      <trkpt lat="46.03199" lon="7.10965">
        <ele>1818</ele>
        <time>2022-08-27T21:46:26Z</time>
      </trkpt>
      <trkpt lat="46.03197" lon="7.1096">
        <ele>1818</ele>
        <time>2022-08-27T21:46:29Z</time>
      </trkpt>
      <trkpt lat="46.03196" lon="7.10957">
        <ele>1818</ele>
        <time>2022-08-27T21:46:31Z</time>
      </trkpt>
      <trkpt lat="46.03193" lon="7.10946">
        <ele>1819</ele>
        <time>2022-08-27T21:46:36Z</time>
      </trkpt>
      <trkpt lat="46.03192" lon="7.10942">
        <ele>1819</ele>
        <time>2022-08-27T21:46:38Z</time>
      </trkpt>
      <trkpt lat="46.03191" lon="7.10938">
        <ele>1819</ele>
        <time>2022-08-27T21:46:40Z</time>
      </trkpt>
      <trkpt lat="46.0319" lon="7.10934">
        <ele>1818</ele>
        <time>2022-08-27T21:46:42Z</time>
      </trkpt>
      <trkpt lat="46.03189" lon="7.1093">
        <ele>1818</ele>
        <time>2022-08-27T21:46:44Z</time>
      </trkpt>
      <trkpt lat="46.03189" lon="7.10926">
        <ele>1818</ele>
        <time>2022-08-27T21:46:46Z</time>
      </trkpt>
      <trkpt lat="46.03189" lon="7.10922">
        <ele>1818</ele>
        <time>2022-08-27T21:46:48Z</time>
      </trkpt>
      <trkpt lat="46.03189" lon="7.10918">
        <ele>1819</ele>
        <time>2022-08-27T21:46:50Z</time>
      </trkpt>
      <trkpt lat="46.03189" lon="7.10912">
        <ele>1819</ele>
        <time>2022-08-27T21:46:53Z</time>
      </trkpt>
      <trkpt lat="46.03188" lon="7.10909">
        <ele>1819</ele>
        <time>2022-08-27T21:46:55Z</time>
      </trkpt>
      <trkpt lat="46.03189" lon="7.10905">
        <ele>1819</ele>
        <time>2022-08-27T21:46:57Z</time>
      </trkpt>
      <trkpt lat="46.03189" lon="7.10902">
        <ele>1819</ele>
        <time>2022-08-27T21:46:59Z</time>
      </trkpt>
      <trkpt lat="46.03188" lon="7.10899">
        <ele>1819</ele>
        <time>2022-08-27T21:47:01Z</time>
      </trkpt>
      <trkpt lat="46.03188" lon="7.10896">
        <ele>1819</ele>
        <time>2022-08-27T21:47:03Z</time>
      </trkpt>
      <trkpt lat="46.03189" lon="7.1089">
        <ele>1820</ele>
        <time>2022-08-27T21:47:07Z</time>
      </trkpt>
      <trkpt lat="46.0319" lon="7.10885">
        <ele>1820</ele>
        <time>2022-08-27T21:47:09Z</time>
      </trkpt>
      <trkpt lat="46.0319" lon="7.10884">
        <ele>1820</ele>
        <time>2022-08-27T21:47:10Z</time>
      </trkpt>
      <trkpt lat="46.03191" lon="7.10882">
        <ele>1820</ele>
        <time>2022-08-27T21:47:11Z</time>
      </trkpt>
      <trkpt lat="46.03191" lon="7.10881">
        <ele>1820</ele>
        <time>2022-08-27T21:47:12Z</time>
      </trkpt>
      <trkpt lat="46.03191" lon="7.1088">
        <ele>1820</ele>
        <time>2022-08-27T21:47:14Z</time>
      </trkpt>
      <trkpt lat="46.03191" lon="7.10878">
        <ele>1820</ele>
        <time>2022-08-27T21:47:15Z</time>
      </trkpt>
      <trkpt lat="46.03191" lon="7.10877">
        <ele>1820</ele>
        <time>2022-08-27T21:47:16Z</time>
      </trkpt>
      <trkpt lat="46.03192" lon="7.10874">
        <ele>1820</ele>
        <time>2022-08-27T21:47:18Z</time>
      </trkpt>
      <trkpt lat="46.03193" lon="7.10871">
        <ele>1820</ele>
        <time>2022-08-27T21:47:20Z</time>
      </trkpt>
      <trkpt lat="46.03194" lon="7.10869">
        <ele>1820</ele>
        <time>2022-08-27T21:47:21Z</time>
      </trkpt>
      <trkpt lat="46.03195" lon="7.10866">
        <ele>1820</ele>
        <time>2022-08-27T21:47:22Z</time>
      </trkpt>
      <trkpt lat="46.03195" lon="7.10863">
        <ele>1820</ele>
        <time>2022-08-27T21:47:24Z</time>
      </trkpt>
      <trkpt lat="46.03196" lon="7.1086">
        <ele>1820</ele>
        <time>2022-08-27T21:47:26Z</time>
      </trkpt>
      <trkpt lat="46.03196" lon="7.10857">
        <ele>1820</ele>
        <time>2022-08-27T21:47:28Z</time>
      </trkpt>
      <trkpt lat="46.03197" lon="7.10853">
        <ele>1820</ele>
        <time>2022-08-27T21:47:30Z</time>
      </trkpt>
      <trkpt lat="46.03197" lon="7.1085">
        <ele>1820</ele>
        <time>2022-08-27T21:47:32Z</time>
      </trkpt>
      <trkpt lat="46.03196" lon="7.10848">
        <ele>1821</ele>
        <time>2022-08-27T21:47:35Z</time>
      </trkpt>
      <trkpt lat="46.03194" lon="7.10846">
        <ele>1821</ele>
        <time>2022-08-27T21:47:38Z</time>
      </trkpt>
      <trkpt lat="46.03193" lon="7.10845">
        <ele>1821</ele>
        <time>2022-08-27T21:47:40Z</time>
      </trkpt>
      <trkpt lat="46.03193" lon="7.10844">
        <ele>1821</ele>
        <time>2022-08-27T21:47:42Z</time>
      </trkpt>
      <trkpt lat="46.03192" lon="7.10843">
        <ele>1821</ele>
        <time>2022-08-27T21:47:43Z</time>
      </trkpt>
      <trkpt lat="46.03191" lon="7.10842">
        <ele>1821</ele>
        <time>2022-08-27T21:47:44Z</time>
      </trkpt>
      <trkpt lat="46.03191" lon="7.10841">
        <ele>1821</ele>
        <time>2022-08-27T21:47:45Z</time>
      </trkpt>
      <trkpt lat="46.0319" lon="7.10839">
        <ele>1821</ele>
        <time>2022-08-27T21:47:47Z</time>
      </trkpt>
      <trkpt lat="46.0319" lon="7.10838">
        <ele>1821</ele>
        <time>2022-08-27T21:47:48Z</time>
      </trkpt>
      <trkpt lat="46.03189" lon="7.10837">
        <ele>1821</ele>
        <time>2022-08-27T21:47:49Z</time>
      </trkpt>
      <trkpt lat="46.03188" lon="7.10836">
        <ele>1821</ele>
        <time>2022-08-27T21:47:50Z</time>
      </trkpt>
      <trkpt lat="46.03188" lon="7.10835">
        <ele>1821</ele>
        <time>2022-08-27T21:47:51Z</time>
      </trkpt>
      <trkpt lat="46.03187" lon="7.10834">
        <ele>1821</ele>
        <time>2022-08-27T21:47:52Z</time>
      </trkpt>
      <trkpt lat="46.03186" lon="7.10833">
        <ele>1821</ele>
        <time>2022-08-27T21:47:53Z</time>
      </trkpt>
      <trkpt lat="46.03185" lon="7.10833">
        <ele>1822</ele>
        <time>2022-08-27T21:47:55Z</time>
      </trkpt>
      <trkpt lat="46.03184" lon="7.10832">
        <ele>1822</ele>
        <time>2022-08-27T21:47:56Z</time>
      </trkpt>
      <trkpt lat="46.03184" lon="7.10831">
        <ele>1822</ele>
        <time>2022-08-27T21:47:57Z</time>
      </trkpt>
      <trkpt lat="46.03183" lon="7.1083">
        <ele>1822</ele>
        <time>2022-08-27T21:47:58Z</time>
      </trkpt>
      <trkpt lat="46.03182" lon="7.10829">
        <ele>1822</ele>
        <time>2022-08-27T21:48:00Z</time>
      </trkpt>
      <trkpt lat="46.03181" lon="7.10828">
        <ele>1823</ele>
        <time>2022-08-27T21:48:02Z</time>
      </trkpt>
      <trkpt lat="46.0318" lon="7.10827">
        <ele>1823</ele>
        <time>2022-08-27T21:48:03Z</time>
      </trkpt>
      <trkpt lat="46.03179" lon="7.10827">
        <ele>1823</ele>
        <time>2022-08-27T21:48:04Z</time>
      </trkpt>
      <trkpt lat="46.03178" lon="7.10826">
        <ele>1823</ele>
        <time>2022-08-27T21:48:06Z</time>
      </trkpt>
      <trkpt lat="46.03177" lon="7.10825">
        <ele>1823</ele>
        <time>2022-08-27T21:48:07Z</time>
      </trkpt>
      <trkpt lat="46.03175" lon="7.10823">
        <ele>1823</ele>
        <time>2022-08-27T21:48:10Z</time>
      </trkpt>
      <trkpt lat="46.03172" lon="7.10821">
        <ele>1825</ele>
        <time>2022-08-27T21:48:13Z</time>
      </trkpt>
      <trkpt lat="46.0317" lon="7.1082">
        <ele>1825</ele>
        <time>2022-08-27T21:48:15Z</time>
      </trkpt>
      <trkpt lat="46.03168" lon="7.10819">
        <ele>1825</ele>
        <time>2022-08-27T21:48:17Z</time>
      </trkpt>
      <trkpt lat="46.03166" lon="7.10818">
        <ele>1825</ele>
        <time>2022-08-27T21:48:20Z</time>
      </trkpt>
      <trkpt lat="46.03164" lon="7.10816">
        <ele>1825</ele>
        <time>2022-08-27T21:48:23Z</time>
      </trkpt>
      <trkpt lat="46.03163" lon="7.10815">
        <ele>1825</ele>
        <time>2022-08-27T21:48:25Z</time>
      </trkpt>
      <trkpt lat="46.03161" lon="7.10814">
        <ele>1826</ele>
        <time>2022-08-27T21:48:27Z</time>
      </trkpt>
      <trkpt lat="46.03158" lon="7.10813">
        <ele>1826</ele>
        <time>2022-08-27T21:48:29Z</time>
      </trkpt>
      <trkpt lat="46.03157" lon="7.10813">
        <ele>1826</ele>
        <time>2022-08-27T21:48:31Z</time>
      </trkpt>
      <trkpt lat="46.03155" lon="7.10811">
        <ele>1826</ele>
        <time>2022-08-27T21:48:33Z</time>
      </trkpt>
      <trkpt lat="46.03153" lon="7.1081">
        <ele>1826</ele>
        <time>2022-08-27T21:48:37Z</time>
      </trkpt>
      <trkpt lat="46.03152" lon="7.10808">
        <ele>1826</ele>
        <time>2022-08-27T21:48:39Z</time>
      </trkpt>
      <trkpt lat="46.0315" lon="7.10806">
        <ele>1827</ele>
        <time>2022-08-27T21:48:42Z</time>
      </trkpt>
      <trkpt lat="46.03148" lon="7.10805">
        <ele>1827</ele>
        <time>2022-08-27T21:48:44Z</time>
      </trkpt>
      <trkpt lat="46.03146" lon="7.10803">
        <ele>1827</ele>
        <time>2022-08-27T21:48:46Z</time>
      </trkpt>
      <trkpt lat="46.03145" lon="7.10801">
        <ele>1828</ele>
        <time>2022-08-27T21:48:48Z</time>
      </trkpt>
      <trkpt lat="46.03144" lon="7.10798">
        <ele>1828</ele>
        <time>2022-08-27T21:48:50Z</time>
      </trkpt>
      <trkpt lat="46.03141" lon="7.10785">
        <ele>1828</ele>
        <time>2022-08-27T21:48:57Z</time>
      </trkpt>
      <trkpt lat="46.0314" lon="7.10782">
        <ele>1828</ele>
        <time>2022-08-27T21:49:01Z</time>
      </trkpt>
      <trkpt lat="46.03142" lon="7.1078">
        <ele>1828</ele>
        <time>2022-08-27T21:49:03Z</time>
      </trkpt>
      <trkpt lat="46.03143" lon="7.10778">
        <ele>1829</ele>
        <time>2022-08-27T21:49:04Z</time>
      </trkpt>
      <trkpt lat="46.03143" lon="7.10774">
        <ele>1829</ele>
        <time>2022-08-27T21:49:08Z</time>
      </trkpt>
      <trkpt lat="46.03143" lon="7.10771">
        <ele>1829</ele>
        <time>2022-08-27T21:49:11Z</time>
      </trkpt>
      <trkpt lat="46.03144" lon="7.10768">
        <ele>1829</ele>
        <time>2022-08-27T21:49:14Z</time>
      </trkpt>
      <trkpt lat="46.03145" lon="7.10765">
        <ele>1830</ele>
        <time>2022-08-27T21:49:16Z</time>
      </trkpt>
      <trkpt lat="46.03146" lon="7.10763">
        <ele>1830</ele>
        <time>2022-08-27T21:49:18Z</time>
      </trkpt>
      <trkpt lat="46.03147" lon="7.1076">
        <ele>1830</ele>
        <time>2022-08-27T21:49:19Z</time>
      </trkpt>
      <trkpt lat="46.03148" lon="7.10758">
        <ele>1830</ele>
        <time>2022-08-27T21:49:20Z</time>
      </trkpt>
      <trkpt lat="46.03148" lon="7.10755">
        <ele>1830</ele>
        <time>2022-08-27T21:49:21Z</time>
      </trkpt>
      <trkpt lat="46.03149" lon="7.10752">
        <ele>1830</ele>
        <time>2022-08-27T21:49:23Z</time>
      </trkpt>
      <trkpt lat="46.0315" lon="7.10749">
        <ele>1830</ele>
        <time>2022-08-27T21:49:24Z</time>
      </trkpt>
      <trkpt lat="46.03151" lon="7.10744">
        <ele>1830</ele>
        <time>2022-08-27T21:49:26Z</time>
      </trkpt>
      <trkpt lat="46.03151" lon="7.10741">
        <ele>1830</ele>
        <time>2022-08-27T21:49:28Z</time>
      </trkpt>
      <trkpt lat="46.03153" lon="7.10735">
        <ele>1830</ele>
        <time>2022-08-27T21:49:31Z</time>
      </trkpt>
      <trkpt lat="46.03154" lon="7.10731">
        <ele>1830</ele>
        <time>2022-08-27T21:49:33Z</time>
      </trkpt>
      <trkpt lat="46.03155" lon="7.10728">
        <ele>1830</ele>
        <time>2022-08-27T21:49:35Z</time>
      </trkpt>
      <trkpt lat="46.03156" lon="7.10724">
        <ele>1830</ele>
        <time>2022-08-27T21:49:37Z</time>
      </trkpt>
      <trkpt lat="46.03156" lon="7.10721">
        <ele>1830</ele>
        <time>2022-08-27T21:49:39Z</time>
      </trkpt>
      <trkpt lat="46.03157" lon="7.10718">
        <ele>1831</ele>
        <time>2022-08-27T21:49:41Z</time>
      </trkpt>
      <trkpt lat="46.03157" lon="7.10716">
        <ele>1831</ele>
        <time>2022-08-27T21:49:43Z</time>
      </trkpt>
      <trkpt lat="46.03158" lon="7.10713">
        <ele>1831</ele>
        <time>2022-08-27T21:49:45Z</time>
      </trkpt>
      <trkpt lat="46.03159" lon="7.1071">
        <ele>1831</ele>
        <time>2022-08-27T21:49:47Z</time>
      </trkpt>
      <trkpt lat="46.03161" lon="7.10707">
        <ele>1831</ele>
        <time>2022-08-27T21:49:49Z</time>
      </trkpt>
      <trkpt lat="46.03162" lon="7.10704">
        <ele>1831</ele>
        <time>2022-08-27T21:49:51Z</time>
      </trkpt>
      <trkpt lat="46.03164" lon="7.107">
        <ele>1832</ele>
        <time>2022-08-27T21:49:53Z</time>
      </trkpt>
      <trkpt lat="46.03165" lon="7.10697">
        <ele>1832</ele>
        <time>2022-08-27T21:49:55Z</time>
      </trkpt>
      <trkpt lat="46.03166" lon="7.10694">
        <ele>1832</ele>
        <time>2022-08-27T21:49:57Z</time>
      </trkpt>
      <trkpt lat="46.03167" lon="7.1069">
        <ele>1832</ele>
        <time>2022-08-27T21:49:59Z</time>
      </trkpt>
      <trkpt lat="46.03168" lon="7.10687">
        <ele>1832</ele>
        <time>2022-08-27T21:50:01Z</time>
      </trkpt>
      <trkpt lat="46.03169" lon="7.10683">
        <ele>1832</ele>
        <time>2022-08-27T21:50:03Z</time>
      </trkpt>
      <trkpt lat="46.0317" lon="7.1068">
        <ele>1832</ele>
        <time>2022-08-27T21:50:05Z</time>
      </trkpt>
      <trkpt lat="46.03171" lon="7.10677">
        <ele>1832</ele>
        <time>2022-08-27T21:50:07Z</time>
      </trkpt>
      <trkpt lat="46.03172" lon="7.10675">
        <ele>1832</ele>
        <time>2022-08-27T21:50:09Z</time>
      </trkpt>
      <trkpt lat="46.03174" lon="7.10672">
        <ele>1832</ele>
        <time>2022-08-27T21:50:11Z</time>
      </trkpt>
      <trkpt lat="46.03175" lon="7.10669">
        <ele>1832</ele>
        <time>2022-08-27T21:50:13Z</time>
      </trkpt>
      <trkpt lat="46.03176" lon="7.10667">
        <ele>1832</ele>
        <time>2022-08-27T21:50:15Z</time>
      </trkpt>
      <trkpt lat="46.03177" lon="7.10664">
        <ele>1832</ele>
        <time>2022-08-27T21:50:17Z</time>
      </trkpt>
      <trkpt lat="46.03177" lon="7.10661">
        <ele>1832</ele>
        <time>2022-08-27T21:50:20Z</time>
      </trkpt>
      <trkpt lat="46.03177" lon="7.10658">
        <ele>1832</ele>
        <time>2022-08-27T21:50:23Z</time>
      </trkpt>
      <trkpt lat="46.03179" lon="7.10655">
        <ele>1832</ele>
        <time>2022-08-27T21:50:26Z</time>
      </trkpt>
      <trkpt lat="46.03181" lon="7.10652">
        <ele>1831</ele>
        <time>2022-08-27T21:50:28Z</time>
      </trkpt>
      <trkpt lat="46.03183" lon="7.10649">
        <ele>1831</ele>
        <time>2022-08-27T21:50:30Z</time>
      </trkpt>
      <trkpt lat="46.03185" lon="7.10646">
        <ele>1830</ele>
        <time>2022-08-27T21:50:32Z</time>
      </trkpt>
      <trkpt lat="46.03186" lon="7.10643">
        <ele>1830</ele>
        <time>2022-08-27T21:50:34Z</time>
      </trkpt>
      <trkpt lat="46.03188" lon="7.1064">
        <ele>1828</ele>
        <time>2022-08-27T21:50:36Z</time>
      </trkpt>
      <trkpt lat="46.03189" lon="7.10638">
        <ele>1828</ele>
        <time>2022-08-27T21:50:38Z</time>
      </trkpt>
      <trkpt lat="46.03191" lon="7.10635">
        <ele>1828</ele>
        <time>2022-08-27T21:50:40Z</time>
      </trkpt>
      <trkpt lat="46.03192" lon="7.10633">
        <ele>1828</ele>
        <time>2022-08-27T21:50:42Z</time>
      </trkpt>
      <trkpt lat="46.03195" lon="7.1063">
        <ele>1827</ele>
        <time>2022-08-27T21:50:44Z</time>
      </trkpt>
      <trkpt lat="46.03197" lon="7.10629">
        <ele>1827</ele>
        <time>2022-08-27T21:50:45Z</time>
      </trkpt>
      <trkpt lat="46.03199" lon="7.10627">
        <ele>1826</ele>
        <time>2022-08-27T21:50:47Z</time>
      </trkpt>
      <trkpt lat="46.032" lon="7.10625">
        <ele>1826</ele>
        <time>2022-08-27T21:50:48Z</time>
      </trkpt>
      <trkpt lat="46.03202" lon="7.10623">
        <ele>1826</ele>
        <time>2022-08-27T21:50:49Z</time>
      </trkpt>
      <trkpt lat="46.03204" lon="7.10621">
        <ele>1826</ele>
        <time>2022-08-27T21:50:51Z</time>
      </trkpt>
      <trkpt lat="46.03206" lon="7.10619">
        <ele>1826</ele>
        <time>2022-08-27T21:50:52Z</time>
      </trkpt>
      <trkpt lat="46.03212" lon="7.10609">
        <ele>1826</ele>
        <time>2022-08-27T21:50:57Z</time>
      </trkpt>
      <trkpt lat="46.03213" lon="7.10606">
        <ele>1826</ele>
        <time>2022-08-27T21:50:58Z</time>
      </trkpt>
      <trkpt lat="46.03214" lon="7.10603">
        <ele>1826</ele>
        <time>2022-08-27T21:50:59Z</time>
      </trkpt>
      <trkpt lat="46.03215" lon="7.106">
        <ele>1826</ele>
        <time>2022-08-27T21:51:00Z</time>
      </trkpt>
      <trkpt lat="46.03216" lon="7.10597">
        <ele>1826</ele>
        <time>2022-08-27T21:51:01Z</time>
      </trkpt>
      <trkpt lat="46.03217" lon="7.10594">
        <ele>1826</ele>
        <time>2022-08-27T21:51:02Z</time>
      </trkpt>
      <trkpt lat="46.03218" lon="7.1059">
        <ele>1826</ele>
        <time>2022-08-27T21:51:03Z</time>
      </trkpt>
      <trkpt lat="46.03219" lon="7.10588">
        <ele>1826</ele>
        <time>2022-08-27T21:51:04Z</time>
      </trkpt>
      <trkpt lat="46.03219" lon="7.10583">
        <ele>1826</ele>
        <time>2022-08-27T21:51:06Z</time>
      </trkpt>
      <trkpt lat="46.0322" lon="7.10579">
        <ele>1826</ele>
        <time>2022-08-27T21:51:08Z</time>
      </trkpt>
      <trkpt lat="46.03221" lon="7.10573">
        <ele>1826</ele>
        <time>2022-08-27T21:51:10Z</time>
      </trkpt>
      <trkpt lat="46.03222" lon="7.10569">
        <ele>1826</ele>
        <time>2022-08-27T21:51:11Z</time>
      </trkpt>
      <trkpt lat="46.03222" lon="7.10568">
        <ele>1826</ele>
        <time>2022-08-27T21:51:12Z</time>
      </trkpt>
      <trkpt lat="46.03223" lon="7.10563">
        <ele>1826</ele>
        <time>2022-08-27T21:51:14Z</time>
      </trkpt>
      <trkpt lat="46.03224" lon="7.1056">
        <ele>1826</ele>
        <time>2022-08-27T21:51:16Z</time>
      </trkpt>
      <trkpt lat="46.03225" lon="7.10556">
        <ele>1826</ele>
        <time>2022-08-27T21:51:18Z</time>
      </trkpt>
      <trkpt lat="46.03226" lon="7.10554">
        <ele>1826</ele>
        <time>2022-08-27T21:51:19Z</time>
      </trkpt>
      <trkpt lat="46.03227" lon="7.1055">
        <ele>1826</ele>
        <time>2022-08-27T21:51:21Z</time>
      </trkpt>
      <trkpt lat="46.03227" lon="7.10549">
        <ele>1826</ele>
        <time>2022-08-27T21:51:22Z</time>
      </trkpt>
      <trkpt lat="46.03228" lon="7.10547">
        <ele>1826</ele>
        <time>2022-08-27T21:51:23Z</time>
      </trkpt>
      <trkpt lat="46.03228" lon="7.10546">
        <ele>1827</ele>
        <time>2022-08-27T21:51:25Z</time>
      </trkpt>
      <trkpt lat="46.03228" lon="7.10544">
        <ele>1827</ele>
        <time>2022-08-27T21:51:26Z</time>
      </trkpt>
      <trkpt lat="46.03229" lon="7.10543">
        <ele>1827</ele>
        <time>2022-08-27T21:51:27Z</time>
      </trkpt>
      <trkpt lat="46.03232" lon="7.10533">
        <ele>1827</ele>
        <time>2022-08-27T21:51:28Z</time>
      </trkpt>
      <trkpt lat="46.03232" lon="7.10531">
        <ele>1827</ele>
        <time>2022-08-27T21:51:30Z</time>
      </trkpt>
      <trkpt lat="46.03233" lon="7.10528">
        <ele>1827</ele>
        <time>2022-08-27T21:51:31Z</time>
      </trkpt>
      <trkpt lat="46.03234" lon="7.10526">
        <ele>1827</ele>
        <time>2022-08-27T21:51:32Z</time>
      </trkpt>
      <trkpt lat="46.03234" lon="7.10523">
        <ele>1827</ele>
        <time>2022-08-27T21:51:33Z</time>
      </trkpt>
      <trkpt lat="46.03234" lon="7.10521">
        <ele>1827</ele>
        <time>2022-08-27T21:51:35Z</time>
      </trkpt>
      <trkpt lat="46.03234" lon="7.10519">
        <ele>1827</ele>
        <time>2022-08-27T21:51:36Z</time>
      </trkpt>
      <trkpt lat="46.03234" lon="7.10516">
        <ele>1827</ele>
        <time>2022-08-27T21:51:37Z</time>
      </trkpt>
      <trkpt lat="46.03234" lon="7.10514">
        <ele>1827</ele>
        <time>2022-08-27T21:51:38Z</time>
      </trkpt>
      <trkpt lat="46.03235" lon="7.10512">
        <ele>1827</ele>
        <time>2022-08-27T21:51:39Z</time>
      </trkpt>
      <trkpt lat="46.03235" lon="7.10509">
        <ele>1827</ele>
        <time>2022-08-27T21:51:40Z</time>
      </trkpt>
      <trkpt lat="46.03235" lon="7.10506">
        <ele>1827</ele>
        <time>2022-08-27T21:51:41Z</time>
      </trkpt>
      <trkpt lat="46.03235" lon="7.10502">
        <ele>1827</ele>
        <time>2022-08-27T21:51:43Z</time>
      </trkpt>
      <trkpt lat="46.03235" lon="7.10501">
        <ele>1827</ele>
        <time>2022-08-27T21:51:45Z</time>
      </trkpt>
      <trkpt lat="46.03235" lon="7.10499">
        <ele>1827</ele>
        <time>2022-08-27T21:51:46Z</time>
      </trkpt>
      <trkpt lat="46.03235" lon="7.10497">
        <ele>1827</ele>
        <time>2022-08-27T21:51:47Z</time>
      </trkpt>
      <trkpt lat="46.03235" lon="7.10495">
        <ele>1827</ele>
        <time>2022-08-27T21:51:48Z</time>
      </trkpt>
      <trkpt lat="46.03235" lon="7.1049">
        <ele>1827</ele>
        <time>2022-08-27T21:51:50Z</time>
      </trkpt>
      <trkpt lat="46.03235" lon="7.10486">
        <ele>1827</ele>
        <time>2022-08-27T21:51:52Z</time>
      </trkpt>
      <trkpt lat="46.03235" lon="7.10482">
        <ele>1827</ele>
        <time>2022-08-27T21:51:54Z</time>
      </trkpt>
      <trkpt lat="46.03236" lon="7.10478">
        <ele>1828</ele>
        <time>2022-08-27T21:51:56Z</time>
      </trkpt>
      <trkpt lat="46.03236" lon="7.10475">
        <ele>1828</ele>
        <time>2022-08-27T21:51:58Z</time>
      </trkpt>
      <trkpt lat="46.03237" lon="7.10471">
        <ele>1828</ele>
        <time>2022-08-27T21:52:00Z</time>
      </trkpt>
      <trkpt lat="46.03238" lon="7.10466">
        <ele>1828</ele>
        <time>2022-08-27T21:52:02Z</time>
      </trkpt>
      <trkpt lat="46.03239" lon="7.1046">
        <ele>1828</ele>
        <time>2022-08-27T21:52:04Z</time>
      </trkpt>
      <trkpt lat="46.03239" lon="7.10458">
        <ele>1828</ele>
        <time>2022-08-27T21:52:05Z</time>
      </trkpt>
      <trkpt lat="46.03239" lon="7.10455">
        <ele>1828</ele>
        <time>2022-08-27T21:52:06Z</time>
      </trkpt>
      <trkpt lat="46.03239" lon="7.10452">
        <ele>1828</ele>
        <time>2022-08-27T21:52:07Z</time>
      </trkpt>
      <trkpt lat="46.03239" lon="7.10448">
        <ele>1828</ele>
        <time>2022-08-27T21:52:08Z</time>
      </trkpt>
      <trkpt lat="46.0324" lon="7.10446">
        <ele>1827</ele>
        <time>2022-08-27T21:52:09Z</time>
      </trkpt>
      <trkpt lat="46.0324" lon="7.10443">
        <ele>1827</ele>
        <time>2022-08-27T21:52:10Z</time>
      </trkpt>
      <trkpt lat="46.03241" lon="7.1044">
        <ele>1827</ele>
        <time>2022-08-27T21:52:11Z</time>
      </trkpt>
      <trkpt lat="46.03242" lon="7.10437">
        <ele>1827</ele>
        <time>2022-08-27T21:52:12Z</time>
      </trkpt>
      <trkpt lat="46.03243" lon="7.10434">
        <ele>1827</ele>
        <time>2022-08-27T21:52:14Z</time>
      </trkpt>
      <trkpt lat="46.03243" lon="7.1043">
        <ele>1827</ele>
        <time>2022-08-27T21:52:15Z</time>
      </trkpt>
      <trkpt lat="46.03244" lon="7.10428">
        <ele>1827</ele>
        <time>2022-08-27T21:52:16Z</time>
      </trkpt>
      <trkpt lat="46.03245" lon="7.10424">
        <ele>1827</ele>
        <time>2022-08-27T21:52:17Z</time>
      </trkpt>
      <trkpt lat="46.03245" lon="7.10422">
        <ele>1827</ele>
        <time>2022-08-27T21:52:18Z</time>
      </trkpt>
      <trkpt lat="46.03246" lon="7.10418">
        <ele>1827</ele>
        <time>2022-08-27T21:52:19Z</time>
      </trkpt>
      <trkpt lat="46.03247" lon="7.10415">
        <ele>1827</ele>
        <time>2022-08-27T21:52:20Z</time>
      </trkpt>
      <trkpt lat="46.03248" lon="7.10412">
        <ele>1827</ele>
        <time>2022-08-27T21:52:21Z</time>
      </trkpt>
      <trkpt lat="46.03249" lon="7.10409">
        <ele>1827</ele>
        <time>2022-08-27T21:52:22Z</time>
      </trkpt>
      <trkpt lat="46.0325" lon="7.10406">
        <ele>1827</ele>
        <time>2022-08-27T21:52:23Z</time>
      </trkpt>
      <trkpt lat="46.03251" lon="7.10403">
        <ele>1827</ele>
        <time>2022-08-27T21:52:24Z</time>
      </trkpt>
      <trkpt lat="46.03252" lon="7.104">
        <ele>1827</ele>
        <time>2022-08-27T21:52:26Z</time>
      </trkpt>
      <trkpt lat="46.03254" lon="7.10398">
        <ele>1827</ele>
        <time>2022-08-27T21:52:28Z</time>
      </trkpt>
      <trkpt lat="46.03256" lon="7.10396">
        <ele>1827</ele>
        <time>2022-08-27T21:52:30Z</time>
      </trkpt>
      <trkpt lat="46.03258" lon="7.10394">
        <ele>1827</ele>
        <time>2022-08-27T21:52:31Z</time>
      </trkpt>
      <trkpt lat="46.0326" lon="7.10392">
        <ele>1827</ele>
        <time>2022-08-27T21:52:32Z</time>
      </trkpt>
      <trkpt lat="46.03262" lon="7.10391">
        <ele>1827</ele>
        <time>2022-08-27T21:52:34Z</time>
      </trkpt>
      <trkpt lat="46.03264" lon="7.10389">
        <ele>1827</ele>
        <time>2022-08-27T21:52:36Z</time>
      </trkpt>
      <trkpt lat="46.03266" lon="7.10387">
        <ele>1827</ele>
        <time>2022-08-27T21:52:37Z</time>
      </trkpt>
      <trkpt lat="46.03267" lon="7.10386">
        <ele>1827</ele>
        <time>2022-08-27T21:52:38Z</time>
      </trkpt>
      <trkpt lat="46.03269" lon="7.10384">
        <ele>1828</ele>
        <time>2022-08-27T21:52:40Z</time>
      </trkpt>
      <trkpt lat="46.03271" lon="7.10383">
        <ele>1828</ele>
        <time>2022-08-27T21:52:41Z</time>
      </trkpt>
      <trkpt lat="46.03272" lon="7.10381">
        <ele>1828</ele>
        <time>2022-08-27T21:52:42Z</time>
      </trkpt>
      <trkpt lat="46.03274" lon="7.1038">
        <ele>1828</ele>
        <time>2022-08-27T21:52:43Z</time>
      </trkpt>
      <trkpt lat="46.03275" lon="7.10379">
        <ele>1828</ele>
        <time>2022-08-27T21:52:45Z</time>
      </trkpt>
      <trkpt lat="46.03277" lon="7.10377">
        <ele>1828</ele>
        <time>2022-08-27T21:52:47Z</time>
      </trkpt>
      <trkpt lat="46.03279" lon="7.10376">
        <ele>1828</ele>
        <time>2022-08-27T21:52:48Z</time>
      </trkpt>
      <trkpt lat="46.0328" lon="7.10375">
        <ele>1828</ele>
        <time>2022-08-27T21:52:49Z</time>
      </trkpt>
      <trkpt lat="46.03281" lon="7.10373">
        <ele>1828</ele>
        <time>2022-08-27T21:52:50Z</time>
      </trkpt>
      <trkpt lat="46.03283" lon="7.10372">
        <ele>1828</ele>
        <time>2022-08-27T21:52:51Z</time>
      </trkpt>
      <trkpt lat="46.03284" lon="7.1037">
        <ele>1828</ele>
        <time>2022-08-27T21:52:52Z</time>
      </trkpt>
      <trkpt lat="46.03289" lon="7.10359">
        <ele>1828</ele>
        <time>2022-08-27T21:52:59Z</time>
      </trkpt>
      <trkpt lat="46.03297" lon="7.10349">
        <ele>1829</ele>
        <time>2022-08-27T21:53:06Z</time>
      </trkpt>
      <trkpt lat="46.03298" lon="7.10347">
        <ele>1829</ele>
        <time>2022-08-27T21:53:07Z</time>
      </trkpt>
      <trkpt lat="46.03299" lon="7.10345">
        <ele>1829</ele>
        <time>2022-08-27T21:53:08Z</time>
      </trkpt>
      <trkpt lat="46.033" lon="7.10343">
        <ele>1830</ele>
        <time>2022-08-27T21:53:10Z</time>
      </trkpt>
      <trkpt lat="46.03301" lon="7.10341">
        <ele>1830</ele>
        <time>2022-08-27T21:53:11Z</time>
      </trkpt>
      <trkpt lat="46.03302" lon="7.10338">
        <ele>1830</ele>
        <time>2022-08-27T21:53:12Z</time>
      </trkpt>
      <trkpt lat="46.03303" lon="7.10336">
        <ele>1830</ele>
        <time>2022-08-27T21:53:13Z</time>
      </trkpt>
      <trkpt lat="46.03305" lon="7.10333">
        <ele>1829</ele>
        <time>2022-08-27T21:53:15Z</time>
      </trkpt>
      <trkpt lat="46.03306" lon="7.1033">
        <ele>1829</ele>
        <time>2022-08-27T21:53:16Z</time>
      </trkpt>
      <trkpt lat="46.03307" lon="7.10327">
        <ele>1829</ele>
        <time>2022-08-27T21:53:17Z</time>
      </trkpt>
      <trkpt lat="46.03309" lon="7.10325">
        <ele>1829</ele>
        <time>2022-08-27T21:53:18Z</time>
      </trkpt>
      <trkpt lat="46.0331" lon="7.10323">
        <ele>1829</ele>
        <time>2022-08-27T21:53:20Z</time>
      </trkpt>
      <trkpt lat="46.03311" lon="7.10321">
        <ele>1829</ele>
        <time>2022-08-27T21:53:21Z</time>
      </trkpt>
      <trkpt lat="46.03313" lon="7.1032">
        <ele>1829</ele>
        <time>2022-08-27T21:53:22Z</time>
      </trkpt>
      <trkpt lat="46.03314" lon="7.10318">
        <ele>1829</ele>
        <time>2022-08-27T21:53:23Z</time>
      </trkpt>
      <trkpt lat="46.03323" lon="7.1031">
        <ele>1827</ele>
        <time>2022-08-27T21:53:29Z</time>
      </trkpt>
      <trkpt lat="46.03324" lon="7.10308">
        <ele>1827</ele>
        <time>2022-08-27T21:53:30Z</time>
      </trkpt>
      <trkpt lat="46.03326" lon="7.10307">
        <ele>1827</ele>
        <time>2022-08-27T21:53:31Z</time>
      </trkpt>
      <trkpt lat="46.03327" lon="7.10306">
        <ele>1827</ele>
        <time>2022-08-27T21:53:32Z</time>
      </trkpt>
      <trkpt lat="46.03329" lon="7.10305">
        <ele>1827</ele>
        <time>2022-08-27T21:53:34Z</time>
      </trkpt>
      <trkpt lat="46.03331" lon="7.10303">
        <ele>1827</ele>
        <time>2022-08-27T21:53:35Z</time>
      </trkpt>
      <trkpt lat="46.03332" lon="7.10302">
        <ele>1827</ele>
        <time>2022-08-27T21:53:36Z</time>
      </trkpt>
      <trkpt lat="46.03334" lon="7.10301">
        <ele>1827</ele>
        <time>2022-08-27T21:53:37Z</time>
      </trkpt>
      <trkpt lat="46.03335" lon="7.103">
        <ele>1826</ele>
        <time>2022-08-27T21:53:39Z</time>
      </trkpt>
      <trkpt lat="46.03337" lon="7.10298">
        <ele>1826</ele>
        <time>2022-08-27T21:53:40Z</time>
      </trkpt>
      <trkpt lat="46.03339" lon="7.10297">
        <ele>1826</ele>
        <time>2022-08-27T21:53:41Z</time>
      </trkpt>
      <trkpt lat="46.03341" lon="7.10295">
        <ele>1826</ele>
        <time>2022-08-27T21:53:42Z</time>
      </trkpt>
      <trkpt lat="46.03343" lon="7.10293">
        <ele>1826</ele>
        <time>2022-08-27T21:53:44Z</time>
      </trkpt>
      <trkpt lat="46.03344" lon="7.10292">
        <ele>1826</ele>
        <time>2022-08-27T21:53:45Z</time>
      </trkpt>
      <trkpt lat="46.03346" lon="7.1029">
        <ele>1826</ele>
        <time>2022-08-27T21:53:46Z</time>
      </trkpt>
      <trkpt lat="46.03348" lon="7.10288">
        <ele>1826</ele>
        <time>2022-08-27T21:53:47Z</time>
      </trkpt>
      <trkpt lat="46.0335" lon="7.10286">
        <ele>1826</ele>
        <time>2022-08-27T21:53:48Z</time>
      </trkpt>
      <trkpt lat="46.03352" lon="7.10284">
        <ele>1826</ele>
        <time>2022-08-27T21:53:49Z</time>
      </trkpt>
      <trkpt lat="46.03354" lon="7.10282">
        <ele>1826</ele>
        <time>2022-08-27T21:53:50Z</time>
      </trkpt>
      <trkpt lat="46.03356" lon="7.10282">
        <ele>1826</ele>
        <time>2022-08-27T21:53:51Z</time>
      </trkpt>
      <trkpt lat="46.03358" lon="7.10281">
        <ele>1826</ele>
        <time>2022-08-27T21:53:52Z</time>
      </trkpt>
      <trkpt lat="46.03359" lon="7.10281">
        <ele>1826</ele>
        <time>2022-08-27T21:53:53Z</time>
      </trkpt>
      <trkpt lat="46.03361" lon="7.1028">
        <ele>1826</ele>
        <time>2022-08-27T21:53:55Z</time>
      </trkpt>
      <trkpt lat="46.03362" lon="7.10279">
        <ele>1826</ele>
        <time>2022-08-27T21:53:56Z</time>
      </trkpt>
      <trkpt lat="46.03364" lon="7.10279">
        <ele>1826</ele>
        <time>2022-08-27T21:53:57Z</time>
      </trkpt>
      <trkpt lat="46.03371" lon="7.10269">
        <ele>1825</ele>
        <time>2022-08-27T21:54:07Z</time>
      </trkpt>
      <trkpt lat="46.03372" lon="7.10268">
        <ele>1825</ele>
        <time>2022-08-27T21:54:09Z</time>
      </trkpt>
      <trkpt lat="46.03373" lon="7.10266">
        <ele>1824</ele>
        <time>2022-08-27T21:54:11Z</time>
      </trkpt>
      <trkpt lat="46.03374" lon="7.10265">
        <ele>1824</ele>
        <time>2022-08-27T21:54:12Z</time>
      </trkpt>
      <trkpt lat="46.03375" lon="7.10263">
        <ele>1824</ele>
        <time>2022-08-27T21:54:13Z</time>
      </trkpt>
      <trkpt lat="46.03376" lon="7.10262">
        <ele>1824</ele>
        <time>2022-08-27T21:54:14Z</time>
      </trkpt>
      <trkpt lat="46.03377" lon="7.10261">
        <ele>1824</ele>
        <time>2022-08-27T21:54:16Z</time>
      </trkpt>
      <trkpt lat="46.03378" lon="7.10259">
        <ele>1823</ele>
        <time>2022-08-27T21:54:17Z</time>
      </trkpt>
      <trkpt lat="46.03378" lon="7.10259">
        <ele>1823</ele>
        <time>2022-08-27T21:54:18Z</time>
      </trkpt>
      <trkpt lat="46.03379" lon="7.10258">
        <ele>1823</ele>
        <time>2022-08-27T21:54:19Z</time>
      </trkpt>
      <trkpt lat="46.03379" lon="7.10257">
        <ele>1823</ele>
        <time>2022-08-27T21:54:21Z</time>
      </trkpt>
      <trkpt lat="46.0338" lon="7.10257">
        <ele>1823</ele>
        <time>2022-08-27T21:54:22Z</time>
      </trkpt>
      <trkpt lat="46.0338" lon="7.10256">
        <ele>1823</ele>
        <time>2022-08-27T21:54:23Z</time>
      </trkpt>
      <trkpt lat="46.0338" lon="7.10255">
        <ele>1822</ele>
        <time>2022-08-27T21:54:24Z</time>
      </trkpt>
      <trkpt lat="46.03386" lon="7.10246">
        <ele>1821</ele>
        <time>2022-08-27T21:54:26Z</time>
      </trkpt>
      <trkpt lat="46.03387" lon="7.10245">
        <ele>1821</ele>
        <time>2022-08-27T21:54:27Z</time>
      </trkpt>
      <trkpt lat="46.03388" lon="7.10243">
        <ele>1821</ele>
        <time>2022-08-27T21:54:28Z</time>
      </trkpt>
      <trkpt lat="46.03389" lon="7.10241">
        <ele>1821</ele>
        <time>2022-08-27T21:54:29Z</time>
      </trkpt>
      <trkpt lat="46.0339" lon="7.1024">
        <ele>1821</ele>
        <time>2022-08-27T21:54:30Z</time>
      </trkpt>
      <trkpt lat="46.03391" lon="7.10238">
        <ele>1821</ele>
        <time>2022-08-27T21:54:31Z</time>
      </trkpt>
      <trkpt lat="46.03391" lon="7.10237">
        <ele>1821</ele>
        <time>2022-08-27T21:54:32Z</time>
      </trkpt>
      <trkpt lat="46.03392" lon="7.10236">
        <ele>1821</ele>
        <time>2022-08-27T21:54:34Z</time>
      </trkpt>
      <trkpt lat="46.03392" lon="7.10236">
        <ele>1821</ele>
        <time>2022-08-27T21:54:35Z</time>
      </trkpt>
      <trkpt lat="46.03393" lon="7.10235">
        <ele>1821</ele>
        <time>2022-08-27T21:54:36Z</time>
      </trkpt>
      <trkpt lat="46.03393" lon="7.10234">
        <ele>1821</ele>
        <time>2022-08-27T21:54:37Z</time>
      </trkpt>
      <trkpt lat="46.03399" lon="7.10221">
        <ele>1820</ele>
        <time>2022-08-27T21:54:39Z</time>
      </trkpt>
      <trkpt lat="46.03401" lon="7.10218">
        <ele>1819</ele>
        <time>2022-08-27T21:54:41Z</time>
      </trkpt>
      <trkpt lat="46.03402" lon="7.10214">
        <ele>1819</ele>
        <time>2022-08-27T21:54:42Z</time>
      </trkpt>
      <trkpt lat="46.03403" lon="7.10212">
        <ele>1818</ele>
        <time>2022-08-27T21:54:43Z</time>
      </trkpt>
      <trkpt lat="46.03404" lon="7.10209">
        <ele>1818</ele>
        <time>2022-08-27T21:54:45Z</time>
      </trkpt>
      <trkpt lat="46.03405" lon="7.10206">
        <ele>1818</ele>
        <time>2022-08-27T21:54:46Z</time>
      </trkpt>
      <trkpt lat="46.03406" lon="7.10204">
        <ele>1818</ele>
        <time>2022-08-27T21:54:47Z</time>
      </trkpt>
      <trkpt lat="46.03406" lon="7.10201">
        <ele>1818</ele>
        <time>2022-08-27T21:54:48Z</time>
      </trkpt>
      <trkpt lat="46.03407" lon="7.10199">
        <ele>1817</ele>
        <time>2022-08-27T21:54:50Z</time>
      </trkpt>
      <trkpt lat="46.03408" lon="7.10196">
        <ele>1817</ele>
        <time>2022-08-27T21:54:51Z</time>
      </trkpt>
      <trkpt lat="46.03408" lon="7.10194">
        <ele>1817</ele>
        <time>2022-08-27T21:54:52Z</time>
      </trkpt>
      <trkpt lat="46.03409" lon="7.10192">
        <ele>1817</ele>
        <time>2022-08-27T21:54:53Z</time>
      </trkpt>
      <trkpt lat="46.0341" lon="7.1019">
        <ele>1817</ele>
        <time>2022-08-27T21:54:54Z</time>
      </trkpt>
      <trkpt lat="46.03411" lon="7.10187">
        <ele>1817</ele>
        <time>2022-08-27T21:54:55Z</time>
      </trkpt>
      <trkpt lat="46.03412" lon="7.10185">
        <ele>1816</ele>
        <time>2022-08-27T21:54:56Z</time>
      </trkpt>
      <trkpt lat="46.03413" lon="7.10182">
        <ele>1816</ele>
        <time>2022-08-27T21:54:57Z</time>
      </trkpt>
      <trkpt lat="46.03414" lon="7.1018">
        <ele>1816</ele>
        <time>2022-08-27T21:54:58Z</time>
      </trkpt>
      <trkpt lat="46.03415" lon="7.10177">
        <ele>1816</ele>
        <time>2022-08-27T21:54:59Z</time>
      </trkpt>
      <trkpt lat="46.03416" lon="7.10175">
        <ele>1816</ele>
        <time>2022-08-27T21:55:00Z</time>
      </trkpt>
      <trkpt lat="46.03419" lon="7.10162">
        <ele>1814</ele>
        <time>2022-08-27T21:55:06Z</time>
      </trkpt>
      <trkpt lat="46.03419" lon="7.10159">
        <ele>1814</ele>
        <time>2022-08-27T21:55:07Z</time>
      </trkpt>
      <trkpt lat="46.0342" lon="7.10157">
        <ele>1814</ele>
        <time>2022-08-27T21:55:08Z</time>
      </trkpt>
      <trkpt lat="46.0342" lon="7.10154">
        <ele>1814</ele>
        <time>2022-08-27T21:55:09Z</time>
      </trkpt>
      <trkpt lat="46.03421" lon="7.10152">
        <ele>1814</ele>
        <time>2022-08-27T21:55:10Z</time>
      </trkpt>
      <trkpt lat="46.03421" lon="7.10149">
        <ele>1814</ele>
        <time>2022-08-27T21:55:11Z</time>
      </trkpt>
      <trkpt lat="46.03422" lon="7.10144">
        <ele>1814</ele>
        <time>2022-08-27T21:55:12Z</time>
      </trkpt>
      <trkpt lat="46.03422" lon="7.1014">
        <ele>1813</ele>
        <time>2022-08-27T21:55:13Z</time>
      </trkpt>
      <trkpt lat="46.03423" lon="7.10135">
        <ele>1812</ele>
        <time>2022-08-27T21:55:14Z</time>
      </trkpt>
      <trkpt lat="46.03424" lon="7.10122">
        <ele>1812</ele>
        <time>2022-08-27T21:55:19Z</time>
      </trkpt>
      <trkpt lat="46.03423" lon="7.1012">
        <ele>1812</ele>
        <time>2022-08-27T21:55:20Z</time>
      </trkpt>
      <trkpt lat="46.03423" lon="7.10118">
        <ele>1812</ele>
        <time>2022-08-27T21:55:21Z</time>
      </trkpt>
      <trkpt lat="46.03423" lon="7.10116">
        <ele>1812</ele>
        <time>2022-08-27T21:55:23Z</time>
      </trkpt>
      <trkpt lat="46.03423" lon="7.10114">
        <ele>1812</ele>
        <time>2022-08-27T21:55:24Z</time>
      </trkpt>
      <trkpt lat="46.03422" lon="7.10112">
        <ele>1812</ele>
        <time>2022-08-27T21:55:25Z</time>
      </trkpt>
      <trkpt lat="46.03422" lon="7.1011">
        <ele>1812</ele>
        <time>2022-08-27T21:55:26Z</time>
      </trkpt>
      <trkpt lat="46.03422" lon="7.10109">
        <ele>1811</ele>
        <time>2022-08-27T21:55:27Z</time>
      </trkpt>
      <trkpt lat="46.03421" lon="7.10104">
        <ele>1810</ele>
        <time>2022-08-27T21:55:28Z</time>
      </trkpt>
      <trkpt lat="46.03421" lon="7.101">
        <ele>1810</ele>
        <time>2022-08-27T21:55:29Z</time>
      </trkpt>
      <trkpt lat="46.0342" lon="7.10096">
        <ele>1810</ele>
        <time>2022-08-27T21:55:30Z</time>
      </trkpt>
      <trkpt lat="46.0342" lon="7.10094">
        <ele>1810</ele>
        <time>2022-08-27T21:55:32Z</time>
      </trkpt>
      <trkpt lat="46.0342" lon="7.10093">
        <ele>1809</ele>
        <time>2022-08-27T21:55:33Z</time>
      </trkpt>
      <trkpt lat="46.03419" lon="7.10092">
        <ele>1809</ele>
        <time>2022-08-27T21:55:34Z</time>
      </trkpt>
      <trkpt lat="46.03419" lon="7.10091">
        <ele>1809</ele>
        <time>2022-08-27T21:55:35Z</time>
      </trkpt>
      <trkpt lat="46.03416" lon="7.10078">
        <ele>1808</ele>
        <time>2022-08-27T21:55:37Z</time>
      </trkpt>
      <trkpt lat="46.03414" lon="7.10074">
        <ele>1808</ele>
        <time>2022-08-27T21:55:38Z</time>
      </trkpt>
      <trkpt lat="46.03413" lon="7.10071">
        <ele>1808</ele>
        <time>2022-08-27T21:55:39Z</time>
      </trkpt>
      <trkpt lat="46.03412" lon="7.10068">
        <ele>1808</ele>
        <time>2022-08-27T21:55:40Z</time>
      </trkpt>
      <trkpt lat="46.03411" lon="7.10065">
        <ele>1807</ele>
        <time>2022-08-27T21:55:42Z</time>
      </trkpt>
      <trkpt lat="46.0341" lon="7.10062">
        <ele>1807</ele>
        <time>2022-08-27T21:55:43Z</time>
      </trkpt>
      <trkpt lat="46.03409" lon="7.10059">
        <ele>1807</ele>
        <time>2022-08-27T21:55:44Z</time>
      </trkpt>
      <trkpt lat="46.03407" lon="7.10056">
        <ele>1807</ele>
        <time>2022-08-27T21:55:45Z</time>
      </trkpt>
      <trkpt lat="46.03407" lon="7.10054">
        <ele>1807</ele>
        <time>2022-08-27T21:55:46Z</time>
      </trkpt>
      <trkpt lat="46.03406" lon="7.10052">
        <ele>1807</ele>
        <time>2022-08-27T21:55:47Z</time>
      </trkpt>
      <trkpt lat="46.03405" lon="7.1005">
        <ele>1806</ele>
        <time>2022-08-27T21:55:48Z</time>
      </trkpt>
      <trkpt lat="46.03404" lon="7.10048">
        <ele>1806</ele>
        <time>2022-08-27T21:55:49Z</time>
      </trkpt>
      <trkpt lat="46.03403" lon="7.10046">
        <ele>1806</ele>
        <time>2022-08-27T21:55:50Z</time>
      </trkpt>
      <trkpt lat="46.03402" lon="7.10044">
        <ele>1806</ele>
        <time>2022-08-27T21:55:51Z</time>
      </trkpt>
      <trkpt lat="46.03401" lon="7.10042">
        <ele>1806</ele>
        <time>2022-08-27T21:55:52Z</time>
      </trkpt>
      <trkpt lat="46.03401" lon="7.10039">
        <ele>1805</ele>
        <time>2022-08-27T21:55:53Z</time>
      </trkpt>
      <trkpt lat="46.034" lon="7.10035">
        <ele>1804</ele>
        <time>2022-08-27T21:55:55Z</time>
      </trkpt>
      <trkpt lat="46.034" lon="7.10032">
        <ele>1804</ele>
        <time>2022-08-27T21:55:56Z</time>
      </trkpt>
      <trkpt lat="46.03399" lon="7.10029">
        <ele>1804</ele>
        <time>2022-08-27T21:55:57Z</time>
      </trkpt>
      <trkpt lat="46.034" lon="7.10027">
        <ele>1804</ele>
        <time>2022-08-27T21:55:58Z</time>
      </trkpt>
      <trkpt lat="46.034" lon="7.10026">
        <ele>1804</ele>
        <time>2022-08-27T21:55:59Z</time>
      </trkpt>
      <trkpt lat="46.034" lon="7.10024">
        <ele>1804</ele>
        <time>2022-08-27T21:56:01Z</time>
      </trkpt>
      <trkpt lat="46.034" lon="7.10023">
        <ele>1804</ele>
        <time>2022-08-27T21:56:02Z</time>
      </trkpt>
      <trkpt lat="46.034" lon="7.10021">
        <ele>1803</ele>
        <time>2022-08-27T21:56:03Z</time>
      </trkpt>
      <trkpt lat="46.03401" lon="7.10011">
        <ele>1803</ele>
        <time>2022-08-27T21:56:04Z</time>
      </trkpt>
      <trkpt lat="46.03402" lon="7.10008">
        <ele>1802</ele>
        <time>2022-08-27T21:56:06Z</time>
      </trkpt>
      <trkpt lat="46.03403" lon="7.10006">
        <ele>1802</ele>
        <time>2022-08-27T21:56:07Z</time>
      </trkpt>
      <trkpt lat="46.03404" lon="7.10003">
        <ele>1802</ele>
        <time>2022-08-27T21:56:08Z</time>
      </trkpt>
      <trkpt lat="46.03404" lon="7.1">
        <ele>1802</ele>
        <time>2022-08-27T21:56:09Z</time>
      </trkpt>
      <trkpt lat="46.03405" lon="7.09997">
        <ele>1802</ele>
        <time>2022-08-27T21:56:11Z</time>
      </trkpt>
      <trkpt lat="46.03406" lon="7.09994">
        <ele>1802</ele>
        <time>2022-08-27T21:56:12Z</time>
      </trkpt>
      <trkpt lat="46.03406" lon="7.0999">
        <ele>1802</ele>
        <time>2022-08-27T21:56:13Z</time>
      </trkpt>
      <trkpt lat="46.03407" lon="7.09987">
        <ele>1801</ele>
        <time>2022-08-27T21:56:14Z</time>
      </trkpt>
      <trkpt lat="46.03408" lon="7.09984">
        <ele>1801</ele>
        <time>2022-08-27T21:56:16Z</time>
      </trkpt>
      <trkpt lat="46.03408" lon="7.09981">
        <ele>1801</ele>
        <time>2022-08-27T21:56:17Z</time>
      </trkpt>
      <trkpt lat="46.03409" lon="7.09977">
        <ele>1800</ele>
        <time>2022-08-27T21:56:19Z</time>
      </trkpt>
      <trkpt lat="46.0341" lon="7.09974">
        <ele>1800</ele>
        <time>2022-08-27T21:56:20Z</time>
      </trkpt>
      <trkpt lat="46.0341" lon="7.09971">
        <ele>1800</ele>
        <time>2022-08-27T21:56:21Z</time>
      </trkpt>
      <trkpt lat="46.03411" lon="7.09969">
        <ele>1800</ele>
        <time>2022-08-27T21:56:22Z</time>
      </trkpt>
      <trkpt lat="46.03411" lon="7.09966">
        <ele>1799</ele>
        <time>2022-08-27T21:56:23Z</time>
      </trkpt>
      <trkpt lat="46.03412" lon="7.09964">
        <ele>1799</ele>
        <time>2022-08-27T21:56:24Z</time>
      </trkpt>
      <trkpt lat="46.03412" lon="7.09961">
        <ele>1799</ele>
        <time>2022-08-27T21:56:25Z</time>
      </trkpt>
      <trkpt lat="46.03413" lon="7.09959">
        <ele>1798</ele>
        <time>2022-08-27T21:56:26Z</time>
      </trkpt>
      <trkpt lat="46.03413" lon="7.09956">
        <ele>1797</ele>
        <time>2022-08-27T21:56:27Z</time>
      </trkpt>
      <trkpt lat="46.03413" lon="7.09953">
        <ele>1797</ele>
        <time>2022-08-27T21:56:28Z</time>
      </trkpt>
      <trkpt lat="46.03413" lon="7.0995">
        <ele>1798</ele>
        <time>2022-08-27T21:56:29Z</time>
      </trkpt>
      <trkpt lat="46.03413" lon="7.09947">
        <ele>1798</ele>
        <time>2022-08-27T21:56:30Z</time>
      </trkpt>
      <trkpt lat="46.03414" lon="7.09944">
        <ele>1798</ele>
        <time>2022-08-27T21:56:31Z</time>
      </trkpt>
      <trkpt lat="46.03415" lon="7.09941">
        <ele>1798</ele>
        <time>2022-08-27T21:56:32Z</time>
      </trkpt>
      <trkpt lat="46.03415" lon="7.09937">
        <ele>1797</ele>
        <time>2022-08-27T21:56:33Z</time>
      </trkpt>
      <trkpt lat="46.03416" lon="7.09934">
        <ele>1797</ele>
        <time>2022-08-27T21:56:35Z</time>
      </trkpt>
      <trkpt lat="46.03417" lon="7.09931">
        <ele>1797</ele>
        <time>2022-08-27T21:56:36Z</time>
      </trkpt>
      <trkpt lat="46.03418" lon="7.09927">
        <ele>1797</ele>
        <time>2022-08-27T21:56:37Z</time>
      </trkpt>
      <trkpt lat="46.03419" lon="7.09924">
        <ele>1795</ele>
        <time>2022-08-27T21:56:39Z</time>
      </trkpt>
      <trkpt lat="46.03419" lon="7.0992">
        <ele>1795</ele>
        <time>2022-08-27T21:56:40Z</time>
      </trkpt>
      <trkpt lat="46.0342" lon="7.09916">
        <ele>1796</ele>
        <time>2022-08-27T21:56:41Z</time>
      </trkpt>
      <trkpt lat="46.03421" lon="7.09913">
        <ele>1796</ele>
        <time>2022-08-27T21:56:42Z</time>
      </trkpt>
      <trkpt lat="46.03423" lon="7.09911">
        <ele>1795</ele>
        <time>2022-08-27T21:56:44Z</time>
      </trkpt>
      <trkpt lat="46.03424" lon="7.09908">
        <ele>1795</ele>
        <time>2022-08-27T21:56:45Z</time>
      </trkpt>
      <trkpt lat="46.03425" lon="7.09905">
        <ele>1795</ele>
        <time>2022-08-27T21:56:46Z</time>
      </trkpt>
      <trkpt lat="46.03426" lon="7.09902">
        <ele>1795</ele>
        <time>2022-08-27T21:56:47Z</time>
      </trkpt>
      <trkpt lat="46.03427" lon="7.099">
        <ele>1794</ele>
        <time>2022-08-27T21:56:48Z</time>
      </trkpt>
      <trkpt lat="46.03428" lon="7.09897">
        <ele>1794</ele>
        <time>2022-08-27T21:56:49Z</time>
      </trkpt>
      <trkpt lat="46.03428" lon="7.09895">
        <ele>1794</ele>
        <time>2022-08-27T21:56:50Z</time>
      </trkpt>
      <trkpt lat="46.03429" lon="7.09892">
        <ele>1794</ele>
        <time>2022-08-27T21:56:51Z</time>
      </trkpt>
      <trkpt lat="46.03429" lon="7.0989">
        <ele>1794</ele>
        <time>2022-08-27T21:56:52Z</time>
      </trkpt>
      <trkpt lat="46.0343" lon="7.09888">
        <ele>1794</ele>
        <time>2022-08-27T21:56:54Z</time>
      </trkpt>
      <trkpt lat="46.0343" lon="7.09886">
        <ele>1793</ele>
        <time>2022-08-27T21:56:55Z</time>
      </trkpt>
      <trkpt lat="46.0343" lon="7.09884">
        <ele>1793</ele>
        <time>2022-08-27T21:56:56Z</time>
      </trkpt>
      <trkpt lat="46.03431" lon="7.09882">
        <ele>1793</ele>
        <time>2022-08-27T21:56:58Z</time>
      </trkpt>
      <trkpt lat="46.03431" lon="7.0988">
        <ele>1793</ele>
        <time>2022-08-27T21:56:59Z</time>
      </trkpt>
      <trkpt lat="46.03431" lon="7.09878">
        <ele>1793</ele>
        <time>2022-08-27T21:57:00Z</time>
      </trkpt>
      <trkpt lat="46.03433" lon="7.09877">
        <ele>1793</ele>
        <time>2022-08-27T21:57:01Z</time>
      </trkpt>
      <trkpt lat="46.03434" lon="7.09876">
        <ele>1792</ele>
        <time>2022-08-27T21:57:03Z</time>
      </trkpt>
      <trkpt lat="46.03435" lon="7.09875">
        <ele>1792</ele>
        <time>2022-08-27T21:57:04Z</time>
      </trkpt>
      <trkpt lat="46.03437" lon="7.09874">
        <ele>1792</ele>
        <time>2022-08-27T21:57:05Z</time>
      </trkpt>
      <trkpt lat="46.03438" lon="7.09873">
        <ele>1792</ele>
        <time>2022-08-27T21:57:06Z</time>
      </trkpt>
      <trkpt lat="46.0344" lon="7.09872">
        <ele>1792</ele>
        <time>2022-08-27T21:57:07Z</time>
      </trkpt>
      <trkpt lat="46.03441" lon="7.09871">
        <ele>1792</ele>
        <time>2022-08-27T21:57:08Z</time>
      </trkpt>
      <trkpt lat="46.03443" lon="7.0987">
        <ele>1792</ele>
        <time>2022-08-27T21:57:09Z</time>
      </trkpt>
      <trkpt lat="46.03445" lon="7.09869">
        <ele>1791</ele>
        <time>2022-08-27T21:57:10Z</time>
      </trkpt>
      <trkpt lat="46.03447" lon="7.09868">
        <ele>1791</ele>
        <time>2022-08-27T21:57:11Z</time>
      </trkpt>
      <trkpt lat="46.03449" lon="7.09868">
        <ele>1791</ele>
        <time>2022-08-27T21:57:12Z</time>
      </trkpt>
      <trkpt lat="46.03451" lon="7.09867">
        <ele>1791</ele>
        <time>2022-08-27T21:57:13Z</time>
      </trkpt>
      <trkpt lat="46.03453" lon="7.09865">
        <ele>1790</ele>
        <time>2022-08-27T21:57:15Z</time>
      </trkpt>
      <trkpt lat="46.03456" lon="7.09863">
        <ele>1790</ele>
        <time>2022-08-27T21:57:16Z</time>
      </trkpt>
      <trkpt lat="46.03458" lon="7.09861">
        <ele>1790</ele>
        <time>2022-08-27T21:57:17Z</time>
      </trkpt>
      <trkpt lat="46.0346" lon="7.09859">
        <ele>1790</ele>
        <time>2022-08-27T21:57:18Z</time>
      </trkpt>
      <trkpt lat="46.03461" lon="7.09858">
        <ele>1790</ele>
        <time>2022-08-27T21:57:20Z</time>
      </trkpt>
      <trkpt lat="46.03462" lon="7.09857">
        <ele>1790</ele>
        <time>2022-08-27T21:57:21Z</time>
      </trkpt>
      <trkpt lat="46.03463" lon="7.09855">
        <ele>1789</ele>
        <time>2022-08-27T21:57:22Z</time>
      </trkpt>
      <trkpt lat="46.03471" lon="7.09845">
        <ele>1789</ele>
        <time>2022-08-27T21:57:24Z</time>
      </trkpt>
      <trkpt lat="46.03473" lon="7.09841">
        <ele>1788</ele>
        <time>2022-08-27T21:57:25Z</time>
      </trkpt>
      <trkpt lat="46.03475" lon="7.09838">
        <ele>1788</ele>
        <time>2022-08-27T21:57:26Z</time>
      </trkpt>
      <trkpt lat="46.03477" lon="7.09837">
        <ele>1788</ele>
        <time>2022-08-27T21:57:27Z</time>
      </trkpt>
      <trkpt lat="46.03478" lon="7.09835">
        <ele>1788</ele>
        <time>2022-08-27T21:57:29Z</time>
      </trkpt>
      <trkpt lat="46.0348" lon="7.09833">
        <ele>1788</ele>
        <time>2022-08-27T21:57:30Z</time>
      </trkpt>
      <trkpt lat="46.03482" lon="7.09831">
        <ele>1787</ele>
        <time>2022-08-27T21:57:32Z</time>
      </trkpt>
      <trkpt lat="46.03483" lon="7.0983">
        <ele>1787</ele>
        <time>2022-08-27T21:57:33Z</time>
      </trkpt>
      <trkpt lat="46.03485" lon="7.09828">
        <ele>1787</ele>
        <time>2022-08-27T21:57:34Z</time>
      </trkpt>
      <trkpt lat="46.03486" lon="7.09826">
        <ele>1787</ele>
        <time>2022-08-27T21:57:36Z</time>
      </trkpt>
      <trkpt lat="46.03487" lon="7.09824">
        <ele>1787</ele>
        <time>2022-08-27T21:57:37Z</time>
      </trkpt>
      <trkpt lat="46.03488" lon="7.09822">
        <ele>1786</ele>
        <time>2022-08-27T21:57:38Z</time>
      </trkpt>
      <trkpt lat="46.0349" lon="7.0982">
        <ele>1786</ele>
        <time>2022-08-27T21:57:39Z</time>
      </trkpt>
      <trkpt lat="46.03491" lon="7.09819">
        <ele>1785</ele>
        <time>2022-08-27T21:57:41Z</time>
      </trkpt>
      <trkpt lat="46.03492" lon="7.09817">
        <ele>1785</ele>
        <time>2022-08-27T21:57:42Z</time>
      </trkpt>
      <trkpt lat="46.03494" lon="7.09816">
        <ele>1785</ele>
        <time>2022-08-27T21:57:43Z</time>
      </trkpt>
      <trkpt lat="46.03495" lon="7.09814">
        <ele>1785</ele>
        <time>2022-08-27T21:57:44Z</time>
      </trkpt>
      <trkpt lat="46.03496" lon="7.09813">
        <ele>1784</ele>
        <time>2022-08-27T21:57:46Z</time>
      </trkpt>
      <trkpt lat="46.03497" lon="7.09811">
        <ele>1784</ele>
        <time>2022-08-27T21:57:47Z</time>
      </trkpt>
      <trkpt lat="46.03504" lon="7.09802">
        <ele>1784</ele>
        <time>2022-08-27T21:57:51Z</time>
      </trkpt>
      <trkpt lat="46.03512" lon="7.09795">
        <ele>1783</ele>
        <time>2022-08-27T21:57:55Z</time>
      </trkpt>
      <trkpt lat="46.0352" lon="7.09789">
        <ele>1782</ele>
        <time>2022-08-27T21:58:00Z</time>
      </trkpt>
      <trkpt lat="46.03522" lon="7.09787">
        <ele>1782</ele>
        <time>2022-08-27T21:58:01Z</time>
      </trkpt>
      <trkpt lat="46.03523" lon="7.09786">
        <ele>1781</ele>
        <time>2022-08-27T21:58:02Z</time>
      </trkpt>
      <trkpt lat="46.03524" lon="7.09784">
        <ele>1781</ele>
        <time>2022-08-27T21:58:03Z</time>
      </trkpt>
      <trkpt lat="46.03526" lon="7.09783">
        <ele>1781</ele>
        <time>2022-08-27T21:58:05Z</time>
      </trkpt>
      <trkpt lat="46.03527" lon="7.09781">
        <ele>1781</ele>
        <time>2022-08-27T21:58:06Z</time>
      </trkpt>
      <trkpt lat="46.03528" lon="7.0978">
        <ele>1781</ele>
        <time>2022-08-27T21:58:07Z</time>
      </trkpt>
      <trkpt lat="46.03531" lon="7.09779">
        <ele>1781</ele>
        <time>2022-08-27T21:58:08Z</time>
      </trkpt>
      <trkpt lat="46.03533" lon="7.09777">
        <ele>1781</ele>
        <time>2022-08-27T21:58:10Z</time>
      </trkpt>
      <trkpt lat="46.03536" lon="7.09776">
        <ele>1781</ele>
        <time>2022-08-27T21:58:12Z</time>
      </trkpt>
      <trkpt lat="46.03538" lon="7.09775">
        <ele>1780</ele>
        <time>2022-08-27T21:58:13Z</time>
      </trkpt>
      <trkpt lat="46.03547" lon="7.09766">
        <ele>1779</ele>
        <time>2022-08-27T21:58:18Z</time>
      </trkpt>
      <trkpt lat="46.03553" lon="7.09757">
        <ele>1778</ele>
        <time>2022-08-27T21:58:23Z</time>
      </trkpt>
      <trkpt lat="46.03555" lon="7.09754">
        <ele>1778</ele>
        <time>2022-08-27T21:58:25Z</time>
      </trkpt>
      <trkpt lat="46.03557" lon="7.09752">
        <ele>1777</ele>
        <time>2022-08-27T21:58:26Z</time>
      </trkpt>
      <trkpt lat="46.03559" lon="7.0975">
        <ele>1777</ele>
        <time>2022-08-27T21:58:28Z</time>
      </trkpt>
      <trkpt lat="46.03561" lon="7.09747">
        <ele>1777</ele>
        <time>2022-08-27T21:58:29Z</time>
      </trkpt>
      <trkpt lat="46.03562" lon="7.09745">
        <ele>1777</ele>
        <time>2022-08-27T21:58:31Z</time>
      </trkpt>
      <trkpt lat="46.03564" lon="7.09743">
        <ele>1777</ele>
        <time>2022-08-27T21:58:33Z</time>
      </trkpt>
      <trkpt lat="46.03566" lon="7.09741">
        <ele>1777</ele>
        <time>2022-08-27T21:58:34Z</time>
      </trkpt>
      <trkpt lat="46.03568" lon="7.09739">
        <ele>1777</ele>
        <time>2022-08-27T21:58:35Z</time>
      </trkpt>
      <trkpt lat="46.03569" lon="7.09738">
        <ele>1777</ele>
        <time>2022-08-27T21:58:36Z</time>
      </trkpt>
      <trkpt lat="46.0357" lon="7.09736">
        <ele>1776</ele>
        <time>2022-08-27T21:58:38Z</time>
      </trkpt>
      <trkpt lat="46.03571" lon="7.09735">
        <ele>1776</ele>
        <time>2022-08-27T21:58:39Z</time>
      </trkpt>
      <trkpt lat="46.03572" lon="7.09734">
        <ele>1776</ele>
        <time>2022-08-27T21:58:40Z</time>
      </trkpt>
      <trkpt lat="46.03573" lon="7.09733">
        <ele>1776</ele>
        <time>2022-08-27T21:58:41Z</time>
      </trkpt>
      <trkpt lat="46.03574" lon="7.09731">
        <ele>1776</ele>
        <time>2022-08-27T21:58:42Z</time>
      </trkpt>
      <trkpt lat="46.03575" lon="7.0973">
        <ele>1776</ele>
        <time>2022-08-27T21:58:43Z</time>
      </trkpt>
      <trkpt lat="46.03578" lon="7.09729">
        <ele>1776</ele>
        <time>2022-08-27T21:58:44Z</time>
      </trkpt>
      <trkpt lat="46.0358" lon="7.09727">
        <ele>1775</ele>
        <time>2022-08-27T21:58:46Z</time>
      </trkpt>
      <trkpt lat="46.03582" lon="7.09725">
        <ele>1775</ele>
        <time>2022-08-27T21:58:47Z</time>
      </trkpt>
      <trkpt lat="46.03584" lon="7.09723">
        <ele>1775</ele>
        <time>2022-08-27T21:58:48Z</time>
      </trkpt>
      <trkpt lat="46.03593" lon="7.09719">
        <ele>1773</ele>
        <time>2022-08-27T21:58:52Z</time>
      </trkpt>
      <trkpt lat="46.03603" lon="7.09712">
        <ele>1773</ele>
        <time>2022-08-27T21:58:57Z</time>
      </trkpt>
      <trkpt lat="46.03613" lon="7.09707">
        <ele>1773</ele>
        <time>2022-08-27T21:59:02Z</time>
      </trkpt>
      <trkpt lat="46.03614" lon="7.09706">
        <ele>1773</ele>
        <time>2022-08-27T21:59:03Z</time>
      </trkpt>
      <trkpt lat="46.03615" lon="7.09704">
        <ele>1773</ele>
        <time>2022-08-27T21:59:04Z</time>
      </trkpt>
      <trkpt lat="46.03616" lon="7.09703">
        <ele>1773</ele>
        <time>2022-08-27T21:59:05Z</time>
      </trkpt>
      <trkpt lat="46.03617" lon="7.09702">
        <ele>1772</ele>
        <time>2022-08-27T21:59:07Z</time>
      </trkpt>
      <trkpt lat="46.03618" lon="7.097">
        <ele>1771</ele>
        <time>2022-08-27T21:59:08Z</time>
      </trkpt>
      <trkpt lat="46.03619" lon="7.09699">
        <ele>1771</ele>
        <time>2022-08-27T21:59:09Z</time>
      </trkpt>
      <trkpt lat="46.0362" lon="7.09698">
        <ele>1771</ele>
        <time>2022-08-27T21:59:10Z</time>
      </trkpt>
      <trkpt lat="46.03621" lon="7.09695">
        <ele>1771</ele>
        <time>2022-08-27T21:59:11Z</time>
      </trkpt>
      <trkpt lat="46.03622" lon="7.09693">
        <ele>1771</ele>
        <time>2022-08-27T21:59:12Z</time>
      </trkpt>
      <trkpt lat="46.03623" lon="7.09691">
        <ele>1771</ele>
        <time>2022-08-27T21:59:13Z</time>
      </trkpt>
      <trkpt lat="46.03624" lon="7.09689">
        <ele>1770</ele>
        <time>2022-08-27T21:59:15Z</time>
      </trkpt>
      <trkpt lat="46.03625" lon="7.09687">
        <ele>1770</ele>
        <time>2022-08-27T21:59:16Z</time>
      </trkpt>
      <trkpt lat="46.03625" lon="7.09686">
        <ele>1770</ele>
        <time>2022-08-27T21:59:17Z</time>
      </trkpt>
      <trkpt lat="46.03625" lon="7.09685">
        <ele>1770</ele>
        <time>2022-08-27T21:59:18Z</time>
      </trkpt>
      <trkpt lat="46.03626" lon="7.09684">
        <ele>1770</ele>
        <time>2022-08-27T21:59:20Z</time>
      </trkpt>
      <trkpt lat="46.03626" lon="7.09683">
        <ele>1770</ele>
        <time>2022-08-27T21:59:21Z</time>
      </trkpt>
      <trkpt lat="46.03626" lon="7.09682">
        <ele>1769</ele>
        <time>2022-08-27T21:59:22Z</time>
      </trkpt>
      <trkpt lat="46.03626" lon="7.09681">
        <ele>1769</ele>
        <time>2022-08-27T21:59:23Z</time>
      </trkpt>
      <trkpt lat="46.03626" lon="7.09681">
        <ele>1769</ele>
        <time>2022-08-27T21:59:25Z</time>
      </trkpt>
      <trkpt lat="46.03626" lon="7.0968">
        <ele>1769</ele>
        <time>2022-08-27T21:59:26Z</time>
      </trkpt>
      <trkpt lat="46.03628" lon="7.0967">
        <ele>1769</ele>
        <time>2022-08-27T21:59:27Z</time>
      </trkpt>
      <trkpt lat="46.03628" lon="7.09668">
        <ele>1769</ele>
        <time>2022-08-27T21:59:28Z</time>
      </trkpt>
      <trkpt lat="46.03628" lon="7.09665">
        <ele>1768</ele>
        <time>2022-08-27T21:59:30Z</time>
      </trkpt>
      <trkpt lat="46.03628" lon="7.09662">
        <ele>1768</ele>
        <time>2022-08-27T21:59:31Z</time>
      </trkpt>
      <trkpt lat="46.03628" lon="7.0966">
        <ele>1768</ele>
        <time>2022-08-27T21:59:32Z</time>
      </trkpt>
      <trkpt lat="46.03628" lon="7.09658">
        <ele>1767</ele>
        <time>2022-08-27T21:59:33Z</time>
      </trkpt>
      <trkpt lat="46.03627" lon="7.09656">
        <ele>1767</ele>
        <time>2022-08-27T21:59:35Z</time>
      </trkpt>
      <trkpt lat="46.03627" lon="7.09653">
        <ele>1767</ele>
        <time>2022-08-27T21:59:36Z</time>
      </trkpt>
      <trkpt lat="46.03627" lon="7.09651">
        <ele>1767</ele>
        <time>2022-08-27T21:59:37Z</time>
      </trkpt>
      <trkpt lat="46.03627" lon="7.09649">
        <ele>1767</ele>
        <time>2022-08-27T21:59:38Z</time>
      </trkpt>
      <trkpt lat="46.03627" lon="7.09647">
        <ele>1767</ele>
        <time>2022-08-27T21:59:40Z</time>
      </trkpt>
      <trkpt lat="46.03627" lon="7.09645">
        <ele>1767</ele>
        <time>2022-08-27T21:59:41Z</time>
      </trkpt>
      <trkpt lat="46.03628" lon="7.09642">
        <ele>1767</ele>
        <time>2022-08-27T21:59:42Z</time>
      </trkpt>
      <trkpt lat="46.03628" lon="7.09639">
        <ele>1767</ele>
        <time>2022-08-27T21:59:43Z</time>
      </trkpt>
      <trkpt lat="46.03629" lon="7.09637">
        <ele>1767</ele>
        <time>2022-08-27T21:59:45Z</time>
      </trkpt>
      <trkpt lat="46.0363" lon="7.09634">
        <ele>1767</ele>
        <time>2022-08-27T21:59:46Z</time>
      </trkpt>
      <trkpt lat="46.0363" lon="7.09631">
        <ele>1766</ele>
        <time>2022-08-27T21:59:47Z</time>
      </trkpt>
      <trkpt lat="46.03631" lon="7.09629">
        <ele>1766</ele>
        <time>2022-08-27T21:59:48Z</time>
      </trkpt>
      <trkpt lat="46.03631" lon="7.09626">
        <ele>1766</ele>
        <time>2022-08-27T21:59:49Z</time>
      </trkpt>
      <trkpt lat="46.03631" lon="7.09624">
        <ele>1766</ele>
        <time>2022-08-27T21:59:50Z</time>
      </trkpt>
      <trkpt lat="46.03631" lon="7.09622">
        <ele>1766</ele>
        <time>2022-08-27T21:59:52Z</time>
      </trkpt>
      <trkpt lat="46.03632" lon="7.09619">
        <ele>1766</ele>
        <time>2022-08-27T21:59:53Z</time>
      </trkpt>
      <trkpt lat="46.03632" lon="7.09617">
        <ele>1766</ele>
        <time>2022-08-27T21:59:54Z</time>
      </trkpt>
      <trkpt lat="46.03634" lon="7.09616">
        <ele>1766</ele>
        <time>2022-08-27T21:59:55Z</time>
      </trkpt>
      <trkpt lat="46.03636" lon="7.09614">
        <ele>1766</ele>
        <time>2022-08-27T21:59:56Z</time>
      </trkpt>
      <trkpt lat="46.03637" lon="7.09613">
        <ele>1766</ele>
        <time>2022-08-27T21:59:57Z</time>
      </trkpt>
      <trkpt lat="46.03639" lon="7.09612">
        <ele>1765</ele>
        <time>2022-08-27T21:59:59Z</time>
      </trkpt>
      <trkpt lat="46.03641" lon="7.09611">
        <ele>1765</ele>
        <time>2022-08-27T22:00:00Z</time>
      </trkpt>
      <trkpt lat="46.03645" lon="7.0961">
        <ele>1765</ele>
        <time>2022-08-27T22:00:01Z</time>
      </trkpt>
      <trkpt lat="46.03649" lon="7.09609">
        <ele>1765</ele>
        <time>2022-08-27T22:00:02Z</time>
      </trkpt>
      <trkpt lat="46.03654" lon="7.09608">
        <ele>1765</ele>
        <time>2022-08-27T22:00:07Z</time>
      </trkpt>
      <trkpt lat="46.03658" lon="7.09607">
        <ele>1765</ele>
        <time>2022-08-27T22:00:08Z</time>
      </trkpt>
      <trkpt lat="46.03668" lon="7.09602">
        <ele>1765</ele>
        <time>2022-08-27T22:00:13Z</time>
      </trkpt>
      <trkpt lat="46.0367" lon="7.09602">
        <ele>1765</ele>
        <time>2022-08-27T22:00:14Z</time>
      </trkpt>
      <trkpt lat="46.03672" lon="7.09601">
        <ele>1765</ele>
        <time>2022-08-27T22:00:15Z</time>
      </trkpt>
      <trkpt lat="46.03674" lon="7.096">
        <ele>1765</ele>
        <time>2022-08-27T22:00:16Z</time>
      </trkpt>
      <trkpt lat="46.03676" lon="7.096">
        <ele>1765</ele>
        <time>2022-08-27T22:00:18Z</time>
      </trkpt>
      <trkpt lat="46.03678" lon="7.09599">
        <ele>1765</ele>
        <time>2022-08-27T22:00:19Z</time>
      </trkpt>
      <trkpt lat="46.03688" lon="7.09599">
        <ele>1765</ele>
        <time>2022-08-27T22:00:26Z</time>
      </trkpt>
      <trkpt lat="46.03691" lon="7.09598">
        <ele>1765</ele>
        <time>2022-08-27T22:00:27Z</time>
      </trkpt>
      <trkpt lat="46.03693" lon="7.09597">
        <ele>1765</ele>
        <time>2022-08-27T22:00:28Z</time>
      </trkpt>
      <trkpt lat="46.03696" lon="7.09596">
        <ele>1765</ele>
        <time>2022-08-27T22:00:30Z</time>
      </trkpt>
      <trkpt lat="46.03698" lon="7.09595">
        <ele>1765</ele>
        <time>2022-08-27T22:00:31Z</time>
      </trkpt>
      <trkpt lat="46.037" lon="7.09594">
        <ele>1765</ele>
        <time>2022-08-27T22:00:32Z</time>
      </trkpt>
      <trkpt lat="46.03701" lon="7.09594">
        <ele>1765</ele>
        <time>2022-08-27T22:00:33Z</time>
      </trkpt>
      <trkpt lat="46.03703" lon="7.09594">
        <ele>1765</ele>
        <time>2022-08-27T22:00:35Z</time>
      </trkpt>
      <trkpt lat="46.03704" lon="7.09593">
        <ele>1764</ele>
        <time>2022-08-27T22:00:36Z</time>
      </trkpt>
      <trkpt lat="46.03706" lon="7.09593">
        <ele>1764</ele>
        <time>2022-08-27T22:00:37Z</time>
      </trkpt>
      <trkpt lat="46.03708" lon="7.09593">
        <ele>1764</ele>
        <time>2022-08-27T22:00:38Z</time>
      </trkpt>
      <trkpt lat="46.03718" lon="7.0959">
        <ele>1764</ele>
        <time>2022-08-27T22:00:45Z</time>
      </trkpt>
      <trkpt lat="46.03719" lon="7.0959">
        <ele>1764</ele>
        <time>2022-08-27T22:00:46Z</time>
      </trkpt>
      <trkpt lat="46.0372" lon="7.0959">
        <ele>1764</ele>
        <time>2022-08-27T22:00:47Z</time>
      </trkpt>
      <trkpt lat="46.03722" lon="7.0959">
        <ele>1764</ele>
        <time>2022-08-27T22:00:49Z</time>
      </trkpt>
      <trkpt lat="46.03723" lon="7.0959">
        <ele>1764</ele>
        <time>2022-08-27T22:00:50Z</time>
      </trkpt>
      <trkpt lat="46.03725" lon="7.0959">
        <ele>1764</ele>
        <time>2022-08-27T22:00:51Z</time>
      </trkpt>
      <trkpt lat="46.03726" lon="7.0959">
        <ele>1764</ele>
        <time>2022-08-27T22:00:52Z</time>
      </trkpt>
      <trkpt lat="46.03728" lon="7.0959">
        <ele>1764</ele>
        <time>2022-08-27T22:00:53Z</time>
      </trkpt>
      <trkpt lat="46.0373" lon="7.09589">
        <ele>1764</ele>
        <time>2022-08-27T22:00:54Z</time>
      </trkpt>
      <trkpt lat="46.03732" lon="7.09589">
        <ele>1764</ele>
        <time>2022-08-27T22:00:55Z</time>
      </trkpt>
      <trkpt lat="46.03734" lon="7.09589">
        <ele>1764</ele>
        <time>2022-08-27T22:00:56Z</time>
      </trkpt>
      <trkpt lat="46.03736" lon="7.09589">
        <ele>1764</ele>
        <time>2022-08-27T22:00:58Z</time>
      </trkpt>
      <trkpt lat="46.03738" lon="7.09589">
        <ele>1764</ele>
        <time>2022-08-27T22:00:59Z</time>
      </trkpt>
      <trkpt lat="46.03739" lon="7.09588">
        <ele>1764</ele>
        <time>2022-08-27T22:01:00Z</time>
      </trkpt>
      <trkpt lat="46.0374" lon="7.09587">
        <ele>1764</ele>
        <time>2022-08-27T22:01:01Z</time>
      </trkpt>
      <trkpt lat="46.03741" lon="7.09586">
        <ele>1764</ele>
        <time>2022-08-27T22:01:03Z</time>
      </trkpt>
      <trkpt lat="46.03743" lon="7.09585">
        <ele>1764</ele>
        <time>2022-08-27T22:01:04Z</time>
      </trkpt>
      <trkpt lat="46.03744" lon="7.09584">
        <ele>1764</ele>
        <time>2022-08-27T22:01:06Z</time>
      </trkpt>
      <trkpt lat="46.03745" lon="7.09583">
        <ele>1764</ele>
        <time>2022-08-27T22:01:07Z</time>
      </trkpt>
      <trkpt lat="46.03746" lon="7.09582">
        <ele>1764</ele>
        <time>2022-08-27T22:01:08Z</time>
      </trkpt>
      <trkpt lat="46.03748" lon="7.09581">
        <ele>1763</ele>
        <time>2022-08-27T22:01:09Z</time>
      </trkpt>
      <trkpt lat="46.0375" lon="7.0958">
        <ele>1763</ele>
        <time>2022-08-27T22:01:11Z</time>
      </trkpt>
      <trkpt lat="46.03752" lon="7.09579">
        <ele>1763</ele>
        <time>2022-08-27T22:01:12Z</time>
      </trkpt>
      <trkpt lat="46.03754" lon="7.09578">
        <ele>1763</ele>
        <time>2022-08-27T22:01:13Z</time>
      </trkpt>
      <trkpt lat="46.03756" lon="7.09577">
        <ele>1763</ele>
        <time>2022-08-27T22:01:14Z</time>
      </trkpt>
      <trkpt lat="46.03757" lon="7.09577">
        <ele>1763</ele>
        <time>2022-08-27T22:01:16Z</time>
      </trkpt>
      <trkpt lat="46.03758" lon="7.09576">
        <ele>1763</ele>
        <time>2022-08-27T22:01:18Z</time>
      </trkpt>
      <trkpt lat="46.0376" lon="7.09576">
        <ele>1763</ele>
        <time>2022-08-27T22:01:19Z</time>
      </trkpt>
      <trkpt lat="46.03761" lon="7.09575">
        <ele>1763</ele>
        <time>2022-08-27T22:01:20Z</time>
      </trkpt>
      <trkpt lat="46.03768" lon="7.09571">
        <ele>1763</ele>
        <time>2022-08-27T22:01:21Z</time>
      </trkpt>
      <trkpt lat="46.03771" lon="7.09569">
        <ele>1763</ele>
        <time>2022-08-27T22:01:23Z</time>
      </trkpt>
      <trkpt lat="46.03773" lon="7.09567">
        <ele>1763</ele>
        <time>2022-08-27T22:01:24Z</time>
      </trkpt>
      <trkpt lat="46.03775" lon="7.09565">
        <ele>1762</ele>
        <time>2022-08-27T22:01:25Z</time>
      </trkpt>
      <trkpt lat="46.03777" lon="7.09563">
        <ele>1762</ele>
        <time>2022-08-27T22:01:26Z</time>
      </trkpt>
      <trkpt lat="46.03778" lon="7.09562">
        <ele>1762</ele>
        <time>2022-08-27T22:01:27Z</time>
      </trkpt>
      <trkpt lat="46.03779" lon="7.0956">
        <ele>1762</ele>
        <time>2022-08-27T22:01:28Z</time>
      </trkpt>
      <trkpt lat="46.03781" lon="7.09559">
        <ele>1762</ele>
        <time>2022-08-27T22:01:29Z</time>
      </trkpt>
      <trkpt lat="46.03782" lon="7.09557">
        <ele>1762</ele>
        <time>2022-08-27T22:01:30Z</time>
      </trkpt>
      <trkpt lat="46.03783" lon="7.09557">
        <ele>1762</ele>
        <time>2022-08-27T22:01:31Z</time>
      </trkpt>
      <trkpt lat="46.03784" lon="7.09556">
        <ele>1762</ele>
        <time>2022-08-27T22:01:32Z</time>
      </trkpt>
      <trkpt lat="46.03785" lon="7.09556">
        <ele>1762</ele>
        <time>2022-08-27T22:01:33Z</time>
      </trkpt>
      <trkpt lat="46.03786" lon="7.09556">
        <ele>1762</ele>
        <time>2022-08-27T22:01:35Z</time>
      </trkpt>
      <trkpt lat="46.03787" lon="7.09555">
        <ele>1762</ele>
        <time>2022-08-27T22:01:36Z</time>
      </trkpt>
      <trkpt lat="46.03788" lon="7.09555">
        <ele>1762</ele>
        <time>2022-08-27T22:01:37Z</time>
      </trkpt>
      <trkpt lat="46.03794" lon="7.09551">
        <ele>1762</ele>
        <time>2022-08-27T22:01:38Z</time>
      </trkpt>
      <trkpt lat="46.03796" lon="7.0955">
        <ele>1762</ele>
        <time>2022-08-27T22:01:40Z</time>
      </trkpt>
      <trkpt lat="46.03797" lon="7.09549">
        <ele>1762</ele>
        <time>2022-08-27T22:01:42Z</time>
      </trkpt>
      <trkpt lat="46.03799" lon="7.09547">
        <ele>1761</ele>
        <time>2022-08-27T22:01:43Z</time>
      </trkpt>
      <trkpt lat="46.038" lon="7.09546">
        <ele>1760</ele>
        <time>2022-08-27T22:01:44Z</time>
      </trkpt>
      <trkpt lat="46.03801" lon="7.09545">
        <ele>1760</ele>
        <time>2022-08-27T22:01:45Z</time>
      </trkpt>
      <trkpt lat="46.03802" lon="7.09545">
        <ele>1760</ele>
        <time>2022-08-27T22:01:47Z</time>
      </trkpt>
      <trkpt lat="46.03804" lon="7.09545">
        <ele>1760</ele>
        <time>2022-08-27T22:01:48Z</time>
      </trkpt>
      <trkpt lat="46.03805" lon="7.09544">
        <ele>1760</ele>
        <time>2022-08-27T22:01:49Z</time>
      </trkpt>
      <trkpt lat="46.03806" lon="7.09544">
        <ele>1760</ele>
        <time>2022-08-27T22:01:50Z</time>
      </trkpt>
      <trkpt lat="46.03807" lon="7.09543">
        <ele>1760</ele>
        <time>2022-08-27T22:01:52Z</time>
      </trkpt>
      <trkpt lat="46.03808" lon="7.09543">
        <ele>1760</ele>
        <time>2022-08-27T22:01:53Z</time>
      </trkpt>
      <trkpt lat="46.03809" lon="7.09543">
        <ele>1760</ele>
        <time>2022-08-27T22:01:54Z</time>
      </trkpt>
      <trkpt lat="46.03811" lon="7.09541">
        <ele>1760</ele>
        <time>2022-08-27T22:01:55Z</time>
      </trkpt>
      <trkpt lat="46.03812" lon="7.0954">
        <ele>1760</ele>
        <time>2022-08-27T22:01:56Z</time>
      </trkpt>
      <trkpt lat="46.03814" lon="7.09539">
        <ele>1759</ele>
        <time>2022-08-27T22:01:57Z</time>
      </trkpt>
      <trkpt lat="46.03815" lon="7.09538">
        <ele>1759</ele>
        <time>2022-08-27T22:01:59Z</time>
      </trkpt>
      <trkpt lat="46.03816" lon="7.09536">
        <ele>1759</ele>
        <time>2022-08-27T22:02:00Z</time>
      </trkpt>
      <trkpt lat="46.03818" lon="7.09535">
        <ele>1759</ele>
        <time>2022-08-27T22:02:01Z</time>
      </trkpt>
      <trkpt lat="46.03819" lon="7.09534">
        <ele>1758</ele>
        <time>2022-08-27T22:02:03Z</time>
      </trkpt>
      <trkpt lat="46.0382" lon="7.09533">
        <ele>1758</ele>
        <time>2022-08-27T22:02:04Z</time>
      </trkpt>
      <trkpt lat="46.03822" lon="7.09531">
        <ele>1758</ele>
        <time>2022-08-27T22:02:05Z</time>
      </trkpt>
      <trkpt lat="46.03823" lon="7.0953">
        <ele>1758</ele>
        <time>2022-08-27T22:02:06Z</time>
      </trkpt>
      <trkpt lat="46.03824" lon="7.09529">
        <ele>1758</ele>
        <time>2022-08-27T22:02:08Z</time>
      </trkpt>
      <trkpt lat="46.03826" lon="7.09528">
        <ele>1758</ele>
        <time>2022-08-27T22:02:09Z</time>
      </trkpt>
      <trkpt lat="46.03826" lon="7.09527">
        <ele>1758</ele>
        <time>2022-08-27T22:02:10Z</time>
      </trkpt>
      <trkpt lat="46.03827" lon="7.09527">
        <ele>1758</ele>
        <time>2022-08-27T22:02:11Z</time>
      </trkpt>
      <trkpt lat="46.03827" lon="7.09527">
        <ele>1758</ele>
        <time>2022-08-27T22:02:13Z</time>
      </trkpt>
      <trkpt lat="46.03828" lon="7.09526">
        <ele>1758</ele>
        <time>2022-08-27T22:02:14Z</time>
      </trkpt>
      <trkpt lat="46.03828" lon="7.09526">
        <ele>1758</ele>
        <time>2022-08-27T22:02:15Z</time>
      </trkpt>
      <trkpt lat="46.03829" lon="7.09526">
        <ele>1758</ele>
        <time>2022-08-27T22:02:16Z</time>
      </trkpt>
      <trkpt lat="46.03838" lon="7.0952">
        <ele>1756</ele>
        <time>2022-08-27T22:02:18Z</time>
      </trkpt>
      <trkpt lat="46.03841" lon="7.09518">
        <ele>1756</ele>
        <time>2022-08-27T22:02:20Z</time>
      </trkpt>
      <trkpt lat="46.03844" lon="7.09516">
        <ele>1756</ele>
        <time>2022-08-27T22:02:21Z</time>
      </trkpt>
      <trkpt lat="46.03845" lon="7.09515">
        <ele>1756</ele>
        <time>2022-08-27T22:02:22Z</time>
      </trkpt>
      <trkpt lat="46.03846" lon="7.09514">
        <ele>1756</ele>
        <time>2022-08-27T22:02:24Z</time>
      </trkpt>
      <trkpt lat="46.03847" lon="7.09513">
        <ele>1756</ele>
        <time>2022-08-27T22:02:25Z</time>
      </trkpt>
      <trkpt lat="46.03848" lon="7.09512">
        <ele>1755</ele>
        <time>2022-08-27T22:02:26Z</time>
      </trkpt>
      <trkpt lat="46.03854" lon="7.09506">
        <ele>1755</ele>
        <time>2022-08-27T22:02:27Z</time>
      </trkpt>
      <trkpt lat="46.03856" lon="7.09504">
        <ele>1755</ele>
        <time>2022-08-27T22:02:29Z</time>
      </trkpt>
      <trkpt lat="46.03857" lon="7.09502">
        <ele>1755</ele>
        <time>2022-08-27T22:02:30Z</time>
      </trkpt>
      <trkpt lat="46.03859" lon="7.095">
        <ele>1755</ele>
        <time>2022-08-27T22:02:31Z</time>
      </trkpt>
      <trkpt lat="46.0386" lon="7.09498">
        <ele>1754</ele>
        <time>2022-08-27T22:02:32Z</time>
      </trkpt>
      <trkpt lat="46.03862" lon="7.09497">
        <ele>1754</ele>
        <time>2022-08-27T22:02:33Z</time>
      </trkpt>
      <trkpt lat="46.03864" lon="7.09496">
        <ele>1754</ele>
        <time>2022-08-27T22:02:34Z</time>
      </trkpt>
      <trkpt lat="46.03866" lon="7.09495">
        <ele>1754</ele>
        <time>2022-08-27T22:02:35Z</time>
      </trkpt>
      <trkpt lat="46.03868" lon="7.09494">
        <ele>1754</ele>
        <time>2022-08-27T22:02:36Z</time>
      </trkpt>
      <trkpt lat="46.0387" lon="7.09492">
        <ele>1753</ele>
        <time>2022-08-27T22:02:37Z</time>
      </trkpt>
      <trkpt lat="46.03872" lon="7.09491">
        <ele>1753</ele>
        <time>2022-08-27T22:02:39Z</time>
      </trkpt>
      <trkpt lat="46.03875" lon="7.09489">
        <ele>1752</ele>
        <time>2022-08-27T22:02:40Z</time>
      </trkpt>
      <trkpt lat="46.03878" lon="7.09487">
        <ele>1751</ele>
        <time>2022-08-27T22:02:41Z</time>
      </trkpt>
      <trkpt lat="46.03879" lon="7.09486">
        <ele>1752</ele>
        <time>2022-08-27T22:02:43Z</time>
      </trkpt>
      <trkpt lat="46.0388" lon="7.09484">
        <ele>1752</ele>
        <time>2022-08-27T22:02:44Z</time>
      </trkpt>
      <trkpt lat="46.03882" lon="7.09483">
        <ele>1752</ele>
        <time>2022-08-27T22:02:45Z</time>
      </trkpt>
      <trkpt lat="46.03883" lon="7.09482">
        <ele>1752</ele>
        <time>2022-08-27T22:02:46Z</time>
      </trkpt>
      <trkpt lat="46.03884" lon="7.09481">
        <ele>1752</ele>
        <time>2022-08-27T22:02:47Z</time>
      </trkpt>
      <trkpt lat="46.03886" lon="7.09479">
        <ele>1752</ele>
        <time>2022-08-27T22:02:48Z</time>
      </trkpt>
      <trkpt lat="46.03887" lon="7.09478">
        <ele>1752</ele>
        <time>2022-08-27T22:02:49Z</time>
      </trkpt>
      <trkpt lat="46.03889" lon="7.09476">
        <ele>1752</ele>
        <time>2022-08-27T22:02:50Z</time>
      </trkpt>
      <trkpt lat="46.03891" lon="7.09474">
        <ele>1752</ele>
        <time>2022-08-27T22:02:51Z</time>
      </trkpt>
      <trkpt lat="46.03892" lon="7.09473">
        <ele>1752</ele>
        <time>2022-08-27T22:02:52Z</time>
      </trkpt>
      <trkpt lat="46.03894" lon="7.09471">
        <ele>1751</ele>
        <time>2022-08-27T22:02:53Z</time>
      </trkpt>
      <trkpt lat="46.03903" lon="7.09467">
        <ele>1751</ele>
        <time>2022-08-27T22:02:56Z</time>
      </trkpt>
      <trkpt lat="46.03904" lon="7.09466">
        <ele>1750</ele>
        <time>2022-08-27T22:03:00Z</time>
      </trkpt>
      <trkpt lat="46.03906" lon="7.09464">
        <ele>1750</ele>
        <time>2022-08-27T22:03:01Z</time>
      </trkpt>
      <trkpt lat="46.03907" lon="7.09463">
        <ele>1750</ele>
        <time>2022-08-27T22:03:02Z</time>
      </trkpt>
      <trkpt lat="46.03913" lon="7.09458">
        <ele>1750</ele>
        <time>2022-08-27T22:03:03Z</time>
      </trkpt>
      <trkpt lat="46.03914" lon="7.09457">
        <ele>1750</ele>
        <time>2022-08-27T22:03:05Z</time>
      </trkpt>
      <trkpt lat="46.03915" lon="7.09456">
        <ele>1750</ele>
        <time>2022-08-27T22:03:06Z</time>
      </trkpt>
      <trkpt lat="46.03917" lon="7.09454">
        <ele>1749</ele>
        <time>2022-08-27T22:03:07Z</time>
      </trkpt>
      <trkpt lat="46.03922" lon="7.0945">
        <ele>1749</ele>
        <time>2022-08-27T22:03:08Z</time>
      </trkpt>
      <trkpt lat="46.03931" lon="7.09445">
        <ele>1749</ele>
        <time>2022-08-27T22:03:12Z</time>
      </trkpt>
      <trkpt lat="46.03932" lon="7.09444">
        <ele>1749</ele>
        <time>2022-08-27T22:03:13Z</time>
      </trkpt>
      <trkpt lat="46.03933" lon="7.09443">
        <ele>1749</ele>
        <time>2022-08-27T22:03:14Z</time>
      </trkpt>
      <trkpt lat="46.03934" lon="7.09442">
        <ele>1748</ele>
        <time>2022-08-27T22:03:15Z</time>
      </trkpt>
      <trkpt lat="46.03935" lon="7.09441">
        <ele>1748</ele>
        <time>2022-08-27T22:03:17Z</time>
      </trkpt>
      <trkpt lat="46.03937" lon="7.09439">
        <ele>1748</ele>
        <time>2022-08-27T22:03:18Z</time>
      </trkpt>
      <trkpt lat="46.03938" lon="7.09438">
        <ele>1748</ele>
        <time>2022-08-27T22:03:19Z</time>
      </trkpt>
      <trkpt lat="46.03939" lon="7.09437">
        <ele>1748</ele>
        <time>2022-08-27T22:03:20Z</time>
      </trkpt>
      <trkpt lat="46.03941" lon="7.09436">
        <ele>1748</ele>
        <time>2022-08-27T22:03:22Z</time>
      </trkpt>
      <trkpt lat="46.03943" lon="7.09435">
        <ele>1748</ele>
        <time>2022-08-27T22:03:24Z</time>
      </trkpt>
      <trkpt lat="46.03944" lon="7.09433">
        <ele>1748</ele>
        <time>2022-08-27T22:03:25Z</time>
      </trkpt>
      <trkpt lat="46.03946" lon="7.09432">
        <ele>1748</ele>
        <time>2022-08-27T22:03:26Z</time>
      </trkpt>
      <trkpt lat="46.03948" lon="7.09431">
        <ele>1747</ele>
        <time>2022-08-27T22:03:27Z</time>
      </trkpt>
      <trkpt lat="46.03948" lon="7.0943">
        <ele>1747</ele>
        <time>2022-08-27T22:03:28Z</time>
      </trkpt>
      <trkpt lat="46.03949" lon="7.0943">
        <ele>1747</ele>
        <time>2022-08-27T22:03:29Z</time>
      </trkpt>
      <trkpt lat="46.0395" lon="7.0943">
        <ele>1747</ele>
        <time>2022-08-27T22:03:30Z</time>
      </trkpt>
      <trkpt lat="46.0395" lon="7.09429">
        <ele>1746</ele>
        <time>2022-08-27T22:03:32Z</time>
      </trkpt>
      <trkpt lat="46.03951" lon="7.09429">
        <ele>1746</ele>
        <time>2022-08-27T22:03:33Z</time>
      </trkpt>
      <trkpt lat="46.03951" lon="7.09429">
        <ele>1746</ele>
        <time>2022-08-27T22:03:34Z</time>
      </trkpt>
      <trkpt lat="46.03959" lon="7.09423">
        <ele>1746</ele>
        <time>2022-08-27T22:03:36Z</time>
      </trkpt>
      <trkpt lat="46.0396" lon="7.09422">
        <ele>1746</ele>
        <time>2022-08-27T22:03:37Z</time>
      </trkpt>
      <trkpt lat="46.03962" lon="7.09421">
        <ele>1746</ele>
        <time>2022-08-27T22:03:38Z</time>
      </trkpt>
      <trkpt lat="46.03963" lon="7.0942">
        <ele>1746</ele>
        <time>2022-08-27T22:03:40Z</time>
      </trkpt>
      <trkpt lat="46.03964" lon="7.09418">
        <ele>1746</ele>
        <time>2022-08-27T22:03:41Z</time>
      </trkpt>
      <trkpt lat="46.03966" lon="7.09417">
        <ele>1746</ele>
        <time>2022-08-27T22:03:42Z</time>
      </trkpt>
      <trkpt lat="46.03967" lon="7.09416">
        <ele>1746</ele>
        <time>2022-08-27T22:03:43Z</time>
      </trkpt>
      <trkpt lat="46.03969" lon="7.09414">
        <ele>1745</ele>
        <time>2022-08-27T22:03:45Z</time>
      </trkpt>
      <trkpt lat="46.0397" lon="7.09413">
        <ele>1745</ele>
        <time>2022-08-27T22:03:46Z</time>
      </trkpt>
      <trkpt lat="46.03972" lon="7.09412">
        <ele>1745</ele>
        <time>2022-08-27T22:03:47Z</time>
      </trkpt>
      <trkpt lat="46.03973" lon="7.0941">
        <ele>1745</ele>
        <time>2022-08-27T22:03:48Z</time>
      </trkpt>
      <trkpt lat="46.03976" lon="7.09408">
        <ele>1745</ele>
        <time>2022-08-27T22:03:50Z</time>
      </trkpt>
      <trkpt lat="46.03978" lon="7.09405">
        <ele>1745</ele>
        <time>2022-08-27T22:03:51Z</time>
      </trkpt>
      <trkpt lat="46.0398" lon="7.09402">
        <ele>1745</ele>
        <time>2022-08-27T22:03:52Z</time>
      </trkpt>
      <trkpt lat="46.03982" lon="7.09401">
        <ele>1744</ele>
        <time>2022-08-27T22:03:53Z</time>
      </trkpt>
      <trkpt lat="46.03983" lon="7.094">
        <ele>1744</ele>
        <time>2022-08-27T22:03:55Z</time>
      </trkpt>
      <trkpt lat="46.03985" lon="7.09399">
        <ele>1744</ele>
        <time>2022-08-27T22:03:57Z</time>
      </trkpt>
      <trkpt lat="46.03986" lon="7.09398">
        <ele>1744</ele>
        <time>2022-08-27T22:03:58Z</time>
      </trkpt>
      <trkpt lat="46.03988" lon="7.09397">
        <ele>1744</ele>
        <time>2022-08-27T22:03:59Z</time>
      </trkpt>
      <trkpt lat="46.03989" lon="7.09395">
        <ele>1744</ele>
        <time>2022-08-27T22:04:00Z</time>
      </trkpt>
      <trkpt lat="46.0399" lon="7.09395">
        <ele>1744</ele>
        <time>2022-08-27T22:04:01Z</time>
      </trkpt>
      <trkpt lat="46.03991" lon="7.09394">
        <ele>1744</ele>
        <time>2022-08-27T22:04:02Z</time>
      </trkpt>
      <trkpt lat="46.03992" lon="7.09393">
        <ele>1743</ele>
        <time>2022-08-27T22:04:04Z</time>
      </trkpt>
      <trkpt lat="46.03993" lon="7.09392">
        <ele>1743</ele>
        <time>2022-08-27T22:04:05Z</time>
      </trkpt>
      <trkpt lat="46.03994" lon="7.09391">
        <ele>1743</ele>
        <time>2022-08-27T22:04:06Z</time>
      </trkpt>
      <trkpt lat="46.03995" lon="7.0939">
        <ele>1743</ele>
        <time>2022-08-27T22:04:07Z</time>
      </trkpt>
      <trkpt lat="46.03996" lon="7.09389">
        <ele>1743</ele>
        <time>2022-08-27T22:04:08Z</time>
      </trkpt>
      <trkpt lat="46.03997" lon="7.09388">
        <ele>1743</ele>
        <time>2022-08-27T22:04:09Z</time>
      </trkpt>
      <trkpt lat="46.03998" lon="7.09386">
        <ele>1743</ele>
        <time>2022-08-27T22:04:10Z</time>
      </trkpt>
      <trkpt lat="46.03998" lon="7.09384">
        <ele>1743</ele>
        <time>2022-08-27T22:04:11Z</time>
      </trkpt>
      <trkpt lat="46.03999" lon="7.09382">
        <ele>1743</ele>
        <time>2022-08-27T22:04:12Z</time>
      </trkpt>
      <trkpt lat="46.04" lon="7.0938">
        <ele>1744</ele>
        <time>2022-08-27T22:04:14Z</time>
      </trkpt>
      <trkpt lat="46.04001" lon="7.09378">
        <ele>1744</ele>
        <time>2022-08-27T22:04:15Z</time>
      </trkpt>
      <trkpt lat="46.04002" lon="7.09376">
        <ele>1744</ele>
        <time>2022-08-27T22:04:16Z</time>
      </trkpt>
      <trkpt lat="46.04002" lon="7.09374">
        <ele>1744</ele>
        <time>2022-08-27T22:04:17Z</time>
      </trkpt>
      <trkpt lat="46.04002" lon="7.09372">
        <ele>1744</ele>
        <time>2022-08-27T22:04:18Z</time>
      </trkpt>
      <trkpt lat="46.04003" lon="7.0937">
        <ele>1744</ele>
        <time>2022-08-27T22:04:19Z</time>
      </trkpt>
      <trkpt lat="46.04003" lon="7.09368">
        <ele>1744</ele>
        <time>2022-08-27T22:04:21Z</time>
      </trkpt>
      <trkpt lat="46.04003" lon="7.09367">
        <ele>1743</ele>
        <time>2022-08-27T22:04:22Z</time>
      </trkpt>
      <trkpt lat="46.04003" lon="7.09365">
        <ele>1743</ele>
        <time>2022-08-27T22:04:23Z</time>
      </trkpt>
      <trkpt lat="46.04004" lon="7.09363">
        <ele>1743</ele>
        <time>2022-08-27T22:04:24Z</time>
      </trkpt>
      <trkpt lat="46.04004" lon="7.09361">
        <ele>1743</ele>
        <time>2022-08-27T22:04:26Z</time>
      </trkpt>
      <trkpt lat="46.04004" lon="7.09358">
        <ele>1742</ele>
        <time>2022-08-27T22:04:27Z</time>
      </trkpt>
      <trkpt lat="46.04004" lon="7.09356">
        <ele>1742</ele>
        <time>2022-08-27T22:04:28Z</time>
      </trkpt>
      <trkpt lat="46.04004" lon="7.09354">
        <ele>1742</ele>
        <time>2022-08-27T22:04:29Z</time>
      </trkpt>
      <trkpt lat="46.04004" lon="7.09352">
        <ele>1742</ele>
        <time>2022-08-27T22:04:30Z</time>
      </trkpt>
      <trkpt lat="46.04005" lon="7.0935">
        <ele>1742</ele>
        <time>2022-08-27T22:04:31Z</time>
      </trkpt>
      <trkpt lat="46.04005" lon="7.09348">
        <ele>1742</ele>
        <time>2022-08-27T22:04:33Z</time>
      </trkpt>
      <trkpt lat="46.04006" lon="7.09347">
        <ele>1742</ele>
        <time>2022-08-27T22:04:34Z</time>
      </trkpt>
      <trkpt lat="46.04006" lon="7.09345">
        <ele>1742</ele>
        <time>2022-08-27T22:04:35Z</time>
      </trkpt>
      <trkpt lat="46.04007" lon="7.09344">
        <ele>1742</ele>
        <time>2022-08-27T22:04:37Z</time>
      </trkpt>
      <trkpt lat="46.04007" lon="7.09342">
        <ele>1742</ele>
        <time>2022-08-27T22:04:38Z</time>
      </trkpt>
      <trkpt lat="46.04008" lon="7.09341">
        <ele>1742</ele>
        <time>2022-08-27T22:04:39Z</time>
      </trkpt>
      <trkpt lat="46.04008" lon="7.0934">
        <ele>1742</ele>
        <time>2022-08-27T22:04:40Z</time>
      </trkpt>
      <trkpt lat="46.04009" lon="7.09338">
        <ele>1742</ele>
        <time>2022-08-27T22:04:41Z</time>
      </trkpt>
      <trkpt lat="46.0401" lon="7.09337">
        <ele>1742</ele>
        <time>2022-08-27T22:04:42Z</time>
      </trkpt>
      <trkpt lat="46.04011" lon="7.09332">
        <ele>1742</ele>
        <time>2022-08-27T22:04:43Z</time>
      </trkpt>
      <trkpt lat="46.04012" lon="7.09328">
        <ele>1741</ele>
        <time>2022-08-27T22:04:45Z</time>
      </trkpt>
      <trkpt lat="46.04013" lon="7.09324">
        <ele>1741</ele>
        <time>2022-08-27T22:04:46Z</time>
      </trkpt>
      <trkpt lat="46.04014" lon="7.09322">
        <ele>1741</ele>
        <time>2022-08-27T22:04:47Z</time>
      </trkpt>
      <trkpt lat="46.04014" lon="7.09319">
        <ele>1741</ele>
        <time>2022-08-27T22:04:48Z</time>
      </trkpt>
      <trkpt lat="46.04015" lon="7.09317">
        <ele>1741</ele>
        <time>2022-08-27T22:04:50Z</time>
      </trkpt>
      <trkpt lat="46.04015" lon="7.09314">
        <ele>1741</ele>
        <time>2022-08-27T22:04:51Z</time>
      </trkpt>
      <trkpt lat="46.04016" lon="7.09311">
        <ele>1741</ele>
        <time>2022-08-27T22:04:52Z</time>
      </trkpt>
      <trkpt lat="46.04018" lon="7.09309">
        <ele>1741</ele>
        <time>2022-08-27T22:04:53Z</time>
      </trkpt>
      <trkpt lat="46.0402" lon="7.09306">
        <ele>1741</ele>
        <time>2022-08-27T22:04:54Z</time>
      </trkpt>
      <trkpt lat="46.04022" lon="7.09303">
        <ele>1741</ele>
        <time>2022-08-27T22:04:55Z</time>
      </trkpt>
      <trkpt lat="46.04024" lon="7.09301">
        <ele>1741</ele>
        <time>2022-08-27T22:04:57Z</time>
      </trkpt>
      <trkpt lat="46.04025" lon="7.093">
        <ele>1741</ele>
        <time>2022-08-27T22:04:58Z</time>
      </trkpt>
      <trkpt lat="46.04026" lon="7.09298">
        <ele>1741</ele>
        <time>2022-08-27T22:04:59Z</time>
      </trkpt>
      <trkpt lat="46.04027" lon="7.09297">
        <ele>1740</ele>
        <time>2022-08-27T22:05:00Z</time>
      </trkpt>
      <trkpt lat="46.04028" lon="7.09295">
        <ele>1740</ele>
        <time>2022-08-27T22:05:02Z</time>
      </trkpt>
      <trkpt lat="46.0403" lon="7.09294">
        <ele>1740</ele>
        <time>2022-08-27T22:05:03Z</time>
      </trkpt>
      <trkpt lat="46.0403" lon="7.09292">
        <ele>1740</ele>
        <time>2022-08-27T22:05:04Z</time>
      </trkpt>
      <trkpt lat="46.04031" lon="7.09289">
        <ele>1740</ele>
        <time>2022-08-27T22:05:05Z</time>
      </trkpt>
      <trkpt lat="46.04032" lon="7.09287">
        <ele>1740</ele>
        <time>2022-08-27T22:05:06Z</time>
      </trkpt>
      <trkpt lat="46.04033" lon="7.09284">
        <ele>1740</ele>
        <time>2022-08-27T22:05:07Z</time>
      </trkpt>
      <trkpt lat="46.04034" lon="7.09282">
        <ele>1740</ele>
        <time>2022-08-27T22:05:08Z</time>
      </trkpt>
      <trkpt lat="46.04035" lon="7.09282">
        <ele>1740</ele>
        <time>2022-08-27T22:05:09Z</time>
      </trkpt>
      <trkpt lat="46.04035" lon="7.09281">
        <ele>1740</ele>
        <time>2022-08-27T22:05:11Z</time>
      </trkpt>
      <trkpt lat="46.04036" lon="7.09281">
        <ele>1740</ele>
        <time>2022-08-27T22:05:13Z</time>
      </trkpt>
      <trkpt lat="46.04037" lon="7.09281">
        <ele>1740</ele>
        <time>2022-08-27T22:05:15Z</time>
      </trkpt>
      <trkpt lat="46.04038" lon="7.0928">
        <ele>1740</ele>
        <time>2022-08-27T22:05:16Z</time>
      </trkpt>
      <trkpt lat="46.04039" lon="7.0928">
        <ele>1740</ele>
        <time>2022-08-27T22:05:17Z</time>
      </trkpt>
      <trkpt lat="46.04039" lon="7.0928">
        <ele>1740</ele>
        <time>2022-08-27T22:05:18Z</time>
      </trkpt>
      <trkpt lat="46.0404" lon="7.09279">
        <ele>1739</ele>
        <time>2022-08-27T22:05:20Z</time>
      </trkpt>
      <trkpt lat="46.04041" lon="7.09279">
        <ele>1739</ele>
        <time>2022-08-27T22:05:21Z</time>
      </trkpt>
      <trkpt lat="46.04042" lon="7.09279">
        <ele>1739</ele>
        <time>2022-08-27T22:05:22Z</time>
      </trkpt>
      <trkpt lat="46.04043" lon="7.09278">
        <ele>1739</ele>
        <time>2022-08-27T22:05:23Z</time>
      </trkpt>
      <trkpt lat="46.04044" lon="7.09278">
        <ele>1739</ele>
        <time>2022-08-27T22:05:24Z</time>
      </trkpt>
      <trkpt lat="46.04046" lon="7.09277">
        <ele>1739</ele>
        <time>2022-08-27T22:05:25Z</time>
      </trkpt>
      <trkpt lat="46.04047" lon="7.09277">
        <ele>1739</ele>
        <time>2022-08-27T22:05:26Z</time>
      </trkpt>
      <trkpt lat="46.04048" lon="7.09276">
        <ele>1739</ele>
        <time>2022-08-27T22:05:28Z</time>
      </trkpt>
      <trkpt lat="46.04048" lon="7.09274">
        <ele>1739</ele>
        <time>2022-08-27T22:05:30Z</time>
      </trkpt>
      <trkpt lat="46.04049" lon="7.09273">
        <ele>1739</ele>
        <time>2022-08-27T22:05:32Z</time>
      </trkpt>
      <trkpt lat="46.04049" lon="7.09272">
        <ele>1739</ele>
        <time>2022-08-27T22:05:34Z</time>
      </trkpt>
      <trkpt lat="46.0405" lon="7.0927">
        <ele>1739</ele>
        <time>2022-08-27T22:05:35Z</time>
      </trkpt>
      <trkpt lat="46.0405" lon="7.09269">
        <ele>1739</ele>
        <time>2022-08-27T22:05:36Z</time>
      </trkpt>
      <trkpt lat="46.04051" lon="7.09268">
        <ele>1739</ele>
        <time>2022-08-27T22:05:37Z</time>
      </trkpt>
      <trkpt lat="46.04052" lon="7.09267">
        <ele>1739</ele>
        <time>2022-08-27T22:05:38Z</time>
      </trkpt>
      <trkpt lat="46.04052" lon="7.09265">
        <ele>1739</ele>
        <time>2022-08-27T22:05:39Z</time>
      </trkpt>
      <trkpt lat="46.04053" lon="7.09264">
        <ele>1739</ele>
        <time>2022-08-27T22:05:40Z</time>
      </trkpt>
      <trkpt lat="46.04054" lon="7.09263">
        <ele>1739</ele>
        <time>2022-08-27T22:05:41Z</time>
      </trkpt>
      <trkpt lat="46.04055" lon="7.09262">
        <ele>1739</ele>
        <time>2022-08-27T22:05:42Z</time>
      </trkpt>
      <trkpt lat="46.04055" lon="7.09261">
        <ele>1739</ele>
        <time>2022-08-27T22:05:44Z</time>
      </trkpt>
      <trkpt lat="46.04056" lon="7.0926">
        <ele>1739</ele>
        <time>2022-08-27T22:05:45Z</time>
      </trkpt>
      <trkpt lat="46.04057" lon="7.09258">
        <ele>1739</ele>
        <time>2022-08-27T22:05:46Z</time>
      </trkpt>
      <trkpt lat="46.04058" lon="7.09257">
        <ele>1739</ele>
        <time>2022-08-27T22:05:47Z</time>
      </trkpt>
      <trkpt lat="46.04059" lon="7.09256">
        <ele>1739</ele>
        <time>2022-08-27T22:05:48Z</time>
      </trkpt>
      <trkpt lat="46.0406" lon="7.09255">
        <ele>1739</ele>
        <time>2022-08-27T22:05:49Z</time>
      </trkpt>
      <trkpt lat="46.04061" lon="7.09254">
        <ele>1738</ele>
        <time>2022-08-27T22:05:50Z</time>
      </trkpt>
      <trkpt lat="46.04062" lon="7.09253">
        <ele>1738</ele>
        <time>2022-08-27T22:05:51Z</time>
      </trkpt>
      <trkpt lat="46.04063" lon="7.09252">
        <ele>1738</ele>
        <time>2022-08-27T22:05:52Z</time>
      </trkpt>
      <trkpt lat="46.04064" lon="7.09251">
        <ele>1738</ele>
        <time>2022-08-27T22:05:54Z</time>
      </trkpt>
      <trkpt lat="46.04065" lon="7.0925">
        <ele>1738</ele>
        <time>2022-08-27T22:05:55Z</time>
      </trkpt>
      <trkpt lat="46.04066" lon="7.09249">
        <ele>1738</ele>
        <time>2022-08-27T22:05:56Z</time>
      </trkpt>
      <trkpt lat="46.04067" lon="7.09248">
        <ele>1738</ele>
        <time>2022-08-27T22:05:57Z</time>
      </trkpt>
      <trkpt lat="46.04069" lon="7.09246">
        <ele>1738</ele>
        <time>2022-08-27T22:05:59Z</time>
      </trkpt>
      <trkpt lat="46.0407" lon="7.09244">
        <ele>1738</ele>
        <time>2022-08-27T22:06:01Z</time>
      </trkpt>
      <trkpt lat="46.04071" lon="7.09243">
        <ele>1738</ele>
        <time>2022-08-27T22:06:02Z</time>
      </trkpt>
      <trkpt lat="46.04072" lon="7.09241">
        <ele>1738</ele>
        <time>2022-08-27T22:06:03Z</time>
      </trkpt>
      <trkpt lat="46.04074" lon="7.0924">
        <ele>1738</ele>
        <time>2022-08-27T22:06:04Z</time>
      </trkpt>
      <trkpt lat="46.04075" lon="7.09238">
        <ele>1738</ele>
        <time>2022-08-27T22:06:05Z</time>
      </trkpt>
      <trkpt lat="46.0408" lon="7.09227">
        <ele>1737</ele>
        <time>2022-08-27T22:06:12Z</time>
      </trkpt>
      <trkpt lat="46.0408" lon="7.09227">
        <ele>1737</ele>
        <time>2022-08-27T22:06:13Z</time>
      </trkpt>
      <trkpt lat="46.04081" lon="7.09226">
        <ele>1737</ele>
        <time>2022-08-27T22:06:14Z</time>
      </trkpt>
      <trkpt lat="46.04081" lon="7.09226">
        <ele>1737</ele>
        <time>2022-08-27T22:06:15Z</time>
      </trkpt>
      <trkpt lat="46.04081" lon="7.09225">
        <ele>1737</ele>
        <time>2022-08-27T22:06:17Z</time>
      </trkpt>
      <trkpt lat="46.04082" lon="7.09225">
        <ele>1737</ele>
        <time>2022-08-27T22:06:18Z</time>
      </trkpt>
      <trkpt lat="46.04082" lon="7.09224">
        <ele>1737</ele>
        <time>2022-08-27T22:06:19Z</time>
      </trkpt>
      <trkpt lat="46.04082" lon="7.09224">
        <ele>1737</ele>
        <time>2022-08-27T22:06:20Z</time>
      </trkpt>
      <trkpt lat="46.04088" lon="7.09215">
        <ele>1737</ele>
        <time>2022-08-27T22:06:22Z</time>
      </trkpt>
      <trkpt lat="46.04089" lon="7.09213">
        <ele>1737</ele>
        <time>2022-08-27T22:06:23Z</time>
      </trkpt>
      <trkpt lat="46.0409" lon="7.0921">
        <ele>1737</ele>
        <time>2022-08-27T22:06:24Z</time>
      </trkpt>
      <trkpt lat="46.04091" lon="7.09208">
        <ele>1737</ele>
        <time>2022-08-27T22:06:25Z</time>
      </trkpt>
      <trkpt lat="46.04091" lon="7.09206">
        <ele>1737</ele>
        <time>2022-08-27T22:06:26Z</time>
      </trkpt>
      <trkpt lat="46.04092" lon="7.09203">
        <ele>1737</ele>
        <time>2022-08-27T22:06:27Z</time>
      </trkpt>
      <trkpt lat="46.04096" lon="7.09191">
        <ele>1737</ele>
        <time>2022-08-27T22:06:32Z</time>
      </trkpt>
      <trkpt lat="46.04097" lon="7.0919">
        <ele>1737</ele>
        <time>2022-08-27T22:06:33Z</time>
      </trkpt>
      <trkpt lat="46.04098" lon="7.09189">
        <ele>1737</ele>
        <time>2022-08-27T22:06:34Z</time>
      </trkpt>
      <trkpt lat="46.04099" lon="7.09187">
        <ele>1737</ele>
        <time>2022-08-27T22:06:35Z</time>
      </trkpt>
      <trkpt lat="46.041" lon="7.09186">
        <ele>1737</ele>
        <time>2022-08-27T22:06:37Z</time>
      </trkpt>
      <trkpt lat="46.04101" lon="7.09185">
        <ele>1737</ele>
        <time>2022-08-27T22:06:39Z</time>
      </trkpt>
      <trkpt lat="46.04102" lon="7.09184">
        <ele>1737</ele>
        <time>2022-08-27T22:06:40Z</time>
      </trkpt>
      <trkpt lat="46.04103" lon="7.09183">
        <ele>1737</ele>
        <time>2022-08-27T22:06:41Z</time>
      </trkpt>
      <trkpt lat="46.04105" lon="7.09182">
        <ele>1737</ele>
        <time>2022-08-27T22:06:42Z</time>
      </trkpt>
      <trkpt lat="46.04106" lon="7.09181">
        <ele>1737</ele>
        <time>2022-08-27T22:06:43Z</time>
      </trkpt>
      <trkpt lat="46.04107" lon="7.0918">
        <ele>1737</ele>
        <time>2022-08-27T22:06:44Z</time>
      </trkpt>
      <trkpt lat="46.04109" lon="7.09179">
        <ele>1737</ele>
        <time>2022-08-27T22:06:46Z</time>
      </trkpt>
      <trkpt lat="46.0411" lon="7.09179">
        <ele>1736</ele>
        <time>2022-08-27T22:06:48Z</time>
      </trkpt>
      <trkpt lat="46.04112" lon="7.09178">
        <ele>1736</ele>
        <time>2022-08-27T22:06:49Z</time>
      </trkpt>
      <trkpt lat="46.04113" lon="7.09176">
        <ele>1736</ele>
        <time>2022-08-27T22:06:50Z</time>
      </trkpt>
      <trkpt lat="46.04114" lon="7.09175">
        <ele>1736</ele>
        <time>2022-08-27T22:06:51Z</time>
      </trkpt>
      <trkpt lat="46.04115" lon="7.09174">
        <ele>1736</ele>
        <time>2022-08-27T22:06:53Z</time>
      </trkpt>
      <trkpt lat="46.04117" lon="7.09173">
        <ele>1736</ele>
        <time>2022-08-27T22:06:54Z</time>
      </trkpt>
      <trkpt lat="46.04118" lon="7.09171">
        <ele>1736</ele>
        <time>2022-08-27T22:06:55Z</time>
      </trkpt>
      <trkpt lat="46.04119" lon="7.0917">
        <ele>1736</ele>
        <time>2022-08-27T22:06:56Z</time>
      </trkpt>
      <trkpt lat="46.0412" lon="7.09169">
        <ele>1736</ele>
        <time>2022-08-27T22:06:58Z</time>
      </trkpt>
      <trkpt lat="46.04121" lon="7.09168">
        <ele>1736</ele>
        <time>2022-08-27T22:06:59Z</time>
      </trkpt>
      <trkpt lat="46.04122" lon="7.09166">
        <ele>1736</ele>
        <time>2022-08-27T22:07:00Z</time>
      </trkpt>
      <trkpt lat="46.04123" lon="7.09165">
        <ele>1736</ele>
        <time>2022-08-27T22:07:01Z</time>
      </trkpt>
      <trkpt lat="46.04124" lon="7.09164">
        <ele>1736</ele>
        <time>2022-08-27T22:07:03Z</time>
      </trkpt>
      <trkpt lat="46.04125" lon="7.09163">
        <ele>1736</ele>
        <time>2022-08-27T22:07:05Z</time>
      </trkpt>
      <trkpt lat="46.04126" lon="7.09161">
        <ele>1736</ele>
        <time>2022-08-27T22:07:06Z</time>
      </trkpt>
      <trkpt lat="46.04127" lon="7.0916">
        <ele>1735</ele>
        <time>2022-08-27T22:07:07Z</time>
      </trkpt>
      <trkpt lat="46.04128" lon="7.09159">
        <ele>1735</ele>
        <time>2022-08-27T22:07:09Z</time>
      </trkpt>
      <trkpt lat="46.04128" lon="7.09158">
        <ele>1735</ele>
        <time>2022-08-27T22:07:10Z</time>
      </trkpt>
      <trkpt lat="46.04129" lon="7.09157">
        <ele>1735</ele>
        <time>2022-08-27T22:07:11Z</time>
      </trkpt>
      <trkpt lat="46.04129" lon="7.09156">
        <ele>1735</ele>
        <time>2022-08-27T22:07:12Z</time>
      </trkpt>
      <trkpt lat="46.0413" lon="7.09155">
        <ele>1735</ele>
        <time>2022-08-27T22:07:14Z</time>
      </trkpt>
      <trkpt lat="46.04131" lon="7.09154">
        <ele>1735</ele>
        <time>2022-08-27T22:07:15Z</time>
      </trkpt>
      <trkpt lat="46.04131" lon="7.09153">
        <ele>1735</ele>
        <time>2022-08-27T22:07:16Z</time>
      </trkpt>
      <trkpt lat="46.04132" lon="7.09152">
        <ele>1735</ele>
        <time>2022-08-27T22:07:17Z</time>
      </trkpt>
      <trkpt lat="46.04133" lon="7.09151">
        <ele>1734</ele>
        <time>2022-08-27T22:07:19Z</time>
      </trkpt>
      <trkpt lat="46.04133" lon="7.0915">
        <ele>1734</ele>
        <time>2022-08-27T22:07:20Z</time>
      </trkpt>
      <trkpt lat="46.04134" lon="7.09148">
        <ele>1734</ele>
        <time>2022-08-27T22:07:21Z</time>
      </trkpt>
      <trkpt lat="46.04134" lon="7.09145">
        <ele>1734</ele>
        <time>2022-08-27T22:07:22Z</time>
      </trkpt>
      <trkpt lat="46.04134" lon="7.09143">
        <ele>1735</ele>
        <time>2022-08-27T22:07:24Z</time>
      </trkpt>
      <trkpt lat="46.04135" lon="7.0914">
        <ele>1735</ele>
        <time>2022-08-27T22:07:25Z</time>
      </trkpt>
      <trkpt lat="46.04135" lon="7.09137">
        <ele>1734</ele>
        <time>2022-08-27T22:07:26Z</time>
      </trkpt>
      <trkpt lat="46.04136" lon="7.09136">
        <ele>1734</ele>
        <time>2022-08-27T22:07:27Z</time>
      </trkpt>
      <trkpt lat="46.04137" lon="7.09135">
        <ele>1734</ele>
        <time>2022-08-27T22:07:29Z</time>
      </trkpt>
      <trkpt lat="46.04138" lon="7.09134">
        <ele>1734</ele>
        <time>2022-08-27T22:07:30Z</time>
      </trkpt>
      <trkpt lat="46.04139" lon="7.09133">
        <ele>1734</ele>
        <time>2022-08-27T22:07:31Z</time>
      </trkpt>
      <trkpt lat="46.0414" lon="7.09132">
        <ele>1734</ele>
        <time>2022-08-27T22:07:32Z</time>
      </trkpt>
      <trkpt lat="46.04141" lon="7.0913">
        <ele>1734</ele>
        <time>2022-08-27T22:07:34Z</time>
      </trkpt>
      <trkpt lat="46.04142" lon="7.09129">
        <ele>1734</ele>
        <time>2022-08-27T22:07:35Z</time>
      </trkpt>
      <trkpt lat="46.04143" lon="7.09116">
        <ele>1734</ele>
        <time>2022-08-27T22:07:40Z</time>
      </trkpt>
      <trkpt lat="46.04144" lon="7.09114">
        <ele>1734</ele>
        <time>2022-08-27T22:07:41Z</time>
      </trkpt>
      <trkpt lat="46.04144" lon="7.09111">
        <ele>1734</ele>
        <time>2022-08-27T22:07:43Z</time>
      </trkpt>
      <trkpt lat="46.04145" lon="7.09109">
        <ele>1734</ele>
        <time>2022-08-27T22:07:45Z</time>
      </trkpt>
      <trkpt lat="46.04146" lon="7.09107">
        <ele>1734</ele>
        <time>2022-08-27T22:07:46Z</time>
      </trkpt>
      <trkpt lat="46.04146" lon="7.09105">
        <ele>1733</ele>
        <time>2022-08-27T22:07:47Z</time>
      </trkpt>
      <trkpt lat="46.04147" lon="7.09103">
        <ele>1733</ele>
        <time>2022-08-27T22:07:48Z</time>
      </trkpt>
      <trkpt lat="46.04148" lon="7.09103">
        <ele>1733</ele>
        <time>2022-08-27T22:07:50Z</time>
      </trkpt>
      <trkpt lat="46.04148" lon="7.09102">
        <ele>1733</ele>
        <time>2022-08-27T22:07:52Z</time>
      </trkpt>
      <trkpt lat="46.04149" lon="7.09101">
        <ele>1733</ele>
        <time>2022-08-27T22:07:53Z</time>
      </trkpt>
      <trkpt lat="46.04149" lon="7.09101">
        <ele>1733</ele>
        <time>2022-08-27T22:07:54Z</time>
      </trkpt>
      <trkpt lat="46.0415" lon="7.091">
        <ele>1733</ele>
        <time>2022-08-27T22:07:55Z</time>
      </trkpt>
      <trkpt lat="46.04155" lon="7.09093">
        <ele>1733</ele>
        <time>2022-08-27T22:07:57Z</time>
      </trkpt>
      <trkpt lat="46.04157" lon="7.0908">
        <ele>1733</ele>
        <time>2022-08-27T22:08:02Z</time>
      </trkpt>
      <trkpt lat="46.04158" lon="7.09079">
        <ele>1733</ele>
        <time>2022-08-27T22:08:03Z</time>
      </trkpt>
      <trkpt lat="46.04159" lon="7.09078">
        <ele>1732</ele>
        <time>2022-08-27T22:08:04Z</time>
      </trkpt>
      <trkpt lat="46.0416" lon="7.09077">
        <ele>1732</ele>
        <time>2022-08-27T22:08:05Z</time>
      </trkpt>
      <trkpt lat="46.04161" lon="7.09075">
        <ele>1732</ele>
        <time>2022-08-27T22:08:07Z</time>
      </trkpt>
      <trkpt lat="46.04162" lon="7.09074">
        <ele>1732</ele>
        <time>2022-08-27T22:08:08Z</time>
      </trkpt>
      <trkpt lat="46.04162" lon="7.09073">
        <ele>1732</ele>
        <time>2022-08-27T22:08:09Z</time>
      </trkpt>
      <trkpt lat="46.04163" lon="7.09072">
        <ele>1732</ele>
        <time>2022-08-27T22:08:10Z</time>
      </trkpt>
      <trkpt lat="46.04164" lon="7.09071">
        <ele>1732</ele>
        <time>2022-08-27T22:08:11Z</time>
      </trkpt>
      <trkpt lat="46.04165" lon="7.09069">
        <ele>1732</ele>
        <time>2022-08-27T22:08:12Z</time>
      </trkpt>
      <trkpt lat="46.04167" lon="7.09066">
        <ele>1732</ele>
        <time>2022-08-27T22:08:13Z</time>
      </trkpt>
      <trkpt lat="46.04168" lon="7.09064">
        <ele>1732</ele>
        <time>2022-08-27T22:08:14Z</time>
      </trkpt>
      <trkpt lat="46.0417" lon="7.09062">
        <ele>1732</ele>
        <time>2022-08-27T22:08:15Z</time>
      </trkpt>
      <trkpt lat="46.04171" lon="7.09059">
        <ele>1732</ele>
        <time>2022-08-27T22:08:16Z</time>
      </trkpt>
      <trkpt lat="46.04173" lon="7.09056">
        <ele>1732</ele>
        <time>2022-08-27T22:08:17Z</time>
      </trkpt>
      <trkpt lat="46.04175" lon="7.09052">
        <ele>1733</ele>
        <time>2022-08-27T22:08:18Z</time>
      </trkpt>
      <trkpt lat="46.04177" lon="7.09049">
        <ele>1733</ele>
        <time>2022-08-27T22:08:19Z</time>
      </trkpt>
      <trkpt lat="46.04178" lon="7.09049">
        <ele>1733</ele>
        <time>2022-08-27T22:08:21Z</time>
      </trkpt>
      <trkpt lat="46.04179" lon="7.09048">
        <ele>1733</ele>
        <time>2022-08-27T22:08:22Z</time>
      </trkpt>
      <trkpt lat="46.0418" lon="7.09048">
        <ele>1733</ele>
        <time>2022-08-27T22:08:23Z</time>
      </trkpt>
      <trkpt lat="46.04181" lon="7.09048">
        <ele>1733</ele>
        <time>2022-08-27T22:08:25Z</time>
      </trkpt>
      <trkpt lat="46.04182" lon="7.09047">
        <ele>1733</ele>
        <time>2022-08-27T22:08:26Z</time>
      </trkpt>
      <trkpt lat="46.04184" lon="7.09047">
        <ele>1733</ele>
        <time>2022-08-27T22:08:27Z</time>
      </trkpt>
      <trkpt lat="46.04185" lon="7.09046">
        <ele>1733</ele>
        <time>2022-08-27T22:08:28Z</time>
      </trkpt>
      <trkpt lat="46.04186" lon="7.09046">
        <ele>1733</ele>
        <time>2022-08-27T22:08:29Z</time>
      </trkpt>
      <trkpt lat="46.04187" lon="7.09046">
        <ele>1733</ele>
        <time>2022-08-27T22:08:30Z</time>
      </trkpt>
      <trkpt lat="46.04188" lon="7.09044">
        <ele>1733</ele>
        <time>2022-08-27T22:08:31Z</time>
      </trkpt>
      <trkpt lat="46.04189" lon="7.09043">
        <ele>1733</ele>
        <time>2022-08-27T22:08:32Z</time>
      </trkpt>
      <trkpt lat="46.0419" lon="7.09042">
        <ele>1733</ele>
        <time>2022-08-27T22:08:33Z</time>
      </trkpt>
      <trkpt lat="46.04192" lon="7.09041">
        <ele>1733</ele>
        <time>2022-08-27T22:08:35Z</time>
      </trkpt>
      <trkpt lat="46.04193" lon="7.09039">
        <ele>1733</ele>
        <time>2022-08-27T22:08:36Z</time>
      </trkpt>
      <trkpt lat="46.04194" lon="7.09038">
        <ele>1733</ele>
        <time>2022-08-27T22:08:37Z</time>
      </trkpt>
      <trkpt lat="46.04195" lon="7.09037">
        <ele>1733</ele>
        <time>2022-08-27T22:08:38Z</time>
      </trkpt>
      <trkpt lat="46.04197" lon="7.09035">
        <ele>1733</ele>
        <time>2022-08-27T22:08:39Z</time>
      </trkpt>
      <trkpt lat="46.04198" lon="7.09033">
        <ele>1732</ele>
        <time>2022-08-27T22:08:40Z</time>
      </trkpt>
      <trkpt lat="46.042" lon="7.09032">
        <ele>1732</ele>
        <time>2022-08-27T22:08:42Z</time>
      </trkpt>
      <trkpt lat="46.04201" lon="7.0903">
        <ele>1732</ele>
        <time>2022-08-27T22:08:43Z</time>
      </trkpt>
      <trkpt lat="46.04203" lon="7.09028">
        <ele>1732</ele>
        <time>2022-08-27T22:08:44Z</time>
      </trkpt>
      <trkpt lat="46.04205" lon="7.09025">
        <ele>1732</ele>
        <time>2022-08-27T22:08:45Z</time>
      </trkpt>
      <trkpt lat="46.04208" lon="7.09022">
        <ele>1732</ele>
        <time>2022-08-27T22:08:47Z</time>
      </trkpt>
      <trkpt lat="46.0421" lon="7.09019">
        <ele>1732</ele>
        <time>2022-08-27T22:08:48Z</time>
      </trkpt>
      <trkpt lat="46.04211" lon="7.09018">
        <ele>1732</ele>
        <time>2022-08-27T22:08:49Z</time>
      </trkpt>
      <trkpt lat="46.04211" lon="7.09017">
        <ele>1732</ele>
        <time>2022-08-27T22:08:50Z</time>
      </trkpt>
      <trkpt lat="46.04212" lon="7.09015">
        <ele>1732</ele>
        <time>2022-08-27T22:08:52Z</time>
      </trkpt>
      <trkpt lat="46.04213" lon="7.09014">
        <ele>1732</ele>
        <time>2022-08-27T22:08:53Z</time>
      </trkpt>
      <trkpt lat="46.04214" lon="7.09013">
        <ele>1732</ele>
        <time>2022-08-27T22:08:54Z</time>
      </trkpt>
      <trkpt lat="46.04214" lon="7.09012">
        <ele>1732</ele>
        <time>2022-08-27T22:08:55Z</time>
      </trkpt>
      <trkpt lat="46.04215" lon="7.0901">
        <ele>1732</ele>
        <time>2022-08-27T22:08:56Z</time>
      </trkpt>
      <trkpt lat="46.04216" lon="7.09009">
        <ele>1732</ele>
        <time>2022-08-27T22:08:57Z</time>
      </trkpt>
      <trkpt lat="46.04216" lon="7.09008">
        <ele>1732</ele>
        <time>2022-08-27T22:08:59Z</time>
      </trkpt>
      <trkpt lat="46.04216" lon="7.09006">
        <ele>1731</ele>
        <time>2022-08-27T22:09:01Z</time>
      </trkpt>
      <trkpt lat="46.04216" lon="7.09004">
        <ele>1731</ele>
        <time>2022-08-27T22:09:03Z</time>
      </trkpt>
      <trkpt lat="46.04217" lon="7.09003">
        <ele>1731</ele>
        <time>2022-08-27T22:09:04Z</time>
      </trkpt>
      <trkpt lat="46.04217" lon="7.09001">
        <ele>1731</ele>
        <time>2022-08-27T22:09:05Z</time>
      </trkpt>
      <trkpt lat="46.04217" lon="7.09">
        <ele>1731</ele>
        <time>2022-08-27T22:09:06Z</time>
      </trkpt>
      <trkpt lat="46.0422" lon="7.09">
        <ele>1731</ele>
        <time>2022-08-27T22:09:10Z</time>
      </trkpt>
      <trkpt lat="46.04229" lon="7.08997">
        <ele>1731</ele>
        <time>2022-08-27T22:09:18Z</time>
      </trkpt>
      <trkpt lat="46.0423" lon="7.08996">
        <ele>1730</ele>
        <time>2022-08-27T22:09:20Z</time>
      </trkpt>
      <trkpt lat="46.04231" lon="7.08995">
        <ele>1730</ele>
        <time>2022-08-27T22:09:21Z</time>
      </trkpt>
      <trkpt lat="46.04232" lon="7.08994">
        <ele>1730</ele>
        <time>2022-08-27T22:09:22Z</time>
      </trkpt>
      <trkpt lat="46.04233" lon="7.08993">
        <ele>1730</ele>
        <time>2022-08-27T22:09:23Z</time>
      </trkpt>
      <trkpt lat="46.04235" lon="7.08991">
        <ele>1729</ele>
        <time>2022-08-27T22:09:25Z</time>
      </trkpt>
      <trkpt lat="46.04236" lon="7.0899">
        <ele>1729</ele>
        <time>2022-08-27T22:09:26Z</time>
      </trkpt>
      <trkpt lat="46.04237" lon="7.08989">
        <ele>1729</ele>
        <time>2022-08-27T22:09:27Z</time>
      </trkpt>
      <trkpt lat="46.04244" lon="7.08982">
        <ele>1729</ele>
        <time>2022-08-27T22:09:32Z</time>
      </trkpt>
      <trkpt lat="46.04246" lon="7.0898">
        <ele>1729</ele>
        <time>2022-08-27T22:09:34Z</time>
      </trkpt>
      <trkpt lat="46.04247" lon="7.08978">
        <ele>1729</ele>
        <time>2022-08-27T22:09:35Z</time>
      </trkpt>
      <trkpt lat="46.04248" lon="7.08976">
        <ele>1728</ele>
        <time>2022-08-27T22:09:37Z</time>
      </trkpt>
      <trkpt lat="46.04249" lon="7.08973">
        <ele>1728</ele>
        <time>2022-08-27T22:09:38Z</time>
      </trkpt>
      <trkpt lat="46.04251" lon="7.08971">
        <ele>1728</ele>
        <time>2022-08-27T22:09:40Z</time>
      </trkpt>
      <trkpt lat="46.04253" lon="7.0897">
        <ele>1728</ele>
        <time>2022-08-27T22:09:42Z</time>
      </trkpt>
      <trkpt lat="46.04254" lon="7.08968">
        <ele>1728</ele>
        <time>2022-08-27T22:09:44Z</time>
      </trkpt>
      <trkpt lat="46.04257" lon="7.08966">
        <ele>1728</ele>
        <time>2022-08-27T22:09:47Z</time>
      </trkpt>
      <trkpt lat="46.04258" lon="7.08965">
        <ele>1728</ele>
        <time>2022-08-27T22:09:48Z</time>
      </trkpt>
      <trkpt lat="46.04259" lon="7.08963">
        <ele>1728</ele>
        <time>2022-08-27T22:09:49Z</time>
      </trkpt>
      <trkpt lat="46.0426" lon="7.08962">
        <ele>1728</ele>
        <time>2022-08-27T22:09:51Z</time>
      </trkpt>
      <trkpt lat="46.04262" lon="7.08961">
        <ele>1728</ele>
        <time>2022-08-27T22:09:52Z</time>
      </trkpt>
      <trkpt lat="46.04263" lon="7.08959">
        <ele>1728</ele>
        <time>2022-08-27T22:09:53Z</time>
      </trkpt>
      <trkpt lat="46.04264" lon="7.08958">
        <ele>1728</ele>
        <time>2022-08-27T22:09:54Z</time>
      </trkpt>
      <trkpt lat="46.04264" lon="7.08956">
        <ele>1728</ele>
        <time>2022-08-27T22:09:56Z</time>
      </trkpt>
      <trkpt lat="46.04264" lon="7.08954">
        <ele>1728</ele>
        <time>2022-08-27T22:09:58Z</time>
      </trkpt>
      <trkpt lat="46.04264" lon="7.08952">
        <ele>1728</ele>
        <time>2022-08-27T22:09:59Z</time>
      </trkpt>
      <trkpt lat="46.04264" lon="7.0895">
        <ele>1728</ele>
        <time>2022-08-27T22:10:00Z</time>
      </trkpt>
      <trkpt lat="46.04264" lon="7.08948">
        <ele>1728</ele>
        <time>2022-08-27T22:10:01Z</time>
      </trkpt>
      <trkpt lat="46.04264" lon="7.08946">
        <ele>1728</ele>
        <time>2022-08-27T22:10:02Z</time>
      </trkpt>
      <trkpt lat="46.04263" lon="7.08945">
        <ele>1728</ele>
        <time>2022-08-27T22:10:03Z</time>
      </trkpt>
      <trkpt lat="46.04264" lon="7.08943">
        <ele>1728</ele>
        <time>2022-08-27T22:10:04Z</time>
      </trkpt>
      <trkpt lat="46.04264" lon="7.08941">
        <ele>1728</ele>
        <time>2022-08-27T22:10:06Z</time>
      </trkpt>
      <trkpt lat="46.04264" lon="7.08939">
        <ele>1728</ele>
        <time>2022-08-27T22:10:07Z</time>
      </trkpt>
      <trkpt lat="46.04264" lon="7.08937">
        <ele>1728</ele>
        <time>2022-08-27T22:10:08Z</time>
      </trkpt>
      <trkpt lat="46.04265" lon="7.08935">
        <ele>1728</ele>
        <time>2022-08-27T22:10:09Z</time>
      </trkpt>
      <trkpt lat="46.04265" lon="7.08933">
        <ele>1728</ele>
        <time>2022-08-27T22:10:10Z</time>
      </trkpt>
      <trkpt lat="46.04265" lon="7.08932">
        <ele>1727</ele>
        <time>2022-08-27T22:10:11Z</time>
      </trkpt>
      <trkpt lat="46.04266" lon="7.08929">
        <ele>1727</ele>
        <time>2022-08-27T22:10:12Z</time>
      </trkpt>
      <trkpt lat="46.04267" lon="7.08927">
        <ele>1727</ele>
        <time>2022-08-27T22:10:13Z</time>
      </trkpt>
      <trkpt lat="46.04269" lon="7.08925">
        <ele>1727</ele>
        <time>2022-08-27T22:10:15Z</time>
      </trkpt>
      <trkpt lat="46.0427" lon="7.08923">
        <ele>1727</ele>
        <time>2022-08-27T22:10:16Z</time>
      </trkpt>
      <trkpt lat="46.04271" lon="7.08921">
        <ele>1727</ele>
        <time>2022-08-27T22:10:17Z</time>
      </trkpt>
      <trkpt lat="46.04274" lon="7.08918">
        <ele>1727</ele>
        <time>2022-08-27T22:10:19Z</time>
      </trkpt>
      <trkpt lat="46.04277" lon="7.08915">
        <ele>1727</ele>
        <time>2022-08-27T22:10:20Z</time>
      </trkpt>
      <trkpt lat="46.04279" lon="7.08912">
        <ele>1727</ele>
        <time>2022-08-27T22:10:21Z</time>
      </trkpt>
      <trkpt lat="46.04281" lon="7.0891">
        <ele>1727</ele>
        <time>2022-08-27T22:10:22Z</time>
      </trkpt>
      <trkpt lat="46.04283" lon="7.08908">
        <ele>1727</ele>
        <time>2022-08-27T22:10:24Z</time>
      </trkpt>
      <trkpt lat="46.04285" lon="7.08906">
        <ele>1727</ele>
        <time>2022-08-27T22:10:25Z</time>
      </trkpt>
      <trkpt lat="46.04287" lon="7.08905">
        <ele>1727</ele>
        <time>2022-08-27T22:10:26Z</time>
      </trkpt>
      <trkpt lat="46.04296" lon="7.08897">
        <ele>1726</ele>
        <time>2022-08-27T22:10:34Z</time>
      </trkpt>
      <trkpt lat="46.04297" lon="7.08898">
        <ele>1726</ele>
        <time>2022-08-27T22:10:36Z</time>
      </trkpt>
      <trkpt lat="46.04297" lon="7.08899">
        <ele>1726</ele>
        <time>2022-08-27T22:10:37Z</time>
      </trkpt>
      <trkpt lat="46.04298" lon="7.089">
        <ele>1726</ele>
        <time>2022-08-27T22:10:38Z</time>
      </trkpt>
      <trkpt lat="46.04298" lon="7.08901">
        <ele>1726</ele>
        <time>2022-08-27T22:10:39Z</time>
      </trkpt>
      <trkpt lat="46.04299" lon="7.08903">
        <ele>1726</ele>
        <time>2022-08-27T22:10:41Z</time>
      </trkpt>
      <trkpt lat="46.04299" lon="7.08904">
        <ele>1726</ele>
        <time>2022-08-27T22:10:42Z</time>
      </trkpt>
      <trkpt lat="46.043" lon="7.08905">
        <ele>1726</ele>
        <time>2022-08-27T22:10:43Z</time>
      </trkpt>
      <trkpt lat="46.043" lon="7.08906">
        <ele>1726</ele>
        <time>2022-08-27T22:10:44Z</time>
      </trkpt>
      <trkpt lat="46.04301" lon="7.08907">
        <ele>1726</ele>
        <time>2022-08-27T22:10:45Z</time>
      </trkpt>
      <trkpt lat="46.04301" lon="7.08908">
        <ele>1726</ele>
        <time>2022-08-27T22:10:46Z</time>
      </trkpt>
      <trkpt lat="46.04304" lon="7.0891">
        <ele>1725</ele>
        <time>2022-08-27T22:10:47Z</time>
      </trkpt>
      <trkpt lat="46.04306" lon="7.08911">
        <ele>1725</ele>
        <time>2022-08-27T22:10:49Z</time>
      </trkpt>
      <trkpt lat="46.04308" lon="7.08913">
        <ele>1725</ele>
        <time>2022-08-27T22:10:50Z</time>
      </trkpt>
      <trkpt lat="46.0431" lon="7.08915">
        <ele>1725</ele>
        <time>2022-08-27T22:10:51Z</time>
      </trkpt>
      <trkpt lat="46.04311" lon="7.08916">
        <ele>1725</ele>
        <time>2022-08-27T22:10:53Z</time>
      </trkpt>
      <trkpt lat="46.04313" lon="7.08917">
        <ele>1725</ele>
        <time>2022-08-27T22:10:54Z</time>
      </trkpt>
      <trkpt lat="46.04314" lon="7.08918">
        <ele>1725</ele>
        <time>2022-08-27T22:10:55Z</time>
      </trkpt>
      <trkpt lat="46.04315" lon="7.0892">
        <ele>1725</ele>
        <time>2022-08-27T22:10:57Z</time>
      </trkpt>
      <trkpt lat="46.04316" lon="7.08921">
        <ele>1725</ele>
        <time>2022-08-27T22:10:58Z</time>
      </trkpt>
      <trkpt lat="46.04318" lon="7.08922">
        <ele>1725</ele>
        <time>2022-08-27T22:10:59Z</time>
      </trkpt>
      <trkpt lat="46.04319" lon="7.08922">
        <ele>1725</ele>
        <time>2022-08-27T22:11:00Z</time>
      </trkpt>
      <trkpt lat="46.04321" lon="7.08921">
        <ele>1725</ele>
        <time>2022-08-27T22:11:02Z</time>
      </trkpt>
      <trkpt lat="46.04323" lon="7.0892">
        <ele>1725</ele>
        <time>2022-08-27T22:11:03Z</time>
      </trkpt>
      <trkpt lat="46.04325" lon="7.0892">
        <ele>1725</ele>
        <time>2022-08-27T22:11:04Z</time>
      </trkpt>
      <trkpt lat="46.04326" lon="7.08919">
        <ele>1725</ele>
        <time>2022-08-27T22:11:05Z</time>
      </trkpt>
      <trkpt lat="46.04328" lon="7.08918">
        <ele>1725</ele>
        <time>2022-08-27T22:11:07Z</time>
      </trkpt>
      <trkpt lat="46.04329" lon="7.08916">
        <ele>1725</ele>
        <time>2022-08-27T22:11:08Z</time>
      </trkpt>
      <trkpt lat="46.04331" lon="7.08915">
        <ele>1724</ele>
        <time>2022-08-27T22:11:09Z</time>
      </trkpt>
      <trkpt lat="46.04332" lon="7.08914">
        <ele>1724</ele>
        <time>2022-08-27T22:11:10Z</time>
      </trkpt>
      <trkpt lat="46.04334" lon="7.08912">
        <ele>1724</ele>
        <time>2022-08-27T22:11:11Z</time>
      </trkpt>
      <trkpt lat="46.04335" lon="7.08911">
        <ele>1724</ele>
        <time>2022-08-27T22:11:12Z</time>
      </trkpt>
      <trkpt lat="46.04337" lon="7.0891">
        <ele>1724</ele>
        <time>2022-08-27T22:11:13Z</time>
      </trkpt>
      <trkpt lat="46.04338" lon="7.08909">
        <ele>1723</ele>
        <time>2022-08-27T22:11:14Z</time>
      </trkpt>
      <trkpt lat="46.0434" lon="7.08907">
        <ele>1723</ele>
        <time>2022-08-27T22:11:15Z</time>
      </trkpt>
      <trkpt lat="46.04342" lon="7.08906">
        <ele>1723</ele>
        <time>2022-08-27T22:11:17Z</time>
      </trkpt>
      <trkpt lat="46.04343" lon="7.08905">
        <ele>1723</ele>
        <time>2022-08-27T22:11:18Z</time>
      </trkpt>
      <trkpt lat="46.04346" lon="7.08904">
        <ele>1723</ele>
        <time>2022-08-27T22:11:19Z</time>
      </trkpt>
      <trkpt lat="46.04348" lon="7.08902">
        <ele>1723</ele>
        <time>2022-08-27T22:11:20Z</time>
      </trkpt>
      <trkpt lat="46.0435" lon="7.08901">
        <ele>1723</ele>
        <time>2022-08-27T22:11:21Z</time>
      </trkpt>
      <trkpt lat="46.04352" lon="7.08899">
        <ele>1723</ele>
        <time>2022-08-27T22:11:22Z</time>
      </trkpt>
      <trkpt lat="46.04354" lon="7.08898">
        <ele>1723</ele>
        <time>2022-08-27T22:11:23Z</time>
      </trkpt>
      <trkpt lat="46.04355" lon="7.08897">
        <ele>1723</ele>
        <time>2022-08-27T22:11:24Z</time>
      </trkpt>
      <trkpt lat="46.04356" lon="7.08897">
        <ele>1723</ele>
        <time>2022-08-27T22:11:25Z</time>
      </trkpt>
      <trkpt lat="46.04357" lon="7.08896">
        <ele>1723</ele>
        <time>2022-08-27T22:11:26Z</time>
      </trkpt>
      <trkpt lat="46.04367" lon="7.08891">
        <ele>1723</ele>
        <time>2022-08-27T22:11:28Z</time>
      </trkpt>
      <trkpt lat="46.0437" lon="7.08889">
        <ele>1723</ele>
        <time>2022-08-27T22:11:30Z</time>
      </trkpt>
      <trkpt lat="46.04373" lon="7.08888">
        <ele>1723</ele>
        <time>2022-08-27T22:11:31Z</time>
      </trkpt>
      <trkpt lat="46.04382" lon="7.08883">
        <ele>1723</ele>
        <time>2022-08-27T22:11:40Z</time>
      </trkpt>
      <trkpt lat="46.04384" lon="7.08883">
        <ele>1723</ele>
        <time>2022-08-27T22:11:42Z</time>
      </trkpt>
      <trkpt lat="46.04386" lon="7.08883">
        <ele>1723</ele>
        <time>2022-08-27T22:11:44Z</time>
      </trkpt>
      <trkpt lat="46.04387" lon="7.08882">
        <ele>1723</ele>
        <time>2022-08-27T22:11:46Z</time>
      </trkpt>
      <trkpt lat="46.04388" lon="7.08882">
        <ele>1723</ele>
        <time>2022-08-27T22:11:47Z</time>
      </trkpt>
      <trkpt lat="46.04388" lon="7.08881">
        <ele>1723</ele>
        <time>2022-08-27T22:11:48Z</time>
      </trkpt>
      <trkpt lat="46.04389" lon="7.0888">
        <ele>1723</ele>
        <time>2022-08-27T22:11:50Z</time>
      </trkpt>
      <trkpt lat="46.0439" lon="7.0888">
        <ele>1723</ele>
        <time>2022-08-27T22:11:52Z</time>
      </trkpt>
      <trkpt lat="46.04391" lon="7.08879">
        <ele>1723</ele>
        <time>2022-08-27T22:11:54Z</time>
      </trkpt>
      <trkpt lat="46.04392" lon="7.08879">
        <ele>1723</ele>
        <time>2022-08-27T22:11:55Z</time>
      </trkpt>
      <trkpt lat="46.04393" lon="7.08878">
        <ele>1723</ele>
        <time>2022-08-27T22:11:56Z</time>
      </trkpt>
      <trkpt lat="46.04393" lon="7.08878">
        <ele>1723</ele>
        <time>2022-08-27T22:11:57Z</time>
      </trkpt>
      <trkpt lat="46.04394" lon="7.08877">
        <ele>1723</ele>
        <time>2022-08-27T22:11:58Z</time>
      </trkpt>
      <trkpt lat="46.04395" lon="7.08877">
        <ele>1723</ele>
        <time>2022-08-27T22:11:59Z</time>
      </trkpt>
      <trkpt lat="46.04396" lon="7.08875">
        <ele>1723</ele>
        <time>2022-08-27T22:12:00Z</time>
      </trkpt>
      <trkpt lat="46.04398" lon="7.08874">
        <ele>1723</ele>
        <time>2022-08-27T22:12:01Z</time>
      </trkpt>
      <trkpt lat="46.04399" lon="7.08873">
        <ele>1723</ele>
        <time>2022-08-27T22:12:02Z</time>
      </trkpt>
      <trkpt lat="46.044" lon="7.08871">
        <ele>1723</ele>
        <time>2022-08-27T22:12:04Z</time>
      </trkpt>
      <trkpt lat="46.04401" lon="7.0887">
        <ele>1723</ele>
        <time>2022-08-27T22:12:05Z</time>
      </trkpt>
      <trkpt lat="46.04403" lon="7.08869">
        <ele>1723</ele>
        <time>2022-08-27T22:12:06Z</time>
      </trkpt>
      <trkpt lat="46.04404" lon="7.08868">
        <ele>1723</ele>
        <time>2022-08-27T22:12:07Z</time>
      </trkpt>
      <trkpt lat="46.04405" lon="7.08867">
        <ele>1724</ele>
        <time>2022-08-27T22:12:09Z</time>
      </trkpt>
      <trkpt lat="46.04406" lon="7.08866">
        <ele>1724</ele>
        <time>2022-08-27T22:12:10Z</time>
      </trkpt>
      <trkpt lat="46.04407" lon="7.08865">
        <ele>1724</ele>
        <time>2022-08-27T22:12:11Z</time>
      </trkpt>
      <trkpt lat="46.04408" lon="7.08865">
        <ele>1724</ele>
        <time>2022-08-27T22:12:12Z</time>
      </trkpt>
      <trkpt lat="46.04409" lon="7.08864">
        <ele>1725</ele>
        <time>2022-08-27T22:12:14Z</time>
      </trkpt>
      <trkpt lat="46.0441" lon="7.08863">
        <ele>1725</ele>
        <time>2022-08-27T22:12:15Z</time>
      </trkpt>
      <trkpt lat="46.04412" lon="7.08862">
        <ele>1725</ele>
        <time>2022-08-27T22:12:16Z</time>
      </trkpt>
      <trkpt lat="46.04412" lon="7.08861">
        <ele>1725</ele>
        <time>2022-08-27T22:12:17Z</time>
      </trkpt>
      <trkpt lat="46.04413" lon="7.0886">
        <ele>1725</ele>
        <time>2022-08-27T22:12:18Z</time>
      </trkpt>
      <trkpt lat="46.04414" lon="7.08859">
        <ele>1725</ele>
        <time>2022-08-27T22:12:19Z</time>
      </trkpt>
      <trkpt lat="46.04415" lon="7.08858">
        <ele>1725</ele>
        <time>2022-08-27T22:12:21Z</time>
      </trkpt>
      <trkpt lat="46.04416" lon="7.08857">
        <ele>1725</ele>
        <time>2022-08-27T22:12:23Z</time>
      </trkpt>
      <trkpt lat="46.04417" lon="7.08856">
        <ele>1725</ele>
        <time>2022-08-27T22:12:24Z</time>
      </trkpt>
      <trkpt lat="46.04417" lon="7.08855">
        <ele>1725</ele>
        <time>2022-08-27T22:12:25Z</time>
      </trkpt>
      <trkpt lat="46.04418" lon="7.08854">
        <ele>1725</ele>
        <time>2022-08-27T22:12:26Z</time>
      </trkpt>
      <trkpt lat="46.04419" lon="7.08853">
        <ele>1726</ele>
        <time>2022-08-27T22:12:27Z</time>
      </trkpt>
      <trkpt lat="46.04419" lon="7.08851">
        <ele>1726</ele>
        <time>2022-08-27T22:12:28Z</time>
      </trkpt>
      <trkpt lat="46.04419" lon="7.0885">
        <ele>1727</ele>
        <time>2022-08-27T22:12:30Z</time>
      </trkpt>
      <trkpt lat="46.04419" lon="7.08848">
        <ele>1727</ele>
        <time>2022-08-27T22:12:32Z</time>
      </trkpt>
      <trkpt lat="46.04419" lon="7.08846">
        <ele>1727</ele>
        <time>2022-08-27T22:12:33Z</time>
      </trkpt>
      <trkpt lat="46.04419" lon="7.08845">
        <ele>1727</ele>
        <time>2022-08-27T22:12:34Z</time>
      </trkpt>
      <trkpt lat="46.04419" lon="7.08843">
        <ele>1727</ele>
        <time>2022-08-27T22:12:35Z</time>
      </trkpt>
      <trkpt lat="46.04419" lon="7.08841">
        <ele>1727</ele>
        <time>2022-08-27T22:12:36Z</time>
      </trkpt>
      <trkpt lat="46.04419" lon="7.08839">
        <ele>1728</ele>
        <time>2022-08-27T22:12:37Z</time>
      </trkpt>
      <trkpt lat="46.0442" lon="7.08837">
        <ele>1728</ele>
        <time>2022-08-27T22:12:38Z</time>
      </trkpt>
      <trkpt lat="46.0442" lon="7.08834">
        <ele>1728</ele>
        <time>2022-08-27T22:12:39Z</time>
      </trkpt>
      <trkpt lat="46.04421" lon="7.08831">
        <ele>1728</ele>
        <time>2022-08-27T22:12:40Z</time>
      </trkpt>
      <trkpt lat="46.04422" lon="7.08829">
        <ele>1728</ele>
        <time>2022-08-27T22:12:42Z</time>
      </trkpt>
      <trkpt lat="46.04423" lon="7.08826">
        <ele>1728</ele>
        <time>2022-08-27T22:12:43Z</time>
      </trkpt>
      <trkpt lat="46.0443" lon="7.08818">
        <ele>1729</ele>
        <time>2022-08-27T22:12:51Z</time>
      </trkpt>
      <trkpt lat="46.04434" lon="7.08806">
        <ele>1731</ele>
        <time>2022-08-27T22:13:01Z</time>
      </trkpt>
      <trkpt lat="46.04442" lon="7.08799">
        <ele>1732</ele>
        <time>2022-08-27T22:13:08Z</time>
      </trkpt>
      <trkpt lat="46.04451" lon="7.08793">
        <ele>1731</ele>
        <time>2022-08-27T22:13:18Z</time>
      </trkpt>
      <trkpt lat="46.04452" lon="7.08792">
        <ele>1731</ele>
        <time>2022-08-27T22:13:19Z</time>
      </trkpt>
      <trkpt lat="46.04453" lon="7.08791">
        <ele>1731</ele>
        <time>2022-08-27T22:13:20Z</time>
      </trkpt>
      <trkpt lat="46.04454" lon="7.08791">
        <ele>1730</ele>
        <time>2022-08-27T22:13:21Z</time>
      </trkpt>
      <trkpt lat="46.04454" lon="7.0879">
        <ele>1730</ele>
        <time>2022-08-27T22:13:23Z</time>
      </trkpt>
      <trkpt lat="46.04455" lon="7.08789">
        <ele>1730</ele>
        <time>2022-08-27T22:13:25Z</time>
      </trkpt>
      <trkpt lat="46.04456" lon="7.08788">
        <ele>1730</ele>
        <time>2022-08-27T22:13:26Z</time>
      </trkpt>
      <trkpt lat="46.04457" lon="7.08787">
        <ele>1729</ele>
        <time>2022-08-27T22:13:27Z</time>
      </trkpt>
      <trkpt lat="46.04457" lon="7.08786">
        <ele>1729</ele>
        <time>2022-08-27T22:13:29Z</time>
      </trkpt>
      <trkpt lat="46.04458" lon="7.08785">
        <ele>1729</ele>
        <time>2022-08-27T22:13:30Z</time>
      </trkpt>
      <trkpt lat="46.04459" lon="7.08783">
        <ele>1729</ele>
        <time>2022-08-27T22:13:31Z</time>
      </trkpt>
      <trkpt lat="46.0446" lon="7.08781">
        <ele>1729</ele>
        <time>2022-08-27T22:13:32Z</time>
      </trkpt>
      <trkpt lat="46.04461" lon="7.08779">
        <ele>1729</ele>
        <time>2022-08-27T22:13:33Z</time>
      </trkpt>
      <trkpt lat="46.04462" lon="7.08778">
        <ele>1729</ele>
        <time>2022-08-27T22:13:35Z</time>
      </trkpt>
      <trkpt lat="46.04463" lon="7.08776">
        <ele>1729</ele>
        <time>2022-08-27T22:13:36Z</time>
      </trkpt>
      <trkpt lat="46.04464" lon="7.08774">
        <ele>1729</ele>
        <time>2022-08-27T22:13:37Z</time>
      </trkpt>
      <trkpt lat="46.04465" lon="7.08772">
        <ele>1729</ele>
        <time>2022-08-27T22:13:38Z</time>
      </trkpt>
      <trkpt lat="46.04466" lon="7.0877">
        <ele>1728</ele>
        <time>2022-08-27T22:13:40Z</time>
      </trkpt>
      <trkpt lat="46.04468" lon="7.08768">
        <ele>1728</ele>
        <time>2022-08-27T22:13:42Z</time>
      </trkpt>
      <trkpt lat="46.04469" lon="7.08765">
        <ele>1728</ele>
        <time>2022-08-27T22:13:43Z</time>
      </trkpt>
      <trkpt lat="46.04471" lon="7.08763">
        <ele>1728</ele>
        <time>2022-08-27T22:13:44Z</time>
      </trkpt>
      <trkpt lat="46.04472" lon="7.08762">
        <ele>1728</ele>
        <time>2022-08-27T22:13:46Z</time>
      </trkpt>
      <trkpt lat="46.04474" lon="7.08761">
        <ele>1728</ele>
        <time>2022-08-27T22:13:48Z</time>
      </trkpt>
      <trkpt lat="46.04476" lon="7.08759">
        <ele>1728</ele>
        <time>2022-08-27T22:13:49Z</time>
      </trkpt>
      <trkpt lat="46.04477" lon="7.08758">
        <ele>1728</ele>
        <time>2022-08-27T22:13:50Z</time>
      </trkpt>
      <trkpt lat="46.04479" lon="7.08757">
        <ele>1728</ele>
        <time>2022-08-27T22:13:51Z</time>
      </trkpt>
      <trkpt lat="46.04489" lon="7.08758">
        <ele>1729</ele>
        <time>2022-08-27T22:13:58Z</time>
      </trkpt>
      <trkpt lat="46.0449" lon="7.08758">
        <ele>1729</ele>
        <time>2022-08-27T22:13:59Z</time>
      </trkpt>
      <trkpt lat="46.04492" lon="7.08758">
        <ele>1729</ele>
        <time>2022-08-27T22:14:00Z</time>
      </trkpt>
      <trkpt lat="46.04493" lon="7.08757">
        <ele>1729</ele>
        <time>2022-08-27T22:14:01Z</time>
      </trkpt>
      <trkpt lat="46.04495" lon="7.08757">
        <ele>1729</ele>
        <time>2022-08-27T22:14:03Z</time>
      </trkpt>
      <trkpt lat="46.04496" lon="7.08756">
        <ele>1730</ele>
        <time>2022-08-27T22:14:04Z</time>
      </trkpt>
      <trkpt lat="46.04498" lon="7.08756">
        <ele>1730</ele>
        <time>2022-08-27T22:14:05Z</time>
      </trkpt>
      <trkpt lat="46.04499" lon="7.08756">
        <ele>1730</ele>
        <time>2022-08-27T22:14:06Z</time>
      </trkpt>
      <trkpt lat="46.04501" lon="7.08754">
        <ele>1730</ele>
        <time>2022-08-27T22:14:07Z</time>
      </trkpt>
      <trkpt lat="46.04503" lon="7.08753">
        <ele>1730</ele>
        <time>2022-08-27T22:14:08Z</time>
      </trkpt>
      <trkpt lat="46.04504" lon="7.08751">
        <ele>1730</ele>
        <time>2022-08-27T22:14:09Z</time>
      </trkpt>
      <trkpt lat="46.04506" lon="7.0875">
        <ele>1730</ele>
        <time>2022-08-27T22:14:10Z</time>
      </trkpt>
      <trkpt lat="46.04508" lon="7.08748">
        <ele>1730</ele>
        <time>2022-08-27T22:14:11Z</time>
      </trkpt>
      <trkpt lat="46.0451" lon="7.08748">
        <ele>1729</ele>
        <time>2022-08-27T22:14:12Z</time>
      </trkpt>
      <trkpt lat="46.04511" lon="7.08749">
        <ele>1729</ele>
        <time>2022-08-27T22:14:13Z</time>
      </trkpt>
      <trkpt lat="46.04513" lon="7.08749">
        <ele>1729</ele>
        <time>2022-08-27T22:14:14Z</time>
      </trkpt>
      <trkpt lat="46.04514" lon="7.08749">
        <ele>1728</ele>
        <time>2022-08-27T22:14:16Z</time>
      </trkpt>
      <trkpt lat="46.04516" lon="7.0875">
        <ele>1728</ele>
        <time>2022-08-27T22:14:17Z</time>
      </trkpt>
      <trkpt lat="46.04518" lon="7.0875">
        <ele>1728</ele>
        <time>2022-08-27T22:14:18Z</time>
      </trkpt>
      <trkpt lat="46.04519" lon="7.08751">
        <ele>1728</ele>
        <time>2022-08-27T22:14:19Z</time>
      </trkpt>
      <trkpt lat="46.0452" lon="7.08751">
        <ele>1728</ele>
        <time>2022-08-27T22:14:20Z</time>
      </trkpt>
      <trkpt lat="46.04521" lon="7.08752">
        <ele>1728</ele>
        <time>2022-08-27T22:14:22Z</time>
      </trkpt>
      <trkpt lat="46.04523" lon="7.08753">
        <ele>1728</ele>
        <time>2022-08-27T22:14:23Z</time>
      </trkpt>
      <trkpt lat="46.04524" lon="7.08753">
        <ele>1728</ele>
        <time>2022-08-27T22:14:24Z</time>
      </trkpt>
      <trkpt lat="46.04525" lon="7.08754">
        <ele>1727</ele>
        <time>2022-08-27T22:14:26Z</time>
      </trkpt>
      <trkpt lat="46.04526" lon="7.08755">
        <ele>1727</ele>
        <time>2022-08-27T22:14:27Z</time>
      </trkpt>
      <trkpt lat="46.04527" lon="7.08756">
        <ele>1727</ele>
        <time>2022-08-27T22:14:28Z</time>
      </trkpt>
      <trkpt lat="46.04528" lon="7.08757">
        <ele>1727</ele>
        <time>2022-08-27T22:14:29Z</time>
      </trkpt>
      <trkpt lat="46.04528" lon="7.08759">
        <ele>1726</ele>
        <time>2022-08-27T22:14:31Z</time>
      </trkpt>
      <trkpt lat="46.04529" lon="7.0876">
        <ele>1726</ele>
        <time>2022-08-27T22:14:32Z</time>
      </trkpt>
      <trkpt lat="46.0453" lon="7.08761">
        <ele>1726</ele>
        <time>2022-08-27T22:14:33Z</time>
      </trkpt>
      <trkpt lat="46.04531" lon="7.08763">
        <ele>1725</ele>
        <time>2022-08-27T22:14:34Z</time>
      </trkpt>
      <trkpt lat="46.04531" lon="7.08764">
        <ele>1725</ele>
        <time>2022-08-27T22:14:36Z</time>
      </trkpt>
      <trkpt lat="46.04532" lon="7.08765">
        <ele>1725</ele>
        <time>2022-08-27T22:14:37Z</time>
      </trkpt>
      <trkpt lat="46.04533" lon="7.08766">
        <ele>1725</ele>
        <time>2022-08-27T22:14:38Z</time>
      </trkpt>
      <trkpt lat="46.04535" lon="7.08767">
        <ele>1724</ele>
        <time>2022-08-27T22:14:39Z</time>
      </trkpt>
      <trkpt lat="46.04536" lon="7.08768">
        <ele>1724</ele>
        <time>2022-08-27T22:14:41Z</time>
      </trkpt>
      <trkpt lat="46.04538" lon="7.08769">
        <ele>1722</ele>
        <time>2022-08-27T22:14:43Z</time>
      </trkpt>
      <trkpt lat="46.04539" lon="7.08769">
        <ele>1722</ele>
        <time>2022-08-27T22:14:44Z</time>
      </trkpt>
      <trkpt lat="46.0454" lon="7.0877">
        <ele>1722</ele>
        <time>2022-08-27T22:14:45Z</time>
      </trkpt>
      <trkpt lat="46.04542" lon="7.0877">
        <ele>1722</ele>
        <time>2022-08-27T22:14:46Z</time>
      </trkpt>
      <trkpt lat="46.04544" lon="7.0877">
        <ele>1722</ele>
        <time>2022-08-27T22:14:47Z</time>
      </trkpt>
      <trkpt lat="46.04546" lon="7.0877">
        <ele>1722</ele>
        <time>2022-08-27T22:14:48Z</time>
      </trkpt>
      <trkpt lat="46.04548" lon="7.0877">
        <ele>1721</ele>
        <time>2022-08-27T22:14:50Z</time>
      </trkpt>
      <trkpt lat="46.0455" lon="7.0877">
        <ele>1721</ele>
        <time>2022-08-27T22:14:51Z</time>
      </trkpt>
      <trkpt lat="46.04551" lon="7.08767">
        <ele>1721</ele>
        <time>2022-08-27T22:14:52Z</time>
      </trkpt>
      <trkpt lat="46.04552" lon="7.08765">
        <ele>1721</ele>
        <time>2022-08-27T22:14:53Z</time>
      </trkpt>
      <trkpt lat="46.04553" lon="7.08762">
        <ele>1720</ele>
        <time>2022-08-27T22:14:55Z</time>
      </trkpt>
      <trkpt lat="46.04553" lon="7.0876">
        <ele>1720</ele>
        <time>2022-08-27T22:14:56Z</time>
      </trkpt>
      <trkpt lat="46.04554" lon="7.08757">
        <ele>1720</ele>
        <time>2022-08-27T22:14:57Z</time>
      </trkpt>
      <trkpt lat="46.04555" lon="7.08757">
        <ele>1720</ele>
        <time>2022-08-27T22:14:58Z</time>
      </trkpt>
      <trkpt lat="46.04556" lon="7.08757">
        <ele>1720</ele>
        <time>2022-08-27T22:15:00Z</time>
      </trkpt>
      <trkpt lat="46.04557" lon="7.08756">
        <ele>1719</ele>
        <time>2022-08-27T22:15:02Z</time>
      </trkpt>
      <trkpt lat="46.04559" lon="7.08756">
        <ele>1719</ele>
        <time>2022-08-27T22:15:03Z</time>
      </trkpt>
      <trkpt lat="46.0456" lon="7.08755">
        <ele>1719</ele>
        <time>2022-08-27T22:15:04Z</time>
      </trkpt>
      <trkpt lat="46.04561" lon="7.08755">
        <ele>1719</ele>
        <time>2022-08-27T22:15:05Z</time>
      </trkpt>
      <trkpt lat="46.04562" lon="7.08754">
        <ele>1718</ele>
        <time>2022-08-27T22:15:06Z</time>
      </trkpt>
      <trkpt lat="46.04563" lon="7.08754">
        <ele>1718</ele>
        <time>2022-08-27T22:15:07Z</time>
      </trkpt>
      <trkpt lat="46.04564" lon="7.08751">
        <ele>1718</ele>
        <time>2022-08-27T22:15:08Z</time>
      </trkpt>
      <trkpt lat="46.04565" lon="7.08749">
        <ele>1717</ele>
        <time>2022-08-27T22:15:10Z</time>
      </trkpt>
      <trkpt lat="46.04566" lon="7.08746">
        <ele>1717</ele>
        <time>2022-08-27T22:15:11Z</time>
      </trkpt>
      <trkpt lat="46.04567" lon="7.08744">
        <ele>1717</ele>
        <time>2022-08-27T22:15:12Z</time>
      </trkpt>
      <trkpt lat="46.04568" lon="7.08741">
        <ele>1717</ele>
        <time>2022-08-27T22:15:13Z</time>
      </trkpt>
      <trkpt lat="46.04569" lon="7.0874">
        <ele>1717</ele>
        <time>2022-08-27T22:15:15Z</time>
      </trkpt>
      <trkpt lat="46.04569" lon="7.08738">
        <ele>1716</ele>
        <time>2022-08-27T22:15:17Z</time>
      </trkpt>
      <trkpt lat="46.0457" lon="7.08736">
        <ele>1716</ele>
        <time>2022-08-27T22:15:19Z</time>
      </trkpt>
      <trkpt lat="46.04571" lon="7.08735">
        <ele>1716</ele>
        <time>2022-08-27T22:15:20Z</time>
      </trkpt>
      <trkpt lat="46.04572" lon="7.08733">
        <ele>1716</ele>
        <time>2022-08-27T22:15:21Z</time>
      </trkpt>
      <trkpt lat="46.04573" lon="7.08731">
        <ele>1716</ele>
        <time>2022-08-27T22:15:23Z</time>
      </trkpt>
      <trkpt lat="46.04574" lon="7.0873">
        <ele>1716</ele>
        <time>2022-08-27T22:15:24Z</time>
      </trkpt>
      <trkpt lat="46.04575" lon="7.08729">
        <ele>1716</ele>
        <time>2022-08-27T22:15:25Z</time>
      </trkpt>
      <trkpt lat="46.04575" lon="7.08728">
        <ele>1716</ele>
        <time>2022-08-27T22:15:26Z</time>
      </trkpt>
      <trkpt lat="46.04576" lon="7.08727">
        <ele>1716</ele>
        <time>2022-08-27T22:15:27Z</time>
      </trkpt>
      <trkpt lat="46.04576" lon="7.08726">
        <ele>1715</ele>
        <time>2022-08-27T22:15:29Z</time>
      </trkpt>
      <trkpt lat="46.04577" lon="7.08725">
        <ele>1715</ele>
        <time>2022-08-27T22:15:30Z</time>
      </trkpt>
      <trkpt lat="46.04577" lon="7.08724">
        <ele>1715</ele>
        <time>2022-08-27T22:15:31Z</time>
      </trkpt>
      <trkpt lat="46.04582" lon="7.08717">
        <ele>1715</ele>
        <time>2022-08-27T22:15:32Z</time>
      </trkpt>
      <trkpt lat="46.04584" lon="7.08716">
        <ele>1715</ele>
        <time>2022-08-27T22:15:34Z</time>
      </trkpt>
      <trkpt lat="46.04586" lon="7.08714">
        <ele>1715</ele>
        <time>2022-08-27T22:15:36Z</time>
      </trkpt>
      <trkpt lat="46.04587" lon="7.08713">
        <ele>1715</ele>
        <time>2022-08-27T22:15:37Z</time>
      </trkpt>
      <trkpt lat="46.04589" lon="7.08711">
        <ele>1715</ele>
        <time>2022-08-27T22:15:38Z</time>
      </trkpt>
      <trkpt lat="46.0459" lon="7.0871">
        <ele>1714</ele>
        <time>2022-08-27T22:15:40Z</time>
      </trkpt>
      <trkpt lat="46.0459" lon="7.08709">
        <ele>1714</ele>
        <time>2022-08-27T22:15:42Z</time>
      </trkpt>
      <trkpt lat="46.04591" lon="7.08708">
        <ele>1714</ele>
        <time>2022-08-27T22:15:43Z</time>
      </trkpt>
      <trkpt lat="46.04591" lon="7.08708">
        <ele>1714</ele>
        <time>2022-08-27T22:15:44Z</time>
      </trkpt>
      <trkpt lat="46.04592" lon="7.08707">
        <ele>1714</ele>
        <time>2022-08-27T22:15:45Z</time>
      </trkpt>
      <trkpt lat="46.04592" lon="7.08706">
        <ele>1714</ele>
        <time>2022-08-27T22:15:47Z</time>
      </trkpt>
      <trkpt lat="46.04593" lon="7.08705">
        <ele>1714</ele>
        <time>2022-08-27T22:15:48Z</time>
      </trkpt>
      <trkpt lat="46.04593" lon="7.08704">
        <ele>1713</ele>
        <time>2022-08-27T22:15:49Z</time>
      </trkpt>
      <trkpt lat="46.04594" lon="7.08703">
        <ele>1713</ele>
        <time>2022-08-27T22:15:50Z</time>
      </trkpt>
      <trkpt lat="46.04594" lon="7.08702">
        <ele>1713</ele>
        <time>2022-08-27T22:15:52Z</time>
      </trkpt>
      <trkpt lat="46.04595" lon="7.08701">
        <ele>1713</ele>
        <time>2022-08-27T22:15:53Z</time>
      </trkpt>
      <trkpt lat="46.04595" lon="7.087">
        <ele>1712</ele>
        <time>2022-08-27T22:15:54Z</time>
      </trkpt>
      <trkpt lat="46.04603" lon="7.0869">
        <ele>1710</ele>
        <time>2022-08-27T22:16:02Z</time>
      </trkpt>
      <trkpt lat="46.04604" lon="7.08688">
        <ele>1710</ele>
        <time>2022-08-27T22:16:04Z</time>
      </trkpt>
      <trkpt lat="46.04605" lon="7.08687">
        <ele>1710</ele>
        <time>2022-08-27T22:16:05Z</time>
      </trkpt>
      <trkpt lat="46.04606" lon="7.08685">
        <ele>1710</ele>
        <time>2022-08-27T22:16:06Z</time>
      </trkpt>
      <trkpt lat="46.04607" lon="7.08683">
        <ele>1710</ele>
        <time>2022-08-27T22:16:07Z</time>
      </trkpt>
      <trkpt lat="46.04608" lon="7.08682">
        <ele>1710</ele>
        <time>2022-08-27T22:16:09Z</time>
      </trkpt>
      <trkpt lat="46.04609" lon="7.0868">
        <ele>1710</ele>
        <time>2022-08-27T22:16:10Z</time>
      </trkpt>
      <trkpt lat="46.0461" lon="7.08678">
        <ele>1709</ele>
        <time>2022-08-27T22:16:11Z</time>
      </trkpt>
      <trkpt lat="46.04611" lon="7.08676">
        <ele>1709</ele>
        <time>2022-08-27T22:16:12Z</time>
      </trkpt>
      <trkpt lat="46.04611" lon="7.08674">
        <ele>1709</ele>
        <time>2022-08-27T22:16:14Z</time>
      </trkpt>
      <trkpt lat="46.04612" lon="7.08672">
        <ele>1709</ele>
        <time>2022-08-27T22:16:16Z</time>
      </trkpt>
      <trkpt lat="46.04613" lon="7.0867">
        <ele>1708</ele>
        <time>2022-08-27T22:16:17Z</time>
      </trkpt>
      <trkpt lat="46.04614" lon="7.08668">
        <ele>1708</ele>
        <time>2022-08-27T22:16:18Z</time>
      </trkpt>
      <trkpt lat="46.04614" lon="7.08666">
        <ele>1707</ele>
        <time>2022-08-27T22:16:20Z</time>
      </trkpt>
      <trkpt lat="46.04615" lon="7.08665">
        <ele>1707</ele>
        <time>2022-08-27T22:16:21Z</time>
      </trkpt>
      <trkpt lat="46.04615" lon="7.08663">
        <ele>1707</ele>
        <time>2022-08-27T22:16:22Z</time>
      </trkpt>
      <trkpt lat="46.04615" lon="7.08662">
        <ele>1707</ele>
        <time>2022-08-27T22:16:23Z</time>
      </trkpt>
      <trkpt lat="46.04616" lon="7.08661">
        <ele>1706</ele>
        <time>2022-08-27T22:16:25Z</time>
      </trkpt>
      <trkpt lat="46.04616" lon="7.08659">
        <ele>1706</ele>
        <time>2022-08-27T22:16:26Z</time>
      </trkpt>
      <trkpt lat="46.04616" lon="7.08658">
        <ele>1706</ele>
        <time>2022-08-27T22:16:27Z</time>
      </trkpt>
      <trkpt lat="46.04616" lon="7.08656">
        <ele>1706</ele>
        <time>2022-08-27T22:16:28Z</time>
      </trkpt>
      <trkpt lat="46.04617" lon="7.08655">
        <ele>1706</ele>
        <time>2022-08-27T22:16:29Z</time>
      </trkpt>
      <trkpt lat="46.04617" lon="7.08653">
        <ele>1705</ele>
        <time>2022-08-27T22:16:30Z</time>
      </trkpt>
      <trkpt lat="46.04625" lon="7.08646">
        <ele>1705</ele>
        <time>2022-08-27T22:16:35Z</time>
      </trkpt>
      <trkpt lat="46.04632" lon="7.08636">
        <ele>1704</ele>
        <time>2022-08-27T22:16:42Z</time>
      </trkpt>
      <trkpt lat="46.04633" lon="7.08634">
        <ele>1703</ele>
        <time>2022-08-27T22:16:43Z</time>
      </trkpt>
      <trkpt lat="46.04633" lon="7.08633">
        <ele>1703</ele>
        <time>2022-08-27T22:16:44Z</time>
      </trkpt>
      <trkpt lat="46.04634" lon="7.08631">
        <ele>1703</ele>
        <time>2022-08-27T22:16:45Z</time>
      </trkpt>
      <trkpt lat="46.04635" lon="7.0863">
        <ele>1703</ele>
        <time>2022-08-27T22:16:47Z</time>
      </trkpt>
      <trkpt lat="46.04636" lon="7.08628">
        <ele>1703</ele>
        <time>2022-08-27T22:16:48Z</time>
      </trkpt>
      <trkpt lat="46.04636" lon="7.08627">
        <ele>1702</ele>
        <time>2022-08-27T22:16:49Z</time>
      </trkpt>
      <trkpt lat="46.04637" lon="7.08625">
        <ele>1702</ele>
        <time>2022-08-27T22:16:50Z</time>
      </trkpt>
      <trkpt lat="46.04638" lon="7.08624">
        <ele>1702</ele>
        <time>2022-08-27T22:16:51Z</time>
      </trkpt>
      <trkpt lat="46.04641" lon="7.08611">
        <ele>1700</ele>
        <time>2022-08-27T22:17:04Z</time>
      </trkpt>
      <trkpt lat="46.04642" lon="7.0861">
        <ele>1700</ele>
        <time>2022-08-27T22:17:05Z</time>
      </trkpt>
      <trkpt lat="46.04643" lon="7.08608">
        <ele>1700</ele>
        <time>2022-08-27T22:17:06Z</time>
      </trkpt>
      <trkpt lat="46.04644" lon="7.08607">
        <ele>1700</ele>
        <time>2022-08-27T22:17:07Z</time>
      </trkpt>
      <trkpt lat="46.04645" lon="7.08605">
        <ele>1700</ele>
        <time>2022-08-27T22:17:09Z</time>
      </trkpt>
      <trkpt lat="46.04646" lon="7.08604">
        <ele>1701</ele>
        <time>2022-08-27T22:17:10Z</time>
      </trkpt>
      <trkpt lat="46.04647" lon="7.08602">
        <ele>1701</ele>
        <time>2022-08-27T22:17:11Z</time>
      </trkpt>
      <trkpt lat="46.04648" lon="7.08601">
        <ele>1701</ele>
        <time>2022-08-27T22:17:12Z</time>
      </trkpt>
      <trkpt lat="46.04649" lon="7.086">
        <ele>1700</ele>
        <time>2022-08-27T22:17:13Z</time>
      </trkpt>
      <trkpt lat="46.04655" lon="7.0859">
        <ele>1701</ele>
        <time>2022-08-27T22:17:17Z</time>
      </trkpt>
      <trkpt lat="46.04656" lon="7.08588">
        <ele>1701</ele>
        <time>2022-08-27T22:17:18Z</time>
      </trkpt>
      <trkpt lat="46.04657" lon="7.08587">
        <ele>1701</ele>
        <time>2022-08-27T22:17:19Z</time>
      </trkpt>
      <trkpt lat="46.04658" lon="7.08586">
        <ele>1701</ele>
        <time>2022-08-27T22:17:20Z</time>
      </trkpt>
      <trkpt lat="46.04658" lon="7.08585">
        <ele>1701</ele>
        <time>2022-08-27T22:17:22Z</time>
      </trkpt>
      <trkpt lat="46.04659" lon="7.08584">
        <ele>1701</ele>
        <time>2022-08-27T22:17:23Z</time>
      </trkpt>
      <trkpt lat="46.0466" lon="7.08582">
        <ele>1701</ele>
        <time>2022-08-27T22:17:24Z</time>
      </trkpt>
      <trkpt lat="46.04661" lon="7.08581">
        <ele>1701</ele>
        <time>2022-08-27T22:17:25Z</time>
      </trkpt>
      <trkpt lat="46.04661" lon="7.0858">
        <ele>1701</ele>
        <time>2022-08-27T22:17:26Z</time>
      </trkpt>
      <trkpt lat="46.04662" lon="7.08579">
        <ele>1701</ele>
        <time>2022-08-27T22:17:27Z</time>
      </trkpt>
      <trkpt lat="46.04664" lon="7.08578">
        <ele>1701</ele>
        <time>2022-08-27T22:17:28Z</time>
      </trkpt>
      <trkpt lat="46.04665" lon="7.08577">
        <ele>1701</ele>
        <time>2022-08-27T22:17:29Z</time>
      </trkpt>
      <trkpt lat="46.04666" lon="7.08576">
        <ele>1701</ele>
        <time>2022-08-27T22:17:30Z</time>
      </trkpt>
      <trkpt lat="46.04668" lon="7.08576">
        <ele>1701</ele>
        <time>2022-08-27T22:17:32Z</time>
      </trkpt>
      <trkpt lat="46.04669" lon="7.08575">
        <ele>1701</ele>
        <time>2022-08-27T22:17:33Z</time>
      </trkpt>
      <trkpt lat="46.0467" lon="7.08574">
        <ele>1701</ele>
        <time>2022-08-27T22:17:34Z</time>
      </trkpt>
      <trkpt lat="46.04672" lon="7.08573">
        <ele>1702</ele>
        <time>2022-08-27T22:17:35Z</time>
      </trkpt>
      <trkpt lat="46.04672" lon="7.08572">
        <ele>1702</ele>
        <time>2022-08-27T22:17:36Z</time>
      </trkpt>
      <trkpt lat="46.04673" lon="7.0857">
        <ele>1702</ele>
        <time>2022-08-27T22:17:37Z</time>
      </trkpt>
      <trkpt lat="46.04674" lon="7.08568">
        <ele>1702</ele>
        <time>2022-08-27T22:17:38Z</time>
      </trkpt>
      <trkpt lat="46.04675" lon="7.08566">
        <ele>1703</ele>
        <time>2022-08-27T22:17:40Z</time>
      </trkpt>
      <trkpt lat="46.04676" lon="7.08565">
        <ele>1703</ele>
        <time>2022-08-27T22:17:41Z</time>
      </trkpt>
      <trkpt lat="46.04677" lon="7.08563">
        <ele>1703</ele>
        <time>2022-08-27T22:17:42Z</time>
      </trkpt>
      <trkpt lat="46.04678" lon="7.08562">
        <ele>1703</ele>
        <time>2022-08-27T22:17:43Z</time>
      </trkpt>
      <trkpt lat="46.04679" lon="7.08561">
        <ele>1703</ele>
        <time>2022-08-27T22:17:45Z</time>
      </trkpt>
      <trkpt lat="46.04681" lon="7.0856">
        <ele>1703</ele>
        <time>2022-08-27T22:17:46Z</time>
      </trkpt>
      <trkpt lat="46.04682" lon="7.08559">
        <ele>1703</ele>
        <time>2022-08-27T22:17:47Z</time>
      </trkpt>
      <trkpt lat="46.04683" lon="7.08558">
        <ele>1703</ele>
        <time>2022-08-27T22:17:48Z</time>
      </trkpt>
      <trkpt lat="46.04684" lon="7.08557">
        <ele>1703</ele>
        <time>2022-08-27T22:17:50Z</time>
      </trkpt>
      <trkpt lat="46.04686" lon="7.08556">
        <ele>1703</ele>
        <time>2022-08-27T22:17:51Z</time>
      </trkpt>
      <trkpt lat="46.04687" lon="7.08555">
        <ele>1703</ele>
        <time>2022-08-27T22:17:53Z</time>
      </trkpt>
      <trkpt lat="46.04689" lon="7.08553">
        <ele>1703</ele>
        <time>2022-08-27T22:17:55Z</time>
      </trkpt>
      <trkpt lat="46.0469" lon="7.08551">
        <ele>1703</ele>
        <time>2022-08-27T22:17:56Z</time>
      </trkpt>
      <trkpt lat="46.04692" lon="7.08549">
        <ele>1703</ele>
        <time>2022-08-27T22:17:57Z</time>
      </trkpt>
      <trkpt lat="46.04693" lon="7.08548">
        <ele>1703</ele>
        <time>2022-08-27T22:17:58Z</time>
      </trkpt>
      <trkpt lat="46.04695" lon="7.08546">
        <ele>1703</ele>
        <time>2022-08-27T22:18:00Z</time>
      </trkpt>
      <trkpt lat="46.04696" lon="7.08545">
        <ele>1704</ele>
        <time>2022-08-27T22:18:01Z</time>
      </trkpt>
      <trkpt lat="46.04697" lon="7.08544">
        <ele>1704</ele>
        <time>2022-08-27T22:18:02Z</time>
      </trkpt>
      <trkpt lat="46.04699" lon="7.08543">
        <ele>1704</ele>
        <time>2022-08-27T22:18:03Z</time>
      </trkpt>
      <trkpt lat="46.047" lon="7.08542">
        <ele>1704</ele>
        <time>2022-08-27T22:18:05Z</time>
      </trkpt>
      <trkpt lat="46.04702" lon="7.0854">
        <ele>1704</ele>
        <time>2022-08-27T22:18:06Z</time>
      </trkpt>
      <trkpt lat="46.04703" lon="7.08541">
        <ele>1704</ele>
        <time>2022-08-27T22:18:07Z</time>
      </trkpt>
      <trkpt lat="46.04703" lon="7.08542">
        <ele>1704</ele>
        <time>2022-08-27T22:18:08Z</time>
      </trkpt>
      <trkpt lat="46.04704" lon="7.08543">
        <ele>1704</ele>
        <time>2022-08-27T22:18:10Z</time>
      </trkpt>
      <trkpt lat="46.04705" lon="7.08544">
        <ele>1704</ele>
        <time>2022-08-27T22:18:12Z</time>
      </trkpt>
      <trkpt lat="46.04706" lon="7.08545">
        <ele>1704</ele>
        <time>2022-08-27T22:18:13Z</time>
      </trkpt>
      <trkpt lat="46.04707" lon="7.08545">
        <ele>1704</ele>
        <time>2022-08-27T22:18:14Z</time>
      </trkpt>
      <trkpt lat="46.04708" lon="7.08546">
        <ele>1704</ele>
        <time>2022-08-27T22:18:15Z</time>
      </trkpt>
      <trkpt lat="46.04709" lon="7.08547">
        <ele>1704</ele>
        <time>2022-08-27T22:18:17Z</time>
      </trkpt>
      <trkpt lat="46.0471" lon="7.08548">
        <ele>1703</ele>
        <time>2022-08-27T22:18:18Z</time>
      </trkpt>
      <trkpt lat="46.04712" lon="7.08549">
        <ele>1703</ele>
        <time>2022-08-27T22:18:19Z</time>
      </trkpt>
      <trkpt lat="46.04713" lon="7.0855">
        <ele>1703</ele>
        <time>2022-08-27T22:18:20Z</time>
      </trkpt>
      <trkpt lat="46.04714" lon="7.08551">
        <ele>1703</ele>
        <time>2022-08-27T22:18:21Z</time>
      </trkpt>
      <trkpt lat="46.04716" lon="7.08552">
        <ele>1703</ele>
        <time>2022-08-27T22:18:23Z</time>
      </trkpt>
      <trkpt lat="46.04717" lon="7.08553">
        <ele>1703</ele>
        <time>2022-08-27T22:18:24Z</time>
      </trkpt>
      <trkpt lat="46.04718" lon="7.08554">
        <ele>1703</ele>
        <time>2022-08-27T22:18:25Z</time>
      </trkpt>
      <trkpt lat="46.04719" lon="7.08553">
        <ele>1703</ele>
        <time>2022-08-27T22:18:26Z</time>
      </trkpt>
      <trkpt lat="46.0472" lon="7.08553">
        <ele>1702</ele>
        <time>2022-08-27T22:18:28Z</time>
      </trkpt>
      <trkpt lat="46.04721" lon="7.08552">
        <ele>1702</ele>
        <time>2022-08-27T22:18:29Z</time>
      </trkpt>
      <trkpt lat="46.04722" lon="7.08552">
        <ele>1702</ele>
        <time>2022-08-27T22:18:30Z</time>
      </trkpt>
      <trkpt lat="46.04723" lon="7.08551">
        <ele>1701</ele>
        <time>2022-08-27T22:18:32Z</time>
      </trkpt>
      <trkpt lat="46.04724" lon="7.08551">
        <ele>1701</ele>
        <time>2022-08-27T22:18:33Z</time>
      </trkpt>
      <trkpt lat="46.04724" lon="7.0855">
        <ele>1701</ele>
        <time>2022-08-27T22:18:34Z</time>
      </trkpt>
      <trkpt lat="46.04725" lon="7.0855">
        <ele>1701</ele>
        <time>2022-08-27T22:18:35Z</time>
      </trkpt>
      <trkpt lat="46.04726" lon="7.08549">
        <ele>1701</ele>
        <time>2022-08-27T22:18:36Z</time>
      </trkpt>
      <trkpt lat="46.04727" lon="7.08549">
        <ele>1701</ele>
        <time>2022-08-27T22:18:37Z</time>
      </trkpt>
      <trkpt lat="46.04728" lon="7.08549">
        <ele>1701</ele>
        <time>2022-08-27T22:18:38Z</time>
      </trkpt>
      <trkpt lat="46.04728" lon="7.08549">
        <ele>1701</ele>
        <time>2022-08-27T22:18:39Z</time>
      </trkpt>
      <trkpt lat="46.04729" lon="7.08548">
        <ele>1700</ele>
        <time>2022-08-27T22:18:40Z</time>
      </trkpt>
      <trkpt lat="46.0473" lon="7.08548">
        <ele>1700</ele>
        <time>2022-08-27T22:18:42Z</time>
      </trkpt>
      <trkpt lat="46.0473" lon="7.08548">
        <ele>1700</ele>
        <time>2022-08-27T22:18:43Z</time>
      </trkpt>
      <trkpt lat="46.04731" lon="7.08548">
        <ele>1700</ele>
        <time>2022-08-27T22:18:44Z</time>
      </trkpt>
      <trkpt lat="46.04732" lon="7.08548">
        <ele>1700</ele>
        <time>2022-08-27T22:18:45Z</time>
      </trkpt>
      <trkpt lat="46.04732" lon="7.08548">
        <ele>1700</ele>
        <time>2022-08-27T22:18:47Z</time>
      </trkpt>
      <trkpt lat="46.04733" lon="7.08548">
        <ele>1699</ele>
        <time>2022-08-27T22:18:48Z</time>
      </trkpt>
      <trkpt lat="46.04734" lon="7.08547">
        <ele>1699</ele>
        <time>2022-08-27T22:18:49Z</time>
      </trkpt>
      <trkpt lat="46.04735" lon="7.08547">
        <ele>1699</ele>
        <time>2022-08-27T22:18:50Z</time>
      </trkpt>
      <trkpt lat="46.04735" lon="7.08547">
        <ele>1698</ele>
        <time>2022-08-27T22:18:52Z</time>
      </trkpt>
      <trkpt lat="46.04736" lon="7.08547">
        <ele>1698</ele>
        <time>2022-08-27T22:18:53Z</time>
      </trkpt>
      <trkpt lat="46.04737" lon="7.08547">
        <ele>1698</ele>
        <time>2022-08-27T22:18:54Z</time>
      </trkpt>
      <trkpt lat="46.04744" lon="7.08538">
        <ele>1693</ele>
        <time>2022-08-27T22:19:14Z</time>
      </trkpt>
      <trkpt lat="46.04745" lon="7.08537">
        <ele>1693</ele>
        <time>2022-08-27T22:19:15Z</time>
      </trkpt>
      <trkpt lat="46.04746" lon="7.08537">
        <ele>1693</ele>
        <time>2022-08-27T22:19:16Z</time>
      </trkpt>
      <trkpt lat="46.04747" lon="7.08536">
        <ele>1693</ele>
        <time>2022-08-27T22:19:17Z</time>
      </trkpt>
      <trkpt lat="46.04748" lon="7.08536">
        <ele>1692</ele>
        <time>2022-08-27T22:19:19Z</time>
      </trkpt>
      <trkpt lat="46.04748" lon="7.08535">
        <ele>1692</ele>
        <time>2022-08-27T22:19:20Z</time>
      </trkpt>
      <trkpt lat="46.04749" lon="7.08535">
        <ele>1692</ele>
        <time>2022-08-27T22:19:21Z</time>
      </trkpt>
      <trkpt lat="46.0475" lon="7.08534">
        <ele>1692</ele>
        <time>2022-08-27T22:19:22Z</time>
      </trkpt>
      <trkpt lat="46.04751" lon="7.08534">
        <ele>1691</ele>
        <time>2022-08-27T22:19:24Z</time>
      </trkpt>
      <trkpt lat="46.04751" lon="7.08533">
        <ele>1691</ele>
        <time>2022-08-27T22:19:26Z</time>
      </trkpt>
      <trkpt lat="46.04752" lon="7.08533">
        <ele>1691</ele>
        <time>2022-08-27T22:19:27Z</time>
      </trkpt>
      <trkpt lat="46.04753" lon="7.08532">
        <ele>1690</ele>
        <time>2022-08-27T22:19:28Z</time>
      </trkpt>
      <trkpt lat="46.04753" lon="7.08531">
        <ele>1689</ele>
        <time>2022-08-27T22:19:30Z</time>
      </trkpt>
      <trkpt lat="46.04754" lon="7.0853">
        <ele>1689</ele>
        <time>2022-08-27T22:19:31Z</time>
      </trkpt>
      <trkpt lat="46.04754" lon="7.08529">
        <ele>1689</ele>
        <time>2022-08-27T22:19:32Z</time>
      </trkpt>
      <trkpt lat="46.04755" lon="7.08528">
        <ele>1689</ele>
        <time>2022-08-27T22:19:33Z</time>
      </trkpt>
      <trkpt lat="46.04756" lon="7.08527">
        <ele>1689</ele>
        <time>2022-08-27T22:19:35Z</time>
      </trkpt>
      <trkpt lat="46.04756" lon="7.08526">
        <ele>1689</ele>
        <time>2022-08-27T22:19:36Z</time>
      </trkpt>
      <trkpt lat="46.04757" lon="7.08525">
        <ele>1689</ele>
        <time>2022-08-27T22:19:37Z</time>
      </trkpt>
      <trkpt lat="46.04757" lon="7.08524">
        <ele>1689</ele>
        <time>2022-08-27T22:19:38Z</time>
      </trkpt>
      <trkpt lat="46.04758" lon="7.08523">
        <ele>1689</ele>
        <time>2022-08-27T22:19:39Z</time>
      </trkpt>
      <trkpt lat="46.04758" lon="7.08522">
        <ele>1689</ele>
        <time>2022-08-27T22:19:40Z</time>
      </trkpt>
      <trkpt lat="46.04759" lon="7.08522">
        <ele>1689</ele>
        <time>2022-08-27T22:19:41Z</time>
      </trkpt>
      <trkpt lat="46.0476" lon="7.08522">
        <ele>1689</ele>
        <time>2022-08-27T22:19:43Z</time>
      </trkpt>
      <trkpt lat="46.0476" lon="7.08521">
        <ele>1689</ele>
        <time>2022-08-27T22:19:45Z</time>
      </trkpt>
      <trkpt lat="46.04761" lon="7.08521">
        <ele>1689</ele>
        <time>2022-08-27T22:19:46Z</time>
      </trkpt>
      <trkpt lat="46.04762" lon="7.08521">
        <ele>1688</ele>
        <time>2022-08-27T22:19:47Z</time>
      </trkpt>
      <trkpt lat="46.04763" lon="7.08521">
        <ele>1686</ele>
        <time>2022-08-27T22:19:49Z</time>
      </trkpt>
      <trkpt lat="46.04763" lon="7.08521">
        <ele>1686</ele>
        <time>2022-08-27T22:19:50Z</time>
      </trkpt>
      <trkpt lat="46.04764" lon="7.08521">
        <ele>1686</ele>
        <time>2022-08-27T22:19:51Z</time>
      </trkpt>
      <trkpt lat="46.04765" lon="7.08521">
        <ele>1686</ele>
        <time>2022-08-27T22:19:53Z</time>
      </trkpt>
      <trkpt lat="46.04766" lon="7.08521">
        <ele>1686</ele>
        <time>2022-08-27T22:19:54Z</time>
      </trkpt>
      <trkpt lat="46.04766" lon="7.08521">
        <ele>1686</ele>
        <time>2022-08-27T22:19:55Z</time>
      </trkpt>
      <trkpt lat="46.04767" lon="7.08521">
        <ele>1686</ele>
        <time>2022-08-27T22:19:56Z</time>
      </trkpt>
      <trkpt lat="46.04768" lon="7.08521">
        <ele>1684</ele>
        <time>2022-08-27T22:19:57Z</time>
      </trkpt>
      <trkpt lat="46.04769" lon="7.08521">
        <ele>1684</ele>
        <time>2022-08-27T22:19:58Z</time>
      </trkpt>
      <trkpt lat="46.0477" lon="7.08521">
        <ele>1684</ele>
        <time>2022-08-27T22:19:59Z</time>
      </trkpt>
      <trkpt lat="46.04771" lon="7.08522">
        <ele>1684</ele>
        <time>2022-08-27T22:20:00Z</time>
      </trkpt>
      <trkpt lat="46.04772" lon="7.08522">
        <ele>1684</ele>
        <time>2022-08-27T22:20:02Z</time>
      </trkpt>
      <trkpt lat="46.04774" lon="7.08522">
        <ele>1684</ele>
        <time>2022-08-27T22:20:04Z</time>
      </trkpt>
      <trkpt lat="46.04775" lon="7.08522">
        <ele>1682</ele>
        <time>2022-08-27T22:20:06Z</time>
      </trkpt>
      <trkpt lat="46.04776" lon="7.08523">
        <ele>1682</ele>
        <time>2022-08-27T22:20:07Z</time>
      </trkpt>
      <trkpt lat="46.04777" lon="7.08523">
        <ele>1682</ele>
        <time>2022-08-27T22:20:08Z</time>
      </trkpt>
      <trkpt lat="46.04778" lon="7.08523">
        <ele>1682</ele>
        <time>2022-08-27T22:20:09Z</time>
      </trkpt>
      <trkpt lat="46.04778" lon="7.08522">
        <ele>1682</ele>
        <time>2022-08-27T22:20:11Z</time>
      </trkpt>
      <trkpt lat="46.04779" lon="7.08522">
        <ele>1681</ele>
        <time>2022-08-27T22:20:12Z</time>
      </trkpt>
      <trkpt lat="46.04779" lon="7.08522">
        <ele>1681</ele>
        <time>2022-08-27T22:20:13Z</time>
      </trkpt>
      <trkpt lat="46.0478" lon="7.08522">
        <ele>1681</ele>
        <time>2022-08-27T22:20:14Z</time>
      </trkpt>
      <trkpt lat="46.04781" lon="7.08522">
        <ele>1680</ele>
        <time>2022-08-27T22:20:16Z</time>
      </trkpt>
      <trkpt lat="46.04781" lon="7.08522">
        <ele>1680</ele>
        <time>2022-08-27T22:20:18Z</time>
      </trkpt>
      <trkpt lat="46.04782" lon="7.08521">
        <ele>1680</ele>
        <time>2022-08-27T22:20:19Z</time>
      </trkpt>
      <trkpt lat="46.04787" lon="7.08518">
        <ele>1679</ele>
        <time>2022-08-27T22:20:20Z</time>
      </trkpt>
      <trkpt lat="46.04788" lon="7.08517">
        <ele>1679</ele>
        <time>2022-08-27T22:20:21Z</time>
      </trkpt>
      <trkpt lat="46.04788" lon="7.08515">
        <ele>1679</ele>
        <time>2022-08-27T22:20:23Z</time>
      </trkpt>
      <trkpt lat="46.04789" lon="7.08514">
        <ele>1679</ele>
        <time>2022-08-27T22:20:24Z</time>
      </trkpt>
      <trkpt lat="46.04789" lon="7.08512">
        <ele>1679</ele>
        <time>2022-08-27T22:20:25Z</time>
      </trkpt>
      <trkpt lat="46.0479" lon="7.08511">
        <ele>1679</ele>
        <time>2022-08-27T22:20:26Z</time>
      </trkpt>
      <trkpt lat="46.0479" lon="7.08509">
        <ele>1678</ele>
        <time>2022-08-27T22:20:28Z</time>
      </trkpt>
      <trkpt lat="46.04791" lon="7.08508">
        <ele>1678</ele>
        <time>2022-08-27T22:20:29Z</time>
      </trkpt>
      <trkpt lat="46.04792" lon="7.08507">
        <ele>1678</ele>
        <time>2022-08-27T22:20:30Z</time>
      </trkpt>
      <trkpt lat="46.04794" lon="7.08506">
        <ele>1678</ele>
        <time>2022-08-27T22:20:31Z</time>
      </trkpt>
      <trkpt lat="46.04795" lon="7.08505">
        <ele>1678</ele>
        <time>2022-08-27T22:20:33Z</time>
      </trkpt>
      <trkpt lat="46.04797" lon="7.08504">
        <ele>1678</ele>
        <time>2022-08-27T22:20:34Z</time>
      </trkpt>
      <trkpt lat="46.04798" lon="7.08503">
        <ele>1678</ele>
        <time>2022-08-27T22:20:35Z</time>
      </trkpt>
      <trkpt lat="46.048" lon="7.08503">
        <ele>1677</ele>
        <time>2022-08-27T22:20:36Z</time>
      </trkpt>
      <trkpt lat="46.04802" lon="7.08501">
        <ele>1677</ele>
        <time>2022-08-27T22:20:37Z</time>
      </trkpt>
      <trkpt lat="46.04804" lon="7.085">
        <ele>1677</ele>
        <time>2022-08-27T22:20:38Z</time>
      </trkpt>
      <trkpt lat="46.04806" lon="7.08499">
        <ele>1677</ele>
        <time>2022-08-27T22:20:39Z</time>
      </trkpt>
      <trkpt lat="46.04808" lon="7.08498">
        <ele>1676</ele>
        <time>2022-08-27T22:20:41Z</time>
      </trkpt>
      <trkpt lat="46.0481" lon="7.08497">
        <ele>1676</ele>
        <time>2022-08-27T22:20:42Z</time>
      </trkpt>
      <trkpt lat="46.04811" lon="7.08496">
        <ele>1676</ele>
        <time>2022-08-27T22:20:43Z</time>
      </trkpt>
      <trkpt lat="46.04812" lon="7.08495">
        <ele>1676</ele>
        <time>2022-08-27T22:20:44Z</time>
      </trkpt>
      <trkpt lat="46.04813" lon="7.08493">
        <ele>1676</ele>
        <time>2022-08-27T22:20:46Z</time>
      </trkpt>
      <trkpt lat="46.04814" lon="7.08492">
        <ele>1676</ele>
        <time>2022-08-27T22:20:47Z</time>
      </trkpt>
      <trkpt lat="46.04814" lon="7.08491">
        <ele>1676</ele>
        <time>2022-08-27T22:20:48Z</time>
      </trkpt>
      <trkpt lat="46.04815" lon="7.0849">
        <ele>1676</ele>
        <time>2022-08-27T22:20:49Z</time>
      </trkpt>
      <trkpt lat="46.04816" lon="7.08488">
        <ele>1676</ele>
        <time>2022-08-27T22:20:51Z</time>
      </trkpt>
      <trkpt lat="46.04817" lon="7.08487">
        <ele>1675</ele>
        <time>2022-08-27T22:20:52Z</time>
      </trkpt>
      <trkpt lat="46.04818" lon="7.08486">
        <ele>1675</ele>
        <time>2022-08-27T22:20:53Z</time>
      </trkpt>
      <trkpt lat="46.04818" lon="7.08486">
        <ele>1675</ele>
        <time>2022-08-27T22:20:54Z</time>
      </trkpt>
      <trkpt lat="46.04819" lon="7.08485">
        <ele>1675</ele>
        <time>2022-08-27T22:20:56Z</time>
      </trkpt>
      <trkpt lat="46.0482" lon="7.08484">
        <ele>1675</ele>
        <time>2022-08-27T22:20:57Z</time>
      </trkpt>
      <trkpt lat="46.04821" lon="7.08484">
        <ele>1674</ele>
        <time>2022-08-27T22:20:58Z</time>
      </trkpt>
      <trkpt lat="46.04822" lon="7.08483">
        <ele>1674</ele>
        <time>2022-08-27T22:20:59Z</time>
      </trkpt>
      <trkpt lat="46.04822" lon="7.08482">
        <ele>1674</ele>
        <time>2022-08-27T22:21:01Z</time>
      </trkpt>
      <trkpt lat="46.04823" lon="7.08481">
        <ele>1674</ele>
        <time>2022-08-27T22:21:02Z</time>
      </trkpt>
      <trkpt lat="46.04824" lon="7.08481">
        <ele>1674</ele>
        <time>2022-08-27T22:21:03Z</time>
      </trkpt>
      <trkpt lat="46.04825" lon="7.0848">
        <ele>1674</ele>
        <time>2022-08-27T22:21:04Z</time>
      </trkpt>
      <trkpt lat="46.04826" lon="7.08479">
        <ele>1674</ele>
        <time>2022-08-27T22:21:06Z</time>
      </trkpt>
      <trkpt lat="46.04827" lon="7.08477">
        <ele>1673</ele>
        <time>2022-08-27T22:21:08Z</time>
      </trkpt>
      <trkpt lat="46.04828" lon="7.08476">
        <ele>1673</ele>
        <time>2022-08-27T22:21:09Z</time>
      </trkpt>
      <trkpt lat="46.04829" lon="7.08474">
        <ele>1673</ele>
        <time>2022-08-27T22:21:10Z</time>
      </trkpt>
      <trkpt lat="46.0483" lon="7.08473">
        <ele>1673</ele>
        <time>2022-08-27T22:21:11Z</time>
      </trkpt>
      <trkpt lat="46.04831" lon="7.08472">
        <ele>1672</ele>
        <time>2022-08-27T22:21:13Z</time>
      </trkpt>
      <trkpt lat="46.04832" lon="7.0847">
        <ele>1672</ele>
        <time>2022-08-27T22:21:14Z</time>
      </trkpt>
      <trkpt lat="46.04834" lon="7.08469">
        <ele>1671</ele>
        <time>2022-08-27T22:21:15Z</time>
      </trkpt>
      <trkpt lat="46.04835" lon="7.08468">
        <ele>1670</ele>
        <time>2022-08-27T22:21:16Z</time>
      </trkpt>
      <trkpt lat="46.04837" lon="7.08467">
        <ele>1670</ele>
        <time>2022-08-27T22:21:18Z</time>
      </trkpt>
      <trkpt lat="46.04839" lon="7.08466">
        <ele>1670</ele>
        <time>2022-08-27T22:21:20Z</time>
      </trkpt>
      <trkpt lat="46.0484" lon="7.08465">
        <ele>1670</ele>
        <time>2022-08-27T22:21:21Z</time>
      </trkpt>
      <trkpt lat="46.04842" lon="7.08464">
        <ele>1670</ele>
        <time>2022-08-27T22:21:22Z</time>
      </trkpt>
      <trkpt lat="46.04844" lon="7.08463">
        <ele>1670</ele>
        <time>2022-08-27T22:21:23Z</time>
      </trkpt>
      <trkpt lat="46.04844" lon="7.08462">
        <ele>1670</ele>
        <time>2022-08-27T22:21:24Z</time>
      </trkpt>
      <trkpt lat="46.04845" lon="7.08462">
        <ele>1670</ele>
        <time>2022-08-27T22:21:25Z</time>
      </trkpt>
      <trkpt lat="46.04846" lon="7.08461">
        <ele>1669</ele>
        <time>2022-08-27T22:21:26Z</time>
      </trkpt>
      <trkpt lat="46.04847" lon="7.0846">
        <ele>1669</ele>
        <time>2022-08-27T22:21:28Z</time>
      </trkpt>
      <trkpt lat="46.04847" lon="7.08459">
        <ele>1668</ele>
        <time>2022-08-27T22:21:29Z</time>
      </trkpt>
      <trkpt lat="46.04848" lon="7.08458">
        <ele>1668</ele>
        <time>2022-08-27T22:21:30Z</time>
      </trkpt>
      <trkpt lat="46.04849" lon="7.08458">
        <ele>1668</ele>
        <time>2022-08-27T22:21:31Z</time>
      </trkpt>
      <trkpt lat="46.0485" lon="7.08457">
        <ele>1668</ele>
        <time>2022-08-27T22:21:33Z</time>
      </trkpt>
      <trkpt lat="46.0485" lon="7.08456">
        <ele>1668</ele>
        <time>2022-08-27T22:21:34Z</time>
      </trkpt>
      <trkpt lat="46.04851" lon="7.08455">
        <ele>1668</ele>
        <time>2022-08-27T22:21:35Z</time>
      </trkpt>
      <trkpt lat="46.04852" lon="7.08453">
        <ele>1668</ele>
        <time>2022-08-27T22:21:36Z</time>
      </trkpt>
      <trkpt lat="46.04852" lon="7.08451">
        <ele>1668</ele>
        <time>2022-08-27T22:21:38Z</time>
      </trkpt>
      <trkpt lat="46.04853" lon="7.08449">
        <ele>1668</ele>
        <time>2022-08-27T22:21:39Z</time>
      </trkpt>
      <trkpt lat="46.04854" lon="7.08447">
        <ele>1668</ele>
        <time>2022-08-27T22:21:40Z</time>
      </trkpt>
      <trkpt lat="46.04854" lon="7.08446">
        <ele>1668</ele>
        <time>2022-08-27T22:21:41Z</time>
      </trkpt>
      <trkpt lat="46.04855" lon="7.08444">
        <ele>1668</ele>
        <time>2022-08-27T22:21:42Z</time>
      </trkpt>
      <trkpt lat="46.04856" lon="7.08442">
        <ele>1668</ele>
        <time>2022-08-27T22:21:43Z</time>
      </trkpt>
      <trkpt lat="46.04855" lon="7.0844">
        <ele>1668</ele>
        <time>2022-08-27T22:21:44Z</time>
      </trkpt>
      <trkpt lat="46.04854" lon="7.08439">
        <ele>1668</ele>
        <time>2022-08-27T22:21:45Z</time>
      </trkpt>
      <trkpt lat="46.04853" lon="7.08438">
        <ele>1667</ele>
        <time>2022-08-27T22:21:46Z</time>
      </trkpt>
      <trkpt lat="46.04852" lon="7.08437">
        <ele>1667</ele>
        <time>2022-08-27T22:21:48Z</time>
      </trkpt>
      <trkpt lat="46.04851" lon="7.08435">
        <ele>1667</ele>
        <time>2022-08-27T22:21:49Z</time>
      </trkpt>
      <trkpt lat="46.0485" lon="7.08434">
        <ele>1667</ele>
        <time>2022-08-27T22:21:50Z</time>
      </trkpt>
      <trkpt lat="46.04849" lon="7.08433">
        <ele>1666</ele>
        <time>2022-08-27T22:21:51Z</time>
      </trkpt>
      <trkpt lat="46.04847" lon="7.08432">
        <ele>1666</ele>
        <time>2022-08-27T22:21:53Z</time>
      </trkpt>
      <trkpt lat="46.04846" lon="7.08431">
        <ele>1666</ele>
        <time>2022-08-27T22:21:54Z</time>
      </trkpt>
      <trkpt lat="46.04845" lon="7.08429">
        <ele>1666</ele>
        <time>2022-08-27T22:21:55Z</time>
      </trkpt>
      <trkpt lat="46.04844" lon="7.08428">
        <ele>1665</ele>
        <time>2022-08-27T22:21:56Z</time>
      </trkpt>
      <trkpt lat="46.04843" lon="7.08427">
        <ele>1665</ele>
        <time>2022-08-27T22:21:58Z</time>
      </trkpt>
      <trkpt lat="46.04841" lon="7.08426">
        <ele>1665</ele>
        <time>2022-08-27T22:22:00Z</time>
      </trkpt>
      <trkpt lat="46.0484" lon="7.08425">
        <ele>1665</ele>
        <time>2022-08-27T22:22:01Z</time>
      </trkpt>
      <trkpt lat="46.04839" lon="7.08423">
        <ele>1665</ele>
        <time>2022-08-27T22:22:02Z</time>
      </trkpt>
      <trkpt lat="46.04838" lon="7.08422">
        <ele>1665</ele>
        <time>2022-08-27T22:22:03Z</time>
      </trkpt>
      <trkpt lat="46.04837" lon="7.0842">
        <ele>1665</ele>
        <time>2022-08-27T22:22:05Z</time>
      </trkpt>
      <trkpt lat="46.04836" lon="7.08418">
        <ele>1665</ele>
        <time>2022-08-27T22:22:06Z</time>
      </trkpt>
      <trkpt lat="46.04835" lon="7.08416">
        <ele>1665</ele>
        <time>2022-08-27T22:22:07Z</time>
      </trkpt>
      <trkpt lat="46.04834" lon="7.08415">
        <ele>1664</ele>
        <time>2022-08-27T22:22:08Z</time>
      </trkpt>
      <trkpt lat="46.04833" lon="7.08414">
        <ele>1664</ele>
        <time>2022-08-27T22:22:09Z</time>
      </trkpt>
      <trkpt lat="46.04832" lon="7.08413">
        <ele>1664</ele>
        <time>2022-08-27T22:22:10Z</time>
      </trkpt>
      <trkpt lat="46.04831" lon="7.08413">
        <ele>1664</ele>
        <time>2022-08-27T22:22:11Z</time>
      </trkpt>
      <trkpt lat="46.04831" lon="7.08412">
        <ele>1664</ele>
        <time>2022-08-27T22:22:13Z</time>
      </trkpt>
      <trkpt lat="46.0483" lon="7.08411">
        <ele>1664</ele>
        <time>2022-08-27T22:22:14Z</time>
      </trkpt>
      <trkpt lat="46.04829" lon="7.08411">
        <ele>1664</ele>
        <time>2022-08-27T22:22:15Z</time>
      </trkpt>
      <trkpt lat="46.04828" lon="7.0841">
        <ele>1664</ele>
        <time>2022-08-27T22:22:17Z</time>
      </trkpt>
      <trkpt lat="46.04827" lon="7.0841">
        <ele>1664</ele>
        <time>2022-08-27T22:22:18Z</time>
      </trkpt>
      <trkpt lat="46.04826" lon="7.08409">
        <ele>1664</ele>
        <time>2022-08-27T22:22:19Z</time>
      </trkpt>
      <trkpt lat="46.04825" lon="7.08408">
        <ele>1663</ele>
        <time>2022-08-27T22:22:21Z</time>
      </trkpt>
      <trkpt lat="46.04824" lon="7.08408">
        <ele>1663</ele>
        <time>2022-08-27T22:22:22Z</time>
      </trkpt>
      <trkpt lat="46.04823" lon="7.08407">
        <ele>1663</ele>
        <time>2022-08-27T22:22:23Z</time>
      </trkpt>
      <trkpt lat="46.04823" lon="7.08406">
        <ele>1663</ele>
        <time>2022-08-27T22:22:24Z</time>
      </trkpt>
      <trkpt lat="46.04822" lon="7.08405">
        <ele>1662</ele>
        <time>2022-08-27T22:22:26Z</time>
      </trkpt>
      <trkpt lat="46.04821" lon="7.08405">
        <ele>1662</ele>
        <time>2022-08-27T22:22:27Z</time>
      </trkpt>
      <trkpt lat="46.04817" lon="7.084">
        <ele>1662</ele>
        <time>2022-08-27T22:22:28Z</time>
      </trkpt>
      <trkpt lat="46.04812" lon="7.08388">
        <ele>1662</ele>
        <time>2022-08-27T22:22:38Z</time>
      </trkpt>
      <trkpt lat="46.04813" lon="7.08386">
        <ele>1662</ele>
        <time>2022-08-27T22:22:39Z</time>
      </trkpt>
      <trkpt lat="46.04814" lon="7.08384">
        <ele>1662</ele>
        <time>2022-08-27T22:22:40Z</time>
      </trkpt>
      <trkpt lat="46.04814" lon="7.08382">
        <ele>1662</ele>
        <time>2022-08-27T22:22:41Z</time>
      </trkpt>
      <trkpt lat="46.04815" lon="7.08379">
        <ele>1662</ele>
        <time>2022-08-27T22:22:43Z</time>
      </trkpt>
      <trkpt lat="46.04816" lon="7.08377">
        <ele>1662</ele>
        <time>2022-08-27T22:22:44Z</time>
      </trkpt>
      <trkpt lat="46.04816" lon="7.08375">
        <ele>1662</ele>
        <time>2022-08-27T22:22:45Z</time>
      </trkpt>
      <trkpt lat="46.04815" lon="7.08375">
        <ele>1661</ele>
        <time>2022-08-27T22:22:46Z</time>
      </trkpt>
      <trkpt lat="46.04814" lon="7.08375">
        <ele>1661</ele>
        <time>2022-08-27T22:22:48Z</time>
      </trkpt>
      <trkpt lat="46.04813" lon="7.08375">
        <ele>1661</ele>
        <time>2022-08-27T22:22:49Z</time>
      </trkpt>
      <trkpt lat="46.04811" lon="7.08375">
        <ele>1660</ele>
        <time>2022-08-27T22:22:50Z</time>
      </trkpt>
      <trkpt lat="46.0481" lon="7.08375">
        <ele>1660</ele>
        <time>2022-08-27T22:22:51Z</time>
      </trkpt>
      <trkpt lat="46.04809" lon="7.08375">
        <ele>1660</ele>
        <time>2022-08-27T22:22:53Z</time>
      </trkpt>
      <trkpt lat="46.04808" lon="7.08375">
        <ele>1659</ele>
        <time>2022-08-27T22:22:55Z</time>
      </trkpt>
      <trkpt lat="46.04806" lon="7.08375">
        <ele>1659</ele>
        <time>2022-08-27T22:22:56Z</time>
      </trkpt>
      <trkpt lat="46.04807" lon="7.08374">
        <ele>1659</ele>
        <time>2022-08-27T22:22:57Z</time>
      </trkpt>
      <trkpt lat="46.04807" lon="7.08373">
        <ele>1659</ele>
        <time>2022-08-27T22:22:58Z</time>
      </trkpt>
      <trkpt lat="46.04808" lon="7.08372">
        <ele>1659</ele>
        <time>2022-08-27T22:22:59Z</time>
      </trkpt>
      <trkpt lat="46.04808" lon="7.08371">
        <ele>1659</ele>
        <time>2022-08-27T22:23:01Z</time>
      </trkpt>
      <trkpt lat="46.04809" lon="7.0837">
        <ele>1659</ele>
        <time>2022-08-27T22:23:02Z</time>
      </trkpt>
      <trkpt lat="46.04809" lon="7.08368">
        <ele>1660</ele>
        <time>2022-08-27T22:23:03Z</time>
      </trkpt>
      <trkpt lat="46.0481" lon="7.08367">
        <ele>1660</ele>
        <time>2022-08-27T22:23:04Z</time>
      </trkpt>
      <trkpt lat="46.0481" lon="7.08366">
        <ele>1660</ele>
        <time>2022-08-27T22:23:06Z</time>
      </trkpt>
      <trkpt lat="46.04811" lon="7.08365">
        <ele>1660</ele>
        <time>2022-08-27T22:23:07Z</time>
      </trkpt>
      <trkpt lat="46.04811" lon="7.08364">
        <ele>1660</ele>
        <time>2022-08-27T22:23:08Z</time>
      </trkpt>
      <trkpt lat="46.04812" lon="7.08363">
        <ele>1661</ele>
        <time>2022-08-27T22:23:09Z</time>
      </trkpt>
      <trkpt lat="46.04813" lon="7.08362">
        <ele>1661</ele>
        <time>2022-08-27T22:23:11Z</time>
      </trkpt>
      <trkpt lat="46.04814" lon="7.08361">
        <ele>1661</ele>
        <time>2022-08-27T22:23:12Z</time>
      </trkpt>
      <trkpt lat="46.04815" lon="7.0836">
        <ele>1661</ele>
        <time>2022-08-27T22:23:14Z</time>
      </trkpt>
      <trkpt lat="46.04816" lon="7.08358">
        <ele>1661</ele>
        <time>2022-08-27T22:23:15Z</time>
      </trkpt>
      <trkpt lat="46.04819" lon="7.08352">
        <ele>1661</ele>
        <time>2022-08-27T22:23:16Z</time>
      </trkpt>
      <trkpt lat="46.04818" lon="7.0835">
        <ele>1661</ele>
        <time>2022-08-27T22:23:18Z</time>
      </trkpt>
      <trkpt lat="46.04817" lon="7.08349">
        <ele>1661</ele>
        <time>2022-08-27T22:23:19Z</time>
      </trkpt>
      <trkpt lat="46.04817" lon="7.08347">
        <ele>1661</ele>
        <time>2022-08-27T22:23:20Z</time>
      </trkpt>
      <trkpt lat="46.04816" lon="7.08345">
        <ele>1661</ele>
        <time>2022-08-27T22:23:21Z</time>
      </trkpt>
      <trkpt lat="46.04815" lon="7.08343">
        <ele>1661</ele>
        <time>2022-08-27T22:23:23Z</time>
      </trkpt>
      <trkpt lat="46.04815" lon="7.08342">
        <ele>1661</ele>
        <time>2022-08-27T22:23:24Z</time>
      </trkpt>
      <trkpt lat="46.04814" lon="7.0834">
        <ele>1661</ele>
        <time>2022-08-27T22:23:25Z</time>
      </trkpt>
      <trkpt lat="46.04814" lon="7.08338">
        <ele>1661</ele>
        <time>2022-08-27T22:23:26Z</time>
      </trkpt>
      <trkpt lat="46.04814" lon="7.08337">
        <ele>1661</ele>
        <time>2022-08-27T22:23:28Z</time>
      </trkpt>
      <trkpt lat="46.04814" lon="7.08335">
        <ele>1661</ele>
        <time>2022-08-27T22:23:29Z</time>
      </trkpt>
      <trkpt lat="46.04814" lon="7.08333">
        <ele>1661</ele>
        <time>2022-08-27T22:23:30Z</time>
      </trkpt>
      <trkpt lat="46.04814" lon="7.08332">
        <ele>1661</ele>
        <time>2022-08-27T22:23:31Z</time>
      </trkpt>
      <trkpt lat="46.04814" lon="7.0833">
        <ele>1661</ele>
        <time>2022-08-27T22:23:32Z</time>
      </trkpt>
      <trkpt lat="46.04813" lon="7.08328">
        <ele>1661</ele>
        <time>2022-08-27T22:23:33Z</time>
      </trkpt>
      <trkpt lat="46.04814" lon="7.08328">
        <ele>1660</ele>
        <time>2022-08-27T22:23:35Z</time>
      </trkpt>
      <trkpt lat="46.04814" lon="7.08327">
        <ele>1660</ele>
        <time>2022-08-27T22:23:36Z</time>
      </trkpt>
      <trkpt lat="46.04815" lon="7.08327">
        <ele>1661</ele>
        <time>2022-08-27T22:23:37Z</time>
      </trkpt>
      <trkpt lat="46.04815" lon="7.08326">
        <ele>1661</ele>
        <time>2022-08-27T22:23:38Z</time>
      </trkpt>
      <trkpt lat="46.04816" lon="7.08326">
        <ele>1661</ele>
        <time>2022-08-27T22:23:40Z</time>
      </trkpt>
      <trkpt lat="46.04816" lon="7.08325">
        <ele>1661</ele>
        <time>2022-08-27T22:23:41Z</time>
      </trkpt>
      <trkpt lat="46.04817" lon="7.08325">
        <ele>1661</ele>
        <time>2022-08-27T22:23:42Z</time>
      </trkpt>
      <trkpt lat="46.04817" lon="7.08324">
        <ele>1661</ele>
        <time>2022-08-27T22:23:43Z</time>
      </trkpt>
      <trkpt lat="46.04818" lon="7.08324">
        <ele>1661</ele>
        <time>2022-08-27T22:23:45Z</time>
      </trkpt>
      <trkpt lat="46.04818" lon="7.08323">
        <ele>1661</ele>
        <time>2022-08-27T22:23:46Z</time>
      </trkpt>
      <trkpt lat="46.04819" lon="7.08323">
        <ele>1661</ele>
        <time>2022-08-27T22:23:47Z</time>
      </trkpt>
      <trkpt lat="46.04819" lon="7.08322">
        <ele>1661</ele>
        <time>2022-08-27T22:23:48Z</time>
      </trkpt>
      <trkpt lat="46.0482" lon="7.08322">
        <ele>1661</ele>
        <time>2022-08-27T22:23:50Z</time>
      </trkpt>
      <trkpt lat="46.0482" lon="7.08321">
        <ele>1661</ele>
        <time>2022-08-27T22:23:52Z</time>
      </trkpt>
      <trkpt lat="46.04821" lon="7.08321">
        <ele>1661</ele>
        <time>2022-08-27T22:23:53Z</time>
      </trkpt>
      <trkpt lat="46.04821" lon="7.0832">
        <ele>1660</ele>
        <time>2022-08-27T22:23:54Z</time>
      </trkpt>
      <trkpt lat="46.04821" lon="7.08319">
        <ele>1660</ele>
        <time>2022-08-27T22:23:55Z</time>
      </trkpt>
      <trkpt lat="46.04821" lon="7.08318">
        <ele>1660</ele>
        <time>2022-08-27T22:23:56Z</time>
      </trkpt>
      <trkpt lat="46.04821" lon="7.08317">
        <ele>1660</ele>
        <time>2022-08-27T22:23:57Z</time>
      </trkpt>
      <trkpt lat="46.04821" lon="7.08315">
        <ele>1660</ele>
        <time>2022-08-27T22:23:59Z</time>
      </trkpt>
      <trkpt lat="46.04821" lon="7.08314">
        <ele>1660</ele>
        <time>2022-08-27T22:24:00Z</time>
      </trkpt>
      <trkpt lat="46.04821" lon="7.08313">
        <ele>1660</ele>
        <time>2022-08-27T22:24:01Z</time>
      </trkpt>
      <trkpt lat="46.04821" lon="7.08311">
        <ele>1660</ele>
        <time>2022-08-27T22:24:02Z</time>
      </trkpt>
      <trkpt lat="46.04821" lon="7.0831">
        <ele>1660</ele>
        <time>2022-08-27T22:24:04Z</time>
      </trkpt>
      <trkpt lat="46.04821" lon="7.08309">
        <ele>1660</ele>
        <time>2022-08-27T22:24:05Z</time>
      </trkpt>
      <trkpt lat="46.04821" lon="7.08308">
        <ele>1660</ele>
        <time>2022-08-27T22:24:06Z</time>
      </trkpt>
      <trkpt lat="46.0482" lon="7.08306">
        <ele>1661</ele>
        <time>2022-08-27T22:24:07Z</time>
      </trkpt>
      <trkpt lat="46.04821" lon="7.08305">
        <ele>1661</ele>
        <time>2022-08-27T22:24:09Z</time>
      </trkpt>
      <trkpt lat="46.04822" lon="7.08304">
        <ele>1661</ele>
        <time>2022-08-27T22:24:11Z</time>
      </trkpt>
      <trkpt lat="46.04823" lon="7.08303">
        <ele>1660</ele>
        <time>2022-08-27T22:24:12Z</time>
      </trkpt>
      <trkpt lat="46.04824" lon="7.08302">
        <ele>1660</ele>
        <time>2022-08-27T22:24:13Z</time>
      </trkpt>
      <trkpt lat="46.04825" lon="7.083">
        <ele>1660</ele>
        <time>2022-08-27T22:24:14Z</time>
      </trkpt>
      <trkpt lat="46.04826" lon="7.08299">
        <ele>1660</ele>
        <time>2022-08-27T22:24:16Z</time>
      </trkpt>
      <trkpt lat="46.04827" lon="7.08298">
        <ele>1660</ele>
        <time>2022-08-27T22:24:17Z</time>
      </trkpt>
      <trkpt lat="46.04828" lon="7.08297">
        <ele>1660</ele>
        <time>2022-08-27T22:24:18Z</time>
      </trkpt>
      <trkpt lat="46.04829" lon="7.08297">
        <ele>1660</ele>
        <time>2022-08-27T22:24:19Z</time>
      </trkpt>
      <trkpt lat="46.04831" lon="7.08297">
        <ele>1660</ele>
        <time>2022-08-27T22:24:21Z</time>
      </trkpt>
      <trkpt lat="46.04832" lon="7.08297">
        <ele>1659</ele>
        <time>2022-08-27T22:24:22Z</time>
      </trkpt>
      <trkpt lat="46.04833" lon="7.08297">
        <ele>1659</ele>
        <time>2022-08-27T22:24:23Z</time>
      </trkpt>
      <trkpt lat="46.04835" lon="7.08296">
        <ele>1659</ele>
        <time>2022-08-27T22:24:24Z</time>
      </trkpt>
      <trkpt lat="46.04836" lon="7.08296">
        <ele>1659</ele>
        <time>2022-08-27T22:24:26Z</time>
      </trkpt>
      <trkpt lat="46.04837" lon="7.08296">
        <ele>1659</ele>
        <time>2022-08-27T22:24:27Z</time>
      </trkpt>
      <trkpt lat="46.04839" lon="7.08296">
        <ele>1659</ele>
        <time>2022-08-27T22:24:28Z</time>
      </trkpt>
      <trkpt lat="46.04841" lon="7.08295">
        <ele>1659</ele>
        <time>2022-08-27T22:24:30Z</time>
      </trkpt>
      <trkpt lat="46.04843" lon="7.08294">
        <ele>1659</ele>
        <time>2022-08-27T22:24:31Z</time>
      </trkpt>
      <trkpt lat="46.04845" lon="7.08293">
        <ele>1659</ele>
        <time>2022-08-27T22:24:32Z</time>
      </trkpt>
      <trkpt lat="46.04847" lon="7.08292">
        <ele>1659</ele>
        <time>2022-08-27T22:24:33Z</time>
      </trkpt>
      <trkpt lat="46.04849" lon="7.08291">
        <ele>1659</ele>
        <time>2022-08-27T22:24:34Z</time>
      </trkpt>
      <trkpt lat="46.0485" lon="7.0829">
        <ele>1659</ele>
        <time>2022-08-27T22:24:35Z</time>
      </trkpt>
      <trkpt lat="46.04852" lon="7.08289">
        <ele>1659</ele>
        <time>2022-08-27T22:24:36Z</time>
      </trkpt>
      <trkpt lat="46.04854" lon="7.08288">
        <ele>1659</ele>
        <time>2022-08-27T22:24:37Z</time>
      </trkpt>
      <trkpt lat="46.04855" lon="7.08287">
        <ele>1660</ele>
        <time>2022-08-27T22:24:39Z</time>
      </trkpt>
      <trkpt lat="46.04857" lon="7.08286">
        <ele>1660</ele>
        <time>2022-08-27T22:24:40Z</time>
      </trkpt>
      <trkpt lat="46.04859" lon="7.08285">
        <ele>1660</ele>
        <time>2022-08-27T22:24:41Z</time>
      </trkpt>
      <trkpt lat="46.04859" lon="7.08284">
        <ele>1660</ele>
        <time>2022-08-27T22:24:42Z</time>
      </trkpt>
      <trkpt lat="46.0486" lon="7.08283">
        <ele>1660</ele>
        <time>2022-08-27T22:24:43Z</time>
      </trkpt>
      <trkpt lat="46.04861" lon="7.08283">
        <ele>1660</ele>
        <time>2022-08-27T22:24:44Z</time>
      </trkpt>
      <trkpt lat="46.04861" lon="7.08282">
        <ele>1660</ele>
        <time>2022-08-27T22:24:46Z</time>
      </trkpt>
      <trkpt lat="46.04862" lon="7.08281">
        <ele>1660</ele>
        <time>2022-08-27T22:24:47Z</time>
      </trkpt>
      <trkpt lat="46.04863" lon="7.08281">
        <ele>1660</ele>
        <time>2022-08-27T22:24:49Z</time>
      </trkpt>
      <trkpt lat="46.04863" lon="7.0828">
        <ele>1660</ele>
        <time>2022-08-27T22:24:50Z</time>
      </trkpt>
      <trkpt lat="46.04864" lon="7.08279">
        <ele>1661</ele>
        <time>2022-08-27T22:24:51Z</time>
      </trkpt>
      <trkpt lat="46.04865" lon="7.08279">
        <ele>1662</ele>
        <time>2022-08-27T22:24:53Z</time>
      </trkpt>
      <trkpt lat="46.04865" lon="7.08278">
        <ele>1662</ele>
        <time>2022-08-27T22:24:54Z</time>
      </trkpt>
      <trkpt lat="46.04866" lon="7.08277">
        <ele>1662</ele>
        <time>2022-08-27T22:24:55Z</time>
      </trkpt>
      <trkpt lat="46.04867" lon="7.08277">
        <ele>1662</ele>
        <time>2022-08-27T22:24:56Z</time>
      </trkpt>
      <trkpt lat="46.04868" lon="7.08276">
        <ele>1662</ele>
        <time>2022-08-27T22:24:58Z</time>
      </trkpt>
      <trkpt lat="46.0487" lon="7.08276">
        <ele>1662</ele>
        <time>2022-08-27T22:24:59Z</time>
      </trkpt>
      <trkpt lat="46.04872" lon="7.08275">
        <ele>1662</ele>
        <time>2022-08-27T22:25:00Z</time>
      </trkpt>
      <trkpt lat="46.04873" lon="7.08274">
        <ele>1662</ele>
        <time>2022-08-27T22:25:01Z</time>
      </trkpt>
      <trkpt lat="46.04875" lon="7.08274">
        <ele>1662</ele>
        <time>2022-08-27T22:25:02Z</time>
      </trkpt>
      <trkpt lat="46.04876" lon="7.08273">
        <ele>1662</ele>
        <time>2022-08-27T22:25:03Z</time>
      </trkpt>
      <trkpt lat="46.04878" lon="7.08272">
        <ele>1662</ele>
        <time>2022-08-27T22:25:04Z</time>
      </trkpt>
      <trkpt lat="46.04879" lon="7.08272">
        <ele>1662</ele>
        <time>2022-08-27T22:25:05Z</time>
      </trkpt>
      <trkpt lat="46.04881" lon="7.08271">
        <ele>1663</ele>
        <time>2022-08-27T22:25:06Z</time>
      </trkpt>
      <trkpt lat="46.04882" lon="7.08271">
        <ele>1664</ele>
        <time>2022-08-27T22:25:08Z</time>
      </trkpt>
      <trkpt lat="46.04884" lon="7.08271">
        <ele>1664</ele>
        <time>2022-08-27T22:25:10Z</time>
      </trkpt>
      <trkpt lat="46.04885" lon="7.0827">
        <ele>1664</ele>
        <time>2022-08-27T22:25:11Z</time>
      </trkpt>
      <trkpt lat="46.04886" lon="7.0827">
        <ele>1664</ele>
        <time>2022-08-27T22:25:12Z</time>
      </trkpt>
      <trkpt lat="46.04887" lon="7.08269">
        <ele>1664</ele>
        <time>2022-08-27T22:25:13Z</time>
      </trkpt>
      <trkpt lat="46.04887" lon="7.08269">
        <ele>1664</ele>
        <time>2022-08-27T22:25:15Z</time>
      </trkpt>
      <trkpt lat="46.04888" lon="7.08268">
        <ele>1664</ele>
        <time>2022-08-27T22:25:16Z</time>
      </trkpt>
      <trkpt lat="46.04889" lon="7.08268">
        <ele>1664</ele>
        <time>2022-08-27T22:25:17Z</time>
      </trkpt>
      <trkpt lat="46.04889" lon="7.08268">
        <ele>1664</ele>
        <time>2022-08-27T22:25:18Z</time>
      </trkpt>
      <trkpt lat="46.0489" lon="7.08267">
        <ele>1665</ele>
        <time>2022-08-27T22:25:20Z</time>
      </trkpt>
      <trkpt lat="46.04891" lon="7.08267">
        <ele>1666</ele>
        <time>2022-08-27T22:25:21Z</time>
      </trkpt>
      <trkpt lat="46.04892" lon="7.08267">
        <ele>1666</ele>
        <time>2022-08-27T22:25:22Z</time>
      </trkpt>
      <trkpt lat="46.04892" lon="7.08266">
        <ele>1666</ele>
        <time>2022-08-27T22:25:23Z</time>
      </trkpt>
      <trkpt lat="46.04893" lon="7.08266">
        <ele>1666</ele>
        <time>2022-08-27T22:25:25Z</time>
      </trkpt>
      <trkpt lat="46.04894" lon="7.08265">
        <ele>1666</ele>
        <time>2022-08-27T22:25:27Z</time>
      </trkpt>
      <trkpt lat="46.04894" lon="7.08265">
        <ele>1666</ele>
        <time>2022-08-27T22:25:28Z</time>
      </trkpt>
      <trkpt lat="46.04895" lon="7.08264">
        <ele>1666</ele>
        <time>2022-08-27T22:25:29Z</time>
      </trkpt>
      <trkpt lat="46.04896" lon="7.08264">
        <ele>1666</ele>
        <time>2022-08-27T22:25:31Z</time>
      </trkpt>
      <trkpt lat="46.04897" lon="7.08263">
        <ele>1667</ele>
        <time>2022-08-27T22:25:32Z</time>
      </trkpt>
      <trkpt lat="46.04897" lon="7.08263">
        <ele>1667</ele>
        <time>2022-08-27T22:25:33Z</time>
      </trkpt>
      <trkpt lat="46.04898" lon="7.08262">
        <ele>1667</ele>
        <time>2022-08-27T22:25:34Z</time>
      </trkpt>
      <trkpt lat="46.04899" lon="7.08261">
        <ele>1667</ele>
        <time>2022-08-27T22:25:36Z</time>
      </trkpt>
      <trkpt lat="46.049" lon="7.08261">
        <ele>1667</ele>
        <time>2022-08-27T22:25:37Z</time>
      </trkpt>
      <trkpt lat="46.049" lon="7.0826">
        <ele>1667</ele>
        <time>2022-08-27T22:25:38Z</time>
      </trkpt>
      <trkpt lat="46.04901" lon="7.0826">
        <ele>1668</ele>
        <time>2022-08-27T22:25:39Z</time>
      </trkpt>
      <trkpt lat="46.04902" lon="7.08259">
        <ele>1668</ele>
        <time>2022-08-27T22:25:40Z</time>
      </trkpt>
      <trkpt lat="46.04903" lon="7.08259">
        <ele>1668</ele>
        <time>2022-08-27T22:25:41Z</time>
      </trkpt>
      <trkpt lat="46.04904" lon="7.08258">
        <ele>1668</ele>
        <time>2022-08-27T22:25:42Z</time>
      </trkpt>
      <trkpt lat="46.04905" lon="7.08258">
        <ele>1668</ele>
        <time>2022-08-27T22:25:44Z</time>
      </trkpt>
      <trkpt lat="46.04906" lon="7.08258">
        <ele>1668</ele>
        <time>2022-08-27T22:25:46Z</time>
      </trkpt>
      <trkpt lat="46.04907" lon="7.08258">
        <ele>1669</ele>
        <time>2022-08-27T22:25:47Z</time>
      </trkpt>
      <trkpt lat="46.04909" lon="7.08258">
        <ele>1669</ele>
        <time>2022-08-27T22:25:48Z</time>
      </trkpt>
      <trkpt lat="46.0491" lon="7.08257">
        <ele>1669</ele>
        <time>2022-08-27T22:25:50Z</time>
      </trkpt>
      <trkpt lat="46.04911" lon="7.08257">
        <ele>1669</ele>
        <time>2022-08-27T22:25:51Z</time>
      </trkpt>
      <trkpt lat="46.04912" lon="7.08257">
        <ele>1669</ele>
        <time>2022-08-27T22:25:52Z</time>
      </trkpt>
      <trkpt lat="46.04913" lon="7.08256">
        <ele>1669</ele>
        <time>2022-08-27T22:25:53Z</time>
      </trkpt>
      <trkpt lat="46.04915" lon="7.08256">
        <ele>1669</ele>
        <time>2022-08-27T22:25:55Z</time>
      </trkpt>
      <trkpt lat="46.04916" lon="7.08255">
        <ele>1669</ele>
        <time>2022-08-27T22:25:56Z</time>
      </trkpt>
      <trkpt lat="46.04917" lon="7.08255">
        <ele>1669</ele>
        <time>2022-08-27T22:25:57Z</time>
      </trkpt>
      <trkpt lat="46.04918" lon="7.08254">
        <ele>1670</ele>
        <time>2022-08-27T22:25:58Z</time>
      </trkpt>
      <trkpt lat="46.0492" lon="7.08253">
        <ele>1670</ele>
        <time>2022-08-27T22:25:59Z</time>
      </trkpt>
      <trkpt lat="46.04921" lon="7.08253">
        <ele>1670</ele>
        <time>2022-08-27T22:26:00Z</time>
      </trkpt>
      <trkpt lat="46.04929" lon="7.08247">
        <ele>1672</ele>
        <time>2022-08-27T22:26:12Z</time>
      </trkpt>
      <trkpt lat="46.04929" lon="7.08245">
        <ele>1672</ele>
        <time>2022-08-27T22:26:13Z</time>
      </trkpt>
      <trkpt lat="46.04929" lon="7.08244">
        <ele>1672</ele>
        <time>2022-08-27T22:26:14Z</time>
      </trkpt>
      <trkpt lat="46.04929" lon="7.08242">
        <ele>1673</ele>
        <time>2022-08-27T22:26:15Z</time>
      </trkpt>
      <trkpt lat="46.04929" lon="7.08241">
        <ele>1673</ele>
        <time>2022-08-27T22:26:17Z</time>
      </trkpt>
      <trkpt lat="46.04929" lon="7.08239">
        <ele>1673</ele>
        <time>2022-08-27T22:26:18Z</time>
      </trkpt>
      <trkpt lat="46.04929" lon="7.08238">
        <ele>1672</ele>
        <time>2022-08-27T22:26:19Z</time>
      </trkpt>
      <trkpt lat="46.04929" lon="7.08237">
        <ele>1672</ele>
        <time>2022-08-27T22:26:20Z</time>
      </trkpt>
      <trkpt lat="46.04928" lon="7.08235">
        <ele>1671</ele>
        <time>2022-08-27T22:26:22Z</time>
      </trkpt>
      <trkpt lat="46.04928" lon="7.08234">
        <ele>1671</ele>
        <time>2022-08-27T22:26:24Z</time>
      </trkpt>
      <trkpt lat="46.04928" lon="7.08232">
        <ele>1671</ele>
        <time>2022-08-27T22:26:25Z</time>
      </trkpt>
      <trkpt lat="46.04928" lon="7.08231">
        <ele>1671</ele>
        <time>2022-08-27T22:26:26Z</time>
      </trkpt>
      <trkpt lat="46.04928" lon="7.0823">
        <ele>1671</ele>
        <time>2022-08-27T22:26:28Z</time>
      </trkpt>
      <trkpt lat="46.04928" lon="7.08229">
        <ele>1671</ele>
        <time>2022-08-27T22:26:29Z</time>
      </trkpt>
      <trkpt lat="46.04929" lon="7.08228">
        <ele>1671</ele>
        <time>2022-08-27T22:26:30Z</time>
      </trkpt>
      <trkpt lat="46.04929" lon="7.08227">
        <ele>1671</ele>
        <time>2022-08-27T22:26:31Z</time>
      </trkpt>
      <trkpt lat="46.04929" lon="7.08226">
        <ele>1671</ele>
        <time>2022-08-27T22:26:33Z</time>
      </trkpt>
      <trkpt lat="46.04929" lon="7.08225">
        <ele>1671</ele>
        <time>2022-08-27T22:26:34Z</time>
      </trkpt>
      <trkpt lat="46.04929" lon="7.08224">
        <ele>1671</ele>
        <time>2022-08-27T22:26:35Z</time>
      </trkpt>
      <trkpt lat="46.04929" lon="7.08223">
        <ele>1671</ele>
        <time>2022-08-27T22:26:36Z</time>
      </trkpt>
      <trkpt lat="46.04929" lon="7.08222">
        <ele>1671</ele>
        <time>2022-08-27T22:26:38Z</time>
      </trkpt>
      <trkpt lat="46.04929" lon="7.08221">
        <ele>1671</ele>
        <time>2022-08-27T22:26:39Z</time>
      </trkpt>
      <trkpt lat="46.04929" lon="7.0822">
        <ele>1671</ele>
        <time>2022-08-27T22:26:40Z</time>
      </trkpt>
      <trkpt lat="46.04929" lon="7.08219">
        <ele>1670</ele>
        <time>2022-08-27T22:26:41Z</time>
      </trkpt>
      <trkpt lat="46.0493" lon="7.08217">
        <ele>1670</ele>
        <time>2022-08-27T22:26:43Z</time>
      </trkpt>
      <trkpt lat="46.0493" lon="7.08215">
        <ele>1670</ele>
        <time>2022-08-27T22:26:44Z</time>
      </trkpt>
      <trkpt lat="46.0493" lon="7.08213">
        <ele>1670</ele>
        <time>2022-08-27T22:26:45Z</time>
      </trkpt>
      <trkpt lat="46.0493" lon="7.08211">
        <ele>1670</ele>
        <time>2022-08-27T22:26:46Z</time>
      </trkpt>
      <trkpt lat="46.04931" lon="7.08208">
        <ele>1670</ele>
        <time>2022-08-27T22:26:48Z</time>
      </trkpt>
      <trkpt lat="46.04931" lon="7.08206">
        <ele>1670</ele>
        <time>2022-08-27T22:26:49Z</time>
      </trkpt>
      <trkpt lat="46.04931" lon="7.08205">
        <ele>1670</ele>
        <time>2022-08-27T22:26:50Z</time>
      </trkpt>
      <trkpt lat="46.0493" lon="7.08203">
        <ele>1670</ele>
        <time>2022-08-27T22:26:51Z</time>
      </trkpt>
      <trkpt lat="46.0493" lon="7.08201">
        <ele>1670</ele>
        <time>2022-08-27T22:26:53Z</time>
      </trkpt>
      <trkpt lat="46.0493" lon="7.082">
        <ele>1670</ele>
        <time>2022-08-27T22:26:54Z</time>
      </trkpt>
      <trkpt lat="46.04929" lon="7.08198">
        <ele>1669</ele>
        <time>2022-08-27T22:26:55Z</time>
      </trkpt>
      <trkpt lat="46.04929" lon="7.08197">
        <ele>1669</ele>
        <time>2022-08-27T22:26:56Z</time>
      </trkpt>
      <trkpt lat="46.04929" lon="7.08195">
        <ele>1669</ele>
        <time>2022-08-27T22:26:58Z</time>
      </trkpt>
      <trkpt lat="46.04928" lon="7.08193">
        <ele>1669</ele>
        <time>2022-08-27T22:26:59Z</time>
      </trkpt>
      <trkpt lat="46.04928" lon="7.0819">
        <ele>1669</ele>
        <time>2022-08-27T22:27:00Z</time>
      </trkpt>
      <trkpt lat="46.04928" lon="7.08187">
        <ele>1669</ele>
        <time>2022-08-27T22:27:02Z</time>
      </trkpt>
      <trkpt lat="46.04928" lon="7.08183">
        <ele>1669</ele>
        <time>2022-08-27T22:27:03Z</time>
      </trkpt>
      <trkpt lat="46.04928" lon="7.0818">
        <ele>1668</ele>
        <time>2022-08-27T22:27:04Z</time>
      </trkpt>
      <trkpt lat="46.04929" lon="7.08178">
        <ele>1668</ele>
        <time>2022-08-27T22:27:06Z</time>
      </trkpt>
      <trkpt lat="46.0493" lon="7.08176">
        <ele>1668</ele>
        <time>2022-08-27T22:27:07Z</time>
      </trkpt>
      <trkpt lat="46.04931" lon="7.08174">
        <ele>1668</ele>
        <time>2022-08-27T22:27:08Z</time>
      </trkpt>
      <trkpt lat="46.04932" lon="7.08172">
        <ele>1668</ele>
        <time>2022-08-27T22:27:09Z</time>
      </trkpt>
      <trkpt lat="46.04933" lon="7.0817">
        <ele>1667</ele>
        <time>2022-08-27T22:27:11Z</time>
      </trkpt>
      <trkpt lat="46.04934" lon="7.08168">
        <ele>1667</ele>
        <time>2022-08-27T22:27:12Z</time>
      </trkpt>
      <trkpt lat="46.04935" lon="7.08166">
        <ele>1667</ele>
        <time>2022-08-27T22:27:13Z</time>
      </trkpt>
      <trkpt lat="46.04936" lon="7.08164">
        <ele>1667</ele>
        <time>2022-08-27T22:27:14Z</time>
      </trkpt>
      <trkpt lat="46.04937" lon="7.08161">
        <ele>1666</ele>
        <time>2022-08-27T22:27:16Z</time>
      </trkpt>
      <trkpt lat="46.04938" lon="7.08159">
        <ele>1666</ele>
        <time>2022-08-27T22:27:17Z</time>
      </trkpt>
      <trkpt lat="46.04938" lon="7.08156">
        <ele>1666</ele>
        <time>2022-08-27T22:27:18Z</time>
      </trkpt>
      <trkpt lat="46.04941" lon="7.08155">
        <ele>1666</ele>
        <time>2022-08-27T22:27:19Z</time>
      </trkpt>
      <trkpt lat="46.04943" lon="7.08154">
        <ele>1665</ele>
        <time>2022-08-27T22:27:21Z</time>
      </trkpt>
      <trkpt lat="46.04945" lon="7.08153">
        <ele>1665</ele>
        <time>2022-08-27T22:27:23Z</time>
      </trkpt>
      <trkpt lat="46.04947" lon="7.08151">
        <ele>1665</ele>
        <time>2022-08-27T22:27:24Z</time>
      </trkpt>
      <trkpt lat="46.04949" lon="7.0815">
        <ele>1665</ele>
        <time>2022-08-27T22:27:25Z</time>
      </trkpt>
      <trkpt lat="46.0495" lon="7.08148">
        <ele>1664</ele>
        <time>2022-08-27T22:27:27Z</time>
      </trkpt>
      <trkpt lat="46.04952" lon="7.08147">
        <ele>1664</ele>
        <time>2022-08-27T22:27:28Z</time>
      </trkpt>
      <trkpt lat="46.04953" lon="7.08145">
        <ele>1663</ele>
        <time>2022-08-27T22:27:29Z</time>
      </trkpt>
      <trkpt lat="46.04955" lon="7.08144">
        <ele>1663</ele>
        <time>2022-08-27T22:27:30Z</time>
      </trkpt>
      <trkpt lat="46.04964" lon="7.08139">
        <ele>1662</ele>
        <time>2022-08-27T22:27:38Z</time>
      </trkpt>
      <trkpt lat="46.04966" lon="7.08139">
        <ele>1662</ele>
        <time>2022-08-27T22:27:40Z</time>
      </trkpt>
      <trkpt lat="46.04967" lon="7.08139">
        <ele>1662</ele>
        <time>2022-08-27T22:27:41Z</time>
      </trkpt>
      <trkpt lat="46.04968" lon="7.08139">
        <ele>1662</ele>
        <time>2022-08-27T22:27:42Z</time>
      </trkpt>
      <trkpt lat="46.0497" lon="7.08139">
        <ele>1662</ele>
        <time>2022-08-27T22:27:43Z</time>
      </trkpt>
      <trkpt lat="46.04971" lon="7.08139">
        <ele>1661</ele>
        <time>2022-08-27T22:27:45Z</time>
      </trkpt>
      <trkpt lat="46.04972" lon="7.08139">
        <ele>1661</ele>
        <time>2022-08-27T22:27:46Z</time>
      </trkpt>
      <trkpt lat="46.04974" lon="7.08138">
        <ele>1661</ele>
        <time>2022-08-27T22:27:47Z</time>
      </trkpt>
      <trkpt lat="46.04974" lon="7.08137">
        <ele>1661</ele>
        <time>2022-08-27T22:27:48Z</time>
      </trkpt>
      <trkpt lat="46.04975" lon="7.08136">
        <ele>1660</ele>
        <time>2022-08-27T22:27:50Z</time>
      </trkpt>
      <trkpt lat="46.04976" lon="7.08135">
        <ele>1660</ele>
        <time>2022-08-27T22:27:51Z</time>
      </trkpt>
      <trkpt lat="46.04976" lon="7.08134">
        <ele>1660</ele>
        <time>2022-08-27T22:27:52Z</time>
      </trkpt>
      <trkpt lat="46.04977" lon="7.08133">
        <ele>1659</ele>
        <time>2022-08-27T22:27:53Z</time>
      </trkpt>
      <trkpt lat="46.04978" lon="7.08132">
        <ele>1659</ele>
        <time>2022-08-27T22:27:55Z</time>
      </trkpt>
      <trkpt lat="46.04979" lon="7.08131">
        <ele>1659</ele>
        <time>2022-08-27T22:27:57Z</time>
      </trkpt>
      <trkpt lat="46.04979" lon="7.0813">
        <ele>1659</ele>
        <time>2022-08-27T22:27:59Z</time>
      </trkpt>
      <trkpt lat="46.0498" lon="7.08128">
        <ele>1659</ele>
        <time>2022-08-27T22:28:00Z</time>
      </trkpt>
      <trkpt lat="46.0498" lon="7.08127">
        <ele>1659</ele>
        <time>2022-08-27T22:28:01Z</time>
      </trkpt>
      <trkpt lat="46.04981" lon="7.08125">
        <ele>1658</ele>
        <time>2022-08-27T22:28:02Z</time>
      </trkpt>
      <trkpt lat="46.04982" lon="7.08124">
        <ele>1657</ele>
        <time>2022-08-27T22:28:04Z</time>
      </trkpt>
      <trkpt lat="46.04982" lon="7.08122">
        <ele>1657</ele>
        <time>2022-08-27T22:28:05Z</time>
      </trkpt>
      <trkpt lat="46.04983" lon="7.08121">
        <ele>1657</ele>
        <time>2022-08-27T22:28:06Z</time>
      </trkpt>
      <trkpt lat="46.04983" lon="7.08119">
        <ele>1657</ele>
        <time>2022-08-27T22:28:07Z</time>
      </trkpt>
      <trkpt lat="46.04984" lon="7.08118">
        <ele>1657</ele>
        <time>2022-08-27T22:28:08Z</time>
      </trkpt>
      <trkpt lat="46.04984" lon="7.08116">
        <ele>1657</ele>
        <time>2022-08-27T22:28:09Z</time>
      </trkpt>
      <trkpt lat="46.04984" lon="7.08113">
        <ele>1657</ele>
        <time>2022-08-27T22:28:10Z</time>
      </trkpt>
      <trkpt lat="46.04985" lon="7.0811">
        <ele>1657</ele>
        <time>2022-08-27T22:28:12Z</time>
      </trkpt>
      <trkpt lat="46.04985" lon="7.08107">
        <ele>1657</ele>
        <time>2022-08-27T22:28:13Z</time>
      </trkpt>
      <trkpt lat="46.04985" lon="7.08104">
        <ele>1657</ele>
        <time>2022-08-27T22:28:14Z</time>
      </trkpt>
      <trkpt lat="46.04985" lon="7.08101">
        <ele>1657</ele>
        <time>2022-08-27T22:28:15Z</time>
      </trkpt>
      <trkpt lat="46.04985" lon="7.081">
        <ele>1657</ele>
        <time>2022-08-27T22:28:17Z</time>
      </trkpt>
      <trkpt lat="46.04985" lon="7.08098">
        <ele>1657</ele>
        <time>2022-08-27T22:28:18Z</time>
      </trkpt>
      <trkpt lat="46.04985" lon="7.08096">
        <ele>1657</ele>
        <time>2022-08-27T22:28:19Z</time>
      </trkpt>
      <trkpt lat="46.04985" lon="7.08094">
        <ele>1658</ele>
        <time>2022-08-27T22:28:20Z</time>
      </trkpt>
      <trkpt lat="46.04985" lon="7.08092">
        <ele>1658</ele>
        <time>2022-08-27T22:28:22Z</time>
      </trkpt>
      <trkpt lat="46.04984" lon="7.0809">
        <ele>1658</ele>
        <time>2022-08-27T22:28:23Z</time>
      </trkpt>
      <trkpt lat="46.04984" lon="7.08088">
        <ele>1658</ele>
        <time>2022-08-27T22:28:24Z</time>
      </trkpt>
      <trkpt lat="46.04984" lon="7.08086">
        <ele>1658</ele>
        <time>2022-08-27T22:28:25Z</time>
      </trkpt>
      <trkpt lat="46.04984" lon="7.08084">
        <ele>1658</ele>
        <time>2022-08-27T22:28:27Z</time>
      </trkpt>
      <trkpt lat="46.04984" lon="7.08082">
        <ele>1658</ele>
        <time>2022-08-27T22:28:28Z</time>
      </trkpt>
      <trkpt lat="46.04984" lon="7.08081">
        <ele>1658</ele>
        <time>2022-08-27T22:28:29Z</time>
      </trkpt>
      <trkpt lat="46.04984" lon="7.08079">
        <ele>1658</ele>
        <time>2022-08-27T22:28:30Z</time>
      </trkpt>
      <trkpt lat="46.04984" lon="7.08077">
        <ele>1658</ele>
        <time>2022-08-27T22:28:31Z</time>
      </trkpt>
      <trkpt lat="46.04984" lon="7.08075">
        <ele>1658</ele>
        <time>2022-08-27T22:28:32Z</time>
      </trkpt>
      <trkpt lat="46.04984" lon="7.08073">
        <ele>1658</ele>
        <time>2022-08-27T22:28:33Z</time>
      </trkpt>
      <trkpt lat="46.04984" lon="7.08071">
        <ele>1659</ele>
        <time>2022-08-27T22:28:34Z</time>
      </trkpt>
      <trkpt lat="46.04984" lon="7.08069">
        <ele>1659</ele>
        <time>2022-08-27T22:28:35Z</time>
      </trkpt>
      <trkpt lat="46.04984" lon="7.08067">
        <ele>1659</ele>
        <time>2022-08-27T22:28:37Z</time>
      </trkpt>
      <trkpt lat="46.04984" lon="7.08065">
        <ele>1659</ele>
        <time>2022-08-27T22:28:39Z</time>
      </trkpt>
      <trkpt lat="46.04984" lon="7.08063">
        <ele>1659</ele>
        <time>2022-08-27T22:28:40Z</time>
      </trkpt>
      <trkpt lat="46.04984" lon="7.08061">
        <ele>1659</ele>
        <time>2022-08-27T22:28:41Z</time>
      </trkpt>
      <trkpt lat="46.04984" lon="7.0806">
        <ele>1659</ele>
        <time>2022-08-27T22:28:42Z</time>
      </trkpt>
      <trkpt lat="46.04984" lon="7.08058">
        <ele>1659</ele>
        <time>2022-08-27T22:28:44Z</time>
      </trkpt>
      <trkpt lat="46.04983" lon="7.08057">
        <ele>1659</ele>
        <time>2022-08-27T22:28:45Z</time>
      </trkpt>
      <trkpt lat="46.04983" lon="7.08055">
        <ele>1659</ele>
        <time>2022-08-27T22:28:46Z</time>
      </trkpt>
      <trkpt lat="46.04983" lon="7.08053">
        <ele>1660</ele>
        <time>2022-08-27T22:28:47Z</time>
      </trkpt>
      <trkpt lat="46.04983" lon="7.08052">
        <ele>1660</ele>
        <time>2022-08-27T22:28:49Z</time>
      </trkpt>
      <trkpt lat="46.04982" lon="7.0805">
        <ele>1660</ele>
        <time>2022-08-27T22:28:51Z</time>
      </trkpt>
      <trkpt lat="46.04982" lon="7.08049">
        <ele>1660</ele>
        <time>2022-08-27T22:28:52Z</time>
      </trkpt>
      <trkpt lat="46.04979" lon="7.08036">
        <ele>1661</ele>
        <time>2022-08-27T22:29:00Z</time>
      </trkpt>
      <trkpt lat="46.04979" lon="7.08033">
        <ele>1661</ele>
        <time>2022-08-27T22:29:01Z</time>
      </trkpt>
      <trkpt lat="46.04979" lon="7.08031">
        <ele>1661</ele>
        <time>2022-08-27T22:29:02Z</time>
      </trkpt>
      <trkpt lat="46.04978" lon="7.08029">
        <ele>1661</ele>
        <time>2022-08-27T22:29:03Z</time>
      </trkpt>
      <trkpt lat="46.04978" lon="7.08027">
        <ele>1661</ele>
        <time>2022-08-27T22:29:05Z</time>
      </trkpt>
      <trkpt lat="46.04978" lon="7.08024">
        <ele>1661</ele>
        <time>2022-08-27T22:29:06Z</time>
      </trkpt>
      <trkpt lat="46.04977" lon="7.08022">
        <ele>1661</ele>
        <time>2022-08-27T22:29:07Z</time>
      </trkpt>
      <trkpt lat="46.04977" lon="7.0802">
        <ele>1661</ele>
        <time>2022-08-27T22:29:08Z</time>
      </trkpt>
      <trkpt lat="46.04977" lon="7.08018">
        <ele>1661</ele>
        <time>2022-08-27T22:29:10Z</time>
      </trkpt>
      <trkpt lat="46.04977" lon="7.08015">
        <ele>1661</ele>
        <time>2022-08-27T22:29:12Z</time>
      </trkpt>
      <trkpt lat="46.04977" lon="7.08013">
        <ele>1661</ele>
        <time>2022-08-27T22:29:13Z</time>
      </trkpt>
      <trkpt lat="46.04977" lon="7.08011">
        <ele>1661</ele>
        <time>2022-08-27T22:29:14Z</time>
      </trkpt>
      <trkpt lat="46.04977" lon="7.08009">
        <ele>1662</ele>
        <time>2022-08-27T22:29:15Z</time>
      </trkpt>
      <trkpt lat="46.0498" lon="7.07996">
        <ele>1662</ele>
        <time>2022-08-27T22:29:22Z</time>
      </trkpt>
      <trkpt lat="46.0498" lon="7.07995">
        <ele>1663</ele>
        <time>2022-08-27T22:29:23Z</time>
      </trkpt>
      <trkpt lat="46.04981" lon="7.07993">
        <ele>1663</ele>
        <time>2022-08-27T22:29:24Z</time>
      </trkpt>
      <trkpt lat="46.04981" lon="7.07992">
        <ele>1663</ele>
        <time>2022-08-27T22:29:25Z</time>
      </trkpt>
      <trkpt lat="46.04982" lon="7.0799">
        <ele>1663</ele>
        <time>2022-08-27T22:29:27Z</time>
      </trkpt>
      <trkpt lat="46.04982" lon="7.07989">
        <ele>1663</ele>
        <time>2022-08-27T22:29:28Z</time>
      </trkpt>
      <trkpt lat="46.04983" lon="7.07988">
        <ele>1663</ele>
        <time>2022-08-27T22:29:29Z</time>
      </trkpt>
      <trkpt lat="46.04983" lon="7.07986">
        <ele>1663</ele>
        <time>2022-08-27T22:29:30Z</time>
      </trkpt>
      <trkpt lat="46.04984" lon="7.07985">
        <ele>1663</ele>
        <time>2022-08-27T22:29:31Z</time>
      </trkpt>
      <trkpt lat="46.04984" lon="7.07984">
        <ele>1663</ele>
        <time>2022-08-27T22:29:32Z</time>
      </trkpt>
      <trkpt lat="46.04985" lon="7.07982">
        <ele>1663</ele>
        <time>2022-08-27T22:29:34Z</time>
      </trkpt>
      <trkpt lat="46.04986" lon="7.0798">
        <ele>1663</ele>
        <time>2022-08-27T22:29:35Z</time>
      </trkpt>
      <trkpt lat="46.04987" lon="7.07978">
        <ele>1664</ele>
        <time>2022-08-27T22:29:36Z</time>
      </trkpt>
      <trkpt lat="46.04988" lon="7.07976">
        <ele>1664</ele>
        <time>2022-08-27T22:29:38Z</time>
      </trkpt>
      <trkpt lat="46.04989" lon="7.07974">
        <ele>1664</ele>
        <time>2022-08-27T22:29:39Z</time>
      </trkpt>
      <trkpt lat="46.0499" lon="7.07972">
        <ele>1664</ele>
        <time>2022-08-27T22:29:40Z</time>
      </trkpt>
      <trkpt lat="46.0499" lon="7.07971">
        <ele>1664</ele>
        <time>2022-08-27T22:29:41Z</time>
      </trkpt>
      <trkpt lat="46.04991" lon="7.07969">
        <ele>1664</ele>
        <time>2022-08-27T22:29:43Z</time>
      </trkpt>
      <trkpt lat="46.04992" lon="7.07968">
        <ele>1665</ele>
        <time>2022-08-27T22:29:44Z</time>
      </trkpt>
      <trkpt lat="46.04993" lon="7.07966">
        <ele>1665</ele>
        <time>2022-08-27T22:29:45Z</time>
      </trkpt>
      <trkpt lat="46.04993" lon="7.07965">
        <ele>1665</ele>
        <time>2022-08-27T22:29:46Z</time>
      </trkpt>
      <trkpt lat="46.04994" lon="7.07963">
        <ele>1665</ele>
        <time>2022-08-27T22:29:47Z</time>
      </trkpt>
      <trkpt lat="46.04995" lon="7.07962">
        <ele>1665</ele>
        <time>2022-08-27T22:29:48Z</time>
      </trkpt>
      <trkpt lat="46.04995" lon="7.07961">
        <ele>1665</ele>
        <time>2022-08-27T22:29:49Z</time>
      </trkpt>
      <trkpt lat="46.04995" lon="7.0796">
        <ele>1665</ele>
        <time>2022-08-27T22:29:50Z</time>
      </trkpt>
      <trkpt lat="46.04996" lon="7.07959">
        <ele>1665</ele>
        <time>2022-08-27T22:29:51Z</time>
      </trkpt>
      <trkpt lat="46.04996" lon="7.07958">
        <ele>1665</ele>
        <time>2022-08-27T22:29:53Z</time>
      </trkpt>
      <trkpt lat="46.04996" lon="7.07957">
        <ele>1665</ele>
        <time>2022-08-27T22:29:54Z</time>
      </trkpt>
      <trkpt lat="46.04996" lon="7.07956">
        <ele>1665</ele>
        <time>2022-08-27T22:29:55Z</time>
      </trkpt>
      <trkpt lat="46.04997" lon="7.07955">
        <ele>1665</ele>
        <time>2022-08-27T22:29:56Z</time>
      </trkpt>
      <trkpt lat="46.04997" lon="7.07954">
        <ele>1665</ele>
        <time>2022-08-27T22:29:58Z</time>
      </trkpt>
      <trkpt lat="46.04997" lon="7.07953">
        <ele>1665</ele>
        <time>2022-08-27T22:29:59Z</time>
      </trkpt>
      <trkpt lat="46.04997" lon="7.07952">
        <ele>1665</ele>
        <time>2022-08-27T22:30:00Z</time>
      </trkpt>
      <trkpt lat="46.04997" lon="7.07951">
        <ele>1665</ele>
        <time>2022-08-27T22:30:01Z</time>
      </trkpt>
      <trkpt lat="46.04998" lon="7.0795">
        <ele>1665</ele>
        <time>2022-08-27T22:30:03Z</time>
      </trkpt>
      <trkpt lat="46.04998" lon="7.07949">
        <ele>1665</ele>
        <time>2022-08-27T22:30:04Z</time>
      </trkpt>
      <trkpt lat="46.04999" lon="7.07946">
        <ele>1665</ele>
        <time>2022-08-27T22:30:06Z</time>
      </trkpt>
      <trkpt lat="46.05" lon="7.07943">
        <ele>1666</ele>
        <time>2022-08-27T22:30:07Z</time>
      </trkpt>
      <trkpt lat="46.05002" lon="7.0794">
        <ele>1666</ele>
        <time>2022-08-27T22:30:08Z</time>
      </trkpt>
      <trkpt lat="46.05003" lon="7.07937">
        <ele>1666</ele>
        <time>2022-08-27T22:30:09Z</time>
      </trkpt>
      <trkpt lat="46.05003" lon="7.07935">
        <ele>1667</ele>
        <time>2022-08-27T22:30:11Z</time>
      </trkpt>
      <trkpt lat="46.05004" lon="7.07934">
        <ele>1667</ele>
        <time>2022-08-27T22:30:12Z</time>
      </trkpt>
      <trkpt lat="46.05005" lon="7.07932">
        <ele>1667</ele>
        <time>2022-08-27T22:30:13Z</time>
      </trkpt>
      <trkpt lat="46.05005" lon="7.07931">
        <ele>1667</ele>
        <time>2022-08-27T22:30:14Z</time>
      </trkpt>
      <trkpt lat="46.05006" lon="7.07929">
        <ele>1667</ele>
        <time>2022-08-27T22:30:16Z</time>
      </trkpt>
      <trkpt lat="46.05006" lon="7.07928">
        <ele>1667</ele>
        <time>2022-08-27T22:30:17Z</time>
      </trkpt>
      <trkpt lat="46.05007" lon="7.07926">
        <ele>1667</ele>
        <time>2022-08-27T22:30:18Z</time>
      </trkpt>
      <trkpt lat="46.05007" lon="7.07925">
        <ele>1667</ele>
        <time>2022-08-27T22:30:19Z</time>
      </trkpt>
      <trkpt lat="46.05008" lon="7.07923">
        <ele>1667</ele>
        <time>2022-08-27T22:30:21Z</time>
      </trkpt>
      <trkpt lat="46.05008" lon="7.07921">
        <ele>1667</ele>
        <time>2022-08-27T22:30:22Z</time>
      </trkpt>
      <trkpt lat="46.05009" lon="7.07919">
        <ele>1667</ele>
        <time>2022-08-27T22:30:23Z</time>
      </trkpt>
      <trkpt lat="46.05009" lon="7.07917">
        <ele>1667</ele>
        <time>2022-08-27T22:30:24Z</time>
      </trkpt>
      <trkpt lat="46.05009" lon="7.07915">
        <ele>1667</ele>
        <time>2022-08-27T22:30:26Z</time>
      </trkpt>
      <trkpt lat="46.0501" lon="7.07913">
        <ele>1667</ele>
        <time>2022-08-27T22:30:27Z</time>
      </trkpt>
      <trkpt lat="46.0501" lon="7.07911">
        <ele>1667</ele>
        <time>2022-08-27T22:30:28Z</time>
      </trkpt>
      <trkpt lat="46.0501" lon="7.07908">
        <ele>1667</ele>
        <time>2022-08-27T22:30:29Z</time>
      </trkpt>
      <trkpt lat="46.0501" lon="7.07905">
        <ele>1667</ele>
        <time>2022-08-27T22:30:31Z</time>
      </trkpt>
      <trkpt lat="46.0501" lon="7.07902">
        <ele>1667</ele>
        <time>2022-08-27T22:30:32Z</time>
      </trkpt>
      <trkpt lat="46.0501" lon="7.07898">
        <ele>1667</ele>
        <time>2022-08-27T22:30:33Z</time>
      </trkpt>
      <trkpt lat="46.0501" lon="7.07885">
        <ele>1667</ele>
        <time>2022-08-27T22:30:40Z</time>
      </trkpt>
      <trkpt lat="46.0501" lon="7.07883">
        <ele>1667</ele>
        <time>2022-08-27T22:30:41Z</time>
      </trkpt>
      <trkpt lat="46.0501" lon="7.0788">
        <ele>1667</ele>
        <time>2022-08-27T22:30:42Z</time>
      </trkpt>
      <trkpt lat="46.0501" lon="7.07878">
        <ele>1667</ele>
        <time>2022-08-27T22:30:43Z</time>
      </trkpt>
      <trkpt lat="46.0501" lon="7.07876">
        <ele>1667</ele>
        <time>2022-08-27T22:30:45Z</time>
      </trkpt>
      <trkpt lat="46.0501" lon="7.07874">
        <ele>1667</ele>
        <time>2022-08-27T22:30:46Z</time>
      </trkpt>
      <trkpt lat="46.0501" lon="7.07871">
        <ele>1667</ele>
        <time>2022-08-27T22:30:47Z</time>
      </trkpt>
      <trkpt lat="46.05008" lon="7.07858">
        <ele>1668</ele>
        <time>2022-08-27T22:30:57Z</time>
      </trkpt>
      <trkpt lat="46.05009" lon="7.07858">
        <ele>1668</ele>
        <time>2022-08-27T22:30:58Z</time>
      </trkpt>
      <trkpt lat="46.05009" lon="7.07857">
        <ele>1668</ele>
        <time>2022-08-27T22:30:59Z</time>
      </trkpt>
      <trkpt lat="46.05009" lon="7.07857">
        <ele>1668</ele>
        <time>2022-08-27T22:31:00Z</time>
      </trkpt>
      <trkpt lat="46.0501" lon="7.07856">
        <ele>1668</ele>
        <time>2022-08-27T22:31:02Z</time>
      </trkpt>
      <trkpt lat="46.0501" lon="7.07856">
        <ele>1668</ele>
        <time>2022-08-27T22:31:04Z</time>
      </trkpt>
      <trkpt lat="46.0501" lon="7.07855">
        <ele>1668</ele>
        <time>2022-08-27T22:31:05Z</time>
      </trkpt>
      <trkpt lat="46.05011" lon="7.07855">
        <ele>1668</ele>
        <time>2022-08-27T22:31:06Z</time>
      </trkpt>
      <trkpt lat="46.05011" lon="7.07854">
        <ele>1668</ele>
        <time>2022-08-27T22:31:07Z</time>
      </trkpt>
      <trkpt lat="46.05011" lon="7.07854">
        <ele>1668</ele>
        <time>2022-08-27T22:31:09Z</time>
      </trkpt>
      <trkpt lat="46.05012" lon="7.07854">
        <ele>1668</ele>
        <time>2022-08-27T22:31:10Z</time>
      </trkpt>
      <trkpt lat="46.05012" lon="7.07853">
        <ele>1668</ele>
        <time>2022-08-27T22:31:11Z</time>
      </trkpt>
      <trkpt lat="46.05012" lon="7.07853">
        <ele>1670</ele>
        <time>2022-08-27T22:31:13Z</time>
      </trkpt>
      <trkpt lat="46.05012" lon="7.07852">
        <ele>1670</ele>
        <time>2022-08-27T22:31:15Z</time>
      </trkpt>
      <trkpt lat="46.05013" lon="7.07852">
        <ele>1670</ele>
        <time>2022-08-27T22:31:16Z</time>
      </trkpt>
      <trkpt lat="46.05013" lon="7.07851">
        <ele>1670</ele>
        <time>2022-08-27T22:31:17Z</time>
      </trkpt>
      <trkpt lat="46.05013" lon="7.07851">
        <ele>1670</ele>
        <time>2022-08-27T22:31:18Z</time>
      </trkpt>
      <trkpt lat="46.05014" lon="7.0785">
        <ele>1670</ele>
        <time>2022-08-27T22:31:20Z</time>
      </trkpt>
      <trkpt lat="46.05014" lon="7.0785">
        <ele>1670</ele>
        <time>2022-08-27T22:31:21Z</time>
      </trkpt>
      <trkpt lat="46.05014" lon="7.07849">
        <ele>1670</ele>
        <time>2022-08-27T22:31:22Z</time>
      </trkpt>
      <trkpt lat="46.05015" lon="7.07849">
        <ele>1670</ele>
        <time>2022-08-27T22:31:23Z</time>
      </trkpt>
      <trkpt lat="46.05015" lon="7.07848">
        <ele>1670</ele>
        <time>2022-08-27T22:31:25Z</time>
      </trkpt>
      <trkpt lat="46.05015" lon="7.07848">
        <ele>1670</ele>
        <time>2022-08-27T22:31:26Z</time>
      </trkpt>
      <trkpt lat="46.05018" lon="7.07842">
        <ele>1670</ele>
        <time>2022-08-27T22:31:28Z</time>
      </trkpt>
      <trkpt lat="46.05021" lon="7.07835">
        <ele>1670</ele>
        <time>2022-08-27T22:31:29Z</time>
      </trkpt>
      <trkpt lat="46.05022" lon="7.07834">
        <ele>1670</ele>
        <time>2022-08-27T22:31:31Z</time>
      </trkpt>
      <trkpt lat="46.05023" lon="7.07832">
        <ele>1670</ele>
        <time>2022-08-27T22:31:32Z</time>
      </trkpt>
      <trkpt lat="46.05024" lon="7.0783">
        <ele>1670</ele>
        <time>2022-08-27T22:31:33Z</time>
      </trkpt>
      <trkpt lat="46.05025" lon="7.07829">
        <ele>1669</ele>
        <time>2022-08-27T22:31:34Z</time>
      </trkpt>
      <trkpt lat="46.05026" lon="7.07827">
        <ele>1669</ele>
        <time>2022-08-27T22:31:35Z</time>
      </trkpt>
      <trkpt lat="46.05027" lon="7.07825">
        <ele>1669</ele>
        <time>2022-08-27T22:31:36Z</time>
      </trkpt>
      <trkpt lat="46.05032" lon="7.07814">
        <ele>1670</ele>
        <time>2022-08-27T22:31:41Z</time>
      </trkpt>
      <trkpt lat="46.05033" lon="7.07813">
        <ele>1670</ele>
        <time>2022-08-27T22:31:42Z</time>
      </trkpt>
      <trkpt lat="46.05034" lon="7.07811">
        <ele>1670</ele>
        <time>2022-08-27T22:31:43Z</time>
      </trkpt>
      <trkpt lat="46.05034" lon="7.0781">
        <ele>1670</ele>
        <time>2022-08-27T22:31:44Z</time>
      </trkpt>
      <trkpt lat="46.05035" lon="7.07809">
        <ele>1670</ele>
        <time>2022-08-27T22:31:46Z</time>
      </trkpt>
      <trkpt lat="46.05035" lon="7.07807">
        <ele>1670</ele>
        <time>2022-08-27T22:31:47Z</time>
      </trkpt>
      <trkpt lat="46.05036" lon="7.07806">
        <ele>1670</ele>
        <time>2022-08-27T22:31:48Z</time>
      </trkpt>
      <trkpt lat="46.05036" lon="7.07805">
        <ele>1670</ele>
        <time>2022-08-27T22:31:49Z</time>
      </trkpt>
      <trkpt lat="46.05037" lon="7.07803">
        <ele>1670</ele>
        <time>2022-08-27T22:31:50Z</time>
      </trkpt>
      <trkpt lat="46.05037" lon="7.07802">
        <ele>1670</ele>
        <time>2022-08-27T22:31:51Z</time>
      </trkpt>
      <trkpt lat="46.05038" lon="7.07801">
        <ele>1670</ele>
        <time>2022-08-27T22:31:52Z</time>
      </trkpt>
      <trkpt lat="46.05039" lon="7.07799">
        <ele>1670</ele>
        <time>2022-08-27T22:31:53Z</time>
      </trkpt>
      <trkpt lat="46.0504" lon="7.07798">
        <ele>1670</ele>
        <time>2022-08-27T22:31:54Z</time>
      </trkpt>
      <trkpt lat="46.0504" lon="7.07797">
        <ele>1670</ele>
        <time>2022-08-27T22:31:56Z</time>
      </trkpt>
      <trkpt lat="46.05041" lon="7.07795">
        <ele>1670</ele>
        <time>2022-08-27T22:31:57Z</time>
      </trkpt>
      <trkpt lat="46.05042" lon="7.07794">
        <ele>1670</ele>
        <time>2022-08-27T22:31:58Z</time>
      </trkpt>
      <trkpt lat="46.05042" lon="7.07793">
        <ele>1670</ele>
        <time>2022-08-27T22:31:59Z</time>
      </trkpt>
      <trkpt lat="46.05043" lon="7.07792">
        <ele>1671</ele>
        <time>2022-08-27T22:32:01Z</time>
      </trkpt>
      <trkpt lat="46.05044" lon="7.0779">
        <ele>1671</ele>
        <time>2022-08-27T22:32:02Z</time>
      </trkpt>
      <trkpt lat="46.05045" lon="7.07789">
        <ele>1671</ele>
        <time>2022-08-27T22:32:03Z</time>
      </trkpt>
      <trkpt lat="46.05049" lon="7.07776">
        <ele>1672</ele>
        <time>2022-08-27T22:32:10Z</time>
      </trkpt>
      <trkpt lat="46.05049" lon="7.07774">
        <ele>1672</ele>
        <time>2022-08-27T22:32:11Z</time>
      </trkpt>
      <trkpt lat="46.0505" lon="7.07773">
        <ele>1672</ele>
        <time>2022-08-27T22:32:12Z</time>
      </trkpt>
      <trkpt lat="46.0505" lon="7.07771">
        <ele>1672</ele>
        <time>2022-08-27T22:32:13Z</time>
      </trkpt>
      <trkpt lat="46.05051" lon="7.0777">
        <ele>1672</ele>
        <time>2022-08-27T22:32:15Z</time>
      </trkpt>
      <trkpt lat="46.05051" lon="7.07768">
        <ele>1672</ele>
        <time>2022-08-27T22:32:16Z</time>
      </trkpt>
      <trkpt lat="46.05052" lon="7.07767">
        <ele>1672</ele>
        <time>2022-08-27T22:32:17Z</time>
      </trkpt>
      <trkpt lat="46.05052" lon="7.07765">
        <ele>1672</ele>
        <time>2022-08-27T22:32:18Z</time>
      </trkpt>
      <trkpt lat="46.05053" lon="7.07764">
        <ele>1672</ele>
        <time>2022-08-27T22:32:19Z</time>
      </trkpt>
      <trkpt lat="46.05053" lon="7.07762">
        <ele>1673</ele>
        <time>2022-08-27T22:32:20Z</time>
      </trkpt>
      <trkpt lat="46.0506" lon="7.07754">
        <ele>1672</ele>
        <time>2022-08-27T22:32:25Z</time>
      </trkpt>
      <trkpt lat="46.05062" lon="7.07753">
        <ele>1672</ele>
        <time>2022-08-27T22:32:27Z</time>
      </trkpt>
      <trkpt lat="46.05063" lon="7.07751">
        <ele>1672</ele>
        <time>2022-08-27T22:32:28Z</time>
      </trkpt>
      <trkpt lat="46.05064" lon="7.07749">
        <ele>1672</ele>
        <time>2022-08-27T22:32:29Z</time>
      </trkpt>
      <trkpt lat="46.05066" lon="7.07748">
        <ele>1672</ele>
        <time>2022-08-27T22:32:30Z</time>
      </trkpt>
      <trkpt lat="46.05067" lon="7.07746">
        <ele>1672</ele>
        <time>2022-08-27T22:32:31Z</time>
      </trkpt>
      <trkpt lat="46.05068" lon="7.07744">
        <ele>1672</ele>
        <time>2022-08-27T22:32:32Z</time>
      </trkpt>
      <trkpt lat="46.05069" lon="7.07743">
        <ele>1672</ele>
        <time>2022-08-27T22:32:33Z</time>
      </trkpt>
      <trkpt lat="46.0507" lon="7.07742">
        <ele>1672</ele>
        <time>2022-08-27T22:32:34Z</time>
      </trkpt>
      <trkpt lat="46.05071" lon="7.07741">
        <ele>1673</ele>
        <time>2022-08-27T22:32:35Z</time>
      </trkpt>
      <trkpt lat="46.05072" lon="7.0774">
        <ele>1673</ele>
        <time>2022-08-27T22:32:37Z</time>
      </trkpt>
      <trkpt lat="46.05073" lon="7.07739">
        <ele>1673</ele>
        <time>2022-08-27T22:32:38Z</time>
      </trkpt>
      <trkpt lat="46.05074" lon="7.07737">
        <ele>1673</ele>
        <time>2022-08-27T22:32:39Z</time>
      </trkpt>
      <trkpt lat="46.05075" lon="7.07736">
        <ele>1673</ele>
        <time>2022-08-27T22:32:40Z</time>
      </trkpt>
      <trkpt lat="46.05077" lon="7.07733">
        <ele>1673</ele>
        <time>2022-08-27T22:32:41Z</time>
      </trkpt>
      <trkpt lat="46.05078" lon="7.0773">
        <ele>1673</ele>
        <time>2022-08-27T22:32:42Z</time>
      </trkpt>
      <trkpt lat="46.0508" lon="7.07727">
        <ele>1673</ele>
        <time>2022-08-27T22:32:44Z</time>
      </trkpt>
      <trkpt lat="46.05081" lon="7.07724">
        <ele>1673</ele>
        <time>2022-08-27T22:32:45Z</time>
      </trkpt>
      <trkpt lat="46.05082" lon="7.07722">
        <ele>1673</ele>
        <time>2022-08-27T22:32:46Z</time>
      </trkpt>
      <trkpt lat="46.05084" lon="7.0772">
        <ele>1673</ele>
        <time>2022-08-27T22:32:48Z</time>
      </trkpt>
      <trkpt lat="46.05085" lon="7.07718">
        <ele>1673</ele>
        <time>2022-08-27T22:32:49Z</time>
      </trkpt>
      <trkpt lat="46.05086" lon="7.07716">
        <ele>1673</ele>
        <time>2022-08-27T22:32:50Z</time>
      </trkpt>
      <trkpt lat="46.05087" lon="7.07714">
        <ele>1673</ele>
        <time>2022-08-27T22:32:51Z</time>
      </trkpt>
      <trkpt lat="46.05088" lon="7.07712">
        <ele>1674</ele>
        <time>2022-08-27T22:32:53Z</time>
      </trkpt>
      <trkpt lat="46.05089" lon="7.0771">
        <ele>1674</ele>
        <time>2022-08-27T22:32:54Z</time>
      </trkpt>
      <trkpt lat="46.05089" lon="7.07708">
        <ele>1674</ele>
        <time>2022-08-27T22:32:55Z</time>
      </trkpt>
      <trkpt lat="46.0509" lon="7.07706">
        <ele>1674</ele>
        <time>2022-08-27T22:32:56Z</time>
      </trkpt>
      <trkpt lat="46.05091" lon="7.07704">
        <ele>1674</ele>
        <time>2022-08-27T22:32:58Z</time>
      </trkpt>
      <trkpt lat="46.05091" lon="7.07703">
        <ele>1674</ele>
        <time>2022-08-27T22:32:59Z</time>
      </trkpt>
      <trkpt lat="46.05099" lon="7.07693">
        <ele>1674</ele>
        <time>2022-08-27T22:33:10Z</time>
      </trkpt>
      <trkpt lat="46.05099" lon="7.07692">
        <ele>1674</ele>
        <time>2022-08-27T22:33:11Z</time>
      </trkpt>
      <trkpt lat="46.051" lon="7.07691">
        <ele>1674</ele>
        <time>2022-08-27T22:33:12Z</time>
      </trkpt>
      <trkpt lat="46.05101" lon="7.0769">
        <ele>1675</ele>
        <time>2022-08-27T22:33:13Z</time>
      </trkpt>
      <trkpt lat="46.05102" lon="7.07689">
        <ele>1675</ele>
        <time>2022-08-27T22:33:15Z</time>
      </trkpt>
      <trkpt lat="46.05103" lon="7.07688">
        <ele>1675</ele>
        <time>2022-08-27T22:33:16Z</time>
      </trkpt>
      <trkpt lat="46.05104" lon="7.07687">
        <ele>1675</ele>
        <time>2022-08-27T22:33:17Z</time>
      </trkpt>
      <trkpt lat="46.05104" lon="7.07686">
        <ele>1675</ele>
        <time>2022-08-27T22:33:18Z</time>
      </trkpt>
      <trkpt lat="46.05105" lon="7.07686">
        <ele>1675</ele>
        <time>2022-08-27T22:33:19Z</time>
      </trkpt>
      <trkpt lat="46.05106" lon="7.07685">
        <ele>1675</ele>
        <time>2022-08-27T22:33:20Z</time>
      </trkpt>
      <trkpt lat="46.05107" lon="7.07683">
        <ele>1675</ele>
        <time>2022-08-27T22:33:22Z</time>
      </trkpt>
      <trkpt lat="46.05108" lon="7.07681">
        <ele>1675</ele>
        <time>2022-08-27T22:33:23Z</time>
      </trkpt>
      <trkpt lat="46.05109" lon="7.07679">
        <ele>1675</ele>
        <time>2022-08-27T22:33:24Z</time>
      </trkpt>
      <trkpt lat="46.05109" lon="7.07677">
        <ele>1676</ele>
        <time>2022-08-27T22:33:26Z</time>
      </trkpt>
      <trkpt lat="46.0511" lon="7.07675">
        <ele>1676</ele>
        <time>2022-08-27T22:33:27Z</time>
      </trkpt>
      <trkpt lat="46.05111" lon="7.07674">
        <ele>1676</ele>
        <time>2022-08-27T22:33:28Z</time>
      </trkpt>
      <trkpt lat="46.05113" lon="7.07672">
        <ele>1676</ele>
        <time>2022-08-27T22:33:29Z</time>
      </trkpt>
      <trkpt lat="46.05114" lon="7.07671">
        <ele>1676</ele>
        <time>2022-08-27T22:33:31Z</time>
      </trkpt>
      <trkpt lat="46.05116" lon="7.07669">
        <ele>1676</ele>
        <time>2022-08-27T22:33:32Z</time>
      </trkpt>
      <trkpt lat="46.05117" lon="7.07667">
        <ele>1676</ele>
        <time>2022-08-27T22:33:33Z</time>
      </trkpt>
      <trkpt lat="46.05119" lon="7.07666">
        <ele>1676</ele>
        <time>2022-08-27T22:33:34Z</time>
      </trkpt>
      <trkpt lat="46.0512" lon="7.07665">
        <ele>1676</ele>
        <time>2022-08-27T22:33:36Z</time>
      </trkpt>
      <trkpt lat="46.05121" lon="7.07664">
        <ele>1676</ele>
        <time>2022-08-27T22:33:37Z</time>
      </trkpt>
      <trkpt lat="46.05123" lon="7.07662">
        <ele>1676</ele>
        <time>2022-08-27T22:33:38Z</time>
      </trkpt>
      <trkpt lat="46.05124" lon="7.07661">
        <ele>1677</ele>
        <time>2022-08-27T22:33:39Z</time>
      </trkpt>
      <trkpt lat="46.05126" lon="7.0766">
        <ele>1677</ele>
        <time>2022-08-27T22:33:40Z</time>
      </trkpt>
      <trkpt lat="46.05127" lon="7.07659">
        <ele>1677</ele>
        <time>2022-08-27T22:33:41Z</time>
      </trkpt>
      <trkpt lat="46.05127" lon="7.07657">
        <ele>1677</ele>
        <time>2022-08-27T22:33:43Z</time>
      </trkpt>
      <trkpt lat="46.05128" lon="7.07655">
        <ele>1677</ele>
        <time>2022-08-27T22:33:44Z</time>
      </trkpt>
      <trkpt lat="46.05129" lon="7.07654">
        <ele>1677</ele>
        <time>2022-08-27T22:33:45Z</time>
      </trkpt>
      <trkpt lat="46.05129" lon="7.07652">
        <ele>1677</ele>
        <time>2022-08-27T22:33:46Z</time>
      </trkpt>
      <trkpt lat="46.0513" lon="7.0765">
        <ele>1677</ele>
        <time>2022-08-27T22:33:48Z</time>
      </trkpt>
      <trkpt lat="46.0513" lon="7.07648">
        <ele>1677</ele>
        <time>2022-08-27T22:33:49Z</time>
      </trkpt>
      <trkpt lat="46.05131" lon="7.07646">
        <ele>1677</ele>
        <time>2022-08-27T22:33:50Z</time>
      </trkpt>
      <trkpt lat="46.05132" lon="7.07644">
        <ele>1677</ele>
        <time>2022-08-27T22:33:51Z</time>
      </trkpt>
      <trkpt lat="46.05133" lon="7.07641">
        <ele>1677</ele>
        <time>2022-08-27T22:33:53Z</time>
      </trkpt>
      <trkpt lat="46.05134" lon="7.07639">
        <ele>1677</ele>
        <time>2022-08-27T22:33:55Z</time>
      </trkpt>
      <trkpt lat="46.05135" lon="7.07636">
        <ele>1677</ele>
        <time>2022-08-27T22:33:56Z</time>
      </trkpt>
      <trkpt lat="46.05136" lon="7.07634">
        <ele>1677</ele>
        <time>2022-08-27T22:33:57Z</time>
      </trkpt>
      <trkpt lat="46.05137" lon="7.07631">
        <ele>1677</ele>
        <time>2022-08-27T22:33:58Z</time>
      </trkpt>
      <trkpt lat="46.05137" lon="7.07629">
        <ele>1678</ele>
        <time>2022-08-27T22:34:00Z</time>
      </trkpt>
      <trkpt lat="46.05137" lon="7.07627">
        <ele>1678</ele>
        <time>2022-08-27T22:34:01Z</time>
      </trkpt>
      <trkpt lat="46.05138" lon="7.07625">
        <ele>1678</ele>
        <time>2022-08-27T22:34:02Z</time>
      </trkpt>
      <trkpt lat="46.05138" lon="7.07623">
        <ele>1678</ele>
        <time>2022-08-27T22:34:03Z</time>
      </trkpt>
      <trkpt lat="46.05139" lon="7.0762">
        <ele>1678</ele>
        <time>2022-08-27T22:34:04Z</time>
      </trkpt>
      <trkpt lat="46.05144" lon="7.07608">
        <ele>1678</ele>
        <time>2022-08-27T22:34:09Z</time>
      </trkpt>
      <trkpt lat="46.0515" lon="7.07596">
        <ele>1679</ele>
        <time>2022-08-27T22:34:14Z</time>
      </trkpt>
      <trkpt lat="46.0515" lon="7.07594">
        <ele>1679</ele>
        <time>2022-08-27T22:34:15Z</time>
      </trkpt>
      <trkpt lat="46.05151" lon="7.07591">
        <ele>1679</ele>
        <time>2022-08-27T22:34:16Z</time>
      </trkpt>
      <trkpt lat="46.05151" lon="7.07588">
        <ele>1679</ele>
        <time>2022-08-27T22:34:17Z</time>
      </trkpt>
      <trkpt lat="46.05152" lon="7.07586">
        <ele>1679</ele>
        <time>2022-08-27T22:34:19Z</time>
      </trkpt>
      <trkpt lat="46.05153" lon="7.07583">
        <ele>1679</ele>
        <time>2022-08-27T22:34:20Z</time>
      </trkpt>
      <trkpt lat="46.05154" lon="7.07582">
        <ele>1679</ele>
        <time>2022-08-27T22:34:22Z</time>
      </trkpt>
      <trkpt lat="46.05155" lon="7.0758">
        <ele>1679</ele>
        <time>2022-08-27T22:34:23Z</time>
      </trkpt>
      <trkpt lat="46.05156" lon="7.07579">
        <ele>1679</ele>
        <time>2022-08-27T22:34:24Z</time>
      </trkpt>
      <trkpt lat="46.05158" lon="7.07578">
        <ele>1679</ele>
        <time>2022-08-27T22:34:25Z</time>
      </trkpt>
      <trkpt lat="46.05159" lon="7.07577">
        <ele>1679</ele>
        <time>2022-08-27T22:34:27Z</time>
      </trkpt>
      <trkpt lat="46.0516" lon="7.07575">
        <ele>1679</ele>
        <time>2022-08-27T22:34:28Z</time>
      </trkpt>
      <trkpt lat="46.05161" lon="7.07574">
        <ele>1679</ele>
        <time>2022-08-27T22:34:29Z</time>
      </trkpt>
      <trkpt lat="46.05162" lon="7.07572">
        <ele>1679</ele>
        <time>2022-08-27T22:34:30Z</time>
      </trkpt>
      <trkpt lat="46.05163" lon="7.07571">
        <ele>1679</ele>
        <time>2022-08-27T22:34:31Z</time>
      </trkpt>
      <trkpt lat="46.05163" lon="7.07569">
        <ele>1679</ele>
        <time>2022-08-27T22:34:33Z</time>
      </trkpt>
      <trkpt lat="46.05164" lon="7.07568">
        <ele>1679</ele>
        <time>2022-08-27T22:34:34Z</time>
      </trkpt>
      <trkpt lat="46.05165" lon="7.07566">
        <ele>1679</ele>
        <time>2022-08-27T22:34:35Z</time>
      </trkpt>
      <trkpt lat="46.05166" lon="7.07565">
        <ele>1679</ele>
        <time>2022-08-27T22:34:36Z</time>
      </trkpt>
      <trkpt lat="46.05167" lon="7.07564">
        <ele>1679</ele>
        <time>2022-08-27T22:34:38Z</time>
      </trkpt>
      <trkpt lat="46.05168" lon="7.07563">
        <ele>1679</ele>
        <time>2022-08-27T22:34:39Z</time>
      </trkpt>
      <trkpt lat="46.05169" lon="7.07562">
        <ele>1679</ele>
        <time>2022-08-27T22:34:41Z</time>
      </trkpt>
      <trkpt lat="46.0517" lon="7.07561">
        <ele>1679</ele>
        <time>2022-08-27T22:34:42Z</time>
      </trkpt>
      <trkpt lat="46.05171" lon="7.0756">
        <ele>1679</ele>
        <time>2022-08-27T22:34:43Z</time>
      </trkpt>
      <trkpt lat="46.05172" lon="7.07559">
        <ele>1679</ele>
        <time>2022-08-27T22:34:44Z</time>
      </trkpt>
      <trkpt lat="46.05173" lon="7.07558">
        <ele>1679</ele>
        <time>2022-08-27T22:34:46Z</time>
      </trkpt>
      <trkpt lat="46.05175" lon="7.07557">
        <ele>1679</ele>
        <time>2022-08-27T22:34:47Z</time>
      </trkpt>
      <trkpt lat="46.05176" lon="7.07555">
        <ele>1679</ele>
        <time>2022-08-27T22:34:48Z</time>
      </trkpt>
      <trkpt lat="46.05184" lon="7.07549">
        <ele>1680</ele>
        <time>2022-08-27T22:34:53Z</time>
      </trkpt>
      <trkpt lat="46.05184" lon="7.07548">
        <ele>1680</ele>
        <time>2022-08-27T22:34:54Z</time>
      </trkpt>
      <trkpt lat="46.05185" lon="7.07546">
        <ele>1680</ele>
        <time>2022-08-27T22:34:55Z</time>
      </trkpt>
      <trkpt lat="46.05186" lon="7.07544">
        <ele>1680</ele>
        <time>2022-08-27T22:34:57Z</time>
      </trkpt>
      <trkpt lat="46.05186" lon="7.07542">
        <ele>1680</ele>
        <time>2022-08-27T22:34:58Z</time>
      </trkpt>
      <trkpt lat="46.05187" lon="7.07541">
        <ele>1680</ele>
        <time>2022-08-27T22:34:59Z</time>
      </trkpt>
      <trkpt lat="46.05188" lon="7.07539">
        <ele>1680</ele>
        <time>2022-08-27T22:35:00Z</time>
      </trkpt>
      <trkpt lat="46.05188" lon="7.07537">
        <ele>1680</ele>
        <time>2022-08-27T22:35:01Z</time>
      </trkpt>
      <trkpt lat="46.05189" lon="7.07535">
        <ele>1680</ele>
        <time>2022-08-27T22:35:02Z</time>
      </trkpt>
      <trkpt lat="46.0519" lon="7.07533">
        <ele>1680</ele>
        <time>2022-08-27T22:35:03Z</time>
      </trkpt>
      <trkpt lat="46.05191" lon="7.07531">
        <ele>1680</ele>
        <time>2022-08-27T22:35:04Z</time>
      </trkpt>
      <trkpt lat="46.05192" lon="7.0753">
        <ele>1680</ele>
        <time>2022-08-27T22:35:06Z</time>
      </trkpt>
      <trkpt lat="46.05193" lon="7.07528">
        <ele>1680</ele>
        <time>2022-08-27T22:35:07Z</time>
      </trkpt>
      <trkpt lat="46.05195" lon="7.07526">
        <ele>1680</ele>
        <time>2022-08-27T22:35:08Z</time>
      </trkpt>
      <trkpt lat="46.05196" lon="7.07525">
        <ele>1680</ele>
        <time>2022-08-27T22:35:09Z</time>
      </trkpt>
      <trkpt lat="46.05197" lon="7.07524">
        <ele>1681</ele>
        <time>2022-08-27T22:35:10Z</time>
      </trkpt>
      <trkpt lat="46.05198" lon="7.07522">
        <ele>1681</ele>
        <time>2022-08-27T22:35:11Z</time>
      </trkpt>
      <trkpt lat="46.05199" lon="7.07521">
        <ele>1681</ele>
        <time>2022-08-27T22:35:13Z</time>
      </trkpt>
      <trkpt lat="46.052" lon="7.0752">
        <ele>1681</ele>
        <time>2022-08-27T22:35:14Z</time>
      </trkpt>
      <trkpt lat="46.05201" lon="7.07519">
        <ele>1681</ele>
        <time>2022-08-27T22:35:15Z</time>
      </trkpt>
      <trkpt lat="46.05202" lon="7.07517">
        <ele>1681</ele>
        <time>2022-08-27T22:35:16Z</time>
      </trkpt>
      <trkpt lat="46.05203" lon="7.07514">
        <ele>1681</ele>
        <time>2022-08-27T22:35:17Z</time>
      </trkpt>
      <trkpt lat="46.05204" lon="7.07511">
        <ele>1681</ele>
        <time>2022-08-27T22:35:18Z</time>
      </trkpt>
      <trkpt lat="46.05205" lon="7.07507">
        <ele>1681</ele>
        <time>2022-08-27T22:35:20Z</time>
      </trkpt>
      <trkpt lat="46.05206" lon="7.07504">
        <ele>1681</ele>
        <time>2022-08-27T22:35:21Z</time>
      </trkpt>
      <trkpt lat="46.05207" lon="7.07503">
        <ele>1681</ele>
        <time>2022-08-27T22:35:22Z</time>
      </trkpt>
      <trkpt lat="46.05208" lon="7.07501">
        <ele>1681</ele>
        <time>2022-08-27T22:35:23Z</time>
      </trkpt>
      <trkpt lat="46.05209" lon="7.07499">
        <ele>1681</ele>
        <time>2022-08-27T22:35:25Z</time>
      </trkpt>
      <trkpt lat="46.0521" lon="7.07498">
        <ele>1681</ele>
        <time>2022-08-27T22:35:26Z</time>
      </trkpt>
      <trkpt lat="46.05211" lon="7.07496">
        <ele>1681</ele>
        <time>2022-08-27T22:35:27Z</time>
      </trkpt>
      <trkpt lat="46.05212" lon="7.07494">
        <ele>1681</ele>
        <time>2022-08-27T22:35:28Z</time>
      </trkpt>
      <trkpt lat="46.05213" lon="7.07493">
        <ele>1682</ele>
        <time>2022-08-27T22:35:30Z</time>
      </trkpt>
      <trkpt lat="46.05214" lon="7.07491">
        <ele>1682</ele>
        <time>2022-08-27T22:35:31Z</time>
      </trkpt>
      <trkpt lat="46.05214" lon="7.07489">
        <ele>1682</ele>
        <time>2022-08-27T22:35:32Z</time>
      </trkpt>
      <trkpt lat="46.05215" lon="7.07487">
        <ele>1682</ele>
        <time>2022-08-27T22:35:33Z</time>
      </trkpt>
      <trkpt lat="46.05216" lon="7.07486">
        <ele>1682</ele>
        <time>2022-08-27T22:35:35Z</time>
      </trkpt>
      <trkpt lat="46.05216" lon="7.07484">
        <ele>1682</ele>
        <time>2022-08-27T22:35:36Z</time>
      </trkpt>
      <trkpt lat="46.05217" lon="7.07482">
        <ele>1682</ele>
        <time>2022-08-27T22:35:37Z</time>
      </trkpt>
      <trkpt lat="46.05217" lon="7.07481">
        <ele>1682</ele>
        <time>2022-08-27T22:35:38Z</time>
      </trkpt>
      <trkpt lat="46.05217" lon="7.07479">
        <ele>1682</ele>
        <time>2022-08-27T22:35:39Z</time>
      </trkpt>
      <trkpt lat="46.05218" lon="7.07478">
        <ele>1682</ele>
        <time>2022-08-27T22:35:40Z</time>
      </trkpt>
      <trkpt lat="46.05218" lon="7.07476">
        <ele>1683</ele>
        <time>2022-08-27T22:35:42Z</time>
      </trkpt>
      <trkpt lat="46.05218" lon="7.07475">
        <ele>1683</ele>
        <time>2022-08-27T22:35:43Z</time>
      </trkpt>
      <trkpt lat="46.05218" lon="7.07473">
        <ele>1683</ele>
        <time>2022-08-27T22:35:44Z</time>
      </trkpt>
      <trkpt lat="46.05219" lon="7.07471">
        <ele>1683</ele>
        <time>2022-08-27T22:35:45Z</time>
      </trkpt>
      <trkpt lat="46.05219" lon="7.0747">
        <ele>1683</ele>
        <time>2022-08-27T22:35:46Z</time>
      </trkpt>
      <trkpt lat="46.05219" lon="7.07468">
        <ele>1683</ele>
        <time>2022-08-27T22:35:47Z</time>
      </trkpt>
      <trkpt lat="46.05219" lon="7.07467">
        <ele>1683</ele>
        <time>2022-08-27T22:35:48Z</time>
      </trkpt>
      <trkpt lat="46.05219" lon="7.07465">
        <ele>1683</ele>
        <time>2022-08-27T22:35:49Z</time>
      </trkpt>
      <trkpt lat="46.05219" lon="7.07463">
        <ele>1683</ele>
        <time>2022-08-27T22:35:50Z</time>
      </trkpt>
      <trkpt lat="46.05219" lon="7.07462">
        <ele>1683</ele>
        <time>2022-08-27T22:35:52Z</time>
      </trkpt>
      <trkpt lat="46.05219" lon="7.0746">
        <ele>1683</ele>
        <time>2022-08-27T22:35:54Z</time>
      </trkpt>
      <trkpt lat="46.05219" lon="7.07459">
        <ele>1683</ele>
        <time>2022-08-27T22:35:55Z</time>
      </trkpt>
      <trkpt lat="46.05219" lon="7.07457">
        <ele>1683</ele>
        <time>2022-08-27T22:35:56Z</time>
      </trkpt>
      <trkpt lat="46.05219" lon="7.07455">
        <ele>1683</ele>
        <time>2022-08-27T22:35:57Z</time>
      </trkpt>
      <trkpt lat="46.05219" lon="7.07454">
        <ele>1683</ele>
        <time>2022-08-27T22:35:58Z</time>
      </trkpt>
      <trkpt lat="46.0522" lon="7.07451">
        <ele>1683</ele>
        <time>2022-08-27T22:35:59Z</time>
      </trkpt>
      <trkpt lat="46.05221" lon="7.07449">
        <ele>1683</ele>
        <time>2022-08-27T22:36:00Z</time>
      </trkpt>
      <trkpt lat="46.05222" lon="7.07447">
        <ele>1683</ele>
        <time>2022-08-27T22:36:01Z</time>
      </trkpt>
      <trkpt lat="46.05223" lon="7.07445">
        <ele>1684</ele>
        <time>2022-08-27T22:36:03Z</time>
      </trkpt>
      <trkpt lat="46.05224" lon="7.07442">
        <ele>1684</ele>
        <time>2022-08-27T22:36:04Z</time>
      </trkpt>
      <trkpt lat="46.05225" lon="7.0744">
        <ele>1684</ele>
        <time>2022-08-27T22:36:05Z</time>
      </trkpt>
      <trkpt lat="46.05225" lon="7.07438">
        <ele>1684</ele>
        <time>2022-08-27T22:36:06Z</time>
      </trkpt>
      <trkpt lat="46.05226" lon="7.07436">
        <ele>1684</ele>
        <time>2022-08-27T22:36:08Z</time>
      </trkpt>
      <trkpt lat="46.05227" lon="7.07434">
        <ele>1684</ele>
        <time>2022-08-27T22:36:09Z</time>
      </trkpt>
      <trkpt lat="46.05227" lon="7.07432">
        <ele>1684</ele>
        <time>2022-08-27T22:36:10Z</time>
      </trkpt>
      <trkpt lat="46.05228" lon="7.07429">
        <ele>1684</ele>
        <time>2022-08-27T22:36:11Z</time>
      </trkpt>
      <trkpt lat="46.05233" lon="7.07418">
        <ele>1685</ele>
        <time>2022-08-27T22:36:20Z</time>
      </trkpt>
      <trkpt lat="46.05239" lon="7.07407">
        <ele>1685</ele>
        <time>2022-08-27T22:36:27Z</time>
      </trkpt>
      <trkpt lat="46.0524" lon="7.07405">
        <ele>1685</ele>
        <time>2022-08-27T22:36:28Z</time>
      </trkpt>
      <trkpt lat="46.0524" lon="7.07404">
        <ele>1685</ele>
        <time>2022-08-27T22:36:29Z</time>
      </trkpt>
      <trkpt lat="46.0524" lon="7.07402">
        <ele>1686</ele>
        <time>2022-08-27T22:36:30Z</time>
      </trkpt>
      <trkpt lat="46.0524" lon="7.074">
        <ele>1686</ele>
        <time>2022-08-27T22:36:32Z</time>
      </trkpt>
      <trkpt lat="46.05241" lon="7.07398">
        <ele>1686</ele>
        <time>2022-08-27T22:36:33Z</time>
      </trkpt>
      <trkpt lat="46.05241" lon="7.07396">
        <ele>1686</ele>
        <time>2022-08-27T22:36:35Z</time>
      </trkpt>
      <trkpt lat="46.05241" lon="7.07394">
        <ele>1686</ele>
        <time>2022-08-27T22:36:36Z</time>
      </trkpt>
      <trkpt lat="46.05239" lon="7.07381">
        <ele>1687</ele>
        <time>2022-08-27T22:36:41Z</time>
      </trkpt>
      <trkpt lat="46.05239" lon="7.07379">
        <ele>1687</ele>
        <time>2022-08-27T22:36:42Z</time>
      </trkpt>
      <trkpt lat="46.05239" lon="7.07377">
        <ele>1687</ele>
        <time>2022-08-27T22:36:43Z</time>
      </trkpt>
      <trkpt lat="46.05238" lon="7.07376">
        <ele>1687</ele>
        <time>2022-08-27T22:36:44Z</time>
      </trkpt>
      <trkpt lat="46.05238" lon="7.07374">
        <ele>1687</ele>
        <time>2022-08-27T22:36:46Z</time>
      </trkpt>
      <trkpt lat="46.05237" lon="7.07372">
        <ele>1687</ele>
        <time>2022-08-27T22:36:48Z</time>
      </trkpt>
      <trkpt lat="46.05237" lon="7.0737">
        <ele>1687</ele>
        <time>2022-08-27T22:36:49Z</time>
      </trkpt>
      <trkpt lat="46.05237" lon="7.07368">
        <ele>1687</ele>
        <time>2022-08-27T22:36:50Z</time>
      </trkpt>
      <trkpt lat="46.05236" lon="7.07367">
        <ele>1687</ele>
        <time>2022-08-27T22:36:51Z</time>
      </trkpt>
      <trkpt lat="46.05235" lon="7.07365">
        <ele>1687</ele>
        <time>2022-08-27T22:36:53Z</time>
      </trkpt>
      <trkpt lat="46.05234" lon="7.07363">
        <ele>1687</ele>
        <time>2022-08-27T22:36:54Z</time>
      </trkpt>
      <trkpt lat="46.05233" lon="7.07361">
        <ele>1687</ele>
        <time>2022-08-27T22:36:55Z</time>
      </trkpt>
      <trkpt lat="46.05232" lon="7.07359">
        <ele>1687</ele>
        <time>2022-08-27T22:36:56Z</time>
      </trkpt>
      <trkpt lat="46.05231" lon="7.07356">
        <ele>1687</ele>
        <time>2022-08-27T22:36:57Z</time>
      </trkpt>
      <trkpt lat="46.0523" lon="7.07354">
        <ele>1688</ele>
        <time>2022-08-27T22:36:58Z</time>
      </trkpt>
      <trkpt lat="46.05223" lon="7.07345">
        <ele>1688</ele>
        <time>2022-08-27T22:37:03Z</time>
      </trkpt>
      <trkpt lat="46.05222" lon="7.07343">
        <ele>1688</ele>
        <time>2022-08-27T22:37:05Z</time>
      </trkpt>
      <trkpt lat="46.05222" lon="7.07341">
        <ele>1688</ele>
        <time>2022-08-27T22:37:06Z</time>
      </trkpt>
      <trkpt lat="46.05221" lon="7.07339">
        <ele>1688</ele>
        <time>2022-08-27T22:37:07Z</time>
      </trkpt>
      <trkpt lat="46.0522" lon="7.07337">
        <ele>1688</ele>
        <time>2022-08-27T22:37:08Z</time>
      </trkpt>
      <trkpt lat="46.0522" lon="7.07335">
        <ele>1688</ele>
        <time>2022-08-27T22:37:10Z</time>
      </trkpt>
      <trkpt lat="46.05219" lon="7.07333">
        <ele>1688</ele>
        <time>2022-08-27T22:37:11Z</time>
      </trkpt>
      <trkpt lat="46.05219" lon="7.07331">
        <ele>1688</ele>
        <time>2022-08-27T22:37:12Z</time>
      </trkpt>
      <trkpt lat="46.05219" lon="7.07329">
        <ele>1688</ele>
        <time>2022-08-27T22:37:14Z</time>
      </trkpt>
      <trkpt lat="46.05218" lon="7.07327">
        <ele>1688</ele>
        <time>2022-08-27T22:37:16Z</time>
      </trkpt>
      <trkpt lat="46.05218" lon="7.07325">
        <ele>1688</ele>
        <time>2022-08-27T22:37:17Z</time>
      </trkpt>
      <trkpt lat="46.05218" lon="7.07323">
        <ele>1688</ele>
        <time>2022-08-27T22:37:18Z</time>
      </trkpt>
      <trkpt lat="46.05218" lon="7.0732">
        <ele>1689</ele>
        <time>2022-08-27T22:37:19Z</time>
      </trkpt>
      <trkpt lat="46.05218" lon="7.07318">
        <ele>1689</ele>
        <time>2022-08-27T22:37:21Z</time>
      </trkpt>
      <trkpt lat="46.05217" lon="7.07316">
        <ele>1689</ele>
        <time>2022-08-27T22:37:22Z</time>
      </trkpt>
      <trkpt lat="46.05217" lon="7.07314">
        <ele>1689</ele>
        <time>2022-08-27T22:37:23Z</time>
      </trkpt>
      <trkpt lat="46.05217" lon="7.07311">
        <ele>1689</ele>
        <time>2022-08-27T22:37:24Z</time>
      </trkpt>
      <trkpt lat="46.05217" lon="7.07309">
        <ele>1689</ele>
        <time>2022-08-27T22:37:26Z</time>
      </trkpt>
      <trkpt lat="46.05217" lon="7.07307">
        <ele>1689</ele>
        <time>2022-08-27T22:37:27Z</time>
      </trkpt>
      <trkpt lat="46.05217" lon="7.07304">
        <ele>1689</ele>
        <time>2022-08-27T22:37:29Z</time>
      </trkpt>
      <trkpt lat="46.05216" lon="7.07302">
        <ele>1689</ele>
        <time>2022-08-27T22:37:30Z</time>
      </trkpt>
      <trkpt lat="46.05216" lon="7.073">
        <ele>1689</ele>
        <time>2022-08-27T22:37:31Z</time>
      </trkpt>
      <trkpt lat="46.05216" lon="7.07298">
        <ele>1689</ele>
        <time>2022-08-27T22:37:32Z</time>
      </trkpt>
      <trkpt lat="46.05216" lon="7.07296">
        <ele>1689</ele>
        <time>2022-08-27T22:37:33Z</time>
      </trkpt>
      <trkpt lat="46.05215" lon="7.07293">
        <ele>1689</ele>
        <time>2022-08-27T22:37:34Z</time>
      </trkpt>
      <trkpt lat="46.05216" lon="7.07291">
        <ele>1689</ele>
        <time>2022-08-27T22:37:35Z</time>
      </trkpt>
      <trkpt lat="46.05216" lon="7.07289">
        <ele>1689</ele>
        <time>2022-08-27T22:37:36Z</time>
      </trkpt>
      <trkpt lat="46.05216" lon="7.07287">
        <ele>1689</ele>
        <time>2022-08-27T22:37:37Z</time>
      </trkpt>
      <trkpt lat="46.05216" lon="7.07285">
        <ele>1690</ele>
        <time>2022-08-27T22:37:39Z</time>
      </trkpt>
      <trkpt lat="46.05217" lon="7.07283">
        <ele>1690</ele>
        <time>2022-08-27T22:37:40Z</time>
      </trkpt>
      <trkpt lat="46.05217" lon="7.0728">
        <ele>1690</ele>
        <time>2022-08-27T22:37:41Z</time>
      </trkpt>
      <trkpt lat="46.05217" lon="7.07279">
        <ele>1690</ele>
        <time>2022-08-27T22:37:42Z</time>
      </trkpt>
      <trkpt lat="46.05217" lon="7.07277">
        <ele>1690</ele>
        <time>2022-08-27T22:37:43Z</time>
      </trkpt>
      <trkpt lat="46.05217" lon="7.07275">
        <ele>1690</ele>
        <time>2022-08-27T22:37:44Z</time>
      </trkpt>
      <trkpt lat="46.05217" lon="7.07273">
        <ele>1690</ele>
        <time>2022-08-27T22:37:46Z</time>
      </trkpt>
      <trkpt lat="46.05217" lon="7.07271">
        <ele>1691</ele>
        <time>2022-08-27T22:37:48Z</time>
      </trkpt>
      <trkpt lat="46.05217" lon="7.07269">
        <ele>1691</ele>
        <time>2022-08-27T22:37:49Z</time>
      </trkpt>
      <trkpt lat="46.05217" lon="7.07267">
        <ele>1692</ele>
        <time>2022-08-27T22:37:50Z</time>
      </trkpt>
      <trkpt lat="46.05217" lon="7.07265">
        <ele>1692</ele>
        <time>2022-08-27T22:37:51Z</time>
      </trkpt>
      <trkpt lat="46.05217" lon="7.07263">
        <ele>1691</ele>
        <time>2022-08-27T22:37:52Z</time>
      </trkpt>
      <trkpt lat="46.05216" lon="7.07261">
        <ele>1692</ele>
        <time>2022-08-27T22:37:53Z</time>
      </trkpt>
      <trkpt lat="46.05216" lon="7.07259">
        <ele>1692</ele>
        <time>2022-08-27T22:37:55Z</time>
      </trkpt>
      <trkpt lat="46.05216" lon="7.07257">
        <ele>1692</ele>
        <time>2022-08-27T22:37:56Z</time>
      </trkpt>
      <trkpt lat="46.05216" lon="7.07255">
        <ele>1692</ele>
        <time>2022-08-27T22:37:57Z</time>
      </trkpt>
      <trkpt lat="46.05216" lon="7.07253">
        <ele>1692</ele>
        <time>2022-08-27T22:37:58Z</time>
      </trkpt>
      <trkpt lat="46.05215" lon="7.07251">
        <ele>1692</ele>
        <time>2022-08-27T22:38:00Z</time>
      </trkpt>
      <trkpt lat="46.05215" lon="7.0725">
        <ele>1692</ele>
        <time>2022-08-27T22:38:01Z</time>
      </trkpt>
      <trkpt lat="46.05214" lon="7.07248">
        <ele>1692</ele>
        <time>2022-08-27T22:38:02Z</time>
      </trkpt>
      <trkpt lat="46.05214" lon="7.07246">
        <ele>1692</ele>
        <time>2022-08-27T22:38:03Z</time>
      </trkpt>
      <trkpt lat="46.05213" lon="7.07244">
        <ele>1692</ele>
        <time>2022-08-27T22:38:05Z</time>
      </trkpt>
      <trkpt lat="46.05213" lon="7.07242">
        <ele>1692</ele>
        <time>2022-08-27T22:38:06Z</time>
      </trkpt>
      <trkpt lat="46.05212" lon="7.0724">
        <ele>1692</ele>
        <time>2022-08-27T22:38:07Z</time>
      </trkpt>
      <trkpt lat="46.05212" lon="7.07239">
        <ele>1692</ele>
        <time>2022-08-27T22:38:08Z</time>
      </trkpt>
      <trkpt lat="46.05211" lon="7.07238">
        <ele>1692</ele>
        <time>2022-08-27T22:38:09Z</time>
      </trkpt>
      <trkpt lat="46.0521" lon="7.07237">
        <ele>1692</ele>
        <time>2022-08-27T22:38:10Z</time>
      </trkpt>
      <trkpt lat="46.0521" lon="7.07236">
        <ele>1692</ele>
        <time>2022-08-27T22:38:12Z</time>
      </trkpt>
      <trkpt lat="46.05209" lon="7.07235">
        <ele>1692</ele>
        <time>2022-08-27T22:38:13Z</time>
      </trkpt>
      <trkpt lat="46.05205" lon="7.07227">
        <ele>1692</ele>
        <time>2022-08-27T22:38:14Z</time>
      </trkpt>
      <trkpt lat="46.05203" lon="7.07225">
        <ele>1692</ele>
        <time>2022-08-27T22:38:15Z</time>
      </trkpt>
      <trkpt lat="46.05202" lon="7.07223">
        <ele>1692</ele>
        <time>2022-08-27T22:38:17Z</time>
      </trkpt>
      <trkpt lat="46.05201" lon="7.07221">
        <ele>1692</ele>
        <time>2022-08-27T22:38:18Z</time>
      </trkpt>
      <trkpt lat="46.052" lon="7.07219">
        <ele>1692</ele>
        <time>2022-08-27T22:38:19Z</time>
      </trkpt>
      <trkpt lat="46.05199" lon="7.07217">
        <ele>1692</ele>
        <time>2022-08-27T22:38:20Z</time>
      </trkpt>
      <trkpt lat="46.05198" lon="7.07216">
        <ele>1692</ele>
        <time>2022-08-27T22:38:22Z</time>
      </trkpt>
      <trkpt lat="46.05197" lon="7.07214">
        <ele>1693</ele>
        <time>2022-08-27T22:38:24Z</time>
      </trkpt>
      <trkpt lat="46.05196" lon="7.07213">
        <ele>1693</ele>
        <time>2022-08-27T22:38:26Z</time>
      </trkpt>
      <trkpt lat="46.05195" lon="7.07211">
        <ele>1693</ele>
        <time>2022-08-27T22:38:27Z</time>
      </trkpt>
      <trkpt lat="46.05194" lon="7.0721">
        <ele>1693</ele>
        <time>2022-08-27T22:38:28Z</time>
      </trkpt>
      <trkpt lat="46.05194" lon="7.07208">
        <ele>1693</ele>
        <time>2022-08-27T22:38:29Z</time>
      </trkpt>
      <trkpt lat="46.05187" lon="7.07199">
        <ele>1693</ele>
        <time>2022-08-27T22:38:34Z</time>
      </trkpt>
      <trkpt lat="46.05186" lon="7.07197">
        <ele>1693</ele>
        <time>2022-08-27T22:38:35Z</time>
      </trkpt>
      <trkpt lat="46.05185" lon="7.07196">
        <ele>1693</ele>
        <time>2022-08-27T22:38:36Z</time>
      </trkpt>
      <trkpt lat="46.05184" lon="7.07194">
        <ele>1693</ele>
        <time>2022-08-27T22:38:37Z</time>
      </trkpt>
      <trkpt lat="46.05183" lon="7.07192">
        <ele>1693</ele>
        <time>2022-08-27T22:38:39Z</time>
      </trkpt>
      <trkpt lat="46.05182" lon="7.0719">
        <ele>1693</ele>
        <time>2022-08-27T22:38:40Z</time>
      </trkpt>
      <trkpt lat="46.05182" lon="7.07189">
        <ele>1693</ele>
        <time>2022-08-27T22:38:41Z</time>
      </trkpt>
      <trkpt lat="46.05181" lon="7.07188">
        <ele>1693</ele>
        <time>2022-08-27T22:38:42Z</time>
      </trkpt>
      <trkpt lat="46.0518" lon="7.07186">
        <ele>1693</ele>
        <time>2022-08-27T22:38:43Z</time>
      </trkpt>
      <trkpt lat="46.0518" lon="7.07185">
        <ele>1693</ele>
        <time>2022-08-27T22:38:45Z</time>
      </trkpt>
      <trkpt lat="46.05179" lon="7.07184">
        <ele>1693</ele>
        <time>2022-08-27T22:38:46Z</time>
      </trkpt>
      <trkpt lat="46.05178" lon="7.07183">
        <ele>1694</ele>
        <time>2022-08-27T22:38:47Z</time>
      </trkpt>
      <trkpt lat="46.05178" lon="7.07182">
        <ele>1694</ele>
        <time>2022-08-27T22:38:48Z</time>
      </trkpt>
      <trkpt lat="46.05177" lon="7.07181">
        <ele>1694</ele>
        <time>2022-08-27T22:38:49Z</time>
      </trkpt>
      <trkpt lat="46.05177" lon="7.0718">
        <ele>1694</ele>
        <time>2022-08-27T22:38:50Z</time>
      </trkpt>
      <trkpt lat="46.05176" lon="7.07178">
        <ele>1694</ele>
        <time>2022-08-27T22:38:51Z</time>
      </trkpt>
      <trkpt lat="46.05169" lon="7.07169">
        <ele>1694</ele>
        <time>2022-08-27T22:38:56Z</time>
      </trkpt>
      <trkpt lat="46.05168" lon="7.07168">
        <ele>1694</ele>
        <time>2022-08-27T22:38:57Z</time>
      </trkpt>
      <trkpt lat="46.05167" lon="7.07167">
        <ele>1694</ele>
        <time>2022-08-27T22:38:58Z</time>
      </trkpt>
      <trkpt lat="46.05166" lon="7.07166">
        <ele>1695</ele>
        <time>2022-08-27T22:38:59Z</time>
      </trkpt>
      <trkpt lat="46.05165" lon="7.07165">
        <ele>1695</ele>
        <time>2022-08-27T22:39:01Z</time>
      </trkpt>
      <trkpt lat="46.05164" lon="7.07165">
        <ele>1695</ele>
        <time>2022-08-27T22:39:02Z</time>
      </trkpt>
      <trkpt lat="46.05163" lon="7.07164">
        <ele>1695</ele>
        <time>2022-08-27T22:39:04Z</time>
      </trkpt>
      <trkpt lat="46.05162" lon="7.07163">
        <ele>1695</ele>
        <time>2022-08-27T22:39:05Z</time>
      </trkpt>
      <trkpt lat="46.05161" lon="7.07162">
        <ele>1696</ele>
        <time>2022-08-27T22:39:06Z</time>
      </trkpt>
      <trkpt lat="46.0516" lon="7.0716">
        <ele>1696</ele>
        <time>2022-08-27T22:39:08Z</time>
      </trkpt>
      <trkpt lat="46.05159" lon="7.07159">
        <ele>1696</ele>
        <time>2022-08-27T22:39:09Z</time>
      </trkpt>
      <trkpt lat="46.05157" lon="7.07157">
        <ele>1696</ele>
        <time>2022-08-27T22:39:10Z</time>
      </trkpt>
      <trkpt lat="46.05156" lon="7.07156">
        <ele>1696</ele>
        <time>2022-08-27T22:39:11Z</time>
      </trkpt>
      <trkpt lat="46.05155" lon="7.07154">
        <ele>1696</ele>
        <time>2022-08-27T22:39:13Z</time>
      </trkpt>
      <trkpt lat="46.05154" lon="7.07152">
        <ele>1696</ele>
        <time>2022-08-27T22:39:14Z</time>
      </trkpt>
      <trkpt lat="46.05153" lon="7.07151">
        <ele>1696</ele>
        <time>2022-08-27T22:39:15Z</time>
      </trkpt>
      <trkpt lat="46.05151" lon="7.07149">
        <ele>1696</ele>
        <time>2022-08-27T22:39:16Z</time>
      </trkpt>
      <trkpt lat="46.0515" lon="7.07147">
        <ele>1696</ele>
        <time>2022-08-27T22:39:17Z</time>
      </trkpt>
      <trkpt lat="46.05149" lon="7.07145">
        <ele>1697</ele>
        <time>2022-08-27T22:39:19Z</time>
      </trkpt>
      <trkpt lat="46.05147" lon="7.07143">
        <ele>1697</ele>
        <time>2022-08-27T22:39:20Z</time>
      </trkpt>
      <trkpt lat="46.05146" lon="7.07142">
        <ele>1697</ele>
        <time>2022-08-27T22:39:21Z</time>
      </trkpt>
      <trkpt lat="46.05144" lon="7.07141">
        <ele>1697</ele>
        <time>2022-08-27T22:39:23Z</time>
      </trkpt>
      <trkpt lat="46.05143" lon="7.07139">
        <ele>1697</ele>
        <time>2022-08-27T22:39:24Z</time>
      </trkpt>
      <trkpt lat="46.05142" lon="7.07138">
        <ele>1697</ele>
        <time>2022-08-27T22:39:25Z</time>
      </trkpt>
      <trkpt lat="46.0514" lon="7.07137">
        <ele>1698</ele>
        <time>2022-08-27T22:39:27Z</time>
      </trkpt>
      <trkpt lat="46.05139" lon="7.07135">
        <ele>1698</ele>
        <time>2022-08-27T22:39:28Z</time>
      </trkpt>
      <trkpt lat="46.05139" lon="7.07135">
        <ele>1698</ele>
        <time>2022-08-27T22:39:29Z</time>
      </trkpt>
      <trkpt lat="46.05138" lon="7.07135">
        <ele>1698</ele>
        <time>2022-08-27T22:39:30Z</time>
      </trkpt>
      <trkpt lat="46.05138" lon="7.07134">
        <ele>1698</ele>
        <time>2022-08-27T22:39:32Z</time>
      </trkpt>
      <trkpt lat="46.05137" lon="7.07134">
        <ele>1698</ele>
        <time>2022-08-27T22:39:33Z</time>
      </trkpt>
      <trkpt lat="46.05137" lon="7.07133">
        <ele>1698</ele>
        <time>2022-08-27T22:39:34Z</time>
      </trkpt>
      <trkpt lat="46.05136" lon="7.07133">
        <ele>1698</ele>
        <time>2022-08-27T22:39:35Z</time>
      </trkpt>
      <trkpt lat="46.05136" lon="7.07133">
        <ele>1699</ele>
        <time>2022-08-27T22:39:37Z</time>
      </trkpt>
      <trkpt lat="46.05135" lon="7.07132">
        <ele>1699</ele>
        <time>2022-08-27T22:39:38Z</time>
      </trkpt>
      <trkpt lat="46.05134" lon="7.07132">
        <ele>1699</ele>
        <time>2022-08-27T22:39:39Z</time>
      </trkpt>
      <trkpt lat="46.0513" lon="7.07128">
        <ele>1699</ele>
        <time>2022-08-27T22:39:40Z</time>
      </trkpt>
      <trkpt lat="46.05127" lon="7.07127">
        <ele>1699</ele>
        <time>2022-08-27T22:39:43Z</time>
      </trkpt>
      <trkpt lat="46.05126" lon="7.07125">
        <ele>1699</ele>
        <time>2022-08-27T22:39:45Z</time>
      </trkpt>
      <trkpt lat="46.05125" lon="7.07123">
        <ele>1700</ele>
        <time>2022-08-27T22:39:46Z</time>
      </trkpt>
      <trkpt lat="46.05124" lon="7.07121">
        <ele>1700</ele>
        <time>2022-08-27T22:39:47Z</time>
      </trkpt>
      <trkpt lat="46.05123" lon="7.07119">
        <ele>1700</ele>
        <time>2022-08-27T22:39:49Z</time>
      </trkpt>
      <trkpt lat="46.05121" lon="7.07118">
        <ele>1700</ele>
        <time>2022-08-27T22:39:50Z</time>
      </trkpt>
      <trkpt lat="46.0512" lon="7.07116">
        <ele>1700</ele>
        <time>2022-08-27T22:39:51Z</time>
      </trkpt>
      <trkpt lat="46.05119" lon="7.07115">
        <ele>1700</ele>
        <time>2022-08-27T22:39:52Z</time>
      </trkpt>
      <trkpt lat="46.05119" lon="7.07114">
        <ele>1700</ele>
        <time>2022-08-27T22:39:54Z</time>
      </trkpt>
      <trkpt lat="46.05118" lon="7.07113">
        <ele>1701</ele>
        <time>2022-08-27T22:39:56Z</time>
      </trkpt>
      <trkpt lat="46.05117" lon="7.07112">
        <ele>1701</ele>
        <time>2022-08-27T22:39:57Z</time>
      </trkpt>
      <trkpt lat="46.05116" lon="7.07111">
        <ele>1701</ele>
        <time>2022-08-27T22:39:58Z</time>
      </trkpt>
      <trkpt lat="46.05115" lon="7.0711">
        <ele>1701</ele>
        <time>2022-08-27T22:39:59Z</time>
      </trkpt>
      <trkpt lat="46.05114" lon="7.07108">
        <ele>1701</ele>
        <time>2022-08-27T22:40:00Z</time>
      </trkpt>
      <trkpt lat="46.05113" lon="7.07107">
        <ele>1701</ele>
        <time>2022-08-27T22:40:01Z</time>
      </trkpt>
      <trkpt lat="46.05113" lon="7.07107">
        <ele>1701</ele>
        <time>2022-08-27T22:40:02Z</time>
      </trkpt>
      <trkpt lat="46.05112" lon="7.07106">
        <ele>1702</ele>
        <time>2022-08-27T22:40:04Z</time>
      </trkpt>
      <trkpt lat="46.05112" lon="7.07106">
        <ele>1702</ele>
        <time>2022-08-27T22:40:06Z</time>
      </trkpt>
      <trkpt lat="46.05111" lon="7.07105">
        <ele>1702</ele>
        <time>2022-08-27T22:40:07Z</time>
      </trkpt>
      <trkpt lat="46.05111" lon="7.07105">
        <ele>1702</ele>
        <time>2022-08-27T22:40:08Z</time>
      </trkpt>
      <trkpt lat="46.0511" lon="7.07104">
        <ele>1702</ele>
        <time>2022-08-27T22:40:09Z</time>
      </trkpt>
      <trkpt lat="46.05103" lon="7.07096">
        <ele>1702</ele>
        <time>2022-08-27T22:40:11Z</time>
      </trkpt>
      <trkpt lat="46.05102" lon="7.07095">
        <ele>1702</ele>
        <time>2022-08-27T22:40:12Z</time>
      </trkpt>
      <trkpt lat="46.05101" lon="7.07094">
        <ele>1702</ele>
        <time>2022-08-27T22:40:13Z</time>
      </trkpt>
      <trkpt lat="46.051" lon="7.07092">
        <ele>1703</ele>
        <time>2022-08-27T22:40:14Z</time>
      </trkpt>
      <trkpt lat="46.05098" lon="7.07091">
        <ele>1703</ele>
        <time>2022-08-27T22:40:16Z</time>
      </trkpt>
      <trkpt lat="46.05097" lon="7.07089">
        <ele>1703</ele>
        <time>2022-08-27T22:40:17Z</time>
      </trkpt>
      <trkpt lat="46.05095" lon="7.07088">
        <ele>1703</ele>
        <time>2022-08-27T22:40:18Z</time>
      </trkpt>
      <trkpt lat="46.05094" lon="7.07087">
        <ele>1703</ele>
        <time>2022-08-27T22:40:20Z</time>
      </trkpt>
      <trkpt lat="46.05093" lon="7.07085">
        <ele>1703</ele>
        <time>2022-08-27T22:40:21Z</time>
      </trkpt>
      <trkpt lat="46.05091" lon="7.07084">
        <ele>1703</ele>
        <time>2022-08-27T22:40:22Z</time>
      </trkpt>
      <trkpt lat="46.0509" lon="7.07083">
        <ele>1704</ele>
        <time>2022-08-27T22:40:24Z</time>
      </trkpt>
      <trkpt lat="46.05088" lon="7.07082">
        <ele>1704</ele>
        <time>2022-08-27T22:40:25Z</time>
      </trkpt>
      <trkpt lat="46.05088" lon="7.07081">
        <ele>1704</ele>
        <time>2022-08-27T22:40:26Z</time>
      </trkpt>
      <trkpt lat="46.05087" lon="7.07079">
        <ele>1704</ele>
        <time>2022-08-27T22:40:27Z</time>
      </trkpt>
      <trkpt lat="46.05086" lon="7.07078">
        <ele>1704</ele>
        <time>2022-08-27T22:40:29Z</time>
      </trkpt>
      <trkpt lat="46.05085" lon="7.07077">
        <ele>1704</ele>
        <time>2022-08-27T22:40:30Z</time>
      </trkpt>
      <trkpt lat="46.05084" lon="7.07076">
        <ele>1704</ele>
        <time>2022-08-27T22:40:31Z</time>
      </trkpt>
      <trkpt lat="46.05083" lon="7.07075">
        <ele>1704</ele>
        <time>2022-08-27T22:40:32Z</time>
      </trkpt>
      <trkpt lat="46.05082" lon="7.07073">
        <ele>1704</ele>
        <time>2022-08-27T22:40:33Z</time>
      </trkpt>
      <trkpt lat="46.05081" lon="7.07072">
        <ele>1705</ele>
        <time>2022-08-27T22:40:34Z</time>
      </trkpt>
      <trkpt lat="46.0508" lon="7.07071">
        <ele>1705</ele>
        <time>2022-08-27T22:40:35Z</time>
      </trkpt>
      <trkpt lat="46.05079" lon="7.07069">
        <ele>1705</ele>
        <time>2022-08-27T22:40:36Z</time>
      </trkpt>
      <trkpt lat="46.05078" lon="7.07067">
        <ele>1705</ele>
        <time>2022-08-27T22:40:37Z</time>
      </trkpt>
      <trkpt lat="46.05077" lon="7.07066">
        <ele>1705</ele>
        <time>2022-08-27T22:40:39Z</time>
      </trkpt>
      <trkpt lat="46.05076" lon="7.07064">
        <ele>1705</ele>
        <time>2022-08-27T22:40:41Z</time>
      </trkpt>
      <trkpt lat="46.05075" lon="7.07062">
        <ele>1706</ele>
        <time>2022-08-27T22:40:42Z</time>
      </trkpt>
      <trkpt lat="46.05074" lon="7.07062">
        <ele>1706</ele>
        <time>2022-08-27T22:40:43Z</time>
      </trkpt>
      <trkpt lat="46.05073" lon="7.07061">
        <ele>1706</ele>
        <time>2022-08-27T22:40:44Z</time>
      </trkpt>
      <trkpt lat="46.05072" lon="7.0706">
        <ele>1706</ele>
        <time>2022-08-27T22:40:45Z</time>
      </trkpt>
      <trkpt lat="46.05071" lon="7.07059">
        <ele>1707</ele>
        <time>2022-08-27T22:40:47Z</time>
      </trkpt>
      <trkpt lat="46.05071" lon="7.07058">
        <ele>1707</ele>
        <time>2022-08-27T22:40:48Z</time>
      </trkpt>
      <trkpt lat="46.0507" lon="7.07057">
        <ele>1707</ele>
        <time>2022-08-27T22:40:49Z</time>
      </trkpt>
      <trkpt lat="46.05069" lon="7.07056">
        <ele>1707</ele>
        <time>2022-08-27T22:40:50Z</time>
      </trkpt>
      <trkpt lat="46.05068" lon="7.07056">
        <ele>1707</ele>
        <time>2022-08-27T22:40:52Z</time>
      </trkpt>
      <trkpt lat="46.05067" lon="7.07055">
        <ele>1707</ele>
        <time>2022-08-27T22:40:53Z</time>
      </trkpt>
      <trkpt lat="46.05066" lon="7.07054">
        <ele>1707</ele>
        <time>2022-08-27T22:40:54Z</time>
      </trkpt>
      <trkpt lat="46.05065" lon="7.07053">
        <ele>1708</ele>
        <time>2022-08-27T22:40:55Z</time>
      </trkpt>
      <trkpt lat="46.05064" lon="7.07052">
        <ele>1708</ele>
        <time>2022-08-27T22:40:57Z</time>
      </trkpt>
      <trkpt lat="46.05063" lon="7.0705">
        <ele>1708</ele>
        <time>2022-08-27T22:40:58Z</time>
      </trkpt>
      <trkpt lat="46.05062" lon="7.07049">
        <ele>1708</ele>
        <time>2022-08-27T22:40:59Z</time>
      </trkpt>
      <trkpt lat="46.05062" lon="7.07048">
        <ele>1708</ele>
        <time>2022-08-27T22:41:00Z</time>
      </trkpt>
      <trkpt lat="46.05061" lon="7.07047">
        <ele>1708</ele>
        <time>2022-08-27T22:41:02Z</time>
      </trkpt>
      <trkpt lat="46.0506" lon="7.07046">
        <ele>1708</ele>
        <time>2022-08-27T22:41:03Z</time>
      </trkpt>
      <trkpt lat="46.05053" lon="7.07036">
        <ele>1710</ele>
        <time>2022-08-27T22:41:13Z</time>
      </trkpt>
      <trkpt lat="46.05052" lon="7.07035">
        <ele>1710</ele>
        <time>2022-08-27T22:41:15Z</time>
      </trkpt>
      <trkpt lat="46.05051" lon="7.07033">
        <ele>1710</ele>
        <time>2022-08-27T22:41:17Z</time>
      </trkpt>
      <trkpt lat="46.0505" lon="7.07032">
        <ele>1710</ele>
        <time>2022-08-27T22:41:18Z</time>
      </trkpt>
      <trkpt lat="46.05049" lon="7.0703">
        <ele>1710</ele>
        <time>2022-08-27T22:41:19Z</time>
      </trkpt>
      <trkpt lat="46.05049" lon="7.07029">
        <ele>1710</ele>
        <time>2022-08-27T22:41:20Z</time>
      </trkpt>
      <trkpt lat="46.05048" lon="7.07027">
        <ele>1710</ele>
        <time>2022-08-27T22:41:21Z</time>
      </trkpt>
      <trkpt lat="46.05047" lon="7.07026">
        <ele>1710</ele>
        <time>2022-08-27T22:41:22Z</time>
      </trkpt>
      <trkpt lat="46.05046" lon="7.07024">
        <ele>1710</ele>
        <time>2022-08-27T22:41:23Z</time>
      </trkpt>
      <trkpt lat="46.05044" lon="7.07023">
        <ele>1711</ele>
        <time>2022-08-27T22:41:24Z</time>
      </trkpt>
      <trkpt lat="46.05043" lon="7.07022">
        <ele>1711</ele>
        <time>2022-08-27T22:41:25Z</time>
      </trkpt>
      <trkpt lat="46.05042" lon="7.0702">
        <ele>1711</ele>
        <time>2022-08-27T22:41:27Z</time>
      </trkpt>
      <trkpt lat="46.05041" lon="7.07019">
        <ele>1711</ele>
        <time>2022-08-27T22:41:28Z</time>
      </trkpt>
      <trkpt lat="46.0504" lon="7.07017">
        <ele>1711</ele>
        <time>2022-08-27T22:41:29Z</time>
      </trkpt>
      <trkpt lat="46.05038" lon="7.07016">
        <ele>1711</ele>
        <time>2022-08-27T22:41:30Z</time>
      </trkpt>
      <trkpt lat="46.05037" lon="7.07015">
        <ele>1712</ele>
        <time>2022-08-27T22:41:32Z</time>
      </trkpt>
      <trkpt lat="46.05035" lon="7.07014">
        <ele>1712</ele>
        <time>2022-08-27T22:41:33Z</time>
      </trkpt>
      <trkpt lat="46.05033" lon="7.07014">
        <ele>1712</ele>
        <time>2022-08-27T22:41:34Z</time>
      </trkpt>
      <trkpt lat="46.05031" lon="7.07013">
        <ele>1712</ele>
        <time>2022-08-27T22:41:35Z</time>
      </trkpt>
      <trkpt lat="46.0503" lon="7.07011">
        <ele>1712</ele>
        <time>2022-08-27T22:41:36Z</time>
      </trkpt>
      <trkpt lat="46.05029" lon="7.0701">
        <ele>1712</ele>
        <time>2022-08-27T22:41:37Z</time>
      </trkpt>
      <trkpt lat="46.05028" lon="7.07009">
        <ele>1712</ele>
        <time>2022-08-27T22:41:38Z</time>
      </trkpt>
      <trkpt lat="46.05027" lon="7.07008">
        <ele>1712</ele>
        <time>2022-08-27T22:41:40Z</time>
      </trkpt>
      <trkpt lat="46.05026" lon="7.07006">
        <ele>1712</ele>
        <time>2022-08-27T22:41:41Z</time>
      </trkpt>
      <trkpt lat="46.05025" lon="7.07005">
        <ele>1713</ele>
        <time>2022-08-27T22:41:42Z</time>
      </trkpt>
      <trkpt lat="46.05024" lon="7.07004">
        <ele>1713</ele>
        <time>2022-08-27T22:41:43Z</time>
      </trkpt>
      <trkpt lat="46.05023" lon="7.07003">
        <ele>1713</ele>
        <time>2022-08-27T22:41:45Z</time>
      </trkpt>
      <trkpt lat="46.05021" lon="7.07001">
        <ele>1713</ele>
        <time>2022-08-27T22:41:46Z</time>
      </trkpt>
      <trkpt lat="46.0502" lon="7.07">
        <ele>1713</ele>
        <time>2022-08-27T22:41:47Z</time>
      </trkpt>
      <trkpt lat="46.05019" lon="7.06999">
        <ele>1714</ele>
        <time>2022-08-27T22:41:48Z</time>
      </trkpt>
      <trkpt lat="46.05017" lon="7.06998">
        <ele>1714</ele>
        <time>2022-08-27T22:41:50Z</time>
      </trkpt>
      <trkpt lat="46.05016" lon="7.06997">
        <ele>1714</ele>
        <time>2022-08-27T22:41:51Z</time>
      </trkpt>
      <trkpt lat="46.05015" lon="7.06996">
        <ele>1714</ele>
        <time>2022-08-27T22:41:52Z</time>
      </trkpt>
      <trkpt lat="46.05014" lon="7.06996">
        <ele>1714</ele>
        <time>2022-08-27T22:41:53Z</time>
      </trkpt>
      <trkpt lat="46.05013" lon="7.06995">
        <ele>1714</ele>
        <time>2022-08-27T22:41:55Z</time>
      </trkpt>
      <trkpt lat="46.05012" lon="7.06994">
        <ele>1715</ele>
        <time>2022-08-27T22:41:57Z</time>
      </trkpt>
      <trkpt lat="46.05011" lon="7.06994">
        <ele>1715</ele>
        <time>2022-08-27T22:41:58Z</time>
      </trkpt>
      <trkpt lat="46.0501" lon="7.06993">
        <ele>1715</ele>
        <time>2022-08-27T22:41:59Z</time>
      </trkpt>
      <trkpt lat="46.05009" lon="7.06993">
        <ele>1715</ele>
        <time>2022-08-27T22:42:00Z</time>
      </trkpt>
      <trkpt lat="46.05008" lon="7.06992">
        <ele>1715</ele>
        <time>2022-08-27T22:42:01Z</time>
      </trkpt>
      <trkpt lat="46.05007" lon="7.06991">
        <ele>1715</ele>
        <time>2022-08-27T22:42:02Z</time>
      </trkpt>
      <trkpt lat="46.05007" lon="7.0699">
        <ele>1715</ele>
        <time>2022-08-27T22:42:03Z</time>
      </trkpt>
      <trkpt lat="46.05006" lon="7.0699">
        <ele>1715</ele>
        <time>2022-08-27T22:42:04Z</time>
      </trkpt>
      <trkpt lat="46.05005" lon="7.06989">
        <ele>1715</ele>
        <time>2022-08-27T22:42:05Z</time>
      </trkpt>
      <trkpt lat="46.05004" lon="7.06988">
        <ele>1716</ele>
        <time>2022-08-27T22:42:07Z</time>
      </trkpt>
      <trkpt lat="46.05003" lon="7.06987">
        <ele>1716</ele>
        <time>2022-08-27T22:42:08Z</time>
      </trkpt>
      <trkpt lat="46.05002" lon="7.06986">
        <ele>1716</ele>
        <time>2022-08-27T22:42:09Z</time>
      </trkpt>
      <trkpt lat="46.05001" lon="7.06985">
        <ele>1716</ele>
        <time>2022-08-27T22:42:10Z</time>
      </trkpt>
      <trkpt lat="46.05" lon="7.06984">
        <ele>1716</ele>
        <time>2022-08-27T22:42:11Z</time>
      </trkpt>
      <trkpt lat="46.04992" lon="7.06976">
        <ele>1716</ele>
        <time>2022-08-27T22:42:18Z</time>
      </trkpt>
      <trkpt lat="46.04991" lon="7.06975">
        <ele>1716</ele>
        <time>2022-08-27T22:42:19Z</time>
      </trkpt>
      <trkpt lat="46.0499" lon="7.06974">
        <ele>1716</ele>
        <time>2022-08-27T22:42:20Z</time>
      </trkpt>
      <trkpt lat="46.04989" lon="7.06973">
        <ele>1716</ele>
        <time>2022-08-27T22:42:21Z</time>
      </trkpt>
      <trkpt lat="46.04988" lon="7.06972">
        <ele>1717</ele>
        <time>2022-08-27T22:42:23Z</time>
      </trkpt>
      <trkpt lat="46.04987" lon="7.06972">
        <ele>1717</ele>
        <time>2022-08-27T22:42:24Z</time>
      </trkpt>
      <trkpt lat="46.04986" lon="7.06971">
        <ele>1717</ele>
        <time>2022-08-27T22:42:25Z</time>
      </trkpt>
      <trkpt lat="46.04986" lon="7.0697">
        <ele>1717</ele>
        <time>2022-08-27T22:42:26Z</time>
      </trkpt>
      <trkpt lat="46.04985" lon="7.06969">
        <ele>1717</ele>
        <time>2022-08-27T22:42:27Z</time>
      </trkpt>
      <trkpt lat="46.04984" lon="7.06969">
        <ele>1717</ele>
        <time>2022-08-27T22:42:28Z</time>
      </trkpt>
      <trkpt lat="46.04976" lon="7.06961">
        <ele>1718</ele>
        <time>2022-08-27T22:42:35Z</time>
      </trkpt>
      <trkpt lat="46.04975" lon="7.0696">
        <ele>1718</ele>
        <time>2022-08-27T22:42:36Z</time>
      </trkpt>
      <trkpt lat="46.04974" lon="7.06959">
        <ele>1718</ele>
        <time>2022-08-27T22:42:37Z</time>
      </trkpt>
      <trkpt lat="46.04973" lon="7.06957">
        <ele>1718</ele>
        <time>2022-08-27T22:42:38Z</time>
      </trkpt>
      <trkpt lat="46.04972" lon="7.06956">
        <ele>1718</ele>
        <time>2022-08-27T22:42:40Z</time>
      </trkpt>
      <trkpt lat="46.04971" lon="7.06955">
        <ele>1718</ele>
        <time>2022-08-27T22:42:41Z</time>
      </trkpt>
      <trkpt lat="46.04969" lon="7.06954">
        <ele>1718</ele>
        <time>2022-08-27T22:42:42Z</time>
      </trkpt>
      <trkpt lat="46.04968" lon="7.06952">
        <ele>1719</ele>
        <time>2022-08-27T22:42:43Z</time>
      </trkpt>
      <trkpt lat="46.04967" lon="7.06951">
        <ele>1719</ele>
        <time>2022-08-27T22:42:45Z</time>
      </trkpt>
      <trkpt lat="46.04966" lon="7.06949">
        <ele>1719</ele>
        <time>2022-08-27T22:42:47Z</time>
      </trkpt>
      <trkpt lat="46.04965" lon="7.06947">
        <ele>1719</ele>
        <time>2022-08-27T22:42:48Z</time>
      </trkpt>
      <trkpt lat="46.04964" lon="7.06946">
        <ele>1719</ele>
        <time>2022-08-27T22:42:50Z</time>
      </trkpt>
      <trkpt lat="46.04963" lon="7.06944">
        <ele>1719</ele>
        <time>2022-08-27T22:42:51Z</time>
      </trkpt>
      <trkpt lat="46.04962" lon="7.06942">
        <ele>1719</ele>
        <time>2022-08-27T22:42:52Z</time>
      </trkpt>
      <trkpt lat="46.0496" lon="7.0694">
        <ele>1719</ele>
        <time>2022-08-27T22:42:53Z</time>
      </trkpt>
      <trkpt lat="46.04959" lon="7.06937">
        <ele>1720</ele>
        <time>2022-08-27T22:42:55Z</time>
      </trkpt>
      <trkpt lat="46.04958" lon="7.06934">
        <ele>1721</ele>
        <time>2022-08-27T22:42:57Z</time>
      </trkpt>
      <trkpt lat="46.04957" lon="7.06931">
        <ele>1721</ele>
        <time>2022-08-27T22:42:58Z</time>
      </trkpt>
      <trkpt lat="46.04956" lon="7.06931">
        <ele>1721</ele>
        <time>2022-08-27T22:42:59Z</time>
      </trkpt>
      <trkpt lat="46.04955" lon="7.0693">
        <ele>1721</ele>
        <time>2022-08-27T22:43:00Z</time>
      </trkpt>
      <trkpt lat="46.04954" lon="7.06929">
        <ele>1722</ele>
        <time>2022-08-27T22:43:02Z</time>
      </trkpt>
      <trkpt lat="46.04953" lon="7.06928">
        <ele>1722</ele>
        <time>2022-08-27T22:43:03Z</time>
      </trkpt>
      <trkpt lat="46.04952" lon="7.06927">
        <ele>1722</ele>
        <time>2022-08-27T22:43:04Z</time>
      </trkpt>
      <trkpt lat="46.04951" lon="7.06926">
        <ele>1722</ele>
        <time>2022-08-27T22:43:05Z</time>
      </trkpt>
      <trkpt lat="46.0495" lon="7.06925">
        <ele>1722</ele>
        <time>2022-08-27T22:43:07Z</time>
      </trkpt>
      <trkpt lat="46.04949" lon="7.06924">
        <ele>1722</ele>
        <time>2022-08-27T22:43:08Z</time>
      </trkpt>
      <trkpt lat="46.04948" lon="7.06923">
        <ele>1722</ele>
        <time>2022-08-27T22:43:09Z</time>
      </trkpt>
      <trkpt lat="46.04947" lon="7.06922">
        <ele>1722</ele>
        <time>2022-08-27T22:43:11Z</time>
      </trkpt>
      <trkpt lat="46.04946" lon="7.06921">
        <ele>1723</ele>
        <time>2022-08-27T22:43:13Z</time>
      </trkpt>
      <trkpt lat="46.04945" lon="7.0692">
        <ele>1724</ele>
        <time>2022-08-27T22:43:15Z</time>
      </trkpt>
      <trkpt lat="46.04944" lon="7.06919">
        <ele>1724</ele>
        <time>2022-08-27T22:43:16Z</time>
      </trkpt>
      <trkpt lat="46.04943" lon="7.06917">
        <ele>1724</ele>
        <time>2022-08-27T22:43:17Z</time>
      </trkpt>
      <trkpt lat="46.04943" lon="7.06916">
        <ele>1724</ele>
        <time>2022-08-27T22:43:18Z</time>
      </trkpt>
      <trkpt lat="46.04942" lon="7.06915">
        <ele>1724</ele>
        <time>2022-08-27T22:43:19Z</time>
      </trkpt>
      <trkpt lat="46.04941" lon="7.06913">
        <ele>1723</ele>
        <time>2022-08-27T22:43:20Z</time>
      </trkpt>
      <trkpt lat="46.0494" lon="7.06912">
        <ele>1723</ele>
        <time>2022-08-27T22:43:21Z</time>
      </trkpt>
      <trkpt lat="46.04939" lon="7.0691">
        <ele>1723</ele>
        <time>2022-08-27T22:43:22Z</time>
      </trkpt>
      <trkpt lat="46.04938" lon="7.06908">
        <ele>1723</ele>
        <time>2022-08-27T22:43:24Z</time>
      </trkpt>
      <trkpt lat="46.04937" lon="7.06907">
        <ele>1723</ele>
        <time>2022-08-27T22:43:25Z</time>
      </trkpt>
      <trkpt lat="46.04936" lon="7.06905">
        <ele>1723</ele>
        <time>2022-08-27T22:43:26Z</time>
      </trkpt>
      <trkpt lat="46.04935" lon="7.06904">
        <ele>1723</ele>
        <time>2022-08-27T22:43:27Z</time>
      </trkpt>
      <trkpt lat="46.04928" lon="7.06894">
        <ele>1725</ele>
        <time>2022-08-27T22:43:35Z</time>
      </trkpt>
      <trkpt lat="46.04927" lon="7.06893">
        <ele>1725</ele>
        <time>2022-08-27T22:43:36Z</time>
      </trkpt>
      <trkpt lat="46.04926" lon="7.06893">
        <ele>1725</ele>
        <time>2022-08-27T22:43:37Z</time>
      </trkpt>
      <trkpt lat="46.04925" lon="7.06892">
        <ele>1725</ele>
        <time>2022-08-27T22:43:38Z</time>
      </trkpt>
      <trkpt lat="46.04924" lon="7.06891">
        <ele>1725</ele>
        <time>2022-08-27T22:43:40Z</time>
      </trkpt>
      <trkpt lat="46.04924" lon="7.0689">
        <ele>1726</ele>
        <time>2022-08-27T22:43:42Z</time>
      </trkpt>
      <trkpt lat="46.04923" lon="7.06889">
        <ele>1726</ele>
        <time>2022-08-27T22:43:43Z</time>
      </trkpt>
      <trkpt lat="46.04922" lon="7.06888">
        <ele>1726</ele>
        <time>2022-08-27T22:43:44Z</time>
      </trkpt>
      <trkpt lat="46.04921" lon="7.06887">
        <ele>1726</ele>
        <time>2022-08-27T22:43:45Z</time>
      </trkpt>
      <trkpt lat="46.0492" lon="7.06886">
        <ele>1726</ele>
        <time>2022-08-27T22:43:46Z</time>
      </trkpt>
      <trkpt lat="46.04913" lon="7.06878">
        <ele>1727</ele>
        <time>2022-08-27T22:43:53Z</time>
      </trkpt>
      <trkpt lat="46.04912" lon="7.06877">
        <ele>1727</ele>
        <time>2022-08-27T22:43:54Z</time>
      </trkpt>
      <trkpt lat="46.04912" lon="7.06876">
        <ele>1727</ele>
        <time>2022-08-27T22:43:55Z</time>
      </trkpt>
      <trkpt lat="46.04911" lon="7.06874">
        <ele>1727</ele>
        <time>2022-08-27T22:43:56Z</time>
      </trkpt>
      <trkpt lat="46.0491" lon="7.06873">
        <ele>1728</ele>
        <time>2022-08-27T22:43:58Z</time>
      </trkpt>
      <trkpt lat="46.0491" lon="7.06872">
        <ele>1728</ele>
        <time>2022-08-27T22:43:59Z</time>
      </trkpt>
      <trkpt lat="46.04909" lon="7.06871">
        <ele>1728</ele>
        <time>2022-08-27T22:44:00Z</time>
      </trkpt>
      <trkpt lat="46.04908" lon="7.0687">
        <ele>1728</ele>
        <time>2022-08-27T22:44:01Z</time>
      </trkpt>
      <trkpt lat="46.04908" lon="7.06869">
        <ele>1728</ele>
        <time>2022-08-27T22:44:02Z</time>
      </trkpt>
      <trkpt lat="46.04907" lon="7.06868">
        <ele>1728</ele>
        <time>2022-08-27T22:44:03Z</time>
      </trkpt>
      <trkpt lat="46.04906" lon="7.06867">
        <ele>1728</ele>
        <time>2022-08-27T22:44:04Z</time>
      </trkpt>
      <trkpt lat="46.04905" lon="7.06865">
        <ele>1728</ele>
        <time>2022-08-27T22:44:05Z</time>
      </trkpt>
      <trkpt lat="46.04904" lon="7.06864">
        <ele>1728</ele>
        <time>2022-08-27T22:44:06Z</time>
      </trkpt>
      <trkpt lat="46.04903" lon="7.06862">
        <ele>1728</ele>
        <time>2022-08-27T22:44:08Z</time>
      </trkpt>
      <trkpt lat="46.04901" lon="7.06861">
        <ele>1728</ele>
        <time>2022-08-27T22:44:09Z</time>
      </trkpt>
      <trkpt lat="46.049" lon="7.0686">
        <ele>1728</ele>
        <time>2022-08-27T22:44:10Z</time>
      </trkpt>
      <trkpt lat="46.04899" lon="7.06858">
        <ele>1728</ele>
        <time>2022-08-27T22:44:11Z</time>
      </trkpt>
      <trkpt lat="46.04893" lon="7.06848">
        <ele>1728</ele>
        <time>2022-08-27T22:44:18Z</time>
      </trkpt>
      <trkpt lat="46.04892" lon="7.06848">
        <ele>1728</ele>
        <time>2022-08-27T22:44:19Z</time>
      </trkpt>
      <trkpt lat="46.0489" lon="7.06847">
        <ele>1729</ele>
        <time>2022-08-27T22:44:20Z</time>
      </trkpt>
      <trkpt lat="46.04889" lon="7.06847">
        <ele>1729</ele>
        <time>2022-08-27T22:44:21Z</time>
      </trkpt>
      <trkpt lat="46.04888" lon="7.06846">
        <ele>1729</ele>
        <time>2022-08-27T22:44:23Z</time>
      </trkpt>
      <trkpt lat="46.04887" lon="7.06845">
        <ele>1730</ele>
        <time>2022-08-27T22:44:24Z</time>
      </trkpt>
      <trkpt lat="46.04885" lon="7.06845">
        <ele>1730</ele>
        <time>2022-08-27T22:44:25Z</time>
      </trkpt>
      <trkpt lat="46.04884" lon="7.06844">
        <ele>1730</ele>
        <time>2022-08-27T22:44:26Z</time>
      </trkpt>
      <trkpt lat="46.04883" lon="7.06843">
        <ele>1730</ele>
        <time>2022-08-27T22:44:27Z</time>
      </trkpt>
      <trkpt lat="46.04882" lon="7.06842">
        <ele>1730</ele>
        <time>2022-08-27T22:44:29Z</time>
      </trkpt>
      <trkpt lat="46.04882" lon="7.06841">
        <ele>1730</ele>
        <time>2022-08-27T22:44:31Z</time>
      </trkpt>
      <trkpt lat="46.04881" lon="7.0684">
        <ele>1730</ele>
        <time>2022-08-27T22:44:32Z</time>
      </trkpt>
      <trkpt lat="46.0488" lon="7.06838">
        <ele>1730</ele>
        <time>2022-08-27T22:44:33Z</time>
      </trkpt>
      <trkpt lat="46.04879" lon="7.06837">
        <ele>1731</ele>
        <time>2022-08-27T22:44:34Z</time>
      </trkpt>
      <trkpt lat="46.04878" lon="7.06836">
        <ele>1731</ele>
        <time>2022-08-27T22:44:35Z</time>
      </trkpt>
      <trkpt lat="46.04877" lon="7.06835">
        <ele>1731</ele>
        <time>2022-08-27T22:44:36Z</time>
      </trkpt>
      <trkpt lat="46.04876" lon="7.06833">
        <ele>1731</ele>
        <time>2022-08-27T22:44:37Z</time>
      </trkpt>
      <trkpt lat="46.04874" lon="7.06832">
        <ele>1731</ele>
        <time>2022-08-27T22:44:38Z</time>
      </trkpt>
      <trkpt lat="46.04872" lon="7.0683">
        <ele>1731</ele>
        <time>2022-08-27T22:44:39Z</time>
      </trkpt>
      <trkpt lat="46.04871" lon="7.06829">
        <ele>1731</ele>
        <time>2022-08-27T22:44:41Z</time>
      </trkpt>
      <trkpt lat="46.04869" lon="7.06828">
        <ele>1731</ele>
        <time>2022-08-27T22:44:42Z</time>
      </trkpt>
      <trkpt lat="46.04868" lon="7.06826">
        <ele>1731</ele>
        <time>2022-08-27T22:44:43Z</time>
      </trkpt>
      <trkpt lat="46.04868" lon="7.06825">
        <ele>1731</ele>
        <time>2022-08-27T22:44:44Z</time>
      </trkpt>
      <trkpt lat="46.04867" lon="7.06824">
        <ele>1731</ele>
        <time>2022-08-27T22:44:46Z</time>
      </trkpt>
      <trkpt lat="46.04866" lon="7.06823">
        <ele>1732</ele>
        <time>2022-08-27T22:44:48Z</time>
      </trkpt>
      <trkpt lat="46.04866" lon="7.06822">
        <ele>1732</ele>
        <time>2022-08-27T22:44:49Z</time>
      </trkpt>
      <trkpt lat="46.04865" lon="7.06821">
        <ele>1732</ele>
        <time>2022-08-27T22:44:50Z</time>
      </trkpt>
      <trkpt lat="46.04864" lon="7.0682">
        <ele>1732</ele>
        <time>2022-08-27T22:44:51Z</time>
      </trkpt>
      <trkpt lat="46.04864" lon="7.06819">
        <ele>1732</ele>
        <time>2022-08-27T22:44:53Z</time>
      </trkpt>
      <trkpt lat="46.04863" lon="7.06818">
        <ele>1732</ele>
        <time>2022-08-27T22:44:54Z</time>
      </trkpt>
      <trkpt lat="46.04862" lon="7.06817">
        <ele>1732</ele>
        <time>2022-08-27T22:44:55Z</time>
      </trkpt>
      <trkpt lat="46.04861" lon="7.06816">
        <ele>1732</ele>
        <time>2022-08-27T22:44:56Z</time>
      </trkpt>
      <trkpt lat="46.0486" lon="7.06815">
        <ele>1732</ele>
        <time>2022-08-27T22:44:58Z</time>
      </trkpt>
      <trkpt lat="46.04859" lon="7.06814">
        <ele>1733</ele>
        <time>2022-08-27T22:44:59Z</time>
      </trkpt>
      <trkpt lat="46.04858" lon="7.06813">
        <ele>1733</ele>
        <time>2022-08-27T22:45:00Z</time>
      </trkpt>
      <trkpt lat="46.04857" lon="7.06812">
        <ele>1733</ele>
        <time>2022-08-27T22:45:01Z</time>
      </trkpt>
      <trkpt lat="46.04856" lon="7.06811">
        <ele>1734</ele>
        <time>2022-08-27T22:45:03Z</time>
      </trkpt>
      <trkpt lat="46.04855" lon="7.0681">
        <ele>1734</ele>
        <time>2022-08-27T22:45:04Z</time>
      </trkpt>
      <trkpt lat="46.04854" lon="7.06809">
        <ele>1734</ele>
        <time>2022-08-27T22:45:05Z</time>
      </trkpt>
      <trkpt lat="46.04853" lon="7.06807">
        <ele>1734</ele>
        <time>2022-08-27T22:45:07Z</time>
      </trkpt>
      <trkpt lat="46.04852" lon="7.06806">
        <ele>1735</ele>
        <time>2022-08-27T22:45:09Z</time>
      </trkpt>
      <trkpt lat="46.04851" lon="7.06805">
        <ele>1735</ele>
        <time>2022-08-27T22:45:10Z</time>
      </trkpt>
      <trkpt lat="46.0485" lon="7.06804">
        <ele>1735</ele>
        <time>2022-08-27T22:45:11Z</time>
      </trkpt>
      <trkpt lat="46.04849" lon="7.06802">
        <ele>1735</ele>
        <time>2022-08-27T22:45:12Z</time>
      </trkpt>
      <trkpt lat="46.04847" lon="7.06801">
        <ele>1735</ele>
        <time>2022-08-27T22:45:13Z</time>
      </trkpt>
      <trkpt lat="46.04846" lon="7.068">
        <ele>1735</ele>
        <time>2022-08-27T22:45:14Z</time>
      </trkpt>
      <trkpt lat="46.04839" lon="7.06791">
        <ele>1735</ele>
        <time>2022-08-27T22:45:22Z</time>
      </trkpt>
      <trkpt lat="46.04838" lon="7.0679">
        <ele>1736</ele>
        <time>2022-08-27T22:45:24Z</time>
      </trkpt>
      <trkpt lat="46.04837" lon="7.06788">
        <ele>1736</ele>
        <time>2022-08-27T22:45:25Z</time>
      </trkpt>
      <trkpt lat="46.04836" lon="7.06787">
        <ele>1736</ele>
        <time>2022-08-27T22:45:26Z</time>
      </trkpt>
      <trkpt lat="46.04835" lon="7.06786">
        <ele>1737</ele>
        <time>2022-08-27T22:45:28Z</time>
      </trkpt>
      <trkpt lat="46.04834" lon="7.06785">
        <ele>1737</ele>
        <time>2022-08-27T22:45:29Z</time>
      </trkpt>
      <trkpt lat="46.04833" lon="7.06783">
        <ele>1737</ele>
        <time>2022-08-27T22:45:30Z</time>
      </trkpt>
      <trkpt lat="46.04832" lon="7.06782">
        <ele>1737</ele>
        <time>2022-08-27T22:45:31Z</time>
      </trkpt>
      <trkpt lat="46.04831" lon="7.0678">
        <ele>1737</ele>
        <time>2022-08-27T22:45:32Z</time>
      </trkpt>
      <trkpt lat="46.04831" lon="7.06779">
        <ele>1737</ele>
        <time>2022-08-27T22:45:34Z</time>
      </trkpt>
      <trkpt lat="46.0483" lon="7.06777">
        <ele>1737</ele>
        <time>2022-08-27T22:45:35Z</time>
      </trkpt>
      <trkpt lat="46.04829" lon="7.06776">
        <ele>1737</ele>
        <time>2022-08-27T22:45:36Z</time>
      </trkpt>
      <trkpt lat="46.04829" lon="7.06774">
        <ele>1737</ele>
        <time>2022-08-27T22:45:37Z</time>
      </trkpt>
      <trkpt lat="46.04828" lon="7.06771">
        <ele>1738</ele>
        <time>2022-08-27T22:45:39Z</time>
      </trkpt>
      <trkpt lat="46.04827" lon="7.06769">
        <ele>1738</ele>
        <time>2022-08-27T22:45:40Z</time>
      </trkpt>
      <trkpt lat="46.04827" lon="7.06766">
        <ele>1738</ele>
        <time>2022-08-27T22:45:41Z</time>
      </trkpt>
      <trkpt lat="46.04826" lon="7.06764">
        <ele>1739</ele>
        <time>2022-08-27T22:45:43Z</time>
      </trkpt>
      <trkpt lat="46.04825" lon="7.06762">
        <ele>1739</ele>
        <time>2022-08-27T22:45:44Z</time>
      </trkpt>
      <trkpt lat="46.04825" lon="7.0676">
        <ele>1738</ele>
        <time>2022-08-27T22:45:45Z</time>
      </trkpt>
      <trkpt lat="46.04824" lon="7.06759">
        <ele>1739</ele>
        <time>2022-08-27T22:45:47Z</time>
      </trkpt>
      <trkpt lat="46.04824" lon="7.06757">
        <ele>1739</ele>
        <time>2022-08-27T22:45:48Z</time>
      </trkpt>
      <trkpt lat="46.04823" lon="7.06756">
        <ele>1739</ele>
        <time>2022-08-27T22:45:49Z</time>
      </trkpt>
      <trkpt lat="46.04822" lon="7.06754">
        <ele>1740</ele>
        <time>2022-08-27T22:45:50Z</time>
      </trkpt>
      <trkpt lat="46.04822" lon="7.06753">
        <ele>1740</ele>
        <time>2022-08-27T22:45:52Z</time>
      </trkpt>
      <trkpt lat="46.04821" lon="7.06751">
        <ele>1740</ele>
        <time>2022-08-27T22:45:53Z</time>
      </trkpt>
      <trkpt lat="46.04821" lon="7.0675">
        <ele>1740</ele>
        <time>2022-08-27T22:45:54Z</time>
      </trkpt>
      <trkpt lat="46.0482" lon="7.06748">
        <ele>1740</ele>
        <time>2022-08-27T22:45:55Z</time>
      </trkpt>
      <trkpt lat="46.04819" lon="7.06747">
        <ele>1740</ele>
        <time>2022-08-27T22:45:57Z</time>
      </trkpt>
      <trkpt lat="46.04818" lon="7.06746">
        <ele>1740</ele>
        <time>2022-08-27T22:45:58Z</time>
      </trkpt>
      <trkpt lat="46.04817" lon="7.06744">
        <ele>1740</ele>
        <time>2022-08-27T22:45:59Z</time>
      </trkpt>
      <trkpt lat="46.04816" lon="7.06743">
        <ele>1740</ele>
        <time>2022-08-27T22:46:00Z</time>
      </trkpt>
      <trkpt lat="46.04815" lon="7.06742">
        <ele>1740</ele>
        <time>2022-08-27T22:46:02Z</time>
      </trkpt>
      <trkpt lat="46.04814" lon="7.06741">
        <ele>1741</ele>
        <time>2022-08-27T22:46:03Z</time>
      </trkpt>
      <trkpt lat="46.04813" lon="7.06739">
        <ele>1741</ele>
        <time>2022-08-27T22:46:04Z</time>
      </trkpt>
      <trkpt lat="46.04812" lon="7.06738">
        <ele>1741</ele>
        <time>2022-08-27T22:46:05Z</time>
      </trkpt>
      <trkpt lat="46.04811" lon="7.06737">
        <ele>1741</ele>
        <time>2022-08-27T22:46:06Z</time>
      </trkpt>
      <trkpt lat="46.0481" lon="7.06736">
        <ele>1741</ele>
        <time>2022-08-27T22:46:08Z</time>
      </trkpt>
      <trkpt lat="46.04809" lon="7.06735">
        <ele>1741</ele>
        <time>2022-08-27T22:46:09Z</time>
      </trkpt>
      <trkpt lat="46.04808" lon="7.06733">
        <ele>1741</ele>
        <time>2022-08-27T22:46:10Z</time>
      </trkpt>
      <trkpt lat="46.04807" lon="7.06732">
        <ele>1741</ele>
        <time>2022-08-27T22:46:11Z</time>
      </trkpt>
      <trkpt lat="46.04806" lon="7.0673">
        <ele>1742</ele>
        <time>2022-08-27T22:46:13Z</time>
      </trkpt>
      <trkpt lat="46.04804" lon="7.06729">
        <ele>1742</ele>
        <time>2022-08-27T22:46:15Z</time>
      </trkpt>
      <trkpt lat="46.04803" lon="7.06727">
        <ele>1742</ele>
        <time>2022-08-27T22:46:16Z</time>
      </trkpt>
      <trkpt lat="46.04801" lon="7.06725">
        <ele>1742</ele>
        <time>2022-08-27T22:46:17Z</time>
      </trkpt>
      <trkpt lat="46.048" lon="7.06723">
        <ele>1742</ele>
        <time>2022-08-27T22:46:18Z</time>
      </trkpt>
      <trkpt lat="46.04799" lon="7.06721">
        <ele>1742</ele>
        <time>2022-08-27T22:46:20Z</time>
      </trkpt>
      <trkpt lat="46.04798" lon="7.0672">
        <ele>1742</ele>
        <time>2022-08-27T22:46:21Z</time>
      </trkpt>
      <trkpt lat="46.04797" lon="7.06718">
        <ele>1742</ele>
        <time>2022-08-27T22:46:22Z</time>
      </trkpt>
      <trkpt lat="46.04795" lon="7.06717">
        <ele>1742</ele>
        <time>2022-08-27T22:46:23Z</time>
      </trkpt>
      <trkpt lat="46.04794" lon="7.06715">
        <ele>1742</ele>
        <time>2022-08-27T22:46:25Z</time>
      </trkpt>
      <trkpt lat="46.04793" lon="7.06714">
        <ele>1742</ele>
        <time>2022-08-27T22:46:26Z</time>
      </trkpt>
      <trkpt lat="46.04793" lon="7.06712">
        <ele>1742</ele>
        <time>2022-08-27T22:46:27Z</time>
      </trkpt>
      <trkpt lat="46.04793" lon="7.06711">
        <ele>1743</ele>
        <time>2022-08-27T22:46:28Z</time>
      </trkpt>
      <trkpt lat="46.04792" lon="7.06709">
        <ele>1743</ele>
        <time>2022-08-27T22:46:30Z</time>
      </trkpt>
      <trkpt lat="46.04792" lon="7.06708">
        <ele>1743</ele>
        <time>2022-08-27T22:46:31Z</time>
      </trkpt>
      <trkpt lat="46.04792" lon="7.06706">
        <ele>1743</ele>
        <time>2022-08-27T22:46:32Z</time>
      </trkpt>
      <trkpt lat="46.04792" lon="7.06704">
        <ele>1743</ele>
        <time>2022-08-27T22:46:33Z</time>
      </trkpt>
      <trkpt lat="46.04791" lon="7.06703">
        <ele>1743</ele>
        <time>2022-08-27T22:46:34Z</time>
      </trkpt>
      <trkpt lat="46.04791" lon="7.06701">
        <ele>1743</ele>
        <time>2022-08-27T22:46:35Z</time>
      </trkpt>
      <trkpt lat="46.04791" lon="7.06699">
        <ele>1743</ele>
        <time>2022-08-27T22:46:36Z</time>
      </trkpt>
      <trkpt lat="46.04791" lon="7.06697">
        <ele>1743</ele>
        <time>2022-08-27T22:46:37Z</time>
      </trkpt>
      <trkpt lat="46.04791" lon="7.06695">
        <ele>1743</ele>
        <time>2022-08-27T22:46:38Z</time>
      </trkpt>
      <trkpt lat="46.04791" lon="7.06693">
        <ele>1743</ele>
        <time>2022-08-27T22:46:40Z</time>
      </trkpt>
      <trkpt lat="46.04791" lon="7.06691">
        <ele>1745</ele>
        <time>2022-08-27T22:46:42Z</time>
      </trkpt>
      <trkpt lat="46.04791" lon="7.06689">
        <ele>1745</ele>
        <time>2022-08-27T22:46:43Z</time>
      </trkpt>
      <trkpt lat="46.04791" lon="7.06687">
        <ele>1745</ele>
        <time>2022-08-27T22:46:44Z</time>
      </trkpt>
      <trkpt lat="46.0479" lon="7.06685">
        <ele>1746</ele>
        <time>2022-08-27T22:46:45Z</time>
      </trkpt>
      <trkpt lat="46.04789" lon="7.06683">
        <ele>1746</ele>
        <time>2022-08-27T22:46:46Z</time>
      </trkpt>
      <trkpt lat="46.04788" lon="7.06681">
        <ele>1746</ele>
        <time>2022-08-27T22:46:47Z</time>
      </trkpt>
      <trkpt lat="46.04788" lon="7.06679">
        <ele>1746</ele>
        <time>2022-08-27T22:46:49Z</time>
      </trkpt>
      <trkpt lat="46.04787" lon="7.06677">
        <ele>1746</ele>
        <time>2022-08-27T22:46:50Z</time>
      </trkpt>
      <trkpt lat="46.04786" lon="7.06675">
        <ele>1746</ele>
        <time>2022-08-27T22:46:51Z</time>
      </trkpt>
      <trkpt lat="46.04785" lon="7.06674">
        <ele>1746</ele>
        <time>2022-08-27T22:46:52Z</time>
      </trkpt>
      <trkpt lat="46.04784" lon="7.06673">
        <ele>1746</ele>
        <time>2022-08-27T22:46:53Z</time>
      </trkpt>
      <trkpt lat="46.04783" lon="7.06672">
        <ele>1746</ele>
        <time>2022-08-27T22:46:54Z</time>
      </trkpt>
      <trkpt lat="46.04782" lon="7.0667">
        <ele>1746</ele>
        <time>2022-08-27T22:46:56Z</time>
      </trkpt>
      <trkpt lat="46.04781" lon="7.06669">
        <ele>1746</ele>
        <time>2022-08-27T22:46:57Z</time>
      </trkpt>
      <trkpt lat="46.0478" lon="7.06668">
        <ele>1746</ele>
        <time>2022-08-27T22:46:59Z</time>
      </trkpt>
      <trkpt lat="46.04779" lon="7.06667">
        <ele>1746</ele>
        <time>2022-08-27T22:47:00Z</time>
      </trkpt>
      <trkpt lat="46.04778" lon="7.06665">
        <ele>1746</ele>
        <time>2022-08-27T22:47:01Z</time>
      </trkpt>
      <trkpt lat="46.04773" lon="7.06655">
        <ele>1747</ele>
        <time>2022-08-27T22:47:08Z</time>
      </trkpt>
      <trkpt lat="46.04773" lon="7.06654">
        <ele>1748</ele>
        <time>2022-08-27T22:47:09Z</time>
      </trkpt>
      <trkpt lat="46.04773" lon="7.06652">
        <ele>1748</ele>
        <time>2022-08-27T22:47:10Z</time>
      </trkpt>
      <trkpt lat="46.04773" lon="7.0665">
        <ele>1748</ele>
        <time>2022-08-27T22:47:11Z</time>
      </trkpt>
      <trkpt lat="46.04773" lon="7.06649">
        <ele>1748</ele>
        <time>2022-08-27T22:47:13Z</time>
      </trkpt>
      <trkpt lat="46.04773" lon="7.06647">
        <ele>1748</ele>
        <time>2022-08-27T22:47:14Z</time>
      </trkpt>
      <trkpt lat="46.04773" lon="7.06646">
        <ele>1748</ele>
        <time>2022-08-27T22:47:15Z</time>
      </trkpt>
      <trkpt lat="46.04773" lon="7.06644">
        <ele>1749</ele>
        <time>2022-08-27T22:47:16Z</time>
      </trkpt>
      <trkpt lat="46.04773" lon="7.06643">
        <ele>1749</ele>
        <time>2022-08-27T22:47:17Z</time>
      </trkpt>
      <trkpt lat="46.04773" lon="7.06641">
        <ele>1749</ele>
        <time>2022-08-27T22:47:18Z</time>
      </trkpt>
      <trkpt lat="46.04773" lon="7.0664">
        <ele>1749</ele>
        <time>2022-08-27T22:47:19Z</time>
      </trkpt>
      <trkpt lat="46.04773" lon="7.06638">
        <ele>1750</ele>
        <time>2022-08-27T22:47:20Z</time>
      </trkpt>
      <trkpt lat="46.04773" lon="7.06637">
        <ele>1750</ele>
        <time>2022-08-27T22:47:21Z</time>
      </trkpt>
      <trkpt lat="46.04773" lon="7.06635">
        <ele>1750</ele>
        <time>2022-08-27T22:47:23Z</time>
      </trkpt>
      <trkpt lat="46.04773" lon="7.06633">
        <ele>1750</ele>
        <time>2022-08-27T22:47:24Z</time>
      </trkpt>
      <trkpt lat="46.04773" lon="7.06632">
        <ele>1751</ele>
        <time>2022-08-27T22:47:25Z</time>
      </trkpt>
      <trkpt lat="46.04773" lon="7.0663">
        <ele>1751</ele>
        <time>2022-08-27T22:47:26Z</time>
      </trkpt>
      <trkpt lat="46.04773" lon="7.06629">
        <ele>1751</ele>
        <time>2022-08-27T22:47:27Z</time>
      </trkpt>
      <trkpt lat="46.04773" lon="7.06627">
        <ele>1751</ele>
        <time>2022-08-27T22:47:28Z</time>
      </trkpt>
      <trkpt lat="46.04772" lon="7.06625">
        <ele>1751</ele>
        <time>2022-08-27T22:47:29Z</time>
      </trkpt>
      <trkpt lat="46.04771" lon="7.06623">
        <ele>1751</ele>
        <time>2022-08-27T22:47:31Z</time>
      </trkpt>
      <trkpt lat="46.0477" lon="7.06621">
        <ele>1751</ele>
        <time>2022-08-27T22:47:33Z</time>
      </trkpt>
      <trkpt lat="46.04768" lon="7.06619">
        <ele>1751</ele>
        <time>2022-08-27T22:47:34Z</time>
      </trkpt>
      <trkpt lat="46.04767" lon="7.06616">
        <ele>1751</ele>
        <time>2022-08-27T22:47:35Z</time>
      </trkpt>
      <trkpt lat="46.04766" lon="7.06615">
        <ele>1751</ele>
        <time>2022-08-27T22:47:37Z</time>
      </trkpt>
      <trkpt lat="46.04765" lon="7.06613">
        <ele>1751</ele>
        <time>2022-08-27T22:47:39Z</time>
      </trkpt>
      <trkpt lat="46.04764" lon="7.06611">
        <ele>1751</ele>
        <time>2022-08-27T22:47:41Z</time>
      </trkpt>
      <trkpt lat="46.04762" lon="7.06609">
        <ele>1751</ele>
        <time>2022-08-27T22:47:42Z</time>
      </trkpt>
      <trkpt lat="46.04761" lon="7.06607">
        <ele>1752</ele>
        <time>2022-08-27T22:47:43Z</time>
      </trkpt>
      <trkpt lat="46.04761" lon="7.06605">
        <ele>1752</ele>
        <time>2022-08-27T22:47:44Z</time>
      </trkpt>
      <trkpt lat="46.0476" lon="7.06603">
        <ele>1752</ele>
        <time>2022-08-27T22:47:46Z</time>
      </trkpt>
      <trkpt lat="46.04759" lon="7.06601">
        <ele>1752</ele>
        <time>2022-08-27T22:47:47Z</time>
      </trkpt>
      <trkpt lat="46.04759" lon="7.066">
        <ele>1752</ele>
        <time>2022-08-27T22:47:48Z</time>
      </trkpt>
      <trkpt lat="46.04758" lon="7.06598">
        <ele>1752</ele>
        <time>2022-08-27T22:47:50Z</time>
      </trkpt>
      <trkpt lat="46.04757" lon="7.06596">
        <ele>1752</ele>
        <time>2022-08-27T22:47:51Z</time>
      </trkpt>
      <trkpt lat="46.04757" lon="7.06594">
        <ele>1752</ele>
        <time>2022-08-27T22:47:52Z</time>
      </trkpt>
      <trkpt lat="46.04748" lon="7.06589">
        <ele>1754</ele>
        <time>2022-08-27T22:48:00Z</time>
      </trkpt>
      <trkpt lat="46.04747" lon="7.06588">
        <ele>1754</ele>
        <time>2022-08-27T22:48:01Z</time>
      </trkpt>
      <trkpt lat="46.04747" lon="7.06587">
        <ele>1754</ele>
        <time>2022-08-27T22:48:02Z</time>
      </trkpt>
      <trkpt lat="46.04746" lon="7.06586">
        <ele>1754</ele>
        <time>2022-08-27T22:48:03Z</time>
      </trkpt>
      <trkpt lat="46.04745" lon="7.06585">
        <ele>1755</ele>
        <time>2022-08-27T22:48:05Z</time>
      </trkpt>
      <trkpt lat="46.04745" lon="7.06584">
        <ele>1755</ele>
        <time>2022-08-27T22:48:06Z</time>
      </trkpt>
      <trkpt lat="46.04744" lon="7.06582">
        <ele>1755</ele>
        <time>2022-08-27T22:48:07Z</time>
      </trkpt>
      <trkpt lat="46.04743" lon="7.06581">
        <ele>1755</ele>
        <time>2022-08-27T22:48:08Z</time>
      </trkpt>
      <trkpt lat="46.04743" lon="7.0658">
        <ele>1756</ele>
        <time>2022-08-27T22:48:10Z</time>
      </trkpt>
      <trkpt lat="46.04742" lon="7.06579">
        <ele>1756</ele>
        <time>2022-08-27T22:48:11Z</time>
      </trkpt>
      <trkpt lat="46.04742" lon="7.06578">
        <ele>1756</ele>
        <time>2022-08-27T22:48:12Z</time>
      </trkpt>
      <trkpt lat="46.04741" lon="7.06577">
        <ele>1756</ele>
        <time>2022-08-27T22:48:13Z</time>
      </trkpt>
      <trkpt lat="46.0474" lon="7.06576">
        <ele>1756</ele>
        <time>2022-08-27T22:48:15Z</time>
      </trkpt>
      <trkpt lat="46.0474" lon="7.06576">
        <ele>1756</ele>
        <time>2022-08-27T22:48:16Z</time>
      </trkpt>
      <trkpt lat="46.04739" lon="7.06575">
        <ele>1757</ele>
        <time>2022-08-27T22:48:17Z</time>
      </trkpt>
      <trkpt lat="46.04739" lon="7.06574">
        <ele>1757</ele>
        <time>2022-08-27T22:48:19Z</time>
      </trkpt>
      <trkpt lat="46.04738" lon="7.06573">
        <ele>1757</ele>
        <time>2022-08-27T22:48:20Z</time>
      </trkpt>
      <trkpt lat="46.04737" lon="7.06572">
        <ele>1758</ele>
        <time>2022-08-27T22:48:21Z</time>
      </trkpt>
      <trkpt lat="46.04737" lon="7.06571">
        <ele>1758</ele>
        <time>2022-08-27T22:48:22Z</time>
      </trkpt>
      <trkpt lat="46.04736" lon="7.06571">
        <ele>1759</ele>
        <time>2022-08-27T22:48:24Z</time>
      </trkpt>
      <trkpt lat="46.04735" lon="7.0657">
        <ele>1759</ele>
        <time>2022-08-27T22:48:25Z</time>
      </trkpt>
      <trkpt lat="46.04735" lon="7.06569">
        <ele>1759</ele>
        <time>2022-08-27T22:48:26Z</time>
      </trkpt>
      <trkpt lat="46.04726" lon="7.06564">
        <ele>1760</ele>
        <time>2022-08-27T22:48:36Z</time>
      </trkpt>
      <trkpt lat="46.04716" lon="7.06568">
        <ele>1761</ele>
        <time>2022-08-27T22:48:41Z</time>
      </trkpt>
      <trkpt lat="46.04714" lon="7.06569">
        <ele>1761</ele>
        <time>2022-08-27T22:48:42Z</time>
      </trkpt>
      <trkpt lat="46.04712" lon="7.06569">
        <ele>1762</ele>
        <time>2022-08-27T22:48:43Z</time>
      </trkpt>
      <trkpt lat="46.0471" lon="7.06569">
        <ele>1762</ele>
        <time>2022-08-27T22:48:44Z</time>
      </trkpt>
      <trkpt lat="46.04708" lon="7.0657">
        <ele>1762</ele>
        <time>2022-08-27T22:48:45Z</time>
      </trkpt>
      <trkpt lat="46.04706" lon="7.0657">
        <ele>1763</ele>
        <time>2022-08-27T22:48:46Z</time>
      </trkpt>
      <trkpt lat="46.04706" lon="7.0657">
        <ele>1763</ele>
        <time>2022-08-27T22:48:47Z</time>
      </trkpt>
      <trkpt lat="46.04705" lon="7.06569">
        <ele>1763</ele>
        <time>2022-08-27T22:48:48Z</time>
      </trkpt>
      <trkpt lat="46.04704" lon="7.06568">
        <ele>1763</ele>
        <time>2022-08-27T22:48:49Z</time>
      </trkpt>
      <trkpt lat="46.04703" lon="7.06568">
        <ele>1763</ele>
        <time>2022-08-27T22:48:51Z</time>
      </trkpt>
      <trkpt lat="46.04702" lon="7.06567">
        <ele>1764</ele>
        <time>2022-08-27T22:48:53Z</time>
      </trkpt>
      <trkpt lat="46.04701" lon="7.06566">
        <ele>1765</ele>
        <time>2022-08-27T22:48:54Z</time>
      </trkpt>
      <trkpt lat="46.04701" lon="7.06566">
        <ele>1765</ele>
        <time>2022-08-27T22:48:55Z</time>
      </trkpt>
      <trkpt lat="46.047" lon="7.06565">
        <ele>1765</ele>
        <time>2022-08-27T22:48:56Z</time>
      </trkpt>
      <trkpt lat="46.04699" lon="7.06564">
        <ele>1765</ele>
        <time>2022-08-27T22:48:58Z</time>
      </trkpt>
      <trkpt lat="46.04698" lon="7.06564">
        <ele>1765</ele>
        <time>2022-08-27T22:48:59Z</time>
      </trkpt>
      <trkpt lat="46.04698" lon="7.06563">
        <ele>1765</ele>
        <time>2022-08-27T22:49:00Z</time>
      </trkpt>
      <trkpt lat="46.04697" lon="7.06562">
        <ele>1765</ele>
        <time>2022-08-27T22:49:01Z</time>
      </trkpt>
      <trkpt lat="46.04697" lon="7.06561">
        <ele>1766</ele>
        <time>2022-08-27T22:49:03Z</time>
      </trkpt>
      <trkpt lat="46.04696" lon="7.0656">
        <ele>1766</ele>
        <time>2022-08-27T22:49:04Z</time>
      </trkpt>
      <trkpt lat="46.04696" lon="7.06559">
        <ele>1767</ele>
        <time>2022-08-27T22:49:05Z</time>
      </trkpt>
      <trkpt lat="46.04695" lon="7.06558">
        <ele>1767</ele>
        <time>2022-08-27T22:49:06Z</time>
      </trkpt>
      <trkpt lat="46.04695" lon="7.06557">
        <ele>1767</ele>
        <time>2022-08-27T22:49:08Z</time>
      </trkpt>
      <trkpt lat="46.04694" lon="7.06555">
        <ele>1767</ele>
        <time>2022-08-27T22:49:09Z</time>
      </trkpt>
      <trkpt lat="46.04694" lon="7.06554">
        <ele>1768</ele>
        <time>2022-08-27T22:49:10Z</time>
      </trkpt>
      <trkpt lat="46.04694" lon="7.06553">
        <ele>1768</ele>
        <time>2022-08-27T22:49:12Z</time>
      </trkpt>
      <trkpt lat="46.04693" lon="7.06552">
        <ele>1768</ele>
        <time>2022-08-27T22:49:13Z</time>
      </trkpt>
      <trkpt lat="46.04692" lon="7.06552">
        <ele>1767</ele>
        <time>2022-08-27T22:49:14Z</time>
      </trkpt>
      <trkpt lat="46.04692" lon="7.06551">
        <ele>1768</ele>
        <time>2022-08-27T22:49:15Z</time>
      </trkpt>
      <trkpt lat="46.04691" lon="7.0655">
        <ele>1769</ele>
        <time>2022-08-27T22:49:16Z</time>
      </trkpt>
      <trkpt lat="46.04691" lon="7.06549">
        <ele>1769</ele>
        <time>2022-08-27T22:49:18Z</time>
      </trkpt>
      <trkpt lat="46.0469" lon="7.06548">
        <ele>1769</ele>
        <time>2022-08-27T22:49:20Z</time>
      </trkpt>
      <trkpt lat="46.04689" lon="7.06547">
        <ele>1769</ele>
        <time>2022-08-27T22:49:21Z</time>
      </trkpt>
      <trkpt lat="46.04689" lon="7.06547">
        <ele>1770</ele>
        <time>2022-08-27T22:49:22Z</time>
      </trkpt>
      <trkpt lat="46.04688" lon="7.06546">
        <ele>1770</ele>
        <time>2022-08-27T22:49:23Z</time>
      </trkpt>
      <trkpt lat="46.04687" lon="7.06545">
        <ele>1770</ele>
        <time>2022-08-27T22:49:25Z</time>
      </trkpt>
      <trkpt lat="46.04687" lon="7.06544">
        <ele>1770</ele>
        <time>2022-08-27T22:49:26Z</time>
      </trkpt>
      <trkpt lat="46.04686" lon="7.06543">
        <ele>1770</ele>
        <time>2022-08-27T22:49:27Z</time>
      </trkpt>
      <trkpt lat="46.04686" lon="7.06542">
        <ele>1771</ele>
        <time>2022-08-27T22:49:28Z</time>
      </trkpt>
      <trkpt lat="46.04686" lon="7.06541">
        <ele>1771</ele>
        <time>2022-08-27T22:49:30Z</time>
      </trkpt>
      <trkpt lat="46.04686" lon="7.0654">
        <ele>1771</ele>
        <time>2022-08-27T22:49:31Z</time>
      </trkpt>
      <trkpt lat="46.04685" lon="7.06539">
        <ele>1772</ele>
        <time>2022-08-27T22:49:32Z</time>
      </trkpt>
      <trkpt lat="46.04685" lon="7.06537">
        <ele>1772</ele>
        <time>2022-08-27T22:49:33Z</time>
      </trkpt>
      <trkpt lat="46.04685" lon="7.06536">
        <ele>1772</ele>
        <time>2022-08-27T22:49:35Z</time>
      </trkpt>
      <trkpt lat="46.04685" lon="7.06535">
        <ele>1772</ele>
        <time>2022-08-27T22:49:36Z</time>
      </trkpt>
      <trkpt lat="46.04685" lon="7.06534">
        <ele>1772</ele>
        <time>2022-08-27T22:49:37Z</time>
      </trkpt>
      <trkpt lat="46.04684" lon="7.06532">
        <ele>1772</ele>
        <time>2022-08-27T22:49:38Z</time>
      </trkpt>
      <trkpt lat="46.04684" lon="7.06531">
        <ele>1772</ele>
        <time>2022-08-27T22:49:39Z</time>
      </trkpt>
      <trkpt lat="46.04684" lon="7.0653">
        <ele>1772</ele>
        <time>2022-08-27T22:49:40Z</time>
      </trkpt>
      <trkpt lat="46.04684" lon="7.06529">
        <ele>1773</ele>
        <time>2022-08-27T22:49:41Z</time>
      </trkpt>
      <trkpt lat="46.04685" lon="7.06527">
        <ele>1773</ele>
        <time>2022-08-27T22:49:42Z</time>
      </trkpt>
      <trkpt lat="46.04685" lon="7.06526">
        <ele>1773</ele>
        <time>2022-08-27T22:49:43Z</time>
      </trkpt>
      <trkpt lat="46.04686" lon="7.06524">
        <ele>1774</ele>
        <time>2022-08-27T22:49:45Z</time>
      </trkpt>
      <trkpt lat="46.04686" lon="7.06523">
        <ele>1774</ele>
        <time>2022-08-27T22:49:46Z</time>
      </trkpt>
      <trkpt lat="46.04688" lon="7.06516">
        <ele>1774</ele>
        <time>2022-08-27T22:49:47Z</time>
      </trkpt>
      <trkpt lat="46.04688" lon="7.06515">
        <ele>1774</ele>
        <time>2022-08-27T22:49:48Z</time>
      </trkpt>
      <trkpt lat="46.04688" lon="7.06514">
        <ele>1774</ele>
        <time>2022-08-27T22:49:50Z</time>
      </trkpt>
      <trkpt lat="46.04687" lon="7.06513">
        <ele>1774</ele>
        <time>2022-08-27T22:49:52Z</time>
      </trkpt>
      <trkpt lat="46.04687" lon="7.06513">
        <ele>1775</ele>
        <time>2022-08-27T22:49:53Z</time>
      </trkpt>
      <trkpt lat="46.04687" lon="7.06512">
        <ele>1776</ele>
        <time>2022-08-27T22:49:54Z</time>
      </trkpt>
      <trkpt lat="46.04687" lon="7.06511">
        <ele>1776</ele>
        <time>2022-08-27T22:49:55Z</time>
      </trkpt>
      <trkpt lat="46.04687" lon="7.06511">
        <ele>1776</ele>
        <time>2022-08-27T22:49:57Z</time>
      </trkpt>
      <trkpt lat="46.04687" lon="7.0651">
        <ele>1776</ele>
        <time>2022-08-27T22:49:58Z</time>
      </trkpt>
      <trkpt lat="46.04686" lon="7.06509">
        <ele>1776</ele>
        <time>2022-08-27T22:49:59Z</time>
      </trkpt>
      <trkpt lat="46.04686" lon="7.06509">
        <ele>1776</ele>
        <time>2022-08-27T22:50:00Z</time>
      </trkpt>
      <trkpt lat="46.04686" lon="7.06508">
        <ele>1777</ele>
        <time>2022-08-27T22:50:02Z</time>
      </trkpt>
      <trkpt lat="46.04686" lon="7.06507">
        <ele>1777</ele>
        <time>2022-08-27T22:50:03Z</time>
      </trkpt>
      <trkpt lat="46.04686" lon="7.06506">
        <ele>1777</ele>
        <time>2022-08-27T22:50:04Z</time>
      </trkpt>
      <trkpt lat="46.04686" lon="7.06506">
        <ele>1777</ele>
        <time>2022-08-27T22:50:05Z</time>
      </trkpt>
      <trkpt lat="46.04685" lon="7.06505">
        <ele>1777</ele>
        <time>2022-08-27T22:50:06Z</time>
      </trkpt>
      <trkpt lat="46.04685" lon="7.06504">
        <ele>1777</ele>
        <time>2022-08-27T22:50:08Z</time>
      </trkpt>
      <trkpt lat="46.04685" lon="7.06504">
        <ele>1777</ele>
        <time>2022-08-27T22:50:09Z</time>
      </trkpt>
      <trkpt lat="46.04685" lon="7.06503">
        <ele>1777</ele>
        <time>2022-08-27T22:50:10Z</time>
      </trkpt>
      <trkpt lat="46.04684" lon="7.06503">
        <ele>1777</ele>
        <time>2022-08-27T22:50:11Z</time>
      </trkpt>
      <trkpt lat="46.04684" lon="7.06502">
        <ele>1777</ele>
        <time>2022-08-27T22:50:13Z</time>
      </trkpt>
      <trkpt lat="46.04683" lon="7.06502">
        <ele>1777</ele>
        <time>2022-08-27T22:50:14Z</time>
      </trkpt>
      <trkpt lat="46.04683" lon="7.06502">
        <ele>1778</ele>
        <time>2022-08-27T22:50:15Z</time>
      </trkpt>
      <trkpt lat="46.04682" lon="7.06501">
        <ele>1779</ele>
        <time>2022-08-27T22:50:16Z</time>
      </trkpt>
      <trkpt lat="46.04682" lon="7.06501">
        <ele>1779</ele>
        <time>2022-08-27T22:50:18Z</time>
      </trkpt>
      <trkpt lat="46.04681" lon="7.065">
        <ele>1779</ele>
        <time>2022-08-27T22:50:19Z</time>
      </trkpt>
      <trkpt lat="46.0468" lon="7.065">
        <ele>1779</ele>
        <time>2022-08-27T22:50:20Z</time>
      </trkpt>
      <trkpt lat="46.0468" lon="7.065">
        <ele>1780</ele>
        <time>2022-08-27T22:50:21Z</time>
      </trkpt>
      <trkpt lat="46.04679" lon="7.06499">
        <ele>1780</ele>
        <time>2022-08-27T22:50:23Z</time>
      </trkpt>
      <trkpt lat="46.04679" lon="7.06499">
        <ele>1780</ele>
        <time>2022-08-27T22:50:24Z</time>
      </trkpt>
      <trkpt lat="46.04678" lon="7.06499">
        <ele>1781</ele>
        <time>2022-08-27T22:50:25Z</time>
      </trkpt>
      <trkpt lat="46.04678" lon="7.06498">
        <ele>1781</ele>
        <time>2022-08-27T22:50:26Z</time>
      </trkpt>
      <trkpt lat="46.04677" lon="7.06498">
        <ele>1781</ele>
        <time>2022-08-27T22:50:27Z</time>
      </trkpt>
      <trkpt lat="46.04676" lon="7.06498">
        <ele>1781</ele>
        <time>2022-08-27T22:50:28Z</time>
      </trkpt>
      <trkpt lat="46.04672" lon="7.06485">
        <ele>1784</ele>
        <time>2022-08-27T22:50:40Z</time>
      </trkpt>
      <trkpt lat="46.04672" lon="7.06484">
        <ele>1784</ele>
        <time>2022-08-27T22:50:41Z</time>
      </trkpt>
      <trkpt lat="46.04671" lon="7.06483">
        <ele>1784</ele>
        <time>2022-08-27T22:50:42Z</time>
      </trkpt>
      <trkpt lat="46.04671" lon="7.06482">
        <ele>1784</ele>
        <time>2022-08-27T22:50:43Z</time>
      </trkpt>
      <trkpt lat="46.04671" lon="7.06481">
        <ele>1784</ele>
        <time>2022-08-27T22:50:45Z</time>
      </trkpt>
      <trkpt lat="46.0467" lon="7.06479">
        <ele>1784</ele>
        <time>2022-08-27T22:50:47Z</time>
      </trkpt>
      <trkpt lat="46.0467" lon="7.06478">
        <ele>1785</ele>
        <time>2022-08-27T22:50:48Z</time>
      </trkpt>
      <trkpt lat="46.0467" lon="7.06477">
        <ele>1785</ele>
        <time>2022-08-27T22:50:49Z</time>
      </trkpt>
      <trkpt lat="46.04669" lon="7.06476">
        <ele>1786</ele>
        <time>2022-08-27T22:50:51Z</time>
      </trkpt>
      <trkpt lat="46.04669" lon="7.06475">
        <ele>1786</ele>
        <time>2022-08-27T22:50:52Z</time>
      </trkpt>
      <trkpt lat="46.04668" lon="7.06473">
        <ele>1786</ele>
        <time>2022-08-27T22:50:53Z</time>
      </trkpt>
      <trkpt lat="46.04668" lon="7.06472">
        <ele>1786</ele>
        <time>2022-08-27T22:50:54Z</time>
      </trkpt>
      <trkpt lat="46.04668" lon="7.06471">
        <ele>1786</ele>
        <time>2022-08-27T22:50:56Z</time>
      </trkpt>
      <trkpt lat="46.04667" lon="7.06471">
        <ele>1786</ele>
        <time>2022-08-27T22:50:57Z</time>
      </trkpt>
      <trkpt lat="46.04666" lon="7.0647">
        <ele>1786</ele>
        <time>2022-08-27T22:50:58Z</time>
      </trkpt>
      <trkpt lat="46.04666" lon="7.06469">
        <ele>1786</ele>
        <time>2022-08-27T22:50:59Z</time>
      </trkpt>
      <trkpt lat="46.04665" lon="7.06469">
        <ele>1787</ele>
        <time>2022-08-27T22:51:01Z</time>
      </trkpt>
      <trkpt lat="46.04665" lon="7.06468">
        <ele>1787</ele>
        <time>2022-08-27T22:51:02Z</time>
      </trkpt>
      <trkpt lat="46.04664" lon="7.06467">
        <ele>1787</ele>
        <time>2022-08-27T22:51:03Z</time>
      </trkpt>
      <trkpt lat="46.04663" lon="7.06466">
        <ele>1787</ele>
        <time>2022-08-27T22:51:04Z</time>
      </trkpt>
      <trkpt lat="46.04663" lon="7.06466">
        <ele>1787</ele>
        <time>2022-08-27T22:51:06Z</time>
      </trkpt>
      <trkpt lat="46.04662" lon="7.06465">
        <ele>1788</ele>
        <time>2022-08-27T22:51:08Z</time>
      </trkpt>
      <trkpt lat="46.04662" lon="7.06464">
        <ele>1788</ele>
        <time>2022-08-27T22:51:09Z</time>
      </trkpt>
      <trkpt lat="46.04661" lon="7.06464">
        <ele>1789</ele>
        <time>2022-08-27T22:51:10Z</time>
      </trkpt>
      <trkpt lat="46.04661" lon="7.06462">
        <ele>1789</ele>
        <time>2022-08-27T22:51:11Z</time>
      </trkpt>
      <trkpt lat="46.04661" lon="7.06461">
        <ele>1789</ele>
        <time>2022-08-27T22:51:13Z</time>
      </trkpt>
      <trkpt lat="46.0466" lon="7.0646">
        <ele>1789</ele>
        <time>2022-08-27T22:51:14Z</time>
      </trkpt>
      <trkpt lat="46.0466" lon="7.06459">
        <ele>1789</ele>
        <time>2022-08-27T22:51:15Z</time>
      </trkpt>
      <trkpt lat="46.0466" lon="7.06458">
        <ele>1789</ele>
        <time>2022-08-27T22:51:16Z</time>
      </trkpt>
      <trkpt lat="46.0466" lon="7.06457">
        <ele>1789</ele>
        <time>2022-08-27T22:51:18Z</time>
      </trkpt>
      <trkpt lat="46.04659" lon="7.06455">
        <ele>1789</ele>
        <time>2022-08-27T22:51:19Z</time>
      </trkpt>
      <trkpt lat="46.04659" lon="7.06454">
        <ele>1790</ele>
        <time>2022-08-27T22:51:20Z</time>
      </trkpt>
      <trkpt lat="46.04659" lon="7.06453">
        <ele>1790</ele>
        <time>2022-08-27T22:51:21Z</time>
      </trkpt>
      <trkpt lat="46.04658" lon="7.06452">
        <ele>1790</ele>
        <time>2022-08-27T22:51:22Z</time>
      </trkpt>
      <trkpt lat="46.04658" lon="7.06451">
        <ele>1790</ele>
        <time>2022-08-27T22:51:23Z</time>
      </trkpt>
      <trkpt lat="46.04657" lon="7.0645">
        <ele>1790</ele>
        <time>2022-08-27T22:51:25Z</time>
      </trkpt>
      <trkpt lat="46.04657" lon="7.06449">
        <ele>1791</ele>
        <time>2022-08-27T22:51:26Z</time>
      </trkpt>
      <trkpt lat="46.04656" lon="7.06449">
        <ele>1791</ele>
        <time>2022-08-27T22:51:27Z</time>
      </trkpt>
      <trkpt lat="46.04655" lon="7.06448">
        <ele>1791</ele>
        <time>2022-08-27T22:51:28Z</time>
      </trkpt>
      <trkpt lat="46.04654" lon="7.06447">
        <ele>1791</ele>
        <time>2022-08-27T22:51:30Z</time>
      </trkpt>
      <trkpt lat="46.04653" lon="7.06446">
        <ele>1792</ele>
        <time>2022-08-27T22:51:31Z</time>
      </trkpt>
      <trkpt lat="46.04652" lon="7.06445">
        <ele>1792</ele>
        <time>2022-08-27T22:51:32Z</time>
      </trkpt>
      <trkpt lat="46.04652" lon="7.06445">
        <ele>1792</ele>
        <time>2022-08-27T22:51:33Z</time>
      </trkpt>
      <trkpt lat="46.04651" lon="7.06444">
        <ele>1792</ele>
        <time>2022-08-27T22:51:34Z</time>
      </trkpt>
      <trkpt lat="46.0465" lon="7.06443">
        <ele>1792</ele>
        <time>2022-08-27T22:51:35Z</time>
      </trkpt>
      <trkpt lat="46.04649" lon="7.06442">
        <ele>1792</ele>
        <time>2022-08-27T22:51:36Z</time>
      </trkpt>
      <trkpt lat="46.04648" lon="7.06441">
        <ele>1793</ele>
        <time>2022-08-27T22:51:38Z</time>
      </trkpt>
      <trkpt lat="46.04647" lon="7.06439">
        <ele>1793</ele>
        <time>2022-08-27T22:51:39Z</time>
      </trkpt>
      <trkpt lat="46.04646" lon="7.06438">
        <ele>1793</ele>
        <time>2022-08-27T22:51:40Z</time>
      </trkpt>
      <trkpt lat="46.04645" lon="7.06437">
        <ele>1793</ele>
        <time>2022-08-27T22:51:41Z</time>
      </trkpt>
      <trkpt lat="46.04644" lon="7.06435">
        <ele>1794</ele>
        <time>2022-08-27T22:51:43Z</time>
      </trkpt>
      <trkpt lat="46.04643" lon="7.06434">
        <ele>1794</ele>
        <time>2022-08-27T22:51:44Z</time>
      </trkpt>
      <trkpt lat="46.04643" lon="7.06433">
        <ele>1794</ele>
        <time>2022-08-27T22:51:45Z</time>
      </trkpt>
      <trkpt lat="46.04642" lon="7.06432">
        <ele>1794</ele>
        <time>2022-08-27T22:51:46Z</time>
      </trkpt>
      <trkpt lat="46.04642" lon="7.0643">
        <ele>1795</ele>
        <time>2022-08-27T22:51:48Z</time>
      </trkpt>
      <trkpt lat="46.04642" lon="7.06429">
        <ele>1795</ele>
        <time>2022-08-27T22:51:49Z</time>
      </trkpt>
      <trkpt lat="46.04641" lon="7.06428">
        <ele>1795</ele>
        <time>2022-08-27T22:51:50Z</time>
      </trkpt>
      <trkpt lat="46.04641" lon="7.06427">
        <ele>1795</ele>
        <time>2022-08-27T22:51:51Z</time>
      </trkpt>
      <trkpt lat="46.04641" lon="7.06426">
        <ele>1795</ele>
        <time>2022-08-27T22:51:53Z</time>
      </trkpt>
      <trkpt lat="46.0464" lon="7.06424">
        <ele>1796</ele>
        <time>2022-08-27T22:51:54Z</time>
      </trkpt>
      <trkpt lat="46.0464" lon="7.06423">
        <ele>1796</ele>
        <time>2022-08-27T22:51:55Z</time>
      </trkpt>
      <trkpt lat="46.0464" lon="7.06422">
        <ele>1796</ele>
        <time>2022-08-27T22:51:56Z</time>
      </trkpt>
      <trkpt lat="46.04638" lon="7.06422">
        <ele>1796</ele>
        <time>2022-08-27T22:51:58Z</time>
      </trkpt>
      <trkpt lat="46.04637" lon="7.06421">
        <ele>1797</ele>
        <time>2022-08-27T22:51:59Z</time>
      </trkpt>
      <trkpt lat="46.04636" lon="7.06421">
        <ele>1797</ele>
        <time>2022-08-27T22:52:00Z</time>
      </trkpt>
      <trkpt lat="46.04635" lon="7.0642">
        <ele>1797</ele>
        <time>2022-08-27T22:52:01Z</time>
      </trkpt>
      <trkpt lat="46.04633" lon="7.0642">
        <ele>1797</ele>
        <time>2022-08-27T22:52:03Z</time>
      </trkpt>
      <trkpt lat="46.04632" lon="7.0642">
        <ele>1797</ele>
        <time>2022-08-27T22:52:04Z</time>
      </trkpt>
      <trkpt lat="46.04631" lon="7.06419">
        <ele>1797</ele>
        <time>2022-08-27T22:52:05Z</time>
      </trkpt>
      <trkpt lat="46.0463" lon="7.06418">
        <ele>1797</ele>
        <time>2022-08-27T22:52:06Z</time>
      </trkpt>
      <trkpt lat="46.0463" lon="7.06417">
        <ele>1798</ele>
        <time>2022-08-27T22:52:07Z</time>
      </trkpt>
      <trkpt lat="46.0463" lon="7.06416">
        <ele>1798</ele>
        <time>2022-08-27T22:52:08Z</time>
      </trkpt>
      <trkpt lat="46.04629" lon="7.06415">
        <ele>1799</ele>
        <time>2022-08-27T22:52:10Z</time>
      </trkpt>
      <trkpt lat="46.04629" lon="7.06414">
        <ele>1799</ele>
        <time>2022-08-27T22:52:11Z</time>
      </trkpt>
      <trkpt lat="46.04629" lon="7.06412">
        <ele>1799</ele>
        <time>2022-08-27T22:52:12Z</time>
      </trkpt>
      <trkpt lat="46.04628" lon="7.06411">
        <ele>1799</ele>
        <time>2022-08-27T22:52:13Z</time>
      </trkpt>
      <trkpt lat="46.04628" lon="7.0641">
        <ele>1799</ele>
        <time>2022-08-27T22:52:15Z</time>
      </trkpt>
      <trkpt lat="46.04628" lon="7.06409">
        <ele>1800</ele>
        <time>2022-08-27T22:52:17Z</time>
      </trkpt>
      <trkpt lat="46.04627" lon="7.06408">
        <ele>1800</ele>
        <time>2022-08-27T22:52:18Z</time>
      </trkpt>
      <trkpt lat="46.04627" lon="7.06407">
        <ele>1801</ele>
        <time>2022-08-27T22:52:19Z</time>
      </trkpt>
      <trkpt lat="46.04627" lon="7.06406">
        <ele>1801</ele>
        <time>2022-08-27T22:52:20Z</time>
      </trkpt>
      <trkpt lat="46.04626" lon="7.06406">
        <ele>1801</ele>
        <time>2022-08-27T22:52:22Z</time>
      </trkpt>
      <trkpt lat="46.04626" lon="7.06405">
        <ele>1801</ele>
        <time>2022-08-27T22:52:23Z</time>
      </trkpt>
      <trkpt lat="46.04626" lon="7.06404">
        <ele>1801</ele>
        <time>2022-08-27T22:52:24Z</time>
      </trkpt>
      <trkpt lat="46.04625" lon="7.06404">
        <ele>1801</ele>
        <time>2022-08-27T22:52:26Z</time>
      </trkpt>
      <trkpt lat="46.04625" lon="7.06403">
        <ele>1801</ele>
        <time>2022-08-27T22:52:27Z</time>
      </trkpt>
      <trkpt lat="46.04624" lon="7.06403">
        <ele>1802</ele>
        <time>2022-08-27T22:52:28Z</time>
      </trkpt>
      <trkpt lat="46.04624" lon="7.06402">
        <ele>1802</ele>
        <time>2022-08-27T22:52:29Z</time>
      </trkpt>
      <trkpt lat="46.04624" lon="7.06402">
        <ele>1803</ele>
        <time>2022-08-27T22:52:31Z</time>
      </trkpt>
      <trkpt lat="46.04623" lon="7.06401">
        <ele>1803</ele>
        <time>2022-08-27T22:52:32Z</time>
      </trkpt>
      <trkpt lat="46.04623" lon="7.064">
        <ele>1803</ele>
        <time>2022-08-27T22:52:33Z</time>
      </trkpt>
      <trkpt lat="46.04623" lon="7.064">
        <ele>1803</ele>
        <time>2022-08-27T22:52:34Z</time>
      </trkpt>
      <trkpt lat="46.04622" lon="7.06399">
        <ele>1803</ele>
        <time>2022-08-27T22:52:36Z</time>
      </trkpt>
      <trkpt lat="46.04622" lon="7.06399">
        <ele>1804</ele>
        <time>2022-08-27T22:52:37Z</time>
      </trkpt>
      <trkpt lat="46.04622" lon="7.06398">
        <ele>1804</ele>
        <time>2022-08-27T22:52:38Z</time>
      </trkpt>
      <trkpt lat="46.04621" lon="7.06398">
        <ele>1804</ele>
        <time>2022-08-27T22:52:39Z</time>
      </trkpt>
      <trkpt lat="46.04621" lon="7.06397">
        <ele>1804</ele>
        <time>2022-08-27T22:52:40Z</time>
      </trkpt>
      <trkpt lat="46.0462" lon="7.06396">
        <ele>1804</ele>
        <time>2022-08-27T22:52:41Z</time>
      </trkpt>
      <trkpt lat="46.0462" lon="7.06395">
        <ele>1805</ele>
        <time>2022-08-27T22:52:42Z</time>
      </trkpt>
      <trkpt lat="46.04619" lon="7.06393">
        <ele>1805</ele>
        <time>2022-08-27T22:52:43Z</time>
      </trkpt>
      <trkpt lat="46.04618" lon="7.06392">
        <ele>1805</ele>
        <time>2022-08-27T22:52:45Z</time>
      </trkpt>
      <trkpt lat="46.04618" lon="7.06391">
        <ele>1805</ele>
        <time>2022-08-27T22:52:46Z</time>
      </trkpt>
      <trkpt lat="46.04617" lon="7.0639">
        <ele>1805</ele>
        <time>2022-08-27T22:52:47Z</time>
      </trkpt>
      <trkpt lat="46.04616" lon="7.06388">
        <ele>1805</ele>
        <time>2022-08-27T22:52:48Z</time>
      </trkpt>
      <trkpt lat="46.04616" lon="7.06387">
        <ele>1806</ele>
        <time>2022-08-27T22:52:50Z</time>
      </trkpt>
      <trkpt lat="46.04615" lon="7.06386">
        <ele>1806</ele>
        <time>2022-08-27T22:52:51Z</time>
      </trkpt>
      <trkpt lat="46.04615" lon="7.06385">
        <ele>1807</ele>
        <time>2022-08-27T22:52:52Z</time>
      </trkpt>
      <trkpt lat="46.04614" lon="7.06383">
        <ele>1807</ele>
        <time>2022-08-27T22:52:53Z</time>
      </trkpt>
      <trkpt lat="46.04614" lon="7.06382">
        <ele>1807</ele>
        <time>2022-08-27T22:52:55Z</time>
      </trkpt>
      <trkpt lat="46.04613" lon="7.06381">
        <ele>1807</ele>
        <time>2022-08-27T22:52:56Z</time>
      </trkpt>
      <trkpt lat="46.04612" lon="7.06379">
        <ele>1808</ele>
        <time>2022-08-27T22:52:57Z</time>
      </trkpt>
      <trkpt lat="46.04612" lon="7.06378">
        <ele>1808</ele>
        <time>2022-08-27T22:52:58Z</time>
      </trkpt>
      <trkpt lat="46.04611" lon="7.06377">
        <ele>1808</ele>
        <time>2022-08-27T22:53:00Z</time>
      </trkpt>
      <trkpt lat="46.04611" lon="7.06375">
        <ele>1809</ele>
        <time>2022-08-27T22:53:02Z</time>
      </trkpt>
      <trkpt lat="46.0461" lon="7.06374">
        <ele>1809</ele>
        <time>2022-08-27T22:53:03Z</time>
      </trkpt>
      <trkpt lat="46.0461" lon="7.06373">
        <ele>1809</ele>
        <time>2022-08-27T22:53:04Z</time>
      </trkpt>
      <trkpt lat="46.04609" lon="7.06372">
        <ele>1809</ele>
        <time>2022-08-27T22:53:05Z</time>
      </trkpt>
      <trkpt lat="46.04609" lon="7.06372">
        <ele>1809</ele>
        <time>2022-08-27T22:53:07Z</time>
      </trkpt>
      <trkpt lat="46.04608" lon="7.06371">
        <ele>1809</ele>
        <time>2022-08-27T22:53:08Z</time>
      </trkpt>
      <trkpt lat="46.04608" lon="7.0637">
        <ele>1810</ele>
        <time>2022-08-27T22:53:09Z</time>
      </trkpt>
      <trkpt lat="46.04607" lon="7.06369">
        <ele>1810</ele>
        <time>2022-08-27T22:53:10Z</time>
      </trkpt>
      <trkpt lat="46.04607" lon="7.06369">
        <ele>1810</ele>
        <time>2022-08-27T22:53:12Z</time>
      </trkpt>
      <trkpt lat="46.04606" lon="7.06368">
        <ele>1810</ele>
        <time>2022-08-27T22:53:13Z</time>
      </trkpt>
      <trkpt lat="46.04606" lon="7.06367">
        <ele>1811</ele>
        <time>2022-08-27T22:53:14Z</time>
      </trkpt>
      <trkpt lat="46.04606" lon="7.06366">
        <ele>1811</ele>
        <time>2022-08-27T22:53:15Z</time>
      </trkpt>
      <trkpt lat="46.04605" lon="7.06366">
        <ele>1811</ele>
        <time>2022-08-27T22:53:17Z</time>
      </trkpt>
      <trkpt lat="46.04605" lon="7.06365">
        <ele>1811</ele>
        <time>2022-08-27T22:53:18Z</time>
      </trkpt>
      <trkpt lat="46.04604" lon="7.06364">
        <ele>1811</ele>
        <time>2022-08-27T22:53:19Z</time>
      </trkpt>
      <trkpt lat="46.04604" lon="7.0635">
        <ele>1814</ele>
        <time>2022-08-27T22:53:33Z</time>
      </trkpt>
      <trkpt lat="46.04604" lon="7.06348">
        <ele>1814</ele>
        <time>2022-08-27T22:53:34Z</time>
      </trkpt>
      <trkpt lat="46.04604" lon="7.06346">
        <ele>1814</ele>
        <time>2022-08-27T22:53:35Z</time>
      </trkpt>
      <trkpt lat="46.04603" lon="7.06344">
        <ele>1814</ele>
        <time>2022-08-27T22:53:36Z</time>
      </trkpt>
      <trkpt lat="46.04603" lon="7.06341">
        <ele>1815</ele>
        <time>2022-08-27T22:53:38Z</time>
      </trkpt>
      <trkpt lat="46.04603" lon="7.06339">
        <ele>1815</ele>
        <time>2022-08-27T22:53:39Z</time>
      </trkpt>
      <trkpt lat="46.04602" lon="7.06337">
        <ele>1815</ele>
        <time>2022-08-27T22:53:40Z</time>
      </trkpt>
      <trkpt lat="46.04602" lon="7.06336">
        <ele>1815</ele>
        <time>2022-08-27T22:53:41Z</time>
      </trkpt>
      <trkpt lat="46.04602" lon="7.06335">
        <ele>1815</ele>
        <time>2022-08-27T22:53:42Z</time>
      </trkpt>
      <trkpt lat="46.04601" lon="7.06334">
        <ele>1815</ele>
        <time>2022-08-27T22:53:43Z</time>
      </trkpt>
      <trkpt lat="46.04601" lon="7.06334">
        <ele>1815</ele>
        <time>2022-08-27T22:53:45Z</time>
      </trkpt>
      <trkpt lat="46.04601" lon="7.06333">
        <ele>1816</ele>
        <time>2022-08-27T22:53:46Z</time>
      </trkpt>
      <trkpt lat="46.046" lon="7.06332">
        <ele>1816</ele>
        <time>2022-08-27T22:53:47Z</time>
      </trkpt>
      <trkpt lat="46.046" lon="7.06331">
        <ele>1816</ele>
        <time>2022-08-27T22:53:48Z</time>
      </trkpt>
      <trkpt lat="46.046" lon="7.06331">
        <ele>1816</ele>
        <time>2022-08-27T22:53:50Z</time>
      </trkpt>
      <trkpt lat="46.04599" lon="7.0633">
        <ele>1816</ele>
        <time>2022-08-27T22:53:51Z</time>
      </trkpt>
      <trkpt lat="46.04599" lon="7.06329">
        <ele>1816</ele>
        <time>2022-08-27T22:53:52Z</time>
      </trkpt>
      <trkpt lat="46.04599" lon="7.06328">
        <ele>1816</ele>
        <time>2022-08-27T22:53:53Z</time>
      </trkpt>
      <trkpt lat="46.04598" lon="7.06328">
        <ele>1817</ele>
        <time>2022-08-27T22:53:55Z</time>
      </trkpt>
      <trkpt lat="46.04598" lon="7.06327">
        <ele>1817</ele>
        <time>2022-08-27T22:53:57Z</time>
      </trkpt>
      <trkpt lat="46.04598" lon="7.06326">
        <ele>1817</ele>
        <time>2022-08-27T22:53:58Z</time>
      </trkpt>
      <trkpt lat="46.04597" lon="7.06325">
        <ele>1817</ele>
        <time>2022-08-27T22:53:59Z</time>
      </trkpt>
      <trkpt lat="46.04596" lon="7.06324">
        <ele>1817</ele>
        <time>2022-08-27T22:54:00Z</time>
      </trkpt>
      <trkpt lat="46.04595" lon="7.06323">
        <ele>1818</ele>
        <time>2022-08-27T22:54:01Z</time>
      </trkpt>
      <trkpt lat="46.04595" lon="7.06322">
        <ele>1818</ele>
        <time>2022-08-27T22:54:02Z</time>
      </trkpt>
      <trkpt lat="46.04594" lon="7.06321">
        <ele>1818</ele>
        <time>2022-08-27T22:54:04Z</time>
      </trkpt>
      <trkpt lat="46.04593" lon="7.0632">
        <ele>1818</ele>
        <time>2022-08-27T22:54:05Z</time>
      </trkpt>
      <trkpt lat="46.04592" lon="7.06319">
        <ele>1819</ele>
        <time>2022-08-27T22:54:06Z</time>
      </trkpt>
      <trkpt lat="46.04591" lon="7.06318">
        <ele>1819</ele>
        <time>2022-08-27T22:54:07Z</time>
      </trkpt>
      <trkpt lat="46.0459" lon="7.06317">
        <ele>1819</ele>
        <time>2022-08-27T22:54:08Z</time>
      </trkpt>
      <trkpt lat="46.04589" lon="7.06316">
        <ele>1819</ele>
        <time>2022-08-27T22:54:09Z</time>
      </trkpt>
      <trkpt lat="46.04586" lon="7.06303">
        <ele>1820</ele>
        <time>2022-08-27T22:54:16Z</time>
      </trkpt>
      <trkpt lat="46.04586" lon="7.06302">
        <ele>1820</ele>
        <time>2022-08-27T22:54:17Z</time>
      </trkpt>
      <trkpt lat="46.04586" lon="7.06301">
        <ele>1820</ele>
        <time>2022-08-27T22:54:18Z</time>
      </trkpt>
      <trkpt lat="46.04586" lon="7.063">
        <ele>1820</ele>
        <time>2022-08-27T22:54:19Z</time>
      </trkpt>
      <trkpt lat="46.04586" lon="7.06299">
        <ele>1820</ele>
        <time>2022-08-27T22:54:21Z</time>
      </trkpt>
      <trkpt lat="46.04586" lon="7.06298">
        <ele>1821</ele>
        <time>2022-08-27T22:54:22Z</time>
      </trkpt>
      <trkpt lat="46.04586" lon="7.06297">
        <ele>1821</ele>
        <time>2022-08-27T22:54:23Z</time>
      </trkpt>
      <trkpt lat="46.04586" lon="7.06296">
        <ele>1821</ele>
        <time>2022-08-27T22:54:24Z</time>
      </trkpt>
      <trkpt lat="46.04586" lon="7.06295">
        <ele>1821</ele>
        <time>2022-08-27T22:54:26Z</time>
      </trkpt>
      <trkpt lat="46.04586" lon="7.06294">
        <ele>1821</ele>
        <time>2022-08-27T22:54:27Z</time>
      </trkpt>
      <trkpt lat="46.04586" lon="7.06293">
        <ele>1821</ele>
        <time>2022-08-27T22:54:28Z</time>
      </trkpt>
      <trkpt lat="46.04586" lon="7.06292">
        <ele>1822</ele>
        <time>2022-08-27T22:54:29Z</time>
      </trkpt>
      <trkpt lat="46.04586" lon="7.06291">
        <ele>1822</ele>
        <time>2022-08-27T22:54:30Z</time>
      </trkpt>
      <trkpt lat="46.04586" lon="7.0629">
        <ele>1822</ele>
        <time>2022-08-27T22:54:31Z</time>
      </trkpt>
      <trkpt lat="46.04584" lon="7.06277">
        <ele>1823</ele>
        <time>2022-08-27T22:54:39Z</time>
      </trkpt>
      <trkpt lat="46.04583" lon="7.06276">
        <ele>1823</ele>
        <time>2022-08-27T22:54:40Z</time>
      </trkpt>
      <trkpt lat="46.04583" lon="7.06275">
        <ele>1824</ele>
        <time>2022-08-27T22:54:42Z</time>
      </trkpt>
      <trkpt lat="46.04582" lon="7.06274">
        <ele>1824</ele>
        <time>2022-08-27T22:54:43Z</time>
      </trkpt>
      <trkpt lat="46.04582" lon="7.06273">
        <ele>1824</ele>
        <time>2022-08-27T22:54:44Z</time>
      </trkpt>
      <trkpt lat="46.04581" lon="7.06272">
        <ele>1824</ele>
        <time>2022-08-27T22:54:45Z</time>
      </trkpt>
      <trkpt lat="46.04581" lon="7.06271">
        <ele>1824</ele>
        <time>2022-08-27T22:54:47Z</time>
      </trkpt>
      <trkpt lat="46.0458" lon="7.0627">
        <ele>1825</ele>
        <time>2022-08-27T22:54:48Z</time>
      </trkpt>
      <trkpt lat="46.0458" lon="7.06269">
        <ele>1825</ele>
        <time>2022-08-27T22:54:49Z</time>
      </trkpt>
      <trkpt lat="46.04579" lon="7.06268">
        <ele>1825</ele>
        <time>2022-08-27T22:54:50Z</time>
      </trkpt>
      <trkpt lat="46.04579" lon="7.06267">
        <ele>1825</ele>
        <time>2022-08-27T22:54:52Z</time>
      </trkpt>
      <trkpt lat="46.04579" lon="7.06266">
        <ele>1825</ele>
        <time>2022-08-27T22:54:54Z</time>
      </trkpt>
      <trkpt lat="46.04578" lon="7.06265">
        <ele>1825</ele>
        <time>2022-08-27T22:54:55Z</time>
      </trkpt>
      <trkpt lat="46.04581" lon="7.06252">
        <ele>1826</ele>
        <time>2022-08-27T22:55:05Z</time>
      </trkpt>
      <trkpt lat="46.0458" lon="7.06251">
        <ele>1826</ele>
        <time>2022-08-27T22:55:07Z</time>
      </trkpt>
      <trkpt lat="46.0458" lon="7.0625">
        <ele>1826</ele>
        <time>2022-08-27T22:55:08Z</time>
      </trkpt>
      <trkpt lat="46.04579" lon="7.06248">
        <ele>1826</ele>
        <time>2022-08-27T22:55:09Z</time>
      </trkpt>
      <trkpt lat="46.04579" lon="7.06247">
        <ele>1826</ele>
        <time>2022-08-27T22:55:10Z</time>
      </trkpt>
      <trkpt lat="46.04579" lon="7.06246">
        <ele>1826</ele>
        <time>2022-08-27T22:55:12Z</time>
      </trkpt>
      <trkpt lat="46.04578" lon="7.06245">
        <ele>1827</ele>
        <time>2022-08-27T22:55:13Z</time>
      </trkpt>
      <trkpt lat="46.04578" lon="7.06244">
        <ele>1827</ele>
        <time>2022-08-27T22:55:14Z</time>
      </trkpt>
      <trkpt lat="46.04577" lon="7.06243">
        <ele>1827</ele>
        <time>2022-08-27T22:55:15Z</time>
      </trkpt>
      <trkpt lat="46.04577" lon="7.06241">
        <ele>1828</ele>
        <time>2022-08-27T22:55:17Z</time>
      </trkpt>
      <trkpt lat="46.04577" lon="7.0624">
        <ele>1828</ele>
        <time>2022-08-27T22:55:18Z</time>
      </trkpt>
      <trkpt lat="46.04576" lon="7.06239">
        <ele>1828</ele>
        <time>2022-08-27T22:55:19Z</time>
      </trkpt>
      <trkpt lat="46.04575" lon="7.06238">
        <ele>1828</ele>
        <time>2022-08-27T22:55:20Z</time>
      </trkpt>
      <trkpt lat="46.04574" lon="7.06237">
        <ele>1828</ele>
        <time>2022-08-27T22:55:22Z</time>
      </trkpt>
      <trkpt lat="46.04573" lon="7.06236">
        <ele>1828</ele>
        <time>2022-08-27T22:55:23Z</time>
      </trkpt>
      <trkpt lat="46.04572" lon="7.06235">
        <ele>1829</ele>
        <time>2022-08-27T22:55:24Z</time>
      </trkpt>
      <trkpt lat="46.0457" lon="7.06234">
        <ele>1830</ele>
        <time>2022-08-27T22:55:25Z</time>
      </trkpt>
      <trkpt lat="46.04569" lon="7.06233">
        <ele>1830</ele>
        <time>2022-08-27T22:55:26Z</time>
      </trkpt>
      <trkpt lat="46.04568" lon="7.06232">
        <ele>1830</ele>
        <time>2022-08-27T22:55:27Z</time>
      </trkpt>
      <trkpt lat="46.04568" lon="7.06232">
        <ele>1830</ele>
        <time>2022-08-27T22:55:28Z</time>
      </trkpt>
      <trkpt lat="46.04567" lon="7.06231">
        <ele>1830</ele>
        <time>2022-08-27T22:55:29Z</time>
      </trkpt>
      <trkpt lat="46.04567" lon="7.06231">
        <ele>1830</ele>
        <time>2022-08-27T22:55:30Z</time>
      </trkpt>
      <trkpt lat="46.04566" lon="7.0623">
        <ele>1830</ele>
        <time>2022-08-27T22:55:32Z</time>
      </trkpt>
      <trkpt lat="46.04565" lon="7.0623">
        <ele>1831</ele>
        <time>2022-08-27T22:55:34Z</time>
      </trkpt>
      <trkpt lat="46.04565" lon="7.06229">
        <ele>1832</ele>
        <time>2022-08-27T22:55:35Z</time>
      </trkpt>
      <trkpt lat="46.04564" lon="7.06229">
        <ele>1832</ele>
        <time>2022-08-27T22:55:36Z</time>
      </trkpt>
      <trkpt lat="46.04564" lon="7.06228">
        <ele>1832</ele>
        <time>2022-08-27T22:55:37Z</time>
      </trkpt>
      <trkpt lat="46.04563" lon="7.06228">
        <ele>1832</ele>
        <time>2022-08-27T22:55:39Z</time>
      </trkpt>
      <trkpt lat="46.04563" lon="7.06227">
        <ele>1832</ele>
        <time>2022-08-27T22:55:40Z</time>
      </trkpt>
      <trkpt lat="46.04562" lon="7.06227">
        <ele>1832</ele>
        <time>2022-08-27T22:55:41Z</time>
      </trkpt>
      <trkpt lat="46.04562" lon="7.06226">
        <ele>1833</ele>
        <time>2022-08-27T22:55:42Z</time>
      </trkpt>
      <trkpt lat="46.04561" lon="7.06226">
        <ele>1833</ele>
        <time>2022-08-27T22:55:43Z</time>
      </trkpt>
      <trkpt lat="46.04561" lon="7.06225">
        <ele>1833</ele>
        <time>2022-08-27T22:55:44Z</time>
      </trkpt>
      <trkpt lat="46.04559" lon="7.06224">
        <ele>1833</ele>
        <time>2022-08-27T22:55:45Z</time>
      </trkpt>
      <trkpt lat="46.04557" lon="7.06223">
        <ele>1833</ele>
        <time>2022-08-27T22:55:46Z</time>
      </trkpt>
      <trkpt lat="46.04556" lon="7.06223">
        <ele>1833</ele>
        <time>2022-08-27T22:55:47Z</time>
      </trkpt>
      <trkpt lat="46.04554" lon="7.06222">
        <ele>1834</ele>
        <time>2022-08-27T22:55:49Z</time>
      </trkpt>
      <trkpt lat="46.04553" lon="7.06221">
        <ele>1834</ele>
        <time>2022-08-27T22:55:51Z</time>
      </trkpt>
      <trkpt lat="46.04551" lon="7.0622">
        <ele>1834</ele>
        <time>2022-08-27T22:55:52Z</time>
      </trkpt>
      <trkpt lat="46.04541" lon="7.0622">
        <ele>1835</ele>
        <time>2022-08-27T22:56:02Z</time>
      </trkpt>
      <trkpt lat="46.04541" lon="7.06219">
        <ele>1835</ele>
        <time>2022-08-27T22:56:03Z</time>
      </trkpt>
      <trkpt lat="46.04541" lon="7.06218">
        <ele>1836</ele>
        <time>2022-08-27T22:56:04Z</time>
      </trkpt>
      <trkpt lat="46.04541" lon="7.06217">
        <ele>1836</ele>
        <time>2022-08-27T22:56:05Z</time>
      </trkpt>
      <trkpt lat="46.04541" lon="7.06216">
        <ele>1836</ele>
        <time>2022-08-27T22:56:07Z</time>
      </trkpt>
      <trkpt lat="46.0454" lon="7.06215">
        <ele>1836</ele>
        <time>2022-08-27T22:56:08Z</time>
      </trkpt>
      <trkpt lat="46.0454" lon="7.06214">
        <ele>1836</ele>
        <time>2022-08-27T22:56:10Z</time>
      </trkpt>
      <trkpt lat="46.0454" lon="7.06213">
        <ele>1836</ele>
        <time>2022-08-27T22:56:11Z</time>
      </trkpt>
      <trkpt lat="46.0454" lon="7.06212">
        <ele>1836</ele>
        <time>2022-08-27T22:56:12Z</time>
      </trkpt>
      <trkpt lat="46.0454" lon="7.06212">
        <ele>1836</ele>
        <time>2022-08-27T22:56:14Z</time>
      </trkpt>
      <trkpt lat="46.0454" lon="7.06211">
        <ele>1837</ele>
        <time>2022-08-27T22:56:15Z</time>
      </trkpt>
      <trkpt lat="46.04539" lon="7.0621">
        <ele>1837</ele>
        <time>2022-08-27T22:56:16Z</time>
      </trkpt>
      <trkpt lat="46.04539" lon="7.06209">
        <ele>1838</ele>
        <time>2022-08-27T22:56:17Z</time>
      </trkpt>
      <trkpt lat="46.04539" lon="7.06208">
        <ele>1838</ele>
        <time>2022-08-27T22:56:18Z</time>
      </trkpt>
      <trkpt lat="46.04539" lon="7.06207">
        <ele>1838</ele>
        <time>2022-08-27T22:56:19Z</time>
      </trkpt>
      <trkpt lat="46.04539" lon="7.06207">
        <ele>1841</ele>
        <time>2022-08-27T22:56:39Z</time>
      </trkpt>
      <trkpt lat="46.04535" lon="7.06195">
        <ele>1842</ele>
        <time>2022-08-27T22:56:41Z</time>
      </trkpt>
      <trkpt lat="46.04534" lon="7.06194">
        <ele>1842</ele>
        <time>2022-08-27T22:56:42Z</time>
      </trkpt>
      <trkpt lat="46.04534" lon="7.06194">
        <ele>1842</ele>
        <time>2022-08-27T22:56:43Z</time>
      </trkpt>
      <trkpt lat="46.04533" lon="7.06194">
        <ele>1842</ele>
        <time>2022-08-27T22:56:44Z</time>
      </trkpt>
      <trkpt lat="46.04533" lon="7.06193">
        <ele>1842</ele>
        <time>2022-08-27T22:56:46Z</time>
      </trkpt>
      <trkpt lat="46.04532" lon="7.06193">
        <ele>1842</ele>
        <time>2022-08-27T22:56:48Z</time>
      </trkpt>
      <trkpt lat="46.04531" lon="7.06193">
        <ele>1843</ele>
        <time>2022-08-27T22:56:49Z</time>
      </trkpt>
      <trkpt lat="46.04531" lon="7.06192">
        <ele>1843</ele>
        <time>2022-08-27T22:56:50Z</time>
      </trkpt>
      <trkpt lat="46.0453" lon="7.06192">
        <ele>1844</ele>
        <time>2022-08-27T22:56:52Z</time>
      </trkpt>
      <trkpt lat="46.0453" lon="7.06192">
        <ele>1844</ele>
        <time>2022-08-27T22:56:53Z</time>
      </trkpt>
      <trkpt lat="46.04529" lon="7.06191">
        <ele>1844</ele>
        <time>2022-08-27T22:56:54Z</time>
      </trkpt>
      <trkpt lat="46.04529" lon="7.06191">
        <ele>1844</ele>
        <time>2022-08-27T22:56:55Z</time>
      </trkpt>
      <trkpt lat="46.04528" lon="7.06191">
        <ele>1845</ele>
        <time>2022-08-27T22:56:57Z</time>
      </trkpt>
      <trkpt lat="46.04528" lon="7.0619">
        <ele>1845</ele>
        <time>2022-08-27T22:56:58Z</time>
      </trkpt>
      <trkpt lat="46.04527" lon="7.0619">
        <ele>1845</ele>
        <time>2022-08-27T22:56:59Z</time>
      </trkpt>
      <trkpt lat="46.04527" lon="7.06189">
        <ele>1845</ele>
        <time>2022-08-27T22:57:01Z</time>
      </trkpt>
      <trkpt lat="46.04526" lon="7.06189">
        <ele>1845</ele>
        <time>2022-08-27T22:57:02Z</time>
      </trkpt>
      <trkpt lat="46.04526" lon="7.06188">
        <ele>1846</ele>
        <time>2022-08-27T22:57:03Z</time>
      </trkpt>
      <trkpt lat="46.04525" lon="7.06188">
        <ele>1846</ele>
        <time>2022-08-27T22:57:04Z</time>
      </trkpt>
      <trkpt lat="46.04525" lon="7.06187">
        <ele>1846</ele>
        <time>2022-08-27T22:57:06Z</time>
      </trkpt>
      <trkpt lat="46.04525" lon="7.06186">
        <ele>1846</ele>
        <time>2022-08-27T22:57:07Z</time>
      </trkpt>
      <trkpt lat="46.04524" lon="7.06185">
        <ele>1846</ele>
        <time>2022-08-27T22:57:08Z</time>
      </trkpt>
      <trkpt lat="46.04524" lon="7.06184">
        <ele>1846</ele>
        <time>2022-08-27T22:57:09Z</time>
      </trkpt>
      <trkpt lat="46.04524" lon="7.06184">
        <ele>1846</ele>
        <time>2022-08-27T22:57:11Z</time>
      </trkpt>
      <trkpt lat="46.04523" lon="7.06183">
        <ele>1847</ele>
        <time>2022-08-27T22:57:12Z</time>
      </trkpt>
      <trkpt lat="46.04523" lon="7.06182">
        <ele>1847</ele>
        <time>2022-08-27T22:57:13Z</time>
      </trkpt>
      <trkpt lat="46.04523" lon="7.06181">
        <ele>1847</ele>
        <time>2022-08-27T22:57:14Z</time>
      </trkpt>
      <trkpt lat="46.04522" lon="7.0618">
        <ele>1847</ele>
        <time>2022-08-27T22:57:16Z</time>
      </trkpt>
      <trkpt lat="46.04522" lon="7.0618">
        <ele>1847</ele>
        <time>2022-08-27T22:57:17Z</time>
      </trkpt>
      <trkpt lat="46.04522" lon="7.06179">
        <ele>1848</ele>
        <time>2022-08-27T22:57:18Z</time>
      </trkpt>
      <trkpt lat="46.04521" lon="7.06178">
        <ele>1848</ele>
        <time>2022-08-27T22:57:19Z</time>
      </trkpt>
      <trkpt lat="46.04521" lon="7.06177">
        <ele>1848</ele>
        <time>2022-08-27T22:57:20Z</time>
      </trkpt>
      <trkpt lat="46.04513" lon="7.06169">
        <ele>1850</ele>
        <time>2022-08-27T22:57:30Z</time>
      </trkpt>
      <trkpt lat="46.04513" lon="7.06168">
        <ele>1850</ele>
        <time>2022-08-27T22:57:31Z</time>
      </trkpt>
      <trkpt lat="46.04512" lon="7.06167">
        <ele>1850</ele>
        <time>2022-08-27T22:57:32Z</time>
      </trkpt>
      <trkpt lat="46.04512" lon="7.06166">
        <ele>1850</ele>
        <time>2022-08-27T22:57:33Z</time>
      </trkpt>
      <trkpt lat="46.04511" lon="7.06165">
        <ele>1850</ele>
        <time>2022-08-27T22:57:35Z</time>
      </trkpt>
      <trkpt lat="46.04511" lon="7.06164">
        <ele>1851</ele>
        <time>2022-08-27T22:57:36Z</time>
      </trkpt>
      <trkpt lat="46.0451" lon="7.06163">
        <ele>1851</ele>
        <time>2022-08-27T22:57:37Z</time>
      </trkpt>
      <trkpt lat="46.0451" lon="7.06162">
        <ele>1851</ele>
        <time>2022-08-27T22:57:38Z</time>
      </trkpt>
      <trkpt lat="46.04509" lon="7.06161">
        <ele>1851</ele>
        <time>2022-08-27T22:57:40Z</time>
      </trkpt>
      <trkpt lat="46.04509" lon="7.0616">
        <ele>1852</ele>
        <time>2022-08-27T22:57:41Z</time>
      </trkpt>
      <trkpt lat="46.04508" lon="7.06159">
        <ele>1852</ele>
        <time>2022-08-27T22:57:42Z</time>
      </trkpt>
      <trkpt lat="46.04508" lon="7.06158">
        <ele>1852</ele>
        <time>2022-08-27T22:57:43Z</time>
      </trkpt>
      <trkpt lat="46.04508" lon="7.06156">
        <ele>1852</ele>
        <time>2022-08-27T22:57:45Z</time>
      </trkpt>
      <trkpt lat="46.04508" lon="7.06154">
        <ele>1853</ele>
        <time>2022-08-27T22:57:47Z</time>
      </trkpt>
      <trkpt lat="46.04507" lon="7.06152">
        <ele>1853</ele>
        <time>2022-08-27T22:57:48Z</time>
      </trkpt>
      <trkpt lat="46.04507" lon="7.0615">
        <ele>1853</ele>
        <time>2022-08-27T22:57:49Z</time>
      </trkpt>
      <trkpt lat="46.04507" lon="7.06148">
        <ele>1853</ele>
        <time>2022-08-27T22:57:50Z</time>
      </trkpt>
      <trkpt lat="46.04507" lon="7.06146">
        <ele>1853</ele>
        <time>2022-08-27T22:57:51Z</time>
      </trkpt>
      <trkpt lat="46.04507" lon="7.06145">
        <ele>1853</ele>
        <time>2022-08-27T22:57:52Z</time>
      </trkpt>
      <trkpt lat="46.04506" lon="7.06143">
        <ele>1854</ele>
        <time>2022-08-27T22:57:53Z</time>
      </trkpt>
      <trkpt lat="46.04505" lon="7.06142">
        <ele>1854</ele>
        <time>2022-08-27T22:57:54Z</time>
      </trkpt>
      <trkpt lat="46.04504" lon="7.06141">
        <ele>1854</ele>
        <time>2022-08-27T22:57:55Z</time>
      </trkpt>
      <trkpt lat="46.04503" lon="7.06139">
        <ele>1854</ele>
        <time>2022-08-27T22:57:57Z</time>
      </trkpt>
      <trkpt lat="46.04502" lon="7.06138">
        <ele>1854</ele>
        <time>2022-08-27T22:57:58Z</time>
      </trkpt>
      <trkpt lat="46.045" lon="7.06136">
        <ele>1854</ele>
        <time>2022-08-27T22:57:59Z</time>
      </trkpt>
      <trkpt lat="46.04499" lon="7.06135">
        <ele>1854</ele>
        <time>2022-08-27T22:58:00Z</time>
      </trkpt>
      <trkpt lat="46.04498" lon="7.06133">
        <ele>1854</ele>
        <time>2022-08-27T22:58:02Z</time>
      </trkpt>
      <trkpt lat="46.04497" lon="7.06131">
        <ele>1854</ele>
        <time>2022-08-27T22:58:04Z</time>
      </trkpt>
      <trkpt lat="46.04496" lon="7.06129">
        <ele>1855</ele>
        <time>2022-08-27T22:58:06Z</time>
      </trkpt>
      <trkpt lat="46.04495" lon="7.06126">
        <ele>1855</ele>
        <time>2022-08-27T22:58:07Z</time>
      </trkpt>
      <trkpt lat="46.04494" lon="7.06124">
        <ele>1855</ele>
        <time>2022-08-27T22:58:08Z</time>
      </trkpt>
      <trkpt lat="46.04493" lon="7.06123">
        <ele>1855</ele>
        <time>2022-08-27T22:58:09Z</time>
      </trkpt>
      <trkpt lat="46.04492" lon="7.06122">
        <ele>1855</ele>
        <time>2022-08-27T22:58:11Z</time>
      </trkpt>
      <trkpt lat="46.04491" lon="7.06121">
        <ele>1856</ele>
        <time>2022-08-27T22:58:12Z</time>
      </trkpt>
      <trkpt lat="46.04491" lon="7.0612">
        <ele>1856</ele>
        <time>2022-08-27T22:58:13Z</time>
      </trkpt>
      <trkpt lat="46.0449" lon="7.0612">
        <ele>1856</ele>
        <time>2022-08-27T22:58:14Z</time>
      </trkpt>
      <trkpt lat="46.04489" lon="7.06119">
        <ele>1856</ele>
        <time>2022-08-27T22:58:16Z</time>
      </trkpt>
      <trkpt lat="46.04488" lon="7.06118">
        <ele>1856</ele>
        <time>2022-08-27T22:58:18Z</time>
      </trkpt>
      <trkpt lat="46.04487" lon="7.06117">
        <ele>1858</ele>
        <time>2022-08-27T22:58:19Z</time>
      </trkpt>
      <trkpt lat="46.04486" lon="7.06116">
        <ele>1858</ele>
        <time>2022-08-27T22:58:20Z</time>
      </trkpt>
      <trkpt lat="46.04485" lon="7.06115">
        <ele>1858</ele>
        <time>2022-08-27T22:58:21Z</time>
      </trkpt>
      <trkpt lat="46.04484" lon="7.06115">
        <ele>1858</ele>
        <time>2022-08-27T22:58:23Z</time>
      </trkpt>
      <trkpt lat="46.04483" lon="7.06114">
        <ele>1859</ele>
        <time>2022-08-27T22:58:25Z</time>
      </trkpt>
      <trkpt lat="46.04483" lon="7.06113">
        <ele>1859</ele>
        <time>2022-08-27T22:58:27Z</time>
      </trkpt>
      <trkpt lat="46.04482" lon="7.06113">
        <ele>1859</ele>
        <time>2022-08-27T22:58:28Z</time>
      </trkpt>
      <trkpt lat="46.04481" lon="7.06112">
        <ele>1860</ele>
        <time>2022-08-27T22:58:29Z</time>
      </trkpt>
      <trkpt lat="46.0448" lon="7.06112">
        <ele>1860</ele>
        <time>2022-08-27T22:58:30Z</time>
      </trkpt>
      <trkpt lat="46.04479" lon="7.06111">
        <ele>1861</ele>
        <time>2022-08-27T22:58:32Z</time>
      </trkpt>
      <trkpt lat="46.04478" lon="7.0611">
        <ele>1861</ele>
        <time>2022-08-27T22:58:33Z</time>
      </trkpt>
      <trkpt lat="46.04482" lon="7.06098">
        <ele>1864</ele>
        <time>2022-08-27T22:58:52Z</time>
      </trkpt>
      <trkpt lat="46.04482" lon="7.06097">
        <ele>1864</ele>
        <time>2022-08-27T22:58:54Z</time>
      </trkpt>
      <trkpt lat="46.04482" lon="7.06096">
        <ele>1864</ele>
        <time>2022-08-27T22:58:55Z</time>
      </trkpt>
      <trkpt lat="46.04481" lon="7.06095">
        <ele>1864</ele>
        <time>2022-08-27T22:58:56Z</time>
      </trkpt>
      <trkpt lat="46.04481" lon="7.06094">
        <ele>1865</ele>
        <time>2022-08-27T22:58:57Z</time>
      </trkpt>
      <trkpt lat="46.04481" lon="7.06094">
        <ele>1865</ele>
        <time>2022-08-27T22:58:59Z</time>
      </trkpt>
      <trkpt lat="46.04481" lon="7.06093">
        <ele>1865</ele>
        <time>2022-08-27T22:59:01Z</time>
      </trkpt>
      <trkpt lat="46.04481" lon="7.06092">
        <ele>1866</ele>
        <time>2022-08-27T22:59:02Z</time>
      </trkpt>
      <trkpt lat="46.0448" lon="7.06091">
        <ele>1866</ele>
        <time>2022-08-27T22:59:03Z</time>
      </trkpt>
      <trkpt lat="46.0448" lon="7.0609">
        <ele>1866</ele>
        <time>2022-08-27T22:59:05Z</time>
      </trkpt>
      <trkpt lat="46.0448" lon="7.0609">
        <ele>1866</ele>
        <time>2022-08-27T22:59:06Z</time>
      </trkpt>
      <trkpt lat="46.0448" lon="7.06089">
        <ele>1867</ele>
        <time>2022-08-27T22:59:07Z</time>
      </trkpt>
      <trkpt lat="46.04479" lon="7.06088">
        <ele>1867</ele>
        <time>2022-08-27T22:59:08Z</time>
      </trkpt>
      <trkpt lat="46.04479" lon="7.06087">
        <ele>1867</ele>
        <time>2022-08-27T22:59:10Z</time>
      </trkpt>
      <trkpt lat="46.04479" lon="7.06086">
        <ele>1867</ele>
        <time>2022-08-27T22:59:11Z</time>
      </trkpt>
      <trkpt lat="46.04479" lon="7.06086">
        <ele>1867</ele>
        <time>2022-08-27T22:59:12Z</time>
      </trkpt>
      <trkpt lat="46.04474" lon="7.06074">
        <ele>1871</ele>
        <time>2022-08-27T22:59:32Z</time>
      </trkpt>
      <trkpt lat="46.04473" lon="7.06074">
        <ele>1871</ele>
        <time>2022-08-27T22:59:33Z</time>
      </trkpt>
      <trkpt lat="46.04472" lon="7.06074">
        <ele>1872</ele>
        <time>2022-08-27T22:59:34Z</time>
      </trkpt>
      <trkpt lat="46.04472" lon="7.06075">
        <ele>1872</ele>
        <time>2022-08-27T22:59:35Z</time>
      </trkpt>
      <trkpt lat="46.04471" lon="7.06075">
        <ele>1872</ele>
        <time>2022-08-27T22:59:37Z</time>
      </trkpt>
      <trkpt lat="46.0447" lon="7.06075">
        <ele>1872</ele>
        <time>2022-08-27T22:59:39Z</time>
      </trkpt>
      <trkpt lat="46.0447" lon="7.06075">
        <ele>1872</ele>
        <time>2022-08-27T22:59:40Z</time>
      </trkpt>
      <trkpt lat="46.04469" lon="7.06075">
        <ele>1873</ele>
        <time>2022-08-27T22:59:41Z</time>
      </trkpt>
      <trkpt lat="46.04468" lon="7.06075">
        <ele>1873</ele>
        <time>2022-08-27T22:59:43Z</time>
      </trkpt>
      <trkpt lat="46.04468" lon="7.06076">
        <ele>1873</ele>
        <time>2022-08-27T22:59:44Z</time>
      </trkpt>
      <trkpt lat="46.04467" lon="7.06076">
        <ele>1873</ele>
        <time>2022-08-27T22:59:45Z</time>
      </trkpt>
      <trkpt lat="46.04466" lon="7.06076">
        <ele>1873</ele>
        <time>2022-08-27T22:59:46Z</time>
      </trkpt>
      <trkpt lat="46.04465" lon="7.06076">
        <ele>1873</ele>
        <time>2022-08-27T22:59:47Z</time>
      </trkpt>
      <trkpt lat="46.04465" lon="7.06076">
        <ele>1874</ele>
        <time>2022-08-27T22:59:48Z</time>
      </trkpt>
      <trkpt lat="46.04464" lon="7.06076">
        <ele>1874</ele>
        <time>2022-08-27T22:59:49Z</time>
      </trkpt>
      <trkpt lat="46.04463" lon="7.06075">
        <ele>1874</ele>
        <time>2022-08-27T22:59:51Z</time>
      </trkpt>
      <trkpt lat="46.04463" lon="7.06074">
        <ele>1874</ele>
        <time>2022-08-27T22:59:52Z</time>
      </trkpt>
      <trkpt lat="46.04462" lon="7.06074">
        <ele>1874</ele>
        <time>2022-08-27T22:59:53Z</time>
      </trkpt>
      <trkpt lat="46.04461" lon="7.06073">
        <ele>1874</ele>
        <time>2022-08-27T22:59:54Z</time>
      </trkpt>
      <trkpt lat="46.04461" lon="7.06072">
        <ele>1875</ele>
        <time>2022-08-27T22:59:56Z</time>
      </trkpt>
      <trkpt lat="46.0446" lon="7.06072">
        <ele>1875</ele>
        <time>2022-08-27T22:59:58Z</time>
      </trkpt>
      <trkpt lat="46.04459" lon="7.06071">
        <ele>1875</ele>
        <time>2022-08-27T22:59:59Z</time>
      </trkpt>
      <trkpt lat="46.04459" lon="7.0607">
        <ele>1875</ele>
        <time>2022-08-27T23:00:00Z</time>
      </trkpt>
      <trkpt lat="46.04458" lon="7.0607">
        <ele>1875</ele>
        <time>2022-08-27T23:00:01Z</time>
      </trkpt>
      <trkpt lat="46.04457" lon="7.06069">
        <ele>1875</ele>
        <time>2022-08-27T23:00:02Z</time>
      </trkpt>
      <trkpt lat="46.04455" lon="7.06069">
        <ele>1876</ele>
        <time>2022-08-27T23:00:10Z</time>
      </trkpt>
      <trkpt lat="46.04453" lon="7.06069">
        <ele>1877</ele>
        <time>2022-08-27T23:00:14Z</time>
      </trkpt>
      <trkpt lat="46.04452" lon="7.06068">
        <ele>1877</ele>
        <time>2022-08-27T23:00:15Z</time>
      </trkpt>
      <trkpt lat="46.04451" lon="7.06066">
        <ele>1878</ele>
        <time>2022-08-27T23:00:17Z</time>
      </trkpt>
      <trkpt lat="46.0445" lon="7.06065">
        <ele>1878</ele>
        <time>2022-08-27T23:00:18Z</time>
      </trkpt>
      <trkpt lat="46.0445" lon="7.06064">
        <ele>1878</ele>
        <time>2022-08-27T23:00:19Z</time>
      </trkpt>
      <trkpt lat="46.04449" lon="7.06065">
        <ele>1878</ele>
        <time>2022-08-27T23:00:21Z</time>
      </trkpt>
      <trkpt lat="46.04448" lon="7.06066">
        <ele>1879</ele>
        <time>2022-08-27T23:00:22Z</time>
      </trkpt>
      <trkpt lat="46.04447" lon="7.06067">
        <ele>1879</ele>
        <time>2022-08-27T23:00:23Z</time>
      </trkpt>
      <trkpt lat="46.04447" lon="7.06068">
        <ele>1879</ele>
        <time>2022-08-27T23:00:24Z</time>
      </trkpt>
      <trkpt lat="46.04446" lon="7.06069">
        <ele>1880</ele>
        <time>2022-08-27T23:00:26Z</time>
      </trkpt>
      <trkpt lat="46.04445" lon="7.0607">
        <ele>1880</ele>
        <time>2022-08-27T23:00:27Z</time>
      </trkpt>
      <trkpt lat="46.04445" lon="7.06071">
        <ele>1880</ele>
        <time>2022-08-27T23:00:28Z</time>
      </trkpt>
      <trkpt lat="46.04444" lon="7.06072">
        <ele>1880</ele>
        <time>2022-08-27T23:00:29Z</time>
      </trkpt>
      <trkpt lat="46.04443" lon="7.06073">
        <ele>1880</ele>
        <time>2022-08-27T23:00:31Z</time>
      </trkpt>
      <trkpt lat="46.04443" lon="7.06074">
        <ele>1881</ele>
        <time>2022-08-27T23:00:32Z</time>
      </trkpt>
      <trkpt lat="46.04442" lon="7.06074">
        <ele>1881</ele>
        <time>2022-08-27T23:00:33Z</time>
      </trkpt>
      <trkpt lat="46.04442" lon="7.06075">
        <ele>1881</ele>
        <time>2022-08-27T23:00:34Z</time>
      </trkpt>
      <trkpt lat="46.04441" lon="7.06075">
        <ele>1881</ele>
        <time>2022-08-27T23:00:36Z</time>
      </trkpt>
      <trkpt lat="46.04441" lon="7.06076">
        <ele>1882</ele>
        <time>2022-08-27T23:00:38Z</time>
      </trkpt>
      <trkpt lat="46.04441" lon="7.06076">
        <ele>1882</ele>
        <time>2022-08-27T23:00:39Z</time>
      </trkpt>
      <trkpt lat="46.0444" lon="7.06077">
        <ele>1882</ele>
        <time>2022-08-27T23:00:40Z</time>
      </trkpt>
      <trkpt lat="46.0444" lon="7.06077">
        <ele>1882</ele>
        <time>2022-08-27T23:00:41Z</time>
      </trkpt>
      <trkpt lat="46.04439" lon="7.06078">
        <ele>1883</ele>
        <time>2022-08-27T23:00:43Z</time>
      </trkpt>
      <trkpt lat="46.04439" lon="7.06078">
        <ele>1883</ele>
        <time>2022-08-27T23:00:44Z</time>
      </trkpt>
      <trkpt lat="46.04439" lon="7.06079">
        <ele>1883</ele>
        <time>2022-08-27T23:00:45Z</time>
      </trkpt>
      <trkpt lat="46.04438" lon="7.06079">
        <ele>1883</ele>
        <time>2022-08-27T23:00:46Z</time>
      </trkpt>
      <trkpt lat="46.04438" lon="7.0608">
        <ele>1883</ele>
        <time>2022-08-27T23:00:48Z</time>
      </trkpt>
      <trkpt lat="46.04437" lon="7.0608">
        <ele>1883</ele>
        <time>2022-08-27T23:00:49Z</time>
      </trkpt>
      <trkpt lat="46.04437" lon="7.06081">
        <ele>1883</ele>
        <time>2022-08-27T23:00:50Z</time>
      </trkpt>
      <trkpt lat="46.04436" lon="7.06081">
        <ele>1884</ele>
        <time>2022-08-27T23:00:51Z</time>
      </trkpt>
      <trkpt lat="46.04436" lon="7.06082">
        <ele>1884</ele>
        <time>2022-08-27T23:00:52Z</time>
      </trkpt>
      <trkpt lat="46.04436" lon="7.06082">
        <ele>1885</ele>
        <time>2022-08-27T23:00:53Z</time>
      </trkpt>
      <trkpt lat="46.04435" lon="7.06083">
        <ele>1885</ele>
        <time>2022-08-27T23:00:55Z</time>
      </trkpt>
      <trkpt lat="46.04435" lon="7.06083">
        <ele>1885</ele>
        <time>2022-08-27T23:00:56Z</time>
      </trkpt>
      <trkpt lat="46.04434" lon="7.06084">
        <ele>1885</ele>
        <time>2022-08-27T23:00:57Z</time>
      </trkpt>
      <trkpt lat="46.04434" lon="7.06084">
        <ele>1886</ele>
        <time>2022-08-27T23:00:59Z</time>
      </trkpt>
      <trkpt lat="46.04433" lon="7.06084">
        <ele>1886</ele>
        <time>2022-08-27T23:01:00Z</time>
      </trkpt>
      <trkpt lat="46.04433" lon="7.06085">
        <ele>1886</ele>
        <time>2022-08-27T23:01:01Z</time>
      </trkpt>
      <trkpt lat="46.04432" lon="7.06085">
        <ele>1886</ele>
        <time>2022-08-27T23:01:02Z</time>
      </trkpt>
      <trkpt lat="46.04432" lon="7.06085">
        <ele>1886</ele>
        <time>2022-08-27T23:01:04Z</time>
      </trkpt>
      <trkpt lat="46.04431" lon="7.06086">
        <ele>1886</ele>
        <time>2022-08-27T23:01:05Z</time>
      </trkpt>
      <trkpt lat="46.04431" lon="7.06086">
        <ele>1887</ele>
        <time>2022-08-27T23:01:06Z</time>
      </trkpt>
      <trkpt lat="46.04431" lon="7.06087">
        <ele>1887</ele>
        <time>2022-08-27T23:01:07Z</time>
      </trkpt>
      <trkpt lat="46.0443" lon="7.06087">
        <ele>1887</ele>
        <time>2022-08-27T23:01:09Z</time>
      </trkpt>
      <trkpt lat="46.0443" lon="7.06087">
        <ele>1887</ele>
        <time>2022-08-27T23:01:10Z</time>
      </trkpt>
      <trkpt lat="46.04429" lon="7.06088">
        <ele>1888</ele>
        <time>2022-08-27T23:01:11Z</time>
      </trkpt>
      <trkpt lat="46.04429" lon="7.06088">
        <ele>1888</ele>
        <time>2022-08-27T23:01:12Z</time>
      </trkpt>
      <trkpt lat="46.04428" lon="7.06088">
        <ele>1888</ele>
        <time>2022-08-27T23:01:14Z</time>
      </trkpt>
      <trkpt lat="46.04428" lon="7.06089">
        <ele>1889</ele>
        <time>2022-08-27T23:01:15Z</time>
      </trkpt>
      <trkpt lat="46.04427" lon="7.06088">
        <ele>1889</ele>
        <time>2022-08-27T23:01:16Z</time>
      </trkpt>
      <trkpt lat="46.04426" lon="7.06088">
        <ele>1889</ele>
        <time>2022-08-27T23:01:17Z</time>
      </trkpt>
      <trkpt lat="46.04426" lon="7.06087">
        <ele>1889</ele>
        <time>2022-08-27T23:01:18Z</time>
      </trkpt>
      <trkpt lat="46.04425" lon="7.06087">
        <ele>1890</ele>
        <time>2022-08-27T23:01:20Z</time>
      </trkpt>
      <trkpt lat="46.04424" lon="7.06086">
        <ele>1890</ele>
        <time>2022-08-27T23:01:21Z</time>
      </trkpt>
      <trkpt lat="46.04424" lon="7.06086">
        <ele>1890</ele>
        <time>2022-08-27T23:01:22Z</time>
      </trkpt>
      <trkpt lat="46.04423" lon="7.06085">
        <ele>1890</ele>
        <time>2022-08-27T23:01:23Z</time>
      </trkpt>
      <trkpt lat="46.04422" lon="7.06085">
        <ele>1890</ele>
        <time>2022-08-27T23:01:24Z</time>
      </trkpt>
      <trkpt lat="46.04422" lon="7.06084">
        <ele>1890</ele>
        <time>2022-08-27T23:01:25Z</time>
      </trkpt>
      <trkpt lat="46.04421" lon="7.06084">
        <ele>1890</ele>
        <time>2022-08-27T23:01:27Z</time>
      </trkpt>
      <trkpt lat="46.0442" lon="7.06083">
        <ele>1890</ele>
        <time>2022-08-27T23:01:28Z</time>
      </trkpt>
      <trkpt lat="46.0442" lon="7.06083">
        <ele>1890</ele>
        <time>2022-08-27T23:01:29Z</time>
      </trkpt>
      <trkpt lat="46.04419" lon="7.06082">
        <ele>1890</ele>
        <time>2022-08-27T23:01:30Z</time>
      </trkpt>
      <trkpt lat="46.04419" lon="7.06082">
        <ele>1890</ele>
        <time>2022-08-27T23:01:32Z</time>
      </trkpt>
      <trkpt lat="46.04418" lon="7.06082">
        <ele>1891</ele>
        <time>2022-08-27T23:01:33Z</time>
      </trkpt>
      <trkpt lat="46.04417" lon="7.06082">
        <ele>1891</ele>
        <time>2022-08-27T23:01:34Z</time>
      </trkpt>
      <trkpt lat="46.04417" lon="7.06081">
        <ele>1891</ele>
        <time>2022-08-27T23:01:36Z</time>
      </trkpt>
      <trkpt lat="46.04416" lon="7.06081">
        <ele>1891</ele>
        <time>2022-08-27T23:01:37Z</time>
      </trkpt>
      <trkpt lat="46.04416" lon="7.06081">
        <ele>1891</ele>
        <time>2022-08-27T23:01:38Z</time>
      </trkpt>
      <trkpt lat="46.04415" lon="7.06081">
        <ele>1892</ele>
        <time>2022-08-27T23:01:39Z</time>
      </trkpt>
      <trkpt lat="46.04415" lon="7.0608">
        <ele>1893</ele>
        <time>2022-08-27T23:01:41Z</time>
      </trkpt>
      <trkpt lat="46.04414" lon="7.0608">
        <ele>1893</ele>
        <time>2022-08-27T23:01:42Z</time>
      </trkpt>
      <trkpt lat="46.04413" lon="7.0608">
        <ele>1893</ele>
        <time>2022-08-27T23:01:43Z</time>
      </trkpt>
      <trkpt lat="46.04413" lon="7.0608">
        <ele>1894</ele>
        <time>2022-08-27T23:01:44Z</time>
      </trkpt>
      <trkpt lat="46.04412" lon="7.06079">
        <ele>1894</ele>
        <time>2022-08-27T23:01:46Z</time>
      </trkpt>
      <trkpt lat="46.04412" lon="7.06079">
        <ele>1894</ele>
        <time>2022-08-27T23:01:47Z</time>
      </trkpt>
      <trkpt lat="46.04411" lon="7.06079">
        <ele>1894</ele>
        <time>2022-08-27T23:01:48Z</time>
      </trkpt>
      <trkpt lat="46.04411" lon="7.06078">
        <ele>1894</ele>
        <time>2022-08-27T23:01:49Z</time>
      </trkpt>
      <trkpt lat="46.0441" lon="7.06078">
        <ele>1895</ele>
        <time>2022-08-27T23:01:51Z</time>
      </trkpt>
      <trkpt lat="46.0441" lon="7.06077">
        <ele>1895</ele>
        <time>2022-08-27T23:01:52Z</time>
      </trkpt>
      <trkpt lat="46.0441" lon="7.06077">
        <ele>1895</ele>
        <time>2022-08-27T23:01:53Z</time>
      </trkpt>
      <trkpt lat="46.04409" lon="7.06076">
        <ele>1895</ele>
        <time>2022-08-27T23:01:54Z</time>
      </trkpt>
      <trkpt lat="46.04409" lon="7.06075">
        <ele>1896</ele>
        <time>2022-08-27T23:01:56Z</time>
      </trkpt>
      <trkpt lat="46.04409" lon="7.06075">
        <ele>1896</ele>
        <time>2022-08-27T23:01:57Z</time>
      </trkpt>
      <trkpt lat="46.04408" lon="7.06074">
        <ele>1896</ele>
        <time>2022-08-27T23:01:58Z</time>
      </trkpt>
      <trkpt lat="46.04408" lon="7.06074">
        <ele>1896</ele>
        <time>2022-08-27T23:01:59Z</time>
      </trkpt>
      <trkpt lat="46.04407" lon="7.06073">
        <ele>1897</ele>
        <time>2022-08-27T23:02:01Z</time>
      </trkpt>
      <trkpt lat="46.04407" lon="7.06073">
        <ele>1897</ele>
        <time>2022-08-27T23:02:02Z</time>
      </trkpt>
      <trkpt lat="46.04406" lon="7.0607">
        <ele>1897</ele>
        <time>2022-08-27T23:02:05Z</time>
      </trkpt>
      <trkpt lat="46.04405" lon="7.06066">
        <ele>1897</ele>
        <time>2022-08-27T23:02:08Z</time>
      </trkpt>
      <trkpt lat="46.04404" lon="7.06063">
        <ele>1897</ele>
        <time>2022-08-27T23:02:12Z</time>
      </trkpt>
      <trkpt lat="46.04403" lon="7.0606">
        <ele>1898</ele>
        <time>2022-08-27T23:02:16Z</time>
      </trkpt>
      <trkpt lat="46.04403" lon="7.06057">
        <ele>1898</ele>
        <time>2022-08-27T23:02:19Z</time>
      </trkpt>
      <trkpt lat="46.04401" lon="7.06055">
        <ele>1900</ele>
        <time>2022-08-27T23:02:22Z</time>
      </trkpt>
      <trkpt lat="46.04401" lon="7.06054">
        <ele>1900</ele>
        <time>2022-08-27T23:02:24Z</time>
      </trkpt>
      <trkpt lat="46.044" lon="7.06053">
        <ele>1900</ele>
        <time>2022-08-27T23:02:25Z</time>
      </trkpt>
      <trkpt lat="46.044" lon="7.06052">
        <ele>1900</ele>
        <time>2022-08-27T23:02:26Z</time>
      </trkpt>
      <trkpt lat="46.04399" lon="7.06051">
        <ele>1900</ele>
        <time>2022-08-27T23:02:28Z</time>
      </trkpt>
      <trkpt lat="46.04399" lon="7.0605">
        <ele>1900</ele>
        <time>2022-08-27T23:02:30Z</time>
      </trkpt>
      <trkpt lat="46.04398" lon="7.06049">
        <ele>1900</ele>
        <time>2022-08-27T23:02:31Z</time>
      </trkpt>
      <trkpt lat="46.04397" lon="7.06048">
        <ele>1900</ele>
        <time>2022-08-27T23:02:32Z</time>
      </trkpt>
      <trkpt lat="46.04397" lon="7.06047">
        <ele>1901</ele>
        <time>2022-08-27T23:02:34Z</time>
      </trkpt>
      <trkpt lat="46.04396" lon="7.06046">
        <ele>1901</ele>
        <time>2022-08-27T23:02:35Z</time>
      </trkpt>
      <trkpt lat="46.04396" lon="7.06045">
        <ele>1901</ele>
        <time>2022-08-27T23:02:36Z</time>
      </trkpt>
      <trkpt lat="46.04396" lon="7.06043">
        <ele>1901</ele>
        <time>2022-08-27T23:02:37Z</time>
      </trkpt>
      <trkpt lat="46.04395" lon="7.06042">
        <ele>1901</ele>
        <time>2022-08-27T23:02:39Z</time>
      </trkpt>
      <trkpt lat="46.04395" lon="7.0604">
        <ele>1901</ele>
        <time>2022-08-27T23:02:40Z</time>
      </trkpt>
      <trkpt lat="46.04395" lon="7.06039">
        <ele>1902</ele>
        <time>2022-08-27T23:02:41Z</time>
      </trkpt>
      <trkpt lat="46.04394" lon="7.06037">
        <ele>1902</ele>
        <time>2022-08-27T23:02:42Z</time>
      </trkpt>
      <trkpt lat="46.04394" lon="7.06036">
        <ele>1903</ele>
        <time>2022-08-27T23:02:44Z</time>
      </trkpt>
      <trkpt lat="46.04394" lon="7.06034">
        <ele>1903</ele>
        <time>2022-08-27T23:02:45Z</time>
      </trkpt>
      <trkpt lat="46.04393" lon="7.06033">
        <ele>1903</ele>
        <time>2022-08-27T23:02:46Z</time>
      </trkpt>
      <trkpt lat="46.04393" lon="7.06032">
        <ele>1903</ele>
        <time>2022-08-27T23:02:47Z</time>
      </trkpt>
      <trkpt lat="46.04392" lon="7.06031">
        <ele>1903</ele>
        <time>2022-08-27T23:02:49Z</time>
      </trkpt>
      <trkpt lat="46.04392" lon="7.0603">
        <ele>1904</ele>
        <time>2022-08-27T23:02:50Z</time>
      </trkpt>
      <trkpt lat="46.04391" lon="7.06029">
        <ele>1904</ele>
        <time>2022-08-27T23:02:51Z</time>
      </trkpt>
      <trkpt lat="46.0439" lon="7.06028">
        <ele>1904</ele>
        <time>2022-08-27T23:02:53Z</time>
      </trkpt>
      <trkpt lat="46.0439" lon="7.06027">
        <ele>1905</ele>
        <time>2022-08-27T23:02:54Z</time>
      </trkpt>
      <trkpt lat="46.04389" lon="7.06026">
        <ele>1905</ele>
        <time>2022-08-27T23:02:55Z</time>
      </trkpt>
      <trkpt lat="46.04389" lon="7.06025">
        <ele>1905</ele>
        <time>2022-08-27T23:02:56Z</time>
      </trkpt>
      <trkpt lat="46.04388" lon="7.06024">
        <ele>1905</ele>
        <time>2022-08-27T23:02:58Z</time>
      </trkpt>
      <trkpt lat="46.04387" lon="7.06023">
        <ele>1905</ele>
        <time>2022-08-27T23:02:59Z</time>
      </trkpt>
      <trkpt lat="46.04386" lon="7.06019">
        <ele>1906</ele>
        <time>2022-08-27T23:03:03Z</time>
      </trkpt>
      <trkpt lat="46.04382" lon="7.06006">
        <ele>1907</ele>
        <time>2022-08-27T23:03:15Z</time>
      </trkpt>
      <trkpt lat="46.04382" lon="7.06006">
        <ele>1907</ele>
        <time>2022-08-27T23:03:16Z</time>
      </trkpt>
      <trkpt lat="46.04383" lon="7.06005">
        <ele>1907</ele>
        <time>2022-08-27T23:03:17Z</time>
      </trkpt>
      <trkpt lat="46.04383" lon="7.06005">
        <ele>1907</ele>
        <time>2022-08-27T23:03:18Z</time>
      </trkpt>
      <trkpt lat="46.04383" lon="7.06004">
        <ele>1907</ele>
        <time>2022-08-27T23:03:20Z</time>
      </trkpt>
      <trkpt lat="46.04384" lon="7.06004">
        <ele>1907</ele>
        <time>2022-08-27T23:03:21Z</time>
      </trkpt>
      <trkpt lat="46.04384" lon="7.06003">
        <ele>1907</ele>
        <time>2022-08-27T23:03:22Z</time>
      </trkpt>
      <trkpt lat="46.04384" lon="7.06003">
        <ele>1907</ele>
        <time>2022-08-27T23:03:23Z</time>
      </trkpt>
      <trkpt lat="46.04384" lon="7.06003">
        <ele>1907</ele>
        <time>2022-08-27T23:03:24Z</time>
      </trkpt>
      <trkpt lat="46.04385" lon="7.06002">
        <ele>1907</ele>
        <time>2022-08-27T23:03:25Z</time>
      </trkpt>
      <trkpt lat="46.04385" lon="7.06002">
        <ele>1907</ele>
        <time>2022-08-27T23:03:27Z</time>
      </trkpt>
      <trkpt lat="46.04385" lon="7.06001">
        <ele>1907</ele>
        <time>2022-08-27T23:03:28Z</time>
      </trkpt>
      <trkpt lat="46.04386" lon="7.06001">
        <ele>1907</ele>
        <time>2022-08-27T23:03:29Z</time>
      </trkpt>
      <trkpt lat="46.04386" lon="7.06">
        <ele>1908</ele>
        <time>2022-08-27T23:03:30Z</time>
      </trkpt>
      <trkpt lat="46.04386" lon="7.06">
        <ele>1908</ele>
        <time>2022-08-27T23:03:32Z</time>
      </trkpt>
      <trkpt lat="46.04387" lon="7.06">
        <ele>1908</ele>
        <time>2022-08-27T23:03:33Z</time>
      </trkpt>
      <trkpt lat="46.04387" lon="7.05999">
        <ele>1908</ele>
        <time>2022-08-27T23:03:34Z</time>
      </trkpt>
      <trkpt lat="46.04387" lon="7.05999">
        <ele>1908</ele>
        <time>2022-08-27T23:03:35Z</time>
      </trkpt>
      <trkpt lat="46.04387" lon="7.05998">
        <ele>1907</ele>
        <time>2022-08-27T23:03:37Z</time>
      </trkpt>
      <trkpt lat="46.04388" lon="7.05998">
        <ele>1907</ele>
        <time>2022-08-27T23:03:39Z</time>
      </trkpt>
      <trkpt lat="46.04388" lon="7.05997">
        <ele>1907</ele>
        <time>2022-08-27T23:03:40Z</time>
      </trkpt>
      <trkpt lat="46.04388" lon="7.05997">
        <ele>1907</ele>
        <time>2022-08-27T23:03:41Z</time>
      </trkpt>
      <trkpt lat="46.04389" lon="7.05997">
        <ele>1908</ele>
        <time>2022-08-27T23:03:42Z</time>
      </trkpt>
      <trkpt lat="46.04395" lon="7.05988">
        <ele>1909</ele>
        <time>2022-08-27T23:03:50Z</time>
      </trkpt>
      <trkpt lat="46.04396" lon="7.05987">
        <ele>1909</ele>
        <time>2022-08-27T23:03:51Z</time>
      </trkpt>
      <trkpt lat="46.04396" lon="7.05986">
        <ele>1909</ele>
        <time>2022-08-27T23:03:53Z</time>
      </trkpt>
      <trkpt lat="46.04396" lon="7.05985">
        <ele>1909</ele>
        <time>2022-08-27T23:03:54Z</time>
      </trkpt>
      <trkpt lat="46.04397" lon="7.05984">
        <ele>1910</ele>
        <time>2022-08-27T23:03:55Z</time>
      </trkpt>
      <trkpt lat="46.04397" lon="7.05984">
        <ele>1910</ele>
        <time>2022-08-27T23:03:56Z</time>
      </trkpt>
      <trkpt lat="46.04397" lon="7.05983">
        <ele>1910</ele>
        <time>2022-08-27T23:03:58Z</time>
      </trkpt>
      <trkpt lat="46.04398" lon="7.05982">
        <ele>1910</ele>
        <time>2022-08-27T23:04:00Z</time>
      </trkpt>
      <trkpt lat="46.04398" lon="7.05981">
        <ele>1910</ele>
        <time>2022-08-27T23:04:01Z</time>
      </trkpt>
      <trkpt lat="46.04398" lon="7.0598">
        <ele>1911</ele>
        <time>2022-08-27T23:04:02Z</time>
      </trkpt>
      <trkpt lat="46.04399" lon="7.0598">
        <ele>1911</ele>
        <time>2022-08-27T23:04:03Z</time>
      </trkpt>
      <trkpt lat="46.04399" lon="7.05979">
        <ele>1911</ele>
        <time>2022-08-27T23:04:05Z</time>
      </trkpt>
      <trkpt lat="46.04399" lon="7.05978">
        <ele>1911</ele>
        <time>2022-08-27T23:04:06Z</time>
      </trkpt>
      <trkpt lat="46.044" lon="7.05977">
        <ele>1911</ele>
        <time>2022-08-27T23:04:07Z</time>
      </trkpt>
      <trkpt lat="46.044" lon="7.05977">
        <ele>1911</ele>
        <time>2022-08-27T23:04:08Z</time>
      </trkpt>
      <trkpt lat="46.044" lon="7.05975">
        <ele>1912</ele>
        <time>2022-08-27T23:04:09Z</time>
      </trkpt>
      <trkpt lat="46.044" lon="7.05974">
        <ele>1912</ele>
        <time>2022-08-27T23:04:10Z</time>
      </trkpt>
      <trkpt lat="46.04401" lon="7.05973">
        <ele>1912</ele>
        <time>2022-08-27T23:04:11Z</time>
      </trkpt>
      <trkpt lat="46.04401" lon="7.05972">
        <ele>1913</ele>
        <time>2022-08-27T23:04:13Z</time>
      </trkpt>
      <trkpt lat="46.04401" lon="7.05971">
        <ele>1913</ele>
        <time>2022-08-27T23:04:15Z</time>
      </trkpt>
      <trkpt lat="46.04401" lon="7.0597">
        <ele>1913</ele>
        <time>2022-08-27T23:04:16Z</time>
      </trkpt>
      <trkpt lat="46.04401" lon="7.05969">
        <ele>1914</ele>
        <time>2022-08-27T23:04:18Z</time>
      </trkpt>
      <trkpt lat="46.04401" lon="7.05968">
        <ele>1914</ele>
        <time>2022-08-27T23:04:20Z</time>
      </trkpt>
      <trkpt lat="46.04402" lon="7.05967">
        <ele>1914</ele>
        <time>2022-08-27T23:04:21Z</time>
      </trkpt>
      <trkpt lat="46.04402" lon="7.05965">
        <ele>1914</ele>
        <time>2022-08-27T23:04:22Z</time>
      </trkpt>
      <trkpt lat="46.04402" lon="7.05964">
        <ele>1914</ele>
        <time>2022-08-27T23:04:24Z</time>
      </trkpt>
      <trkpt lat="46.04402" lon="7.05963">
        <ele>1915</ele>
        <time>2022-08-27T23:04:25Z</time>
      </trkpt>
      <trkpt lat="46.04393" lon="7.05966">
        <ele>1918</ele>
        <time>2022-08-27T23:04:45Z</time>
      </trkpt>
      <trkpt lat="46.04392" lon="7.05966">
        <ele>1919</ele>
        <time>2022-08-27T23:04:46Z</time>
      </trkpt>
      <trkpt lat="46.04392" lon="7.05965">
        <ele>1919</ele>
        <time>2022-08-27T23:04:47Z</time>
      </trkpt>
      <trkpt lat="46.04391" lon="7.05965">
        <ele>1919</ele>
        <time>2022-08-27T23:04:48Z</time>
      </trkpt>
      <trkpt lat="46.04391" lon="7.05965">
        <ele>1919</ele>
        <time>2022-08-27T23:04:50Z</time>
      </trkpt>
      <trkpt lat="46.0439" lon="7.05964">
        <ele>1919</ele>
        <time>2022-08-27T23:04:51Z</time>
      </trkpt>
      <trkpt lat="46.0439" lon="7.05964">
        <ele>1919</ele>
        <time>2022-08-27T23:04:53Z</time>
      </trkpt>
      <trkpt lat="46.04389" lon="7.05963">
        <ele>1919</ele>
        <time>2022-08-27T23:04:54Z</time>
      </trkpt>
      <trkpt lat="46.04388" lon="7.05963">
        <ele>1920</ele>
        <time>2022-08-27T23:04:55Z</time>
      </trkpt>
      <trkpt lat="46.04388" lon="7.05962">
        <ele>1920</ele>
        <time>2022-08-27T23:04:57Z</time>
      </trkpt>
      <trkpt lat="46.04387" lon="7.05962">
        <ele>1920</ele>
        <time>2022-08-27T23:04:58Z</time>
      </trkpt>
      <trkpt lat="46.04387" lon="7.05962">
        <ele>1921</ele>
        <time>2022-08-27T23:04:59Z</time>
      </trkpt>
      <trkpt lat="46.04386" lon="7.05961">
        <ele>1921</ele>
        <time>2022-08-27T23:05:00Z</time>
      </trkpt>
      <trkpt lat="46.04386" lon="7.05961">
        <ele>1921</ele>
        <time>2022-08-27T23:05:02Z</time>
      </trkpt>
      <trkpt lat="46.04385" lon="7.0596">
        <ele>1921</ele>
        <time>2022-08-27T23:05:03Z</time>
      </trkpt>
      <trkpt lat="46.04385" lon="7.0596">
        <ele>1921</ele>
        <time>2022-08-27T23:05:04Z</time>
      </trkpt>
      <trkpt lat="46.04385" lon="7.05959">
        <ele>1922</ele>
        <time>2022-08-27T23:05:05Z</time>
      </trkpt>
      <trkpt lat="46.04384" lon="7.05958">
        <ele>1922</ele>
        <time>2022-08-27T23:05:06Z</time>
      </trkpt>
      <trkpt lat="46.04384" lon="7.05958">
        <ele>1922</ele>
        <time>2022-08-27T23:05:07Z</time>
      </trkpt>
      <trkpt lat="46.04384" lon="7.05957">
        <ele>1922</ele>
        <time>2022-08-27T23:05:09Z</time>
      </trkpt>
      <trkpt lat="46.04384" lon="7.05956">
        <ele>1922</ele>
        <time>2022-08-27T23:05:10Z</time>
      </trkpt>
      <trkpt lat="46.04384" lon="7.05955">
        <ele>1923</ele>
        <time>2022-08-27T23:05:11Z</time>
      </trkpt>
      <trkpt lat="46.04384" lon="7.05954">
        <ele>1923</ele>
        <time>2022-08-27T23:05:12Z</time>
      </trkpt>
      <trkpt lat="46.04384" lon="7.05954">
        <ele>1923</ele>
        <time>2022-08-27T23:05:14Z</time>
      </trkpt>
      <trkpt lat="46.04384" lon="7.05953">
        <ele>1924</ele>
        <time>2022-08-27T23:05:15Z</time>
      </trkpt>
      <trkpt lat="46.04384" lon="7.05952">
        <ele>1924</ele>
        <time>2022-08-27T23:05:16Z</time>
      </trkpt>
      <trkpt lat="46.04384" lon="7.05951">
        <ele>1924</ele>
        <time>2022-08-27T23:05:17Z</time>
      </trkpt>
      <trkpt lat="46.04384" lon="7.0595">
        <ele>1924</ele>
        <time>2022-08-27T23:05:19Z</time>
      </trkpt>
      <trkpt lat="46.04384" lon="7.05949">
        <ele>1924</ele>
        <time>2022-08-27T23:05:21Z</time>
      </trkpt>
      <trkpt lat="46.04384" lon="7.05949">
        <ele>1924</ele>
        <time>2022-08-27T23:05:22Z</time>
      </trkpt>
      <trkpt lat="46.04384" lon="7.05948">
        <ele>1924</ele>
        <time>2022-08-27T23:05:23Z</time>
      </trkpt>
      <trkpt lat="46.04384" lon="7.05947">
        <ele>1924</ele>
        <time>2022-08-27T23:05:24Z</time>
      </trkpt>
      <trkpt lat="46.04384" lon="7.05946">
        <ele>1924</ele>
        <time>2022-08-27T23:05:25Z</time>
      </trkpt>
      <trkpt lat="46.04384" lon="7.05945">
        <ele>1924</ele>
        <time>2022-08-27T23:05:26Z</time>
      </trkpt>
      <trkpt lat="46.04385" lon="7.05944">
        <ele>1924</ele>
        <time>2022-08-27T23:05:27Z</time>
      </trkpt>
      <trkpt lat="46.04386" lon="7.05943">
        <ele>1924</ele>
        <time>2022-08-27T23:05:28Z</time>
      </trkpt>
      <trkpt lat="46.04386" lon="7.05942">
        <ele>1924</ele>
        <time>2022-08-27T23:05:30Z</time>
      </trkpt>
      <trkpt lat="46.04387" lon="7.05941">
        <ele>1925</ele>
        <time>2022-08-27T23:05:31Z</time>
      </trkpt>
      <trkpt lat="46.04388" lon="7.0594">
        <ele>1925</ele>
        <time>2022-08-27T23:05:32Z</time>
      </trkpt>
      <trkpt lat="46.04389" lon="7.05939">
        <ele>1925</ele>
        <time>2022-08-27T23:05:33Z</time>
      </trkpt>
      <trkpt lat="46.04389" lon="7.05938">
        <ele>1925</ele>
        <time>2022-08-27T23:05:35Z</time>
      </trkpt>
      <trkpt lat="46.0439" lon="7.05936">
        <ele>1925</ele>
        <time>2022-08-27T23:05:36Z</time>
      </trkpt>
      <trkpt lat="46.0439" lon="7.05936">
        <ele>1925</ele>
        <time>2022-08-27T23:05:37Z</time>
      </trkpt>
      <trkpt lat="46.04391" lon="7.05935">
        <ele>1925</ele>
        <time>2022-08-27T23:05:38Z</time>
      </trkpt>
      <trkpt lat="46.04391" lon="7.05934">
        <ele>1925</ele>
        <time>2022-08-27T23:05:40Z</time>
      </trkpt>
      <trkpt lat="46.04391" lon="7.05934">
        <ele>1925</ele>
        <time>2022-08-27T23:05:41Z</time>
      </trkpt>
      <trkpt lat="46.04392" lon="7.05933">
        <ele>1925</ele>
        <time>2022-08-27T23:05:42Z</time>
      </trkpt>
      <trkpt lat="46.04392" lon="7.05932">
        <ele>1926</ele>
        <time>2022-08-27T23:05:44Z</time>
      </trkpt>
      <trkpt lat="46.04392" lon="7.05931">
        <ele>1926</ele>
        <time>2022-08-27T23:05:45Z</time>
      </trkpt>
      <trkpt lat="46.04393" lon="7.05931">
        <ele>1926</ele>
        <time>2022-08-27T23:05:46Z</time>
      </trkpt>
      <trkpt lat="46.04393" lon="7.0593">
        <ele>1926</ele>
        <time>2022-08-27T23:05:47Z</time>
      </trkpt>
      <trkpt lat="46.04393" lon="7.05929">
        <ele>1927</ele>
        <time>2022-08-27T23:05:49Z</time>
      </trkpt>
      <trkpt lat="46.04394" lon="7.05929">
        <ele>1927</ele>
        <time>2022-08-27T23:05:50Z</time>
      </trkpt>
      <trkpt lat="46.04394" lon="7.05928">
        <ele>1927</ele>
        <time>2022-08-27T23:05:51Z</time>
      </trkpt>
      <trkpt lat="46.04394" lon="7.05927">
        <ele>1927</ele>
        <time>2022-08-27T23:05:52Z</time>
      </trkpt>
      <trkpt lat="46.04395" lon="7.05926">
        <ele>1927</ele>
        <time>2022-08-27T23:05:53Z</time>
      </trkpt>
      <trkpt lat="46.04395" lon="7.05926">
        <ele>1927</ele>
        <time>2022-08-27T23:05:54Z</time>
      </trkpt>
      <trkpt lat="46.04395" lon="7.05925">
        <ele>1927</ele>
        <time>2022-08-27T23:05:55Z</time>
      </trkpt>
      <trkpt lat="46.04396" lon="7.05924">
        <ele>1928</ele>
        <time>2022-08-27T23:05:56Z</time>
      </trkpt>
      <trkpt lat="46.04396" lon="7.05924">
        <ele>1928</ele>
        <time>2022-08-27T23:05:57Z</time>
      </trkpt>
      <trkpt lat="46.04396" lon="7.05923">
        <ele>1928</ele>
        <time>2022-08-27T23:05:59Z</time>
      </trkpt>
      <trkpt lat="46.04396" lon="7.05922">
        <ele>1929</ele>
        <time>2022-08-27T23:06:01Z</time>
      </trkpt>
      <trkpt lat="46.04397" lon="7.05922">
        <ele>1929</ele>
        <time>2022-08-27T23:06:02Z</time>
      </trkpt>
      <trkpt lat="46.04397" lon="7.05921">
        <ele>1929</ele>
        <time>2022-08-27T23:06:03Z</time>
      </trkpt>
      <trkpt lat="46.04397" lon="7.0592">
        <ele>1929</ele>
        <time>2022-08-27T23:06:04Z</time>
      </trkpt>
      <trkpt lat="46.04398" lon="7.0592">
        <ele>1929</ele>
        <time>2022-08-27T23:06:05Z</time>
      </trkpt>
      <trkpt lat="46.04398" lon="7.05919">
        <ele>1929</ele>
        <time>2022-08-27T23:06:06Z</time>
      </trkpt>
      <trkpt lat="46.04398" lon="7.05918">
        <ele>1929</ele>
        <time>2022-08-27T23:06:07Z</time>
      </trkpt>
      <trkpt lat="46.04399" lon="7.05918">
        <ele>1929</ele>
        <time>2022-08-27T23:06:08Z</time>
      </trkpt>
      <trkpt lat="46.04399" lon="7.05917">
        <ele>1929</ele>
        <time>2022-08-27T23:06:09Z</time>
      </trkpt>
      <trkpt lat="46.04399" lon="7.05916">
        <ele>1930</ele>
        <time>2022-08-27T23:06:11Z</time>
      </trkpt>
      <trkpt lat="46.044" lon="7.05916">
        <ele>1930</ele>
        <time>2022-08-27T23:06:12Z</time>
      </trkpt>
      <trkpt lat="46.044" lon="7.05915">
        <ele>1930</ele>
        <time>2022-08-27T23:06:13Z</time>
      </trkpt>
      <trkpt lat="46.04404" lon="7.05902">
        <ele>1934</ele>
        <time>2022-08-27T23:06:32Z</time>
      </trkpt>
      <trkpt lat="46.04404" lon="7.05902">
        <ele>1934</ele>
        <time>2022-08-27T23:06:35Z</time>
      </trkpt>
      <trkpt lat="46.04412" lon="7.05894">
        <ele>1935</ele>
        <time>2022-08-27T23:06:44Z</time>
      </trkpt>
      <trkpt lat="46.04413" lon="7.05893">
        <ele>1935</ele>
        <time>2022-08-27T23:06:45Z</time>
      </trkpt>
      <trkpt lat="46.04414" lon="7.05892">
        <ele>1935</ele>
        <time>2022-08-27T23:06:46Z</time>
      </trkpt>
      <trkpt lat="46.04414" lon="7.05891">
        <ele>1935</ele>
        <time>2022-08-27T23:06:47Z</time>
      </trkpt>
      <trkpt lat="46.04415" lon="7.0589">
        <ele>1935</ele>
        <time>2022-08-27T23:06:49Z</time>
      </trkpt>
      <trkpt lat="46.04416" lon="7.05889">
        <ele>1935</ele>
        <time>2022-08-27T23:06:50Z</time>
      </trkpt>
      <trkpt lat="46.04416" lon="7.05888">
        <ele>1935</ele>
        <time>2022-08-27T23:06:51Z</time>
      </trkpt>
      <trkpt lat="46.04417" lon="7.05887">
        <ele>1936</ele>
        <time>2022-08-27T23:06:52Z</time>
      </trkpt>
      <trkpt lat="46.04418" lon="7.05886">
        <ele>1936</ele>
        <time>2022-08-27T23:06:54Z</time>
      </trkpt>
      <trkpt lat="46.04419" lon="7.05885">
        <ele>1937</ele>
        <time>2022-08-27T23:06:55Z</time>
      </trkpt>
      <trkpt lat="46.0442" lon="7.0588">
        <ele>1939</ele>
        <time>2022-08-27T23:07:00Z</time>
      </trkpt>
      <trkpt lat="46.0442" lon="7.05877">
        <ele>1939</ele>
        <time>2022-08-27T23:07:03Z</time>
      </trkpt>
      <trkpt lat="46.04423" lon="7.05872">
        <ele>1939</ele>
        <time>2022-08-27T23:07:07Z</time>
      </trkpt>
      <trkpt lat="46.04425" lon="7.05871">
        <ele>1939</ele>
        <time>2022-08-27T23:07:09Z</time>
      </trkpt>
      <trkpt lat="46.04427" lon="7.05869">
        <ele>1939</ele>
        <time>2022-08-27T23:07:11Z</time>
      </trkpt>
      <trkpt lat="46.04429" lon="7.05868">
        <ele>1939</ele>
        <time>2022-08-27T23:07:13Z</time>
      </trkpt>
      <trkpt lat="46.0443" lon="7.05865">
        <ele>1941</ele>
        <time>2022-08-27T23:07:17Z</time>
      </trkpt>
      <trkpt lat="46.04429" lon="7.05863">
        <ele>1941</ele>
        <time>2022-08-27T23:07:21Z</time>
      </trkpt>
      <trkpt lat="46.04429" lon="7.0586">
        <ele>1942</ele>
        <time>2022-08-27T23:07:26Z</time>
      </trkpt>
      <trkpt lat="46.04428" lon="7.05857">
        <ele>1942</ele>
        <time>2022-08-27T23:07:29Z</time>
      </trkpt>
      <trkpt lat="46.04429" lon="7.05855">
        <ele>1943</ele>
        <time>2022-08-27T23:07:33Z</time>
      </trkpt>
      <trkpt lat="46.0443" lon="7.05853">
        <ele>1943</ele>
        <time>2022-08-27T23:07:37Z</time>
      </trkpt>
      <trkpt lat="46.04432" lon="7.0585">
        <ele>1943</ele>
        <time>2022-08-27T23:07:41Z</time>
      </trkpt>
      <trkpt lat="46.04433" lon="7.05847">
        <ele>1944</ele>
        <time>2022-08-27T23:07:45Z</time>
      </trkpt>
      <trkpt lat="46.04435" lon="7.05846">
        <ele>1944</ele>
        <time>2022-08-27T23:07:48Z</time>
      </trkpt>
      <trkpt lat="46.04436" lon="7.05843">
        <ele>1944</ele>
        <time>2022-08-27T23:07:51Z</time>
      </trkpt>
      <trkpt lat="46.04438" lon="7.0584">
        <ele>1946</ele>
        <time>2022-08-27T23:07:56Z</time>
      </trkpt>
      <trkpt lat="46.0444" lon="7.05838">
        <ele>1947</ele>
        <time>2022-08-27T23:08:00Z</time>
      </trkpt>
      <trkpt lat="46.04441" lon="7.05835">
        <ele>1948</ele>
        <time>2022-08-27T23:08:05Z</time>
      </trkpt>
      <trkpt lat="46.04443" lon="7.05833">
        <ele>1948</ele>
        <time>2022-08-27T23:08:08Z</time>
      </trkpt>
      <trkpt lat="46.04445" lon="7.05831">
        <ele>1949</ele>
        <time>2022-08-27T23:08:14Z</time>
      </trkpt>
      <trkpt lat="46.04446" lon="7.05829">
        <ele>1949</ele>
        <time>2022-08-27T23:08:16Z</time>
      </trkpt>
      <trkpt lat="46.04447" lon="7.05826">
        <ele>1949</ele>
        <time>2022-08-27T23:08:19Z</time>
      </trkpt>
      <trkpt lat="46.04448" lon="7.05824">
        <ele>1950</ele>
        <time>2022-08-27T23:08:22Z</time>
      </trkpt>
      <trkpt lat="46.04449" lon="7.05821">
        <ele>1950</ele>
        <time>2022-08-27T23:08:25Z</time>
      </trkpt>
      <trkpt lat="46.04449" lon="7.05818">
        <ele>1951</ele>
        <time>2022-08-27T23:08:29Z</time>
      </trkpt>
      <trkpt lat="46.04447" lon="7.05815">
        <ele>1951</ele>
        <time>2022-08-27T23:08:33Z</time>
      </trkpt>
      <trkpt lat="46.04446" lon="7.05813">
        <ele>1952</ele>
        <time>2022-08-27T23:08:36Z</time>
      </trkpt>
      <trkpt lat="46.04446" lon="7.0581">
        <ele>1953</ele>
        <time>2022-08-27T23:08:40Z</time>
      </trkpt>
      <trkpt lat="46.04445" lon="7.05808">
        <ele>1953</ele>
        <time>2022-08-27T23:08:44Z</time>
      </trkpt>
      <trkpt lat="46.04444" lon="7.05806">
        <ele>1954</ele>
        <time>2022-08-27T23:08:53Z</time>
      </trkpt>
      <trkpt lat="46.04443" lon="7.05806">
        <ele>1954</ele>
        <time>2022-08-27T23:08:54Z</time>
      </trkpt>
      <trkpt lat="46.04442" lon="7.05805">
        <ele>1955</ele>
        <time>2022-08-27T23:08:55Z</time>
      </trkpt>
      <trkpt lat="46.04442" lon="7.05805">
        <ele>1955</ele>
        <time>2022-08-27T23:08:57Z</time>
      </trkpt>
      <trkpt lat="46.04441" lon="7.05805">
        <ele>1955</ele>
        <time>2022-08-27T23:08:58Z</time>
      </trkpt>
      <trkpt lat="46.0444" lon="7.05805">
        <ele>1955</ele>
        <time>2022-08-27T23:08:59Z</time>
      </trkpt>
      <trkpt lat="46.0444" lon="7.05804">
        <ele>1956</ele>
        <time>2022-08-27T23:09:00Z</time>
      </trkpt>
      <trkpt lat="46.04439" lon="7.05804">
        <ele>1956</ele>
        <time>2022-08-27T23:09:02Z</time>
      </trkpt>
      <trkpt lat="46.04439" lon="7.05804">
        <ele>1956</ele>
        <time>2022-08-27T23:09:03Z</time>
      </trkpt>
      <trkpt lat="46.04438" lon="7.05804">
        <ele>1956</ele>
        <time>2022-08-27T23:09:04Z</time>
      </trkpt>
      <trkpt lat="46.04437" lon="7.05803">
        <ele>1956</ele>
        <time>2022-08-27T23:09:05Z</time>
      </trkpt>
      <trkpt lat="46.04435" lon="7.05802">
        <ele>1957</ele>
        <time>2022-08-27T23:09:10Z</time>
      </trkpt>
      <trkpt lat="46.04426" lon="7.05796">
        <ele>1958</ele>
        <time>2022-08-27T23:09:21Z</time>
      </trkpt>
      <trkpt lat="46.04425" lon="7.05793">
        <ele>1959</ele>
        <time>2022-08-27T23:09:24Z</time>
      </trkpt>
      <trkpt lat="46.04426" lon="7.0579">
        <ele>1959</ele>
        <time>2022-08-27T23:09:27Z</time>
      </trkpt>
      <trkpt lat="46.04425" lon="7.05788">
        <ele>1960</ele>
        <time>2022-08-27T23:09:30Z</time>
      </trkpt>
      <trkpt lat="46.04424" lon="7.05784">
        <ele>1960</ele>
        <time>2022-08-27T23:09:34Z</time>
      </trkpt>
      <trkpt lat="46.04422" lon="7.05781">
        <ele>1960</ele>
        <time>2022-08-27T23:09:37Z</time>
      </trkpt>
      <trkpt lat="46.04422" lon="7.05777">
        <ele>1962</ele>
        <time>2022-08-27T23:09:40Z</time>
      </trkpt>
      <trkpt lat="46.04422" lon="7.05774">
        <ele>1962</ele>
        <time>2022-08-27T23:09:42Z</time>
      </trkpt>
      <trkpt lat="46.04422" lon="7.05772">
        <ele>1962</ele>
        <time>2022-08-27T23:09:44Z</time>
      </trkpt>
      <trkpt lat="46.04423" lon="7.05769">
        <ele>1962</ele>
        <time>2022-08-27T23:09:56Z</time>
      </trkpt>
      <trkpt lat="46.04423" lon="7.05766">
        <ele>1962</ele>
        <time>2022-08-27T23:09:58Z</time>
      </trkpt>
      <trkpt lat="46.04423" lon="7.05763">
        <ele>1962</ele>
        <time>2022-08-27T23:10:00Z</time>
      </trkpt>
      <trkpt lat="46.04423" lon="7.0576">
        <ele>1962</ele>
        <time>2022-08-27T23:10:02Z</time>
      </trkpt>
      <trkpt lat="46.04423" lon="7.05757">
        <ele>1963</ele>
        <time>2022-08-27T23:10:04Z</time>
      </trkpt>
      <trkpt lat="46.04423" lon="7.05752">
        <ele>1963</ele>
        <time>2022-08-27T23:10:07Z</time>
      </trkpt>
      <trkpt lat="46.04424" lon="7.05748">
        <ele>1963</ele>
        <time>2022-08-27T23:10:10Z</time>
      </trkpt>
      <trkpt lat="46.04425" lon="7.05745">
        <ele>1964</ele>
        <time>2022-08-27T23:10:13Z</time>
      </trkpt>
      <trkpt lat="46.04425" lon="7.05742">
        <ele>1964</ele>
        <time>2022-08-27T23:10:15Z</time>
      </trkpt>
      <trkpt lat="46.04426" lon="7.05739">
        <ele>1964</ele>
        <time>2022-08-27T23:10:17Z</time>
      </trkpt>
      <trkpt lat="46.04426" lon="7.05736">
        <ele>1964</ele>
        <time>2022-08-27T23:10:19Z</time>
      </trkpt>
      <trkpt lat="46.04427" lon="7.05733">
        <ele>1964</ele>
        <time>2022-08-27T23:10:21Z</time>
      </trkpt>
      <trkpt lat="46.04427" lon="7.05731">
        <ele>1964</ele>
        <time>2022-08-27T23:10:23Z</time>
      </trkpt>
      <trkpt lat="46.04428" lon="7.05729">
        <ele>1963</ele>
        <time>2022-08-27T23:10:25Z</time>
      </trkpt>
      <trkpt lat="46.04431" lon="7.05727">
        <ele>1963</ele>
        <time>2022-08-27T23:10:27Z</time>
      </trkpt>
      <trkpt lat="46.04434" lon="7.05726">
        <ele>1963</ele>
        <time>2022-08-27T23:10:29Z</time>
      </trkpt>
      <trkpt lat="46.04437" lon="7.05724">
        <ele>1963</ele>
        <time>2022-08-27T23:10:31Z</time>
      </trkpt>
      <trkpt lat="46.0444" lon="7.05723">
        <ele>1963</ele>
        <time>2022-08-27T23:10:33Z</time>
      </trkpt>
      <trkpt lat="46.04442" lon="7.05723">
        <ele>1963</ele>
        <time>2022-08-27T23:10:35Z</time>
      </trkpt>
      <trkpt lat="46.04446" lon="7.05722">
        <ele>1963</ele>
        <time>2022-08-27T23:10:38Z</time>
      </trkpt>
      <trkpt lat="46.04448" lon="7.05721">
        <ele>1963</ele>
        <time>2022-08-27T23:10:40Z</time>
      </trkpt>
      <trkpt lat="46.0445" lon="7.05719">
        <ele>1963</ele>
        <time>2022-08-27T23:10:43Z</time>
      </trkpt>
      <trkpt lat="46.04451" lon="7.05717">
        <ele>1962</ele>
        <time>2022-08-27T23:10:46Z</time>
      </trkpt>
      <trkpt lat="46.04453" lon="7.05715">
        <ele>1962</ele>
        <time>2022-08-27T23:10:49Z</time>
      </trkpt>
      <trkpt lat="46.04456" lon="7.05714">
        <ele>1962</ele>
        <time>2022-08-27T23:10:51Z</time>
      </trkpt>
      <trkpt lat="46.04458" lon="7.05713">
        <ele>1962</ele>
        <time>2022-08-27T23:10:53Z</time>
      </trkpt>
      <trkpt lat="46.0446" lon="7.05711">
        <ele>1962</ele>
        <time>2022-08-27T23:10:56Z</time>
      </trkpt>
      <trkpt lat="46.04462" lon="7.05709">
        <ele>1960</ele>
        <time>2022-08-27T23:11:00Z</time>
      </trkpt>
      <trkpt lat="46.04461" lon="7.05706">
        <ele>1959</ele>
        <time>2022-08-27T23:11:05Z</time>
      </trkpt>
      <trkpt lat="46.04461" lon="7.05703">
        <ele>1958</ele>
        <time>2022-08-27T23:11:08Z</time>
      </trkpt>
      <trkpt lat="46.0446" lon="7.05702">
        <ele>1957</ele>
        <time>2022-08-27T23:11:09Z</time>
      </trkpt>
      <trkpt lat="46.04459" lon="7.05701">
        <ele>1957</ele>
        <time>2022-08-27T23:11:10Z</time>
      </trkpt>
      <trkpt lat="46.04458" lon="7.05699">
        <ele>1957</ele>
        <time>2022-08-27T23:11:12Z</time>
      </trkpt>
      <trkpt lat="46.04458" lon="7.05698">
        <ele>1957</ele>
        <time>2022-08-27T23:11:13Z</time>
      </trkpt>
      <trkpt lat="46.04457" lon="7.05697">
        <ele>1956</ele>
        <time>2022-08-27T23:11:14Z</time>
      </trkpt>
      <trkpt lat="46.04456" lon="7.05695">
        <ele>1956</ele>
        <time>2022-08-27T23:11:15Z</time>
      </trkpt>
      <trkpt lat="46.04455" lon="7.05694">
        <ele>1956</ele>
        <time>2022-08-27T23:11:17Z</time>
      </trkpt>
      <trkpt lat="46.04455" lon="7.05693">
        <ele>1956</ele>
        <time>2022-08-27T23:11:18Z</time>
      </trkpt>
      <trkpt lat="46.04454" lon="7.05692">
        <ele>1955</ele>
        <time>2022-08-27T23:11:19Z</time>
      </trkpt>
      <trkpt lat="46.04453" lon="7.05691">
        <ele>1955</ele>
        <time>2022-08-27T23:11:20Z</time>
      </trkpt>
      <trkpt lat="46.04452" lon="7.0569">
        <ele>1955</ele>
        <time>2022-08-27T23:11:22Z</time>
      </trkpt>
      <trkpt lat="46.04451" lon="7.05689">
        <ele>1954</ele>
        <time>2022-08-27T23:11:24Z</time>
      </trkpt>
      <trkpt lat="46.04451" lon="7.05689">
        <ele>1954</ele>
        <time>2022-08-27T23:11:25Z</time>
      </trkpt>
      <trkpt lat="46.0445" lon="7.05688">
        <ele>1954</ele>
        <time>2022-08-27T23:11:26Z</time>
      </trkpt>
      <trkpt lat="46.04449" lon="7.05687">
        <ele>1954</ele>
        <time>2022-08-27T23:11:27Z</time>
      </trkpt>
      <trkpt lat="46.04448" lon="7.05686">
        <ele>1954</ele>
        <time>2022-08-27T23:11:29Z</time>
      </trkpt>
      <trkpt lat="46.04447" lon="7.05685">
        <ele>1954</ele>
        <time>2022-08-27T23:11:30Z</time>
      </trkpt>
      <trkpt lat="46.04445" lon="7.05682">
        <ele>1952</ele>
        <time>2022-08-27T23:11:36Z</time>
      </trkpt>
      <trkpt lat="46.04444" lon="7.0568">
        <ele>1952</ele>
        <time>2022-08-27T23:11:42Z</time>
      </trkpt>
      <trkpt lat="46.04442" lon="7.0568">
        <ele>1951</ele>
        <time>2022-08-27T23:11:52Z</time>
      </trkpt>
      <trkpt lat="46.0444" lon="7.05678">
        <ele>1950</ele>
        <time>2022-08-27T23:11:58Z</time>
      </trkpt>
      <trkpt lat="46.0444" lon="7.05678">
        <ele>1949</ele>
        <time>2022-08-27T23:12:07Z</time>
      </trkpt>
      <trkpt lat="46.04451" lon="7.05676">
        <ele>1949</ele>
        <time>2022-08-27T23:12:09Z</time>
      </trkpt>
      <trkpt lat="46.04452" lon="7.05677">
        <ele>1950</ele>
        <time>2022-08-27T23:12:11Z</time>
      </trkpt>
      <trkpt lat="46.04456" lon="7.05676">
        <ele>1950</ele>
        <time>2022-08-27T23:12:15Z</time>
      </trkpt>
      <trkpt lat="46.04457" lon="7.05675">
        <ele>1950</ele>
        <time>2022-08-27T23:12:16Z</time>
      </trkpt>
      <trkpt lat="46.04458" lon="7.05674">
        <ele>1951</ele>
        <time>2022-08-27T23:12:17Z</time>
      </trkpt>
      <trkpt lat="46.04459" lon="7.05673">
        <ele>1951</ele>
        <time>2022-08-27T23:12:19Z</time>
      </trkpt>
      <trkpt lat="46.0446" lon="7.05673">
        <ele>1951</ele>
        <time>2022-08-27T23:12:20Z</time>
      </trkpt>
      <trkpt lat="46.04461" lon="7.05672">
        <ele>1951</ele>
        <time>2022-08-27T23:12:21Z</time>
      </trkpt>
      <trkpt lat="46.04462" lon="7.05671">
        <ele>1951</ele>
        <time>2022-08-27T23:12:23Z</time>
      </trkpt>
      <trkpt lat="46.04463" lon="7.0567">
        <ele>1952</ele>
        <time>2022-08-27T23:12:24Z</time>
      </trkpt>
      <trkpt lat="46.04463" lon="7.05669">
        <ele>1952</ele>
        <time>2022-08-27T23:12:25Z</time>
      </trkpt>
      <trkpt lat="46.04465" lon="7.05668">
        <ele>1951</ele>
        <time>2022-08-27T23:12:27Z</time>
      </trkpt>
      <trkpt lat="46.04466" lon="7.05667">
        <ele>1952</ele>
        <time>2022-08-27T23:12:28Z</time>
      </trkpt>
      <trkpt lat="46.04467" lon="7.05666">
        <ele>1952</ele>
        <time>2022-08-27T23:12:29Z</time>
      </trkpt>
      <trkpt lat="46.04468" lon="7.05665">
        <ele>1953</ele>
        <time>2022-08-27T23:12:30Z</time>
      </trkpt>
      <trkpt lat="46.04469" lon="7.05665">
        <ele>1953</ele>
        <time>2022-08-27T23:12:31Z</time>
      </trkpt>
      <trkpt lat="46.04471" lon="7.05664">
        <ele>1953</ele>
        <time>2022-08-27T23:12:32Z</time>
      </trkpt>
      <trkpt lat="46.04472" lon="7.05663">
        <ele>1953</ele>
        <time>2022-08-27T23:12:33Z</time>
      </trkpt>
      <trkpt lat="46.04473" lon="7.05662">
        <ele>1953</ele>
        <time>2022-08-27T23:12:34Z</time>
      </trkpt>
      <trkpt lat="46.04475" lon="7.05661">
        <ele>1953</ele>
        <time>2022-08-27T23:12:35Z</time>
      </trkpt>
      <trkpt lat="46.04476" lon="7.0566">
        <ele>1953</ele>
        <time>2022-08-27T23:12:36Z</time>
      </trkpt>
      <trkpt lat="46.04478" lon="7.05659">
        <ele>1953</ele>
        <time>2022-08-27T23:12:38Z</time>
      </trkpt>
      <trkpt lat="46.04479" lon="7.05658">
        <ele>1953</ele>
        <time>2022-08-27T23:12:40Z</time>
      </trkpt>
      <trkpt lat="46.0448" lon="7.05657">
        <ele>1953</ele>
        <time>2022-08-27T23:12:41Z</time>
      </trkpt>
      <trkpt lat="46.04482" lon="7.05655">
        <ele>1952</ele>
        <time>2022-08-27T23:12:43Z</time>
      </trkpt>
      <trkpt lat="46.04484" lon="7.05652">
        <ele>1952</ele>
        <time>2022-08-27T23:12:46Z</time>
      </trkpt>
      <trkpt lat="46.04486" lon="7.05648">
        <ele>1951</ele>
        <time>2022-08-27T23:12:50Z</time>
      </trkpt>
      <trkpt lat="46.04487" lon="7.05646">
        <ele>1951</ele>
        <time>2022-08-27T23:12:55Z</time>
      </trkpt>
      <trkpt lat="46.04487" lon="7.05643">
        <ele>1950</ele>
        <time>2022-08-27T23:13:00Z</time>
      </trkpt>
      <trkpt lat="46.04487" lon="7.05642">
        <ele>1950</ele>
        <time>2022-08-27T23:13:02Z</time>
      </trkpt>
      <trkpt lat="46.04487" lon="7.0564">
        <ele>1950</ele>
        <time>2022-08-27T23:13:03Z</time>
      </trkpt>
      <trkpt lat="46.04488" lon="7.05639">
        <ele>1950</ele>
        <time>2022-08-27T23:13:04Z</time>
      </trkpt>
      <trkpt lat="46.04488" lon="7.05637">
        <ele>1949</ele>
        <time>2022-08-27T23:13:06Z</time>
      </trkpt>
      <trkpt lat="46.04488" lon="7.05636">
        <ele>1949</ele>
        <time>2022-08-27T23:13:07Z</time>
      </trkpt>
      <trkpt lat="46.04489" lon="7.05634">
        <ele>1949</ele>
        <time>2022-08-27T23:13:08Z</time>
      </trkpt>
      <trkpt lat="46.04489" lon="7.05633">
        <ele>1949</ele>
        <time>2022-08-27T23:13:09Z</time>
      </trkpt>
      <trkpt lat="46.04489" lon="7.05632">
        <ele>1948</ele>
        <time>2022-08-27T23:13:11Z</time>
      </trkpt>
      <trkpt lat="46.0449" lon="7.0563">
        <ele>1948</ele>
        <time>2022-08-27T23:13:12Z</time>
      </trkpt>
      <trkpt lat="46.0449" lon="7.05628">
        <ele>1948</ele>
        <time>2022-08-27T23:13:13Z</time>
      </trkpt>
      <trkpt lat="46.04491" lon="7.05626">
        <ele>1948</ele>
        <time>2022-08-27T23:13:14Z</time>
      </trkpt>
      <trkpt lat="46.04492" lon="7.05625">
        <ele>1947</ele>
        <time>2022-08-27T23:13:16Z</time>
      </trkpt>
      <trkpt lat="46.04493" lon="7.05623">
        <ele>1947</ele>
        <time>2022-08-27T23:13:18Z</time>
      </trkpt>
      <trkpt lat="46.04494" lon="7.05621">
        <ele>1947</ele>
        <time>2022-08-27T23:13:19Z</time>
      </trkpt>
      <trkpt lat="46.04495" lon="7.05619">
        <ele>1947</ele>
        <time>2022-08-27T23:13:20Z</time>
      </trkpt>
      <trkpt lat="46.04501" lon="7.05614">
        <ele>1946</ele>
        <time>2022-08-27T23:13:35Z</time>
      </trkpt>
      <trkpt lat="46.04502" lon="7.05614">
        <ele>1946</ele>
        <time>2022-08-27T23:13:36Z</time>
      </trkpt>
      <trkpt lat="46.04503" lon="7.05614">
        <ele>1946</ele>
        <time>2022-08-27T23:13:37Z</time>
      </trkpt>
      <trkpt lat="46.04505" lon="7.05614">
        <ele>1946</ele>
        <time>2022-08-27T23:13:39Z</time>
      </trkpt>
      <trkpt lat="46.04506" lon="7.05613">
        <ele>1945</ele>
        <time>2022-08-27T23:13:40Z</time>
      </trkpt>
      <trkpt lat="46.04507" lon="7.05613">
        <ele>1945</ele>
        <time>2022-08-27T23:13:41Z</time>
      </trkpt>
      <trkpt lat="46.04508" lon="7.05613">
        <ele>1945</ele>
        <time>2022-08-27T23:13:42Z</time>
      </trkpt>
      <trkpt lat="46.04509" lon="7.05612">
        <ele>1945</ele>
        <time>2022-08-27T23:13:44Z</time>
      </trkpt>
      <trkpt lat="46.0451" lon="7.05612">
        <ele>1944</ele>
        <time>2022-08-27T23:13:45Z</time>
      </trkpt>
      <trkpt lat="46.04519" lon="7.05606">
        <ele>1944</ele>
        <time>2022-08-27T23:13:54Z</time>
      </trkpt>
      <trkpt lat="46.0452" lon="7.05606">
        <ele>1944</ele>
        <time>2022-08-27T23:13:56Z</time>
      </trkpt>
      <trkpt lat="46.04521" lon="7.05605">
        <ele>1944</ele>
        <time>2022-08-27T23:13:58Z</time>
      </trkpt>
      <trkpt lat="46.04521" lon="7.05605">
        <ele>1944</ele>
        <time>2022-08-27T23:13:59Z</time>
      </trkpt>
      <trkpt lat="46.04522" lon="7.05604">
        <ele>1944</ele>
        <time>2022-08-27T23:14:00Z</time>
      </trkpt>
      <trkpt lat="46.04523" lon="7.05603">
        <ele>1944</ele>
        <time>2022-08-27T23:14:01Z</time>
      </trkpt>
      <trkpt lat="46.04524" lon="7.05603">
        <ele>1944</ele>
        <time>2022-08-27T23:14:03Z</time>
      </trkpt>
      <trkpt lat="46.04524" lon="7.05602">
        <ele>1944</ele>
        <time>2022-08-27T23:14:04Z</time>
      </trkpt>
      <trkpt lat="46.04525" lon="7.05602">
        <ele>1944</ele>
        <time>2022-08-27T23:14:05Z</time>
      </trkpt>
      <trkpt lat="46.04526" lon="7.05601">
        <ele>1943</ele>
        <time>2022-08-27T23:14:06Z</time>
      </trkpt>
      <trkpt lat="46.04527" lon="7.05601">
        <ele>1943</ele>
        <time>2022-08-27T23:14:08Z</time>
      </trkpt>
      <trkpt lat="46.04527" lon="7.056">
        <ele>1943</ele>
        <time>2022-08-27T23:14:09Z</time>
      </trkpt>
      <trkpt lat="46.04528" lon="7.05599">
        <ele>1943</ele>
        <time>2022-08-27T23:14:10Z</time>
      </trkpt>
      <trkpt lat="46.0453" lon="7.05598">
        <ele>1943</ele>
        <time>2022-08-27T23:14:11Z</time>
      </trkpt>
      <trkpt lat="46.04531" lon="7.05597">
        <ele>1943</ele>
        <time>2022-08-27T23:14:13Z</time>
      </trkpt>
      <trkpt lat="46.04532" lon="7.05596">
        <ele>1942</ele>
        <time>2022-08-27T23:14:15Z</time>
      </trkpt>
      <trkpt lat="46.04533" lon="7.05596">
        <ele>1942</ele>
        <time>2022-08-27T23:14:16Z</time>
      </trkpt>
      <trkpt lat="46.04534" lon="7.05595">
        <ele>1942</ele>
        <time>2022-08-27T23:14:17Z</time>
      </trkpt>
      <trkpt lat="46.04535" lon="7.05594">
        <ele>1942</ele>
        <time>2022-08-27T23:14:18Z</time>
      </trkpt>
      <trkpt lat="46.04536" lon="7.05594">
        <ele>1942</ele>
        <time>2022-08-27T23:14:20Z</time>
      </trkpt>
      <trkpt lat="46.04538" lon="7.05595">
        <ele>1942</ele>
        <time>2022-08-27T23:14:21Z</time>
      </trkpt>
      <trkpt lat="46.04539" lon="7.05596">
        <ele>1942</ele>
        <time>2022-08-27T23:14:22Z</time>
      </trkpt>
      <trkpt lat="46.0454" lon="7.05597">
        <ele>1942</ele>
        <time>2022-08-27T23:14:23Z</time>
      </trkpt>
      <trkpt lat="46.04541" lon="7.05597">
        <ele>1941</ele>
        <time>2022-08-27T23:14:25Z</time>
      </trkpt>
      <trkpt lat="46.04542" lon="7.05598">
        <ele>1941</ele>
        <time>2022-08-27T23:14:26Z</time>
      </trkpt>
      <trkpt lat="46.04544" lon="7.05599">
        <ele>1941</ele>
        <time>2022-08-27T23:14:27Z</time>
      </trkpt>
      <trkpt lat="46.04544" lon="7.056">
        <ele>1941</ele>
        <time>2022-08-27T23:14:28Z</time>
      </trkpt>
      <trkpt lat="46.04545" lon="7.05601">
        <ele>1941</ele>
        <time>2022-08-27T23:14:30Z</time>
      </trkpt>
      <trkpt lat="46.04545" lon="7.05602">
        <ele>1941</ele>
        <time>2022-08-27T23:14:32Z</time>
      </trkpt>
      <trkpt lat="46.04545" lon="7.05603">
        <ele>1941</ele>
        <time>2022-08-27T23:14:33Z</time>
      </trkpt>
      <trkpt lat="46.04546" lon="7.05604">
        <ele>1941</ele>
        <time>2022-08-27T23:14:34Z</time>
      </trkpt>
      <trkpt lat="46.04546" lon="7.05605">
        <ele>1940</ele>
        <time>2022-08-27T23:14:36Z</time>
      </trkpt>
      <trkpt lat="46.04547" lon="7.05606">
        <ele>1940</ele>
        <time>2022-08-27T23:14:37Z</time>
      </trkpt>
      <trkpt lat="46.04547" lon="7.05607">
        <ele>1940</ele>
        <time>2022-08-27T23:14:38Z</time>
      </trkpt>
      <trkpt lat="46.04548" lon="7.05608">
        <ele>1940</ele>
        <time>2022-08-27T23:14:39Z</time>
      </trkpt>
      <trkpt lat="46.04548" lon="7.05609">
        <ele>1940</ele>
        <time>2022-08-27T23:14:41Z</time>
      </trkpt>
      <trkpt lat="46.04549" lon="7.0561">
        <ele>1940</ele>
        <time>2022-08-27T23:14:42Z</time>
      </trkpt>
      <trkpt lat="46.04549" lon="7.05611">
        <ele>1940</ele>
        <time>2022-08-27T23:14:43Z</time>
      </trkpt>
      <trkpt lat="46.04551" lon="7.05612">
        <ele>1939</ele>
        <time>2022-08-27T23:14:44Z</time>
      </trkpt>
      <trkpt lat="46.04552" lon="7.05612">
        <ele>1939</ele>
        <time>2022-08-27T23:14:46Z</time>
      </trkpt>
      <trkpt lat="46.04554" lon="7.05613">
        <ele>1939</ele>
        <time>2022-08-27T23:14:47Z</time>
      </trkpt>
      <trkpt lat="46.04555" lon="7.05613">
        <ele>1939</ele>
        <time>2022-08-27T23:14:49Z</time>
      </trkpt>
      <trkpt lat="46.04557" lon="7.05614">
        <ele>1938</ele>
        <time>2022-08-27T23:14:51Z</time>
      </trkpt>
      <trkpt lat="46.04558" lon="7.05615">
        <ele>1938</ele>
        <time>2022-08-27T23:14:52Z</time>
      </trkpt>
      <trkpt lat="46.04559" lon="7.05615">
        <ele>1937</ele>
        <time>2022-08-27T23:14:53Z</time>
      </trkpt>
      <trkpt lat="46.0456" lon="7.05616">
        <ele>1937</ele>
        <time>2022-08-27T23:14:54Z</time>
      </trkpt>
      <trkpt lat="46.0456" lon="7.05617">
        <ele>1937</ele>
        <time>2022-08-27T23:14:55Z</time>
      </trkpt>
      <trkpt lat="46.04561" lon="7.05618">
        <ele>1937</ele>
        <time>2022-08-27T23:14:57Z</time>
      </trkpt>
      <trkpt lat="46.04561" lon="7.05619">
        <ele>1937</ele>
        <time>2022-08-27T23:14:59Z</time>
      </trkpt>
      <trkpt lat="46.04562" lon="7.0562">
        <ele>1937</ele>
        <time>2022-08-27T23:15:00Z</time>
      </trkpt>
      <trkpt lat="46.04563" lon="7.05621">
        <ele>1936</ele>
        <time>2022-08-27T23:15:02Z</time>
      </trkpt>
      <trkpt lat="46.04563" lon="7.05622">
        <ele>1936</ele>
        <time>2022-08-27T23:15:04Z</time>
      </trkpt>
      <trkpt lat="46.04564" lon="7.05623">
        <ele>1936</ele>
        <time>2022-08-27T23:15:05Z</time>
      </trkpt>
      <trkpt lat="46.04565" lon="7.05624">
        <ele>1935</ele>
        <time>2022-08-27T23:15:06Z</time>
      </trkpt>
      <trkpt lat="46.04575" lon="7.05623">
        <ele>1936</ele>
        <time>2022-08-27T23:15:27Z</time>
      </trkpt>
      <trkpt lat="46.04576" lon="7.05623">
        <ele>1936</ele>
        <time>2022-08-27T23:15:29Z</time>
      </trkpt>
      <trkpt lat="46.04577" lon="7.05623">
        <ele>1936</ele>
        <time>2022-08-27T23:15:30Z</time>
      </trkpt>
      <trkpt lat="46.04578" lon="7.05623">
        <ele>1936</ele>
        <time>2022-08-27T23:15:31Z</time>
      </trkpt>
      <trkpt lat="46.04579" lon="7.05624">
        <ele>1936</ele>
        <time>2022-08-27T23:15:33Z</time>
      </trkpt>
      <trkpt lat="46.0458" lon="7.05624">
        <ele>1937</ele>
        <time>2022-08-27T23:15:34Z</time>
      </trkpt>
      <trkpt lat="46.04581" lon="7.05624">
        <ele>1937</ele>
        <time>2022-08-27T23:15:35Z</time>
      </trkpt>
      <trkpt lat="46.04582" lon="7.05624">
        <ele>1937</ele>
        <time>2022-08-27T23:15:36Z</time>
      </trkpt>
      <trkpt lat="46.04583" lon="7.05625">
        <ele>1937</ele>
        <time>2022-08-27T23:15:38Z</time>
      </trkpt>
      <trkpt lat="46.04584" lon="7.05625">
        <ele>1937</ele>
        <time>2022-08-27T23:15:39Z</time>
      </trkpt>
      <trkpt lat="46.04585" lon="7.05625">
        <ele>1938</ele>
        <time>2022-08-27T23:15:40Z</time>
      </trkpt>
      <trkpt lat="46.04586" lon="7.05625">
        <ele>1938</ele>
        <time>2022-08-27T23:15:41Z</time>
      </trkpt>
      <trkpt lat="46.04587" lon="7.05626">
        <ele>1938</ele>
        <time>2022-08-27T23:15:43Z</time>
      </trkpt>
      <trkpt lat="46.04588" lon="7.05626">
        <ele>1938</ele>
        <time>2022-08-27T23:15:44Z</time>
      </trkpt>
      <trkpt lat="46.04588" lon="7.05627">
        <ele>1938</ele>
        <time>2022-08-27T23:15:45Z</time>
      </trkpt>
      <trkpt lat="46.04589" lon="7.05627">
        <ele>1938</ele>
        <time>2022-08-27T23:15:46Z</time>
      </trkpt>
      <trkpt lat="46.0459" lon="7.05627">
        <ele>1939</ele>
        <time>2022-08-27T23:15:48Z</time>
      </trkpt>
      <trkpt lat="46.04591" lon="7.05628">
        <ele>1939</ele>
        <time>2022-08-27T23:15:50Z</time>
      </trkpt>
      <trkpt lat="46.04592" lon="7.05628">
        <ele>1939</ele>
        <time>2022-08-27T23:15:51Z</time>
      </trkpt>
      <trkpt lat="46.04593" lon="7.05628">
        <ele>1939</ele>
        <time>2022-08-27T23:15:52Z</time>
      </trkpt>
      <trkpt lat="46.04594" lon="7.05629">
        <ele>1939</ele>
        <time>2022-08-27T23:15:53Z</time>
      </trkpt>
      <trkpt lat="46.04595" lon="7.05629">
        <ele>1939</ele>
        <time>2022-08-27T23:15:55Z</time>
      </trkpt>
      <trkpt lat="46.04596" lon="7.05629">
        <ele>1940</ele>
        <time>2022-08-27T23:15:56Z</time>
      </trkpt>
      <trkpt lat="46.04597" lon="7.0563">
        <ele>1940</ele>
        <time>2022-08-27T23:15:57Z</time>
      </trkpt>
      <trkpt lat="46.04598" lon="7.0563">
        <ele>1940</ele>
        <time>2022-08-27T23:15:58Z</time>
      </trkpt>
      <trkpt lat="46.04599" lon="7.0563">
        <ele>1941</ele>
        <time>2022-08-27T23:16:00Z</time>
      </trkpt>
      <trkpt lat="46.04601" lon="7.05631">
        <ele>1941</ele>
        <time>2022-08-27T23:16:01Z</time>
      </trkpt>
      <trkpt lat="46.04602" lon="7.05631">
        <ele>1941</ele>
        <time>2022-08-27T23:16:02Z</time>
      </trkpt>
      <trkpt lat="46.04603" lon="7.05631">
        <ele>1941</ele>
        <time>2022-08-27T23:16:03Z</time>
      </trkpt>
      <trkpt lat="46.04603" lon="7.05631">
        <ele>1941</ele>
        <time>2022-08-27T23:16:04Z</time>
      </trkpt>
      <trkpt lat="46.04604" lon="7.05632">
        <ele>1941</ele>
        <time>2022-08-27T23:16:05Z</time>
      </trkpt>
      <trkpt lat="46.04604" lon="7.05632">
        <ele>1942</ele>
        <time>2022-08-27T23:16:07Z</time>
      </trkpt>
      <trkpt lat="46.04605" lon="7.05632">
        <ele>1942</ele>
        <time>2022-08-27T23:16:08Z</time>
      </trkpt>
      <trkpt lat="46.04606" lon="7.05632">
        <ele>1943</ele>
        <time>2022-08-27T23:16:09Z</time>
      </trkpt>
      <trkpt lat="46.04606" lon="7.05632">
        <ele>1943</ele>
        <time>2022-08-27T23:16:11Z</time>
      </trkpt>
      <trkpt lat="46.04607" lon="7.05632">
        <ele>1943</ele>
        <time>2022-08-27T23:16:12Z</time>
      </trkpt>
      <trkpt lat="46.04608" lon="7.05632">
        <ele>1943</ele>
        <time>2022-08-27T23:16:13Z</time>
      </trkpt>
      <trkpt lat="46.04608" lon="7.05632">
        <ele>1943</ele>
        <time>2022-08-27T23:16:14Z</time>
      </trkpt>
      <trkpt lat="46.04609" lon="7.05632">
        <ele>1943</ele>
        <time>2022-08-27T23:16:16Z</time>
      </trkpt>
      <trkpt lat="46.04609" lon="7.05632">
        <ele>1943</ele>
        <time>2022-08-27T23:16:17Z</time>
      </trkpt>
      <trkpt lat="46.0461" lon="7.05632">
        <ele>1943</ele>
        <time>2022-08-27T23:16:18Z</time>
      </trkpt>
      <trkpt lat="46.04611" lon="7.05632">
        <ele>1943</ele>
        <time>2022-08-27T23:16:19Z</time>
      </trkpt>
      <trkpt lat="46.04611" lon="7.05632">
        <ele>1943</ele>
        <time>2022-08-27T23:16:20Z</time>
      </trkpt>
      <trkpt lat="46.04612" lon="7.05632">
        <ele>1943</ele>
        <time>2022-08-27T23:16:21Z</time>
      </trkpt>
      <trkpt lat="46.04615" lon="7.05644">
        <ele>1946</ele>
        <time>2022-08-27T23:16:33Z</time>
      </trkpt>
      <trkpt lat="46.04616" lon="7.05644">
        <ele>1946</ele>
        <time>2022-08-27T23:16:34Z</time>
      </trkpt>
      <trkpt lat="46.04618" lon="7.05644">
        <ele>1946</ele>
        <time>2022-08-27T23:16:35Z</time>
      </trkpt>
      <trkpt lat="46.04619" lon="7.05644">
        <ele>1947</ele>
        <time>2022-08-27T23:16:36Z</time>
      </trkpt>
      <trkpt lat="46.0462" lon="7.05645">
        <ele>1947</ele>
        <time>2022-08-27T23:16:38Z</time>
      </trkpt>
      <trkpt lat="46.04621" lon="7.05645">
        <ele>1947</ele>
        <time>2022-08-27T23:16:40Z</time>
      </trkpt>
      <trkpt lat="46.04622" lon="7.05645">
        <ele>1947</ele>
        <time>2022-08-27T23:16:41Z</time>
      </trkpt>
      <trkpt lat="46.04623" lon="7.05645">
        <ele>1948</ele>
        <time>2022-08-27T23:16:43Z</time>
      </trkpt>
      <trkpt lat="46.04624" lon="7.05645">
        <ele>1948</ele>
        <time>2022-08-27T23:16:44Z</time>
      </trkpt>
      <trkpt lat="46.04625" lon="7.05645">
        <ele>1948</ele>
        <time>2022-08-27T23:16:45Z</time>
      </trkpt>
      <trkpt lat="46.04626" lon="7.05646">
        <ele>1948</ele>
        <time>2022-08-27T23:16:46Z</time>
      </trkpt>
      <trkpt lat="46.04626" lon="7.05646">
        <ele>1948</ele>
        <time>2022-08-27T23:16:47Z</time>
      </trkpt>
      <trkpt lat="46.04627" lon="7.05647">
        <ele>1949</ele>
        <time>2022-08-27T23:16:48Z</time>
      </trkpt>
      <trkpt lat="46.04628" lon="7.05648">
        <ele>1948</ele>
        <time>2022-08-27T23:16:50Z</time>
      </trkpt>
      <trkpt lat="46.04629" lon="7.05649">
        <ele>1948</ele>
        <time>2022-08-27T23:16:51Z</time>
      </trkpt>
      <trkpt lat="46.04629" lon="7.05649">
        <ele>1948</ele>
        <time>2022-08-27T23:16:52Z</time>
      </trkpt>
      <trkpt lat="46.0463" lon="7.0565">
        <ele>1948</ele>
        <time>2022-08-27T23:16:53Z</time>
      </trkpt>
      <trkpt lat="46.04631" lon="7.05651">
        <ele>1948</ele>
        <time>2022-08-27T23:16:55Z</time>
      </trkpt>
      <trkpt lat="46.04631" lon="7.05652">
        <ele>1948</ele>
        <time>2022-08-27T23:16:56Z</time>
      </trkpt>
      <trkpt lat="46.04632" lon="7.05652">
        <ele>1948</ele>
        <time>2022-08-27T23:16:57Z</time>
      </trkpt>
      <trkpt lat="46.04633" lon="7.05653">
        <ele>1947</ele>
        <time>2022-08-27T23:16:58Z</time>
      </trkpt>
      <trkpt lat="46.04633" lon="7.05655">
        <ele>1947</ele>
        <time>2022-08-27T23:17:00Z</time>
      </trkpt>
      <trkpt lat="46.04634" lon="7.05657">
        <ele>1947</ele>
        <time>2022-08-27T23:17:01Z</time>
      </trkpt>
      <trkpt lat="46.04635" lon="7.05659">
        <ele>1947</ele>
        <time>2022-08-27T23:17:02Z</time>
      </trkpt>
      <trkpt lat="46.04636" lon="7.05661">
        <ele>1947</ele>
        <time>2022-08-27T23:17:04Z</time>
      </trkpt>
      <trkpt lat="46.04636" lon="7.05663">
        <ele>1947</ele>
        <time>2022-08-27T23:17:05Z</time>
      </trkpt>
      <trkpt lat="46.04637" lon="7.05665">
        <ele>1945</ele>
        <time>2022-08-27T23:17:06Z</time>
      </trkpt>
      <trkpt lat="46.04638" lon="7.05666">
        <ele>1945</ele>
        <time>2022-08-27T23:17:07Z</time>
      </trkpt>
      <trkpt lat="46.04639" lon="7.05667">
        <ele>1945</ele>
        <time>2022-08-27T23:17:08Z</time>
      </trkpt>
      <trkpt lat="46.04639" lon="7.05668">
        <ele>1945</ele>
        <time>2022-08-27T23:17:09Z</time>
      </trkpt>
      <trkpt lat="46.0464" lon="7.05669">
        <ele>1945</ele>
        <time>2022-08-27T23:17:11Z</time>
      </trkpt>
      <trkpt lat="46.04641" lon="7.0567">
        <ele>1944</ele>
        <time>2022-08-27T23:17:13Z</time>
      </trkpt>
      <trkpt lat="46.04642" lon="7.05671">
        <ele>1944</ele>
        <time>2022-08-27T23:17:14Z</time>
      </trkpt>
      <trkpt lat="46.04643" lon="7.05672">
        <ele>1944</ele>
        <time>2022-08-27T23:17:16Z</time>
      </trkpt>
      <trkpt lat="46.04644" lon="7.05672">
        <ele>1944</ele>
        <time>2022-08-27T23:17:17Z</time>
      </trkpt>
      <trkpt lat="46.04645" lon="7.05673">
        <ele>1944</ele>
        <time>2022-08-27T23:17:18Z</time>
      </trkpt>
      <trkpt lat="46.04651" lon="7.05683">
        <ele>1947</ele>
        <time>2022-08-27T23:17:35Z</time>
      </trkpt>
      <trkpt lat="46.04651" lon="7.05684">
        <ele>1947</ele>
        <time>2022-08-27T23:17:36Z</time>
      </trkpt>
      <trkpt lat="46.04651" lon="7.05684">
        <ele>1947</ele>
        <time>2022-08-27T23:17:37Z</time>
      </trkpt>
      <trkpt lat="46.04652" lon="7.05684">
        <ele>1947</ele>
        <time>2022-08-27T23:17:38Z</time>
      </trkpt>
      <trkpt lat="46.04652" lon="7.05685">
        <ele>1948</ele>
        <time>2022-08-27T23:17:40Z</time>
      </trkpt>
      <trkpt lat="46.04652" lon="7.05685">
        <ele>1948</ele>
        <time>2022-08-27T23:17:42Z</time>
      </trkpt>
      <trkpt lat="46.04653" lon="7.05685">
        <ele>1948</ele>
        <time>2022-08-27T23:17:43Z</time>
      </trkpt>
      <trkpt lat="46.04653" lon="7.05686">
        <ele>1949</ele>
        <time>2022-08-27T23:17:44Z</time>
      </trkpt>
      <trkpt lat="46.04653" lon="7.05686">
        <ele>1949</ele>
        <time>2022-08-27T23:17:46Z</time>
      </trkpt>
      <trkpt lat="46.04654" lon="7.05686">
        <ele>1949</ele>
        <time>2022-08-27T23:17:47Z</time>
      </trkpt>
      <trkpt lat="46.04654" lon="7.05687">
        <ele>1949</ele>
        <time>2022-08-27T23:17:48Z</time>
      </trkpt>
      <trkpt lat="46.04654" lon="7.05687">
        <ele>1949</ele>
        <time>2022-08-27T23:17:49Z</time>
      </trkpt>
      <trkpt lat="46.04654" lon="7.05687">
        <ele>1949</ele>
        <time>2022-08-27T23:17:50Z</time>
      </trkpt>
      <trkpt lat="46.04655" lon="7.05688">
        <ele>1949</ele>
        <time>2022-08-27T23:17:51Z</time>
      </trkpt>
      <trkpt lat="46.04655" lon="7.05688">
        <ele>1949</ele>
        <time>2022-08-27T23:17:52Z</time>
      </trkpt>
      <trkpt lat="46.04655" lon="7.05688">
        <ele>1949</ele>
        <time>2022-08-27T23:17:53Z</time>
      </trkpt>
      <trkpt lat="46.04656" lon="7.05689">
        <ele>1949</ele>
        <time>2022-08-27T23:17:54Z</time>
      </trkpt>
      <trkpt lat="46.04656" lon="7.05689">
        <ele>1950</ele>
        <time>2022-08-27T23:17:56Z</time>
      </trkpt>
      <trkpt lat="46.04656" lon="7.0569">
        <ele>1950</ele>
        <time>2022-08-27T23:17:57Z</time>
      </trkpt>
      <trkpt lat="46.04657" lon="7.0569">
        <ele>1951</ele>
        <time>2022-08-27T23:17:58Z</time>
      </trkpt>
      <trkpt lat="46.04657" lon="7.0569">
        <ele>1951</ele>
        <time>2022-08-27T23:17:59Z</time>
      </trkpt>
      <trkpt lat="46.04657" lon="7.05691">
        <ele>1951</ele>
        <time>2022-08-27T23:18:01Z</time>
      </trkpt>
      <trkpt lat="46.04658" lon="7.05691">
        <ele>1952</ele>
        <time>2022-08-27T23:18:03Z</time>
      </trkpt>
      <trkpt lat="46.04658" lon="7.05691">
        <ele>1952</ele>
        <time>2022-08-27T23:18:04Z</time>
      </trkpt>
      <trkpt lat="46.04667" lon="7.05693">
        <ele>1955</ele>
        <time>2022-08-27T23:18:20Z</time>
      </trkpt>
      <trkpt lat="46.04668" lon="7.05693">
        <ele>1955</ele>
        <time>2022-08-27T23:18:21Z</time>
      </trkpt>
      <trkpt lat="46.04669" lon="7.05694">
        <ele>1955</ele>
        <time>2022-08-27T23:18:22Z</time>
      </trkpt>
      <trkpt lat="46.0467" lon="7.05694">
        <ele>1955</ele>
        <time>2022-08-27T23:18:24Z</time>
      </trkpt>
      <trkpt lat="46.04671" lon="7.05694">
        <ele>1956</ele>
        <time>2022-08-27T23:18:25Z</time>
      </trkpt>
      <trkpt lat="46.04672" lon="7.05695">
        <ele>1956</ele>
        <time>2022-08-27T23:18:26Z</time>
      </trkpt>
      <trkpt lat="46.04672" lon="7.05695">
        <ele>1956</ele>
        <time>2022-08-27T23:18:27Z</time>
      </trkpt>
      <trkpt lat="46.04673" lon="7.05696">
        <ele>1956</ele>
        <time>2022-08-27T23:18:29Z</time>
      </trkpt>
      <trkpt lat="46.04674" lon="7.05696">
        <ele>1956</ele>
        <time>2022-08-27T23:18:30Z</time>
      </trkpt>
      <trkpt lat="46.04675" lon="7.05697">
        <ele>1956</ele>
        <time>2022-08-27T23:18:31Z</time>
      </trkpt>
      <trkpt lat="46.04676" lon="7.05697">
        <ele>1956</ele>
        <time>2022-08-27T23:18:32Z</time>
      </trkpt>
      <trkpt lat="46.04678" lon="7.05698">
        <ele>1957</ele>
        <time>2022-08-27T23:18:34Z</time>
      </trkpt>
      <trkpt lat="46.04679" lon="7.05698">
        <ele>1957</ele>
        <time>2022-08-27T23:18:35Z</time>
      </trkpt>
      <trkpt lat="46.04681" lon="7.05698">
        <ele>1957</ele>
        <time>2022-08-27T23:18:36Z</time>
      </trkpt>
      <trkpt lat="46.04682" lon="7.05699">
        <ele>1957</ele>
        <time>2022-08-27T23:18:37Z</time>
      </trkpt>
      <trkpt lat="46.04684" lon="7.05699">
        <ele>1957</ele>
        <time>2022-08-27T23:18:38Z</time>
      </trkpt>
      <trkpt lat="46.04686" lon="7.05699">
        <ele>1957</ele>
        <time>2022-08-27T23:18:39Z</time>
      </trkpt>
      <trkpt lat="46.04686" lon="7.05699">
        <ele>1962</ele>
        <time>2022-08-27T23:19:00Z</time>
      </trkpt>
      <trkpt lat="46.04692" lon="7.05709">
        <ele>1962</ele>
        <time>2022-08-27T23:19:07Z</time>
      </trkpt>
      <trkpt lat="46.04693" lon="7.0571">
        <ele>1962</ele>
        <time>2022-08-27T23:19:08Z</time>
      </trkpt>
      <trkpt lat="46.04693" lon="7.05711">
        <ele>1963</ele>
        <time>2022-08-27T23:19:09Z</time>
      </trkpt>
      <trkpt lat="46.04694" lon="7.05712">
        <ele>1963</ele>
        <time>2022-08-27T23:19:10Z</time>
      </trkpt>
      <trkpt lat="46.04694" lon="7.05713">
        <ele>1963</ele>
        <time>2022-08-27T23:19:12Z</time>
      </trkpt>
      <trkpt lat="46.04695" lon="7.05714">
        <ele>1963</ele>
        <time>2022-08-27T23:19:13Z</time>
      </trkpt>
      <trkpt lat="46.04695" lon="7.05715">
        <ele>1963</ele>
        <time>2022-08-27T23:19:14Z</time>
      </trkpt>
      <trkpt lat="46.04695" lon="7.05716">
        <ele>1964</ele>
        <time>2022-08-27T23:19:15Z</time>
      </trkpt>
      <trkpt lat="46.04696" lon="7.05717">
        <ele>1964</ele>
        <time>2022-08-27T23:19:17Z</time>
      </trkpt>
      <trkpt lat="46.04696" lon="7.05718">
        <ele>1965</ele>
        <time>2022-08-27T23:19:19Z</time>
      </trkpt>
      <trkpt lat="46.04697" lon="7.05719">
        <ele>1965</ele>
        <time>2022-08-27T23:19:20Z</time>
      </trkpt>
      <trkpt lat="46.04697" lon="7.0572">
        <ele>1965</ele>
        <time>2022-08-27T23:19:21Z</time>
      </trkpt>
      <trkpt lat="46.04697" lon="7.0572">
        <ele>1969</ele>
        <time>2022-08-27T23:19:41Z</time>
      </trkpt>
      <trkpt lat="46.04706" lon="7.05726">
        <ele>1969</ele>
        <time>2022-08-27T23:19:45Z</time>
      </trkpt>
      <trkpt lat="46.04713" lon="7.05734">
        <ele>1970</ele>
        <time>2022-08-27T23:19:55Z</time>
      </trkpt>
      <trkpt lat="46.04714" lon="7.05735">
        <ele>1970</ele>
        <time>2022-08-27T23:19:57Z</time>
      </trkpt>
      <trkpt lat="46.04715" lon="7.05736">
        <ele>1970</ele>
        <time>2022-08-27T23:19:58Z</time>
      </trkpt>
      <trkpt lat="46.04715" lon="7.05737">
        <ele>1970</ele>
        <time>2022-08-27T23:19:59Z</time>
      </trkpt>
      <trkpt lat="46.04716" lon="7.05737">
        <ele>1970</ele>
        <time>2022-08-27T23:20:00Z</time>
      </trkpt>
      <trkpt lat="46.04717" lon="7.05738">
        <ele>1971</ele>
        <time>2022-08-27T23:20:02Z</time>
      </trkpt>
      <trkpt lat="46.04717" lon="7.05739">
        <ele>1971</ele>
        <time>2022-08-27T23:20:03Z</time>
      </trkpt>
      <trkpt lat="46.04718" lon="7.05739">
        <ele>1971</ele>
        <time>2022-08-27T23:20:04Z</time>
      </trkpt>
      <trkpt lat="46.04719" lon="7.0574">
        <ele>1971</ele>
        <time>2022-08-27T23:20:05Z</time>
      </trkpt>
      <trkpt lat="46.04719" lon="7.05741">
        <ele>1971</ele>
        <time>2022-08-27T23:20:07Z</time>
      </trkpt>
      <trkpt lat="46.0472" lon="7.05742">
        <ele>1971</ele>
        <time>2022-08-27T23:20:08Z</time>
      </trkpt>
      <trkpt lat="46.04721" lon="7.05742">
        <ele>1971</ele>
        <time>2022-08-27T23:20:09Z</time>
      </trkpt>
      <trkpt lat="46.04721" lon="7.05742">
        <ele>1976</ele>
        <time>2022-08-27T23:20:29Z</time>
      </trkpt>
      <trkpt lat="46.04729" lon="7.05736">
        <ele>1976</ele>
        <time>2022-08-27T23:20:33Z</time>
      </trkpt>
      <trkpt lat="46.0473" lon="7.05737">
        <ele>1977</ele>
        <time>2022-08-27T23:20:35Z</time>
      </trkpt>
      <trkpt lat="46.04731" lon="7.05738">
        <ele>1977</ele>
        <time>2022-08-27T23:20:37Z</time>
      </trkpt>
      <trkpt lat="46.04732" lon="7.05739">
        <ele>1977</ele>
        <time>2022-08-27T23:20:38Z</time>
      </trkpt>
      <trkpt lat="46.04733" lon="7.0574">
        <ele>1977</ele>
        <time>2022-08-27T23:20:39Z</time>
      </trkpt>
      <trkpt lat="46.04734" lon="7.05741">
        <ele>1977</ele>
        <time>2022-08-27T23:20:40Z</time>
      </trkpt>
      <trkpt lat="46.04735" lon="7.05742">
        <ele>1978</ele>
        <time>2022-08-27T23:20:42Z</time>
      </trkpt>
      <trkpt lat="46.04736" lon="7.05743">
        <ele>1978</ele>
        <time>2022-08-27T23:20:43Z</time>
      </trkpt>
      <trkpt lat="46.04737" lon="7.05744">
        <ele>1978</ele>
        <time>2022-08-27T23:20:44Z</time>
      </trkpt>
      <trkpt lat="46.04737" lon="7.05744">
        <ele>1978</ele>
        <time>2022-08-27T23:20:45Z</time>
      </trkpt>
      <trkpt lat="46.04738" lon="7.05744">
        <ele>1978</ele>
        <time>2022-08-27T23:20:47Z</time>
      </trkpt>
      <trkpt lat="46.04739" lon="7.05744">
        <ele>1978</ele>
        <time>2022-08-27T23:20:48Z</time>
      </trkpt>
      <trkpt lat="46.04739" lon="7.05744">
        <ele>1979</ele>
        <time>2022-08-27T23:20:49Z</time>
      </trkpt>
      <trkpt lat="46.0474" lon="7.05744">
        <ele>1979</ele>
        <time>2022-08-27T23:20:50Z</time>
      </trkpt>
      <trkpt lat="46.0474" lon="7.05745">
        <ele>1979</ele>
        <time>2022-08-27T23:20:52Z</time>
      </trkpt>
      <trkpt lat="46.04741" lon="7.05745">
        <ele>1980</ele>
        <time>2022-08-27T23:20:54Z</time>
      </trkpt>
      <trkpt lat="46.04741" lon="7.05745">
        <ele>1981</ele>
        <time>2022-08-27T23:20:55Z</time>
      </trkpt>
      <trkpt lat="46.04742" lon="7.05745">
        <ele>1981</ele>
        <time>2022-08-27T23:20:56Z</time>
      </trkpt>
      <trkpt lat="46.04743" lon="7.05745">
        <ele>1981</ele>
        <time>2022-08-27T23:20:57Z</time>
      </trkpt>
      <trkpt lat="46.04743" lon="7.05745">
        <ele>1980</ele>
        <time>2022-08-27T23:20:59Z</time>
      </trkpt>
      <trkpt lat="46.04744" lon="7.05745">
        <ele>1980</ele>
        <time>2022-08-27T23:21:00Z</time>
      </trkpt>
      <trkpt lat="46.04744" lon="7.05745">
        <ele>1980</ele>
        <time>2022-08-27T23:21:01Z</time>
      </trkpt>
      <trkpt lat="46.04745" lon="7.05745">
        <ele>1980</ele>
        <time>2022-08-27T23:21:02Z</time>
      </trkpt>
      <trkpt lat="46.04746" lon="7.05745">
        <ele>1980</ele>
        <time>2022-08-27T23:21:04Z</time>
      </trkpt>
      <trkpt lat="46.04746" lon="7.05745">
        <ele>1981</ele>
        <time>2022-08-27T23:21:05Z</time>
      </trkpt>
      <trkpt lat="46.04747" lon="7.05745">
        <ele>1981</ele>
        <time>2022-08-27T23:21:06Z</time>
      </trkpt>
      <trkpt lat="46.04747" lon="7.05745">
        <ele>1981</ele>
        <time>2022-08-27T23:21:07Z</time>
      </trkpt>
      <trkpt lat="46.04748" lon="7.05745">
        <ele>1981</ele>
        <time>2022-08-27T23:21:09Z</time>
      </trkpt>
      <trkpt lat="46.04748" lon="7.05744">
        <ele>1982</ele>
        <time>2022-08-27T23:21:11Z</time>
      </trkpt>
      <trkpt lat="46.04749" lon="7.05744">
        <ele>1983</ele>
        <time>2022-08-27T23:21:13Z</time>
      </trkpt>
      <trkpt lat="46.04749" lon="7.05744">
        <ele>1983</ele>
        <time>2022-08-27T23:21:15Z</time>
      </trkpt>
      <trkpt lat="46.0475" lon="7.05744">
        <ele>1983</ele>
        <time>2022-08-27T23:21:16Z</time>
      </trkpt>
      <trkpt lat="46.0475" lon="7.05744">
        <ele>1983</ele>
        <time>2022-08-27T23:21:17Z</time>
      </trkpt>
      <trkpt lat="46.04751" lon="7.05744">
        <ele>1983</ele>
        <time>2022-08-27T23:21:18Z</time>
      </trkpt>
      <trkpt lat="46.04751" lon="7.05744">
        <ele>1984</ele>
        <time>2022-08-27T23:21:20Z</time>
      </trkpt>
      <trkpt lat="46.04752" lon="7.05744">
        <ele>1984</ele>
        <time>2022-08-27T23:21:21Z</time>
      </trkpt>
      <trkpt lat="46.04752" lon="7.05744">
        <ele>1984</ele>
        <time>2022-08-27T23:21:22Z</time>
      </trkpt>
      <trkpt lat="46.04753" lon="7.05744">
        <ele>1984</ele>
        <time>2022-08-27T23:21:23Z</time>
      </trkpt>
      <trkpt lat="46.04753" lon="7.05744">
        <ele>1985</ele>
        <time>2022-08-27T23:21:25Z</time>
      </trkpt>
      <trkpt lat="46.04754" lon="7.05744">
        <ele>1985</ele>
        <time>2022-08-27T23:21:26Z</time>
      </trkpt>
      <trkpt lat="46.04754" lon="7.05744">
        <ele>1985</ele>
        <time>2022-08-27T23:21:27Z</time>
      </trkpt>
      <trkpt lat="46.04755" lon="7.05744">
        <ele>1985</ele>
        <time>2022-08-27T23:21:28Z</time>
      </trkpt>
      <trkpt lat="46.04755" lon="7.05743">
        <ele>1985</ele>
        <time>2022-08-27T23:21:30Z</time>
      </trkpt>
      <trkpt lat="46.04756" lon="7.05743">
        <ele>1985</ele>
        <time>2022-08-27T23:21:31Z</time>
      </trkpt>
      <trkpt lat="46.04756" lon="7.05743">
        <ele>1985</ele>
        <time>2022-08-27T23:21:32Z</time>
      </trkpt>
      <trkpt lat="46.04757" lon="7.05743">
        <ele>1985</ele>
        <time>2022-08-27T23:21:33Z</time>
      </trkpt>
      <trkpt lat="46.04757" lon="7.05743">
        <ele>1985</ele>
        <time>2022-08-27T23:21:34Z</time>
      </trkpt>
      <trkpt lat="46.04758" lon="7.05743">
        <ele>1986</ele>
        <time>2022-08-27T23:21:35Z</time>
      </trkpt>
      <trkpt lat="46.04758" lon="7.05742">
        <ele>1986</ele>
        <time>2022-08-27T23:21:37Z</time>
      </trkpt>
      <trkpt lat="46.04759" lon="7.05742">
        <ele>1986</ele>
        <time>2022-08-27T23:21:38Z</time>
      </trkpt>
      <trkpt lat="46.04759" lon="7.05742">
        <ele>1986</ele>
        <time>2022-08-27T23:21:39Z</time>
      </trkpt>
      <trkpt lat="46.0476" lon="7.05741">
        <ele>1988</ele>
        <time>2022-08-27T23:21:40Z</time>
      </trkpt>
      <trkpt lat="46.0476" lon="7.05741">
        <ele>1988</ele>
        <time>2022-08-27T23:21:42Z</time>
      </trkpt>
      <trkpt lat="46.0476" lon="7.05741">
        <ele>1988</ele>
        <time>2022-08-27T23:21:43Z</time>
      </trkpt>
      <trkpt lat="46.04761" lon="7.05741">
        <ele>1989</ele>
        <time>2022-08-27T23:21:45Z</time>
      </trkpt>
      <trkpt lat="46.04761" lon="7.0574">
        <ele>1989</ele>
        <time>2022-08-27T23:21:46Z</time>
      </trkpt>
      <trkpt lat="46.04762" lon="7.0574">
        <ele>1989</ele>
        <time>2022-08-27T23:21:47Z</time>
      </trkpt>
      <trkpt lat="46.04762" lon="7.0574">
        <ele>1990</ele>
        <time>2022-08-27T23:21:49Z</time>
      </trkpt>
      <trkpt lat="46.04763" lon="7.05739">
        <ele>1990</ele>
        <time>2022-08-27T23:21:50Z</time>
      </trkpt>
      <trkpt lat="46.04763" lon="7.05739">
        <ele>1989</ele>
        <time>2022-08-27T23:21:51Z</time>
      </trkpt>
      <trkpt lat="46.04764" lon="7.05739">
        <ele>1990</ele>
        <time>2022-08-27T23:21:53Z</time>
      </trkpt>
      <trkpt lat="46.04764" lon="7.05739">
        <ele>1990</ele>
        <time>2022-08-27T23:21:54Z</time>
      </trkpt>
      <trkpt lat="46.04765" lon="7.05738">
        <ele>1990</ele>
        <time>2022-08-27T23:21:55Z</time>
      </trkpt>
      <trkpt lat="46.04765" lon="7.05738">
        <ele>1990</ele>
        <time>2022-08-27T23:21:56Z</time>
      </trkpt>
      <trkpt lat="46.04765" lon="7.05738">
        <ele>1990</ele>
        <time>2022-08-27T23:21:57Z</time>
      </trkpt>
      <trkpt lat="46.04766" lon="7.05739">
        <ele>1991</ele>
        <time>2022-08-27T23:21:58Z</time>
      </trkpt>
      <trkpt lat="46.04766" lon="7.05739">
        <ele>1991</ele>
        <time>2022-08-27T23:22:00Z</time>
      </trkpt>
      <trkpt lat="46.04767" lon="7.05739">
        <ele>1991</ele>
        <time>2022-08-27T23:22:01Z</time>
      </trkpt>
      <trkpt lat="46.04767" lon="7.05739">
        <ele>1991</ele>
        <time>2022-08-27T23:22:02Z</time>
      </trkpt>
      <trkpt lat="46.04767" lon="7.05739">
        <ele>1991</ele>
        <time>2022-08-27T23:22:03Z</time>
      </trkpt>
      <trkpt lat="46.04768" lon="7.05739">
        <ele>1991</ele>
        <time>2022-08-27T23:22:05Z</time>
      </trkpt>
      <trkpt lat="46.04768" lon="7.05739">
        <ele>1991</ele>
        <time>2022-08-27T23:22:07Z</time>
      </trkpt>
      <trkpt lat="46.04769" lon="7.05739">
        <ele>1992</ele>
        <time>2022-08-27T23:22:08Z</time>
      </trkpt>
      <trkpt lat="46.04769" lon="7.05739">
        <ele>1992</ele>
        <time>2022-08-27T23:22:09Z</time>
      </trkpt>
      <trkpt lat="46.0477" lon="7.05739">
        <ele>1992</ele>
        <time>2022-08-27T23:22:10Z</time>
      </trkpt>
      <trkpt lat="46.0477" lon="7.05739">
        <ele>1993</ele>
        <time>2022-08-27T23:22:12Z</time>
      </trkpt>
      <trkpt lat="46.0477" lon="7.05739">
        <ele>1993</ele>
        <time>2022-08-27T23:22:13Z</time>
      </trkpt>
      <trkpt lat="46.04771" lon="7.05739">
        <ele>1994</ele>
        <time>2022-08-27T23:22:14Z</time>
      </trkpt>
      <trkpt lat="46.04771" lon="7.05739">
        <ele>1994</ele>
        <time>2022-08-27T23:22:15Z</time>
      </trkpt>
      <trkpt lat="46.04772" lon="7.0574">
        <ele>1994</ele>
        <time>2022-08-27T23:22:17Z</time>
      </trkpt>
      <trkpt lat="46.04772" lon="7.0574">
        <ele>1994</ele>
        <time>2022-08-27T23:22:18Z</time>
      </trkpt>
      <trkpt lat="46.04772" lon="7.0574">
        <ele>1995</ele>
        <time>2022-08-27T23:22:19Z</time>
      </trkpt>
      <trkpt lat="46.04773" lon="7.0574">
        <ele>1995</ele>
        <time>2022-08-27T23:22:20Z</time>
      </trkpt>
      <trkpt lat="46.04773" lon="7.0574">
        <ele>1995</ele>
        <time>2022-08-27T23:22:21Z</time>
      </trkpt>
      <trkpt lat="46.04774" lon="7.0574">
        <ele>1995</ele>
        <time>2022-08-27T23:22:22Z</time>
      </trkpt>
      <trkpt lat="46.04774" lon="7.0574">
        <ele>1997</ele>
        <time>2022-08-27T23:22:42Z</time>
      </trkpt>
      <trkpt lat="46.04783" lon="7.05741">
        <ele>1998</ele>
        <time>2022-08-27T23:22:46Z</time>
      </trkpt>
      <trkpt lat="46.04783" lon="7.05741">
        <ele>1999</ele>
        <time>2022-08-27T23:22:47Z</time>
      </trkpt>
      <trkpt lat="46.04784" lon="7.05741">
        <ele>1999</ele>
        <time>2022-08-27T23:22:48Z</time>
      </trkpt>
      <trkpt lat="46.04784" lon="7.05741">
        <ele>1999</ele>
        <time>2022-08-27T23:22:49Z</time>
      </trkpt>
      <trkpt lat="46.04785" lon="7.05741">
        <ele>1999</ele>
        <time>2022-08-27T23:22:51Z</time>
      </trkpt>
      <trkpt lat="46.04785" lon="7.05741">
        <ele>1999</ele>
        <time>2022-08-27T23:22:52Z</time>
      </trkpt>
      <trkpt lat="46.04786" lon="7.05741">
        <ele>2000</ele>
        <time>2022-08-27T23:22:53Z</time>
      </trkpt>
      <trkpt lat="46.04786" lon="7.0574">
        <ele>2000</ele>
        <time>2022-08-27T23:22:54Z</time>
      </trkpt>
      <trkpt lat="46.04787" lon="7.0574">
        <ele>2000</ele>
        <time>2022-08-27T23:22:56Z</time>
      </trkpt>
      <trkpt lat="46.04787" lon="7.0574">
        <ele>2001</ele>
        <time>2022-08-27T23:22:57Z</time>
      </trkpt>
      <trkpt lat="46.04788" lon="7.0574">
        <ele>2001</ele>
        <time>2022-08-27T23:22:58Z</time>
      </trkpt>
      <trkpt lat="46.04788" lon="7.0574">
        <ele>2001</ele>
        <time>2022-08-27T23:22:59Z</time>
      </trkpt>
      <trkpt lat="46.04789" lon="7.0574">
        <ele>2001</ele>
        <time>2022-08-27T23:23:01Z</time>
      </trkpt>
      <trkpt lat="46.04789" lon="7.0574">
        <ele>2001</ele>
        <time>2022-08-27T23:23:02Z</time>
      </trkpt>
      <trkpt lat="46.0479" lon="7.0574">
        <ele>2001</ele>
        <time>2022-08-27T23:23:03Z</time>
      </trkpt>
      <trkpt lat="46.0479" lon="7.0574">
        <ele>2001</ele>
        <time>2022-08-27T23:23:05Z</time>
      </trkpt>
      <trkpt lat="46.04791" lon="7.0574">
        <ele>2002</ele>
        <time>2022-08-27T23:23:06Z</time>
      </trkpt>
      <trkpt lat="46.04791" lon="7.0574">
        <ele>2002</ele>
        <time>2022-08-27T23:23:07Z</time>
      </trkpt>
      <trkpt lat="46.04791" lon="7.05739">
        <ele>2002</ele>
        <time>2022-08-27T23:23:09Z</time>
      </trkpt>
      <trkpt lat="46.04792" lon="7.05739">
        <ele>2002</ele>
        <time>2022-08-27T23:23:10Z</time>
      </trkpt>
      <trkpt lat="46.04802" lon="7.05738">
        <ele>2005</ele>
        <time>2022-08-27T23:23:24Z</time>
      </trkpt>
      <trkpt lat="46.04803" lon="7.05738">
        <ele>2005</ele>
        <time>2022-08-27T23:23:26Z</time>
      </trkpt>
      <trkpt lat="46.04804" lon="7.05738">
        <ele>2006</ele>
        <time>2022-08-27T23:23:27Z</time>
      </trkpt>
      <trkpt lat="46.04805" lon="7.05738">
        <ele>2006</ele>
        <time>2022-08-27T23:23:28Z</time>
      </trkpt>
      <trkpt lat="46.04806" lon="7.05739">
        <ele>2006</ele>
        <time>2022-08-27T23:23:29Z</time>
      </trkpt>
      <trkpt lat="46.04806" lon="7.05739">
        <ele>2006</ele>
        <time>2022-08-27T23:23:31Z</time>
      </trkpt>
      <trkpt lat="46.04807" lon="7.05739">
        <ele>2006</ele>
        <time>2022-08-27T23:23:32Z</time>
      </trkpt>
      <trkpt lat="46.04808" lon="7.05739">
        <ele>2006</ele>
        <time>2022-08-27T23:23:33Z</time>
      </trkpt>
      <trkpt lat="46.04809" lon="7.0574">
        <ele>2006</ele>
        <time>2022-08-27T23:23:34Z</time>
      </trkpt>
      <trkpt lat="46.04809" lon="7.0574">
        <ele>2007</ele>
        <time>2022-08-27T23:23:36Z</time>
      </trkpt>
      <trkpt lat="46.0481" lon="7.0574">
        <ele>2008</ele>
        <time>2022-08-27T23:23:38Z</time>
      </trkpt>
      <trkpt lat="46.04811" lon="7.0574">
        <ele>2008</ele>
        <time>2022-08-27T23:23:39Z</time>
      </trkpt>
      <trkpt lat="46.04812" lon="7.05741">
        <ele>2008</ele>
        <time>2022-08-27T23:23:40Z</time>
      </trkpt>
      <trkpt lat="46.04813" lon="7.05741">
        <ele>2008</ele>
        <time>2022-08-27T23:23:41Z</time>
      </trkpt>
      <trkpt lat="46.04815" lon="7.05741">
        <ele>2008</ele>
        <time>2022-08-27T23:23:43Z</time>
      </trkpt>
      <trkpt lat="46.04817" lon="7.05742">
        <ele>2008</ele>
        <time>2022-08-27T23:23:44Z</time>
      </trkpt>
      <trkpt lat="46.04818" lon="7.05742">
        <ele>2008</ele>
        <time>2022-08-27T23:23:45Z</time>
      </trkpt>
      <trkpt lat="46.0482" lon="7.05743">
        <ele>2008</ele>
        <time>2022-08-27T23:23:46Z</time>
      </trkpt>
      <trkpt lat="46.04821" lon="7.05743">
        <ele>2009</ele>
        <time>2022-08-27T23:23:47Z</time>
      </trkpt>
      <trkpt lat="46.04822" lon="7.05743">
        <ele>2009</ele>
        <time>2022-08-27T23:23:48Z</time>
      </trkpt>
      <trkpt lat="46.04823" lon="7.05743">
        <ele>2009</ele>
        <time>2022-08-27T23:23:49Z</time>
      </trkpt>
      <trkpt lat="46.04823" lon="7.05743">
        <ele>2009</ele>
        <time>2022-08-27T23:23:50Z</time>
      </trkpt>
      <trkpt lat="46.04824" lon="7.05743">
        <ele>2009</ele>
        <time>2022-08-27T23:23:52Z</time>
      </trkpt>
      <trkpt lat="46.04825" lon="7.05743">
        <ele>2010</ele>
        <time>2022-08-27T23:23:53Z</time>
      </trkpt>
      <trkpt lat="46.04826" lon="7.05743">
        <ele>2010</ele>
        <time>2022-08-27T23:23:54Z</time>
      </trkpt>
      <trkpt lat="46.04826" lon="7.05742">
        <ele>2010</ele>
        <time>2022-08-27T23:23:55Z</time>
      </trkpt>
      <trkpt lat="46.04827" lon="7.05742">
        <ele>2010</ele>
        <time>2022-08-27T23:23:57Z</time>
      </trkpt>
      <trkpt lat="46.04828" lon="7.05742">
        <ele>2010</ele>
        <time>2022-08-27T23:23:58Z</time>
      </trkpt>
      <trkpt lat="46.04828" lon="7.05742">
        <ele>2011</ele>
        <time>2022-08-27T23:23:59Z</time>
      </trkpt>
      <trkpt lat="46.04829" lon="7.05742">
        <ele>2011</ele>
        <time>2022-08-27T23:24:00Z</time>
      </trkpt>
      <trkpt lat="46.0483" lon="7.05742">
        <ele>2011</ele>
        <time>2022-08-27T23:24:02Z</time>
      </trkpt>
      <trkpt lat="46.0483" lon="7.05742">
        <ele>2012</ele>
        <time>2022-08-27T23:24:04Z</time>
      </trkpt>
      <trkpt lat="46.04831" lon="7.05742">
        <ele>2012</ele>
        <time>2022-08-27T23:24:05Z</time>
      </trkpt>
      <trkpt lat="46.04832" lon="7.05742">
        <ele>2012</ele>
        <time>2022-08-27T23:24:07Z</time>
      </trkpt>
      <trkpt lat="46.04832" lon="7.05742">
        <ele>2012</ele>
        <time>2022-08-27T23:24:08Z</time>
      </trkpt>
      <trkpt lat="46.04833" lon="7.05742">
        <ele>2012</ele>
        <time>2022-08-27T23:24:09Z</time>
      </trkpt>
      <trkpt lat="46.04834" lon="7.05743">
        <ele>2012</ele>
        <time>2022-08-27T23:24:10Z</time>
      </trkpt>
      <trkpt lat="46.04834" lon="7.05743">
        <ele>2012</ele>
        <time>2022-08-27T23:24:12Z</time>
      </trkpt>
      <trkpt lat="46.04835" lon="7.05743">
        <ele>2014</ele>
        <time>2022-08-27T23:24:13Z</time>
      </trkpt>
      <trkpt lat="46.04836" lon="7.05743">
        <ele>2014</ele>
        <time>2022-08-27T23:24:14Z</time>
      </trkpt>
      <trkpt lat="46.04837" lon="7.05743">
        <ele>2014</ele>
        <time>2022-08-27T23:24:15Z</time>
      </trkpt>
      <trkpt lat="46.04837" lon="7.05744">
        <ele>2014</ele>
        <time>2022-08-27T23:24:17Z</time>
      </trkpt>
      <trkpt lat="46.04838" lon="7.05744">
        <ele>2014</ele>
        <time>2022-08-27T23:24:18Z</time>
      </trkpt>
      <trkpt lat="46.04839" lon="7.05744">
        <ele>2015</ele>
        <time>2022-08-27T23:24:19Z</time>
      </trkpt>
      <trkpt lat="46.04839" lon="7.05744">
        <ele>2015</ele>
        <time>2022-08-27T23:24:21Z</time>
      </trkpt>
      <trkpt lat="46.0484" lon="7.05744">
        <ele>2015</ele>
        <time>2022-08-27T23:24:22Z</time>
      </trkpt>
      <trkpt lat="46.04841" lon="7.05746">
        <ele>2015</ele>
        <time>2022-08-27T23:24:23Z</time>
      </trkpt>
      <trkpt lat="46.04842" lon="7.05747">
        <ele>2016</ele>
        <time>2022-08-27T23:24:25Z</time>
      </trkpt>
      <trkpt lat="46.04842" lon="7.05748">
        <ele>2016</ele>
        <time>2022-08-27T23:24:26Z</time>
      </trkpt>
      <trkpt lat="46.04843" lon="7.05749">
        <ele>2017</ele>
        <time>2022-08-27T23:24:27Z</time>
      </trkpt>
      <trkpt lat="46.04844" lon="7.0575">
        <ele>2017</ele>
        <time>2022-08-27T23:24:28Z</time>
      </trkpt>
      <trkpt lat="46.04845" lon="7.05752">
        <ele>2017</ele>
        <time>2022-08-27T23:24:30Z</time>
      </trkpt>
      <trkpt lat="46.04846" lon="7.05753">
        <ele>2017</ele>
        <time>2022-08-27T23:24:31Z</time>
      </trkpt>
      <trkpt lat="46.04847" lon="7.05754">
        <ele>2017</ele>
        <time>2022-08-27T23:24:32Z</time>
      </trkpt>
      <trkpt lat="46.04847" lon="7.05754">
        <ele>2017</ele>
        <time>2022-08-27T23:24:33Z</time>
      </trkpt>
      <trkpt lat="46.04848" lon="7.05754">
        <ele>2017</ele>
        <time>2022-08-27T23:24:35Z</time>
      </trkpt>
      <trkpt lat="46.04848" lon="7.05754">
        <ele>2017</ele>
        <time>2022-08-27T23:24:36Z</time>
      </trkpt>
      <trkpt lat="46.04849" lon="7.05755">
        <ele>2017</ele>
        <time>2022-08-27T23:24:37Z</time>
      </trkpt>
      <trkpt lat="46.0485" lon="7.05755">
        <ele>2017</ele>
        <time>2022-08-27T23:24:38Z</time>
      </trkpt>
      <trkpt lat="46.0485" lon="7.05755">
        <ele>2017</ele>
        <time>2022-08-27T23:24:40Z</time>
      </trkpt>
      <trkpt lat="46.04851" lon="7.05755">
        <ele>2018</ele>
        <time>2022-08-27T23:24:42Z</time>
      </trkpt>
      <trkpt lat="46.04851" lon="7.05755">
        <ele>2019</ele>
        <time>2022-08-27T23:24:43Z</time>
      </trkpt>
      <trkpt lat="46.04852" lon="7.05755">
        <ele>2019</ele>
        <time>2022-08-27T23:24:44Z</time>
      </trkpt>
      <trkpt lat="46.04852" lon="7.05755">
        <ele>2019</ele>
        <time>2022-08-27T23:24:45Z</time>
      </trkpt>
      <trkpt lat="46.04853" lon="7.05755">
        <ele>2019</ele>
        <time>2022-08-27T23:24:47Z</time>
      </trkpt>
      <trkpt lat="46.04853" lon="7.05756">
        <ele>2019</ele>
        <time>2022-08-27T23:24:48Z</time>
      </trkpt>
      <trkpt lat="46.04854" lon="7.05756">
        <ele>2020</ele>
        <time>2022-08-27T23:24:49Z</time>
      </trkpt>
      <trkpt lat="46.04855" lon="7.05756">
        <ele>2020</ele>
        <time>2022-08-27T23:24:50Z</time>
      </trkpt>
      <trkpt lat="46.04855" lon="7.05756">
        <ele>2020</ele>
        <time>2022-08-27T23:24:52Z</time>
      </trkpt>
      <trkpt lat="46.04856" lon="7.05756">
        <ele>2020</ele>
        <time>2022-08-27T23:24:53Z</time>
      </trkpt>
      <trkpt lat="46.04856" lon="7.05756">
        <ele>2021</ele>
        <time>2022-08-27T23:24:54Z</time>
      </trkpt>
      <trkpt lat="46.04857" lon="7.05756">
        <ele>2021</ele>
        <time>2022-08-27T23:24:55Z</time>
      </trkpt>
      <trkpt lat="46.04858" lon="7.05757">
        <ele>2021</ele>
        <time>2022-08-27T23:24:57Z</time>
      </trkpt>
      <trkpt lat="46.04859" lon="7.05757">
        <ele>2021</ele>
        <time>2022-08-27T23:24:59Z</time>
      </trkpt>
      <trkpt lat="46.04859" lon="7.05757">
        <ele>2021</ele>
        <time>2022-08-27T23:25:00Z</time>
      </trkpt>
      <trkpt lat="46.0486" lon="7.05758">
        <ele>2021</ele>
        <time>2022-08-27T23:25:01Z</time>
      </trkpt>
      <trkpt lat="46.04861" lon="7.05758">
        <ele>2022</ele>
        <time>2022-08-27T23:25:02Z</time>
      </trkpt>
      <trkpt lat="46.04862" lon="7.05758">
        <ele>2022</ele>
        <time>2022-08-27T23:25:04Z</time>
      </trkpt>
      <trkpt lat="46.04862" lon="7.05759">
        <ele>2022</ele>
        <time>2022-08-27T23:25:05Z</time>
      </trkpt>
      <trkpt lat="46.04863" lon="7.05759">
        <ele>2022</ele>
        <time>2022-08-27T23:25:06Z</time>
      </trkpt>
      <trkpt lat="46.04864" lon="7.05759">
        <ele>2023</ele>
        <time>2022-08-27T23:25:07Z</time>
      </trkpt>
      <trkpt lat="46.04865" lon="7.05759">
        <ele>2023</ele>
        <time>2022-08-27T23:25:09Z</time>
      </trkpt>
      <trkpt lat="46.04866" lon="7.0576">
        <ele>2023</ele>
        <time>2022-08-27T23:25:10Z</time>
      </trkpt>
      <trkpt lat="46.04866" lon="7.0576">
        <ele>2023</ele>
        <time>2022-08-27T23:25:11Z</time>
      </trkpt>
      <trkpt lat="46.04866" lon="7.0576">
        <ele>2024</ele>
        <time>2022-08-27T23:25:12Z</time>
      </trkpt>
      <trkpt lat="46.04867" lon="7.0576">
        <ele>2024</ele>
        <time>2022-08-27T23:25:13Z</time>
      </trkpt>
      <trkpt lat="46.04867" lon="7.0576">
        <ele>2024</ele>
        <time>2022-08-27T23:25:15Z</time>
      </trkpt>
      <trkpt lat="46.04868" lon="7.0576">
        <ele>2024</ele>
        <time>2022-08-27T23:25:17Z</time>
      </trkpt>
      <trkpt lat="46.04868" lon="7.0576">
        <ele>2024</ele>
        <time>2022-08-27T23:25:18Z</time>
      </trkpt>
      <trkpt lat="46.04869" lon="7.0576">
        <ele>2024</ele>
        <time>2022-08-27T23:25:19Z</time>
      </trkpt>
      <trkpt lat="46.04869" lon="7.0576">
        <ele>2025</ele>
        <time>2022-08-27T23:25:20Z</time>
      </trkpt>
      <trkpt lat="46.04869" lon="7.0576">
        <ele>2025</ele>
        <time>2022-08-27T23:25:22Z</time>
      </trkpt>
      <trkpt lat="46.0487" lon="7.0576">
        <ele>2025</ele>
        <time>2022-08-27T23:25:23Z</time>
      </trkpt>
      <trkpt lat="46.0487" lon="7.0576">
        <ele>2025</ele>
        <time>2022-08-27T23:25:24Z</time>
      </trkpt>
      <trkpt lat="46.04871" lon="7.0576">
        <ele>2026</ele>
        <time>2022-08-27T23:25:25Z</time>
      </trkpt>
      <trkpt lat="46.04871" lon="7.0576">
        <ele>2026</ele>
        <time>2022-08-27T23:25:27Z</time>
      </trkpt>
      <trkpt lat="46.04872" lon="7.0576">
        <ele>2027</ele>
        <time>2022-08-27T23:25:28Z</time>
      </trkpt>
      <trkpt lat="46.04872" lon="7.0576">
        <ele>2027</ele>
        <time>2022-08-27T23:25:29Z</time>
      </trkpt>
      <trkpt lat="46.04872" lon="7.0576">
        <ele>2027</ele>
        <time>2022-08-27T23:25:30Z</time>
      </trkpt>
      <trkpt lat="46.04873" lon="7.0576">
        <ele>2027</ele>
        <time>2022-08-27T23:25:32Z</time>
      </trkpt>
      <trkpt lat="46.04873" lon="7.0576">
        <ele>2027</ele>
        <time>2022-08-27T23:25:33Z</time>
      </trkpt>
      <trkpt lat="46.04874" lon="7.0576">
        <ele>2027</ele>
        <time>2022-08-27T23:25:34Z</time>
      </trkpt>
      <trkpt lat="46.04874" lon="7.0576">
        <ele>2028</ele>
        <time>2022-08-27T23:25:35Z</time>
      </trkpt>
      <trkpt lat="46.04875" lon="7.0576">
        <ele>2028</ele>
        <time>2022-08-27T23:25:37Z</time>
      </trkpt>
      <trkpt lat="46.04875" lon="7.0576">
        <ele>2028</ele>
        <time>2022-08-27T23:25:39Z</time>
      </trkpt>
      <trkpt lat="46.04875" lon="7.0576">
        <ele>2028</ele>
        <time>2022-08-27T23:25:40Z</time>
      </trkpt>
      <trkpt lat="46.04876" lon="7.0576">
        <ele>2028</ele>
        <time>2022-08-27T23:25:41Z</time>
      </trkpt>
      <trkpt lat="46.04876" lon="7.0576">
        <ele>2028</ele>
        <time>2022-08-27T23:25:42Z</time>
      </trkpt>
      <trkpt lat="46.04877" lon="7.0576">
        <ele>2029</ele>
        <time>2022-08-27T23:25:44Z</time>
      </trkpt>
      <trkpt lat="46.04878" lon="7.0576">
        <ele>2029</ele>
        <time>2022-08-27T23:25:45Z</time>
      </trkpt>
      <trkpt lat="46.04878" lon="7.0576">
        <ele>2029</ele>
        <time>2022-08-27T23:25:46Z</time>
      </trkpt>
      <trkpt lat="46.04879" lon="7.0576">
        <ele>2029</ele>
        <time>2022-08-27T23:25:47Z</time>
      </trkpt>
      <trkpt lat="46.04885" lon="7.05761">
        <ele>2030</ele>
        <time>2022-08-27T23:25:49Z</time>
      </trkpt>
      <trkpt lat="46.04885" lon="7.05761">
        <ele>2034</ele>
        <time>2022-08-27T23:26:10Z</time>
      </trkpt>
      <trkpt lat="46.04893" lon="7.05767">
        <ele>2036</ele>
        <time>2022-08-27T23:26:22Z</time>
      </trkpt>
      <trkpt lat="46.04897" lon="7.0578">
        <ele>2038</ele>
        <time>2022-08-27T23:26:34Z</time>
      </trkpt>
      <trkpt lat="46.04898" lon="7.0578">
        <ele>2038</ele>
        <time>2022-08-27T23:26:35Z</time>
      </trkpt>
      <trkpt lat="46.049" lon="7.0578">
        <ele>2038</ele>
        <time>2022-08-27T23:26:36Z</time>
      </trkpt>
      <trkpt lat="46.04901" lon="7.05781">
        <ele>2038</ele>
        <time>2022-08-27T23:26:37Z</time>
      </trkpt>
      <trkpt lat="46.04902" lon="7.05781">
        <ele>2038</ele>
        <time>2022-08-27T23:26:39Z</time>
      </trkpt>
      <trkpt lat="46.04904" lon="7.05782">
        <ele>2038</ele>
        <time>2022-08-27T23:26:40Z</time>
      </trkpt>
      <trkpt lat="46.04905" lon="7.05782">
        <ele>2038</ele>
        <time>2022-08-27T23:26:41Z</time>
      </trkpt>
      <trkpt lat="46.04906" lon="7.05782">
        <ele>2038</ele>
        <time>2022-08-27T23:26:42Z</time>
      </trkpt>
      <trkpt lat="46.04908" lon="7.05784">
        <ele>2038</ele>
        <time>2022-08-27T23:26:43Z</time>
      </trkpt>
      <trkpt lat="46.04909" lon="7.05785">
        <ele>2038</ele>
        <time>2022-08-27T23:26:44Z</time>
      </trkpt>
      <trkpt lat="46.04911" lon="7.05786">
        <ele>2038</ele>
        <time>2022-08-27T23:26:46Z</time>
      </trkpt>
      <trkpt lat="46.04912" lon="7.05788">
        <ele>2038</ele>
        <time>2022-08-27T23:26:47Z</time>
      </trkpt>
      <trkpt lat="46.04914" lon="7.05789">
        <ele>2038</ele>
        <time>2022-08-27T23:26:48Z</time>
      </trkpt>
      <trkpt lat="46.04915" lon="7.05791">
        <ele>2040</ele>
        <time>2022-08-27T23:26:49Z</time>
      </trkpt>
      <trkpt lat="46.04917" lon="7.05793">
        <ele>2040</ele>
        <time>2022-08-27T23:26:51Z</time>
      </trkpt>
      <trkpt lat="46.04918" lon="7.05795">
        <ele>2040</ele>
        <time>2022-08-27T23:26:53Z</time>
      </trkpt>
      <trkpt lat="46.0492" lon="7.05796">
        <ele>2040</ele>
        <time>2022-08-27T23:26:54Z</time>
      </trkpt>
      <trkpt lat="46.04922" lon="7.05798">
        <ele>2038</ele>
        <time>2022-08-27T23:26:55Z</time>
      </trkpt>
      <trkpt lat="46.04922" lon="7.05811">
        <ele>2041</ele>
        <time>2022-08-27T23:27:07Z</time>
      </trkpt>
      <trkpt lat="46.04927" lon="7.05814">
        <ele>2042</ele>
        <time>2022-08-27T23:27:17Z</time>
      </trkpt>
      <trkpt lat="46.04928" lon="7.05815">
        <ele>2042</ele>
        <time>2022-08-27T23:27:20Z</time>
      </trkpt>
      <trkpt lat="46.0493" lon="7.05816">
        <ele>2043</ele>
        <time>2022-08-27T23:27:25Z</time>
      </trkpt>
      <trkpt lat="46.04932" lon="7.05818">
        <ele>2043</ele>
        <time>2022-08-27T23:27:28Z</time>
      </trkpt>
      <trkpt lat="46.04933" lon="7.0582">
        <ele>2043</ele>
        <time>2022-08-27T23:27:31Z</time>
      </trkpt>
      <trkpt lat="46.04936" lon="7.05821">
        <ele>2044</ele>
        <time>2022-08-27T23:27:36Z</time>
      </trkpt>
      <trkpt lat="46.04938" lon="7.05823">
        <ele>2045</ele>
        <time>2022-08-27T23:27:39Z</time>
      </trkpt>
      <trkpt lat="46.04941" lon="7.05824">
        <ele>2045</ele>
        <time>2022-08-27T23:27:42Z</time>
      </trkpt>
      <trkpt lat="46.04949" lon="7.05829">
        <ele>2048</ele>
        <time>2022-08-27T23:27:59Z</time>
      </trkpt>
      <trkpt lat="46.04949" lon="7.05829">
        <ele>2048</ele>
        <time>2022-08-27T23:28:02Z</time>
      </trkpt>
      <trkpt lat="46.04952" lon="7.05833">
        <ele>2048</ele>
        <time>2022-08-27T23:28:04Z</time>
      </trkpt>
      <trkpt lat="46.04954" lon="7.05833">
        <ele>2048</ele>
        <time>2022-08-27T23:28:05Z</time>
      </trkpt>
      <trkpt lat="46.04955" lon="7.05833">
        <ele>2048</ele>
        <time>2022-08-27T23:28:06Z</time>
      </trkpt>
      <trkpt lat="46.04956" lon="7.05834">
        <ele>2048</ele>
        <time>2022-08-27T23:28:07Z</time>
      </trkpt>
      <trkpt lat="46.04957" lon="7.05834">
        <ele>2049</ele>
        <time>2022-08-27T23:28:09Z</time>
      </trkpt>
      <trkpt lat="46.04959" lon="7.05835">
        <ele>2050</ele>
        <time>2022-08-27T23:28:10Z</time>
      </trkpt>
      <trkpt lat="46.0496" lon="7.05835">
        <ele>2050</ele>
        <time>2022-08-27T23:28:11Z</time>
      </trkpt>
      <trkpt lat="46.04961" lon="7.05835">
        <ele>2050</ele>
        <time>2022-08-27T23:28:12Z</time>
      </trkpt>
      <trkpt lat="46.04962" lon="7.05836">
        <ele>2050</ele>
        <time>2022-08-27T23:28:14Z</time>
      </trkpt>
      <trkpt lat="46.04962" lon="7.05836">
        <ele>2050</ele>
        <time>2022-08-27T23:28:15Z</time>
      </trkpt>
      <trkpt lat="46.04963" lon="7.05836">
        <ele>2050</ele>
        <time>2022-08-27T23:28:16Z</time>
      </trkpt>
      <trkpt lat="46.04963" lon="7.05836">
        <ele>2050</ele>
        <time>2022-08-27T23:28:17Z</time>
      </trkpt>
      <trkpt lat="46.04964" lon="7.05836">
        <ele>2051</ele>
        <time>2022-08-27T23:28:19Z</time>
      </trkpt>
      <trkpt lat="46.04965" lon="7.05836">
        <ele>2051</ele>
        <time>2022-08-27T23:28:21Z</time>
      </trkpt>
      <trkpt lat="46.04965" lon="7.05837">
        <ele>2051</ele>
        <time>2022-08-27T23:28:22Z</time>
      </trkpt>
      <trkpt lat="46.04966" lon="7.05837">
        <ele>2051</ele>
        <time>2022-08-27T23:28:23Z</time>
      </trkpt>
      <trkpt lat="46.04966" lon="7.05837">
        <ele>2051</ele>
        <time>2022-08-27T23:28:24Z</time>
      </trkpt>
      <trkpt lat="46.04967" lon="7.05837">
        <ele>2052</ele>
        <time>2022-08-27T23:28:26Z</time>
      </trkpt>
      <trkpt lat="46.04967" lon="7.05837">
        <ele>2052</ele>
        <time>2022-08-27T23:28:28Z</time>
      </trkpt>
      <trkpt lat="46.04968" lon="7.05837">
        <ele>2052</ele>
        <time>2022-08-27T23:28:29Z</time>
      </trkpt>
      <trkpt lat="46.04969" lon="7.05837">
        <ele>2053</ele>
        <time>2022-08-27T23:28:30Z</time>
      </trkpt>
      <trkpt lat="46.04969" lon="7.05838">
        <ele>2053</ele>
        <time>2022-08-27T23:28:32Z</time>
      </trkpt>
      <trkpt lat="46.0497" lon="7.05838">
        <ele>2053</ele>
        <time>2022-08-27T23:28:33Z</time>
      </trkpt>
      <trkpt lat="46.0497" lon="7.05838">
        <ele>2053</ele>
        <time>2022-08-27T23:28:34Z</time>
      </trkpt>
      <trkpt lat="46.0498" lon="7.05837">
        <ele>2056</ele>
        <time>2022-08-27T23:28:51Z</time>
      </trkpt>
      <trkpt lat="46.0498" lon="7.05837">
        <ele>2056</ele>
        <time>2022-08-27T23:28:52Z</time>
      </trkpt>
      <trkpt lat="46.0498" lon="7.05836">
        <ele>2056</ele>
        <time>2022-08-27T23:28:53Z</time>
      </trkpt>
      <trkpt lat="46.04981" lon="7.05836">
        <ele>2056</ele>
        <time>2022-08-27T23:28:54Z</time>
      </trkpt>
      <trkpt lat="46.04981" lon="7.05836">
        <ele>2057</ele>
        <time>2022-08-27T23:28:56Z</time>
      </trkpt>
      <trkpt lat="46.04982" lon="7.05835">
        <ele>2057</ele>
        <time>2022-08-27T23:28:57Z</time>
      </trkpt>
      <trkpt lat="46.04982" lon="7.05835">
        <ele>2057</ele>
        <time>2022-08-27T23:28:58Z</time>
      </trkpt>
      <trkpt lat="46.04983" lon="7.05835">
        <ele>2057</ele>
        <time>2022-08-27T23:28:59Z</time>
      </trkpt>
      <trkpt lat="46.04983" lon="7.05834">
        <ele>2058</ele>
        <time>2022-08-27T23:29:01Z</time>
      </trkpt>
      <trkpt lat="46.04983" lon="7.05834">
        <ele>2058</ele>
        <time>2022-08-27T23:29:02Z</time>
      </trkpt>
      <trkpt lat="46.04984" lon="7.05834">
        <ele>2058</ele>
        <time>2022-08-27T23:29:03Z</time>
      </trkpt>
      <trkpt lat="46.04984" lon="7.05833">
        <ele>2058</ele>
        <time>2022-08-27T23:29:04Z</time>
      </trkpt>
      <trkpt lat="46.04985" lon="7.05833">
        <ele>2058</ele>
        <time>2022-08-27T23:29:06Z</time>
      </trkpt>
      <trkpt lat="46.04985" lon="7.05832">
        <ele>2058</ele>
        <time>2022-08-27T23:29:08Z</time>
      </trkpt>
      <trkpt lat="46.04986" lon="7.05832">
        <ele>2058</ele>
        <time>2022-08-27T23:29:09Z</time>
      </trkpt>
      <trkpt lat="46.04986" lon="7.05832">
        <ele>2058</ele>
        <time>2022-08-27T23:29:10Z</time>
      </trkpt>
      <trkpt lat="46.04987" lon="7.05831">
        <ele>2059</ele>
        <time>2022-08-27T23:29:11Z</time>
      </trkpt>
      <trkpt lat="46.04987" lon="7.05831">
        <ele>2059</ele>
        <time>2022-08-27T23:29:12Z</time>
      </trkpt>
      <trkpt lat="46.04987" lon="7.05831">
        <ele>2059</ele>
        <time>2022-08-27T23:29:13Z</time>
      </trkpt>
      <trkpt lat="46.04989" lon="7.0583">
        <ele>2059</ele>
        <time>2022-08-27T23:29:14Z</time>
      </trkpt>
      <trkpt lat="46.0499" lon="7.0583">
        <ele>2059</ele>
        <time>2022-08-27T23:29:16Z</time>
      </trkpt>
      <trkpt lat="46.04991" lon="7.0583">
        <ele>2060</ele>
        <time>2022-08-27T23:29:17Z</time>
      </trkpt>
      <trkpt lat="46.04992" lon="7.05829">
        <ele>2060</ele>
        <time>2022-08-27T23:29:18Z</time>
      </trkpt>
      <trkpt lat="46.04993" lon="7.05829">
        <ele>2060</ele>
        <time>2022-08-27T23:29:19Z</time>
      </trkpt>
      <trkpt lat="46.04995" lon="7.05828">
        <ele>2060</ele>
        <time>2022-08-27T23:29:21Z</time>
      </trkpt>
      <trkpt lat="46.04996" lon="7.05828">
        <ele>2060</ele>
        <time>2022-08-27T23:29:22Z</time>
      </trkpt>
      <trkpt lat="46.04997" lon="7.05828">
        <ele>2060</ele>
        <time>2022-08-27T23:29:23Z</time>
      </trkpt>
      <trkpt lat="46.04997" lon="7.05827">
        <ele>2061</ele>
        <time>2022-08-27T23:29:25Z</time>
      </trkpt>
      <trkpt lat="46.04998" lon="7.05827">
        <ele>2061</ele>
        <time>2022-08-27T23:29:26Z</time>
      </trkpt>
      <trkpt lat="46.04998" lon="7.05827">
        <ele>2061</ele>
        <time>2022-08-27T23:29:27Z</time>
      </trkpt>
      <trkpt lat="46.04998" lon="7.05827">
        <ele>2062</ele>
        <time>2022-08-27T23:29:29Z</time>
      </trkpt>
      <trkpt lat="46.04999" lon="7.05827">
        <ele>2062</ele>
        <time>2022-08-27T23:29:30Z</time>
      </trkpt>
      <trkpt lat="46.04999" lon="7.05826">
        <ele>2062</ele>
        <time>2022-08-27T23:29:31Z</time>
      </trkpt>
      <trkpt lat="46.05" lon="7.05826">
        <ele>2063</ele>
        <time>2022-08-27T23:29:32Z</time>
      </trkpt>
      <trkpt lat="46.05" lon="7.05826">
        <ele>2063</ele>
        <time>2022-08-27T23:29:34Z</time>
      </trkpt>
      <trkpt lat="46.05" lon="7.05826">
        <ele>2063</ele>
        <time>2022-08-27T23:29:35Z</time>
      </trkpt>
      <trkpt lat="46.05001" lon="7.05826">
        <ele>2063</ele>
        <time>2022-08-27T23:29:36Z</time>
      </trkpt>
      <trkpt lat="46.05001" lon="7.05825">
        <ele>2064</ele>
        <time>2022-08-27T23:29:37Z</time>
      </trkpt>
      <trkpt lat="46.05001" lon="7.05825">
        <ele>2064</ele>
        <time>2022-08-27T23:29:39Z</time>
      </trkpt>
      <trkpt lat="46.05002" lon="7.05825">
        <ele>2064</ele>
        <time>2022-08-27T23:29:40Z</time>
      </trkpt>
      <trkpt lat="46.05002" lon="7.05825">
        <ele>2064</ele>
        <time>2022-08-27T23:29:41Z</time>
      </trkpt>
      <trkpt lat="46.05002" lon="7.05825">
        <ele>2064</ele>
        <time>2022-08-27T23:29:42Z</time>
      </trkpt>
      <trkpt lat="46.05003" lon="7.05824">
        <ele>2064</ele>
        <time>2022-08-27T23:29:44Z</time>
      </trkpt>
      <trkpt lat="46.05003" lon="7.05824">
        <ele>2066</ele>
        <time>2022-08-27T23:29:46Z</time>
      </trkpt>
      <trkpt lat="46.05004" lon="7.05824">
        <ele>2066</ele>
        <time>2022-08-27T23:29:47Z</time>
      </trkpt>
      <trkpt lat="46.05004" lon="7.05824">
        <ele>2066</ele>
        <time>2022-08-27T23:29:48Z</time>
      </trkpt>
      <trkpt lat="46.05004" lon="7.05824">
        <ele>2066</ele>
        <time>2022-08-27T23:29:49Z</time>
      </trkpt>
      <trkpt lat="46.05005" lon="7.05823">
        <ele>2066</ele>
        <time>2022-08-27T23:29:51Z</time>
      </trkpt>
      <trkpt lat="46.05005" lon="7.05823">
        <ele>2066</ele>
        <time>2022-08-27T23:29:52Z</time>
      </trkpt>
      <trkpt lat="46.05005" lon="7.05823">
        <ele>2066</ele>
        <time>2022-08-27T23:29:53Z</time>
      </trkpt>
      <trkpt lat="46.05006" lon="7.05823">
        <ele>2067</ele>
        <time>2022-08-27T23:29:54Z</time>
      </trkpt>
      <trkpt lat="46.05005" lon="7.05821">
        <ele>2067</ele>
        <time>2022-08-27T23:29:56Z</time>
      </trkpt>
      <trkpt lat="46.05004" lon="7.0582">
        <ele>2067</ele>
        <time>2022-08-27T23:29:57Z</time>
      </trkpt>
      <trkpt lat="46.05003" lon="7.05819">
        <ele>2067</ele>
        <time>2022-08-27T23:29:58Z</time>
      </trkpt>
      <trkpt lat="46.05002" lon="7.05818">
        <ele>2068</ele>
        <time>2022-08-27T23:29:59Z</time>
      </trkpt>
      <trkpt lat="46.05002" lon="7.05816">
        <ele>2068</ele>
        <time>2022-08-27T23:30:01Z</time>
      </trkpt>
      <trkpt lat="46.05001" lon="7.05815">
        <ele>2068</ele>
        <time>2022-08-27T23:30:03Z</time>
      </trkpt>
      <trkpt lat="46.05" lon="7.05814">
        <ele>2068</ele>
        <time>2022-08-27T23:30:04Z</time>
      </trkpt>
      <trkpt lat="46.04999" lon="7.05812">
        <ele>2069</ele>
        <time>2022-08-27T23:30:05Z</time>
      </trkpt>
      <trkpt lat="46.04999" lon="7.05812">
        <ele>2069</ele>
        <time>2022-08-27T23:30:06Z</time>
      </trkpt>
      <trkpt lat="46.04998" lon="7.05812">
        <ele>2069</ele>
        <time>2022-08-27T23:30:07Z</time>
      </trkpt>
      <trkpt lat="46.04998" lon="7.05812">
        <ele>2069</ele>
        <time>2022-08-27T23:30:08Z</time>
      </trkpt>
      <trkpt lat="46.04997" lon="7.05812">
        <ele>2069</ele>
        <time>2022-08-27T23:30:10Z</time>
      </trkpt>
      <trkpt lat="46.04997" lon="7.05812">
        <ele>2069</ele>
        <time>2022-08-27T23:30:11Z</time>
      </trkpt>
      <trkpt lat="46.04997" lon="7.05812">
        <ele>2070</ele>
        <time>2022-08-27T23:30:12Z</time>
      </trkpt>
      <trkpt lat="46.04996" lon="7.05812">
        <ele>2070</ele>
        <time>2022-08-27T23:30:13Z</time>
      </trkpt>
      <trkpt lat="46.04996" lon="7.05811">
        <ele>2070</ele>
        <time>2022-08-27T23:30:15Z</time>
      </trkpt>
      <trkpt lat="46.04995" lon="7.05811">
        <ele>2070</ele>
        <time>2022-08-27T23:30:17Z</time>
      </trkpt>
      <trkpt lat="46.04995" lon="7.05811">
        <ele>2071</ele>
        <time>2022-08-27T23:30:18Z</time>
      </trkpt>
      <trkpt lat="46.04995" lon="7.05811">
        <ele>2071</ele>
        <time>2022-08-27T23:30:19Z</time>
      </trkpt>
      <trkpt lat="46.04994" lon="7.05811">
        <ele>2071</ele>
        <time>2022-08-27T23:30:20Z</time>
      </trkpt>
      <trkpt lat="46.04994" lon="7.05811">
        <ele>2071</ele>
        <time>2022-08-27T23:30:22Z</time>
      </trkpt>
      <trkpt lat="46.04993" lon="7.05811">
        <ele>2071</ele>
        <time>2022-08-27T23:30:23Z</time>
      </trkpt>
      <trkpt lat="46.04993" lon="7.05811">
        <ele>2071</ele>
        <time>2022-08-27T23:30:24Z</time>
      </trkpt>
      <trkpt lat="46.04993" lon="7.0581">
        <ele>2071</ele>
        <time>2022-08-27T23:30:25Z</time>
      </trkpt>
      <trkpt lat="46.04992" lon="7.0581">
        <ele>2071</ele>
        <time>2022-08-27T23:30:27Z</time>
      </trkpt>
      <trkpt lat="46.04992" lon="7.0581">
        <ele>2072</ele>
        <time>2022-08-27T23:30:28Z</time>
      </trkpt>
      <trkpt lat="46.04991" lon="7.0581">
        <ele>2072</ele>
        <time>2022-08-27T23:30:29Z</time>
      </trkpt>
      <trkpt lat="46.04991" lon="7.0581">
        <ele>2072</ele>
        <time>2022-08-27T23:30:30Z</time>
      </trkpt>
      <trkpt lat="46.04991" lon="7.0581">
        <ele>2072</ele>
        <time>2022-08-27T23:30:31Z</time>
      </trkpt>
      <trkpt lat="46.0499" lon="7.0581">
        <ele>2072</ele>
        <time>2022-08-27T23:30:32Z</time>
      </trkpt>
      <trkpt lat="46.0499" lon="7.05809">
        <ele>2072</ele>
        <time>2022-08-27T23:30:33Z</time>
      </trkpt>
      <trkpt lat="46.04989" lon="7.05808">
        <ele>2073</ele>
        <time>2022-08-27T23:30:34Z</time>
      </trkpt>
      <trkpt lat="46.04989" lon="7.05808">
        <ele>2073</ele>
        <time>2022-08-27T23:30:35Z</time>
      </trkpt>
      <trkpt lat="46.04988" lon="7.05807">
        <ele>2073</ele>
        <time>2022-08-27T23:30:37Z</time>
      </trkpt>
      <trkpt lat="46.04988" lon="7.05807">
        <ele>2074</ele>
        <time>2022-08-27T23:30:39Z</time>
      </trkpt>
      <trkpt lat="46.04987" lon="7.05806">
        <ele>2074</ele>
        <time>2022-08-27T23:30:41Z</time>
      </trkpt>
      <trkpt lat="46.04987" lon="7.05806">
        <ele>2075</ele>
        <time>2022-08-27T23:30:42Z</time>
      </trkpt>
      <trkpt lat="46.04987" lon="7.05805">
        <ele>2075</ele>
        <time>2022-08-27T23:30:43Z</time>
      </trkpt>
      <trkpt lat="46.04986" lon="7.05804">
        <ele>2076</ele>
        <time>2022-08-27T23:30:45Z</time>
      </trkpt>
      <trkpt lat="46.04986" lon="7.05804">
        <ele>2076</ele>
        <time>2022-08-27T23:30:46Z</time>
      </trkpt>
      <trkpt lat="46.04985" lon="7.05803">
        <ele>2076</ele>
        <time>2022-08-27T23:30:47Z</time>
      </trkpt>
      <trkpt lat="46.04985" lon="7.05803">
        <ele>2076</ele>
        <time>2022-08-27T23:30:48Z</time>
      </trkpt>
      <trkpt lat="46.04984" lon="7.05802">
        <ele>2076</ele>
        <time>2022-08-27T23:30:50Z</time>
      </trkpt>
      <trkpt lat="46.04984" lon="7.05802">
        <ele>2076</ele>
        <time>2022-08-27T23:30:51Z</time>
      </trkpt>
      <trkpt lat="46.04983" lon="7.05801">
        <ele>2076</ele>
        <time>2022-08-27T23:30:52Z</time>
      </trkpt>
      <trkpt lat="46.04983" lon="7.058">
        <ele>2076</ele>
        <time>2022-08-27T23:30:53Z</time>
      </trkpt>
      <trkpt lat="46.04974" lon="7.05797">
        <ele>2078</ele>
        <time>2022-08-27T23:31:04Z</time>
      </trkpt>
      <trkpt lat="46.04974" lon="7.05797">
        <ele>2080</ele>
        <time>2022-08-27T23:31:14Z</time>
      </trkpt>
      <trkpt lat="46.04973" lon="7.05792">
        <ele>2080</ele>
        <time>2022-08-27T23:31:20Z</time>
      </trkpt>
      <trkpt lat="46.04972" lon="7.05791">
        <ele>2081</ele>
        <time>2022-08-27T23:31:22Z</time>
      </trkpt>
      <trkpt lat="46.04972" lon="7.05788">
        <ele>2084</ele>
        <time>2022-08-27T23:31:37Z</time>
      </trkpt>
      <trkpt lat="46.04972" lon="7.05784">
        <ele>2084</ele>
        <time>2022-08-27T23:31:41Z</time>
      </trkpt>
      <trkpt lat="46.04976" lon="7.05772">
        <ele>2087</ele>
        <time>2022-08-27T23:31:57Z</time>
      </trkpt>
      <trkpt lat="46.04976" lon="7.0577">
        <ele>2087</ele>
        <time>2022-08-27T23:31:59Z</time>
      </trkpt>
      <trkpt lat="46.04975" lon="7.05769">
        <ele>2087</ele>
        <time>2022-08-27T23:32:01Z</time>
      </trkpt>
      <trkpt lat="46.04974" lon="7.05767">
        <ele>2088</ele>
        <time>2022-08-27T23:32:02Z</time>
      </trkpt>
      <trkpt lat="46.04974" lon="7.05765">
        <ele>2088</ele>
        <time>2022-08-27T23:32:03Z</time>
      </trkpt>
      <trkpt lat="46.04973" lon="7.05763">
        <ele>2088</ele>
        <time>2022-08-27T23:32:04Z</time>
      </trkpt>
      <trkpt lat="46.04972" lon="7.05761">
        <ele>2088</ele>
        <time>2022-08-27T23:32:05Z</time>
      </trkpt>
      <trkpt lat="46.04972" lon="7.05759">
        <ele>2088</ele>
        <time>2022-08-27T23:32:06Z</time>
      </trkpt>
      <trkpt lat="46.04971" lon="7.05759">
        <ele>2088</ele>
        <time>2022-08-27T23:32:07Z</time>
      </trkpt>
      <trkpt lat="46.0497" lon="7.05758">
        <ele>2089</ele>
        <time>2022-08-27T23:32:08Z</time>
      </trkpt>
      <trkpt lat="46.04969" lon="7.05758">
        <ele>2089</ele>
        <time>2022-08-27T23:32:09Z</time>
      </trkpt>
      <trkpt lat="46.04968" lon="7.05757">
        <ele>2089</ele>
        <time>2022-08-27T23:32:11Z</time>
      </trkpt>
      <trkpt lat="46.04967" lon="7.05756">
        <ele>2089</ele>
        <time>2022-08-27T23:32:12Z</time>
      </trkpt>
      <trkpt lat="46.04966" lon="7.05756">
        <ele>2089</ele>
        <time>2022-08-27T23:32:13Z</time>
      </trkpt>
      <trkpt lat="46.04966" lon="7.05755">
        <ele>2089</ele>
        <time>2022-08-27T23:32:14Z</time>
      </trkpt>
      <trkpt lat="46.04965" lon="7.05755">
        <ele>2090</ele>
        <time>2022-08-27T23:32:16Z</time>
      </trkpt>
      <trkpt lat="46.04964" lon="7.05754">
        <ele>2090</ele>
        <time>2022-08-27T23:32:17Z</time>
      </trkpt>
      <trkpt lat="46.04963" lon="7.05753">
        <ele>2090</ele>
        <time>2022-08-27T23:32:18Z</time>
      </trkpt>
      <trkpt lat="46.04962" lon="7.05753">
        <ele>2090</ele>
        <time>2022-08-27T23:32:19Z</time>
      </trkpt>
      <trkpt lat="46.04962" lon="7.05753">
        <ele>2090</ele>
        <time>2022-08-27T23:32:20Z</time>
      </trkpt>
      <trkpt lat="46.04961" lon="7.05752">
        <ele>2090</ele>
        <time>2022-08-27T23:32:21Z</time>
      </trkpt>
      <trkpt lat="46.04961" lon="7.05752">
        <ele>2090</ele>
        <time>2022-08-27T23:32:22Z</time>
      </trkpt>
      <trkpt lat="46.0496" lon="7.05751">
        <ele>2092</ele>
        <time>2022-08-27T23:32:24Z</time>
      </trkpt>
      <trkpt lat="46.0496" lon="7.05751">
        <ele>2092</ele>
        <time>2022-08-27T23:32:25Z</time>
      </trkpt>
      <trkpt lat="46.04959" lon="7.0575">
        <ele>2093</ele>
        <time>2022-08-27T23:32:26Z</time>
      </trkpt>
      <trkpt lat="46.04958" lon="7.0575">
        <ele>2093</ele>
        <time>2022-08-27T23:32:27Z</time>
      </trkpt>
      <trkpt lat="46.04958" lon="7.05749">
        <ele>2093</ele>
        <time>2022-08-27T23:32:29Z</time>
      </trkpt>
      <trkpt lat="46.04957" lon="7.05749">
        <ele>2093</ele>
        <time>2022-08-27T23:32:31Z</time>
      </trkpt>
      <trkpt lat="46.04957" lon="7.05749">
        <ele>2093</ele>
        <time>2022-08-27T23:32:32Z</time>
      </trkpt>
      <trkpt lat="46.04956" lon="7.05748">
        <ele>2094</ele>
        <time>2022-08-27T23:32:33Z</time>
      </trkpt>
      <trkpt lat="46.04956" lon="7.05748">
        <ele>2094</ele>
        <time>2022-08-27T23:32:35Z</time>
      </trkpt>
      <trkpt lat="46.04955" lon="7.05747">
        <ele>2094</ele>
        <time>2022-08-27T23:32:36Z</time>
      </trkpt>
      <trkpt lat="46.04955" lon="7.05747">
        <ele>2094</ele>
        <time>2022-08-27T23:32:37Z</time>
      </trkpt>
      <trkpt lat="46.04953" lon="7.05745">
        <ele>2094</ele>
        <time>2022-08-27T23:32:39Z</time>
      </trkpt>
      <trkpt lat="46.04952" lon="7.05744">
        <ele>2094</ele>
        <time>2022-08-27T23:32:40Z</time>
      </trkpt>
      <trkpt lat="46.04951" lon="7.05743">
        <ele>2094</ele>
        <time>2022-08-27T23:32:41Z</time>
      </trkpt>
      <trkpt lat="46.0495" lon="7.05741">
        <ele>2094</ele>
        <time>2022-08-27T23:32:42Z</time>
      </trkpt>
      <trkpt lat="46.04948" lon="7.0574">
        <ele>2094</ele>
        <time>2022-08-27T23:32:44Z</time>
      </trkpt>
      <trkpt lat="46.04947" lon="7.05738">
        <ele>2095</ele>
        <time>2022-08-27T23:32:45Z</time>
      </trkpt>
      <trkpt lat="46.04943" lon="7.05725">
        <ele>2095</ele>
        <time>2022-08-27T23:32:56Z</time>
      </trkpt>
      <trkpt lat="46.04943" lon="7.05723">
        <ele>2095</ele>
        <time>2022-08-27T23:32:57Z</time>
      </trkpt>
      <trkpt lat="46.04942" lon="7.05722">
        <ele>2095</ele>
        <time>2022-08-27T23:32:58Z</time>
      </trkpt>
      <trkpt lat="46.04942" lon="7.05721">
        <ele>2095</ele>
        <time>2022-08-27T23:32:59Z</time>
      </trkpt>
      <trkpt lat="46.04941" lon="7.05719">
        <ele>2095</ele>
        <time>2022-08-27T23:33:01Z</time>
      </trkpt>
      <trkpt lat="46.04941" lon="7.05718">
        <ele>2095</ele>
        <time>2022-08-27T23:33:02Z</time>
      </trkpt>
      <trkpt lat="46.0494" lon="7.05716">
        <ele>2096</ele>
        <time>2022-08-27T23:33:03Z</time>
      </trkpt>
      <trkpt lat="46.04939" lon="7.05715">
        <ele>2096</ele>
        <time>2022-08-27T23:33:04Z</time>
      </trkpt>
      <trkpt lat="46.04939" lon="7.05714">
        <ele>2096</ele>
        <time>2022-08-27T23:33:05Z</time>
      </trkpt>
      <trkpt lat="46.04938" lon="7.05712">
        <ele>2096</ele>
        <time>2022-08-27T23:33:06Z</time>
      </trkpt>
      <trkpt lat="46.04935" lon="7.05709">
        <ele>2096</ele>
        <time>2022-08-27T23:33:11Z</time>
      </trkpt>
      <trkpt lat="46.04932" lon="7.05707">
        <ele>2098</ele>
        <time>2022-08-27T23:33:20Z</time>
      </trkpt>
      <trkpt lat="46.04929" lon="7.05707">
        <ele>2098</ele>
        <time>2022-08-27T23:33:26Z</time>
      </trkpt>
      <trkpt lat="46.04928" lon="7.05705">
        <ele>2100</ele>
        <time>2022-08-27T23:33:30Z</time>
      </trkpt>
      <trkpt lat="46.04926" lon="7.05703">
        <ele>2100</ele>
        <time>2022-08-27T23:33:33Z</time>
      </trkpt>
      <trkpt lat="46.04926" lon="7.05703">
        <ele>2100</ele>
        <time>2022-08-27T23:33:34Z</time>
      </trkpt>
      <trkpt lat="46.04927" lon="7.05702">
        <ele>2101</ele>
        <time>2022-08-27T23:33:36Z</time>
      </trkpt>
      <trkpt lat="46.04927" lon="7.05702">
        <ele>2101</ele>
        <time>2022-08-27T23:33:37Z</time>
      </trkpt>
      <trkpt lat="46.04927" lon="7.05702">
        <ele>2101</ele>
        <time>2022-08-27T23:33:38Z</time>
      </trkpt>
      <trkpt lat="46.04927" lon="7.05702">
        <ele>2101</ele>
        <time>2022-08-27T23:33:39Z</time>
      </trkpt>
      <trkpt lat="46.04928" lon="7.05701">
        <ele>2102</ele>
        <time>2022-08-27T23:33:41Z</time>
      </trkpt>
      <trkpt lat="46.04928" lon="7.05701">
        <ele>2102</ele>
        <time>2022-08-27T23:33:42Z</time>
      </trkpt>
      <trkpt lat="46.04928" lon="7.05701">
        <ele>2102</ele>
        <time>2022-08-27T23:33:43Z</time>
      </trkpt>
      <trkpt lat="46.04929" lon="7.05701">
        <ele>2102</ele>
        <time>2022-08-27T23:33:44Z</time>
      </trkpt>
      <trkpt lat="46.04929" lon="7.057">
        <ele>2103</ele>
        <time>2022-08-27T23:33:46Z</time>
      </trkpt>
      <trkpt lat="46.04929" lon="7.057">
        <ele>2103</ele>
        <time>2022-08-27T23:33:47Z</time>
      </trkpt>
      <trkpt lat="46.04929" lon="7.057">
        <ele>2103</ele>
        <time>2022-08-27T23:33:48Z</time>
      </trkpt>
      <trkpt lat="46.0493" lon="7.057">
        <ele>2103</ele>
        <time>2022-08-27T23:33:49Z</time>
      </trkpt>
      <trkpt lat="46.0493" lon="7.05699">
        <ele>2103</ele>
        <time>2022-08-27T23:33:51Z</time>
      </trkpt>
      <trkpt lat="46.0493" lon="7.05699">
        <ele>2104</ele>
        <time>2022-08-27T23:33:53Z</time>
      </trkpt>
      <trkpt lat="46.04931" lon="7.05699">
        <ele>2104</ele>
        <time>2022-08-27T23:33:54Z</time>
      </trkpt>
      <trkpt lat="46.04931" lon="7.05699">
        <ele>2104</ele>
        <time>2022-08-27T23:33:55Z</time>
      </trkpt>
      <trkpt lat="46.04931" lon="7.05698">
        <ele>2104</ele>
        <time>2022-08-27T23:33:56Z</time>
      </trkpt>
      <trkpt lat="46.04932" lon="7.05698">
        <ele>2104</ele>
        <time>2022-08-27T23:33:58Z</time>
      </trkpt>
      <trkpt lat="46.04933" lon="7.05698">
        <ele>2104</ele>
        <time>2022-08-27T23:33:59Z</time>
      </trkpt>
      <trkpt lat="46.04933" lon="7.05698">
        <ele>2104</ele>
        <time>2022-08-27T23:34:00Z</time>
      </trkpt>
      <trkpt lat="46.04934" lon="7.05698">
        <ele>2105</ele>
        <time>2022-08-27T23:34:01Z</time>
      </trkpt>
      <trkpt lat="46.04935" lon="7.05698">
        <ele>2105</ele>
        <time>2022-08-27T23:34:03Z</time>
      </trkpt>
      <trkpt lat="46.04935" lon="7.05697">
        <ele>2105</ele>
        <time>2022-08-27T23:34:04Z</time>
      </trkpt>
      <trkpt lat="46.04936" lon="7.05697">
        <ele>2105</ele>
        <time>2022-08-27T23:34:05Z</time>
      </trkpt>
      <trkpt lat="46.04938" lon="7.05696">
        <ele>2106</ele>
        <time>2022-08-27T23:34:08Z</time>
      </trkpt>
      <trkpt lat="46.0494" lon="7.05695">
        <ele>2106</ele>
        <time>2022-08-27T23:34:12Z</time>
      </trkpt>
      <trkpt lat="46.04941" lon="7.05693">
        <ele>2107</ele>
        <time>2022-08-27T23:34:16Z</time>
      </trkpt>
      <trkpt lat="46.04944" lon="7.05691">
        <ele>2108</ele>
        <time>2022-08-27T23:34:23Z</time>
      </trkpt>
      <trkpt lat="46.04944" lon="7.05691">
        <ele>2108</ele>
        <time>2022-08-27T23:34:24Z</time>
      </trkpt>
      <trkpt lat="46.04945" lon="7.0569">
        <ele>2108</ele>
        <time>2022-08-27T23:34:25Z</time>
      </trkpt>
      <trkpt lat="46.04945" lon="7.0569">
        <ele>2108</ele>
        <time>2022-08-27T23:34:26Z</time>
      </trkpt>
      <trkpt lat="46.04946" lon="7.05689">
        <ele>2109</ele>
        <time>2022-08-27T23:34:27Z</time>
      </trkpt>
      <trkpt lat="46.04946" lon="7.05689">
        <ele>2109</ele>
        <time>2022-08-27T23:34:29Z</time>
      </trkpt>
      <trkpt lat="46.04947" lon="7.05688">
        <ele>2109</ele>
        <time>2022-08-27T23:34:31Z</time>
      </trkpt>
      <trkpt lat="46.04947" lon="7.05688">
        <ele>2110</ele>
        <time>2022-08-27T23:34:32Z</time>
      </trkpt>
      <trkpt lat="46.04948" lon="7.05687">
        <ele>2110</ele>
        <time>2022-08-27T23:34:33Z</time>
      </trkpt>
      <trkpt lat="46.04952" lon="7.05683">
        <ele>2110</ele>
        <time>2022-08-27T23:34:41Z</time>
      </trkpt>
      <trkpt lat="46.04954" lon="7.05681">
        <ele>2113</ele>
        <time>2022-08-27T23:34:46Z</time>
      </trkpt>
      <trkpt lat="46.04956" lon="7.0568">
        <ele>2113</ele>
        <time>2022-08-27T23:34:49Z</time>
      </trkpt>
      <trkpt lat="46.04958" lon="7.0568">
        <ele>2113</ele>
        <time>2022-08-27T23:34:53Z</time>
      </trkpt>
      <trkpt lat="46.04959" lon="7.05682">
        <ele>2113</ele>
        <time>2022-08-27T23:34:56Z</time>
      </trkpt>
      <trkpt lat="46.04959" lon="7.0568">
        <ele>2113</ele>
        <time>2022-08-27T23:34:58Z</time>
      </trkpt>
      <trkpt lat="46.04958" lon="7.05679">
        <ele>2113</ele>
        <time>2022-08-27T23:34:59Z</time>
      </trkpt>
      <trkpt lat="46.04958" lon="7.05678">
        <ele>2114</ele>
        <time>2022-08-27T23:35:00Z</time>
      </trkpt>
      <trkpt lat="46.04958" lon="7.05677">
        <ele>2114</ele>
        <time>2022-08-27T23:35:02Z</time>
      </trkpt>
      <trkpt lat="46.04957" lon="7.05676">
        <ele>2115</ele>
        <time>2022-08-27T23:35:03Z</time>
      </trkpt>
      <trkpt lat="46.04957" lon="7.05674">
        <ele>2115</ele>
        <time>2022-08-27T23:35:04Z</time>
      </trkpt>
      <trkpt lat="46.04957" lon="7.05673">
        <ele>2115</ele>
        <time>2022-08-27T23:35:05Z</time>
      </trkpt>
      <trkpt lat="46.04956" lon="7.05672">
        <ele>2115</ele>
        <time>2022-08-27T23:35:07Z</time>
      </trkpt>
      <trkpt lat="46.04956" lon="7.05671">
        <ele>2115</ele>
        <time>2022-08-27T23:35:09Z</time>
      </trkpt>
      <trkpt lat="46.04956" lon="7.0567">
        <ele>2115</ele>
        <time>2022-08-27T23:35:10Z</time>
      </trkpt>
      <trkpt lat="46.04955" lon="7.05669">
        <ele>2115</ele>
        <time>2022-08-27T23:35:11Z</time>
      </trkpt>
      <trkpt lat="46.04955" lon="7.05669">
        <ele>2115</ele>
        <time>2022-08-27T23:35:12Z</time>
      </trkpt>
      <trkpt lat="46.04955" lon="7.05668">
        <ele>2115</ele>
        <time>2022-08-27T23:35:13Z</time>
      </trkpt>
      <trkpt lat="46.04954" lon="7.05668">
        <ele>2116</ele>
        <time>2022-08-27T23:35:15Z</time>
      </trkpt>
      <trkpt lat="46.04954" lon="7.05667">
        <ele>2116</ele>
        <time>2022-08-27T23:35:17Z</time>
      </trkpt>
      <trkpt lat="46.04954" lon="7.05667">
        <ele>2116</ele>
        <time>2022-08-27T23:35:18Z</time>
      </trkpt>
      <trkpt lat="46.04954" lon="7.05666">
        <ele>2116</ele>
        <time>2022-08-27T23:35:19Z</time>
      </trkpt>
      <trkpt lat="46.04953" lon="7.05666">
        <ele>2118</ele>
        <time>2022-08-27T23:35:20Z</time>
      </trkpt>
      <trkpt lat="46.04953" lon="7.05665">
        <ele>2118</ele>
        <time>2022-08-27T23:35:22Z</time>
      </trkpt>
      <trkpt lat="46.04953" lon="7.05665">
        <ele>2119</ele>
        <time>2022-08-27T23:35:23Z</time>
      </trkpt>
      <trkpt lat="46.04952" lon="7.05664">
        <ele>2119</ele>
        <time>2022-08-27T23:35:24Z</time>
      </trkpt>
      <trkpt lat="46.04952" lon="7.05664">
        <ele>2119</ele>
        <time>2022-08-27T23:35:26Z</time>
      </trkpt>
      <trkpt lat="46.04952" lon="7.05664">
        <ele>2119</ele>
        <time>2022-08-27T23:35:27Z</time>
      </trkpt>
      <trkpt lat="46.04952" lon="7.05663">
        <ele>2119</ele>
        <time>2022-08-27T23:35:28Z</time>
      </trkpt>
      <trkpt lat="46.04951" lon="7.05663">
        <ele>2120</ele>
        <time>2022-08-27T23:35:29Z</time>
      </trkpt>
      <trkpt lat="46.04951" lon="7.05662">
        <ele>2120</ele>
        <time>2022-08-27T23:35:30Z</time>
      </trkpt>
      <trkpt lat="46.04951" lon="7.05662">
        <ele>2120</ele>
        <time>2022-08-27T23:35:32Z</time>
      </trkpt>
      <trkpt lat="46.04951" lon="7.05661">
        <ele>2120</ele>
        <time>2022-08-27T23:35:33Z</time>
      </trkpt>
      <trkpt lat="46.0495" lon="7.05661">
        <ele>2121</ele>
        <time>2022-08-27T23:35:34Z</time>
      </trkpt>
      <trkpt lat="46.0495" lon="7.0566">
        <ele>2121</ele>
        <time>2022-08-27T23:35:35Z</time>
      </trkpt>
      <trkpt lat="46.0495" lon="7.0566">
        <ele>2121</ele>
        <time>2022-08-27T23:35:37Z</time>
      </trkpt>
      <trkpt lat="46.04949" lon="7.05659">
        <ele>2121</ele>
        <time>2022-08-27T23:35:38Z</time>
      </trkpt>
      <trkpt lat="46.04949" lon="7.05659">
        <ele>2121</ele>
        <time>2022-08-27T23:35:39Z</time>
      </trkpt>
      <trkpt lat="46.04958" lon="7.05657">
        <ele>2122</ele>
        <time>2022-08-27T23:35:49Z</time>
      </trkpt>
      <trkpt lat="46.04961" lon="7.05655">
        <ele>2123</ele>
        <time>2022-08-27T23:35:56Z</time>
      </trkpt>
      <trkpt lat="46.04963" lon="7.05656">
        <ele>2124</ele>
        <time>2022-08-27T23:35:58Z</time>
      </trkpt>
      <trkpt lat="46.04965" lon="7.05657">
        <ele>2124</ele>
        <time>2022-08-27T23:36:01Z</time>
      </trkpt>
      <trkpt lat="46.04967" lon="7.05658">
        <ele>2125</ele>
        <time>2022-08-27T23:36:03Z</time>
      </trkpt>
      <trkpt lat="46.04969" lon="7.0566">
        <ele>2126</ele>
        <time>2022-08-27T23:36:06Z</time>
      </trkpt>
      <trkpt lat="46.04969" lon="7.05663">
        <ele>2126</ele>
        <time>2022-08-27T23:36:11Z</time>
      </trkpt>
      <trkpt lat="46.04968" lon="7.05662">
        <ele>2126</ele>
        <time>2022-08-27T23:36:12Z</time>
      </trkpt>
      <trkpt lat="46.04968" lon="7.05661">
        <ele>2126</ele>
        <time>2022-08-27T23:36:14Z</time>
      </trkpt>
      <trkpt lat="46.04967" lon="7.0566">
        <ele>2126</ele>
        <time>2022-08-27T23:36:15Z</time>
      </trkpt>
      <trkpt lat="46.04966" lon="7.0566">
        <ele>2126</ele>
        <time>2022-08-27T23:36:16Z</time>
      </trkpt>
      <trkpt lat="46.04966" lon="7.05659">
        <ele>2126</ele>
        <time>2022-08-27T23:36:17Z</time>
      </trkpt>
      <trkpt lat="46.04965" lon="7.05658">
        <ele>2126</ele>
        <time>2022-08-27T23:36:19Z</time>
      </trkpt>
      <trkpt lat="46.04965" lon="7.05657">
        <ele>2127</ele>
        <time>2022-08-27T23:36:21Z</time>
      </trkpt>
      <trkpt lat="46.04964" lon="7.05657">
        <ele>2128</ele>
        <time>2022-08-27T23:36:23Z</time>
      </trkpt>
      <trkpt lat="46.04964" lon="7.05656">
        <ele>2128</ele>
        <time>2022-08-27T23:36:24Z</time>
      </trkpt>
      <trkpt lat="46.04963" lon="7.05655">
        <ele>2128</ele>
        <time>2022-08-27T23:36:25Z</time>
      </trkpt>
      <trkpt lat="46.04963" lon="7.05654">
        <ele>2128</ele>
        <time>2022-08-27T23:36:26Z</time>
      </trkpt>
      <trkpt lat="46.04962" lon="7.05654">
        <ele>2129</ele>
        <time>2022-08-27T23:36:27Z</time>
      </trkpt>
      <trkpt lat="46.04962" lon="7.05653">
        <ele>2129</ele>
        <time>2022-08-27T23:36:28Z</time>
      </trkpt>
      <trkpt lat="46.04961" lon="7.05652">
        <ele>2129</ele>
        <time>2022-08-27T23:36:29Z</time>
      </trkpt>
      <trkpt lat="46.04961" lon="7.05651">
        <ele>2129</ele>
        <time>2022-08-27T23:36:30Z</time>
      </trkpt>
      <trkpt lat="46.04961" lon="7.0565">
        <ele>2129</ele>
        <time>2022-08-27T23:36:32Z</time>
      </trkpt>
      <trkpt lat="46.0496" lon="7.05649">
        <ele>2129</ele>
        <time>2022-08-27T23:36:33Z</time>
      </trkpt>
      <trkpt lat="46.0496" lon="7.05649">
        <ele>2129</ele>
        <time>2022-08-27T23:36:34Z</time>
      </trkpt>
      <trkpt lat="46.0496" lon="7.05648">
        <ele>2129</ele>
        <time>2022-08-27T23:36:35Z</time>
      </trkpt>
      <trkpt lat="46.04959" lon="7.05647">
        <ele>2130</ele>
        <time>2022-08-27T23:36:37Z</time>
      </trkpt>
      <trkpt lat="46.04959" lon="7.05646">
        <ele>2130</ele>
        <time>2022-08-27T23:36:38Z</time>
      </trkpt>
      <trkpt lat="46.04958" lon="7.05645">
        <ele>2130</ele>
        <time>2022-08-27T23:36:39Z</time>
      </trkpt>
      <trkpt lat="46.04958" lon="7.05644">
        <ele>2131</ele>
        <time>2022-08-27T23:36:40Z</time>
      </trkpt>
      <trkpt lat="46.04958" lon="7.05643">
        <ele>2131</ele>
        <time>2022-08-27T23:36:42Z</time>
      </trkpt>
      <trkpt lat="46.04957" lon="7.05643">
        <ele>2131</ele>
        <time>2022-08-27T23:36:43Z</time>
      </trkpt>
      <trkpt lat="46.04957" lon="7.0564">
        <ele>2131</ele>
        <time>2022-08-27T23:36:47Z</time>
      </trkpt>
      <trkpt lat="46.04956" lon="7.05638">
        <ele>2132</ele>
        <time>2022-08-27T23:36:54Z</time>
      </trkpt>
      <trkpt lat="46.04954" lon="7.05637">
        <ele>2133</ele>
        <time>2022-08-27T23:36:59Z</time>
      </trkpt>
      <trkpt lat="46.04953" lon="7.05636">
        <ele>2133</ele>
        <time>2022-08-27T23:37:01Z</time>
      </trkpt>
      <trkpt lat="46.04952" lon="7.05636">
        <ele>2133</ele>
        <time>2022-08-27T23:37:02Z</time>
      </trkpt>
      <trkpt lat="46.04952" lon="7.05636">
        <ele>2133</ele>
        <time>2022-08-27T23:37:03Z</time>
      </trkpt>
      <trkpt lat="46.04951" lon="7.05636">
        <ele>2134</ele>
        <time>2022-08-27T23:37:05Z</time>
      </trkpt>
      <trkpt lat="46.0495" lon="7.05635">
        <ele>2134</ele>
        <time>2022-08-27T23:37:06Z</time>
      </trkpt>
      <trkpt lat="46.0495" lon="7.05635">
        <ele>2134</ele>
        <time>2022-08-27T23:37:07Z</time>
      </trkpt>
      <trkpt lat="46.04949" lon="7.05635">
        <ele>2135</ele>
        <time>2022-08-27T23:37:08Z</time>
      </trkpt>
      <trkpt lat="46.04948" lon="7.05634">
        <ele>2135</ele>
        <time>2022-08-27T23:37:10Z</time>
      </trkpt>
      <trkpt lat="46.04948" lon="7.05634">
        <ele>2135</ele>
        <time>2022-08-27T23:37:11Z</time>
      </trkpt>
      <trkpt lat="46.04947" lon="7.05634">
        <ele>2136</ele>
        <time>2022-08-27T23:37:12Z</time>
      </trkpt>
      <trkpt lat="46.04946" lon="7.05634">
        <ele>2136</ele>
        <time>2022-08-27T23:37:13Z</time>
      </trkpt>
      <trkpt lat="46.04946" lon="7.05633">
        <ele>2136</ele>
        <time>2022-08-27T23:37:15Z</time>
      </trkpt>
      <trkpt lat="46.04945" lon="7.05633">
        <ele>2136</ele>
        <time>2022-08-27T23:37:16Z</time>
      </trkpt>
      <trkpt lat="46.04943" lon="7.05633">
        <ele>2136</ele>
        <time>2022-08-27T23:37:19Z</time>
      </trkpt>
      <trkpt lat="46.04941" lon="7.05633">
        <ele>2138</ele>
        <time>2022-08-27T23:37:22Z</time>
      </trkpt>
      <trkpt lat="46.04939" lon="7.05632">
        <ele>2138</ele>
        <time>2022-08-27T23:37:25Z</time>
      </trkpt>
      <trkpt lat="46.04937" lon="7.05631">
        <ele>2138</ele>
        <time>2022-08-27T23:37:30Z</time>
      </trkpt>
      <trkpt lat="46.04936" lon="7.05629">
        <ele>2139</ele>
        <time>2022-08-27T23:37:33Z</time>
      </trkpt>
      <trkpt lat="46.04934" lon="7.05628">
        <ele>2140</ele>
        <time>2022-08-27T23:37:36Z</time>
      </trkpt>
      <trkpt lat="46.0493" lon="7.05625">
        <ele>2141</ele>
        <time>2022-08-27T23:37:42Z</time>
      </trkpt>
      <trkpt lat="46.04928" lon="7.05623">
        <ele>2142</ele>
        <time>2022-08-27T23:37:46Z</time>
      </trkpt>
      <trkpt lat="46.04927" lon="7.05621">
        <ele>2142</ele>
        <time>2022-08-27T23:37:50Z</time>
      </trkpt>
      <trkpt lat="46.04926" lon="7.05619">
        <ele>2144</ele>
        <time>2022-08-27T23:37:57Z</time>
      </trkpt>
      <trkpt lat="46.04926" lon="7.05618">
        <ele>2145</ele>
        <time>2022-08-27T23:38:00Z</time>
      </trkpt>
      <trkpt lat="46.04926" lon="7.05617">
        <ele>2145</ele>
        <time>2022-08-27T23:38:02Z</time>
      </trkpt>
      <trkpt lat="46.04927" lon="7.05617">
        <ele>2145</ele>
        <time>2022-08-27T23:38:03Z</time>
      </trkpt>
      <trkpt lat="46.04927" lon="7.05616">
        <ele>2145</ele>
        <time>2022-08-27T23:38:04Z</time>
      </trkpt>
      <trkpt lat="46.04928" lon="7.05615">
        <ele>2146</ele>
        <time>2022-08-27T23:38:05Z</time>
      </trkpt>
      <trkpt lat="46.04928" lon="7.05615">
        <ele>2147</ele>
        <time>2022-08-27T23:38:07Z</time>
      </trkpt>
      <trkpt lat="46.04929" lon="7.05614">
        <ele>2147</ele>
        <time>2022-08-27T23:38:08Z</time>
      </trkpt>
      <trkpt lat="46.04929" lon="7.05613">
        <ele>2147</ele>
        <time>2022-08-27T23:38:09Z</time>
      </trkpt>
      <trkpt lat="46.04929" lon="7.05612">
        <ele>2147</ele>
        <time>2022-08-27T23:38:10Z</time>
      </trkpt>
      <trkpt lat="46.0493" lon="7.05612">
        <ele>2147</ele>
        <time>2022-08-27T23:38:12Z</time>
      </trkpt>
      <trkpt lat="46.0493" lon="7.05611">
        <ele>2148</ele>
        <time>2022-08-27T23:38:13Z</time>
      </trkpt>
      <trkpt lat="46.04931" lon="7.0561">
        <ele>2148</ele>
        <time>2022-08-27T23:38:14Z</time>
      </trkpt>
      <trkpt lat="46.04931" lon="7.05609">
        <ele>2148</ele>
        <time>2022-08-27T23:38:15Z</time>
      </trkpt>
      <trkpt lat="46.04932" lon="7.05609">
        <ele>2148</ele>
        <time>2022-08-27T23:38:17Z</time>
      </trkpt>
      <trkpt lat="46.04932" lon="7.05608">
        <ele>2148</ele>
        <time>2022-08-27T23:38:18Z</time>
      </trkpt>
      <trkpt lat="46.04938" lon="7.05602">
        <ele>2150</ele>
        <time>2022-08-27T23:38:28Z</time>
      </trkpt>
      <trkpt lat="46.0494" lon="7.05601">
        <ele>2150</ele>
        <time>2022-08-27T23:38:32Z</time>
      </trkpt>
      <trkpt lat="46.04942" lon="7.056">
        <ele>2151</ele>
        <time>2022-08-27T23:38:39Z</time>
      </trkpt>
      <trkpt lat="46.04943" lon="7.05598">
        <ele>2152</ele>
        <time>2022-08-27T23:38:43Z</time>
      </trkpt>
      <trkpt lat="46.04945" lon="7.05596">
        <ele>2152</ele>
        <time>2022-08-27T23:38:48Z</time>
      </trkpt>
      <trkpt lat="46.04947" lon="7.05594">
        <ele>2153</ele>
        <time>2022-08-27T23:38:53Z</time>
      </trkpt>
      <trkpt lat="46.04948" lon="7.05593">
        <ele>2153</ele>
        <time>2022-08-27T23:38:55Z</time>
      </trkpt>
      <trkpt lat="46.04949" lon="7.05592">
        <ele>2154</ele>
        <time>2022-08-27T23:38:57Z</time>
      </trkpt>
      <trkpt lat="46.04949" lon="7.05591">
        <ele>2154</ele>
        <time>2022-08-27T23:38:58Z</time>
      </trkpt>
      <trkpt lat="46.0495" lon="7.0559">
        <ele>2154</ele>
        <time>2022-08-27T23:38:59Z</time>
      </trkpt>
      <trkpt lat="46.0495" lon="7.05589">
        <ele>2155</ele>
        <time>2022-08-27T23:39:00Z</time>
      </trkpt>
      <trkpt lat="46.04951" lon="7.05586">
        <ele>2155</ele>
        <time>2022-08-27T23:39:06Z</time>
      </trkpt>
      <trkpt lat="46.04953" lon="7.05586">
        <ele>2156</ele>
        <time>2022-08-27T23:39:09Z</time>
      </trkpt>
      <trkpt lat="46.04954" lon="7.05585">
        <ele>2156</ele>
        <time>2022-08-27T23:39:10Z</time>
      </trkpt>
      <trkpt lat="46.04954" lon="7.05585">
        <ele>2156</ele>
        <time>2022-08-27T23:39:12Z</time>
      </trkpt>
      <trkpt lat="46.04955" lon="7.05584">
        <ele>2157</ele>
        <time>2022-08-27T23:39:14Z</time>
      </trkpt>
      <trkpt lat="46.04956" lon="7.05584">
        <ele>2157</ele>
        <time>2022-08-27T23:39:15Z</time>
      </trkpt>
      <trkpt lat="46.04957" lon="7.05583">
        <ele>2157</ele>
        <time>2022-08-27T23:39:16Z</time>
      </trkpt>
      <trkpt lat="46.04957" lon="7.05583">
        <ele>2157</ele>
        <time>2022-08-27T23:39:18Z</time>
      </trkpt>
      <trkpt lat="46.04958" lon="7.05582">
        <ele>2157</ele>
        <time>2022-08-27T23:39:19Z</time>
      </trkpt>
      <trkpt lat="46.04959" lon="7.05582">
        <ele>2157</ele>
        <time>2022-08-27T23:39:20Z</time>
      </trkpt>
      <trkpt lat="46.0496" lon="7.05581">
        <ele>2157</ele>
        <time>2022-08-27T23:39:21Z</time>
      </trkpt>
      <trkpt lat="46.04961" lon="7.0558">
        <ele>2157</ele>
        <time>2022-08-27T23:39:23Z</time>
      </trkpt>
      <trkpt lat="46.04963" lon="7.05578">
        <ele>2158</ele>
        <time>2022-08-27T23:39:27Z</time>
      </trkpt>
      <trkpt lat="46.04966" lon="7.05575">
        <ele>2160</ele>
        <time>2022-08-27T23:39:31Z</time>
      </trkpt>
      <trkpt lat="46.04968" lon="7.05573">
        <ele>2160</ele>
        <time>2022-08-27T23:39:34Z</time>
      </trkpt>
      <trkpt lat="46.04967" lon="7.05572">
        <ele>2160</ele>
        <time>2022-08-27T23:39:37Z</time>
      </trkpt>
      <trkpt lat="46.04965" lon="7.05571">
        <ele>2160</ele>
        <time>2022-08-27T23:39:40Z</time>
      </trkpt>
      <trkpt lat="46.04963" lon="7.0557">
        <ele>2162</ele>
        <time>2022-08-27T23:39:44Z</time>
      </trkpt>
      <trkpt lat="46.04961" lon="7.05568">
        <ele>2162</ele>
        <time>2022-08-27T23:39:49Z</time>
      </trkpt>
      <trkpt lat="46.04959" lon="7.05566">
        <ele>2163</ele>
        <time>2022-08-27T23:39:54Z</time>
      </trkpt>
      <trkpt lat="46.04957" lon="7.05566">
        <ele>2163</ele>
        <time>2022-08-27T23:39:59Z</time>
      </trkpt>
      <trkpt lat="46.04955" lon="7.05565">
        <ele>2165</ele>
        <time>2022-08-27T23:40:05Z</time>
      </trkpt>
      <trkpt lat="46.04953" lon="7.05564">
        <ele>2166</ele>
        <time>2022-08-27T23:40:08Z</time>
      </trkpt>
      <trkpt lat="46.04951" lon="7.05561">
        <ele>2166</ele>
        <time>2022-08-27T23:40:12Z</time>
      </trkpt>
      <trkpt lat="46.04951" lon="7.05558">
        <ele>2166</ele>
        <time>2022-08-27T23:40:17Z</time>
      </trkpt>
      <trkpt lat="46.04953" lon="7.05556">
        <ele>2167</ele>
        <time>2022-08-27T23:40:21Z</time>
      </trkpt>
      <trkpt lat="46.04954" lon="7.05554">
        <ele>2167</ele>
        <time>2022-08-27T23:40:24Z</time>
      </trkpt>
      <trkpt lat="46.04954" lon="7.05551">
        <ele>2170</ele>
        <time>2022-08-27T23:40:28Z</time>
      </trkpt>
      <trkpt lat="46.04955" lon="7.05549">
        <ele>2170</ele>
        <time>2022-08-27T23:40:31Z</time>
      </trkpt>
      <trkpt lat="46.04957" lon="7.05546">
        <ele>2170</ele>
        <time>2022-08-27T23:40:35Z</time>
      </trkpt>
      <trkpt lat="46.04958" lon="7.05544">
        <ele>2172</ele>
        <time>2022-08-27T23:40:40Z</time>
      </trkpt>
      <trkpt lat="46.04967" lon="7.05538">
        <ele>2173</ele>
        <time>2022-08-27T23:40:51Z</time>
      </trkpt>
      <trkpt lat="46.04968" lon="7.05537">
        <ele>2173</ele>
        <time>2022-08-27T23:40:52Z</time>
      </trkpt>
      <trkpt lat="46.04969" lon="7.05537">
        <ele>2173</ele>
        <time>2022-08-27T23:40:53Z</time>
      </trkpt>
      <trkpt lat="46.0497" lon="7.05537">
        <ele>2173</ele>
        <time>2022-08-27T23:40:54Z</time>
      </trkpt>
      <trkpt lat="46.04971" lon="7.05537">
        <ele>2173</ele>
        <time>2022-08-27T23:40:56Z</time>
      </trkpt>
      <trkpt lat="46.04972" lon="7.05537">
        <ele>2173</ele>
        <time>2022-08-27T23:40:57Z</time>
      </trkpt>
      <trkpt lat="46.04975" lon="7.05537">
        <ele>2174</ele>
        <time>2022-08-27T23:41:00Z</time>
      </trkpt>
      <trkpt lat="46.04977" lon="7.05537">
        <ele>2174</ele>
        <time>2022-08-27T23:41:02Z</time>
      </trkpt>
      <trkpt lat="46.0498" lon="7.05537">
        <ele>2175</ele>
        <time>2022-08-27T23:41:06Z</time>
      </trkpt>
      <trkpt lat="46.04982" lon="7.05538">
        <ele>2176</ele>
        <time>2022-08-27T23:41:08Z</time>
      </trkpt>
      <trkpt lat="46.04984" lon="7.05539">
        <ele>2176</ele>
        <time>2022-08-27T23:41:10Z</time>
      </trkpt>
      <trkpt lat="46.04986" lon="7.05539">
        <ele>2177</ele>
        <time>2022-08-27T23:41:14Z</time>
      </trkpt>
      <trkpt lat="46.04988" lon="7.0554">
        <ele>2178</ele>
        <time>2022-08-27T23:41:23Z</time>
      </trkpt>
      <trkpt lat="46.0499" lon="7.05539">
        <ele>2179</ele>
        <time>2022-08-27T23:41:28Z</time>
      </trkpt>
      <trkpt lat="46.04992" lon="7.0554">
        <ele>2180</ele>
        <time>2022-08-27T23:41:34Z</time>
      </trkpt>
      <trkpt lat="46.04994" lon="7.05541">
        <ele>2181</ele>
        <time>2022-08-27T23:41:38Z</time>
      </trkpt>
      <trkpt lat="46.04995" lon="7.05541">
        <ele>2181</ele>
        <time>2022-08-27T23:41:39Z</time>
      </trkpt>
      <trkpt lat="46.04995" lon="7.05541">
        <ele>2181</ele>
        <time>2022-08-27T23:41:40Z</time>
      </trkpt>
      <trkpt lat="46.04996" lon="7.05542">
        <ele>2182</ele>
        <time>2022-08-27T23:41:42Z</time>
      </trkpt>
      <trkpt lat="46.04997" lon="7.05542">
        <ele>2182</ele>
        <time>2022-08-27T23:41:43Z</time>
      </trkpt>
      <trkpt lat="46.04998" lon="7.05543">
        <ele>2182</ele>
        <time>2022-08-27T23:41:44Z</time>
      </trkpt>
      <trkpt lat="46.04999" lon="7.05543">
        <ele>2183</ele>
        <time>2022-08-27T23:41:46Z</time>
      </trkpt>
      <trkpt lat="46.05" lon="7.05543">
        <ele>2183</ele>
        <time>2022-08-27T23:41:47Z</time>
      </trkpt>
      <trkpt lat="46.05001" lon="7.05544">
        <ele>2183</ele>
        <time>2022-08-27T23:41:48Z</time>
      </trkpt>
      <trkpt lat="46.05002" lon="7.05544">
        <ele>2183</ele>
        <time>2022-08-27T23:41:49Z</time>
      </trkpt>
      <trkpt lat="46.05003" lon="7.05545">
        <ele>2183</ele>
        <time>2022-08-27T23:41:50Z</time>
      </trkpt>
      <trkpt lat="46.05012" lon="7.05549">
        <ele>2187</ele>
        <time>2022-08-27T23:42:09Z</time>
      </trkpt>
      <trkpt lat="46.05013" lon="7.0555">
        <ele>2187</ele>
        <time>2022-08-27T23:42:11Z</time>
      </trkpt>
      <trkpt lat="46.05014" lon="7.0555">
        <ele>2188</ele>
        <time>2022-08-27T23:42:12Z</time>
      </trkpt>
      <trkpt lat="46.05015" lon="7.05551">
        <ele>2188</ele>
        <time>2022-08-27T23:42:14Z</time>
      </trkpt>
      <trkpt lat="46.05015" lon="7.05551">
        <ele>2188</ele>
        <time>2022-08-27T23:42:15Z</time>
      </trkpt>
      <trkpt lat="46.05016" lon="7.05551">
        <ele>2188</ele>
        <time>2022-08-27T23:42:16Z</time>
      </trkpt>
      <trkpt lat="46.05017" lon="7.05551">
        <ele>2188</ele>
        <time>2022-08-27T23:42:17Z</time>
      </trkpt>
      <trkpt lat="46.05017" lon="7.05552">
        <ele>2189</ele>
        <time>2022-08-27T23:42:19Z</time>
      </trkpt>
      <trkpt lat="46.05018" lon="7.05552">
        <ele>2189</ele>
        <time>2022-08-27T23:42:20Z</time>
      </trkpt>
      <trkpt lat="46.05018" lon="7.05552">
        <ele>2189</ele>
        <time>2022-08-27T23:42:21Z</time>
      </trkpt>
      <trkpt lat="46.05019" lon="7.05553">
        <ele>2189</ele>
        <time>2022-08-27T23:42:23Z</time>
      </trkpt>
      <trkpt lat="46.0502" lon="7.05553">
        <ele>2189</ele>
        <time>2022-08-27T23:42:24Z</time>
      </trkpt>
      <trkpt lat="46.0502" lon="7.05553">
        <ele>2189</ele>
        <time>2022-08-27T23:42:25Z</time>
      </trkpt>
      <trkpt lat="46.05021" lon="7.05554">
        <ele>2189</ele>
        <time>2022-08-27T23:42:26Z</time>
      </trkpt>
      <trkpt lat="46.05022" lon="7.05554">
        <ele>2189</ele>
        <time>2022-08-27T23:42:28Z</time>
      </trkpt>
      <trkpt lat="46.05022" lon="7.05554">
        <ele>2189</ele>
        <time>2022-08-27T23:42:29Z</time>
      </trkpt>
      <trkpt lat="46.05023" lon="7.05555">
        <ele>2189</ele>
        <time>2022-08-27T23:42:30Z</time>
      </trkpt>
      <trkpt lat="46.05024" lon="7.05555">
        <ele>2189</ele>
        <time>2022-08-27T23:42:31Z</time>
      </trkpt>
      <trkpt lat="46.05025" lon="7.05556">
        <ele>2191</ele>
        <time>2022-08-27T23:42:33Z</time>
      </trkpt>
      <trkpt lat="46.05026" lon="7.05556">
        <ele>2191</ele>
        <time>2022-08-27T23:42:34Z</time>
      </trkpt>
      <trkpt lat="46.05026" lon="7.05557">
        <ele>2191</ele>
        <time>2022-08-27T23:42:35Z</time>
      </trkpt>
      <trkpt lat="46.05027" lon="7.05557">
        <ele>2191</ele>
        <time>2022-08-27T23:42:36Z</time>
      </trkpt>
      <trkpt lat="46.05029" lon="7.05556">
        <ele>2192</ele>
        <time>2022-08-27T23:42:40Z</time>
      </trkpt>
      <trkpt lat="46.0503" lon="7.05556">
        <ele>2193</ele>
        <time>2022-08-27T23:42:43Z</time>
      </trkpt>
      <trkpt lat="46.0503" lon="7.05557">
        <ele>2193</ele>
        <time>2022-08-27T23:42:44Z</time>
      </trkpt>
      <trkpt lat="46.05031" lon="7.05557">
        <ele>2193</ele>
        <time>2022-08-27T23:42:45Z</time>
      </trkpt>
      <trkpt lat="46.05032" lon="7.05557">
        <ele>2194</ele>
        <time>2022-08-27T23:42:47Z</time>
      </trkpt>
      <trkpt lat="46.05032" lon="7.05557">
        <ele>2194</ele>
        <time>2022-08-27T23:42:48Z</time>
      </trkpt>
      <trkpt lat="46.05033" lon="7.05558">
        <ele>2193</ele>
        <time>2022-08-27T23:42:49Z</time>
      </trkpt>
      <trkpt lat="46.05034" lon="7.05558">
        <ele>2194</ele>
        <time>2022-08-27T23:42:50Z</time>
      </trkpt>
      <trkpt lat="46.05034" lon="7.05558">
        <ele>2194</ele>
        <time>2022-08-27T23:42:52Z</time>
      </trkpt>
      <trkpt lat="46.05035" lon="7.05559">
        <ele>2194</ele>
        <time>2022-08-27T23:42:53Z</time>
      </trkpt>
      <trkpt lat="46.05036" lon="7.05559">
        <ele>2194</ele>
        <time>2022-08-27T23:42:54Z</time>
      </trkpt>
      <trkpt lat="46.05036" lon="7.05559">
        <ele>2194</ele>
        <time>2022-08-27T23:42:55Z</time>
      </trkpt>
      <trkpt lat="46.05037" lon="7.05559">
        <ele>2194</ele>
        <time>2022-08-27T23:42:57Z</time>
      </trkpt>
      <trkpt lat="46.05038" lon="7.0556">
        <ele>2196</ele>
        <time>2022-08-27T23:42:58Z</time>
      </trkpt>
      <trkpt lat="46.05039" lon="7.0556">
        <ele>2196</ele>
        <time>2022-08-27T23:42:59Z</time>
      </trkpt>
      <trkpt lat="46.0504" lon="7.0556">
        <ele>2196</ele>
        <time>2022-08-27T23:43:00Z</time>
      </trkpt>
      <trkpt lat="46.05041" lon="7.05561">
        <ele>2196</ele>
        <time>2022-08-27T23:43:02Z</time>
      </trkpt>
      <trkpt lat="46.05043" lon="7.05561">
        <ele>2197</ele>
        <time>2022-08-27T23:43:04Z</time>
      </trkpt>
      <trkpt lat="46.05044" lon="7.05562">
        <ele>2197</ele>
        <time>2022-08-27T23:43:05Z</time>
      </trkpt>
      <trkpt lat="46.05045" lon="7.05562">
        <ele>2197</ele>
        <time>2022-08-27T23:43:06Z</time>
      </trkpt>
      <trkpt lat="46.05047" lon="7.05564">
        <ele>2198</ele>
        <time>2022-08-27T23:43:11Z</time>
      </trkpt>
      <trkpt lat="46.05049" lon="7.05565">
        <ele>2198</ele>
        <time>2022-08-27T23:43:13Z</time>
      </trkpt>
      <trkpt lat="46.05052" lon="7.05565">
        <ele>2199</ele>
        <time>2022-08-27T23:43:16Z</time>
      </trkpt>
      <trkpt lat="46.05054" lon="7.05566">
        <ele>2199</ele>
        <time>2022-08-27T23:43:18Z</time>
      </trkpt>
      <trkpt lat="46.05057" lon="7.05567">
        <ele>2199</ele>
        <time>2022-08-27T23:43:20Z</time>
      </trkpt>
      <trkpt lat="46.05058" lon="7.05567">
        <ele>2199</ele>
        <time>2022-08-27T23:43:23Z</time>
      </trkpt>
      <trkpt lat="46.0506" lon="7.05568">
        <ele>2199</ele>
        <time>2022-08-27T23:43:24Z</time>
      </trkpt>
      <trkpt lat="46.05062" lon="7.05569">
        <ele>2200</ele>
        <time>2022-08-27T23:43:25Z</time>
      </trkpt>
      <trkpt lat="46.05065" lon="7.0557">
        <ele>2200</ele>
        <time>2022-08-27T23:43:28Z</time>
      </trkpt>
      <trkpt lat="46.05067" lon="7.0557">
        <ele>2200</ele>
        <time>2022-08-27T23:43:31Z</time>
      </trkpt>
      <trkpt lat="46.05069" lon="7.0557">
        <ele>2201</ele>
        <time>2022-08-27T23:43:34Z</time>
      </trkpt>
      <trkpt lat="46.05071" lon="7.05571">
        <ele>2202</ele>
        <time>2022-08-27T23:43:37Z</time>
      </trkpt>
      <trkpt lat="46.05074" lon="7.05572">
        <ele>2202</ele>
        <time>2022-08-27T23:43:41Z</time>
      </trkpt>
      <trkpt lat="46.05078" lon="7.05574">
        <ele>2203</ele>
        <time>2022-08-27T23:43:47Z</time>
      </trkpt>
      <trkpt lat="46.0508" lon="7.05573">
        <ele>2203</ele>
        <time>2022-08-27T23:43:49Z</time>
      </trkpt>
      <trkpt lat="46.05082" lon="7.05574">
        <ele>2203</ele>
        <time>2022-08-27T23:43:53Z</time>
      </trkpt>
      <trkpt lat="46.05084" lon="7.05574">
        <ele>2204</ele>
        <time>2022-08-27T23:43:55Z</time>
      </trkpt>
      <trkpt lat="46.05086" lon="7.05574">
        <ele>2204</ele>
        <time>2022-08-27T23:43:57Z</time>
      </trkpt>
      <trkpt lat="46.05089" lon="7.05574">
        <ele>2205</ele>
        <time>2022-08-27T23:43:59Z</time>
      </trkpt>
      <trkpt lat="46.05091" lon="7.05575">
        <ele>2205</ele>
        <time>2022-08-27T23:44:01Z</time>
      </trkpt>
      <trkpt lat="46.05094" lon="7.05575">
        <ele>2205</ele>
        <time>2022-08-27T23:44:03Z</time>
      </trkpt>
      <trkpt lat="46.05096" lon="7.05576">
        <ele>2205</ele>
        <time>2022-08-27T23:44:06Z</time>
      </trkpt>
      <trkpt lat="46.05098" lon="7.05576">
        <ele>2206</ele>
        <time>2022-08-27T23:44:09Z</time>
      </trkpt>
      <trkpt lat="46.05101" lon="7.05577">
        <ele>2206</ele>
        <time>2022-08-27T23:44:11Z</time>
      </trkpt>
      <trkpt lat="46.05104" lon="7.05577">
        <ele>2207</ele>
        <time>2022-08-27T23:44:15Z</time>
      </trkpt>
      <trkpt lat="46.05105" lon="7.05577">
        <ele>2207</ele>
        <time>2022-08-27T23:44:17Z</time>
      </trkpt>
      <trkpt lat="46.05107" lon="7.05576">
        <ele>2208</ele>
        <time>2022-08-27T23:44:20Z</time>
      </trkpt>
      <trkpt lat="46.0511" lon="7.05576">
        <ele>2208</ele>
        <time>2022-08-27T23:44:23Z</time>
      </trkpt>
      <trkpt lat="46.05111" lon="7.05576">
        <ele>2208</ele>
        <time>2022-08-27T23:44:24Z</time>
      </trkpt>
      <trkpt lat="46.05111" lon="7.05577">
        <ele>2208</ele>
        <time>2022-08-27T23:44:25Z</time>
      </trkpt>
      <trkpt lat="46.05112" lon="7.05577">
        <ele>2209</ele>
        <time>2022-08-27T23:44:27Z</time>
      </trkpt>
      <trkpt lat="46.05113" lon="7.05577">
        <ele>2209</ele>
        <time>2022-08-27T23:44:28Z</time>
      </trkpt>
      <trkpt lat="46.05113" lon="7.05577">
        <ele>2209</ele>
        <time>2022-08-27T23:44:29Z</time>
      </trkpt>
      <trkpt lat="46.05114" lon="7.05577">
        <ele>2209</ele>
        <time>2022-08-27T23:44:30Z</time>
      </trkpt>
      <trkpt lat="46.05115" lon="7.05577">
        <ele>2209</ele>
        <time>2022-08-27T23:44:31Z</time>
      </trkpt>
      <trkpt lat="46.05115" lon="7.05577">
        <ele>2209</ele>
        <time>2022-08-27T23:44:32Z</time>
      </trkpt>
      <trkpt lat="46.05118" lon="7.05578">
        <ele>2209</ele>
        <time>2022-08-27T23:44:33Z</time>
      </trkpt>
      <trkpt lat="46.05121" lon="7.05578">
        <ele>2210</ele>
        <time>2022-08-27T23:44:35Z</time>
      </trkpt>
      <trkpt lat="46.05123" lon="7.05579">
        <ele>2210</ele>
        <time>2022-08-27T23:44:38Z</time>
      </trkpt>
      <trkpt lat="46.05125" lon="7.05579">
        <ele>2210</ele>
        <time>2022-08-27T23:44:40Z</time>
      </trkpt>
      <trkpt lat="46.05128" lon="7.0558">
        <ele>2211</ele>
        <time>2022-08-27T23:44:42Z</time>
      </trkpt>
      <trkpt lat="46.0513" lon="7.0558">
        <ele>2211</ele>
        <time>2022-08-27T23:44:44Z</time>
      </trkpt>
      <trkpt lat="46.05132" lon="7.05581">
        <ele>2211</ele>
        <time>2022-08-27T23:44:46Z</time>
      </trkpt>
      <trkpt lat="46.05134" lon="7.05581">
        <ele>2211</ele>
        <time>2022-08-27T23:44:48Z</time>
      </trkpt>
      <trkpt lat="46.05136" lon="7.05581">
        <ele>2212</ele>
        <time>2022-08-27T23:44:50Z</time>
      </trkpt>
      <trkpt lat="46.05139" lon="7.05582">
        <ele>2212</ele>
        <time>2022-08-27T23:44:53Z</time>
      </trkpt>
      <trkpt lat="46.05141" lon="7.05583">
        <ele>2212</ele>
        <time>2022-08-27T23:44:56Z</time>
      </trkpt>
      <trkpt lat="46.05143" lon="7.05584">
        <ele>2212</ele>
        <time>2022-08-27T23:44:58Z</time>
      </trkpt>
      <trkpt lat="46.05145" lon="7.05584">
        <ele>2213</ele>
        <time>2022-08-27T23:45:00Z</time>
      </trkpt>
      <trkpt lat="46.05147" lon="7.05584">
        <ele>2213</ele>
        <time>2022-08-27T23:45:02Z</time>
      </trkpt>
      <trkpt lat="46.05148" lon="7.05585">
        <ele>2213</ele>
        <time>2022-08-27T23:45:04Z</time>
      </trkpt>
      <trkpt lat="46.05151" lon="7.05586">
        <ele>2214</ele>
        <time>2022-08-27T23:45:07Z</time>
      </trkpt>
      <trkpt lat="46.05153" lon="7.05586">
        <ele>2214</ele>
        <time>2022-08-27T23:45:09Z</time>
      </trkpt>
      <trkpt lat="46.05155" lon="7.05587">
        <ele>2214</ele>
        <time>2022-08-27T23:45:11Z</time>
      </trkpt>
      <trkpt lat="46.05157" lon="7.05587">
        <ele>2214</ele>
        <time>2022-08-27T23:45:13Z</time>
      </trkpt>
      <trkpt lat="46.05159" lon="7.05587">
        <ele>2214</ele>
        <time>2022-08-27T23:45:15Z</time>
      </trkpt>
      <trkpt lat="46.05161" lon="7.05587">
        <ele>2215</ele>
        <time>2022-08-27T23:45:17Z</time>
      </trkpt>
      <trkpt lat="46.05163" lon="7.05588">
        <ele>2215</ele>
        <time>2022-08-27T23:45:19Z</time>
      </trkpt>
      <trkpt lat="46.05166" lon="7.05588">
        <ele>2215</ele>
        <time>2022-08-27T23:45:21Z</time>
      </trkpt>
      <trkpt lat="46.05169" lon="7.05588">
        <ele>2215</ele>
        <time>2022-08-27T23:45:23Z</time>
      </trkpt>
      <trkpt lat="46.05171" lon="7.05589">
        <ele>2215</ele>
        <time>2022-08-27T23:45:25Z</time>
      </trkpt>
      <trkpt lat="46.05174" lon="7.05589">
        <ele>2215</ele>
        <time>2022-08-27T23:45:27Z</time>
      </trkpt>
      <trkpt lat="46.05176" lon="7.05589">
        <ele>2215</ele>
        <time>2022-08-27T23:45:29Z</time>
      </trkpt>
      <trkpt lat="46.05178" lon="7.05589">
        <ele>2215</ele>
        <time>2022-08-27T23:45:31Z</time>
      </trkpt>
      <trkpt lat="46.0518" lon="7.05589">
        <ele>2215</ele>
        <time>2022-08-27T23:45:33Z</time>
      </trkpt>
      <trkpt lat="46.05182" lon="7.05589">
        <ele>2215</ele>
        <time>2022-08-27T23:45:35Z</time>
      </trkpt>
      <trkpt lat="46.05185" lon="7.0559">
        <ele>2215</ele>
        <time>2022-08-27T23:45:38Z</time>
      </trkpt>
      <trkpt lat="46.05187" lon="7.0559">
        <ele>2215</ele>
        <time>2022-08-27T23:45:40Z</time>
      </trkpt>
      <trkpt lat="46.0519" lon="7.0559">
        <ele>2215</ele>
        <time>2022-08-27T23:45:42Z</time>
      </trkpt>
      <trkpt lat="46.05192" lon="7.0559">
        <ele>2215</ele>
        <time>2022-08-27T23:45:44Z</time>
      </trkpt>
      <trkpt lat="46.05195" lon="7.0559">
        <ele>2215</ele>
        <time>2022-08-27T23:45:46Z</time>
      </trkpt>
      <trkpt lat="46.05198" lon="7.0559">
        <ele>2215</ele>
        <time>2022-08-27T23:45:48Z</time>
      </trkpt>
      <trkpt lat="46.052" lon="7.05591">
        <ele>2215</ele>
        <time>2022-08-27T23:45:50Z</time>
      </trkpt>
      <trkpt lat="46.05203" lon="7.05592">
        <ele>2215</ele>
        <time>2022-08-27T23:45:52Z</time>
      </trkpt>
      <trkpt lat="46.05205" lon="7.05593">
        <ele>2215</ele>
        <time>2022-08-27T23:45:54Z</time>
      </trkpt>
      <trkpt lat="46.05207" lon="7.05594">
        <ele>2216</ele>
        <time>2022-08-27T23:45:56Z</time>
      </trkpt>
      <trkpt lat="46.05209" lon="7.05596">
        <ele>2216</ele>
        <time>2022-08-27T23:45:59Z</time>
      </trkpt>
      <trkpt lat="46.05211" lon="7.05597">
        <ele>2216</ele>
        <time>2022-08-27T23:46:01Z</time>
      </trkpt>
      <trkpt lat="46.05213" lon="7.05599">
        <ele>2217</ele>
        <time>2022-08-27T23:46:03Z</time>
      </trkpt>
      <trkpt lat="46.05215" lon="7.056">
        <ele>2217</ele>
        <time>2022-08-27T23:46:05Z</time>
      </trkpt>
      <trkpt lat="46.05217" lon="7.05602">
        <ele>2217</ele>
        <time>2022-08-27T23:46:07Z</time>
      </trkpt>
      <trkpt lat="46.05219" lon="7.05603">
        <ele>2217</ele>
        <time>2022-08-27T23:46:09Z</time>
      </trkpt>
      <trkpt lat="46.05222" lon="7.05605">
        <ele>2217</ele>
        <time>2022-08-27T23:46:11Z</time>
      </trkpt>
      <trkpt lat="46.05224" lon="7.05607">
        <ele>2218</ele>
        <time>2022-08-27T23:46:13Z</time>
      </trkpt>
      <trkpt lat="46.05227" lon="7.05608">
        <ele>2218</ele>
        <time>2022-08-27T23:46:15Z</time>
      </trkpt>
      <trkpt lat="46.05229" lon="7.0561">
        <ele>2219</ele>
        <time>2022-08-27T23:46:17Z</time>
      </trkpt>
      <trkpt lat="46.05231" lon="7.05611">
        <ele>2219</ele>
        <time>2022-08-27T23:46:19Z</time>
      </trkpt>
      <trkpt lat="46.05232" lon="7.05613">
        <ele>2219</ele>
        <time>2022-08-27T23:46:21Z</time>
      </trkpt>
      <trkpt lat="46.05234" lon="7.05614">
        <ele>2219</ele>
        <time>2022-08-27T23:46:23Z</time>
      </trkpt>
      <trkpt lat="46.05237" lon="7.05615">
        <ele>2219</ele>
        <time>2022-08-27T23:46:25Z</time>
      </trkpt>
      <trkpt lat="46.05239" lon="7.05616">
        <ele>2219</ele>
        <time>2022-08-27T23:46:27Z</time>
      </trkpt>
      <trkpt lat="46.05241" lon="7.05617">
        <ele>2219</ele>
        <time>2022-08-27T23:46:29Z</time>
      </trkpt>
      <trkpt lat="46.05243" lon="7.05617">
        <ele>2219</ele>
        <time>2022-08-27T23:46:31Z</time>
      </trkpt>
      <trkpt lat="46.05245" lon="7.05618">
        <ele>2219</ele>
        <time>2022-08-27T23:46:33Z</time>
      </trkpt>
      <trkpt lat="46.05248" lon="7.05619">
        <ele>2219</ele>
        <time>2022-08-27T23:46:35Z</time>
      </trkpt>
      <trkpt lat="46.0525" lon="7.05619">
        <ele>2219</ele>
        <time>2022-08-27T23:46:37Z</time>
      </trkpt>
      <trkpt lat="46.05252" lon="7.05619">
        <ele>2219</ele>
        <time>2022-08-27T23:46:39Z</time>
      </trkpt>
      <trkpt lat="46.05254" lon="7.0562">
        <ele>2219</ele>
        <time>2022-08-27T23:46:41Z</time>
      </trkpt>
      <trkpt lat="46.05257" lon="7.0562">
        <ele>2219</ele>
        <time>2022-08-27T23:46:43Z</time>
      </trkpt>
      <trkpt lat="46.05259" lon="7.0562">
        <ele>2220</ele>
        <time>2022-08-27T23:46:46Z</time>
      </trkpt>
      <trkpt lat="46.05261" lon="7.0562">
        <ele>2220</ele>
        <time>2022-08-27T23:46:48Z</time>
      </trkpt>
      <trkpt lat="46.05263" lon="7.0562">
        <ele>2220</ele>
        <time>2022-08-27T23:46:51Z</time>
      </trkpt>
      <trkpt lat="46.05266" lon="7.05619">
        <ele>2220</ele>
        <time>2022-08-27T23:46:55Z</time>
      </trkpt>
      <trkpt lat="46.05268" lon="7.05618">
        <ele>2222</ele>
        <time>2022-08-27T23:46:59Z</time>
      </trkpt>
      <trkpt lat="46.05269" lon="7.05618">
        <ele>2222</ele>
        <time>2022-08-27T23:47:01Z</time>
      </trkpt>
      <trkpt lat="46.05272" lon="7.05618">
        <ele>2222</ele>
        <time>2022-08-27T23:47:04Z</time>
      </trkpt>
      <trkpt lat="46.05274" lon="7.05617">
        <ele>2222</ele>
        <time>2022-08-27T23:47:07Z</time>
      </trkpt>
      <trkpt lat="46.05277" lon="7.05616">
        <ele>2223</ele>
        <time>2022-08-27T23:47:10Z</time>
      </trkpt>
      <trkpt lat="46.05278" lon="7.05616">
        <ele>2223</ele>
        <time>2022-08-27T23:47:12Z</time>
      </trkpt>
      <trkpt lat="46.05281" lon="7.05614">
        <ele>2223</ele>
        <time>2022-08-27T23:47:15Z</time>
      </trkpt>
      <trkpt lat="46.05283" lon="7.05613">
        <ele>2225</ele>
        <time>2022-08-27T23:47:18Z</time>
      </trkpt>
      <trkpt lat="46.05285" lon="7.05613">
        <ele>2225</ele>
        <time>2022-08-27T23:47:21Z</time>
      </trkpt>
      <trkpt lat="46.05287" lon="7.05612">
        <ele>2226</ele>
        <time>2022-08-27T23:47:23Z</time>
      </trkpt>
      <trkpt lat="46.05289" lon="7.05612">
        <ele>2226</ele>
        <time>2022-08-27T23:47:25Z</time>
      </trkpt>
      <trkpt lat="46.05291" lon="7.05611">
        <ele>2226</ele>
        <time>2022-08-27T23:47:28Z</time>
      </trkpt>
      <trkpt lat="46.05294" lon="7.05611">
        <ele>2226</ele>
        <time>2022-08-27T23:47:31Z</time>
      </trkpt>
      <trkpt lat="46.05296" lon="7.05611">
        <ele>2226</ele>
        <time>2022-08-27T23:47:33Z</time>
      </trkpt>
      <trkpt lat="46.05298" lon="7.0561">
        <ele>2226</ele>
        <time>2022-08-27T23:47:36Z</time>
      </trkpt>
      <trkpt lat="46.05301" lon="7.05609">
        <ele>2226</ele>
        <time>2022-08-27T23:47:38Z</time>
      </trkpt>
      <trkpt lat="46.05303" lon="7.05609">
        <ele>2227</ele>
        <time>2022-08-27T23:47:40Z</time>
      </trkpt>
      <trkpt lat="46.05305" lon="7.05608">
        <ele>2227</ele>
        <time>2022-08-27T23:47:42Z</time>
      </trkpt>
      <trkpt lat="46.05307" lon="7.05607">
        <ele>2227</ele>
        <time>2022-08-27T23:47:45Z</time>
      </trkpt>
      <trkpt lat="46.05309" lon="7.05607">
        <ele>2227</ele>
        <time>2022-08-27T23:47:47Z</time>
      </trkpt>
      <trkpt lat="46.05311" lon="7.05607">
        <ele>2227</ele>
        <time>2022-08-27T23:47:50Z</time>
      </trkpt>
      <trkpt lat="46.05314" lon="7.05607">
        <ele>2228</ele>
        <time>2022-08-27T23:47:53Z</time>
      </trkpt>
      <trkpt lat="46.05315" lon="7.05607">
        <ele>2228</ele>
        <time>2022-08-27T23:47:55Z</time>
      </trkpt>
      <trkpt lat="46.05318" lon="7.05608">
        <ele>2229</ele>
        <time>2022-08-27T23:47:58Z</time>
      </trkpt>
      <trkpt lat="46.0532" lon="7.05608">
        <ele>2229</ele>
        <time>2022-08-27T23:48:00Z</time>
      </trkpt>
      <trkpt lat="46.05322" lon="7.05607">
        <ele>2229</ele>
        <time>2022-08-27T23:48:03Z</time>
      </trkpt>
      <trkpt lat="46.05324" lon="7.05606">
        <ele>2229</ele>
        <time>2022-08-27T23:48:06Z</time>
      </trkpt>
      <trkpt lat="46.05326" lon="7.05605">
        <ele>2230</ele>
        <time>2022-08-27T23:48:10Z</time>
      </trkpt>
      <trkpt lat="46.05329" lon="7.05604">
        <ele>2230</ele>
        <time>2022-08-27T23:48:13Z</time>
      </trkpt>
      <trkpt lat="46.05331" lon="7.05603">
        <ele>2231</ele>
        <time>2022-08-27T23:48:16Z</time>
      </trkpt>
      <trkpt lat="46.05333" lon="7.05603">
        <ele>2231</ele>
        <time>2022-08-27T23:48:18Z</time>
      </trkpt>
      <trkpt lat="46.05335" lon="7.05601">
        <ele>2232</ele>
        <time>2022-08-27T23:48:21Z</time>
      </trkpt>
      <trkpt lat="46.05338" lon="7.056">
        <ele>2232</ele>
        <time>2022-08-27T23:48:24Z</time>
      </trkpt>
      <trkpt lat="46.0534" lon="7.05599">
        <ele>2232</ele>
        <time>2022-08-27T23:48:27Z</time>
      </trkpt>
      <trkpt lat="46.05342" lon="7.05598">
        <ele>2233</ele>
        <time>2022-08-27T23:48:30Z</time>
      </trkpt>
      <trkpt lat="46.05344" lon="7.05596">
        <ele>2233</ele>
        <time>2022-08-27T23:48:33Z</time>
      </trkpt>
      <trkpt lat="46.05347" lon="7.05595">
        <ele>2233</ele>
        <time>2022-08-27T23:48:36Z</time>
      </trkpt>
      <trkpt lat="46.05348" lon="7.05594">
        <ele>2233</ele>
        <time>2022-08-27T23:48:38Z</time>
      </trkpt>
      <trkpt lat="46.0535" lon="7.05593">
        <ele>2233</ele>
        <time>2022-08-27T23:48:40Z</time>
      </trkpt>
      <trkpt lat="46.05352" lon="7.05592">
        <ele>2234</ele>
        <time>2022-08-27T23:48:42Z</time>
      </trkpt>
      <trkpt lat="46.05354" lon="7.05591">
        <ele>2234</ele>
        <time>2022-08-27T23:48:44Z</time>
      </trkpt>
      <trkpt lat="46.05356" lon="7.05589">
        <ele>2234</ele>
        <time>2022-08-27T23:48:47Z</time>
      </trkpt>
      <trkpt lat="46.05359" lon="7.05588">
        <ele>2235</ele>
        <time>2022-08-27T23:48:50Z</time>
      </trkpt>
      <trkpt lat="46.05361" lon="7.05587">
        <ele>2235</ele>
        <time>2022-08-27T23:48:53Z</time>
      </trkpt>
      <trkpt lat="46.05364" lon="7.05585">
        <ele>2235</ele>
        <time>2022-08-27T23:48:56Z</time>
      </trkpt>
      <trkpt lat="46.05366" lon="7.05584">
        <ele>2236</ele>
        <time>2022-08-27T23:48:59Z</time>
      </trkpt>
      <trkpt lat="46.05368" lon="7.05583">
        <ele>2236</ele>
        <time>2022-08-27T23:49:01Z</time>
      </trkpt>
      <trkpt lat="46.0537" lon="7.05582">
        <ele>2236</ele>
        <time>2022-08-27T23:49:04Z</time>
      </trkpt>
      <trkpt lat="46.05372" lon="7.0558">
        <ele>2236</ele>
        <time>2022-08-27T23:49:06Z</time>
      </trkpt>
      <trkpt lat="46.05374" lon="7.0558">
        <ele>2236</ele>
        <time>2022-08-27T23:49:08Z</time>
      </trkpt>
      <trkpt lat="46.05376" lon="7.05579">
        <ele>2236</ele>
        <time>2022-08-27T23:49:10Z</time>
      </trkpt>
      <trkpt lat="46.05378" lon="7.05577">
        <ele>2236</ele>
        <time>2022-08-27T23:49:13Z</time>
      </trkpt>
      <trkpt lat="46.0538" lon="7.05577">
        <ele>2236</ele>
        <time>2022-08-27T23:49:15Z</time>
      </trkpt>
      <trkpt lat="46.05382" lon="7.05575">
        <ele>2236</ele>
        <time>2022-08-27T23:49:18Z</time>
      </trkpt>
      <trkpt lat="46.05384" lon="7.05573">
        <ele>2237</ele>
        <time>2022-08-27T23:49:21Z</time>
      </trkpt>
      <trkpt lat="46.05386" lon="7.05571">
        <ele>2237</ele>
        <time>2022-08-27T23:49:24Z</time>
      </trkpt>
      <trkpt lat="46.05388" lon="7.0557">
        <ele>2238</ele>
        <time>2022-08-27T23:49:27Z</time>
      </trkpt>
      <trkpt lat="46.05391" lon="7.0557">
        <ele>2238</ele>
        <time>2022-08-27T23:49:30Z</time>
      </trkpt>
      <trkpt lat="46.05393" lon="7.05569">
        <ele>2238</ele>
        <time>2022-08-27T23:49:32Z</time>
      </trkpt>
      <trkpt lat="46.05395" lon="7.05568">
        <ele>2238</ele>
        <time>2022-08-27T23:49:35Z</time>
      </trkpt>
      <trkpt lat="46.05397" lon="7.05566">
        <ele>2239</ele>
        <time>2022-08-27T23:49:41Z</time>
      </trkpt>
      <trkpt lat="46.054" lon="7.05565">
        <ele>2239</ele>
        <time>2022-08-27T23:49:44Z</time>
      </trkpt>
      <trkpt lat="46.05402" lon="7.05564">
        <ele>2239</ele>
        <time>2022-08-27T23:49:47Z</time>
      </trkpt>
      <trkpt lat="46.05404" lon="7.05563">
        <ele>2239</ele>
        <time>2022-08-27T23:49:50Z</time>
      </trkpt>
      <trkpt lat="46.05406" lon="7.05562">
        <ele>2240</ele>
        <time>2022-08-27T23:49:53Z</time>
      </trkpt>
      <trkpt lat="46.05408" lon="7.05561">
        <ele>2240</ele>
        <time>2022-08-27T23:49:56Z</time>
      </trkpt>
      <trkpt lat="46.0541" lon="7.05561">
        <ele>2240</ele>
        <time>2022-08-27T23:50:00Z</time>
      </trkpt>
      <trkpt lat="46.05412" lon="7.0556">
        <ele>2240</ele>
        <time>2022-08-27T23:50:04Z</time>
      </trkpt>
      <trkpt lat="46.05414" lon="7.05559">
        <ele>2241</ele>
        <time>2022-08-27T23:50:07Z</time>
      </trkpt>
      <trkpt lat="46.05416" lon="7.05558">
        <ele>2242</ele>
        <time>2022-08-27T23:50:10Z</time>
      </trkpt>
      <trkpt lat="46.05418" lon="7.05557">
        <ele>2242</ele>
        <time>2022-08-27T23:50:14Z</time>
      </trkpt>
      <trkpt lat="46.0542" lon="7.05556">
        <ele>2243</ele>
        <time>2022-08-27T23:50:17Z</time>
      </trkpt>
      <trkpt lat="46.05422" lon="7.05555">
        <ele>2243</ele>
        <time>2022-08-27T23:50:19Z</time>
      </trkpt>
      <trkpt lat="46.05425" lon="7.05554">
        <ele>2244</ele>
        <time>2022-08-27T23:50:22Z</time>
      </trkpt>
      <trkpt lat="46.05427" lon="7.05554">
        <ele>2244</ele>
        <time>2022-08-27T23:50:25Z</time>
      </trkpt>
      <trkpt lat="46.05429" lon="7.05553">
        <ele>2244</ele>
        <time>2022-08-27T23:50:28Z</time>
      </trkpt>
      <trkpt lat="46.05431" lon="7.05553">
        <ele>2245</ele>
        <time>2022-08-27T23:50:31Z</time>
      </trkpt>
      <trkpt lat="46.05434" lon="7.05552">
        <ele>2245</ele>
        <time>2022-08-27T23:50:34Z</time>
      </trkpt>
      <trkpt lat="46.05435" lon="7.05552">
        <ele>2245</ele>
        <time>2022-08-27T23:50:36Z</time>
      </trkpt>
      <trkpt lat="46.05438" lon="7.05551">
        <ele>2246</ele>
        <time>2022-08-27T23:50:39Z</time>
      </trkpt>
      <trkpt lat="46.0544" lon="7.05551">
        <ele>2246</ele>
        <time>2022-08-27T23:50:41Z</time>
      </trkpt>
      <trkpt lat="46.05442" lon="7.0555">
        <ele>2246</ele>
        <time>2022-08-27T23:50:44Z</time>
      </trkpt>
      <trkpt lat="46.05444" lon="7.0555">
        <ele>2248</ele>
        <time>2022-08-27T23:50:47Z</time>
      </trkpt>
      <trkpt lat="46.05446" lon="7.0555">
        <ele>2248</ele>
        <time>2022-08-27T23:50:50Z</time>
      </trkpt>
      <trkpt lat="46.05448" lon="7.05549">
        <ele>2248</ele>
        <time>2022-08-27T23:50:52Z</time>
      </trkpt>
      <trkpt lat="46.05451" lon="7.05548">
        <ele>2248</ele>
        <time>2022-08-27T23:50:55Z</time>
      </trkpt>
      <trkpt lat="46.05453" lon="7.05548">
        <ele>2248</ele>
        <time>2022-08-27T23:50:57Z</time>
      </trkpt>
      <trkpt lat="46.05456" lon="7.05547">
        <ele>2249</ele>
        <time>2022-08-27T23:51:00Z</time>
      </trkpt>
      <trkpt lat="46.05457" lon="7.05547">
        <ele>2250</ele>
        <time>2022-08-27T23:51:02Z</time>
      </trkpt>
      <trkpt lat="46.0546" lon="7.05547">
        <ele>2250</ele>
        <time>2022-08-27T23:51:04Z</time>
      </trkpt>
      <trkpt lat="46.05462" lon="7.05547">
        <ele>2250</ele>
        <time>2022-08-27T23:51:06Z</time>
      </trkpt>
      <trkpt lat="46.05464" lon="7.05547">
        <ele>2250</ele>
        <time>2022-08-27T23:51:08Z</time>
      </trkpt>
      <trkpt lat="46.05466" lon="7.05547">
        <ele>2250</ele>
        <time>2022-08-27T23:51:10Z</time>
      </trkpt>
      <trkpt lat="46.05468" lon="7.05548">
        <ele>2250</ele>
        <time>2022-08-27T23:51:13Z</time>
      </trkpt>
      <trkpt lat="46.0547" lon="7.05548">
        <ele>2250</ele>
        <time>2022-08-27T23:51:15Z</time>
      </trkpt>
      <trkpt lat="46.05473" lon="7.05549">
        <ele>2251</ele>
        <time>2022-08-27T23:51:17Z</time>
      </trkpt>
      <trkpt lat="46.05475" lon="7.0555">
        <ele>2251</ele>
        <time>2022-08-27T23:51:19Z</time>
      </trkpt>
      <trkpt lat="46.05477" lon="7.05551">
        <ele>2251</ele>
        <time>2022-08-27T23:51:21Z</time>
      </trkpt>
      <trkpt lat="46.05479" lon="7.05551">
        <ele>2251</ele>
        <time>2022-08-27T23:51:23Z</time>
      </trkpt>
      <trkpt lat="46.05482" lon="7.05552">
        <ele>2251</ele>
        <time>2022-08-27T23:51:25Z</time>
      </trkpt>
      <trkpt lat="46.05484" lon="7.05552">
        <ele>2251</ele>
        <time>2022-08-27T23:51:27Z</time>
      </trkpt>
      <trkpt lat="46.05486" lon="7.05553">
        <ele>2251</ele>
        <time>2022-08-27T23:51:29Z</time>
      </trkpt>
      <trkpt lat="46.05488" lon="7.05554">
        <ele>2252</ele>
        <time>2022-08-27T23:51:32Z</time>
      </trkpt>
      <trkpt lat="46.0549" lon="7.05554">
        <ele>2252</ele>
        <time>2022-08-27T23:51:34Z</time>
      </trkpt>
      <trkpt lat="46.05492" lon="7.05554">
        <ele>2252</ele>
        <time>2022-08-27T23:51:37Z</time>
      </trkpt>
      <trkpt lat="46.05494" lon="7.05554">
        <ele>2252</ele>
        <time>2022-08-27T23:51:40Z</time>
      </trkpt>
      <trkpt lat="46.05496" lon="7.05554">
        <ele>2253</ele>
        <time>2022-08-27T23:51:42Z</time>
      </trkpt>
      <trkpt lat="46.05498" lon="7.05554">
        <ele>2253</ele>
        <time>2022-08-27T23:51:44Z</time>
      </trkpt>
      <trkpt lat="46.05501" lon="7.05554">
        <ele>2253</ele>
        <time>2022-08-27T23:51:46Z</time>
      </trkpt>
      <trkpt lat="46.05503" lon="7.05554">
        <ele>2253</ele>
        <time>2022-08-27T23:51:48Z</time>
      </trkpt>
      <trkpt lat="46.05505" lon="7.05553">
        <ele>2254</ele>
        <time>2022-08-27T23:51:50Z</time>
      </trkpt>
      <trkpt lat="46.05506" lon="7.05553">
        <ele>2254</ele>
        <time>2022-08-27T23:51:52Z</time>
      </trkpt>
      <trkpt lat="46.05509" lon="7.05553">
        <ele>2254</ele>
        <time>2022-08-27T23:51:55Z</time>
      </trkpt>
      <trkpt lat="46.05511" lon="7.05552">
        <ele>2255</ele>
        <time>2022-08-27T23:51:58Z</time>
      </trkpt>
      <trkpt lat="46.05513" lon="7.05552">
        <ele>2255</ele>
        <time>2022-08-27T23:52:01Z</time>
      </trkpt>
      <trkpt lat="46.05516" lon="7.05552">
        <ele>2256</ele>
        <time>2022-08-27T23:52:04Z</time>
      </trkpt>
      <trkpt lat="46.05518" lon="7.05551">
        <ele>2256</ele>
        <time>2022-08-27T23:52:06Z</time>
      </trkpt>
      <trkpt lat="46.0552" lon="7.05551">
        <ele>2256</ele>
        <time>2022-08-27T23:52:09Z</time>
      </trkpt>
      <trkpt lat="46.05522" lon="7.0555">
        <ele>2256</ele>
        <time>2022-08-27T23:52:11Z</time>
      </trkpt>
      <trkpt lat="46.05524" lon="7.0555">
        <ele>2256</ele>
        <time>2022-08-27T23:52:13Z</time>
      </trkpt>
      <trkpt lat="46.05526" lon="7.0555">
        <ele>2257</ele>
        <time>2022-08-27T23:52:15Z</time>
      </trkpt>
      <trkpt lat="46.05529" lon="7.05549">
        <ele>2257</ele>
        <time>2022-08-27T23:52:18Z</time>
      </trkpt>
      <trkpt lat="46.05531" lon="7.05549">
        <ele>2257</ele>
        <time>2022-08-27T23:52:20Z</time>
      </trkpt>
      <trkpt lat="46.05532" lon="7.05548">
        <ele>2257</ele>
        <time>2022-08-27T23:52:22Z</time>
      </trkpt>
      <trkpt lat="46.05535" lon="7.05548">
        <ele>2257</ele>
        <time>2022-08-27T23:52:24Z</time>
      </trkpt>
      <trkpt lat="46.05537" lon="7.05547">
        <ele>2257</ele>
        <time>2022-08-27T23:52:26Z</time>
      </trkpt>
      <trkpt lat="46.05539" lon="7.05547">
        <ele>2258</ele>
        <time>2022-08-27T23:52:28Z</time>
      </trkpt>
      <trkpt lat="46.0554" lon="7.05546">
        <ele>2258</ele>
        <time>2022-08-27T23:52:30Z</time>
      </trkpt>
      <trkpt lat="46.05543" lon="7.05546">
        <ele>2258</ele>
        <time>2022-08-27T23:52:33Z</time>
      </trkpt>
      <trkpt lat="46.05545" lon="7.05544">
        <ele>2259</ele>
        <time>2022-08-27T23:52:36Z</time>
      </trkpt>
      <trkpt lat="46.05547" lon="7.05543">
        <ele>2259</ele>
        <time>2022-08-27T23:52:38Z</time>
      </trkpt>
      <trkpt lat="46.05549" lon="7.05543">
        <ele>2259</ele>
        <time>2022-08-27T23:52:40Z</time>
      </trkpt>
      <trkpt lat="46.05551" lon="7.05542">
        <ele>2259</ele>
        <time>2022-08-27T23:52:42Z</time>
      </trkpt>
      <trkpt lat="46.05553" lon="7.05541">
        <ele>2260</ele>
        <time>2022-08-27T23:52:45Z</time>
      </trkpt>
      <trkpt lat="46.05556" lon="7.0554">
        <ele>2260</ele>
        <time>2022-08-27T23:52:48Z</time>
      </trkpt>
      <trkpt lat="46.05557" lon="7.0554">
        <ele>2260</ele>
        <time>2022-08-27T23:52:50Z</time>
      </trkpt>
      <trkpt lat="46.05559" lon="7.05539">
        <ele>2261</ele>
        <time>2022-08-27T23:52:52Z</time>
      </trkpt>
      <trkpt lat="46.05561" lon="7.05539">
        <ele>2261</ele>
        <time>2022-08-27T23:52:54Z</time>
      </trkpt>
      <trkpt lat="46.05563" lon="7.05538">
        <ele>2261</ele>
        <time>2022-08-27T23:52:56Z</time>
      </trkpt>
      <trkpt lat="46.05565" lon="7.05538">
        <ele>2261</ele>
        <time>2022-08-27T23:52:58Z</time>
      </trkpt>
      <trkpt lat="46.05567" lon="7.05537">
        <ele>2262</ele>
        <time>2022-08-27T23:53:00Z</time>
      </trkpt>
      <trkpt lat="46.05569" lon="7.05536">
        <ele>2262</ele>
        <time>2022-08-27T23:53:02Z</time>
      </trkpt>
      <trkpt lat="46.0557" lon="7.05536">
        <ele>2262</ele>
        <time>2022-08-27T23:53:04Z</time>
      </trkpt>
      <trkpt lat="46.05573" lon="7.05535">
        <ele>2262</ele>
        <time>2022-08-27T23:53:07Z</time>
      </trkpt>
      <trkpt lat="46.05575" lon="7.05534">
        <ele>2262</ele>
        <time>2022-08-27T23:53:09Z</time>
      </trkpt>
      <trkpt lat="46.05577" lon="7.05533">
        <ele>2262</ele>
        <time>2022-08-27T23:53:12Z</time>
      </trkpt>
      <trkpt lat="46.05579" lon="7.05532">
        <ele>2262</ele>
        <time>2022-08-27T23:53:14Z</time>
      </trkpt>
      <trkpt lat="46.05581" lon="7.05531">
        <ele>2263</ele>
        <time>2022-08-27T23:53:16Z</time>
      </trkpt>
      <trkpt lat="46.05583" lon="7.0553">
        <ele>2263</ele>
        <time>2022-08-27T23:53:18Z</time>
      </trkpt>
      <trkpt lat="46.05585" lon="7.05529">
        <ele>2263</ele>
        <time>2022-08-27T23:53:20Z</time>
      </trkpt>
      <trkpt lat="46.05587" lon="7.05527">
        <ele>2264</ele>
        <time>2022-08-27T23:53:22Z</time>
      </trkpt>
      <trkpt lat="46.05589" lon="7.05525">
        <ele>2264</ele>
        <time>2022-08-27T23:53:24Z</time>
      </trkpt>
      <trkpt lat="46.05591" lon="7.05523">
        <ele>2264</ele>
        <time>2022-08-27T23:53:26Z</time>
      </trkpt>
      <trkpt lat="46.05593" lon="7.05521">
        <ele>2265</ele>
        <time>2022-08-27T23:53:28Z</time>
      </trkpt>
      <trkpt lat="46.05594" lon="7.0552">
        <ele>2265</ele>
        <time>2022-08-27T23:53:30Z</time>
      </trkpt>
      <trkpt lat="46.05596" lon="7.05517">
        <ele>2265</ele>
        <time>2022-08-27T23:53:33Z</time>
      </trkpt>
      <trkpt lat="46.05597" lon="7.05514">
        <ele>2266</ele>
        <time>2022-08-27T23:53:36Z</time>
      </trkpt>
      <trkpt lat="46.05598" lon="7.05511">
        <ele>2266</ele>
        <time>2022-08-27T23:53:39Z</time>
      </trkpt>
      <trkpt lat="46.05599" lon="7.05508">
        <ele>2266</ele>
        <time>2022-08-27T23:53:41Z</time>
      </trkpt>
      <trkpt lat="46.05599" lon="7.05505">
        <ele>2266</ele>
        <time>2022-08-27T23:53:43Z</time>
      </trkpt>
      <trkpt lat="46.05599" lon="7.05502">
        <ele>2267</ele>
        <time>2022-08-27T23:53:45Z</time>
      </trkpt>
      <trkpt lat="46.056" lon="7.05498">
        <ele>2267</ele>
        <time>2022-08-27T23:53:48Z</time>
      </trkpt>
      <trkpt lat="46.056" lon="7.05496">
        <ele>2267</ele>
        <time>2022-08-27T23:53:50Z</time>
      </trkpt>
      <trkpt lat="46.05601" lon="7.05493">
        <ele>2267</ele>
        <time>2022-08-27T23:53:52Z</time>
      </trkpt>
      <trkpt lat="46.05601" lon="7.0549">
        <ele>2268</ele>
        <time>2022-08-27T23:53:54Z</time>
      </trkpt>
      <trkpt lat="46.05601" lon="7.05488">
        <ele>2268</ele>
        <time>2022-08-27T23:53:56Z</time>
      </trkpt>
      <trkpt lat="46.05601" lon="7.05485">
        <ele>2268</ele>
        <time>2022-08-27T23:53:58Z</time>
      </trkpt>
      <trkpt lat="46.05602" lon="7.05482">
        <ele>2268</ele>
        <time>2022-08-27T23:54:00Z</time>
      </trkpt>
      <trkpt lat="46.05601" lon="7.05479">
        <ele>2268</ele>
        <time>2022-08-27T23:54:02Z</time>
      </trkpt>
      <trkpt lat="46.05602" lon="7.05476">
        <ele>2268</ele>
        <time>2022-08-27T23:54:04Z</time>
      </trkpt>
      <trkpt lat="46.05602" lon="7.05473">
        <ele>2268</ele>
        <time>2022-08-27T23:54:06Z</time>
      </trkpt>
      <trkpt lat="46.05603" lon="7.05471">
        <ele>2269</ele>
        <time>2022-08-27T23:54:08Z</time>
      </trkpt>
      <trkpt lat="46.05603" lon="7.05467">
        <ele>2269</ele>
        <time>2022-08-27T23:54:11Z</time>
      </trkpt>
      <trkpt lat="46.05603" lon="7.05464">
        <ele>2269</ele>
        <time>2022-08-27T23:54:14Z</time>
      </trkpt>
      <trkpt lat="46.05604" lon="7.05461">
        <ele>2270</ele>
        <time>2022-08-27T23:54:17Z</time>
      </trkpt>
      <trkpt lat="46.05604" lon="7.05458">
        <ele>2271</ele>
        <time>2022-08-27T23:54:20Z</time>
      </trkpt>
      <trkpt lat="46.05605" lon="7.05454">
        <ele>2271</ele>
        <time>2022-08-27T23:54:23Z</time>
      </trkpt>
      <trkpt lat="46.05604" lon="7.0545">
        <ele>2271</ele>
        <time>2022-08-27T23:54:26Z</time>
      </trkpt>
      <trkpt lat="46.05603" lon="7.05447">
        <ele>2272</ele>
        <time>2022-08-27T23:54:28Z</time>
      </trkpt>
      <trkpt lat="46.05602" lon="7.05444">
        <ele>2272</ele>
        <time>2022-08-27T23:54:31Z</time>
      </trkpt>
      <trkpt lat="46.05601" lon="7.05441">
        <ele>2272</ele>
        <time>2022-08-27T23:54:34Z</time>
      </trkpt>
      <trkpt lat="46.05601" lon="7.05438">
        <ele>2272</ele>
        <time>2022-08-27T23:54:36Z</time>
      </trkpt>
      <trkpt lat="46.056" lon="7.05434">
        <ele>2272</ele>
        <time>2022-08-27T23:54:39Z</time>
      </trkpt>
      <trkpt lat="46.05599" lon="7.05431">
        <ele>2274</ele>
        <time>2022-08-27T23:54:41Z</time>
      </trkpt>
      <trkpt lat="46.05599" lon="7.05428">
        <ele>2274</ele>
        <time>2022-08-27T23:54:43Z</time>
      </trkpt>
      <trkpt lat="46.05598" lon="7.05425">
        <ele>2274</ele>
        <time>2022-08-27T23:54:45Z</time>
      </trkpt>
      <trkpt lat="46.05598" lon="7.05422">
        <ele>2274</ele>
        <time>2022-08-27T23:54:47Z</time>
      </trkpt>
      <trkpt lat="46.05597" lon="7.05419">
        <ele>2274</ele>
        <time>2022-08-27T23:54:49Z</time>
      </trkpt>
      <trkpt lat="46.05597" lon="7.05416">
        <ele>2275</ele>
        <time>2022-08-27T23:54:51Z</time>
      </trkpt>
      <trkpt lat="46.05596" lon="7.05413">
        <ele>2275</ele>
        <time>2022-08-27T23:54:53Z</time>
      </trkpt>
      <trkpt lat="46.05596" lon="7.05411">
        <ele>2276</ele>
        <time>2022-08-27T23:54:55Z</time>
      </trkpt>
      <trkpt lat="46.05595" lon="7.05408">
        <ele>2276</ele>
        <time>2022-08-27T23:54:57Z</time>
      </trkpt>
      <trkpt lat="46.05595" lon="7.05405">
        <ele>2276</ele>
        <time>2022-08-27T23:54:59Z</time>
      </trkpt>
      <trkpt lat="46.05595" lon="7.05402">
        <ele>2276</ele>
        <time>2022-08-27T23:55:02Z</time>
      </trkpt>
      <trkpt lat="46.05595" lon="7.05398">
        <ele>2276</ele>
        <time>2022-08-27T23:55:05Z</time>
      </trkpt>
      <trkpt lat="46.05594" lon="7.05395">
        <ele>2277</ele>
        <time>2022-08-27T23:55:08Z</time>
      </trkpt>
      <trkpt lat="46.05594" lon="7.05391">
        <ele>2278</ele>
        <time>2022-08-27T23:55:11Z</time>
      </trkpt>
      <trkpt lat="46.05593" lon="7.05388">
        <ele>2278</ele>
        <time>2022-08-27T23:55:14Z</time>
      </trkpt>
      <trkpt lat="46.05593" lon="7.05384">
        <ele>2278</ele>
        <time>2022-08-27T23:55:17Z</time>
      </trkpt>
      <trkpt lat="46.05593" lon="7.05381">
        <ele>2279</ele>
        <time>2022-08-27T23:55:20Z</time>
      </trkpt>
      <trkpt lat="46.05593" lon="7.05378">
        <ele>2279</ele>
        <time>2022-08-27T23:55:22Z</time>
      </trkpt>
      <trkpt lat="46.05593" lon="7.05375">
        <ele>2279</ele>
        <time>2022-08-27T23:55:24Z</time>
      </trkpt>
      <trkpt lat="46.05593" lon="7.05372">
        <ele>2279</ele>
        <time>2022-08-27T23:55:26Z</time>
      </trkpt>
      <trkpt lat="46.05593" lon="7.0537">
        <ele>2279</ele>
        <time>2022-08-27T23:55:28Z</time>
      </trkpt>
      <trkpt lat="46.05592" lon="7.05367">
        <ele>2279</ele>
        <time>2022-08-27T23:55:30Z</time>
      </trkpt>
      <trkpt lat="46.05592" lon="7.05363">
        <ele>2280</ele>
        <time>2022-08-27T23:55:33Z</time>
      </trkpt>
      <trkpt lat="46.05592" lon="7.0536">
        <ele>2280</ele>
        <time>2022-08-27T23:55:35Z</time>
      </trkpt>
      <trkpt lat="46.05592" lon="7.05357">
        <ele>2280</ele>
        <time>2022-08-27T23:55:38Z</time>
      </trkpt>
      <trkpt lat="46.05592" lon="7.05354">
        <ele>2280</ele>
        <time>2022-08-27T23:55:40Z</time>
      </trkpt>
      <trkpt lat="46.05592" lon="7.05351">
        <ele>2281</ele>
        <time>2022-08-27T23:55:42Z</time>
      </trkpt>
      <trkpt lat="46.05592" lon="7.05348">
        <ele>2281</ele>
        <time>2022-08-27T23:55:45Z</time>
      </trkpt>
      <trkpt lat="46.05591" lon="7.05344">
        <ele>2281</ele>
        <time>2022-08-27T23:55:48Z</time>
      </trkpt>
      <trkpt lat="46.0559" lon="7.0534">
        <ele>2282</ele>
        <time>2022-08-27T23:55:51Z</time>
      </trkpt>
      <trkpt lat="46.0559" lon="7.05338">
        <ele>2282</ele>
        <time>2022-08-27T23:55:53Z</time>
      </trkpt>
      <trkpt lat="46.0559" lon="7.05334">
        <ele>2283</ele>
        <time>2022-08-27T23:55:56Z</time>
      </trkpt>
      <trkpt lat="46.0559" lon="7.0533">
        <ele>2283</ele>
        <time>2022-08-27T23:55:59Z</time>
      </trkpt>
      <trkpt lat="46.0559" lon="7.05327">
        <ele>2283</ele>
        <time>2022-08-27T23:56:02Z</time>
      </trkpt>
      <trkpt lat="46.0559" lon="7.05324">
        <ele>2283</ele>
        <time>2022-08-27T23:56:04Z</time>
      </trkpt>
      <trkpt lat="46.05589" lon="7.05321">
        <ele>2283</ele>
        <time>2022-08-27T23:56:06Z</time>
      </trkpt>
      <trkpt lat="46.05589" lon="7.05318">
        <ele>2283</ele>
        <time>2022-08-27T23:56:09Z</time>
      </trkpt>
      <trkpt lat="46.05588" lon="7.05314">
        <ele>2284</ele>
        <time>2022-08-27T23:56:12Z</time>
      </trkpt>
      <trkpt lat="46.05588" lon="7.0531">
        <ele>2284</ele>
        <time>2022-08-27T23:56:14Z</time>
      </trkpt>
      <trkpt lat="46.05587" lon="7.05308">
        <ele>2285</ele>
        <time>2022-08-27T23:56:16Z</time>
      </trkpt>
      <trkpt lat="46.05587" lon="7.05304">
        <ele>2285</ele>
        <time>2022-08-27T23:56:19Z</time>
      </trkpt>
      <trkpt lat="46.05586" lon="7.05302">
        <ele>2285</ele>
        <time>2022-08-27T23:56:21Z</time>
      </trkpt>
      <trkpt lat="46.05586" lon="7.05299">
        <ele>2285</ele>
        <time>2022-08-27T23:56:23Z</time>
      </trkpt>
      <trkpt lat="46.05585" lon="7.05296">
        <ele>2286</ele>
        <time>2022-08-27T23:56:25Z</time>
      </trkpt>
      <trkpt lat="46.05585" lon="7.05293">
        <ele>2286</ele>
        <time>2022-08-27T23:56:27Z</time>
      </trkpt>
      <trkpt lat="46.05584" lon="7.0529">
        <ele>2286</ele>
        <time>2022-08-27T23:56:29Z</time>
      </trkpt>
      <trkpt lat="46.05584" lon="7.05287">
        <ele>2286</ele>
        <time>2022-08-27T23:56:31Z</time>
      </trkpt>
      <trkpt lat="46.05583" lon="7.05284">
        <ele>2287</ele>
        <time>2022-08-27T23:56:33Z</time>
      </trkpt>
      <trkpt lat="46.05583" lon="7.05282">
        <ele>2287</ele>
        <time>2022-08-27T23:56:35Z</time>
      </trkpt>
      <trkpt lat="46.05582" lon="7.05279">
        <ele>2287</ele>
        <time>2022-08-27T23:56:37Z</time>
      </trkpt>
      <trkpt lat="46.05581" lon="7.05276">
        <ele>2287</ele>
        <time>2022-08-27T23:56:39Z</time>
      </trkpt>
      <trkpt lat="46.05581" lon="7.05272">
        <ele>2288</ele>
        <time>2022-08-27T23:56:42Z</time>
      </trkpt>
      <trkpt lat="46.0558" lon="7.05269">
        <ele>2288</ele>
        <time>2022-08-27T23:56:44Z</time>
      </trkpt>
      <trkpt lat="46.05578" lon="7.05266">
        <ele>2288</ele>
        <time>2022-08-27T23:56:46Z</time>
      </trkpt>
      <trkpt lat="46.05578" lon="7.05263">
        <ele>2288</ele>
        <time>2022-08-27T23:56:49Z</time>
      </trkpt>
      <trkpt lat="46.05577" lon="7.0526">
        <ele>2289</ele>
        <time>2022-08-27T23:56:51Z</time>
      </trkpt>
      <trkpt lat="46.05577" lon="7.05257">
        <ele>2289</ele>
        <time>2022-08-27T23:56:53Z</time>
      </trkpt>
      <trkpt lat="46.05577" lon="7.05255">
        <ele>2289</ele>
        <time>2022-08-27T23:56:55Z</time>
      </trkpt>
      <trkpt lat="46.05577" lon="7.05251">
        <ele>2289</ele>
        <time>2022-08-27T23:56:58Z</time>
      </trkpt>
      <trkpt lat="46.05577" lon="7.05248">
        <ele>2289</ele>
        <time>2022-08-27T23:57:01Z</time>
      </trkpt>
      <trkpt lat="46.05577" lon="7.05244">
        <ele>2290</ele>
        <time>2022-08-27T23:57:04Z</time>
      </trkpt>
      <trkpt lat="46.05577" lon="7.05242">
        <ele>2290</ele>
        <time>2022-08-27T23:57:06Z</time>
      </trkpt>
      <trkpt lat="46.05577" lon="7.05239">
        <ele>2290</ele>
        <time>2022-08-27T23:57:08Z</time>
      </trkpt>
      <trkpt lat="46.05577" lon="7.05236">
        <ele>2291</ele>
        <time>2022-08-27T23:57:10Z</time>
      </trkpt>
      <trkpt lat="46.05577" lon="7.05233">
        <ele>2291</ele>
        <time>2022-08-27T23:57:12Z</time>
      </trkpt>
      <trkpt lat="46.05577" lon="7.0523">
        <ele>2292</ele>
        <time>2022-08-27T23:57:14Z</time>
      </trkpt>
      <trkpt lat="46.05577" lon="7.05228">
        <ele>2292</ele>
        <time>2022-08-27T23:57:16Z</time>
      </trkpt>
      <trkpt lat="46.05577" lon="7.05225">
        <ele>2292</ele>
        <time>2022-08-27T23:57:18Z</time>
      </trkpt>
      <trkpt lat="46.05577" lon="7.05222">
        <ele>2292</ele>
        <time>2022-08-27T23:57:20Z</time>
      </trkpt>
      <trkpt lat="46.05577" lon="7.05219">
        <ele>2292</ele>
        <time>2022-08-27T23:57:22Z</time>
      </trkpt>
      <trkpt lat="46.05577" lon="7.05215">
        <ele>2292</ele>
        <time>2022-08-27T23:57:25Z</time>
      </trkpt>
      <trkpt lat="46.05577" lon="7.05211">
        <ele>2292</ele>
        <time>2022-08-27T23:57:28Z</time>
      </trkpt>
      <trkpt lat="46.05577" lon="7.05209">
        <ele>2293</ele>
        <time>2022-08-27T23:57:30Z</time>
      </trkpt>
      <trkpt lat="46.05578" lon="7.05205">
        <ele>2293</ele>
        <time>2022-08-27T23:57:33Z</time>
      </trkpt>
      <trkpt lat="46.05579" lon="7.05202">
        <ele>2293</ele>
        <time>2022-08-27T23:57:36Z</time>
      </trkpt>
      <trkpt lat="46.05579" lon="7.05199">
        <ele>2293</ele>
        <time>2022-08-27T23:57:38Z</time>
      </trkpt>
      <trkpt lat="46.0558" lon="7.05196">
        <ele>2293</ele>
        <time>2022-08-27T23:57:40Z</time>
      </trkpt>
      <trkpt lat="46.0558" lon="7.05193">
        <ele>2293</ele>
        <time>2022-08-27T23:57:42Z</time>
      </trkpt>
      <trkpt lat="46.0558" lon="7.0519">
        <ele>2294</ele>
        <time>2022-08-27T23:57:45Z</time>
      </trkpt>
      <trkpt lat="46.0558" lon="7.05186">
        <ele>2294</ele>
        <time>2022-08-27T23:57:48Z</time>
      </trkpt>
      <trkpt lat="46.0558" lon="7.05183">
        <ele>2294</ele>
        <time>2022-08-27T23:57:51Z</time>
      </trkpt>
      <trkpt lat="46.0558" lon="7.0518">
        <ele>2295</ele>
        <time>2022-08-27T23:57:53Z</time>
      </trkpt>
      <trkpt lat="46.05579" lon="7.05177">
        <ele>2295</ele>
        <time>2022-08-27T23:57:55Z</time>
      </trkpt>
      <trkpt lat="46.05579" lon="7.05175">
        <ele>2296</ele>
        <time>2022-08-27T23:57:57Z</time>
      </trkpt>
      <trkpt lat="46.05579" lon="7.05172">
        <ele>2296</ele>
        <time>2022-08-27T23:57:59Z</time>
      </trkpt>
      <trkpt lat="46.05579" lon="7.05169">
        <ele>2296</ele>
        <time>2022-08-27T23:58:01Z</time>
      </trkpt>
      <trkpt lat="46.05578" lon="7.05166">
        <ele>2297</ele>
        <time>2022-08-27T23:58:04Z</time>
      </trkpt>
      <trkpt lat="46.05579" lon="7.05162">
        <ele>2298</ele>
        <time>2022-08-27T23:58:07Z</time>
      </trkpt>
      <trkpt lat="46.05579" lon="7.05159">
        <ele>2298</ele>
        <time>2022-08-27T23:58:10Z</time>
      </trkpt>
      <trkpt lat="46.05579" lon="7.05156">
        <ele>2298</ele>
        <time>2022-08-27T23:58:13Z</time>
      </trkpt>
      <trkpt lat="46.05579" lon="7.05153">
        <ele>2298</ele>
        <time>2022-08-27T23:58:16Z</time>
      </trkpt>
      <trkpt lat="46.05579" lon="7.0515">
        <ele>2298</ele>
        <time>2022-08-27T23:58:19Z</time>
      </trkpt>
      <trkpt lat="46.05578" lon="7.05146">
        <ele>2300</ele>
        <time>2022-08-27T23:58:22Z</time>
      </trkpt>
      <trkpt lat="46.05577" lon="7.05143">
        <ele>2300</ele>
        <time>2022-08-27T23:58:25Z</time>
      </trkpt>
      <trkpt lat="46.05576" lon="7.0514">
        <ele>2300</ele>
        <time>2022-08-27T23:58:27Z</time>
      </trkpt>
      <trkpt lat="46.05575" lon="7.05138">
        <ele>2300</ele>
        <time>2022-08-27T23:58:29Z</time>
      </trkpt>
      <trkpt lat="46.05574" lon="7.05135">
        <ele>2300</ele>
        <time>2022-08-27T23:58:31Z</time>
      </trkpt>
      <trkpt lat="46.05573" lon="7.05132">
        <ele>2301</ele>
        <time>2022-08-27T23:58:33Z</time>
      </trkpt>
      <trkpt lat="46.05572" lon="7.0513">
        <ele>2301</ele>
        <time>2022-08-27T23:58:35Z</time>
      </trkpt>
      <trkpt lat="46.05571" lon="7.05127">
        <ele>2302</ele>
        <time>2022-08-27T23:58:37Z</time>
      </trkpt>
      <trkpt lat="46.0557" lon="7.05125">
        <ele>2302</ele>
        <time>2022-08-27T23:58:39Z</time>
      </trkpt>
      <trkpt lat="46.05569" lon="7.05123">
        <ele>2302</ele>
        <time>2022-08-27T23:58:41Z</time>
      </trkpt>
      <trkpt lat="46.05568" lon="7.05119">
        <ele>2302</ele>
        <time>2022-08-27T23:58:44Z</time>
      </trkpt>
      <trkpt lat="46.05568" lon="7.05116">
        <ele>2302</ele>
        <time>2022-08-27T23:58:47Z</time>
      </trkpt>
      <trkpt lat="46.05568" lon="7.05114">
        <ele>2302</ele>
        <time>2022-08-27T23:58:49Z</time>
      </trkpt>
      <trkpt lat="46.05568" lon="7.05111">
        <ele>2303</ele>
        <time>2022-08-27T23:58:51Z</time>
      </trkpt>
      <trkpt lat="46.05567" lon="7.05107">
        <ele>2303</ele>
        <time>2022-08-27T23:58:54Z</time>
      </trkpt>
      <trkpt lat="46.05568" lon="7.05104">
        <ele>2303</ele>
        <time>2022-08-27T23:58:57Z</time>
      </trkpt>
      <trkpt lat="46.05568" lon="7.051">
        <ele>2304</ele>
        <time>2022-08-27T23:59:00Z</time>
      </trkpt>
      <trkpt lat="46.05568" lon="7.05097">
        <ele>2304</ele>
        <time>2022-08-27T23:59:03Z</time>
      </trkpt>
      <trkpt lat="46.05568" lon="7.05094">
        <ele>2305</ele>
        <time>2022-08-27T23:59:06Z</time>
      </trkpt>
      <trkpt lat="46.05567" lon="7.05091">
        <ele>2305</ele>
        <time>2022-08-27T23:59:09Z</time>
      </trkpt>
      <trkpt lat="46.05567" lon="7.05087">
        <ele>2305</ele>
        <time>2022-08-27T23:59:12Z</time>
      </trkpt>
      <trkpt lat="46.05565" lon="7.05084">
        <ele>2305</ele>
        <time>2022-08-27T23:59:15Z</time>
      </trkpt>
      <trkpt lat="46.05564" lon="7.05082">
        <ele>2306</ele>
        <time>2022-08-27T23:59:17Z</time>
      </trkpt>
      <trkpt lat="46.05563" lon="7.05079">
        <ele>2306</ele>
        <time>2022-08-27T23:59:19Z</time>
      </trkpt>
      <trkpt lat="46.05563" lon="7.05077">
        <ele>2306</ele>
        <time>2022-08-27T23:59:21Z</time>
      </trkpt>
      <trkpt lat="46.05561" lon="7.05073">
        <ele>2306</ele>
        <time>2022-08-27T23:59:24Z</time>
      </trkpt>
      <trkpt lat="46.05561" lon="7.05071">
        <ele>2306</ele>
        <time>2022-08-27T23:59:26Z</time>
      </trkpt>
      <trkpt lat="46.0556" lon="7.05068">
        <ele>2306</ele>
        <time>2022-08-27T23:59:28Z</time>
      </trkpt>
      <trkpt lat="46.05559" lon="7.05065">
        <ele>2307</ele>
        <time>2022-08-27T23:59:30Z</time>
      </trkpt>
      <trkpt lat="46.05557" lon="7.05061">
        <ele>2308</ele>
        <time>2022-08-27T23:59:33Z</time>
      </trkpt>
      <trkpt lat="46.05557" lon="7.05058">
        <ele>2308</ele>
        <time>2022-08-27T23:59:35Z</time>
      </trkpt>
      <trkpt lat="46.05556" lon="7.05056">
        <ele>2308</ele>
        <time>2022-08-27T23:59:37Z</time>
      </trkpt>
      <trkpt lat="46.05556" lon="7.05053">
        <ele>2308</ele>
        <time>2022-08-27T23:59:39Z</time>
      </trkpt>
      <trkpt lat="46.05555" lon="7.05049">
        <ele>2308</ele>
        <time>2022-08-27T23:59:42Z</time>
      </trkpt>
      <trkpt lat="46.05555" lon="7.05046">
        <ele>2309</ele>
        <time>2022-08-27T23:59:44Z</time>
      </trkpt>
      <trkpt lat="46.05555" lon="7.05043">
        <ele>2309</ele>
        <time>2022-08-27T23:59:47Z</time>
      </trkpt>
      <trkpt lat="46.05555" lon="7.0504">
        <ele>2309</ele>
        <time>2022-08-27T23:59:49Z</time>
      </trkpt>
      <trkpt lat="46.05555" lon="7.05037">
        <ele>2309</ele>
        <time>2022-08-27T23:59:52Z</time>
      </trkpt>
      <trkpt lat="46.05555" lon="7.05033">
        <ele>2310</ele>
        <time>2022-08-27T23:59:55Z</time>
      </trkpt>
      <trkpt lat="46.05555" lon="7.05029">
        <ele>2310</ele>
        <time>2022-08-27T23:59:58Z</time>
      </trkpt>
      <trkpt lat="46.05555" lon="7.05026">
        <ele>2311</ele>
        <time>2022-08-28T00:00:01Z</time>
      </trkpt>
      <trkpt lat="46.05555" lon="7.05022">
        <ele>2311</ele>
        <time>2022-08-28T00:00:04Z</time>
      </trkpt>
      <trkpt lat="46.05554" lon="7.05019">
        <ele>2311</ele>
        <time>2022-08-28T00:00:07Z</time>
      </trkpt>
      <trkpt lat="46.05553" lon="7.05016">
        <ele>2312</ele>
        <time>2022-08-28T00:00:10Z</time>
      </trkpt>
      <trkpt lat="46.05552" lon="7.05014">
        <ele>2312</ele>
        <time>2022-08-28T00:00:13Z</time>
      </trkpt>
      <trkpt lat="46.0555" lon="7.05011">
        <ele>2312</ele>
        <time>2022-08-28T00:00:16Z</time>
      </trkpt>
      <trkpt lat="46.05549" lon="7.05009">
        <ele>2313</ele>
        <time>2022-08-28T00:00:18Z</time>
      </trkpt>
      <trkpt lat="46.05547" lon="7.05007">
        <ele>2313</ele>
        <time>2022-08-28T00:00:20Z</time>
      </trkpt>
      <trkpt lat="46.05546" lon="7.05004">
        <ele>2313</ele>
        <time>2022-08-28T00:00:22Z</time>
      </trkpt>
      <trkpt lat="46.05545" lon="7.05002">
        <ele>2313</ele>
        <time>2022-08-28T00:00:24Z</time>
      </trkpt>
      <trkpt lat="46.05544" lon="7.04999">
        <ele>2313</ele>
        <time>2022-08-28T00:00:27Z</time>
      </trkpt>
      <trkpt lat="46.05543" lon="7.04996">
        <ele>2313</ele>
        <time>2022-08-28T00:00:29Z</time>
      </trkpt>
      <trkpt lat="46.05542" lon="7.04994">
        <ele>2314</ele>
        <time>2022-08-28T00:00:31Z</time>
      </trkpt>
      <trkpt lat="46.05541" lon="7.04991">
        <ele>2314</ele>
        <time>2022-08-28T00:00:34Z</time>
      </trkpt>
      <trkpt lat="46.0554" lon="7.04988">
        <ele>2314</ele>
        <time>2022-08-28T00:00:37Z</time>
      </trkpt>
      <trkpt lat="46.05539" lon="7.04984">
        <ele>2314</ele>
        <time>2022-08-28T00:00:40Z</time>
      </trkpt>
      <trkpt lat="46.05539" lon="7.04981">
        <ele>2315</ele>
        <time>2022-08-28T00:00:49Z</time>
      </trkpt>
      <trkpt lat="46.05539" lon="7.04978">
        <ele>2315</ele>
        <time>2022-08-28T00:00:51Z</time>
      </trkpt>
      <trkpt lat="46.05538" lon="7.04976">
        <ele>2315</ele>
        <time>2022-08-28T00:00:53Z</time>
      </trkpt>
      <trkpt lat="46.05538" lon="7.04972">
        <ele>2315</ele>
        <time>2022-08-28T00:00:58Z</time>
      </trkpt>
      <trkpt lat="46.05538" lon="7.04969">
        <ele>2315</ele>
        <time>2022-08-28T00:01:01Z</time>
      </trkpt>
      <trkpt lat="46.05538" lon="7.04966">
        <ele>2315</ele>
        <time>2022-08-28T00:01:03Z</time>
      </trkpt>
      <trkpt lat="46.05538" lon="7.04963">
        <ele>2316</ele>
        <time>2022-08-28T00:01:05Z</time>
      </trkpt>
      <trkpt lat="46.05538" lon="7.0496">
        <ele>2316</ele>
        <time>2022-08-28T00:01:07Z</time>
      </trkpt>
      <trkpt lat="46.05537" lon="7.04957">
        <ele>2316</ele>
        <time>2022-08-28T00:01:09Z</time>
      </trkpt>
      <trkpt lat="46.05536" lon="7.04954">
        <ele>2316</ele>
        <time>2022-08-28T00:01:11Z</time>
      </trkpt>
      <trkpt lat="46.05535" lon="7.04952">
        <ele>2316</ele>
        <time>2022-08-28T00:01:13Z</time>
      </trkpt>
      <trkpt lat="46.05533" lon="7.0495">
        <ele>2316</ele>
        <time>2022-08-28T00:01:15Z</time>
      </trkpt>
      <trkpt lat="46.05532" lon="7.04947">
        <ele>2316</ele>
        <time>2022-08-28T00:01:17Z</time>
      </trkpt>
      <trkpt lat="46.05531" lon="7.04945">
        <ele>2317</ele>
        <time>2022-08-28T00:01:19Z</time>
      </trkpt>
      <trkpt lat="46.0553" lon="7.04942">
        <ele>2317</ele>
        <time>2022-08-28T00:01:21Z</time>
      </trkpt>
      <trkpt lat="46.05529" lon="7.04939">
        <ele>2317</ele>
        <time>2022-08-28T00:01:24Z</time>
      </trkpt>
      <trkpt lat="46.05529" lon="7.04935">
        <ele>2317</ele>
        <time>2022-08-28T00:01:27Z</time>
      </trkpt>
      <trkpt lat="46.0553" lon="7.04932">
        <ele>2317</ele>
        <time>2022-08-28T00:01:30Z</time>
      </trkpt>
      <trkpt lat="46.0553" lon="7.0493">
        <ele>2318</ele>
        <time>2022-08-28T00:01:33Z</time>
      </trkpt>
      <trkpt lat="46.0553" lon="7.04927">
        <ele>2318</ele>
        <time>2022-08-28T00:01:37Z</time>
      </trkpt>
      <trkpt lat="46.05529" lon="7.04924">
        <ele>2319</ele>
        <time>2022-08-28T00:01:41Z</time>
      </trkpt>
      <trkpt lat="46.05528" lon="7.04921">
        <ele>2320</ele>
        <time>2022-08-28T00:01:45Z</time>
      </trkpt>
      <trkpt lat="46.05529" lon="7.04918">
        <ele>2320</ele>
        <time>2022-08-28T00:01:49Z</time>
      </trkpt>
      <trkpt lat="46.05529" lon="7.04915">
        <ele>2320</ele>
        <time>2022-08-28T00:01:52Z</time>
      </trkpt>
      <trkpt lat="46.0553" lon="7.04912">
        <ele>2321</ele>
        <time>2022-08-28T00:01:55Z</time>
      </trkpt>
      <trkpt lat="46.0553" lon="7.0491">
        <ele>2322</ele>
        <time>2022-08-28T00:01:58Z</time>
      </trkpt>
      <trkpt lat="46.0553" lon="7.04907">
        <ele>2322</ele>
        <time>2022-08-28T00:02:01Z</time>
      </trkpt>
      <trkpt lat="46.0553" lon="7.04903">
        <ele>2322</ele>
        <time>2022-08-28T00:02:04Z</time>
      </trkpt>
      <trkpt lat="46.0553" lon="7.049">
        <ele>2322</ele>
        <time>2022-08-28T00:02:07Z</time>
      </trkpt>
      <trkpt lat="46.0553" lon="7.04898">
        <ele>2323</ele>
        <time>2022-08-28T00:02:12Z</time>
      </trkpt>
      <trkpt lat="46.05531" lon="7.04894">
        <ele>2323</ele>
        <time>2022-08-28T00:02:15Z</time>
      </trkpt>
      <trkpt lat="46.05532" lon="7.04891">
        <ele>2323</ele>
        <time>2022-08-28T00:02:18Z</time>
      </trkpt>
      <trkpt lat="46.05532" lon="7.04888">
        <ele>2323</ele>
        <time>2022-08-28T00:02:20Z</time>
      </trkpt>
      <trkpt lat="46.05533" lon="7.04885">
        <ele>2323</ele>
        <time>2022-08-28T00:02:23Z</time>
      </trkpt>
      <trkpt lat="46.05533" lon="7.04881">
        <ele>2324</ele>
        <time>2022-08-28T00:02:26Z</time>
      </trkpt>
      <trkpt lat="46.05534" lon="7.04878">
        <ele>2326</ele>
        <time>2022-08-28T00:02:28Z</time>
      </trkpt>
      <trkpt lat="46.05535" lon="7.04876">
        <ele>2326</ele>
        <time>2022-08-28T00:02:30Z</time>
      </trkpt>
      <trkpt lat="46.05537" lon="7.04874">
        <ele>2326</ele>
        <time>2022-08-28T00:02:32Z</time>
      </trkpt>
      <trkpt lat="46.05539" lon="7.04873">
        <ele>2326</ele>
        <time>2022-08-28T00:02:34Z</time>
      </trkpt>
      <trkpt lat="46.0554" lon="7.04871">
        <ele>2326</ele>
        <time>2022-08-28T00:02:37Z</time>
      </trkpt>
      <trkpt lat="46.05542" lon="7.04869">
        <ele>2326</ele>
        <time>2022-08-28T00:02:40Z</time>
      </trkpt>
      <trkpt lat="46.05543" lon="7.04865">
        <ele>2326</ele>
        <time>2022-08-28T00:02:43Z</time>
      </trkpt>
      <trkpt lat="46.05543" lon="7.04862">
        <ele>2327</ele>
        <time>2022-08-28T00:02:46Z</time>
      </trkpt>
      <trkpt lat="46.05543" lon="7.04859">
        <ele>2327</ele>
        <time>2022-08-28T00:02:49Z</time>
      </trkpt>
      <trkpt lat="46.05543" lon="7.04856">
        <ele>2328</ele>
        <time>2022-08-28T00:02:52Z</time>
      </trkpt>
      <trkpt lat="46.05543" lon="7.04852">
        <ele>2328</ele>
        <time>2022-08-28T00:02:55Z</time>
      </trkpt>
      <trkpt lat="46.05544" lon="7.04849">
        <ele>2328</ele>
        <time>2022-08-28T00:02:58Z</time>
      </trkpt>
      <trkpt lat="46.05544" lon="7.04846">
        <ele>2329</ele>
        <time>2022-08-28T00:03:01Z</time>
      </trkpt>
      <trkpt lat="46.05544" lon="7.04844">
        <ele>2329</ele>
        <time>2022-08-28T00:03:04Z</time>
      </trkpt>
      <trkpt lat="46.05544" lon="7.04841">
        <ele>2329</ele>
        <time>2022-08-28T00:03:07Z</time>
      </trkpt>
      <trkpt lat="46.05544" lon="7.04838">
        <ele>2329</ele>
        <time>2022-08-28T00:03:10Z</time>
      </trkpt>
      <trkpt lat="46.05543" lon="7.04835">
        <ele>2330</ele>
        <time>2022-08-28T00:03:13Z</time>
      </trkpt>
      <trkpt lat="46.05543" lon="7.04831">
        <ele>2330</ele>
        <time>2022-08-28T00:03:16Z</time>
      </trkpt>
      <trkpt lat="46.05543" lon="7.04828">
        <ele>2330</ele>
        <time>2022-08-28T00:03:19Z</time>
      </trkpt>
      <trkpt lat="46.05544" lon="7.04825">
        <ele>2331</ele>
        <time>2022-08-28T00:03:22Z</time>
      </trkpt>
      <trkpt lat="46.05543" lon="7.04821">
        <ele>2331</ele>
        <time>2022-08-28T00:03:25Z</time>
      </trkpt>
      <trkpt lat="46.05542" lon="7.04819">
        <ele>2332</ele>
        <time>2022-08-28T00:03:27Z</time>
      </trkpt>
      <trkpt lat="46.05541" lon="7.04817">
        <ele>2332</ele>
        <time>2022-08-28T00:03:29Z</time>
      </trkpt>
      <trkpt lat="46.0554" lon="7.04814">
        <ele>2332</ele>
        <time>2022-08-28T00:03:31Z</time>
      </trkpt>
      <trkpt lat="46.05539" lon="7.04811">
        <ele>2332</ele>
        <time>2022-08-28T00:03:33Z</time>
      </trkpt>
      <trkpt lat="46.05538" lon="7.04808">
        <ele>2332</ele>
        <time>2022-08-28T00:03:35Z</time>
      </trkpt>
      <trkpt lat="46.05538" lon="7.04806">
        <ele>2332</ele>
        <time>2022-08-28T00:03:37Z</time>
      </trkpt>
      <trkpt lat="46.05537" lon="7.04803">
        <ele>2332</ele>
        <time>2022-08-28T00:03:39Z</time>
      </trkpt>
      <trkpt lat="46.05536" lon="7.048">
        <ele>2333</ele>
        <time>2022-08-28T00:03:42Z</time>
      </trkpt>
      <trkpt lat="46.05536" lon="7.048">
        <ele>2333</ele>
        <time>2022-08-28T00:03:59Z</time>
      </trkpt>
      <trkpt lat="46.05536" lon="7.048">
        <ele>2334</ele>
        <time>2022-08-28T00:04:17Z</time>
      </trkpt>
      <trkpt lat="46.05536" lon="7.048">
        <ele>2334</ele>
        <time>2022-08-28T00:04:37Z</time>
      </trkpt>
      <trkpt lat="46.05536" lon="7.048">
        <ele>2333</ele>
        <time>2022-08-28T00:04:57Z</time>
      </trkpt>
      <trkpt lat="46.05536" lon="7.048">
        <ele>2334</ele>
        <time>2022-08-28T00:05:17Z</time>
      </trkpt>
      <trkpt lat="46.05536" lon="7.048">
        <ele>2335</ele>
        <time>2022-08-28T00:05:36Z</time>
      </trkpt>
      <trkpt lat="46.05536" lon="7.048">
        <ele>2333</ele>
        <time>2022-08-28T00:05:56Z</time>
      </trkpt>
      <trkpt lat="46.05536" lon="7.048">
        <ele>2334</ele>
        <time>2022-08-28T00:06:16Z</time>
      </trkpt>
      <trkpt lat="46.05536" lon="7.04798">
        <ele>2335</ele>
        <time>2022-08-28T00:06:31Z</time>
      </trkpt>
      <trkpt lat="46.05535" lon="7.04795">
        <ele>2335</ele>
        <time>2022-08-28T00:06:33Z</time>
      </trkpt>
      <trkpt lat="46.05535" lon="7.04792">
        <ele>2335</ele>
        <time>2022-08-28T00:06:35Z</time>
      </trkpt>
      <trkpt lat="46.05535" lon="7.04788">
        <ele>2335</ele>
        <time>2022-08-28T00:06:37Z</time>
      </trkpt>
      <trkpt lat="46.05534" lon="7.04785">
        <ele>2335</ele>
        <time>2022-08-28T00:06:39Z</time>
      </trkpt>
      <trkpt lat="46.05533" lon="7.04782">
        <ele>2335</ele>
        <time>2022-08-28T00:06:41Z</time>
      </trkpt>
      <trkpt lat="46.05532" lon="7.0478">
        <ele>2335</ele>
        <time>2022-08-28T00:06:43Z</time>
      </trkpt>
      <trkpt lat="46.05531" lon="7.04777">
        <ele>2335</ele>
        <time>2022-08-28T00:06:45Z</time>
      </trkpt>
      <trkpt lat="46.0553" lon="7.04774">
        <ele>2335</ele>
        <time>2022-08-28T00:06:47Z</time>
      </trkpt>
      <trkpt lat="46.05529" lon="7.04771">
        <ele>2335</ele>
        <time>2022-08-28T00:06:49Z</time>
      </trkpt>
      <trkpt lat="46.05529" lon="7.04768">
        <ele>2335</ele>
        <time>2022-08-28T00:06:51Z</time>
      </trkpt>
      <trkpt lat="46.05529" lon="7.04765">
        <ele>2336</ele>
        <time>2022-08-28T00:06:53Z</time>
      </trkpt>
      <trkpt lat="46.05528" lon="7.04762">
        <ele>2336</ele>
        <time>2022-08-28T00:06:55Z</time>
      </trkpt>
      <trkpt lat="46.05527" lon="7.04759">
        <ele>2336</ele>
        <time>2022-08-28T00:06:57Z</time>
      </trkpt>
      <trkpt lat="46.05526" lon="7.04757">
        <ele>2336</ele>
        <time>2022-08-28T00:06:59Z</time>
      </trkpt>
      <trkpt lat="46.05526" lon="7.04754">
        <ele>2337</ele>
        <time>2022-08-28T00:07:01Z</time>
      </trkpt>
      <trkpt lat="46.05526" lon="7.04751">
        <ele>2337</ele>
        <time>2022-08-28T00:07:03Z</time>
      </trkpt>
      <trkpt lat="46.05528" lon="7.04748">
        <ele>2337</ele>
        <time>2022-08-28T00:07:05Z</time>
      </trkpt>
      <trkpt lat="46.05529" lon="7.04745">
        <ele>2337</ele>
        <time>2022-08-28T00:07:07Z</time>
      </trkpt>
      <trkpt lat="46.0553" lon="7.04743">
        <ele>2337</ele>
        <time>2022-08-28T00:07:09Z</time>
      </trkpt>
      <trkpt lat="46.0553" lon="7.0474">
        <ele>2337</ele>
        <time>2022-08-28T00:07:11Z</time>
      </trkpt>
      <trkpt lat="46.05531" lon="7.04737">
        <ele>2336</ele>
        <time>2022-08-28T00:07:13Z</time>
      </trkpt>
      <trkpt lat="46.05532" lon="7.04735">
        <ele>2337</ele>
        <time>2022-08-28T00:07:15Z</time>
      </trkpt>
      <trkpt lat="46.05533" lon="7.04731">
        <ele>2337</ele>
        <time>2022-08-28T00:07:18Z</time>
      </trkpt>
      <trkpt lat="46.05533" lon="7.04729">
        <ele>2337</ele>
        <time>2022-08-28T00:07:20Z</time>
      </trkpt>
      <trkpt lat="46.05533" lon="7.04726">
        <ele>2337</ele>
        <time>2022-08-28T00:07:22Z</time>
      </trkpt>
      <trkpt lat="46.05534" lon="7.04722">
        <ele>2338</ele>
        <time>2022-08-28T00:07:25Z</time>
      </trkpt>
      <trkpt lat="46.05533" lon="7.04718">
        <ele>2338</ele>
        <time>2022-08-28T00:07:28Z</time>
      </trkpt>
      <trkpt lat="46.05533" lon="7.04715">
        <ele>2338</ele>
        <time>2022-08-28T00:07:30Z</time>
      </trkpt>
      <trkpt lat="46.05533" lon="7.04712">
        <ele>2338</ele>
        <time>2022-08-28T00:07:32Z</time>
      </trkpt>
      <trkpt lat="46.05533" lon="7.04709">
        <ele>2339</ele>
        <time>2022-08-28T00:07:34Z</time>
      </trkpt>
      <trkpt lat="46.05534" lon="7.04706">
        <ele>2339</ele>
        <time>2022-08-28T00:07:36Z</time>
      </trkpt>
      <trkpt lat="46.05534" lon="7.04704">
        <ele>2339</ele>
        <time>2022-08-28T00:07:38Z</time>
      </trkpt>
      <trkpt lat="46.05534" lon="7.04701">
        <ele>2339</ele>
        <time>2022-08-28T00:07:40Z</time>
      </trkpt>
      <trkpt lat="46.05535" lon="7.04697">
        <ele>2339</ele>
        <time>2022-08-28T00:07:43Z</time>
      </trkpt>
      <trkpt lat="46.05535" lon="7.04694">
        <ele>2339</ele>
        <time>2022-08-28T00:07:45Z</time>
      </trkpt>
      <trkpt lat="46.05535" lon="7.04691">
        <ele>2339</ele>
        <time>2022-08-28T00:07:47Z</time>
      </trkpt>
      <trkpt lat="46.05535" lon="7.04688">
        <ele>2340</ele>
        <time>2022-08-28T00:07:49Z</time>
      </trkpt>
      <trkpt lat="46.05536" lon="7.04685">
        <ele>2340</ele>
        <time>2022-08-28T00:07:51Z</time>
      </trkpt>
      <trkpt lat="46.05536" lon="7.04682">
        <ele>2340</ele>
        <time>2022-08-28T00:07:53Z</time>
      </trkpt>
      <trkpt lat="46.05537" lon="7.04679">
        <ele>2340</ele>
        <time>2022-08-28T00:07:55Z</time>
      </trkpt>
      <trkpt lat="46.05537" lon="7.04676">
        <ele>2340</ele>
        <time>2022-08-28T00:07:57Z</time>
      </trkpt>
      <trkpt lat="46.05538" lon="7.04673">
        <ele>2340</ele>
        <time>2022-08-28T00:07:59Z</time>
      </trkpt>
      <trkpt lat="46.05538" lon="7.0467">
        <ele>2340</ele>
        <time>2022-08-28T00:08:01Z</time>
      </trkpt>
      <trkpt lat="46.05539" lon="7.04668">
        <ele>2340</ele>
        <time>2022-08-28T00:08:03Z</time>
      </trkpt>
      <trkpt lat="46.05539" lon="7.04665">
        <ele>2340</ele>
        <time>2022-08-28T00:08:05Z</time>
      </trkpt>
      <trkpt lat="46.0554" lon="7.04662">
        <ele>2340</ele>
        <time>2022-08-28T00:08:07Z</time>
      </trkpt>
      <trkpt lat="46.05541" lon="7.04659">
        <ele>2340</ele>
        <time>2022-08-28T00:08:09Z</time>
      </trkpt>
      <trkpt lat="46.05542" lon="7.04657">
        <ele>2341</ele>
        <time>2022-08-28T00:08:11Z</time>
      </trkpt>
      <trkpt lat="46.05542" lon="7.04654">
        <ele>2342</ele>
        <time>2022-08-28T00:08:13Z</time>
      </trkpt>
      <trkpt lat="46.05543" lon="7.04652">
        <ele>2342</ele>
        <time>2022-08-28T00:08:15Z</time>
      </trkpt>
      <trkpt lat="46.05544" lon="7.0465">
        <ele>2342</ele>
        <time>2022-08-28T00:08:17Z</time>
      </trkpt>
      <trkpt lat="46.05545" lon="7.04646">
        <ele>2341</ele>
        <time>2022-08-28T00:08:20Z</time>
      </trkpt>
      <trkpt lat="46.05546" lon="7.04643">
        <ele>2341</ele>
        <time>2022-08-28T00:08:23Z</time>
      </trkpt>
      <trkpt lat="46.05548" lon="7.04641">
        <ele>2341</ele>
        <time>2022-08-28T00:08:26Z</time>
      </trkpt>
      <trkpt lat="46.05549" lon="7.04639">
        <ele>2341</ele>
        <time>2022-08-28T00:08:28Z</time>
      </trkpt>
      <trkpt lat="46.0555" lon="7.04637">
        <ele>2341</ele>
        <time>2022-08-28T00:08:30Z</time>
      </trkpt>
      <trkpt lat="46.05551" lon="7.04635">
        <ele>2342</ele>
        <time>2022-08-28T00:08:32Z</time>
      </trkpt>
      <trkpt lat="46.05553" lon="7.04632">
        <ele>2342</ele>
        <time>2022-08-28T00:08:35Z</time>
      </trkpt>
      <trkpt lat="46.05554" lon="7.0463">
        <ele>2342</ele>
        <time>2022-08-28T00:08:38Z</time>
      </trkpt>
      <trkpt lat="46.05556" lon="7.04629">
        <ele>2343</ele>
        <time>2022-08-28T00:08:40Z</time>
      </trkpt>
      <trkpt lat="46.05558" lon="7.04627">
        <ele>2343</ele>
        <time>2022-08-28T00:08:43Z</time>
      </trkpt>
      <trkpt lat="46.0556" lon="7.04627">
        <ele>2343</ele>
        <time>2022-08-28T00:08:45Z</time>
      </trkpt>
      <trkpt lat="46.05562" lon="7.04626">
        <ele>2343</ele>
        <time>2022-08-28T00:08:47Z</time>
      </trkpt>
      <trkpt lat="46.05564" lon="7.04625">
        <ele>2343</ele>
        <time>2022-08-28T00:08:49Z</time>
      </trkpt>
      <trkpt lat="46.05566" lon="7.04624">
        <ele>2343</ele>
        <time>2022-08-28T00:08:51Z</time>
      </trkpt>
      <trkpt lat="46.05568" lon="7.04623">
        <ele>2343</ele>
        <time>2022-08-28T00:08:53Z</time>
      </trkpt>
      <trkpt lat="46.0557" lon="7.04623">
        <ele>2343</ele>
        <time>2022-08-28T00:08:55Z</time>
      </trkpt>
      <trkpt lat="46.05571" lon="7.04623">
        <ele>2343</ele>
        <time>2022-08-28T00:08:57Z</time>
      </trkpt>
      <trkpt lat="46.05573" lon="7.04623">
        <ele>2343</ele>
        <time>2022-08-28T00:08:59Z</time>
      </trkpt>
      <trkpt lat="46.05576" lon="7.04623">
        <ele>2343</ele>
        <time>2022-08-28T00:09:01Z</time>
      </trkpt>
      <trkpt lat="46.05578" lon="7.04623">
        <ele>2343</ele>
        <time>2022-08-28T00:09:03Z</time>
      </trkpt>
      <trkpt lat="46.0558" lon="7.04623">
        <ele>2343</ele>
        <time>2022-08-28T00:09:05Z</time>
      </trkpt>
      <trkpt lat="46.05582" lon="7.04623">
        <ele>2343</ele>
        <time>2022-08-28T00:09:07Z</time>
      </trkpt>
      <trkpt lat="46.05584" lon="7.04624">
        <ele>2344</ele>
        <time>2022-08-28T00:09:09Z</time>
      </trkpt>
      <trkpt lat="46.05586" lon="7.04625">
        <ele>2344</ele>
        <time>2022-08-28T00:09:12Z</time>
      </trkpt>
      <trkpt lat="46.05589" lon="7.04626">
        <ele>2344</ele>
        <time>2022-08-28T00:09:15Z</time>
      </trkpt>
      <trkpt lat="46.05591" lon="7.04627">
        <ele>2344</ele>
        <time>2022-08-28T00:09:18Z</time>
      </trkpt>
      <trkpt lat="46.05593" lon="7.04629">
        <ele>2345</ele>
        <time>2022-08-28T00:09:21Z</time>
      </trkpt>
      <trkpt lat="46.05595" lon="7.0463">
        <ele>2346</ele>
        <time>2022-08-28T00:09:24Z</time>
      </trkpt>
      <trkpt lat="46.05597" lon="7.04631">
        <ele>2346</ele>
        <time>2022-08-28T00:09:27Z</time>
      </trkpt>
      <trkpt lat="46.056" lon="7.0463">
        <ele>2346</ele>
        <time>2022-08-28T00:09:30Z</time>
      </trkpt>
      <trkpt lat="46.05601" lon="7.04629">
        <ele>2346</ele>
        <time>2022-08-28T00:09:32Z</time>
      </trkpt>
      <trkpt lat="46.05603" lon="7.04627">
        <ele>2346</ele>
        <time>2022-08-28T00:09:34Z</time>
      </trkpt>
      <trkpt lat="46.05605" lon="7.04625">
        <ele>2346</ele>
        <time>2022-08-28T00:09:36Z</time>
      </trkpt>
      <trkpt lat="46.05606" lon="7.04623">
        <ele>2346</ele>
        <time>2022-08-28T00:09:38Z</time>
      </trkpt>
      <trkpt lat="46.05608" lon="7.04621">
        <ele>2346</ele>
        <time>2022-08-28T00:09:40Z</time>
      </trkpt>
      <trkpt lat="46.0561" lon="7.04619">
        <ele>2346</ele>
        <time>2022-08-28T00:09:42Z</time>
      </trkpt>
      <trkpt lat="46.05611" lon="7.04617">
        <ele>2346</ele>
        <time>2022-08-28T00:09:44Z</time>
      </trkpt>
      <trkpt lat="46.05612" lon="7.04614">
        <ele>2346</ele>
        <time>2022-08-28T00:09:46Z</time>
      </trkpt>
      <trkpt lat="46.05614" lon="7.04612">
        <ele>2346</ele>
        <time>2022-08-28T00:09:48Z</time>
      </trkpt>
      <trkpt lat="46.05615" lon="7.0461">
        <ele>2346</ele>
        <time>2022-08-28T00:09:50Z</time>
      </trkpt>
      <trkpt lat="46.05617" lon="7.04608">
        <ele>2346</ele>
        <time>2022-08-28T00:09:52Z</time>
      </trkpt>
      <trkpt lat="46.05618" lon="7.04606">
        <ele>2346</ele>
        <time>2022-08-28T00:09:54Z</time>
      </trkpt>
      <trkpt lat="46.0562" lon="7.04604">
        <ele>2346</ele>
        <time>2022-08-28T00:09:56Z</time>
      </trkpt>
      <trkpt lat="46.05621" lon="7.04603">
        <ele>2346</ele>
        <time>2022-08-28T00:09:58Z</time>
      </trkpt>
      <trkpt lat="46.05623" lon="7.04602">
        <ele>2346</ele>
        <time>2022-08-28T00:10:00Z</time>
      </trkpt>
      <trkpt lat="46.05625" lon="7.046">
        <ele>2346</ele>
        <time>2022-08-28T00:10:02Z</time>
      </trkpt>
      <trkpt lat="46.05626" lon="7.04598">
        <ele>2347</ele>
        <time>2022-08-28T00:10:04Z</time>
      </trkpt>
      <trkpt lat="46.05628" lon="7.04597">
        <ele>2347</ele>
        <time>2022-08-28T00:10:06Z</time>
      </trkpt>
      <trkpt lat="46.0563" lon="7.04596">
        <ele>2347</ele>
        <time>2022-08-28T00:10:08Z</time>
      </trkpt>
      <trkpt lat="46.05632" lon="7.04594">
        <ele>2347</ele>
        <time>2022-08-28T00:10:10Z</time>
      </trkpt>
      <trkpt lat="46.05634" lon="7.04592">
        <ele>2347</ele>
        <time>2022-08-28T00:10:12Z</time>
      </trkpt>
      <trkpt lat="46.05635" lon="7.0459">
        <ele>2347</ele>
        <time>2022-08-28T00:10:14Z</time>
      </trkpt>
      <trkpt lat="46.05637" lon="7.04588">
        <ele>2347</ele>
        <time>2022-08-28T00:10:16Z</time>
      </trkpt>
      <trkpt lat="46.05638" lon="7.04586">
        <ele>2348</ele>
        <time>2022-08-28T00:10:18Z</time>
      </trkpt>
      <trkpt lat="46.0564" lon="7.04584">
        <ele>2348</ele>
        <time>2022-08-28T00:10:20Z</time>
      </trkpt>
      <trkpt lat="46.05642" lon="7.04582">
        <ele>2348</ele>
        <time>2022-08-28T00:10:22Z</time>
      </trkpt>
      <trkpt lat="46.05643" lon="7.0458">
        <ele>2348</ele>
        <time>2022-08-28T00:10:24Z</time>
      </trkpt>
      <trkpt lat="46.05644" lon="7.04578">
        <ele>2349</ele>
        <time>2022-08-28T00:10:26Z</time>
      </trkpt>
      <trkpt lat="46.05645" lon="7.04576">
        <ele>2349</ele>
        <time>2022-08-28T00:10:28Z</time>
      </trkpt>
      <trkpt lat="46.05646" lon="7.04573">
        <ele>2349</ele>
        <time>2022-08-28T00:10:30Z</time>
      </trkpt>
      <trkpt lat="46.05647" lon="7.0457">
        <ele>2348</ele>
        <time>2022-08-28T00:10:33Z</time>
      </trkpt>
      <trkpt lat="46.05647" lon="7.04567">
        <ele>2349</ele>
        <time>2022-08-28T00:10:36Z</time>
      </trkpt>
      <trkpt lat="46.05647" lon="7.04564">
        <ele>2349</ele>
        <time>2022-08-28T00:10:40Z</time>
      </trkpt>
      <trkpt lat="46.05647" lon="7.04561">
        <ele>2349</ele>
        <time>2022-08-28T00:10:44Z</time>
      </trkpt>
      <trkpt lat="46.05649" lon="7.04559">
        <ele>2350</ele>
        <time>2022-08-28T00:10:47Z</time>
      </trkpt>
      <trkpt lat="46.05651" lon="7.04557">
        <ele>2350</ele>
        <time>2022-08-28T00:10:49Z</time>
      </trkpt>
      <trkpt lat="46.05652" lon="7.04555">
        <ele>2350</ele>
        <time>2022-08-28T00:10:51Z</time>
      </trkpt>
      <trkpt lat="46.05654" lon="7.04553">
        <ele>2350</ele>
        <time>2022-08-28T00:10:53Z</time>
      </trkpt>
      <trkpt lat="46.05655" lon="7.0455">
        <ele>2350</ele>
        <time>2022-08-28T00:10:55Z</time>
      </trkpt>
      <trkpt lat="46.05656" lon="7.04548">
        <ele>2349</ele>
        <time>2022-08-28T00:10:57Z</time>
      </trkpt>
      <trkpt lat="46.05657" lon="7.04545">
        <ele>2350</ele>
        <time>2022-08-28T00:10:59Z</time>
      </trkpt>
      <trkpt lat="46.05658" lon="7.04543">
        <ele>2350</ele>
        <time>2022-08-28T00:11:01Z</time>
      </trkpt>
      <trkpt lat="46.0566" lon="7.04542">
        <ele>2350</ele>
        <time>2022-08-28T00:11:03Z</time>
      </trkpt>
      <trkpt lat="46.05662" lon="7.0454">
        <ele>2350</ele>
        <time>2022-08-28T00:11:05Z</time>
      </trkpt>
      <trkpt lat="46.05663" lon="7.04538">
        <ele>2350</ele>
        <time>2022-08-28T00:11:07Z</time>
      </trkpt>
      <trkpt lat="46.05665" lon="7.04536">
        <ele>2350</ele>
        <time>2022-08-28T00:11:09Z</time>
      </trkpt>
      <trkpt lat="46.05666" lon="7.04534">
        <ele>2352</ele>
        <time>2022-08-28T00:11:11Z</time>
      </trkpt>
      <trkpt lat="46.05668" lon="7.04531">
        <ele>2352</ele>
        <time>2022-08-28T00:11:14Z</time>
      </trkpt>
      <trkpt lat="46.0567" lon="7.0453">
        <ele>2352</ele>
        <time>2022-08-28T00:11:16Z</time>
      </trkpt>
      <trkpt lat="46.05672" lon="7.04527">
        <ele>2353</ele>
        <time>2022-08-28T00:11:19Z</time>
      </trkpt>
      <trkpt lat="46.05673" lon="7.04525">
        <ele>2353</ele>
        <time>2022-08-28T00:11:22Z</time>
      </trkpt>
      <trkpt lat="46.05675" lon="7.04522">
        <ele>2354</ele>
        <time>2022-08-28T00:11:25Z</time>
      </trkpt>
      <trkpt lat="46.05676" lon="7.0452">
        <ele>2355</ele>
        <time>2022-08-28T00:11:28Z</time>
      </trkpt>
      <trkpt lat="46.05678" lon="7.04517">
        <ele>2356</ele>
        <time>2022-08-28T00:11:31Z</time>
      </trkpt>
      <trkpt lat="46.05679" lon="7.04515">
        <ele>2355</ele>
        <time>2022-08-28T00:11:35Z</time>
      </trkpt>
      <trkpt lat="46.0568" lon="7.04512">
        <ele>2356</ele>
        <time>2022-08-28T00:11:38Z</time>
      </trkpt>
      <trkpt lat="46.05682" lon="7.04509">
        <ele>2356</ele>
        <time>2022-08-28T00:11:41Z</time>
      </trkpt>
      <trkpt lat="46.05683" lon="7.04507">
        <ele>2356</ele>
        <time>2022-08-28T00:11:45Z</time>
      </trkpt>
      <trkpt lat="46.05685" lon="7.04504">
        <ele>2358</ele>
        <time>2022-08-28T00:11:49Z</time>
      </trkpt>
      <trkpt lat="46.05686" lon="7.04502">
        <ele>2358</ele>
        <time>2022-08-28T00:11:52Z</time>
      </trkpt>
      <trkpt lat="46.05688" lon="7.04501">
        <ele>2359</ele>
        <time>2022-08-28T00:11:55Z</time>
      </trkpt>
      <trkpt lat="46.05689" lon="7.04499">
        <ele>2359</ele>
        <time>2022-08-28T00:11:58Z</time>
      </trkpt>
      <trkpt lat="46.05691" lon="7.04496">
        <ele>2360</ele>
        <time>2022-08-28T00:12:02Z</time>
      </trkpt>
      <trkpt lat="46.05692" lon="7.04494">
        <ele>2360</ele>
        <time>2022-08-28T00:12:05Z</time>
      </trkpt>
      <trkpt lat="46.05693" lon="7.04492">
        <ele>2361</ele>
        <time>2022-08-28T00:12:08Z</time>
      </trkpt>
      <trkpt lat="46.05695" lon="7.04491">
        <ele>2361</ele>
        <time>2022-08-28T00:12:11Z</time>
      </trkpt>
      <trkpt lat="46.05697" lon="7.04489">
        <ele>2362</ele>
        <time>2022-08-28T00:12:14Z</time>
      </trkpt>
      <trkpt lat="46.05698" lon="7.04487">
        <ele>2363</ele>
        <time>2022-08-28T00:12:18Z</time>
      </trkpt>
      <trkpt lat="46.057" lon="7.04485">
        <ele>2362</ele>
        <time>2022-08-28T00:12:21Z</time>
      </trkpt>
      <trkpt lat="46.05701" lon="7.04483">
        <ele>2362</ele>
        <time>2022-08-28T00:12:24Z</time>
      </trkpt>
      <trkpt lat="46.05703" lon="7.04481">
        <ele>2363</ele>
        <time>2022-08-28T00:12:27Z</time>
      </trkpt>
      <trkpt lat="46.05705" lon="7.04479">
        <ele>2364</ele>
        <time>2022-08-28T00:12:30Z</time>
      </trkpt>
      <trkpt lat="46.05706" lon="7.04477">
        <ele>2364</ele>
        <time>2022-08-28T00:12:33Z</time>
      </trkpt>
      <trkpt lat="46.05708" lon="7.04475">
        <ele>2364</ele>
        <time>2022-08-28T00:12:36Z</time>
      </trkpt>
      <trkpt lat="46.0571" lon="7.04474">
        <ele>2364</ele>
        <time>2022-08-28T00:12:39Z</time>
      </trkpt>
      <trkpt lat="46.05711" lon="7.04472">
        <ele>2365</ele>
        <time>2022-08-28T00:12:42Z</time>
      </trkpt>
      <trkpt lat="46.05713" lon="7.0447">
        <ele>2365</ele>
        <time>2022-08-28T00:12:45Z</time>
      </trkpt>
      <trkpt lat="46.05714" lon="7.04469">
        <ele>2365</ele>
        <time>2022-08-28T00:12:48Z</time>
      </trkpt>
      <trkpt lat="46.05716" lon="7.04467">
        <ele>2366</ele>
        <time>2022-08-28T00:12:51Z</time>
      </trkpt>
      <trkpt lat="46.05718" lon="7.04465">
        <ele>2367</ele>
        <time>2022-08-28T00:12:54Z</time>
      </trkpt>
      <trkpt lat="46.0572" lon="7.04464">
        <ele>2367</ele>
        <time>2022-08-28T00:12:57Z</time>
      </trkpt>
      <trkpt lat="46.05722" lon="7.04463">
        <ele>2368</ele>
        <time>2022-08-28T00:13:01Z</time>
      </trkpt>
      <trkpt lat="46.05724" lon="7.04462">
        <ele>2369</ele>
        <time>2022-08-28T00:13:04Z</time>
      </trkpt>
      <trkpt lat="46.05727" lon="7.0446">
        <ele>2369</ele>
        <time>2022-08-28T00:13:07Z</time>
      </trkpt>
      <trkpt lat="46.05729" lon="7.04459">
        <ele>2369</ele>
        <time>2022-08-28T00:13:10Z</time>
      </trkpt>
      <trkpt lat="46.05731" lon="7.04459">
        <ele>2370</ele>
        <time>2022-08-28T00:13:15Z</time>
      </trkpt>
      <trkpt lat="46.05734" lon="7.04459">
        <ele>2370</ele>
        <time>2022-08-28T00:13:18Z</time>
      </trkpt>
      <trkpt lat="46.05736" lon="7.04458">
        <ele>2370</ele>
        <time>2022-08-28T00:13:21Z</time>
      </trkpt>
      <trkpt lat="46.05738" lon="7.04458">
        <ele>2370</ele>
        <time>2022-08-28T00:13:24Z</time>
      </trkpt>
      <trkpt lat="46.0574" lon="7.04457">
        <ele>2371</ele>
        <time>2022-08-28T00:13:27Z</time>
      </trkpt>
      <trkpt lat="46.05742" lon="7.04456">
        <ele>2372</ele>
        <time>2022-08-28T00:13:32Z</time>
      </trkpt>
      <trkpt lat="46.05744" lon="7.04455">
        <ele>2372</ele>
        <time>2022-08-28T00:13:35Z</time>
      </trkpt>
      <trkpt lat="46.05746" lon="7.04454">
        <ele>2372</ele>
        <time>2022-08-28T00:13:37Z</time>
      </trkpt>
      <trkpt lat="46.05748" lon="7.04454">
        <ele>2373</ele>
        <time>2022-08-28T00:13:39Z</time>
      </trkpt>
      <trkpt lat="46.0575" lon="7.04453">
        <ele>2373</ele>
        <time>2022-08-28T00:13:41Z</time>
      </trkpt>
      <trkpt lat="46.05752" lon="7.04453">
        <ele>2374</ele>
        <time>2022-08-28T00:13:44Z</time>
      </trkpt>
      <trkpt lat="46.05755" lon="7.04452">
        <ele>2374</ele>
        <time>2022-08-28T00:13:47Z</time>
      </trkpt>
      <trkpt lat="46.05757" lon="7.04451">
        <ele>2374</ele>
        <time>2022-08-28T00:13:50Z</time>
      </trkpt>
      <trkpt lat="46.05758" lon="7.04449">
        <ele>2375</ele>
        <time>2022-08-28T00:13:55Z</time>
      </trkpt>
      <trkpt lat="46.05756" lon="7.04447">
        <ele>2376</ele>
        <time>2022-08-28T00:13:58Z</time>
      </trkpt>
      <trkpt lat="46.05754" lon="7.04446">
        <ele>2376</ele>
        <time>2022-08-28T00:14:01Z</time>
      </trkpt>
      <trkpt lat="46.05752" lon="7.04445">
        <ele>2376</ele>
        <time>2022-08-28T00:14:04Z</time>
      </trkpt>
      <trkpt lat="46.0575" lon="7.04444">
        <ele>2378</ele>
        <time>2022-08-28T00:14:07Z</time>
      </trkpt>
      <trkpt lat="46.05748" lon="7.04443">
        <ele>2379</ele>
        <time>2022-08-28T00:14:11Z</time>
      </trkpt>
      <trkpt lat="46.05747" lon="7.04441">
        <ele>2380</ele>
        <time>2022-08-28T00:14:15Z</time>
      </trkpt>
      <trkpt lat="46.05745" lon="7.04439">
        <ele>2381</ele>
        <time>2022-08-28T00:14:19Z</time>
      </trkpt>
      <trkpt lat="46.05744" lon="7.04437">
        <ele>2382</ele>
        <time>2022-08-28T00:14:24Z</time>
      </trkpt>
      <trkpt lat="46.05742" lon="7.04436">
        <ele>2382</ele>
        <time>2022-08-28T00:14:28Z</time>
      </trkpt>
      <trkpt lat="46.05741" lon="7.04433">
        <ele>2383</ele>
        <time>2022-08-28T00:14:32Z</time>
      </trkpt>
      <trkpt lat="46.0574" lon="7.0443">
        <ele>2384</ele>
        <time>2022-08-28T00:14:36Z</time>
      </trkpt>
      <trkpt lat="46.05739" lon="7.04428">
        <ele>2385</ele>
        <time>2022-08-28T00:14:40Z</time>
      </trkpt>
      <trkpt lat="46.05738" lon="7.04426">
        <ele>2385</ele>
        <time>2022-08-28T00:14:44Z</time>
      </trkpt>
      <trkpt lat="46.05736" lon="7.04425">
        <ele>2386</ele>
        <time>2022-08-28T00:14:48Z</time>
      </trkpt>
      <trkpt lat="46.05734" lon="7.04423">
        <ele>2387</ele>
        <time>2022-08-28T00:14:52Z</time>
      </trkpt>
      <trkpt lat="46.05733" lon="7.0442">
        <ele>2388</ele>
        <time>2022-08-28T00:14:56Z</time>
      </trkpt>
      <trkpt lat="46.05734" lon="7.04417">
        <ele>2388</ele>
        <time>2022-08-28T00:15:00Z</time>
      </trkpt>
      <trkpt lat="46.05734" lon="7.04415">
        <ele>2390</ele>
        <time>2022-08-28T00:15:05Z</time>
      </trkpt>
      <trkpt lat="46.05733" lon="7.04412">
        <ele>2390</ele>
        <time>2022-08-28T00:15:11Z</time>
      </trkpt>
      <trkpt lat="46.05733" lon="7.04412">
        <ele>2388</ele>
        <time>2022-08-28T00:15:21Z</time>
      </trkpt>
      <trkpt lat="46.05733" lon="7.04412">
        <ele>2388</ele>
        <time>2022-08-28T00:15:41Z</time>
      </trkpt>
      <trkpt lat="46.05733" lon="7.04412">
        <ele>2388</ele>
        <time>2022-08-28T00:15:58Z</time>
      </trkpt>
      <trkpt lat="46.05733" lon="7.04412">
        <ele>2389</ele>
        <time>2022-08-28T00:16:17Z</time>
      </trkpt>
      <trkpt lat="46.05733" lon="7.04412">
        <ele>2389</ele>
        <time>2022-08-28T00:16:33Z</time>
      </trkpt>
      <trkpt lat="46.05733" lon="7.04412">
        <ele>2389</ele>
        <time>2022-08-28T00:16:50Z</time>
      </trkpt>
      <trkpt lat="46.05733" lon="7.04412">
        <ele>2389</ele>
        <time>2022-08-28T00:17:08Z</time>
      </trkpt>
      <trkpt lat="46.05733" lon="7.04412">
        <ele>2389</ele>
        <time>2022-08-28T00:17:27Z</time>
      </trkpt>
      <trkpt lat="46.05733" lon="7.04412">
        <ele>2389</ele>
        <time>2022-08-28T00:17:44Z</time>
      </trkpt>
      <trkpt lat="46.05733" lon="7.04412">
        <ele>2389</ele>
        <time>2022-08-28T00:18:02Z</time>
      </trkpt>
      <trkpt lat="46.05733" lon="7.04412">
        <ele>2389</ele>
        <time>2022-08-28T00:18:22Z</time>
      </trkpt>
      <trkpt lat="46.05731" lon="7.04411">
        <ele>2389</ele>
        <time>2022-08-28T00:18:42Z</time>
      </trkpt>
      <trkpt lat="46.05731" lon="7.04411">
        <ele>2389</ele>
        <time>2022-08-28T00:18:44Z</time>
      </trkpt>
      <trkpt lat="46.05731" lon="7.04408">
        <ele>2389</ele>
        <time>2022-08-28T00:18:45Z</time>
      </trkpt>
      <trkpt lat="46.0573" lon="7.04404">
        <ele>2389</ele>
        <time>2022-08-28T00:18:48Z</time>
      </trkpt>
      <trkpt lat="46.0573" lon="7.04402">
        <ele>2388</ele>
        <time>2022-08-28T00:18:50Z</time>
      </trkpt>
      <trkpt lat="46.05729" lon="7.04399">
        <ele>2387</ele>
        <time>2022-08-28T00:18:53Z</time>
      </trkpt>
      <trkpt lat="46.05728" lon="7.04397">
        <ele>2387</ele>
        <time>2022-08-28T00:18:56Z</time>
      </trkpt>
      <trkpt lat="46.05727" lon="7.04394">
        <ele>2386</ele>
        <time>2022-08-28T00:18:59Z</time>
      </trkpt>
      <trkpt lat="46.05728" lon="7.0439">
        <ele>2386</ele>
        <time>2022-08-28T00:19:01Z</time>
      </trkpt>
      <trkpt lat="46.05728" lon="7.04387">
        <ele>2385</ele>
        <time>2022-08-28T00:19:03Z</time>
      </trkpt>
      <trkpt lat="46.05727" lon="7.04384">
        <ele>2385</ele>
        <time>2022-08-28T00:19:05Z</time>
      </trkpt>
      <trkpt lat="46.05727" lon="7.04381">
        <ele>2384</ele>
        <time>2022-08-28T00:19:07Z</time>
      </trkpt>
      <trkpt lat="46.05727" lon="7.04378">
        <ele>2384</ele>
        <time>2022-08-28T00:19:09Z</time>
      </trkpt>
      <trkpt lat="46.05728" lon="7.04375">
        <ele>2383</ele>
        <time>2022-08-28T00:19:11Z</time>
      </trkpt>
      <trkpt lat="46.05728" lon="7.04372">
        <ele>2383</ele>
        <time>2022-08-28T00:19:13Z</time>
      </trkpt>
      <trkpt lat="46.05728" lon="7.04369">
        <ele>2383</ele>
        <time>2022-08-28T00:19:15Z</time>
      </trkpt>
      <trkpt lat="46.05729" lon="7.04366">
        <ele>2383</ele>
        <time>2022-08-28T00:19:17Z</time>
      </trkpt>
      <trkpt lat="46.05729" lon="7.04363">
        <ele>2382</ele>
        <time>2022-08-28T00:19:19Z</time>
      </trkpt>
      <trkpt lat="46.0573" lon="7.0436">
        <ele>2382</ele>
        <time>2022-08-28T00:19:21Z</time>
      </trkpt>
      <trkpt lat="46.05731" lon="7.04356">
        <ele>2381</ele>
        <time>2022-08-28T00:19:23Z</time>
      </trkpt>
      <trkpt lat="46.05731" lon="7.04353">
        <ele>2381</ele>
        <time>2022-08-28T00:19:25Z</time>
      </trkpt>
      <trkpt lat="46.05731" lon="7.0435">
        <ele>2381</ele>
        <time>2022-08-28T00:19:27Z</time>
      </trkpt>
      <trkpt lat="46.05731" lon="7.04347">
        <ele>2380</ele>
        <time>2022-08-28T00:19:29Z</time>
      </trkpt>
      <trkpt lat="46.05731" lon="7.04344">
        <ele>2380</ele>
        <time>2022-08-28T00:19:31Z</time>
      </trkpt>
      <trkpt lat="46.05733" lon="7.04341">
        <ele>2380</ele>
        <time>2022-08-28T00:19:33Z</time>
      </trkpt>
      <trkpt lat="46.05734" lon="7.04339">
        <ele>2379</ele>
        <time>2022-08-28T00:19:35Z</time>
      </trkpt>
      <trkpt lat="46.05735" lon="7.04336">
        <ele>2379</ele>
        <time>2022-08-28T00:19:37Z</time>
      </trkpt>
      <trkpt lat="46.05736" lon="7.04333">
        <ele>2378</ele>
        <time>2022-08-28T00:19:39Z</time>
      </trkpt>
      <trkpt lat="46.05737" lon="7.0433">
        <ele>2378</ele>
        <time>2022-08-28T00:19:41Z</time>
      </trkpt>
      <trkpt lat="46.05739" lon="7.04326">
        <ele>2376</ele>
        <time>2022-08-28T00:19:44Z</time>
      </trkpt>
      <trkpt lat="46.0574" lon="7.04323">
        <ele>2376</ele>
        <time>2022-08-28T00:19:46Z</time>
      </trkpt>
      <trkpt lat="46.05741" lon="7.04321">
        <ele>2376</ele>
        <time>2022-08-28T00:19:48Z</time>
      </trkpt>
      <trkpt lat="46.05743" lon="7.04319">
        <ele>2376</ele>
        <time>2022-08-28T00:19:50Z</time>
      </trkpt>
      <trkpt lat="46.05746" lon="7.04318">
        <ele>2376</ele>
        <time>2022-08-28T00:19:52Z</time>
      </trkpt>
      <trkpt lat="46.05748" lon="7.04317">
        <ele>2375</ele>
        <time>2022-08-28T00:19:54Z</time>
      </trkpt>
      <trkpt lat="46.0575" lon="7.04315">
        <ele>2375</ele>
        <time>2022-08-28T00:19:56Z</time>
      </trkpt>
      <trkpt lat="46.05752" lon="7.04312">
        <ele>2375</ele>
        <time>2022-08-28T00:19:58Z</time>
      </trkpt>
      <trkpt lat="46.05753" lon="7.0431">
        <ele>2375</ele>
        <time>2022-08-28T00:20:00Z</time>
      </trkpt>
      <trkpt lat="46.05754" lon="7.04307">
        <ele>2375</ele>
        <time>2022-08-28T00:20:02Z</time>
      </trkpt>
      <trkpt lat="46.05755" lon="7.04305">
        <ele>2375</ele>
        <time>2022-08-28T00:20:04Z</time>
      </trkpt>
      <trkpt lat="46.05757" lon="7.04303">
        <ele>2375</ele>
        <time>2022-08-28T00:20:07Z</time>
      </trkpt>
      <trkpt lat="46.05757" lon="7.04299">
        <ele>2375</ele>
        <time>2022-08-28T00:20:11Z</time>
      </trkpt>
      <trkpt lat="46.05757" lon="7.04296">
        <ele>2373</ele>
        <time>2022-08-28T00:20:13Z</time>
      </trkpt>
      <trkpt lat="46.05757" lon="7.04293">
        <ele>2372</ele>
        <time>2022-08-28T00:20:16Z</time>
      </trkpt>
      <trkpt lat="46.05756" lon="7.0429">
        <ele>2371</ele>
        <time>2022-08-28T00:20:19Z</time>
      </trkpt>
      <trkpt lat="46.05756" lon="7.04286">
        <ele>2371</ele>
        <time>2022-08-28T00:20:22Z</time>
      </trkpt>
      <trkpt lat="46.05756" lon="7.04283">
        <ele>2371</ele>
        <time>2022-08-28T00:20:24Z</time>
      </trkpt>
      <trkpt lat="46.05757" lon="7.0428">
        <ele>2369</ele>
        <time>2022-08-28T00:20:26Z</time>
      </trkpt>
      <trkpt lat="46.05757" lon="7.04277">
        <ele>2369</ele>
        <time>2022-08-28T00:20:28Z</time>
      </trkpt>
      <trkpt lat="46.05757" lon="7.04274">
        <ele>2369</ele>
        <time>2022-08-28T00:20:30Z</time>
      </trkpt>
      <trkpt lat="46.05757" lon="7.04271">
        <ele>2368</ele>
        <time>2022-08-28T00:20:32Z</time>
      </trkpt>
      <trkpt lat="46.05758" lon="7.04269">
        <ele>2368</ele>
        <time>2022-08-28T00:20:34Z</time>
      </trkpt>
      <trkpt lat="46.05759" lon="7.04266">
        <ele>2367</ele>
        <time>2022-08-28T00:20:36Z</time>
      </trkpt>
      <trkpt lat="46.05759" lon="7.04263">
        <ele>2367</ele>
        <time>2022-08-28T00:20:38Z</time>
      </trkpt>
      <trkpt lat="46.05759" lon="7.0426">
        <ele>2366</ele>
        <time>2022-08-28T00:20:40Z</time>
      </trkpt>
      <trkpt lat="46.05759" lon="7.04257">
        <ele>2366</ele>
        <time>2022-08-28T00:20:42Z</time>
      </trkpt>
      <trkpt lat="46.05759" lon="7.04254">
        <ele>2366</ele>
        <time>2022-08-28T00:20:44Z</time>
      </trkpt>
      <trkpt lat="46.0576" lon="7.04251">
        <ele>2365</ele>
        <time>2022-08-28T00:20:46Z</time>
      </trkpt>
      <trkpt lat="46.05761" lon="7.04248">
        <ele>2365</ele>
        <time>2022-08-28T00:20:48Z</time>
      </trkpt>
      <trkpt lat="46.05762" lon="7.04245">
        <ele>2365</ele>
        <time>2022-08-28T00:20:50Z</time>
      </trkpt>
      <trkpt lat="46.05762" lon="7.04242">
        <ele>2365</ele>
        <time>2022-08-28T00:20:52Z</time>
      </trkpt>
      <trkpt lat="46.05763" lon="7.04239">
        <ele>2365</ele>
        <time>2022-08-28T00:20:54Z</time>
      </trkpt>
      <trkpt lat="46.05764" lon="7.04236">
        <ele>2365</ele>
        <time>2022-08-28T00:20:56Z</time>
      </trkpt>
      <trkpt lat="46.05764" lon="7.04232">
        <ele>2364</ele>
        <time>2022-08-28T00:20:59Z</time>
      </trkpt>
      <trkpt lat="46.05765" lon="7.0423">
        <ele>2364</ele>
        <time>2022-08-28T00:21:01Z</time>
      </trkpt>
      <trkpt lat="46.05767" lon="7.04227">
        <ele>2363</ele>
        <time>2022-08-28T00:21:03Z</time>
      </trkpt>
      <trkpt lat="46.05768" lon="7.04226">
        <ele>2362</ele>
        <time>2022-08-28T00:21:05Z</time>
      </trkpt>
      <trkpt lat="46.0577" lon="7.04222">
        <ele>2362</ele>
        <time>2022-08-28T00:21:07Z</time>
      </trkpt>
      <trkpt lat="46.0577" lon="7.04219">
        <ele>2362</ele>
        <time>2022-08-28T00:21:09Z</time>
      </trkpt>
      <trkpt lat="46.0577" lon="7.04216">
        <ele>2363</ele>
        <time>2022-08-28T00:21:13Z</time>
      </trkpt>
      <trkpt lat="46.05771" lon="7.04214">
        <ele>2364</ele>
        <time>2022-08-28T00:21:16Z</time>
      </trkpt>
      <trkpt lat="46.05772" lon="7.04211">
        <ele>2364</ele>
        <time>2022-08-28T00:21:20Z</time>
      </trkpt>
      <trkpt lat="46.05774" lon="7.0421">
        <ele>2364</ele>
        <time>2022-08-28T00:21:22Z</time>
      </trkpt>
      <trkpt lat="46.05776" lon="7.04208">
        <ele>2363</ele>
        <time>2022-08-28T00:21:24Z</time>
      </trkpt>
      <trkpt lat="46.05778" lon="7.04205">
        <ele>2363</ele>
        <time>2022-08-28T00:21:26Z</time>
      </trkpt>
      <trkpt lat="46.05779" lon="7.04202">
        <ele>2363</ele>
        <time>2022-08-28T00:21:28Z</time>
      </trkpt>
      <trkpt lat="46.0578" lon="7.042">
        <ele>2364</ele>
        <time>2022-08-28T00:21:30Z</time>
      </trkpt>
      <trkpt lat="46.05782" lon="7.04197">
        <ele>2364</ele>
        <time>2022-08-28T00:21:32Z</time>
      </trkpt>
      <trkpt lat="46.05783" lon="7.04194">
        <ele>2364</ele>
        <time>2022-08-28T00:21:34Z</time>
      </trkpt>
      <trkpt lat="46.05784" lon="7.04191">
        <ele>2364</ele>
        <time>2022-08-28T00:21:36Z</time>
      </trkpt>
      <trkpt lat="46.05785" lon="7.04189">
        <ele>2364</ele>
        <time>2022-08-28T00:21:38Z</time>
      </trkpt>
      <trkpt lat="46.05785" lon="7.04185">
        <ele>2364</ele>
        <time>2022-08-28T00:21:40Z</time>
      </trkpt>
      <trkpt lat="46.05786" lon="7.04182">
        <ele>2364</ele>
        <time>2022-08-28T00:21:42Z</time>
      </trkpt>
      <trkpt lat="46.05787" lon="7.0418">
        <ele>2364</ele>
        <time>2022-08-28T00:21:44Z</time>
      </trkpt>
      <trkpt lat="46.05788" lon="7.04177">
        <ele>2365</ele>
        <time>2022-08-28T00:21:46Z</time>
      </trkpt>
      <trkpt lat="46.05788" lon="7.04174">
        <ele>2365</ele>
        <time>2022-08-28T00:21:48Z</time>
      </trkpt>
      <trkpt lat="46.05789" lon="7.0417">
        <ele>2365</ele>
        <time>2022-08-28T00:21:51Z</time>
      </trkpt>
      <trkpt lat="46.05788" lon="7.04168">
        <ele>2365</ele>
        <time>2022-08-28T00:21:53Z</time>
      </trkpt>
      <trkpt lat="46.05788" lon="7.04164">
        <ele>2365</ele>
        <time>2022-08-28T00:21:55Z</time>
      </trkpt>
      <trkpt lat="46.05788" lon="7.04161">
        <ele>2365</ele>
        <time>2022-08-28T00:21:57Z</time>
      </trkpt>
      <trkpt lat="46.05788" lon="7.04158">
        <ele>2365</ele>
        <time>2022-08-28T00:21:59Z</time>
      </trkpt>
      <trkpt lat="46.05788" lon="7.04153">
        <ele>2365</ele>
        <time>2022-08-28T00:22:01Z</time>
      </trkpt>
      <trkpt lat="46.05789" lon="7.04149">
        <ele>2365</ele>
        <time>2022-08-28T00:22:03Z</time>
      </trkpt>
      <trkpt lat="46.05789" lon="7.04144">
        <ele>2365</ele>
        <time>2022-08-28T00:22:05Z</time>
      </trkpt>
      <trkpt lat="46.05789" lon="7.0414">
        <ele>2365</ele>
        <time>2022-08-28T00:22:07Z</time>
      </trkpt>
      <trkpt lat="46.05789" lon="7.04137">
        <ele>2365</ele>
        <time>2022-08-28T00:22:08Z</time>
      </trkpt>
      <trkpt lat="46.05789" lon="7.04134">
        <ele>2365</ele>
        <time>2022-08-28T00:22:09Z</time>
      </trkpt>
      <trkpt lat="46.05789" lon="7.0413">
        <ele>2365</ele>
        <time>2022-08-28T00:22:11Z</time>
      </trkpt>
      <trkpt lat="46.05789" lon="7.04125">
        <ele>2365</ele>
        <time>2022-08-28T00:22:13Z</time>
      </trkpt>
      <trkpt lat="46.05789" lon="7.04121">
        <ele>2365</ele>
        <time>2022-08-28T00:22:15Z</time>
      </trkpt>
      <trkpt lat="46.05788" lon="7.04117">
        <ele>2365</ele>
        <time>2022-08-28T00:22:17Z</time>
      </trkpt>
      <trkpt lat="46.05788" lon="7.04114">
        <ele>2365</ele>
        <time>2022-08-28T00:22:19Z</time>
      </trkpt>
      <trkpt lat="46.05788" lon="7.0411">
        <ele>2364</ele>
        <time>2022-08-28T00:22:21Z</time>
      </trkpt>
      <trkpt lat="46.05788" lon="7.04107">
        <ele>2364</ele>
        <time>2022-08-28T00:22:23Z</time>
      </trkpt>
      <trkpt lat="46.05788" lon="7.04103">
        <ele>2364</ele>
        <time>2022-08-28T00:22:25Z</time>
      </trkpt>
      <trkpt lat="46.05787" lon="7.041">
        <ele>2364</ele>
        <time>2022-08-28T00:22:27Z</time>
      </trkpt>
      <trkpt lat="46.05788" lon="7.04097">
        <ele>2364</ele>
        <time>2022-08-28T00:22:29Z</time>
      </trkpt>
      <trkpt lat="46.05788" lon="7.04093">
        <ele>2364</ele>
        <time>2022-08-28T00:22:31Z</time>
      </trkpt>
      <trkpt lat="46.05788" lon="7.0409">
        <ele>2364</ele>
        <time>2022-08-28T00:22:33Z</time>
      </trkpt>
      <trkpt lat="46.05789" lon="7.04087">
        <ele>2364</ele>
        <time>2022-08-28T00:22:35Z</time>
      </trkpt>
      <trkpt lat="46.0579" lon="7.04084">
        <ele>2364</ele>
        <time>2022-08-28T00:22:37Z</time>
      </trkpt>
      <trkpt lat="46.0579" lon="7.04081">
        <ele>2364</ele>
        <time>2022-08-28T00:22:39Z</time>
      </trkpt>
      <trkpt lat="46.05789" lon="7.04078">
        <ele>2364</ele>
        <time>2022-08-28T00:22:41Z</time>
      </trkpt>
      <trkpt lat="46.05788" lon="7.04075">
        <ele>2364</ele>
        <time>2022-08-28T00:22:44Z</time>
      </trkpt>
      <trkpt lat="46.05787" lon="7.04072">
        <ele>2364</ele>
        <time>2022-08-28T00:22:46Z</time>
      </trkpt>
      <trkpt lat="46.05787" lon="7.04069">
        <ele>2364</ele>
        <time>2022-08-28T00:22:48Z</time>
      </trkpt>
      <trkpt lat="46.05787" lon="7.04066">
        <ele>2363</ele>
        <time>2022-08-28T00:22:50Z</time>
      </trkpt>
      <trkpt lat="46.05786" lon="7.04064">
        <ele>2363</ele>
        <time>2022-08-28T00:22:52Z</time>
      </trkpt>
      <trkpt lat="46.05785" lon="7.04061">
        <ele>2363</ele>
        <time>2022-08-28T00:22:55Z</time>
      </trkpt>
      <trkpt lat="46.05782" lon="7.04059">
        <ele>2362</ele>
        <time>2022-08-28T00:22:58Z</time>
      </trkpt>
      <trkpt lat="46.05782" lon="7.04055">
        <ele>2361</ele>
        <time>2022-08-28T00:23:02Z</time>
      </trkpt>
      <trkpt lat="46.0578" lon="7.04053">
        <ele>2361</ele>
        <time>2022-08-28T00:23:04Z</time>
      </trkpt>
      <trkpt lat="46.05778" lon="7.04051">
        <ele>2360</ele>
        <time>2022-08-28T00:23:06Z</time>
      </trkpt>
      <trkpt lat="46.05776" lon="7.04049">
        <ele>2360</ele>
        <time>2022-08-28T00:23:08Z</time>
      </trkpt>
      <trkpt lat="46.05775" lon="7.04046">
        <ele>2359</ele>
        <time>2022-08-28T00:23:11Z</time>
      </trkpt>
      <trkpt lat="46.05774" lon="7.04043">
        <ele>2359</ele>
        <time>2022-08-28T00:23:14Z</time>
      </trkpt>
      <trkpt lat="46.05773" lon="7.0404">
        <ele>2358</ele>
        <time>2022-08-28T00:23:16Z</time>
      </trkpt>
      <trkpt lat="46.05772" lon="7.04038">
        <ele>2357</ele>
        <time>2022-08-28T00:23:18Z</time>
      </trkpt>
      <trkpt lat="46.05771" lon="7.04035">
        <ele>2357</ele>
        <time>2022-08-28T00:23:20Z</time>
      </trkpt>
      <trkpt lat="46.0577" lon="7.04032">
        <ele>2357</ele>
        <time>2022-08-28T00:23:22Z</time>
      </trkpt>
      <trkpt lat="46.05769" lon="7.04029">
        <ele>2357</ele>
        <time>2022-08-28T00:23:24Z</time>
      </trkpt>
      <trkpt lat="46.05768" lon="7.04027">
        <ele>2356</ele>
        <time>2022-08-28T00:23:26Z</time>
      </trkpt>
      <trkpt lat="46.05766" lon="7.04024">
        <ele>2356</ele>
        <time>2022-08-28T00:23:28Z</time>
      </trkpt>
      <trkpt lat="46.05764" lon="7.04021">
        <ele>2356</ele>
        <time>2022-08-28T00:23:30Z</time>
      </trkpt>
      <trkpt lat="46.05762" lon="7.04018">
        <ele>2356</ele>
        <time>2022-08-28T00:23:32Z</time>
      </trkpt>
      <trkpt lat="46.05761" lon="7.04015">
        <ele>2356</ele>
        <time>2022-08-28T00:23:34Z</time>
      </trkpt>
      <trkpt lat="46.0576" lon="7.04012">
        <ele>2355</ele>
        <time>2022-08-28T00:23:37Z</time>
      </trkpt>
      <trkpt lat="46.05758" lon="7.0401">
        <ele>2355</ele>
        <time>2022-08-28T00:23:40Z</time>
      </trkpt>
      <trkpt lat="46.05758" lon="7.04007">
        <ele>2355</ele>
        <time>2022-08-28T00:23:42Z</time>
      </trkpt>
      <trkpt lat="46.05757" lon="7.04005">
        <ele>2354</ele>
        <time>2022-08-28T00:23:45Z</time>
      </trkpt>
      <trkpt lat="46.05755" lon="7.04002">
        <ele>2353</ele>
        <time>2022-08-28T00:23:48Z</time>
      </trkpt>
      <trkpt lat="46.05755" lon="7.04">
        <ele>2352</ele>
        <time>2022-08-28T00:23:51Z</time>
      </trkpt>
      <trkpt lat="46.05754" lon="7.03997">
        <ele>2352</ele>
        <time>2022-08-28T00:23:54Z</time>
      </trkpt>
      <trkpt lat="46.05753" lon="7.03995">
        <ele>2352</ele>
        <time>2022-08-28T00:23:56Z</time>
      </trkpt>
      <trkpt lat="46.05752" lon="7.03992">
        <ele>2350</ele>
        <time>2022-08-28T00:23:58Z</time>
      </trkpt>
      <trkpt lat="46.05751" lon="7.03989">
        <ele>2349</ele>
        <time>2022-08-28T00:24:00Z</time>
      </trkpt>
      <trkpt lat="46.05751" lon="7.03986">
        <ele>2349</ele>
        <time>2022-08-28T00:24:02Z</time>
      </trkpt>
      <trkpt lat="46.05751" lon="7.03983">
        <ele>2348</ele>
        <time>2022-08-28T00:24:04Z</time>
      </trkpt>
      <trkpt lat="46.0575" lon="7.0398">
        <ele>2348</ele>
        <time>2022-08-28T00:24:06Z</time>
      </trkpt>
      <trkpt lat="46.05748" lon="7.03978">
        <ele>2348</ele>
        <time>2022-08-28T00:24:08Z</time>
      </trkpt>
      <trkpt lat="46.05747" lon="7.03975">
        <ele>2348</ele>
        <time>2022-08-28T00:24:10Z</time>
      </trkpt>
      <trkpt lat="46.05746" lon="7.03972">
        <ele>2348</ele>
        <time>2022-08-28T00:24:13Z</time>
      </trkpt>
      <trkpt lat="46.05747" lon="7.03968">
        <ele>2346</ele>
        <time>2022-08-28T00:24:17Z</time>
      </trkpt>
      <trkpt lat="46.05747" lon="7.03964">
        <ele>2345</ele>
        <time>2022-08-28T00:24:19Z</time>
      </trkpt>
      <trkpt lat="46.05748" lon="7.03961">
        <ele>2345</ele>
        <time>2022-08-28T00:24:21Z</time>
      </trkpt>
      <trkpt lat="46.05749" lon="7.03957">
        <ele>2344</ele>
        <time>2022-08-28T00:24:23Z</time>
      </trkpt>
      <trkpt lat="46.0575" lon="7.03954">
        <ele>2344</ele>
        <time>2022-08-28T00:24:25Z</time>
      </trkpt>
      <trkpt lat="46.05751" lon="7.0395">
        <ele>2344</ele>
        <time>2022-08-28T00:24:27Z</time>
      </trkpt>
      <trkpt lat="46.05752" lon="7.03948">
        <ele>2344</ele>
        <time>2022-08-28T00:24:29Z</time>
      </trkpt>
      <trkpt lat="46.05753" lon="7.03944">
        <ele>2343</ele>
        <time>2022-08-28T00:24:32Z</time>
      </trkpt>
      <trkpt lat="46.05754" lon="7.03941">
        <ele>2342</ele>
        <time>2022-08-28T00:24:34Z</time>
      </trkpt>
      <trkpt lat="46.05755" lon="7.03937">
        <ele>2342</ele>
        <time>2022-08-28T00:24:37Z</time>
      </trkpt>
      <trkpt lat="46.05756" lon="7.03935">
        <ele>2342</ele>
        <time>2022-08-28T00:24:39Z</time>
      </trkpt>
      <trkpt lat="46.05758" lon="7.03933">
        <ele>2342</ele>
        <time>2022-08-28T00:24:41Z</time>
      </trkpt>
      <trkpt lat="46.05759" lon="7.03931">
        <ele>2341</ele>
        <time>2022-08-28T00:24:43Z</time>
      </trkpt>
      <trkpt lat="46.05761" lon="7.03928">
        <ele>2340</ele>
        <time>2022-08-28T00:24:46Z</time>
      </trkpt>
      <trkpt lat="46.05761" lon="7.03925">
        <ele>2339</ele>
        <time>2022-08-28T00:24:48Z</time>
      </trkpt>
      <trkpt lat="46.05761" lon="7.03921">
        <ele>2339</ele>
        <time>2022-08-28T00:24:51Z</time>
      </trkpt>
      <trkpt lat="46.05762" lon="7.03918">
        <ele>2338</ele>
        <time>2022-08-28T00:24:54Z</time>
      </trkpt>
      <trkpt lat="46.05763" lon="7.03915">
        <ele>2337</ele>
        <time>2022-08-28T00:24:56Z</time>
      </trkpt>
      <trkpt lat="46.05763" lon="7.03912">
        <ele>2336</ele>
        <time>2022-08-28T00:24:59Z</time>
      </trkpt>
      <trkpt lat="46.05763" lon="7.03908">
        <ele>2335</ele>
        <time>2022-08-28T00:25:02Z</time>
      </trkpt>
      <trkpt lat="46.05763" lon="7.03905">
        <ele>2335</ele>
        <time>2022-08-28T00:25:05Z</time>
      </trkpt>
      <trkpt lat="46.05763" lon="7.03902">
        <ele>2334</ele>
        <time>2022-08-28T00:25:07Z</time>
      </trkpt>
      <trkpt lat="46.05763" lon="7.03899">
        <ele>2334</ele>
        <time>2022-08-28T00:25:10Z</time>
      </trkpt>
      <trkpt lat="46.05764" lon="7.03897">
        <ele>2334</ele>
        <time>2022-08-28T00:25:13Z</time>
      </trkpt>
      <trkpt lat="46.05765" lon="7.03895">
        <ele>2334</ele>
        <time>2022-08-28T00:25:16Z</time>
      </trkpt>
      <trkpt lat="46.05766" lon="7.03892">
        <ele>2333</ele>
        <time>2022-08-28T00:25:18Z</time>
      </trkpt>
      <trkpt lat="46.05767" lon="7.03889">
        <ele>2333</ele>
        <time>2022-08-28T00:25:20Z</time>
      </trkpt>
      <trkpt lat="46.05766" lon="7.03886">
        <ele>2332</ele>
        <time>2022-08-28T00:25:22Z</time>
      </trkpt>
      <trkpt lat="46.05767" lon="7.03884">
        <ele>2332</ele>
        <time>2022-08-28T00:25:24Z</time>
      </trkpt>
      <trkpt lat="46.05766" lon="7.03881">
        <ele>2332</ele>
        <time>2022-08-28T00:25:26Z</time>
      </trkpt>
      <trkpt lat="46.05765" lon="7.03878">
        <ele>2332</ele>
        <time>2022-08-28T00:25:28Z</time>
      </trkpt>
      <trkpt lat="46.05765" lon="7.03874">
        <ele>2331</ele>
        <time>2022-08-28T00:25:31Z</time>
      </trkpt>
      <trkpt lat="46.05765" lon="7.03872">
        <ele>2331</ele>
        <time>2022-08-28T00:25:33Z</time>
      </trkpt>
      <trkpt lat="46.05764" lon="7.03868">
        <ele>2331</ele>
        <time>2022-08-28T00:25:36Z</time>
      </trkpt>
      <trkpt lat="46.05765" lon="7.03865">
        <ele>2330</ele>
        <time>2022-08-28T00:25:40Z</time>
      </trkpt>
      <trkpt lat="46.05766" lon="7.03862">
        <ele>2329</ele>
        <time>2022-08-28T00:25:44Z</time>
      </trkpt>
      <trkpt lat="46.05765" lon="7.03859">
        <ele>2328</ele>
        <time>2022-08-28T00:25:48Z</time>
      </trkpt>
      <trkpt lat="46.05764" lon="7.03857">
        <ele>2327</ele>
        <time>2022-08-28T00:25:50Z</time>
      </trkpt>
      <trkpt lat="46.05762" lon="7.03855">
        <ele>2327</ele>
        <time>2022-08-28T00:25:52Z</time>
      </trkpt>
      <trkpt lat="46.05763" lon="7.03852">
        <ele>2327</ele>
        <time>2022-08-28T00:25:54Z</time>
      </trkpt>
      <trkpt lat="46.05764" lon="7.03848">
        <ele>2326</ele>
        <time>2022-08-28T00:25:58Z</time>
      </trkpt>
      <trkpt lat="46.05764" lon="7.03846">
        <ele>2324</ele>
        <time>2022-08-28T00:26:00Z</time>
      </trkpt>
      <trkpt lat="46.05765" lon="7.03843">
        <ele>2324</ele>
        <time>2022-08-28T00:26:02Z</time>
      </trkpt>
      <trkpt lat="46.05766" lon="7.03841">
        <ele>2324</ele>
        <time>2022-08-28T00:26:04Z</time>
      </trkpt>
      <trkpt lat="46.05767" lon="7.03837">
        <ele>2323</ele>
        <time>2022-08-28T00:26:07Z</time>
      </trkpt>
      <trkpt lat="46.05767" lon="7.03834">
        <ele>2322</ele>
        <time>2022-08-28T00:26:10Z</time>
      </trkpt>
      <trkpt lat="46.05766" lon="7.03831">
        <ele>2322</ele>
        <time>2022-08-28T00:26:13Z</time>
      </trkpt>
      <trkpt lat="46.05767" lon="7.03828">
        <ele>2322</ele>
        <time>2022-08-28T00:26:16Z</time>
      </trkpt>
      <trkpt lat="46.05768" lon="7.03825">
        <ele>2321</ele>
        <time>2022-08-28T00:26:19Z</time>
      </trkpt>
      <trkpt lat="46.05769" lon="7.03822">
        <ele>2320</ele>
        <time>2022-08-28T00:26:22Z</time>
      </trkpt>
      <trkpt lat="46.05769" lon="7.03818">
        <ele>2320</ele>
        <time>2022-08-28T00:26:25Z</time>
      </trkpt>
      <trkpt lat="46.05768" lon="7.03816">
        <ele>2319</ele>
        <time>2022-08-28T00:26:27Z</time>
      </trkpt>
      <trkpt lat="46.05769" lon="7.03812">
        <ele>2318</ele>
        <time>2022-08-28T00:26:30Z</time>
      </trkpt>
      <trkpt lat="46.05769" lon="7.0381">
        <ele>2318</ele>
        <time>2022-08-28T00:26:33Z</time>
      </trkpt>
      <trkpt lat="46.0577" lon="7.03807">
        <ele>2318</ele>
        <time>2022-08-28T00:26:36Z</time>
      </trkpt>
      <trkpt lat="46.05769" lon="7.03804">
        <ele>2317</ele>
        <time>2022-08-28T00:26:38Z</time>
      </trkpt>
      <trkpt lat="46.05768" lon="7.03801">
        <ele>2317</ele>
        <time>2022-08-28T00:26:40Z</time>
      </trkpt>
      <trkpt lat="46.05766" lon="7.03797">
        <ele>2316</ele>
        <time>2022-08-28T00:26:42Z</time>
      </trkpt>
      <trkpt lat="46.05767" lon="7.03794">
        <ele>2316</ele>
        <time>2022-08-28T00:26:45Z</time>
      </trkpt>
      <trkpt lat="46.05768" lon="7.03791">
        <ele>2316</ele>
        <time>2022-08-28T00:26:47Z</time>
      </trkpt>
      <trkpt lat="46.05767" lon="7.03787">
        <ele>2315</ele>
        <time>2022-08-28T00:26:50Z</time>
      </trkpt>
      <trkpt lat="46.05766" lon="7.03784">
        <ele>2314</ele>
        <time>2022-08-28T00:26:53Z</time>
      </trkpt>
      <trkpt lat="46.05766" lon="7.03781">
        <ele>2313</ele>
        <time>2022-08-28T00:26:55Z</time>
      </trkpt>
      <trkpt lat="46.05766" lon="7.03778">
        <ele>2313</ele>
        <time>2022-08-28T00:26:57Z</time>
      </trkpt>
      <trkpt lat="46.05766" lon="7.03775">
        <ele>2313</ele>
        <time>2022-08-28T00:26:59Z</time>
      </trkpt>
      <trkpt lat="46.05767" lon="7.03772">
        <ele>2312</ele>
        <time>2022-08-28T00:27:02Z</time>
      </trkpt>
      <trkpt lat="46.05768" lon="7.03769">
        <ele>2312</ele>
        <time>2022-08-28T00:27:04Z</time>
      </trkpt>
      <trkpt lat="46.05768" lon="7.03766">
        <ele>2310</ele>
        <time>2022-08-28T00:27:06Z</time>
      </trkpt>
      <trkpt lat="46.05768" lon="7.03763">
        <ele>2310</ele>
        <time>2022-08-28T00:27:08Z</time>
      </trkpt>
      <trkpt lat="46.05768" lon="7.0376">
        <ele>2310</ele>
        <time>2022-08-28T00:27:10Z</time>
      </trkpt>
      <trkpt lat="46.05768" lon="7.03757">
        <ele>2309</ele>
        <time>2022-08-28T00:27:12Z</time>
      </trkpt>
      <trkpt lat="46.05768" lon="7.03754">
        <ele>2309</ele>
        <time>2022-08-28T00:27:14Z</time>
      </trkpt>
      <trkpt lat="46.05768" lon="7.0375">
        <ele>2309</ele>
        <time>2022-08-28T00:27:16Z</time>
      </trkpt>
      <trkpt lat="46.05767" lon="7.03747">
        <ele>2308</ele>
        <time>2022-08-28T00:27:18Z</time>
      </trkpt>
      <trkpt lat="46.05768" lon="7.03744">
        <ele>2308</ele>
        <time>2022-08-28T00:27:20Z</time>
      </trkpt>
      <trkpt lat="46.05769" lon="7.03741">
        <ele>2308</ele>
        <time>2022-08-28T00:27:22Z</time>
      </trkpt>
      <trkpt lat="46.05768" lon="7.03738">
        <ele>2307</ele>
        <time>2022-08-28T00:27:25Z</time>
      </trkpt>
      <trkpt lat="46.05767" lon="7.03735">
        <ele>2307</ele>
        <time>2022-08-28T00:27:27Z</time>
      </trkpt>
      <trkpt lat="46.05767" lon="7.03732">
        <ele>2307</ele>
        <time>2022-08-28T00:27:29Z</time>
      </trkpt>
      <trkpt lat="46.05767" lon="7.03729">
        <ele>2307</ele>
        <time>2022-08-28T00:27:31Z</time>
      </trkpt>
      <trkpt lat="46.05767" lon="7.03726">
        <ele>2306</ele>
        <time>2022-08-28T00:27:33Z</time>
      </trkpt>
      <trkpt lat="46.05766" lon="7.03723">
        <ele>2306</ele>
        <time>2022-08-28T00:27:35Z</time>
      </trkpt>
      <trkpt lat="46.05766" lon="7.0372">
        <ele>2306</ele>
        <time>2022-08-28T00:27:37Z</time>
      </trkpt>
      <trkpt lat="46.05765" lon="7.03717">
        <ele>2306</ele>
        <time>2022-08-28T00:27:40Z</time>
      </trkpt>
      <trkpt lat="46.05765" lon="7.03713">
        <ele>2304</ele>
        <time>2022-08-28T00:27:43Z</time>
      </trkpt>
      <trkpt lat="46.05765" lon="7.0371">
        <ele>2304</ele>
        <time>2022-08-28T00:27:47Z</time>
      </trkpt>
      <trkpt lat="46.05765" lon="7.03707">
        <ele>2303</ele>
        <time>2022-08-28T00:27:50Z</time>
      </trkpt>
      <trkpt lat="46.05766" lon="7.03705">
        <ele>2303</ele>
        <time>2022-08-28T00:27:53Z</time>
      </trkpt>
      <trkpt lat="46.05767" lon="7.03702">
        <ele>2302</ele>
        <time>2022-08-28T00:27:56Z</time>
      </trkpt>
      <trkpt lat="46.05767" lon="7.03698">
        <ele>2301</ele>
        <time>2022-08-28T00:28:00Z</time>
      </trkpt>
      <trkpt lat="46.05767" lon="7.03696">
        <ele>2300</ele>
        <time>2022-08-28T00:28:03Z</time>
      </trkpt>
      <trkpt lat="46.05766" lon="7.03693">
        <ele>2298</ele>
        <time>2022-08-28T00:28:06Z</time>
      </trkpt>
      <trkpt lat="46.05766" lon="7.03689">
        <ele>2298</ele>
        <time>2022-08-28T00:28:09Z</time>
      </trkpt>
      <trkpt lat="46.05766" lon="7.03686">
        <ele>2297</ele>
        <time>2022-08-28T00:28:12Z</time>
      </trkpt>
      <trkpt lat="46.05765" lon="7.03683">
        <ele>2297</ele>
        <time>2022-08-28T00:28:15Z</time>
      </trkpt>
      <trkpt lat="46.05765" lon="7.0368">
        <ele>2297</ele>
        <time>2022-08-28T00:28:17Z</time>
      </trkpt>
      <trkpt lat="46.05766" lon="7.03677">
        <ele>2296</ele>
        <time>2022-08-28T00:28:19Z</time>
      </trkpt>
      <trkpt lat="46.05766" lon="7.03675">
        <ele>2295</ele>
        <time>2022-08-28T00:28:21Z</time>
      </trkpt>
      <trkpt lat="46.05767" lon="7.03672">
        <ele>2294</ele>
        <time>2022-08-28T00:28:24Z</time>
      </trkpt>
      <trkpt lat="46.05767" lon="7.03669">
        <ele>2293</ele>
        <time>2022-08-28T00:28:27Z</time>
      </trkpt>
      <trkpt lat="46.05766" lon="7.03665">
        <ele>2293</ele>
        <time>2022-08-28T00:28:30Z</time>
      </trkpt>
      <trkpt lat="46.05767" lon="7.03662">
        <ele>2291</ele>
        <time>2022-08-28T00:28:33Z</time>
      </trkpt>
      <trkpt lat="46.05768" lon="7.0366">
        <ele>2291</ele>
        <time>2022-08-28T00:28:35Z</time>
      </trkpt>
      <trkpt lat="46.05769" lon="7.03657">
        <ele>2291</ele>
        <time>2022-08-28T00:28:37Z</time>
      </trkpt>
      <trkpt lat="46.05769" lon="7.03654">
        <ele>2289</ele>
        <time>2022-08-28T00:28:40Z</time>
      </trkpt>
      <trkpt lat="46.05769" lon="7.03651">
        <ele>2289</ele>
        <time>2022-08-28T00:28:43Z</time>
      </trkpt>
      <trkpt lat="46.05768" lon="7.03648">
        <ele>2288</ele>
        <time>2022-08-28T00:28:46Z</time>
      </trkpt>
      <trkpt lat="46.05769" lon="7.03645">
        <ele>2287</ele>
        <time>2022-08-28T00:28:48Z</time>
      </trkpt>
      <trkpt lat="46.0577" lon="7.03641">
        <ele>2287</ele>
        <time>2022-08-28T00:28:50Z</time>
      </trkpt>
      <trkpt lat="46.0577" lon="7.03637">
        <ele>2286</ele>
        <time>2022-08-28T00:28:53Z</time>
      </trkpt>
      <trkpt lat="46.0577" lon="7.03634">
        <ele>2286</ele>
        <time>2022-08-28T00:28:57Z</time>
      </trkpt>
      <trkpt lat="46.05771" lon="7.03631">
        <ele>2284</ele>
        <time>2022-08-28T00:28:59Z</time>
      </trkpt>
      <trkpt lat="46.0577" lon="7.03627">
        <ele>2284</ele>
        <time>2022-08-28T00:29:01Z</time>
      </trkpt>
      <trkpt lat="46.05768" lon="7.03623">
        <ele>2284</ele>
        <time>2022-08-28T00:29:03Z</time>
      </trkpt>
      <trkpt lat="46.05767" lon="7.0362">
        <ele>2283</ele>
        <time>2022-08-28T00:29:05Z</time>
      </trkpt>
      <trkpt lat="46.05766" lon="7.03617">
        <ele>2283</ele>
        <time>2022-08-28T00:29:07Z</time>
      </trkpt>
      <trkpt lat="46.05766" lon="7.03614">
        <ele>2283</ele>
        <time>2022-08-28T00:29:09Z</time>
      </trkpt>
      <trkpt lat="46.05765" lon="7.03612">
        <ele>2283</ele>
        <time>2022-08-28T00:29:11Z</time>
      </trkpt>
      <trkpt lat="46.05765" lon="7.03608">
        <ele>2282</ele>
        <time>2022-08-28T00:29:13Z</time>
      </trkpt>
      <trkpt lat="46.05764" lon="7.03606">
        <ele>2281</ele>
        <time>2022-08-28T00:29:15Z</time>
      </trkpt>
      <trkpt lat="46.05764" lon="7.03603">
        <ele>2281</ele>
        <time>2022-08-28T00:29:17Z</time>
      </trkpt>
      <trkpt lat="46.05763" lon="7.036">
        <ele>2281</ele>
        <time>2022-08-28T00:29:19Z</time>
      </trkpt>
      <trkpt lat="46.05761" lon="7.03598">
        <ele>2281</ele>
        <time>2022-08-28T00:29:21Z</time>
      </trkpt>
      <trkpt lat="46.0576" lon="7.03594">
        <ele>2280</ele>
        <time>2022-08-28T00:29:24Z</time>
      </trkpt>
      <trkpt lat="46.0576" lon="7.03591">
        <ele>2279</ele>
        <time>2022-08-28T00:29:27Z</time>
      </trkpt>
      <trkpt lat="46.05759" lon="7.03589">
        <ele>2279</ele>
        <time>2022-08-28T00:29:29Z</time>
      </trkpt>
      <trkpt lat="46.05759" lon="7.03586">
        <ele>2279</ele>
        <time>2022-08-28T00:29:31Z</time>
      </trkpt>
      <trkpt lat="46.05757" lon="7.03583">
        <ele>2278</ele>
        <time>2022-08-28T00:29:33Z</time>
      </trkpt>
      <trkpt lat="46.05755" lon="7.03582">
        <ele>2278</ele>
        <time>2022-08-28T00:29:35Z</time>
      </trkpt>
      <trkpt lat="46.05753" lon="7.03579">
        <ele>2278</ele>
        <time>2022-08-28T00:29:38Z</time>
      </trkpt>
      <trkpt lat="46.05752" lon="7.03576">
        <ele>2277</ele>
        <time>2022-08-28T00:29:41Z</time>
      </trkpt>
      <trkpt lat="46.0575" lon="7.03574">
        <ele>2276</ele>
        <time>2022-08-28T00:29:44Z</time>
      </trkpt>
      <trkpt lat="46.05748" lon="7.03572">
        <ele>2276</ele>
        <time>2022-08-28T00:29:47Z</time>
      </trkpt>
      <trkpt lat="46.05746" lon="7.03571">
        <ele>2276</ele>
        <time>2022-08-28T00:29:49Z</time>
      </trkpt>
      <trkpt lat="46.05745" lon="7.03569">
        <ele>2275</ele>
        <time>2022-08-28T00:29:52Z</time>
      </trkpt>
      <trkpt lat="46.05743" lon="7.03568">
        <ele>2275</ele>
        <time>2022-08-28T00:29:54Z</time>
      </trkpt>
      <trkpt lat="46.05741" lon="7.03566">
        <ele>2272</ele>
        <time>2022-08-28T00:29:56Z</time>
      </trkpt>
      <trkpt lat="46.05738" lon="7.03565">
        <ele>2272</ele>
        <time>2022-08-28T00:29:58Z</time>
      </trkpt>
      <trkpt lat="46.05736" lon="7.03564">
        <ele>2272</ele>
        <time>2022-08-28T00:30:00Z</time>
      </trkpt>
      <trkpt lat="46.05735" lon="7.03564">
        <ele>2271</ele>
        <time>2022-08-28T00:30:02Z</time>
      </trkpt>
      <trkpt lat="46.05733" lon="7.03563">
        <ele>2271</ele>
        <time>2022-08-28T00:30:04Z</time>
      </trkpt>
      <trkpt lat="46.05731" lon="7.0356">
        <ele>2270</ele>
        <time>2022-08-28T00:30:07Z</time>
      </trkpt>
      <trkpt lat="46.0573" lon="7.03558">
        <ele>2269</ele>
        <time>2022-08-28T00:30:10Z</time>
      </trkpt>
      <trkpt lat="46.05729" lon="7.03556">
        <ele>2268</ele>
        <time>2022-08-28T00:30:14Z</time>
      </trkpt>
      <trkpt lat="46.05727" lon="7.03555">
        <ele>2268</ele>
        <time>2022-08-28T00:30:16Z</time>
      </trkpt>
      <trkpt lat="46.05725" lon="7.03554">
        <ele>2267</ele>
        <time>2022-08-28T00:30:19Z</time>
      </trkpt>
      <trkpt lat="46.05723" lon="7.03554">
        <ele>2267</ele>
        <time>2022-08-28T00:30:21Z</time>
      </trkpt>
      <trkpt lat="46.05721" lon="7.03552">
        <ele>2266</ele>
        <time>2022-08-28T00:30:24Z</time>
      </trkpt>
      <trkpt lat="46.05718" lon="7.03552">
        <ele>2265</ele>
        <time>2022-08-28T00:30:26Z</time>
      </trkpt>
      <trkpt lat="46.05716" lon="7.03551">
        <ele>2264</ele>
        <time>2022-08-28T00:30:30Z</time>
      </trkpt>
      <trkpt lat="46.05714" lon="7.0355">
        <ele>2264</ele>
        <time>2022-08-28T00:30:32Z</time>
      </trkpt>
      <trkpt lat="46.05712" lon="7.0355">
        <ele>2263</ele>
        <time>2022-08-28T00:30:34Z</time>
      </trkpt>
      <trkpt lat="46.0571" lon="7.03549">
        <ele>2263</ele>
        <time>2022-08-28T00:30:36Z</time>
      </trkpt>
      <trkpt lat="46.05707" lon="7.03549">
        <ele>2262</ele>
        <time>2022-08-28T00:30:38Z</time>
      </trkpt>
      <trkpt lat="46.05704" lon="7.03548">
        <ele>2262</ele>
        <time>2022-08-28T00:30:40Z</time>
      </trkpt>
      <trkpt lat="46.05702" lon="7.03547">
        <ele>2261</ele>
        <time>2022-08-28T00:30:43Z</time>
      </trkpt>
      <trkpt lat="46.057" lon="7.03545">
        <ele>2261</ele>
        <time>2022-08-28T00:30:45Z</time>
      </trkpt>
      <trkpt lat="46.05697" lon="7.03544">
        <ele>2260</ele>
        <time>2022-08-28T00:30:47Z</time>
      </trkpt>
      <trkpt lat="46.05695" lon="7.03544">
        <ele>2260</ele>
        <time>2022-08-28T00:30:49Z</time>
      </trkpt>
      <trkpt lat="46.05693" lon="7.03544">
        <ele>2260</ele>
        <time>2022-08-28T00:30:52Z</time>
      </trkpt>
      <trkpt lat="46.05691" lon="7.03543">
        <ele>2260</ele>
        <time>2022-08-28T00:30:55Z</time>
      </trkpt>
      <trkpt lat="46.05689" lon="7.03543">
        <ele>2259</ele>
        <time>2022-08-28T00:30:57Z</time>
      </trkpt>
      <trkpt lat="46.05687" lon="7.03542">
        <ele>2259</ele>
        <time>2022-08-28T00:30:59Z</time>
      </trkpt>
      <trkpt lat="46.05685" lon="7.03541">
        <ele>2258</ele>
        <time>2022-08-28T00:31:02Z</time>
      </trkpt>
      <trkpt lat="46.05682" lon="7.0354">
        <ele>2256</ele>
        <time>2022-08-28T00:31:05Z</time>
      </trkpt>
      <trkpt lat="46.0568" lon="7.0354">
        <ele>2256</ele>
        <time>2022-08-28T00:31:07Z</time>
      </trkpt>
      <trkpt lat="46.05678" lon="7.03541">
        <ele>2256</ele>
        <time>2022-08-28T00:31:09Z</time>
      </trkpt>
      <trkpt lat="46.05676" lon="7.03541">
        <ele>2256</ele>
        <time>2022-08-28T00:31:12Z</time>
      </trkpt>
      <trkpt lat="46.05674" lon="7.0354">
        <ele>2255</ele>
        <time>2022-08-28T00:31:15Z</time>
      </trkpt>
      <trkpt lat="46.05672" lon="7.03539">
        <ele>2254</ele>
        <time>2022-08-28T00:31:17Z</time>
      </trkpt>
      <trkpt lat="46.05669" lon="7.03538">
        <ele>2254</ele>
        <time>2022-08-28T00:31:20Z</time>
      </trkpt>
      <trkpt lat="46.05667" lon="7.03536">
        <ele>2252</ele>
        <time>2022-08-28T00:31:24Z</time>
      </trkpt>
      <trkpt lat="46.05664" lon="7.03535">
        <ele>2252</ele>
        <time>2022-08-28T00:31:26Z</time>
      </trkpt>
      <trkpt lat="46.05662" lon="7.03535">
        <ele>2252</ele>
        <time>2022-08-28T00:31:28Z</time>
      </trkpt>
      <trkpt lat="46.0566" lon="7.03533">
        <ele>2251</ele>
        <time>2022-08-28T00:31:30Z</time>
      </trkpt>
      <trkpt lat="46.05658" lon="7.03532">
        <ele>2250</ele>
        <time>2022-08-28T00:31:32Z</time>
      </trkpt>
      <trkpt lat="46.05656" lon="7.0353">
        <ele>2250</ele>
        <time>2022-08-28T00:31:34Z</time>
      </trkpt>
      <trkpt lat="46.05654" lon="7.0353">
        <ele>2250</ele>
        <time>2022-08-28T00:31:37Z</time>
      </trkpt>
      <trkpt lat="46.05651" lon="7.03529">
        <ele>2249</ele>
        <time>2022-08-28T00:31:40Z</time>
      </trkpt>
      <trkpt lat="46.05649" lon="7.03527">
        <ele>2249</ele>
        <time>2022-08-28T00:31:43Z</time>
      </trkpt>
      <trkpt lat="46.05647" lon="7.03526">
        <ele>2248</ele>
        <time>2022-08-28T00:31:45Z</time>
      </trkpt>
      <trkpt lat="46.05645" lon="7.03526">
        <ele>2248</ele>
        <time>2022-08-28T00:31:48Z</time>
      </trkpt>
      <trkpt lat="46.05643" lon="7.03525">
        <ele>2246</ele>
        <time>2022-08-28T00:31:51Z</time>
      </trkpt>
      <trkpt lat="46.05641" lon="7.03525">
        <ele>2245</ele>
        <time>2022-08-28T00:31:54Z</time>
      </trkpt>
      <trkpt lat="46.05639" lon="7.03523">
        <ele>2245</ele>
        <time>2022-08-28T00:31:56Z</time>
      </trkpt>
      <trkpt lat="46.05637" lon="7.03522">
        <ele>2244</ele>
        <time>2022-08-28T00:31:59Z</time>
      </trkpt>
      <trkpt lat="46.05636" lon="7.0352">
        <ele>2243</ele>
        <time>2022-08-28T00:32:02Z</time>
      </trkpt>
      <trkpt lat="46.05634" lon="7.03519">
        <ele>2242</ele>
        <time>2022-08-28T00:32:05Z</time>
      </trkpt>
      <trkpt lat="46.05632" lon="7.03518">
        <ele>2242</ele>
        <time>2022-08-28T00:32:07Z</time>
      </trkpt>
      <trkpt lat="46.05631" lon="7.03516">
        <ele>2241</ele>
        <time>2022-08-28T00:32:09Z</time>
      </trkpt>
      <trkpt lat="46.05629" lon="7.03514">
        <ele>2241</ele>
        <time>2022-08-28T00:32:11Z</time>
      </trkpt>
      <trkpt lat="46.05628" lon="7.03511">
        <ele>2240</ele>
        <time>2022-08-28T00:32:14Z</time>
      </trkpt>
      <trkpt lat="46.05626" lon="7.03509">
        <ele>2240</ele>
        <time>2022-08-28T00:32:17Z</time>
      </trkpt>
      <trkpt lat="46.05624" lon="7.03508">
        <ele>2239</ele>
        <time>2022-08-28T00:32:19Z</time>
      </trkpt>
      <trkpt lat="46.05622" lon="7.03505">
        <ele>2238</ele>
        <time>2022-08-28T00:32:22Z</time>
      </trkpt>
      <trkpt lat="46.05621" lon="7.03503">
        <ele>2238</ele>
        <time>2022-08-28T00:32:25Z</time>
      </trkpt>
      <trkpt lat="46.05619" lon="7.03503">
        <ele>2237</ele>
        <time>2022-08-28T00:32:28Z</time>
      </trkpt>
      <trkpt lat="46.05617" lon="7.03503">
        <ele>2237</ele>
        <time>2022-08-28T00:32:30Z</time>
      </trkpt>
      <trkpt lat="46.05615" lon="7.03502">
        <ele>2237</ele>
        <time>2022-08-28T00:32:32Z</time>
      </trkpt>
      <trkpt lat="46.05614" lon="7.035">
        <ele>2236</ele>
        <time>2022-08-28T00:32:35Z</time>
      </trkpt>
      <trkpt lat="46.05613" lon="7.03497">
        <ele>2235</ele>
        <time>2022-08-28T00:32:38Z</time>
      </trkpt>
      <trkpt lat="46.05612" lon="7.03495">
        <ele>2234</ele>
        <time>2022-08-28T00:32:41Z</time>
      </trkpt>
      <trkpt lat="46.05611" lon="7.03492">
        <ele>2234</ele>
        <time>2022-08-28T00:32:43Z</time>
      </trkpt>
      <trkpt lat="46.0561" lon="7.03489">
        <ele>2233</ele>
        <time>2022-08-28T00:32:46Z</time>
      </trkpt>
      <trkpt lat="46.05609" lon="7.03487">
        <ele>2232</ele>
        <time>2022-08-28T00:32:48Z</time>
      </trkpt>
      <trkpt lat="46.05607" lon="7.03486">
        <ele>2232</ele>
        <time>2022-08-28T00:32:50Z</time>
      </trkpt>
      <trkpt lat="46.05606" lon="7.03484">
        <ele>2232</ele>
        <time>2022-08-28T00:32:53Z</time>
      </trkpt>
      <trkpt lat="46.05604" lon="7.03482">
        <ele>2231</ele>
        <time>2022-08-28T00:32:57Z</time>
      </trkpt>
      <trkpt lat="46.05602" lon="7.03479">
        <ele>2231</ele>
        <time>2022-08-28T00:33:00Z</time>
      </trkpt>
      <trkpt lat="46.05601" lon="7.03477">
        <ele>2230</ele>
        <time>2022-08-28T00:33:04Z</time>
      </trkpt>
      <trkpt lat="46.05599" lon="7.03475">
        <ele>2230</ele>
        <time>2022-08-28T00:33:07Z</time>
      </trkpt>
      <trkpt lat="46.05596" lon="7.03472">
        <ele>2229</ele>
        <time>2022-08-28T00:33:09Z</time>
      </trkpt>
      <trkpt lat="46.05595" lon="7.0347">
        <ele>2229</ele>
        <time>2022-08-28T00:33:11Z</time>
      </trkpt>
      <trkpt lat="46.05593" lon="7.03469">
        <ele>2228</ele>
        <time>2022-08-28T00:33:13Z</time>
      </trkpt>
      <trkpt lat="46.05592" lon="7.03466">
        <ele>2228</ele>
        <time>2022-08-28T00:33:16Z</time>
      </trkpt>
      <trkpt lat="46.0559" lon="7.03464">
        <ele>2227</ele>
        <time>2022-08-28T00:33:18Z</time>
      </trkpt>
      <trkpt lat="46.05589" lon="7.03462">
        <ele>2227</ele>
        <time>2022-08-28T00:33:20Z</time>
      </trkpt>
      <trkpt lat="46.05587" lon="7.03459">
        <ele>2227</ele>
        <time>2022-08-28T00:33:22Z</time>
      </trkpt>
      <trkpt lat="46.05585" lon="7.03455">
        <ele>2227</ele>
        <time>2022-08-28T00:33:24Z</time>
      </trkpt>
      <trkpt lat="46.05584" lon="7.03451">
        <ele>2226</ele>
        <time>2022-08-28T00:33:26Z</time>
      </trkpt>
      <trkpt lat="46.05583" lon="7.03447">
        <ele>2226</ele>
        <time>2022-08-28T00:33:28Z</time>
      </trkpt>
      <trkpt lat="46.05584" lon="7.03444">
        <ele>2225</ele>
        <time>2022-08-28T00:33:30Z</time>
      </trkpt>
      <trkpt lat="46.05583" lon="7.0344">
        <ele>2225</ele>
        <time>2022-08-28T00:33:32Z</time>
      </trkpt>
      <trkpt lat="46.05582" lon="7.03437">
        <ele>2225</ele>
        <time>2022-08-28T00:33:34Z</time>
      </trkpt>
      <trkpt lat="46.05581" lon="7.03434">
        <ele>2225</ele>
        <time>2022-08-28T00:33:36Z</time>
      </trkpt>
      <trkpt lat="46.05581" lon="7.03432">
        <ele>2225</ele>
        <time>2022-08-28T00:33:38Z</time>
      </trkpt>
      <trkpt lat="46.0558" lon="7.03428">
        <ele>2225</ele>
        <time>2022-08-28T00:33:41Z</time>
      </trkpt>
      <trkpt lat="46.0558" lon="7.03425">
        <ele>2224</ele>
        <time>2022-08-28T00:33:43Z</time>
      </trkpt>
      <trkpt lat="46.0558" lon="7.03421">
        <ele>2224</ele>
        <time>2022-08-28T00:33:45Z</time>
      </trkpt>
      <trkpt lat="46.05579" lon="7.03419">
        <ele>2224</ele>
        <time>2022-08-28T00:33:47Z</time>
      </trkpt>
      <trkpt lat="46.05578" lon="7.03416">
        <ele>2224</ele>
        <time>2022-08-28T00:33:49Z</time>
      </trkpt>
      <trkpt lat="46.05578" lon="7.03412">
        <ele>2223</ele>
        <time>2022-08-28T00:33:51Z</time>
      </trkpt>
      <trkpt lat="46.05578" lon="7.03409">
        <ele>2223</ele>
        <time>2022-08-28T00:33:53Z</time>
      </trkpt>
      <trkpt lat="46.05578" lon="7.03405">
        <ele>2223</ele>
        <time>2022-08-28T00:33:55Z</time>
      </trkpt>
      <trkpt lat="46.05578" lon="7.03401">
        <ele>2223</ele>
        <time>2022-08-28T00:33:57Z</time>
      </trkpt>
      <trkpt lat="46.05579" lon="7.03397">
        <ele>2222</ele>
        <time>2022-08-28T00:33:59Z</time>
      </trkpt>
      <trkpt lat="46.0558" lon="7.03394">
        <ele>2222</ele>
        <time>2022-08-28T00:34:01Z</time>
      </trkpt>
      <trkpt lat="46.0558" lon="7.0339">
        <ele>2222</ele>
        <time>2022-08-28T00:34:03Z</time>
      </trkpt>
      <trkpt lat="46.05582" lon="7.03387">
        <ele>2219</ele>
        <time>2022-08-28T00:34:05Z</time>
      </trkpt>
      <trkpt lat="46.05583" lon="7.03385">
        <ele>2219</ele>
        <time>2022-08-28T00:34:07Z</time>
      </trkpt>
      <trkpt lat="46.05584" lon="7.03382">
        <ele>2219</ele>
        <time>2022-08-28T00:34:09Z</time>
      </trkpt>
      <trkpt lat="46.05584" lon="7.03379">
        <ele>2219</ele>
        <time>2022-08-28T00:34:11Z</time>
      </trkpt>
      <trkpt lat="46.05586" lon="7.03375">
        <ele>2219</ele>
        <time>2022-08-28T00:34:13Z</time>
      </trkpt>
      <trkpt lat="46.05587" lon="7.03372">
        <ele>2218</ele>
        <time>2022-08-28T00:34:15Z</time>
      </trkpt>
      <trkpt lat="46.05586" lon="7.03368">
        <ele>2218</ele>
        <time>2022-08-28T00:34:17Z</time>
      </trkpt>
      <trkpt lat="46.05584" lon="7.03366">
        <ele>2217</ele>
        <time>2022-08-28T00:34:19Z</time>
      </trkpt>
      <trkpt lat="46.05582" lon="7.03364">
        <ele>2217</ele>
        <time>2022-08-28T00:34:21Z</time>
      </trkpt>
      <trkpt lat="46.05579" lon="7.03363">
        <ele>2216</ele>
        <time>2022-08-28T00:34:24Z</time>
      </trkpt>
      <trkpt lat="46.05577" lon="7.03362">
        <ele>2216</ele>
        <time>2022-08-28T00:34:26Z</time>
      </trkpt>
      <trkpt lat="46.05575" lon="7.03361">
        <ele>2216</ele>
        <time>2022-08-28T00:34:28Z</time>
      </trkpt>
      <trkpt lat="46.05572" lon="7.0336">
        <ele>2217</ele>
        <time>2022-08-28T00:34:31Z</time>
      </trkpt>
      <trkpt lat="46.0557" lon="7.03361">
        <ele>2217</ele>
        <time>2022-08-28T00:34:33Z</time>
      </trkpt>
      <trkpt lat="46.05568" lon="7.03362">
        <ele>2217</ele>
        <time>2022-08-28T00:34:35Z</time>
      </trkpt>
      <trkpt lat="46.05566" lon="7.03362">
        <ele>2217</ele>
        <time>2022-08-28T00:34:37Z</time>
      </trkpt>
      <trkpt lat="46.05563" lon="7.03362">
        <ele>2218</ele>
        <time>2022-08-28T00:34:40Z</time>
      </trkpt>
      <trkpt lat="46.05561" lon="7.03363">
        <ele>2218</ele>
        <time>2022-08-28T00:34:43Z</time>
      </trkpt>
      <trkpt lat="46.05558" lon="7.03363">
        <ele>2219</ele>
        <time>2022-08-28T00:34:46Z</time>
      </trkpt>
      <trkpt lat="46.05556" lon="7.03364">
        <ele>2219</ele>
        <time>2022-08-28T00:34:48Z</time>
      </trkpt>
      <trkpt lat="46.05553" lon="7.03364">
        <ele>2219</ele>
        <time>2022-08-28T00:34:51Z</time>
      </trkpt>
      <trkpt lat="46.05552" lon="7.03364">
        <ele>2219</ele>
        <time>2022-08-28T00:34:53Z</time>
      </trkpt>
      <trkpt lat="46.05549" lon="7.03364">
        <ele>2219</ele>
        <time>2022-08-28T00:34:55Z</time>
      </trkpt>
      <trkpt lat="46.05547" lon="7.03364">
        <ele>2219</ele>
        <time>2022-08-28T00:34:57Z</time>
      </trkpt>
      <trkpt lat="46.05545" lon="7.03366">
        <ele>2219</ele>
        <time>2022-08-28T00:34:59Z</time>
      </trkpt>
      <trkpt lat="46.05543" lon="7.03367">
        <ele>2219</ele>
        <time>2022-08-28T00:35:01Z</time>
      </trkpt>
      <trkpt lat="46.05541" lon="7.03369">
        <ele>2219</ele>
        <time>2022-08-28T00:35:03Z</time>
      </trkpt>
      <trkpt lat="46.05539" lon="7.0337">
        <ele>2219</ele>
        <time>2022-08-28T00:35:05Z</time>
      </trkpt>
      <trkpt lat="46.05537" lon="7.03371">
        <ele>2219</ele>
        <time>2022-08-28T00:35:07Z</time>
      </trkpt>
      <trkpt lat="46.05534" lon="7.03373">
        <ele>2219</ele>
        <time>2022-08-28T00:35:09Z</time>
      </trkpt>
      <trkpt lat="46.05532" lon="7.03373">
        <ele>2219</ele>
        <time>2022-08-28T00:35:11Z</time>
      </trkpt>
      <trkpt lat="46.05529" lon="7.03372">
        <ele>2219</ele>
        <time>2022-08-28T00:35:13Z</time>
      </trkpt>
      <trkpt lat="46.05527" lon="7.03371">
        <ele>2220</ele>
        <time>2022-08-28T00:35:15Z</time>
      </trkpt>
      <trkpt lat="46.05525" lon="7.03371">
        <ele>2220</ele>
        <time>2022-08-28T00:35:17Z</time>
      </trkpt>
      <trkpt lat="46.05523" lon="7.0337">
        <ele>2220</ele>
        <time>2022-08-28T00:35:19Z</time>
      </trkpt>
      <trkpt lat="46.05521" lon="7.03371">
        <ele>2222</ele>
        <time>2022-08-28T00:35:21Z</time>
      </trkpt>
      <trkpt lat="46.05519" lon="7.03372">
        <ele>2222</ele>
        <time>2022-08-28T00:35:23Z</time>
      </trkpt>
      <trkpt lat="46.05517" lon="7.03372">
        <ele>2222</ele>
        <time>2022-08-28T00:35:25Z</time>
      </trkpt>
      <trkpt lat="46.05515" lon="7.03373">
        <ele>2223</ele>
        <time>2022-08-28T00:35:28Z</time>
      </trkpt>
      <trkpt lat="46.05512" lon="7.03374">
        <ele>2224</ele>
        <time>2022-08-28T00:35:31Z</time>
      </trkpt>
      <trkpt lat="46.0551" lon="7.03375">
        <ele>2224</ele>
        <time>2022-08-28T00:35:35Z</time>
      </trkpt>
      <trkpt lat="46.05508" lon="7.03375">
        <ele>2225</ele>
        <time>2022-08-28T00:35:38Z</time>
      </trkpt>
      <trkpt lat="46.05506" lon="7.03372">
        <ele>2226</ele>
        <time>2022-08-28T00:35:41Z</time>
      </trkpt>
      <trkpt lat="46.05505" lon="7.03369">
        <ele>2226</ele>
        <time>2022-08-28T00:35:44Z</time>
      </trkpt>
      <trkpt lat="46.05504" lon="7.03366">
        <ele>2227</ele>
        <time>2022-08-28T00:35:47Z</time>
      </trkpt>
      <trkpt lat="46.05502" lon="7.03364">
        <ele>2227</ele>
        <time>2022-08-28T00:35:50Z</time>
      </trkpt>
      <trkpt lat="46.05501" lon="7.03361">
        <ele>2227</ele>
        <time>2022-08-28T00:35:52Z</time>
      </trkpt>
      <trkpt lat="46.055" lon="7.03359">
        <ele>2228</ele>
        <time>2022-08-28T00:35:54Z</time>
      </trkpt>
      <trkpt lat="46.05501" lon="7.03356">
        <ele>2228</ele>
        <time>2022-08-28T00:35:56Z</time>
      </trkpt>
      <trkpt lat="46.05502" lon="7.03354">
        <ele>2228</ele>
        <time>2022-08-28T00:36:01Z</time>
      </trkpt>
      <trkpt lat="46.05504" lon="7.03351">
        <ele>2227</ele>
        <time>2022-08-28T00:36:04Z</time>
      </trkpt>
      <trkpt lat="46.05505" lon="7.0335">
        <ele>2227</ele>
        <time>2022-08-28T00:36:06Z</time>
      </trkpt>
      <trkpt lat="46.05507" lon="7.0335">
        <ele>2227</ele>
        <time>2022-08-28T00:36:08Z</time>
      </trkpt>
      <trkpt lat="46.05509" lon="7.03352">
        <ele>2227</ele>
        <time>2022-08-28T00:36:12Z</time>
      </trkpt>
      <trkpt lat="46.0551" lon="7.03354">
        <ele>2226</ele>
        <time>2022-08-28T00:36:21Z</time>
      </trkpt>
      <trkpt lat="46.05511" lon="7.03354">
        <ele>2226</ele>
        <time>2022-08-28T00:36:23Z</time>
      </trkpt>
      <trkpt lat="46.05511" lon="7.03353">
        <ele>2226</ele>
        <time>2022-08-28T00:36:24Z</time>
      </trkpt>
      <trkpt lat="46.05511" lon="7.03352">
        <ele>2226</ele>
        <time>2022-08-28T00:36:25Z</time>
      </trkpt>
      <trkpt lat="46.05512" lon="7.03351">
        <ele>2226</ele>
        <time>2022-08-28T00:36:27Z</time>
      </trkpt>
      <trkpt lat="46.05512" lon="7.03351">
        <ele>2226</ele>
        <time>2022-08-28T00:36:28Z</time>
      </trkpt>
      <trkpt lat="46.05512" lon="7.0335">
        <ele>2226</ele>
        <time>2022-08-28T00:36:29Z</time>
      </trkpt>
      <trkpt lat="46.05513" lon="7.03349">
        <ele>2226</ele>
        <time>2022-08-28T00:36:30Z</time>
      </trkpt>
      <trkpt lat="46.05513" lon="7.03349">
        <ele>2226</ele>
        <time>2022-08-28T00:36:32Z</time>
      </trkpt>
      <trkpt lat="46.05513" lon="7.03348">
        <ele>2226</ele>
        <time>2022-08-28T00:36:33Z</time>
      </trkpt>
      <trkpt lat="46.05514" lon="7.03347">
        <ele>2226</ele>
        <time>2022-08-28T00:36:34Z</time>
      </trkpt>
      <trkpt lat="46.05514" lon="7.03346">
        <ele>2226</ele>
        <time>2022-08-28T00:36:35Z</time>
      </trkpt>
      <trkpt lat="46.05514" lon="7.03346">
        <ele>2226</ele>
        <time>2022-08-28T00:36:37Z</time>
      </trkpt>
      <trkpt lat="46.05515" lon="7.03345">
        <ele>2226</ele>
        <time>2022-08-28T00:36:38Z</time>
      </trkpt>
      <trkpt lat="46.05515" lon="7.03344">
        <ele>2226</ele>
        <time>2022-08-28T00:36:39Z</time>
      </trkpt>
      <trkpt lat="46.05515" lon="7.03344">
        <ele>2226</ele>
        <time>2022-08-28T00:36:40Z</time>
      </trkpt>
      <trkpt lat="46.05516" lon="7.03343">
        <ele>2226</ele>
        <time>2022-08-28T00:36:42Z</time>
      </trkpt>
      <trkpt lat="46.05516" lon="7.03342">
        <ele>2226</ele>
        <time>2022-08-28T00:36:43Z</time>
      </trkpt>
      <trkpt lat="46.05517" lon="7.0334">
        <ele>2226</ele>
        <time>2022-08-28T00:37:00Z</time>
      </trkpt>
      <trkpt lat="46.05517" lon="7.0334">
        <ele>2226</ele>
        <time>2022-08-28T00:37:01Z</time>
      </trkpt>
      <trkpt lat="46.05519" lon="7.03337">
        <ele>2226</ele>
        <time>2022-08-28T00:37:08Z</time>
      </trkpt>
      <trkpt lat="46.05519" lon="7.03334">
        <ele>2225</ele>
        <time>2022-08-28T00:37:10Z</time>
      </trkpt>
      <trkpt lat="46.05521" lon="7.03332">
        <ele>2225</ele>
        <time>2022-08-28T00:37:12Z</time>
      </trkpt>
      <trkpt lat="46.05522" lon="7.03328">
        <ele>2224</ele>
        <time>2022-08-28T00:37:14Z</time>
      </trkpt>
      <trkpt lat="46.05524" lon="7.03326">
        <ele>2223</ele>
        <time>2022-08-28T00:37:16Z</time>
      </trkpt>
      <trkpt lat="46.05527" lon="7.03324">
        <ele>2222</ele>
        <time>2022-08-28T00:37:18Z</time>
      </trkpt>
      <trkpt lat="46.05529" lon="7.03325">
        <ele>2222</ele>
        <time>2022-08-28T00:37:23Z</time>
      </trkpt>
      <trkpt lat="46.05531" lon="7.03323">
        <ele>2222</ele>
        <time>2022-08-28T00:37:26Z</time>
      </trkpt>
      <trkpt lat="46.05533" lon="7.03321">
        <ele>2222</ele>
        <time>2022-08-28T00:37:28Z</time>
      </trkpt>
      <trkpt lat="46.05535" lon="7.0332">
        <ele>2222</ele>
        <time>2022-08-28T00:37:30Z</time>
      </trkpt>
      <trkpt lat="46.05537" lon="7.03319">
        <ele>2220</ele>
        <time>2022-08-28T00:37:32Z</time>
      </trkpt>
      <trkpt lat="46.0554" lon="7.03318">
        <ele>2220</ele>
        <time>2022-08-28T00:37:34Z</time>
      </trkpt>
      <trkpt lat="46.05542" lon="7.03316">
        <ele>2220</ele>
        <time>2022-08-28T00:37:36Z</time>
      </trkpt>
      <trkpt lat="46.05544" lon="7.03313">
        <ele>2220</ele>
        <time>2022-08-28T00:37:38Z</time>
      </trkpt>
      <trkpt lat="46.05545" lon="7.0331">
        <ele>2220</ele>
        <time>2022-08-28T00:37:40Z</time>
      </trkpt>
      <trkpt lat="46.05547" lon="7.03308">
        <ele>2222</ele>
        <time>2022-08-28T00:37:42Z</time>
      </trkpt>
      <trkpt lat="46.05549" lon="7.03307">
        <ele>2222</ele>
        <time>2022-08-28T00:37:44Z</time>
      </trkpt>
      <trkpt lat="46.05552" lon="7.03306">
        <ele>2222</ele>
        <time>2022-08-28T00:37:46Z</time>
      </trkpt>
      <trkpt lat="46.05554" lon="7.03306">
        <ele>2222</ele>
        <time>2022-08-28T00:37:47Z</time>
      </trkpt>
      <trkpt lat="46.05556" lon="7.03306">
        <ele>2222</ele>
        <time>2022-08-28T00:37:48Z</time>
      </trkpt>
      <trkpt lat="46.05557" lon="7.03306">
        <ele>2222</ele>
        <time>2022-08-28T00:37:49Z</time>
      </trkpt>
      <trkpt lat="46.0556" lon="7.03306">
        <ele>2222</ele>
        <time>2022-08-28T00:37:51Z</time>
      </trkpt>
      <trkpt lat="46.05562" lon="7.03305">
        <ele>2220</ele>
        <time>2022-08-28T00:37:53Z</time>
      </trkpt>
      <trkpt lat="46.05565" lon="7.03304">
        <ele>2220</ele>
        <time>2022-08-28T00:37:55Z</time>
      </trkpt>
      <trkpt lat="46.05567" lon="7.03302">
        <ele>2220</ele>
        <time>2022-08-28T00:37:57Z</time>
      </trkpt>
      <trkpt lat="46.05569" lon="7.03301">
        <ele>2220</ele>
        <time>2022-08-28T00:37:59Z</time>
      </trkpt>
      <trkpt lat="46.05571" lon="7.03298">
        <ele>2220</ele>
        <time>2022-08-28T00:38:01Z</time>
      </trkpt>
      <trkpt lat="46.05573" lon="7.03295">
        <ele>2220</ele>
        <time>2022-08-28T00:38:03Z</time>
      </trkpt>
      <trkpt lat="46.05574" lon="7.03292">
        <ele>2222</ele>
        <time>2022-08-28T00:38:05Z</time>
      </trkpt>
      <trkpt lat="46.05575" lon="7.03288">
        <ele>2222</ele>
        <time>2022-08-28T00:38:07Z</time>
      </trkpt>
      <trkpt lat="46.05576" lon="7.03284">
        <ele>2222</ele>
        <time>2022-08-28T00:38:09Z</time>
      </trkpt>
      <trkpt lat="46.05577" lon="7.0328">
        <ele>2220</ele>
        <time>2022-08-28T00:38:11Z</time>
      </trkpt>
      <trkpt lat="46.05578" lon="7.03276">
        <ele>2220</ele>
        <time>2022-08-28T00:38:13Z</time>
      </trkpt>
      <trkpt lat="46.0558" lon="7.03273">
        <ele>2220</ele>
        <time>2022-08-28T00:38:15Z</time>
      </trkpt>
      <trkpt lat="46.05582" lon="7.0327">
        <ele>2220</ele>
        <time>2022-08-28T00:38:17Z</time>
      </trkpt>
      <trkpt lat="46.05583" lon="7.03268">
        <ele>2220</ele>
        <time>2022-08-28T00:38:19Z</time>
      </trkpt>
      <trkpt lat="46.05585" lon="7.03265">
        <ele>2219</ele>
        <time>2022-08-28T00:38:21Z</time>
      </trkpt>
      <trkpt lat="46.05587" lon="7.03263">
        <ele>2219</ele>
        <time>2022-08-28T00:38:23Z</time>
      </trkpt>
      <trkpt lat="46.0559" lon="7.03263">
        <ele>2219</ele>
        <time>2022-08-28T00:38:25Z</time>
      </trkpt>
      <trkpt lat="46.05592" lon="7.03263">
        <ele>2218</ele>
        <time>2022-08-28T00:38:27Z</time>
      </trkpt>
      <trkpt lat="46.05594" lon="7.03261">
        <ele>2218</ele>
        <time>2022-08-28T00:38:29Z</time>
      </trkpt>
      <trkpt lat="46.05596" lon="7.03258">
        <ele>2218</ele>
        <time>2022-08-28T00:38:31Z</time>
      </trkpt>
      <trkpt lat="46.05597" lon="7.03255">
        <ele>2218</ele>
        <time>2022-08-28T00:38:33Z</time>
      </trkpt>
      <trkpt lat="46.05598" lon="7.03251">
        <ele>2217</ele>
        <time>2022-08-28T00:38:35Z</time>
      </trkpt>
      <trkpt lat="46.056" lon="7.03248">
        <ele>2216</ele>
        <time>2022-08-28T00:38:37Z</time>
      </trkpt>
      <trkpt lat="46.05601" lon="7.03245">
        <ele>2216</ele>
        <time>2022-08-28T00:38:39Z</time>
      </trkpt>
      <trkpt lat="46.05602" lon="7.03241">
        <ele>2216</ele>
        <time>2022-08-28T00:38:41Z</time>
      </trkpt>
      <trkpt lat="46.05604" lon="7.03238">
        <ele>2215</ele>
        <time>2022-08-28T00:38:43Z</time>
      </trkpt>
      <trkpt lat="46.05605" lon="7.03235">
        <ele>2215</ele>
        <time>2022-08-28T00:38:45Z</time>
      </trkpt>
      <trkpt lat="46.05607" lon="7.03232">
        <ele>2215</ele>
        <time>2022-08-28T00:38:47Z</time>
      </trkpt>
      <trkpt lat="46.05608" lon="7.03229">
        <ele>2215</ele>
        <time>2022-08-28T00:38:49Z</time>
      </trkpt>
      <trkpt lat="46.05609" lon="7.03226">
        <ele>2214</ele>
        <time>2022-08-28T00:38:51Z</time>
      </trkpt>
      <trkpt lat="46.0561" lon="7.03222">
        <ele>2214</ele>
        <time>2022-08-28T00:38:53Z</time>
      </trkpt>
      <trkpt lat="46.05612" lon="7.03219">
        <ele>2213</ele>
        <time>2022-08-28T00:38:55Z</time>
      </trkpt>
      <trkpt lat="46.05614" lon="7.03216">
        <ele>2213</ele>
        <time>2022-08-28T00:38:57Z</time>
      </trkpt>
      <trkpt lat="46.05616" lon="7.03214">
        <ele>2213</ele>
        <time>2022-08-28T00:38:59Z</time>
      </trkpt>
      <trkpt lat="46.05617" lon="7.03212">
        <ele>2213</ele>
        <time>2022-08-28T00:39:01Z</time>
      </trkpt>
      <trkpt lat="46.05618" lon="7.03209">
        <ele>2212</ele>
        <time>2022-08-28T00:39:03Z</time>
      </trkpt>
      <trkpt lat="46.05619" lon="7.03207">
        <ele>2211</ele>
        <time>2022-08-28T00:39:05Z</time>
      </trkpt>
      <trkpt lat="46.0562" lon="7.03204">
        <ele>2210</ele>
        <time>2022-08-28T00:39:07Z</time>
      </trkpt>
      <trkpt lat="46.05621" lon="7.03201">
        <ele>2210</ele>
        <time>2022-08-28T00:39:09Z</time>
      </trkpt>
      <trkpt lat="46.05622" lon="7.03199">
        <ele>2210</ele>
        <time>2022-08-28T00:39:11Z</time>
      </trkpt>
      <trkpt lat="46.05624" lon="7.03197">
        <ele>2210</ele>
        <time>2022-08-28T00:39:13Z</time>
      </trkpt>
      <trkpt lat="46.05625" lon="7.03194">
        <ele>2209</ele>
        <time>2022-08-28T00:39:15Z</time>
      </trkpt>
      <trkpt lat="46.05626" lon="7.03192">
        <ele>2209</ele>
        <time>2022-08-28T00:39:17Z</time>
      </trkpt>
      <trkpt lat="46.05627" lon="7.03189">
        <ele>2208</ele>
        <time>2022-08-28T00:39:19Z</time>
      </trkpt>
      <trkpt lat="46.05628" lon="7.03186">
        <ele>2208</ele>
        <time>2022-08-28T00:39:21Z</time>
      </trkpt>
      <trkpt lat="46.0563" lon="7.03183">
        <ele>2208</ele>
        <time>2022-08-28T00:39:23Z</time>
      </trkpt>
      <trkpt lat="46.05632" lon="7.03179">
        <ele>2207</ele>
        <time>2022-08-28T00:39:25Z</time>
      </trkpt>
      <trkpt lat="46.05633" lon="7.03176">
        <ele>2206</ele>
        <time>2022-08-28T00:39:27Z</time>
      </trkpt>
      <trkpt lat="46.05634" lon="7.03173">
        <ele>2205</ele>
        <time>2022-08-28T00:39:29Z</time>
      </trkpt>
      <trkpt lat="46.05636" lon="7.0317">
        <ele>2205</ele>
        <time>2022-08-28T00:39:31Z</time>
      </trkpt>
      <trkpt lat="46.05637" lon="7.03166">
        <ele>2205</ele>
        <time>2022-08-28T00:39:33Z</time>
      </trkpt>
      <trkpt lat="46.05637" lon="7.03162">
        <ele>2204</ele>
        <time>2022-08-28T00:39:35Z</time>
      </trkpt>
      <trkpt lat="46.05638" lon="7.03158">
        <ele>2204</ele>
        <time>2022-08-28T00:39:37Z</time>
      </trkpt>
      <trkpt lat="46.05639" lon="7.03155">
        <ele>2204</ele>
        <time>2022-08-28T00:39:40Z</time>
      </trkpt>
      <trkpt lat="46.0564" lon="7.03153">
        <ele>2203</ele>
        <time>2022-08-28T00:39:42Z</time>
      </trkpt>
      <trkpt lat="46.05642" lon="7.03151">
        <ele>2203</ele>
        <time>2022-08-28T00:39:44Z</time>
      </trkpt>
      <trkpt lat="46.05644" lon="7.03149">
        <ele>2202</ele>
        <time>2022-08-28T00:39:46Z</time>
      </trkpt>
      <trkpt lat="46.05646" lon="7.03147">
        <ele>2202</ele>
        <time>2022-08-28T00:39:48Z</time>
      </trkpt>
      <trkpt lat="46.05647" lon="7.03144">
        <ele>2201</ele>
        <time>2022-08-28T00:39:50Z</time>
      </trkpt>
      <trkpt lat="46.05648" lon="7.03143">
        <ele>2201</ele>
        <time>2022-08-28T00:39:52Z</time>
      </trkpt>
      <trkpt lat="46.0565" lon="7.03139">
        <ele>2200</ele>
        <time>2022-08-28T00:39:55Z</time>
      </trkpt>
      <trkpt lat="46.05652" lon="7.03137">
        <ele>2200</ele>
        <time>2022-08-28T00:39:57Z</time>
      </trkpt>
      <trkpt lat="46.05653" lon="7.03135">
        <ele>2199</ele>
        <time>2022-08-28T00:39:59Z</time>
      </trkpt>
      <trkpt lat="46.05654" lon="7.03132">
        <ele>2198</ele>
        <time>2022-08-28T00:40:02Z</time>
      </trkpt>
      <trkpt lat="46.05654" lon="7.03129">
        <ele>2197</ele>
        <time>2022-08-28T00:40:04Z</time>
      </trkpt>
      <trkpt lat="46.05654" lon="7.03127">
        <ele>2197</ele>
        <time>2022-08-28T00:40:06Z</time>
      </trkpt>
      <trkpt lat="46.05654" lon="7.03124">
        <ele>2197</ele>
        <time>2022-08-28T00:40:08Z</time>
      </trkpt>
      <trkpt lat="46.05654" lon="7.03121">
        <ele>2197</ele>
        <time>2022-08-28T00:40:10Z</time>
      </trkpt>
      <trkpt lat="46.05654" lon="7.03117">
        <ele>2196</ele>
        <time>2022-08-28T00:40:12Z</time>
      </trkpt>
      <trkpt lat="46.05654" lon="7.03112">
        <ele>2194</ele>
        <time>2022-08-28T00:40:14Z</time>
      </trkpt>
      <trkpt lat="46.05655" lon="7.03108">
        <ele>2194</ele>
        <time>2022-08-28T00:40:16Z</time>
      </trkpt>
      <trkpt lat="46.05656" lon="7.03103">
        <ele>2194</ele>
        <time>2022-08-28T00:40:18Z</time>
      </trkpt>
      <trkpt lat="46.05658" lon="7.03099">
        <ele>2194</ele>
        <time>2022-08-28T00:40:20Z</time>
      </trkpt>
      <trkpt lat="46.0566" lon="7.03095">
        <ele>2194</ele>
        <time>2022-08-28T00:40:22Z</time>
      </trkpt>
      <trkpt lat="46.05661" lon="7.03091">
        <ele>2194</ele>
        <time>2022-08-28T00:40:24Z</time>
      </trkpt>
      <trkpt lat="46.05662" lon="7.03088">
        <ele>2194</ele>
        <time>2022-08-28T00:40:26Z</time>
      </trkpt>
      <trkpt lat="46.05663" lon="7.03084">
        <ele>2194</ele>
        <time>2022-08-28T00:40:28Z</time>
      </trkpt>
      <trkpt lat="46.05664" lon="7.0308">
        <ele>2194</ele>
        <time>2022-08-28T00:40:30Z</time>
      </trkpt>
      <trkpt lat="46.05665" lon="7.03077">
        <ele>2194</ele>
        <time>2022-08-28T00:40:32Z</time>
      </trkpt>
      <trkpt lat="46.05666" lon="7.03073">
        <ele>2194</ele>
        <time>2022-08-28T00:40:34Z</time>
      </trkpt>
      <trkpt lat="46.05667" lon="7.0307">
        <ele>2193</ele>
        <time>2022-08-28T00:40:36Z</time>
      </trkpt>
      <trkpt lat="46.05668" lon="7.03067">
        <ele>2193</ele>
        <time>2022-08-28T00:40:38Z</time>
      </trkpt>
      <trkpt lat="46.05669" lon="7.03064">
        <ele>2193</ele>
        <time>2022-08-28T00:40:40Z</time>
      </trkpt>
      <trkpt lat="46.05671" lon="7.03061">
        <ele>2193</ele>
        <time>2022-08-28T00:40:42Z</time>
      </trkpt>
      <trkpt lat="46.05672" lon="7.03058">
        <ele>2193</ele>
        <time>2022-08-28T00:40:44Z</time>
      </trkpt>
      <trkpt lat="46.05674" lon="7.03054">
        <ele>2193</ele>
        <time>2022-08-28T00:40:46Z</time>
      </trkpt>
      <trkpt lat="46.05675" lon="7.0305">
        <ele>2193</ele>
        <time>2022-08-28T00:40:48Z</time>
      </trkpt>
      <trkpt lat="46.05678" lon="7.03046">
        <ele>2193</ele>
        <time>2022-08-28T00:40:50Z</time>
      </trkpt>
      <trkpt lat="46.0568" lon="7.03044">
        <ele>2192</ele>
        <time>2022-08-28T00:40:52Z</time>
      </trkpt>
      <trkpt lat="46.05682" lon="7.03041">
        <ele>2192</ele>
        <time>2022-08-28T00:40:54Z</time>
      </trkpt>
      <trkpt lat="46.05683" lon="7.03039">
        <ele>2192</ele>
        <time>2022-08-28T00:40:56Z</time>
      </trkpt>
      <trkpt lat="46.05684" lon="7.03036">
        <ele>2192</ele>
        <time>2022-08-28T00:40:58Z</time>
      </trkpt>
      <trkpt lat="46.05686" lon="7.03034">
        <ele>2192</ele>
        <time>2022-08-28T00:41:00Z</time>
      </trkpt>
      <trkpt lat="46.05688" lon="7.03032">
        <ele>2191</ele>
        <time>2022-08-28T00:41:02Z</time>
      </trkpt>
      <trkpt lat="46.0569" lon="7.0303">
        <ele>2191</ele>
        <time>2022-08-28T00:41:04Z</time>
      </trkpt>
      <trkpt lat="46.05691" lon="7.03027">
        <ele>2191</ele>
        <time>2022-08-28T00:41:06Z</time>
      </trkpt>
      <trkpt lat="46.05693" lon="7.03023">
        <ele>2191</ele>
        <time>2022-08-28T00:41:08Z</time>
      </trkpt>
      <trkpt lat="46.05695" lon="7.0302">
        <ele>2191</ele>
        <time>2022-08-28T00:41:10Z</time>
      </trkpt>
      <trkpt lat="46.05697" lon="7.03016">
        <ele>2190</ele>
        <time>2022-08-28T00:41:12Z</time>
      </trkpt>
      <trkpt lat="46.05699" lon="7.03013">
        <ele>2190</ele>
        <time>2022-08-28T00:41:14Z</time>
      </trkpt>
      <trkpt lat="46.05701" lon="7.0301">
        <ele>2190</ele>
        <time>2022-08-28T00:41:16Z</time>
      </trkpt>
      <trkpt lat="46.05703" lon="7.03008">
        <ele>2190</ele>
        <time>2022-08-28T00:41:18Z</time>
      </trkpt>
      <trkpt lat="46.05706" lon="7.03007">
        <ele>2190</ele>
        <time>2022-08-28T00:41:20Z</time>
      </trkpt>
      <trkpt lat="46.05708" lon="7.03004">
        <ele>2190</ele>
        <time>2022-08-28T00:41:22Z</time>
      </trkpt>
      <trkpt lat="46.0571" lon="7.03002">
        <ele>2190</ele>
        <time>2022-08-28T00:41:24Z</time>
      </trkpt>
      <trkpt lat="46.05712" lon="7.02999">
        <ele>2189</ele>
        <time>2022-08-28T00:41:26Z</time>
      </trkpt>
      <trkpt lat="46.05714" lon="7.02996">
        <ele>2188</ele>
        <time>2022-08-28T00:41:28Z</time>
      </trkpt>
      <trkpt lat="46.05715" lon="7.02995">
        <ele>2188</ele>
        <time>2022-08-28T00:41:30Z</time>
      </trkpt>
      <trkpt lat="46.05717" lon="7.02993">
        <ele>2188</ele>
        <time>2022-08-28T00:41:32Z</time>
      </trkpt>
      <trkpt lat="46.05719" lon="7.02992">
        <ele>2188</ele>
        <time>2022-08-28T00:41:35Z</time>
      </trkpt>
      <trkpt lat="46.05721" lon="7.02989">
        <ele>2188</ele>
        <time>2022-08-28T00:41:37Z</time>
      </trkpt>
      <trkpt lat="46.05722" lon="7.02988">
        <ele>2188</ele>
        <time>2022-08-28T00:41:39Z</time>
      </trkpt>
      <trkpt lat="46.05724" lon="7.02986">
        <ele>2187</ele>
        <time>2022-08-28T00:41:41Z</time>
      </trkpt>
      <trkpt lat="46.05726" lon="7.02986">
        <ele>2186</ele>
        <time>2022-08-28T00:41:43Z</time>
      </trkpt>
      <trkpt lat="46.05728" lon="7.02984">
        <ele>2186</ele>
        <time>2022-08-28T00:41:47Z</time>
      </trkpt>
      <trkpt lat="46.05729" lon="7.02981">
        <ele>2185</ele>
        <time>2022-08-28T00:41:50Z</time>
      </trkpt>
      <trkpt lat="46.05729" lon="7.02978">
        <ele>2185</ele>
        <time>2022-08-28T00:41:52Z</time>
      </trkpt>
      <trkpt lat="46.0573" lon="7.02975">
        <ele>2184</ele>
        <time>2022-08-28T00:41:54Z</time>
      </trkpt>
      <trkpt lat="46.05733" lon="7.02973">
        <ele>2184</ele>
        <time>2022-08-28T00:41:56Z</time>
      </trkpt>
      <trkpt lat="46.05735" lon="7.02971">
        <ele>2183</ele>
        <time>2022-08-28T00:41:58Z</time>
      </trkpt>
      <trkpt lat="46.05737" lon="7.02969">
        <ele>2183</ele>
        <time>2022-08-28T00:42:00Z</time>
      </trkpt>
      <trkpt lat="46.05739" lon="7.02968">
        <ele>2183</ele>
        <time>2022-08-28T00:42:02Z</time>
      </trkpt>
      <trkpt lat="46.05742" lon="7.02968">
        <ele>2183</ele>
        <time>2022-08-28T00:42:04Z</time>
      </trkpt>
      <trkpt lat="46.05744" lon="7.02968">
        <ele>2183</ele>
        <time>2022-08-28T00:42:06Z</time>
      </trkpt>
      <trkpt lat="46.05746" lon="7.02968">
        <ele>2183</ele>
        <time>2022-08-28T00:42:08Z</time>
      </trkpt>
      <trkpt lat="46.05748" lon="7.02965">
        <ele>2182</ele>
        <time>2022-08-28T00:42:11Z</time>
      </trkpt>
      <trkpt lat="46.0575" lon="7.02963">
        <ele>2182</ele>
        <time>2022-08-28T00:42:13Z</time>
      </trkpt>
      <trkpt lat="46.05751" lon="7.02961">
        <ele>2182</ele>
        <time>2022-08-28T00:42:15Z</time>
      </trkpt>
      <trkpt lat="46.05754" lon="7.02958">
        <ele>2181</ele>
        <time>2022-08-28T00:42:17Z</time>
      </trkpt>
      <trkpt lat="46.05756" lon="7.02956">
        <ele>2181</ele>
        <time>2022-08-28T00:42:19Z</time>
      </trkpt>
      <trkpt lat="46.05758" lon="7.02955">
        <ele>2181</ele>
        <time>2022-08-28T00:42:21Z</time>
      </trkpt>
      <trkpt lat="46.0576" lon="7.02953">
        <ele>2181</ele>
        <time>2022-08-28T00:42:23Z</time>
      </trkpt>
      <trkpt lat="46.05762" lon="7.02952">
        <ele>2181</ele>
        <time>2022-08-28T00:42:25Z</time>
      </trkpt>
      <trkpt lat="46.05764" lon="7.02951">
        <ele>2180</ele>
        <time>2022-08-28T00:42:27Z</time>
      </trkpt>
      <trkpt lat="46.05767" lon="7.02951">
        <ele>2179</ele>
        <time>2022-08-28T00:42:29Z</time>
      </trkpt>
      <trkpt lat="46.05769" lon="7.02951">
        <ele>2179</ele>
        <time>2022-08-28T00:42:31Z</time>
      </trkpt>
      <trkpt lat="46.05771" lon="7.02951">
        <ele>2179</ele>
        <time>2022-08-28T00:42:33Z</time>
      </trkpt>
      <trkpt lat="46.05772" lon="7.02948">
        <ele>2178</ele>
        <time>2022-08-28T00:42:36Z</time>
      </trkpt>
      <trkpt lat="46.05774" lon="7.02946">
        <ele>2178</ele>
        <time>2022-08-28T00:42:38Z</time>
      </trkpt>
      <trkpt lat="46.05775" lon="7.02945">
        <ele>2178</ele>
        <time>2022-08-28T00:42:40Z</time>
      </trkpt>
      <trkpt lat="46.05777" lon="7.02943">
        <ele>2178</ele>
        <time>2022-08-28T00:42:42Z</time>
      </trkpt>
      <trkpt lat="46.05779" lon="7.02942">
        <ele>2178</ele>
        <time>2022-08-28T00:42:44Z</time>
      </trkpt>
      <trkpt lat="46.05781" lon="7.0294">
        <ele>2177</ele>
        <time>2022-08-28T00:42:46Z</time>
      </trkpt>
      <trkpt lat="46.05783" lon="7.02938">
        <ele>2177</ele>
        <time>2022-08-28T00:42:49Z</time>
      </trkpt>
      <trkpt lat="46.05786" lon="7.02937">
        <ele>2177</ele>
        <time>2022-08-28T00:42:51Z</time>
      </trkpt>
      <trkpt lat="46.05789" lon="7.02936">
        <ele>2177</ele>
        <time>2022-08-28T00:42:53Z</time>
      </trkpt>
      <trkpt lat="46.05792" lon="7.02935">
        <ele>2177</ele>
        <time>2022-08-28T00:42:55Z</time>
      </trkpt>
      <trkpt lat="46.05795" lon="7.02934">
        <ele>2177</ele>
        <time>2022-08-28T00:42:57Z</time>
      </trkpt>
      <trkpt lat="46.05799" lon="7.02934">
        <ele>2177</ele>
        <time>2022-08-28T00:42:59Z</time>
      </trkpt>
      <trkpt lat="46.05801" lon="7.02933">
        <ele>2177</ele>
        <time>2022-08-28T00:43:01Z</time>
      </trkpt>
      <trkpt lat="46.05804" lon="7.02933">
        <ele>2177</ele>
        <time>2022-08-28T00:43:03Z</time>
      </trkpt>
      <trkpt lat="46.05806" lon="7.02932">
        <ele>2177</ele>
        <time>2022-08-28T00:43:05Z</time>
      </trkpt>
      <trkpt lat="46.05809" lon="7.02932">
        <ele>2177</ele>
        <time>2022-08-28T00:43:07Z</time>
      </trkpt>
      <trkpt lat="46.05812" lon="7.02929">
        <ele>2177</ele>
        <time>2022-08-28T00:43:09Z</time>
      </trkpt>
      <trkpt lat="46.05815" lon="7.02927">
        <ele>2177</ele>
        <time>2022-08-28T00:43:11Z</time>
      </trkpt>
      <trkpt lat="46.05817" lon="7.02925">
        <ele>2178</ele>
        <time>2022-08-28T00:43:13Z</time>
      </trkpt>
      <trkpt lat="46.05818" lon="7.02923">
        <ele>2178</ele>
        <time>2022-08-28T00:43:15Z</time>
      </trkpt>
      <trkpt lat="46.0582" lon="7.02921">
        <ele>2178</ele>
        <time>2022-08-28T00:43:17Z</time>
      </trkpt>
      <trkpt lat="46.0582" lon="7.02918">
        <ele>2178</ele>
        <time>2022-08-28T00:43:19Z</time>
      </trkpt>
      <trkpt lat="46.05822" lon="7.02914">
        <ele>2178</ele>
        <time>2022-08-28T00:43:21Z</time>
      </trkpt>
      <trkpt lat="46.05823" lon="7.0291">
        <ele>2178</ele>
        <time>2022-08-28T00:43:23Z</time>
      </trkpt>
      <trkpt lat="46.05823" lon="7.02906">
        <ele>2178</ele>
        <time>2022-08-28T00:43:25Z</time>
      </trkpt>
      <trkpt lat="46.05824" lon="7.02902">
        <ele>2178</ele>
        <time>2022-08-28T00:43:27Z</time>
      </trkpt>
      <trkpt lat="46.05825" lon="7.02899">
        <ele>2178</ele>
        <time>2022-08-28T00:43:29Z</time>
      </trkpt>
      <trkpt lat="46.05825" lon="7.02895">
        <ele>2178</ele>
        <time>2022-08-28T00:43:31Z</time>
      </trkpt>
      <trkpt lat="46.05825" lon="7.02891">
        <ele>2177</ele>
        <time>2022-08-28T00:43:33Z</time>
      </trkpt>
      <trkpt lat="46.05826" lon="7.02886">
        <ele>2177</ele>
        <time>2022-08-28T00:43:35Z</time>
      </trkpt>
      <trkpt lat="46.05827" lon="7.02882">
        <ele>2177</ele>
        <time>2022-08-28T00:43:37Z</time>
      </trkpt>
      <trkpt lat="46.05828" lon="7.02878">
        <ele>2177</ele>
        <time>2022-08-28T00:43:39Z</time>
      </trkpt>
      <trkpt lat="46.05829" lon="7.02874">
        <ele>2177</ele>
        <time>2022-08-28T00:43:41Z</time>
      </trkpt>
      <trkpt lat="46.0583" lon="7.02869">
        <ele>2177</ele>
        <time>2022-08-28T00:43:43Z</time>
      </trkpt>
      <trkpt lat="46.05831" lon="7.02866">
        <ele>2177</ele>
        <time>2022-08-28T00:43:45Z</time>
      </trkpt>
      <trkpt lat="46.05831" lon="7.02862">
        <ele>2177</ele>
        <time>2022-08-28T00:43:47Z</time>
      </trkpt>
      <trkpt lat="46.05832" lon="7.02858">
        <ele>2177</ele>
        <time>2022-08-28T00:43:49Z</time>
      </trkpt>
      <trkpt lat="46.05833" lon="7.02854">
        <ele>2177</ele>
        <time>2022-08-28T00:43:51Z</time>
      </trkpt>
      <trkpt lat="46.05833" lon="7.0285">
        <ele>2176</ele>
        <time>2022-08-28T00:43:53Z</time>
      </trkpt>
      <trkpt lat="46.05834" lon="7.02846">
        <ele>2176</ele>
        <time>2022-08-28T00:43:55Z</time>
      </trkpt>
      <trkpt lat="46.05835" lon="7.02844">
        <ele>2176</ele>
        <time>2022-08-28T00:43:57Z</time>
      </trkpt>
      <trkpt lat="46.05836" lon="7.02841">
        <ele>2176</ele>
        <time>2022-08-28T00:43:59Z</time>
      </trkpt>
      <trkpt lat="46.05837" lon="7.02838">
        <ele>2175</ele>
        <time>2022-08-28T00:44:01Z</time>
      </trkpt>
      <trkpt lat="46.05839" lon="7.02835">
        <ele>2175</ele>
        <time>2022-08-28T00:44:03Z</time>
      </trkpt>
      <trkpt lat="46.05839" lon="7.02832">
        <ele>2174</ele>
        <time>2022-08-28T00:44:05Z</time>
      </trkpt>
      <trkpt lat="46.0584" lon="7.02829">
        <ele>2173</ele>
        <time>2022-08-28T00:44:07Z</time>
      </trkpt>
      <trkpt lat="46.05841" lon="7.02826">
        <ele>2173</ele>
        <time>2022-08-28T00:44:09Z</time>
      </trkpt>
      <trkpt lat="46.05842" lon="7.02822">
        <ele>2173</ele>
        <time>2022-08-28T00:44:11Z</time>
      </trkpt>
      <trkpt lat="46.05842" lon="7.0282">
        <ele>2173</ele>
        <time>2022-08-28T00:44:13Z</time>
      </trkpt>
      <trkpt lat="46.05842" lon="7.02816">
        <ele>2172</ele>
        <time>2022-08-28T00:44:15Z</time>
      </trkpt>
      <trkpt lat="46.05843" lon="7.02814">
        <ele>2172</ele>
        <time>2022-08-28T00:44:17Z</time>
      </trkpt>
      <trkpt lat="46.05843" lon="7.0281">
        <ele>2171</ele>
        <time>2022-08-28T00:44:19Z</time>
      </trkpt>
      <trkpt lat="46.05844" lon="7.02807">
        <ele>2170</ele>
        <time>2022-08-28T00:44:21Z</time>
      </trkpt>
      <trkpt lat="46.05845" lon="7.02803">
        <ele>2170</ele>
        <time>2022-08-28T00:44:23Z</time>
      </trkpt>
      <trkpt lat="46.05845" lon="7.028">
        <ele>2168</ele>
        <time>2022-08-28T00:44:25Z</time>
      </trkpt>
      <trkpt lat="46.05845" lon="7.02796">
        <ele>2168</ele>
        <time>2022-08-28T00:44:27Z</time>
      </trkpt>
      <trkpt lat="46.05845" lon="7.02793">
        <ele>2168</ele>
        <time>2022-08-28T00:44:29Z</time>
      </trkpt>
      <trkpt lat="46.05845" lon="7.02791">
        <ele>2167</ele>
        <time>2022-08-28T00:44:31Z</time>
      </trkpt>
      <trkpt lat="46.05844" lon="7.02788">
        <ele>2167</ele>
        <time>2022-08-28T00:44:33Z</time>
      </trkpt>
      <trkpt lat="46.05844" lon="7.02785">
        <ele>2166</ele>
        <time>2022-08-28T00:44:35Z</time>
      </trkpt>
      <trkpt lat="46.05844" lon="7.02782">
        <ele>2165</ele>
        <time>2022-08-28T00:44:37Z</time>
      </trkpt>
      <trkpt lat="46.05844" lon="7.02779">
        <ele>2165</ele>
        <time>2022-08-28T00:44:39Z</time>
      </trkpt>
      <trkpt lat="46.05845" lon="7.02776">
        <ele>2164</ele>
        <time>2022-08-28T00:44:41Z</time>
      </trkpt>
      <trkpt lat="46.05846" lon="7.02772">
        <ele>2164</ele>
        <time>2022-08-28T00:44:43Z</time>
      </trkpt>
      <trkpt lat="46.05847" lon="7.02769">
        <ele>2163</ele>
        <time>2022-08-28T00:44:45Z</time>
      </trkpt>
      <trkpt lat="46.05846" lon="7.02766">
        <ele>2163</ele>
        <time>2022-08-28T00:44:47Z</time>
      </trkpt>
      <trkpt lat="46.05846" lon="7.02762">
        <ele>2161</ele>
        <time>2022-08-28T00:44:49Z</time>
      </trkpt>
      <trkpt lat="46.05847" lon="7.02759">
        <ele>2161</ele>
        <time>2022-08-28T00:44:51Z</time>
      </trkpt>
      <trkpt lat="46.05848" lon="7.02756">
        <ele>2161</ele>
        <time>2022-08-28T00:44:53Z</time>
      </trkpt>
      <trkpt lat="46.05848" lon="7.02753">
        <ele>2161</ele>
        <time>2022-08-28T00:44:55Z</time>
      </trkpt>
      <trkpt lat="46.05848" lon="7.0275">
        <ele>2160</ele>
        <time>2022-08-28T00:44:57Z</time>
      </trkpt>
      <trkpt lat="46.05848" lon="7.02747">
        <ele>2160</ele>
        <time>2022-08-28T00:44:59Z</time>
      </trkpt>
      <trkpt lat="46.05848" lon="7.02744">
        <ele>2160</ele>
        <time>2022-08-28T00:45:01Z</time>
      </trkpt>
      <trkpt lat="46.05848" lon="7.02741">
        <ele>2160</ele>
        <time>2022-08-28T00:45:03Z</time>
      </trkpt>
      <trkpt lat="46.05848" lon="7.02737">
        <ele>2159</ele>
        <time>2022-08-28T00:45:05Z</time>
      </trkpt>
      <trkpt lat="46.05848" lon="7.02733">
        <ele>2158</ele>
        <time>2022-08-28T00:45:07Z</time>
      </trkpt>
      <trkpt lat="46.05848" lon="7.0273">
        <ele>2157</ele>
        <time>2022-08-28T00:45:09Z</time>
      </trkpt>
      <trkpt lat="46.05848" lon="7.02727">
        <ele>2157</ele>
        <time>2022-08-28T00:45:11Z</time>
      </trkpt>
      <trkpt lat="46.05848" lon="7.02724">
        <ele>2157</ele>
        <time>2022-08-28T00:45:14Z</time>
      </trkpt>
      <trkpt lat="46.05849" lon="7.02721">
        <ele>2157</ele>
        <time>2022-08-28T00:45:16Z</time>
      </trkpt>
      <trkpt lat="46.05849" lon="7.02719">
        <ele>2156</ele>
        <time>2022-08-28T00:45:19Z</time>
      </trkpt>
      <trkpt lat="46.05849" lon="7.02715">
        <ele>2156</ele>
        <time>2022-08-28T00:45:22Z</time>
      </trkpt>
      <trkpt lat="46.05849" lon="7.02712">
        <ele>2155</ele>
        <time>2022-08-28T00:45:25Z</time>
      </trkpt>
      <trkpt lat="46.05849" lon="7.02709">
        <ele>2153</ele>
        <time>2022-08-28T00:45:27Z</time>
      </trkpt>
      <trkpt lat="46.05849" lon="7.02706">
        <ele>2153</ele>
        <time>2022-08-28T00:45:29Z</time>
      </trkpt>
      <trkpt lat="46.05849" lon="7.02703">
        <ele>2153</ele>
        <time>2022-08-28T00:45:31Z</time>
      </trkpt>
      <trkpt lat="46.05849" lon="7.02699">
        <ele>2152</ele>
        <time>2022-08-28T00:45:33Z</time>
      </trkpt>
      <trkpt lat="46.0585" lon="7.02695">
        <ele>2151</ele>
        <time>2022-08-28T00:45:35Z</time>
      </trkpt>
      <trkpt lat="46.05851" lon="7.02691">
        <ele>2151</ele>
        <time>2022-08-28T00:45:37Z</time>
      </trkpt>
      <trkpt lat="46.0585" lon="7.02687">
        <ele>2150</ele>
        <time>2022-08-28T00:45:39Z</time>
      </trkpt>
      <trkpt lat="46.05848" lon="7.02684">
        <ele>2149</ele>
        <time>2022-08-28T00:45:41Z</time>
      </trkpt>
      <trkpt lat="46.05846" lon="7.0268">
        <ele>2149</ele>
        <time>2022-08-28T00:45:43Z</time>
      </trkpt>
      <trkpt lat="46.05844" lon="7.02678">
        <ele>2149</ele>
        <time>2022-08-28T00:45:45Z</time>
      </trkpt>
      <trkpt lat="46.05842" lon="7.02676">
        <ele>2147</ele>
        <time>2022-08-28T00:45:47Z</time>
      </trkpt>
      <trkpt lat="46.05841" lon="7.02674">
        <ele>2147</ele>
        <time>2022-08-28T00:45:49Z</time>
      </trkpt>
      <trkpt lat="46.05839" lon="7.02672">
        <ele>2146</ele>
        <time>2022-08-28T00:45:51Z</time>
      </trkpt>
      <trkpt lat="46.05837" lon="7.02669">
        <ele>2146</ele>
        <time>2022-08-28T00:45:53Z</time>
      </trkpt>
      <trkpt lat="46.05836" lon="7.02666">
        <ele>2146</ele>
        <time>2022-08-28T00:45:55Z</time>
      </trkpt>
      <trkpt lat="46.05835" lon="7.02664">
        <ele>2145</ele>
        <time>2022-08-28T00:45:57Z</time>
      </trkpt>
      <trkpt lat="46.05835" lon="7.02661">
        <ele>2144</ele>
        <time>2022-08-28T00:45:59Z</time>
      </trkpt>
      <trkpt lat="46.05832" lon="7.02659">
        <ele>2144</ele>
        <time>2022-08-28T00:46:01Z</time>
      </trkpt>
      <trkpt lat="46.05832" lon="7.02655">
        <ele>2144</ele>
        <time>2022-08-28T00:46:04Z</time>
      </trkpt>
      <trkpt lat="46.05832" lon="7.02652">
        <ele>2142</ele>
        <time>2022-08-28T00:46:06Z</time>
      </trkpt>
      <trkpt lat="46.0583" lon="7.02649">
        <ele>2141</ele>
        <time>2022-08-28T00:46:09Z</time>
      </trkpt>
      <trkpt lat="46.05829" lon="7.02647">
        <ele>2140</ele>
        <time>2022-08-28T00:46:11Z</time>
      </trkpt>
      <trkpt lat="46.05828" lon="7.02644">
        <ele>2138</ele>
        <time>2022-08-28T00:46:13Z</time>
      </trkpt>
      <trkpt lat="46.05827" lon="7.02642">
        <ele>2138</ele>
        <time>2022-08-28T00:46:15Z</time>
      </trkpt>
      <trkpt lat="46.05825" lon="7.02639">
        <ele>2137</ele>
        <time>2022-08-28T00:46:17Z</time>
      </trkpt>
      <trkpt lat="46.05824" lon="7.02638">
        <ele>2137</ele>
        <time>2022-08-28T00:46:19Z</time>
      </trkpt>
      <trkpt lat="46.05823" lon="7.02634">
        <ele>2136</ele>
        <time>2022-08-28T00:46:22Z</time>
      </trkpt>
      <trkpt lat="46.05822" lon="7.0263">
        <ele>2135</ele>
        <time>2022-08-28T00:46:25Z</time>
      </trkpt>
      <trkpt lat="46.05821" lon="7.02627">
        <ele>2134</ele>
        <time>2022-08-28T00:46:28Z</time>
      </trkpt>
      <trkpt lat="46.0582" lon="7.02625">
        <ele>2134</ele>
        <time>2022-08-28T00:46:30Z</time>
      </trkpt>
      <trkpt lat="46.05819" lon="7.02622">
        <ele>2133</ele>
        <time>2022-08-28T00:46:32Z</time>
      </trkpt>
      <trkpt lat="46.05817" lon="7.02619">
        <ele>2133</ele>
        <time>2022-08-28T00:46:35Z</time>
      </trkpt>
      <trkpt lat="46.05816" lon="7.02615">
        <ele>2132</ele>
        <time>2022-08-28T00:46:37Z</time>
      </trkpt>
      <trkpt lat="46.05814" lon="7.02613">
        <ele>2132</ele>
        <time>2022-08-28T00:46:39Z</time>
      </trkpt>
      <trkpt lat="46.05812" lon="7.02611">
        <ele>2131</ele>
        <time>2022-08-28T00:46:41Z</time>
      </trkpt>
      <trkpt lat="46.05811" lon="7.02609">
        <ele>2131</ele>
        <time>2022-08-28T00:46:42Z</time>
      </trkpt>
      <trkpt lat="46.05809" lon="7.02606">
        <ele>2129</ele>
        <time>2022-08-28T00:46:44Z</time>
      </trkpt>
      <trkpt lat="46.05808" lon="7.02604">
        <ele>2129</ele>
        <time>2022-08-28T00:46:46Z</time>
      </trkpt>
      <trkpt lat="46.05807" lon="7.026">
        <ele>2129</ele>
        <time>2022-08-28T00:46:48Z</time>
      </trkpt>
      <trkpt lat="46.05805" lon="7.02598">
        <ele>2128</ele>
        <time>2022-08-28T00:46:51Z</time>
      </trkpt>
      <trkpt lat="46.05804" lon="7.02595">
        <ele>2128</ele>
        <time>2022-08-28T00:46:53Z</time>
      </trkpt>
      <trkpt lat="46.05803" lon="7.02593">
        <ele>2127</ele>
        <time>2022-08-28T00:46:55Z</time>
      </trkpt>
      <trkpt lat="46.05802" lon="7.02591">
        <ele>2127</ele>
        <time>2022-08-28T00:46:56Z</time>
      </trkpt>
      <trkpt lat="46.05802" lon="7.02589">
        <ele>2127</ele>
        <time>2022-08-28T00:46:57Z</time>
      </trkpt>
      <trkpt lat="46.05801" lon="7.02587">
        <ele>2127</ele>
        <time>2022-08-28T00:46:58Z</time>
      </trkpt>
      <trkpt lat="46.05801" lon="7.02584">
        <ele>2127</ele>
        <time>2022-08-28T00:46:59Z</time>
      </trkpt>
      <trkpt lat="46.05801" lon="7.0258">
        <ele>2126</ele>
        <time>2022-08-28T00:47:01Z</time>
      </trkpt>
      <trkpt lat="46.058" lon="7.02577">
        <ele>2124</ele>
        <time>2022-08-28T00:47:03Z</time>
      </trkpt>
      <trkpt lat="46.05798" lon="7.02574">
        <ele>2124</ele>
        <time>2022-08-28T00:47:05Z</time>
      </trkpt>
      <trkpt lat="46.05798" lon="7.0257">
        <ele>2124</ele>
        <time>2022-08-28T00:47:07Z</time>
      </trkpt>
      <trkpt lat="46.05797" lon="7.02567">
        <ele>2123</ele>
        <time>2022-08-28T00:47:09Z</time>
      </trkpt>
      <trkpt lat="46.05797" lon="7.02564">
        <ele>2122</ele>
        <time>2022-08-28T00:47:11Z</time>
      </trkpt>
      <trkpt lat="46.05796" lon="7.02561">
        <ele>2122</ele>
        <time>2022-08-28T00:47:13Z</time>
      </trkpt>
      <trkpt lat="46.05795" lon="7.02559">
        <ele>2121</ele>
        <time>2022-08-28T00:47:15Z</time>
      </trkpt>
      <trkpt lat="46.05794" lon="7.02556">
        <ele>2121</ele>
        <time>2022-08-28T00:47:17Z</time>
      </trkpt>
      <trkpt lat="46.05792" lon="7.02554">
        <ele>2120</ele>
        <time>2022-08-28T00:47:20Z</time>
      </trkpt>
      <trkpt lat="46.0579" lon="7.02553">
        <ele>2120</ele>
        <time>2022-08-28T00:47:22Z</time>
      </trkpt>
      <trkpt lat="46.05789" lon="7.02551">
        <ele>2120</ele>
        <time>2022-08-28T00:47:24Z</time>
      </trkpt>
      <trkpt lat="46.05788" lon="7.02549">
        <ele>2120</ele>
        <time>2022-08-28T00:47:26Z</time>
      </trkpt>
      <trkpt lat="46.05785" lon="7.02548">
        <ele>2118</ele>
        <time>2022-08-28T00:47:29Z</time>
      </trkpt>
      <trkpt lat="46.05783" lon="7.02547">
        <ele>2118</ele>
        <time>2022-08-28T00:47:32Z</time>
      </trkpt>
      <trkpt lat="46.05781" lon="7.02545">
        <ele>2116</ele>
        <time>2022-08-28T00:47:35Z</time>
      </trkpt>
      <trkpt lat="46.0578" lon="7.02544">
        <ele>2115</ele>
        <time>2022-08-28T00:47:39Z</time>
      </trkpt>
      <trkpt lat="46.05777" lon="7.02543">
        <ele>2115</ele>
        <time>2022-08-28T00:47:41Z</time>
      </trkpt>
      <trkpt lat="46.05776" lon="7.02543">
        <ele>2115</ele>
        <time>2022-08-28T00:47:43Z</time>
      </trkpt>
      <trkpt lat="46.05773" lon="7.02541">
        <ele>2115</ele>
        <time>2022-08-28T00:47:46Z</time>
      </trkpt>
      <trkpt lat="46.05772" lon="7.02539">
        <ele>2113</ele>
        <time>2022-08-28T00:47:48Z</time>
      </trkpt>
      <trkpt lat="46.0577" lon="7.02538">
        <ele>2112</ele>
        <time>2022-08-28T00:47:50Z</time>
      </trkpt>
      <trkpt lat="46.05768" lon="7.02536">
        <ele>2111</ele>
        <time>2022-08-28T00:47:53Z</time>
      </trkpt>
      <trkpt lat="46.05766" lon="7.02534">
        <ele>2111</ele>
        <time>2022-08-28T00:47:56Z</time>
      </trkpt>
      <trkpt lat="46.05764" lon="7.02533">
        <ele>2109</ele>
        <time>2022-08-28T00:47:58Z</time>
      </trkpt>
      <trkpt lat="46.05762" lon="7.02531">
        <ele>2108</ele>
        <time>2022-08-28T00:48:00Z</time>
      </trkpt>
      <trkpt lat="46.0576" lon="7.0253">
        <ele>2108</ele>
        <time>2022-08-28T00:48:02Z</time>
      </trkpt>
      <trkpt lat="46.05758" lon="7.02529">
        <ele>2107</ele>
        <time>2022-08-28T00:48:04Z</time>
      </trkpt>
      <trkpt lat="46.05757" lon="7.02526">
        <ele>2107</ele>
        <time>2022-08-28T00:48:06Z</time>
      </trkpt>
      <trkpt lat="46.05755" lon="7.02526">
        <ele>2105</ele>
        <time>2022-08-28T00:48:12Z</time>
      </trkpt>
      <trkpt lat="46.05753" lon="7.02525">
        <ele>2104</ele>
        <time>2022-08-28T00:48:18Z</time>
      </trkpt>
      <trkpt lat="46.05752" lon="7.02522">
        <ele>2103</ele>
        <time>2022-08-28T00:48:21Z</time>
      </trkpt>
      <trkpt lat="46.0575" lon="7.0252">
        <ele>2102</ele>
        <time>2022-08-28T00:48:24Z</time>
      </trkpt>
      <trkpt lat="46.05749" lon="7.02517">
        <ele>2101</ele>
        <time>2022-08-28T00:48:27Z</time>
      </trkpt>
      <trkpt lat="46.05747" lon="7.02519">
        <ele>2100</ele>
        <time>2022-08-28T00:48:32Z</time>
      </trkpt>
      <trkpt lat="46.05745" lon="7.0252">
        <ele>2100</ele>
        <time>2022-08-28T00:48:36Z</time>
      </trkpt>
      <trkpt lat="46.05743" lon="7.02519">
        <ele>2099</ele>
        <time>2022-08-28T00:48:38Z</time>
      </trkpt>
      <trkpt lat="46.05741" lon="7.02518">
        <ele>2099</ele>
        <time>2022-08-28T00:48:40Z</time>
      </trkpt>
      <trkpt lat="46.05739" lon="7.02517">
        <ele>2097</ele>
        <time>2022-08-28T00:48:43Z</time>
      </trkpt>
      <trkpt lat="46.05737" lon="7.02516">
        <ele>2097</ele>
        <time>2022-08-28T00:48:45Z</time>
      </trkpt>
      <trkpt lat="46.05735" lon="7.02514">
        <ele>2097</ele>
        <time>2022-08-28T00:48:47Z</time>
      </trkpt>
      <trkpt lat="46.05734" lon="7.02513">
        <ele>2096</ele>
        <time>2022-08-28T00:48:50Z</time>
      </trkpt>
      <trkpt lat="46.05731" lon="7.02512">
        <ele>2096</ele>
        <time>2022-08-28T00:48:53Z</time>
      </trkpt>
      <trkpt lat="46.0573" lon="7.0251">
        <ele>2095</ele>
        <time>2022-08-28T00:48:57Z</time>
      </trkpt>
      <trkpt lat="46.05729" lon="7.02507">
        <ele>2094</ele>
        <time>2022-08-28T00:48:59Z</time>
      </trkpt>
      <trkpt lat="46.05727" lon="7.02505">
        <ele>2094</ele>
        <time>2022-08-28T00:49:01Z</time>
      </trkpt>
      <trkpt lat="46.05725" lon="7.02504">
        <ele>2093</ele>
        <time>2022-08-28T00:49:03Z</time>
      </trkpt>
      <trkpt lat="46.05724" lon="7.02502">
        <ele>2092</ele>
        <time>2022-08-28T00:49:05Z</time>
      </trkpt>
      <trkpt lat="46.05722" lon="7.02501">
        <ele>2092</ele>
        <time>2022-08-28T00:49:08Z</time>
      </trkpt>
      <trkpt lat="46.05719" lon="7.02501">
        <ele>2090</ele>
        <time>2022-08-28T00:49:10Z</time>
      </trkpt>
      <trkpt lat="46.05716" lon="7.025">
        <ele>2090</ele>
        <time>2022-08-28T00:49:12Z</time>
      </trkpt>
      <trkpt lat="46.05714" lon="7.02499">
        <ele>2089</ele>
        <time>2022-08-28T00:49:14Z</time>
      </trkpt>
      <trkpt lat="46.05711" lon="7.02497">
        <ele>2088</ele>
        <time>2022-08-28T00:49:16Z</time>
      </trkpt>
      <trkpt lat="46.05709" lon="7.02495">
        <ele>2088</ele>
        <time>2022-08-28T00:49:18Z</time>
      </trkpt>
      <trkpt lat="46.05708" lon="7.02492">
        <ele>2087</ele>
        <time>2022-08-28T00:49:20Z</time>
      </trkpt>
      <trkpt lat="46.05707" lon="7.0249">
        <ele>2087</ele>
        <time>2022-08-28T00:49:22Z</time>
      </trkpt>
      <trkpt lat="46.05704" lon="7.02489">
        <ele>2086</ele>
        <time>2022-08-28T00:49:24Z</time>
      </trkpt>
      <trkpt lat="46.05702" lon="7.02488">
        <ele>2085</ele>
        <time>2022-08-28T00:49:26Z</time>
      </trkpt>
      <trkpt lat="46.057" lon="7.02486">
        <ele>2085</ele>
        <time>2022-08-28T00:49:28Z</time>
      </trkpt>
      <trkpt lat="46.05697" lon="7.02486">
        <ele>2084</ele>
        <time>2022-08-28T00:49:30Z</time>
      </trkpt>
      <trkpt lat="46.05693" lon="7.02484">
        <ele>2084</ele>
        <time>2022-08-28T00:49:32Z</time>
      </trkpt>
      <trkpt lat="46.05691" lon="7.02483">
        <ele>2083</ele>
        <time>2022-08-28T00:49:34Z</time>
      </trkpt>
      <trkpt lat="46.05689" lon="7.02482">
        <ele>2083</ele>
        <time>2022-08-28T00:49:36Z</time>
      </trkpt>
      <trkpt lat="46.05687" lon="7.02481">
        <ele>2083</ele>
        <time>2022-08-28T00:49:38Z</time>
      </trkpt>
      <trkpt lat="46.05684" lon="7.02481">
        <ele>2083</ele>
        <time>2022-08-28T00:49:40Z</time>
      </trkpt>
      <trkpt lat="46.05681" lon="7.02479">
        <ele>2082</ele>
        <time>2022-08-28T00:49:42Z</time>
      </trkpt>
      <trkpt lat="46.05678" lon="7.02477">
        <ele>2081</ele>
        <time>2022-08-28T00:49:44Z</time>
      </trkpt>
      <trkpt lat="46.05676" lon="7.02475">
        <ele>2081</ele>
        <time>2022-08-28T00:49:46Z</time>
      </trkpt>
      <trkpt lat="46.05674" lon="7.02474">
        <ele>2080</ele>
        <time>2022-08-28T00:49:48Z</time>
      </trkpt>
      <trkpt lat="46.05671" lon="7.02474">
        <ele>2080</ele>
        <time>2022-08-28T00:49:50Z</time>
      </trkpt>
      <trkpt lat="46.05669" lon="7.02473">
        <ele>2080</ele>
        <time>2022-08-28T00:49:52Z</time>
      </trkpt>
      <trkpt lat="46.05666" lon="7.02473">
        <ele>2079</ele>
        <time>2022-08-28T00:49:54Z</time>
      </trkpt>
      <trkpt lat="46.05663" lon="7.02472">
        <ele>2079</ele>
        <time>2022-08-28T00:49:56Z</time>
      </trkpt>
      <trkpt lat="46.05661" lon="7.02471">
        <ele>2079</ele>
        <time>2022-08-28T00:49:58Z</time>
      </trkpt>
      <trkpt lat="46.05658" lon="7.02469">
        <ele>2078</ele>
        <time>2022-08-28T00:50:00Z</time>
      </trkpt>
      <trkpt lat="46.05656" lon="7.02468">
        <ele>2078</ele>
        <time>2022-08-28T00:50:02Z</time>
      </trkpt>
      <trkpt lat="46.05654" lon="7.02468">
        <ele>2076</ele>
        <time>2022-08-28T00:50:04Z</time>
      </trkpt>
      <trkpt lat="46.05652" lon="7.02467">
        <ele>2076</ele>
        <time>2022-08-28T00:50:06Z</time>
      </trkpt>
      <trkpt lat="46.05649" lon="7.02466">
        <ele>2075</ele>
        <time>2022-08-28T00:50:08Z</time>
      </trkpt>
      <trkpt lat="46.05647" lon="7.02464">
        <ele>2075</ele>
        <time>2022-08-28T00:50:10Z</time>
      </trkpt>
      <trkpt lat="46.05645" lon="7.02463">
        <ele>2075</ele>
        <time>2022-08-28T00:50:12Z</time>
      </trkpt>
      <trkpt lat="46.05643" lon="7.02464">
        <ele>2075</ele>
        <time>2022-08-28T00:50:13Z</time>
      </trkpt>
      <trkpt lat="46.05642" lon="7.02465">
        <ele>2075</ele>
        <time>2022-08-28T00:50:15Z</time>
      </trkpt>
      <trkpt lat="46.0564" lon="7.02467">
        <ele>2075</ele>
        <time>2022-08-28T00:50:16Z</time>
      </trkpt>
      <trkpt lat="46.05638" lon="7.02465">
        <ele>2075</ele>
        <time>2022-08-28T00:50:18Z</time>
      </trkpt>
      <trkpt lat="46.05636" lon="7.02463">
        <ele>2074</ele>
        <time>2022-08-28T00:50:20Z</time>
      </trkpt>
      <trkpt lat="46.05634" lon="7.02462">
        <ele>2074</ele>
        <time>2022-08-28T00:50:22Z</time>
      </trkpt>
      <trkpt lat="46.0563" lon="7.02461">
        <ele>2074</ele>
        <time>2022-08-28T00:50:24Z</time>
      </trkpt>
      <trkpt lat="46.05627" lon="7.02461">
        <ele>2074</ele>
        <time>2022-08-28T00:50:26Z</time>
      </trkpt>
      <trkpt lat="46.05625" lon="7.02461">
        <ele>2074</ele>
        <time>2022-08-28T00:50:28Z</time>
      </trkpt>
      <trkpt lat="46.05622" lon="7.0246">
        <ele>2074</ele>
        <time>2022-08-28T00:50:30Z</time>
      </trkpt>
      <trkpt lat="46.0562" lon="7.02459">
        <ele>2074</ele>
        <time>2022-08-28T00:50:32Z</time>
      </trkpt>
      <trkpt lat="46.05618" lon="7.02458">
        <ele>2073</ele>
        <time>2022-08-28T00:50:34Z</time>
      </trkpt>
      <trkpt lat="46.05616" lon="7.02456">
        <ele>2072</ele>
        <time>2022-08-28T00:50:37Z</time>
      </trkpt>
      <trkpt lat="46.05613" lon="7.02455">
        <ele>2072</ele>
        <time>2022-08-28T00:50:39Z</time>
      </trkpt>
      <trkpt lat="46.05611" lon="7.02454">
        <ele>2072</ele>
        <time>2022-08-28T00:50:40Z</time>
      </trkpt>
      <trkpt lat="46.05608" lon="7.02453">
        <ele>2071</ele>
        <time>2022-08-28T00:50:42Z</time>
      </trkpt>
      <trkpt lat="46.05606" lon="7.02452">
        <ele>2070</ele>
        <time>2022-08-28T00:50:44Z</time>
      </trkpt>
      <trkpt lat="46.05603" lon="7.02451">
        <ele>2069</ele>
        <time>2022-08-28T00:50:46Z</time>
      </trkpt>
      <trkpt lat="46.05601" lon="7.0245">
        <ele>2069</ele>
        <time>2022-08-28T00:50:48Z</time>
      </trkpt>
      <trkpt lat="46.056" lon="7.02448">
        <ele>2069</ele>
        <time>2022-08-28T00:50:50Z</time>
      </trkpt>
      <trkpt lat="46.05599" lon="7.02446">
        <ele>2069</ele>
        <time>2022-08-28T00:50:52Z</time>
      </trkpt>
      <trkpt lat="46.05598" lon="7.02443">
        <ele>2069</ele>
        <time>2022-08-28T00:50:55Z</time>
      </trkpt>
      <trkpt lat="46.05597" lon="7.02441">
        <ele>2069</ele>
        <time>2022-08-28T00:50:57Z</time>
      </trkpt>
      <trkpt lat="46.05594" lon="7.02438">
        <ele>2069</ele>
        <time>2022-08-28T00:50:59Z</time>
      </trkpt>
      <trkpt lat="46.05592" lon="7.02435">
        <ele>2068</ele>
        <time>2022-08-28T00:51:01Z</time>
      </trkpt>
      <trkpt lat="46.05591" lon="7.02432">
        <ele>2068</ele>
        <time>2022-08-28T00:51:03Z</time>
      </trkpt>
      <trkpt lat="46.05589" lon="7.02428">
        <ele>2067</ele>
        <time>2022-08-28T00:51:05Z</time>
      </trkpt>
      <trkpt lat="46.05588" lon="7.02425">
        <ele>2067</ele>
        <time>2022-08-28T00:51:07Z</time>
      </trkpt>
      <trkpt lat="46.05587" lon="7.02421">
        <ele>2067</ele>
        <time>2022-08-28T00:51:09Z</time>
      </trkpt>
      <trkpt lat="46.05586" lon="7.02417">
        <ele>2066</ele>
        <time>2022-08-28T00:51:11Z</time>
      </trkpt>
      <trkpt lat="46.05585" lon="7.02414">
        <ele>2066</ele>
        <time>2022-08-28T00:51:13Z</time>
      </trkpt>
      <trkpt lat="46.05584" lon="7.0241">
        <ele>2064</ele>
        <time>2022-08-28T00:51:15Z</time>
      </trkpt>
      <trkpt lat="46.05584" lon="7.02407">
        <ele>2064</ele>
        <time>2022-08-28T00:51:17Z</time>
      </trkpt>
      <trkpt lat="46.05584" lon="7.02404">
        <ele>2064</ele>
        <time>2022-08-28T00:51:19Z</time>
      </trkpt>
      <trkpt lat="46.05583" lon="7.02401">
        <ele>2064</ele>
        <time>2022-08-28T00:51:21Z</time>
      </trkpt>
      <trkpt lat="46.05583" lon="7.02398">
        <ele>2064</ele>
        <time>2022-08-28T00:51:23Z</time>
      </trkpt>
      <trkpt lat="46.05583" lon="7.02395">
        <ele>2063</ele>
        <time>2022-08-28T00:51:25Z</time>
      </trkpt>
      <trkpt lat="46.05583" lon="7.02393">
        <ele>2063</ele>
        <time>2022-08-28T00:51:27Z</time>
      </trkpt>
      <trkpt lat="46.05582" lon="7.0239">
        <ele>2062</ele>
        <time>2022-08-28T00:51:29Z</time>
      </trkpt>
      <trkpt lat="46.05582" lon="7.02387">
        <ele>2062</ele>
        <time>2022-08-28T00:51:31Z</time>
      </trkpt>
      <trkpt lat="46.05582" lon="7.02384">
        <ele>2062</ele>
        <time>2022-08-28T00:51:33Z</time>
      </trkpt>
      <trkpt lat="46.05581" lon="7.02381">
        <ele>2062</ele>
        <time>2022-08-28T00:51:36Z</time>
      </trkpt>
      <trkpt lat="46.05581" lon="7.02378">
        <ele>2062</ele>
        <time>2022-08-28T00:51:38Z</time>
      </trkpt>
      <trkpt lat="46.0558" lon="7.02374">
        <ele>2061</ele>
        <time>2022-08-28T00:51:40Z</time>
      </trkpt>
      <trkpt lat="46.0558" lon="7.0237">
        <ele>2061</ele>
        <time>2022-08-28T00:51:42Z</time>
      </trkpt>
      <trkpt lat="46.05581" lon="7.02366">
        <ele>2061</ele>
        <time>2022-08-28T00:51:44Z</time>
      </trkpt>
      <trkpt lat="46.05581" lon="7.02363">
        <ele>2061</ele>
        <time>2022-08-28T00:51:46Z</time>
      </trkpt>
      <trkpt lat="46.05579" lon="7.02361">
        <ele>2060</ele>
        <time>2022-08-28T00:51:47Z</time>
      </trkpt>
      <trkpt lat="46.05579" lon="7.02357">
        <ele>2060</ele>
        <time>2022-08-28T00:51:49Z</time>
      </trkpt>
      <trkpt lat="46.05578" lon="7.02355">
        <ele>2060</ele>
        <time>2022-08-28T00:51:50Z</time>
      </trkpt>
      <trkpt lat="46.05577" lon="7.02352">
        <ele>2060</ele>
        <time>2022-08-28T00:51:51Z</time>
      </trkpt>
      <trkpt lat="46.05577" lon="7.02347">
        <ele>2060</ele>
        <time>2022-08-28T00:51:53Z</time>
      </trkpt>
      <trkpt lat="46.05577" lon="7.02343">
        <ele>2060</ele>
        <time>2022-08-28T00:51:55Z</time>
      </trkpt>
      <trkpt lat="46.05577" lon="7.02339">
        <ele>2059</ele>
        <time>2022-08-28T00:51:57Z</time>
      </trkpt>
      <trkpt lat="46.05577" lon="7.02333">
        <ele>2059</ele>
        <time>2022-08-28T00:51:59Z</time>
      </trkpt>
      <trkpt lat="46.05577" lon="7.02331">
        <ele>2058</ele>
        <time>2022-08-28T00:52:00Z</time>
      </trkpt>
      <trkpt lat="46.05578" lon="7.02326">
        <ele>2058</ele>
        <time>2022-08-28T00:52:02Z</time>
      </trkpt>
      <trkpt lat="46.05578" lon="7.02322">
        <ele>2058</ele>
        <time>2022-08-28T00:52:04Z</time>
      </trkpt>
      <trkpt lat="46.05578" lon="7.02319">
        <ele>2058</ele>
        <time>2022-08-28T00:52:06Z</time>
      </trkpt>
      <trkpt lat="46.05577" lon="7.02315">
        <ele>2058</ele>
        <time>2022-08-28T00:52:08Z</time>
      </trkpt>
      <trkpt lat="46.05577" lon="7.02312">
        <ele>2058</ele>
        <time>2022-08-28T00:52:10Z</time>
      </trkpt>
      <trkpt lat="46.05577" lon="7.02308">
        <ele>2058</ele>
        <time>2022-08-28T00:52:12Z</time>
      </trkpt>
      <trkpt lat="46.05578" lon="7.02304">
        <ele>2057</ele>
        <time>2022-08-28T00:52:14Z</time>
      </trkpt>
      <trkpt lat="46.05578" lon="7.02301">
        <ele>2057</ele>
        <time>2022-08-28T00:52:16Z</time>
      </trkpt>
      <trkpt lat="46.05579" lon="7.02298">
        <ele>2057</ele>
        <time>2022-08-28T00:52:18Z</time>
      </trkpt>
      <trkpt lat="46.05579" lon="7.02294">
        <ele>2057</ele>
        <time>2022-08-28T00:52:20Z</time>
      </trkpt>
      <trkpt lat="46.05579" lon="7.02291">
        <ele>2057</ele>
        <time>2022-08-28T00:52:22Z</time>
      </trkpt>
      <trkpt lat="46.0558" lon="7.02289">
        <ele>2057</ele>
        <time>2022-08-28T00:52:24Z</time>
      </trkpt>
      <trkpt lat="46.05581" lon="7.02286">
        <ele>2056</ele>
        <time>2022-08-28T00:52:26Z</time>
      </trkpt>
      <trkpt lat="46.05582" lon="7.02283">
        <ele>2056</ele>
        <time>2022-08-28T00:52:28Z</time>
      </trkpt>
      <trkpt lat="46.05583" lon="7.0228">
        <ele>2056</ele>
        <time>2022-08-28T00:52:30Z</time>
      </trkpt>
      <trkpt lat="46.05583" lon="7.02277">
        <ele>2056</ele>
        <time>2022-08-28T00:52:32Z</time>
      </trkpt>
      <trkpt lat="46.05583" lon="7.02275">
        <ele>2055</ele>
        <time>2022-08-28T00:52:34Z</time>
      </trkpt>
      <trkpt lat="46.05583" lon="7.02271">
        <ele>2055</ele>
        <time>2022-08-28T00:52:36Z</time>
      </trkpt>
      <trkpt lat="46.05583" lon="7.02267">
        <ele>2055</ele>
        <time>2022-08-28T00:52:38Z</time>
      </trkpt>
      <trkpt lat="46.05584" lon="7.02263">
        <ele>2055</ele>
        <time>2022-08-28T00:52:40Z</time>
      </trkpt>
      <trkpt lat="46.05584" lon="7.02259">
        <ele>2055</ele>
        <time>2022-08-28T00:52:42Z</time>
      </trkpt>
      <trkpt lat="46.05584" lon="7.02254">
        <ele>2053</ele>
        <time>2022-08-28T00:52:44Z</time>
      </trkpt>
      <trkpt lat="46.05584" lon="7.0225">
        <ele>2053</ele>
        <time>2022-08-28T00:52:46Z</time>
      </trkpt>
      <trkpt lat="46.05584" lon="7.02246">
        <ele>2053</ele>
        <time>2022-08-28T00:52:48Z</time>
      </trkpt>
      <trkpt lat="46.05583" lon="7.02242">
        <ele>2053</ele>
        <time>2022-08-28T00:52:50Z</time>
      </trkpt>
      <trkpt lat="46.05582" lon="7.02239">
        <ele>2053</ele>
        <time>2022-08-28T00:52:52Z</time>
      </trkpt>
      <trkpt lat="46.05583" lon="7.02236">
        <ele>2053</ele>
        <time>2022-08-28T00:52:54Z</time>
      </trkpt>
      <trkpt lat="46.05583" lon="7.02233">
        <ele>2053</ele>
        <time>2022-08-28T00:52:56Z</time>
      </trkpt>
      <trkpt lat="46.05584" lon="7.02229">
        <ele>2053</ele>
        <time>2022-08-28T00:52:58Z</time>
      </trkpt>
      <trkpt lat="46.05583" lon="7.02225">
        <ele>2053</ele>
        <time>2022-08-28T00:53:00Z</time>
      </trkpt>
      <trkpt lat="46.05583" lon="7.02221">
        <ele>2053</ele>
        <time>2022-08-28T00:53:02Z</time>
      </trkpt>
      <trkpt lat="46.05583" lon="7.02218">
        <ele>2053</ele>
        <time>2022-08-28T00:53:04Z</time>
      </trkpt>
      <trkpt lat="46.05583" lon="7.02214">
        <ele>2052</ele>
        <time>2022-08-28T00:53:06Z</time>
      </trkpt>
      <trkpt lat="46.05585" lon="7.02211">
        <ele>2052</ele>
        <time>2022-08-28T00:53:08Z</time>
      </trkpt>
      <trkpt lat="46.05586" lon="7.02208">
        <ele>2052</ele>
        <time>2022-08-28T00:53:10Z</time>
      </trkpt>
      <trkpt lat="46.05586" lon="7.02204">
        <ele>2052</ele>
        <time>2022-08-28T00:53:12Z</time>
      </trkpt>
      <trkpt lat="46.05586" lon="7.02201">
        <ele>2052</ele>
        <time>2022-08-28T00:53:14Z</time>
      </trkpt>
      <trkpt lat="46.05586" lon="7.02198">
        <ele>2051</ele>
        <time>2022-08-28T00:53:16Z</time>
      </trkpt>
      <trkpt lat="46.05587" lon="7.02195">
        <ele>2051</ele>
        <time>2022-08-28T00:53:18Z</time>
      </trkpt>
      <trkpt lat="46.05587" lon="7.02192">
        <ele>2051</ele>
        <time>2022-08-28T00:53:20Z</time>
      </trkpt>
      <trkpt lat="46.05588" lon="7.02188">
        <ele>2051</ele>
        <time>2022-08-28T00:53:22Z</time>
      </trkpt>
      <trkpt lat="46.05589" lon="7.02185">
        <ele>2050</ele>
        <time>2022-08-28T00:53:24Z</time>
      </trkpt>
      <trkpt lat="46.0559" lon="7.02181">
        <ele>2050</ele>
        <time>2022-08-28T00:53:26Z</time>
      </trkpt>
      <trkpt lat="46.05591" lon="7.02178">
        <ele>2050</ele>
        <time>2022-08-28T00:53:28Z</time>
      </trkpt>
      <trkpt lat="46.05593" lon="7.02175">
        <ele>2050</ele>
        <time>2022-08-28T00:53:30Z</time>
      </trkpt>
      <trkpt lat="46.05594" lon="7.02173">
        <ele>2050</ele>
        <time>2022-08-28T00:53:32Z</time>
      </trkpt>
      <trkpt lat="46.05594" lon="7.0217">
        <ele>2049</ele>
        <time>2022-08-28T00:53:34Z</time>
      </trkpt>
      <trkpt lat="46.05596" lon="7.02167">
        <ele>2049</ele>
        <time>2022-08-28T00:53:37Z</time>
      </trkpt>
      <trkpt lat="46.05597" lon="7.02164">
        <ele>2049</ele>
        <time>2022-08-28T00:53:39Z</time>
      </trkpt>
      <trkpt lat="46.05597" lon="7.02162">
        <ele>2048</ele>
        <time>2022-08-28T00:53:41Z</time>
      </trkpt>
      <trkpt lat="46.056" lon="7.0216">
        <ele>2048</ele>
        <time>2022-08-28T00:53:43Z</time>
      </trkpt>
      <trkpt lat="46.05602" lon="7.02156">
        <ele>2048</ele>
        <time>2022-08-28T00:53:45Z</time>
      </trkpt>
      <trkpt lat="46.05603" lon="7.02153">
        <ele>2047</ele>
        <time>2022-08-28T00:53:47Z</time>
      </trkpt>
      <trkpt lat="46.05604" lon="7.0215">
        <ele>2047</ele>
        <time>2022-08-28T00:53:49Z</time>
      </trkpt>
      <trkpt lat="46.05605" lon="7.02147">
        <ele>2047</ele>
        <time>2022-08-28T00:53:51Z</time>
      </trkpt>
      <trkpt lat="46.05606" lon="7.02144">
        <ele>2047</ele>
        <time>2022-08-28T00:53:53Z</time>
      </trkpt>
      <trkpt lat="46.05608" lon="7.0214">
        <ele>2046</ele>
        <time>2022-08-28T00:53:56Z</time>
      </trkpt>
      <trkpt lat="46.05609" lon="7.02138">
        <ele>2046</ele>
        <time>2022-08-28T00:53:58Z</time>
      </trkpt>
      <trkpt lat="46.0561" lon="7.02137">
        <ele>2046</ele>
        <time>2022-08-28T00:54:00Z</time>
      </trkpt>
      <trkpt lat="46.05613" lon="7.02134">
        <ele>2046</ele>
        <time>2022-08-28T00:54:03Z</time>
      </trkpt>
      <trkpt lat="46.05614" lon="7.02132">
        <ele>2046</ele>
        <time>2022-08-28T00:54:05Z</time>
      </trkpt>
      <trkpt lat="46.05616" lon="7.0213">
        <ele>2045</ele>
        <time>2022-08-28T00:54:07Z</time>
      </trkpt>
      <trkpt lat="46.05616" lon="7.02127">
        <ele>2045</ele>
        <time>2022-08-28T00:54:09Z</time>
      </trkpt>
      <trkpt lat="46.05617" lon="7.02123">
        <ele>2044</ele>
        <time>2022-08-28T00:54:11Z</time>
      </trkpt>
      <trkpt lat="46.05619" lon="7.0212">
        <ele>2044</ele>
        <time>2022-08-28T00:54:13Z</time>
      </trkpt>
      <trkpt lat="46.0562" lon="7.02117">
        <ele>2044</ele>
        <time>2022-08-28T00:54:15Z</time>
      </trkpt>
      <trkpt lat="46.05622" lon="7.02115">
        <ele>2044</ele>
        <time>2022-08-28T00:54:17Z</time>
      </trkpt>
      <trkpt lat="46.05624" lon="7.02112">
        <ele>2044</ele>
        <time>2022-08-28T00:54:19Z</time>
      </trkpt>
      <trkpt lat="46.05625" lon="7.02108">
        <ele>2043</ele>
        <time>2022-08-28T00:54:21Z</time>
      </trkpt>
      <trkpt lat="46.05626" lon="7.02106">
        <ele>2043</ele>
        <time>2022-08-28T00:54:22Z</time>
      </trkpt>
      <trkpt lat="46.05627" lon="7.02104">
        <ele>2043</ele>
        <time>2022-08-28T00:54:23Z</time>
      </trkpt>
      <trkpt lat="46.05628" lon="7.02102">
        <ele>2043</ele>
        <time>2022-08-28T00:54:24Z</time>
      </trkpt>
      <trkpt lat="46.05629" lon="7.02098">
        <ele>2043</ele>
        <time>2022-08-28T00:54:26Z</time>
      </trkpt>
      <trkpt lat="46.0563" lon="7.02096">
        <ele>2043</ele>
        <time>2022-08-28T00:54:27Z</time>
      </trkpt>
      <trkpt lat="46.05631" lon="7.02092">
        <ele>2043</ele>
        <time>2022-08-28T00:54:29Z</time>
      </trkpt>
      <trkpt lat="46.05633" lon="7.02089">
        <ele>2043</ele>
        <time>2022-08-28T00:54:31Z</time>
      </trkpt>
      <trkpt lat="46.05634" lon="7.02086">
        <ele>2043</ele>
        <time>2022-08-28T00:54:33Z</time>
      </trkpt>
      <trkpt lat="46.05635" lon="7.02083">
        <ele>2043</ele>
        <time>2022-08-28T00:54:35Z</time>
      </trkpt>
      <trkpt lat="46.05637" lon="7.02079">
        <ele>2043</ele>
        <time>2022-08-28T00:54:37Z</time>
      </trkpt>
      <trkpt lat="46.05638" lon="7.02077">
        <ele>2043</ele>
        <time>2022-08-28T00:54:39Z</time>
      </trkpt>
      <trkpt lat="46.0564" lon="7.02075">
        <ele>2043</ele>
        <time>2022-08-28T00:54:41Z</time>
      </trkpt>
      <trkpt lat="46.05642" lon="7.02072">
        <ele>2043</ele>
        <time>2022-08-28T00:54:43Z</time>
      </trkpt>
      <trkpt lat="46.05643" lon="7.0207">
        <ele>2043</ele>
        <time>2022-08-28T00:54:45Z</time>
      </trkpt>
      <trkpt lat="46.05644" lon="7.02066">
        <ele>2043</ele>
        <time>2022-08-28T00:54:48Z</time>
      </trkpt>
      <trkpt lat="46.05644" lon="7.02066">
        <ele>2043</ele>
        <time>2022-08-28T00:55:02Z</time>
      </trkpt>
      <trkpt lat="46.05645" lon="7.02063">
        <ele>2043</ele>
        <time>2022-08-28T00:55:11Z</time>
      </trkpt>
      <trkpt lat="46.05646" lon="7.0206">
        <ele>2043</ele>
        <time>2022-08-28T00:55:14Z</time>
      </trkpt>
      <trkpt lat="46.05648" lon="7.02057">
        <ele>2043</ele>
        <time>2022-08-28T00:55:16Z</time>
      </trkpt>
      <trkpt lat="46.05649" lon="7.02055">
        <ele>2042</ele>
        <time>2022-08-28T00:55:18Z</time>
      </trkpt>
      <trkpt lat="46.05651" lon="7.02054">
        <ele>2042</ele>
        <time>2022-08-28T00:55:20Z</time>
      </trkpt>
      <trkpt lat="46.05654" lon="7.02051">
        <ele>2042</ele>
        <time>2022-08-28T00:55:22Z</time>
      </trkpt>
      <trkpt lat="46.05656" lon="7.02049">
        <ele>2042</ele>
        <time>2022-08-28T00:55:23Z</time>
      </trkpt>
      <trkpt lat="46.05657" lon="7.02047">
        <ele>2041</ele>
        <time>2022-08-28T00:55:24Z</time>
      </trkpt>
      <trkpt lat="46.05658" lon="7.02045">
        <ele>2041</ele>
        <time>2022-08-28T00:55:25Z</time>
      </trkpt>
      <trkpt lat="46.05659" lon="7.02042">
        <ele>2041</ele>
        <time>2022-08-28T00:55:26Z</time>
      </trkpt>
      <trkpt lat="46.05661" lon="7.0204">
        <ele>2041</ele>
        <time>2022-08-28T00:55:28Z</time>
      </trkpt>
      <trkpt lat="46.05662" lon="7.02037">
        <ele>2041</ele>
        <time>2022-08-28T00:55:30Z</time>
      </trkpt>
      <trkpt lat="46.05663" lon="7.02034">
        <ele>2038</ele>
        <time>2022-08-28T00:55:33Z</time>
      </trkpt>
      <trkpt lat="46.05664" lon="7.02031">
        <ele>2038</ele>
        <time>2022-08-28T00:55:35Z</time>
      </trkpt>
      <trkpt lat="46.05665" lon="7.0203">
        <ele>2037</ele>
        <time>2022-08-28T00:55:37Z</time>
      </trkpt>
      <trkpt lat="46.05667" lon="7.02027">
        <ele>2036</ele>
        <time>2022-08-28T00:55:39Z</time>
      </trkpt>
      <trkpt lat="46.05668" lon="7.02023">
        <ele>2036</ele>
        <time>2022-08-28T00:55:41Z</time>
      </trkpt>
      <trkpt lat="46.05668" lon="7.0202">
        <ele>2036</ele>
        <time>2022-08-28T00:55:43Z</time>
      </trkpt>
      <trkpt lat="46.0567" lon="7.02017">
        <ele>2035</ele>
        <time>2022-08-28T00:55:45Z</time>
      </trkpt>
      <trkpt lat="46.05671" lon="7.02014">
        <ele>2035</ele>
        <time>2022-08-28T00:55:47Z</time>
      </trkpt>
      <trkpt lat="46.05671" lon="7.02011">
        <ele>2034</ele>
        <time>2022-08-28T00:55:49Z</time>
      </trkpt>
      <trkpt lat="46.05673" lon="7.02008">
        <ele>2034</ele>
        <time>2022-08-28T00:55:51Z</time>
      </trkpt>
      <trkpt lat="46.05674" lon="7.02005">
        <ele>2033</ele>
        <time>2022-08-28T00:55:53Z</time>
      </trkpt>
      <trkpt lat="46.05675" lon="7.02002">
        <ele>2032</ele>
        <time>2022-08-28T00:55:56Z</time>
      </trkpt>
      <trkpt lat="46.05675" lon="7.01999">
        <ele>2031</ele>
        <time>2022-08-28T00:55:58Z</time>
      </trkpt>
      <trkpt lat="46.05676" lon="7.01996">
        <ele>2031</ele>
        <time>2022-08-28T00:56:01Z</time>
      </trkpt>
      <trkpt lat="46.05676" lon="7.01993">
        <ele>2029</ele>
        <time>2022-08-28T00:56:04Z</time>
      </trkpt>
      <trkpt lat="46.05676" lon="7.0199">
        <ele>2028</ele>
        <time>2022-08-28T00:56:06Z</time>
      </trkpt>
      <trkpt lat="46.05675" lon="7.01986">
        <ele>2028</ele>
        <time>2022-08-28T00:56:08Z</time>
      </trkpt>
      <trkpt lat="46.05674" lon="7.01982">
        <ele>2027</ele>
        <time>2022-08-28T00:56:10Z</time>
      </trkpt>
      <trkpt lat="46.05672" lon="7.0198">
        <ele>2027</ele>
        <time>2022-08-28T00:56:12Z</time>
      </trkpt>
      <trkpt lat="46.05671" lon="7.01978">
        <ele>2026</ele>
        <time>2022-08-28T00:56:14Z</time>
      </trkpt>
      <trkpt lat="46.05671" lon="7.01975">
        <ele>2026</ele>
        <time>2022-08-28T00:56:16Z</time>
      </trkpt>
      <trkpt lat="46.05669" lon="7.01972">
        <ele>2026</ele>
        <time>2022-08-28T00:56:18Z</time>
      </trkpt>
      <trkpt lat="46.05668" lon="7.0197">
        <ele>2026</ele>
        <time>2022-08-28T00:56:20Z</time>
      </trkpt>
      <trkpt lat="46.05669" lon="7.01967">
        <ele>2025</ele>
        <time>2022-08-28T00:56:23Z</time>
      </trkpt>
      <trkpt lat="46.05671" lon="7.01965">
        <ele>2025</ele>
        <time>2022-08-28T00:56:25Z</time>
      </trkpt>
      <trkpt lat="46.05673" lon="7.01963">
        <ele>2025</ele>
        <time>2022-08-28T00:56:27Z</time>
      </trkpt>
      <trkpt lat="46.05675" lon="7.01962">
        <ele>2025</ele>
        <time>2022-08-28T00:56:29Z</time>
      </trkpt>
      <trkpt lat="46.05676" lon="7.01959">
        <ele>2025</ele>
        <time>2022-08-28T00:56:31Z</time>
      </trkpt>
      <trkpt lat="46.05676" lon="7.01956">
        <ele>2023</ele>
        <time>2022-08-28T00:56:33Z</time>
      </trkpt>
      <trkpt lat="46.05677" lon="7.01953">
        <ele>2023</ele>
        <time>2022-08-28T00:56:35Z</time>
      </trkpt>
      <trkpt lat="46.05677" lon="7.01949">
        <ele>2021</ele>
        <time>2022-08-28T00:56:38Z</time>
      </trkpt>
      <trkpt lat="46.05677" lon="7.01945">
        <ele>2021</ele>
        <time>2022-08-28T00:56:40Z</time>
      </trkpt>
      <trkpt lat="46.05678" lon="7.01943">
        <ele>2020</ele>
        <time>2022-08-28T00:56:42Z</time>
      </trkpt>
      <trkpt lat="46.0568" lon="7.01941">
        <ele>2020</ele>
        <time>2022-08-28T00:56:44Z</time>
      </trkpt>
      <trkpt lat="46.05682" lon="7.01937">
        <ele>2020</ele>
        <time>2022-08-28T00:56:46Z</time>
      </trkpt>
      <trkpt lat="46.05684" lon="7.01934">
        <ele>2019</ele>
        <time>2022-08-28T00:56:48Z</time>
      </trkpt>
      <trkpt lat="46.05686" lon="7.0193">
        <ele>2019</ele>
        <time>2022-08-28T00:56:50Z</time>
      </trkpt>
      <trkpt lat="46.05687" lon="7.01928">
        <ele>2019</ele>
        <time>2022-08-28T00:56:52Z</time>
      </trkpt>
      <trkpt lat="46.05688" lon="7.01925">
        <ele>2018</ele>
        <time>2022-08-28T00:56:54Z</time>
      </trkpt>
      <trkpt lat="46.05688" lon="7.01921">
        <ele>2018</ele>
        <time>2022-08-28T00:56:56Z</time>
      </trkpt>
      <trkpt lat="46.05689" lon="7.01917">
        <ele>2018</ele>
        <time>2022-08-28T00:56:58Z</time>
      </trkpt>
      <trkpt lat="46.05691" lon="7.01913">
        <ele>2018</ele>
        <time>2022-08-28T00:57:00Z</time>
      </trkpt>
      <trkpt lat="46.05692" lon="7.01909">
        <ele>2017</ele>
        <time>2022-08-28T00:57:02Z</time>
      </trkpt>
      <trkpt lat="46.05695" lon="7.01907">
        <ele>2017</ele>
        <time>2022-08-28T00:57:04Z</time>
      </trkpt>
      <trkpt lat="46.05696" lon="7.01905">
        <ele>2017</ele>
        <time>2022-08-28T00:57:06Z</time>
      </trkpt>
      <trkpt lat="46.05697" lon="7.01902">
        <ele>2017</ele>
        <time>2022-08-28T00:57:09Z</time>
      </trkpt>
      <trkpt lat="46.057" lon="7.01902">
        <ele>2016</ele>
        <time>2022-08-28T00:57:11Z</time>
      </trkpt>
      <trkpt lat="46.05702" lon="7.01901">
        <ele>2016</ele>
        <time>2022-08-28T00:57:12Z</time>
      </trkpt>
      <trkpt lat="46.05703" lon="7.01901">
        <ele>2016</ele>
        <time>2022-08-28T00:57:13Z</time>
      </trkpt>
      <trkpt lat="46.05704" lon="7.019">
        <ele>2016</ele>
        <time>2022-08-28T00:57:14Z</time>
      </trkpt>
      <trkpt lat="46.05705" lon="7.019">
        <ele>2016</ele>
        <time>2022-08-28T00:57:15Z</time>
      </trkpt>
      <trkpt lat="46.05706" lon="7.01898">
        <ele>2016</ele>
        <time>2022-08-28T00:57:16Z</time>
      </trkpt>
      <trkpt lat="46.05707" lon="7.01896">
        <ele>2015</ele>
        <time>2022-08-28T00:57:17Z</time>
      </trkpt>
      <trkpt lat="46.05708" lon="7.01895">
        <ele>2015</ele>
        <time>2022-08-28T00:57:18Z</time>
      </trkpt>
      <trkpt lat="46.0571" lon="7.01893">
        <ele>2015</ele>
        <time>2022-08-28T00:57:20Z</time>
      </trkpt>
      <trkpt lat="46.05711" lon="7.0189">
        <ele>2015</ele>
        <time>2022-08-28T00:57:23Z</time>
      </trkpt>
      <trkpt lat="46.05712" lon="7.01888">
        <ele>2015</ele>
        <time>2022-08-28T00:57:25Z</time>
      </trkpt>
      <trkpt lat="46.05714" lon="7.01885">
        <ele>2015</ele>
        <time>2022-08-28T00:57:27Z</time>
      </trkpt>
      <trkpt lat="46.05716" lon="7.01883">
        <ele>2015</ele>
        <time>2022-08-28T00:57:29Z</time>
      </trkpt>
      <trkpt lat="46.05719" lon="7.0188">
        <ele>2015</ele>
        <time>2022-08-28T00:57:31Z</time>
      </trkpt>
      <trkpt lat="46.0572" lon="7.01877">
        <ele>2015</ele>
        <time>2022-08-28T00:57:33Z</time>
      </trkpt>
      <trkpt lat="46.0572" lon="7.01874">
        <ele>2014</ele>
        <time>2022-08-28T00:57:35Z</time>
      </trkpt>
      <trkpt lat="46.0572" lon="7.0187">
        <ele>2012</ele>
        <time>2022-08-28T00:57:37Z</time>
      </trkpt>
      <trkpt lat="46.05721" lon="7.01868">
        <ele>2012</ele>
        <time>2022-08-28T00:57:39Z</time>
      </trkpt>
      <trkpt lat="46.05722" lon="7.01866">
        <ele>2012</ele>
        <time>2022-08-28T00:57:41Z</time>
      </trkpt>
      <trkpt lat="46.05724" lon="7.01863">
        <ele>2010</ele>
        <time>2022-08-28T00:57:44Z</time>
      </trkpt>
      <trkpt lat="46.05724" lon="7.0186">
        <ele>2010</ele>
        <time>2022-08-28T00:57:46Z</time>
      </trkpt>
      <trkpt lat="46.05725" lon="7.01857">
        <ele>2010</ele>
        <time>2022-08-28T00:57:48Z</time>
      </trkpt>
      <trkpt lat="46.05727" lon="7.01854">
        <ele>2009</ele>
        <time>2022-08-28T00:57:50Z</time>
      </trkpt>
      <trkpt lat="46.05727" lon="7.01852">
        <ele>2008</ele>
        <time>2022-08-28T00:57:52Z</time>
      </trkpt>
      <trkpt lat="46.05728" lon="7.01849">
        <ele>2008</ele>
        <time>2022-08-28T00:57:54Z</time>
      </trkpt>
      <trkpt lat="46.0573" lon="7.01846">
        <ele>2007</ele>
        <time>2022-08-28T00:57:56Z</time>
      </trkpt>
      <trkpt lat="46.0573" lon="7.01844">
        <ele>2007</ele>
        <time>2022-08-28T00:57:58Z</time>
      </trkpt>
      <trkpt lat="46.05731" lon="7.01841">
        <ele>2006</ele>
        <time>2022-08-28T00:58:00Z</time>
      </trkpt>
      <trkpt lat="46.05733" lon="7.01838">
        <ele>2005</ele>
        <time>2022-08-28T00:58:02Z</time>
      </trkpt>
      <trkpt lat="46.05735" lon="7.01836">
        <ele>2005</ele>
        <time>2022-08-28T00:58:04Z</time>
      </trkpt>
      <trkpt lat="46.05736" lon="7.01832">
        <ele>2005</ele>
        <time>2022-08-28T00:58:06Z</time>
      </trkpt>
      <trkpt lat="46.05737" lon="7.01828">
        <ele>2005</ele>
        <time>2022-08-28T00:58:08Z</time>
      </trkpt>
      <trkpt lat="46.05736" lon="7.01825">
        <ele>2005</ele>
        <time>2022-08-28T00:58:10Z</time>
      </trkpt>
      <trkpt lat="46.05735" lon="7.01821">
        <ele>2004</ele>
        <time>2022-08-28T00:58:12Z</time>
      </trkpt>
      <trkpt lat="46.05737" lon="7.01818">
        <ele>2004</ele>
        <time>2022-08-28T00:58:14Z</time>
      </trkpt>
      <trkpt lat="46.05737" lon="7.01814">
        <ele>2004</ele>
        <time>2022-08-28T00:58:16Z</time>
      </trkpt>
      <trkpt lat="46.05737" lon="7.01811">
        <ele>2003</ele>
        <time>2022-08-28T00:58:18Z</time>
      </trkpt>
      <trkpt lat="46.05737" lon="7.01808">
        <ele>2002</ele>
        <time>2022-08-28T00:58:20Z</time>
      </trkpt>
      <trkpt lat="46.05737" lon="7.01805">
        <ele>2002</ele>
        <time>2022-08-28T00:58:22Z</time>
      </trkpt>
      <trkpt lat="46.05738" lon="7.01801">
        <ele>2001</ele>
        <time>2022-08-28T00:58:25Z</time>
      </trkpt>
      <trkpt lat="46.05738" lon="7.01797">
        <ele>2000</ele>
        <time>2022-08-28T00:58:28Z</time>
      </trkpt>
      <trkpt lat="46.05739" lon="7.01794">
        <ele>2000</ele>
        <time>2022-08-28T00:58:30Z</time>
      </trkpt>
      <trkpt lat="46.05739" lon="7.01789">
        <ele>1999</ele>
        <time>2022-08-28T00:58:32Z</time>
      </trkpt>
      <trkpt lat="46.05739" lon="7.01786">
        <ele>1999</ele>
        <time>2022-08-28T00:58:34Z</time>
      </trkpt>
      <trkpt lat="46.05739" lon="7.01783">
        <ele>1999</ele>
        <time>2022-08-28T00:58:36Z</time>
      </trkpt>
      <trkpt lat="46.05737" lon="7.01779">
        <ele>1999</ele>
        <time>2022-08-28T00:58:38Z</time>
      </trkpt>
      <trkpt lat="46.05735" lon="7.01775">
        <ele>1999</ele>
        <time>2022-08-28T00:58:40Z</time>
      </trkpt>
      <trkpt lat="46.05735" lon="7.01771">
        <ele>1999</ele>
        <time>2022-08-28T00:58:42Z</time>
      </trkpt>
      <trkpt lat="46.05735" lon="7.01767">
        <ele>1998</ele>
        <time>2022-08-28T00:58:44Z</time>
      </trkpt>
      <trkpt lat="46.05735" lon="7.01763">
        <ele>1997</ele>
        <time>2022-08-28T00:58:46Z</time>
      </trkpt>
      <trkpt lat="46.05735" lon="7.01758">
        <ele>1997</ele>
        <time>2022-08-28T00:58:48Z</time>
      </trkpt>
      <trkpt lat="46.05735" lon="7.01755">
        <ele>1997</ele>
        <time>2022-08-28T00:58:49Z</time>
      </trkpt>
      <trkpt lat="46.05736" lon="7.01753">
        <ele>1997</ele>
        <time>2022-08-28T00:58:50Z</time>
      </trkpt>
      <trkpt lat="46.05736" lon="7.0175">
        <ele>1997</ele>
        <time>2022-08-28T00:58:51Z</time>
      </trkpt>
      <trkpt lat="46.05736" lon="7.01748">
        <ele>1996</ele>
        <time>2022-08-28T00:58:52Z</time>
      </trkpt>
      <trkpt lat="46.05737" lon="7.01742">
        <ele>1996</ele>
        <time>2022-08-28T00:58:54Z</time>
      </trkpt>
      <trkpt lat="46.05737" lon="7.01738">
        <ele>1996</ele>
        <time>2022-08-28T00:58:56Z</time>
      </trkpt>
      <trkpt lat="46.05736" lon="7.01734">
        <ele>1996</ele>
        <time>2022-08-28T00:58:58Z</time>
      </trkpt>
      <trkpt lat="46.05737" lon="7.01731">
        <ele>1995</ele>
        <time>2022-08-28T00:59:00Z</time>
      </trkpt>
      <trkpt lat="46.05737" lon="7.01727">
        <ele>1995</ele>
        <time>2022-08-28T00:59:02Z</time>
      </trkpt>
      <trkpt lat="46.05736" lon="7.01722">
        <ele>1994</ele>
        <time>2022-08-28T00:59:04Z</time>
      </trkpt>
      <trkpt lat="46.05736" lon="7.01717">
        <ele>1994</ele>
        <time>2022-08-28T00:59:06Z</time>
      </trkpt>
      <trkpt lat="46.05736" lon="7.01714">
        <ele>1993</ele>
        <time>2022-08-28T00:59:08Z</time>
      </trkpt>
      <trkpt lat="46.05736" lon="7.01711">
        <ele>1993</ele>
        <time>2022-08-28T00:59:11Z</time>
      </trkpt>
      <trkpt lat="46.05737" lon="7.01708">
        <ele>1993</ele>
        <time>2022-08-28T00:59:14Z</time>
      </trkpt>
      <trkpt lat="46.05739" lon="7.01706">
        <ele>1991</ele>
        <time>2022-08-28T00:59:18Z</time>
      </trkpt>
      <trkpt lat="46.05741" lon="7.01704">
        <ele>1991</ele>
        <time>2022-08-28T00:59:20Z</time>
      </trkpt>
      <trkpt lat="46.05743" lon="7.01702">
        <ele>1991</ele>
        <time>2022-08-28T00:59:22Z</time>
      </trkpt>
      <trkpt lat="46.05743" lon="7.01699">
        <ele>1991</ele>
        <time>2022-08-28T00:59:24Z</time>
      </trkpt>
      <trkpt lat="46.05743" lon="7.01695">
        <ele>1989</ele>
        <time>2022-08-28T00:59:27Z</time>
      </trkpt>
      <trkpt lat="46.05741" lon="7.01692">
        <ele>1988</ele>
        <time>2022-08-28T00:59:29Z</time>
      </trkpt>
      <trkpt lat="46.0574" lon="7.01688">
        <ele>1988</ele>
        <time>2022-08-28T00:59:31Z</time>
      </trkpt>
      <trkpt lat="46.05739" lon="7.01684">
        <ele>1986</ele>
        <time>2022-08-28T00:59:33Z</time>
      </trkpt>
      <trkpt lat="46.05739" lon="7.0168">
        <ele>1986</ele>
        <time>2022-08-28T00:59:35Z</time>
      </trkpt>
      <trkpt lat="46.05734" lon="7.01668">
        <ele>1985</ele>
        <time>2022-08-28T00:59:40Z</time>
      </trkpt>
      <trkpt lat="46.0573" lon="7.01654">
        <ele>1985</ele>
        <time>2022-08-28T00:59:47Z</time>
      </trkpt>
      <trkpt lat="46.0573" lon="7.01652">
        <ele>1985</ele>
        <time>2022-08-28T00:59:49Z</time>
      </trkpt>
      <trkpt lat="46.0573" lon="7.01649">
        <ele>1985</ele>
        <time>2022-08-28T00:59:50Z</time>
      </trkpt>
      <trkpt lat="46.05731" lon="7.01647">
        <ele>1985</ele>
        <time>2022-08-28T00:59:52Z</time>
      </trkpt>
      <trkpt lat="46.05731" lon="7.01644">
        <ele>1985</ele>
        <time>2022-08-28T00:59:53Z</time>
      </trkpt>
      <trkpt lat="46.05732" lon="7.01641">
        <ele>1985</ele>
        <time>2022-08-28T00:59:54Z</time>
      </trkpt>
      <trkpt lat="46.05733" lon="7.01638">
        <ele>1984</ele>
        <time>2022-08-28T00:59:55Z</time>
      </trkpt>
      <trkpt lat="46.05734" lon="7.01634">
        <ele>1984</ele>
        <time>2022-08-28T00:59:58Z</time>
      </trkpt>
      <trkpt lat="46.05734" lon="7.01631">
        <ele>1984</ele>
        <time>2022-08-28T01:00:00Z</time>
      </trkpt>
      <trkpt lat="46.05734" lon="7.01628">
        <ele>1984</ele>
        <time>2022-08-28T01:00:02Z</time>
      </trkpt>
      <trkpt lat="46.05734" lon="7.01624">
        <ele>1984</ele>
        <time>2022-08-28T01:00:04Z</time>
      </trkpt>
      <trkpt lat="46.05735" lon="7.0162">
        <ele>1984</ele>
        <time>2022-08-28T01:00:06Z</time>
      </trkpt>
      <trkpt lat="46.05735" lon="7.01616">
        <ele>1984</ele>
        <time>2022-08-28T01:00:08Z</time>
      </trkpt>
      <trkpt lat="46.05734" lon="7.01613">
        <ele>1984</ele>
        <time>2022-08-28T01:00:10Z</time>
      </trkpt>
      <trkpt lat="46.05734" lon="7.01609">
        <ele>1984</ele>
        <time>2022-08-28T01:00:12Z</time>
      </trkpt>
      <trkpt lat="46.05734" lon="7.01606">
        <ele>1983</ele>
        <time>2022-08-28T01:00:14Z</time>
      </trkpt>
      <trkpt lat="46.05735" lon="7.01603">
        <ele>1983</ele>
        <time>2022-08-28T01:00:16Z</time>
      </trkpt>
      <trkpt lat="46.05734" lon="7.01599">
        <ele>1983</ele>
        <time>2022-08-28T01:00:18Z</time>
      </trkpt>
      <trkpt lat="46.05734" lon="7.01596">
        <ele>1983</ele>
        <time>2022-08-28T01:00:20Z</time>
      </trkpt>
      <trkpt lat="46.05734" lon="7.01592">
        <ele>1983</ele>
        <time>2022-08-28T01:00:23Z</time>
      </trkpt>
      <trkpt lat="46.05732" lon="7.0159">
        <ele>1984</ele>
        <time>2022-08-28T01:00:25Z</time>
      </trkpt>
      <trkpt lat="46.05732" lon="7.01587">
        <ele>1983</ele>
        <time>2022-08-28T01:00:27Z</time>
      </trkpt>
      <trkpt lat="46.05732" lon="7.01584">
        <ele>1983</ele>
        <time>2022-08-28T01:00:29Z</time>
      </trkpt>
      <trkpt lat="46.05733" lon="7.01582">
        <ele>1982</ele>
        <time>2022-08-28T01:00:31Z</time>
      </trkpt>
      <trkpt lat="46.05732" lon="7.01578">
        <ele>1980</ele>
        <time>2022-08-28T01:00:34Z</time>
      </trkpt>
      <trkpt lat="46.05732" lon="7.01575">
        <ele>1980</ele>
        <time>2022-08-28T01:00:37Z</time>
      </trkpt>
      <trkpt lat="46.0573" lon="7.01573">
        <ele>1978</ele>
        <time>2022-08-28T01:00:39Z</time>
      </trkpt>
      <trkpt lat="46.0573" lon="7.0157">
        <ele>1979</ele>
        <time>2022-08-28T01:00:41Z</time>
      </trkpt>
      <trkpt lat="46.05729" lon="7.01567">
        <ele>1978</ele>
        <time>2022-08-28T01:00:43Z</time>
      </trkpt>
      <trkpt lat="46.05727" lon="7.01564">
        <ele>1977</ele>
        <time>2022-08-28T01:00:46Z</time>
      </trkpt>
      <trkpt lat="46.05726" lon="7.01561">
        <ele>1977</ele>
        <time>2022-08-28T01:00:48Z</time>
      </trkpt>
      <trkpt lat="46.05726" lon="7.01558">
        <ele>1976</ele>
        <time>2022-08-28T01:00:50Z</time>
      </trkpt>
      <trkpt lat="46.05724" lon="7.01554">
        <ele>1976</ele>
        <time>2022-08-28T01:00:52Z</time>
      </trkpt>
      <trkpt lat="46.05722" lon="7.01552">
        <ele>1975</ele>
        <time>2022-08-28T01:00:53Z</time>
      </trkpt>
      <trkpt lat="46.0572" lon="7.01549">
        <ele>1975</ele>
        <time>2022-08-28T01:00:55Z</time>
      </trkpt>
      <trkpt lat="46.05718" lon="7.01546">
        <ele>1975</ele>
        <time>2022-08-28T01:00:57Z</time>
      </trkpt>
      <trkpt lat="46.05717" lon="7.01543">
        <ele>1974</ele>
        <time>2022-08-28T01:00:59Z</time>
      </trkpt>
      <trkpt lat="46.05716" lon="7.01541">
        <ele>1973</ele>
        <time>2022-08-28T01:01:01Z</time>
      </trkpt>
      <trkpt lat="46.05716" lon="7.01538">
        <ele>1972</ele>
        <time>2022-08-28T01:01:02Z</time>
      </trkpt>
      <trkpt lat="46.05716" lon="7.01535">
        <ele>1972</ele>
        <time>2022-08-28T01:01:03Z</time>
      </trkpt>
      <trkpt lat="46.05716" lon="7.01533">
        <ele>1971</ele>
        <time>2022-08-28T01:01:04Z</time>
      </trkpt>
      <trkpt lat="46.05716" lon="7.0153">
        <ele>1971</ele>
        <time>2022-08-28T01:01:05Z</time>
      </trkpt>
      <trkpt lat="46.05715" lon="7.01526">
        <ele>1970</ele>
        <time>2022-08-28T01:01:07Z</time>
      </trkpt>
      <trkpt lat="46.05715" lon="7.01522">
        <ele>1970</ele>
        <time>2022-08-28T01:01:09Z</time>
      </trkpt>
      <trkpt lat="46.05716" lon="7.0152">
        <ele>1970</ele>
        <time>2022-08-28T01:01:11Z</time>
      </trkpt>
      <trkpt lat="46.05716" lon="7.01517">
        <ele>1970</ele>
        <time>2022-08-28T01:01:13Z</time>
      </trkpt>
      <trkpt lat="46.05718" lon="7.01514">
        <ele>1970</ele>
        <time>2022-08-28T01:01:15Z</time>
      </trkpt>
      <trkpt lat="46.0572" lon="7.01512">
        <ele>1970</ele>
        <time>2022-08-28T01:01:17Z</time>
      </trkpt>
      <trkpt lat="46.05721" lon="7.01509">
        <ele>1970</ele>
        <time>2022-08-28T01:01:19Z</time>
      </trkpt>
      <trkpt lat="46.05721" lon="7.01506">
        <ele>1970</ele>
        <time>2022-08-28T01:01:21Z</time>
      </trkpt>
      <trkpt lat="46.0572" lon="7.01502">
        <ele>1971</ele>
        <time>2022-08-28T01:01:23Z</time>
      </trkpt>
      <trkpt lat="46.0572" lon="7.01498">
        <ele>1971</ele>
        <time>2022-08-28T01:01:25Z</time>
      </trkpt>
      <trkpt lat="46.05719" lon="7.01495">
        <ele>1971</ele>
        <time>2022-08-28T01:01:27Z</time>
      </trkpt>
      <trkpt lat="46.05718" lon="7.01491">
        <ele>1970</ele>
        <time>2022-08-28T01:01:29Z</time>
      </trkpt>
      <trkpt lat="46.05717" lon="7.01488">
        <ele>1971</ele>
        <time>2022-08-28T01:01:31Z</time>
      </trkpt>
      <trkpt lat="46.05716" lon="7.01486">
        <ele>1971</ele>
        <time>2022-08-28T01:01:33Z</time>
      </trkpt>
      <trkpt lat="46.05715" lon="7.01483">
        <ele>1972</ele>
        <time>2022-08-28T01:01:36Z</time>
      </trkpt>
      <trkpt lat="46.05713" lon="7.0148">
        <ele>1972</ele>
        <time>2022-08-28T01:01:39Z</time>
      </trkpt>
      <trkpt lat="46.05712" lon="7.01477">
        <ele>1972</ele>
        <time>2022-08-28T01:01:42Z</time>
      </trkpt>
      <trkpt lat="46.05712" lon="7.01474">
        <ele>1972</ele>
        <time>2022-08-28T01:01:44Z</time>
      </trkpt>
      <trkpt lat="46.0571" lon="7.0147">
        <ele>1971</ele>
        <time>2022-08-28T01:01:46Z</time>
      </trkpt>
      <trkpt lat="46.05708" lon="7.01468">
        <ele>1970</ele>
        <time>2022-08-28T01:01:48Z</time>
      </trkpt>
      <trkpt lat="46.05706" lon="7.01466">
        <ele>1970</ele>
        <time>2022-08-28T01:01:50Z</time>
      </trkpt>
      <trkpt lat="46.05704" lon="7.01463">
        <ele>1970</ele>
        <time>2022-08-28T01:01:52Z</time>
      </trkpt>
      <trkpt lat="46.05702" lon="7.0146">
        <ele>1970</ele>
        <time>2022-08-28T01:01:54Z</time>
      </trkpt>
      <trkpt lat="46.05701" lon="7.01456">
        <ele>1968</ele>
        <time>2022-08-28T01:01:56Z</time>
      </trkpt>
      <trkpt lat="46.057" lon="7.01452">
        <ele>1968</ele>
        <time>2022-08-28T01:01:58Z</time>
      </trkpt>
      <trkpt lat="46.05699" lon="7.01448">
        <ele>1967</ele>
        <time>2022-08-28T01:02:00Z</time>
      </trkpt>
      <trkpt lat="46.05699" lon="7.01444">
        <ele>1967</ele>
        <time>2022-08-28T01:02:02Z</time>
      </trkpt>
      <trkpt lat="46.057" lon="7.01442">
        <ele>1967</ele>
        <time>2022-08-28T01:02:04Z</time>
      </trkpt>
      <trkpt lat="46.05702" lon="7.01441">
        <ele>1967</ele>
        <time>2022-08-28T01:02:06Z</time>
      </trkpt>
      <trkpt lat="46.05704" lon="7.01439">
        <ele>1967</ele>
        <time>2022-08-28T01:02:08Z</time>
      </trkpt>
      <trkpt lat="46.05705" lon="7.01437">
        <ele>1967</ele>
        <time>2022-08-28T01:02:10Z</time>
      </trkpt>
      <trkpt lat="46.05707" lon="7.01438">
        <ele>1966</ele>
        <time>2022-08-28T01:02:15Z</time>
      </trkpt>
      <trkpt lat="46.05709" lon="7.0144">
        <ele>1965</ele>
        <time>2022-08-28T01:02:19Z</time>
      </trkpt>
      <trkpt lat="46.05711" lon="7.01438">
        <ele>1965</ele>
        <time>2022-08-28T01:02:23Z</time>
      </trkpt>
      <trkpt lat="46.05714" lon="7.01437">
        <ele>1964</ele>
        <time>2022-08-28T01:02:25Z</time>
      </trkpt>
      <trkpt lat="46.05717" lon="7.01434">
        <ele>1963</ele>
        <time>2022-08-28T01:02:27Z</time>
      </trkpt>
      <trkpt lat="46.05719" lon="7.01432">
        <ele>1962</ele>
        <time>2022-08-28T01:02:29Z</time>
      </trkpt>
      <trkpt lat="46.05721" lon="7.01429">
        <ele>1962</ele>
        <time>2022-08-28T01:02:31Z</time>
      </trkpt>
      <trkpt lat="46.05722" lon="7.01427">
        <ele>1959</ele>
        <time>2022-08-28T01:02:33Z</time>
      </trkpt>
      <trkpt lat="46.05723" lon="7.01423">
        <ele>1960</ele>
        <time>2022-08-28T01:02:36Z</time>
      </trkpt>
      <trkpt lat="46.05725" lon="7.01421">
        <ele>1959</ele>
        <time>2022-08-28T01:02:38Z</time>
      </trkpt>
      <trkpt lat="46.05727" lon="7.01417">
        <ele>1959</ele>
        <time>2022-08-28T01:02:40Z</time>
      </trkpt>
      <trkpt lat="46.05729" lon="7.01415">
        <ele>1958</ele>
        <time>2022-08-28T01:02:42Z</time>
      </trkpt>
      <trkpt lat="46.05731" lon="7.01413">
        <ele>1958</ele>
        <time>2022-08-28T01:02:44Z</time>
      </trkpt>
      <trkpt lat="46.05732" lon="7.0141">
        <ele>1958</ele>
        <time>2022-08-28T01:02:46Z</time>
      </trkpt>
      <trkpt lat="46.05733" lon="7.01407">
        <ele>1958</ele>
        <time>2022-08-28T01:02:48Z</time>
      </trkpt>
      <trkpt lat="46.05734" lon="7.01403">
        <ele>1959</ele>
        <time>2022-08-28T01:02:51Z</time>
      </trkpt>
      <trkpt lat="46.05735" lon="7.01401">
        <ele>1959</ele>
        <time>2022-08-28T01:02:53Z</time>
      </trkpt>
      <trkpt lat="46.05735" lon="7.01398">
        <ele>1959</ele>
        <time>2022-08-28T01:02:55Z</time>
      </trkpt>
      <trkpt lat="46.05735" lon="7.01394">
        <ele>1960</ele>
        <time>2022-08-28T01:02:57Z</time>
      </trkpt>
      <trkpt lat="46.05736" lon="7.01392">
        <ele>1960</ele>
        <time>2022-08-28T01:02:59Z</time>
      </trkpt>
      <trkpt lat="46.05737" lon="7.01388">
        <ele>1960</ele>
        <time>2022-08-28T01:03:01Z</time>
      </trkpt>
      <trkpt lat="46.05738" lon="7.01386">
        <ele>1960</ele>
        <time>2022-08-28T01:03:03Z</time>
      </trkpt>
      <trkpt lat="46.05739" lon="7.01383">
        <ele>1960</ele>
        <time>2022-08-28T01:03:05Z</time>
      </trkpt>
      <trkpt lat="46.0574" lon="7.0138">
        <ele>1960</ele>
        <time>2022-08-28T01:03:07Z</time>
      </trkpt>
      <trkpt lat="46.0574" lon="7.01376">
        <ele>1962</ele>
        <time>2022-08-28T01:03:09Z</time>
      </trkpt>
      <trkpt lat="46.05739" lon="7.01372">
        <ele>1962</ele>
        <time>2022-08-28T01:03:11Z</time>
      </trkpt>
      <trkpt lat="46.0574" lon="7.01369">
        <ele>1962</ele>
        <time>2022-08-28T01:03:13Z</time>
      </trkpt>
      <trkpt lat="46.0574" lon="7.01366">
        <ele>1962</ele>
        <time>2022-08-28T01:03:15Z</time>
      </trkpt>
      <trkpt lat="46.05741" lon="7.01362">
        <ele>1962</ele>
        <time>2022-08-28T01:03:17Z</time>
      </trkpt>
      <trkpt lat="46.05741" lon="7.01359">
        <ele>1962</ele>
        <time>2022-08-28T01:03:19Z</time>
      </trkpt>
      <trkpt lat="46.05741" lon="7.01356">
        <ele>1962</ele>
        <time>2022-08-28T01:03:21Z</time>
      </trkpt>
      <trkpt lat="46.05741" lon="7.01353">
        <ele>1960</ele>
        <time>2022-08-28T01:03:23Z</time>
      </trkpt>
      <trkpt lat="46.0574" lon="7.01349">
        <ele>1960</ele>
        <time>2022-08-28T01:03:25Z</time>
      </trkpt>
      <trkpt lat="46.05739" lon="7.01345">
        <ele>1960</ele>
        <time>2022-08-28T01:03:27Z</time>
      </trkpt>
      <trkpt lat="46.05738" lon="7.01342">
        <ele>1960</ele>
        <time>2022-08-28T01:03:29Z</time>
      </trkpt>
      <trkpt lat="46.05738" lon="7.01338">
        <ele>1960</ele>
        <time>2022-08-28T01:03:31Z</time>
      </trkpt>
      <trkpt lat="46.05739" lon="7.01336">
        <ele>1962</ele>
        <time>2022-08-28T01:03:33Z</time>
      </trkpt>
      <trkpt lat="46.0574" lon="7.01333">
        <ele>1962</ele>
        <time>2022-08-28T01:03:35Z</time>
      </trkpt>
      <trkpt lat="46.05741" lon="7.01331">
        <ele>1963</ele>
        <time>2022-08-28T01:03:38Z</time>
      </trkpt>
      <trkpt lat="46.05742" lon="7.01328">
        <ele>1963</ele>
        <time>2022-08-28T01:03:40Z</time>
      </trkpt>
      <trkpt lat="46.05742" lon="7.01326">
        <ele>1964</ele>
        <time>2022-08-28T01:03:42Z</time>
      </trkpt>
      <trkpt lat="46.05742" lon="7.01322">
        <ele>1964</ele>
        <time>2022-08-28T01:03:44Z</time>
      </trkpt>
      <trkpt lat="46.05742" lon="7.01319">
        <ele>1964</ele>
        <time>2022-08-28T01:03:47Z</time>
      </trkpt>
      <trkpt lat="46.05742" lon="7.01315">
        <ele>1964</ele>
        <time>2022-08-28T01:03:50Z</time>
      </trkpt>
      <trkpt lat="46.05742" lon="7.01312">
        <ele>1966</ele>
        <time>2022-08-28T01:03:53Z</time>
      </trkpt>
      <trkpt lat="46.05742" lon="7.01308">
        <ele>1966</ele>
        <time>2022-08-28T01:03:56Z</time>
      </trkpt>
      <trkpt lat="46.05742" lon="7.01305">
        <ele>1966</ele>
        <time>2022-08-28T01:03:58Z</time>
      </trkpt>
      <trkpt lat="46.05742" lon="7.01302">
        <ele>1966</ele>
        <time>2022-08-28T01:04:00Z</time>
      </trkpt>
      <trkpt lat="46.05742" lon="7.01299">
        <ele>1966</ele>
        <time>2022-08-28T01:04:02Z</time>
      </trkpt>
      <trkpt lat="46.05741" lon="7.01297">
        <ele>1966</ele>
        <time>2022-08-28T01:04:04Z</time>
      </trkpt>
      <trkpt lat="46.05741" lon="7.01294">
        <ele>1967</ele>
        <time>2022-08-28T01:04:06Z</time>
      </trkpt>
      <trkpt lat="46.0574" lon="7.0129">
        <ele>1967</ele>
        <time>2022-08-28T01:04:09Z</time>
      </trkpt>
      <trkpt lat="46.05741" lon="7.01286">
        <ele>1967</ele>
        <time>2022-08-28T01:04:11Z</time>
      </trkpt>
      <trkpt lat="46.0574" lon="7.01282">
        <ele>1967</ele>
        <time>2022-08-28T01:04:13Z</time>
      </trkpt>
      <trkpt lat="46.0574" lon="7.01279">
        <ele>1966</ele>
        <time>2022-08-28T01:04:15Z</time>
      </trkpt>
      <trkpt lat="46.0574" lon="7.01275">
        <ele>1966</ele>
        <time>2022-08-28T01:04:17Z</time>
      </trkpt>
      <trkpt lat="46.05739" lon="7.01271">
        <ele>1966</ele>
        <time>2022-08-28T01:04:19Z</time>
      </trkpt>
      <trkpt lat="46.05738" lon="7.01267">
        <ele>1965</ele>
        <time>2022-08-28T01:04:21Z</time>
      </trkpt>
      <trkpt lat="46.05737" lon="7.01263">
        <ele>1964</ele>
        <time>2022-08-28T01:04:23Z</time>
      </trkpt>
      <trkpt lat="46.05737" lon="7.0126">
        <ele>1964</ele>
        <time>2022-08-28T01:04:25Z</time>
      </trkpt>
      <trkpt lat="46.05737" lon="7.01256">
        <ele>1962</ele>
        <time>2022-08-28T01:04:27Z</time>
      </trkpt>
      <trkpt lat="46.05737" lon="7.01253">
        <ele>1962</ele>
        <time>2022-08-28T01:04:29Z</time>
      </trkpt>
      <trkpt lat="46.05737" lon="7.01249">
        <ele>1962</ele>
        <time>2022-08-28T01:04:31Z</time>
      </trkpt>
      <trkpt lat="46.05737" lon="7.01246">
        <ele>1960</ele>
        <time>2022-08-28T01:04:33Z</time>
      </trkpt>
      <trkpt lat="46.05736" lon="7.01242">
        <ele>1959</ele>
        <time>2022-08-28T01:04:36Z</time>
      </trkpt>
      <trkpt lat="46.05735" lon="7.0124">
        <ele>1958</ele>
        <time>2022-08-28T01:04:38Z</time>
      </trkpt>
      <trkpt lat="46.05734" lon="7.01236">
        <ele>1957</ele>
        <time>2022-08-28T01:04:41Z</time>
      </trkpt>
      <trkpt lat="46.05733" lon="7.01232">
        <ele>1957</ele>
        <time>2022-08-28T01:04:43Z</time>
      </trkpt>
      <trkpt lat="46.05732" lon="7.01229">
        <ele>1956</ele>
        <time>2022-08-28T01:04:45Z</time>
      </trkpt>
      <trkpt lat="46.0573" lon="7.01225">
        <ele>1955</ele>
        <time>2022-08-28T01:04:47Z</time>
      </trkpt>
      <trkpt lat="46.05728" lon="7.01221">
        <ele>1955</ele>
        <time>2022-08-28T01:04:49Z</time>
      </trkpt>
      <trkpt lat="46.05726" lon="7.01217">
        <ele>1955</ele>
        <time>2022-08-28T01:04:51Z</time>
      </trkpt>
      <trkpt lat="46.05724" lon="7.01215">
        <ele>1955</ele>
        <time>2022-08-28T01:04:53Z</time>
      </trkpt>
      <trkpt lat="46.05723" lon="7.01212">
        <ele>1953</ele>
        <time>2022-08-28T01:04:56Z</time>
      </trkpt>
      <trkpt lat="46.05723" lon="7.01209">
        <ele>1953</ele>
        <time>2022-08-28T01:04:58Z</time>
      </trkpt>
      <trkpt lat="46.05722" lon="7.01206">
        <ele>1953</ele>
        <time>2022-08-28T01:05:00Z</time>
      </trkpt>
      <trkpt lat="46.05722" lon="7.01203">
        <ele>1953</ele>
        <time>2022-08-28T01:05:02Z</time>
      </trkpt>
      <trkpt lat="46.05721" lon="7.012">
        <ele>1953</ele>
        <time>2022-08-28T01:05:04Z</time>
      </trkpt>
      <trkpt lat="46.05721" lon="7.01196">
        <ele>1951</ele>
        <time>2022-08-28T01:05:06Z</time>
      </trkpt>
      <trkpt lat="46.05721" lon="7.01193">
        <ele>1952</ele>
        <time>2022-08-28T01:05:08Z</time>
      </trkpt>
      <trkpt lat="46.05721" lon="7.01189">
        <ele>1951</ele>
        <time>2022-08-28T01:05:11Z</time>
      </trkpt>
      <trkpt lat="46.05721" lon="7.01186">
        <ele>1950</ele>
        <time>2022-08-28T01:05:14Z</time>
      </trkpt>
      <trkpt lat="46.0572" lon="7.01183">
        <ele>1950</ele>
        <time>2022-08-28T01:05:16Z</time>
      </trkpt>
      <trkpt lat="46.0572" lon="7.0118">
        <ele>1948</ele>
        <time>2022-08-28T01:05:19Z</time>
      </trkpt>
      <trkpt lat="46.0572" lon="7.01177">
        <ele>1948</ele>
        <time>2022-08-28T01:05:22Z</time>
      </trkpt>
      <trkpt lat="46.0572" lon="7.01174">
        <ele>1946</ele>
        <time>2022-08-28T01:05:24Z</time>
      </trkpt>
      <trkpt lat="46.05719" lon="7.01172">
        <ele>1946</ele>
        <time>2022-08-28T01:05:26Z</time>
      </trkpt>
      <trkpt lat="46.0572" lon="7.01169">
        <ele>1946</ele>
        <time>2022-08-28T01:05:28Z</time>
      </trkpt>
      <trkpt lat="46.0572" lon="7.01166">
        <ele>1945</ele>
        <time>2022-08-28T01:05:31Z</time>
      </trkpt>
      <trkpt lat="46.0572" lon="7.01163">
        <ele>1944</ele>
        <time>2022-08-28T01:05:33Z</time>
      </trkpt>
      <trkpt lat="46.05721" lon="7.0116">
        <ele>1943</ele>
        <time>2022-08-28T01:05:36Z</time>
      </trkpt>
      <trkpt lat="46.05723" lon="7.01157">
        <ele>1943</ele>
        <time>2022-08-28T01:05:38Z</time>
      </trkpt>
      <trkpt lat="46.05725" lon="7.01157">
        <ele>1942</ele>
        <time>2022-08-28T01:05:41Z</time>
      </trkpt>
      <trkpt lat="46.05725" lon="7.01153">
        <ele>1937</ele>
        <time>2022-08-28T01:05:56Z</time>
      </trkpt>
      <trkpt lat="46.05726" lon="7.01151">
        <ele>1937</ele>
        <time>2022-08-28T01:06:00Z</time>
      </trkpt>
      <trkpt lat="46.05727" lon="7.01148">
        <ele>1935</ele>
        <time>2022-08-28T01:06:03Z</time>
      </trkpt>
      <trkpt lat="46.05727" lon="7.01144">
        <ele>1934</ele>
        <time>2022-08-28T01:06:06Z</time>
      </trkpt>
      <trkpt lat="46.05727" lon="7.01142">
        <ele>1934</ele>
        <time>2022-08-28T01:06:09Z</time>
      </trkpt>
      <trkpt lat="46.05729" lon="7.01139">
        <ele>1934</ele>
        <time>2022-08-28T01:06:12Z</time>
      </trkpt>
      <trkpt lat="46.05729" lon="7.01136">
        <ele>1932</ele>
        <time>2022-08-28T01:06:14Z</time>
      </trkpt>
      <trkpt lat="46.05729" lon="7.01133">
        <ele>1931</ele>
        <time>2022-08-28T01:06:16Z</time>
      </trkpt>
      <trkpt lat="46.05728" lon="7.0113">
        <ele>1931</ele>
        <time>2022-08-28T01:06:18Z</time>
      </trkpt>
      <trkpt lat="46.05727" lon="7.01127">
        <ele>1930</ele>
        <time>2022-08-28T01:06:20Z</time>
      </trkpt>
      <trkpt lat="46.05726" lon="7.01125">
        <ele>1930</ele>
        <time>2022-08-28T01:06:22Z</time>
      </trkpt>
      <trkpt lat="46.05725" lon="7.01122">
        <ele>1929</ele>
        <time>2022-08-28T01:06:24Z</time>
      </trkpt>
      <trkpt lat="46.05726" lon="7.01119">
        <ele>1929</ele>
        <time>2022-08-28T01:06:27Z</time>
      </trkpt>
      <trkpt lat="46.05725" lon="7.01116">
        <ele>1927</ele>
        <time>2022-08-28T01:06:29Z</time>
      </trkpt>
      <trkpt lat="46.05725" lon="7.01113">
        <ele>1926</ele>
        <time>2022-08-28T01:06:31Z</time>
      </trkpt>
      <trkpt lat="46.05725" lon="7.0111">
        <ele>1926</ele>
        <time>2022-08-28T01:06:33Z</time>
      </trkpt>
      <trkpt lat="46.05726" lon="7.01106">
        <ele>1925</ele>
        <time>2022-08-28T01:06:36Z</time>
      </trkpt>
      <trkpt lat="46.05727" lon="7.01103">
        <ele>1925</ele>
        <time>2022-08-28T01:06:38Z</time>
      </trkpt>
      <trkpt lat="46.05728" lon="7.01099">
        <ele>1924</ele>
        <time>2022-08-28T01:06:40Z</time>
      </trkpt>
      <trkpt lat="46.05729" lon="7.01096">
        <ele>1924</ele>
        <time>2022-08-28T01:06:42Z</time>
      </trkpt>
      <trkpt lat="46.05729" lon="7.01092">
        <ele>1924</ele>
        <time>2022-08-28T01:06:44Z</time>
      </trkpt>
      <trkpt lat="46.0573" lon="7.01088">
        <ele>1923</ele>
        <time>2022-08-28T01:06:46Z</time>
      </trkpt>
      <trkpt lat="46.05731" lon="7.01084">
        <ele>1922</ele>
        <time>2022-08-28T01:06:48Z</time>
      </trkpt>
      <trkpt lat="46.05731" lon="7.01081">
        <ele>1922</ele>
        <time>2022-08-28T01:06:50Z</time>
      </trkpt>
      <trkpt lat="46.05731" lon="7.01076">
        <ele>1921</ele>
        <time>2022-08-28T01:06:52Z</time>
      </trkpt>
      <trkpt lat="46.05732" lon="7.01073">
        <ele>1921</ele>
        <time>2022-08-28T01:06:54Z</time>
      </trkpt>
      <trkpt lat="46.05732" lon="7.0107">
        <ele>1921</ele>
        <time>2022-08-28T01:06:56Z</time>
      </trkpt>
      <trkpt lat="46.05733" lon="7.01067">
        <ele>1920</ele>
        <time>2022-08-28T01:06:58Z</time>
      </trkpt>
      <trkpt lat="46.05734" lon="7.01065">
        <ele>1918</ele>
        <time>2022-08-28T01:07:00Z</time>
      </trkpt>
      <trkpt lat="46.05736" lon="7.01062">
        <ele>1918</ele>
        <time>2022-08-28T01:07:02Z</time>
      </trkpt>
      <trkpt lat="46.05738" lon="7.0106">
        <ele>1918</ele>
        <time>2022-08-28T01:07:04Z</time>
      </trkpt>
      <trkpt lat="46.05739" lon="7.01058">
        <ele>1918</ele>
        <time>2022-08-28T01:07:06Z</time>
      </trkpt>
      <trkpt lat="46.05741" lon="7.01057">
        <ele>1917</ele>
        <time>2022-08-28T01:07:07Z</time>
      </trkpt>
      <trkpt lat="46.05742" lon="7.01055">
        <ele>1917</ele>
        <time>2022-08-28T01:07:08Z</time>
      </trkpt>
      <trkpt lat="46.05744" lon="7.01054">
        <ele>1917</ele>
        <time>2022-08-28T01:07:09Z</time>
      </trkpt>
      <trkpt lat="46.05746" lon="7.0105">
        <ele>1917</ele>
        <time>2022-08-28T01:07:11Z</time>
      </trkpt>
      <trkpt lat="46.05748" lon="7.01047">
        <ele>1917</ele>
        <time>2022-08-28T01:07:13Z</time>
      </trkpt>
      <trkpt lat="46.0575" lon="7.01043">
        <ele>1916</ele>
        <time>2022-08-28T01:07:15Z</time>
      </trkpt>
      <trkpt lat="46.05752" lon="7.01041">
        <ele>1915</ele>
        <time>2022-08-28T01:07:17Z</time>
      </trkpt>
      <trkpt lat="46.05754" lon="7.01038">
        <ele>1915</ele>
        <time>2022-08-28T01:07:19Z</time>
      </trkpt>
      <trkpt lat="46.05756" lon="7.01034">
        <ele>1915</ele>
        <time>2022-08-28T01:07:21Z</time>
      </trkpt>
      <trkpt lat="46.05758" lon="7.01031">
        <ele>1915</ele>
        <time>2022-08-28T01:07:23Z</time>
      </trkpt>
      <trkpt lat="46.05759" lon="7.01029">
        <ele>1915</ele>
        <time>2022-08-28T01:07:24Z</time>
      </trkpt>
      <trkpt lat="46.0576" lon="7.01027">
        <ele>1915</ele>
        <time>2022-08-28T01:07:25Z</time>
      </trkpt>
      <trkpt lat="46.05761" lon="7.01025">
        <ele>1915</ele>
        <time>2022-08-28T01:07:26Z</time>
      </trkpt>
      <trkpt lat="46.05763" lon="7.01022">
        <ele>1915</ele>
        <time>2022-08-28T01:07:28Z</time>
      </trkpt>
      <trkpt lat="46.05764" lon="7.01017">
        <ele>1915</ele>
        <time>2022-08-28T01:07:30Z</time>
      </trkpt>
      <trkpt lat="46.05766" lon="7.01014">
        <ele>1915</ele>
        <time>2022-08-28T01:07:32Z</time>
      </trkpt>
      <trkpt lat="46.05767" lon="7.0101">
        <ele>1915</ele>
        <time>2022-08-28T01:07:34Z</time>
      </trkpt>
      <trkpt lat="46.05768" lon="7.01007">
        <ele>1915</ele>
        <time>2022-08-28T01:07:36Z</time>
      </trkpt>
      <trkpt lat="46.0577" lon="7.01004">
        <ele>1915</ele>
        <time>2022-08-28T01:07:38Z</time>
      </trkpt>
      <trkpt lat="46.05772" lon="7.01001">
        <ele>1913</ele>
        <time>2022-08-28T01:07:40Z</time>
      </trkpt>
      <trkpt lat="46.05773" lon="7.00997">
        <ele>1913</ele>
        <time>2022-08-28T01:07:42Z</time>
      </trkpt>
      <trkpt lat="46.05774" lon="7.00994">
        <ele>1913</ele>
        <time>2022-08-28T01:07:44Z</time>
      </trkpt>
      <trkpt lat="46.05775" lon="7.0099">
        <ele>1913</ele>
        <time>2022-08-28T01:07:46Z</time>
      </trkpt>
      <trkpt lat="46.05775" lon="7.00988">
        <ele>1913</ele>
        <time>2022-08-28T01:07:48Z</time>
      </trkpt>
      <trkpt lat="46.05776" lon="7.00985">
        <ele>1913</ele>
        <time>2022-08-28T01:07:50Z</time>
      </trkpt>
      <trkpt lat="46.05777" lon="7.00982">
        <ele>1913</ele>
        <time>2022-08-28T01:07:52Z</time>
      </trkpt>
      <trkpt lat="46.05778" lon="7.00979">
        <ele>1913</ele>
        <time>2022-08-28T01:07:54Z</time>
      </trkpt>
      <trkpt lat="46.0578" lon="7.00976">
        <ele>1912</ele>
        <time>2022-08-28T01:07:56Z</time>
      </trkpt>
      <trkpt lat="46.05781" lon="7.00974">
        <ele>1912</ele>
        <time>2022-08-28T01:07:58Z</time>
      </trkpt>
      <trkpt lat="46.05781" lon="7.00969">
        <ele>1912</ele>
        <time>2022-08-28T01:08:02Z</time>
      </trkpt>
      <trkpt lat="46.05781" lon="7.00965">
        <ele>1911</ele>
        <time>2022-08-28T01:08:04Z</time>
      </trkpt>
      <trkpt lat="46.05781" lon="7.00962">
        <ele>1911</ele>
        <time>2022-08-28T01:08:07Z</time>
      </trkpt>
      <trkpt lat="46.05782" lon="7.00958">
        <ele>1911</ele>
        <time>2022-08-28T01:08:09Z</time>
      </trkpt>
      <trkpt lat="46.05781" lon="7.00955">
        <ele>1910</ele>
        <time>2022-08-28T01:08:11Z</time>
      </trkpt>
      <trkpt lat="46.0578" lon="7.00952">
        <ele>1910</ele>
        <time>2022-08-28T01:08:13Z</time>
      </trkpt>
      <trkpt lat="46.0578" lon="7.00948">
        <ele>1910</ele>
        <time>2022-08-28T01:08:15Z</time>
      </trkpt>
      <trkpt lat="46.0578" lon="7.00945">
        <ele>1910</ele>
        <time>2022-08-28T01:08:18Z</time>
      </trkpt>
      <trkpt lat="46.0578" lon="7.00942">
        <ele>1911</ele>
        <time>2022-08-28T01:08:20Z</time>
      </trkpt>
      <trkpt lat="46.0578" lon="7.00939">
        <ele>1911</ele>
        <time>2022-08-28T01:08:22Z</time>
      </trkpt>
      <trkpt lat="46.0578" lon="7.00936">
        <ele>1911</ele>
        <time>2022-08-28T01:08:24Z</time>
      </trkpt>
      <trkpt lat="46.05781" lon="7.00933">
        <ele>1911</ele>
        <time>2022-08-28T01:08:26Z</time>
      </trkpt>
      <trkpt lat="46.0578" lon="7.0093">
        <ele>1911</ele>
        <time>2022-08-28T01:08:28Z</time>
      </trkpt>
      <trkpt lat="46.0578" lon="7.00926">
        <ele>1911</ele>
        <time>2022-08-28T01:08:30Z</time>
      </trkpt>
      <trkpt lat="46.0578" lon="7.00923">
        <ele>1911</ele>
        <time>2022-08-28T01:08:32Z</time>
      </trkpt>
      <trkpt lat="46.05781" lon="7.00921">
        <ele>1911</ele>
        <time>2022-08-28T01:08:34Z</time>
      </trkpt>
      <trkpt lat="46.05782" lon="7.00917">
        <ele>1910</ele>
        <time>2022-08-28T01:08:36Z</time>
      </trkpt>
      <trkpt lat="46.05783" lon="7.00914">
        <ele>1910</ele>
        <time>2022-08-28T01:08:38Z</time>
      </trkpt>
      <trkpt lat="46.05783" lon="7.0091">
        <ele>1910</ele>
        <time>2022-08-28T01:08:40Z</time>
      </trkpt>
      <trkpt lat="46.05783" lon="7.00907">
        <ele>1909</ele>
        <time>2022-08-28T01:08:42Z</time>
      </trkpt>
      <trkpt lat="46.05782" lon="7.00903">
        <ele>1909</ele>
        <time>2022-08-28T01:08:44Z</time>
      </trkpt>
      <trkpt lat="46.05782" lon="7.00899">
        <ele>1909</ele>
        <time>2022-08-28T01:08:46Z</time>
      </trkpt>
      <trkpt lat="46.05781" lon="7.00891">
        <ele>1909</ele>
        <time>2022-08-28T01:08:51Z</time>
      </trkpt>
      <trkpt lat="46.0578" lon="7.00886">
        <ele>1907</ele>
        <time>2022-08-28T01:08:53Z</time>
      </trkpt>
      <trkpt lat="46.05779" lon="7.00885">
        <ele>1907</ele>
        <time>2022-08-28T01:08:55Z</time>
      </trkpt>
      <trkpt lat="46.05779" lon="7.00883">
        <ele>1907</ele>
        <time>2022-08-28T01:08:56Z</time>
      </trkpt>
      <trkpt lat="46.05779" lon="7.00881">
        <ele>1907</ele>
        <time>2022-08-28T01:08:57Z</time>
      </trkpt>
      <trkpt lat="46.05778" lon="7.0088">
        <ele>1906</ele>
        <time>2022-08-28T01:08:58Z</time>
      </trkpt>
      <trkpt lat="46.05778" lon="7.00878">
        <ele>1906</ele>
        <time>2022-08-28T01:09:00Z</time>
      </trkpt>
      <trkpt lat="46.05778" lon="7.00876">
        <ele>1905</ele>
        <time>2022-08-28T01:09:01Z</time>
      </trkpt>
      <trkpt lat="46.05778" lon="7.00874">
        <ele>1904</ele>
        <time>2022-08-28T01:09:02Z</time>
      </trkpt>
      <trkpt lat="46.05777" lon="7.00872">
        <ele>1904</ele>
        <time>2022-08-28T01:09:03Z</time>
      </trkpt>
      <trkpt lat="46.05777" lon="7.0087">
        <ele>1904</ele>
        <time>2022-08-28T01:09:04Z</time>
      </trkpt>
      <trkpt lat="46.05776" lon="7.00868">
        <ele>1904</ele>
        <time>2022-08-28T01:09:05Z</time>
      </trkpt>
      <trkpt lat="46.05776" lon="7.00866">
        <ele>1904</ele>
        <time>2022-08-28T01:09:06Z</time>
      </trkpt>
      <trkpt lat="46.05775" lon="7.00863">
        <ele>1904</ele>
        <time>2022-08-28T01:09:07Z</time>
      </trkpt>
      <trkpt lat="46.05774" lon="7.00861">
        <ele>1903</ele>
        <time>2022-08-28T01:09:09Z</time>
      </trkpt>
      <trkpt lat="46.05774" lon="7.00857">
        <ele>1903</ele>
        <time>2022-08-28T01:09:11Z</time>
      </trkpt>
      <trkpt lat="46.05775" lon="7.00853">
        <ele>1903</ele>
        <time>2022-08-28T01:09:13Z</time>
      </trkpt>
      <trkpt lat="46.05775" lon="7.0085">
        <ele>1902</ele>
        <time>2022-08-28T01:09:15Z</time>
      </trkpt>
      <trkpt lat="46.05776" lon="7.00845">
        <ele>1902</ele>
        <time>2022-08-28T01:09:17Z</time>
      </trkpt>
      <trkpt lat="46.05776" lon="7.00842">
        <ele>1901</ele>
        <time>2022-08-28T01:09:19Z</time>
      </trkpt>
      <trkpt lat="46.05775" lon="7.00838">
        <ele>1901</ele>
        <time>2022-08-28T01:09:21Z</time>
      </trkpt>
      <trkpt lat="46.05774" lon="7.00836">
        <ele>1901</ele>
        <time>2022-08-28T01:09:23Z</time>
      </trkpt>
      <trkpt lat="46.05775" lon="7.00832">
        <ele>1899</ele>
        <time>2022-08-28T01:09:26Z</time>
      </trkpt>
      <trkpt lat="46.05775" lon="7.00829">
        <ele>1899</ele>
        <time>2022-08-28T01:09:28Z</time>
      </trkpt>
      <trkpt lat="46.05775" lon="7.00826">
        <ele>1897</ele>
        <time>2022-08-28T01:09:30Z</time>
      </trkpt>
      <trkpt lat="46.05775" lon="7.00823">
        <ele>1897</ele>
        <time>2022-08-28T01:09:33Z</time>
      </trkpt>
      <trkpt lat="46.05775" lon="7.0082">
        <ele>1896</ele>
        <time>2022-08-28T01:09:36Z</time>
      </trkpt>
      <trkpt lat="46.05776" lon="7.00817">
        <ele>1895</ele>
        <time>2022-08-28T01:09:38Z</time>
      </trkpt>
      <trkpt lat="46.05776" lon="7.00813">
        <ele>1895</ele>
        <time>2022-08-28T01:09:41Z</time>
      </trkpt>
      <trkpt lat="46.05776" lon="7.00809">
        <ele>1894</ele>
        <time>2022-08-28T01:09:44Z</time>
      </trkpt>
      <trkpt lat="46.05777" lon="7.00806">
        <ele>1893</ele>
        <time>2022-08-28T01:09:46Z</time>
      </trkpt>
      <trkpt lat="46.05778" lon="7.00804">
        <ele>1892</ele>
        <time>2022-08-28T01:09:49Z</time>
      </trkpt>
      <trkpt lat="46.0578" lon="7.00802">
        <ele>1892</ele>
        <time>2022-08-28T01:09:51Z</time>
      </trkpt>
      <trkpt lat="46.05781" lon="7.00798">
        <ele>1890</ele>
        <time>2022-08-28T01:09:53Z</time>
      </trkpt>
      <trkpt lat="46.05783" lon="7.00796">
        <ele>1890</ele>
        <time>2022-08-28T01:09:55Z</time>
      </trkpt>
      <trkpt lat="46.05784" lon="7.00793">
        <ele>1889</ele>
        <time>2022-08-28T01:09:57Z</time>
      </trkpt>
      <trkpt lat="46.05785" lon="7.00789">
        <ele>1888</ele>
        <time>2022-08-28T01:09:59Z</time>
      </trkpt>
      <trkpt lat="46.05785" lon="7.00786">
        <ele>1888</ele>
        <time>2022-08-28T01:10:01Z</time>
      </trkpt>
      <trkpt lat="46.05786" lon="7.00783">
        <ele>1886</ele>
        <time>2022-08-28T01:10:04Z</time>
      </trkpt>
      <trkpt lat="46.05786" lon="7.00779">
        <ele>1886</ele>
        <time>2022-08-28T01:10:07Z</time>
      </trkpt>
      <trkpt lat="46.05787" lon="7.00775">
        <ele>1884</ele>
        <time>2022-08-28T01:10:12Z</time>
      </trkpt>
      <trkpt lat="46.05788" lon="7.00771">
        <ele>1884</ele>
        <time>2022-08-28T01:10:14Z</time>
      </trkpt>
      <trkpt lat="46.05789" lon="7.00767">
        <ele>1883</ele>
        <time>2022-08-28T01:10:16Z</time>
      </trkpt>
      <trkpt lat="46.05788" lon="7.00764">
        <ele>1883</ele>
        <time>2022-08-28T01:10:17Z</time>
      </trkpt>
      <trkpt lat="46.05788" lon="7.0076">
        <ele>1883</ele>
        <time>2022-08-28T01:10:19Z</time>
      </trkpt>
      <trkpt lat="46.05788" lon="7.00758">
        <ele>1883</ele>
        <time>2022-08-28T01:10:20Z</time>
      </trkpt>
      <trkpt lat="46.05786" lon="7.00754">
        <ele>1883</ele>
        <time>2022-08-28T01:10:22Z</time>
      </trkpt>
      <trkpt lat="46.05785" lon="7.00751">
        <ele>1883</ele>
        <time>2022-08-28T01:10:24Z</time>
      </trkpt>
      <trkpt lat="46.05785" lon="7.00748">
        <ele>1883</ele>
        <time>2022-08-28T01:10:26Z</time>
      </trkpt>
      <trkpt lat="46.05785" lon="7.00743">
        <ele>1881</ele>
        <time>2022-08-28T01:10:29Z</time>
      </trkpt>
      <trkpt lat="46.05784" lon="7.0074">
        <ele>1881</ele>
        <time>2022-08-28T01:10:31Z</time>
      </trkpt>
      <trkpt lat="46.05783" lon="7.00737">
        <ele>1881</ele>
        <time>2022-08-28T01:10:33Z</time>
      </trkpt>
      <trkpt lat="46.05782" lon="7.00734">
        <ele>1881</ele>
        <time>2022-08-28T01:10:35Z</time>
      </trkpt>
      <trkpt lat="46.05781" lon="7.0073">
        <ele>1881</ele>
        <time>2022-08-28T01:10:37Z</time>
      </trkpt>
      <trkpt lat="46.05782" lon="7.00726">
        <ele>1880</ele>
        <time>2022-08-28T01:10:39Z</time>
      </trkpt>
      <trkpt lat="46.05782" lon="7.00723">
        <ele>1878</ele>
        <time>2022-08-28T01:10:42Z</time>
      </trkpt>
      <trkpt lat="46.05782" lon="7.00719">
        <ele>1878</ele>
        <time>2022-08-28T01:10:44Z</time>
      </trkpt>
      <trkpt lat="46.05782" lon="7.00713">
        <ele>1878</ele>
        <time>2022-08-28T01:10:46Z</time>
      </trkpt>
      <trkpt lat="46.05782" lon="7.00711">
        <ele>1877</ele>
        <time>2022-08-28T01:10:47Z</time>
      </trkpt>
      <trkpt lat="46.05781" lon="7.00707">
        <ele>1877</ele>
        <time>2022-08-28T01:10:49Z</time>
      </trkpt>
      <trkpt lat="46.05782" lon="7.00705">
        <ele>1876</ele>
        <time>2022-08-28T01:10:51Z</time>
      </trkpt>
      <trkpt lat="46.05782" lon="7.00702">
        <ele>1875</ele>
        <time>2022-08-28T01:10:54Z</time>
      </trkpt>
      <trkpt lat="46.05783" lon="7.00699">
        <ele>1875</ele>
        <time>2022-08-28T01:10:56Z</time>
      </trkpt>
      <trkpt lat="46.05782" lon="7.00695">
        <ele>1875</ele>
        <time>2022-08-28T01:10:58Z</time>
      </trkpt>
      <trkpt lat="46.05783" lon="7.0069">
        <ele>1874</ele>
        <time>2022-08-28T01:11:00Z</time>
      </trkpt>
      <trkpt lat="46.05783" lon="7.00687">
        <ele>1874</ele>
        <time>2022-08-28T01:11:02Z</time>
      </trkpt>
      <trkpt lat="46.05782" lon="7.00684">
        <ele>1874</ele>
        <time>2022-08-28T01:11:04Z</time>
      </trkpt>
      <trkpt lat="46.05781" lon="7.00681">
        <ele>1874</ele>
        <time>2022-08-28T01:11:06Z</time>
      </trkpt>
      <trkpt lat="46.05779" lon="7.00677">
        <ele>1874</ele>
        <time>2022-08-28T01:11:08Z</time>
      </trkpt>
      <trkpt lat="46.05779" lon="7.00674">
        <ele>1874</ele>
        <time>2022-08-28T01:11:10Z</time>
      </trkpt>
      <trkpt lat="46.05779" lon="7.00671">
        <ele>1874</ele>
        <time>2022-08-28T01:11:13Z</time>
      </trkpt>
      <trkpt lat="46.05779" lon="7.00668">
        <ele>1873</ele>
        <time>2022-08-28T01:11:16Z</time>
      </trkpt>
      <trkpt lat="46.05779" lon="7.00664">
        <ele>1873</ele>
        <time>2022-08-28T01:11:18Z</time>
      </trkpt>
      <trkpt lat="46.05778" lon="7.0066">
        <ele>1872</ele>
        <time>2022-08-28T01:11:20Z</time>
      </trkpt>
      <trkpt lat="46.05776" lon="7.00657">
        <ele>1872</ele>
        <time>2022-08-28T01:11:22Z</time>
      </trkpt>
      <trkpt lat="46.05777" lon="7.00654">
        <ele>1872</ele>
        <time>2022-08-28T01:11:24Z</time>
      </trkpt>
      <trkpt lat="46.05777" lon="7.0065">
        <ele>1872</ele>
        <time>2022-08-28T01:11:26Z</time>
      </trkpt>
      <trkpt lat="46.05777" lon="7.00646">
        <ele>1870</ele>
        <time>2022-08-28T01:11:28Z</time>
      </trkpt>
      <trkpt lat="46.05776" lon="7.00642">
        <ele>1870</ele>
        <time>2022-08-28T01:11:30Z</time>
      </trkpt>
      <trkpt lat="46.05775" lon="7.00639">
        <ele>1870</ele>
        <time>2022-08-28T01:11:31Z</time>
      </trkpt>
      <trkpt lat="46.05774" lon="7.00634">
        <ele>1870</ele>
        <time>2022-08-28T01:11:33Z</time>
      </trkpt>
      <trkpt lat="46.05772" lon="7.0063">
        <ele>1870</ele>
        <time>2022-08-28T01:11:35Z</time>
      </trkpt>
      <trkpt lat="46.05771" lon="7.00626">
        <ele>1870</ele>
        <time>2022-08-28T01:11:37Z</time>
      </trkpt>
      <trkpt lat="46.05769" lon="7.00623">
        <ele>1870</ele>
        <time>2022-08-28T01:11:39Z</time>
      </trkpt>
      <trkpt lat="46.05768" lon="7.00621">
        <ele>1870</ele>
        <time>2022-08-28T01:11:41Z</time>
      </trkpt>
      <trkpt lat="46.05765" lon="7.00618">
        <ele>1870</ele>
        <time>2022-08-28T01:11:43Z</time>
      </trkpt>
      <trkpt lat="46.05764" lon="7.00615">
        <ele>1869</ele>
        <time>2022-08-28T01:11:45Z</time>
      </trkpt>
      <trkpt lat="46.05763" lon="7.00612">
        <ele>1869</ele>
        <time>2022-08-28T01:11:47Z</time>
      </trkpt>
      <trkpt lat="46.05763" lon="7.00609">
        <ele>1869</ele>
        <time>2022-08-28T01:11:49Z</time>
      </trkpt>
      <trkpt lat="46.05763" lon="7.00605">
        <ele>1868</ele>
        <time>2022-08-28T01:11:51Z</time>
      </trkpt>
      <trkpt lat="46.05761" lon="7.00601">
        <ele>1868</ele>
        <time>2022-08-28T01:11:53Z</time>
      </trkpt>
      <trkpt lat="46.0576" lon="7.00598">
        <ele>1867</ele>
        <time>2022-08-28T01:11:55Z</time>
      </trkpt>
      <trkpt lat="46.05758" lon="7.00595">
        <ele>1867</ele>
        <time>2022-08-28T01:11:57Z</time>
      </trkpt>
      <trkpt lat="46.05757" lon="7.00593">
        <ele>1867</ele>
        <time>2022-08-28T01:11:59Z</time>
      </trkpt>
      <trkpt lat="46.05756" lon="7.00589">
        <ele>1867</ele>
        <time>2022-08-28T01:12:02Z</time>
      </trkpt>
      <trkpt lat="46.05757" lon="7.00586">
        <ele>1866</ele>
        <time>2022-08-28T01:12:05Z</time>
      </trkpt>
      <trkpt lat="46.05757" lon="7.00583">
        <ele>1865</ele>
        <time>2022-08-28T01:12:07Z</time>
      </trkpt>
      <trkpt lat="46.05757" lon="7.0058">
        <ele>1865</ele>
        <time>2022-08-28T01:12:09Z</time>
      </trkpt>
      <trkpt lat="46.05757" lon="7.00577">
        <ele>1863</ele>
        <time>2022-08-28T01:12:11Z</time>
      </trkpt>
      <trkpt lat="46.05756" lon="7.00573">
        <ele>1863</ele>
        <time>2022-08-28T01:12:13Z</time>
      </trkpt>
      <trkpt lat="46.05755" lon="7.0057">
        <ele>1863</ele>
        <time>2022-08-28T01:12:15Z</time>
      </trkpt>
      <trkpt lat="46.05755" lon="7.00566">
        <ele>1862</ele>
        <time>2022-08-28T01:12:17Z</time>
      </trkpt>
      <trkpt lat="46.05756" lon="7.00564">
        <ele>1862</ele>
        <time>2022-08-28T01:12:18Z</time>
      </trkpt>
      <trkpt lat="46.05756" lon="7.00562">
        <ele>1862</ele>
        <time>2022-08-28T01:12:19Z</time>
      </trkpt>
      <trkpt lat="46.05757" lon="7.00559">
        <ele>1862</ele>
        <time>2022-08-28T01:12:20Z</time>
      </trkpt>
      <trkpt lat="46.05757" lon="7.00557">
        <ele>1862</ele>
        <time>2022-08-28T01:12:21Z</time>
      </trkpt>
      <trkpt lat="46.05757" lon="7.00553">
        <ele>1861</ele>
        <time>2022-08-28T01:12:23Z</time>
      </trkpt>
      <trkpt lat="46.05756" lon="7.00549">
        <ele>1861</ele>
        <time>2022-08-28T01:12:25Z</time>
      </trkpt>
      <trkpt lat="46.05756" lon="7.00546">
        <ele>1861</ele>
        <time>2022-08-28T01:12:27Z</time>
      </trkpt>
      <trkpt lat="46.05754" lon="7.00543">
        <ele>1860</ele>
        <time>2022-08-28T01:12:29Z</time>
      </trkpt>
      <trkpt lat="46.05754" lon="7.0054">
        <ele>1860</ele>
        <time>2022-08-28T01:12:31Z</time>
      </trkpt>
      <trkpt lat="46.05755" lon="7.00537">
        <ele>1860</ele>
        <time>2022-08-28T01:12:33Z</time>
      </trkpt>
      <trkpt lat="46.05755" lon="7.00533">
        <ele>1859</ele>
        <time>2022-08-28T01:12:35Z</time>
      </trkpt>
      <trkpt lat="46.05755" lon="7.0053">
        <ele>1859</ele>
        <time>2022-08-28T01:12:37Z</time>
      </trkpt>
      <trkpt lat="46.05754" lon="7.00526">
        <ele>1859</ele>
        <time>2022-08-28T01:12:39Z</time>
      </trkpt>
      <trkpt lat="46.05752" lon="7.00522">
        <ele>1859</ele>
        <time>2022-08-28T01:12:41Z</time>
      </trkpt>
      <trkpt lat="46.05751" lon="7.00519">
        <ele>1859</ele>
        <time>2022-08-28T01:12:43Z</time>
      </trkpt>
      <trkpt lat="46.05751" lon="7.00516">
        <ele>1859</ele>
        <time>2022-08-28T01:12:46Z</time>
      </trkpt>
      <trkpt lat="46.05751" lon="7.00513">
        <ele>1858</ele>
        <time>2022-08-28T01:12:49Z</time>
      </trkpt>
      <trkpt lat="46.05752" lon="7.0051">
        <ele>1857</ele>
        <time>2022-08-28T01:12:51Z</time>
      </trkpt>
      <trkpt lat="46.05753" lon="7.00506">
        <ele>1857</ele>
        <time>2022-08-28T01:12:53Z</time>
      </trkpt>
      <trkpt lat="46.05754" lon="7.00501">
        <ele>1856</ele>
        <time>2022-08-28T01:12:55Z</time>
      </trkpt>
      <trkpt lat="46.05755" lon="7.00497">
        <ele>1856</ele>
        <time>2022-08-28T01:12:57Z</time>
      </trkpt>
      <trkpt lat="46.05755" lon="7.00493">
        <ele>1856</ele>
        <time>2022-08-28T01:12:59Z</time>
      </trkpt>
      <trkpt lat="46.05755" lon="7.00489">
        <ele>1855</ele>
        <time>2022-08-28T01:13:01Z</time>
      </trkpt>
      <trkpt lat="46.05756" lon="7.00485">
        <ele>1855</ele>
        <time>2022-08-28T01:13:03Z</time>
      </trkpt>
      <trkpt lat="46.05757" lon="7.00482">
        <ele>1854</ele>
        <time>2022-08-28T01:13:05Z</time>
      </trkpt>
      <trkpt lat="46.05758" lon="7.00478">
        <ele>1854</ele>
        <time>2022-08-28T01:13:07Z</time>
      </trkpt>
      <trkpt lat="46.05758" lon="7.00473">
        <ele>1853</ele>
        <time>2022-08-28T01:13:09Z</time>
      </trkpt>
      <trkpt lat="46.05757" lon="7.00469">
        <ele>1853</ele>
        <time>2022-08-28T01:13:11Z</time>
      </trkpt>
      <trkpt lat="46.05756" lon="7.00467">
        <ele>1853</ele>
        <time>2022-08-28T01:13:12Z</time>
      </trkpt>
      <trkpt lat="46.05755" lon="7.00465">
        <ele>1853</ele>
        <time>2022-08-28T01:13:13Z</time>
      </trkpt>
      <trkpt lat="46.05754" lon="7.00462">
        <ele>1853</ele>
        <time>2022-08-28T01:13:14Z</time>
      </trkpt>
      <trkpt lat="46.05753" lon="7.00458">
        <ele>1852</ele>
        <time>2022-08-28T01:13:16Z</time>
      </trkpt>
      <trkpt lat="46.05753" lon="7.00454">
        <ele>1852</ele>
        <time>2022-08-28T01:13:18Z</time>
      </trkpt>
      <trkpt lat="46.05752" lon="7.00451">
        <ele>1852</ele>
        <time>2022-08-28T01:13:20Z</time>
      </trkpt>
      <trkpt lat="46.05751" lon="7.00448">
        <ele>1852</ele>
        <time>2022-08-28T01:13:22Z</time>
      </trkpt>
      <trkpt lat="46.05751" lon="7.00444">
        <ele>1852</ele>
        <time>2022-08-28T01:13:24Z</time>
      </trkpt>
      <trkpt lat="46.0575" lon="7.0044">
        <ele>1851</ele>
        <time>2022-08-28T01:13:26Z</time>
      </trkpt>
      <trkpt lat="46.05749" lon="7.00436">
        <ele>1851</ele>
        <time>2022-08-28T01:13:28Z</time>
      </trkpt>
      <trkpt lat="46.05748" lon="7.00433">
        <ele>1851</ele>
        <time>2022-08-28T01:13:29Z</time>
      </trkpt>
      <trkpt lat="46.05748" lon="7.00429">
        <ele>1851</ele>
        <time>2022-08-28T01:13:30Z</time>
      </trkpt>
      <trkpt lat="46.05747" lon="7.00428">
        <ele>1851</ele>
        <time>2022-08-28T01:13:31Z</time>
      </trkpt>
      <trkpt lat="46.05747" lon="7.00426">
        <ele>1851</ele>
        <time>2022-08-28T01:13:32Z</time>
      </trkpt>
      <trkpt lat="46.05746" lon="7.00423">
        <ele>1851</ele>
        <time>2022-08-28T01:13:33Z</time>
      </trkpt>
      <trkpt lat="46.05745" lon="7.0042">
        <ele>1851</ele>
        <time>2022-08-28T01:13:34Z</time>
      </trkpt>
      <trkpt lat="46.05745" lon="7.00417">
        <ele>1851</ele>
        <time>2022-08-28T01:13:35Z</time>
      </trkpt>
      <trkpt lat="46.05745" lon="7.00415">
        <ele>1851</ele>
        <time>2022-08-28T01:13:36Z</time>
      </trkpt>
      <trkpt lat="46.05744" lon="7.00412">
        <ele>1851</ele>
        <time>2022-08-28T01:13:37Z</time>
      </trkpt>
      <trkpt lat="46.05743" lon="7.00408">
        <ele>1850</ele>
        <time>2022-08-28T01:13:39Z</time>
      </trkpt>
      <trkpt lat="46.05742" lon="7.00403">
        <ele>1850</ele>
        <time>2022-08-28T01:13:41Z</time>
      </trkpt>
      <trkpt lat="46.05743" lon="7.00399">
        <ele>1850</ele>
        <time>2022-08-28T01:13:43Z</time>
      </trkpt>
      <trkpt lat="46.05743" lon="7.00395">
        <ele>1850</ele>
        <time>2022-08-28T01:13:45Z</time>
      </trkpt>
      <trkpt lat="46.05742" lon="7.0039">
        <ele>1850</ele>
        <time>2022-08-28T01:13:47Z</time>
      </trkpt>
      <trkpt lat="46.05741" lon="7.00386">
        <ele>1850</ele>
        <time>2022-08-28T01:13:49Z</time>
      </trkpt>
      <trkpt lat="46.0574" lon="7.00382">
        <ele>1850</ele>
        <time>2022-08-28T01:13:51Z</time>
      </trkpt>
      <trkpt lat="46.05739" lon="7.00378">
        <ele>1850</ele>
        <time>2022-08-28T01:13:53Z</time>
      </trkpt>
      <trkpt lat="46.05738" lon="7.00375">
        <ele>1850</ele>
        <time>2022-08-28T01:13:55Z</time>
      </trkpt>
      <trkpt lat="46.05737" lon="7.00372">
        <ele>1850</ele>
        <time>2022-08-28T01:13:57Z</time>
      </trkpt>
      <trkpt lat="46.05737" lon="7.00368">
        <ele>1850</ele>
        <time>2022-08-28T01:13:59Z</time>
      </trkpt>
      <trkpt lat="46.05736" lon="7.00365">
        <ele>1851</ele>
        <time>2022-08-28T01:14:01Z</time>
      </trkpt>
      <trkpt lat="46.05736" lon="7.00362">
        <ele>1851</ele>
        <time>2022-08-28T01:14:03Z</time>
      </trkpt>
      <trkpt lat="46.05736" lon="7.00359">
        <ele>1851</ele>
        <time>2022-08-28T01:14:05Z</time>
      </trkpt>
      <trkpt lat="46.05736" lon="7.00355">
        <ele>1851</ele>
        <time>2022-08-28T01:14:07Z</time>
      </trkpt>
      <trkpt lat="46.05735" lon="7.00352">
        <ele>1851</ele>
        <time>2022-08-28T01:14:09Z</time>
      </trkpt>
      <trkpt lat="46.05735" lon="7.00349">
        <ele>1851</ele>
        <time>2022-08-28T01:14:11Z</time>
      </trkpt>
      <trkpt lat="46.05735" lon="7.00345">
        <ele>1851</ele>
        <time>2022-08-28T01:14:13Z</time>
      </trkpt>
      <trkpt lat="46.05735" lon="7.00342">
        <ele>1851</ele>
        <time>2022-08-28T01:14:15Z</time>
      </trkpt>
      <trkpt lat="46.05735" lon="7.0034">
        <ele>1852</ele>
        <time>2022-08-28T01:14:17Z</time>
      </trkpt>
      <trkpt lat="46.05735" lon="7.00337">
        <ele>1853</ele>
        <time>2022-08-28T01:14:19Z</time>
      </trkpt>
      <trkpt lat="46.05735" lon="7.00334">
        <ele>1853</ele>
        <time>2022-08-28T01:14:21Z</time>
      </trkpt>
      <trkpt lat="46.05736" lon="7.00331">
        <ele>1853</ele>
        <time>2022-08-28T01:14:23Z</time>
      </trkpt>
      <trkpt lat="46.05736" lon="7.00328">
        <ele>1853</ele>
        <time>2022-08-28T01:14:25Z</time>
      </trkpt>
      <trkpt lat="46.05737" lon="7.00324">
        <ele>1854</ele>
        <time>2022-08-28T01:14:28Z</time>
      </trkpt>
      <trkpt lat="46.05739" lon="7.00322">
        <ele>1854</ele>
        <time>2022-08-28T01:14:30Z</time>
      </trkpt>
      <trkpt lat="46.0574" lon="7.00321">
        <ele>1854</ele>
        <time>2022-08-28T01:14:32Z</time>
      </trkpt>
      <trkpt lat="46.05742" lon="7.00319">
        <ele>1855</ele>
        <time>2022-08-28T01:14:36Z</time>
      </trkpt>
      <trkpt lat="46.05744" lon="7.00318">
        <ele>1855</ele>
        <time>2022-08-28T01:14:38Z</time>
      </trkpt>
      <trkpt lat="46.05746" lon="7.00315">
        <ele>1855</ele>
        <time>2022-08-28T01:14:41Z</time>
      </trkpt>
      <trkpt lat="46.05747" lon="7.00314">
        <ele>1856</ele>
        <time>2022-08-28T01:14:43Z</time>
      </trkpt>
      <trkpt lat="46.05749" lon="7.00311">
        <ele>1856</ele>
        <time>2022-08-28T01:14:46Z</time>
      </trkpt>
      <trkpt lat="46.0575" lon="7.0031">
        <ele>1857</ele>
        <time>2022-08-28T01:14:48Z</time>
      </trkpt>
      <trkpt lat="46.05752" lon="7.00308">
        <ele>1857</ele>
        <time>2022-08-28T01:14:51Z</time>
      </trkpt>
      <trkpt lat="46.05754" lon="7.00306">
        <ele>1858</ele>
        <time>2022-08-28T01:14:54Z</time>
      </trkpt>
      <trkpt lat="46.05755" lon="7.00304">
        <ele>1858</ele>
        <time>2022-08-28T01:14:57Z</time>
      </trkpt>
      <trkpt lat="46.05757" lon="7.00302">
        <ele>1858</ele>
        <time>2022-08-28T01:15:00Z</time>
      </trkpt>
      <trkpt lat="46.05758" lon="7.00299">
        <ele>1859</ele>
        <time>2022-08-28T01:15:03Z</time>
      </trkpt>
      <trkpt lat="46.0576" lon="7.00297">
        <ele>1859</ele>
        <time>2022-08-28T01:15:05Z</time>
      </trkpt>
      <trkpt lat="46.05761" lon="7.00294">
        <ele>1859</ele>
        <time>2022-08-28T01:15:07Z</time>
      </trkpt>
      <trkpt lat="46.05762" lon="7.00291">
        <ele>1859</ele>
        <time>2022-08-28T01:15:11Z</time>
      </trkpt>
      <trkpt lat="46.05762" lon="7.00287">
        <ele>1860</ele>
        <time>2022-08-28T01:15:13Z</time>
      </trkpt>
      <trkpt lat="46.05763" lon="7.00284">
        <ele>1860</ele>
        <time>2022-08-28T01:15:15Z</time>
      </trkpt>
      <trkpt lat="46.05763" lon="7.0028">
        <ele>1860</ele>
        <time>2022-08-28T01:15:17Z</time>
      </trkpt>
      <trkpt lat="46.05763" lon="7.00277">
        <ele>1860</ele>
        <time>2022-08-28T01:15:19Z</time>
      </trkpt>
      <trkpt lat="46.05763" lon="7.00274">
        <ele>1860</ele>
        <time>2022-08-28T01:15:21Z</time>
      </trkpt>
      <trkpt lat="46.05764" lon="7.0027">
        <ele>1860</ele>
        <time>2022-08-28T01:15:23Z</time>
      </trkpt>
      <trkpt lat="46.05764" lon="7.00267">
        <ele>1860</ele>
        <time>2022-08-28T01:15:25Z</time>
      </trkpt>
      <trkpt lat="46.05764" lon="7.00263">
        <ele>1860</ele>
        <time>2022-08-28T01:15:27Z</time>
      </trkpt>
      <trkpt lat="46.05765" lon="7.0026">
        <ele>1860</ele>
        <time>2022-08-28T01:15:29Z</time>
      </trkpt>
      <trkpt lat="46.05765" lon="7.00256">
        <ele>1860</ele>
        <time>2022-08-28T01:15:31Z</time>
      </trkpt>
      <trkpt lat="46.05766" lon="7.00254">
        <ele>1861</ele>
        <time>2022-08-28T01:15:33Z</time>
      </trkpt>
      <trkpt lat="46.05766" lon="7.00251">
        <ele>1861</ele>
        <time>2022-08-28T01:15:35Z</time>
      </trkpt>
      <trkpt lat="46.05766" lon="7.00248">
        <ele>1861</ele>
        <time>2022-08-28T01:15:37Z</time>
      </trkpt>
      <trkpt lat="46.05765" lon="7.00245">
        <ele>1861</ele>
        <time>2022-08-28T01:15:40Z</time>
      </trkpt>
      <trkpt lat="46.05765" lon="7.00242">
        <ele>1862</ele>
        <time>2022-08-28T01:15:43Z</time>
      </trkpt>
      <trkpt lat="46.05764" lon="7.00238">
        <ele>1862</ele>
        <time>2022-08-28T01:15:46Z</time>
      </trkpt>
      <trkpt lat="46.05764" lon="7.00235">
        <ele>1862</ele>
        <time>2022-08-28T01:15:48Z</time>
      </trkpt>
      <trkpt lat="46.05764" lon="7.00232">
        <ele>1863</ele>
        <time>2022-08-28T01:15:51Z</time>
      </trkpt>
      <trkpt lat="46.05764" lon="7.00228">
        <ele>1863</ele>
        <time>2022-08-28T01:15:54Z</time>
      </trkpt>
      <trkpt lat="46.05764" lon="7.00225">
        <ele>1864</ele>
        <time>2022-08-28T01:15:56Z</time>
      </trkpt>
      <trkpt lat="46.05764" lon="7.00223">
        <ele>1864</ele>
        <time>2022-08-28T01:15:58Z</time>
      </trkpt>
      <trkpt lat="46.05764" lon="7.0022">
        <ele>1865</ele>
        <time>2022-08-28T01:16:00Z</time>
      </trkpt>
      <trkpt lat="46.05764" lon="7.00217">
        <ele>1865</ele>
        <time>2022-08-28T01:16:02Z</time>
      </trkpt>
      <trkpt lat="46.05764" lon="7.00214">
        <ele>1865</ele>
        <time>2022-08-28T01:16:05Z</time>
      </trkpt>
      <trkpt lat="46.05764" lon="7.00211">
        <ele>1865</ele>
        <time>2022-08-28T01:16:07Z</time>
      </trkpt>
      <trkpt lat="46.05763" lon="7.00208">
        <ele>1865</ele>
        <time>2022-08-28T01:16:09Z</time>
      </trkpt>
      <trkpt lat="46.05762" lon="7.00205">
        <ele>1865</ele>
        <time>2022-08-28T01:16:11Z</time>
      </trkpt>
      <trkpt lat="46.05761" lon="7.00202">
        <ele>1866</ele>
        <time>2022-08-28T01:16:13Z</time>
      </trkpt>
      <trkpt lat="46.0576" lon="7.00198">
        <ele>1866</ele>
        <time>2022-08-28T01:16:15Z</time>
      </trkpt>
      <trkpt lat="46.0576" lon="7.00195">
        <ele>1866</ele>
        <time>2022-08-28T01:16:17Z</time>
      </trkpt>
      <trkpt lat="46.0576" lon="7.00191">
        <ele>1866</ele>
        <time>2022-08-28T01:16:19Z</time>
      </trkpt>
      <trkpt lat="46.0576" lon="7.00187">
        <ele>1866</ele>
        <time>2022-08-28T01:16:21Z</time>
      </trkpt>
      <trkpt lat="46.05761" lon="7.00183">
        <ele>1866</ele>
        <time>2022-08-28T01:16:23Z</time>
      </trkpt>
      <trkpt lat="46.05762" lon="7.0018">
        <ele>1865</ele>
        <time>2022-08-28T01:16:25Z</time>
      </trkpt>
      <trkpt lat="46.05763" lon="7.00176">
        <ele>1865</ele>
        <time>2022-08-28T01:16:27Z</time>
      </trkpt>
      <trkpt lat="46.05764" lon="7.00173">
        <ele>1865</ele>
        <time>2022-08-28T01:16:29Z</time>
      </trkpt>
      <trkpt lat="46.05765" lon="7.0017">
        <ele>1865</ele>
        <time>2022-08-28T01:16:31Z</time>
      </trkpt>
      <trkpt lat="46.05766" lon="7.00168">
        <ele>1865</ele>
        <time>2022-08-28T01:16:33Z</time>
      </trkpt>
      <trkpt lat="46.05767" lon="7.00166">
        <ele>1865</ele>
        <time>2022-08-28T01:16:35Z</time>
      </trkpt>
      <trkpt lat="46.05768" lon="7.00163">
        <ele>1866</ele>
        <time>2022-08-28T01:16:38Z</time>
      </trkpt>
      <trkpt lat="46.05768" lon="7.0016">
        <ele>1866</ele>
        <time>2022-08-28T01:16:41Z</time>
      </trkpt>
      <trkpt lat="46.05768" lon="7.00157">
        <ele>1866</ele>
        <time>2022-08-28T01:16:43Z</time>
      </trkpt>
      <trkpt lat="46.05769" lon="7.00153">
        <ele>1866</ele>
        <time>2022-08-28T01:16:46Z</time>
      </trkpt>
      <trkpt lat="46.0577" lon="7.0015">
        <ele>1866</ele>
        <time>2022-08-28T01:16:49Z</time>
      </trkpt>
      <trkpt lat="46.0577" lon="7.00146">
        <ele>1866</ele>
        <time>2022-08-28T01:16:51Z</time>
      </trkpt>
      <trkpt lat="46.0577" lon="7.00142">
        <ele>1865</ele>
        <time>2022-08-28T01:16:53Z</time>
      </trkpt>
      <trkpt lat="46.0577" lon="7.00139">
        <ele>1865</ele>
        <time>2022-08-28T01:16:55Z</time>
      </trkpt>
      <trkpt lat="46.05769" lon="7.00136">
        <ele>1865</ele>
        <time>2022-08-28T01:16:57Z</time>
      </trkpt>
      <trkpt lat="46.05769" lon="7.00132">
        <ele>1865</ele>
        <time>2022-08-28T01:16:59Z</time>
      </trkpt>
      <trkpt lat="46.05768" lon="7.00129">
        <ele>1865</ele>
        <time>2022-08-28T01:17:01Z</time>
      </trkpt>
      <trkpt lat="46.05767" lon="7.00126">
        <ele>1865</ele>
        <time>2022-08-28T01:17:03Z</time>
      </trkpt>
      <trkpt lat="46.05765" lon="7.00123">
        <ele>1865</ele>
        <time>2022-08-28T01:17:05Z</time>
      </trkpt>
      <trkpt lat="46.05764" lon="7.0012">
        <ele>1865</ele>
        <time>2022-08-28T01:17:07Z</time>
      </trkpt>
      <trkpt lat="46.05762" lon="7.00118">
        <ele>1865</ele>
        <time>2022-08-28T01:17:09Z</time>
      </trkpt>
      <trkpt lat="46.0576" lon="7.00117">
        <ele>1865</ele>
        <time>2022-08-28T01:17:11Z</time>
      </trkpt>
      <trkpt lat="46.05757" lon="7.00115">
        <ele>1865</ele>
        <time>2022-08-28T01:17:14Z</time>
      </trkpt>
      <trkpt lat="46.05755" lon="7.00115">
        <ele>1865</ele>
        <time>2022-08-28T01:17:16Z</time>
      </trkpt>
      <trkpt lat="46.05753" lon="7.00114">
        <ele>1865</ele>
        <time>2022-08-28T01:17:18Z</time>
      </trkpt>
      <trkpt lat="46.0575" lon="7.00114">
        <ele>1865</ele>
        <time>2022-08-28T01:17:20Z</time>
      </trkpt>
      <trkpt lat="46.05748" lon="7.00114">
        <ele>1865</ele>
        <time>2022-08-28T01:17:22Z</time>
      </trkpt>
      <trkpt lat="46.05745" lon="7.00114">
        <ele>1865</ele>
        <time>2022-08-28T01:17:24Z</time>
      </trkpt>
      <trkpt lat="46.05743" lon="7.00114">
        <ele>1865</ele>
        <time>2022-08-28T01:17:26Z</time>
      </trkpt>
      <trkpt lat="46.0574" lon="7.00113">
        <ele>1865</ele>
        <time>2022-08-28T01:17:28Z</time>
      </trkpt>
      <trkpt lat="46.05738" lon="7.00113">
        <ele>1865</ele>
        <time>2022-08-28T01:17:30Z</time>
      </trkpt>
      <trkpt lat="46.05735" lon="7.00112">
        <ele>1865</ele>
        <time>2022-08-28T01:17:32Z</time>
      </trkpt>
      <trkpt lat="46.05733" lon="7.00111">
        <ele>1866</ele>
        <time>2022-08-28T01:17:34Z</time>
      </trkpt>
      <trkpt lat="46.05731" lon="7.0011">
        <ele>1866</ele>
        <time>2022-08-28T01:17:36Z</time>
      </trkpt>
      <trkpt lat="46.05728" lon="7.00109">
        <ele>1866</ele>
        <time>2022-08-28T01:17:38Z</time>
      </trkpt>
      <trkpt lat="46.05725" lon="7.00108">
        <ele>1866</ele>
        <time>2022-08-28T01:17:40Z</time>
      </trkpt>
      <trkpt lat="46.05722" lon="7.00107">
        <ele>1866</ele>
        <time>2022-08-28T01:17:42Z</time>
      </trkpt>
      <trkpt lat="46.05721" lon="7.00105">
        <ele>1866</ele>
        <time>2022-08-28T01:17:44Z</time>
      </trkpt>
      <trkpt lat="46.05718" lon="7.00104">
        <ele>1866</ele>
        <time>2022-08-28T01:17:46Z</time>
      </trkpt>
      <trkpt lat="46.05716" lon="7.00102">
        <ele>1866</ele>
        <time>2022-08-28T01:17:48Z</time>
      </trkpt>
      <trkpt lat="46.05715" lon="7.001">
        <ele>1866</ele>
        <time>2022-08-28T01:17:50Z</time>
      </trkpt>
      <trkpt lat="46.05713" lon="7.00098">
        <ele>1866</ele>
        <time>2022-08-28T01:17:52Z</time>
      </trkpt>
      <trkpt lat="46.05711" lon="7.00096">
        <ele>1866</ele>
        <time>2022-08-28T01:17:54Z</time>
      </trkpt>
      <trkpt lat="46.05709" lon="7.00094">
        <ele>1866</ele>
        <time>2022-08-28T01:17:56Z</time>
      </trkpt>
      <trkpt lat="46.05707" lon="7.00091">
        <ele>1866</ele>
        <time>2022-08-28T01:17:58Z</time>
      </trkpt>
      <trkpt lat="46.05706" lon="7.00089">
        <ele>1865</ele>
        <time>2022-08-28T01:18:00Z</time>
      </trkpt>
      <trkpt lat="46.05704" lon="7.00086">
        <ele>1865</ele>
        <time>2022-08-28T01:18:02Z</time>
      </trkpt>
      <trkpt lat="46.05703" lon="7.00083">
        <ele>1865</ele>
        <time>2022-08-28T01:18:04Z</time>
      </trkpt>
      <trkpt lat="46.05702" lon="7.00081">
        <ele>1865</ele>
        <time>2022-08-28T01:18:06Z</time>
      </trkpt>
      <trkpt lat="46.05701" lon="7.00079">
        <ele>1865</ele>
        <time>2022-08-28T01:18:08Z</time>
      </trkpt>
      <trkpt lat="46.05699" lon="7.00077">
        <ele>1865</ele>
        <time>2022-08-28T01:18:10Z</time>
      </trkpt>
      <trkpt lat="46.05697" lon="7.00076">
        <ele>1865</ele>
        <time>2022-08-28T01:18:12Z</time>
      </trkpt>
      <trkpt lat="46.05695" lon="7.00075">
        <ele>1865</ele>
        <time>2022-08-28T01:18:14Z</time>
      </trkpt>
      <trkpt lat="46.05693" lon="7.00074">
        <ele>1865</ele>
        <time>2022-08-28T01:18:16Z</time>
      </trkpt>
      <trkpt lat="46.05691" lon="7.00074">
        <ele>1865</ele>
        <time>2022-08-28T01:18:18Z</time>
      </trkpt>
      <trkpt lat="46.05689" lon="7.00074">
        <ele>1865</ele>
        <time>2022-08-28T01:18:20Z</time>
      </trkpt>
      <trkpt lat="46.05686" lon="7.00074">
        <ele>1865</ele>
        <time>2022-08-28T01:18:22Z</time>
      </trkpt>
      <trkpt lat="46.05684" lon="7.00074">
        <ele>1865</ele>
        <time>2022-08-28T01:18:24Z</time>
      </trkpt>
      <trkpt lat="46.05682" lon="7.00075">
        <ele>1865</ele>
        <time>2022-08-28T01:18:26Z</time>
      </trkpt>
      <trkpt lat="46.05679" lon="7.00076">
        <ele>1865</ele>
        <time>2022-08-28T01:18:28Z</time>
      </trkpt>
      <trkpt lat="46.05677" lon="7.00078">
        <ele>1865</ele>
        <time>2022-08-28T01:18:30Z</time>
      </trkpt>
      <trkpt lat="46.05675" lon="7.0008">
        <ele>1865</ele>
        <time>2022-08-28T01:18:32Z</time>
      </trkpt>
      <trkpt lat="46.05673" lon="7.00081">
        <ele>1865</ele>
        <time>2022-08-28T01:18:34Z</time>
      </trkpt>
      <trkpt lat="46.05671" lon="7.00083">
        <ele>1865</ele>
        <time>2022-08-28T01:18:36Z</time>
      </trkpt>
      <trkpt lat="46.05669" lon="7.00085">
        <ele>1865</ele>
        <time>2022-08-28T01:18:38Z</time>
      </trkpt>
      <trkpt lat="46.05667" lon="7.00087">
        <ele>1865</ele>
        <time>2022-08-28T01:18:40Z</time>
      </trkpt>
      <trkpt lat="46.05664" lon="7.00089">
        <ele>1865</ele>
        <time>2022-08-28T01:18:42Z</time>
      </trkpt>
      <trkpt lat="46.05662" lon="7.0009">
        <ele>1865</ele>
        <time>2022-08-28T01:18:44Z</time>
      </trkpt>
      <trkpt lat="46.05661" lon="7.00092">
        <ele>1865</ele>
        <time>2022-08-28T01:18:46Z</time>
      </trkpt>
      <trkpt lat="46.05658" lon="7.00093">
        <ele>1865</ele>
        <time>2022-08-28T01:18:48Z</time>
      </trkpt>
      <trkpt lat="46.05656" lon="7.00093">
        <ele>1866</ele>
        <time>2022-08-28T01:18:50Z</time>
      </trkpt>
      <trkpt lat="46.05653" lon="7.00092">
        <ele>1866</ele>
        <time>2022-08-28T01:18:52Z</time>
      </trkpt>
      <trkpt lat="46.05651" lon="7.00091">
        <ele>1866</ele>
        <time>2022-08-28T01:18:54Z</time>
      </trkpt>
      <trkpt lat="46.05648" lon="7.0009">
        <ele>1866</ele>
        <time>2022-08-28T01:18:56Z</time>
      </trkpt>
      <trkpt lat="46.05646" lon="7.00089">
        <ele>1866</ele>
        <time>2022-08-28T01:18:58Z</time>
      </trkpt>
      <trkpt lat="46.05644" lon="7.00087">
        <ele>1866</ele>
        <time>2022-08-28T01:19:00Z</time>
      </trkpt>
      <trkpt lat="46.05642" lon="7.00085">
        <ele>1865</ele>
        <time>2022-08-28T01:19:02Z</time>
      </trkpt>
      <trkpt lat="46.0564" lon="7.00083">
        <ele>1865</ele>
        <time>2022-08-28T01:19:04Z</time>
      </trkpt>
      <trkpt lat="46.05638" lon="7.00081">
        <ele>1865</ele>
        <time>2022-08-28T01:19:06Z</time>
      </trkpt>
      <trkpt lat="46.05636" lon="7.00079">
        <ele>1865</ele>
        <time>2022-08-28T01:19:08Z</time>
      </trkpt>
      <trkpt lat="46.05634" lon="7.00077">
        <ele>1865</ele>
        <time>2022-08-28T01:19:10Z</time>
      </trkpt>
      <trkpt lat="46.05632" lon="7.00075">
        <ele>1865</ele>
        <time>2022-08-28T01:19:12Z</time>
      </trkpt>
      <trkpt lat="46.0563" lon="7.00074">
        <ele>1865</ele>
        <time>2022-08-28T01:19:14Z</time>
      </trkpt>
      <trkpt lat="46.05628" lon="7.00073">
        <ele>1865</ele>
        <time>2022-08-28T01:19:16Z</time>
      </trkpt>
      <trkpt lat="46.05625" lon="7.00072">
        <ele>1865</ele>
        <time>2022-08-28T01:19:18Z</time>
      </trkpt>
      <trkpt lat="46.05623" lon="7.00071">
        <ele>1865</ele>
        <time>2022-08-28T01:19:20Z</time>
      </trkpt>
      <trkpt lat="46.05621" lon="7.0007">
        <ele>1865</ele>
        <time>2022-08-28T01:19:22Z</time>
      </trkpt>
      <trkpt lat="46.05619" lon="7.00069">
        <ele>1865</ele>
        <time>2022-08-28T01:19:24Z</time>
      </trkpt>
      <trkpt lat="46.05616" lon="7.00068">
        <ele>1865</ele>
        <time>2022-08-28T01:19:26Z</time>
      </trkpt>
      <trkpt lat="46.05614" lon="7.00067">
        <ele>1865</ele>
        <time>2022-08-28T01:19:28Z</time>
      </trkpt>
      <trkpt lat="46.05612" lon="7.00065">
        <ele>1865</ele>
        <time>2022-08-28T01:19:30Z</time>
      </trkpt>
      <trkpt lat="46.0561" lon="7.00064">
        <ele>1865</ele>
        <time>2022-08-28T01:19:32Z</time>
      </trkpt>
      <trkpt lat="46.05608" lon="7.00062">
        <ele>1865</ele>
        <time>2022-08-28T01:19:34Z</time>
      </trkpt>
      <trkpt lat="46.05605" lon="7.00061">
        <ele>1865</ele>
        <time>2022-08-28T01:19:36Z</time>
      </trkpt>
      <trkpt lat="46.05603" lon="7.00059">
        <ele>1865</ele>
        <time>2022-08-28T01:19:38Z</time>
      </trkpt>
      <trkpt lat="46.05601" lon="7.00057">
        <ele>1865</ele>
        <time>2022-08-28T01:19:40Z</time>
      </trkpt>
      <trkpt lat="46.05599" lon="7.00055">
        <ele>1865</ele>
        <time>2022-08-28T01:19:42Z</time>
      </trkpt>
      <trkpt lat="46.05597" lon="7.00052">
        <ele>1865</ele>
        <time>2022-08-28T01:19:44Z</time>
      </trkpt>
      <trkpt lat="46.05595" lon="7.0005">
        <ele>1865</ele>
        <time>2022-08-28T01:19:46Z</time>
      </trkpt>
      <trkpt lat="46.05593" lon="7.00048">
        <ele>1865</ele>
        <time>2022-08-28T01:19:48Z</time>
      </trkpt>
      <trkpt lat="46.05591" lon="7.00045">
        <ele>1865</ele>
        <time>2022-08-28T01:19:50Z</time>
      </trkpt>
      <trkpt lat="46.05589" lon="7.00043">
        <ele>1865</ele>
        <time>2022-08-28T01:19:52Z</time>
      </trkpt>
      <trkpt lat="46.05587" lon="7.00041">
        <ele>1865</ele>
        <time>2022-08-28T01:19:54Z</time>
      </trkpt>
      <trkpt lat="46.05585" lon="7.00039">
        <ele>1865</ele>
        <time>2022-08-28T01:19:56Z</time>
      </trkpt>
      <trkpt lat="46.05583" lon="7.00037">
        <ele>1865</ele>
        <time>2022-08-28T01:19:58Z</time>
      </trkpt>
      <trkpt lat="46.05581" lon="7.00036">
        <ele>1865</ele>
        <time>2022-08-28T01:20:00Z</time>
      </trkpt>
      <trkpt lat="46.05578" lon="7.00034">
        <ele>1865</ele>
        <time>2022-08-28T01:20:02Z</time>
      </trkpt>
      <trkpt lat="46.05576" lon="7.00033">
        <ele>1865</ele>
        <time>2022-08-28T01:20:04Z</time>
      </trkpt>
      <trkpt lat="46.05574" lon="7.00032">
        <ele>1865</ele>
        <time>2022-08-28T01:20:06Z</time>
      </trkpt>
      <trkpt lat="46.05572" lon="7.00031">
        <ele>1865</ele>
        <time>2022-08-28T01:20:08Z</time>
      </trkpt>
      <trkpt lat="46.0557" lon="7.0003">
        <ele>1865</ele>
        <time>2022-08-28T01:20:10Z</time>
      </trkpt>
      <trkpt lat="46.05567" lon="7.00029">
        <ele>1865</ele>
        <time>2022-08-28T01:20:12Z</time>
      </trkpt>
      <trkpt lat="46.05564" lon="7.00028">
        <ele>1865</ele>
        <time>2022-08-28T01:20:14Z</time>
      </trkpt>
      <trkpt lat="46.05562" lon="7.00026">
        <ele>1866</ele>
        <time>2022-08-28T01:20:16Z</time>
      </trkpt>
      <trkpt lat="46.05559" lon="7.00025">
        <ele>1866</ele>
        <time>2022-08-28T01:20:18Z</time>
      </trkpt>
      <trkpt lat="46.05557" lon="7.00025">
        <ele>1866</ele>
        <time>2022-08-28T01:20:20Z</time>
      </trkpt>
      <trkpt lat="46.05554" lon="7.00024">
        <ele>1866</ele>
        <time>2022-08-28T01:20:22Z</time>
      </trkpt>
      <trkpt lat="46.05552" lon="7.00024">
        <ele>1866</ele>
        <time>2022-08-28T01:20:24Z</time>
      </trkpt>
      <trkpt lat="46.05549" lon="7.00024">
        <ele>1866</ele>
        <time>2022-08-28T01:20:26Z</time>
      </trkpt>
      <trkpt lat="46.05547" lon="7.00024">
        <ele>1866</ele>
        <time>2022-08-28T01:20:28Z</time>
      </trkpt>
      <trkpt lat="46.05545" lon="7.00023">
        <ele>1866</ele>
        <time>2022-08-28T01:20:30Z</time>
      </trkpt>
      <trkpt lat="46.05543" lon="7.00023">
        <ele>1866</ele>
        <time>2022-08-28T01:20:32Z</time>
      </trkpt>
      <trkpt lat="46.05541" lon="7.00022">
        <ele>1866</ele>
        <time>2022-08-28T01:20:34Z</time>
      </trkpt>
      <trkpt lat="46.05539" lon="7.00021">
        <ele>1866</ele>
        <time>2022-08-28T01:20:36Z</time>
      </trkpt>
      <trkpt lat="46.05536" lon="7.00021">
        <ele>1866</ele>
        <time>2022-08-28T01:20:38Z</time>
      </trkpt>
      <trkpt lat="46.05534" lon="7.0002">
        <ele>1866</ele>
        <time>2022-08-28T01:20:40Z</time>
      </trkpt>
      <trkpt lat="46.05532" lon="7.0002">
        <ele>1866</ele>
        <time>2022-08-28T01:20:42Z</time>
      </trkpt>
      <trkpt lat="46.05529" lon="7.0002">
        <ele>1866</ele>
        <time>2022-08-28T01:20:44Z</time>
      </trkpt>
      <trkpt lat="46.05527" lon="7.0002">
        <ele>1866</ele>
        <time>2022-08-28T01:20:46Z</time>
      </trkpt>
      <trkpt lat="46.05524" lon="7.0002">
        <ele>1866</ele>
        <time>2022-08-28T01:20:48Z</time>
      </trkpt>
      <trkpt lat="46.05522" lon="7.00021">
        <ele>1866</ele>
        <time>2022-08-28T01:20:50Z</time>
      </trkpt>
      <trkpt lat="46.05521" lon="7.00022">
        <ele>1866</ele>
        <time>2022-08-28T01:20:51Z</time>
      </trkpt>
      <trkpt lat="46.05519" lon="7.00023">
        <ele>1866</ele>
        <time>2022-08-28T01:20:52Z</time>
      </trkpt>
      <trkpt lat="46.05518" lon="7.00024">
        <ele>1866</ele>
        <time>2022-08-28T01:20:53Z</time>
      </trkpt>
      <trkpt lat="46.05516" lon="7.00027">
        <ele>1865</ele>
        <time>2022-08-28T01:20:55Z</time>
      </trkpt>
      <trkpt lat="46.05515" lon="7.00029">
        <ele>1865</ele>
        <time>2022-08-28T01:20:57Z</time>
      </trkpt>
      <trkpt lat="46.05513" lon="7.0003">
        <ele>1865</ele>
        <time>2022-08-28T01:20:59Z</time>
      </trkpt>
      <trkpt lat="46.05511" lon="7.00034">
        <ele>1865</ele>
        <time>2022-08-28T01:21:01Z</time>
      </trkpt>
      <trkpt lat="46.0551" lon="7.00034">
        <ele>1865</ele>
        <time>2022-08-28T01:21:02Z</time>
      </trkpt>
      <trkpt lat="46.05508" lon="7.00037">
        <ele>1866</ele>
        <time>2022-08-28T01:21:04Z</time>
      </trkpt>
      <trkpt lat="46.05506" lon="7.0004">
        <ele>1866</ele>
        <time>2022-08-28T01:21:06Z</time>
      </trkpt>
      <trkpt lat="46.05505" lon="7.00042">
        <ele>1866</ele>
        <time>2022-08-28T01:21:08Z</time>
      </trkpt>
      <trkpt lat="46.05502" lon="7.00043">
        <ele>1866</ele>
        <time>2022-08-28T01:21:10Z</time>
      </trkpt>
      <trkpt lat="46.05499" lon="7.00046">
        <ele>1866</ele>
        <time>2022-08-28T01:21:12Z</time>
      </trkpt>
      <trkpt lat="46.05498" lon="7.00046">
        <ele>1866</ele>
        <time>2022-08-28T01:21:14Z</time>
      </trkpt>
      <trkpt lat="46.05497" lon="7.00047">
        <ele>1866</ele>
        <time>2022-08-28T01:21:15Z</time>
      </trkpt>
      <trkpt lat="46.05497" lon="7.00048">
        <ele>1866</ele>
        <time>2022-08-28T01:21:16Z</time>
      </trkpt>
      <trkpt lat="46.05496" lon="7.00048">
        <ele>1866</ele>
        <time>2022-08-28T01:21:17Z</time>
      </trkpt>
      <trkpt lat="46.05495" lon="7.00049">
        <ele>1866</ele>
        <time>2022-08-28T01:21:18Z</time>
      </trkpt>
      <trkpt lat="46.05494" lon="7.0005">
        <ele>1866</ele>
        <time>2022-08-28T01:21:19Z</time>
      </trkpt>
      <trkpt lat="46.05492" lon="7.00051">
        <ele>1866</ele>
        <time>2022-08-28T01:21:21Z</time>
      </trkpt>
      <trkpt lat="46.0549" lon="7.00052">
        <ele>1866</ele>
        <time>2022-08-28T01:21:24Z</time>
      </trkpt>
      <trkpt lat="46.05487" lon="7.00053">
        <ele>1866</ele>
        <time>2022-08-28T01:21:26Z</time>
      </trkpt>
      <trkpt lat="46.05485" lon="7.00054">
        <ele>1866</ele>
        <time>2022-08-28T01:21:28Z</time>
      </trkpt>
      <trkpt lat="46.05482" lon="7.00056">
        <ele>1866</ele>
        <time>2022-08-28T01:21:30Z</time>
      </trkpt>
      <trkpt lat="46.05479" lon="7.00056">
        <ele>1866</ele>
        <time>2022-08-28T01:21:32Z</time>
      </trkpt>
      <trkpt lat="46.05476" lon="7.00057">
        <ele>1866</ele>
        <time>2022-08-28T01:21:34Z</time>
      </trkpt>
      <trkpt lat="46.05472" lon="7.00059">
        <ele>1866</ele>
        <time>2022-08-28T01:21:36Z</time>
      </trkpt>
      <trkpt lat="46.05469" lon="7.00059">
        <ele>1866</ele>
        <time>2022-08-28T01:21:38Z</time>
      </trkpt>
      <trkpt lat="46.05466" lon="7.00059">
        <ele>1866</ele>
        <time>2022-08-28T01:21:40Z</time>
      </trkpt>
      <trkpt lat="46.05463" lon="7.00058">
        <ele>1866</ele>
        <time>2022-08-28T01:21:42Z</time>
      </trkpt>
      <trkpt lat="46.0546" lon="7.00058">
        <ele>1866</ele>
        <time>2022-08-28T01:21:44Z</time>
      </trkpt>
      <trkpt lat="46.05451" lon="7.00059">
        <ele>1866</ele>
        <time>2022-08-28T01:21:50Z</time>
      </trkpt>
      <trkpt lat="46.05449" lon="7.00059">
        <ele>1866</ele>
        <time>2022-08-28T01:21:51Z</time>
      </trkpt>
      <trkpt lat="46.05448" lon="7.00059">
        <ele>1865</ele>
        <time>2022-08-28T01:21:52Z</time>
      </trkpt>
      <trkpt lat="46.05447" lon="7.00059">
        <ele>1865</ele>
        <time>2022-08-28T01:21:54Z</time>
      </trkpt>
      <trkpt lat="46.05446" lon="7.00059">
        <ele>1865</ele>
        <time>2022-08-28T01:21:55Z</time>
      </trkpt>
      <trkpt lat="46.05444" lon="7.00059">
        <ele>1865</ele>
        <time>2022-08-28T01:21:56Z</time>
      </trkpt>
      <trkpt lat="46.05443" lon="7.00059">
        <ele>1865</ele>
        <time>2022-08-28T01:21:57Z</time>
      </trkpt>
      <trkpt lat="46.05442" lon="7.00059">
        <ele>1865</ele>
        <time>2022-08-28T01:21:58Z</time>
      </trkpt>
      <trkpt lat="46.05441" lon="7.00059">
        <ele>1865</ele>
        <time>2022-08-28T01:21:59Z</time>
      </trkpt>
      <trkpt lat="46.05439" lon="7.00059">
        <ele>1865</ele>
        <time>2022-08-28T01:22:00Z</time>
      </trkpt>
      <trkpt lat="46.05438" lon="7.00059">
        <ele>1865</ele>
        <time>2022-08-28T01:22:01Z</time>
      </trkpt>
      <trkpt lat="46.05437" lon="7.00059">
        <ele>1865</ele>
        <time>2022-08-28T01:22:03Z</time>
      </trkpt>
      <trkpt lat="46.05435" lon="7.00059">
        <ele>1865</ele>
        <time>2022-08-28T01:22:04Z</time>
      </trkpt>
      <trkpt lat="46.0543" lon="7.00058">
        <ele>1865</ele>
        <time>2022-08-28T01:22:05Z</time>
      </trkpt>
      <trkpt lat="46.0542" lon="7.00059">
        <ele>1865</ele>
        <time>2022-08-28T01:22:13Z</time>
      </trkpt>
      <trkpt lat="46.05419" lon="7.00059">
        <ele>1865</ele>
        <time>2022-08-28T01:22:14Z</time>
      </trkpt>
      <trkpt lat="46.05418" lon="7.00059">
        <ele>1865</ele>
        <time>2022-08-28T01:22:15Z</time>
      </trkpt>
      <trkpt lat="46.05417" lon="7.00059">
        <ele>1865</ele>
        <time>2022-08-28T01:22:16Z</time>
      </trkpt>
      <trkpt lat="46.05416" lon="7.00059">
        <ele>1865</ele>
        <time>2022-08-28T01:22:18Z</time>
      </trkpt>
      <trkpt lat="46.05415" lon="7.00059">
        <ele>1865</ele>
        <time>2022-08-28T01:22:19Z</time>
      </trkpt>
      <trkpt lat="46.05414" lon="7.00059">
        <ele>1865</ele>
        <time>2022-08-28T01:22:20Z</time>
      </trkpt>
      <trkpt lat="46.05413" lon="7.00059">
        <ele>1865</ele>
        <time>2022-08-28T01:22:21Z</time>
      </trkpt>
      <trkpt lat="46.05412" lon="7.00059">
        <ele>1865</ele>
        <time>2022-08-28T01:22:22Z</time>
      </trkpt>
      <trkpt lat="46.05411" lon="7.00059">
        <ele>1865</ele>
        <time>2022-08-28T01:22:23Z</time>
      </trkpt>
      <trkpt lat="46.05409" lon="7.0006">
        <ele>1865</ele>
        <time>2022-08-28T01:22:24Z</time>
      </trkpt>
      <trkpt lat="46.05407" lon="7.00061">
        <ele>1865</ele>
        <time>2022-08-28T01:22:26Z</time>
      </trkpt>
      <trkpt lat="46.05405" lon="7.00062">
        <ele>1866</ele>
        <time>2022-08-28T01:22:28Z</time>
      </trkpt>
      <trkpt lat="46.05402" lon="7.00063">
        <ele>1866</ele>
        <time>2022-08-28T01:22:29Z</time>
      </trkpt>
      <trkpt lat="46.05393" lon="7.00061">
        <ele>1866</ele>
        <time>2022-08-28T01:22:37Z</time>
      </trkpt>
      <trkpt lat="46.05391" lon="7.00061">
        <ele>1866</ele>
        <time>2022-08-28T01:22:38Z</time>
      </trkpt>
      <trkpt lat="46.05389" lon="7.00061">
        <ele>1866</ele>
        <time>2022-08-28T01:22:39Z</time>
      </trkpt>
      <trkpt lat="46.05387" lon="7.00061">
        <ele>1866</ele>
        <time>2022-08-28T01:22:40Z</time>
      </trkpt>
      <trkpt lat="46.05385" lon="7.00061">
        <ele>1865</ele>
        <time>2022-08-28T01:22:42Z</time>
      </trkpt>
      <trkpt lat="46.05383" lon="7.00062">
        <ele>1865</ele>
        <time>2022-08-28T01:22:43Z</time>
      </trkpt>
      <trkpt lat="46.05374" lon="7.00062">
        <ele>1865</ele>
        <time>2022-08-28T01:22:50Z</time>
      </trkpt>
      <trkpt lat="46.05372" lon="7.00062">
        <ele>1865</ele>
        <time>2022-08-28T01:22:52Z</time>
      </trkpt>
      <trkpt lat="46.05371" lon="7.00062">
        <ele>1865</ele>
        <time>2022-08-28T01:22:53Z</time>
      </trkpt>
      <trkpt lat="46.05369" lon="7.00062">
        <ele>1865</ele>
        <time>2022-08-28T01:22:54Z</time>
      </trkpt>
      <trkpt lat="46.05368" lon="7.00062">
        <ele>1865</ele>
        <time>2022-08-28T01:22:55Z</time>
      </trkpt>
      <trkpt lat="46.05367" lon="7.00062">
        <ele>1866</ele>
        <time>2022-08-28T01:22:57Z</time>
      </trkpt>
      <trkpt lat="46.05365" lon="7.00062">
        <ele>1866</ele>
        <time>2022-08-28T01:22:58Z</time>
      </trkpt>
      <trkpt lat="46.05364" lon="7.00062">
        <ele>1866</ele>
        <time>2022-08-28T01:22:59Z</time>
      </trkpt>
      <trkpt lat="46.05362" lon="7.00062">
        <ele>1866</ele>
        <time>2022-08-28T01:23:00Z</time>
      </trkpt>
      <trkpt lat="46.05361" lon="7.00062">
        <ele>1866</ele>
        <time>2022-08-28T01:23:01Z</time>
      </trkpt>
      <trkpt lat="46.05359" lon="7.00062">
        <ele>1866</ele>
        <time>2022-08-28T01:23:03Z</time>
      </trkpt>
      <trkpt lat="46.05357" lon="7.00062">
        <ele>1866</ele>
        <time>2022-08-28T01:23:04Z</time>
      </trkpt>
      <trkpt lat="46.05356" lon="7.00062">
        <ele>1866</ele>
        <time>2022-08-28T01:23:05Z</time>
      </trkpt>
      <trkpt lat="46.05354" lon="7.00063">
        <ele>1866</ele>
        <time>2022-08-28T01:23:06Z</time>
      </trkpt>
      <trkpt lat="46.05352" lon="7.00063">
        <ele>1866</ele>
        <time>2022-08-28T01:23:07Z</time>
      </trkpt>
      <trkpt lat="46.0535" lon="7.00063">
        <ele>1866</ele>
        <time>2022-08-28T01:23:09Z</time>
      </trkpt>
      <trkpt lat="46.05348" lon="7.00063">
        <ele>1866</ele>
        <time>2022-08-28T01:23:10Z</time>
      </trkpt>
      <trkpt lat="46.05347" lon="7.00063">
        <ele>1866</ele>
        <time>2022-08-28T01:23:11Z</time>
      </trkpt>
      <trkpt lat="46.05345" lon="7.00063">
        <ele>1866</ele>
        <time>2022-08-28T01:23:13Z</time>
      </trkpt>
      <trkpt lat="46.05343" lon="7.00064">
        <ele>1866</ele>
        <time>2022-08-28T01:23:14Z</time>
      </trkpt>
      <trkpt lat="46.05342" lon="7.00064">
        <ele>1866</ele>
        <time>2022-08-28T01:23:15Z</time>
      </trkpt>
      <trkpt lat="46.0534" lon="7.00064">
        <ele>1866</ele>
        <time>2022-08-28T01:23:16Z</time>
      </trkpt>
      <trkpt lat="46.05339" lon="7.00063">
        <ele>1866</ele>
        <time>2022-08-28T01:23:17Z</time>
      </trkpt>
      <trkpt lat="46.05337" lon="7.00063">
        <ele>1866</ele>
        <time>2022-08-28T01:23:18Z</time>
      </trkpt>
      <trkpt lat="46.05336" lon="7.00063">
        <ele>1866</ele>
        <time>2022-08-28T01:23:20Z</time>
      </trkpt>
      <trkpt lat="46.05334" lon="7.00064">
        <ele>1866</ele>
        <time>2022-08-28T01:23:21Z</time>
      </trkpt>
      <trkpt lat="46.05333" lon="7.00064">
        <ele>1866</ele>
        <time>2022-08-28T01:23:22Z</time>
      </trkpt>
      <trkpt lat="46.05332" lon="7.00064">
        <ele>1866</ele>
        <time>2022-08-28T01:23:23Z</time>
      </trkpt>
      <trkpt lat="46.0533" lon="7.00064">
        <ele>1866</ele>
        <time>2022-08-28T01:23:25Z</time>
      </trkpt>
      <trkpt lat="46.05329" lon="7.00064">
        <ele>1866</ele>
        <time>2022-08-28T01:23:26Z</time>
      </trkpt>
      <trkpt lat="46.05328" lon="7.00064">
        <ele>1866</ele>
        <time>2022-08-28T01:23:27Z</time>
      </trkpt>
      <trkpt lat="46.05326" lon="7.00064">
        <ele>1866</ele>
        <time>2022-08-28T01:23:28Z</time>
      </trkpt>
      <trkpt lat="46.05325" lon="7.00064">
        <ele>1866</ele>
        <time>2022-08-28T01:23:29Z</time>
      </trkpt>
      <trkpt lat="46.05324" lon="7.00065">
        <ele>1866</ele>
        <time>2022-08-28T01:23:30Z</time>
      </trkpt>
      <trkpt lat="46.05322" lon="7.00065">
        <ele>1866</ele>
        <time>2022-08-28T01:23:32Z</time>
      </trkpt>
      <trkpt lat="46.05321" lon="7.00065">
        <ele>1866</ele>
        <time>2022-08-28T01:23:33Z</time>
      </trkpt>
      <trkpt lat="46.0532" lon="7.00065">
        <ele>1866</ele>
        <time>2022-08-28T01:23:34Z</time>
      </trkpt>
      <trkpt lat="46.05318" lon="7.00065">
        <ele>1866</ele>
        <time>2022-08-28T01:23:35Z</time>
      </trkpt>
      <trkpt lat="46.05317" lon="7.00066">
        <ele>1866</ele>
        <time>2022-08-28T01:23:36Z</time>
      </trkpt>
      <trkpt lat="46.05315" lon="7.00067">
        <ele>1866</ele>
        <time>2022-08-28T01:23:37Z</time>
      </trkpt>
      <trkpt lat="46.05314" lon="7.00068">
        <ele>1866</ele>
        <time>2022-08-28T01:23:38Z</time>
      </trkpt>
      <trkpt lat="46.05312" lon="7.00069">
        <ele>1866</ele>
        <time>2022-08-28T01:23:40Z</time>
      </trkpt>
      <trkpt lat="46.05311" lon="7.00071">
        <ele>1866</ele>
        <time>2022-08-28T01:23:41Z</time>
      </trkpt>
      <trkpt lat="46.05309" lon="7.00072">
        <ele>1866</ele>
        <time>2022-08-28T01:23:42Z</time>
      </trkpt>
      <trkpt lat="46.05307" lon="7.00072">
        <ele>1866</ele>
        <time>2022-08-28T01:23:44Z</time>
      </trkpt>
      <trkpt lat="46.05305" lon="7.00072">
        <ele>1866</ele>
        <time>2022-08-28T01:23:45Z</time>
      </trkpt>
      <trkpt lat="46.05303" lon="7.00073">
        <ele>1866</ele>
        <time>2022-08-28T01:23:46Z</time>
      </trkpt>
      <trkpt lat="46.05301" lon="7.00073">
        <ele>1866</ele>
        <time>2022-08-28T01:23:48Z</time>
      </trkpt>
      <trkpt lat="46.05299" lon="7.00074">
        <ele>1866</ele>
        <time>2022-08-28T01:23:49Z</time>
      </trkpt>
      <trkpt lat="46.05298" lon="7.00075">
        <ele>1866</ele>
        <time>2022-08-28T01:23:50Z</time>
      </trkpt>
      <trkpt lat="46.05296" lon="7.00076">
        <ele>1866</ele>
        <time>2022-08-28T01:23:51Z</time>
      </trkpt>
      <trkpt lat="46.05294" lon="7.00077">
        <ele>1866</ele>
        <time>2022-08-28T01:23:53Z</time>
      </trkpt>
      <trkpt lat="46.05293" lon="7.00078">
        <ele>1866</ele>
        <time>2022-08-28T01:23:54Z</time>
      </trkpt>
      <trkpt lat="46.05291" lon="7.00079">
        <ele>1866</ele>
        <time>2022-08-28T01:23:55Z</time>
      </trkpt>
      <trkpt lat="46.05289" lon="7.00081">
        <ele>1866</ele>
        <time>2022-08-28T01:23:56Z</time>
      </trkpt>
      <trkpt lat="46.05287" lon="7.00082">
        <ele>1866</ele>
        <time>2022-08-28T01:23:59Z</time>
      </trkpt>
      <trkpt lat="46.05284" lon="7.00084">
        <ele>1866</ele>
        <time>2022-08-28T01:24:01Z</time>
      </trkpt>
      <trkpt lat="46.05283" lon="7.00084">
        <ele>1866</ele>
        <time>2022-08-28T01:24:03Z</time>
      </trkpt>
      <trkpt lat="46.05282" lon="7.00085">
        <ele>1866</ele>
        <time>2022-08-28T01:24:04Z</time>
      </trkpt>
      <trkpt lat="46.05281" lon="7.00086">
        <ele>1866</ele>
        <time>2022-08-28T01:24:05Z</time>
      </trkpt>
      <trkpt lat="46.05279" lon="7.00087">
        <ele>1866</ele>
        <time>2022-08-28T01:24:07Z</time>
      </trkpt>
      <trkpt lat="46.05277" lon="7.00088">
        <ele>1866</ele>
        <time>2022-08-28T01:24:09Z</time>
      </trkpt>
      <trkpt lat="46.05276" lon="7.00083">
        <ele>1866</ele>
        <time>2022-08-28T01:24:13Z</time>
      </trkpt>
      <trkpt lat="46.05277" lon="7.00081">
        <ele>1866</ele>
        <time>2022-08-28T01:24:15Z</time>
      </trkpt>
      <trkpt lat="46.05278" lon="7.00079">
        <ele>1865</ele>
        <time>2022-08-28T01:24:17Z</time>
      </trkpt>
      <trkpt lat="46.0528" lon="7.00077">
        <ele>1864</ele>
        <time>2022-08-28T01:24:19Z</time>
      </trkpt>
      <trkpt lat="46.05282" lon="7.00074">
        <ele>1863</ele>
        <time>2022-08-28T01:24:22Z</time>
      </trkpt>
      <trkpt lat="46.05283" lon="7.00072">
        <ele>1862</ele>
        <time>2022-08-28T01:24:24Z</time>
      </trkpt>
      <trkpt lat="46.05284" lon="7.00069">
        <ele>1861</ele>
        <time>2022-08-28T01:24:28Z</time>
      </trkpt>
      <trkpt lat="46.05284" lon="7.00066">
        <ele>1859</ele>
        <time>2022-08-28T01:24:32Z</time>
      </trkpt>
      <trkpt lat="46.05285" lon="7.00065">
        <ele>1859</ele>
        <time>2022-08-28T01:24:35Z</time>
      </trkpt>
      <trkpt lat="46.05287" lon="7.00062">
        <ele>1858</ele>
        <time>2022-08-28T01:24:38Z</time>
      </trkpt>
      <trkpt lat="46.05288" lon="7.0006">
        <ele>1857</ele>
        <time>2022-08-28T01:24:41Z</time>
      </trkpt>
      <trkpt lat="46.05289" lon="7.00057">
        <ele>1856</ele>
        <time>2022-08-28T01:24:44Z</time>
      </trkpt>
      <trkpt lat="46.05291" lon="7.00055">
        <ele>1855</ele>
        <time>2022-08-28T01:24:48Z</time>
      </trkpt>
      <trkpt lat="46.05291" lon="7.00052">
        <ele>1855</ele>
        <time>2022-08-28T01:24:50Z</time>
      </trkpt>
      <trkpt lat="46.05292" lon="7.00049">
        <ele>1854</ele>
        <time>2022-08-28T01:24:52Z</time>
      </trkpt>
      <trkpt lat="46.05292" lon="7.00048">
        <ele>1853</ele>
        <time>2022-08-28T01:24:54Z</time>
      </trkpt>
      <trkpt lat="46.05293" lon="7.00046">
        <ele>1852</ele>
        <time>2022-08-28T01:24:55Z</time>
      </trkpt>
      <trkpt lat="46.05293" lon="7.00044">
        <ele>1852</ele>
        <time>2022-08-28T01:24:56Z</time>
      </trkpt>
      <trkpt lat="46.05293" lon="7.00042">
        <ele>1851</ele>
        <time>2022-08-28T01:24:58Z</time>
      </trkpt>
      <trkpt lat="46.05294" lon="7.0004">
        <ele>1851</ele>
        <time>2022-08-28T01:24:59Z</time>
      </trkpt>
      <trkpt lat="46.05294" lon="7.00038">
        <ele>1851</ele>
        <time>2022-08-28T01:25:00Z</time>
      </trkpt>
      <trkpt lat="46.05295" lon="7.00035">
        <ele>1849</ele>
        <time>2022-08-28T01:25:02Z</time>
      </trkpt>
      <trkpt lat="46.05288" lon="7.00029">
        <ele>1845</ele>
        <time>2022-08-28T01:25:15Z</time>
      </trkpt>
      <trkpt lat="46.05286" lon="7.00027">
        <ele>1845</ele>
        <time>2022-08-28T01:25:20Z</time>
      </trkpt>
      <trkpt lat="46.05282" lon="7.00027">
        <ele>1842</ele>
        <time>2022-08-28T01:25:28Z</time>
      </trkpt>
      <trkpt lat="46.0528" lon="7.00026">
        <ele>1841</ele>
        <time>2022-08-28T01:25:32Z</time>
      </trkpt>
      <trkpt lat="46.0528" lon="7.00026">
        <ele>1836</ele>
        <time>2022-08-28T01:25:48Z</time>
      </trkpt>
      <trkpt lat="46.05274" lon="7.00018">
        <ele>1835</ele>
        <time>2022-08-28T01:25:52Z</time>
      </trkpt>
      <trkpt lat="46.05272" lon="7.00016">
        <ele>1835</ele>
        <time>2022-08-28T01:25:55Z</time>
      </trkpt>
      <trkpt lat="46.05271" lon="7.00014">
        <ele>1833</ele>
        <time>2022-08-28T01:25:59Z</time>
      </trkpt>
      <trkpt lat="46.05271" lon="7.00013">
        <ele>1833</ele>
        <time>2022-08-28T01:26:00Z</time>
      </trkpt>
      <trkpt lat="46.05271" lon="7.00012">
        <ele>1833</ele>
        <time>2022-08-28T01:26:02Z</time>
      </trkpt>
      <trkpt lat="46.05271" lon="7.00011">
        <ele>1833</ele>
        <time>2022-08-28T01:26:03Z</time>
      </trkpt>
      <trkpt lat="46.05271" lon="7.0001">
        <ele>1831</ele>
        <time>2022-08-28T01:26:04Z</time>
      </trkpt>
      <trkpt lat="46.05272" lon="7.00009">
        <ele>1831</ele>
        <time>2022-08-28T01:26:05Z</time>
      </trkpt>
      <trkpt lat="46.05272" lon="7.00008">
        <ele>1831</ele>
        <time>2022-08-28T01:26:07Z</time>
      </trkpt>
      <trkpt lat="46.05272" lon="7.00007">
        <ele>1830</ele>
        <time>2022-08-28T01:26:08Z</time>
      </trkpt>
      <trkpt lat="46.05272" lon="7.00006">
        <ele>1830</ele>
        <time>2022-08-28T01:26:09Z</time>
      </trkpt>
      <trkpt lat="46.05272" lon="7.00006">
        <ele>1830</ele>
        <time>2022-08-28T01:26:10Z</time>
      </trkpt>
      <trkpt lat="46.05272" lon="7.00005">
        <ele>1830</ele>
        <time>2022-08-28T01:26:11Z</time>
      </trkpt>
      <trkpt lat="46.05272" lon="7.00004">
        <ele>1830</ele>
        <time>2022-08-28T01:26:12Z</time>
      </trkpt>
      <trkpt lat="46.05266" lon="6.99998">
        <ele>1826</ele>
        <time>2022-08-28T01:26:31Z</time>
      </trkpt>
      <trkpt lat="46.05266" lon="6.99998">
        <ele>1825</ele>
        <time>2022-08-28T01:26:33Z</time>
      </trkpt>
      <trkpt lat="46.05267" lon="6.99995">
        <ele>1824</ele>
        <time>2022-08-28T01:26:37Z</time>
      </trkpt>
      <trkpt lat="46.05268" lon="6.99993">
        <ele>1823</ele>
        <time>2022-08-28T01:26:42Z</time>
      </trkpt>
      <trkpt lat="46.0527" lon="6.99991">
        <ele>1822</ele>
        <time>2022-08-28T01:26:45Z</time>
      </trkpt>
      <trkpt lat="46.05271" lon="6.99991">
        <ele>1822</ele>
        <time>2022-08-28T01:26:46Z</time>
      </trkpt>
      <trkpt lat="46.05272" lon="6.99991">
        <ele>1822</ele>
        <time>2022-08-28T01:26:47Z</time>
      </trkpt>
      <trkpt lat="46.05272" lon="6.99991">
        <ele>1821</ele>
        <time>2022-08-28T01:26:49Z</time>
      </trkpt>
      <trkpt lat="46.05273" lon="6.9999">
        <ele>1821</ele>
        <time>2022-08-28T01:26:50Z</time>
      </trkpt>
      <trkpt lat="46.05274" lon="6.9999">
        <ele>1821</ele>
        <time>2022-08-28T01:26:51Z</time>
      </trkpt>
      <trkpt lat="46.05275" lon="6.9999">
        <ele>1821</ele>
        <time>2022-08-28T01:26:52Z</time>
      </trkpt>
      <trkpt lat="46.05275" lon="6.99989">
        <ele>1820</ele>
        <time>2022-08-28T01:26:54Z</time>
      </trkpt>
      <trkpt lat="46.05276" lon="6.99989">
        <ele>1819</ele>
        <time>2022-08-28T01:26:55Z</time>
      </trkpt>
      <trkpt lat="46.05277" lon="6.99989">
        <ele>1819</ele>
        <time>2022-08-28T01:26:56Z</time>
      </trkpt>
      <trkpt lat="46.05279" lon="6.99987">
        <ele>1819</ele>
        <time>2022-08-28T01:26:59Z</time>
      </trkpt>
      <trkpt lat="46.0528" lon="6.99985">
        <ele>1818</ele>
        <time>2022-08-28T01:27:02Z</time>
      </trkpt>
      <trkpt lat="46.05279" lon="6.99982">
        <ele>1817</ele>
        <time>2022-08-28T01:27:07Z</time>
      </trkpt>
      <trkpt lat="46.05279" lon="6.99982">
        <ele>1817</ele>
        <time>2022-08-28T01:27:10Z</time>
      </trkpt>
      <trkpt lat="46.05279" lon="6.99981">
        <ele>1816</ele>
        <time>2022-08-28T01:27:11Z</time>
      </trkpt>
      <trkpt lat="46.05279" lon="6.99981">
        <ele>1816</ele>
        <time>2022-08-28T01:27:13Z</time>
      </trkpt>
      <trkpt lat="46.05278" lon="6.9998">
        <ele>1816</ele>
        <time>2022-08-28T01:27:15Z</time>
      </trkpt>
      <trkpt lat="46.05278" lon="6.99979">
        <ele>1815</ele>
        <time>2022-08-28T01:27:16Z</time>
      </trkpt>
      <trkpt lat="46.05278" lon="6.99979">
        <ele>1814</ele>
        <time>2022-08-28T01:27:17Z</time>
      </trkpt>
      <trkpt lat="46.05278" lon="6.99978">
        <ele>1814</ele>
        <time>2022-08-28T01:27:18Z</time>
      </trkpt>
      <trkpt lat="46.05278" lon="6.99978">
        <ele>1814</ele>
        <time>2022-08-28T01:27:20Z</time>
      </trkpt>
      <trkpt lat="46.05278" lon="6.99977">
        <ele>1814</ele>
        <time>2022-08-28T01:27:21Z</time>
      </trkpt>
      <trkpt lat="46.05277" lon="6.99977">
        <ele>1813</ele>
        <time>2022-08-28T01:27:22Z</time>
      </trkpt>
      <trkpt lat="46.05269" lon="6.99971">
        <ele>1810</ele>
        <time>2022-08-28T01:27:32Z</time>
      </trkpt>
      <trkpt lat="46.05269" lon="6.9997">
        <ele>1810</ele>
        <time>2022-08-28T01:27:33Z</time>
      </trkpt>
      <trkpt lat="46.05268" lon="6.99969">
        <ele>1810</ele>
        <time>2022-08-28T01:27:34Z</time>
      </trkpt>
      <trkpt lat="46.05268" lon="6.99968">
        <ele>1810</ele>
        <time>2022-08-28T01:27:35Z</time>
      </trkpt>
      <trkpt lat="46.05267" lon="6.99967">
        <ele>1810</ele>
        <time>2022-08-28T01:27:36Z</time>
      </trkpt>
      <trkpt lat="46.05267" lon="6.99966">
        <ele>1810</ele>
        <time>2022-08-28T01:27:37Z</time>
      </trkpt>
      <trkpt lat="46.05267" lon="6.99962">
        <ele>1810</ele>
        <time>2022-08-28T01:27:38Z</time>
      </trkpt>
      <trkpt lat="46.05267" lon="6.99959">
        <ele>1810</ele>
        <time>2022-08-28T01:27:40Z</time>
      </trkpt>
      <trkpt lat="46.05266" lon="6.99956">
        <ele>1810</ele>
        <time>2022-08-28T01:27:42Z</time>
      </trkpt>
      <trkpt lat="46.05266" lon="6.99953">
        <ele>1810</ele>
        <time>2022-08-28T01:27:44Z</time>
      </trkpt>
      <trkpt lat="46.05265" lon="6.99955">
        <ele>1810</ele>
        <time>2022-08-28T01:27:50Z</time>
      </trkpt>
      <trkpt lat="46.05275" lon="6.99959">
        <ele>1805</ele>
        <time>2022-08-28T01:28:05Z</time>
      </trkpt>
      <trkpt lat="46.05276" lon="6.99957">
        <ele>1805</ele>
        <time>2022-08-28T01:28:06Z</time>
      </trkpt>
      <trkpt lat="46.05277" lon="6.99955">
        <ele>1805</ele>
        <time>2022-08-28T01:28:07Z</time>
      </trkpt>
      <trkpt lat="46.05278" lon="6.99953">
        <ele>1805</ele>
        <time>2022-08-28T01:28:08Z</time>
      </trkpt>
      <trkpt lat="46.05279" lon="6.99951">
        <ele>1805</ele>
        <time>2022-08-28T01:28:10Z</time>
      </trkpt>
      <trkpt lat="46.0528" lon="6.99949">
        <ele>1805</ele>
        <time>2022-08-28T01:28:12Z</time>
      </trkpt>
      <trkpt lat="46.0528" lon="6.99947">
        <ele>1805</ele>
        <time>2022-08-28T01:28:13Z</time>
      </trkpt>
      <trkpt lat="46.05281" lon="6.99947">
        <ele>1805</ele>
        <time>2022-08-28T01:28:14Z</time>
      </trkpt>
      <trkpt lat="46.05282" lon="6.99947">
        <ele>1805</ele>
        <time>2022-08-28T01:28:15Z</time>
      </trkpt>
      <trkpt lat="46.05283" lon="6.99947">
        <ele>1805</ele>
        <time>2022-08-28T01:28:16Z</time>
      </trkpt>
      <trkpt lat="46.05284" lon="6.99946">
        <ele>1805</ele>
        <time>2022-08-28T01:28:18Z</time>
      </trkpt>
      <trkpt lat="46.05285" lon="6.99946">
        <ele>1805</ele>
        <time>2022-08-28T01:28:20Z</time>
      </trkpt>
      <trkpt lat="46.05286" lon="6.99946">
        <ele>1805</ele>
        <time>2022-08-28T01:28:21Z</time>
      </trkpt>
      <trkpt lat="46.05287" lon="6.99945">
        <ele>1805</ele>
        <time>2022-08-28T01:28:23Z</time>
      </trkpt>
      <trkpt lat="46.05288" lon="6.99945">
        <ele>1805</ele>
        <time>2022-08-28T01:28:24Z</time>
      </trkpt>
      <trkpt lat="46.05288" lon="6.99945">
        <ele>1804</ele>
        <time>2022-08-28T01:28:25Z</time>
      </trkpt>
      <trkpt lat="46.05291" lon="6.99943">
        <ele>1803</ele>
        <time>2022-08-28T01:28:26Z</time>
      </trkpt>
      <trkpt lat="46.05294" lon="6.99941">
        <ele>1803</ele>
        <time>2022-08-28T01:28:28Z</time>
      </trkpt>
      <trkpt lat="46.05297" lon="6.99939">
        <ele>1802</ele>
        <time>2022-08-28T01:28:30Z</time>
      </trkpt>
      <trkpt lat="46.053" lon="6.99938">
        <ele>1801</ele>
        <time>2022-08-28T01:28:32Z</time>
      </trkpt>
      <trkpt lat="46.05303" lon="6.99935">
        <ele>1800</ele>
        <time>2022-08-28T01:28:34Z</time>
      </trkpt>
      <trkpt lat="46.05304" lon="6.99933">
        <ele>1800</ele>
        <time>2022-08-28T01:28:35Z</time>
      </trkpt>
      <trkpt lat="46.05305" lon="6.99931">
        <ele>1800</ele>
        <time>2022-08-28T01:28:36Z</time>
      </trkpt>
      <trkpt lat="46.05308" lon="6.99929">
        <ele>1799</ele>
        <time>2022-08-28T01:28:38Z</time>
      </trkpt>
      <trkpt lat="46.0531" lon="6.99927">
        <ele>1798</ele>
        <time>2022-08-28T01:28:40Z</time>
      </trkpt>
      <trkpt lat="46.05313" lon="6.99924">
        <ele>1798</ele>
        <time>2022-08-28T01:28:42Z</time>
      </trkpt>
      <trkpt lat="46.05316" lon="6.99922">
        <ele>1797</ele>
        <time>2022-08-28T01:28:44Z</time>
      </trkpt>
      <trkpt lat="46.05316" lon="6.99922">
        <ele>1797</ele>
        <time>2022-08-28T01:28:45Z</time>
      </trkpt>
      <trkpt lat="46.05315" lon="6.99922">
        <ele>1797</ele>
        <time>2022-08-28T01:28:46Z</time>
      </trkpt>
      <trkpt lat="46.05315" lon="6.99922">
        <ele>1797</ele>
        <time>2022-08-28T01:28:48Z</time>
      </trkpt>
      <trkpt lat="46.05315" lon="6.99922">
        <ele>1796</ele>
        <time>2022-08-28T01:28:50Z</time>
      </trkpt>
      <trkpt lat="46.05314" lon="6.99922">
        <ele>1796</ele>
        <time>2022-08-28T01:28:51Z</time>
      </trkpt>
      <trkpt lat="46.05314" lon="6.99922">
        <ele>1796</ele>
        <time>2022-08-28T01:28:52Z</time>
      </trkpt>
      <trkpt lat="46.05313" lon="6.99922">
        <ele>1796</ele>
        <time>2022-08-28T01:28:53Z</time>
      </trkpt>
      <trkpt lat="46.05313" lon="6.99922">
        <ele>1795</ele>
        <time>2022-08-28T01:28:55Z</time>
      </trkpt>
      <trkpt lat="46.05313" lon="6.99922">
        <ele>1795</ele>
        <time>2022-08-28T01:28:56Z</time>
      </trkpt>
      <trkpt lat="46.05312" lon="6.99922">
        <ele>1795</ele>
        <time>2022-08-28T01:28:57Z</time>
      </trkpt>
      <trkpt lat="46.05312" lon="6.99922">
        <ele>1794</ele>
        <time>2022-08-28T01:28:58Z</time>
      </trkpt>
      <trkpt lat="46.05312" lon="6.99922">
        <ele>1794</ele>
        <time>2022-08-28T01:29:00Z</time>
      </trkpt>
      <trkpt lat="46.05311" lon="6.99922">
        <ele>1793</ele>
        <time>2022-08-28T01:29:01Z</time>
      </trkpt>
      <trkpt lat="46.05311" lon="6.99922">
        <ele>1793</ele>
        <time>2022-08-28T01:29:02Z</time>
      </trkpt>
      <trkpt lat="46.0531" lon="6.99922">
        <ele>1793</ele>
        <time>2022-08-28T01:29:03Z</time>
      </trkpt>
      <trkpt lat="46.0531" lon="6.99922">
        <ele>1792</ele>
        <time>2022-08-28T01:29:05Z</time>
      </trkpt>
      <trkpt lat="46.0531" lon="6.99922">
        <ele>1792</ele>
        <time>2022-08-28T01:29:07Z</time>
      </trkpt>
      <trkpt lat="46.05309" lon="6.99922">
        <ele>1791</ele>
        <time>2022-08-28T01:29:08Z</time>
      </trkpt>
      <trkpt lat="46.05309" lon="6.99922">
        <ele>1790</ele>
        <time>2022-08-28T01:29:09Z</time>
      </trkpt>
      <trkpt lat="46.05308" lon="6.99922">
        <ele>1790</ele>
        <time>2022-08-28T01:29:10Z</time>
      </trkpt>
      <trkpt lat="46.05308" lon="6.99922">
        <ele>1790</ele>
        <time>2022-08-28T01:29:11Z</time>
      </trkpt>
      <trkpt lat="46.05298" lon="6.9992">
        <ele>1787</ele>
        <time>2022-08-28T01:29:18Z</time>
      </trkpt>
      <trkpt lat="46.05298" lon="6.99919">
        <ele>1787</ele>
        <time>2022-08-28T01:29:19Z</time>
      </trkpt>
      <trkpt lat="46.05298" lon="6.99917">
        <ele>1787</ele>
        <time>2022-08-28T01:29:20Z</time>
      </trkpt>
      <trkpt lat="46.05298" lon="6.99916">
        <ele>1787</ele>
        <time>2022-08-28T01:29:21Z</time>
      </trkpt>
      <trkpt lat="46.05298" lon="6.99914">
        <ele>1786</ele>
        <time>2022-08-28T01:29:23Z</time>
      </trkpt>
      <trkpt lat="46.05298" lon="6.99913">
        <ele>1785</ele>
        <time>2022-08-28T01:29:24Z</time>
      </trkpt>
      <trkpt lat="46.05298" lon="6.99911">
        <ele>1785</ele>
        <time>2022-08-28T01:29:26Z</time>
      </trkpt>
      <trkpt lat="46.05299" lon="6.9991">
        <ele>1783</ele>
        <time>2022-08-28T01:29:28Z</time>
      </trkpt>
      <trkpt lat="46.05299" lon="6.99908">
        <ele>1783</ele>
        <time>2022-08-28T01:29:29Z</time>
      </trkpt>
      <trkpt lat="46.05299" lon="6.99907">
        <ele>1782</ele>
        <time>2022-08-28T01:29:30Z</time>
      </trkpt>
      <trkpt lat="46.05298" lon="6.99907">
        <ele>1782</ele>
        <time>2022-08-28T01:29:31Z</time>
      </trkpt>
      <trkpt lat="46.05297" lon="6.99906">
        <ele>1782</ele>
        <time>2022-08-28T01:29:33Z</time>
      </trkpt>
      <trkpt lat="46.05297" lon="6.99906">
        <ele>1781</ele>
        <time>2022-08-28T01:29:35Z</time>
      </trkpt>
      <trkpt lat="46.05296" lon="6.99906">
        <ele>1780</ele>
        <time>2022-08-28T01:29:36Z</time>
      </trkpt>
      <trkpt lat="46.05295" lon="6.99906">
        <ele>1780</ele>
        <time>2022-08-28T01:29:37Z</time>
      </trkpt>
      <trkpt lat="46.05295" lon="6.99906">
        <ele>1780</ele>
        <time>2022-08-28T01:29:38Z</time>
      </trkpt>
      <trkpt lat="46.05294" lon="6.99906">
        <ele>1779</ele>
        <time>2022-08-28T01:29:40Z</time>
      </trkpt>
      <trkpt lat="46.05293" lon="6.99905">
        <ele>1779</ele>
        <time>2022-08-28T01:29:41Z</time>
      </trkpt>
      <trkpt lat="46.05293" lon="6.99905">
        <ele>1778</ele>
        <time>2022-08-28T01:29:42Z</time>
      </trkpt>
      <trkpt lat="46.05292" lon="6.99905">
        <ele>1778</ele>
        <time>2022-08-28T01:29:43Z</time>
      </trkpt>
      <trkpt lat="46.05291" lon="6.99905">
        <ele>1778</ele>
        <time>2022-08-28T01:29:45Z</time>
      </trkpt>
      <trkpt lat="46.05291" lon="6.99905">
        <ele>1778</ele>
        <time>2022-08-28T01:29:46Z</time>
      </trkpt>
      <trkpt lat="46.0529" lon="6.99904">
        <ele>1777</ele>
        <time>2022-08-28T01:29:47Z</time>
      </trkpt>
      <trkpt lat="46.05288" lon="6.99904">
        <ele>1777</ele>
        <time>2022-08-28T01:29:48Z</time>
      </trkpt>
      <trkpt lat="46.05286" lon="6.99904">
        <ele>1777</ele>
        <time>2022-08-28T01:29:49Z</time>
      </trkpt>
      <trkpt lat="46.05284" lon="6.99903">
        <ele>1777</ele>
        <time>2022-08-28T01:29:50Z</time>
      </trkpt>
      <trkpt lat="46.05283" lon="6.99903">
        <ele>1777</ele>
        <time>2022-08-28T01:29:52Z</time>
      </trkpt>
      <trkpt lat="46.05281" lon="6.99903">
        <ele>1777</ele>
        <time>2022-08-28T01:29:53Z</time>
      </trkpt>
      <trkpt lat="46.05281" lon="6.99901">
        <ele>1777</ele>
        <time>2022-08-28T01:29:54Z</time>
      </trkpt>
      <trkpt lat="46.05281" lon="6.99899">
        <ele>1777</ele>
        <time>2022-08-28T01:29:55Z</time>
      </trkpt>
      <trkpt lat="46.05281" lon="6.99897">
        <ele>1777</ele>
        <time>2022-08-28T01:29:57Z</time>
      </trkpt>
      <trkpt lat="46.05281" lon="6.99896">
        <ele>1777</ele>
        <time>2022-08-28T01:29:58Z</time>
      </trkpt>
      <trkpt lat="46.05281" lon="6.99894">
        <ele>1776</ele>
        <time>2022-08-28T01:29:59Z</time>
      </trkpt>
      <trkpt lat="46.05282" lon="6.99892">
        <ele>1776</ele>
        <time>2022-08-28T01:30:00Z</time>
      </trkpt>
      <trkpt lat="46.05282" lon="6.9989">
        <ele>1776</ele>
        <time>2022-08-28T01:30:01Z</time>
      </trkpt>
      <trkpt lat="46.05282" lon="6.99888">
        <ele>1776</ele>
        <time>2022-08-28T01:30:02Z</time>
      </trkpt>
      <trkpt lat="46.05282" lon="6.99888">
        <ele>1776</ele>
        <time>2022-08-28T01:30:04Z</time>
      </trkpt>
      <trkpt lat="46.05283" lon="6.99887">
        <ele>1776</ele>
        <time>2022-08-28T01:30:05Z</time>
      </trkpt>
      <trkpt lat="46.05283" lon="6.99886">
        <ele>1775</ele>
        <time>2022-08-28T01:30:06Z</time>
      </trkpt>
      <trkpt lat="46.05283" lon="6.99886">
        <ele>1774</ele>
        <time>2022-08-28T01:30:07Z</time>
      </trkpt>
      <trkpt lat="46.05283" lon="6.99885">
        <ele>1774</ele>
        <time>2022-08-28T01:30:08Z</time>
      </trkpt>
      <trkpt lat="46.05284" lon="6.99884">
        <ele>1774</ele>
        <time>2022-08-28T01:30:09Z</time>
      </trkpt>
      <trkpt lat="46.05284" lon="6.99883">
        <ele>1774</ele>
        <time>2022-08-28T01:30:11Z</time>
      </trkpt>
      <trkpt lat="46.05284" lon="6.99883">
        <ele>1773</ele>
        <time>2022-08-28T01:30:12Z</time>
      </trkpt>
      <trkpt lat="46.05285" lon="6.99882">
        <ele>1773</ele>
        <time>2022-08-28T01:30:13Z</time>
      </trkpt>
      <trkpt lat="46.05285" lon="6.99881">
        <ele>1773</ele>
        <time>2022-08-28T01:30:14Z</time>
      </trkpt>
      <trkpt lat="46.05285" lon="6.99881">
        <ele>1773</ele>
        <time>2022-08-28T01:30:16Z</time>
      </trkpt>
      <trkpt lat="46.05286" lon="6.9988">
        <ele>1772</ele>
        <time>2022-08-28T01:30:18Z</time>
      </trkpt>
      <trkpt lat="46.05286" lon="6.99879">
        <ele>1772</ele>
        <time>2022-08-28T01:30:19Z</time>
      </trkpt>
      <trkpt lat="46.05286" lon="6.99879">
        <ele>1772</ele>
        <time>2022-08-28T01:30:20Z</time>
      </trkpt>
      <trkpt lat="46.05287" lon="6.99878">
        <ele>1771</ele>
        <time>2022-08-28T01:30:21Z</time>
      </trkpt>
      <trkpt lat="46.05287" lon="6.99877">
        <ele>1771</ele>
        <time>2022-08-28T01:30:23Z</time>
      </trkpt>
      <trkpt lat="46.05287" lon="6.99877">
        <ele>1770</ele>
        <time>2022-08-28T01:30:24Z</time>
      </trkpt>
      <trkpt lat="46.05287" lon="6.99876">
        <ele>1769</ele>
        <time>2022-08-28T01:30:25Z</time>
      </trkpt>
      <trkpt lat="46.05286" lon="6.99876">
        <ele>1769</ele>
        <time>2022-08-28T01:30:26Z</time>
      </trkpt>
      <trkpt lat="46.05286" lon="6.99875">
        <ele>1769</ele>
        <time>2022-08-28T01:30:28Z</time>
      </trkpt>
      <trkpt lat="46.05286" lon="6.99875">
        <ele>1768</ele>
        <time>2022-08-28T01:30:29Z</time>
      </trkpt>
      <trkpt lat="46.05285" lon="6.99874">
        <ele>1768</ele>
        <time>2022-08-28T01:30:30Z</time>
      </trkpt>
      <trkpt lat="46.05285" lon="6.99874">
        <ele>1768</ele>
        <time>2022-08-28T01:30:31Z</time>
      </trkpt>
      <trkpt lat="46.05285" lon="6.99873">
        <ele>1768</ele>
        <time>2022-08-28T01:30:33Z</time>
      </trkpt>
      <trkpt lat="46.05284" lon="6.99873">
        <ele>1768</ele>
        <time>2022-08-28T01:30:35Z</time>
      </trkpt>
      <trkpt lat="46.05284" lon="6.99872">
        <ele>1767</ele>
        <time>2022-08-28T01:30:36Z</time>
      </trkpt>
      <trkpt lat="46.05284" lon="6.99872">
        <ele>1767</ele>
        <time>2022-08-28T01:30:38Z</time>
      </trkpt>
      <trkpt lat="46.05283" lon="6.99871">
        <ele>1766</ele>
        <time>2022-08-28T01:30:40Z</time>
      </trkpt>
      <trkpt lat="46.05283" lon="6.99871">
        <ele>1766</ele>
        <time>2022-08-28T01:30:42Z</time>
      </trkpt>
      <trkpt lat="46.05283" lon="6.9987">
        <ele>1766</ele>
        <time>2022-08-28T01:30:43Z</time>
      </trkpt>
      <trkpt lat="46.05282" lon="6.9987">
        <ele>1766</ele>
        <time>2022-08-28T01:30:44Z</time>
      </trkpt>
      <trkpt lat="46.05282" lon="6.99869">
        <ele>1764</ele>
        <time>2022-08-28T01:30:46Z</time>
      </trkpt>
      <trkpt lat="46.05282" lon="6.99869">
        <ele>1763</ele>
        <time>2022-08-28T01:30:47Z</time>
      </trkpt>
      <trkpt lat="46.05281" lon="6.99868">
        <ele>1763</ele>
        <time>2022-08-28T01:30:49Z</time>
      </trkpt>
      <trkpt lat="46.05281" lon="6.99868">
        <ele>1763</ele>
        <time>2022-08-28T01:30:50Z</time>
      </trkpt>
      <trkpt lat="46.05281" lon="6.99867">
        <ele>1763</ele>
        <time>2022-08-28T01:30:51Z</time>
      </trkpt>
      <trkpt lat="46.05283" lon="6.99855">
        <ele>1760</ele>
        <time>2022-08-28T01:31:01Z</time>
      </trkpt>
      <trkpt lat="46.05285" lon="6.99851">
        <ele>1759</ele>
        <time>2022-08-28T01:31:03Z</time>
      </trkpt>
      <trkpt lat="46.05286" lon="6.9985">
        <ele>1759</ele>
        <time>2022-08-28T01:31:04Z</time>
      </trkpt>
      <trkpt lat="46.05286" lon="6.99849">
        <ele>1759</ele>
        <time>2022-08-28T01:31:05Z</time>
      </trkpt>
      <trkpt lat="46.05286" lon="6.99847">
        <ele>1758</ele>
        <time>2022-08-28T01:31:06Z</time>
      </trkpt>
      <trkpt lat="46.05287" lon="6.99846">
        <ele>1758</ele>
        <time>2022-08-28T01:31:08Z</time>
      </trkpt>
      <trkpt lat="46.05287" lon="6.99845">
        <ele>1758</ele>
        <time>2022-08-28T01:31:09Z</time>
      </trkpt>
      <trkpt lat="46.05287" lon="6.99843">
        <ele>1758</ele>
        <time>2022-08-28T01:31:10Z</time>
      </trkpt>
      <trkpt lat="46.05288" lon="6.99842">
        <ele>1758</ele>
        <time>2022-08-28T01:31:11Z</time>
      </trkpt>
      <trkpt lat="46.05288" lon="6.99841">
        <ele>1757</ele>
        <time>2022-08-28T01:31:13Z</time>
      </trkpt>
      <trkpt lat="46.05289" lon="6.99839">
        <ele>1757</ele>
        <time>2022-08-28T01:31:14Z</time>
      </trkpt>
      <trkpt lat="46.05282" lon="6.99836">
        <ele>1752</ele>
        <time>2022-08-28T01:31:34Z</time>
      </trkpt>
      <trkpt lat="46.05282" lon="6.99836">
        <ele>1752</ele>
        <time>2022-08-28T01:31:36Z</time>
      </trkpt>
      <trkpt lat="46.05282" lon="6.99836">
        <ele>1751</ele>
        <time>2022-08-28T01:31:37Z</time>
      </trkpt>
      <trkpt lat="46.05282" lon="6.99835">
        <ele>1751</ele>
        <time>2022-08-28T01:31:39Z</time>
      </trkpt>
      <trkpt lat="46.05281" lon="6.99835">
        <ele>1750</ele>
        <time>2022-08-28T01:31:41Z</time>
      </trkpt>
      <trkpt lat="46.05281" lon="6.99835">
        <ele>1750</ele>
        <time>2022-08-28T01:31:42Z</time>
      </trkpt>
      <trkpt lat="46.05281" lon="6.99834">
        <ele>1750</ele>
        <time>2022-08-28T01:31:43Z</time>
      </trkpt>
      <trkpt lat="46.05281" lon="6.99834">
        <ele>1749</ele>
        <time>2022-08-28T01:31:44Z</time>
      </trkpt>
      <trkpt lat="46.05281" lon="6.99834">
        <ele>1748</ele>
        <time>2022-08-28T01:31:46Z</time>
      </trkpt>
      <trkpt lat="46.0528" lon="6.99833">
        <ele>1748</ele>
        <time>2022-08-28T01:31:47Z</time>
      </trkpt>
      <trkpt lat="46.0528" lon="6.99833">
        <ele>1748</ele>
        <time>2022-08-28T01:31:48Z</time>
      </trkpt>
      <trkpt lat="46.0528" lon="6.99833">
        <ele>1748</ele>
        <time>2022-08-28T01:31:49Z</time>
      </trkpt>
      <trkpt lat="46.0528" lon="6.99832">
        <ele>1748</ele>
        <time>2022-08-28T01:31:51Z</time>
      </trkpt>
      <trkpt lat="46.0528" lon="6.99832">
        <ele>1747</ele>
        <time>2022-08-28T01:31:53Z</time>
      </trkpt>
      <trkpt lat="46.05279" lon="6.99831">
        <ele>1747</ele>
        <time>2022-08-28T01:31:54Z</time>
      </trkpt>
      <trkpt lat="46.05279" lon="6.99831">
        <ele>1746</ele>
        <time>2022-08-28T01:31:55Z</time>
      </trkpt>
      <trkpt lat="46.05279" lon="6.99831">
        <ele>1746</ele>
        <time>2022-08-28T01:31:56Z</time>
      </trkpt>
      <trkpt lat="46.05279" lon="6.9983">
        <ele>1746</ele>
        <time>2022-08-28T01:31:58Z</time>
      </trkpt>
      <trkpt lat="46.05279" lon="6.9983">
        <ele>1745</ele>
        <time>2022-08-28T01:31:59Z</time>
      </trkpt>
      <trkpt lat="46.05278" lon="6.9983">
        <ele>1744</ele>
        <time>2022-08-28T01:32:00Z</time>
      </trkpt>
      <trkpt lat="46.05278" lon="6.99829">
        <ele>1744</ele>
        <time>2022-08-28T01:32:01Z</time>
      </trkpt>
      <trkpt lat="46.05278" lon="6.99829">
        <ele>1744</ele>
        <time>2022-08-28T01:32:03Z</time>
      </trkpt>
      <trkpt lat="46.05278" lon="6.99829">
        <ele>1744</ele>
        <time>2022-08-28T01:32:04Z</time>
      </trkpt>
      <trkpt lat="46.05278" lon="6.99828">
        <ele>1744</ele>
        <time>2022-08-28T01:32:05Z</time>
      </trkpt>
      <trkpt lat="46.05277" lon="6.99828">
        <ele>1744</ele>
        <time>2022-08-28T01:32:06Z</time>
      </trkpt>
      <trkpt lat="46.05277" lon="6.99828">
        <ele>1744</ele>
        <time>2022-08-28T01:32:08Z</time>
      </trkpt>
      <trkpt lat="46.05277" lon="6.99827">
        <ele>1743</ele>
        <time>2022-08-28T01:32:10Z</time>
      </trkpt>
      <trkpt lat="46.05277" lon="6.99827">
        <ele>1743</ele>
        <time>2022-08-28T01:32:11Z</time>
      </trkpt>
      <trkpt lat="46.05277" lon="6.99827">
        <ele>1743</ele>
        <time>2022-08-28T01:32:12Z</time>
      </trkpt>
      <trkpt lat="46.05276" lon="6.99826">
        <ele>1743</ele>
        <time>2022-08-28T01:32:13Z</time>
      </trkpt>
      <trkpt lat="46.05277" lon="6.99825">
        <ele>1742</ele>
        <time>2022-08-28T01:32:14Z</time>
      </trkpt>
      <trkpt lat="46.05278" lon="6.99824">
        <ele>1742</ele>
        <time>2022-08-28T01:32:15Z</time>
      </trkpt>
      <trkpt lat="46.05279" lon="6.99822">
        <ele>1742</ele>
        <time>2022-08-28T01:32:17Z</time>
      </trkpt>
      <trkpt lat="46.05279" lon="6.99821">
        <ele>1741</ele>
        <time>2022-08-28T01:32:18Z</time>
      </trkpt>
      <trkpt lat="46.0528" lon="6.99819">
        <ele>1741</ele>
        <time>2022-08-28T01:32:19Z</time>
      </trkpt>
      <trkpt lat="46.05281" lon="6.99818">
        <ele>1740</ele>
        <time>2022-08-28T01:32:21Z</time>
      </trkpt>
      <trkpt lat="46.05282" lon="6.99817">
        <ele>1740</ele>
        <time>2022-08-28T01:32:22Z</time>
      </trkpt>
      <trkpt lat="46.05283" lon="6.99815">
        <ele>1740</ele>
        <time>2022-08-28T01:32:23Z</time>
      </trkpt>
      <trkpt lat="46.05284" lon="6.99814">
        <ele>1740</ele>
        <time>2022-08-28T01:32:24Z</time>
      </trkpt>
      <trkpt lat="46.05285" lon="6.99813">
        <ele>1739</ele>
        <time>2022-08-28T01:32:26Z</time>
      </trkpt>
      <trkpt lat="46.05285" lon="6.99812">
        <ele>1739</ele>
        <time>2022-08-28T01:32:27Z</time>
      </trkpt>
      <trkpt lat="46.05286" lon="6.99811">
        <ele>1738</ele>
        <time>2022-08-28T01:32:28Z</time>
      </trkpt>
      <trkpt lat="46.05287" lon="6.9981">
        <ele>1738</ele>
        <time>2022-08-28T01:32:29Z</time>
      </trkpt>
      <trkpt lat="46.05288" lon="6.9981">
        <ele>1737</ele>
        <time>2022-08-28T01:32:31Z</time>
      </trkpt>
      <trkpt lat="46.05289" lon="6.99809">
        <ele>1737</ele>
        <time>2022-08-28T01:32:32Z</time>
      </trkpt>
      <trkpt lat="46.0529" lon="6.99808">
        <ele>1736</ele>
        <time>2022-08-28T01:32:33Z</time>
      </trkpt>
      <trkpt lat="46.05289" lon="6.99807">
        <ele>1736</ele>
        <time>2022-08-28T01:32:34Z</time>
      </trkpt>
      <trkpt lat="46.05288" lon="6.99807">
        <ele>1736</ele>
        <time>2022-08-28T01:32:36Z</time>
      </trkpt>
      <trkpt lat="46.05286" lon="6.99806">
        <ele>1735</ele>
        <time>2022-08-28T01:32:38Z</time>
      </trkpt>
      <trkpt lat="46.05285" lon="6.99806">
        <ele>1734</ele>
        <time>2022-08-28T01:32:39Z</time>
      </trkpt>
      <trkpt lat="46.05284" lon="6.99806">
        <ele>1734</ele>
        <time>2022-08-28T01:32:40Z</time>
      </trkpt>
      <trkpt lat="46.05283" lon="6.99805">
        <ele>1734</ele>
        <time>2022-08-28T01:32:41Z</time>
      </trkpt>
      <trkpt lat="46.05282" lon="6.99805">
        <ele>1733</ele>
        <time>2022-08-28T01:32:43Z</time>
      </trkpt>
      <trkpt lat="46.0528" lon="6.99804">
        <ele>1733</ele>
        <time>2022-08-28T01:32:44Z</time>
      </trkpt>
      <trkpt lat="46.0528" lon="6.99803">
        <ele>1733</ele>
        <time>2022-08-28T01:32:45Z</time>
      </trkpt>
      <trkpt lat="46.0528" lon="6.99802">
        <ele>1733</ele>
        <time>2022-08-28T01:32:46Z</time>
      </trkpt>
      <trkpt lat="46.0528" lon="6.99801">
        <ele>1732</ele>
        <time>2022-08-28T01:32:48Z</time>
      </trkpt>
      <trkpt lat="46.0528" lon="6.99799">
        <ele>1732</ele>
        <time>2022-08-28T01:32:49Z</time>
      </trkpt>
      <trkpt lat="46.0528" lon="6.99798">
        <ele>1732</ele>
        <time>2022-08-28T01:32:50Z</time>
      </trkpt>
      <trkpt lat="46.0528" lon="6.99797">
        <ele>1731</ele>
        <time>2022-08-28T01:32:51Z</time>
      </trkpt>
      <trkpt lat="46.0528" lon="6.99796">
        <ele>1731</ele>
        <time>2022-08-28T01:32:53Z</time>
      </trkpt>
      <trkpt lat="46.0528" lon="6.99794">
        <ele>1730</ele>
        <time>2022-08-28T01:32:55Z</time>
      </trkpt>
      <trkpt lat="46.0528" lon="6.99793">
        <ele>1730</ele>
        <time>2022-08-28T01:32:56Z</time>
      </trkpt>
      <trkpt lat="46.0528" lon="6.99792">
        <ele>1729</ele>
        <time>2022-08-28T01:32:57Z</time>
      </trkpt>
      <trkpt lat="46.0528" lon="6.9979">
        <ele>1729</ele>
        <time>2022-08-28T01:32:58Z</time>
      </trkpt>
      <trkpt lat="46.05279" lon="6.99789">
        <ele>1729</ele>
        <time>2022-08-28T01:33:00Z</time>
      </trkpt>
      <trkpt lat="46.05277" lon="6.99788">
        <ele>1728</ele>
        <time>2022-08-28T01:33:01Z</time>
      </trkpt>
      <trkpt lat="46.05276" lon="6.99787">
        <ele>1728</ele>
        <time>2022-08-28T01:33:02Z</time>
      </trkpt>
      <trkpt lat="46.05275" lon="6.99786">
        <ele>1728</ele>
        <time>2022-08-28T01:33:03Z</time>
      </trkpt>
      <trkpt lat="46.05273" lon="6.99785">
        <ele>1728</ele>
        <time>2022-08-28T01:33:04Z</time>
      </trkpt>
      <trkpt lat="46.05272" lon="6.99783">
        <ele>1728</ele>
        <time>2022-08-28T01:33:05Z</time>
      </trkpt>
      <trkpt lat="46.0527" lon="6.99781">
        <ele>1728</ele>
        <time>2022-08-28T01:33:06Z</time>
      </trkpt>
      <trkpt lat="46.05267" lon="6.99778">
        <ele>1728</ele>
        <time>2022-08-28T01:33:08Z</time>
      </trkpt>
      <trkpt lat="46.05264" lon="6.99775">
        <ele>1728</ele>
        <time>2022-08-28T01:33:09Z</time>
      </trkpt>
      <trkpt lat="46.05264" lon="6.99774">
        <ele>1728</ele>
        <time>2022-08-28T01:33:10Z</time>
      </trkpt>
      <trkpt lat="46.05264" lon="6.99774">
        <ele>1728</ele>
        <time>2022-08-28T01:33:11Z</time>
      </trkpt>
      <trkpt lat="46.05264" lon="6.99773">
        <ele>1727</ele>
        <time>2022-08-28T01:33:13Z</time>
      </trkpt>
      <trkpt lat="46.05264" lon="6.99772">
        <ele>1727</ele>
        <time>2022-08-28T01:33:14Z</time>
      </trkpt>
      <trkpt lat="46.05264" lon="6.99771">
        <ele>1726</ele>
        <time>2022-08-28T01:33:15Z</time>
      </trkpt>
      <trkpt lat="46.05264" lon="6.99771">
        <ele>1725</ele>
        <time>2022-08-28T01:33:16Z</time>
      </trkpt>
      <trkpt lat="46.05265" lon="6.9977">
        <ele>1725</ele>
        <time>2022-08-28T01:33:18Z</time>
      </trkpt>
      <trkpt lat="46.05265" lon="6.99769">
        <ele>1725</ele>
        <time>2022-08-28T01:33:19Z</time>
      </trkpt>
      <trkpt lat="46.05265" lon="6.99769">
        <ele>1724</ele>
        <time>2022-08-28T01:33:20Z</time>
      </trkpt>
      <trkpt lat="46.05265" lon="6.99768">
        <ele>1724</ele>
        <time>2022-08-28T01:33:21Z</time>
      </trkpt>
      <trkpt lat="46.05265" lon="6.99767">
        <ele>1724</ele>
        <time>2022-08-28T01:33:23Z</time>
      </trkpt>
      <trkpt lat="46.05265" lon="6.99766">
        <ele>1723</ele>
        <time>2022-08-28T01:33:24Z</time>
      </trkpt>
      <trkpt lat="46.05265" lon="6.99766">
        <ele>1723</ele>
        <time>2022-08-28T01:33:25Z</time>
      </trkpt>
      <trkpt lat="46.05265" lon="6.99765">
        <ele>1723</ele>
        <time>2022-08-28T01:33:26Z</time>
      </trkpt>
      <trkpt lat="46.05265" lon="6.99764">
        <ele>1722</ele>
        <time>2022-08-28T01:33:28Z</time>
      </trkpt>
      <trkpt lat="46.05265" lon="6.99764">
        <ele>1722</ele>
        <time>2022-08-28T01:33:29Z</time>
      </trkpt>
      <trkpt lat="46.05265" lon="6.99763">
        <ele>1722</ele>
        <time>2022-08-28T01:33:30Z</time>
      </trkpt>
      <trkpt lat="46.05265" lon="6.99762">
        <ele>1722</ele>
        <time>2022-08-28T01:33:31Z</time>
      </trkpt>
      <trkpt lat="46.05265" lon="6.99761">
        <ele>1722</ele>
        <time>2022-08-28T01:33:33Z</time>
      </trkpt>
      <trkpt lat="46.05265" lon="6.9976">
        <ele>1721</ele>
        <time>2022-08-28T01:33:35Z</time>
      </trkpt>
      <trkpt lat="46.05265" lon="6.99759">
        <ele>1720</ele>
        <time>2022-08-28T01:33:36Z</time>
      </trkpt>
      <trkpt lat="46.05266" lon="6.99758">
        <ele>1720</ele>
        <time>2022-08-28T01:33:37Z</time>
      </trkpt>
      <trkpt lat="46.05266" lon="6.99757">
        <ele>1720</ele>
        <time>2022-08-28T01:33:38Z</time>
      </trkpt>
      <trkpt lat="46.05266" lon="6.99757">
        <ele>1719</ele>
        <time>2022-08-28T01:33:40Z</time>
      </trkpt>
      <trkpt lat="46.05266" lon="6.99756">
        <ele>1718</ele>
        <time>2022-08-28T01:33:42Z</time>
      </trkpt>
      <trkpt lat="46.05266" lon="6.99755">
        <ele>1718</ele>
        <time>2022-08-28T01:33:43Z</time>
      </trkpt>
      <trkpt lat="46.05266" lon="6.99754">
        <ele>1718</ele>
        <time>2022-08-28T01:33:44Z</time>
      </trkpt>
      <trkpt lat="46.05267" lon="6.99753">
        <ele>1718</ele>
        <time>2022-08-28T01:33:45Z</time>
      </trkpt>
      <trkpt lat="46.05267" lon="6.99752">
        <ele>1718</ele>
        <time>2022-08-28T01:33:47Z</time>
      </trkpt>
      <trkpt lat="46.05267" lon="6.99751">
        <ele>1717</ele>
        <time>2022-08-28T01:33:48Z</time>
      </trkpt>
      <trkpt lat="46.05267" lon="6.9975">
        <ele>1717</ele>
        <time>2022-08-28T01:33:49Z</time>
      </trkpt>
      <trkpt lat="46.05267" lon="6.99749">
        <ele>1717</ele>
        <time>2022-08-28T01:33:50Z</time>
      </trkpt>
      <trkpt lat="46.05269" lon="6.9975">
        <ele>1716</ele>
        <time>2022-08-28T01:33:52Z</time>
      </trkpt>
      <trkpt lat="46.0527" lon="6.99752">
        <ele>1716</ele>
        <time>2022-08-28T01:33:53Z</time>
      </trkpt>
      <trkpt lat="46.05271" lon="6.99753">
        <ele>1715</ele>
        <time>2022-08-28T01:33:54Z</time>
      </trkpt>
      <trkpt lat="46.05272" lon="6.99754">
        <ele>1716</ele>
        <time>2022-08-28T01:33:55Z</time>
      </trkpt>
      <trkpt lat="46.05274" lon="6.99756">
        <ele>1716</ele>
        <time>2022-08-28T01:33:56Z</time>
      </trkpt>
      <trkpt lat="46.05275" lon="6.99757">
        <ele>1715</ele>
        <time>2022-08-28T01:33:57Z</time>
      </trkpt>
      <trkpt lat="46.05274" lon="6.99756">
        <ele>1715</ele>
        <time>2022-08-28T01:33:59Z</time>
      </trkpt>
      <trkpt lat="46.05274" lon="6.99755">
        <ele>1715</ele>
        <time>2022-08-28T01:34:00Z</time>
      </trkpt>
      <trkpt lat="46.05273" lon="6.99755">
        <ele>1714</ele>
        <time>2022-08-28T01:34:01Z</time>
      </trkpt>
      <trkpt lat="46.05273" lon="6.99754">
        <ele>1714</ele>
        <time>2022-08-28T01:34:02Z</time>
      </trkpt>
      <trkpt lat="46.05272" lon="6.99753">
        <ele>1714</ele>
        <time>2022-08-28T01:34:04Z</time>
      </trkpt>
      <trkpt lat="46.05272" lon="6.99752">
        <ele>1714</ele>
        <time>2022-08-28T01:34:05Z</time>
      </trkpt>
      <trkpt lat="46.05271" lon="6.99751">
        <ele>1713</ele>
        <time>2022-08-28T01:34:06Z</time>
      </trkpt>
      <trkpt lat="46.05271" lon="6.9975">
        <ele>1713</ele>
        <time>2022-08-28T01:34:07Z</time>
      </trkpt>
      <trkpt lat="46.0527" lon="6.9975">
        <ele>1713</ele>
        <time>2022-08-28T01:34:09Z</time>
      </trkpt>
      <trkpt lat="46.0527" lon="6.99749">
        <ele>1712</ele>
        <time>2022-08-28T01:34:11Z</time>
      </trkpt>
      <trkpt lat="46.05269" lon="6.99748">
        <ele>1712</ele>
        <time>2022-08-28T01:34:12Z</time>
      </trkpt>
      <trkpt lat="46.05269" lon="6.99747">
        <ele>1712</ele>
        <time>2022-08-28T01:34:13Z</time>
      </trkpt>
      <trkpt lat="46.05268" lon="6.99746">
        <ele>1711</ele>
        <time>2022-08-28T01:34:14Z</time>
      </trkpt>
      <trkpt lat="46.05267" lon="6.99745">
        <ele>1711</ele>
        <time>2022-08-28T01:34:15Z</time>
      </trkpt>
      <trkpt lat="46.05267" lon="6.99744">
        <ele>1710</ele>
        <time>2022-08-28T01:34:16Z</time>
      </trkpt>
      <trkpt lat="46.05266" lon="6.99743">
        <ele>1709</ele>
        <time>2022-08-28T01:34:18Z</time>
      </trkpt>
      <trkpt lat="46.05265" lon="6.99742">
        <ele>1709</ele>
        <time>2022-08-28T01:34:19Z</time>
      </trkpt>
      <trkpt lat="46.05264" lon="6.99741">
        <ele>1709</ele>
        <time>2022-08-28T01:34:20Z</time>
      </trkpt>
      <trkpt lat="46.05264" lon="6.9974">
        <ele>1709</ele>
        <time>2022-08-28T01:34:21Z</time>
      </trkpt>
      <trkpt lat="46.05263" lon="6.99739">
        <ele>1709</ele>
        <time>2022-08-28T01:34:22Z</time>
      </trkpt>
      <trkpt lat="46.05262" lon="6.99738">
        <ele>1708</ele>
        <time>2022-08-28T01:34:23Z</time>
      </trkpt>
      <trkpt lat="46.05263" lon="6.99736">
        <ele>1708</ele>
        <time>2022-08-28T01:34:24Z</time>
      </trkpt>
      <trkpt lat="46.05263" lon="6.99734">
        <ele>1708</ele>
        <time>2022-08-28T01:34:25Z</time>
      </trkpt>
      <trkpt lat="46.05264" lon="6.99732">
        <ele>1707</ele>
        <time>2022-08-28T01:34:26Z</time>
      </trkpt>
      <trkpt lat="46.05264" lon="6.9973">
        <ele>1707</ele>
        <time>2022-08-28T01:34:28Z</time>
      </trkpt>
      <trkpt lat="46.05264" lon="6.99728">
        <ele>1707</ele>
        <time>2022-08-28T01:34:30Z</time>
      </trkpt>
      <trkpt lat="46.05265" lon="6.99726">
        <ele>1706</ele>
        <time>2022-08-28T01:34:31Z</time>
      </trkpt>
      <trkpt lat="46.05265" lon="6.99724">
        <ele>1706</ele>
        <time>2022-08-28T01:34:32Z</time>
      </trkpt>
      <trkpt lat="46.05266" lon="6.99723">
        <ele>1705</ele>
        <time>2022-08-28T01:34:33Z</time>
      </trkpt>
      <trkpt lat="46.05266" lon="6.99722">
        <ele>1705</ele>
        <time>2022-08-28T01:34:35Z</time>
      </trkpt>
      <trkpt lat="46.05267" lon="6.9972">
        <ele>1705</ele>
        <time>2022-08-28T01:34:36Z</time>
      </trkpt>
      <trkpt lat="46.05267" lon="6.99719">
        <ele>1704</ele>
        <time>2022-08-28T01:34:37Z</time>
      </trkpt>
      <trkpt lat="46.05268" lon="6.99718">
        <ele>1704</ele>
        <time>2022-08-28T01:34:38Z</time>
      </trkpt>
      <trkpt lat="46.05268" lon="6.99717">
        <ele>1703</ele>
        <time>2022-08-28T01:34:40Z</time>
      </trkpt>
      <trkpt lat="46.05269" lon="6.99716">
        <ele>1702</ele>
        <time>2022-08-28T01:34:42Z</time>
      </trkpt>
      <trkpt lat="46.05269" lon="6.99714">
        <ele>1702</ele>
        <time>2022-08-28T01:34:43Z</time>
      </trkpt>
      <trkpt lat="46.0527" lon="6.99713">
        <ele>1702</ele>
        <time>2022-08-28T01:34:44Z</time>
      </trkpt>
      <trkpt lat="46.0527" lon="6.99712">
        <ele>1702</ele>
        <time>2022-08-28T01:34:45Z</time>
      </trkpt>
      <trkpt lat="46.05272" lon="6.99711">
        <ele>1702</ele>
        <time>2022-08-28T01:34:46Z</time>
      </trkpt>
      <trkpt lat="46.05274" lon="6.9971">
        <ele>1702</ele>
        <time>2022-08-28T01:34:47Z</time>
      </trkpt>
      <trkpt lat="46.05276" lon="6.99709">
        <ele>1701</ele>
        <time>2022-08-28T01:34:49Z</time>
      </trkpt>
      <trkpt lat="46.05278" lon="6.99708">
        <ele>1701</ele>
        <time>2022-08-28T01:34:50Z</time>
      </trkpt>
      <trkpt lat="46.0528" lon="6.99707">
        <ele>1701</ele>
        <time>2022-08-28T01:34:51Z</time>
      </trkpt>
      <trkpt lat="46.05282" lon="6.99706">
        <ele>1701</ele>
        <time>2022-08-28T01:34:53Z</time>
      </trkpt>
      <trkpt lat="46.05283" lon="6.99706">
        <ele>1700</ele>
        <time>2022-08-28T01:34:55Z</time>
      </trkpt>
      <trkpt lat="46.05285" lon="6.99706">
        <ele>1700</ele>
        <time>2022-08-28T01:34:56Z</time>
      </trkpt>
      <trkpt lat="46.05287" lon="6.99706">
        <ele>1700</ele>
        <time>2022-08-28T01:34:57Z</time>
      </trkpt>
      <trkpt lat="46.05289" lon="6.99705">
        <ele>1699</ele>
        <time>2022-08-28T01:34:58Z</time>
      </trkpt>
      <trkpt lat="46.05298" lon="6.99709">
        <ele>1697</ele>
        <time>2022-08-28T01:35:03Z</time>
      </trkpt>
      <trkpt lat="46.05299" lon="6.9971">
        <ele>1697</ele>
        <time>2022-08-28T01:35:04Z</time>
      </trkpt>
      <trkpt lat="46.053" lon="6.99711">
        <ele>1697</ele>
        <time>2022-08-28T01:35:05Z</time>
      </trkpt>
      <trkpt lat="46.053" lon="6.99711">
        <ele>1696</ele>
        <time>2022-08-28T01:35:06Z</time>
      </trkpt>
      <trkpt lat="46.05301" lon="6.99712">
        <ele>1696</ele>
        <time>2022-08-28T01:35:08Z</time>
      </trkpt>
      <trkpt lat="46.05302" lon="6.99713">
        <ele>1696</ele>
        <time>2022-08-28T01:35:09Z</time>
      </trkpt>
      <trkpt lat="46.05302" lon="6.99714">
        <ele>1695</ele>
        <time>2022-08-28T01:35:10Z</time>
      </trkpt>
      <trkpt lat="46.05308" lon="6.99719">
        <ele>1695</ele>
        <time>2022-08-28T01:35:11Z</time>
      </trkpt>
      <trkpt lat="46.05309" lon="6.9972">
        <ele>1695</ele>
        <time>2022-08-28T01:35:12Z</time>
      </trkpt>
      <trkpt lat="46.0531" lon="6.9972">
        <ele>1694</ele>
        <time>2022-08-28T01:35:13Z</time>
      </trkpt>
      <trkpt lat="46.05312" lon="6.9972">
        <ele>1694</ele>
        <time>2022-08-28T01:35:15Z</time>
      </trkpt>
      <trkpt lat="46.05313" lon="6.99721">
        <ele>1694</ele>
        <time>2022-08-28T01:35:16Z</time>
      </trkpt>
      <trkpt lat="46.05315" lon="6.99721">
        <ele>1694</ele>
        <time>2022-08-28T01:35:17Z</time>
      </trkpt>
      <trkpt lat="46.05316" lon="6.99722">
        <ele>1694</ele>
        <time>2022-08-28T01:35:18Z</time>
      </trkpt>
      <trkpt lat="46.05318" lon="6.99722">
        <ele>1694</ele>
        <time>2022-08-28T01:35:19Z</time>
      </trkpt>
      <trkpt lat="46.05319" lon="6.99722">
        <ele>1693</ele>
        <time>2022-08-28T01:35:21Z</time>
      </trkpt>
      <trkpt lat="46.05321" lon="6.99723">
        <ele>1692</ele>
        <time>2022-08-28T01:35:22Z</time>
      </trkpt>
      <trkpt lat="46.05322" lon="6.99723">
        <ele>1692</ele>
        <time>2022-08-28T01:35:23Z</time>
      </trkpt>
      <trkpt lat="46.05324" lon="6.99724">
        <ele>1692</ele>
        <time>2022-08-28T01:35:24Z</time>
      </trkpt>
      <trkpt lat="46.05325" lon="6.99724">
        <ele>1691</ele>
        <time>2022-08-28T01:35:26Z</time>
      </trkpt>
      <trkpt lat="46.05327" lon="6.99724">
        <ele>1691</ele>
        <time>2022-08-28T01:35:27Z</time>
      </trkpt>
      <trkpt lat="46.05328" lon="6.99724">
        <ele>1691</ele>
        <time>2022-08-28T01:35:28Z</time>
      </trkpt>
      <trkpt lat="46.05329" lon="6.99723">
        <ele>1691</ele>
        <time>2022-08-28T01:35:29Z</time>
      </trkpt>
      <trkpt lat="46.05331" lon="6.99722">
        <ele>1691</ele>
        <time>2022-08-28T01:35:30Z</time>
      </trkpt>
      <trkpt lat="46.05332" lon="6.99722">
        <ele>1690</ele>
        <time>2022-08-28T01:35:32Z</time>
      </trkpt>
      <trkpt lat="46.05334" lon="6.99721">
        <ele>1690</ele>
        <time>2022-08-28T01:35:33Z</time>
      </trkpt>
      <trkpt lat="46.05335" lon="6.9972">
        <ele>1690</ele>
        <time>2022-08-28T01:35:34Z</time>
      </trkpt>
      <trkpt lat="46.05344" lon="6.99716">
        <ele>1689</ele>
        <time>2022-08-28T01:35:39Z</time>
      </trkpt>
      <trkpt lat="46.05354" lon="6.99715">
        <ele>1686</ele>
        <time>2022-08-28T01:35:46Z</time>
      </trkpt>
      <trkpt lat="46.05355" lon="6.99714">
        <ele>1686</ele>
        <time>2022-08-28T01:35:47Z</time>
      </trkpt>
      <trkpt lat="46.05355" lon="6.99714">
        <ele>1686</ele>
        <time>2022-08-28T01:35:48Z</time>
      </trkpt>
      <trkpt lat="46.05356" lon="6.99714">
        <ele>1685</ele>
        <time>2022-08-28T01:35:49Z</time>
      </trkpt>
      <trkpt lat="46.05357" lon="6.99714">
        <ele>1685</ele>
        <time>2022-08-28T01:35:50Z</time>
      </trkpt>
      <trkpt lat="46.05358" lon="6.99714">
        <ele>1685</ele>
        <time>2022-08-28T01:35:51Z</time>
      </trkpt>
      <trkpt lat="46.05358" lon="6.99714">
        <ele>1684</ele>
        <time>2022-08-28T01:35:52Z</time>
      </trkpt>
      <trkpt lat="46.05359" lon="6.99714">
        <ele>1684</ele>
        <time>2022-08-28T01:35:53Z</time>
      </trkpt>
      <trkpt lat="46.05366" lon="6.99713">
        <ele>1684</ele>
        <time>2022-08-28T01:35:54Z</time>
      </trkpt>
      <trkpt lat="46.05369" lon="6.99713">
        <ele>1683</ele>
        <time>2022-08-28T01:35:55Z</time>
      </trkpt>
      <trkpt lat="46.05371" lon="6.99713">
        <ele>1683</ele>
        <time>2022-08-28T01:35:56Z</time>
      </trkpt>
      <trkpt lat="46.05373" lon="6.99713">
        <ele>1683</ele>
        <time>2022-08-28T01:35:57Z</time>
      </trkpt>
      <trkpt lat="46.05375" lon="6.99712">
        <ele>1682</ele>
        <time>2022-08-28T01:35:58Z</time>
      </trkpt>
      <trkpt lat="46.05377" lon="6.99712">
        <ele>1682</ele>
        <time>2022-08-28T01:36:00Z</time>
      </trkpt>
      <trkpt lat="46.05378" lon="6.99712">
        <ele>1682</ele>
        <time>2022-08-28T01:36:01Z</time>
      </trkpt>
      <trkpt lat="46.0538" lon="6.99712">
        <ele>1682</ele>
        <time>2022-08-28T01:36:02Z</time>
      </trkpt>
      <trkpt lat="46.05382" lon="6.99712">
        <ele>1682</ele>
        <time>2022-08-28T01:36:03Z</time>
      </trkpt>
      <trkpt lat="46.05384" lon="6.99712">
        <ele>1681</ele>
        <time>2022-08-28T01:36:04Z</time>
      </trkpt>
      <trkpt lat="46.05393" lon="6.99711">
        <ele>1680</ele>
        <time>2022-08-28T01:36:10Z</time>
      </trkpt>
      <trkpt lat="46.05395" lon="6.99711">
        <ele>1679</ele>
        <time>2022-08-28T01:36:11Z</time>
      </trkpt>
      <trkpt lat="46.05396" lon="6.99711">
        <ele>1679</ele>
        <time>2022-08-28T01:36:12Z</time>
      </trkpt>
      <trkpt lat="46.05398" lon="6.99711">
        <ele>1679</ele>
        <time>2022-08-28T01:36:13Z</time>
      </trkpt>
      <trkpt lat="46.054" lon="6.99711">
        <ele>1679</ele>
        <time>2022-08-28T01:36:15Z</time>
      </trkpt>
      <trkpt lat="46.05402" lon="6.99711">
        <ele>1679</ele>
        <time>2022-08-28T01:36:16Z</time>
      </trkpt>
      <trkpt lat="46.05404" lon="6.99711">
        <ele>1679</ele>
        <time>2022-08-28T01:36:17Z</time>
      </trkpt>
      <trkpt lat="46.05413" lon="6.99708">
        <ele>1677</ele>
        <time>2022-08-28T01:36:24Z</time>
      </trkpt>
      <trkpt lat="46.05414" lon="6.99707">
        <ele>1677</ele>
        <time>2022-08-28T01:36:25Z</time>
      </trkpt>
      <trkpt lat="46.05415" lon="6.99707">
        <ele>1676</ele>
        <time>2022-08-28T01:36:26Z</time>
      </trkpt>
      <trkpt lat="46.05416" lon="6.99706">
        <ele>1676</ele>
        <time>2022-08-28T01:36:28Z</time>
      </trkpt>
      <trkpt lat="46.05417" lon="6.99705">
        <ele>1676</ele>
        <time>2022-08-28T01:36:29Z</time>
      </trkpt>
      <trkpt lat="46.05418" lon="6.99704">
        <ele>1675</ele>
        <time>2022-08-28T01:36:30Z</time>
      </trkpt>
      <trkpt lat="46.05425" lon="6.997">
        <ele>1675</ele>
        <time>2022-08-28T01:36:31Z</time>
      </trkpt>
      <trkpt lat="46.05426" lon="6.997">
        <ele>1674</ele>
        <time>2022-08-28T01:36:33Z</time>
      </trkpt>
      <trkpt lat="46.05428" lon="6.99699">
        <ele>1674</ele>
        <time>2022-08-28T01:36:34Z</time>
      </trkpt>
      <trkpt lat="46.0543" lon="6.99699">
        <ele>1674</ele>
        <time>2022-08-28T01:36:35Z</time>
      </trkpt>
      <trkpt lat="46.05432" lon="6.99699">
        <ele>1673</ele>
        <time>2022-08-28T01:36:36Z</time>
      </trkpt>
      <trkpt lat="46.05433" lon="6.99697">
        <ele>1673</ele>
        <time>2022-08-28T01:36:37Z</time>
      </trkpt>
      <trkpt lat="46.05435" lon="6.99695">
        <ele>1673</ele>
        <time>2022-08-28T01:36:38Z</time>
      </trkpt>
      <trkpt lat="46.05437" lon="6.99694">
        <ele>1673</ele>
        <time>2022-08-28T01:36:39Z</time>
      </trkpt>
      <trkpt lat="46.05438" lon="6.99692">
        <ele>1673</ele>
        <time>2022-08-28T01:36:40Z</time>
      </trkpt>
      <trkpt lat="46.0544" lon="6.9969">
        <ele>1673</ele>
        <time>2022-08-28T01:36:41Z</time>
      </trkpt>
      <trkpt lat="46.05443" lon="6.99688">
        <ele>1672</ele>
        <time>2022-08-28T01:36:43Z</time>
      </trkpt>
      <trkpt lat="46.05446" lon="6.99686">
        <ele>1672</ele>
        <time>2022-08-28T01:36:44Z</time>
      </trkpt>
      <trkpt lat="46.05449" lon="6.99683">
        <ele>1672</ele>
        <time>2022-08-28T01:36:45Z</time>
      </trkpt>
      <trkpt lat="46.05458" lon="6.9968">
        <ele>1669</ele>
        <time>2022-08-28T01:36:52Z</time>
      </trkpt>
      <trkpt lat="46.05459" lon="6.9968">
        <ele>1669</ele>
        <time>2022-08-28T01:36:53Z</time>
      </trkpt>
      <trkpt lat="46.05461" lon="6.99679">
        <ele>1669</ele>
        <time>2022-08-28T01:36:54Z</time>
      </trkpt>
      <trkpt lat="46.05462" lon="6.99678">
        <ele>1669</ele>
        <time>2022-08-28T01:36:55Z</time>
      </trkpt>
      <trkpt lat="46.05464" lon="6.99678">
        <ele>1669</ele>
        <time>2022-08-28T01:36:56Z</time>
      </trkpt>
      <trkpt lat="46.05465" lon="6.99677">
        <ele>1669</ele>
        <time>2022-08-28T01:36:57Z</time>
      </trkpt>
      <trkpt lat="46.05466" lon="6.99676">
        <ele>1668</ele>
        <time>2022-08-28T01:36:58Z</time>
      </trkpt>
      <trkpt lat="46.05468" lon="6.99676">
        <ele>1668</ele>
        <time>2022-08-28T01:36:59Z</time>
      </trkpt>
      <trkpt lat="46.0547" lon="6.99675">
        <ele>1668</ele>
        <time>2022-08-28T01:37:00Z</time>
      </trkpt>
      <trkpt lat="46.05472" lon="6.99674">
        <ele>1667</ele>
        <time>2022-08-28T01:37:02Z</time>
      </trkpt>
      <trkpt lat="46.05473" lon="6.99673">
        <ele>1666</ele>
        <time>2022-08-28T01:37:04Z</time>
      </trkpt>
      <trkpt lat="46.05475" lon="6.99673">
        <ele>1666</ele>
        <time>2022-08-28T01:37:05Z</time>
      </trkpt>
      <trkpt lat="46.05477" lon="6.99672">
        <ele>1665</ele>
        <time>2022-08-28T01:37:06Z</time>
      </trkpt>
      <trkpt lat="46.05479" lon="6.99672">
        <ele>1665</ele>
        <time>2022-08-28T01:37:07Z</time>
      </trkpt>
      <trkpt lat="46.0548" lon="6.99673">
        <ele>1665</ele>
        <time>2022-08-28T01:37:08Z</time>
      </trkpt>
      <trkpt lat="46.05482" lon="6.99674">
        <ele>1665</ele>
        <time>2022-08-28T01:37:09Z</time>
      </trkpt>
      <trkpt lat="46.05483" lon="6.99674">
        <ele>1665</ele>
        <time>2022-08-28T01:37:11Z</time>
      </trkpt>
      <trkpt lat="46.05484" lon="6.99675">
        <ele>1665</ele>
        <time>2022-08-28T01:37:12Z</time>
      </trkpt>
      <trkpt lat="46.05486" lon="6.99675">
        <ele>1664</ele>
        <time>2022-08-28T01:37:13Z</time>
      </trkpt>
      <trkpt lat="46.05488" lon="6.99678">
        <ele>1664</ele>
        <time>2022-08-28T01:37:14Z</time>
      </trkpt>
      <trkpt lat="46.05489" lon="6.9968">
        <ele>1664</ele>
        <time>2022-08-28T01:37:16Z</time>
      </trkpt>
      <trkpt lat="46.05491" lon="6.99682">
        <ele>1663</ele>
        <time>2022-08-28T01:37:18Z</time>
      </trkpt>
      <trkpt lat="46.05493" lon="6.99685">
        <ele>1663</ele>
        <time>2022-08-28T01:37:19Z</time>
      </trkpt>
      <trkpt lat="46.05502" lon="6.99686">
        <ele>1660</ele>
        <time>2022-08-28T01:37:26Z</time>
      </trkpt>
      <trkpt lat="46.05503" lon="6.99686">
        <ele>1660</ele>
        <time>2022-08-28T01:37:27Z</time>
      </trkpt>
      <trkpt lat="46.05504" lon="6.99685">
        <ele>1660</ele>
        <time>2022-08-28T01:37:28Z</time>
      </trkpt>
      <trkpt lat="46.05506" lon="6.99685">
        <ele>1659</ele>
        <time>2022-08-28T01:37:29Z</time>
      </trkpt>
      <trkpt lat="46.05507" lon="6.99685">
        <ele>1659</ele>
        <time>2022-08-28T01:37:31Z</time>
      </trkpt>
      <trkpt lat="46.05508" lon="6.99684">
        <ele>1658</ele>
        <time>2022-08-28T01:37:32Z</time>
      </trkpt>
      <trkpt lat="46.0551" lon="6.99684">
        <ele>1658</ele>
        <time>2022-08-28T01:37:33Z</time>
      </trkpt>
      <trkpt lat="46.05511" lon="6.99684">
        <ele>1658</ele>
        <time>2022-08-28T01:37:34Z</time>
      </trkpt>
      <trkpt lat="46.05513" lon="6.99683">
        <ele>1657</ele>
        <time>2022-08-28T01:37:35Z</time>
      </trkpt>
      <trkpt lat="46.05515" lon="6.99682">
        <ele>1657</ele>
        <time>2022-08-28T01:37:36Z</time>
      </trkpt>
      <trkpt lat="46.05516" lon="6.99682">
        <ele>1657</ele>
        <time>2022-08-28T01:37:37Z</time>
      </trkpt>
      <trkpt lat="46.05518" lon="6.99681">
        <ele>1657</ele>
        <time>2022-08-28T01:37:39Z</time>
      </trkpt>
      <trkpt lat="46.0552" lon="6.9968">
        <ele>1657</ele>
        <time>2022-08-28T01:37:40Z</time>
      </trkpt>
      <trkpt lat="46.05521" lon="6.9968">
        <ele>1657</ele>
        <time>2022-08-28T01:37:41Z</time>
      </trkpt>
      <trkpt lat="46.05523" lon="6.9968">
        <ele>1657</ele>
        <time>2022-08-28T01:37:42Z</time>
      </trkpt>
      <trkpt lat="46.05524" lon="6.9968">
        <ele>1657</ele>
        <time>2022-08-28T01:37:43Z</time>
      </trkpt>
      <trkpt lat="46.05525" lon="6.99679">
        <ele>1657</ele>
        <time>2022-08-28T01:37:45Z</time>
      </trkpt>
      <trkpt lat="46.05527" lon="6.99679">
        <ele>1655</ele>
        <time>2022-08-28T01:37:47Z</time>
      </trkpt>
      <trkpt lat="46.05528" lon="6.99679">
        <ele>1655</ele>
        <time>2022-08-28T01:37:48Z</time>
      </trkpt>
      <trkpt lat="46.05529" lon="6.99678">
        <ele>1655</ele>
        <time>2022-08-28T01:37:49Z</time>
      </trkpt>
      <trkpt lat="46.05531" lon="6.99678">
        <ele>1655</ele>
        <time>2022-08-28T01:37:50Z</time>
      </trkpt>
      <trkpt lat="46.05532" lon="6.99679">
        <ele>1655</ele>
        <time>2022-08-28T01:37:51Z</time>
      </trkpt>
      <trkpt lat="46.05534" lon="6.99679">
        <ele>1655</ele>
        <time>2022-08-28T01:37:52Z</time>
      </trkpt>
      <trkpt lat="46.05535" lon="6.99679">
        <ele>1654</ele>
        <time>2022-08-28T01:37:54Z</time>
      </trkpt>
      <trkpt lat="46.05537" lon="6.99679">
        <ele>1654</ele>
        <time>2022-08-28T01:37:55Z</time>
      </trkpt>
      <trkpt lat="46.05539" lon="6.99679">
        <ele>1653</ele>
        <time>2022-08-28T01:37:56Z</time>
      </trkpt>
      <trkpt lat="46.05541" lon="6.99679">
        <ele>1653</ele>
        <time>2022-08-28T01:37:57Z</time>
      </trkpt>
      <trkpt lat="46.05543" lon="6.99679">
        <ele>1652</ele>
        <time>2022-08-28T01:37:59Z</time>
      </trkpt>
      <trkpt lat="46.05545" lon="6.99678">
        <ele>1652</ele>
        <time>2022-08-28T01:38:01Z</time>
      </trkpt>
      <trkpt lat="46.05548" lon="6.99678">
        <ele>1651</ele>
        <time>2022-08-28T01:38:02Z</time>
      </trkpt>
      <trkpt lat="46.05549" lon="6.99678">
        <ele>1651</ele>
        <time>2022-08-28T01:38:03Z</time>
      </trkpt>
      <trkpt lat="46.05551" lon="6.99678">
        <ele>1651</ele>
        <time>2022-08-28T01:38:04Z</time>
      </trkpt>
      <trkpt lat="46.05552" lon="6.99678">
        <ele>1650</ele>
        <time>2022-08-28T01:38:06Z</time>
      </trkpt>
      <trkpt lat="46.05554" lon="6.99678">
        <ele>1650</ele>
        <time>2022-08-28T01:38:07Z</time>
      </trkpt>
      <trkpt lat="46.05555" lon="6.99678">
        <ele>1650</ele>
        <time>2022-08-28T01:38:08Z</time>
      </trkpt>
      <trkpt lat="46.05557" lon="6.99678">
        <ele>1650</ele>
        <time>2022-08-28T01:38:09Z</time>
      </trkpt>
      <trkpt lat="46.05557" lon="6.99677">
        <ele>1650</ele>
        <time>2022-08-28T01:38:11Z</time>
      </trkpt>
      <trkpt lat="46.05558" lon="6.99677">
        <ele>1649</ele>
        <time>2022-08-28T01:38:13Z</time>
      </trkpt>
      <trkpt lat="46.05558" lon="6.99676">
        <ele>1649</ele>
        <time>2022-08-28T01:38:14Z</time>
      </trkpt>
      <trkpt lat="46.05559" lon="6.99676">
        <ele>1649</ele>
        <time>2022-08-28T01:38:15Z</time>
      </trkpt>
      <trkpt lat="46.05559" lon="6.99676">
        <ele>1649</ele>
        <time>2022-08-28T01:38:16Z</time>
      </trkpt>
      <trkpt lat="46.0556" lon="6.99675">
        <ele>1648</ele>
        <time>2022-08-28T01:38:18Z</time>
      </trkpt>
      <trkpt lat="46.0556" lon="6.99675">
        <ele>1647</ele>
        <time>2022-08-28T01:38:19Z</time>
      </trkpt>
      <trkpt lat="46.05568" lon="6.99669">
        <ele>1646</ele>
        <time>2022-08-28T01:38:21Z</time>
      </trkpt>
      <trkpt lat="46.0557" lon="6.99669">
        <ele>1646</ele>
        <time>2022-08-28T01:38:22Z</time>
      </trkpt>
      <trkpt lat="46.05571" lon="6.99668">
        <ele>1645</ele>
        <time>2022-08-28T01:38:23Z</time>
      </trkpt>
      <trkpt lat="46.05573" lon="6.99668">
        <ele>1644</ele>
        <time>2022-08-28T01:38:24Z</time>
      </trkpt>
      <trkpt lat="46.05575" lon="6.99668">
        <ele>1644</ele>
        <time>2022-08-28T01:38:26Z</time>
      </trkpt>
      <trkpt lat="46.05576" lon="6.99667">
        <ele>1644</ele>
        <time>2022-08-28T01:38:27Z</time>
      </trkpt>
      <trkpt lat="46.05578" lon="6.99667">
        <ele>1644</ele>
        <time>2022-08-28T01:38:28Z</time>
      </trkpt>
      <trkpt lat="46.05579" lon="6.99667">
        <ele>1644</ele>
        <time>2022-08-28T01:38:29Z</time>
      </trkpt>
      <trkpt lat="46.05581" lon="6.99667">
        <ele>1644</ele>
        <time>2022-08-28T01:38:30Z</time>
      </trkpt>
      <trkpt lat="46.05583" lon="6.99666">
        <ele>1643</ele>
        <time>2022-08-28T01:38:32Z</time>
      </trkpt>
      <trkpt lat="46.05584" lon="6.99666">
        <ele>1643</ele>
        <time>2022-08-28T01:38:33Z</time>
      </trkpt>
      <trkpt lat="46.05586" lon="6.99666">
        <ele>1642</ele>
        <time>2022-08-28T01:38:34Z</time>
      </trkpt>
      <trkpt lat="46.05588" lon="6.99666">
        <ele>1642</ele>
        <time>2022-08-28T01:38:35Z</time>
      </trkpt>
      <trkpt lat="46.05589" lon="6.99665">
        <ele>1641</ele>
        <time>2022-08-28T01:38:37Z</time>
      </trkpt>
      <trkpt lat="46.05591" lon="6.99665">
        <ele>1640</ele>
        <time>2022-08-28T01:38:39Z</time>
      </trkpt>
      <trkpt lat="46.05593" lon="6.99665">
        <ele>1640</ele>
        <time>2022-08-28T01:38:40Z</time>
      </trkpt>
      <trkpt lat="46.05595" lon="6.99664">
        <ele>1640</ele>
        <time>2022-08-28T01:38:41Z</time>
      </trkpt>
      <trkpt lat="46.05596" lon="6.99663">
        <ele>1640</ele>
        <time>2022-08-28T01:38:42Z</time>
      </trkpt>
      <trkpt lat="46.05598" lon="6.99663">
        <ele>1639</ele>
        <time>2022-08-28T01:38:43Z</time>
      </trkpt>
      <trkpt lat="46.05599" lon="6.99662">
        <ele>1639</ele>
        <time>2022-08-28T01:38:44Z</time>
      </trkpt>
      <trkpt lat="46.05601" lon="6.99661">
        <ele>1638</ele>
        <time>2022-08-28T01:38:46Z</time>
      </trkpt>
      <trkpt lat="46.05602" lon="6.9966">
        <ele>1638</ele>
        <time>2022-08-28T01:38:47Z</time>
      </trkpt>
      <trkpt lat="46.05604" lon="6.99659">
        <ele>1637</ele>
        <time>2022-08-28T01:38:48Z</time>
      </trkpt>
      <trkpt lat="46.05613" lon="6.99655">
        <ele>1635</ele>
        <time>2022-08-28T01:38:56Z</time>
      </trkpt>
      <trkpt lat="46.05614" lon="6.99654">
        <ele>1635</ele>
        <time>2022-08-28T01:38:58Z</time>
      </trkpt>
      <trkpt lat="46.05615" lon="6.99653">
        <ele>1634</ele>
        <time>2022-08-28T01:38:59Z</time>
      </trkpt>
      <trkpt lat="46.05616" lon="6.99652">
        <ele>1634</ele>
        <time>2022-08-28T01:39:00Z</time>
      </trkpt>
      <trkpt lat="46.05617" lon="6.99651">
        <ele>1633</ele>
        <time>2022-08-28T01:39:01Z</time>
      </trkpt>
      <trkpt lat="46.05619" lon="6.9965">
        <ele>1633</ele>
        <time>2022-08-28T01:39:03Z</time>
      </trkpt>
      <trkpt lat="46.0562" lon="6.99649">
        <ele>1633</ele>
        <time>2022-08-28T01:39:04Z</time>
      </trkpt>
      <trkpt lat="46.05621" lon="6.99648">
        <ele>1633</ele>
        <time>2022-08-28T01:39:05Z</time>
      </trkpt>
      <trkpt lat="46.05622" lon="6.99649">
        <ele>1633</ele>
        <time>2022-08-28T01:39:06Z</time>
      </trkpt>
      <trkpt lat="46.05624" lon="6.99649">
        <ele>1633</ele>
        <time>2022-08-28T01:39:07Z</time>
      </trkpt>
      <trkpt lat="46.05625" lon="6.9965">
        <ele>1631</ele>
        <time>2022-08-28T01:39:09Z</time>
      </trkpt>
      <trkpt lat="46.05626" lon="6.9965">
        <ele>1631</ele>
        <time>2022-08-28T01:39:10Z</time>
      </trkpt>
      <trkpt lat="46.05634" lon="6.99653">
        <ele>1631</ele>
        <time>2022-08-28T01:39:11Z</time>
      </trkpt>
      <trkpt lat="46.05636" lon="6.99654">
        <ele>1630</ele>
        <time>2022-08-28T01:39:12Z</time>
      </trkpt>
      <trkpt lat="46.05639" lon="6.99655">
        <ele>1630</ele>
        <time>2022-08-28T01:39:14Z</time>
      </trkpt>
      <trkpt lat="46.05641" lon="6.99656">
        <ele>1630</ele>
        <time>2022-08-28T01:39:15Z</time>
      </trkpt>
      <trkpt lat="46.0565" lon="6.99659">
        <ele>1630</ele>
        <time>2022-08-28T01:39:19Z</time>
      </trkpt>
      <trkpt lat="46.05652" lon="6.99658">
        <ele>1629</ele>
        <time>2022-08-28T01:39:20Z</time>
      </trkpt>
      <trkpt lat="46.05653" lon="6.99657">
        <ele>1629</ele>
        <time>2022-08-28T01:39:21Z</time>
      </trkpt>
      <trkpt lat="46.05654" lon="6.99656">
        <ele>1628</ele>
        <time>2022-08-28T01:39:22Z</time>
      </trkpt>
      <trkpt lat="46.05655" lon="6.99655">
        <ele>1628</ele>
        <time>2022-08-28T01:39:24Z</time>
      </trkpt>
      <trkpt lat="46.05657" lon="6.99654">
        <ele>1628</ele>
        <time>2022-08-28T01:39:25Z</time>
      </trkpt>
      <trkpt lat="46.05658" lon="6.99653">
        <ele>1628</ele>
        <time>2022-08-28T01:39:26Z</time>
      </trkpt>
      <trkpt lat="46.05659" lon="6.99652">
        <ele>1627</ele>
        <time>2022-08-28T01:39:27Z</time>
      </trkpt>
      <trkpt lat="46.05661" lon="6.9965">
        <ele>1626</ele>
        <time>2022-08-28T01:39:29Z</time>
      </trkpt>
      <trkpt lat="46.05662" lon="6.99649">
        <ele>1626</ele>
        <time>2022-08-28T01:39:30Z</time>
      </trkpt>
      <trkpt lat="46.05663" lon="6.99647">
        <ele>1626</ele>
        <time>2022-08-28T01:39:31Z</time>
      </trkpt>
      <trkpt lat="46.05665" lon="6.99645">
        <ele>1626</ele>
        <time>2022-08-28T01:39:32Z</time>
      </trkpt>
      <trkpt lat="46.05666" lon="6.99644">
        <ele>1625</ele>
        <time>2022-08-28T01:39:33Z</time>
      </trkpt>
      <trkpt lat="46.05668" lon="6.99643">
        <ele>1624</ele>
        <time>2022-08-28T01:39:34Z</time>
      </trkpt>
      <trkpt lat="46.05669" lon="6.99641">
        <ele>1623</ele>
        <time>2022-08-28T01:39:35Z</time>
      </trkpt>
      <trkpt lat="46.05671" lon="6.9964">
        <ele>1624</ele>
        <time>2022-08-28T01:39:36Z</time>
      </trkpt>
      <trkpt lat="46.05672" lon="6.99639">
        <ele>1624</ele>
        <time>2022-08-28T01:39:38Z</time>
      </trkpt>
      <trkpt lat="46.05673" lon="6.99638">
        <ele>1624</ele>
        <time>2022-08-28T01:39:39Z</time>
      </trkpt>
      <trkpt lat="46.05675" lon="6.99637">
        <ele>1624</ele>
        <time>2022-08-28T01:39:40Z</time>
      </trkpt>
      <trkpt lat="46.05676" lon="6.99636">
        <ele>1624</ele>
        <time>2022-08-28T01:39:41Z</time>
      </trkpt>
      <trkpt lat="46.05677" lon="6.99636">
        <ele>1623</ele>
        <time>2022-08-28T01:39:43Z</time>
      </trkpt>
      <trkpt lat="46.05679" lon="6.99635">
        <ele>1623</ele>
        <time>2022-08-28T01:39:44Z</time>
      </trkpt>
      <trkpt lat="46.0568" lon="6.99635">
        <ele>1623</ele>
        <time>2022-08-28T01:39:45Z</time>
      </trkpt>
      <trkpt lat="46.05682" lon="6.99634">
        <ele>1623</ele>
        <time>2022-08-28T01:39:46Z</time>
      </trkpt>
      <trkpt lat="46.05683" lon="6.99634">
        <ele>1623</ele>
        <time>2022-08-28T01:39:47Z</time>
      </trkpt>
      <trkpt lat="46.05684" lon="6.99633">
        <ele>1623</ele>
        <time>2022-08-28T01:39:48Z</time>
      </trkpt>
      <trkpt lat="46.05695" lon="6.99636">
        <ele>1623</ele>
        <time>2022-08-28T01:39:53Z</time>
      </trkpt>
      <trkpt lat="46.05696" lon="6.99634">
        <ele>1621</ele>
        <time>2022-08-28T01:39:55Z</time>
      </trkpt>
      <trkpt lat="46.05697" lon="6.99633">
        <ele>1621</ele>
        <time>2022-08-28T01:39:56Z</time>
      </trkpt>
      <trkpt lat="46.05699" lon="6.99632">
        <ele>1621</ele>
        <time>2022-08-28T01:39:57Z</time>
      </trkpt>
      <trkpt lat="46.057" lon="6.99631">
        <ele>1621</ele>
        <time>2022-08-28T01:39:58Z</time>
      </trkpt>
      <trkpt lat="46.05701" lon="6.9963">
        <ele>1621</ele>
        <time>2022-08-28T01:40:00Z</time>
      </trkpt>
      <trkpt lat="46.05702" lon="6.99628">
        <ele>1621</ele>
        <time>2022-08-28T01:40:01Z</time>
      </trkpt>
      <trkpt lat="46.05703" lon="6.99627">
        <ele>1621</ele>
        <time>2022-08-28T01:40:02Z</time>
      </trkpt>
      <trkpt lat="46.05704" lon="6.99627">
        <ele>1621</ele>
        <time>2022-08-28T01:40:03Z</time>
      </trkpt>
      <trkpt lat="46.05705" lon="6.99626">
        <ele>1621</ele>
        <time>2022-08-28T01:40:05Z</time>
      </trkpt>
      <trkpt lat="46.05706" lon="6.99625">
        <ele>1621</ele>
        <time>2022-08-28T01:40:06Z</time>
      </trkpt>
      <trkpt lat="46.05706" lon="6.99624">
        <ele>1621</ele>
        <time>2022-08-28T01:40:07Z</time>
      </trkpt>
      <trkpt lat="46.05707" lon="6.99623">
        <ele>1621</ele>
        <time>2022-08-28T01:40:08Z</time>
      </trkpt>
      <trkpt lat="46.05708" lon="6.99622">
        <ele>1621</ele>
        <time>2022-08-28T01:40:10Z</time>
      </trkpt>
      <trkpt lat="46.05709" lon="6.99621">
        <ele>1621</ele>
        <time>2022-08-28T01:40:11Z</time>
      </trkpt>
      <trkpt lat="46.0571" lon="6.9962">
        <ele>1621</ele>
        <time>2022-08-28T01:40:12Z</time>
      </trkpt>
      <trkpt lat="46.0571" lon="6.99618">
        <ele>1621</ele>
        <time>2022-08-28T01:40:14Z</time>
      </trkpt>
      <trkpt lat="46.0571" lon="6.99616">
        <ele>1621</ele>
        <time>2022-08-28T01:40:15Z</time>
      </trkpt>
      <trkpt lat="46.0571" lon="6.99613">
        <ele>1622</ele>
        <time>2022-08-28T01:40:16Z</time>
      </trkpt>
      <trkpt lat="46.05711" lon="6.99611">
        <ele>1622</ele>
        <time>2022-08-28T01:40:17Z</time>
      </trkpt>
      <trkpt lat="46.05711" lon="6.99609">
        <ele>1622</ele>
        <time>2022-08-28T01:40:18Z</time>
      </trkpt>
      <trkpt lat="46.05711" lon="6.99607">
        <ele>1622</ele>
        <time>2022-08-28T01:40:19Z</time>
      </trkpt>
      <trkpt lat="46.05708" lon="6.99594">
        <ele>1623</ele>
        <time>2022-08-28T01:40:31Z</time>
      </trkpt>
      <trkpt lat="46.05707" lon="6.99593">
        <ele>1623</ele>
        <time>2022-08-28T01:40:32Z</time>
      </trkpt>
      <trkpt lat="46.05706" lon="6.99593">
        <ele>1623</ele>
        <time>2022-08-28T01:40:33Z</time>
      </trkpt>
      <trkpt lat="46.05705" lon="6.99593">
        <ele>1623</ele>
        <time>2022-08-28T01:40:35Z</time>
      </trkpt>
      <trkpt lat="46.05704" lon="6.99593">
        <ele>1623</ele>
        <time>2022-08-28T01:40:36Z</time>
      </trkpt>
      <trkpt lat="46.05703" lon="6.99593">
        <ele>1624</ele>
        <time>2022-08-28T01:40:37Z</time>
      </trkpt>
      <trkpt lat="46.05702" lon="6.99592">
        <ele>1624</ele>
        <time>2022-08-28T01:40:38Z</time>
      </trkpt>
      <trkpt lat="46.05701" lon="6.99592">
        <ele>1624</ele>
        <time>2022-08-28T01:40:40Z</time>
      </trkpt>
      <trkpt lat="46.057" lon="6.99592">
        <ele>1624</ele>
        <time>2022-08-28T01:40:41Z</time>
      </trkpt>
      <trkpt lat="46.05699" lon="6.99592">
        <ele>1624</ele>
        <time>2022-08-28T01:40:42Z</time>
      </trkpt>
      <trkpt lat="46.05695" lon="6.99579">
        <ele>1624</ele>
        <time>2022-08-28T01:40:45Z</time>
      </trkpt>
      <trkpt lat="46.05694" lon="6.99579">
        <ele>1624</ele>
        <time>2022-08-28T01:40:46Z</time>
      </trkpt>
      <trkpt lat="46.05693" lon="6.99579">
        <ele>1624</ele>
        <time>2022-08-28T01:40:47Z</time>
      </trkpt>
      <trkpt lat="46.05692" lon="6.99579">
        <ele>1624</ele>
        <time>2022-08-28T01:40:48Z</time>
      </trkpt>
      <trkpt lat="46.05691" lon="6.99579">
        <ele>1624</ele>
        <time>2022-08-28T01:40:50Z</time>
      </trkpt>
      <trkpt lat="46.05691" lon="6.99579">
        <ele>1625</ele>
        <time>2022-08-28T01:40:52Z</time>
      </trkpt>
      <trkpt lat="46.0569" lon="6.99579">
        <ele>1625</ele>
        <time>2022-08-28T01:40:53Z</time>
      </trkpt>
      <trkpt lat="46.05689" lon="6.99579">
        <ele>1625</ele>
        <time>2022-08-28T01:40:54Z</time>
      </trkpt>
      <trkpt lat="46.05688" lon="6.99579">
        <ele>1625</ele>
        <time>2022-08-28T01:40:55Z</time>
      </trkpt>
      <trkpt lat="46.05687" lon="6.99579">
        <ele>1625</ele>
        <time>2022-08-28T01:40:57Z</time>
      </trkpt>
      <trkpt lat="46.05687" lon="6.99579">
        <ele>1626</ele>
        <time>2022-08-28T01:40:58Z</time>
      </trkpt>
      <trkpt lat="46.05686" lon="6.99578">
        <ele>1626</ele>
        <time>2022-08-28T01:40:59Z</time>
      </trkpt>
      <trkpt lat="46.05685" lon="6.99578">
        <ele>1626</ele>
        <time>2022-08-28T01:41:00Z</time>
      </trkpt>
      <trkpt lat="46.05683" lon="6.99579">
        <ele>1626</ele>
        <time>2022-08-28T01:41:02Z</time>
      </trkpt>
      <trkpt lat="46.05682" lon="6.99579">
        <ele>1627</ele>
        <time>2022-08-28T01:41:04Z</time>
      </trkpt>
      <trkpt lat="46.0568" lon="6.99579">
        <ele>1627</ele>
        <time>2022-08-28T01:41:05Z</time>
      </trkpt>
      <trkpt lat="46.05679" lon="6.99579">
        <ele>1627</ele>
        <time>2022-08-28T01:41:07Z</time>
      </trkpt>
      <trkpt lat="46.05677" lon="6.99579">
        <ele>1627</ele>
        <time>2022-08-28T01:41:08Z</time>
      </trkpt>
      <trkpt lat="46.05675" lon="6.9958">
        <ele>1627</ele>
        <time>2022-08-28T01:41:09Z</time>
      </trkpt>
      <trkpt lat="46.05674" lon="6.99579">
        <ele>1629</ele>
        <time>2022-08-28T01:41:10Z</time>
      </trkpt>
      <trkpt lat="46.05672" lon="6.99578">
        <ele>1629</ele>
        <time>2022-08-28T01:41:12Z</time>
      </trkpt>
      <trkpt lat="46.0567" lon="6.99578">
        <ele>1629</ele>
        <time>2022-08-28T01:41:14Z</time>
      </trkpt>
      <trkpt lat="46.05669" lon="6.99577">
        <ele>1629</ele>
        <time>2022-08-28T01:41:15Z</time>
      </trkpt>
      <trkpt lat="46.05667" lon="6.99577">
        <ele>1629</ele>
        <time>2022-08-28T01:41:16Z</time>
      </trkpt>
      <trkpt lat="46.05666" lon="6.99576">
        <ele>1629</ele>
        <time>2022-08-28T01:41:17Z</time>
      </trkpt>
      <trkpt lat="46.05665" lon="6.99575">
        <ele>1629</ele>
        <time>2022-08-28T01:41:19Z</time>
      </trkpt>
      <trkpt lat="46.05664" lon="6.99574">
        <ele>1629</ele>
        <time>2022-08-28T01:41:20Z</time>
      </trkpt>
      <trkpt lat="46.05663" lon="6.99573">
        <ele>1629</ele>
        <time>2022-08-28T01:41:21Z</time>
      </trkpt>
      <trkpt lat="46.05662" lon="6.99572">
        <ele>1629</ele>
        <time>2022-08-28T01:41:22Z</time>
      </trkpt>
      <trkpt lat="46.05661" lon="6.99571">
        <ele>1630</ele>
        <time>2022-08-28T01:41:24Z</time>
      </trkpt>
      <trkpt lat="46.0566" lon="6.9957">
        <ele>1630</ele>
        <time>2022-08-28T01:41:25Z</time>
      </trkpt>
      <trkpt lat="46.05659" lon="6.99569">
        <ele>1630</ele>
        <time>2022-08-28T01:41:26Z</time>
      </trkpt>
      <trkpt lat="46.05658" lon="6.99568">
        <ele>1630</ele>
        <time>2022-08-28T01:41:28Z</time>
      </trkpt>
      <trkpt lat="46.05657" lon="6.99567">
        <ele>1630</ele>
        <time>2022-08-28T01:41:29Z</time>
      </trkpt>
      <trkpt lat="46.05656" lon="6.99566">
        <ele>1630</ele>
        <time>2022-08-28T01:41:30Z</time>
      </trkpt>
      <trkpt lat="46.05655" lon="6.99565">
        <ele>1630</ele>
        <time>2022-08-28T01:41:32Z</time>
      </trkpt>
      <trkpt lat="46.05654" lon="6.99564">
        <ele>1630</ele>
        <time>2022-08-28T01:41:33Z</time>
      </trkpt>
      <trkpt lat="46.05653" lon="6.99562">
        <ele>1630</ele>
        <time>2022-08-28T01:41:34Z</time>
      </trkpt>
      <trkpt lat="46.05652" lon="6.99561">
        <ele>1630</ele>
        <time>2022-08-28T01:41:35Z</time>
      </trkpt>
      <trkpt lat="46.05651" lon="6.9956">
        <ele>1630</ele>
        <time>2022-08-28T01:41:36Z</time>
      </trkpt>
      <trkpt lat="46.0565" lon="6.99559">
        <ele>1630</ele>
        <time>2022-08-28T01:41:37Z</time>
      </trkpt>
      <trkpt lat="46.05649" lon="6.99558">
        <ele>1630</ele>
        <time>2022-08-28T01:41:38Z</time>
      </trkpt>
      <trkpt lat="46.05649" lon="6.99557">
        <ele>1630</ele>
        <time>2022-08-28T01:41:39Z</time>
      </trkpt>
      <trkpt lat="46.05648" lon="6.99556">
        <ele>1630</ele>
        <time>2022-08-28T01:41:40Z</time>
      </trkpt>
      <trkpt lat="46.05648" lon="6.99555">
        <ele>1630</ele>
        <time>2022-08-28T01:41:41Z</time>
      </trkpt>
      <trkpt lat="46.05647" lon="6.99554">
        <ele>1630</ele>
        <time>2022-08-28T01:41:42Z</time>
      </trkpt>
      <trkpt lat="46.05646" lon="6.99552">
        <ele>1630</ele>
        <time>2022-08-28T01:41:43Z</time>
      </trkpt>
      <trkpt lat="46.05644" lon="6.99549">
        <ele>1630</ele>
        <time>2022-08-28T01:41:45Z</time>
      </trkpt>
      <trkpt lat="46.05643" lon="6.99548">
        <ele>1630</ele>
        <time>2022-08-28T01:41:47Z</time>
      </trkpt>
      <trkpt lat="46.05643" lon="6.99547">
        <ele>1630</ele>
        <time>2022-08-28T01:41:49Z</time>
      </trkpt>
      <trkpt lat="46.05642" lon="6.99546">
        <ele>1630</ele>
        <time>2022-08-28T01:41:50Z</time>
      </trkpt>
      <trkpt lat="46.05641" lon="6.99545">
        <ele>1630</ele>
        <time>2022-08-28T01:41:51Z</time>
      </trkpt>
      <trkpt lat="46.0564" lon="6.99544">
        <ele>1630</ele>
        <time>2022-08-28T01:41:52Z</time>
      </trkpt>
      <trkpt lat="46.0564" lon="6.99543">
        <ele>1630</ele>
        <time>2022-08-28T01:41:54Z</time>
      </trkpt>
      <trkpt lat="46.05639" lon="6.99542">
        <ele>1630</ele>
        <time>2022-08-28T01:41:55Z</time>
      </trkpt>
      <trkpt lat="46.05638" lon="6.99541">
        <ele>1630</ele>
        <time>2022-08-28T01:41:56Z</time>
      </trkpt>
      <trkpt lat="46.05638" lon="6.9954">
        <ele>1630</ele>
        <time>2022-08-28T01:41:57Z</time>
      </trkpt>
      <trkpt lat="46.0563" lon="6.99532">
        <ele>1631</ele>
        <time>2022-08-28T01:42:03Z</time>
      </trkpt>
      <trkpt lat="46.05628" lon="6.9953">
        <ele>1631</ele>
        <time>2022-08-28T01:42:04Z</time>
      </trkpt>
      <trkpt lat="46.05626" lon="6.99528">
        <ele>1631</ele>
        <time>2022-08-28T01:42:06Z</time>
      </trkpt>
      <trkpt lat="46.05624" lon="6.99525">
        <ele>1631</ele>
        <time>2022-08-28T01:42:08Z</time>
      </trkpt>
      <trkpt lat="46.05622" lon="6.99523">
        <ele>1631</ele>
        <time>2022-08-28T01:42:09Z</time>
      </trkpt>
      <trkpt lat="46.05616" lon="6.99535">
        <ele>1631</ele>
        <time>2022-08-28T01:42:18Z</time>
      </trkpt>
      <trkpt lat="46.05616" lon="6.99537">
        <ele>1632</ele>
        <time>2022-08-28T01:42:20Z</time>
      </trkpt>
      <trkpt lat="46.05615" lon="6.99539">
        <ele>1632</ele>
        <time>2022-08-28T01:42:21Z</time>
      </trkpt>
      <trkpt lat="46.05615" lon="6.99541">
        <ele>1632</ele>
        <time>2022-08-28T01:42:23Z</time>
      </trkpt>
      <trkpt lat="46.05614" lon="6.99544">
        <ele>1632</ele>
        <time>2022-08-28T01:42:25Z</time>
      </trkpt>
      <trkpt lat="46.05614" lon="6.99546">
        <ele>1632</ele>
        <time>2022-08-28T01:42:26Z</time>
      </trkpt>
      <trkpt lat="46.05613" lon="6.99548">
        <ele>1633</ele>
        <time>2022-08-28T01:42:27Z</time>
      </trkpt>
      <trkpt lat="46.05612" lon="6.99549">
        <ele>1633</ele>
        <time>2022-08-28T01:42:28Z</time>
      </trkpt>
      <trkpt lat="46.05612" lon="6.9955">
        <ele>1633</ele>
        <time>2022-08-28T01:42:29Z</time>
      </trkpt>
      <trkpt lat="46.05611" lon="6.99551">
        <ele>1633</ele>
        <time>2022-08-28T01:42:30Z</time>
      </trkpt>
      <trkpt lat="46.0561" lon="6.99553">
        <ele>1634</ele>
        <time>2022-08-28T01:42:32Z</time>
      </trkpt>
      <trkpt lat="46.05609" lon="6.99554">
        <ele>1634</ele>
        <time>2022-08-28T01:42:33Z</time>
      </trkpt>
      <trkpt lat="46.05609" lon="6.99555">
        <ele>1634</ele>
        <time>2022-08-28T01:42:34Z</time>
      </trkpt>
      <trkpt lat="46.05608" lon="6.99556">
        <ele>1634</ele>
        <time>2022-08-28T01:42:35Z</time>
      </trkpt>
      <trkpt lat="46.05607" lon="6.99557">
        <ele>1634</ele>
        <time>2022-08-28T01:42:37Z</time>
      </trkpt>
      <trkpt lat="46.05606" lon="6.99558">
        <ele>1634</ele>
        <time>2022-08-28T01:42:38Z</time>
      </trkpt>
      <trkpt lat="46.05608" lon="6.99545">
        <ele>1636</ele>
        <time>2022-08-28T01:42:58Z</time>
      </trkpt>
      <trkpt lat="46.0561" lon="6.99544">
        <ele>1636</ele>
        <time>2022-08-28T01:42:59Z</time>
      </trkpt>
      <trkpt lat="46.05612" lon="6.99542">
        <ele>1636</ele>
        <time>2022-08-28T01:43:00Z</time>
      </trkpt>
      <trkpt lat="46.05614" lon="6.99541">
        <ele>1636</ele>
        <time>2022-08-28T01:43:01Z</time>
      </trkpt>
      <trkpt lat="46.05615" lon="6.9954">
        <ele>1636</ele>
        <time>2022-08-28T01:43:03Z</time>
      </trkpt>
      <trkpt lat="46.05617" lon="6.99538">
        <ele>1636</ele>
        <time>2022-08-28T01:43:04Z</time>
      </trkpt>
      <trkpt lat="46.05617" lon="6.99536">
        <ele>1637</ele>
        <time>2022-08-28T01:43:05Z</time>
      </trkpt>
      <trkpt lat="46.05616" lon="6.99534">
        <ele>1637</ele>
        <time>2022-08-28T01:43:07Z</time>
      </trkpt>
      <trkpt lat="46.05616" lon="6.99532">
        <ele>1637</ele>
        <time>2022-08-28T01:43:08Z</time>
      </trkpt>
      <trkpt lat="46.05615" lon="6.99531">
        <ele>1637</ele>
        <time>2022-08-28T01:43:09Z</time>
      </trkpt>
      <trkpt lat="46.05615" lon="6.99529">
        <ele>1637</ele>
        <time>2022-08-28T01:43:10Z</time>
      </trkpt>
      <trkpt lat="46.05614" lon="6.99527">
        <ele>1637</ele>
        <time>2022-08-28T01:43:12Z</time>
      </trkpt>
      <trkpt lat="46.05613" lon="6.99525">
        <ele>1637</ele>
        <time>2022-08-28T01:43:13Z</time>
      </trkpt>
      <trkpt lat="46.05614" lon="6.99522">
        <ele>1637</ele>
        <time>2022-08-28T01:43:15Z</time>
      </trkpt>
      <trkpt lat="46.05614" lon="6.99519">
        <ele>1637</ele>
        <time>2022-08-28T01:43:17Z</time>
      </trkpt>
      <trkpt lat="46.05614" lon="6.99515">
        <ele>1637</ele>
        <time>2022-08-28T01:43:19Z</time>
      </trkpt>
      <trkpt lat="46.05615" lon="6.99508">
        <ele>1638</ele>
        <time>2022-08-28T01:43:24Z</time>
      </trkpt>
      <trkpt lat="46.05615" lon="6.99505">
        <ele>1638</ele>
        <time>2022-08-28T01:43:26Z</time>
      </trkpt>
      <trkpt lat="46.05615" lon="6.99502">
        <ele>1638</ele>
        <time>2022-08-28T01:43:28Z</time>
      </trkpt>
      <trkpt lat="46.05614" lon="6.99499">
        <ele>1638</ele>
        <time>2022-08-28T01:43:30Z</time>
      </trkpt>
      <trkpt lat="46.05614" lon="6.99499">
        <ele>1638</ele>
        <time>2022-08-28T01:43:32Z</time>
      </trkpt>
      <trkpt lat="46.05614" lon="6.99498">
        <ele>1638</ele>
        <time>2022-08-28T01:43:33Z</time>
      </trkpt>
      <trkpt lat="46.05613" lon="6.99498">
        <ele>1638</ele>
        <time>2022-08-28T01:43:34Z</time>
      </trkpt>
      <trkpt lat="46.05613" lon="6.99497">
        <ele>1638</ele>
        <time>2022-08-28T01:43:36Z</time>
      </trkpt>
      <trkpt lat="46.05613" lon="6.99497">
        <ele>1638</ele>
        <time>2022-08-28T01:43:37Z</time>
      </trkpt>
      <trkpt lat="46.05612" lon="6.99496">
        <ele>1638</ele>
        <time>2022-08-28T01:43:38Z</time>
      </trkpt>
      <trkpt lat="46.05612" lon="6.99496">
        <ele>1638</ele>
        <time>2022-08-28T01:43:39Z</time>
      </trkpt>
      <trkpt lat="46.05612" lon="6.99495">
        <ele>1638</ele>
        <time>2022-08-28T01:43:41Z</time>
      </trkpt>
      <trkpt lat="46.05611" lon="6.99495">
        <ele>1638</ele>
        <time>2022-08-28T01:43:43Z</time>
      </trkpt>
      <trkpt lat="46.05611" lon="6.99494">
        <ele>1638</ele>
        <time>2022-08-28T01:43:44Z</time>
      </trkpt>
      <trkpt lat="46.05611" lon="6.99494">
        <ele>1638</ele>
        <time>2022-08-28T01:43:45Z</time>
      </trkpt>
      <trkpt lat="46.0561" lon="6.99494">
        <ele>1638</ele>
        <time>2022-08-28T01:43:46Z</time>
      </trkpt>
      <trkpt lat="46.0561" lon="6.99493">
        <ele>1638</ele>
        <time>2022-08-28T01:43:47Z</time>
      </trkpt>
      <trkpt lat="46.0561" lon="6.99493">
        <ele>1638</ele>
        <time>2022-08-28T01:43:48Z</time>
      </trkpt>
      <trkpt lat="46.05609" lon="6.99492">
        <ele>1638</ele>
        <time>2022-08-28T01:43:49Z</time>
      </trkpt>
      <trkpt lat="46.05609" lon="6.99492">
        <ele>1639</ele>
        <time>2022-08-28T01:43:50Z</time>
      </trkpt>
      <trkpt lat="46.05609" lon="6.99491">
        <ele>1639</ele>
        <time>2022-08-28T01:43:52Z</time>
      </trkpt>
      <trkpt lat="46.05608" lon="6.99491">
        <ele>1639</ele>
        <time>2022-08-28T01:43:54Z</time>
      </trkpt>
      <trkpt lat="46.05608" lon="6.9949">
        <ele>1639</ele>
        <time>2022-08-28T01:43:55Z</time>
      </trkpt>
      <trkpt lat="46.05608" lon="6.9949">
        <ele>1639</ele>
        <time>2022-08-28T01:43:56Z</time>
      </trkpt>
      <trkpt lat="46.05608" lon="6.9949">
        <ele>1639</ele>
        <time>2022-08-28T01:44:15Z</time>
      </trkpt>
      <trkpt lat="46.05608" lon="6.9949">
        <ele>1640</ele>
        <time>2022-08-28T01:44:36Z</time>
      </trkpt>
      <trkpt lat="46.05608" lon="6.9949">
        <ele>1639</ele>
        <time>2022-08-28T01:44:55Z</time>
      </trkpt>
      <trkpt lat="46.05608" lon="6.9949">
        <ele>1639</ele>
        <time>2022-08-28T01:45:13Z</time>
      </trkpt>
      <trkpt lat="46.05608" lon="6.9949">
        <ele>1639</ele>
        <time>2022-08-28T01:45:32Z</time>
      </trkpt>
      <trkpt lat="46.05608" lon="6.9949">
        <ele>1639</ele>
        <time>2022-08-28T01:45:52Z</time>
      </trkpt>
      <trkpt lat="46.05608" lon="6.9949">
        <ele>1638</ele>
        <time>2022-08-28T01:46:13Z</time>
      </trkpt>
      <trkpt lat="46.05608" lon="6.9949">
        <ele>1639</ele>
        <time>2022-08-28T01:46:30Z</time>
      </trkpt>
      <trkpt lat="46.05608" lon="6.9949">
        <ele>1639</ele>
        <time>2022-08-28T01:46:48Z</time>
      </trkpt>
      <trkpt lat="46.05608" lon="6.9949">
        <ele>1638</ele>
        <time>2022-08-28T01:47:05Z</time>
      </trkpt>
      <trkpt lat="46.05608" lon="6.9949">
        <ele>1639</ele>
        <time>2022-08-28T01:47:25Z</time>
      </trkpt>
      <trkpt lat="46.05608" lon="6.9949">
        <ele>1639</ele>
        <time>2022-08-28T01:47:43Z</time>
      </trkpt>
      <trkpt lat="46.05608" lon="6.9949">
        <ele>1639</ele>
        <time>2022-08-28T01:48:03Z</time>
      </trkpt>
      <trkpt lat="46.05608" lon="6.9949">
        <ele>1640</ele>
        <time>2022-08-28T01:48:22Z</time>
      </trkpt>
      <trkpt lat="46.05608" lon="6.9949">
        <ele>1639</ele>
        <time>2022-08-28T01:48:39Z</time>
      </trkpt>
      <trkpt lat="46.05608" lon="6.9949">
        <ele>1639</ele>
        <time>2022-08-28T01:48:56Z</time>
      </trkpt>
      <trkpt lat="46.05608" lon="6.9949">
        <ele>1639</ele>
        <time>2022-08-28T01:49:13Z</time>
      </trkpt>
      <trkpt lat="46.05608" lon="6.9949">
        <ele>1640</ele>
        <time>2022-08-28T01:49:30Z</time>
      </trkpt>
      <trkpt lat="46.05608" lon="6.9949">
        <ele>1640</ele>
        <time>2022-08-28T01:49:47Z</time>
      </trkpt>
      <trkpt lat="46.05608" lon="6.9949">
        <ele>1639</ele>
        <time>2022-08-28T01:50:05Z</time>
      </trkpt>
      <trkpt lat="46.05608" lon="6.9949">
        <ele>1640</ele>
        <time>2022-08-28T01:50:22Z</time>
      </trkpt>
      <trkpt lat="46.05608" lon="6.9949">
        <ele>1640</ele>
        <time>2022-08-28T01:50:39Z</time>
      </trkpt>
      <trkpt lat="46.05608" lon="6.9949">
        <ele>1640</ele>
        <time>2022-08-28T01:50:55Z</time>
      </trkpt>
      <trkpt lat="46.05608" lon="6.9949">
        <ele>1640</ele>
        <time>2022-08-28T01:51:12Z</time>
      </trkpt>
      <trkpt lat="46.05608" lon="6.9949">
        <ele>1640</ele>
        <time>2022-08-28T01:51:29Z</time>
      </trkpt>
      <trkpt lat="46.05608" lon="6.9949">
        <ele>1640</ele>
        <time>2022-08-28T01:51:46Z</time>
      </trkpt>
      <trkpt lat="46.05608" lon="6.9949">
        <ele>1640</ele>
        <time>2022-08-28T01:52:03Z</time>
      </trkpt>
      <trkpt lat="46.05608" lon="6.9949">
        <ele>1640</ele>
        <time>2022-08-28T01:52:20Z</time>
      </trkpt>
      <trkpt lat="46.05608" lon="6.9949">
        <ele>1640</ele>
        <time>2022-08-28T01:52:37Z</time>
      </trkpt>
      <trkpt lat="46.05608" lon="6.9949">
        <ele>1640</ele>
        <time>2022-08-28T01:52:54Z</time>
      </trkpt>
      <trkpt lat="46.05608" lon="6.9949">
        <ele>1640</ele>
        <time>2022-08-28T01:53:11Z</time>
      </trkpt>
      <trkpt lat="46.05608" lon="6.9949">
        <ele>1640</ele>
        <time>2022-08-28T01:53:27Z</time>
      </trkpt>
      <trkpt lat="46.05608" lon="6.9949">
        <ele>1640</ele>
        <time>2022-08-28T01:53:44Z</time>
      </trkpt>
      <trkpt lat="46.05608" lon="6.9949">
        <ele>1640</ele>
        <time>2022-08-28T01:54:02Z</time>
      </trkpt>
      <trkpt lat="46.05608" lon="6.9949">
        <ele>1640</ele>
        <time>2022-08-28T01:54:19Z</time>
      </trkpt>
      <trkpt lat="46.05608" lon="6.9949">
        <ele>1640</ele>
        <time>2022-08-28T01:54:36Z</time>
      </trkpt>
      <trkpt lat="46.05608" lon="6.9949">
        <ele>1640</ele>
        <time>2022-08-28T01:54:53Z</time>
      </trkpt>
      <trkpt lat="46.05608" lon="6.9949">
        <ele>1640</ele>
        <time>2022-08-28T01:55:10Z</time>
      </trkpt>
      <trkpt lat="46.05608" lon="6.9949">
        <ele>1640</ele>
        <time>2022-08-28T01:55:27Z</time>
      </trkpt>
      <trkpt lat="46.05608" lon="6.9949">
        <ele>1640</ele>
        <time>2022-08-28T01:55:44Z</time>
      </trkpt>
      <trkpt lat="46.05608" lon="6.9949">
        <ele>1640</ele>
        <time>2022-08-28T01:56:00Z</time>
      </trkpt>
      <trkpt lat="46.05608" lon="6.9949">
        <ele>1640</ele>
        <time>2022-08-28T01:56:17Z</time>
      </trkpt>
      <trkpt lat="46.05608" lon="6.9949">
        <ele>1640</ele>
        <time>2022-08-28T01:56:34Z</time>
      </trkpt>
      <trkpt lat="46.05608" lon="6.9949">
        <ele>1640</ele>
        <time>2022-08-28T01:56:51Z</time>
      </trkpt>
      <trkpt lat="46.05608" lon="6.9949">
        <ele>1640</ele>
        <time>2022-08-28T01:57:08Z</time>
      </trkpt>
      <trkpt lat="46.05608" lon="6.9949">
        <ele>1640</ele>
        <time>2022-08-28T01:57:27Z</time>
      </trkpt>
      <trkpt lat="46.05608" lon="6.9949">
        <ele>1640</ele>
        <time>2022-08-28T01:57:44Z</time>
      </trkpt>
      <trkpt lat="46.05608" lon="6.9949">
        <ele>1640</ele>
        <time>2022-08-28T01:58:01Z</time>
      </trkpt>
      <trkpt lat="46.05608" lon="6.9949">
        <ele>1640</ele>
        <time>2022-08-28T01:58:18Z</time>
      </trkpt>
      <trkpt lat="46.05608" lon="6.9949">
        <ele>1640</ele>
        <time>2022-08-28T01:58:35Z</time>
      </trkpt>
      <trkpt lat="46.05608" lon="6.9949">
        <ele>1640</ele>
        <time>2022-08-28T01:58:51Z</time>
      </trkpt>
      <trkpt lat="46.05608" lon="6.9949">
        <ele>1640</ele>
        <time>2022-08-28T01:59:08Z</time>
      </trkpt>
      <trkpt lat="46.05608" lon="6.9949">
        <ele>1640</ele>
        <time>2022-08-28T01:59:25Z</time>
      </trkpt>
      <trkpt lat="46.05608" lon="6.9949">
        <ele>1640</ele>
        <time>2022-08-28T01:59:42Z</time>
      </trkpt>
      <trkpt lat="46.05608" lon="6.9949">
        <ele>1640</ele>
        <time>2022-08-28T01:59:59Z</time>
      </trkpt>
      <trkpt lat="46.05608" lon="6.9949">
        <ele>1640</ele>
        <time>2022-08-28T02:00:17Z</time>
      </trkpt>
      <trkpt lat="46.05608" lon="6.9949">
        <ele>1640</ele>
        <time>2022-08-28T02:00:34Z</time>
      </trkpt>
      <trkpt lat="46.05608" lon="6.9949">
        <ele>1640</ele>
        <time>2022-08-28T02:00:53Z</time>
      </trkpt>
      <trkpt lat="46.05608" lon="6.9949">
        <ele>1640</ele>
        <time>2022-08-28T02:01:11Z</time>
      </trkpt>
      <trkpt lat="46.05608" lon="6.9949">
        <ele>1640</ele>
        <time>2022-08-28T02:01:30Z</time>
      </trkpt>
      <trkpt lat="46.05608" lon="6.9949">
        <ele>1640</ele>
        <time>2022-08-28T02:01:51Z</time>
      </trkpt>
      <trkpt lat="46.05608" lon="6.9949">
        <ele>1640</ele>
        <time>2022-08-28T02:02:11Z</time>
      </trkpt>
      <trkpt lat="46.05608" lon="6.9949">
        <ele>1640</ele>
        <time>2022-08-28T02:02:31Z</time>
      </trkpt>
      <trkpt lat="46.05608" lon="6.9949">
        <ele>1640</ele>
        <time>2022-08-28T02:02:52Z</time>
      </trkpt>
      <trkpt lat="46.05608" lon="6.99489">
        <ele>1640</ele>
        <time>2022-08-28T02:02:55Z</time>
      </trkpt>
      <trkpt lat="46.05607" lon="6.99489">
        <ele>1640</ele>
        <time>2022-08-28T02:02:56Z</time>
      </trkpt>
      <trkpt lat="46.05607" lon="6.99489">
        <ele>1640</ele>
        <time>2022-08-28T02:02:57Z</time>
      </trkpt>
      <trkpt lat="46.05607" lon="6.99489">
        <ele>1640</ele>
        <time>2022-08-28T02:02:58Z</time>
      </trkpt>
      <trkpt lat="46.05607" lon="6.99489">
        <ele>1640</ele>
        <time>2022-08-28T02:03:00Z</time>
      </trkpt>
      <trkpt lat="46.05607" lon="6.99488">
        <ele>1640</ele>
        <time>2022-08-28T02:03:02Z</time>
      </trkpt>
      <trkpt lat="46.05607" lon="6.99488">
        <ele>1640</ele>
        <time>2022-08-28T02:03:03Z</time>
      </trkpt>
      <trkpt lat="46.05606" lon="6.99488">
        <ele>1640</ele>
        <time>2022-08-28T02:03:04Z</time>
      </trkpt>
      <trkpt lat="46.05606" lon="6.99488">
        <ele>1640</ele>
        <time>2022-08-28T02:03:05Z</time>
      </trkpt>
      <trkpt lat="46.05606" lon="6.99487">
        <ele>1640</ele>
        <time>2022-08-28T02:03:07Z</time>
      </trkpt>
      <trkpt lat="46.05606" lon="6.99487">
        <ele>1640</ele>
        <time>2022-08-28T02:03:08Z</time>
      </trkpt>
      <trkpt lat="46.05606" lon="6.99487">
        <ele>1640</ele>
        <time>2022-08-28T02:03:09Z</time>
      </trkpt>
      <trkpt lat="46.05606" lon="6.99487">
        <ele>1640</ele>
        <time>2022-08-28T02:03:10Z</time>
      </trkpt>
      <trkpt lat="46.05605" lon="6.99486">
        <ele>1640</ele>
        <time>2022-08-28T02:03:11Z</time>
      </trkpt>
      <trkpt lat="46.05605" lon="6.99486">
        <ele>1640</ele>
        <time>2022-08-28T02:03:12Z</time>
      </trkpt>
      <trkpt lat="46.05605" lon="6.99486">
        <ele>1640</ele>
        <time>2022-08-28T02:03:13Z</time>
      </trkpt>
      <trkpt lat="46.05605" lon="6.99486">
        <ele>1640</ele>
        <time>2022-08-28T02:03:14Z</time>
      </trkpt>
      <trkpt lat="46.05605" lon="6.99485">
        <ele>1640</ele>
        <time>2022-08-28T02:03:15Z</time>
      </trkpt>
      <trkpt lat="46.05605" lon="6.99485">
        <ele>1640</ele>
        <time>2022-08-28T02:03:17Z</time>
      </trkpt>
      <trkpt lat="46.05604" lon="6.99485">
        <ele>1640</ele>
        <time>2022-08-28T02:03:19Z</time>
      </trkpt>
      <trkpt lat="46.05604" lon="6.99485">
        <ele>1640</ele>
        <time>2022-08-28T02:03:20Z</time>
      </trkpt>
      <trkpt lat="46.05604" lon="6.99484">
        <ele>1640</ele>
        <time>2022-08-28T02:03:21Z</time>
      </trkpt>
      <trkpt lat="46.05604" lon="6.99484">
        <ele>1640</ele>
        <time>2022-08-28T02:03:22Z</time>
      </trkpt>
      <trkpt lat="46.05604" lon="6.99484">
        <ele>1640</ele>
        <time>2022-08-28T02:03:24Z</time>
      </trkpt>
      <trkpt lat="46.05604" lon="6.99484">
        <ele>1640</ele>
        <time>2022-08-28T02:03:25Z</time>
      </trkpt>
      <trkpt lat="46.05603" lon="6.99483">
        <ele>1640</ele>
        <time>2022-08-28T02:03:26Z</time>
      </trkpt>
      <trkpt lat="46.05603" lon="6.99483">
        <ele>1640</ele>
        <time>2022-08-28T02:03:27Z</time>
      </trkpt>
      <trkpt lat="46.05603" lon="6.99483">
        <ele>1640</ele>
        <time>2022-08-28T02:03:29Z</time>
      </trkpt>
      <trkpt lat="46.05603" lon="6.99483">
        <ele>1640</ele>
        <time>2022-08-28T02:03:31Z</time>
      </trkpt>
      <trkpt lat="46.05603" lon="6.99482">
        <ele>1640</ele>
        <time>2022-08-28T02:03:32Z</time>
      </trkpt>
      <trkpt lat="46.05603" lon="6.99482">
        <ele>1640</ele>
        <time>2022-08-28T02:03:33Z</time>
      </trkpt>
      <trkpt lat="46.05602" lon="6.99482">
        <ele>1640</ele>
        <time>2022-08-28T02:03:34Z</time>
      </trkpt>
      <trkpt lat="46.05602" lon="6.99482">
        <ele>1640</ele>
        <time>2022-08-28T02:03:36Z</time>
      </trkpt>
      <trkpt lat="46.05602" lon="6.99481">
        <ele>1640</ele>
        <time>2022-08-28T02:03:38Z</time>
      </trkpt>
      <trkpt lat="46.05602" lon="6.99481">
        <ele>1640</ele>
        <time>2022-08-28T02:03:39Z</time>
      </trkpt>
      <trkpt lat="46.05602" lon="6.99481">
        <ele>1640</ele>
        <time>2022-08-28T02:03:40Z</time>
      </trkpt>
      <trkpt lat="46.05602" lon="6.99481">
        <ele>1640</ele>
        <time>2022-08-28T02:03:41Z</time>
      </trkpt>
      <trkpt lat="46.05601" lon="6.9948">
        <ele>1640</ele>
        <time>2022-08-28T02:03:42Z</time>
      </trkpt>
      <trkpt lat="46.05601" lon="6.9948">
        <ele>1640</ele>
        <time>2022-08-28T02:03:43Z</time>
      </trkpt>
      <trkpt lat="46.05601" lon="6.9948">
        <ele>1640</ele>
        <time>2022-08-28T02:03:44Z</time>
      </trkpt>
      <trkpt lat="46.05601" lon="6.9948">
        <ele>1640</ele>
        <time>2022-08-28T02:03:45Z</time>
      </trkpt>
      <trkpt lat="46.05601" lon="6.99479">
        <ele>1640</ele>
        <time>2022-08-28T02:03:46Z</time>
      </trkpt>
      <trkpt lat="46.05601" lon="6.99479">
        <ele>1640</ele>
        <time>2022-08-28T02:03:48Z</time>
      </trkpt>
      <trkpt lat="46.056" lon="6.99479">
        <ele>1640</ele>
        <time>2022-08-28T02:03:49Z</time>
      </trkpt>
      <trkpt lat="46.056" lon="6.99479">
        <ele>1640</ele>
        <time>2022-08-28T02:03:50Z</time>
      </trkpt>
      <trkpt lat="46.056" lon="6.99478">
        <ele>1640</ele>
        <time>2022-08-28T02:03:51Z</time>
      </trkpt>
      <trkpt lat="46.056" lon="6.99478">
        <ele>1640</ele>
        <time>2022-08-28T02:03:52Z</time>
      </trkpt>
      <trkpt lat="46.056" lon="6.99478">
        <ele>1640</ele>
        <time>2022-08-28T02:03:53Z</time>
      </trkpt>
      <trkpt lat="46.056" lon="6.99478">
        <ele>1640</ele>
        <time>2022-08-28T02:03:54Z</time>
      </trkpt>
      <trkpt lat="46.05599" lon="6.99477">
        <ele>1640</ele>
        <time>2022-08-28T02:03:55Z</time>
      </trkpt>
      <trkpt lat="46.05599" lon="6.99477">
        <ele>1640</ele>
        <time>2022-08-28T02:03:57Z</time>
      </trkpt>
      <trkpt lat="46.05599" lon="6.99477">
        <ele>1640</ele>
        <time>2022-08-28T02:03:58Z</time>
      </trkpt>
      <trkpt lat="46.05599" lon="6.99477">
        <ele>1640</ele>
        <time>2022-08-28T02:03:59Z</time>
      </trkpt>
      <trkpt lat="46.05599" lon="6.99476">
        <ele>1640</ele>
        <time>2022-08-28T02:04:01Z</time>
      </trkpt>
      <trkpt lat="46.05599" lon="6.99476">
        <ele>1640</ele>
        <time>2022-08-28T02:04:02Z</time>
      </trkpt>
      <trkpt lat="46.05598" lon="6.99476">
        <ele>1640</ele>
        <time>2022-08-28T02:04:03Z</time>
      </trkpt>
      <trkpt lat="46.05598" lon="6.99476">
        <ele>1640</ele>
        <time>2022-08-28T02:04:04Z</time>
      </trkpt>
      <trkpt lat="46.05598" lon="6.99476">
        <ele>1640</ele>
        <time>2022-08-28T02:04:06Z</time>
      </trkpt>
      <trkpt lat="46.05598" lon="6.99475">
        <ele>1640</ele>
        <time>2022-08-28T02:04:07Z</time>
      </trkpt>
      <trkpt lat="46.05598" lon="6.99475">
        <ele>1640</ele>
        <time>2022-08-28T02:04:08Z</time>
      </trkpt>
      <trkpt lat="46.05598" lon="6.99475">
        <ele>1640</ele>
        <time>2022-08-28T02:04:09Z</time>
      </trkpt>
      <trkpt lat="46.05597" lon="6.99475">
        <ele>1640</ele>
        <time>2022-08-28T02:04:10Z</time>
      </trkpt>
      <trkpt lat="46.05597" lon="6.99474">
        <ele>1640</ele>
        <time>2022-08-28T02:04:11Z</time>
      </trkpt>
      <trkpt lat="46.05597" lon="6.99474">
        <ele>1640</ele>
        <time>2022-08-28T02:04:12Z</time>
      </trkpt>
      <trkpt lat="46.05597" lon="6.99474">
        <ele>1640</ele>
        <time>2022-08-28T02:04:13Z</time>
      </trkpt>
      <trkpt lat="46.05597" lon="6.99474">
        <ele>1640</ele>
        <time>2022-08-28T02:04:14Z</time>
      </trkpt>
      <trkpt lat="46.05597" lon="6.99473">
        <ele>1640</ele>
        <time>2022-08-28T02:04:16Z</time>
      </trkpt>
      <trkpt lat="46.05596" lon="6.99473">
        <ele>1640</ele>
        <time>2022-08-28T02:04:17Z</time>
      </trkpt>
      <trkpt lat="46.05596" lon="6.99473">
        <ele>1640</ele>
        <time>2022-08-28T02:04:18Z</time>
      </trkpt>
      <trkpt lat="46.05596" lon="6.99473">
        <ele>1640</ele>
        <time>2022-08-28T02:04:19Z</time>
      </trkpt>
      <trkpt lat="46.05596" lon="6.99472">
        <ele>1640</ele>
        <time>2022-08-28T02:04:21Z</time>
      </trkpt>
      <trkpt lat="46.05596" lon="6.99472">
        <ele>1640</ele>
        <time>2022-08-28T02:04:22Z</time>
      </trkpt>
      <trkpt lat="46.05596" lon="6.99472">
        <ele>1640</ele>
        <time>2022-08-28T02:04:23Z</time>
      </trkpt>
      <trkpt lat="46.05595" lon="6.99472">
        <ele>1640</ele>
        <time>2022-08-28T02:04:24Z</time>
      </trkpt>
      <trkpt lat="46.05595" lon="6.99471">
        <ele>1640</ele>
        <time>2022-08-28T02:04:26Z</time>
      </trkpt>
      <trkpt lat="46.05595" lon="6.99471">
        <ele>1640</ele>
        <time>2022-08-28T02:04:27Z</time>
      </trkpt>
      <trkpt lat="46.05595" lon="6.99471">
        <ele>1640</ele>
        <time>2022-08-28T02:04:28Z</time>
      </trkpt>
      <trkpt lat="46.05595" lon="6.99471">
        <ele>1640</ele>
        <time>2022-08-28T02:04:29Z</time>
      </trkpt>
      <trkpt lat="46.05595" lon="6.9947">
        <ele>1640</ele>
        <time>2022-08-28T02:04:31Z</time>
      </trkpt>
      <trkpt lat="46.05594" lon="6.9947">
        <ele>1640</ele>
        <time>2022-08-28T02:04:32Z</time>
      </trkpt>
      <trkpt lat="46.05594" lon="6.9947">
        <ele>1640</ele>
        <time>2022-08-28T02:04:33Z</time>
      </trkpt>
      <trkpt lat="46.05594" lon="6.9947">
        <ele>1640</ele>
        <time>2022-08-28T02:04:35Z</time>
      </trkpt>
      <trkpt lat="46.05594" lon="6.99469">
        <ele>1640</ele>
        <time>2022-08-28T02:04:37Z</time>
      </trkpt>
      <trkpt lat="46.05594" lon="6.99469">
        <ele>1640</ele>
        <time>2022-08-28T02:04:38Z</time>
      </trkpt>
      <trkpt lat="46.05594" lon="6.99469">
        <ele>1640</ele>
        <time>2022-08-28T02:04:39Z</time>
      </trkpt>
      <trkpt lat="46.05593" lon="6.99469">
        <ele>1640</ele>
        <time>2022-08-28T02:04:40Z</time>
      </trkpt>
      <trkpt lat="46.05593" lon="6.99468">
        <ele>1640</ele>
        <time>2022-08-28T02:04:41Z</time>
      </trkpt>
      <trkpt lat="46.05593" lon="6.9947">
        <ele>1640</ele>
        <time>2022-08-28T02:04:42Z</time>
      </trkpt>
      <trkpt lat="46.05592" lon="6.99471">
        <ele>1640</ele>
        <time>2022-08-28T02:04:43Z</time>
      </trkpt>
      <trkpt lat="46.05592" lon="6.99472">
        <ele>1640</ele>
        <time>2022-08-28T02:04:44Z</time>
      </trkpt>
      <trkpt lat="46.05592" lon="6.99473">
        <ele>1640</ele>
        <time>2022-08-28T02:04:46Z</time>
      </trkpt>
      <trkpt lat="46.05591" lon="6.99474">
        <ele>1640</ele>
        <time>2022-08-28T02:04:47Z</time>
      </trkpt>
      <trkpt lat="46.05591" lon="6.99475">
        <ele>1640</ele>
        <time>2022-08-28T02:04:48Z</time>
      </trkpt>
      <trkpt lat="46.0559" lon="6.99476">
        <ele>1640</ele>
        <time>2022-08-28T02:04:49Z</time>
      </trkpt>
      <trkpt lat="46.0559" lon="6.99477">
        <ele>1640</ele>
        <time>2022-08-28T02:04:50Z</time>
      </trkpt>
      <trkpt lat="46.0559" lon="6.99478">
        <ele>1640</ele>
        <time>2022-08-28T02:04:51Z</time>
      </trkpt>
      <trkpt lat="46.05589" lon="6.99479">
        <ele>1640</ele>
        <time>2022-08-28T02:04:53Z</time>
      </trkpt>
      <trkpt lat="46.05589" lon="6.9948">
        <ele>1640</ele>
        <time>2022-08-28T02:04:54Z</time>
      </trkpt>
      <trkpt lat="46.05588" lon="6.99481">
        <ele>1640</ele>
        <time>2022-08-28T02:04:56Z</time>
      </trkpt>
      <trkpt lat="46.05588" lon="6.99482">
        <ele>1640</ele>
        <time>2022-08-28T02:04:57Z</time>
      </trkpt>
      <trkpt lat="46.05587" lon="6.99482">
        <ele>1640</ele>
        <time>2022-08-28T02:04:58Z</time>
      </trkpt>
      <trkpt lat="46.05587" lon="6.99483">
        <ele>1640</ele>
        <time>2022-08-28T02:04:59Z</time>
      </trkpt>
      <trkpt lat="46.05587" lon="6.99483">
        <ele>1640</ele>
        <time>2022-08-28T02:05:00Z</time>
      </trkpt>
      <trkpt lat="46.05586" lon="6.99484">
        <ele>1640</ele>
        <time>2022-08-28T02:05:01Z</time>
      </trkpt>
      <trkpt lat="46.05586" lon="6.99485">
        <ele>1640</ele>
        <time>2022-08-28T02:05:03Z</time>
      </trkpt>
      <trkpt lat="46.05585" lon="6.99485">
        <ele>1640</ele>
        <time>2022-08-28T02:05:04Z</time>
      </trkpt>
      <trkpt lat="46.05585" lon="6.99486">
        <ele>1640</ele>
        <time>2022-08-28T02:05:05Z</time>
      </trkpt>
      <trkpt lat="46.05584" lon="6.99486">
        <ele>1640</ele>
        <time>2022-08-28T02:05:06Z</time>
      </trkpt>
      <trkpt lat="46.05584" lon="6.99487">
        <ele>1640</ele>
        <time>2022-08-28T02:05:08Z</time>
      </trkpt>
      <trkpt lat="46.05583" lon="6.99488">
        <ele>1640</ele>
        <time>2022-08-28T02:05:09Z</time>
      </trkpt>
      <trkpt lat="46.05583" lon="6.99488">
        <ele>1640</ele>
        <time>2022-08-28T02:05:10Z</time>
      </trkpt>
      <trkpt lat="46.05583" lon="6.99489">
        <ele>1640</ele>
        <time>2022-08-28T02:05:11Z</time>
      </trkpt>
      <trkpt lat="46.05582" lon="6.99489">
        <ele>1640</ele>
        <time>2022-08-28T02:05:12Z</time>
      </trkpt>
      <trkpt lat="46.05582" lon="6.9949">
        <ele>1640</ele>
        <time>2022-08-28T02:05:13Z</time>
      </trkpt>
      <trkpt lat="46.05581" lon="6.9949">
        <ele>1640</ele>
        <time>2022-08-28T02:05:15Z</time>
      </trkpt>
      <trkpt lat="46.05581" lon="6.9949">
        <ele>1640</ele>
        <time>2022-08-28T02:05:16Z</time>
      </trkpt>
      <trkpt lat="46.0558" lon="6.9949">
        <ele>1640</ele>
        <time>2022-08-28T02:05:17Z</time>
      </trkpt>
      <trkpt lat="46.0558" lon="6.9949">
        <ele>1640</ele>
        <time>2022-08-28T02:05:18Z</time>
      </trkpt>
      <trkpt lat="46.05579" lon="6.9949">
        <ele>1640</ele>
        <time>2022-08-28T02:05:20Z</time>
      </trkpt>
      <trkpt lat="46.05578" lon="6.9949">
        <ele>1640</ele>
        <time>2022-08-28T02:05:21Z</time>
      </trkpt>
      <trkpt lat="46.05578" lon="6.9949">
        <ele>1640</ele>
        <time>2022-08-28T02:05:22Z</time>
      </trkpt>
      <trkpt lat="46.05577" lon="6.9949">
        <ele>1640</ele>
        <time>2022-08-28T02:05:24Z</time>
      </trkpt>
      <trkpt lat="46.05577" lon="6.9949">
        <ele>1640</ele>
        <time>2022-08-28T02:05:26Z</time>
      </trkpt>
      <trkpt lat="46.05576" lon="6.9949">
        <ele>1640</ele>
        <time>2022-08-28T02:05:27Z</time>
      </trkpt>
      <trkpt lat="46.05576" lon="6.99491">
        <ele>1640</ele>
        <time>2022-08-28T02:05:28Z</time>
      </trkpt>
      <trkpt lat="46.05575" lon="6.99491">
        <ele>1640</ele>
        <time>2022-08-28T02:05:29Z</time>
      </trkpt>
      <trkpt lat="46.05575" lon="6.99491">
        <ele>1640</ele>
        <time>2022-08-28T02:05:31Z</time>
      </trkpt>
      <trkpt lat="46.05574" lon="6.99491">
        <ele>1640</ele>
        <time>2022-08-28T02:05:32Z</time>
      </trkpt>
      <trkpt lat="46.05574" lon="6.99491">
        <ele>1640</ele>
        <time>2022-08-28T02:05:34Z</time>
      </trkpt>
      <trkpt lat="46.05573" lon="6.99491">
        <ele>1640</ele>
        <time>2022-08-28T02:05:36Z</time>
      </trkpt>
      <trkpt lat="46.05573" lon="6.99491">
        <ele>1640</ele>
        <time>2022-08-28T02:05:37Z</time>
      </trkpt>
      <trkpt lat="46.05571" lon="6.99491">
        <ele>1640</ele>
        <time>2022-08-28T02:05:38Z</time>
      </trkpt>
      <trkpt lat="46.0557" lon="6.99492">
        <ele>1640</ele>
        <time>2022-08-28T02:05:39Z</time>
      </trkpt>
      <trkpt lat="46.05569" lon="6.99492">
        <ele>1640</ele>
        <time>2022-08-28T02:05:41Z</time>
      </trkpt>
      <trkpt lat="46.05568" lon="6.99493">
        <ele>1640</ele>
        <time>2022-08-28T02:05:42Z</time>
      </trkpt>
      <trkpt lat="46.05567" lon="6.99493">
        <ele>1640</ele>
        <time>2022-08-28T02:05:43Z</time>
      </trkpt>
      <trkpt lat="46.05565" lon="6.99493">
        <ele>1640</ele>
        <time>2022-08-28T02:05:44Z</time>
      </trkpt>
      <trkpt lat="46.05564" lon="6.99494">
        <ele>1640</ele>
        <time>2022-08-28T02:05:45Z</time>
      </trkpt>
      <trkpt lat="46.05563" lon="6.99494">
        <ele>1640</ele>
        <time>2022-08-28T02:05:46Z</time>
      </trkpt>
      <trkpt lat="46.05562" lon="6.99494">
        <ele>1640</ele>
        <time>2022-08-28T02:05:47Z</time>
      </trkpt>
      <trkpt lat="46.05561" lon="6.99494">
        <ele>1640</ele>
        <time>2022-08-28T02:05:48Z</time>
      </trkpt>
      <trkpt lat="46.05559" lon="6.99494">
        <ele>1640</ele>
        <time>2022-08-28T02:05:49Z</time>
      </trkpt>
      <trkpt lat="46.05558" lon="6.99494">
        <ele>1640</ele>
        <time>2022-08-28T02:05:51Z</time>
      </trkpt>
      <trkpt lat="46.05557" lon="6.99494">
        <ele>1640</ele>
        <time>2022-08-28T02:05:53Z</time>
      </trkpt>
      <trkpt lat="46.05556" lon="6.99494">
        <ele>1640</ele>
        <time>2022-08-28T02:05:54Z</time>
      </trkpt>
      <trkpt lat="46.05555" lon="6.99494">
        <ele>1640</ele>
        <time>2022-08-28T02:05:55Z</time>
      </trkpt>
      <trkpt lat="46.05553" lon="6.99493">
        <ele>1640</ele>
        <time>2022-08-28T02:05:56Z</time>
      </trkpt>
      <trkpt lat="46.05552" lon="6.99494">
        <ele>1640</ele>
        <time>2022-08-28T02:05:57Z</time>
      </trkpt>
      <trkpt lat="46.0555" lon="6.99495">
        <ele>1640</ele>
        <time>2022-08-28T02:05:58Z</time>
      </trkpt>
      <trkpt lat="46.05548" lon="6.99496">
        <ele>1640</ele>
        <time>2022-08-28T02:05:59Z</time>
      </trkpt>
      <trkpt lat="46.05547" lon="6.99497">
        <ele>1640</ele>
        <time>2022-08-28T02:06:01Z</time>
      </trkpt>
      <trkpt lat="46.05545" lon="6.99498">
        <ele>1640</ele>
        <time>2022-08-28T02:06:02Z</time>
      </trkpt>
      <trkpt lat="46.05544" lon="6.99498">
        <ele>1640</ele>
        <time>2022-08-28T02:06:03Z</time>
      </trkpt>
      <trkpt lat="46.05542" lon="6.99499">
        <ele>1640</ele>
        <time>2022-08-28T02:06:04Z</time>
      </trkpt>
      <trkpt lat="46.05541" lon="6.99499">
        <ele>1640</ele>
        <time>2022-08-28T02:06:06Z</time>
      </trkpt>
      <trkpt lat="46.0554" lon="6.99499">
        <ele>1640</ele>
        <time>2022-08-28T02:06:07Z</time>
      </trkpt>
      <trkpt lat="46.05538" lon="6.99499">
        <ele>1640</ele>
        <time>2022-08-28T02:06:08Z</time>
      </trkpt>
      <trkpt lat="46.05537" lon="6.99499">
        <ele>1640</ele>
        <time>2022-08-28T02:06:10Z</time>
      </trkpt>
      <trkpt lat="46.05536" lon="6.99499">
        <ele>1640</ele>
        <time>2022-08-28T02:06:11Z</time>
      </trkpt>
      <trkpt lat="46.05535" lon="6.99499">
        <ele>1640</ele>
        <time>2022-08-28T02:06:12Z</time>
      </trkpt>
      <trkpt lat="46.05533" lon="6.99499">
        <ele>1640</ele>
        <time>2022-08-28T02:06:14Z</time>
      </trkpt>
      <trkpt lat="46.05532" lon="6.99499">
        <ele>1640</ele>
        <time>2022-08-28T02:06:15Z</time>
      </trkpt>
      <trkpt lat="46.05531" lon="6.99498">
        <ele>1640</ele>
        <time>2022-08-28T02:06:16Z</time>
      </trkpt>
      <trkpt lat="46.0553" lon="6.99498">
        <ele>1640</ele>
        <time>2022-08-28T02:06:17Z</time>
      </trkpt>
      <trkpt lat="46.05529" lon="6.99498">
        <ele>1640</ele>
        <time>2022-08-28T02:06:19Z</time>
      </trkpt>
      <trkpt lat="46.05528" lon="6.99498">
        <ele>1640</ele>
        <time>2022-08-28T02:06:20Z</time>
      </trkpt>
      <trkpt lat="46.05526" lon="6.99498">
        <ele>1640</ele>
        <time>2022-08-28T02:06:21Z</time>
      </trkpt>
      <trkpt lat="46.05517" lon="6.99496">
        <ele>1640</ele>
        <time>2022-08-28T02:06:31Z</time>
      </trkpt>
      <trkpt lat="46.05507" lon="6.99494">
        <ele>1640</ele>
        <time>2022-08-28T02:06:43Z</time>
      </trkpt>
      <trkpt lat="46.05506" lon="6.99495">
        <ele>1640</ele>
        <time>2022-08-28T02:06:44Z</time>
      </trkpt>
      <trkpt lat="46.05506" lon="6.99495">
        <ele>1640</ele>
        <time>2022-08-28T02:06:46Z</time>
      </trkpt>
      <trkpt lat="46.05505" lon="6.99496">
        <ele>1640</ele>
        <time>2022-08-28T02:06:48Z</time>
      </trkpt>
      <trkpt lat="46.05504" lon="6.99496">
        <ele>1640</ele>
        <time>2022-08-28T02:06:50Z</time>
      </trkpt>
      <trkpt lat="46.05503" lon="6.99496">
        <ele>1640</ele>
        <time>2022-08-28T02:06:52Z</time>
      </trkpt>
      <trkpt lat="46.05502" lon="6.99497">
        <ele>1640</ele>
        <time>2022-08-28T02:06:53Z</time>
      </trkpt>
      <trkpt lat="46.05501" lon="6.99497">
        <ele>1640</ele>
        <time>2022-08-28T02:06:54Z</time>
      </trkpt>
      <trkpt lat="46.05501" lon="6.99497">
        <ele>1640</ele>
        <time>2022-08-28T02:06:55Z</time>
      </trkpt>
      <trkpt lat="46.055" lon="6.99498">
        <ele>1640</ele>
        <time>2022-08-28T02:06:57Z</time>
      </trkpt>
      <trkpt lat="46.05499" lon="6.99498">
        <ele>1640</ele>
        <time>2022-08-28T02:06:59Z</time>
      </trkpt>
      <trkpt lat="46.05498" lon="6.99499">
        <ele>1640</ele>
        <time>2022-08-28T02:07:00Z</time>
      </trkpt>
      <trkpt lat="46.05498" lon="6.99498">
        <ele>1640</ele>
        <time>2022-08-28T02:07:01Z</time>
      </trkpt>
      <trkpt lat="46.05497" lon="6.99498">
        <ele>1640</ele>
        <time>2022-08-28T02:07:02Z</time>
      </trkpt>
      <trkpt lat="46.05497" lon="6.99498">
        <ele>1640</ele>
        <time>2022-08-28T02:07:03Z</time>
      </trkpt>
      <trkpt lat="46.05496" lon="6.99498">
        <ele>1640</ele>
        <time>2022-08-28T02:07:05Z</time>
      </trkpt>
      <trkpt lat="46.05495" lon="6.99498">
        <ele>1640</ele>
        <time>2022-08-28T02:07:07Z</time>
      </trkpt>
      <trkpt lat="46.05495" lon="6.99498">
        <ele>1640</ele>
        <time>2022-08-28T02:07:08Z</time>
      </trkpt>
      <trkpt lat="46.05494" lon="6.99498">
        <ele>1640</ele>
        <time>2022-08-28T02:07:09Z</time>
      </trkpt>
      <trkpt lat="46.05494" lon="6.99498">
        <ele>1640</ele>
        <time>2022-08-28T02:07:10Z</time>
      </trkpt>
      <trkpt lat="46.05493" lon="6.99497">
        <ele>1640</ele>
        <time>2022-08-28T02:07:11Z</time>
      </trkpt>
      <trkpt lat="46.05492" lon="6.99497">
        <ele>1640</ele>
        <time>2022-08-28T02:07:12Z</time>
      </trkpt>
      <trkpt lat="46.05492" lon="6.99497">
        <ele>1640</ele>
        <time>2022-08-28T02:07:13Z</time>
      </trkpt>
      <trkpt lat="46.05491" lon="6.99497">
        <ele>1640</ele>
        <time>2022-08-28T02:07:15Z</time>
      </trkpt>
      <trkpt lat="46.05491" lon="6.99497">
        <ele>1640</ele>
        <time>2022-08-28T02:07:16Z</time>
      </trkpt>
      <trkpt lat="46.0549" lon="6.99497">
        <ele>1640</ele>
        <time>2022-08-28T02:07:17Z</time>
      </trkpt>
      <trkpt lat="46.0549" lon="6.99497">
        <ele>1640</ele>
        <time>2022-08-28T02:07:19Z</time>
      </trkpt>
      <trkpt lat="46.05489" lon="6.99497">
        <ele>1640</ele>
        <time>2022-08-28T02:07:20Z</time>
      </trkpt>
      <trkpt lat="46.05488" lon="6.99497">
        <ele>1640</ele>
        <time>2022-08-28T02:07:21Z</time>
      </trkpt>
      <trkpt lat="46.05488" lon="6.99496">
        <ele>1640</ele>
        <time>2022-08-28T02:07:22Z</time>
      </trkpt>
      <trkpt lat="46.05488" lon="6.99496">
        <ele>1640</ele>
        <time>2022-08-28T02:07:26Z</time>
      </trkpt>
      <trkpt lat="46.05488" lon="6.99496">
        <ele>1640</ele>
        <time>2022-08-28T02:07:27Z</time>
      </trkpt>
      <trkpt lat="46.05488" lon="6.99496">
        <ele>1640</ele>
        <time>2022-08-28T02:07:29Z</time>
      </trkpt>
      <trkpt lat="46.05488" lon="6.99496">
        <ele>1640</ele>
        <time>2022-08-28T02:07:32Z</time>
      </trkpt>
      <trkpt lat="46.05488" lon="6.99496">
        <ele>1640</ele>
        <time>2022-08-28T02:07:33Z</time>
      </trkpt>
      <trkpt lat="46.05488" lon="6.99496">
        <ele>1640</ele>
        <time>2022-08-28T02:07:34Z</time>
      </trkpt>
      <trkpt lat="46.05488" lon="6.99496">
        <ele>1640</ele>
        <time>2022-08-28T02:07:36Z</time>
      </trkpt>
      <trkpt lat="46.05488" lon="6.99496">
        <ele>1640</ele>
        <time>2022-08-28T02:07:37Z</time>
      </trkpt>
      <trkpt lat="46.05487" lon="6.99496">
        <ele>1640</ele>
        <time>2022-08-28T02:07:38Z</time>
      </trkpt>
      <trkpt lat="46.05487" lon="6.99496">
        <ele>1640</ele>
        <time>2022-08-28T02:07:40Z</time>
      </trkpt>
      <trkpt lat="46.05487" lon="6.99496">
        <ele>1640</ele>
        <time>2022-08-28T02:07:41Z</time>
      </trkpt>
      <trkpt lat="46.05487" lon="6.99496">
        <ele>1640</ele>
        <time>2022-08-28T02:07:42Z</time>
      </trkpt>
      <trkpt lat="46.05487" lon="6.99496">
        <ele>1640</ele>
        <time>2022-08-28T02:07:43Z</time>
      </trkpt>
      <trkpt lat="46.05487" lon="6.99496">
        <ele>1640</ele>
        <time>2022-08-28T02:07:46Z</time>
      </trkpt>
      <trkpt lat="46.05487" lon="6.99496">
        <ele>1640</ele>
        <time>2022-08-28T02:07:47Z</time>
      </trkpt>
      <trkpt lat="46.05487" lon="6.99496">
        <ele>1640</ele>
        <time>2022-08-28T02:07:49Z</time>
      </trkpt>
      <trkpt lat="46.05487" lon="6.99496">
        <ele>1640</ele>
        <time>2022-08-28T02:07:51Z</time>
      </trkpt>
      <trkpt lat="46.05487" lon="6.99496">
        <ele>1640</ele>
        <time>2022-08-28T02:07:52Z</time>
      </trkpt>
      <trkpt lat="46.05486" lon="6.99496">
        <ele>1640</ele>
        <time>2022-08-28T02:07:54Z</time>
      </trkpt>
      <trkpt lat="46.05486" lon="6.99496">
        <ele>1640</ele>
        <time>2022-08-28T02:07:56Z</time>
      </trkpt>
      <trkpt lat="46.05486" lon="6.99496">
        <ele>1640</ele>
        <time>2022-08-28T02:07:57Z</time>
      </trkpt>
      <trkpt lat="46.05486" lon="6.99496">
        <ele>1640</ele>
        <time>2022-08-28T02:07:59Z</time>
      </trkpt>
      <trkpt lat="46.05486" lon="6.99496">
        <ele>1640</ele>
        <time>2022-08-28T02:08:00Z</time>
      </trkpt>
      <trkpt lat="46.05486" lon="6.99496">
        <ele>1640</ele>
        <time>2022-08-28T02:08:02Z</time>
      </trkpt>
      <trkpt lat="46.05486" lon="6.99496">
        <ele>1640</ele>
        <time>2022-08-28T02:08:04Z</time>
      </trkpt>
      <trkpt lat="46.05486" lon="6.99496">
        <ele>1640</ele>
        <time>2022-08-28T02:08:05Z</time>
      </trkpt>
      <trkpt lat="46.05486" lon="6.99496">
        <ele>1640</ele>
        <time>2022-08-28T02:08:07Z</time>
      </trkpt>
      <trkpt lat="46.05486" lon="6.99496">
        <ele>1640</ele>
        <time>2022-08-28T02:08:08Z</time>
      </trkpt>
      <trkpt lat="46.05485" lon="6.99496">
        <ele>1640</ele>
        <time>2022-08-28T02:08:09Z</time>
      </trkpt>
      <trkpt lat="46.05485" lon="6.99496">
        <ele>1640</ele>
        <time>2022-08-28T02:08:11Z</time>
      </trkpt>
      <trkpt lat="46.05485" lon="6.99496">
        <ele>1640</ele>
        <time>2022-08-28T02:08:12Z</time>
      </trkpt>
      <trkpt lat="46.05485" lon="6.99496">
        <ele>1640</ele>
        <time>2022-08-28T02:08:13Z</time>
      </trkpt>
      <trkpt lat="46.05485" lon="6.99496">
        <ele>1640</ele>
        <time>2022-08-28T02:08:14Z</time>
      </trkpt>
      <trkpt lat="46.05485" lon="6.99496">
        <ele>1640</ele>
        <time>2022-08-28T02:08:15Z</time>
      </trkpt>
      <trkpt lat="46.05485" lon="6.99496">
        <ele>1640</ele>
        <time>2022-08-28T02:08:16Z</time>
      </trkpt>
      <trkpt lat="46.05485" lon="6.99496">
        <ele>1640</ele>
        <time>2022-08-28T02:08:17Z</time>
      </trkpt>
      <trkpt lat="46.05485" lon="6.99496">
        <ele>1640</ele>
        <time>2022-08-28T02:08:18Z</time>
      </trkpt>
      <trkpt lat="46.05485" lon="6.99496">
        <ele>1640</ele>
        <time>2022-08-28T02:08:20Z</time>
      </trkpt>
      <trkpt lat="46.05485" lon="6.99496">
        <ele>1640</ele>
        <time>2022-08-28T02:08:21Z</time>
      </trkpt>
      <trkpt lat="46.05484" lon="6.99496">
        <ele>1640</ele>
        <time>2022-08-28T02:08:23Z</time>
      </trkpt>
      <trkpt lat="46.05484" lon="6.99496">
        <ele>1640</ele>
        <time>2022-08-28T02:08:25Z</time>
      </trkpt>
      <trkpt lat="46.05484" lon="6.99496">
        <ele>1640</ele>
        <time>2022-08-28T02:08:26Z</time>
      </trkpt>
      <trkpt lat="46.05484" lon="6.99496">
        <ele>1640</ele>
        <time>2022-08-28T02:08:27Z</time>
      </trkpt>
      <trkpt lat="46.05484" lon="6.99496">
        <ele>1640</ele>
        <time>2022-08-28T02:08:29Z</time>
      </trkpt>
      <trkpt lat="46.05484" lon="6.99496">
        <ele>1640</ele>
        <time>2022-08-28T02:08:30Z</time>
      </trkpt>
      <trkpt lat="46.05484" lon="6.99496">
        <ele>1640</ele>
        <time>2022-08-28T02:08:31Z</time>
      </trkpt>
      <trkpt lat="46.05484" lon="6.99496">
        <ele>1640</ele>
        <time>2022-08-28T02:08:34Z</time>
      </trkpt>
      <trkpt lat="46.05484" lon="6.99496">
        <ele>1640</ele>
        <time>2022-08-28T02:08:35Z</time>
      </trkpt>
      <trkpt lat="46.05484" lon="6.99496">
        <ele>1640</ele>
        <time>2022-08-28T02:08:36Z</time>
      </trkpt>
      <trkpt lat="46.05483" lon="6.99496">
        <ele>1640</ele>
        <time>2022-08-28T02:08:37Z</time>
      </trkpt>
      <trkpt lat="46.05483" lon="6.99496">
        <ele>1640</ele>
        <time>2022-08-28T02:08:39Z</time>
      </trkpt>
      <trkpt lat="46.05483" lon="6.99496">
        <ele>1640</ele>
        <time>2022-08-28T02:08:40Z</time>
      </trkpt>
      <trkpt lat="46.05483" lon="6.99496">
        <ele>1640</ele>
        <time>2022-08-28T02:08:42Z</time>
      </trkpt>
      <trkpt lat="46.05483" lon="6.99496">
        <ele>1640</ele>
        <time>2022-08-28T02:08:45Z</time>
      </trkpt>
      <trkpt lat="46.05483" lon="6.99495">
        <ele>1640</ele>
        <time>2022-08-28T02:08:46Z</time>
      </trkpt>
      <trkpt lat="46.05483" lon="6.99495">
        <ele>1640</ele>
        <time>2022-08-28T02:08:47Z</time>
      </trkpt>
      <trkpt lat="46.05483" lon="6.99495">
        <ele>1640</ele>
        <time>2022-08-28T02:08:49Z</time>
      </trkpt>
      <trkpt lat="46.05483" lon="6.99495">
        <ele>1640</ele>
        <time>2022-08-28T02:08:51Z</time>
      </trkpt>
      <trkpt lat="46.05483" lon="6.99495">
        <ele>1640</ele>
        <time>2022-08-28T02:08:52Z</time>
      </trkpt>
      <trkpt lat="46.05482" lon="6.99495">
        <ele>1640</ele>
        <time>2022-08-28T02:08:54Z</time>
      </trkpt>
      <trkpt lat="46.05482" lon="6.99495">
        <ele>1640</ele>
        <time>2022-08-28T02:08:56Z</time>
      </trkpt>
      <trkpt lat="46.05482" lon="6.99495">
        <ele>1640</ele>
        <time>2022-08-28T02:08:57Z</time>
      </trkpt>
      <trkpt lat="46.05482" lon="6.99495">
        <ele>1640</ele>
        <time>2022-08-28T02:08:58Z</time>
      </trkpt>
      <trkpt lat="46.05482" lon="6.99495">
        <ele>1640</ele>
        <time>2022-08-28T02:09:01Z</time>
      </trkpt>
      <trkpt lat="46.05482" lon="6.99495">
        <ele>1640</ele>
        <time>2022-08-28T02:09:02Z</time>
      </trkpt>
      <trkpt lat="46.05482" lon="6.99495">
        <ele>1640</ele>
        <time>2022-08-28T02:09:03Z</time>
      </trkpt>
      <trkpt lat="46.05482" lon="6.99495">
        <ele>1640</ele>
        <time>2022-08-28T02:09:04Z</time>
      </trkpt>
      <trkpt lat="46.05482" lon="6.99495">
        <ele>1640</ele>
        <time>2022-08-28T02:09:05Z</time>
      </trkpt>
      <trkpt lat="46.05482" lon="6.99495">
        <ele>1640</ele>
        <time>2022-08-28T02:09:06Z</time>
      </trkpt>
      <trkpt lat="46.05482" lon="6.99495">
        <ele>1640</ele>
        <time>2022-08-28T02:09:08Z</time>
      </trkpt>
      <trkpt lat="46.05481" lon="6.99495">
        <ele>1640</ele>
        <time>2022-08-28T02:09:10Z</time>
      </trkpt>
      <trkpt lat="46.05481" lon="6.99495">
        <ele>1640</ele>
        <time>2022-08-28T02:09:12Z</time>
      </trkpt>
      <trkpt lat="46.05481" lon="6.99495">
        <ele>1640</ele>
        <time>2022-08-28T02:09:13Z</time>
      </trkpt>
      <trkpt lat="46.05481" lon="6.99495">
        <ele>1640</ele>
        <time>2022-08-28T02:09:15Z</time>
      </trkpt>
      <trkpt lat="46.05481" lon="6.99495">
        <ele>1640</ele>
        <time>2022-08-28T02:09:16Z</time>
      </trkpt>
      <trkpt lat="46.05481" lon="6.99495">
        <ele>1640</ele>
        <time>2022-08-28T02:09:17Z</time>
      </trkpt>
      <trkpt lat="46.05481" lon="6.99495">
        <ele>1640</ele>
        <time>2022-08-28T02:09:18Z</time>
      </trkpt>
      <trkpt lat="46.05481" lon="6.99495">
        <ele>1640</ele>
        <time>2022-08-28T02:09:21Z</time>
      </trkpt>
      <trkpt lat="46.05481" lon="6.99495">
        <ele>1640</ele>
        <time>2022-08-28T02:09:22Z</time>
      </trkpt>
      <trkpt lat="46.05481" lon="6.99495">
        <ele>1640</ele>
        <time>2022-08-28T02:09:23Z</time>
      </trkpt>
      <trkpt lat="46.0548" lon="6.99495">
        <ele>1640</ele>
        <time>2022-08-28T02:09:25Z</time>
      </trkpt>
      <trkpt lat="46.0548" lon="6.99495">
        <ele>1640</ele>
        <time>2022-08-28T02:09:26Z</time>
      </trkpt>
      <trkpt lat="46.0548" lon="6.99495">
        <ele>1640</ele>
        <time>2022-08-28T02:09:27Z</time>
      </trkpt>
      <trkpt lat="46.0548" lon="6.99495">
        <ele>1640</ele>
        <time>2022-08-28T02:09:29Z</time>
      </trkpt>
      <trkpt lat="46.0548" lon="6.99495">
        <ele>1640</ele>
        <time>2022-08-28T02:09:30Z</time>
      </trkpt>
      <trkpt lat="46.0548" lon="6.99495">
        <ele>1640</ele>
        <time>2022-08-28T02:09:31Z</time>
      </trkpt>
      <trkpt lat="46.0548" lon="6.99495">
        <ele>1640</ele>
        <time>2022-08-28T02:09:32Z</time>
      </trkpt>
      <trkpt lat="46.0548" lon="6.99495">
        <ele>1640</ele>
        <time>2022-08-28T02:09:34Z</time>
      </trkpt>
      <trkpt lat="46.0548" lon="6.99495">
        <ele>1640</ele>
        <time>2022-08-28T02:09:35Z</time>
      </trkpt>
      <trkpt lat="46.0548" lon="6.99495">
        <ele>1640</ele>
        <time>2022-08-28T02:09:36Z</time>
      </trkpt>
      <trkpt lat="46.0548" lon="6.99495">
        <ele>1640</ele>
        <time>2022-08-28T02:09:37Z</time>
      </trkpt>
      <trkpt lat="46.05479" lon="6.99495">
        <ele>1640</ele>
        <time>2022-08-28T02:09:40Z</time>
      </trkpt>
      <trkpt lat="46.05479" lon="6.99495">
        <ele>1640</ele>
        <time>2022-08-28T02:09:41Z</time>
      </trkpt>
      <trkpt lat="46.05479" lon="6.99495">
        <ele>1640</ele>
        <time>2022-08-28T02:09:42Z</time>
      </trkpt>
      <trkpt lat="46.05479" lon="6.99495">
        <ele>1640</ele>
        <time>2022-08-28T02:09:44Z</time>
      </trkpt>
      <trkpt lat="46.05479" lon="6.99495">
        <ele>1640</ele>
        <time>2022-08-28T02:09:45Z</time>
      </trkpt>
      <trkpt lat="46.05479" lon="6.99495">
        <ele>1640</ele>
        <time>2022-08-28T02:09:46Z</time>
      </trkpt>
      <trkpt lat="46.05479" lon="6.99495">
        <ele>1640</ele>
        <time>2022-08-28T02:09:47Z</time>
      </trkpt>
      <trkpt lat="46.0548" lon="6.99495">
        <ele>1640</ele>
        <time>2022-08-28T02:09:48Z</time>
      </trkpt>
      <trkpt lat="46.0548" lon="6.99495">
        <ele>1640</ele>
        <time>2022-08-28T02:09:49Z</time>
      </trkpt>
      <trkpt lat="46.0548" lon="6.99495">
        <ele>1640</ele>
        <time>2022-08-28T02:09:50Z</time>
      </trkpt>
      <trkpt lat="46.0548" lon="6.99495">
        <ele>1640</ele>
        <time>2022-08-28T02:09:51Z</time>
      </trkpt>
      <trkpt lat="46.0548" lon="6.99495">
        <ele>1640</ele>
        <time>2022-08-28T02:09:52Z</time>
      </trkpt>
      <trkpt lat="46.0548" lon="6.99495">
        <ele>1640</ele>
        <time>2022-08-28T02:09:53Z</time>
      </trkpt>
      <trkpt lat="46.05481" lon="6.99495">
        <ele>1640</ele>
        <time>2022-08-28T02:09:54Z</time>
      </trkpt>
      <trkpt lat="46.05481" lon="6.99495">
        <ele>1640</ele>
        <time>2022-08-28T02:09:55Z</time>
      </trkpt>
      <trkpt lat="46.05481" lon="6.99495">
        <ele>1640</ele>
        <time>2022-08-28T02:09:56Z</time>
      </trkpt>
      <trkpt lat="46.05481" lon="6.99495">
        <ele>1640</ele>
        <time>2022-08-28T02:09:58Z</time>
      </trkpt>
      <trkpt lat="46.05481" lon="6.99495">
        <ele>1640</ele>
        <time>2022-08-28T02:09:59Z</time>
      </trkpt>
      <trkpt lat="46.05481" lon="6.99495">
        <ele>1640</ele>
        <time>2022-08-28T02:10:00Z</time>
      </trkpt>
      <trkpt lat="46.05482" lon="6.99495">
        <ele>1640</ele>
        <time>2022-08-28T02:10:01Z</time>
      </trkpt>
      <trkpt lat="46.05482" lon="6.99495">
        <ele>1640</ele>
        <time>2022-08-28T02:10:02Z</time>
      </trkpt>
      <trkpt lat="46.05482" lon="6.99495">
        <ele>1640</ele>
        <time>2022-08-28T02:10:03Z</time>
      </trkpt>
      <trkpt lat="46.05482" lon="6.99495">
        <ele>1640</ele>
        <time>2022-08-28T02:10:04Z</time>
      </trkpt>
      <trkpt lat="46.05482" lon="6.99495">
        <ele>1640</ele>
        <time>2022-08-28T02:10:05Z</time>
      </trkpt>
      <trkpt lat="46.05482" lon="6.99495">
        <ele>1640</ele>
        <time>2022-08-28T02:10:06Z</time>
      </trkpt>
      <trkpt lat="46.05483" lon="6.99495">
        <ele>1640</ele>
        <time>2022-08-28T02:10:07Z</time>
      </trkpt>
      <trkpt lat="46.05483" lon="6.99495">
        <ele>1640</ele>
        <time>2022-08-28T02:10:08Z</time>
      </trkpt>
      <trkpt lat="46.05483" lon="6.99495">
        <ele>1640</ele>
        <time>2022-08-28T02:10:09Z</time>
      </trkpt>
      <trkpt lat="46.05483" lon="6.99495">
        <ele>1640</ele>
        <time>2022-08-28T02:10:10Z</time>
      </trkpt>
      <trkpt lat="46.05483" lon="6.99495">
        <ele>1640</ele>
        <time>2022-08-28T02:10:11Z</time>
      </trkpt>
      <trkpt lat="46.05483" lon="6.99495">
        <ele>1640</ele>
        <time>2022-08-28T02:10:12Z</time>
      </trkpt>
      <trkpt lat="46.05483" lon="6.99496">
        <ele>1640</ele>
        <time>2022-08-28T02:10:13Z</time>
      </trkpt>
      <trkpt lat="46.05484" lon="6.99496">
        <ele>1640</ele>
        <time>2022-08-28T02:10:14Z</time>
      </trkpt>
      <trkpt lat="46.05484" lon="6.99496">
        <ele>1640</ele>
        <time>2022-08-28T02:10:15Z</time>
      </trkpt>
      <trkpt lat="46.05484" lon="6.99496">
        <ele>1640</ele>
        <time>2022-08-28T02:10:17Z</time>
      </trkpt>
      <trkpt lat="46.05484" lon="6.99496">
        <ele>1640</ele>
        <time>2022-08-28T02:10:18Z</time>
      </trkpt>
      <trkpt lat="46.05484" lon="6.99496">
        <ele>1640</ele>
        <time>2022-08-28T02:10:19Z</time>
      </trkpt>
      <trkpt lat="46.05484" lon="6.99496">
        <ele>1640</ele>
        <time>2022-08-28T02:10:20Z</time>
      </trkpt>
      <trkpt lat="46.05485" lon="6.99496">
        <ele>1640</ele>
        <time>2022-08-28T02:10:21Z</time>
      </trkpt>
      <trkpt lat="46.05485" lon="6.99496">
        <ele>1640</ele>
        <time>2022-08-28T02:10:22Z</time>
      </trkpt>
      <trkpt lat="46.05485" lon="6.99496">
        <ele>1640</ele>
        <time>2022-08-28T02:10:23Z</time>
      </trkpt>
      <trkpt lat="46.05485" lon="6.99496">
        <ele>1640</ele>
        <time>2022-08-28T02:10:24Z</time>
      </trkpt>
      <trkpt lat="46.05491" lon="6.99497">
        <ele>1640</ele>
        <time>2022-08-28T02:10:25Z</time>
      </trkpt>
      <trkpt lat="46.05491" lon="6.99497">
        <ele>1640</ele>
        <time>2022-08-28T02:10:26Z</time>
      </trkpt>
      <trkpt lat="46.05491" lon="6.99496">
        <ele>1640</ele>
        <time>2022-08-28T02:10:27Z</time>
      </trkpt>
      <trkpt lat="46.05491" lon="6.99496">
        <ele>1640</ele>
        <time>2022-08-28T02:10:28Z</time>
      </trkpt>
      <trkpt lat="46.05491" lon="6.99496">
        <ele>1640</ele>
        <time>2022-08-28T02:10:29Z</time>
      </trkpt>
      <trkpt lat="46.05491" lon="6.99496">
        <ele>1640</ele>
        <time>2022-08-28T02:10:30Z</time>
      </trkpt>
      <trkpt lat="46.05491" lon="6.99496">
        <ele>1640</ele>
        <time>2022-08-28T02:10:31Z</time>
      </trkpt>
      <trkpt lat="46.05491" lon="6.99496">
        <ele>1640</ele>
        <time>2022-08-28T02:10:32Z</time>
      </trkpt>
      <trkpt lat="46.0549" lon="6.99496">
        <ele>1640</ele>
        <time>2022-08-28T02:10:33Z</time>
      </trkpt>
      <trkpt lat="46.0549" lon="6.99496">
        <ele>1640</ele>
        <time>2022-08-28T02:10:34Z</time>
      </trkpt>
      <trkpt lat="46.0549" lon="6.99496">
        <ele>1640</ele>
        <time>2022-08-28T02:10:36Z</time>
      </trkpt>
      <trkpt lat="46.0549" lon="6.99495">
        <ele>1640</ele>
        <time>2022-08-28T02:10:37Z</time>
      </trkpt>
      <trkpt lat="46.0549" lon="6.99495">
        <ele>1640</ele>
        <time>2022-08-28T02:10:38Z</time>
      </trkpt>
      <trkpt lat="46.0549" lon="6.99495">
        <ele>1640</ele>
        <time>2022-08-28T02:10:39Z</time>
      </trkpt>
      <trkpt lat="46.0549" lon="6.99495">
        <ele>1640</ele>
        <time>2022-08-28T02:10:40Z</time>
      </trkpt>
      <trkpt lat="46.0549" lon="6.99495">
        <ele>1640</ele>
        <time>2022-08-28T02:10:41Z</time>
      </trkpt>
      <trkpt lat="46.0549" lon="6.99495">
        <ele>1640</ele>
        <time>2022-08-28T02:10:42Z</time>
      </trkpt>
      <trkpt lat="46.0549" lon="6.99495">
        <ele>1640</ele>
        <time>2022-08-28T02:10:43Z</time>
      </trkpt>
      <trkpt lat="46.0549" lon="6.99495">
        <ele>1640</ele>
        <time>2022-08-28T02:10:44Z</time>
      </trkpt>
      <trkpt lat="46.05489" lon="6.99495">
        <ele>1640</ele>
        <time>2022-08-28T02:10:45Z</time>
      </trkpt>
      <trkpt lat="46.05489" lon="6.99494">
        <ele>1640</ele>
        <time>2022-08-28T02:10:46Z</time>
      </trkpt>
      <trkpt lat="46.05489" lon="6.99494">
        <ele>1640</ele>
        <time>2022-08-28T02:10:47Z</time>
      </trkpt>
      <trkpt lat="46.05489" lon="6.99494">
        <ele>1640</ele>
        <time>2022-08-28T02:10:48Z</time>
      </trkpt>
      <trkpt lat="46.05489" lon="6.99494">
        <ele>1640</ele>
        <time>2022-08-28T02:10:49Z</time>
      </trkpt>
      <trkpt lat="46.05489" lon="6.99494">
        <ele>1640</ele>
        <time>2022-08-28T02:10:50Z</time>
      </trkpt>
      <trkpt lat="46.05489" lon="6.99494">
        <ele>1640</ele>
        <time>2022-08-28T02:10:51Z</time>
      </trkpt>
      <trkpt lat="46.05489" lon="6.99494">
        <ele>1640</ele>
        <time>2022-08-28T02:10:52Z</time>
      </trkpt>
      <trkpt lat="46.05489" lon="6.99494">
        <ele>1640</ele>
        <time>2022-08-28T02:10:53Z</time>
      </trkpt>
      <trkpt lat="46.05489" lon="6.99494">
        <ele>1640</ele>
        <time>2022-08-28T02:10:55Z</time>
      </trkpt>
      <trkpt lat="46.05489" lon="6.99493">
        <ele>1640</ele>
        <time>2022-08-28T02:10:56Z</time>
      </trkpt>
      <trkpt lat="46.05488" lon="6.99493">
        <ele>1640</ele>
        <time>2022-08-28T02:10:57Z</time>
      </trkpt>
      <trkpt lat="46.05488" lon="6.99493">
        <ele>1640</ele>
        <time>2022-08-28T02:10:58Z</time>
      </trkpt>
      <trkpt lat="46.05488" lon="6.99493">
        <ele>1640</ele>
        <time>2022-08-28T02:10:59Z</time>
      </trkpt>
      <trkpt lat="46.05488" lon="6.99493">
        <ele>1640</ele>
        <time>2022-08-28T02:11:00Z</time>
      </trkpt>
      <trkpt lat="46.05488" lon="6.99493">
        <ele>1640</ele>
        <time>2022-08-28T02:11:01Z</time>
      </trkpt>
      <trkpt lat="46.05488" lon="6.99493">
        <ele>1640</ele>
        <time>2022-08-28T02:11:02Z</time>
      </trkpt>
      <trkpt lat="46.05488" lon="6.99493">
        <ele>1640</ele>
        <time>2022-08-28T02:11:03Z</time>
      </trkpt>
      <trkpt lat="46.05488" lon="6.99493">
        <ele>1640</ele>
        <time>2022-08-28T02:11:04Z</time>
      </trkpt>
      <trkpt lat="46.05488" lon="6.99492">
        <ele>1640</ele>
        <time>2022-08-28T02:11:05Z</time>
      </trkpt>
      <trkpt lat="46.05488" lon="6.99492">
        <ele>1640</ele>
        <time>2022-08-28T02:11:06Z</time>
      </trkpt>
      <trkpt lat="46.05488" lon="6.99492">
        <ele>1640</ele>
        <time>2022-08-28T02:11:07Z</time>
      </trkpt>
      <trkpt lat="46.05487" lon="6.99492">
        <ele>1640</ele>
        <time>2022-08-28T02:11:08Z</time>
      </trkpt>
      <trkpt lat="46.05487" lon="6.99492">
        <ele>1640</ele>
        <time>2022-08-28T02:11:09Z</time>
      </trkpt>
      <trkpt lat="46.05487" lon="6.99492">
        <ele>1640</ele>
        <time>2022-08-28T02:11:10Z</time>
      </trkpt>
      <trkpt lat="46.05487" lon="6.99492">
        <ele>1640</ele>
        <time>2022-08-28T02:11:11Z</time>
      </trkpt>
      <trkpt lat="46.05487" lon="6.99492">
        <ele>1640</ele>
        <time>2022-08-28T02:11:12Z</time>
      </trkpt>
      <trkpt lat="46.05487" lon="6.99492">
        <ele>1640</ele>
        <time>2022-08-28T02:11:14Z</time>
      </trkpt>
      <trkpt lat="46.05487" lon="6.99491">
        <ele>1640</ele>
        <time>2022-08-28T02:11:15Z</time>
      </trkpt>
      <trkpt lat="46.05487" lon="6.99491">
        <ele>1640</ele>
        <time>2022-08-28T02:11:16Z</time>
      </trkpt>
      <trkpt lat="46.05487" lon="6.99491">
        <ele>1640</ele>
        <time>2022-08-28T02:11:17Z</time>
      </trkpt>
      <trkpt lat="46.05487" lon="6.99491">
        <ele>1640</ele>
        <time>2022-08-28T02:11:18Z</time>
      </trkpt>
      <trkpt lat="46.05487" lon="6.99491">
        <ele>1640</ele>
        <time>2022-08-28T02:11:19Z</time>
      </trkpt>
      <trkpt lat="46.05486" lon="6.99491">
        <ele>1640</ele>
        <time>2022-08-28T02:11:20Z</time>
      </trkpt>
      <trkpt lat="46.05486" lon="6.99491">
        <ele>1640</ele>
        <time>2022-08-28T02:11:21Z</time>
      </trkpt>
      <trkpt lat="46.05486" lon="6.99491">
        <ele>1640</ele>
        <time>2022-08-28T02:11:22Z</time>
      </trkpt>
      <trkpt lat="46.05486" lon="6.99491">
        <ele>1640</ele>
        <time>2022-08-28T02:11:23Z</time>
      </trkpt>
      <trkpt lat="46.05486" lon="6.9949">
        <ele>1640</ele>
        <time>2022-08-28T02:11:24Z</time>
      </trkpt>
      <trkpt lat="46.05486" lon="6.9949">
        <ele>1640</ele>
        <time>2022-08-28T02:11:25Z</time>
      </trkpt>
      <trkpt lat="46.05486" lon="6.9949">
        <ele>1640</ele>
        <time>2022-08-28T02:11:26Z</time>
      </trkpt>
      <trkpt lat="46.05486" lon="6.9949">
        <ele>1640</ele>
        <time>2022-08-28T02:11:27Z</time>
      </trkpt>
      <trkpt lat="46.05486" lon="6.9949">
        <ele>1640</ele>
        <time>2022-08-28T02:11:28Z</time>
      </trkpt>
      <trkpt lat="46.05486" lon="6.9949">
        <ele>1640</ele>
        <time>2022-08-28T02:11:30Z</time>
      </trkpt>
      <trkpt lat="46.05486" lon="6.9949">
        <ele>1640</ele>
        <time>2022-08-28T02:11:31Z</time>
      </trkpt>
      <trkpt lat="46.05485" lon="6.9949">
        <ele>1640</ele>
        <time>2022-08-28T02:11:33Z</time>
      </trkpt>
      <trkpt lat="46.05485" lon="6.9949">
        <ele>1640</ele>
        <time>2022-08-28T02:11:34Z</time>
      </trkpt>
      <trkpt lat="46.05485" lon="6.99489">
        <ele>1640</ele>
        <time>2022-08-28T02:11:35Z</time>
      </trkpt>
      <trkpt lat="46.05485" lon="6.99489">
        <ele>1640</ele>
        <time>2022-08-28T02:11:36Z</time>
      </trkpt>
      <trkpt lat="46.05485" lon="6.99489">
        <ele>1640</ele>
        <time>2022-08-28T02:11:37Z</time>
      </trkpt>
      <trkpt lat="46.05485" lon="6.99489">
        <ele>1640</ele>
        <time>2022-08-28T02:11:38Z</time>
      </trkpt>
      <trkpt lat="46.05485" lon="6.99489">
        <ele>1640</ele>
        <time>2022-08-28T02:11:40Z</time>
      </trkpt>
      <trkpt lat="46.05485" lon="6.99489">
        <ele>1640</ele>
        <time>2022-08-28T02:11:42Z</time>
      </trkpt>
      <trkpt lat="46.05485" lon="6.99489">
        <ele>1640</ele>
        <time>2022-08-28T02:11:43Z</time>
      </trkpt>
      <trkpt lat="46.05485" lon="6.99489">
        <ele>1640</ele>
        <time>2022-08-28T02:11:44Z</time>
      </trkpt>
      <trkpt lat="46.05485" lon="6.99489">
        <ele>1640</ele>
        <time>2022-08-28T02:11:45Z</time>
      </trkpt>
      <trkpt lat="46.05484" lon="6.99488">
        <ele>1640</ele>
        <time>2022-08-28T02:11:46Z</time>
      </trkpt>
      <trkpt lat="46.05484" lon="6.99488">
        <ele>1640</ele>
        <time>2022-08-28T02:11:47Z</time>
      </trkpt>
      <trkpt lat="46.05484" lon="6.99488">
        <ele>1640</ele>
        <time>2022-08-28T02:11:48Z</time>
      </trkpt>
      <trkpt lat="46.05484" lon="6.99488">
        <ele>1640</ele>
        <time>2022-08-28T02:11:50Z</time>
      </trkpt>
      <trkpt lat="46.05484" lon="6.99488">
        <ele>1640</ele>
        <time>2022-08-28T02:11:52Z</time>
      </trkpt>
      <trkpt lat="46.05484" lon="6.99488">
        <ele>1640</ele>
        <time>2022-08-28T02:11:54Z</time>
      </trkpt>
      <trkpt lat="46.05485" lon="6.99487">
        <ele>1640</ele>
        <time>2022-08-28T02:11:56Z</time>
      </trkpt>
      <trkpt lat="46.05485" lon="6.99487">
        <ele>1640</ele>
        <time>2022-08-28T02:11:57Z</time>
      </trkpt>
      <trkpt lat="46.05485" lon="6.99487">
        <ele>1640</ele>
        <time>2022-08-28T02:11:58Z</time>
      </trkpt>
      <trkpt lat="46.05485" lon="6.99487">
        <ele>1640</ele>
        <time>2022-08-28T02:11:59Z</time>
      </trkpt>
      <trkpt lat="46.05485" lon="6.99487">
        <ele>1640</ele>
        <time>2022-08-28T02:12:00Z</time>
      </trkpt>
      <trkpt lat="46.05485" lon="6.99487">
        <ele>1640</ele>
        <time>2022-08-28T02:12:01Z</time>
      </trkpt>
      <trkpt lat="46.05485" lon="6.99486">
        <ele>1640</ele>
        <time>2022-08-28T02:12:02Z</time>
      </trkpt>
      <trkpt lat="46.05485" lon="6.99486">
        <ele>1640</ele>
        <time>2022-08-28T02:12:03Z</time>
      </trkpt>
      <trkpt lat="46.05485" lon="6.99486">
        <ele>1640</ele>
        <time>2022-08-28T02:12:04Z</time>
      </trkpt>
      <trkpt lat="46.05485" lon="6.99486">
        <ele>1640</ele>
        <time>2022-08-28T02:12:05Z</time>
      </trkpt>
      <trkpt lat="46.05485" lon="6.99486">
        <ele>1640</ele>
        <time>2022-08-28T02:12:06Z</time>
      </trkpt>
      <trkpt lat="46.05485" lon="6.99486">
        <ele>1640</ele>
        <time>2022-08-28T02:12:07Z</time>
      </trkpt>
      <trkpt lat="46.05485" lon="6.99485">
        <ele>1640</ele>
        <time>2022-08-28T02:12:08Z</time>
      </trkpt>
      <trkpt lat="46.05485" lon="6.99485">
        <ele>1640</ele>
        <time>2022-08-28T02:12:09Z</time>
      </trkpt>
      <trkpt lat="46.05485" lon="6.99485">
        <ele>1640</ele>
        <time>2022-08-28T02:12:11Z</time>
      </trkpt>
      <trkpt lat="46.05485" lon="6.99485">
        <ele>1640</ele>
        <time>2022-08-28T02:12:12Z</time>
      </trkpt>
      <trkpt lat="46.05485" lon="6.99485">
        <ele>1640</ele>
        <time>2022-08-28T02:12:13Z</time>
      </trkpt>
      <trkpt lat="46.05486" lon="6.99485">
        <ele>1640</ele>
        <time>2022-08-28T02:12:14Z</time>
      </trkpt>
      <trkpt lat="46.05486" lon="6.99484">
        <ele>1640</ele>
        <time>2022-08-28T02:12:15Z</time>
      </trkpt>
      <trkpt lat="46.05486" lon="6.99484">
        <ele>1640</ele>
        <time>2022-08-28T02:12:16Z</time>
      </trkpt>
      <trkpt lat="46.05486" lon="6.99484">
        <ele>1640</ele>
        <time>2022-08-28T02:12:17Z</time>
      </trkpt>
      <trkpt lat="46.05486" lon="6.99484">
        <ele>1640</ele>
        <time>2022-08-28T02:12:18Z</time>
      </trkpt>
      <trkpt lat="46.05486" lon="6.99484">
        <ele>1640</ele>
        <time>2022-08-28T02:12:19Z</time>
      </trkpt>
      <trkpt lat="46.05486" lon="6.99484">
        <ele>1640</ele>
        <time>2022-08-28T02:12:20Z</time>
      </trkpt>
      <trkpt lat="46.05486" lon="6.99483">
        <ele>1640</ele>
        <time>2022-08-28T02:12:21Z</time>
      </trkpt>
      <trkpt lat="46.05486" lon="6.99483">
        <ele>1640</ele>
        <time>2022-08-28T02:12:23Z</time>
      </trkpt>
      <trkpt lat="46.05486" lon="6.99483">
        <ele>1640</ele>
        <time>2022-08-28T02:12:24Z</time>
      </trkpt>
      <trkpt lat="46.05486" lon="6.99483">
        <ele>1640</ele>
        <time>2022-08-28T02:12:25Z</time>
      </trkpt>
      <trkpt lat="46.05486" lon="6.99483">
        <ele>1640</ele>
        <time>2022-08-28T02:12:26Z</time>
      </trkpt>
      <trkpt lat="46.05486" lon="6.99482">
        <ele>1640</ele>
        <time>2022-08-28T02:12:27Z</time>
      </trkpt>
      <trkpt lat="46.05486" lon="6.99482">
        <ele>1640</ele>
        <time>2022-08-28T02:12:28Z</time>
      </trkpt>
      <trkpt lat="46.05486" lon="6.99482">
        <ele>1640</ele>
        <time>2022-08-28T02:12:30Z</time>
      </trkpt>
      <trkpt lat="46.05486" lon="6.99482">
        <ele>1640</ele>
        <time>2022-08-28T02:12:32Z</time>
      </trkpt>
      <trkpt lat="46.05486" lon="6.99482">
        <ele>1640</ele>
        <time>2022-08-28T02:12:33Z</time>
      </trkpt>
      <trkpt lat="46.05486" lon="6.99482">
        <ele>1640</ele>
        <time>2022-08-28T02:12:34Z</time>
      </trkpt>
      <trkpt lat="46.05487" lon="6.99481">
        <ele>1640</ele>
        <time>2022-08-28T02:12:35Z</time>
      </trkpt>
      <trkpt lat="46.05487" lon="6.99481">
        <ele>1640</ele>
        <time>2022-08-28T02:12:36Z</time>
      </trkpt>
      <trkpt lat="46.05487" lon="6.99481">
        <ele>1640</ele>
        <time>2022-08-28T02:12:37Z</time>
      </trkpt>
      <trkpt lat="46.05487" lon="6.99481">
        <ele>1640</ele>
        <time>2022-08-28T02:12:38Z</time>
      </trkpt>
      <trkpt lat="46.05487" lon="6.99481">
        <ele>1640</ele>
        <time>2022-08-28T02:12:39Z</time>
      </trkpt>
      <trkpt lat="46.05487" lon="6.99481">
        <ele>1640</ele>
        <time>2022-08-28T02:12:40Z</time>
      </trkpt>
      <trkpt lat="46.05487" lon="6.9948">
        <ele>1640</ele>
        <time>2022-08-28T02:12:41Z</time>
      </trkpt>
      <trkpt lat="46.05487" lon="6.9948">
        <ele>1640</ele>
        <time>2022-08-28T02:12:42Z</time>
      </trkpt>
      <trkpt lat="46.05487" lon="6.9948">
        <ele>1640</ele>
        <time>2022-08-28T02:12:43Z</time>
      </trkpt>
      <trkpt lat="46.05487" lon="6.9948">
        <ele>1640</ele>
        <time>2022-08-28T02:12:44Z</time>
      </trkpt>
      <trkpt lat="46.05487" lon="6.9948">
        <ele>1640</ele>
        <time>2022-08-28T02:12:46Z</time>
      </trkpt>
      <trkpt lat="46.05487" lon="6.9948">
        <ele>1640</ele>
        <time>2022-08-28T02:12:47Z</time>
      </trkpt>
      <trkpt lat="46.05487" lon="6.99479">
        <ele>1640</ele>
        <time>2022-08-28T02:12:49Z</time>
      </trkpt>
      <trkpt lat="46.05487" lon="6.99479">
        <ele>1640</ele>
        <time>2022-08-28T02:12:50Z</time>
      </trkpt>
      <trkpt lat="46.05487" lon="6.99479">
        <ele>1640</ele>
        <time>2022-08-28T02:12:51Z</time>
      </trkpt>
      <trkpt lat="46.05487" lon="6.99479">
        <ele>1640</ele>
        <time>2022-08-28T02:12:52Z</time>
      </trkpt>
      <trkpt lat="46.05487" lon="6.99479">
        <ele>1640</ele>
        <time>2022-08-28T02:12:53Z</time>
      </trkpt>
      <trkpt lat="46.05488" lon="6.99479">
        <ele>1640</ele>
        <time>2022-08-28T02:12:55Z</time>
      </trkpt>
      <trkpt lat="46.05488" lon="6.99478">
        <ele>1640</ele>
        <time>2022-08-28T02:12:56Z</time>
      </trkpt>
      <trkpt lat="46.05488" lon="6.99478">
        <ele>1640</ele>
        <time>2022-08-28T02:12:57Z</time>
      </trkpt>
      <trkpt lat="46.05488" lon="6.99478">
        <ele>1640</ele>
        <time>2022-08-28T02:12:58Z</time>
      </trkpt>
      <trkpt lat="46.05488" lon="6.99478">
        <ele>1640</ele>
        <time>2022-08-28T02:13:00Z</time>
      </trkpt>
      <trkpt lat="46.05488" lon="6.99478">
        <ele>1640</ele>
        <time>2022-08-28T02:13:01Z</time>
      </trkpt>
      <trkpt lat="46.05488" lon="6.99478">
        <ele>1640</ele>
        <time>2022-08-28T02:13:02Z</time>
      </trkpt>
      <trkpt lat="46.05488" lon="6.99477">
        <ele>1640</ele>
        <time>2022-08-28T02:13:03Z</time>
      </trkpt>
      <trkpt lat="46.05488" lon="6.99477">
        <ele>1640</ele>
        <time>2022-08-28T02:13:05Z</time>
      </trkpt>
      <trkpt lat="46.05488" lon="6.99477">
        <ele>1640</ele>
        <time>2022-08-28T02:13:06Z</time>
      </trkpt>
      <trkpt lat="46.05488" lon="6.99477">
        <ele>1640</ele>
        <time>2022-08-28T02:13:08Z</time>
      </trkpt>
      <trkpt lat="46.05488" lon="6.99477">
        <ele>1640</ele>
        <time>2022-08-28T02:13:09Z</time>
      </trkpt>
      <trkpt lat="46.05488" lon="6.99476">
        <ele>1640</ele>
        <time>2022-08-28T02:13:10Z</time>
      </trkpt>
      <trkpt lat="46.05488" lon="6.99476">
        <ele>1640</ele>
        <time>2022-08-28T02:13:11Z</time>
      </trkpt>
      <trkpt lat="46.05488" lon="6.99476">
        <ele>1640</ele>
        <time>2022-08-28T02:13:12Z</time>
      </trkpt>
      <trkpt lat="46.05488" lon="6.99476">
        <ele>1640</ele>
        <time>2022-08-28T02:13:15Z</time>
      </trkpt>
      <trkpt lat="46.05488" lon="6.99476">
        <ele>1640</ele>
        <time>2022-08-28T02:13:19Z</time>
      </trkpt>
      <trkpt lat="46.05488" lon="6.99476">
        <ele>1640</ele>
        <time>2022-08-28T02:13:23Z</time>
      </trkpt>
      <trkpt lat="46.05488" lon="6.99476">
        <ele>1640</ele>
        <time>2022-08-28T02:13:25Z</time>
      </trkpt>
      <trkpt lat="46.05488" lon="6.99477">
        <ele>1640</ele>
        <time>2022-08-28T02:13:30Z</time>
      </trkpt>
      <trkpt lat="46.05488" lon="6.99477">
        <ele>1640</ele>
        <time>2022-08-28T02:13:34Z</time>
      </trkpt>
      <trkpt lat="46.05488" lon="6.99477">
        <ele>1640</ele>
        <time>2022-08-28T02:13:39Z</time>
      </trkpt>
      <trkpt lat="46.05488" lon="6.99477">
        <ele>1640</ele>
        <time>2022-08-28T02:13:44Z</time>
      </trkpt>
      <trkpt lat="46.05488" lon="6.99477">
        <ele>1640</ele>
        <time>2022-08-28T02:13:49Z</time>
      </trkpt>
      <trkpt lat="46.05488" lon="6.99477">
        <ele>1640</ele>
        <time>2022-08-28T02:13:52Z</time>
      </trkpt>
      <trkpt lat="46.05488" lon="6.99477">
        <ele>1640</ele>
        <time>2022-08-28T02:13:55Z</time>
      </trkpt>
      <trkpt lat="46.05488" lon="6.99477">
        <ele>1640</ele>
        <time>2022-08-28T02:13:59Z</time>
      </trkpt>
      <trkpt lat="46.05488" lon="6.99477">
        <ele>1640</ele>
        <time>2022-08-28T02:14:05Z</time>
      </trkpt>
      <trkpt lat="46.05488" lon="6.99477">
        <ele>1640</ele>
        <time>2022-08-28T02:14:10Z</time>
      </trkpt>
      <trkpt lat="46.05488" lon="6.99477">
        <ele>1640</ele>
        <time>2022-08-28T02:14:14Z</time>
      </trkpt>
      <trkpt lat="46.05488" lon="6.99478">
        <ele>1640</ele>
        <time>2022-08-28T02:14:18Z</time>
      </trkpt>
      <trkpt lat="46.05488" lon="6.99478">
        <ele>1640</ele>
        <time>2022-08-28T02:14:22Z</time>
      </trkpt>
      <trkpt lat="46.05488" lon="6.99478">
        <ele>1640</ele>
        <time>2022-08-28T02:14:28Z</time>
      </trkpt>
      <trkpt lat="46.05488" lon="6.99478">
        <ele>1640</ele>
        <time>2022-08-28T02:14:32Z</time>
      </trkpt>
      <trkpt lat="46.05488" lon="6.99478">
        <ele>1640</ele>
        <time>2022-08-28T02:14:36Z</time>
      </trkpt>
      <trkpt lat="46.05488" lon="6.99478">
        <ele>1640</ele>
        <time>2022-08-28T02:14:41Z</time>
      </trkpt>
      <trkpt lat="46.05488" lon="6.99478">
        <ele>1640</ele>
        <time>2022-08-28T02:14:44Z</time>
      </trkpt>
      <trkpt lat="46.05488" lon="6.99478">
        <ele>1640</ele>
        <time>2022-08-28T02:14:47Z</time>
      </trkpt>
      <trkpt lat="46.05488" lon="6.99478">
        <ele>1640</ele>
        <time>2022-08-28T02:14:51Z</time>
      </trkpt>
      <trkpt lat="46.05488" lon="6.99478">
        <ele>1640</ele>
        <time>2022-08-28T02:14:55Z</time>
      </trkpt>
      <trkpt lat="46.05488" lon="6.99478">
        <ele>1640</ele>
        <time>2022-08-28T02:14:59Z</time>
      </trkpt>
      <trkpt lat="46.05488" lon="6.99479">
        <ele>1640</ele>
        <time>2022-08-28T02:15:05Z</time>
      </trkpt>
      <trkpt lat="46.05488" lon="6.99479">
        <ele>1640</ele>
        <time>2022-08-28T02:15:08Z</time>
      </trkpt>
      <trkpt lat="46.05488" lon="6.99479">
        <ele>1640</ele>
        <time>2022-08-28T02:15:09Z</time>
      </trkpt>
      <trkpt lat="46.05488" lon="6.99479">
        <ele>1640</ele>
        <time>2022-08-28T02:15:13Z</time>
      </trkpt>
      <trkpt lat="46.05488" lon="6.99479">
        <ele>1640</ele>
        <time>2022-08-28T02:15:17Z</time>
      </trkpt>
      <trkpt lat="46.05488" lon="6.99479">
        <ele>1640</ele>
        <time>2022-08-28T02:15:24Z</time>
      </trkpt>
      <trkpt lat="46.05488" lon="6.99479">
        <ele>1640</ele>
        <time>2022-08-28T02:15:30Z</time>
      </trkpt>
      <trkpt lat="46.05488" lon="6.99479">
        <ele>1640</ele>
        <time>2022-08-28T02:15:35Z</time>
      </trkpt>
      <trkpt lat="46.05488" lon="6.99479">
        <ele>1640</ele>
        <time>2022-08-28T02:15:36Z</time>
      </trkpt>
      <trkpt lat="46.05488" lon="6.99479">
        <ele>1640</ele>
        <time>2022-08-28T02:15:40Z</time>
      </trkpt>
      <trkpt lat="46.05488" lon="6.99479">
        <ele>1640</ele>
        <time>2022-08-28T02:15:45Z</time>
      </trkpt>
      <trkpt lat="46.05488" lon="6.99479">
        <ele>1640</ele>
        <time>2022-08-28T02:15:50Z</time>
      </trkpt>
      <trkpt lat="46.05488" lon="6.9948">
        <ele>1640</ele>
        <time>2022-08-28T02:15:55Z</time>
      </trkpt>
      <trkpt lat="46.05488" lon="6.9948">
        <ele>1640</ele>
        <time>2022-08-28T02:16:00Z</time>
      </trkpt>
      <trkpt lat="46.05488" lon="6.9948">
        <ele>1640</ele>
        <time>2022-08-28T02:16:04Z</time>
      </trkpt>
      <trkpt lat="46.05488" lon="6.9948">
        <ele>1640</ele>
        <time>2022-08-28T02:16:10Z</time>
      </trkpt>
      <trkpt lat="46.05488" lon="6.9948">
        <ele>1640</ele>
        <time>2022-08-28T02:16:15Z</time>
      </trkpt>
      <trkpt lat="46.05488" lon="6.9948">
        <ele>1640</ele>
        <time>2022-08-28T02:16:21Z</time>
      </trkpt>
      <trkpt lat="46.05488" lon="6.9948">
        <ele>1640</ele>
        <time>2022-08-28T02:16:26Z</time>
      </trkpt>
      <trkpt lat="46.05488" lon="6.9948">
        <ele>1640</ele>
        <time>2022-08-28T02:16:31Z</time>
      </trkpt>
      <trkpt lat="46.05488" lon="6.9948">
        <ele>1640</ele>
        <time>2022-08-28T02:16:32Z</time>
      </trkpt>
      <trkpt lat="46.05488" lon="6.9948">
        <ele>1640</ele>
        <time>2022-08-28T02:16:35Z</time>
      </trkpt>
      <trkpt lat="46.05488" lon="6.9948">
        <ele>1640</ele>
        <time>2022-08-28T02:16:40Z</time>
      </trkpt>
      <trkpt lat="46.05488" lon="6.99481">
        <ele>1640</ele>
        <time>2022-08-28T02:16:44Z</time>
      </trkpt>
      <trkpt lat="46.05488" lon="6.99481">
        <ele>1640</ele>
        <time>2022-08-28T02:16:49Z</time>
      </trkpt>
      <trkpt lat="46.05488" lon="6.99481">
        <ele>1640</ele>
        <time>2022-08-28T02:16:53Z</time>
      </trkpt>
      <trkpt lat="46.05487" lon="6.99481">
        <ele>1640</ele>
        <time>2022-08-28T02:16:58Z</time>
      </trkpt>
      <trkpt lat="46.05487" lon="6.99481">
        <ele>1640</ele>
        <time>2022-08-28T02:17:00Z</time>
      </trkpt>
      <trkpt lat="46.05487" lon="6.99481">
        <ele>1640</ele>
        <time>2022-08-28T02:17:04Z</time>
      </trkpt>
      <trkpt lat="46.05487" lon="6.99481">
        <ele>1640</ele>
        <time>2022-08-28T02:17:09Z</time>
      </trkpt>
      <trkpt lat="46.05487" lon="6.99481">
        <ele>1640</ele>
        <time>2022-08-28T02:17:13Z</time>
      </trkpt>
      <trkpt lat="46.05487" lon="6.99481">
        <ele>1640</ele>
        <time>2022-08-28T02:17:18Z</time>
      </trkpt>
      <trkpt lat="46.05487" lon="6.99481">
        <ele>1640</ele>
        <time>2022-08-28T02:17:22Z</time>
      </trkpt>
      <trkpt lat="46.05487" lon="6.99481">
        <ele>1640</ele>
        <time>2022-08-28T02:17:23Z</time>
      </trkpt>
      <trkpt lat="46.05487" lon="6.99481">
        <ele>1640</ele>
        <time>2022-08-28T02:17:26Z</time>
      </trkpt>
      <trkpt lat="46.05487" lon="6.99482">
        <ele>1640</ele>
        <time>2022-08-28T02:17:31Z</time>
      </trkpt>
      <trkpt lat="46.05487" lon="6.99482">
        <ele>1640</ele>
        <time>2022-08-28T02:17:36Z</time>
      </trkpt>
      <trkpt lat="46.05487" lon="6.99482">
        <ele>1640</ele>
        <time>2022-08-28T02:17:40Z</time>
      </trkpt>
      <trkpt lat="46.05487" lon="6.99482">
        <ele>1640</ele>
        <time>2022-08-28T02:17:44Z</time>
      </trkpt>
      <trkpt lat="46.05487" lon="6.99482">
        <ele>1640</ele>
        <time>2022-08-28T02:17:48Z</time>
      </trkpt>
      <trkpt lat="46.05487" lon="6.99482">
        <ele>1640</ele>
        <time>2022-08-28T02:17:49Z</time>
      </trkpt>
      <trkpt lat="46.05487" lon="6.99482">
        <ele>1640</ele>
        <time>2022-08-28T02:17:54Z</time>
      </trkpt>
      <trkpt lat="46.05487" lon="6.99482">
        <ele>1640</ele>
        <time>2022-08-28T02:17:58Z</time>
      </trkpt>
      <trkpt lat="46.05487" lon="6.99482">
        <ele>1640</ele>
        <time>2022-08-28T02:18:04Z</time>
      </trkpt>
      <trkpt lat="46.05487" lon="6.99482">
        <ele>1640</ele>
        <time>2022-08-28T02:18:09Z</time>
      </trkpt>
      <trkpt lat="46.05487" lon="6.99482">
        <ele>1640</ele>
        <time>2022-08-28T02:18:15Z</time>
      </trkpt>
      <trkpt lat="46.05487" lon="6.99482">
        <ele>1640</ele>
        <time>2022-08-28T02:18:16Z</time>
      </trkpt>
      <trkpt lat="46.05487" lon="6.99483">
        <ele>1640</ele>
        <time>2022-08-28T02:18:19Z</time>
      </trkpt>
      <trkpt lat="46.05487" lon="6.99483">
        <ele>1640</ele>
        <time>2022-08-28T02:18:24Z</time>
      </trkpt>
      <trkpt lat="46.05487" lon="6.99483">
        <ele>1640</ele>
        <time>2022-08-28T02:18:32Z</time>
      </trkpt>
      <trkpt lat="46.05487" lon="6.99483">
        <ele>1640</ele>
        <time>2022-08-28T02:18:38Z</time>
      </trkpt>
      <trkpt lat="46.05487" lon="6.99483">
        <ele>1640</ele>
        <time>2022-08-28T02:18:43Z</time>
      </trkpt>
      <trkpt lat="46.05487" lon="6.99483">
        <ele>1640</ele>
        <time>2022-08-28T02:18:47Z</time>
      </trkpt>
      <trkpt lat="46.05487" lon="6.99483">
        <ele>1640</ele>
        <time>2022-08-28T02:18:49Z</time>
      </trkpt>
      <trkpt lat="46.05487" lon="6.99483">
        <ele>1640</ele>
        <time>2022-08-28T02:18:55Z</time>
      </trkpt>
      <trkpt lat="46.05487" lon="6.99483">
        <ele>1640</ele>
        <time>2022-08-28T02:19:00Z</time>
      </trkpt>
      <trkpt lat="46.05487" lon="6.99483">
        <ele>1640</ele>
        <time>2022-08-28T02:19:05Z</time>
      </trkpt>
      <trkpt lat="46.05487" lon="6.99483">
        <ele>1640</ele>
        <time>2022-08-28T02:19:10Z</time>
      </trkpt>
      <trkpt lat="46.05487" lon="6.99484">
        <ele>1640</ele>
        <time>2022-08-28T02:19:15Z</time>
      </trkpt>
      <trkpt lat="46.05487" lon="6.99484">
        <ele>1640</ele>
        <time>2022-08-28T02:19:16Z</time>
      </trkpt>
      <trkpt lat="46.05487" lon="6.99484">
        <ele>1640</ele>
        <time>2022-08-28T02:19:20Z</time>
      </trkpt>
      <trkpt lat="46.05487" lon="6.99484">
        <ele>1640</ele>
        <time>2022-08-28T02:19:25Z</time>
      </trkpt>
      <trkpt lat="46.05487" lon="6.99484">
        <ele>1640</ele>
        <time>2022-08-28T02:19:30Z</time>
      </trkpt>
      <trkpt lat="46.05487" lon="6.99484">
        <ele>1640</ele>
        <time>2022-08-28T02:19:36Z</time>
      </trkpt>
      <trkpt lat="46.05487" lon="6.99484">
        <ele>1640</ele>
        <time>2022-08-28T02:19:42Z</time>
      </trkpt>
      <trkpt lat="46.05487" lon="6.99484">
        <ele>1640</ele>
        <time>2022-08-28T02:19:44Z</time>
      </trkpt>
      <trkpt lat="46.05487" lon="6.99484">
        <ele>1640</ele>
        <time>2022-08-28T02:19:47Z</time>
      </trkpt>
      <trkpt lat="46.05487" lon="6.99484">
        <ele>1640</ele>
        <time>2022-08-28T02:19:53Z</time>
      </trkpt>
      <trkpt lat="46.05487" lon="6.99484">
        <ele>1640</ele>
        <time>2022-08-28T02:19:58Z</time>
      </trkpt>
      <trkpt lat="46.05487" lon="6.99484">
        <ele>1640</ele>
        <time>2022-08-28T02:20:04Z</time>
      </trkpt>
      <trkpt lat="46.05487" lon="6.99485">
        <ele>1640</ele>
        <time>2022-08-28T02:20:10Z</time>
      </trkpt>
      <trkpt lat="46.05487" lon="6.99485">
        <ele>1640</ele>
        <time>2022-08-28T02:20:14Z</time>
      </trkpt>
      <trkpt lat="46.05487" lon="6.99485">
        <ele>1640</ele>
        <time>2022-08-28T02:20:16Z</time>
      </trkpt>
      <trkpt lat="46.05487" lon="6.99485">
        <ele>1640</ele>
        <time>2022-08-28T02:20:19Z</time>
      </trkpt>
      <trkpt lat="46.05487" lon="6.99485">
        <ele>1640</ele>
        <time>2022-08-28T02:20:26Z</time>
      </trkpt>
      <trkpt lat="46.05487" lon="6.99485">
        <ele>1640</ele>
        <time>2022-08-28T02:20:30Z</time>
      </trkpt>
      <trkpt lat="46.05487" lon="6.99485">
        <ele>1640</ele>
        <time>2022-08-28T02:20:35Z</time>
      </trkpt>
      <trkpt lat="46.05487" lon="6.99485">
        <ele>1640</ele>
        <time>2022-08-28T02:20:39Z</time>
      </trkpt>
      <trkpt lat="46.05487" lon="6.99485">
        <ele>1640</ele>
        <time>2022-08-28T02:20:42Z</time>
      </trkpt>
      <trkpt lat="46.05487" lon="6.99485">
        <ele>1640</ele>
        <time>2022-08-28T02:20:45Z</time>
      </trkpt>
      <trkpt lat="46.05487" lon="6.99485">
        <ele>1640</ele>
        <time>2022-08-28T02:20:50Z</time>
      </trkpt>
      <trkpt lat="46.05487" lon="6.99485">
        <ele>1640</ele>
        <time>2022-08-28T02:20:56Z</time>
      </trkpt>
      <trkpt lat="46.05487" lon="6.99486">
        <ele>1640</ele>
        <time>2022-08-28T02:21:01Z</time>
      </trkpt>
      <trkpt lat="46.05487" lon="6.99486">
        <ele>1640</ele>
        <time>2022-08-28T02:21:08Z</time>
      </trkpt>
      <trkpt lat="46.05487" lon="6.99486">
        <ele>1640</ele>
        <time>2022-08-28T02:21:13Z</time>
      </trkpt>
      <trkpt lat="46.05487" lon="6.99486">
        <ele>1640</ele>
        <time>2022-08-28T02:21:18Z</time>
      </trkpt>
      <trkpt lat="46.05487" lon="6.99486">
        <ele>1640</ele>
        <time>2022-08-28T02:21:24Z</time>
      </trkpt>
      <trkpt lat="46.05487" lon="6.99486">
        <ele>1640</ele>
        <time>2022-08-28T02:21:29Z</time>
      </trkpt>
      <trkpt lat="46.05487" lon="6.99486">
        <ele>1640</ele>
        <time>2022-08-28T02:21:34Z</time>
      </trkpt>
      <trkpt lat="46.05487" lon="6.99486">
        <ele>1640</ele>
        <time>2022-08-28T02:21:38Z</time>
      </trkpt>
      <trkpt lat="46.05486" lon="6.99486">
        <ele>1640</ele>
        <time>2022-08-28T02:21:41Z</time>
      </trkpt>
      <trkpt lat="46.05486" lon="6.99486">
        <ele>1640</ele>
        <time>2022-08-28T02:21:43Z</time>
      </trkpt>
      <trkpt lat="46.05486" lon="6.99486">
        <ele>1640</ele>
        <time>2022-08-28T02:21:47Z</time>
      </trkpt>
      <trkpt lat="46.05486" lon="6.99487">
        <ele>1640</ele>
        <time>2022-08-28T02:21:52Z</time>
      </trkpt>
      <trkpt lat="46.05486" lon="6.99487">
        <ele>1640</ele>
        <time>2022-08-28T02:21:57Z</time>
      </trkpt>
      <trkpt lat="46.05486" lon="6.99487">
        <ele>1640</ele>
        <time>2022-08-28T02:22:02Z</time>
      </trkpt>
      <trkpt lat="46.05486" lon="6.99487">
        <ele>1640</ele>
        <time>2022-08-28T02:22:06Z</time>
      </trkpt>
      <trkpt lat="46.05486" lon="6.99487">
        <ele>1640</ele>
        <time>2022-08-28T02:22:07Z</time>
      </trkpt>
      <trkpt lat="46.05486" lon="6.99487">
        <ele>1640</ele>
        <time>2022-08-28T02:22:12Z</time>
      </trkpt>
      <trkpt lat="46.05486" lon="6.99487">
        <ele>1640</ele>
        <time>2022-08-28T02:22:17Z</time>
      </trkpt>
      <trkpt lat="46.05486" lon="6.99487">
        <ele>1640</ele>
        <time>2022-08-28T02:22:22Z</time>
      </trkpt>
      <trkpt lat="46.05486" lon="6.99487">
        <ele>1640</ele>
        <time>2022-08-28T02:22:28Z</time>
      </trkpt>
      <trkpt lat="46.05486" lon="6.99487">
        <ele>1640</ele>
        <time>2022-08-28T02:22:35Z</time>
      </trkpt>
      <trkpt lat="46.05486" lon="6.99487">
        <ele>1640</ele>
        <time>2022-08-28T02:22:38Z</time>
      </trkpt>
      <trkpt lat="46.05486" lon="6.99487">
        <ele>1640</ele>
        <time>2022-08-28T02:22:40Z</time>
      </trkpt>
      <trkpt lat="46.05486" lon="6.99488">
        <ele>1640</ele>
        <time>2022-08-28T02:22:45Z</time>
      </trkpt>
      <trkpt lat="46.05486" lon="6.99488">
        <ele>1640</ele>
        <time>2022-08-28T02:22:50Z</time>
      </trkpt>
      <trkpt lat="46.05486" lon="6.99488">
        <ele>1640</ele>
        <time>2022-08-28T02:22:57Z</time>
      </trkpt>
      <trkpt lat="46.05486" lon="6.99488">
        <ele>1640</ele>
        <time>2022-08-28T02:23:02Z</time>
      </trkpt>
      <trkpt lat="46.05486" lon="6.99488">
        <ele>1640</ele>
        <time>2022-08-28T02:23:07Z</time>
      </trkpt>
      <trkpt lat="46.05486" lon="6.99488">
        <ele>1640</ele>
        <time>2022-08-28T02:23:12Z</time>
      </trkpt>
      <trkpt lat="46.05486" lon="6.99488">
        <ele>1640</ele>
        <time>2022-08-28T02:23:17Z</time>
      </trkpt>
      <trkpt lat="46.05486" lon="6.99488">
        <ele>1640</ele>
        <time>2022-08-28T02:23:23Z</time>
      </trkpt>
      <trkpt lat="46.05486" lon="6.99488">
        <ele>1640</ele>
        <time>2022-08-28T02:23:29Z</time>
      </trkpt>
      <trkpt lat="46.05486" lon="6.99488">
        <ele>1640</ele>
        <time>2022-08-28T02:23:35Z</time>
      </trkpt>
      <trkpt lat="46.05486" lon="6.99488">
        <ele>1640</ele>
        <time>2022-08-28T02:23:37Z</time>
      </trkpt>
      <trkpt lat="46.05486" lon="6.99489">
        <ele>1640</ele>
        <time>2022-08-28T02:23:40Z</time>
      </trkpt>
      <trkpt lat="46.05486" lon="6.99489">
        <ele>1640</ele>
        <time>2022-08-28T02:23:47Z</time>
      </trkpt>
      <trkpt lat="46.05486" lon="6.99489">
        <ele>1640</ele>
        <time>2022-08-28T02:23:52Z</time>
      </trkpt>
      <trkpt lat="46.05486" lon="6.99489">
        <ele>1640</ele>
        <time>2022-08-28T02:23:57Z</time>
      </trkpt>
      <trkpt lat="46.05486" lon="6.99489">
        <ele>1640</ele>
        <time>2022-08-28T02:24:03Z</time>
      </trkpt>
      <trkpt lat="46.05486" lon="6.99489">
        <ele>1640</ele>
        <time>2022-08-28T02:24:07Z</time>
      </trkpt>
      <trkpt lat="46.05486" lon="6.99489">
        <ele>1640</ele>
        <time>2022-08-28T02:24:20Z</time>
      </trkpt>
      <trkpt lat="46.05486" lon="6.99489">
        <ele>1640</ele>
        <time>2022-08-28T02:24:40Z</time>
      </trkpt>
      <trkpt lat="46.05486" lon="6.99489">
        <ele>1640</ele>
        <time>2022-08-28T02:24:59Z</time>
      </trkpt>
      <trkpt lat="46.05486" lon="6.99489">
        <ele>1640</ele>
        <time>2022-08-28T02:25:17Z</time>
      </trkpt>
      <trkpt lat="46.05486" lon="6.99489">
        <ele>1640</ele>
        <time>2022-08-28T02:25:35Z</time>
      </trkpt>
      <trkpt lat="46.05486" lon="6.99489">
        <ele>1640</ele>
        <time>2022-08-28T02:25:52Z</time>
      </trkpt>
      <trkpt lat="46.05486" lon="6.99489">
        <ele>1640</ele>
        <time>2022-08-28T02:26:11Z</time>
      </trkpt>
      <trkpt lat="46.05486" lon="6.99489">
        <ele>1640</ele>
        <time>2022-08-28T02:26:31Z</time>
      </trkpt>
      <trkpt lat="46.05486" lon="6.99489">
        <ele>1640</ele>
        <time>2022-08-28T02:26:51Z</time>
      </trkpt>
      <trkpt lat="46.05486" lon="6.99489">
        <ele>1640</ele>
        <time>2022-08-28T02:27:08Z</time>
      </trkpt>
      <trkpt lat="46.05486" lon="6.99489">
        <ele>1640</ele>
        <time>2022-08-28T02:27:25Z</time>
      </trkpt>
      <trkpt lat="46.05486" lon="6.99489">
        <ele>1640</ele>
        <time>2022-08-28T02:27:42Z</time>
      </trkpt>
      <trkpt lat="46.05486" lon="6.99489">
        <ele>1640</ele>
        <time>2022-08-28T02:27:59Z</time>
      </trkpt>
      <trkpt lat="46.05486" lon="6.99489">
        <ele>1640</ele>
        <time>2022-08-28T02:28:18Z</time>
      </trkpt>
      <trkpt lat="46.05486" lon="6.99489">
        <ele>1640</ele>
        <time>2022-08-28T02:28:36Z</time>
      </trkpt>
      <trkpt lat="46.05486" lon="6.99489">
        <ele>1640</ele>
        <time>2022-08-28T02:28:54Z</time>
      </trkpt>
      <trkpt lat="46.05487" lon="6.99485">
        <ele>1640</ele>
        <time>2022-08-28T02:28:57Z</time>
      </trkpt>
      <trkpt lat="46.05489" lon="6.99487">
        <ele>1640</ele>
        <time>2022-08-28T02:29:04Z</time>
      </trkpt>
      <trkpt lat="46.05489" lon="6.99487">
        <ele>1640</ele>
        <time>2022-08-28T02:29:05Z</time>
      </trkpt>
      <trkpt lat="46.05489" lon="6.99487">
        <ele>1640</ele>
        <time>2022-08-28T02:29:07Z</time>
      </trkpt>
      <trkpt lat="46.05489" lon="6.99487">
        <ele>1640</ele>
        <time>2022-08-28T02:29:08Z</time>
      </trkpt>
      <trkpt lat="46.05489" lon="6.99487">
        <ele>1640</ele>
        <time>2022-08-28T02:29:09Z</time>
      </trkpt>
      <trkpt lat="46.0549" lon="6.99487">
        <ele>1640</ele>
        <time>2022-08-28T02:29:10Z</time>
      </trkpt>
      <trkpt lat="46.0549" lon="6.99487">
        <ele>1640</ele>
        <time>2022-08-28T02:29:12Z</time>
      </trkpt>
      <trkpt lat="46.0549" lon="6.99487">
        <ele>1640</ele>
        <time>2022-08-28T02:29:13Z</time>
      </trkpt>
      <trkpt lat="46.0549" lon="6.99487">
        <ele>1640</ele>
        <time>2022-08-28T02:29:14Z</time>
      </trkpt>
      <trkpt lat="46.0549" lon="6.99487">
        <ele>1640</ele>
        <time>2022-08-28T02:29:15Z</time>
      </trkpt>
      <trkpt lat="46.0549" lon="6.99487">
        <ele>1640</ele>
        <time>2022-08-28T02:29:17Z</time>
      </trkpt>
      <trkpt lat="46.0549" lon="6.99487">
        <ele>1640</ele>
        <time>2022-08-28T02:29:18Z</time>
      </trkpt>
      <trkpt lat="46.05491" lon="6.99487">
        <ele>1640</ele>
        <time>2022-08-28T02:29:19Z</time>
      </trkpt>
      <trkpt lat="46.05491" lon="6.99487">
        <ele>1640</ele>
        <time>2022-08-28T02:29:20Z</time>
      </trkpt>
      <trkpt lat="46.05491" lon="6.99488">
        <ele>1640</ele>
        <time>2022-08-28T02:29:22Z</time>
      </trkpt>
      <trkpt lat="46.05491" lon="6.99488">
        <ele>1640</ele>
        <time>2022-08-28T02:29:23Z</time>
      </trkpt>
      <trkpt lat="46.05491" lon="6.99488">
        <ele>1640</ele>
        <time>2022-08-28T02:29:24Z</time>
      </trkpt>
      <trkpt lat="46.05491" lon="6.99488">
        <ele>1640</ele>
        <time>2022-08-28T02:29:25Z</time>
      </trkpt>
      <trkpt lat="46.05491" lon="6.99488">
        <ele>1640</ele>
        <time>2022-08-28T02:29:27Z</time>
      </trkpt>
      <trkpt lat="46.05492" lon="6.99488">
        <ele>1640</ele>
        <time>2022-08-28T02:29:29Z</time>
      </trkpt>
      <trkpt lat="46.05492" lon="6.99488">
        <ele>1640</ele>
        <time>2022-08-28T02:29:30Z</time>
      </trkpt>
      <trkpt lat="46.05492" lon="6.99488">
        <ele>1640</ele>
        <time>2022-08-28T02:29:31Z</time>
      </trkpt>
      <trkpt lat="46.05492" lon="6.99488">
        <ele>1640</ele>
        <time>2022-08-28T02:29:32Z</time>
      </trkpt>
      <trkpt lat="46.05492" lon="6.99488">
        <ele>1640</ele>
        <time>2022-08-28T02:29:33Z</time>
      </trkpt>
      <trkpt lat="46.05492" lon="6.99488">
        <ele>1640</ele>
        <time>2022-08-28T02:29:34Z</time>
      </trkpt>
      <trkpt lat="46.05492" lon="6.99488">
        <ele>1640</ele>
        <time>2022-08-28T02:29:36Z</time>
      </trkpt>
      <trkpt lat="46.05493" lon="6.99488">
        <ele>1640</ele>
        <time>2022-08-28T02:29:37Z</time>
      </trkpt>
      <trkpt lat="46.05493" lon="6.99488">
        <ele>1640</ele>
        <time>2022-08-28T02:29:38Z</time>
      </trkpt>
      <trkpt lat="46.05493" lon="6.99488">
        <ele>1640</ele>
        <time>2022-08-28T02:29:39Z</time>
      </trkpt>
      <trkpt lat="46.05493" lon="6.99488">
        <ele>1640</ele>
        <time>2022-08-28T02:29:40Z</time>
      </trkpt>
      <trkpt lat="46.05493" lon="6.99488">
        <ele>1640</ele>
        <time>2022-08-28T02:29:41Z</time>
      </trkpt>
      <trkpt lat="46.05493" lon="6.99488">
        <ele>1640</ele>
        <time>2022-08-28T02:29:42Z</time>
      </trkpt>
      <trkpt lat="46.05493" lon="6.99489">
        <ele>1640</ele>
        <time>2022-08-28T02:29:43Z</time>
      </trkpt>
      <trkpt lat="46.05494" lon="6.99489">
        <ele>1640</ele>
        <time>2022-08-28T02:29:44Z</time>
      </trkpt>
      <trkpt lat="46.05494" lon="6.99489">
        <ele>1640</ele>
        <time>2022-08-28T02:29:45Z</time>
      </trkpt>
      <trkpt lat="46.05494" lon="6.99489">
        <ele>1640</ele>
        <time>2022-08-28T02:29:47Z</time>
      </trkpt>
      <trkpt lat="46.05494" lon="6.99489">
        <ele>1640</ele>
        <time>2022-08-28T02:29:49Z</time>
      </trkpt>
      <trkpt lat="46.05494" lon="6.99489">
        <ele>1640</ele>
        <time>2022-08-28T02:29:50Z</time>
      </trkpt>
      <trkpt lat="46.05494" lon="6.99489">
        <ele>1640</ele>
        <time>2022-08-28T02:29:51Z</time>
      </trkpt>
      <trkpt lat="46.05494" lon="6.99489">
        <ele>1640</ele>
        <time>2022-08-28T02:29:52Z</time>
      </trkpt>
      <trkpt lat="46.05497" lon="6.99489">
        <ele>1640</ele>
        <time>2022-08-28T02:29:55Z</time>
      </trkpt>
      <trkpt lat="46.05499" lon="6.99489">
        <ele>1640</ele>
        <time>2022-08-28T02:29:57Z</time>
      </trkpt>
      <trkpt lat="46.055" lon="6.99489">
        <ele>1640</ele>
        <time>2022-08-28T02:29:58Z</time>
      </trkpt>
      <trkpt lat="46.055" lon="6.99489">
        <ele>1640</ele>
        <time>2022-08-28T02:30:00Z</time>
      </trkpt>
      <trkpt lat="46.05501" lon="6.99489">
        <ele>1640</ele>
        <time>2022-08-28T02:30:02Z</time>
      </trkpt>
      <trkpt lat="46.05502" lon="6.99489">
        <ele>1640</ele>
        <time>2022-08-28T02:30:03Z</time>
      </trkpt>
      <trkpt lat="46.05502" lon="6.99489">
        <ele>1640</ele>
        <time>2022-08-28T02:30:04Z</time>
      </trkpt>
      <trkpt lat="46.05503" lon="6.99489">
        <ele>1640</ele>
        <time>2022-08-28T02:30:05Z</time>
      </trkpt>
      <trkpt lat="46.05503" lon="6.99489">
        <ele>1640</ele>
        <time>2022-08-28T02:30:06Z</time>
      </trkpt>
      <trkpt lat="46.05504" lon="6.99489">
        <ele>1640</ele>
        <time>2022-08-28T02:30:07Z</time>
      </trkpt>
      <trkpt lat="46.05505" lon="6.99489">
        <ele>1640</ele>
        <time>2022-08-28T02:30:08Z</time>
      </trkpt>
      <trkpt lat="46.05505" lon="6.9949">
        <ele>1640</ele>
        <time>2022-08-28T02:30:10Z</time>
      </trkpt>
      <trkpt lat="46.05506" lon="6.9949">
        <ele>1640</ele>
        <time>2022-08-28T02:30:11Z</time>
      </trkpt>
      <trkpt lat="46.05506" lon="6.9949">
        <ele>1640</ele>
        <time>2022-08-28T02:30:13Z</time>
      </trkpt>
      <trkpt lat="46.05507" lon="6.9949">
        <ele>1640</ele>
        <time>2022-08-28T02:30:14Z</time>
      </trkpt>
      <trkpt lat="46.05508" lon="6.9949">
        <ele>1640</ele>
        <time>2022-08-28T02:30:15Z</time>
      </trkpt>
      <trkpt lat="46.05508" lon="6.9949">
        <ele>1640</ele>
        <time>2022-08-28T02:30:16Z</time>
      </trkpt>
      <trkpt lat="46.05509" lon="6.9949">
        <ele>1640</ele>
        <time>2022-08-28T02:30:17Z</time>
      </trkpt>
      <trkpt lat="46.05509" lon="6.9949">
        <ele>1640</ele>
        <time>2022-08-28T02:30:18Z</time>
      </trkpt>
      <trkpt lat="46.0551" lon="6.9949">
        <ele>1640</ele>
        <time>2022-08-28T02:30:19Z</time>
      </trkpt>
      <trkpt lat="46.05512" lon="6.9949">
        <ele>1640</ele>
        <time>2022-08-28T02:30:20Z</time>
      </trkpt>
      <trkpt lat="46.05513" lon="6.99491">
        <ele>1640</ele>
        <time>2022-08-28T02:30:21Z</time>
      </trkpt>
      <trkpt lat="46.05514" lon="6.99491">
        <ele>1640</ele>
        <time>2022-08-28T02:30:22Z</time>
      </trkpt>
      <trkpt lat="46.05516" lon="6.99491">
        <ele>1640</ele>
        <time>2022-08-28T02:30:24Z</time>
      </trkpt>
      <trkpt lat="46.05517" lon="6.99491">
        <ele>1640</ele>
        <time>2022-08-28T02:30:25Z</time>
      </trkpt>
      <trkpt lat="46.05519" lon="6.99491">
        <ele>1640</ele>
        <time>2022-08-28T02:30:26Z</time>
      </trkpt>
      <trkpt lat="46.0552" lon="6.99492">
        <ele>1640</ele>
        <time>2022-08-28T02:30:27Z</time>
      </trkpt>
      <trkpt lat="46.05523" lon="6.99491">
        <ele>1640</ele>
        <time>2022-08-28T02:30:29Z</time>
      </trkpt>
      <trkpt lat="46.05526" lon="6.9949">
        <ele>1640</ele>
        <time>2022-08-28T02:30:33Z</time>
      </trkpt>
      <trkpt lat="46.05528" lon="6.99492">
        <ele>1640</ele>
        <time>2022-08-28T02:30:35Z</time>
      </trkpt>
      <trkpt lat="46.05529" lon="6.99492">
        <ele>1640</ele>
        <time>2022-08-28T02:30:36Z</time>
      </trkpt>
      <trkpt lat="46.0553" lon="6.99492">
        <ele>1640</ele>
        <time>2022-08-28T02:30:38Z</time>
      </trkpt>
      <trkpt lat="46.05531" lon="6.99492">
        <ele>1640</ele>
        <time>2022-08-28T02:30:40Z</time>
      </trkpt>
      <trkpt lat="46.05532" lon="6.99492">
        <ele>1640</ele>
        <time>2022-08-28T02:30:41Z</time>
      </trkpt>
      <trkpt lat="46.05533" lon="6.99492">
        <ele>1640</ele>
        <time>2022-08-28T02:30:42Z</time>
      </trkpt>
      <trkpt lat="46.05534" lon="6.99491">
        <ele>1640</ele>
        <time>2022-08-28T02:30:43Z</time>
      </trkpt>
      <trkpt lat="46.05535" lon="6.99491">
        <ele>1640</ele>
        <time>2022-08-28T02:30:45Z</time>
      </trkpt>
      <trkpt lat="46.05536" lon="6.99491">
        <ele>1640</ele>
        <time>2022-08-28T02:30:46Z</time>
      </trkpt>
      <trkpt lat="46.05537" lon="6.99491">
        <ele>1640</ele>
        <time>2022-08-28T02:30:47Z</time>
      </trkpt>
      <trkpt lat="46.05538" lon="6.99491">
        <ele>1640</ele>
        <time>2022-08-28T02:30:48Z</time>
      </trkpt>
      <trkpt lat="46.05539" lon="6.99491">
        <ele>1640</ele>
        <time>2022-08-28T02:30:50Z</time>
      </trkpt>
      <trkpt lat="46.0554" lon="6.99491">
        <ele>1640</ele>
        <time>2022-08-28T02:30:51Z</time>
      </trkpt>
      <trkpt lat="46.05541" lon="6.99491">
        <ele>1640</ele>
        <time>2022-08-28T02:30:52Z</time>
      </trkpt>
      <trkpt lat="46.05551" lon="6.99491">
        <ele>1640</ele>
        <time>2022-08-28T02:31:09Z</time>
      </trkpt>
      <trkpt lat="46.05552" lon="6.99491">
        <ele>1640</ele>
        <time>2022-08-28T02:31:11Z</time>
      </trkpt>
      <trkpt lat="46.05554" lon="6.99491">
        <ele>1640</ele>
        <time>2022-08-28T02:31:12Z</time>
      </trkpt>
      <trkpt lat="46.05556" lon="6.99491">
        <ele>1640</ele>
        <time>2022-08-28T02:31:13Z</time>
      </trkpt>
      <trkpt lat="46.05557" lon="6.99491">
        <ele>1640</ele>
        <time>2022-08-28T02:31:14Z</time>
      </trkpt>
      <trkpt lat="46.05559" lon="6.99491">
        <ele>1640</ele>
        <time>2022-08-28T02:31:15Z</time>
      </trkpt>
      <trkpt lat="46.0556" lon="6.99491">
        <ele>1640</ele>
        <time>2022-08-28T02:31:16Z</time>
      </trkpt>
      <trkpt lat="46.05564" lon="6.99492">
        <ele>1640</ele>
        <time>2022-08-28T02:31:18Z</time>
      </trkpt>
      <trkpt lat="46.05566" lon="6.99491">
        <ele>1640</ele>
        <time>2022-08-28T02:31:20Z</time>
      </trkpt>
      <trkpt lat="46.05569" lon="6.99491">
        <ele>1640</ele>
        <time>2022-08-28T02:31:23Z</time>
      </trkpt>
      <trkpt lat="46.05571" lon="6.9949">
        <ele>1640</ele>
        <time>2022-08-28T02:31:25Z</time>
      </trkpt>
      <trkpt lat="46.05573" lon="6.9949">
        <ele>1640</ele>
        <time>2022-08-28T02:31:28Z</time>
      </trkpt>
      <trkpt lat="46.05573" lon="6.9949">
        <ele>1640</ele>
        <time>2022-08-28T02:31:41Z</time>
      </trkpt>
      <trkpt lat="46.05573" lon="6.9949">
        <ele>1640</ele>
        <time>2022-08-28T02:31:58Z</time>
      </trkpt>
      <trkpt lat="46.05573" lon="6.9949">
        <ele>1640</ele>
        <time>2022-08-28T02:32:15Z</time>
      </trkpt>
      <trkpt lat="46.05573" lon="6.99487">
        <ele>1640</ele>
        <time>2022-08-28T02:32:23Z</time>
      </trkpt>
      <trkpt lat="46.05573" lon="6.99487">
        <ele>1640</ele>
        <time>2022-08-28T02:32:34Z</time>
      </trkpt>
      <trkpt lat="46.05573" lon="6.99487">
        <ele>1640</ele>
        <time>2022-08-28T02:32:53Z</time>
      </trkpt>
      <trkpt lat="46.05573" lon="6.99487">
        <ele>1640</ele>
        <time>2022-08-28T02:33:12Z</time>
      </trkpt>
      <trkpt lat="46.05573" lon="6.99487">
        <ele>1640</ele>
        <time>2022-08-28T02:33:31Z</time>
      </trkpt>
      <trkpt lat="46.05575" lon="6.99488">
        <ele>1640</ele>
        <time>2022-08-28T02:33:48Z</time>
      </trkpt>
      <trkpt lat="46.05577" lon="6.99488">
        <ele>1640</ele>
        <time>2022-08-28T02:33:52Z</time>
      </trkpt>
      <trkpt lat="46.05579" lon="6.99488">
        <ele>1640</ele>
        <time>2022-08-28T02:33:56Z</time>
      </trkpt>
      <trkpt lat="46.05579" lon="6.99488">
        <ele>1640</ele>
        <time>2022-08-28T02:33:57Z</time>
      </trkpt>
      <trkpt lat="46.05579" lon="6.99488">
        <ele>1640</ele>
        <time>2022-08-28T02:33:58Z</time>
      </trkpt>
      <trkpt lat="46.05579" lon="6.99488">
        <ele>1640</ele>
        <time>2022-08-28T02:34:00Z</time>
      </trkpt>
      <trkpt lat="46.0558" lon="6.99488">
        <ele>1640</ele>
        <time>2022-08-28T02:34:02Z</time>
      </trkpt>
      <trkpt lat="46.0558" lon="6.99487">
        <ele>1640</ele>
        <time>2022-08-28T02:34:03Z</time>
      </trkpt>
      <trkpt lat="46.0558" lon="6.99487">
        <ele>1640</ele>
        <time>2022-08-28T02:34:04Z</time>
      </trkpt>
      <trkpt lat="46.0558" lon="6.99487">
        <ele>1640</ele>
        <time>2022-08-28T02:34:05Z</time>
      </trkpt>
      <trkpt lat="46.0558" lon="6.99487">
        <ele>1640</ele>
        <time>2022-08-28T02:34:07Z</time>
      </trkpt>
      <trkpt lat="46.0558" lon="6.99487">
        <ele>1640</ele>
        <time>2022-08-28T02:34:08Z</time>
      </trkpt>
      <trkpt lat="46.0558" lon="6.99487">
        <ele>1640</ele>
        <time>2022-08-28T02:34:09Z</time>
      </trkpt>
      <trkpt lat="46.0558" lon="6.99487">
        <ele>1640</ele>
        <time>2022-08-28T02:34:11Z</time>
      </trkpt>
      <trkpt lat="46.0558" lon="6.99486">
        <ele>1640</ele>
        <time>2022-08-28T02:34:12Z</time>
      </trkpt>
      <trkpt lat="46.0558" lon="6.99486">
        <ele>1640</ele>
        <time>2022-08-28T02:34:13Z</time>
      </trkpt>
      <trkpt lat="46.05581" lon="6.99486">
        <ele>1640</ele>
        <time>2022-08-28T02:34:14Z</time>
      </trkpt>
      <trkpt lat="46.05581" lon="6.99486">
        <ele>1640</ele>
        <time>2022-08-28T02:34:15Z</time>
      </trkpt>
      <trkpt lat="46.05581" lon="6.99486">
        <ele>1640</ele>
        <time>2022-08-28T02:34:16Z</time>
      </trkpt>
      <trkpt lat="46.05581" lon="6.99486">
        <ele>1640</ele>
        <time>2022-08-28T02:34:17Z</time>
      </trkpt>
      <trkpt lat="46.05581" lon="6.99486">
        <ele>1640</ele>
        <time>2022-08-28T02:34:19Z</time>
      </trkpt>
      <trkpt lat="46.05581" lon="6.99485">
        <ele>1640</ele>
        <time>2022-08-28T02:34:21Z</time>
      </trkpt>
      <trkpt lat="46.05581" lon="6.99485">
        <ele>1640</ele>
        <time>2022-08-28T02:34:22Z</time>
      </trkpt>
      <trkpt lat="46.05581" lon="6.99485">
        <ele>1640</ele>
        <time>2022-08-28T02:34:24Z</time>
      </trkpt>
      <trkpt lat="46.05581" lon="6.99485">
        <ele>1640</ele>
        <time>2022-08-28T02:34:25Z</time>
      </trkpt>
      <trkpt lat="46.05581" lon="6.99485">
        <ele>1640</ele>
        <time>2022-08-28T02:34:26Z</time>
      </trkpt>
      <trkpt lat="46.05582" lon="6.99485">
        <ele>1640</ele>
        <time>2022-08-28T02:34:27Z</time>
      </trkpt>
      <trkpt lat="46.05582" lon="6.99485">
        <ele>1640</ele>
        <time>2022-08-28T02:34:28Z</time>
      </trkpt>
      <trkpt lat="46.05582" lon="6.99485">
        <ele>1640</ele>
        <time>2022-08-28T02:34:29Z</time>
      </trkpt>
      <trkpt lat="46.05582" lon="6.99484">
        <ele>1640</ele>
        <time>2022-08-28T02:34:30Z</time>
      </trkpt>
      <trkpt lat="46.05582" lon="6.99484">
        <ele>1640</ele>
        <time>2022-08-28T02:34:31Z</time>
      </trkpt>
      <trkpt lat="46.05582" lon="6.99484">
        <ele>1640</ele>
        <time>2022-08-28T02:34:32Z</time>
      </trkpt>
      <trkpt lat="46.05582" lon="6.99484">
        <ele>1640</ele>
        <time>2022-08-28T02:34:34Z</time>
      </trkpt>
      <trkpt lat="46.05582" lon="6.99484">
        <ele>1640</ele>
        <time>2022-08-28T02:34:35Z</time>
      </trkpt>
      <trkpt lat="46.05582" lon="6.99484">
        <ele>1640</ele>
        <time>2022-08-28T02:34:36Z</time>
      </trkpt>
      <trkpt lat="46.05582" lon="6.99484">
        <ele>1640</ele>
        <time>2022-08-28T02:34:37Z</time>
      </trkpt>
      <trkpt lat="46.05582" lon="6.99483">
        <ele>1640</ele>
        <time>2022-08-28T02:34:39Z</time>
      </trkpt>
      <trkpt lat="46.05583" lon="6.99483">
        <ele>1640</ele>
        <time>2022-08-28T02:34:40Z</time>
      </trkpt>
      <trkpt lat="46.05585" lon="6.99483">
        <ele>1640</ele>
        <time>2022-08-28T02:34:42Z</time>
      </trkpt>
      <trkpt lat="46.05588" lon="6.99484">
        <ele>1640</ele>
        <time>2022-08-28T02:34:44Z</time>
      </trkpt>
      <trkpt lat="46.0559" lon="6.99484">
        <ele>1640</ele>
        <time>2022-08-28T02:34:46Z</time>
      </trkpt>
      <trkpt lat="46.05593" lon="6.99484">
        <ele>1640</ele>
        <time>2022-08-28T02:34:48Z</time>
      </trkpt>
      <trkpt lat="46.05594" lon="6.99484">
        <ele>1640</ele>
        <time>2022-08-28T02:34:50Z</time>
      </trkpt>
      <trkpt lat="46.05597" lon="6.99485">
        <ele>1640</ele>
        <time>2022-08-28T02:34:53Z</time>
      </trkpt>
      <trkpt lat="46.05599" lon="6.99486">
        <ele>1640</ele>
        <time>2022-08-28T02:35:01Z</time>
      </trkpt>
      <trkpt lat="46.05599" lon="6.99486">
        <ele>1640</ele>
        <time>2022-08-28T02:35:13Z</time>
      </trkpt>
      <trkpt lat="46.05603" lon="6.99488">
        <ele>1640</ele>
        <time>2022-08-28T02:35:17Z</time>
      </trkpt>
      <trkpt lat="46.05604" lon="6.99489">
        <ele>1640</ele>
        <time>2022-08-28T02:35:19Z</time>
      </trkpt>
      <trkpt lat="46.05605" lon="6.99489">
        <ele>1640</ele>
        <time>2022-08-28T02:35:20Z</time>
      </trkpt>
      <trkpt lat="46.05606" lon="6.9949">
        <ele>1640</ele>
        <time>2022-08-28T02:35:21Z</time>
      </trkpt>
      <trkpt lat="46.05607" lon="6.9949">
        <ele>1640</ele>
        <time>2022-08-28T02:35:23Z</time>
      </trkpt>
      <trkpt lat="46.05608" lon="6.9949">
        <ele>1640</ele>
        <time>2022-08-28T02:35:24Z</time>
      </trkpt>
      <trkpt lat="46.05608" lon="6.99491">
        <ele>1640</ele>
        <time>2022-08-28T02:35:25Z</time>
      </trkpt>
      <trkpt lat="46.05609" lon="6.99491">
        <ele>1640</ele>
        <time>2022-08-28T02:35:26Z</time>
      </trkpt>
      <trkpt lat="46.0561" lon="6.99491">
        <ele>1640</ele>
        <time>2022-08-28T02:35:28Z</time>
      </trkpt>
      <trkpt lat="46.05611" lon="6.99492">
        <ele>1640</ele>
        <time>2022-08-28T02:35:30Z</time>
      </trkpt>
      <trkpt lat="46.05612" lon="6.99492">
        <ele>1640</ele>
        <time>2022-08-28T02:35:31Z</time>
      </trkpt>
      <trkpt lat="46.05613" lon="6.99492">
        <ele>1640</ele>
        <time>2022-08-28T02:35:32Z</time>
      </trkpt>
      <trkpt lat="46.05614" lon="6.99492">
        <ele>1640</ele>
        <time>2022-08-28T02:35:33Z</time>
      </trkpt>
      <trkpt lat="46.05616" lon="6.99492">
        <ele>1640</ele>
        <time>2022-08-28T02:35:34Z</time>
      </trkpt>
      <trkpt lat="46.05617" lon="6.99492">
        <ele>1640</ele>
        <time>2022-08-28T02:35:36Z</time>
      </trkpt>
      <trkpt lat="46.05618" lon="6.99493">
        <ele>1640</ele>
        <time>2022-08-28T02:35:37Z</time>
      </trkpt>
      <trkpt lat="46.0562" lon="6.99493">
        <ele>1640</ele>
        <time>2022-08-28T02:35:38Z</time>
      </trkpt>
      <trkpt lat="46.05621" lon="6.99493">
        <ele>1640</ele>
        <time>2022-08-28T02:35:39Z</time>
      </trkpt>
      <trkpt lat="46.05623" lon="6.99494">
        <ele>1640</ele>
        <time>2022-08-28T02:35:43Z</time>
      </trkpt>
      <trkpt lat="46.05631" lon="6.99489">
        <ele>1640</ele>
        <time>2022-08-28T02:35:56Z</time>
      </trkpt>
      <trkpt lat="46.05631" lon="6.99485">
        <ele>1640</ele>
        <time>2022-08-28T02:36:01Z</time>
      </trkpt>
      <trkpt lat="46.05633" lon="6.99483">
        <ele>1640</ele>
        <time>2022-08-28T02:36:03Z</time>
      </trkpt>
      <trkpt lat="46.05635" lon="6.99482">
        <ele>1633</ele>
        <time>2022-08-28T02:36:05Z</time>
      </trkpt>
      <trkpt lat="46.05636" lon="6.99481">
        <ele>1632</ele>
        <time>2022-08-28T02:36:08Z</time>
      </trkpt>
      <trkpt lat="46.05637" lon="6.99478">
        <ele>1632</ele>
        <time>2022-08-28T02:36:11Z</time>
      </trkpt>
      <trkpt lat="46.05639" lon="6.99476">
        <ele>1632</ele>
        <time>2022-08-28T02:36:14Z</time>
      </trkpt>
      <trkpt lat="46.05641" lon="6.99474">
        <ele>1631</ele>
        <time>2022-08-28T02:36:16Z</time>
      </trkpt>
      <trkpt lat="46.05642" lon="6.99472">
        <ele>1631</ele>
        <time>2022-08-28T02:36:18Z</time>
      </trkpt>
      <trkpt lat="46.05644" lon="6.9947">
        <ele>1630</ele>
        <time>2022-08-28T02:36:20Z</time>
      </trkpt>
      <trkpt lat="46.05647" lon="6.9947">
        <ele>1630</ele>
        <time>2022-08-28T02:36:22Z</time>
      </trkpt>
      <trkpt lat="46.05648" lon="6.99469">
        <ele>1630</ele>
        <time>2022-08-28T02:36:23Z</time>
      </trkpt>
      <trkpt lat="46.05649" lon="6.99468">
        <ele>1630</ele>
        <time>2022-08-28T02:36:25Z</time>
      </trkpt>
      <trkpt lat="46.05649" lon="6.99467">
        <ele>1630</ele>
        <time>2022-08-28T02:36:27Z</time>
      </trkpt>
      <trkpt lat="46.0565" lon="6.99466">
        <ele>1629</ele>
        <time>2022-08-28T02:36:28Z</time>
      </trkpt>
      <trkpt lat="46.05651" lon="6.99465">
        <ele>1629</ele>
        <time>2022-08-28T02:36:29Z</time>
      </trkpt>
      <trkpt lat="46.05652" lon="6.99465">
        <ele>1629</ele>
        <time>2022-08-28T02:36:30Z</time>
      </trkpt>
      <trkpt lat="46.05653" lon="6.99464">
        <ele>1628</ele>
        <time>2022-08-28T02:36:31Z</time>
      </trkpt>
      <trkpt lat="46.05655" lon="6.99462">
        <ele>1628</ele>
        <time>2022-08-28T02:36:35Z</time>
      </trkpt>
      <trkpt lat="46.05657" lon="6.9946">
        <ele>1627</ele>
        <time>2022-08-28T02:36:39Z</time>
      </trkpt>
      <trkpt lat="46.05658" lon="6.99457">
        <ele>1626</ele>
        <time>2022-08-28T02:36:41Z</time>
      </trkpt>
      <trkpt lat="46.05658" lon="6.99454">
        <ele>1626</ele>
        <time>2022-08-28T02:36:43Z</time>
      </trkpt>
      <trkpt lat="46.05658" lon="6.9945">
        <ele>1625</ele>
        <time>2022-08-28T02:36:45Z</time>
      </trkpt>
      <trkpt lat="46.05658" lon="6.99446">
        <ele>1625</ele>
        <time>2022-08-28T02:36:47Z</time>
      </trkpt>
      <trkpt lat="46.05657" lon="6.99442">
        <ele>1624</ele>
        <time>2022-08-28T02:36:49Z</time>
      </trkpt>
      <trkpt lat="46.05657" lon="6.99437">
        <ele>1623</ele>
        <time>2022-08-28T02:36:51Z</time>
      </trkpt>
      <trkpt lat="46.05656" lon="6.99433">
        <ele>1623</ele>
        <time>2022-08-28T02:36:53Z</time>
      </trkpt>
      <trkpt lat="46.05655" lon="6.99429">
        <ele>1622</ele>
        <time>2022-08-28T02:36:55Z</time>
      </trkpt>
      <trkpt lat="46.05655" lon="6.99425">
        <ele>1621</ele>
        <time>2022-08-28T02:36:57Z</time>
      </trkpt>
      <trkpt lat="46.05655" lon="6.99423">
        <ele>1621</ele>
        <time>2022-08-28T02:36:58Z</time>
      </trkpt>
      <trkpt lat="46.05654" lon="6.99421">
        <ele>1621</ele>
        <time>2022-08-28T02:36:59Z</time>
      </trkpt>
      <trkpt lat="46.05653" lon="6.99419">
        <ele>1621</ele>
        <time>2022-08-28T02:37:00Z</time>
      </trkpt>
      <trkpt lat="46.05652" lon="6.99416">
        <ele>1621</ele>
        <time>2022-08-28T02:37:02Z</time>
      </trkpt>
      <trkpt lat="46.0565" lon="6.99413">
        <ele>1621</ele>
        <time>2022-08-28T02:37:04Z</time>
      </trkpt>
      <trkpt lat="46.05648" lon="6.9941">
        <ele>1621</ele>
        <time>2022-08-28T02:37:06Z</time>
      </trkpt>
      <trkpt lat="46.05646" lon="6.99407">
        <ele>1621</ele>
        <time>2022-08-28T02:37:08Z</time>
      </trkpt>
      <trkpt lat="46.05645" lon="6.99406">
        <ele>1621</ele>
        <time>2022-08-28T02:37:10Z</time>
      </trkpt>
      <trkpt lat="46.05644" lon="6.99404">
        <ele>1620</ele>
        <time>2022-08-28T02:37:12Z</time>
      </trkpt>
      <trkpt lat="46.05642" lon="6.99403">
        <ele>1620</ele>
        <time>2022-08-28T02:37:13Z</time>
      </trkpt>
      <trkpt lat="46.05641" lon="6.99401">
        <ele>1620</ele>
        <time>2022-08-28T02:37:14Z</time>
      </trkpt>
      <trkpt lat="46.0564" lon="6.994">
        <ele>1620</ele>
        <time>2022-08-28T02:37:15Z</time>
      </trkpt>
      <trkpt lat="46.05639" lon="6.99398">
        <ele>1621</ele>
        <time>2022-08-28T02:37:16Z</time>
      </trkpt>
      <trkpt lat="46.05634" lon="6.99386">
        <ele>1621</ele>
        <time>2022-08-28T02:37:23Z</time>
      </trkpt>
      <trkpt lat="46.05633" lon="6.99384">
        <ele>1622</ele>
        <time>2022-08-28T02:37:24Z</time>
      </trkpt>
      <trkpt lat="46.05632" lon="6.99383">
        <ele>1622</ele>
        <time>2022-08-28T02:37:25Z</time>
      </trkpt>
      <trkpt lat="46.05631" lon="6.99381">
        <ele>1621</ele>
        <time>2022-08-28T02:37:26Z</time>
      </trkpt>
      <trkpt lat="46.0563" lon="6.9938">
        <ele>1622</ele>
        <time>2022-08-28T02:37:28Z</time>
      </trkpt>
      <trkpt lat="46.0563" lon="6.99379">
        <ele>1622</ele>
        <time>2022-08-28T02:37:29Z</time>
      </trkpt>
      <trkpt lat="46.05629" lon="6.99377">
        <ele>1622</ele>
        <time>2022-08-28T02:37:30Z</time>
      </trkpt>
      <trkpt lat="46.05628" lon="6.99376">
        <ele>1622</ele>
        <time>2022-08-28T02:37:31Z</time>
      </trkpt>
      <trkpt lat="46.05627" lon="6.99374">
        <ele>1622</ele>
        <time>2022-08-28T02:37:33Z</time>
      </trkpt>
      <trkpt lat="46.05626" lon="6.99372">
        <ele>1622</ele>
        <time>2022-08-28T02:37:34Z</time>
      </trkpt>
      <trkpt lat="46.05625" lon="6.99369">
        <ele>1622</ele>
        <time>2022-08-28T02:37:35Z</time>
      </trkpt>
      <trkpt lat="46.05625" lon="6.99367">
        <ele>1622</ele>
        <time>2022-08-28T02:37:36Z</time>
      </trkpt>
      <trkpt lat="46.05624" lon="6.99365">
        <ele>1622</ele>
        <time>2022-08-28T02:37:37Z</time>
      </trkpt>
      <trkpt lat="46.05623" lon="6.99363">
        <ele>1622</ele>
        <time>2022-08-28T02:37:38Z</time>
      </trkpt>
      <trkpt lat="46.05622" lon="6.99362">
        <ele>1623</ele>
        <time>2022-08-28T02:37:40Z</time>
      </trkpt>
      <trkpt lat="46.0562" lon="6.99361">
        <ele>1623</ele>
        <time>2022-08-28T02:37:41Z</time>
      </trkpt>
      <trkpt lat="46.05619" lon="6.9936">
        <ele>1623</ele>
        <time>2022-08-28T02:37:42Z</time>
      </trkpt>
      <trkpt lat="46.05617" lon="6.99359">
        <ele>1623</ele>
        <time>2022-08-28T02:37:43Z</time>
      </trkpt>
      <trkpt lat="46.05616" lon="6.99358">
        <ele>1623</ele>
        <time>2022-08-28T02:37:45Z</time>
      </trkpt>
      <trkpt lat="46.05614" lon="6.99357">
        <ele>1623</ele>
        <time>2022-08-28T02:37:46Z</time>
      </trkpt>
      <trkpt lat="46.05613" lon="6.99357">
        <ele>1623</ele>
        <time>2022-08-28T02:37:47Z</time>
      </trkpt>
      <trkpt lat="46.05612" lon="6.99356">
        <ele>1623</ele>
        <time>2022-08-28T02:37:48Z</time>
      </trkpt>
      <trkpt lat="46.05611" lon="6.99355">
        <ele>1623</ele>
        <time>2022-08-28T02:37:50Z</time>
      </trkpt>
      <trkpt lat="46.0561" lon="6.99355">
        <ele>1623</ele>
        <time>2022-08-28T02:37:51Z</time>
      </trkpt>
      <trkpt lat="46.05608" lon="6.99354">
        <ele>1624</ele>
        <time>2022-08-28T02:37:52Z</time>
      </trkpt>
      <trkpt lat="46.05607" lon="6.99354">
        <ele>1625</ele>
        <time>2022-08-28T02:37:53Z</time>
      </trkpt>
      <trkpt lat="46.05606" lon="6.99353">
        <ele>1625</ele>
        <time>2022-08-28T02:37:55Z</time>
      </trkpt>
      <trkpt lat="46.05605" lon="6.99352">
        <ele>1625</ele>
        <time>2022-08-28T02:37:56Z</time>
      </trkpt>
      <trkpt lat="46.05596" lon="6.9935">
        <ele>1626</ele>
        <time>2022-08-28T02:38:03Z</time>
      </trkpt>
      <trkpt lat="46.05595" lon="6.9935">
        <ele>1626</ele>
        <time>2022-08-28T02:38:04Z</time>
      </trkpt>
      <trkpt lat="46.05593" lon="6.9935">
        <ele>1626</ele>
        <time>2022-08-28T02:38:05Z</time>
      </trkpt>
      <trkpt lat="46.05592" lon="6.9935">
        <ele>1626</ele>
        <time>2022-08-28T02:38:06Z</time>
      </trkpt>
      <trkpt lat="46.0559" lon="6.9935">
        <ele>1626</ele>
        <time>2022-08-28T02:38:08Z</time>
      </trkpt>
      <trkpt lat="46.05589" lon="6.9935">
        <ele>1626</ele>
        <time>2022-08-28T02:38:09Z</time>
      </trkpt>
      <trkpt lat="46.05588" lon="6.9935">
        <ele>1626</ele>
        <time>2022-08-28T02:38:10Z</time>
      </trkpt>
      <trkpt lat="46.05586" lon="6.9935">
        <ele>1626</ele>
        <time>2022-08-28T02:38:11Z</time>
      </trkpt>
      <trkpt lat="46.05578" lon="6.99345">
        <ele>1627</ele>
        <time>2022-08-28T02:38:19Z</time>
      </trkpt>
      <trkpt lat="46.05576" lon="6.99345">
        <ele>1627</ele>
        <time>2022-08-28T02:38:21Z</time>
      </trkpt>
      <trkpt lat="46.05575" lon="6.99344">
        <ele>1627</ele>
        <time>2022-08-28T02:38:22Z</time>
      </trkpt>
      <trkpt lat="46.05574" lon="6.99344">
        <ele>1628</ele>
        <time>2022-08-28T02:38:23Z</time>
      </trkpt>
      <trkpt lat="46.05573" lon="6.99343">
        <ele>1628</ele>
        <time>2022-08-28T02:38:24Z</time>
      </trkpt>
      <trkpt lat="46.05571" lon="6.99343">
        <ele>1628</ele>
        <time>2022-08-28T02:38:26Z</time>
      </trkpt>
      <trkpt lat="46.0557" lon="6.99343">
        <ele>1628</ele>
        <time>2022-08-28T02:38:27Z</time>
      </trkpt>
      <trkpt lat="46.05569" lon="6.99342">
        <ele>1629</ele>
        <time>2022-08-28T02:38:28Z</time>
      </trkpt>
      <trkpt lat="46.05567" lon="6.99341">
        <ele>1629</ele>
        <time>2022-08-28T02:38:29Z</time>
      </trkpt>
      <trkpt lat="46.05566" lon="6.99341">
        <ele>1629</ele>
        <time>2022-08-28T02:38:30Z</time>
      </trkpt>
      <trkpt lat="46.05565" lon="6.9934">
        <ele>1629</ele>
        <time>2022-08-28T02:38:31Z</time>
      </trkpt>
      <trkpt lat="46.05563" lon="6.99339">
        <ele>1629</ele>
        <time>2022-08-28T02:38:33Z</time>
      </trkpt>
      <trkpt lat="46.05562" lon="6.99339">
        <ele>1629</ele>
        <time>2022-08-28T02:38:35Z</time>
      </trkpt>
      <trkpt lat="46.05561" lon="6.99338">
        <ele>1629</ele>
        <time>2022-08-28T02:38:36Z</time>
      </trkpt>
      <trkpt lat="46.0556" lon="6.99337">
        <ele>1630</ele>
        <time>2022-08-28T02:38:37Z</time>
      </trkpt>
      <trkpt lat="46.05558" lon="6.99336">
        <ele>1630</ele>
        <time>2022-08-28T02:38:38Z</time>
      </trkpt>
      <trkpt lat="46.05557" lon="6.99336">
        <ele>1630</ele>
        <time>2022-08-28T02:38:39Z</time>
      </trkpt>
      <trkpt lat="46.05555" lon="6.99335">
        <ele>1630</ele>
        <time>2022-08-28T02:38:40Z</time>
      </trkpt>
      <trkpt lat="46.05554" lon="6.99334">
        <ele>1630</ele>
        <time>2022-08-28T02:38:42Z</time>
      </trkpt>
      <trkpt lat="46.05552" lon="6.99333">
        <ele>1630</ele>
        <time>2022-08-28T02:38:44Z</time>
      </trkpt>
      <trkpt lat="46.05551" lon="6.99332">
        <ele>1630</ele>
        <time>2022-08-28T02:38:45Z</time>
      </trkpt>
      <trkpt lat="46.05549" lon="6.99331">
        <ele>1630</ele>
        <time>2022-08-28T02:38:47Z</time>
      </trkpt>
      <trkpt lat="46.05547" lon="6.99331">
        <ele>1631</ele>
        <time>2022-08-28T02:38:49Z</time>
      </trkpt>
      <trkpt lat="46.05546" lon="6.9933">
        <ele>1631</ele>
        <time>2022-08-28T02:38:50Z</time>
      </trkpt>
      <trkpt lat="46.05544" lon="6.99329">
        <ele>1631</ele>
        <time>2022-08-28T02:38:51Z</time>
      </trkpt>
      <trkpt lat="46.05542" lon="6.99328">
        <ele>1631</ele>
        <time>2022-08-28T02:38:52Z</time>
      </trkpt>
      <trkpt lat="46.05541" lon="6.99327">
        <ele>1631</ele>
        <time>2022-08-28T02:38:54Z</time>
      </trkpt>
      <trkpt lat="46.0554" lon="6.99326">
        <ele>1631</ele>
        <time>2022-08-28T02:38:56Z</time>
      </trkpt>
      <trkpt lat="46.05539" lon="6.99325">
        <ele>1631</ele>
        <time>2022-08-28T02:38:57Z</time>
      </trkpt>
      <trkpt lat="46.05538" lon="6.99324">
        <ele>1631</ele>
        <time>2022-08-28T02:38:58Z</time>
      </trkpt>
      <trkpt lat="46.05537" lon="6.99324">
        <ele>1632</ele>
        <time>2022-08-28T02:38:59Z</time>
      </trkpt>
      <trkpt lat="46.05535" lon="6.99323">
        <ele>1632</ele>
        <time>2022-08-28T02:39:00Z</time>
      </trkpt>
      <trkpt lat="46.05534" lon="6.99322">
        <ele>1633</ele>
        <time>2022-08-28T02:39:01Z</time>
      </trkpt>
      <trkpt lat="46.05532" lon="6.99321">
        <ele>1633</ele>
        <time>2022-08-28T02:39:02Z</time>
      </trkpt>
      <trkpt lat="46.05531" lon="6.9932">
        <ele>1633</ele>
        <time>2022-08-28T02:39:03Z</time>
      </trkpt>
      <trkpt lat="46.05529" lon="6.9932">
        <ele>1633</ele>
        <time>2022-08-28T02:39:04Z</time>
      </trkpt>
      <trkpt lat="46.05527" lon="6.99319">
        <ele>1633</ele>
        <time>2022-08-28T02:39:06Z</time>
      </trkpt>
      <trkpt lat="46.05525" lon="6.99319">
        <ele>1633</ele>
        <time>2022-08-28T02:39:07Z</time>
      </trkpt>
      <trkpt lat="46.05523" lon="6.99317">
        <ele>1633</ele>
        <time>2022-08-28T02:39:09Z</time>
      </trkpt>
      <trkpt lat="46.05522" lon="6.99316">
        <ele>1633</ele>
        <time>2022-08-28T02:39:10Z</time>
      </trkpt>
      <trkpt lat="46.05521" lon="6.99315">
        <ele>1634</ele>
        <time>2022-08-28T02:39:11Z</time>
      </trkpt>
      <trkpt lat="46.05519" lon="6.99314">
        <ele>1635</ele>
        <time>2022-08-28T02:39:12Z</time>
      </trkpt>
      <trkpt lat="46.05518" lon="6.99312">
        <ele>1635</ele>
        <time>2022-08-28T02:39:14Z</time>
      </trkpt>
      <trkpt lat="46.05516" lon="6.99311">
        <ele>1634</ele>
        <time>2022-08-28T02:39:15Z</time>
      </trkpt>
      <trkpt lat="46.05515" lon="6.99311">
        <ele>1634</ele>
        <time>2022-08-28T02:39:16Z</time>
      </trkpt>
      <trkpt lat="46.05514" lon="6.99311">
        <ele>1635</ele>
        <time>2022-08-28T02:39:17Z</time>
      </trkpt>
      <trkpt lat="46.05513" lon="6.99311">
        <ele>1635</ele>
        <time>2022-08-28T02:39:19Z</time>
      </trkpt>
      <trkpt lat="46.05511" lon="6.99311">
        <ele>1635</ele>
        <time>2022-08-28T02:39:20Z</time>
      </trkpt>
      <trkpt lat="46.0551" lon="6.99311">
        <ele>1635</ele>
        <time>2022-08-28T02:39:21Z</time>
      </trkpt>
      <trkpt lat="46.05509" lon="6.99311">
        <ele>1635</ele>
        <time>2022-08-28T02:39:22Z</time>
      </trkpt>
      <trkpt lat="46.05508" lon="6.99311">
        <ele>1635</ele>
        <time>2022-08-28T02:39:23Z</time>
      </trkpt>
      <trkpt lat="46.05507" lon="6.99311">
        <ele>1635</ele>
        <time>2022-08-28T02:39:24Z</time>
      </trkpt>
      <trkpt lat="46.05505" lon="6.99311">
        <ele>1636</ele>
        <time>2022-08-28T02:39:25Z</time>
      </trkpt>
      <trkpt lat="46.05503" lon="6.99311">
        <ele>1636</ele>
        <time>2022-08-28T02:39:26Z</time>
      </trkpt>
      <trkpt lat="46.05502" lon="6.99311">
        <ele>1636</ele>
        <time>2022-08-28T02:39:27Z</time>
      </trkpt>
      <trkpt lat="46.055" lon="6.99311">
        <ele>1636</ele>
        <time>2022-08-28T02:39:29Z</time>
      </trkpt>
      <trkpt lat="46.05499" lon="6.9931">
        <ele>1636</ele>
        <time>2022-08-28T02:39:30Z</time>
      </trkpt>
      <trkpt lat="46.05497" lon="6.9931">
        <ele>1636</ele>
        <time>2022-08-28T02:39:31Z</time>
      </trkpt>
      <trkpt lat="46.05488" lon="6.99308">
        <ele>1637</ele>
        <time>2022-08-28T02:39:39Z</time>
      </trkpt>
      <trkpt lat="46.05478" lon="6.99307">
        <ele>1638</ele>
        <time>2022-08-28T02:39:47Z</time>
      </trkpt>
      <trkpt lat="46.05477" lon="6.99307">
        <ele>1638</ele>
        <time>2022-08-28T02:39:49Z</time>
      </trkpt>
      <trkpt lat="46.05475" lon="6.99307">
        <ele>1638</ele>
        <time>2022-08-28T02:39:50Z</time>
      </trkpt>
      <trkpt lat="46.05474" lon="6.99306">
        <ele>1639</ele>
        <time>2022-08-28T02:39:51Z</time>
      </trkpt>
      <trkpt lat="46.05472" lon="6.99306">
        <ele>1639</ele>
        <time>2022-08-28T02:39:52Z</time>
      </trkpt>
      <trkpt lat="46.05471" lon="6.99306">
        <ele>1639</ele>
        <time>2022-08-28T02:39:54Z</time>
      </trkpt>
      <trkpt lat="46.05469" lon="6.99305">
        <ele>1639</ele>
        <time>2022-08-28T02:39:55Z</time>
      </trkpt>
      <trkpt lat="46.05468" lon="6.99305">
        <ele>1639</ele>
        <time>2022-08-28T02:39:56Z</time>
      </trkpt>
      <trkpt lat="46.05467" lon="6.99305">
        <ele>1639</ele>
        <time>2022-08-28T02:39:57Z</time>
      </trkpt>
      <trkpt lat="46.05465" lon="6.99304">
        <ele>1639</ele>
        <time>2022-08-28T02:39:59Z</time>
      </trkpt>
      <trkpt lat="46.05464" lon="6.99304">
        <ele>1639</ele>
        <time>2022-08-28T02:40:00Z</time>
      </trkpt>
      <trkpt lat="46.05463" lon="6.99303">
        <ele>1640</ele>
        <time>2022-08-28T02:40:01Z</time>
      </trkpt>
      <trkpt lat="46.05462" lon="6.99303">
        <ele>1640</ele>
        <time>2022-08-28T02:40:03Z</time>
      </trkpt>
      <trkpt lat="46.0546" lon="6.99303">
        <ele>1639</ele>
        <time>2022-08-28T02:40:04Z</time>
      </trkpt>
      <trkpt lat="46.05459" lon="6.99302">
        <ele>1640</ele>
        <time>2022-08-28T02:40:05Z</time>
      </trkpt>
      <trkpt lat="46.05458" lon="6.99301">
        <ele>1640</ele>
        <time>2022-08-28T02:40:06Z</time>
      </trkpt>
      <trkpt lat="46.05456" lon="6.99301">
        <ele>1640</ele>
        <time>2022-08-28T02:40:07Z</time>
      </trkpt>
      <trkpt lat="46.05455" lon="6.993">
        <ele>1641</ele>
        <time>2022-08-28T02:40:09Z</time>
      </trkpt>
      <trkpt lat="46.05454" lon="6.99299">
        <ele>1641</ele>
        <time>2022-08-28T02:40:10Z</time>
      </trkpt>
      <trkpt lat="46.05452" lon="6.99299">
        <ele>1641</ele>
        <time>2022-08-28T02:40:11Z</time>
      </trkpt>
      <trkpt lat="46.05451" lon="6.99298">
        <ele>1641</ele>
        <time>2022-08-28T02:40:12Z</time>
      </trkpt>
      <trkpt lat="46.0545" lon="6.99298">
        <ele>1641</ele>
        <time>2022-08-28T02:40:14Z</time>
      </trkpt>
      <trkpt lat="46.05448" lon="6.99297">
        <ele>1641</ele>
        <time>2022-08-28T02:40:15Z</time>
      </trkpt>
      <trkpt lat="46.05447" lon="6.99296">
        <ele>1641</ele>
        <time>2022-08-28T02:40:16Z</time>
      </trkpt>
      <trkpt lat="46.05445" lon="6.99296">
        <ele>1641</ele>
        <time>2022-08-28T02:40:17Z</time>
      </trkpt>
      <trkpt lat="46.05444" lon="6.99295">
        <ele>1642</ele>
        <time>2022-08-28T02:40:19Z</time>
      </trkpt>
      <trkpt lat="46.05442" lon="6.99294">
        <ele>1642</ele>
        <time>2022-08-28T02:40:20Z</time>
      </trkpt>
      <trkpt lat="46.05441" lon="6.99293">
        <ele>1642</ele>
        <time>2022-08-28T02:40:22Z</time>
      </trkpt>
      <trkpt lat="46.05439" lon="6.99292">
        <ele>1642</ele>
        <time>2022-08-28T02:40:23Z</time>
      </trkpt>
      <trkpt lat="46.05438" lon="6.99291">
        <ele>1642</ele>
        <time>2022-08-28T02:40:24Z</time>
      </trkpt>
      <trkpt lat="46.05437" lon="6.9929">
        <ele>1642</ele>
        <time>2022-08-28T02:40:26Z</time>
      </trkpt>
      <trkpt lat="46.05435" lon="6.99289">
        <ele>1643</ele>
        <time>2022-08-28T02:40:27Z</time>
      </trkpt>
      <trkpt lat="46.05434" lon="6.99288">
        <ele>1643</ele>
        <time>2022-08-28T02:40:28Z</time>
      </trkpt>
      <trkpt lat="46.05433" lon="6.99287">
        <ele>1643</ele>
        <time>2022-08-28T02:40:29Z</time>
      </trkpt>
      <trkpt lat="46.05431" lon="6.99287">
        <ele>1643</ele>
        <time>2022-08-28T02:40:31Z</time>
      </trkpt>
      <trkpt lat="46.0543" lon="6.99286">
        <ele>1643</ele>
        <time>2022-08-28T02:40:32Z</time>
      </trkpt>
      <trkpt lat="46.05429" lon="6.99286">
        <ele>1643</ele>
        <time>2022-08-28T02:40:33Z</time>
      </trkpt>
      <trkpt lat="46.05428" lon="6.99285">
        <ele>1643</ele>
        <time>2022-08-28T02:40:34Z</time>
      </trkpt>
      <trkpt lat="46.05426" lon="6.99284">
        <ele>1644</ele>
        <time>2022-08-28T02:40:36Z</time>
      </trkpt>
      <trkpt lat="46.05425" lon="6.99284">
        <ele>1644</ele>
        <time>2022-08-28T02:40:37Z</time>
      </trkpt>
      <trkpt lat="46.05424" lon="6.99284">
        <ele>1644</ele>
        <time>2022-08-28T02:40:38Z</time>
      </trkpt>
      <trkpt lat="46.05423" lon="6.99284">
        <ele>1644</ele>
        <time>2022-08-28T02:40:39Z</time>
      </trkpt>
      <trkpt lat="46.05421" lon="6.99284">
        <ele>1644</ele>
        <time>2022-08-28T02:40:41Z</time>
      </trkpt>
      <trkpt lat="46.0542" lon="6.99284">
        <ele>1645</ele>
        <time>2022-08-28T02:40:42Z</time>
      </trkpt>
      <trkpt lat="46.05419" lon="6.99284">
        <ele>1645</ele>
        <time>2022-08-28T02:40:43Z</time>
      </trkpt>
      <trkpt lat="46.05418" lon="6.99284">
        <ele>1645</ele>
        <time>2022-08-28T02:40:44Z</time>
      </trkpt>
      <trkpt lat="46.05416" lon="6.99284">
        <ele>1645</ele>
        <time>2022-08-28T02:40:46Z</time>
      </trkpt>
      <trkpt lat="46.05415" lon="6.99284">
        <ele>1646</ele>
        <time>2022-08-28T02:40:47Z</time>
      </trkpt>
      <trkpt lat="46.05414" lon="6.99283">
        <ele>1646</ele>
        <time>2022-08-28T02:40:48Z</time>
      </trkpt>
      <trkpt lat="46.05413" lon="6.99282">
        <ele>1646</ele>
        <time>2022-08-28T02:40:49Z</time>
      </trkpt>
      <trkpt lat="46.05412" lon="6.99281">
        <ele>1646</ele>
        <time>2022-08-28T02:40:50Z</time>
      </trkpt>
      <trkpt lat="46.0541" lon="6.9928">
        <ele>1646</ele>
        <time>2022-08-28T02:40:52Z</time>
      </trkpt>
      <trkpt lat="46.05409" lon="6.99279">
        <ele>1646</ele>
        <time>2022-08-28T02:40:54Z</time>
      </trkpt>
      <trkpt lat="46.05408" lon="6.99278">
        <ele>1646</ele>
        <time>2022-08-28T02:40:55Z</time>
      </trkpt>
      <trkpt lat="46.05407" lon="6.99277">
        <ele>1646</ele>
        <time>2022-08-28T02:40:56Z</time>
      </trkpt>
      <trkpt lat="46.05405" lon="6.99277">
        <ele>1646</ele>
        <time>2022-08-28T02:40:57Z</time>
      </trkpt>
      <trkpt lat="46.05403" lon="6.99277">
        <ele>1647</ele>
        <time>2022-08-28T02:40:59Z</time>
      </trkpt>
      <trkpt lat="46.05401" lon="6.99276">
        <ele>1647</ele>
        <time>2022-08-28T02:41:00Z</time>
      </trkpt>
      <trkpt lat="46.05399" lon="6.99276">
        <ele>1647</ele>
        <time>2022-08-28T02:41:01Z</time>
      </trkpt>
      <trkpt lat="46.05397" lon="6.99275">
        <ele>1647</ele>
        <time>2022-08-28T02:41:02Z</time>
      </trkpt>
      <trkpt lat="46.05395" lon="6.99275">
        <ele>1647</ele>
        <time>2022-08-28T02:41:04Z</time>
      </trkpt>
      <trkpt lat="46.05394" lon="6.99274">
        <ele>1647</ele>
        <time>2022-08-28T02:41:05Z</time>
      </trkpt>
      <trkpt lat="46.05392" lon="6.99274">
        <ele>1648</ele>
        <time>2022-08-28T02:41:06Z</time>
      </trkpt>
      <trkpt lat="46.0539" lon="6.99273">
        <ele>1648</ele>
        <time>2022-08-28T02:41:07Z</time>
      </trkpt>
      <trkpt lat="46.05389" lon="6.99273">
        <ele>1648</ele>
        <time>2022-08-28T02:41:09Z</time>
      </trkpt>
      <trkpt lat="46.05387" lon="6.99272">
        <ele>1648</ele>
        <time>2022-08-28T02:41:10Z</time>
      </trkpt>
      <trkpt lat="46.05385" lon="6.99272">
        <ele>1648</ele>
        <time>2022-08-28T02:41:11Z</time>
      </trkpt>
      <trkpt lat="46.05384" lon="6.99272">
        <ele>1648</ele>
        <time>2022-08-28T02:41:12Z</time>
      </trkpt>
      <trkpt lat="46.05382" lon="6.99272">
        <ele>1648</ele>
        <time>2022-08-28T02:41:14Z</time>
      </trkpt>
      <trkpt lat="46.0538" lon="6.99271">
        <ele>1648</ele>
        <time>2022-08-28T02:41:15Z</time>
      </trkpt>
      <trkpt lat="46.05379" lon="6.99271">
        <ele>1648</ele>
        <time>2022-08-28T02:41:16Z</time>
      </trkpt>
      <trkpt lat="46.05377" lon="6.99271">
        <ele>1648</ele>
        <time>2022-08-28T02:41:17Z</time>
      </trkpt>
      <trkpt lat="46.05376" lon="6.99271">
        <ele>1648</ele>
        <time>2022-08-28T02:41:19Z</time>
      </trkpt>
      <trkpt lat="46.05375" lon="6.9927">
        <ele>1649</ele>
        <time>2022-08-28T02:41:21Z</time>
      </trkpt>
      <trkpt lat="46.05373" lon="6.9927">
        <ele>1649</ele>
        <time>2022-08-28T02:41:22Z</time>
      </trkpt>
      <trkpt lat="46.05372" lon="6.9927">
        <ele>1649</ele>
        <time>2022-08-28T02:41:23Z</time>
      </trkpt>
      <trkpt lat="46.05371" lon="6.9927">
        <ele>1649</ele>
        <time>2022-08-28T02:41:24Z</time>
      </trkpt>
      <trkpt lat="46.0537" lon="6.99269">
        <ele>1650</ele>
        <time>2022-08-28T02:41:26Z</time>
      </trkpt>
      <trkpt lat="46.05368" lon="6.99269">
        <ele>1650</ele>
        <time>2022-08-28T02:41:27Z</time>
      </trkpt>
      <trkpt lat="46.05367" lon="6.99269">
        <ele>1650</ele>
        <time>2022-08-28T02:41:28Z</time>
      </trkpt>
      <trkpt lat="46.05366" lon="6.99268">
        <ele>1650</ele>
        <time>2022-08-28T02:41:29Z</time>
      </trkpt>
      <trkpt lat="46.05365" lon="6.99268">
        <ele>1650</ele>
        <time>2022-08-28T02:41:30Z</time>
      </trkpt>
      <trkpt lat="46.05364" lon="6.99267">
        <ele>1650</ele>
        <time>2022-08-28T02:41:31Z</time>
      </trkpt>
      <trkpt lat="46.05363" lon="6.99267">
        <ele>1650</ele>
        <time>2022-08-28T02:41:33Z</time>
      </trkpt>
      <trkpt lat="46.05362" lon="6.99266">
        <ele>1650</ele>
        <time>2022-08-28T02:41:34Z</time>
      </trkpt>
      <trkpt lat="46.05361" lon="6.99265">
        <ele>1651</ele>
        <time>2022-08-28T02:41:35Z</time>
      </trkpt>
      <trkpt lat="46.0536" lon="6.99265">
        <ele>1651</ele>
        <time>2022-08-28T02:41:36Z</time>
      </trkpt>
      <trkpt lat="46.05359" lon="6.99264">
        <ele>1651</ele>
        <time>2022-08-28T02:41:37Z</time>
      </trkpt>
      <trkpt lat="46.05358" lon="6.99263">
        <ele>1651</ele>
        <time>2022-08-28T02:41:38Z</time>
      </trkpt>
      <trkpt lat="46.05348" lon="6.9926">
        <ele>1652</ele>
        <time>2022-08-28T02:41:45Z</time>
      </trkpt>
      <trkpt lat="46.05347" lon="6.99259">
        <ele>1652</ele>
        <time>2022-08-28T02:41:46Z</time>
      </trkpt>
      <trkpt lat="46.05345" lon="6.99258">
        <ele>1652</ele>
        <time>2022-08-28T02:41:47Z</time>
      </trkpt>
      <trkpt lat="46.05344" lon="6.99257">
        <ele>1652</ele>
        <time>2022-08-28T02:41:48Z</time>
      </trkpt>
      <trkpt lat="46.05342" lon="6.99256">
        <ele>1653</ele>
        <time>2022-08-28T02:41:50Z</time>
      </trkpt>
      <trkpt lat="46.05341" lon="6.99256">
        <ele>1653</ele>
        <time>2022-08-28T02:41:52Z</time>
      </trkpt>
      <trkpt lat="46.05339" lon="6.99255">
        <ele>1653</ele>
        <time>2022-08-28T02:41:53Z</time>
      </trkpt>
      <trkpt lat="46.05338" lon="6.99255">
        <ele>1653</ele>
        <time>2022-08-28T02:41:54Z</time>
      </trkpt>
      <trkpt lat="46.05337" lon="6.99255">
        <ele>1653</ele>
        <time>2022-08-28T02:41:55Z</time>
      </trkpt>
      <trkpt lat="46.05336" lon="6.99254">
        <ele>1653</ele>
        <time>2022-08-28T02:41:57Z</time>
      </trkpt>
      <trkpt lat="46.05335" lon="6.99254">
        <ele>1653</ele>
        <time>2022-08-28T02:41:58Z</time>
      </trkpt>
      <trkpt lat="46.05334" lon="6.99254">
        <ele>1653</ele>
        <time>2022-08-28T02:41:59Z</time>
      </trkpt>
      <trkpt lat="46.05332" lon="6.99254">
        <ele>1653</ele>
        <time>2022-08-28T02:42:00Z</time>
      </trkpt>
      <trkpt lat="46.05331" lon="6.99254">
        <ele>1653</ele>
        <time>2022-08-28T02:42:01Z</time>
      </trkpt>
      <trkpt lat="46.0533" lon="6.99254">
        <ele>1653</ele>
        <time>2022-08-28T02:42:02Z</time>
      </trkpt>
      <trkpt lat="46.05329" lon="6.99253">
        <ele>1653</ele>
        <time>2022-08-28T02:42:04Z</time>
      </trkpt>
      <trkpt lat="46.05327" lon="6.99253">
        <ele>1654</ele>
        <time>2022-08-28T02:42:05Z</time>
      </trkpt>
      <trkpt lat="46.05326" lon="6.99252">
        <ele>1654</ele>
        <time>2022-08-28T02:42:06Z</time>
      </trkpt>
      <trkpt lat="46.05324" lon="6.99252">
        <ele>1654</ele>
        <time>2022-08-28T02:42:07Z</time>
      </trkpt>
      <trkpt lat="46.05322" lon="6.99252">
        <ele>1654</ele>
        <time>2022-08-28T02:42:09Z</time>
      </trkpt>
      <trkpt lat="46.05321" lon="6.99251">
        <ele>1655</ele>
        <time>2022-08-28T02:42:10Z</time>
      </trkpt>
      <trkpt lat="46.05319" lon="6.99251">
        <ele>1655</ele>
        <time>2022-08-28T02:42:11Z</time>
      </trkpt>
      <trkpt lat="46.05318" lon="6.99251">
        <ele>1655</ele>
        <time>2022-08-28T02:42:12Z</time>
      </trkpt>
      <trkpt lat="46.05317" lon="6.9925">
        <ele>1655</ele>
        <time>2022-08-28T02:42:13Z</time>
      </trkpt>
      <trkpt lat="46.05315" lon="6.9925">
        <ele>1655</ele>
        <time>2022-08-28T02:42:15Z</time>
      </trkpt>
      <trkpt lat="46.05314" lon="6.9925">
        <ele>1655</ele>
        <time>2022-08-28T02:42:16Z</time>
      </trkpt>
      <trkpt lat="46.05312" lon="6.99249">
        <ele>1655</ele>
        <time>2022-08-28T02:42:17Z</time>
      </trkpt>
      <trkpt lat="46.05311" lon="6.99249">
        <ele>1655</ele>
        <time>2022-08-28T02:42:18Z</time>
      </trkpt>
      <trkpt lat="46.0531" lon="6.99248">
        <ele>1656</ele>
        <time>2022-08-28T02:42:20Z</time>
      </trkpt>
      <trkpt lat="46.05308" lon="6.99248">
        <ele>1656</ele>
        <time>2022-08-28T02:42:21Z</time>
      </trkpt>
      <trkpt lat="46.05307" lon="6.99247">
        <ele>1656</ele>
        <time>2022-08-28T02:42:23Z</time>
      </trkpt>
      <trkpt lat="46.05306" lon="6.99246">
        <ele>1656</ele>
        <time>2022-08-28T02:42:24Z</time>
      </trkpt>
      <trkpt lat="46.05304" lon="6.99245">
        <ele>1656</ele>
        <time>2022-08-28T02:42:25Z</time>
      </trkpt>
      <trkpt lat="46.05303" lon="6.99245">
        <ele>1656</ele>
        <time>2022-08-28T02:42:26Z</time>
      </trkpt>
      <trkpt lat="46.05302" lon="6.99244">
        <ele>1656</ele>
        <time>2022-08-28T02:42:27Z</time>
      </trkpt>
      <trkpt lat="46.053" lon="6.99243">
        <ele>1656</ele>
        <time>2022-08-28T02:42:29Z</time>
      </trkpt>
      <trkpt lat="46.05299" lon="6.99243">
        <ele>1657</ele>
        <time>2022-08-28T02:42:30Z</time>
      </trkpt>
      <trkpt lat="46.05297" lon="6.99242">
        <ele>1657</ele>
        <time>2022-08-28T02:42:31Z</time>
      </trkpt>
      <trkpt lat="46.05296" lon="6.99241">
        <ele>1657</ele>
        <time>2022-08-28T02:42:32Z</time>
      </trkpt>
      <trkpt lat="46.05294" lon="6.9924">
        <ele>1657</ele>
        <time>2022-08-28T02:42:34Z</time>
      </trkpt>
      <trkpt lat="46.05292" lon="6.9924">
        <ele>1657</ele>
        <time>2022-08-28T02:42:35Z</time>
      </trkpt>
      <trkpt lat="46.05291" lon="6.9924">
        <ele>1657</ele>
        <time>2022-08-28T02:42:36Z</time>
      </trkpt>
      <trkpt lat="46.0529" lon="6.99239">
        <ele>1657</ele>
        <time>2022-08-28T02:42:37Z</time>
      </trkpt>
      <trkpt lat="46.05289" lon="6.99239">
        <ele>1657</ele>
        <time>2022-08-28T02:42:39Z</time>
      </trkpt>
      <trkpt lat="46.05288" lon="6.99239">
        <ele>1658</ele>
        <time>2022-08-28T02:42:40Z</time>
      </trkpt>
      <trkpt lat="46.05286" lon="6.99239">
        <ele>1658</ele>
        <time>2022-08-28T02:42:41Z</time>
      </trkpt>
      <trkpt lat="46.05285" lon="6.99239">
        <ele>1658</ele>
        <time>2022-08-28T02:42:42Z</time>
      </trkpt>
      <trkpt lat="46.05284" lon="6.99239">
        <ele>1658</ele>
        <time>2022-08-28T02:42:43Z</time>
      </trkpt>
      <trkpt lat="46.05283" lon="6.99239">
        <ele>1658</ele>
        <time>2022-08-28T02:42:44Z</time>
      </trkpt>
      <trkpt lat="46.05281" lon="6.99239">
        <ele>1659</ele>
        <time>2022-08-28T02:42:45Z</time>
      </trkpt>
      <trkpt lat="46.0528" lon="6.99239">
        <ele>1659</ele>
        <time>2022-08-28T02:42:46Z</time>
      </trkpt>
      <trkpt lat="46.05278" lon="6.99239">
        <ele>1659</ele>
        <time>2022-08-28T02:42:47Z</time>
      </trkpt>
      <trkpt lat="46.05276" lon="6.99239">
        <ele>1659</ele>
        <time>2022-08-28T02:42:49Z</time>
      </trkpt>
      <trkpt lat="46.05275" lon="6.99239">
        <ele>1659</ele>
        <time>2022-08-28T02:42:50Z</time>
      </trkpt>
      <trkpt lat="46.05273" lon="6.99239">
        <ele>1660</ele>
        <time>2022-08-28T02:42:51Z</time>
      </trkpt>
      <trkpt lat="46.05272" lon="6.99239">
        <ele>1660</ele>
        <time>2022-08-28T02:42:52Z</time>
      </trkpt>
      <trkpt lat="46.05271" lon="6.9924">
        <ele>1660</ele>
        <time>2022-08-28T02:42:54Z</time>
      </trkpt>
      <trkpt lat="46.0527" lon="6.9924">
        <ele>1660</ele>
        <time>2022-08-28T02:42:56Z</time>
      </trkpt>
      <trkpt lat="46.05268" lon="6.9924">
        <ele>1660</ele>
        <time>2022-08-28T02:42:57Z</time>
      </trkpt>
      <trkpt lat="46.05267" lon="6.9924">
        <ele>1661</ele>
        <time>2022-08-28T02:42:58Z</time>
      </trkpt>
      <trkpt lat="46.05266" lon="6.9924">
        <ele>1661</ele>
        <time>2022-08-28T02:42:59Z</time>
      </trkpt>
      <trkpt lat="46.05265" lon="6.9924">
        <ele>1661</ele>
        <time>2022-08-28T02:43:00Z</time>
      </trkpt>
      <trkpt lat="46.05264" lon="6.9924">
        <ele>1661</ele>
        <time>2022-08-28T02:43:01Z</time>
      </trkpt>
      <trkpt lat="46.05262" lon="6.99241">
        <ele>1661</ele>
        <time>2022-08-28T02:43:02Z</time>
      </trkpt>
      <trkpt lat="46.05261" lon="6.99241">
        <ele>1661</ele>
        <time>2022-08-28T02:43:04Z</time>
      </trkpt>
      <trkpt lat="46.0526" lon="6.99241">
        <ele>1661</ele>
        <time>2022-08-28T02:43:05Z</time>
      </trkpt>
      <trkpt lat="46.05259" lon="6.99241">
        <ele>1661</ele>
        <time>2022-08-28T02:43:06Z</time>
      </trkpt>
      <trkpt lat="46.05258" lon="6.99241">
        <ele>1661</ele>
        <time>2022-08-28T02:43:07Z</time>
      </trkpt>
      <trkpt lat="46.05256" lon="6.99241">
        <ele>1661</ele>
        <time>2022-08-28T02:43:08Z</time>
      </trkpt>
      <trkpt lat="46.05255" lon="6.99241">
        <ele>1661</ele>
        <time>2022-08-28T02:43:09Z</time>
      </trkpt>
      <trkpt lat="46.05253" lon="6.99242">
        <ele>1661</ele>
        <time>2022-08-28T02:43:10Z</time>
      </trkpt>
      <trkpt lat="46.05251" lon="6.99243">
        <ele>1661</ele>
        <time>2022-08-28T02:43:12Z</time>
      </trkpt>
      <trkpt lat="46.05247" lon="6.99244">
        <ele>1662</ele>
        <time>2022-08-28T02:43:15Z</time>
      </trkpt>
      <trkpt lat="46.05237" lon="6.99247">
        <ele>1663</ele>
        <time>2022-08-28T02:43:22Z</time>
      </trkpt>
      <trkpt lat="46.05236" lon="6.99247">
        <ele>1663</ele>
        <time>2022-08-28T02:43:23Z</time>
      </trkpt>
      <trkpt lat="46.05235" lon="6.99247">
        <ele>1663</ele>
        <time>2022-08-28T02:43:24Z</time>
      </trkpt>
      <trkpt lat="46.05233" lon="6.99248">
        <ele>1663</ele>
        <time>2022-08-28T02:43:25Z</time>
      </trkpt>
      <trkpt lat="46.05232" lon="6.99248">
        <ele>1663</ele>
        <time>2022-08-28T02:43:27Z</time>
      </trkpt>
      <trkpt lat="46.05231" lon="6.99248">
        <ele>1663</ele>
        <time>2022-08-28T02:43:28Z</time>
      </trkpt>
      <trkpt lat="46.05229" lon="6.99248">
        <ele>1663</ele>
        <time>2022-08-28T02:43:29Z</time>
      </trkpt>
      <trkpt lat="46.05228" lon="6.99248">
        <ele>1663</ele>
        <time>2022-08-28T02:43:30Z</time>
      </trkpt>
      <trkpt lat="46.05226" lon="6.99248">
        <ele>1663</ele>
        <time>2022-08-28T02:43:32Z</time>
      </trkpt>
      <trkpt lat="46.05223" lon="6.99248">
        <ele>1663</ele>
        <time>2022-08-28T02:43:34Z</time>
      </trkpt>
      <trkpt lat="46.05221" lon="6.99249">
        <ele>1664</ele>
        <time>2022-08-28T02:43:36Z</time>
      </trkpt>
      <trkpt lat="46.05218" lon="6.99248">
        <ele>1664</ele>
        <time>2022-08-28T02:43:38Z</time>
      </trkpt>
      <trkpt lat="46.05215" lon="6.99248">
        <ele>1665</ele>
        <time>2022-08-28T02:43:40Z</time>
      </trkpt>
      <trkpt lat="46.05212" lon="6.99247">
        <ele>1665</ele>
        <time>2022-08-28T02:43:42Z</time>
      </trkpt>
      <trkpt lat="46.0521" lon="6.99247">
        <ele>1665</ele>
        <time>2022-08-28T02:43:44Z</time>
      </trkpt>
      <trkpt lat="46.05208" lon="6.99246">
        <ele>1665</ele>
        <time>2022-08-28T02:43:46Z</time>
      </trkpt>
      <trkpt lat="46.05205" lon="6.99246">
        <ele>1665</ele>
        <time>2022-08-28T02:43:48Z</time>
      </trkpt>
      <trkpt lat="46.05203" lon="6.99245">
        <ele>1665</ele>
        <time>2022-08-28T02:43:50Z</time>
      </trkpt>
      <trkpt lat="46.05201" lon="6.99245">
        <ele>1665</ele>
        <time>2022-08-28T02:43:52Z</time>
      </trkpt>
      <trkpt lat="46.05199" lon="6.99245">
        <ele>1665</ele>
        <time>2022-08-28T02:43:54Z</time>
      </trkpt>
      <trkpt lat="46.05196" lon="6.99244">
        <ele>1666</ele>
        <time>2022-08-28T02:43:56Z</time>
      </trkpt>
      <trkpt lat="46.05194" lon="6.99242">
        <ele>1666</ele>
        <time>2022-08-28T02:43:58Z</time>
      </trkpt>
      <trkpt lat="46.05193" lon="6.99241">
        <ele>1666</ele>
        <time>2022-08-28T02:44:00Z</time>
      </trkpt>
      <trkpt lat="46.05191" lon="6.99239">
        <ele>1666</ele>
        <time>2022-08-28T02:44:01Z</time>
      </trkpt>
      <trkpt lat="46.0519" lon="6.99237">
        <ele>1666</ele>
        <time>2022-08-28T02:44:02Z</time>
      </trkpt>
      <trkpt lat="46.05188" lon="6.99236">
        <ele>1666</ele>
        <time>2022-08-28T02:44:04Z</time>
      </trkpt>
      <trkpt lat="46.05186" lon="6.99235">
        <ele>1667</ele>
        <time>2022-08-28T02:44:06Z</time>
      </trkpt>
      <trkpt lat="46.05183" lon="6.99234">
        <ele>1667</ele>
        <time>2022-08-28T02:44:08Z</time>
      </trkpt>
      <trkpt lat="46.05181" lon="6.99233">
        <ele>1667</ele>
        <time>2022-08-28T02:44:10Z</time>
      </trkpt>
      <trkpt lat="46.05179" lon="6.99232">
        <ele>1667</ele>
        <time>2022-08-28T02:44:12Z</time>
      </trkpt>
      <trkpt lat="46.05177" lon="6.99231">
        <ele>1667</ele>
        <time>2022-08-28T02:44:14Z</time>
      </trkpt>
      <trkpt lat="46.05175" lon="6.99231">
        <ele>1667</ele>
        <time>2022-08-28T02:44:16Z</time>
      </trkpt>
      <trkpt lat="46.05172" lon="6.9923">
        <ele>1669</ele>
        <time>2022-08-28T02:44:18Z</time>
      </trkpt>
      <trkpt lat="46.0517" lon="6.9923">
        <ele>1669</ele>
        <time>2022-08-28T02:44:20Z</time>
      </trkpt>
      <trkpt lat="46.05167" lon="6.99229">
        <ele>1669</ele>
        <time>2022-08-28T02:44:22Z</time>
      </trkpt>
      <trkpt lat="46.05165" lon="6.99228">
        <ele>1669</ele>
        <time>2022-08-28T02:44:24Z</time>
      </trkpt>
      <trkpt lat="46.05162" lon="6.99228">
        <ele>1669</ele>
        <time>2022-08-28T02:44:26Z</time>
      </trkpt>
      <trkpt lat="46.0516" lon="6.99228">
        <ele>1669</ele>
        <time>2022-08-28T02:44:28Z</time>
      </trkpt>
      <trkpt lat="46.05158" lon="6.99228">
        <ele>1669</ele>
        <time>2022-08-28T02:44:30Z</time>
      </trkpt>
      <trkpt lat="46.05155" lon="6.99228">
        <ele>1669</ele>
        <time>2022-08-28T02:44:32Z</time>
      </trkpt>
      <trkpt lat="46.05153" lon="6.99227">
        <ele>1669</ele>
        <time>2022-08-28T02:44:34Z</time>
      </trkpt>
      <trkpt lat="46.05151" lon="6.99227">
        <ele>1670</ele>
        <time>2022-08-28T02:44:36Z</time>
      </trkpt>
      <trkpt lat="46.05148" lon="6.99227">
        <ele>1670</ele>
        <time>2022-08-28T02:44:38Z</time>
      </trkpt>
      <trkpt lat="46.05146" lon="6.99226">
        <ele>1671</ele>
        <time>2022-08-28T02:44:40Z</time>
      </trkpt>
      <trkpt lat="46.05144" lon="6.99226">
        <ele>1671</ele>
        <time>2022-08-28T02:44:43Z</time>
      </trkpt>
      <trkpt lat="46.05141" lon="6.99226">
        <ele>1671</ele>
        <time>2022-08-28T02:44:45Z</time>
      </trkpt>
      <trkpt lat="46.05139" lon="6.99224">
        <ele>1672</ele>
        <time>2022-08-28T02:44:47Z</time>
      </trkpt>
      <trkpt lat="46.05137" lon="6.99223">
        <ele>1672</ele>
        <time>2022-08-28T02:44:49Z</time>
      </trkpt>
      <trkpt lat="46.05138" lon="6.99218">
        <ele>1673</ele>
        <time>2022-08-28T02:44:53Z</time>
      </trkpt>
      <trkpt lat="46.05139" lon="6.99218">
        <ele>1673</ele>
        <time>2022-08-28T02:44:55Z</time>
      </trkpt>
      <trkpt lat="46.05139" lon="6.99217">
        <ele>1673</ele>
        <time>2022-08-28T02:44:56Z</time>
      </trkpt>
      <trkpt lat="46.05139" lon="6.99217">
        <ele>1673</ele>
        <time>2022-08-28T02:44:57Z</time>
      </trkpt>
      <trkpt lat="46.0514" lon="6.99216">
        <ele>1674</ele>
        <time>2022-08-28T02:44:58Z</time>
      </trkpt>
      <trkpt lat="46.0514" lon="6.99216">
        <ele>1675</ele>
        <time>2022-08-28T02:45:00Z</time>
      </trkpt>
      <trkpt lat="46.0514" lon="6.99215">
        <ele>1675</ele>
        <time>2022-08-28T02:45:01Z</time>
      </trkpt>
      <trkpt lat="46.05141" lon="6.99215">
        <ele>1675</ele>
        <time>2022-08-28T02:45:02Z</time>
      </trkpt>
      <trkpt lat="46.05141" lon="6.99214">
        <ele>1675</ele>
        <time>2022-08-28T02:45:03Z</time>
      </trkpt>
      <trkpt lat="46.05142" lon="6.99214">
        <ele>1676</ele>
        <time>2022-08-28T02:45:04Z</time>
      </trkpt>
      <trkpt lat="46.05142" lon="6.99213">
        <ele>1676</ele>
        <time>2022-08-28T02:45:05Z</time>
      </trkpt>
      <trkpt lat="46.05142" lon="6.99213">
        <ele>1676</ele>
        <time>2022-08-28T02:45:06Z</time>
      </trkpt>
      <trkpt lat="46.05143" lon="6.99213">
        <ele>1676</ele>
        <time>2022-08-28T02:45:07Z</time>
      </trkpt>
      <trkpt lat="46.05141" lon="6.99212">
        <ele>1677</ele>
        <time>2022-08-28T02:45:14Z</time>
      </trkpt>
      <trkpt lat="46.05139" lon="6.99209">
        <ele>1678</ele>
        <time>2022-08-28T02:45:18Z</time>
      </trkpt>
      <trkpt lat="46.05139" lon="6.99206">
        <ele>1678</ele>
        <time>2022-08-28T02:45:22Z</time>
      </trkpt>
      <trkpt lat="46.0514" lon="6.99202">
        <ele>1679</ele>
        <time>2022-08-28T02:45:25Z</time>
      </trkpt>
      <trkpt lat="46.0514" lon="6.99201">
        <ele>1679</ele>
        <time>2022-08-28T02:45:28Z</time>
      </trkpt>
      <trkpt lat="46.05141" lon="6.99199">
        <ele>1679</ele>
        <time>2022-08-28T02:45:29Z</time>
      </trkpt>
      <trkpt lat="46.05141" lon="6.99197">
        <ele>1679</ele>
        <time>2022-08-28T02:45:30Z</time>
      </trkpt>
      <trkpt lat="46.05142" lon="6.99195">
        <ele>1679</ele>
        <time>2022-08-28T02:45:32Z</time>
      </trkpt>
      <trkpt lat="46.05144" lon="6.99194">
        <ele>1679</ele>
        <time>2022-08-28T02:45:34Z</time>
      </trkpt>
      <trkpt lat="46.05146" lon="6.99194">
        <ele>1680</ele>
        <time>2022-08-28T02:45:39Z</time>
      </trkpt>
      <trkpt lat="46.05148" lon="6.99193">
        <ele>1680</ele>
        <time>2022-08-28T02:45:42Z</time>
      </trkpt>
      <trkpt lat="46.0515" lon="6.99191">
        <ele>1680</ele>
        <time>2022-08-28T02:45:44Z</time>
      </trkpt>
      <trkpt lat="46.05152" lon="6.9919">
        <ele>1681</ele>
        <time>2022-08-28T02:45:48Z</time>
      </trkpt>
      <trkpt lat="46.05154" lon="6.99189">
        <ele>1682</ele>
        <time>2022-08-28T02:45:51Z</time>
      </trkpt>
      <trkpt lat="46.05156" lon="6.99187">
        <ele>1683</ele>
        <time>2022-08-28T02:45:54Z</time>
      </trkpt>
      <trkpt lat="46.05158" lon="6.99185">
        <ele>1683</ele>
        <time>2022-08-28T02:46:00Z</time>
      </trkpt>
      <trkpt lat="46.0516" lon="6.99184">
        <ele>1684</ele>
        <time>2022-08-28T02:46:04Z</time>
      </trkpt>
      <trkpt lat="46.05161" lon="6.99182">
        <ele>1685</ele>
        <time>2022-08-28T02:46:07Z</time>
      </trkpt>
      <trkpt lat="46.05163" lon="6.99181">
        <ele>1686</ele>
        <time>2022-08-28T02:46:10Z</time>
      </trkpt>
      <trkpt lat="46.05165" lon="6.9918">
        <ele>1686</ele>
        <time>2022-08-28T02:46:13Z</time>
      </trkpt>
      <trkpt lat="46.05167" lon="6.99178">
        <ele>1687</ele>
        <time>2022-08-28T02:46:16Z</time>
      </trkpt>
      <trkpt lat="46.05169" lon="6.99177">
        <ele>1687</ele>
        <time>2022-08-28T02:46:19Z</time>
      </trkpt>
      <trkpt lat="46.05172" lon="6.99177">
        <ele>1687</ele>
        <time>2022-08-28T02:46:22Z</time>
      </trkpt>
      <trkpt lat="46.05173" lon="6.99176">
        <ele>1688</ele>
        <time>2022-08-28T02:46:25Z</time>
      </trkpt>
      <trkpt lat="46.05176" lon="6.99175">
        <ele>1688</ele>
        <time>2022-08-28T02:46:29Z</time>
      </trkpt>
      <trkpt lat="46.05178" lon="6.99174">
        <ele>1689</ele>
        <time>2022-08-28T02:46:33Z</time>
      </trkpt>
      <trkpt lat="46.0518" lon="6.99174">
        <ele>1690</ele>
        <time>2022-08-28T02:46:36Z</time>
      </trkpt>
      <trkpt lat="46.05182" lon="6.99175">
        <ele>1691</ele>
        <time>2022-08-28T02:46:40Z</time>
      </trkpt>
      <trkpt lat="46.05184" lon="6.99176">
        <ele>1691</ele>
        <time>2022-08-28T02:46:43Z</time>
      </trkpt>
      <trkpt lat="46.05186" lon="6.99174">
        <ele>1693</ele>
        <time>2022-08-28T02:46:50Z</time>
      </trkpt>
      <trkpt lat="46.05189" lon="6.99174">
        <ele>1693</ele>
        <time>2022-08-28T02:46:53Z</time>
      </trkpt>
      <trkpt lat="46.0519" lon="6.99174">
        <ele>1693</ele>
        <time>2022-08-28T02:46:55Z</time>
      </trkpt>
      <trkpt lat="46.05191" lon="6.99174">
        <ele>1693</ele>
        <time>2022-08-28T02:46:56Z</time>
      </trkpt>
      <trkpt lat="46.05192" lon="6.99173">
        <ele>1693</ele>
        <time>2022-08-28T02:46:57Z</time>
      </trkpt>
      <trkpt lat="46.05193" lon="6.99173">
        <ele>1693</ele>
        <time>2022-08-28T02:46:58Z</time>
      </trkpt>
      <trkpt lat="46.05194" lon="6.99173">
        <ele>1694</ele>
        <time>2022-08-28T02:47:00Z</time>
      </trkpt>
      <trkpt lat="46.05195" lon="6.99173">
        <ele>1694</ele>
        <time>2022-08-28T02:47:01Z</time>
      </trkpt>
      <trkpt lat="46.05196" lon="6.99173">
        <ele>1694</ele>
        <time>2022-08-28T02:47:02Z</time>
      </trkpt>
      <trkpt lat="46.05197" lon="6.99174">
        <ele>1695</ele>
        <time>2022-08-28T02:47:03Z</time>
      </trkpt>
      <trkpt lat="46.05198" lon="6.99174">
        <ele>1695</ele>
        <time>2022-08-28T02:47:05Z</time>
      </trkpt>
      <trkpt lat="46.052" lon="6.99175">
        <ele>1695</ele>
        <time>2022-08-28T02:47:06Z</time>
      </trkpt>
      <trkpt lat="46.05201" lon="6.99175">
        <ele>1695</ele>
        <time>2022-08-28T02:47:07Z</time>
      </trkpt>
      <trkpt lat="46.05202" lon="6.99175">
        <ele>1695</ele>
        <time>2022-08-28T02:47:08Z</time>
      </trkpt>
      <trkpt lat="46.05203" lon="6.99176">
        <ele>1696</ele>
        <time>2022-08-28T02:47:10Z</time>
      </trkpt>
      <trkpt lat="46.05204" lon="6.99176">
        <ele>1696</ele>
        <time>2022-08-28T02:47:11Z</time>
      </trkpt>
      <trkpt lat="46.05205" lon="6.99177">
        <ele>1696</ele>
        <time>2022-08-28T02:47:12Z</time>
      </trkpt>
      <trkpt lat="46.05206" lon="6.99176">
        <ele>1696</ele>
        <time>2022-08-28T02:47:13Z</time>
      </trkpt>
      <trkpt lat="46.05206" lon="6.99176">
        <ele>1696</ele>
        <time>2022-08-28T02:47:15Z</time>
      </trkpt>
      <trkpt lat="46.05207" lon="6.99175">
        <ele>1697</ele>
        <time>2022-08-28T02:47:16Z</time>
      </trkpt>
      <trkpt lat="46.05208" lon="6.99175">
        <ele>1697</ele>
        <time>2022-08-28T02:47:17Z</time>
      </trkpt>
      <trkpt lat="46.05208" lon="6.99175">
        <ele>1697</ele>
        <time>2022-08-28T02:47:18Z</time>
      </trkpt>
      <trkpt lat="46.05209" lon="6.99174">
        <ele>1697</ele>
        <time>2022-08-28T02:47:19Z</time>
      </trkpt>
      <trkpt lat="46.0521" lon="6.99174">
        <ele>1697</ele>
        <time>2022-08-28T02:47:20Z</time>
      </trkpt>
      <trkpt lat="46.05212" lon="6.99173">
        <ele>1698</ele>
        <time>2022-08-28T02:47:22Z</time>
      </trkpt>
      <trkpt lat="46.05214" lon="6.99172">
        <ele>1699</ele>
        <time>2022-08-28T02:47:25Z</time>
      </trkpt>
      <trkpt lat="46.05217" lon="6.9917">
        <ele>1699</ele>
        <time>2022-08-28T02:47:28Z</time>
      </trkpt>
      <trkpt lat="46.05219" lon="6.9917">
        <ele>1699</ele>
        <time>2022-08-28T02:47:31Z</time>
      </trkpt>
      <trkpt lat="46.05223" lon="6.99167">
        <ele>1701</ele>
        <time>2022-08-28T02:47:37Z</time>
      </trkpt>
      <trkpt lat="46.05224" lon="6.99165">
        <ele>1702</ele>
        <time>2022-08-28T02:47:40Z</time>
      </trkpt>
      <trkpt lat="46.05227" lon="6.99163">
        <ele>1702</ele>
        <time>2022-08-28T02:47:45Z</time>
      </trkpt>
      <trkpt lat="46.0523" lon="6.99162">
        <ele>1703</ele>
        <time>2022-08-28T02:47:48Z</time>
      </trkpt>
      <trkpt lat="46.05231" lon="6.99162">
        <ele>1703</ele>
        <time>2022-08-28T02:47:49Z</time>
      </trkpt>
      <trkpt lat="46.05231" lon="6.99161">
        <ele>1703</ele>
        <time>2022-08-28T02:47:51Z</time>
      </trkpt>
      <trkpt lat="46.05232" lon="6.99161">
        <ele>1703</ele>
        <time>2022-08-28T02:47:52Z</time>
      </trkpt>
      <trkpt lat="46.05233" lon="6.9916">
        <ele>1704</ele>
        <time>2022-08-28T02:47:53Z</time>
      </trkpt>
      <trkpt lat="46.05233" lon="6.9916">
        <ele>1704</ele>
        <time>2022-08-28T02:47:54Z</time>
      </trkpt>
      <trkpt lat="46.05234" lon="6.9916">
        <ele>1704</ele>
        <time>2022-08-28T02:47:55Z</time>
      </trkpt>
      <trkpt lat="46.05235" lon="6.99159">
        <ele>1704</ele>
        <time>2022-08-28T02:47:56Z</time>
      </trkpt>
      <trkpt lat="46.05235" lon="6.99159">
        <ele>1704</ele>
        <time>2022-08-28T02:47:58Z</time>
      </trkpt>
      <trkpt lat="46.05236" lon="6.99158">
        <ele>1705</ele>
        <time>2022-08-28T02:47:59Z</time>
      </trkpt>
      <trkpt lat="46.05237" lon="6.99158">
        <ele>1705</ele>
        <time>2022-08-28T02:48:00Z</time>
      </trkpt>
      <trkpt lat="46.05237" lon="6.99157">
        <ele>1706</ele>
        <time>2022-08-28T02:48:02Z</time>
      </trkpt>
      <trkpt lat="46.05238" lon="6.99157">
        <ele>1706</ele>
        <time>2022-08-28T02:48:03Z</time>
      </trkpt>
      <trkpt lat="46.05239" lon="6.99156">
        <ele>1707</ele>
        <time>2022-08-28T02:48:04Z</time>
      </trkpt>
      <trkpt lat="46.0524" lon="6.99156">
        <ele>1707</ele>
        <time>2022-08-28T02:48:05Z</time>
      </trkpt>
      <trkpt lat="46.05241" lon="6.99156">
        <ele>1707</ele>
        <time>2022-08-28T02:48:07Z</time>
      </trkpt>
      <trkpt lat="46.05242" lon="6.99156">
        <ele>1707</ele>
        <time>2022-08-28T02:48:08Z</time>
      </trkpt>
      <trkpt lat="46.05244" lon="6.99155">
        <ele>1707</ele>
        <time>2022-08-28T02:48:09Z</time>
      </trkpt>
      <trkpt lat="46.05245" lon="6.99155">
        <ele>1707</ele>
        <time>2022-08-28T02:48:10Z</time>
      </trkpt>
      <trkpt lat="46.05246" lon="6.99155">
        <ele>1707</ele>
        <time>2022-08-28T02:48:12Z</time>
      </trkpt>
      <trkpt lat="46.05247" lon="6.99154">
        <ele>1707</ele>
        <time>2022-08-28T02:48:13Z</time>
      </trkpt>
      <trkpt lat="46.05248" lon="6.99154">
        <ele>1707</ele>
        <time>2022-08-28T02:48:14Z</time>
      </trkpt>
      <trkpt lat="46.05248" lon="6.99154">
        <ele>1708</ele>
        <time>2022-08-28T02:48:15Z</time>
      </trkpt>
      <trkpt lat="46.05249" lon="6.99154">
        <ele>1708</ele>
        <time>2022-08-28T02:48:17Z</time>
      </trkpt>
      <trkpt lat="46.0525" lon="6.99153">
        <ele>1708</ele>
        <time>2022-08-28T02:48:19Z</time>
      </trkpt>
      <trkpt lat="46.0525" lon="6.99153">
        <ele>1709</ele>
        <time>2022-08-28T02:48:20Z</time>
      </trkpt>
      <trkpt lat="46.05251" lon="6.99153">
        <ele>1709</ele>
        <time>2022-08-28T02:48:21Z</time>
      </trkpt>
      <trkpt lat="46.05252" lon="6.99152">
        <ele>1710</ele>
        <time>2022-08-28T02:48:22Z</time>
      </trkpt>
      <trkpt lat="46.05252" lon="6.99152">
        <ele>1710</ele>
        <time>2022-08-28T02:48:23Z</time>
      </trkpt>
      <trkpt lat="46.05253" lon="6.99152">
        <ele>1710</ele>
        <time>2022-08-28T02:48:24Z</time>
      </trkpt>
      <trkpt lat="46.05253" lon="6.99151">
        <ele>1710</ele>
        <time>2022-08-28T02:48:25Z</time>
      </trkpt>
      <trkpt lat="46.05254" lon="6.99151">
        <ele>1710</ele>
        <time>2022-08-28T02:48:26Z</time>
      </trkpt>
      <trkpt lat="46.05255" lon="6.99151">
        <ele>1710</ele>
        <time>2022-08-28T02:48:27Z</time>
      </trkpt>
      <trkpt lat="46.05255" lon="6.99151">
        <ele>1710</ele>
        <time>2022-08-28T02:48:29Z</time>
      </trkpt>
      <trkpt lat="46.05256" lon="6.9915">
        <ele>1711</ele>
        <time>2022-08-28T02:48:30Z</time>
      </trkpt>
      <trkpt lat="46.05257" lon="6.9915">
        <ele>1711</ele>
        <time>2022-08-28T02:48:31Z</time>
      </trkpt>
      <trkpt lat="46.05258" lon="6.99149">
        <ele>1711</ele>
        <time>2022-08-28T02:48:32Z</time>
      </trkpt>
      <trkpt lat="46.05259" lon="6.99148">
        <ele>1712</ele>
        <time>2022-08-28T02:48:34Z</time>
      </trkpt>
      <trkpt lat="46.0526" lon="6.99147">
        <ele>1712</ele>
        <time>2022-08-28T02:48:36Z</time>
      </trkpt>
      <trkpt lat="46.05261" lon="6.99146">
        <ele>1712</ele>
        <time>2022-08-28T02:48:37Z</time>
      </trkpt>
      <trkpt lat="46.05262" lon="6.99145">
        <ele>1712</ele>
        <time>2022-08-28T02:48:38Z</time>
      </trkpt>
      <trkpt lat="46.05264" lon="6.99145">
        <ele>1713</ele>
        <time>2022-08-28T02:48:40Z</time>
      </trkpt>
      <trkpt lat="46.05265" lon="6.99144">
        <ele>1713</ele>
        <time>2022-08-28T02:48:41Z</time>
      </trkpt>
      <trkpt lat="46.05269" lon="6.99141">
        <ele>1714</ele>
        <time>2022-08-28T02:48:48Z</time>
      </trkpt>
      <trkpt lat="46.05271" lon="6.99141">
        <ele>1714</ele>
        <time>2022-08-28T02:48:51Z</time>
      </trkpt>
      <trkpt lat="46.05274" lon="6.9914">
        <ele>1716</ele>
        <time>2022-08-28T02:48:55Z</time>
      </trkpt>
      <trkpt lat="46.05276" lon="6.99138">
        <ele>1716</ele>
        <time>2022-08-28T02:48:57Z</time>
      </trkpt>
      <trkpt lat="46.05279" lon="6.99137">
        <ele>1717</ele>
        <time>2022-08-28T02:49:02Z</time>
      </trkpt>
      <trkpt lat="46.05281" lon="6.99136">
        <ele>1717</ele>
        <time>2022-08-28T02:49:05Z</time>
      </trkpt>
      <trkpt lat="46.05283" lon="6.99137">
        <ele>1719</ele>
        <time>2022-08-28T02:49:09Z</time>
      </trkpt>
      <trkpt lat="46.05284" lon="6.99137">
        <ele>1719</ele>
        <time>2022-08-28T02:49:13Z</time>
      </trkpt>
      <trkpt lat="46.05286" lon="6.99136">
        <ele>1720</ele>
        <time>2022-08-28T02:49:17Z</time>
      </trkpt>
      <trkpt lat="46.05287" lon="6.99136">
        <ele>1721</ele>
        <time>2022-08-28T02:49:19Z</time>
      </trkpt>
      <trkpt lat="46.05287" lon="6.99135">
        <ele>1721</ele>
        <time>2022-08-28T02:49:21Z</time>
      </trkpt>
      <trkpt lat="46.05288" lon="6.99135">
        <ele>1722</ele>
        <time>2022-08-28T02:49:22Z</time>
      </trkpt>
      <trkpt lat="46.05289" lon="6.99134">
        <ele>1722</ele>
        <time>2022-08-28T02:49:23Z</time>
      </trkpt>
      <trkpt lat="46.05289" lon="6.99134">
        <ele>1722</ele>
        <time>2022-08-28T02:49:24Z</time>
      </trkpt>
      <trkpt lat="46.0529" lon="6.99133">
        <ele>1722</ele>
        <time>2022-08-28T02:49:26Z</time>
      </trkpt>
      <trkpt lat="46.0529" lon="6.99133">
        <ele>1722</ele>
        <time>2022-08-28T02:49:27Z</time>
      </trkpt>
      <trkpt lat="46.05291" lon="6.99133">
        <ele>1722</ele>
        <time>2022-08-28T02:49:28Z</time>
      </trkpt>
      <trkpt lat="46.05292" lon="6.99132">
        <ele>1722</ele>
        <time>2022-08-28T02:49:29Z</time>
      </trkpt>
      <trkpt lat="46.05294" lon="6.99131">
        <ele>1722</ele>
        <time>2022-08-28T02:49:31Z</time>
      </trkpt>
      <trkpt lat="46.05296" lon="6.9913">
        <ele>1723</ele>
        <time>2022-08-28T02:49:34Z</time>
      </trkpt>
      <trkpt lat="46.05305" lon="6.99125">
        <ele>1725</ele>
        <time>2022-08-28T02:49:47Z</time>
      </trkpt>
      <trkpt lat="46.05306" lon="6.99123">
        <ele>1727</ele>
        <time>2022-08-28T02:49:50Z</time>
      </trkpt>
      <trkpt lat="46.05309" lon="6.99121">
        <ele>1727</ele>
        <time>2022-08-28T02:49:55Z</time>
      </trkpt>
      <trkpt lat="46.05311" lon="6.9912">
        <ele>1728</ele>
        <time>2022-08-28T02:49:58Z</time>
      </trkpt>
      <trkpt lat="46.05313" lon="6.9912">
        <ele>1728</ele>
        <time>2022-08-28T02:50:01Z</time>
      </trkpt>
      <trkpt lat="46.05315" lon="6.9912">
        <ele>1728</ele>
        <time>2022-08-28T02:50:04Z</time>
      </trkpt>
      <trkpt lat="46.05317" lon="6.9912">
        <ele>1728</ele>
        <time>2022-08-28T02:50:06Z</time>
      </trkpt>
      <trkpt lat="46.05319" lon="6.9912">
        <ele>1729</ele>
        <time>2022-08-28T02:50:09Z</time>
      </trkpt>
      <trkpt lat="46.05321" lon="6.99121">
        <ele>1729</ele>
        <time>2022-08-28T02:50:12Z</time>
      </trkpt>
      <trkpt lat="46.05324" lon="6.9912">
        <ele>1730</ele>
        <time>2022-08-28T02:50:15Z</time>
      </trkpt>
      <trkpt lat="46.05325" lon="6.9912">
        <ele>1730</ele>
        <time>2022-08-28T02:50:16Z</time>
      </trkpt>
      <trkpt lat="46.05325" lon="6.9912">
        <ele>1730</ele>
        <time>2022-08-28T02:50:17Z</time>
      </trkpt>
      <trkpt lat="46.05326" lon="6.9912">
        <ele>1730</ele>
        <time>2022-08-28T02:50:18Z</time>
      </trkpt>
      <trkpt lat="46.05327" lon="6.9912">
        <ele>1730</ele>
        <time>2022-08-28T02:50:20Z</time>
      </trkpt>
      <trkpt lat="46.05327" lon="6.99119">
        <ele>1730</ele>
        <time>2022-08-28T02:50:21Z</time>
      </trkpt>
      <trkpt lat="46.05328" lon="6.99119">
        <ele>1731</ele>
        <time>2022-08-28T02:50:22Z</time>
      </trkpt>
      <trkpt lat="46.05329" lon="6.99119">
        <ele>1731</ele>
        <time>2022-08-28T02:50:23Z</time>
      </trkpt>
      <trkpt lat="46.05329" lon="6.99119">
        <ele>1731</ele>
        <time>2022-08-28T02:50:25Z</time>
      </trkpt>
      <trkpt lat="46.0533" lon="6.99119">
        <ele>1732</ele>
        <time>2022-08-28T02:50:26Z</time>
      </trkpt>
      <trkpt lat="46.0533" lon="6.99119">
        <ele>1732</ele>
        <time>2022-08-28T02:50:27Z</time>
      </trkpt>
      <trkpt lat="46.05331" lon="6.99119">
        <ele>1732</ele>
        <time>2022-08-28T02:50:28Z</time>
      </trkpt>
      <trkpt lat="46.05332" lon="6.99118">
        <ele>1732</ele>
        <time>2022-08-28T02:50:29Z</time>
      </trkpt>
      <trkpt lat="46.05332" lon="6.99118">
        <ele>1733</ele>
        <time>2022-08-28T02:50:30Z</time>
      </trkpt>
      <trkpt lat="46.05334" lon="6.99119">
        <ele>1733</ele>
        <time>2022-08-28T02:50:35Z</time>
      </trkpt>
      <trkpt lat="46.05336" lon="6.99119">
        <ele>1736</ele>
        <time>2022-08-28T02:50:43Z</time>
      </trkpt>
      <trkpt lat="46.05339" lon="6.99118">
        <ele>1736</ele>
        <time>2022-08-28T02:50:49Z</time>
      </trkpt>
      <trkpt lat="46.05341" lon="6.99117">
        <ele>1736</ele>
        <time>2022-08-28T02:50:52Z</time>
      </trkpt>
      <trkpt lat="46.05343" lon="6.99118">
        <ele>1737</ele>
        <time>2022-08-28T02:50:57Z</time>
      </trkpt>
      <trkpt lat="46.05345" lon="6.99117">
        <ele>1738</ele>
        <time>2022-08-28T02:51:01Z</time>
      </trkpt>
      <trkpt lat="46.05347" lon="6.99115">
        <ele>1739</ele>
        <time>2022-08-28T02:51:04Z</time>
      </trkpt>
      <trkpt lat="46.05349" lon="6.99114">
        <ele>1739</ele>
        <time>2022-08-28T02:51:06Z</time>
      </trkpt>
      <trkpt lat="46.05351" lon="6.99114">
        <ele>1739</ele>
        <time>2022-08-28T02:51:08Z</time>
      </trkpt>
      <trkpt lat="46.05352" lon="6.99113">
        <ele>1739</ele>
        <time>2022-08-28T02:51:09Z</time>
      </trkpt>
      <trkpt lat="46.05353" lon="6.99113">
        <ele>1739</ele>
        <time>2022-08-28T02:51:10Z</time>
      </trkpt>
      <trkpt lat="46.05353" lon="6.99112">
        <ele>1739</ele>
        <time>2022-08-28T02:51:12Z</time>
      </trkpt>
      <trkpt lat="46.05354" lon="6.99112">
        <ele>1739</ele>
        <time>2022-08-28T02:51:13Z</time>
      </trkpt>
      <trkpt lat="46.05355" lon="6.99112">
        <ele>1740</ele>
        <time>2022-08-28T02:51:14Z</time>
      </trkpt>
      <trkpt lat="46.05355" lon="6.99111">
        <ele>1740</ele>
        <time>2022-08-28T02:51:15Z</time>
      </trkpt>
      <trkpt lat="46.05357" lon="6.9911">
        <ele>1741</ele>
        <time>2022-08-28T02:51:18Z</time>
      </trkpt>
      <trkpt lat="46.0536" lon="6.99109">
        <ele>1741</ele>
        <time>2022-08-28T02:51:20Z</time>
      </trkpt>
      <trkpt lat="46.05362" lon="6.99109">
        <ele>1742</ele>
        <time>2022-08-28T02:51:23Z</time>
      </trkpt>
      <trkpt lat="46.05364" lon="6.99109">
        <ele>1742</ele>
        <time>2022-08-28T02:51:25Z</time>
      </trkpt>
      <trkpt lat="46.05367" lon="6.99109">
        <ele>1742</ele>
        <time>2022-08-28T02:51:28Z</time>
      </trkpt>
      <trkpt lat="46.0537" lon="6.99109">
        <ele>1743</ele>
        <time>2022-08-28T02:51:31Z</time>
      </trkpt>
      <trkpt lat="46.05372" lon="6.99109">
        <ele>1743</ele>
        <time>2022-08-28T02:51:33Z</time>
      </trkpt>
      <trkpt lat="46.05375" lon="6.99108">
        <ele>1743</ele>
        <time>2022-08-28T02:51:36Z</time>
      </trkpt>
      <trkpt lat="46.05377" lon="6.99107">
        <ele>1744</ele>
        <time>2022-08-28T02:51:42Z</time>
      </trkpt>
      <trkpt lat="46.05379" lon="6.99106">
        <ele>1745</ele>
        <time>2022-08-28T02:51:46Z</time>
      </trkpt>
      <trkpt lat="46.05381" lon="6.99105">
        <ele>1746</ele>
        <time>2022-08-28T02:51:50Z</time>
      </trkpt>
      <trkpt lat="46.05383" lon="6.99105">
        <ele>1746</ele>
        <time>2022-08-28T02:51:52Z</time>
      </trkpt>
      <trkpt lat="46.05387" lon="6.99104">
        <ele>1747</ele>
        <time>2022-08-28T02:51:57Z</time>
      </trkpt>
      <trkpt lat="46.05389" lon="6.99104">
        <ele>1748</ele>
        <time>2022-08-28T02:52:00Z</time>
      </trkpt>
      <trkpt lat="46.05391" lon="6.99102">
        <ele>1748</ele>
        <time>2022-08-28T02:52:04Z</time>
      </trkpt>
      <trkpt lat="46.05392" lon="6.99102">
        <ele>1749</ele>
        <time>2022-08-28T02:52:06Z</time>
      </trkpt>
      <trkpt lat="46.05392" lon="6.99102">
        <ele>1749</ele>
        <time>2022-08-28T02:52:07Z</time>
      </trkpt>
      <trkpt lat="46.05393" lon="6.99101">
        <ele>1749</ele>
        <time>2022-08-28T02:52:09Z</time>
      </trkpt>
      <trkpt lat="46.05394" lon="6.99101">
        <ele>1749</ele>
        <time>2022-08-28T02:52:10Z</time>
      </trkpt>
      <trkpt lat="46.05395" lon="6.99101">
        <ele>1749</ele>
        <time>2022-08-28T02:52:11Z</time>
      </trkpt>
      <trkpt lat="46.05395" lon="6.991">
        <ele>1750</ele>
        <time>2022-08-28T02:52:12Z</time>
      </trkpt>
      <trkpt lat="46.05396" lon="6.991">
        <ele>1750</ele>
        <time>2022-08-28T02:52:14Z</time>
      </trkpt>
      <trkpt lat="46.05397" lon="6.991">
        <ele>1750</ele>
        <time>2022-08-28T02:52:15Z</time>
      </trkpt>
      <trkpt lat="46.05398" lon="6.991">
        <ele>1750</ele>
        <time>2022-08-28T02:52:16Z</time>
      </trkpt>
      <trkpt lat="46.05399" lon="6.99099">
        <ele>1750</ele>
        <time>2022-08-28T02:52:17Z</time>
      </trkpt>
      <trkpt lat="46.05399" lon="6.99099">
        <ele>1751</ele>
        <time>2022-08-28T02:52:19Z</time>
      </trkpt>
      <trkpt lat="46.054" lon="6.99099">
        <ele>1751</ele>
        <time>2022-08-28T02:52:20Z</time>
      </trkpt>
      <trkpt lat="46.05401" lon="6.99098">
        <ele>1751</ele>
        <time>2022-08-28T02:52:21Z</time>
      </trkpt>
      <trkpt lat="46.05402" lon="6.99097">
        <ele>1751</ele>
        <time>2022-08-28T02:52:22Z</time>
      </trkpt>
      <trkpt lat="46.05403" lon="6.99097">
        <ele>1752</ele>
        <time>2022-08-28T02:52:24Z</time>
      </trkpt>
      <trkpt lat="46.05404" lon="6.99096">
        <ele>1752</ele>
        <time>2022-08-28T02:52:26Z</time>
      </trkpt>
      <trkpt lat="46.05405" lon="6.99095">
        <ele>1752</ele>
        <time>2022-08-28T02:52:27Z</time>
      </trkpt>
      <trkpt lat="46.05406" lon="6.99095">
        <ele>1752</ele>
        <time>2022-08-28T02:52:28Z</time>
      </trkpt>
      <trkpt lat="46.05407" lon="6.99094">
        <ele>1752</ele>
        <time>2022-08-28T02:52:29Z</time>
      </trkpt>
      <trkpt lat="46.05407" lon="6.99094">
        <ele>1752</ele>
        <time>2022-08-28T02:52:30Z</time>
      </trkpt>
      <trkpt lat="46.05408" lon="6.99093">
        <ele>1753</ele>
        <time>2022-08-28T02:52:31Z</time>
      </trkpt>
      <trkpt lat="46.05409" lon="6.99093">
        <ele>1754</ele>
        <time>2022-08-28T02:52:32Z</time>
      </trkpt>
      <trkpt lat="46.0541" lon="6.99093">
        <ele>1754</ele>
        <time>2022-08-28T02:52:33Z</time>
      </trkpt>
      <trkpt lat="46.05411" lon="6.99093">
        <ele>1754</ele>
        <time>2022-08-28T02:52:34Z</time>
      </trkpt>
      <trkpt lat="46.05412" lon="6.99093">
        <ele>1754</ele>
        <time>2022-08-28T02:52:36Z</time>
      </trkpt>
      <trkpt lat="46.05413" lon="6.99093">
        <ele>1754</ele>
        <time>2022-08-28T02:52:37Z</time>
      </trkpt>
      <trkpt lat="46.05414" lon="6.99093">
        <ele>1754</ele>
        <time>2022-08-28T02:52:38Z</time>
      </trkpt>
      <trkpt lat="46.05415" lon="6.99093">
        <ele>1754</ele>
        <time>2022-08-28T02:52:39Z</time>
      </trkpt>
      <trkpt lat="46.05416" lon="6.99093">
        <ele>1754</ele>
        <time>2022-08-28T02:52:41Z</time>
      </trkpt>
      <trkpt lat="46.05417" lon="6.99093">
        <ele>1754</ele>
        <time>2022-08-28T02:52:43Z</time>
      </trkpt>
      <trkpt lat="46.05418" lon="6.99093">
        <ele>1754</ele>
        <time>2022-08-28T02:52:44Z</time>
      </trkpt>
      <trkpt lat="46.05419" lon="6.99093">
        <ele>1755</ele>
        <time>2022-08-28T02:52:45Z</time>
      </trkpt>
      <trkpt lat="46.05419" lon="6.99094">
        <ele>1755</ele>
        <time>2022-08-28T02:52:46Z</time>
      </trkpt>
      <trkpt lat="46.0542" lon="6.99094">
        <ele>1755</ele>
        <time>2022-08-28T02:52:47Z</time>
      </trkpt>
      <trkpt lat="46.0542" lon="6.99094">
        <ele>1755</ele>
        <time>2022-08-28T02:52:48Z</time>
      </trkpt>
      <trkpt lat="46.05421" lon="6.99095">
        <ele>1755</ele>
        <time>2022-08-28T02:52:49Z</time>
      </trkpt>
      <trkpt lat="46.05421" lon="6.99095">
        <ele>1755</ele>
        <time>2022-08-28T02:52:50Z</time>
      </trkpt>
      <trkpt lat="46.05421" lon="6.99095">
        <ele>1755</ele>
        <time>2022-08-28T02:52:51Z</time>
      </trkpt>
      <trkpt lat="46.05422" lon="6.99095">
        <ele>1756</ele>
        <time>2022-08-28T02:52:52Z</time>
      </trkpt>
      <trkpt lat="46.05422" lon="6.99096">
        <ele>1756</ele>
        <time>2022-08-28T02:52:53Z</time>
      </trkpt>
      <trkpt lat="46.05423" lon="6.99096">
        <ele>1756</ele>
        <time>2022-08-28T02:52:54Z</time>
      </trkpt>
      <trkpt lat="46.05423" lon="6.99096">
        <ele>1756</ele>
        <time>2022-08-28T02:52:55Z</time>
      </trkpt>
      <trkpt lat="46.05423" lon="6.99097">
        <ele>1757</ele>
        <time>2022-08-28T02:52:56Z</time>
      </trkpt>
      <trkpt lat="46.05424" lon="6.99097">
        <ele>1757</ele>
        <time>2022-08-28T02:52:57Z</time>
      </trkpt>
      <trkpt lat="46.05424" lon="6.99097">
        <ele>1757</ele>
        <time>2022-08-28T02:52:58Z</time>
      </trkpt>
      <trkpt lat="46.05425" lon="6.99097">
        <ele>1758</ele>
        <time>2022-08-28T02:52:59Z</time>
      </trkpt>
      <trkpt lat="46.05426" lon="6.99095">
        <ele>1758</ele>
        <time>2022-08-28T02:53:01Z</time>
      </trkpt>
      <trkpt lat="46.05427" lon="6.99093">
        <ele>1758</ele>
        <time>2022-08-28T02:53:03Z</time>
      </trkpt>
      <trkpt lat="46.05429" lon="6.99091">
        <ele>1759</ele>
        <time>2022-08-28T02:53:06Z</time>
      </trkpt>
      <trkpt lat="46.05431" lon="6.9909">
        <ele>1759</ele>
        <time>2022-08-28T02:53:08Z</time>
      </trkpt>
      <trkpt lat="46.05433" lon="6.9909">
        <ele>1760</ele>
        <time>2022-08-28T02:53:12Z</time>
      </trkpt>
      <trkpt lat="46.05435" lon="6.99092">
        <ele>1760</ele>
        <time>2022-08-28T02:53:15Z</time>
      </trkpt>
      <trkpt lat="46.05437" lon="6.99093">
        <ele>1761</ele>
        <time>2022-08-28T02:53:20Z</time>
      </trkpt>
      <trkpt lat="46.05437" lon="6.99095">
        <ele>1763</ele>
        <time>2022-08-28T02:53:26Z</time>
      </trkpt>
      <trkpt lat="46.05436" lon="6.99094">
        <ele>1764</ele>
        <time>2022-08-28T02:53:32Z</time>
      </trkpt>
      <trkpt lat="46.05434" lon="6.99092">
        <ele>1764</ele>
        <time>2022-08-28T02:53:35Z</time>
      </trkpt>
      <trkpt lat="46.05432" lon="6.9909">
        <ele>1764</ele>
        <time>2022-08-28T02:53:39Z</time>
      </trkpt>
      <trkpt lat="46.05431" lon="6.99088">
        <ele>1764</ele>
        <time>2022-08-28T02:53:41Z</time>
      </trkpt>
      <trkpt lat="46.05431" lon="6.99088">
        <ele>1765</ele>
        <time>2022-08-28T02:53:42Z</time>
      </trkpt>
      <trkpt lat="46.0543" lon="6.99087">
        <ele>1765</ele>
        <time>2022-08-28T02:53:43Z</time>
      </trkpt>
      <trkpt lat="46.0543" lon="6.99086">
        <ele>1765</ele>
        <time>2022-08-28T02:53:45Z</time>
      </trkpt>
      <trkpt lat="46.05429" lon="6.99086">
        <ele>1765</ele>
        <time>2022-08-28T02:53:46Z</time>
      </trkpt>
      <trkpt lat="46.05429" lon="6.99085">
        <ele>1765</ele>
        <time>2022-08-28T02:53:47Z</time>
      </trkpt>
      <trkpt lat="46.05428" lon="6.99085">
        <ele>1766</ele>
        <time>2022-08-28T02:53:48Z</time>
      </trkpt>
      <trkpt lat="46.05428" lon="6.99084">
        <ele>1766</ele>
        <time>2022-08-28T02:53:50Z</time>
      </trkpt>
      <trkpt lat="46.05428" lon="6.99084">
        <ele>1767</ele>
        <time>2022-08-28T02:53:52Z</time>
      </trkpt>
      <trkpt lat="46.05427" lon="6.99083">
        <ele>1767</ele>
        <time>2022-08-28T02:53:53Z</time>
      </trkpt>
      <trkpt lat="46.05427" lon="6.9908">
        <ele>1768</ele>
        <time>2022-08-28T02:53:55Z</time>
      </trkpt>
      <trkpt lat="46.05425" lon="6.99078">
        <ele>1768</ele>
        <time>2022-08-28T02:53:58Z</time>
      </trkpt>
      <trkpt lat="46.05424" lon="6.99077">
        <ele>1769</ele>
        <time>2022-08-28T02:54:01Z</time>
      </trkpt>
      <trkpt lat="46.05424" lon="6.99075">
        <ele>1769</ele>
        <time>2022-08-28T02:54:03Z</time>
      </trkpt>
      <trkpt lat="46.05423" lon="6.99074">
        <ele>1769</ele>
        <time>2022-08-28T02:54:04Z</time>
      </trkpt>
      <trkpt lat="46.05423" lon="6.9907">
        <ele>1769</ele>
        <time>2022-08-28T02:54:06Z</time>
      </trkpt>
      <trkpt lat="46.05422" lon="6.99068">
        <ele>1770</ele>
        <time>2022-08-28T02:54:09Z</time>
      </trkpt>
      <trkpt lat="46.05419" lon="6.99068">
        <ele>1771</ele>
        <time>2022-08-28T02:54:13Z</time>
      </trkpt>
      <trkpt lat="46.05417" lon="6.99069">
        <ele>1771</ele>
        <time>2022-08-28T02:54:16Z</time>
      </trkpt>
      <trkpt lat="46.05416" lon="6.99069">
        <ele>1772</ele>
        <time>2022-08-28T02:54:19Z</time>
      </trkpt>
      <trkpt lat="46.05414" lon="6.99069">
        <ele>1772</ele>
        <time>2022-08-28T02:54:22Z</time>
      </trkpt>
      <trkpt lat="46.05412" lon="6.99069">
        <ele>1773</ele>
        <time>2022-08-28T02:54:25Z</time>
      </trkpt>
      <trkpt lat="46.0541" lon="6.9907">
        <ele>1773</ele>
        <time>2022-08-28T02:54:28Z</time>
      </trkpt>
      <trkpt lat="46.05407" lon="6.9907">
        <ele>1774</ele>
        <time>2022-08-28T02:54:30Z</time>
      </trkpt>
      <trkpt lat="46.05407" lon="6.9907">
        <ele>1774</ele>
        <time>2022-08-28T02:54:31Z</time>
      </trkpt>
      <trkpt lat="46.05406" lon="6.99069">
        <ele>1775</ele>
        <time>2022-08-28T02:54:33Z</time>
      </trkpt>
      <trkpt lat="46.05405" lon="6.99068">
        <ele>1775</ele>
        <time>2022-08-28T02:54:34Z</time>
      </trkpt>
      <trkpt lat="46.05404" lon="6.99067">
        <ele>1775</ele>
        <time>2022-08-28T02:54:35Z</time>
      </trkpt>
      <trkpt lat="46.05402" lon="6.99066">
        <ele>1775</ele>
        <time>2022-08-28T02:54:37Z</time>
      </trkpt>
      <trkpt lat="46.054" lon="6.99065">
        <ele>1776</ele>
        <time>2022-08-28T02:54:40Z</time>
      </trkpt>
      <trkpt lat="46.05399" lon="6.99063">
        <ele>1776</ele>
        <time>2022-08-28T02:54:43Z</time>
      </trkpt>
      <trkpt lat="46.05397" lon="6.99062">
        <ele>1777</ele>
        <time>2022-08-28T02:54:46Z</time>
      </trkpt>
      <trkpt lat="46.05395" lon="6.99063">
        <ele>1777</ele>
        <time>2022-08-28T02:54:49Z</time>
      </trkpt>
      <trkpt lat="46.05395" lon="6.9906">
        <ele>1778</ele>
        <time>2022-08-28T02:54:53Z</time>
      </trkpt>
      <trkpt lat="46.05393" lon="6.99059">
        <ele>1778</ele>
        <time>2022-08-28T02:54:58Z</time>
      </trkpt>
      <trkpt lat="46.05391" lon="6.99058">
        <ele>1779</ele>
        <time>2022-08-28T02:55:02Z</time>
      </trkpt>
      <trkpt lat="46.05389" lon="6.99059">
        <ele>1779</ele>
        <time>2022-08-28T02:55:05Z</time>
      </trkpt>
      <trkpt lat="46.05387" lon="6.99057">
        <ele>1781</ele>
        <time>2022-08-28T02:55:09Z</time>
      </trkpt>
      <trkpt lat="46.05386" lon="6.99055">
        <ele>1781</ele>
        <time>2022-08-28T02:55:11Z</time>
      </trkpt>
      <trkpt lat="46.05383" lon="6.99054">
        <ele>1781</ele>
        <time>2022-08-28T02:55:14Z</time>
      </trkpt>
      <trkpt lat="46.05382" lon="6.99053">
        <ele>1781</ele>
        <time>2022-08-28T02:55:16Z</time>
      </trkpt>
      <trkpt lat="46.05379" lon="6.99051">
        <ele>1782</ele>
        <time>2022-08-28T02:55:19Z</time>
      </trkpt>
      <trkpt lat="46.05378" lon="6.9905">
        <ele>1783</ele>
        <time>2022-08-28T02:55:21Z</time>
      </trkpt>
      <trkpt lat="46.05376" lon="6.99048">
        <ele>1784</ele>
        <time>2022-08-28T02:55:25Z</time>
      </trkpt>
      <trkpt lat="46.05374" lon="6.99047">
        <ele>1784</ele>
        <time>2022-08-28T02:55:28Z</time>
      </trkpt>
      <trkpt lat="46.05373" lon="6.99046">
        <ele>1784</ele>
        <time>2022-08-28T02:55:30Z</time>
      </trkpt>
      <trkpt lat="46.0537" lon="6.99046">
        <ele>1785</ele>
        <time>2022-08-28T02:55:33Z</time>
      </trkpt>
      <trkpt lat="46.05368" lon="6.99045">
        <ele>1786</ele>
        <time>2022-08-28T02:55:36Z</time>
      </trkpt>
      <trkpt lat="46.05366" lon="6.99043">
        <ele>1786</ele>
        <time>2022-08-28T02:55:39Z</time>
      </trkpt>
      <trkpt lat="46.05364" lon="6.99042">
        <ele>1786</ele>
        <time>2022-08-28T02:55:42Z</time>
      </trkpt>
      <trkpt lat="46.05362" lon="6.99041">
        <ele>1786</ele>
        <time>2022-08-28T02:55:45Z</time>
      </trkpt>
      <trkpt lat="46.05359" lon="6.99039">
        <ele>1786</ele>
        <time>2022-08-28T02:55:48Z</time>
      </trkpt>
      <trkpt lat="46.05357" lon="6.99038">
        <ele>1787</ele>
        <time>2022-08-28T02:55:50Z</time>
      </trkpt>
      <trkpt lat="46.05356" lon="6.99035">
        <ele>1787</ele>
        <time>2022-08-28T02:55:53Z</time>
      </trkpt>
      <trkpt lat="46.05354" lon="6.99033">
        <ele>1787</ele>
        <time>2022-08-28T02:55:55Z</time>
      </trkpt>
      <trkpt lat="46.05353" lon="6.99032">
        <ele>1788</ele>
        <time>2022-08-28T02:55:58Z</time>
      </trkpt>
      <trkpt lat="46.0535" lon="6.99032">
        <ele>1788</ele>
        <time>2022-08-28T02:56:01Z</time>
      </trkpt>
      <trkpt lat="46.05348" lon="6.99031">
        <ele>1789</ele>
        <time>2022-08-28T02:56:04Z</time>
      </trkpt>
      <trkpt lat="46.05345" lon="6.99031">
        <ele>1789</ele>
        <time>2022-08-28T02:56:08Z</time>
      </trkpt>
      <trkpt lat="46.05343" lon="6.99032">
        <ele>1790</ele>
        <time>2022-08-28T02:56:11Z</time>
      </trkpt>
      <trkpt lat="46.05341" lon="6.99032">
        <ele>1790</ele>
        <time>2022-08-28T02:56:15Z</time>
      </trkpt>
      <trkpt lat="46.05339" lon="6.99032">
        <ele>1792</ele>
        <time>2022-08-28T02:56:19Z</time>
      </trkpt>
      <trkpt lat="46.05337" lon="6.99031">
        <ele>1792</ele>
        <time>2022-08-28T02:56:22Z</time>
      </trkpt>
      <trkpt lat="46.05335" lon="6.99029">
        <ele>1793</ele>
        <time>2022-08-28T02:56:26Z</time>
      </trkpt>
      <trkpt lat="46.05333" lon="6.99028">
        <ele>1793</ele>
        <time>2022-08-28T02:56:29Z</time>
      </trkpt>
      <trkpt lat="46.05331" lon="6.99027">
        <ele>1793</ele>
        <time>2022-08-28T02:56:32Z</time>
      </trkpt>
      <trkpt lat="46.05329" lon="6.99025">
        <ele>1794</ele>
        <time>2022-08-28T02:56:35Z</time>
      </trkpt>
      <trkpt lat="46.05327" lon="6.99023">
        <ele>1794</ele>
        <time>2022-08-28T02:56:39Z</time>
      </trkpt>
      <trkpt lat="46.05325" lon="6.99023">
        <ele>1795</ele>
        <time>2022-08-28T02:56:44Z</time>
      </trkpt>
      <trkpt lat="46.05324" lon="6.9902">
        <ele>1796</ele>
        <time>2022-08-28T02:56:48Z</time>
      </trkpt>
      <trkpt lat="46.05322" lon="6.99021">
        <ele>1797</ele>
        <time>2022-08-28T02:56:52Z</time>
      </trkpt>
      <trkpt lat="46.0532" lon="6.99021">
        <ele>1797</ele>
        <time>2022-08-28T02:56:56Z</time>
      </trkpt>
      <trkpt lat="46.05318" lon="6.9902">
        <ele>1799</ele>
        <time>2022-08-28T02:57:00Z</time>
      </trkpt>
      <trkpt lat="46.05316" lon="6.99018">
        <ele>1799</ele>
        <time>2022-08-28T02:57:03Z</time>
      </trkpt>
      <trkpt lat="46.05313" lon="6.99018">
        <ele>1799</ele>
        <time>2022-08-28T02:57:07Z</time>
      </trkpt>
      <trkpt lat="46.05311" lon="6.99016">
        <ele>1800</ele>
        <time>2022-08-28T02:57:10Z</time>
      </trkpt>
      <trkpt lat="46.05309" lon="6.99016">
        <ele>1801</ele>
        <time>2022-08-28T02:57:14Z</time>
      </trkpt>
      <trkpt lat="46.05307" lon="6.99014">
        <ele>1801</ele>
        <time>2022-08-28T02:57:17Z</time>
      </trkpt>
      <trkpt lat="46.05305" lon="6.99014">
        <ele>1801</ele>
        <time>2022-08-28T02:57:20Z</time>
      </trkpt>
      <trkpt lat="46.05303" lon="6.99012">
        <ele>1802</ele>
        <time>2022-08-28T02:57:23Z</time>
      </trkpt>
      <trkpt lat="46.05301" lon="6.9901">
        <ele>1803</ele>
        <time>2022-08-28T02:57:26Z</time>
      </trkpt>
      <trkpt lat="46.05299" lon="6.9901">
        <ele>1803</ele>
        <time>2022-08-28T02:57:28Z</time>
      </trkpt>
      <trkpt lat="46.05296" lon="6.99009">
        <ele>1803</ele>
        <time>2022-08-28T02:57:31Z</time>
      </trkpt>
      <trkpt lat="46.05294" lon="6.99009">
        <ele>1803</ele>
        <time>2022-08-28T02:57:34Z</time>
      </trkpt>
      <trkpt lat="46.05292" lon="6.99008">
        <ele>1804</ele>
        <time>2022-08-28T02:57:37Z</time>
      </trkpt>
      <trkpt lat="46.0529" lon="6.99007">
        <ele>1804</ele>
        <time>2022-08-28T02:57:40Z</time>
      </trkpt>
      <trkpt lat="46.05288" lon="6.99005">
        <ele>1805</ele>
        <time>2022-08-28T02:57:43Z</time>
      </trkpt>
      <trkpt lat="46.05286" lon="6.99004">
        <ele>1805</ele>
        <time>2022-08-28T02:57:46Z</time>
      </trkpt>
      <trkpt lat="46.05284" lon="6.99005">
        <ele>1806</ele>
        <time>2022-08-28T02:57:49Z</time>
      </trkpt>
      <trkpt lat="46.05282" lon="6.99003">
        <ele>1807</ele>
        <time>2022-08-28T02:57:52Z</time>
      </trkpt>
      <trkpt lat="46.0528" lon="6.99001">
        <ele>1807</ele>
        <time>2022-08-28T02:57:55Z</time>
      </trkpt>
      <trkpt lat="46.05278" lon="6.99">
        <ele>1808</ele>
        <time>2022-08-28T02:57:58Z</time>
      </trkpt>
      <trkpt lat="46.05276" lon="6.98999">
        <ele>1808</ele>
        <time>2022-08-28T02:58:03Z</time>
      </trkpt>
      <trkpt lat="46.05275" lon="6.98997">
        <ele>1809</ele>
        <time>2022-08-28T02:58:07Z</time>
      </trkpt>
      <trkpt lat="46.05273" lon="6.98995">
        <ele>1810</ele>
        <time>2022-08-28T02:58:11Z</time>
      </trkpt>
      <trkpt lat="46.05271" lon="6.98994">
        <ele>1811</ele>
        <time>2022-08-28T02:58:14Z</time>
      </trkpt>
      <trkpt lat="46.05271" lon="6.98991">
        <ele>1811</ele>
        <time>2022-08-28T02:58:16Z</time>
      </trkpt>
      <trkpt lat="46.05271" lon="6.98989">
        <ele>1811</ele>
        <time>2022-08-28T02:58:19Z</time>
      </trkpt>
      <trkpt lat="46.05273" lon="6.98987">
        <ele>1812</ele>
        <time>2022-08-28T02:58:22Z</time>
      </trkpt>
      <trkpt lat="46.05275" lon="6.98986">
        <ele>1812</ele>
        <time>2022-08-28T02:58:25Z</time>
      </trkpt>
      <trkpt lat="46.05277" lon="6.98984">
        <ele>1813</ele>
        <time>2022-08-28T02:58:29Z</time>
      </trkpt>
      <trkpt lat="46.05279" lon="6.98983">
        <ele>1814</ele>
        <time>2022-08-28T02:58:33Z</time>
      </trkpt>
      <trkpt lat="46.05277" lon="6.98981">
        <ele>1815</ele>
        <time>2022-08-28T02:58:39Z</time>
      </trkpt>
      <trkpt lat="46.05275" lon="6.98981">
        <ele>1816</ele>
        <time>2022-08-28T02:58:41Z</time>
      </trkpt>
      <trkpt lat="46.05273" lon="6.98981">
        <ele>1817</ele>
        <time>2022-08-28T02:58:48Z</time>
      </trkpt>
      <trkpt lat="46.05272" lon="6.98978">
        <ele>1818</ele>
        <time>2022-08-28T02:58:53Z</time>
      </trkpt>
      <trkpt lat="46.0527" lon="6.98977">
        <ele>1818</ele>
        <time>2022-08-28T02:58:57Z</time>
      </trkpt>
      <trkpt lat="46.05267" lon="6.98976">
        <ele>1818</ele>
        <time>2022-08-28T02:59:01Z</time>
      </trkpt>
      <trkpt lat="46.05266" lon="6.98977">
        <ele>1819</ele>
        <time>2022-08-28T02:59:04Z</time>
      </trkpt>
      <trkpt lat="46.05264" lon="6.98978">
        <ele>1819</ele>
        <time>2022-08-28T02:59:06Z</time>
      </trkpt>
      <trkpt lat="46.05262" lon="6.98976">
        <ele>1821</ele>
        <time>2022-08-28T02:59:10Z</time>
      </trkpt>
      <trkpt lat="46.0526" lon="6.98975">
        <ele>1821</ele>
        <time>2022-08-28T02:59:12Z</time>
      </trkpt>
      <trkpt lat="46.05258" lon="6.98973">
        <ele>1821</ele>
        <time>2022-08-28T02:59:15Z</time>
      </trkpt>
      <trkpt lat="46.05256" lon="6.98971">
        <ele>1821</ele>
        <time>2022-08-28T02:59:18Z</time>
      </trkpt>
      <trkpt lat="46.05254" lon="6.9897">
        <ele>1822</ele>
        <time>2022-08-28T02:59:22Z</time>
      </trkpt>
      <trkpt lat="46.05252" lon="6.98968">
        <ele>1823</ele>
        <time>2022-08-28T02:59:26Z</time>
      </trkpt>
      <trkpt lat="46.05251" lon="6.98965">
        <ele>1824</ele>
        <time>2022-08-28T02:59:31Z</time>
      </trkpt>
      <trkpt lat="46.05249" lon="6.98962">
        <ele>1825</ele>
        <time>2022-08-28T02:59:35Z</time>
      </trkpt>
      <trkpt lat="46.05248" lon="6.98961">
        <ele>1825</ele>
        <time>2022-08-28T02:59:38Z</time>
      </trkpt>
      <trkpt lat="46.05246" lon="6.98959">
        <ele>1826</ele>
        <time>2022-08-28T02:59:41Z</time>
      </trkpt>
      <trkpt lat="46.05245" lon="6.98957">
        <ele>1826</ele>
        <time>2022-08-28T02:59:44Z</time>
      </trkpt>
      <trkpt lat="46.05243" lon="6.98955">
        <ele>1827</ele>
        <time>2022-08-28T02:59:48Z</time>
      </trkpt>
      <trkpt lat="46.05242" lon="6.98952">
        <ele>1826</ele>
        <time>2022-08-28T02:59:51Z</time>
      </trkpt>
      <trkpt lat="46.05241" lon="6.98951">
        <ele>1827</ele>
        <time>2022-08-28T02:59:55Z</time>
      </trkpt>
      <trkpt lat="46.05239" lon="6.98949">
        <ele>1828</ele>
        <time>2022-08-28T02:59:58Z</time>
      </trkpt>
      <trkpt lat="46.05238" lon="6.98947">
        <ele>1828</ele>
        <time>2022-08-28T03:00:01Z</time>
      </trkpt>
      <trkpt lat="46.05236" lon="6.98945">
        <ele>1829</ele>
        <time>2022-08-28T03:00:05Z</time>
      </trkpt>
      <trkpt lat="46.05235" lon="6.98943">
        <ele>1830</ele>
        <time>2022-08-28T03:00:08Z</time>
      </trkpt>
      <trkpt lat="46.05234" lon="6.98941">
        <ele>1830</ele>
        <time>2022-08-28T03:00:11Z</time>
      </trkpt>
      <trkpt lat="46.05232" lon="6.98939">
        <ele>1831</ele>
        <time>2022-08-28T03:00:15Z</time>
      </trkpt>
      <trkpt lat="46.05231" lon="6.98937">
        <ele>1831</ele>
        <time>2022-08-28T03:00:18Z</time>
      </trkpt>
      <trkpt lat="46.05228" lon="6.98936">
        <ele>1833</ele>
        <time>2022-08-28T03:00:23Z</time>
      </trkpt>
      <trkpt lat="46.05227" lon="6.98935">
        <ele>1833</ele>
        <time>2022-08-28T03:00:26Z</time>
      </trkpt>
      <trkpt lat="46.05225" lon="6.98933">
        <ele>1834</ele>
        <time>2022-08-28T03:00:30Z</time>
      </trkpt>
      <trkpt lat="46.05223" lon="6.98932">
        <ele>1833</ele>
        <time>2022-08-28T03:00:33Z</time>
      </trkpt>
      <trkpt lat="46.05221" lon="6.98932">
        <ele>1835</ele>
        <time>2022-08-28T03:00:37Z</time>
      </trkpt>
      <trkpt lat="46.05218" lon="6.98931">
        <ele>1836</ele>
        <time>2022-08-28T03:00:41Z</time>
      </trkpt>
      <trkpt lat="46.05217" lon="6.98928">
        <ele>1836</ele>
        <time>2022-08-28T03:00:46Z</time>
      </trkpt>
      <trkpt lat="46.05214" lon="6.98927">
        <ele>1837</ele>
        <time>2022-08-28T03:00:49Z</time>
      </trkpt>
      <trkpt lat="46.05212" lon="6.98926">
        <ele>1837</ele>
        <time>2022-08-28T03:00:52Z</time>
      </trkpt>
      <trkpt lat="46.0521" lon="6.98926">
        <ele>1838</ele>
        <time>2022-08-28T03:00:55Z</time>
      </trkpt>
      <trkpt lat="46.05208" lon="6.98926">
        <ele>1838</ele>
        <time>2022-08-28T03:00:59Z</time>
      </trkpt>
      <trkpt lat="46.05206" lon="6.98924">
        <ele>1839</ele>
        <time>2022-08-28T03:01:03Z</time>
      </trkpt>
      <trkpt lat="46.05204" lon="6.98923">
        <ele>1840</ele>
        <time>2022-08-28T03:01:08Z</time>
      </trkpt>
      <trkpt lat="46.05201" lon="6.98922">
        <ele>1840</ele>
        <time>2022-08-28T03:01:12Z</time>
      </trkpt>
      <trkpt lat="46.052" lon="6.98922">
        <ele>1841</ele>
        <time>2022-08-28T03:01:16Z</time>
      </trkpt>
      <trkpt lat="46.05198" lon="6.9892">
        <ele>1842</ele>
        <time>2022-08-28T03:01:21Z</time>
      </trkpt>
      <trkpt lat="46.05196" lon="6.9892">
        <ele>1843</ele>
        <time>2022-08-28T03:01:25Z</time>
      </trkpt>
      <trkpt lat="46.05194" lon="6.9892">
        <ele>1843</ele>
        <time>2022-08-28T03:01:28Z</time>
      </trkpt>
      <trkpt lat="46.05192" lon="6.98919">
        <ele>1844</ele>
        <time>2022-08-28T03:01:31Z</time>
      </trkpt>
      <trkpt lat="46.0519" lon="6.98919">
        <ele>1845</ele>
        <time>2022-08-28T03:01:35Z</time>
      </trkpt>
      <trkpt lat="46.05189" lon="6.98917">
        <ele>1846</ele>
        <time>2022-08-28T03:01:40Z</time>
      </trkpt>
      <trkpt lat="46.05186" lon="6.98917">
        <ele>1846</ele>
        <time>2022-08-28T03:01:43Z</time>
      </trkpt>
      <trkpt lat="46.05184" lon="6.98916">
        <ele>1847</ele>
        <time>2022-08-28T03:01:47Z</time>
      </trkpt>
      <trkpt lat="46.05182" lon="6.98915">
        <ele>1848</ele>
        <time>2022-08-28T03:01:52Z</time>
      </trkpt>
      <trkpt lat="46.0518" lon="6.98913">
        <ele>1849</ele>
        <time>2022-08-28T03:01:56Z</time>
      </trkpt>
      <trkpt lat="46.05178" lon="6.98912">
        <ele>1849</ele>
        <time>2022-08-28T03:02:00Z</time>
      </trkpt>
      <trkpt lat="46.05176" lon="6.9891">
        <ele>1850</ele>
        <time>2022-08-28T03:02:04Z</time>
      </trkpt>
      <trkpt lat="46.05175" lon="6.98908">
        <ele>1851</ele>
        <time>2022-08-28T03:02:07Z</time>
      </trkpt>
      <trkpt lat="46.05174" lon="6.98906">
        <ele>1852</ele>
        <time>2022-08-28T03:02:11Z</time>
      </trkpt>
      <trkpt lat="46.05172" lon="6.98904">
        <ele>1852</ele>
        <time>2022-08-28T03:02:15Z</time>
      </trkpt>
      <trkpt lat="46.0517" lon="6.98903">
        <ele>1853</ele>
        <time>2022-08-28T03:02:19Z</time>
      </trkpt>
      <trkpt lat="46.05168" lon="6.98901">
        <ele>1854</ele>
        <time>2022-08-28T03:02:22Z</time>
      </trkpt>
      <trkpt lat="46.05167" lon="6.98899">
        <ele>1854</ele>
        <time>2022-08-28T03:02:25Z</time>
      </trkpt>
      <trkpt lat="46.05165" lon="6.98899">
        <ele>1855</ele>
        <time>2022-08-28T03:02:30Z</time>
      </trkpt>
      <trkpt lat="46.05162" lon="6.98898">
        <ele>1856</ele>
        <time>2022-08-28T03:02:37Z</time>
      </trkpt>
      <trkpt lat="46.0516" lon="6.98898">
        <ele>1857</ele>
        <time>2022-08-28T03:02:41Z</time>
      </trkpt>
      <trkpt lat="46.05158" lon="6.98897">
        <ele>1858</ele>
        <time>2022-08-28T03:02:45Z</time>
      </trkpt>
      <trkpt lat="46.05156" lon="6.98896">
        <ele>1858</ele>
        <time>2022-08-28T03:02:49Z</time>
      </trkpt>
      <trkpt lat="46.05154" lon="6.98895">
        <ele>1859</ele>
        <time>2022-08-28T03:02:51Z</time>
      </trkpt>
      <trkpt lat="46.05153" lon="6.98892">
        <ele>1860</ele>
        <time>2022-08-28T03:02:54Z</time>
      </trkpt>
      <trkpt lat="46.05154" lon="6.9889">
        <ele>1860</ele>
        <time>2022-08-28T03:02:59Z</time>
      </trkpt>
      <trkpt lat="46.05156" lon="6.98889">
        <ele>1861</ele>
        <time>2022-08-28T03:03:03Z</time>
      </trkpt>
      <trkpt lat="46.05158" lon="6.98888">
        <ele>1862</ele>
        <time>2022-08-28T03:03:11Z</time>
      </trkpt>
      <trkpt lat="46.05159" lon="6.98886">
        <ele>1862</ele>
        <time>2022-08-28T03:03:13Z</time>
      </trkpt>
      <trkpt lat="46.05161" lon="6.98884">
        <ele>1862</ele>
        <time>2022-08-28T03:03:16Z</time>
      </trkpt>
      <trkpt lat="46.05162" lon="6.98883">
        <ele>1863</ele>
        <time>2022-08-28T03:03:19Z</time>
      </trkpt>
      <trkpt lat="46.05164" lon="6.98881">
        <ele>1864</ele>
        <time>2022-08-28T03:03:24Z</time>
      </trkpt>
      <trkpt lat="46.05164" lon="6.98878">
        <ele>1865</ele>
        <time>2022-08-28T03:03:28Z</time>
      </trkpt>
      <trkpt lat="46.05166" lon="6.98876">
        <ele>1866</ele>
        <time>2022-08-28T03:03:31Z</time>
      </trkpt>
      <trkpt lat="46.05167" lon="6.98876">
        <ele>1866</ele>
        <time>2022-08-28T03:03:35Z</time>
      </trkpt>
      <trkpt lat="46.05169" lon="6.98873">
        <ele>1867</ele>
        <time>2022-08-28T03:03:38Z</time>
      </trkpt>
      <trkpt lat="46.0517" lon="6.98871">
        <ele>1868</ele>
        <time>2022-08-28T03:03:41Z</time>
      </trkpt>
      <trkpt lat="46.05172" lon="6.98871">
        <ele>1868</ele>
        <time>2022-08-28T03:03:46Z</time>
      </trkpt>
      <trkpt lat="46.05174" lon="6.9887">
        <ele>1869</ele>
        <time>2022-08-28T03:03:51Z</time>
      </trkpt>
      <trkpt lat="46.05176" lon="6.98868">
        <ele>1870</ele>
        <time>2022-08-28T03:03:54Z</time>
      </trkpt>
      <trkpt lat="46.05178" lon="6.98867">
        <ele>1871</ele>
        <time>2022-08-28T03:03:58Z</time>
      </trkpt>
      <trkpt lat="46.0518" lon="6.98866">
        <ele>1871</ele>
        <time>2022-08-28T03:04:02Z</time>
      </trkpt>
      <trkpt lat="46.05182" lon="6.98864">
        <ele>1872</ele>
        <time>2022-08-28T03:04:06Z</time>
      </trkpt>
      <trkpt lat="46.05184" lon="6.98863">
        <ele>1872</ele>
        <time>2022-08-28T03:04:09Z</time>
      </trkpt>
      <trkpt lat="46.05186" lon="6.98862">
        <ele>1873</ele>
        <time>2022-08-28T03:04:14Z</time>
      </trkpt>
      <trkpt lat="46.05188" lon="6.98861">
        <ele>1874</ele>
        <time>2022-08-28T03:04:16Z</time>
      </trkpt>
      <trkpt lat="46.0519" lon="6.98861">
        <ele>1874</ele>
        <time>2022-08-28T03:04:19Z</time>
      </trkpt>
      <trkpt lat="46.05192" lon="6.9886">
        <ele>1874</ele>
        <time>2022-08-28T03:04:22Z</time>
      </trkpt>
      <trkpt lat="46.05194" lon="6.98859">
        <ele>1875</ele>
        <time>2022-08-28T03:04:26Z</time>
      </trkpt>
      <trkpt lat="46.05196" lon="6.98857">
        <ele>1875</ele>
        <time>2022-08-28T03:04:28Z</time>
      </trkpt>
      <trkpt lat="46.05197" lon="6.98856">
        <ele>1875</ele>
        <time>2022-08-28T03:04:30Z</time>
      </trkpt>
      <trkpt lat="46.05199" lon="6.98856">
        <ele>1876</ele>
        <time>2022-08-28T03:04:35Z</time>
      </trkpt>
      <trkpt lat="46.05201" lon="6.98854">
        <ele>1876</ele>
        <time>2022-08-28T03:04:38Z</time>
      </trkpt>
      <trkpt lat="46.05203" lon="6.98856">
        <ele>1876</ele>
        <time>2022-08-28T03:04:41Z</time>
      </trkpt>
      <trkpt lat="46.05205" lon="6.98855">
        <ele>1877</ele>
        <time>2022-08-28T03:04:46Z</time>
      </trkpt>
      <trkpt lat="46.05207" lon="6.98854">
        <ele>1878</ele>
        <time>2022-08-28T03:04:50Z</time>
      </trkpt>
      <trkpt lat="46.05208" lon="6.98852">
        <ele>1879</ele>
        <time>2022-08-28T03:04:55Z</time>
      </trkpt>
      <trkpt lat="46.05208" lon="6.98849">
        <ele>1879</ele>
        <time>2022-08-28T03:04:59Z</time>
      </trkpt>
      <trkpt lat="46.05207" lon="6.98847">
        <ele>1881</ele>
        <time>2022-08-28T03:05:06Z</time>
      </trkpt>
      <trkpt lat="46.05205" lon="6.98845">
        <ele>1881</ele>
        <time>2022-08-28T03:05:11Z</time>
      </trkpt>
      <trkpt lat="46.05203" lon="6.98844">
        <ele>1883</ele>
        <time>2022-08-28T03:05:13Z</time>
      </trkpt>
      <trkpt lat="46.05201" lon="6.98842">
        <ele>1883</ele>
        <time>2022-08-28T03:05:17Z</time>
      </trkpt>
      <trkpt lat="46.052" lon="6.98842">
        <ele>1883</ele>
        <time>2022-08-28T03:05:20Z</time>
      </trkpt>
      <trkpt lat="46.05198" lon="6.9884">
        <ele>1883</ele>
        <time>2022-08-28T03:05:23Z</time>
      </trkpt>
      <trkpt lat="46.05196" lon="6.9884">
        <ele>1885</ele>
        <time>2022-08-28T03:05:28Z</time>
      </trkpt>
      <trkpt lat="46.05194" lon="6.98839">
        <ele>1885</ele>
        <time>2022-08-28T03:05:30Z</time>
      </trkpt>
      <trkpt lat="46.05192" lon="6.98838">
        <ele>1886</ele>
        <time>2022-08-28T03:05:35Z</time>
      </trkpt>
      <trkpt lat="46.05189" lon="6.98839">
        <ele>1886</ele>
        <time>2022-08-28T03:05:37Z</time>
      </trkpt>
      <trkpt lat="46.05188" lon="6.98838">
        <ele>1886</ele>
        <time>2022-08-28T03:05:39Z</time>
      </trkpt>
      <trkpt lat="46.05186" lon="6.98837">
        <ele>1887</ele>
        <time>2022-08-28T03:05:43Z</time>
      </trkpt>
      <trkpt lat="46.05184" lon="6.98836">
        <ele>1887</ele>
        <time>2022-08-28T03:05:46Z</time>
      </trkpt>
      <trkpt lat="46.05182" lon="6.98835">
        <ele>1888</ele>
        <time>2022-08-28T03:05:50Z</time>
      </trkpt>
      <trkpt lat="46.0518" lon="6.98834">
        <ele>1890</ele>
        <time>2022-08-28T03:05:55Z</time>
      </trkpt>
      <trkpt lat="46.05178" lon="6.98834">
        <ele>1891</ele>
        <time>2022-08-28T03:06:01Z</time>
      </trkpt>
      <trkpt lat="46.05176" lon="6.98833">
        <ele>1891</ele>
        <time>2022-08-28T03:06:05Z</time>
      </trkpt>
      <trkpt lat="46.05174" lon="6.98832">
        <ele>1891</ele>
        <time>2022-08-28T03:06:09Z</time>
      </trkpt>
      <trkpt lat="46.05172" lon="6.98832">
        <ele>1893</ele>
        <time>2022-08-28T03:06:13Z</time>
      </trkpt>
      <trkpt lat="46.0517" lon="6.98832">
        <ele>1893</ele>
        <time>2022-08-28T03:06:18Z</time>
      </trkpt>
      <trkpt lat="46.05168" lon="6.98831">
        <ele>1894</ele>
        <time>2022-08-28T03:06:22Z</time>
      </trkpt>
      <trkpt lat="46.05166" lon="6.98829">
        <ele>1895</ele>
        <time>2022-08-28T03:06:25Z</time>
      </trkpt>
      <trkpt lat="46.05165" lon="6.98827">
        <ele>1896</ele>
        <time>2022-08-28T03:06:30Z</time>
      </trkpt>
      <trkpt lat="46.05163" lon="6.98826">
        <ele>1896</ele>
        <time>2022-08-28T03:06:33Z</time>
      </trkpt>
      <trkpt lat="46.05161" lon="6.98825">
        <ele>1897</ele>
        <time>2022-08-28T03:06:38Z</time>
      </trkpt>
      <trkpt lat="46.05159" lon="6.98825">
        <ele>1898</ele>
        <time>2022-08-28T03:06:41Z</time>
      </trkpt>
      <trkpt lat="46.05157" lon="6.98824">
        <ele>1899</ele>
        <time>2022-08-28T03:06:44Z</time>
      </trkpt>
      <trkpt lat="46.05155" lon="6.98824">
        <ele>1899</ele>
        <time>2022-08-28T03:06:47Z</time>
      </trkpt>
      <trkpt lat="46.05153" lon="6.98824">
        <ele>1900</ele>
        <time>2022-08-28T03:06:51Z</time>
      </trkpt>
      <trkpt lat="46.05151" lon="6.98823">
        <ele>1900</ele>
        <time>2022-08-28T03:06:55Z</time>
      </trkpt>
      <trkpt lat="46.05149" lon="6.98821">
        <ele>1901</ele>
        <time>2022-08-28T03:06:59Z</time>
      </trkpt>
      <trkpt lat="46.05147" lon="6.9882">
        <ele>1901</ele>
        <time>2022-08-28T03:07:03Z</time>
      </trkpt>
      <trkpt lat="46.05145" lon="6.98819">
        <ele>1902</ele>
        <time>2022-08-28T03:07:06Z</time>
      </trkpt>
      <trkpt lat="46.05143" lon="6.98819">
        <ele>1902</ele>
        <time>2022-08-28T03:07:09Z</time>
      </trkpt>
      <trkpt lat="46.05141" lon="6.98819">
        <ele>1903</ele>
        <time>2022-08-28T03:07:12Z</time>
      </trkpt>
      <trkpt lat="46.05139" lon="6.98818">
        <ele>1904</ele>
        <time>2022-08-28T03:07:17Z</time>
      </trkpt>
      <trkpt lat="46.05137" lon="6.98818">
        <ele>1904</ele>
        <time>2022-08-28T03:07:19Z</time>
      </trkpt>
      <trkpt lat="46.05135" lon="6.98817">
        <ele>1905</ele>
        <time>2022-08-28T03:07:22Z</time>
      </trkpt>
      <trkpt lat="46.05133" lon="6.98816">
        <ele>1905</ele>
        <time>2022-08-28T03:07:25Z</time>
      </trkpt>
      <trkpt lat="46.05131" lon="6.98815">
        <ele>1905</ele>
        <time>2022-08-28T03:07:28Z</time>
      </trkpt>
      <trkpt lat="46.05129" lon="6.98814">
        <ele>1906</ele>
        <time>2022-08-28T03:07:31Z</time>
      </trkpt>
      <trkpt lat="46.05127" lon="6.98814">
        <ele>1906</ele>
        <time>2022-08-28T03:07:34Z</time>
      </trkpt>
      <trkpt lat="46.05125" lon="6.98813">
        <ele>1906</ele>
        <time>2022-08-28T03:07:37Z</time>
      </trkpt>
      <trkpt lat="46.05123" lon="6.98811">
        <ele>1906</ele>
        <time>2022-08-28T03:07:40Z</time>
      </trkpt>
      <trkpt lat="46.05121" lon="6.98809">
        <ele>1908</ele>
        <time>2022-08-28T03:07:43Z</time>
      </trkpt>
      <trkpt lat="46.05119" lon="6.98807">
        <ele>1908</ele>
        <time>2022-08-28T03:07:45Z</time>
      </trkpt>
      <trkpt lat="46.05117" lon="6.98805">
        <ele>1908</ele>
        <time>2022-08-28T03:07:48Z</time>
      </trkpt>
      <trkpt lat="46.05115" lon="6.98803">
        <ele>1908</ele>
        <time>2022-08-28T03:07:50Z</time>
      </trkpt>
      <trkpt lat="46.05113" lon="6.98801">
        <ele>1909</ele>
        <time>2022-08-28T03:07:54Z</time>
      </trkpt>
      <trkpt lat="46.05111" lon="6.98799">
        <ele>1909</ele>
        <time>2022-08-28T03:07:56Z</time>
      </trkpt>
      <trkpt lat="46.05109" lon="6.98797">
        <ele>1910</ele>
        <time>2022-08-28T03:07:59Z</time>
      </trkpt>
      <trkpt lat="46.05108" lon="6.98796">
        <ele>1911</ele>
        <time>2022-08-28T03:08:02Z</time>
      </trkpt>
      <trkpt lat="46.05106" lon="6.98795">
        <ele>1911</ele>
        <time>2022-08-28T03:08:06Z</time>
      </trkpt>
      <trkpt lat="46.05104" lon="6.98794">
        <ele>1911</ele>
        <time>2022-08-28T03:08:10Z</time>
      </trkpt>
      <trkpt lat="46.05101" lon="6.98793">
        <ele>1912</ele>
        <time>2022-08-28T03:08:15Z</time>
      </trkpt>
      <trkpt lat="46.05099" lon="6.98793">
        <ele>1913</ele>
        <time>2022-08-28T03:08:17Z</time>
      </trkpt>
      <trkpt lat="46.05097" lon="6.98794">
        <ele>1913</ele>
        <time>2022-08-28T03:08:19Z</time>
      </trkpt>
      <trkpt lat="46.05095" lon="6.98794">
        <ele>1914</ele>
        <time>2022-08-28T03:08:22Z</time>
      </trkpt>
      <trkpt lat="46.05093" lon="6.98793">
        <ele>1914</ele>
        <time>2022-08-28T03:08:26Z</time>
      </trkpt>
      <trkpt lat="46.05092" lon="6.98793">
        <ele>1914</ele>
        <time>2022-08-28T03:08:28Z</time>
      </trkpt>
      <trkpt lat="46.0509" lon="6.98793">
        <ele>1915</ele>
        <time>2022-08-28T03:08:31Z</time>
      </trkpt>
      <trkpt lat="46.05088" lon="6.98795">
        <ele>1915</ele>
        <time>2022-08-28T03:08:34Z</time>
      </trkpt>
      <trkpt lat="46.05086" lon="6.98796">
        <ele>1915</ele>
        <time>2022-08-28T03:08:37Z</time>
      </trkpt>
      <trkpt lat="46.05084" lon="6.98798">
        <ele>1915</ele>
        <time>2022-08-28T03:08:40Z</time>
      </trkpt>
      <trkpt lat="46.05082" lon="6.98799">
        <ele>1915</ele>
        <time>2022-08-28T03:08:42Z</time>
      </trkpt>
      <trkpt lat="46.05081" lon="6.988">
        <ele>1916</ele>
        <time>2022-08-28T03:08:44Z</time>
      </trkpt>
      <trkpt lat="46.05079" lon="6.98799">
        <ele>1916</ele>
        <time>2022-08-28T03:08:47Z</time>
      </trkpt>
      <trkpt lat="46.05077" lon="6.98799">
        <ele>1917</ele>
        <time>2022-08-28T03:08:50Z</time>
      </trkpt>
      <trkpt lat="46.05075" lon="6.98797">
        <ele>1917</ele>
        <time>2022-08-28T03:08:54Z</time>
      </trkpt>
      <trkpt lat="46.05072" lon="6.98795">
        <ele>1917</ele>
        <time>2022-08-28T03:08:57Z</time>
      </trkpt>
      <trkpt lat="46.0507" lon="6.98793">
        <ele>1917</ele>
        <time>2022-08-28T03:09:00Z</time>
      </trkpt>
      <trkpt lat="46.05068" lon="6.98792">
        <ele>1918</ele>
        <time>2022-08-28T03:09:03Z</time>
      </trkpt>
      <trkpt lat="46.05067" lon="6.9879">
        <ele>1919</ele>
        <time>2022-08-28T03:09:06Z</time>
      </trkpt>
      <trkpt lat="46.05065" lon="6.98789">
        <ele>1919</ele>
        <time>2022-08-28T03:09:09Z</time>
      </trkpt>
      <trkpt lat="46.05063" lon="6.98787">
        <ele>1920</ele>
        <time>2022-08-28T03:09:12Z</time>
      </trkpt>
      <trkpt lat="46.05061" lon="6.98785">
        <ele>1920</ele>
        <time>2022-08-28T03:09:15Z</time>
      </trkpt>
      <trkpt lat="46.0506" lon="6.98783">
        <ele>1921</ele>
        <time>2022-08-28T03:09:19Z</time>
      </trkpt>
      <trkpt lat="46.05058" lon="6.98781">
        <ele>1922</ele>
        <time>2022-08-28T03:09:23Z</time>
      </trkpt>
      <trkpt lat="46.05057" lon="6.98779">
        <ele>1923</ele>
        <time>2022-08-28T03:09:27Z</time>
      </trkpt>
      <trkpt lat="46.05055" lon="6.98777">
        <ele>1923</ele>
        <time>2022-08-28T03:09:32Z</time>
      </trkpt>
      <trkpt lat="46.05054" lon="6.98775">
        <ele>1924</ele>
        <time>2022-08-28T03:09:34Z</time>
      </trkpt>
      <trkpt lat="46.05052" lon="6.98773">
        <ele>1924</ele>
        <time>2022-08-28T03:09:38Z</time>
      </trkpt>
      <trkpt lat="46.05051" lon="6.98771">
        <ele>1925</ele>
        <time>2022-08-28T03:09:43Z</time>
      </trkpt>
      <trkpt lat="46.05049" lon="6.98769">
        <ele>1925</ele>
        <time>2022-08-28T03:09:46Z</time>
      </trkpt>
      <trkpt lat="46.05047" lon="6.98767">
        <ele>1925</ele>
        <time>2022-08-28T03:09:49Z</time>
      </trkpt>
      <trkpt lat="46.05045" lon="6.98766">
        <ele>1925</ele>
        <time>2022-08-28T03:09:51Z</time>
      </trkpt>
      <trkpt lat="46.05044" lon="6.98764">
        <ele>1926</ele>
        <time>2022-08-28T03:09:56Z</time>
      </trkpt>
      <trkpt lat="46.05042" lon="6.98762">
        <ele>1926</ele>
        <time>2022-08-28T03:09:58Z</time>
      </trkpt>
      <trkpt lat="46.05041" lon="6.9876">
        <ele>1927</ele>
        <time>2022-08-28T03:10:01Z</time>
      </trkpt>
      <trkpt lat="46.05039" lon="6.98758">
        <ele>1928</ele>
        <time>2022-08-28T03:10:04Z</time>
      </trkpt>
      <trkpt lat="46.05037" lon="6.98758">
        <ele>1928</ele>
        <time>2022-08-28T03:10:08Z</time>
      </trkpt>
      <trkpt lat="46.05035" lon="6.98759">
        <ele>1928</ele>
        <time>2022-08-28T03:10:13Z</time>
      </trkpt>
      <trkpt lat="46.05033" lon="6.98759">
        <ele>1929</ele>
        <time>2022-08-28T03:10:16Z</time>
      </trkpt>
      <trkpt lat="46.05031" lon="6.9876">
        <ele>1929</ele>
        <time>2022-08-28T03:10:19Z</time>
      </trkpt>
      <trkpt lat="46.05029" lon="6.98761">
        <ele>1931</ele>
        <time>2022-08-28T03:10:23Z</time>
      </trkpt>
      <trkpt lat="46.05027" lon="6.9876">
        <ele>1931</ele>
        <time>2022-08-28T03:10:26Z</time>
      </trkpt>
      <trkpt lat="46.05024" lon="6.98759">
        <ele>1932</ele>
        <time>2022-08-28T03:10:29Z</time>
      </trkpt>
      <trkpt lat="46.05022" lon="6.98758">
        <ele>1932</ele>
        <time>2022-08-28T03:10:31Z</time>
      </trkpt>
      <trkpt lat="46.0502" lon="6.98757">
        <ele>1933</ele>
        <time>2022-08-28T03:10:34Z</time>
      </trkpt>
      <trkpt lat="46.05019" lon="6.98755">
        <ele>1933</ele>
        <time>2022-08-28T03:10:37Z</time>
      </trkpt>
      <trkpt lat="46.05017" lon="6.98753">
        <ele>1933</ele>
        <time>2022-08-28T03:10:39Z</time>
      </trkpt>
      <trkpt lat="46.05015" lon="6.98751">
        <ele>1934</ele>
        <time>2022-08-28T03:10:42Z</time>
      </trkpt>
      <trkpt lat="46.05014" lon="6.9875">
        <ele>1935</ele>
        <time>2022-08-28T03:10:45Z</time>
      </trkpt>
      <trkpt lat="46.05012" lon="6.98748">
        <ele>1935</ele>
        <time>2022-08-28T03:10:48Z</time>
      </trkpt>
      <trkpt lat="46.0501" lon="6.98745">
        <ele>1936</ele>
        <time>2022-08-28T03:10:52Z</time>
      </trkpt>
      <trkpt lat="46.05009" lon="6.98743">
        <ele>1937</ele>
        <time>2022-08-28T03:10:56Z</time>
      </trkpt>
      <trkpt lat="46.05008" lon="6.98741">
        <ele>1938</ele>
        <time>2022-08-28T03:11:00Z</time>
      </trkpt>
      <trkpt lat="46.05007" lon="6.98738">
        <ele>1938</ele>
        <time>2022-08-28T03:11:04Z</time>
      </trkpt>
      <trkpt lat="46.05005" lon="6.98736">
        <ele>1939</ele>
        <time>2022-08-28T03:11:08Z</time>
      </trkpt>
      <trkpt lat="46.05004" lon="6.98734">
        <ele>1941</ele>
        <time>2022-08-28T03:11:15Z</time>
      </trkpt>
      <trkpt lat="46.05002" lon="6.98732">
        <ele>1941</ele>
        <time>2022-08-28T03:11:18Z</time>
      </trkpt>
      <trkpt lat="46.05001" lon="6.9873">
        <ele>1941</ele>
        <time>2022-08-28T03:11:21Z</time>
      </trkpt>
      <trkpt lat="46.05" lon="6.98728">
        <ele>1942</ele>
        <time>2022-08-28T03:11:25Z</time>
      </trkpt>
      <trkpt lat="46.04997" lon="6.98726">
        <ele>1943</ele>
        <time>2022-08-28T03:11:28Z</time>
      </trkpt>
      <trkpt lat="46.04995" lon="6.98725">
        <ele>1943</ele>
        <time>2022-08-28T03:11:31Z</time>
      </trkpt>
      <trkpt lat="46.04993" lon="6.98724">
        <ele>1943</ele>
        <time>2022-08-28T03:11:33Z</time>
      </trkpt>
      <trkpt lat="46.04991" lon="6.98723">
        <ele>1944</ele>
        <time>2022-08-28T03:11:35Z</time>
      </trkpt>
      <trkpt lat="46.04989" lon="6.98722">
        <ele>1944</ele>
        <time>2022-08-28T03:11:38Z</time>
      </trkpt>
      <trkpt lat="46.04987" lon="6.98721">
        <ele>1945</ele>
        <time>2022-08-28T03:11:42Z</time>
      </trkpt>
      <trkpt lat="46.04985" lon="6.9872">
        <ele>1946</ele>
        <time>2022-08-28T03:11:46Z</time>
      </trkpt>
      <trkpt lat="46.04983" lon="6.9872">
        <ele>1946</ele>
        <time>2022-08-28T03:11:50Z</time>
      </trkpt>
      <trkpt lat="46.04981" lon="6.9872">
        <ele>1947</ele>
        <time>2022-08-28T03:11:52Z</time>
      </trkpt>
      <trkpt lat="46.04979" lon="6.98719">
        <ele>1947</ele>
        <time>2022-08-28T03:11:54Z</time>
      </trkpt>
      <trkpt lat="46.04977" lon="6.98718">
        <ele>1947</ele>
        <time>2022-08-28T03:11:57Z</time>
      </trkpt>
      <trkpt lat="46.04975" lon="6.98717">
        <ele>1947</ele>
        <time>2022-08-28T03:12:00Z</time>
      </trkpt>
      <trkpt lat="46.04973" lon="6.98716">
        <ele>1948</ele>
        <time>2022-08-28T03:12:04Z</time>
      </trkpt>
      <trkpt lat="46.04971" lon="6.98716">
        <ele>1949</ele>
        <time>2022-08-28T03:12:09Z</time>
      </trkpt>
      <trkpt lat="46.04969" lon="6.98716">
        <ele>1950</ele>
        <time>2022-08-28T03:12:15Z</time>
      </trkpt>
      <trkpt lat="46.04967" lon="6.98715">
        <ele>1951</ele>
        <time>2022-08-28T03:12:20Z</time>
      </trkpt>
      <trkpt lat="46.04966" lon="6.98713">
        <ele>1952</ele>
        <time>2022-08-28T03:12:25Z</time>
      </trkpt>
      <trkpt lat="46.04964" lon="6.98711">
        <ele>1953</ele>
        <time>2022-08-28T03:12:28Z</time>
      </trkpt>
      <trkpt lat="46.04962" lon="6.9871">
        <ele>1953</ele>
        <time>2022-08-28T03:12:31Z</time>
      </trkpt>
      <trkpt lat="46.0496" lon="6.98708">
        <ele>1954</ele>
        <time>2022-08-28T03:12:35Z</time>
      </trkpt>
      <trkpt lat="46.04958" lon="6.98706">
        <ele>1955</ele>
        <time>2022-08-28T03:12:38Z</time>
      </trkpt>
      <trkpt lat="46.04956" lon="6.98706">
        <ele>1955</ele>
        <time>2022-08-28T03:12:42Z</time>
      </trkpt>
      <trkpt lat="46.04955" lon="6.98705">
        <ele>1955</ele>
        <time>2022-08-28T03:12:45Z</time>
      </trkpt>
      <trkpt lat="46.04953" lon="6.98702">
        <ele>1957</ele>
        <time>2022-08-28T03:12:52Z</time>
      </trkpt>
      <trkpt lat="46.04951" lon="6.98701">
        <ele>1958</ele>
        <time>2022-08-28T03:12:55Z</time>
      </trkpt>
      <trkpt lat="46.04949" lon="6.987">
        <ele>1958</ele>
        <time>2022-08-28T03:12:59Z</time>
      </trkpt>
      <trkpt lat="46.04947" lon="6.98699">
        <ele>1958</ele>
        <time>2022-08-28T03:13:02Z</time>
      </trkpt>
      <trkpt lat="46.04946" lon="6.98696">
        <ele>1958</ele>
        <time>2022-08-28T03:13:05Z</time>
      </trkpt>
      <trkpt lat="46.04944" lon="6.98694">
        <ele>1959</ele>
        <time>2022-08-28T03:13:09Z</time>
      </trkpt>
      <trkpt lat="46.04942" lon="6.98693">
        <ele>1960</ele>
        <time>2022-08-28T03:13:12Z</time>
      </trkpt>
      <trkpt lat="46.04941" lon="6.98692">
        <ele>1960</ele>
        <time>2022-08-28T03:13:14Z</time>
      </trkpt>
      <trkpt lat="46.04939" lon="6.98692">
        <ele>1960</ele>
        <time>2022-08-28T03:13:17Z</time>
      </trkpt>
      <trkpt lat="46.04936" lon="6.98693">
        <ele>1963</ele>
        <time>2022-08-28T03:13:21Z</time>
      </trkpt>
      <trkpt lat="46.04934" lon="6.98694">
        <ele>1963</ele>
        <time>2022-08-28T03:13:25Z</time>
      </trkpt>
      <trkpt lat="46.04932" lon="6.98691">
        <ele>1964</ele>
        <time>2022-08-28T03:13:29Z</time>
      </trkpt>
      <trkpt lat="46.04931" lon="6.98689">
        <ele>1965</ele>
        <time>2022-08-28T03:13:33Z</time>
      </trkpt>
      <trkpt lat="46.0493" lon="6.98687">
        <ele>1965</ele>
        <time>2022-08-28T03:13:36Z</time>
      </trkpt>
      <trkpt lat="46.04929" lon="6.98684">
        <ele>1966</ele>
        <time>2022-08-28T03:13:38Z</time>
      </trkpt>
      <trkpt lat="46.04928" lon="6.98681">
        <ele>1966</ele>
        <time>2022-08-28T03:13:41Z</time>
      </trkpt>
      <trkpt lat="46.04927" lon="6.98679">
        <ele>1966</ele>
        <time>2022-08-28T03:13:44Z</time>
      </trkpt>
      <trkpt lat="46.04925" lon="6.98677">
        <ele>1967</ele>
        <time>2022-08-28T03:13:47Z</time>
      </trkpt>
      <trkpt lat="46.04924" lon="6.98675">
        <ele>1967</ele>
        <time>2022-08-28T03:13:50Z</time>
      </trkpt>
      <trkpt lat="46.04922" lon="6.98673">
        <ele>1967</ele>
        <time>2022-08-28T03:13:54Z</time>
      </trkpt>
      <trkpt lat="46.04921" lon="6.98672">
        <ele>1968</ele>
        <time>2022-08-28T03:13:58Z</time>
      </trkpt>
      <trkpt lat="46.04918" lon="6.98672">
        <ele>1969</ele>
        <time>2022-08-28T03:14:02Z</time>
      </trkpt>
      <trkpt lat="46.04916" lon="6.98671">
        <ele>1970</ele>
        <time>2022-08-28T03:14:07Z</time>
      </trkpt>
      <trkpt lat="46.04914" lon="6.98672">
        <ele>1971</ele>
        <time>2022-08-28T03:14:12Z</time>
      </trkpt>
      <trkpt lat="46.04912" lon="6.98672">
        <ele>1971</ele>
        <time>2022-08-28T03:14:17Z</time>
      </trkpt>
      <trkpt lat="46.0491" lon="6.98675">
        <ele>1972</ele>
        <time>2022-08-28T03:14:23Z</time>
      </trkpt>
      <trkpt lat="46.04908" lon="6.98675">
        <ele>1973</ele>
        <time>2022-08-28T03:14:28Z</time>
      </trkpt>
      <trkpt lat="46.04906" lon="6.98676">
        <ele>1974</ele>
        <time>2022-08-28T03:14:31Z</time>
      </trkpt>
      <trkpt lat="46.04904" lon="6.98676">
        <ele>1974</ele>
        <time>2022-08-28T03:14:35Z</time>
      </trkpt>
      <trkpt lat="46.04901" lon="6.98675">
        <ele>1975</ele>
        <time>2022-08-28T03:14:37Z</time>
      </trkpt>
      <trkpt lat="46.04899" lon="6.98674">
        <ele>1975</ele>
        <time>2022-08-28T03:14:40Z</time>
      </trkpt>
      <trkpt lat="46.04897" lon="6.98674">
        <ele>1975</ele>
        <time>2022-08-28T03:14:43Z</time>
      </trkpt>
      <trkpt lat="46.04895" lon="6.98672">
        <ele>1976</ele>
        <time>2022-08-28T03:14:45Z</time>
      </trkpt>
      <trkpt lat="46.04893" lon="6.9867">
        <ele>1977</ele>
        <time>2022-08-28T03:14:47Z</time>
      </trkpt>
      <trkpt lat="46.04891" lon="6.98668">
        <ele>1977</ele>
        <time>2022-08-28T03:14:50Z</time>
      </trkpt>
      <trkpt lat="46.04889" lon="6.98666">
        <ele>1977</ele>
        <time>2022-08-28T03:14:53Z</time>
      </trkpt>
      <trkpt lat="46.04888" lon="6.98664">
        <ele>1977</ele>
        <time>2022-08-28T03:14:55Z</time>
      </trkpt>
      <trkpt lat="46.04886" lon="6.98662">
        <ele>1978</ele>
        <time>2022-08-28T03:14:58Z</time>
      </trkpt>
      <trkpt lat="46.04885" lon="6.9866">
        <ele>1978</ele>
        <time>2022-08-28T03:15:00Z</time>
      </trkpt>
      <trkpt lat="46.04883" lon="6.98658">
        <ele>1979</ele>
        <time>2022-08-28T03:15:03Z</time>
      </trkpt>
      <trkpt lat="46.04881" lon="6.98657">
        <ele>1978</ele>
        <time>2022-08-28T03:15:06Z</time>
      </trkpt>
      <trkpt lat="46.04879" lon="6.98655">
        <ele>1979</ele>
        <time>2022-08-28T03:15:10Z</time>
      </trkpt>
      <trkpt lat="46.04877" lon="6.98654">
        <ele>1980</ele>
        <time>2022-08-28T03:15:12Z</time>
      </trkpt>
      <trkpt lat="46.04875" lon="6.98653">
        <ele>1981</ele>
        <time>2022-08-28T03:15:16Z</time>
      </trkpt>
      <trkpt lat="46.04873" lon="6.98652">
        <ele>1981</ele>
        <time>2022-08-28T03:15:19Z</time>
      </trkpt>
      <trkpt lat="46.04871" lon="6.9865">
        <ele>1981</ele>
        <time>2022-08-28T03:15:22Z</time>
      </trkpt>
      <trkpt lat="46.04869" lon="6.98649">
        <ele>1981</ele>
        <time>2022-08-28T03:15:25Z</time>
      </trkpt>
      <trkpt lat="46.04867" lon="6.9865">
        <ele>1983</ele>
        <time>2022-08-28T03:15:29Z</time>
      </trkpt>
      <trkpt lat="46.04864" lon="6.9865">
        <ele>1983</ele>
        <time>2022-08-28T03:15:32Z</time>
      </trkpt>
      <trkpt lat="46.04861" lon="6.9865">
        <ele>1984</ele>
        <time>2022-08-28T03:15:35Z</time>
      </trkpt>
      <trkpt lat="46.0486" lon="6.98649">
        <ele>1984</ele>
        <time>2022-08-28T03:15:37Z</time>
      </trkpt>
      <trkpt lat="46.04858" lon="6.98648">
        <ele>1984</ele>
        <time>2022-08-28T03:15:39Z</time>
      </trkpt>
      <trkpt lat="46.04857" lon="6.98646">
        <ele>1984</ele>
        <time>2022-08-28T03:15:41Z</time>
      </trkpt>
      <trkpt lat="46.04855" lon="6.98643">
        <ele>1984</ele>
        <time>2022-08-28T03:15:44Z</time>
      </trkpt>
      <trkpt lat="46.04854" lon="6.98641">
        <ele>1985</ele>
        <time>2022-08-28T03:15:48Z</time>
      </trkpt>
      <trkpt lat="46.04852" lon="6.98639">
        <ele>1986</ele>
        <time>2022-08-28T03:15:52Z</time>
      </trkpt>
      <trkpt lat="46.04851" lon="6.98637">
        <ele>1988</ele>
        <time>2022-08-28T03:15:56Z</time>
      </trkpt>
      <trkpt lat="46.04849" lon="6.98636">
        <ele>1988</ele>
        <time>2022-08-28T03:16:01Z</time>
      </trkpt>
      <trkpt lat="46.04847" lon="6.98634">
        <ele>1989</ele>
        <time>2022-08-28T03:16:05Z</time>
      </trkpt>
      <trkpt lat="46.04845" lon="6.98634">
        <ele>1991</ele>
        <time>2022-08-28T03:16:10Z</time>
      </trkpt>
      <trkpt lat="46.04843" lon="6.98635">
        <ele>1991</ele>
        <time>2022-08-28T03:16:14Z</time>
      </trkpt>
      <trkpt lat="46.04841" lon="6.98636">
        <ele>1991</ele>
        <time>2022-08-28T03:16:17Z</time>
      </trkpt>
      <trkpt lat="46.04838" lon="6.98635">
        <ele>1992</ele>
        <time>2022-08-28T03:16:20Z</time>
      </trkpt>
      <trkpt lat="46.04836" lon="6.98634">
        <ele>1992</ele>
        <time>2022-08-28T03:16:23Z</time>
      </trkpt>
      <trkpt lat="46.04835" lon="6.98632">
        <ele>1992</ele>
        <time>2022-08-28T03:16:26Z</time>
      </trkpt>
      <trkpt lat="46.04833" lon="6.9863">
        <ele>1993</ele>
        <time>2022-08-28T03:16:29Z</time>
      </trkpt>
      <trkpt lat="46.04832" lon="6.98627">
        <ele>1993</ele>
        <time>2022-08-28T03:16:33Z</time>
      </trkpt>
      <trkpt lat="46.04831" lon="6.98625">
        <ele>1994</ele>
        <time>2022-08-28T03:16:37Z</time>
      </trkpt>
      <trkpt lat="46.04829" lon="6.98623">
        <ele>1995</ele>
        <time>2022-08-28T03:16:42Z</time>
      </trkpt>
      <trkpt lat="46.04828" lon="6.9862">
        <ele>1996</ele>
        <time>2022-08-28T03:16:47Z</time>
      </trkpt>
      <trkpt lat="46.04829" lon="6.98618">
        <ele>1996</ele>
        <time>2022-08-28T03:16:50Z</time>
      </trkpt>
      <trkpt lat="46.0483" lon="6.98619">
        <ele>1997</ele>
        <time>2022-08-28T03:16:56Z</time>
      </trkpt>
      <trkpt lat="46.04832" lon="6.98617">
        <ele>1999</ele>
        <time>2022-08-28T03:17:06Z</time>
      </trkpt>
      <trkpt lat="46.04835" lon="6.98617">
        <ele>1999</ele>
        <time>2022-08-28T03:17:08Z</time>
      </trkpt>
      <trkpt lat="46.04837" lon="6.98616">
        <ele>2000</ele>
        <time>2022-08-28T03:17:11Z</time>
      </trkpt>
      <trkpt lat="46.04836" lon="6.98613">
        <ele>2002</ele>
        <time>2022-08-28T03:17:24Z</time>
      </trkpt>
      <trkpt lat="46.04835" lon="6.98611">
        <ele>2002</ele>
        <time>2022-08-28T03:17:28Z</time>
      </trkpt>
      <trkpt lat="46.04834" lon="6.98608">
        <ele>2003</ele>
        <time>2022-08-28T03:17:33Z</time>
      </trkpt>
      <trkpt lat="46.04833" lon="6.98605">
        <ele>2004</ele>
        <time>2022-08-28T03:17:37Z</time>
      </trkpt>
      <trkpt lat="46.04832" lon="6.98603">
        <ele>2004</ele>
        <time>2022-08-28T03:17:41Z</time>
      </trkpt>
      <trkpt lat="46.04832" lon="6.986">
        <ele>2005</ele>
        <time>2022-08-28T03:17:47Z</time>
      </trkpt>
      <trkpt lat="46.04831" lon="6.98597">
        <ele>2006</ele>
        <time>2022-08-28T03:17:52Z</time>
      </trkpt>
      <trkpt lat="46.0483" lon="6.98595">
        <ele>2007</ele>
        <time>2022-08-28T03:17:57Z</time>
      </trkpt>
      <trkpt lat="46.04829" lon="6.98591">
        <ele>2008</ele>
        <time>2022-08-28T03:18:01Z</time>
      </trkpt>
      <trkpt lat="46.04828" lon="6.9859">
        <ele>2009</ele>
        <time>2022-08-28T03:18:05Z</time>
      </trkpt>
      <trkpt lat="46.04827" lon="6.98587">
        <ele>2010</ele>
        <time>2022-08-28T03:18:13Z</time>
      </trkpt>
      <trkpt lat="46.04825" lon="6.98584">
        <ele>2011</ele>
        <time>2022-08-28T03:18:20Z</time>
      </trkpt>
      <trkpt lat="46.04824" lon="6.98582">
        <ele>2012</ele>
        <time>2022-08-28T03:18:24Z</time>
      </trkpt>
      <trkpt lat="46.04823" lon="6.9858">
        <ele>2014</ele>
        <time>2022-08-28T03:18:29Z</time>
      </trkpt>
      <trkpt lat="46.04821" lon="6.98578">
        <ele>2014</ele>
        <time>2022-08-28T03:18:32Z</time>
      </trkpt>
      <trkpt lat="46.0482" lon="6.98576">
        <ele>2015</ele>
        <time>2022-08-28T03:18:35Z</time>
      </trkpt>
      <trkpt lat="46.0482" lon="6.98573">
        <ele>2016</ele>
        <time>2022-08-28T03:18:39Z</time>
      </trkpt>
      <trkpt lat="46.04819" lon="6.9857">
        <ele>2016</ele>
        <time>2022-08-28T03:18:43Z</time>
      </trkpt>
      <trkpt lat="46.04818" lon="6.98568">
        <ele>2017</ele>
        <time>2022-08-28T03:18:47Z</time>
      </trkpt>
      <trkpt lat="46.04817" lon="6.98565">
        <ele>2017</ele>
        <time>2022-08-28T03:18:52Z</time>
      </trkpt>
      <trkpt lat="46.04816" lon="6.98563">
        <ele>2018</ele>
        <time>2022-08-28T03:18:55Z</time>
      </trkpt>
      <trkpt lat="46.04814" lon="6.98562">
        <ele>2018</ele>
        <time>2022-08-28T03:19:00Z</time>
      </trkpt>
      <trkpt lat="46.04812" lon="6.98561">
        <ele>2019</ele>
        <time>2022-08-28T03:19:05Z</time>
      </trkpt>
      <trkpt lat="46.04811" lon="6.98558">
        <ele>2020</ele>
        <time>2022-08-28T03:19:10Z</time>
      </trkpt>
      <trkpt lat="46.04809" lon="6.98556">
        <ele>2020</ele>
        <time>2022-08-28T03:19:12Z</time>
      </trkpt>
      <trkpt lat="46.04807" lon="6.98554">
        <ele>2021</ele>
        <time>2022-08-28T03:19:15Z</time>
      </trkpt>
      <trkpt lat="46.04805" lon="6.98552">
        <ele>2021</ele>
        <time>2022-08-28T03:19:18Z</time>
      </trkpt>
      <trkpt lat="46.04803" lon="6.9855">
        <ele>2021</ele>
        <time>2022-08-28T03:19:21Z</time>
      </trkpt>
      <trkpt lat="46.04802" lon="6.98548">
        <ele>2022</ele>
        <time>2022-08-28T03:19:25Z</time>
      </trkpt>
      <trkpt lat="46.048" lon="6.98546">
        <ele>2023</ele>
        <time>2022-08-28T03:19:30Z</time>
      </trkpt>
      <trkpt lat="46.04798" lon="6.98546">
        <ele>2024</ele>
        <time>2022-08-28T03:19:36Z</time>
      </trkpt>
      <trkpt lat="46.04796" lon="6.98544">
        <ele>2024</ele>
        <time>2022-08-28T03:19:39Z</time>
      </trkpt>
      <trkpt lat="46.04795" lon="6.98542">
        <ele>2024</ele>
        <time>2022-08-28T03:19:42Z</time>
      </trkpt>
      <trkpt lat="46.04793" lon="6.9854">
        <ele>2025</ele>
        <time>2022-08-28T03:19:45Z</time>
      </trkpt>
      <trkpt lat="46.04792" lon="6.98538">
        <ele>2025</ele>
        <time>2022-08-28T03:19:49Z</time>
      </trkpt>
      <trkpt lat="46.04789" lon="6.98537">
        <ele>2026</ele>
        <time>2022-08-28T03:19:53Z</time>
      </trkpt>
      <trkpt lat="46.04788" lon="6.98535">
        <ele>2026</ele>
        <time>2022-08-28T03:19:56Z</time>
      </trkpt>
      <trkpt lat="46.04785" lon="6.98534">
        <ele>2026</ele>
        <time>2022-08-28T03:20:00Z</time>
      </trkpt>
      <trkpt lat="46.04784" lon="6.98533">
        <ele>2027</ele>
        <time>2022-08-28T03:20:03Z</time>
      </trkpt>
      <trkpt lat="46.04783" lon="6.9853">
        <ele>2028</ele>
        <time>2022-08-28T03:20:09Z</time>
      </trkpt>
      <trkpt lat="46.04784" lon="6.98527">
        <ele>2028</ele>
        <time>2022-08-28T03:20:12Z</time>
      </trkpt>
      <trkpt lat="46.04786" lon="6.98527">
        <ele>2028</ele>
        <time>2022-08-28T03:20:17Z</time>
      </trkpt>
      <trkpt lat="46.04788" lon="6.98526">
        <ele>2029</ele>
        <time>2022-08-28T03:20:21Z</time>
      </trkpt>
      <trkpt lat="46.04789" lon="6.98523">
        <ele>2030</ele>
        <time>2022-08-28T03:20:24Z</time>
      </trkpt>
      <trkpt lat="46.0479" lon="6.98521">
        <ele>2031</ele>
        <time>2022-08-28T03:20:31Z</time>
      </trkpt>
      <trkpt lat="46.04793" lon="6.9852">
        <ele>2033</ele>
        <time>2022-08-28T03:20:41Z</time>
      </trkpt>
      <trkpt lat="46.04795" lon="6.98519">
        <ele>2033</ele>
        <time>2022-08-28T03:20:43Z</time>
      </trkpt>
      <trkpt lat="46.04796" lon="6.98518">
        <ele>2033</ele>
        <time>2022-08-28T03:20:44Z</time>
      </trkpt>
      <trkpt lat="46.04797" lon="6.98518">
        <ele>2034</ele>
        <time>2022-08-28T03:20:45Z</time>
      </trkpt>
      <trkpt lat="46.04799" lon="6.98516">
        <ele>2034</ele>
        <time>2022-08-28T03:20:46Z</time>
      </trkpt>
      <trkpt lat="46.04801" lon="6.98515">
        <ele>2034</ele>
        <time>2022-08-28T03:20:48Z</time>
      </trkpt>
      <trkpt lat="46.04803" lon="6.98514">
        <ele>2034</ele>
        <time>2022-08-28T03:20:51Z</time>
      </trkpt>
      <trkpt lat="46.04803" lon="6.98517">
        <ele>2036</ele>
        <time>2022-08-28T03:21:00Z</time>
      </trkpt>
      <trkpt lat="46.04805" lon="6.98515">
        <ele>2037</ele>
        <time>2022-08-28T03:21:03Z</time>
      </trkpt>
      <trkpt lat="46.04808" lon="6.98514">
        <ele>2038</ele>
        <time>2022-08-28T03:21:15Z</time>
      </trkpt>
      <trkpt lat="46.04806" lon="6.98512">
        <ele>2041</ele>
        <time>2022-08-28T03:21:22Z</time>
      </trkpt>
      <trkpt lat="46.04805" lon="6.9851">
        <ele>2041</ele>
        <time>2022-08-28T03:21:26Z</time>
      </trkpt>
      <trkpt lat="46.04805" lon="6.98507">
        <ele>2043</ele>
        <time>2022-08-28T03:21:30Z</time>
      </trkpt>
      <trkpt lat="46.04803" lon="6.98505">
        <ele>2044</ele>
        <time>2022-08-28T03:21:36Z</time>
      </trkpt>
      <trkpt lat="46.04801" lon="6.98504">
        <ele>2045</ele>
        <time>2022-08-28T03:21:44Z</time>
      </trkpt>
      <trkpt lat="46.04799" lon="6.98503">
        <ele>2046</ele>
        <time>2022-08-28T03:21:49Z</time>
      </trkpt>
      <trkpt lat="46.04797" lon="6.98502">
        <ele>2047</ele>
        <time>2022-08-28T03:21:54Z</time>
      </trkpt>
      <trkpt lat="46.04796" lon="6.985">
        <ele>2047</ele>
        <time>2022-08-28T03:21:57Z</time>
      </trkpt>
      <trkpt lat="46.04795" lon="6.98498">
        <ele>2048</ele>
        <time>2022-08-28T03:22:00Z</time>
      </trkpt>
      <trkpt lat="46.04793" lon="6.98496">
        <ele>2048</ele>
        <time>2022-08-28T03:22:03Z</time>
      </trkpt>
      <trkpt lat="46.04791" lon="6.98496">
        <ele>2049</ele>
        <time>2022-08-28T03:22:07Z</time>
      </trkpt>
      <trkpt lat="46.0479" lon="6.98493">
        <ele>2049</ele>
        <time>2022-08-28T03:22:11Z</time>
      </trkpt>
      <trkpt lat="46.04788" lon="6.98491">
        <ele>2050</ele>
        <time>2022-08-28T03:22:18Z</time>
      </trkpt>
      <trkpt lat="46.04787" lon="6.9849">
        <ele>2052</ele>
        <time>2022-08-28T03:22:24Z</time>
      </trkpt>
      <trkpt lat="46.04786" lon="6.98487">
        <ele>2052</ele>
        <time>2022-08-28T03:22:28Z</time>
      </trkpt>
      <trkpt lat="46.04785" lon="6.98485">
        <ele>2053</ele>
        <time>2022-08-28T03:22:32Z</time>
      </trkpt>
      <trkpt lat="46.04784" lon="6.98483">
        <ele>2054</ele>
        <time>2022-08-28T03:22:39Z</time>
      </trkpt>
      <trkpt lat="46.04781" lon="6.98482">
        <ele>2054</ele>
        <time>2022-08-28T03:22:42Z</time>
      </trkpt>
      <trkpt lat="46.0478" lon="6.9848">
        <ele>2054</ele>
        <time>2022-08-28T03:22:44Z</time>
      </trkpt>
      <trkpt lat="46.04779" lon="6.98477">
        <ele>2055</ele>
        <time>2022-08-28T03:22:46Z</time>
      </trkpt>
      <trkpt lat="46.04778" lon="6.98475">
        <ele>2055</ele>
        <time>2022-08-28T03:22:49Z</time>
      </trkpt>
      <trkpt lat="46.04776" lon="6.98472">
        <ele>2056</ele>
        <time>2022-08-28T03:22:52Z</time>
      </trkpt>
      <trkpt lat="46.04774" lon="6.98471">
        <ele>2057</ele>
        <time>2022-08-28T03:22:56Z</time>
      </trkpt>
      <trkpt lat="46.04773" lon="6.98469">
        <ele>2057</ele>
        <time>2022-08-28T03:22:59Z</time>
      </trkpt>
      <trkpt lat="46.04772" lon="6.98466">
        <ele>2058</ele>
        <time>2022-08-28T03:23:02Z</time>
      </trkpt>
      <trkpt lat="46.04771" lon="6.98463">
        <ele>2058</ele>
        <time>2022-08-28T03:23:05Z</time>
      </trkpt>
      <trkpt lat="46.04769" lon="6.9846">
        <ele>2058</ele>
        <time>2022-08-28T03:23:09Z</time>
      </trkpt>
      <trkpt lat="46.04768" lon="6.98458">
        <ele>2058</ele>
        <time>2022-08-28T03:23:12Z</time>
      </trkpt>
      <trkpt lat="46.04766" lon="6.98455">
        <ele>2059</ele>
        <time>2022-08-28T03:23:16Z</time>
      </trkpt>
      <trkpt lat="46.04764" lon="6.98454">
        <ele>2059</ele>
        <time>2022-08-28T03:23:17Z</time>
      </trkpt>
      <trkpt lat="46.04763" lon="6.98452">
        <ele>2059</ele>
        <time>2022-08-28T03:23:21Z</time>
      </trkpt>
      <trkpt lat="46.04761" lon="6.98451">
        <ele>2060</ele>
        <time>2022-08-28T03:23:24Z</time>
      </trkpt>
      <trkpt lat="46.04759" lon="6.98448">
        <ele>2060</ele>
        <time>2022-08-28T03:23:27Z</time>
      </trkpt>
      <trkpt lat="46.04757" lon="6.98446">
        <ele>2061</ele>
        <time>2022-08-28T03:23:30Z</time>
      </trkpt>
      <trkpt lat="46.04756" lon="6.98443">
        <ele>2062</ele>
        <time>2022-08-28T03:23:33Z</time>
      </trkpt>
      <trkpt lat="46.04755" lon="6.98441">
        <ele>2062</ele>
        <time>2022-08-28T03:23:36Z</time>
      </trkpt>
      <trkpt lat="46.04754" lon="6.98439">
        <ele>2063</ele>
        <time>2022-08-28T03:23:39Z</time>
      </trkpt>
      <trkpt lat="46.04753" lon="6.98436">
        <ele>2063</ele>
        <time>2022-08-28T03:23:42Z</time>
      </trkpt>
      <trkpt lat="46.04752" lon="6.98433">
        <ele>2063</ele>
        <time>2022-08-28T03:23:45Z</time>
      </trkpt>
      <trkpt lat="46.04751" lon="6.9843">
        <ele>2064</ele>
        <time>2022-08-28T03:23:49Z</time>
      </trkpt>
      <trkpt lat="46.04749" lon="6.98429">
        <ele>2064</ele>
        <time>2022-08-28T03:23:53Z</time>
      </trkpt>
      <trkpt lat="46.04748" lon="6.98427">
        <ele>2066</ele>
        <time>2022-08-28T03:23:58Z</time>
      </trkpt>
      <trkpt lat="46.04746" lon="6.98425">
        <ele>2067</ele>
        <time>2022-08-28T03:24:03Z</time>
      </trkpt>
      <trkpt lat="46.04744" lon="6.98424">
        <ele>2067</ele>
        <time>2022-08-28T03:24:06Z</time>
      </trkpt>
      <trkpt lat="46.04742" lon="6.98424">
        <ele>2068</ele>
        <time>2022-08-28T03:24:11Z</time>
      </trkpt>
      <trkpt lat="46.0474" lon="6.98425">
        <ele>2069</ele>
        <time>2022-08-28T03:24:16Z</time>
      </trkpt>
      <trkpt lat="46.04738" lon="6.98423">
        <ele>2069</ele>
        <time>2022-08-28T03:24:20Z</time>
      </trkpt>
      <trkpt lat="46.04737" lon="6.98421">
        <ele>2069</ele>
        <time>2022-08-28T03:24:23Z</time>
      </trkpt>
      <trkpt lat="46.04735" lon="6.98419">
        <ele>2069</ele>
        <time>2022-08-28T03:24:28Z</time>
      </trkpt>
      <trkpt lat="46.04733" lon="6.98417">
        <ele>2069</ele>
        <time>2022-08-28T03:24:31Z</time>
      </trkpt>
      <trkpt lat="46.04731" lon="6.98414">
        <ele>2070</ele>
        <time>2022-08-28T03:24:34Z</time>
      </trkpt>
      <trkpt lat="46.04729" lon="6.98411">
        <ele>2070</ele>
        <time>2022-08-28T03:24:37Z</time>
      </trkpt>
      <trkpt lat="46.04728" lon="6.98409">
        <ele>2071</ele>
        <time>2022-08-28T03:24:40Z</time>
      </trkpt>
      <trkpt lat="46.04726" lon="6.98407">
        <ele>2072</ele>
        <time>2022-08-28T03:24:45Z</time>
      </trkpt>
      <trkpt lat="46.04725" lon="6.98406">
        <ele>2073</ele>
        <time>2022-08-28T03:24:49Z</time>
      </trkpt>
      <trkpt lat="46.04722" lon="6.98405">
        <ele>2073</ele>
        <time>2022-08-28T03:24:54Z</time>
      </trkpt>
      <trkpt lat="46.0472" lon="6.98405">
        <ele>2073</ele>
        <time>2022-08-28T03:24:57Z</time>
      </trkpt>
      <trkpt lat="46.04718" lon="6.98404">
        <ele>2074</ele>
        <time>2022-08-28T03:25:03Z</time>
      </trkpt>
      <trkpt lat="46.04716" lon="6.98404">
        <ele>2074</ele>
        <time>2022-08-28T03:25:05Z</time>
      </trkpt>
      <trkpt lat="46.04714" lon="6.98402">
        <ele>2074</ele>
        <time>2022-08-28T03:25:08Z</time>
      </trkpt>
      <trkpt lat="46.04713" lon="6.984">
        <ele>2075</ele>
        <time>2022-08-28T03:25:11Z</time>
      </trkpt>
      <trkpt lat="46.04711" lon="6.98398">
        <ele>2075</ele>
        <time>2022-08-28T03:25:15Z</time>
      </trkpt>
      <trkpt lat="46.04709" lon="6.98397">
        <ele>2075</ele>
        <time>2022-08-28T03:25:18Z</time>
      </trkpt>
      <trkpt lat="46.04706" lon="6.98397">
        <ele>2075</ele>
        <time>2022-08-28T03:25:22Z</time>
      </trkpt>
      <trkpt lat="46.04704" lon="6.98397">
        <ele>2075</ele>
        <time>2022-08-28T03:25:23Z</time>
      </trkpt>
      <trkpt lat="46.04702" lon="6.98397">
        <ele>2075</ele>
        <time>2022-08-28T03:25:25Z</time>
      </trkpt>
      <trkpt lat="46.047" lon="6.98396">
        <ele>2076</ele>
        <time>2022-08-28T03:25:29Z</time>
      </trkpt>
      <trkpt lat="46.04698" lon="6.98394">
        <ele>2077</ele>
        <time>2022-08-28T03:25:33Z</time>
      </trkpt>
      <trkpt lat="46.04697" lon="6.98392">
        <ele>2077</ele>
        <time>2022-08-28T03:25:36Z</time>
      </trkpt>
      <trkpt lat="46.04694" lon="6.98391">
        <ele>2077</ele>
        <time>2022-08-28T03:25:40Z</time>
      </trkpt>
      <trkpt lat="46.04693" lon="6.9839">
        <ele>2078</ele>
        <time>2022-08-28T03:25:42Z</time>
      </trkpt>
      <trkpt lat="46.04691" lon="6.9839">
        <ele>2078</ele>
        <time>2022-08-28T03:25:45Z</time>
      </trkpt>
      <trkpt lat="46.04689" lon="6.98388">
        <ele>2078</ele>
        <time>2022-08-28T03:25:48Z</time>
      </trkpt>
      <trkpt lat="46.04687" lon="6.98387">
        <ele>2078</ele>
        <time>2022-08-28T03:25:52Z</time>
      </trkpt>
      <trkpt lat="46.04685" lon="6.98386">
        <ele>2079</ele>
        <time>2022-08-28T03:25:56Z</time>
      </trkpt>
      <trkpt lat="46.04684" lon="6.98384">
        <ele>2079</ele>
        <time>2022-08-28T03:26:00Z</time>
      </trkpt>
      <trkpt lat="46.04681" lon="6.98383">
        <ele>2080</ele>
        <time>2022-08-28T03:26:03Z</time>
      </trkpt>
      <trkpt lat="46.04679" lon="6.98381">
        <ele>2080</ele>
        <time>2022-08-28T03:26:06Z</time>
      </trkpt>
      <trkpt lat="46.04678" lon="6.98381">
        <ele>2080</ele>
        <time>2022-08-28T03:26:09Z</time>
      </trkpt>
      <trkpt lat="46.04675" lon="6.98382">
        <ele>2080</ele>
        <time>2022-08-28T03:26:12Z</time>
      </trkpt>
      <trkpt lat="46.04674" lon="6.98383">
        <ele>2080</ele>
        <time>2022-08-28T03:26:14Z</time>
      </trkpt>
      <trkpt lat="46.04672" lon="6.98382">
        <ele>2080</ele>
        <time>2022-08-28T03:26:17Z</time>
      </trkpt>
      <trkpt lat="46.0467" lon="6.98381">
        <ele>2082</ele>
        <time>2022-08-28T03:26:21Z</time>
      </trkpt>
      <trkpt lat="46.04668" lon="6.98379">
        <ele>2082</ele>
        <time>2022-08-28T03:26:23Z</time>
      </trkpt>
      <trkpt lat="46.04666" lon="6.98378">
        <ele>2082</ele>
        <time>2022-08-28T03:26:26Z</time>
      </trkpt>
      <trkpt lat="46.04664" lon="6.98377">
        <ele>2082</ele>
        <time>2022-08-28T03:26:30Z</time>
      </trkpt>
      <trkpt lat="46.04662" lon="6.98375">
        <ele>2082</ele>
        <time>2022-08-28T03:26:32Z</time>
      </trkpt>
      <trkpt lat="46.0466" lon="6.98376">
        <ele>2083</ele>
        <time>2022-08-28T03:26:36Z</time>
      </trkpt>
      <trkpt lat="46.04658" lon="6.98377">
        <ele>2084</ele>
        <time>2022-08-28T03:26:40Z</time>
      </trkpt>
      <trkpt lat="46.04657" lon="6.98375">
        <ele>2084</ele>
        <time>2022-08-28T03:26:43Z</time>
      </trkpt>
      <trkpt lat="46.04656" lon="6.98373">
        <ele>2084</ele>
        <time>2022-08-28T03:26:45Z</time>
      </trkpt>
      <trkpt lat="46.04655" lon="6.98371">
        <ele>2085</ele>
        <time>2022-08-28T03:26:48Z</time>
      </trkpt>
      <trkpt lat="46.04652" lon="6.98372">
        <ele>2085</ele>
        <time>2022-08-28T03:26:52Z</time>
      </trkpt>
      <trkpt lat="46.0465" lon="6.98373">
        <ele>2086</ele>
        <time>2022-08-28T03:26:57Z</time>
      </trkpt>
      <trkpt lat="46.04649" lon="6.9837">
        <ele>2087</ele>
        <time>2022-08-28T03:26:59Z</time>
      </trkpt>
      <trkpt lat="46.04646" lon="6.98369">
        <ele>2087</ele>
        <time>2022-08-28T03:27:02Z</time>
      </trkpt>
      <trkpt lat="46.04644" lon="6.98367">
        <ele>2087</ele>
        <time>2022-08-28T03:27:05Z</time>
      </trkpt>
      <trkpt lat="46.04642" lon="6.98366">
        <ele>2088</ele>
        <time>2022-08-28T03:27:10Z</time>
      </trkpt>
      <trkpt lat="46.0464" lon="6.98366">
        <ele>2088</ele>
        <time>2022-08-28T03:27:12Z</time>
      </trkpt>
      <trkpt lat="46.04638" lon="6.98367">
        <ele>2088</ele>
        <time>2022-08-28T03:27:14Z</time>
      </trkpt>
      <trkpt lat="46.04636" lon="6.98366">
        <ele>2089</ele>
        <time>2022-08-28T03:27:16Z</time>
      </trkpt>
      <trkpt lat="46.04634" lon="6.98366">
        <ele>2089</ele>
        <time>2022-08-28T03:27:19Z</time>
      </trkpt>
      <trkpt lat="46.04632" lon="6.98367">
        <ele>2089</ele>
        <time>2022-08-28T03:27:21Z</time>
      </trkpt>
      <trkpt lat="46.04629" lon="6.98368">
        <ele>2090</ele>
        <time>2022-08-28T03:27:24Z</time>
      </trkpt>
      <trkpt lat="46.04627" lon="6.98368">
        <ele>2090</ele>
        <time>2022-08-28T03:27:27Z</time>
      </trkpt>
      <trkpt lat="46.04624" lon="6.98368">
        <ele>2092</ele>
        <time>2022-08-28T03:27:30Z</time>
      </trkpt>
      <trkpt lat="46.04622" lon="6.98368">
        <ele>2092</ele>
        <time>2022-08-28T03:27:33Z</time>
      </trkpt>
      <trkpt lat="46.0462" lon="6.98367">
        <ele>2092</ele>
        <time>2022-08-28T03:27:36Z</time>
      </trkpt>
      <trkpt lat="46.04618" lon="6.98366">
        <ele>2092</ele>
        <time>2022-08-28T03:27:39Z</time>
      </trkpt>
      <trkpt lat="46.04616" lon="6.98366">
        <ele>2094</ele>
        <time>2022-08-28T03:27:45Z</time>
      </trkpt>
      <trkpt lat="46.04614" lon="6.98364">
        <ele>2094</ele>
        <time>2022-08-28T03:27:48Z</time>
      </trkpt>
      <trkpt lat="46.04612" lon="6.98363">
        <ele>2095</ele>
        <time>2022-08-28T03:27:50Z</time>
      </trkpt>
      <trkpt lat="46.04611" lon="6.98362">
        <ele>2095</ele>
        <time>2022-08-28T03:27:52Z</time>
      </trkpt>
      <trkpt lat="46.04609" lon="6.98361">
        <ele>2095</ele>
        <time>2022-08-28T03:27:54Z</time>
      </trkpt>
      <trkpt lat="46.04607" lon="6.9836">
        <ele>2095</ele>
        <time>2022-08-28T03:27:57Z</time>
      </trkpt>
      <trkpt lat="46.04604" lon="6.98359">
        <ele>2096</ele>
        <time>2022-08-28T03:28:01Z</time>
      </trkpt>
      <trkpt lat="46.04602" lon="6.98359">
        <ele>2096</ele>
        <time>2022-08-28T03:28:03Z</time>
      </trkpt>
      <trkpt lat="46.046" lon="6.98359">
        <ele>2096</ele>
        <time>2022-08-28T03:28:06Z</time>
      </trkpt>
      <trkpt lat="46.04598" lon="6.98358">
        <ele>2096</ele>
        <time>2022-08-28T03:28:09Z</time>
      </trkpt>
      <trkpt lat="46.04596" lon="6.98358">
        <ele>2097</ele>
        <time>2022-08-28T03:28:12Z</time>
      </trkpt>
      <trkpt lat="46.04594" lon="6.98357">
        <ele>2098</ele>
        <time>2022-08-28T03:28:17Z</time>
      </trkpt>
      <trkpt lat="46.04592" lon="6.98355">
        <ele>2098</ele>
        <time>2022-08-28T03:28:21Z</time>
      </trkpt>
      <trkpt lat="46.04591" lon="6.98353">
        <ele>2099</ele>
        <time>2022-08-28T03:28:24Z</time>
      </trkpt>
      <trkpt lat="46.04589" lon="6.98351">
        <ele>2100</ele>
        <time>2022-08-28T03:28:28Z</time>
      </trkpt>
      <trkpt lat="46.04588" lon="6.98349">
        <ele>2100</ele>
        <time>2022-08-28T03:28:32Z</time>
      </trkpt>
      <trkpt lat="46.04588" lon="6.98346">
        <ele>2101</ele>
        <time>2022-08-28T03:28:36Z</time>
      </trkpt>
      <trkpt lat="46.04586" lon="6.98344">
        <ele>2102</ele>
        <time>2022-08-28T03:28:44Z</time>
      </trkpt>
      <trkpt lat="46.04585" lon="6.98341">
        <ele>2103</ele>
        <time>2022-08-28T03:28:47Z</time>
      </trkpt>
      <trkpt lat="46.04584" lon="6.98339">
        <ele>2103</ele>
        <time>2022-08-28T03:28:50Z</time>
      </trkpt>
      <trkpt lat="46.04582" lon="6.98339">
        <ele>2103</ele>
        <time>2022-08-28T03:28:53Z</time>
      </trkpt>
      <trkpt lat="46.0458" lon="6.98337">
        <ele>2104</ele>
        <time>2022-08-28T03:28:56Z</time>
      </trkpt>
      <trkpt lat="46.04579" lon="6.98335">
        <ele>2105</ele>
        <time>2022-08-28T03:29:01Z</time>
      </trkpt>
      <trkpt lat="46.04578" lon="6.98332">
        <ele>2105</ele>
        <time>2022-08-28T03:29:04Z</time>
      </trkpt>
      <trkpt lat="46.04578" lon="6.9833">
        <ele>2105</ele>
        <time>2022-08-28T03:29:07Z</time>
      </trkpt>
      <trkpt lat="46.04577" lon="6.98326">
        <ele>2105</ele>
        <time>2022-08-28T03:29:10Z</time>
      </trkpt>
      <trkpt lat="46.04576" lon="6.98324">
        <ele>2106</ele>
        <time>2022-08-28T03:29:12Z</time>
      </trkpt>
      <trkpt lat="46.04575" lon="6.98322">
        <ele>2108</ele>
        <time>2022-08-28T03:29:20Z</time>
      </trkpt>
      <trkpt lat="46.04573" lon="6.9832">
        <ele>2108</ele>
        <time>2022-08-28T03:29:25Z</time>
      </trkpt>
      <trkpt lat="46.04572" lon="6.98318">
        <ele>2109</ele>
        <time>2022-08-28T03:29:29Z</time>
      </trkpt>
      <trkpt lat="46.0457" lon="6.98316">
        <ele>2110</ele>
        <time>2022-08-28T03:29:34Z</time>
      </trkpt>
      <trkpt lat="46.04571" lon="6.98312">
        <ele>2111</ele>
        <time>2022-08-28T03:29:39Z</time>
      </trkpt>
      <trkpt lat="46.04571" lon="6.98309">
        <ele>2111</ele>
        <time>2022-08-28T03:29:42Z</time>
      </trkpt>
      <trkpt lat="46.04569" lon="6.98306">
        <ele>2112</ele>
        <time>2022-08-28T03:29:48Z</time>
      </trkpt>
      <trkpt lat="46.0457" lon="6.98303">
        <ele>2113</ele>
        <time>2022-08-28T03:29:51Z</time>
      </trkpt>
      <trkpt lat="46.04571" lon="6.983">
        <ele>2113</ele>
        <time>2022-08-28T03:29:56Z</time>
      </trkpt>
      <trkpt lat="46.0457" lon="6.98297">
        <ele>2114</ele>
        <time>2022-08-28T03:29:59Z</time>
      </trkpt>
      <trkpt lat="46.04569" lon="6.98295">
        <ele>2114</ele>
        <time>2022-08-28T03:30:02Z</time>
      </trkpt>
      <trkpt lat="46.04568" lon="6.98292">
        <ele>2115</ele>
        <time>2022-08-28T03:30:08Z</time>
      </trkpt>
      <trkpt lat="46.04567" lon="6.9829">
        <ele>2116</ele>
        <time>2022-08-28T03:30:15Z</time>
      </trkpt>
      <trkpt lat="46.04566" lon="6.98288">
        <ele>2116</ele>
        <time>2022-08-28T03:30:19Z</time>
      </trkpt>
      <trkpt lat="46.04565" lon="6.98285">
        <ele>2116</ele>
        <time>2022-08-28T03:30:22Z</time>
      </trkpt>
      <trkpt lat="46.04564" lon="6.98282">
        <ele>2118</ele>
        <time>2022-08-28T03:30:24Z</time>
      </trkpt>
      <trkpt lat="46.04563" lon="6.9828">
        <ele>2119</ele>
        <time>2022-08-28T03:30:27Z</time>
      </trkpt>
      <trkpt lat="46.04562" lon="6.98277">
        <ele>2119</ele>
        <time>2022-08-28T03:30:30Z</time>
      </trkpt>
      <trkpt lat="46.04561" lon="6.98274">
        <ele>2119</ele>
        <time>2022-08-28T03:30:34Z</time>
      </trkpt>
      <trkpt lat="46.0456" lon="6.98272">
        <ele>2119</ele>
        <time>2022-08-28T03:30:37Z</time>
      </trkpt>
      <trkpt lat="46.04558" lon="6.98269">
        <ele>2120</ele>
        <time>2022-08-28T03:30:40Z</time>
      </trkpt>
      <trkpt lat="46.04557" lon="6.98268">
        <ele>2121</ele>
        <time>2022-08-28T03:30:44Z</time>
      </trkpt>
      <trkpt lat="46.04555" lon="6.98269">
        <ele>2121</ele>
        <time>2022-08-28T03:30:47Z</time>
      </trkpt>
      <trkpt lat="46.04554" lon="6.98268">
        <ele>2122</ele>
        <time>2022-08-28T03:30:52Z</time>
      </trkpt>
      <trkpt lat="46.04552" lon="6.98267">
        <ele>2122</ele>
        <time>2022-08-28T03:30:55Z</time>
      </trkpt>
      <trkpt lat="46.04552" lon="6.98264">
        <ele>2123</ele>
        <time>2022-08-28T03:30:59Z</time>
      </trkpt>
      <trkpt lat="46.0455" lon="6.98262">
        <ele>2124</ele>
        <time>2022-08-28T03:31:02Z</time>
      </trkpt>
      <trkpt lat="46.04549" lon="6.98259">
        <ele>2123</ele>
        <time>2022-08-28T03:31:04Z</time>
      </trkpt>
      <trkpt lat="46.04548" lon="6.98256">
        <ele>2123</ele>
        <time>2022-08-28T03:31:06Z</time>
      </trkpt>
      <trkpt lat="46.04547" lon="6.98253">
        <ele>2124</ele>
        <time>2022-08-28T03:31:09Z</time>
      </trkpt>
      <trkpt lat="46.04546" lon="6.98251">
        <ele>2125</ele>
        <time>2022-08-28T03:31:13Z</time>
      </trkpt>
      <trkpt lat="46.04547" lon="6.98248">
        <ele>2126</ele>
        <time>2022-08-28T03:31:16Z</time>
      </trkpt>
      <trkpt lat="46.04547" lon="6.98245">
        <ele>2127</ele>
        <time>2022-08-28T03:31:20Z</time>
      </trkpt>
      <trkpt lat="46.04545" lon="6.98243">
        <ele>2128</ele>
        <time>2022-08-28T03:31:30Z</time>
      </trkpt>
      <trkpt lat="46.04544" lon="6.98242">
        <ele>2129</ele>
        <time>2022-08-28T03:31:34Z</time>
      </trkpt>
      <trkpt lat="46.04542" lon="6.98242">
        <ele>2129</ele>
        <time>2022-08-28T03:31:38Z</time>
      </trkpt>
      <trkpt lat="46.0454" lon="6.9824">
        <ele>2130</ele>
        <time>2022-08-28T03:31:43Z</time>
      </trkpt>
      <trkpt lat="46.04539" lon="6.98236">
        <ele>2131</ele>
        <time>2022-08-28T03:31:47Z</time>
      </trkpt>
      <trkpt lat="46.04539" lon="6.98235">
        <ele>2131</ele>
        <time>2022-08-28T03:31:49Z</time>
      </trkpt>
      <trkpt lat="46.04539" lon="6.98233">
        <ele>2132</ele>
        <time>2022-08-28T03:31:50Z</time>
      </trkpt>
      <trkpt lat="46.0454" lon="6.98231">
        <ele>2132</ele>
        <time>2022-08-28T03:31:51Z</time>
      </trkpt>
      <trkpt lat="46.04539" lon="6.98228">
        <ele>2132</ele>
        <time>2022-08-28T03:31:57Z</time>
      </trkpt>
      <trkpt lat="46.04542" lon="6.98226">
        <ele>2133</ele>
        <time>2022-08-28T03:32:03Z</time>
      </trkpt>
      <trkpt lat="46.04542" lon="6.98227">
        <ele>2133</ele>
        <time>2022-08-28T03:32:04Z</time>
      </trkpt>
      <trkpt lat="46.04543" lon="6.98227">
        <ele>2133</ele>
        <time>2022-08-28T03:32:06Z</time>
      </trkpt>
      <trkpt lat="46.04543" lon="6.98227">
        <ele>2133</ele>
        <time>2022-08-28T03:32:07Z</time>
      </trkpt>
      <trkpt lat="46.04544" lon="6.98227">
        <ele>2133</ele>
        <time>2022-08-28T03:32:08Z</time>
      </trkpt>
      <trkpt lat="46.04545" lon="6.98227">
        <ele>2133</ele>
        <time>2022-08-28T03:32:09Z</time>
      </trkpt>
      <trkpt lat="46.04545" lon="6.98227">
        <ele>2133</ele>
        <time>2022-08-28T03:32:10Z</time>
      </trkpt>
      <trkpt lat="46.04546" lon="6.98227">
        <ele>2133</ele>
        <time>2022-08-28T03:32:11Z</time>
      </trkpt>
      <trkpt lat="46.04547" lon="6.98227">
        <ele>2134</ele>
        <time>2022-08-28T03:32:12Z</time>
      </trkpt>
      <trkpt lat="46.04547" lon="6.98228">
        <ele>2134</ele>
        <time>2022-08-28T03:32:13Z</time>
      </trkpt>
      <trkpt lat="46.04548" lon="6.98228">
        <ele>2134</ele>
        <time>2022-08-28T03:32:14Z</time>
      </trkpt>
      <trkpt lat="46.04549" lon="6.98228">
        <ele>2134</ele>
        <time>2022-08-28T03:32:15Z</time>
      </trkpt>
      <trkpt lat="46.04551" lon="6.98228">
        <ele>2135</ele>
        <time>2022-08-28T03:32:18Z</time>
      </trkpt>
      <trkpt lat="46.04553" lon="6.98228">
        <ele>2135</ele>
        <time>2022-08-28T03:32:21Z</time>
      </trkpt>
      <trkpt lat="46.04554" lon="6.98228">
        <ele>2136</ele>
        <time>2022-08-28T03:32:23Z</time>
      </trkpt>
      <trkpt lat="46.04555" lon="6.98228">
        <ele>2136</ele>
        <time>2022-08-28T03:32:24Z</time>
      </trkpt>
      <trkpt lat="46.04556" lon="6.98229">
        <ele>2136</ele>
        <time>2022-08-28T03:32:25Z</time>
      </trkpt>
      <trkpt lat="46.04557" lon="6.98229">
        <ele>2136</ele>
        <time>2022-08-28T03:32:26Z</time>
      </trkpt>
      <trkpt lat="46.04558" lon="6.9823">
        <ele>2136</ele>
        <time>2022-08-28T03:32:27Z</time>
      </trkpt>
      <trkpt lat="46.04559" lon="6.98232">
        <ele>2137</ele>
        <time>2022-08-28T03:32:34Z</time>
      </trkpt>
      <trkpt lat="46.0456" lon="6.98232">
        <ele>2137</ele>
        <time>2022-08-28T03:32:35Z</time>
      </trkpt>
      <trkpt lat="46.04561" lon="6.98232">
        <ele>2137</ele>
        <time>2022-08-28T03:32:37Z</time>
      </trkpt>
      <trkpt lat="46.04562" lon="6.98232">
        <ele>2137</ele>
        <time>2022-08-28T03:32:38Z</time>
      </trkpt>
      <trkpt lat="46.04563" lon="6.98232">
        <ele>2137</ele>
        <time>2022-08-28T03:32:39Z</time>
      </trkpt>
      <trkpt lat="46.04564" lon="6.98231">
        <ele>2138</ele>
        <time>2022-08-28T03:32:41Z</time>
      </trkpt>
      <trkpt lat="46.04565" lon="6.98231">
        <ele>2138</ele>
        <time>2022-08-28T03:32:42Z</time>
      </trkpt>
      <trkpt lat="46.04568" lon="6.9823">
        <ele>2139</ele>
        <time>2022-08-28T03:32:48Z</time>
      </trkpt>
      <trkpt lat="46.04569" lon="6.98233">
        <ele>2140</ele>
        <time>2022-08-28T03:32:54Z</time>
      </trkpt>
      <trkpt lat="46.04571" lon="6.98234">
        <ele>2140</ele>
        <time>2022-08-28T03:32:56Z</time>
      </trkpt>
      <trkpt lat="46.04573" lon="6.98234">
        <ele>2141</ele>
        <time>2022-08-28T03:32:58Z</time>
      </trkpt>
      <trkpt lat="46.04575" lon="6.98234">
        <ele>2141</ele>
        <time>2022-08-28T03:33:01Z</time>
      </trkpt>
      <trkpt lat="46.04577" lon="6.98234">
        <ele>2142</ele>
        <time>2022-08-28T03:33:06Z</time>
      </trkpt>
      <trkpt lat="46.04577" lon="6.98234">
        <ele>2145</ele>
        <time>2022-08-28T03:33:20Z</time>
      </trkpt>
      <trkpt lat="46.04575" lon="6.98233">
        <ele>2146</ele>
        <time>2022-08-28T03:33:25Z</time>
      </trkpt>
      <trkpt lat="46.04575" lon="6.9823">
        <ele>2146</ele>
        <time>2022-08-28T03:33:30Z</time>
      </trkpt>
      <trkpt lat="46.04577" lon="6.98228">
        <ele>2147</ele>
        <time>2022-08-28T03:33:33Z</time>
      </trkpt>
      <trkpt lat="46.04578" lon="6.98228">
        <ele>2147</ele>
        <time>2022-08-28T03:33:37Z</time>
      </trkpt>
      <trkpt lat="46.04581" lon="6.98228">
        <ele>2148</ele>
        <time>2022-08-28T03:33:49Z</time>
      </trkpt>
      <trkpt lat="46.04583" lon="6.98228">
        <ele>2148</ele>
        <time>2022-08-28T03:33:51Z</time>
      </trkpt>
      <trkpt lat="46.04586" lon="6.98229">
        <ele>2148</ele>
        <time>2022-08-28T03:33:53Z</time>
      </trkpt>
      <trkpt lat="46.04587" lon="6.98229">
        <ele>2149</ele>
        <time>2022-08-28T03:33:55Z</time>
      </trkpt>
      <trkpt lat="46.0459" lon="6.9823">
        <ele>2149</ele>
        <time>2022-08-28T03:33:58Z</time>
      </trkpt>
      <trkpt lat="46.04591" lon="6.98233">
        <ele>2150</ele>
        <time>2022-08-28T03:34:02Z</time>
      </trkpt>
      <trkpt lat="46.04594" lon="6.98234">
        <ele>2150</ele>
        <time>2022-08-28T03:34:05Z</time>
      </trkpt>
      <trkpt lat="46.04596" lon="6.98235">
        <ele>2151</ele>
        <time>2022-08-28T03:34:08Z</time>
      </trkpt>
      <trkpt lat="46.04598" lon="6.98236">
        <ele>2151</ele>
        <time>2022-08-28T03:34:12Z</time>
      </trkpt>
      <trkpt lat="46.046" lon="6.98237">
        <ele>2151</ele>
        <time>2022-08-28T03:34:14Z</time>
      </trkpt>
      <trkpt lat="46.04602" lon="6.98238">
        <ele>2152</ele>
        <time>2022-08-28T03:34:17Z</time>
      </trkpt>
      <trkpt lat="46.04605" lon="6.98238">
        <ele>2152</ele>
        <time>2022-08-28T03:34:20Z</time>
      </trkpt>
      <trkpt lat="46.04606" lon="6.98237">
        <ele>2153</ele>
        <time>2022-08-28T03:34:22Z</time>
      </trkpt>
      <trkpt lat="46.04608" lon="6.98237">
        <ele>2153</ele>
        <time>2022-08-28T03:34:28Z</time>
      </trkpt>
      <trkpt lat="46.04611" lon="6.98237">
        <ele>2154</ele>
        <time>2022-08-28T03:34:32Z</time>
      </trkpt>
      <trkpt lat="46.04612" lon="6.98238">
        <ele>2154</ele>
        <time>2022-08-28T03:34:35Z</time>
      </trkpt>
      <trkpt lat="46.04615" lon="6.98237">
        <ele>2154</ele>
        <time>2022-08-28T03:34:38Z</time>
      </trkpt>
      <trkpt lat="46.04617" lon="6.98236">
        <ele>2154</ele>
        <time>2022-08-28T03:34:41Z</time>
      </trkpt>
      <trkpt lat="46.04617" lon="6.98233">
        <ele>2155</ele>
        <time>2022-08-28T03:34:45Z</time>
      </trkpt>
      <trkpt lat="46.04615" lon="6.98232">
        <ele>2157</ele>
        <time>2022-08-28T03:34:52Z</time>
      </trkpt>
      <trkpt lat="46.04613" lon="6.98232">
        <ele>2157</ele>
        <time>2022-08-28T03:34:56Z</time>
      </trkpt>
      <trkpt lat="46.04611" lon="6.98231">
        <ele>2158</ele>
        <time>2022-08-28T03:34:59Z</time>
      </trkpt>
      <trkpt lat="46.04609" lon="6.9823">
        <ele>2159</ele>
        <time>2022-08-28T03:35:03Z</time>
      </trkpt>
      <trkpt lat="46.04608" lon="6.98228">
        <ele>2159</ele>
        <time>2022-08-28T03:35:06Z</time>
      </trkpt>
      <trkpt lat="46.04606" lon="6.98226">
        <ele>2159</ele>
        <time>2022-08-28T03:35:10Z</time>
      </trkpt>
      <trkpt lat="46.04604" lon="6.98225">
        <ele>2160</ele>
        <time>2022-08-28T03:35:15Z</time>
      </trkpt>
      <trkpt lat="46.04604" lon="6.98222">
        <ele>2160</ele>
        <time>2022-08-28T03:35:19Z</time>
      </trkpt>
      <trkpt lat="46.04602" lon="6.9822">
        <ele>2161</ele>
        <time>2022-08-28T03:35:23Z</time>
      </trkpt>
      <trkpt lat="46.04602" lon="6.98217">
        <ele>2162</ele>
        <time>2022-08-28T03:35:27Z</time>
      </trkpt>
      <trkpt lat="46.04601" lon="6.98214">
        <ele>2162</ele>
        <time>2022-08-28T03:35:31Z</time>
      </trkpt>
      <trkpt lat="46.046" lon="6.98213">
        <ele>2163</ele>
        <time>2022-08-28T03:35:35Z</time>
      </trkpt>
      <trkpt lat="46.04599" lon="6.9821">
        <ele>2163</ele>
        <time>2022-08-28T03:35:39Z</time>
      </trkpt>
      <trkpt lat="46.04598" lon="6.98208">
        <ele>2165</ele>
        <time>2022-08-28T03:35:43Z</time>
      </trkpt>
      <trkpt lat="46.04597" lon="6.98205">
        <ele>2165</ele>
        <time>2022-08-28T03:35:48Z</time>
      </trkpt>
      <trkpt lat="46.04595" lon="6.98203">
        <ele>2166</ele>
        <time>2022-08-28T03:35:54Z</time>
      </trkpt>
      <trkpt lat="46.04593" lon="6.982">
        <ele>2167</ele>
        <time>2022-08-28T03:36:00Z</time>
      </trkpt>
      <trkpt lat="46.04591" lon="6.982">
        <ele>2168</ele>
        <time>2022-08-28T03:36:06Z</time>
      </trkpt>
      <trkpt lat="46.0459" lon="6.98198">
        <ele>2170</ele>
        <time>2022-08-28T03:36:15Z</time>
      </trkpt>
      <trkpt lat="46.04588" lon="6.98197">
        <ele>2171</ele>
        <time>2022-08-28T03:36:18Z</time>
      </trkpt>
      <trkpt lat="46.04586" lon="6.98196">
        <ele>2172</ele>
        <time>2022-08-28T03:36:25Z</time>
      </trkpt>
      <trkpt lat="46.04584" lon="6.98194">
        <ele>2173</ele>
        <time>2022-08-28T03:36:28Z</time>
      </trkpt>
      <trkpt lat="46.04583" lon="6.98191">
        <ele>2174</ele>
        <time>2022-08-28T03:36:32Z</time>
      </trkpt>
      <trkpt lat="46.04581" lon="6.9819">
        <ele>2174</ele>
        <time>2022-08-28T03:36:37Z</time>
      </trkpt>
      <trkpt lat="46.04579" lon="6.98189">
        <ele>2174</ele>
        <time>2022-08-28T03:36:43Z</time>
      </trkpt>
      <trkpt lat="46.04578" lon="6.98187">
        <ele>2176</ele>
        <time>2022-08-28T03:36:51Z</time>
      </trkpt>
      <trkpt lat="46.04579" lon="6.98184">
        <ele>2177</ele>
        <time>2022-08-28T03:36:54Z</time>
      </trkpt>
      <trkpt lat="46.0458" lon="6.98181">
        <ele>2178</ele>
        <time>2022-08-28T03:36:58Z</time>
      </trkpt>
      <trkpt lat="46.04581" lon="6.98179">
        <ele>2178</ele>
        <time>2022-08-28T03:37:01Z</time>
      </trkpt>
      <trkpt lat="46.04582" lon="6.98177">
        <ele>2178</ele>
        <time>2022-08-28T03:37:05Z</time>
      </trkpt>
      <trkpt lat="46.04584" lon="6.98175">
        <ele>2179</ele>
        <time>2022-08-28T03:37:11Z</time>
      </trkpt>
      <trkpt lat="46.04586" lon="6.98173">
        <ele>2179</ele>
        <time>2022-08-28T03:37:14Z</time>
      </trkpt>
      <trkpt lat="46.04588" lon="6.98173">
        <ele>2179</ele>
        <time>2022-08-28T03:37:17Z</time>
      </trkpt>
      <trkpt lat="46.04589" lon="6.9817">
        <ele>2179</ele>
        <time>2022-08-28T03:37:20Z</time>
      </trkpt>
      <trkpt lat="46.04592" lon="6.98171">
        <ele>2180</ele>
        <time>2022-08-28T03:37:26Z</time>
      </trkpt>
      <trkpt lat="46.04593" lon="6.9817">
        <ele>2181</ele>
        <time>2022-08-28T03:37:29Z</time>
      </trkpt>
      <trkpt lat="46.04595" lon="6.98168">
        <ele>2182</ele>
        <time>2022-08-28T03:37:34Z</time>
      </trkpt>
      <trkpt lat="46.04593" lon="6.98167">
        <ele>2183</ele>
        <time>2022-08-28T03:37:41Z</time>
      </trkpt>
      <trkpt lat="46.04591" lon="6.98168">
        <ele>2184</ele>
        <time>2022-08-28T03:37:46Z</time>
      </trkpt>
      <trkpt lat="46.04589" lon="6.98167">
        <ele>2185</ele>
        <time>2022-08-28T03:37:51Z</time>
      </trkpt>
      <trkpt lat="46.04587" lon="6.98165">
        <ele>2186</ele>
        <time>2022-08-28T03:37:56Z</time>
      </trkpt>
      <trkpt lat="46.04586" lon="6.98163">
        <ele>2186</ele>
        <time>2022-08-28T03:37:59Z</time>
      </trkpt>
      <trkpt lat="46.04584" lon="6.98161">
        <ele>2187</ele>
        <time>2022-08-28T03:38:03Z</time>
      </trkpt>
      <trkpt lat="46.04582" lon="6.98159">
        <ele>2188</ele>
        <time>2022-08-28T03:38:10Z</time>
      </trkpt>
      <trkpt lat="46.0458" lon="6.98158">
        <ele>2189</ele>
        <time>2022-08-28T03:38:17Z</time>
      </trkpt>
      <trkpt lat="46.04579" lon="6.98158">
        <ele>2190</ele>
        <time>2022-08-28T03:38:24Z</time>
      </trkpt>
      <trkpt lat="46.04577" lon="6.98157">
        <ele>2191</ele>
        <time>2022-08-28T03:38:28Z</time>
      </trkpt>
      <trkpt lat="46.04576" lon="6.98155">
        <ele>2191</ele>
        <time>2022-08-28T03:38:32Z</time>
      </trkpt>
      <trkpt lat="46.04577" lon="6.98151">
        <ele>2192</ele>
        <time>2022-08-28T03:38:35Z</time>
      </trkpt>
      <trkpt lat="46.04578" lon="6.98149">
        <ele>2193</ele>
        <time>2022-08-28T03:38:42Z</time>
      </trkpt>
      <trkpt lat="46.04579" lon="6.98146">
        <ele>2194</ele>
        <time>2022-08-28T03:38:47Z</time>
      </trkpt>
      <trkpt lat="46.04582" lon="6.98145">
        <ele>2194</ele>
        <time>2022-08-28T03:38:52Z</time>
      </trkpt>
      <trkpt lat="46.04584" lon="6.98145">
        <ele>2196</ele>
        <time>2022-08-28T03:38:56Z</time>
      </trkpt>
      <trkpt lat="46.04586" lon="6.98145">
        <ele>2196</ele>
        <time>2022-08-28T03:38:59Z</time>
      </trkpt>
      <trkpt lat="46.04588" lon="6.98145">
        <ele>2197</ele>
        <time>2022-08-28T03:39:05Z</time>
      </trkpt>
      <trkpt lat="46.04589" lon="6.98145">
        <ele>2197</ele>
        <time>2022-08-28T03:39:08Z</time>
      </trkpt>
      <trkpt lat="46.04591" lon="6.98145">
        <ele>2198</ele>
        <time>2022-08-28T03:39:13Z</time>
      </trkpt>
      <trkpt lat="46.04594" lon="6.98142">
        <ele>2198</ele>
        <time>2022-08-28T03:39:15Z</time>
      </trkpt>
      <trkpt lat="46.04596" lon="6.98141">
        <ele>2199</ele>
        <time>2022-08-28T03:39:18Z</time>
      </trkpt>
      <trkpt lat="46.04598" lon="6.98139">
        <ele>2200</ele>
        <time>2022-08-28T03:39:20Z</time>
      </trkpt>
      <trkpt lat="46.046" lon="6.98139">
        <ele>2200</ele>
        <time>2022-08-28T03:39:22Z</time>
      </trkpt>
      <trkpt lat="46.04602" lon="6.98137">
        <ele>2200</ele>
        <time>2022-08-28T03:39:25Z</time>
      </trkpt>
      <trkpt lat="46.04604" lon="6.98136">
        <ele>2200</ele>
        <time>2022-08-28T03:39:28Z</time>
      </trkpt>
      <trkpt lat="46.04607" lon="6.98135">
        <ele>2201</ele>
        <time>2022-08-28T03:39:31Z</time>
      </trkpt>
      <trkpt lat="46.04609" lon="6.98134">
        <ele>2201</ele>
        <time>2022-08-28T03:39:34Z</time>
      </trkpt>
      <trkpt lat="46.04611" lon="6.98133">
        <ele>2201</ele>
        <time>2022-08-28T03:39:38Z</time>
      </trkpt>
      <trkpt lat="46.04613" lon="6.98133">
        <ele>2202</ele>
        <time>2022-08-28T03:39:41Z</time>
      </trkpt>
      <trkpt lat="46.04615" lon="6.98132">
        <ele>2203</ele>
        <time>2022-08-28T03:39:45Z</time>
      </trkpt>
      <trkpt lat="46.04617" lon="6.98131">
        <ele>2204</ele>
        <time>2022-08-28T03:39:49Z</time>
      </trkpt>
      <trkpt lat="46.04619" lon="6.9813">
        <ele>2204</ele>
        <time>2022-08-28T03:39:53Z</time>
      </trkpt>
      <trkpt lat="46.04621" lon="6.98129">
        <ele>2204</ele>
        <time>2022-08-28T03:39:56Z</time>
      </trkpt>
      <trkpt lat="46.04623" lon="6.98129">
        <ele>2205</ele>
        <time>2022-08-28T03:40:00Z</time>
      </trkpt>
      <trkpt lat="46.04625" lon="6.98127">
        <ele>2206</ele>
        <time>2022-08-28T03:40:04Z</time>
      </trkpt>
      <trkpt lat="46.04627" lon="6.98126">
        <ele>2206</ele>
        <time>2022-08-28T03:40:08Z</time>
      </trkpt>
      <trkpt lat="46.04629" lon="6.98125">
        <ele>2206</ele>
        <time>2022-08-28T03:40:12Z</time>
      </trkpt>
      <trkpt lat="46.04631" lon="6.98123">
        <ele>2207</ele>
        <time>2022-08-28T03:40:16Z</time>
      </trkpt>
      <trkpt lat="46.04633" lon="6.98121">
        <ele>2208</ele>
        <time>2022-08-28T03:40:21Z</time>
      </trkpt>
      <trkpt lat="46.04635" lon="6.9812">
        <ele>2208</ele>
        <time>2022-08-28T03:40:24Z</time>
      </trkpt>
      <trkpt lat="46.04637" lon="6.9812">
        <ele>2209</ele>
        <time>2022-08-28T03:40:27Z</time>
      </trkpt>
      <trkpt lat="46.04639" lon="6.98118">
        <ele>2209</ele>
        <time>2022-08-28T03:40:31Z</time>
      </trkpt>
      <trkpt lat="46.0464" lon="6.98116">
        <ele>2210</ele>
        <time>2022-08-28T03:40:35Z</time>
      </trkpt>
      <trkpt lat="46.04642" lon="6.98115">
        <ele>2211</ele>
        <time>2022-08-28T03:40:39Z</time>
      </trkpt>
      <trkpt lat="46.04643" lon="6.98113">
        <ele>2211</ele>
        <time>2022-08-28T03:40:42Z</time>
      </trkpt>
      <trkpt lat="46.04645" lon="6.98114">
        <ele>2212</ele>
        <time>2022-08-28T03:40:47Z</time>
      </trkpt>
      <trkpt lat="46.04647" lon="6.98113">
        <ele>2212</ele>
        <time>2022-08-28T03:40:50Z</time>
      </trkpt>
      <trkpt lat="46.04649" lon="6.98113">
        <ele>2212</ele>
        <time>2022-08-28T03:40:54Z</time>
      </trkpt>
      <trkpt lat="46.04651" lon="6.98113">
        <ele>2213</ele>
        <time>2022-08-28T03:40:58Z</time>
      </trkpt>
      <trkpt lat="46.04653" lon="6.98112">
        <ele>2214</ele>
        <time>2022-08-28T03:41:01Z</time>
      </trkpt>
      <trkpt lat="46.04655" lon="6.98112">
        <ele>2215</ele>
        <time>2022-08-28T03:41:05Z</time>
      </trkpt>
      <trkpt lat="46.04657" lon="6.98112">
        <ele>2215</ele>
        <time>2022-08-28T03:41:08Z</time>
      </trkpt>
      <trkpt lat="46.04659" lon="6.98111">
        <ele>2216</ele>
        <time>2022-08-28T03:41:12Z</time>
      </trkpt>
      <trkpt lat="46.0466" lon="6.98109">
        <ele>2216</ele>
        <time>2022-08-28T03:41:16Z</time>
      </trkpt>
      <trkpt lat="46.04662" lon="6.98109">
        <ele>2216</ele>
        <time>2022-08-28T03:41:20Z</time>
      </trkpt>
      <trkpt lat="46.04664" lon="6.98109">
        <ele>2218</ele>
        <time>2022-08-28T03:41:27Z</time>
      </trkpt>
      <trkpt lat="46.04667" lon="6.98109">
        <ele>2219</ele>
        <time>2022-08-28T03:41:34Z</time>
      </trkpt>
      <trkpt lat="46.04669" lon="6.9811">
        <ele>2220</ele>
        <time>2022-08-28T03:41:37Z</time>
      </trkpt>
      <trkpt lat="46.04671" lon="6.9811">
        <ele>2220</ele>
        <time>2022-08-28T03:41:41Z</time>
      </trkpt>
      <trkpt lat="46.04673" lon="6.9811">
        <ele>2222</ele>
        <time>2022-08-28T03:41:46Z</time>
      </trkpt>
      <trkpt lat="46.04675" lon="6.98111">
        <ele>2222</ele>
        <time>2022-08-28T03:41:49Z</time>
      </trkpt>
      <trkpt lat="46.04677" lon="6.98112">
        <ele>2222</ele>
        <time>2022-08-28T03:41:53Z</time>
      </trkpt>
      <trkpt lat="46.04677" lon="6.98108">
        <ele>2225</ele>
        <time>2022-08-28T03:42:05Z</time>
      </trkpt>
      <trkpt lat="46.04676" lon="6.98106">
        <ele>2225</ele>
        <time>2022-08-28T03:42:09Z</time>
      </trkpt>
      <trkpt lat="46.04676" lon="6.98103">
        <ele>2226</ele>
        <time>2022-08-28T03:42:19Z</time>
      </trkpt>
      <trkpt lat="46.04674" lon="6.98101">
        <ele>2226</ele>
        <time>2022-08-28T03:42:22Z</time>
      </trkpt>
      <trkpt lat="46.04673" lon="6.98099">
        <ele>2226</ele>
        <time>2022-08-28T03:42:24Z</time>
      </trkpt>
      <trkpt lat="46.04671" lon="6.98097">
        <ele>2226</ele>
        <time>2022-08-28T03:42:27Z</time>
      </trkpt>
      <trkpt lat="46.04669" lon="6.98096">
        <ele>2226</ele>
        <time>2022-08-28T03:42:30Z</time>
      </trkpt>
      <trkpt lat="46.04667" lon="6.98094">
        <ele>2226</ele>
        <time>2022-08-28T03:42:33Z</time>
      </trkpt>
      <trkpt lat="46.04665" lon="6.98092">
        <ele>2226</ele>
        <time>2022-08-28T03:42:36Z</time>
      </trkpt>
      <trkpt lat="46.04666" lon="6.98089">
        <ele>2228</ele>
        <time>2022-08-28T03:42:40Z</time>
      </trkpt>
      <trkpt lat="46.04668" lon="6.98087">
        <ele>2229</ele>
        <time>2022-08-28T03:42:43Z</time>
      </trkpt>
      <trkpt lat="46.0467" lon="6.98087">
        <ele>2229</ele>
        <time>2022-08-28T03:42:45Z</time>
      </trkpt>
      <trkpt lat="46.04672" lon="6.98087">
        <ele>2229</ele>
        <time>2022-08-28T03:42:48Z</time>
      </trkpt>
      <trkpt lat="46.04674" lon="6.98087">
        <ele>2230</ele>
        <time>2022-08-28T03:42:51Z</time>
      </trkpt>
      <trkpt lat="46.04675" lon="6.98085">
        <ele>2231</ele>
        <time>2022-08-28T03:42:57Z</time>
      </trkpt>
      <trkpt lat="46.04677" lon="6.98084">
        <ele>2231</ele>
        <time>2022-08-28T03:43:01Z</time>
      </trkpt>
      <trkpt lat="46.04679" lon="6.98083">
        <ele>2233</ele>
        <time>2022-08-28T03:43:08Z</time>
      </trkpt>
      <trkpt lat="46.04682" lon="6.98083">
        <ele>2233</ele>
        <time>2022-08-28T03:43:12Z</time>
      </trkpt>
      <trkpt lat="46.04684" lon="6.98084">
        <ele>2234</ele>
        <time>2022-08-28T03:43:15Z</time>
      </trkpt>
      <trkpt lat="46.04686" lon="6.98085">
        <ele>2235</ele>
        <time>2022-08-28T03:43:19Z</time>
      </trkpt>
      <trkpt lat="46.04688" lon="6.98086">
        <ele>2235</ele>
        <time>2022-08-28T03:43:23Z</time>
      </trkpt>
      <trkpt lat="46.0469" lon="6.98085">
        <ele>2236</ele>
        <time>2022-08-28T03:43:26Z</time>
      </trkpt>
      <trkpt lat="46.04692" lon="6.98085">
        <ele>2237</ele>
        <time>2022-08-28T03:43:30Z</time>
      </trkpt>
      <trkpt lat="46.04694" lon="6.98085">
        <ele>2237</ele>
        <time>2022-08-28T03:43:33Z</time>
      </trkpt>
      <trkpt lat="46.04696" lon="6.98085">
        <ele>2237</ele>
        <time>2022-08-28T03:43:35Z</time>
      </trkpt>
      <trkpt lat="46.04698" lon="6.98085">
        <ele>2238</ele>
        <time>2022-08-28T03:43:39Z</time>
      </trkpt>
      <trkpt lat="46.04701" lon="6.98086">
        <ele>2239</ele>
        <time>2022-08-28T03:43:42Z</time>
      </trkpt>
      <trkpt lat="46.04703" lon="6.98086">
        <ele>2239</ele>
        <time>2022-08-28T03:43:45Z</time>
      </trkpt>
      <trkpt lat="46.04705" lon="6.98086">
        <ele>2239</ele>
        <time>2022-08-28T03:43:48Z</time>
      </trkpt>
      <trkpt lat="46.04707" lon="6.98087">
        <ele>2240</ele>
        <time>2022-08-28T03:43:52Z</time>
      </trkpt>
      <trkpt lat="46.04709" lon="6.98086">
        <ele>2240</ele>
        <time>2022-08-28T03:43:56Z</time>
      </trkpt>
      <trkpt lat="46.04711" lon="6.98087">
        <ele>2241</ele>
        <time>2022-08-28T03:43:59Z</time>
      </trkpt>
      <trkpt lat="46.04712" lon="6.98089">
        <ele>2241</ele>
        <time>2022-08-28T03:44:02Z</time>
      </trkpt>
      <trkpt lat="46.04714" lon="6.98091">
        <ele>2242</ele>
        <time>2022-08-28T03:44:05Z</time>
      </trkpt>
      <trkpt lat="46.04715" lon="6.98092">
        <ele>2243</ele>
        <time>2022-08-28T03:44:09Z</time>
      </trkpt>
      <trkpt lat="46.04717" lon="6.98093">
        <ele>2243</ele>
        <time>2022-08-28T03:44:13Z</time>
      </trkpt>
      <trkpt lat="46.04719" lon="6.98094">
        <ele>2244</ele>
        <time>2022-08-28T03:44:16Z</time>
      </trkpt>
      <trkpt lat="46.04722" lon="6.98094">
        <ele>2244</ele>
        <time>2022-08-28T03:44:20Z</time>
      </trkpt>
      <trkpt lat="46.04723" lon="6.98091">
        <ele>2245</ele>
        <time>2022-08-28T03:44:23Z</time>
      </trkpt>
      <trkpt lat="46.04724" lon="6.98088">
        <ele>2246</ele>
        <time>2022-08-28T03:44:28Z</time>
      </trkpt>
      <trkpt lat="46.04724" lon="6.98085">
        <ele>2246</ele>
        <time>2022-08-28T03:44:31Z</time>
      </trkpt>
      <trkpt lat="46.04723" lon="6.98081">
        <ele>2246</ele>
        <time>2022-08-28T03:44:34Z</time>
      </trkpt>
      <trkpt lat="46.04721" lon="6.98079">
        <ele>2246</ele>
        <time>2022-08-28T03:44:36Z</time>
      </trkpt>
      <trkpt lat="46.0472" lon="6.98078">
        <ele>2246</ele>
        <time>2022-08-28T03:44:39Z</time>
      </trkpt>
      <trkpt lat="46.04718" lon="6.98075">
        <ele>2249</ele>
        <time>2022-08-28T03:44:43Z</time>
      </trkpt>
      <trkpt lat="46.04717" lon="6.98072">
        <ele>2249</ele>
        <time>2022-08-28T03:44:47Z</time>
      </trkpt>
      <trkpt lat="46.04716" lon="6.98069">
        <ele>2250</ele>
        <time>2022-08-28T03:44:51Z</time>
      </trkpt>
      <trkpt lat="46.04715" lon="6.98067">
        <ele>2250</ele>
        <time>2022-08-28T03:44:56Z</time>
      </trkpt>
      <trkpt lat="46.04714" lon="6.98065">
        <ele>2251</ele>
        <time>2022-08-28T03:44:58Z</time>
      </trkpt>
      <trkpt lat="46.04712" lon="6.98063">
        <ele>2252</ele>
        <time>2022-08-28T03:45:03Z</time>
      </trkpt>
      <trkpt lat="46.04711" lon="6.98061">
        <ele>2252</ele>
        <time>2022-08-28T03:45:07Z</time>
      </trkpt>
      <trkpt lat="46.04709" lon="6.98058">
        <ele>2253</ele>
        <time>2022-08-28T03:45:11Z</time>
      </trkpt>
      <trkpt lat="46.04708" lon="6.98056">
        <ele>2254</ele>
        <time>2022-08-28T03:45:16Z</time>
      </trkpt>
      <trkpt lat="46.04706" lon="6.98054">
        <ele>2254</ele>
        <time>2022-08-28T03:45:19Z</time>
      </trkpt>
      <trkpt lat="46.04705" lon="6.98052">
        <ele>2254</ele>
        <time>2022-08-28T03:45:22Z</time>
      </trkpt>
      <trkpt lat="46.04703" lon="6.9805">
        <ele>2255</ele>
        <time>2022-08-28T03:45:26Z</time>
      </trkpt>
      <trkpt lat="46.04701" lon="6.98048">
        <ele>2255</ele>
        <time>2022-08-28T03:45:30Z</time>
      </trkpt>
      <trkpt lat="46.047" lon="6.98048">
        <ele>2257</ele>
        <time>2022-08-28T03:45:35Z</time>
      </trkpt>
      <trkpt lat="46.04698" lon="6.98046">
        <ele>2257</ele>
        <time>2022-08-28T03:45:41Z</time>
      </trkpt>
      <trkpt lat="46.04697" lon="6.98044">
        <ele>2258</ele>
        <time>2022-08-28T03:45:44Z</time>
      </trkpt>
      <trkpt lat="46.04695" lon="6.98042">
        <ele>2258</ele>
        <time>2022-08-28T03:45:48Z</time>
      </trkpt>
      <trkpt lat="46.04693" lon="6.98041">
        <ele>2259</ele>
        <time>2022-08-28T03:45:53Z</time>
      </trkpt>
      <trkpt lat="46.04692" lon="6.98039">
        <ele>2260</ele>
        <time>2022-08-28T03:45:56Z</time>
      </trkpt>
      <trkpt lat="46.04692" lon="6.98036">
        <ele>2261</ele>
        <time>2022-08-28T03:46:01Z</time>
      </trkpt>
      <trkpt lat="46.04693" lon="6.98035">
        <ele>2261</ele>
        <time>2022-08-28T03:46:04Z</time>
      </trkpt>
      <trkpt lat="46.04695" lon="6.98033">
        <ele>2262</ele>
        <time>2022-08-28T03:46:07Z</time>
      </trkpt>
      <trkpt lat="46.04697" lon="6.98032">
        <ele>2262</ele>
        <time>2022-08-28T03:46:12Z</time>
      </trkpt>
      <trkpt lat="46.04699" lon="6.9803">
        <ele>2262</ele>
        <time>2022-08-28T03:46:15Z</time>
      </trkpt>
      <trkpt lat="46.04701" lon="6.98028">
        <ele>2263</ele>
        <time>2022-08-28T03:46:19Z</time>
      </trkpt>
      <trkpt lat="46.04703" lon="6.98026">
        <ele>2263</ele>
        <time>2022-08-28T03:46:22Z</time>
      </trkpt>
      <trkpt lat="46.04705" lon="6.98024">
        <ele>2264</ele>
        <time>2022-08-28T03:46:26Z</time>
      </trkpt>
      <trkpt lat="46.04707" lon="6.98023">
        <ele>2264</ele>
        <time>2022-08-28T03:46:27Z</time>
      </trkpt>
      <trkpt lat="46.04709" lon="6.98022">
        <ele>2264</ele>
        <time>2022-08-28T03:46:30Z</time>
      </trkpt>
      <trkpt lat="46.0471" lon="6.9802">
        <ele>2264</ele>
        <time>2022-08-28T03:46:32Z</time>
      </trkpt>
      <trkpt lat="46.04711" lon="6.98018">
        <ele>2264</ele>
        <time>2022-08-28T03:46:35Z</time>
      </trkpt>
      <trkpt lat="46.04713" lon="6.98015">
        <ele>2264</ele>
        <time>2022-08-28T03:46:36Z</time>
      </trkpt>
      <trkpt lat="46.04714" lon="6.98012">
        <ele>2265</ele>
        <time>2022-08-28T03:46:39Z</time>
      </trkpt>
      <trkpt lat="46.04715" lon="6.98012">
        <ele>2265</ele>
        <time>2022-08-28T03:46:40Z</time>
      </trkpt>
      <trkpt lat="46.04716" lon="6.98011">
        <ele>2266</ele>
        <time>2022-08-28T03:46:42Z</time>
      </trkpt>
      <trkpt lat="46.04716" lon="6.9801">
        <ele>2266</ele>
        <time>2022-08-28T03:46:43Z</time>
      </trkpt>
      <trkpt lat="46.04717" lon="6.98009">
        <ele>2266</ele>
        <time>2022-08-28T03:46:44Z</time>
      </trkpt>
      <trkpt lat="46.04718" lon="6.98009">
        <ele>2266</ele>
        <time>2022-08-28T03:46:45Z</time>
      </trkpt>
      <trkpt lat="46.04718" lon="6.98008">
        <ele>2266</ele>
        <time>2022-08-28T03:46:46Z</time>
      </trkpt>
      <trkpt lat="46.04719" lon="6.98007">
        <ele>2266</ele>
        <time>2022-08-28T03:46:47Z</time>
      </trkpt>
      <trkpt lat="46.04721" lon="6.98005">
        <ele>2266</ele>
        <time>2022-08-28T03:46:49Z</time>
      </trkpt>
      <trkpt lat="46.04722" lon="6.98003">
        <ele>2266</ele>
        <time>2022-08-28T03:46:52Z</time>
      </trkpt>
      <trkpt lat="46.04724" lon="6.98">
        <ele>2266</ele>
        <time>2022-08-28T03:46:54Z</time>
      </trkpt>
      <trkpt lat="46.04725" lon="6.97998">
        <ele>2267</ele>
        <time>2022-08-28T03:46:57Z</time>
      </trkpt>
      <trkpt lat="46.04727" lon="6.97995">
        <ele>2267</ele>
        <time>2022-08-28T03:47:00Z</time>
      </trkpt>
      <trkpt lat="46.04728" lon="6.97992">
        <ele>2268</ele>
        <time>2022-08-28T03:47:03Z</time>
      </trkpt>
      <trkpt lat="46.0473" lon="6.9799">
        <ele>2268</ele>
        <time>2022-08-28T03:47:06Z</time>
      </trkpt>
      <trkpt lat="46.04732" lon="6.97989">
        <ele>2268</ele>
        <time>2022-08-28T03:47:10Z</time>
      </trkpt>
      <trkpt lat="46.04733" lon="6.97987">
        <ele>2269</ele>
        <time>2022-08-28T03:47:12Z</time>
      </trkpt>
      <trkpt lat="46.04735" lon="6.97985">
        <ele>2269</ele>
        <time>2022-08-28T03:47:16Z</time>
      </trkpt>
      <trkpt lat="46.04736" lon="6.97983">
        <ele>2270</ele>
        <time>2022-08-28T03:47:18Z</time>
      </trkpt>
      <trkpt lat="46.04737" lon="6.97981">
        <ele>2271</ele>
        <time>2022-08-28T03:47:21Z</time>
      </trkpt>
      <trkpt lat="46.04738" lon="6.97978">
        <ele>2271</ele>
        <time>2022-08-28T03:47:24Z</time>
      </trkpt>
      <trkpt lat="46.04739" lon="6.97976">
        <ele>2271</ele>
        <time>2022-08-28T03:47:27Z</time>
      </trkpt>
      <trkpt lat="46.0474" lon="6.97974">
        <ele>2272</ele>
        <time>2022-08-28T03:47:32Z</time>
      </trkpt>
      <trkpt lat="46.04742" lon="6.97971">
        <ele>2272</ele>
        <time>2022-08-28T03:47:39Z</time>
      </trkpt>
      <trkpt lat="46.04742" lon="6.97971">
        <ele>2274</ele>
        <time>2022-08-28T03:47:49Z</time>
      </trkpt>
      <trkpt lat="46.04742" lon="6.97971">
        <ele>2274</ele>
        <time>2022-08-28T03:48:05Z</time>
      </trkpt>
      <trkpt lat="46.04744" lon="6.97972">
        <ele>2274</ele>
        <time>2022-08-28T03:48:14Z</time>
      </trkpt>
      <trkpt lat="46.04744" lon="6.97972">
        <ele>2274</ele>
        <time>2022-08-28T03:48:25Z</time>
      </trkpt>
      <trkpt lat="46.04744" lon="6.97972">
        <ele>2274</ele>
        <time>2022-08-28T03:48:43Z</time>
      </trkpt>
      <trkpt lat="46.04744" lon="6.97972">
        <ele>2274</ele>
        <time>2022-08-28T03:49:00Z</time>
      </trkpt>
      <trkpt lat="46.04744" lon="6.97972">
        <ele>2274</ele>
        <time>2022-08-28T03:49:17Z</time>
      </trkpt>
      <trkpt lat="46.04745" lon="6.97969">
        <ele>2274</ele>
        <time>2022-08-28T03:49:31Z</time>
      </trkpt>
      <trkpt lat="46.04746" lon="6.97966">
        <ele>2275</ele>
        <time>2022-08-28T03:49:34Z</time>
      </trkpt>
      <trkpt lat="46.04747" lon="6.97964">
        <ele>2275</ele>
        <time>2022-08-28T03:49:37Z</time>
      </trkpt>
      <trkpt lat="46.04749" lon="6.97962">
        <ele>2276</ele>
        <time>2022-08-28T03:49:41Z</time>
      </trkpt>
      <trkpt lat="46.0475" lon="6.9796">
        <ele>2276</ele>
        <time>2022-08-28T03:49:43Z</time>
      </trkpt>
      <trkpt lat="46.04751" lon="6.97958">
        <ele>2276</ele>
        <time>2022-08-28T03:49:46Z</time>
      </trkpt>
      <trkpt lat="46.04753" lon="6.97956">
        <ele>2277</ele>
        <time>2022-08-28T03:49:49Z</time>
      </trkpt>
      <trkpt lat="46.04753" lon="6.97956">
        <ele>2277</ele>
        <time>2022-08-28T03:50:05Z</time>
      </trkpt>
      <trkpt lat="46.04753" lon="6.97956">
        <ele>2277</ele>
        <time>2022-08-28T03:50:22Z</time>
      </trkpt>
      <trkpt lat="46.04754" lon="6.97954">
        <ele>2278</ele>
        <time>2022-08-28T03:50:37Z</time>
      </trkpt>
      <trkpt lat="46.04755" lon="6.97952">
        <ele>2278</ele>
        <time>2022-08-28T03:50:40Z</time>
      </trkpt>
      <trkpt lat="46.04757" lon="6.9795">
        <ele>2278</ele>
        <time>2022-08-28T03:50:43Z</time>
      </trkpt>
      <trkpt lat="46.04758" lon="6.97947">
        <ele>2279</ele>
        <time>2022-08-28T03:50:46Z</time>
      </trkpt>
      <trkpt lat="46.0476" lon="6.97946">
        <ele>2279</ele>
        <time>2022-08-28T03:50:49Z</time>
      </trkpt>
      <trkpt lat="46.04762" lon="6.97944">
        <ele>2280</ele>
        <time>2022-08-28T03:50:52Z</time>
      </trkpt>
      <trkpt lat="46.04765" lon="6.97942">
        <ele>2280</ele>
        <time>2022-08-28T03:50:55Z</time>
      </trkpt>
      <trkpt lat="46.04767" lon="6.97941">
        <ele>2280</ele>
        <time>2022-08-28T03:50:59Z</time>
      </trkpt>
      <trkpt lat="46.04768" lon="6.9794">
        <ele>2281</ele>
        <time>2022-08-28T03:51:02Z</time>
      </trkpt>
      <trkpt lat="46.0477" lon="6.97939">
        <ele>2281</ele>
        <time>2022-08-28T03:51:04Z</time>
      </trkpt>
      <trkpt lat="46.04773" lon="6.97937">
        <ele>2281</ele>
        <time>2022-08-28T03:51:07Z</time>
      </trkpt>
      <trkpt lat="46.04774" lon="6.97936">
        <ele>2282</ele>
        <time>2022-08-28T03:51:09Z</time>
      </trkpt>
      <trkpt lat="46.04777" lon="6.97935">
        <ele>2283</ele>
        <time>2022-08-28T03:51:12Z</time>
      </trkpt>
      <trkpt lat="46.04779" lon="6.97934">
        <ele>2283</ele>
        <time>2022-08-28T03:51:14Z</time>
      </trkpt>
      <trkpt lat="46.04781" lon="6.97933">
        <ele>2283</ele>
        <time>2022-08-28T03:51:16Z</time>
      </trkpt>
      <trkpt lat="46.04783" lon="6.97933">
        <ele>2283</ele>
        <time>2022-08-28T03:51:18Z</time>
      </trkpt>
      <trkpt lat="46.04785" lon="6.97933">
        <ele>2283</ele>
        <time>2022-08-28T03:51:20Z</time>
      </trkpt>
      <trkpt lat="46.04787" lon="6.97933">
        <ele>2283</ele>
        <time>2022-08-28T03:51:22Z</time>
      </trkpt>
      <trkpt lat="46.04789" lon="6.97933">
        <ele>2283</ele>
        <time>2022-08-28T03:51:24Z</time>
      </trkpt>
      <trkpt lat="46.04792" lon="6.97935">
        <ele>2283</ele>
        <time>2022-08-28T03:51:27Z</time>
      </trkpt>
      <trkpt lat="46.04794" lon="6.97936">
        <ele>2284</ele>
        <time>2022-08-28T03:51:30Z</time>
      </trkpt>
      <trkpt lat="46.04796" lon="6.97936">
        <ele>2284</ele>
        <time>2022-08-28T03:51:33Z</time>
      </trkpt>
      <trkpt lat="46.04799" lon="6.97937">
        <ele>2284</ele>
        <time>2022-08-28T03:51:36Z</time>
      </trkpt>
      <trkpt lat="46.04801" lon="6.97937">
        <ele>2284</ele>
        <time>2022-08-28T03:51:39Z</time>
      </trkpt>
      <trkpt lat="46.04804" lon="6.97937">
        <ele>2284</ele>
        <time>2022-08-28T03:51:42Z</time>
      </trkpt>
      <trkpt lat="46.04806" lon="6.97937">
        <ele>2285</ele>
        <time>2022-08-28T03:51:44Z</time>
      </trkpt>
      <trkpt lat="46.04809" lon="6.97936">
        <ele>2286</ele>
        <time>2022-08-28T03:51:47Z</time>
      </trkpt>
      <trkpt lat="46.04811" lon="6.97936">
        <ele>2287</ele>
        <time>2022-08-28T03:51:50Z</time>
      </trkpt>
      <trkpt lat="46.04814" lon="6.97935">
        <ele>2287</ele>
        <time>2022-08-28T03:51:52Z</time>
      </trkpt>
      <trkpt lat="46.04815" lon="6.97935">
        <ele>2287</ele>
        <time>2022-08-28T03:51:53Z</time>
      </trkpt>
      <trkpt lat="46.04816" lon="6.97935">
        <ele>2287</ele>
        <time>2022-08-28T03:51:54Z</time>
      </trkpt>
      <trkpt lat="46.04816" lon="6.97935">
        <ele>2287</ele>
        <time>2022-08-28T03:51:55Z</time>
      </trkpt>
      <trkpt lat="46.04817" lon="6.97934">
        <ele>2287</ele>
        <time>2022-08-28T03:51:56Z</time>
      </trkpt>
      <trkpt lat="46.04819" lon="6.97934">
        <ele>2287</ele>
        <time>2022-08-28T03:51:58Z</time>
      </trkpt>
      <trkpt lat="46.04821" lon="6.97933">
        <ele>2288</ele>
        <time>2022-08-28T03:52:01Z</time>
      </trkpt>
      <trkpt lat="46.04823" lon="6.97932">
        <ele>2288</ele>
        <time>2022-08-28T03:52:03Z</time>
      </trkpt>
      <trkpt lat="46.04825" lon="6.97931">
        <ele>2288</ele>
        <time>2022-08-28T03:52:05Z</time>
      </trkpt>
      <trkpt lat="46.04828" lon="6.9793">
        <ele>2288</ele>
        <time>2022-08-28T03:52:08Z</time>
      </trkpt>
      <trkpt lat="46.0483" lon="6.97929">
        <ele>2288</ele>
        <time>2022-08-28T03:52:11Z</time>
      </trkpt>
      <trkpt lat="46.04832" lon="6.97928">
        <ele>2289</ele>
        <time>2022-08-28T03:52:14Z</time>
      </trkpt>
      <trkpt lat="46.04834" lon="6.97927">
        <ele>2289</ele>
        <time>2022-08-28T03:52:17Z</time>
      </trkpt>
      <trkpt lat="46.04836" lon="6.97926">
        <ele>2289</ele>
        <time>2022-08-28T03:52:20Z</time>
      </trkpt>
      <trkpt lat="46.04838" lon="6.97925">
        <ele>2289</ele>
        <time>2022-08-28T03:52:23Z</time>
      </trkpt>
      <trkpt lat="46.0484" lon="6.97924">
        <ele>2290</ele>
        <time>2022-08-28T03:52:26Z</time>
      </trkpt>
      <trkpt lat="46.04841" lon="6.97923">
        <ele>2291</ele>
        <time>2022-08-28T03:52:30Z</time>
      </trkpt>
      <trkpt lat="46.04843" lon="6.97921">
        <ele>2292</ele>
        <time>2022-08-28T03:52:35Z</time>
      </trkpt>
      <trkpt lat="46.04845" lon="6.97919">
        <ele>2293</ele>
        <time>2022-08-28T03:52:39Z</time>
      </trkpt>
      <trkpt lat="46.04847" lon="6.97917">
        <ele>2294</ele>
        <time>2022-08-28T03:52:45Z</time>
      </trkpt>
      <trkpt lat="46.04848" lon="6.97915">
        <ele>2294</ele>
        <time>2022-08-28T03:52:50Z</time>
      </trkpt>
      <trkpt lat="46.04849" lon="6.97913">
        <ele>2295</ele>
        <time>2022-08-28T03:52:56Z</time>
      </trkpt>
      <trkpt lat="46.04851" lon="6.97911">
        <ele>2297</ele>
        <time>2022-08-28T03:53:00Z</time>
      </trkpt>
      <trkpt lat="46.04853" lon="6.9791">
        <ele>2298</ele>
        <time>2022-08-28T03:53:04Z</time>
      </trkpt>
      <trkpt lat="46.04855" lon="6.97909">
        <ele>2298</ele>
        <time>2022-08-28T03:53:07Z</time>
      </trkpt>
      <trkpt lat="46.04857" lon="6.97908">
        <ele>2298</ele>
        <time>2022-08-28T03:53:11Z</time>
      </trkpt>
      <trkpt lat="46.04859" lon="6.97908">
        <ele>2300</ele>
        <time>2022-08-28T03:53:15Z</time>
      </trkpt>
      <trkpt lat="46.04862" lon="6.97908">
        <ele>2300</ele>
        <time>2022-08-28T03:53:19Z</time>
      </trkpt>
      <trkpt lat="46.04864" lon="6.97908">
        <ele>2301</ele>
        <time>2022-08-28T03:53:24Z</time>
      </trkpt>
      <trkpt lat="46.04866" lon="6.97907">
        <ele>2302</ele>
        <time>2022-08-28T03:53:27Z</time>
      </trkpt>
      <trkpt lat="46.04867" lon="6.97906">
        <ele>2303</ele>
        <time>2022-08-28T03:53:32Z</time>
      </trkpt>
      <trkpt lat="46.04869" lon="6.97907">
        <ele>2304</ele>
        <time>2022-08-28T03:53:36Z</time>
      </trkpt>
      <trkpt lat="46.04871" lon="6.97907">
        <ele>2304</ele>
        <time>2022-08-28T03:53:38Z</time>
      </trkpt>
      <trkpt lat="46.04874" lon="6.97907">
        <ele>2304</ele>
        <time>2022-08-28T03:53:41Z</time>
      </trkpt>
      <trkpt lat="46.04876" lon="6.97906">
        <ele>2304</ele>
        <time>2022-08-28T03:53:44Z</time>
      </trkpt>
      <trkpt lat="46.04878" lon="6.97905">
        <ele>2304</ele>
        <time>2022-08-28T03:53:48Z</time>
      </trkpt>
      <trkpt lat="46.0488" lon="6.97904">
        <ele>2305</ele>
        <time>2022-08-28T03:53:50Z</time>
      </trkpt>
      <trkpt lat="46.04882" lon="6.97904">
        <ele>2305</ele>
        <time>2022-08-28T03:53:54Z</time>
      </trkpt>
      <trkpt lat="46.04884" lon="6.97904">
        <ele>2305</ele>
        <time>2022-08-28T03:53:57Z</time>
      </trkpt>
      <trkpt lat="46.04886" lon="6.97903">
        <ele>2306</ele>
        <time>2022-08-28T03:54:00Z</time>
      </trkpt>
      <trkpt lat="46.04888" lon="6.97903">
        <ele>2306</ele>
        <time>2022-08-28T03:54:03Z</time>
      </trkpt>
      <trkpt lat="46.0489" lon="6.97903">
        <ele>2308</ele>
        <time>2022-08-28T03:54:07Z</time>
      </trkpt>
      <trkpt lat="46.04892" lon="6.97903">
        <ele>2309</ele>
        <time>2022-08-28T03:54:11Z</time>
      </trkpt>
      <trkpt lat="46.04894" lon="6.97903">
        <ele>2309</ele>
        <time>2022-08-28T03:54:15Z</time>
      </trkpt>
      <trkpt lat="46.04896" lon="6.97903">
        <ele>2309</ele>
        <time>2022-08-28T03:54:18Z</time>
      </trkpt>
      <trkpt lat="46.04899" lon="6.97903">
        <ele>2309</ele>
        <time>2022-08-28T03:54:21Z</time>
      </trkpt>
      <trkpt lat="46.049" lon="6.97902">
        <ele>2309</ele>
        <time>2022-08-28T03:54:24Z</time>
      </trkpt>
      <trkpt lat="46.04902" lon="6.979">
        <ele>2309</ele>
        <time>2022-08-28T03:54:25Z</time>
      </trkpt>
      <trkpt lat="46.04904" lon="6.97897">
        <ele>2310</ele>
        <time>2022-08-28T03:54:28Z</time>
      </trkpt>
      <trkpt lat="46.04906" lon="6.97895">
        <ele>2309</ele>
        <time>2022-08-28T03:54:31Z</time>
      </trkpt>
      <trkpt lat="46.04908" lon="6.97893">
        <ele>2311</ele>
        <time>2022-08-28T03:54:35Z</time>
      </trkpt>
      <trkpt lat="46.04909" lon="6.9789">
        <ele>2311</ele>
        <time>2022-08-28T03:54:37Z</time>
      </trkpt>
      <trkpt lat="46.04911" lon="6.9789">
        <ele>2312</ele>
        <time>2022-08-28T03:54:40Z</time>
      </trkpt>
      <trkpt lat="46.04914" lon="6.9789">
        <ele>2313</ele>
        <time>2022-08-28T03:54:45Z</time>
      </trkpt>
      <trkpt lat="46.04915" lon="6.97889">
        <ele>2314</ele>
        <time>2022-08-28T03:54:48Z</time>
      </trkpt>
      <trkpt lat="46.04918" lon="6.97889">
        <ele>2314</ele>
        <time>2022-08-28T03:54:52Z</time>
      </trkpt>
      <trkpt lat="46.0492" lon="6.97889">
        <ele>2314</ele>
        <time>2022-08-28T03:54:55Z</time>
      </trkpt>
      <trkpt lat="46.04922" lon="6.97888">
        <ele>2314</ele>
        <time>2022-08-28T03:54:58Z</time>
      </trkpt>
      <trkpt lat="46.04924" lon="6.97887">
        <ele>2315</ele>
        <time>2022-08-28T03:55:02Z</time>
      </trkpt>
      <trkpt lat="46.04926" lon="6.97886">
        <ele>2316</ele>
        <time>2022-08-28T03:55:05Z</time>
      </trkpt>
      <trkpt lat="46.04927" lon="6.97886">
        <ele>2316</ele>
        <time>2022-08-28T03:55:08Z</time>
      </trkpt>
      <trkpt lat="46.04929" lon="6.97884">
        <ele>2317</ele>
        <time>2022-08-28T03:55:12Z</time>
      </trkpt>
      <trkpt lat="46.04931" lon="6.97883">
        <ele>2317</ele>
        <time>2022-08-28T03:55:16Z</time>
      </trkpt>
      <trkpt lat="46.04933" lon="6.97881">
        <ele>2318</ele>
        <time>2022-08-28T03:55:19Z</time>
      </trkpt>
      <trkpt lat="46.04935" lon="6.9788">
        <ele>2319</ele>
        <time>2022-08-28T03:55:23Z</time>
      </trkpt>
      <trkpt lat="46.04937" lon="6.97879">
        <ele>2319</ele>
        <time>2022-08-28T03:55:26Z</time>
      </trkpt>
      <trkpt lat="46.04939" lon="6.97877">
        <ele>2319</ele>
        <time>2022-08-28T03:55:28Z</time>
      </trkpt>
      <trkpt lat="46.04941" lon="6.97876">
        <ele>2320</ele>
        <time>2022-08-28T03:55:31Z</time>
      </trkpt>
      <trkpt lat="46.04943" lon="6.97874">
        <ele>2321</ele>
        <time>2022-08-28T03:55:35Z</time>
      </trkpt>
      <trkpt lat="46.04945" lon="6.97872">
        <ele>2321</ele>
        <time>2022-08-28T03:55:37Z</time>
      </trkpt>
      <trkpt lat="46.04946" lon="6.97869">
        <ele>2321</ele>
        <time>2022-08-28T03:55:40Z</time>
      </trkpt>
      <trkpt lat="46.04948" lon="6.97866">
        <ele>2321</ele>
        <time>2022-08-28T03:55:43Z</time>
      </trkpt>
      <trkpt lat="46.04949" lon="6.97863">
        <ele>2321</ele>
        <time>2022-08-28T03:55:46Z</time>
      </trkpt>
      <trkpt lat="46.0495" lon="6.9786">
        <ele>2322</ele>
        <time>2022-08-28T03:55:49Z</time>
      </trkpt>
      <trkpt lat="46.04951" lon="6.97858">
        <ele>2322</ele>
        <time>2022-08-28T03:55:51Z</time>
      </trkpt>
      <trkpt lat="46.04952" lon="6.97854">
        <ele>2322</ele>
        <time>2022-08-28T03:55:55Z</time>
      </trkpt>
      <trkpt lat="46.04953" lon="6.97852">
        <ele>2322</ele>
        <time>2022-08-28T03:55:58Z</time>
      </trkpt>
      <trkpt lat="46.04954" lon="6.97849">
        <ele>2322</ele>
        <time>2022-08-28T03:56:01Z</time>
      </trkpt>
      <trkpt lat="46.04954" lon="6.97846">
        <ele>2323</ele>
        <time>2022-08-28T03:56:03Z</time>
      </trkpt>
      <trkpt lat="46.04954" lon="6.97843">
        <ele>2323</ele>
        <time>2022-08-28T03:56:04Z</time>
      </trkpt>
      <trkpt lat="46.04954" lon="6.9784">
        <ele>2323</ele>
        <time>2022-08-28T03:56:06Z</time>
      </trkpt>
      <trkpt lat="46.04955" lon="6.97837">
        <ele>2323</ele>
        <time>2022-08-28T03:56:08Z</time>
      </trkpt>
      <trkpt lat="46.04955" lon="6.97834">
        <ele>2323</ele>
        <time>2022-08-28T03:56:10Z</time>
      </trkpt>
      <trkpt lat="46.04955" lon="6.97831">
        <ele>2323</ele>
        <time>2022-08-28T03:56:12Z</time>
      </trkpt>
      <trkpt lat="46.04955" lon="6.97828">
        <ele>2323</ele>
        <time>2022-08-28T03:56:15Z</time>
      </trkpt>
      <trkpt lat="46.04955" lon="6.97824">
        <ele>2323</ele>
        <time>2022-08-28T03:56:16Z</time>
      </trkpt>
      <trkpt lat="46.04956" lon="6.97821">
        <ele>2323</ele>
        <time>2022-08-28T03:56:18Z</time>
      </trkpt>
      <trkpt lat="46.04957" lon="6.97819">
        <ele>2323</ele>
        <time>2022-08-28T03:56:20Z</time>
      </trkpt>
      <trkpt lat="46.04958" lon="6.97817">
        <ele>2323</ele>
        <time>2022-08-28T03:56:22Z</time>
      </trkpt>
      <trkpt lat="46.04958" lon="6.97814">
        <ele>2324</ele>
        <time>2022-08-28T03:56:25Z</time>
      </trkpt>
      <trkpt lat="46.04959" lon="6.97811">
        <ele>2326</ele>
        <time>2022-08-28T03:56:29Z</time>
      </trkpt>
      <trkpt lat="46.04959" lon="6.97808">
        <ele>2326</ele>
        <time>2022-08-28T03:56:31Z</time>
      </trkpt>
      <trkpt lat="46.04959" lon="6.97805">
        <ele>2326</ele>
        <time>2022-08-28T03:56:34Z</time>
      </trkpt>
      <trkpt lat="46.04959" lon="6.97802">
        <ele>2327</ele>
        <time>2022-08-28T03:56:37Z</time>
      </trkpt>
      <trkpt lat="46.0496" lon="6.978">
        <ele>2328</ele>
        <time>2022-08-28T03:56:40Z</time>
      </trkpt>
      <trkpt lat="46.04958" lon="6.97797">
        <ele>2328</ele>
        <time>2022-08-28T03:56:46Z</time>
      </trkpt>
      <trkpt lat="46.04957" lon="6.97794">
        <ele>2329</ele>
        <time>2022-08-28T03:56:49Z</time>
      </trkpt>
      <trkpt lat="46.04956" lon="6.97793">
        <ele>2330</ele>
        <time>2022-08-28T03:56:53Z</time>
      </trkpt>
      <trkpt lat="46.04955" lon="6.9779">
        <ele>2330</ele>
        <time>2022-08-28T03:56:55Z</time>
      </trkpt>
      <trkpt lat="46.04954" lon="6.97788">
        <ele>2331</ele>
        <time>2022-08-28T03:56:58Z</time>
      </trkpt>
      <trkpt lat="46.04953" lon="6.97786">
        <ele>2331</ele>
        <time>2022-08-28T03:57:02Z</time>
      </trkpt>
      <trkpt lat="46.04952" lon="6.97783">
        <ele>2331</ele>
        <time>2022-08-28T03:57:05Z</time>
      </trkpt>
      <trkpt lat="46.04952" lon="6.9778">
        <ele>2332</ele>
        <time>2022-08-28T03:57:08Z</time>
      </trkpt>
      <trkpt lat="46.04951" lon="6.97778">
        <ele>2332</ele>
        <time>2022-08-28T03:57:10Z</time>
      </trkpt>
      <trkpt lat="46.0495" lon="6.97774">
        <ele>2333</ele>
        <time>2022-08-28T03:57:13Z</time>
      </trkpt>
      <trkpt lat="46.04948" lon="6.97771">
        <ele>2334</ele>
        <time>2022-08-28T03:57:16Z</time>
      </trkpt>
      <trkpt lat="46.04946" lon="6.97769">
        <ele>2334</ele>
        <time>2022-08-28T03:57:19Z</time>
      </trkpt>
      <trkpt lat="46.04945" lon="6.97766">
        <ele>2334</ele>
        <time>2022-08-28T03:57:22Z</time>
      </trkpt>
      <trkpt lat="46.04944" lon="6.97763">
        <ele>2335</ele>
        <time>2022-08-28T03:57:26Z</time>
      </trkpt>
      <trkpt lat="46.04943" lon="6.97761">
        <ele>2335</ele>
        <time>2022-08-28T03:57:30Z</time>
      </trkpt>
      <trkpt lat="46.04941" lon="6.97758">
        <ele>2335</ele>
        <time>2022-08-28T03:57:34Z</time>
      </trkpt>
      <trkpt lat="46.0494" lon="6.97755">
        <ele>2335</ele>
        <time>2022-08-28T03:57:37Z</time>
      </trkpt>
      <trkpt lat="46.0494" lon="6.97752">
        <ele>2336</ele>
        <time>2022-08-28T03:57:40Z</time>
      </trkpt>
      <trkpt lat="46.04938" lon="6.9775">
        <ele>2337</ele>
        <time>2022-08-28T03:57:43Z</time>
      </trkpt>
      <trkpt lat="46.04937" lon="6.97748">
        <ele>2338</ele>
        <time>2022-08-28T03:57:46Z</time>
      </trkpt>
      <trkpt lat="46.04937" lon="6.97745">
        <ele>2339</ele>
        <time>2022-08-28T03:57:50Z</time>
      </trkpt>
      <trkpt lat="46.04937" lon="6.97742">
        <ele>2339</ele>
        <time>2022-08-28T03:57:53Z</time>
      </trkpt>
      <trkpt lat="46.04936" lon="6.9774">
        <ele>2340</ele>
        <time>2022-08-28T03:57:57Z</time>
      </trkpt>
      <trkpt lat="46.04934" lon="6.97737">
        <ele>2340</ele>
        <time>2022-08-28T03:58:00Z</time>
      </trkpt>
      <trkpt lat="46.04933" lon="6.97735">
        <ele>2340</ele>
        <time>2022-08-28T03:58:03Z</time>
      </trkpt>
      <trkpt lat="46.04932" lon="6.97733">
        <ele>2341</ele>
        <time>2022-08-28T03:58:06Z</time>
      </trkpt>
      <trkpt lat="46.0493" lon="6.97731">
        <ele>2341</ele>
        <time>2022-08-28T03:58:09Z</time>
      </trkpt>
      <trkpt lat="46.04928" lon="6.9773">
        <ele>2342</ele>
        <time>2022-08-28T03:58:12Z</time>
      </trkpt>
      <trkpt lat="46.04926" lon="6.97728">
        <ele>2342</ele>
        <time>2022-08-28T03:58:16Z</time>
      </trkpt>
      <trkpt lat="46.04925" lon="6.97726">
        <ele>2342</ele>
        <time>2022-08-28T03:58:18Z</time>
      </trkpt>
      <trkpt lat="46.04923" lon="6.97724">
        <ele>2343</ele>
        <time>2022-08-28T03:58:21Z</time>
      </trkpt>
      <trkpt lat="46.04922" lon="6.97722">
        <ele>2343</ele>
        <time>2022-08-28T03:58:24Z</time>
      </trkpt>
      <trkpt lat="46.0492" lon="6.9772">
        <ele>2344</ele>
        <time>2022-08-28T03:58:28Z</time>
      </trkpt>
      <trkpt lat="46.04919" lon="6.97718">
        <ele>2344</ele>
        <time>2022-08-28T03:58:30Z</time>
      </trkpt>
      <trkpt lat="46.04917" lon="6.97716">
        <ele>2344</ele>
        <time>2022-08-28T03:58:34Z</time>
      </trkpt>
      <trkpt lat="46.04916" lon="6.97713">
        <ele>2345</ele>
        <time>2022-08-28T03:58:36Z</time>
      </trkpt>
      <trkpt lat="46.04914" lon="6.97712">
        <ele>2345</ele>
        <time>2022-08-28T03:58:39Z</time>
      </trkpt>
      <trkpt lat="46.04912" lon="6.9771">
        <ele>2346</ele>
        <time>2022-08-28T03:58:43Z</time>
      </trkpt>
      <trkpt lat="46.04911" lon="6.97708">
        <ele>2346</ele>
        <time>2022-08-28T03:58:46Z</time>
      </trkpt>
      <trkpt lat="46.04909" lon="6.97706">
        <ele>2347</ele>
        <time>2022-08-28T03:58:49Z</time>
      </trkpt>
      <trkpt lat="46.04908" lon="6.97704">
        <ele>2347</ele>
        <time>2022-08-28T03:58:52Z</time>
      </trkpt>
      <trkpt lat="46.04906" lon="6.97702">
        <ele>2348</ele>
        <time>2022-08-28T03:58:56Z</time>
      </trkpt>
      <trkpt lat="46.04905" lon="6.97699">
        <ele>2349</ele>
        <time>2022-08-28T03:58:59Z</time>
      </trkpt>
      <trkpt lat="46.04905" lon="6.97697">
        <ele>2350</ele>
        <time>2022-08-28T03:59:03Z</time>
      </trkpt>
      <trkpt lat="46.04904" lon="6.97694">
        <ele>2350</ele>
        <time>2022-08-28T03:59:07Z</time>
      </trkpt>
      <trkpt lat="46.04902" lon="6.97691">
        <ele>2352</ele>
        <time>2022-08-28T03:59:11Z</time>
      </trkpt>
      <trkpt lat="46.04901" lon="6.97688">
        <ele>2352</ele>
        <time>2022-08-28T03:59:14Z</time>
      </trkpt>
      <trkpt lat="46.049" lon="6.97686">
        <ele>2353</ele>
        <time>2022-08-28T03:59:17Z</time>
      </trkpt>
      <trkpt lat="46.04898" lon="6.97684">
        <ele>2354</ele>
        <time>2022-08-28T03:59:22Z</time>
      </trkpt>
      <trkpt lat="46.04897" lon="6.97681">
        <ele>2354</ele>
        <time>2022-08-28T03:59:26Z</time>
      </trkpt>
      <trkpt lat="46.04896" lon="6.97678">
        <ele>2355</ele>
        <time>2022-08-28T03:59:29Z</time>
      </trkpt>
      <trkpt lat="46.04895" lon="6.97675">
        <ele>2355</ele>
        <time>2022-08-28T03:59:33Z</time>
      </trkpt>
      <trkpt lat="46.04893" lon="6.97672">
        <ele>2355</ele>
        <time>2022-08-28T03:59:35Z</time>
      </trkpt>
      <trkpt lat="46.04891" lon="6.97669">
        <ele>2355</ele>
        <time>2022-08-28T03:59:38Z</time>
      </trkpt>
      <trkpt lat="46.0489" lon="6.97667">
        <ele>2355</ele>
        <time>2022-08-28T03:59:40Z</time>
      </trkpt>
      <trkpt lat="46.04889" lon="6.97665">
        <ele>2356</ele>
        <time>2022-08-28T03:59:43Z</time>
      </trkpt>
      <trkpt lat="46.04888" lon="6.97663">
        <ele>2356</ele>
        <time>2022-08-28T03:59:44Z</time>
      </trkpt>
      <trkpt lat="46.04886" lon="6.97662">
        <ele>2356</ele>
        <time>2022-08-28T03:59:46Z</time>
      </trkpt>
      <trkpt lat="46.04884" lon="6.97661">
        <ele>2356</ele>
        <time>2022-08-28T03:59:49Z</time>
      </trkpt>
      <trkpt lat="46.04882" lon="6.97659">
        <ele>2356</ele>
        <time>2022-08-28T03:59:50Z</time>
      </trkpt>
      <trkpt lat="46.0488" lon="6.97657">
        <ele>2356</ele>
        <time>2022-08-28T03:59:53Z</time>
      </trkpt>
      <trkpt lat="46.04878" lon="6.97656">
        <ele>2356</ele>
        <time>2022-08-28T03:59:55Z</time>
      </trkpt>
      <trkpt lat="46.04876" lon="6.97655">
        <ele>2356</ele>
        <time>2022-08-28T03:59:57Z</time>
      </trkpt>
      <trkpt lat="46.04875" lon="6.97653">
        <ele>2356</ele>
        <time>2022-08-28T03:59:58Z</time>
      </trkpt>
      <trkpt lat="46.04874" lon="6.97651">
        <ele>2357</ele>
        <time>2022-08-28T04:00:00Z</time>
      </trkpt>
      <trkpt lat="46.04872" lon="6.97649">
        <ele>2357</ele>
        <time>2022-08-28T04:00:02Z</time>
      </trkpt>
      <trkpt lat="46.0487" lon="6.97648">
        <ele>2357</ele>
        <time>2022-08-28T04:00:05Z</time>
      </trkpt>
      <trkpt lat="46.04868" lon="6.97645">
        <ele>2358</ele>
        <time>2022-08-28T04:00:08Z</time>
      </trkpt>
      <trkpt lat="46.04867" lon="6.97644">
        <ele>2358</ele>
        <time>2022-08-28T04:00:09Z</time>
      </trkpt>
      <trkpt lat="46.04865" lon="6.97642">
        <ele>2358</ele>
        <time>2022-08-28T04:00:12Z</time>
      </trkpt>
      <trkpt lat="46.04864" lon="6.9764">
        <ele>2358</ele>
        <time>2022-08-28T04:00:13Z</time>
      </trkpt>
      <trkpt lat="46.04862" lon="6.97639">
        <ele>2359</ele>
        <time>2022-08-28T04:00:17Z</time>
      </trkpt>
      <trkpt lat="46.0486" lon="6.97637">
        <ele>2360</ele>
        <time>2022-08-28T04:00:19Z</time>
      </trkpt>
      <trkpt lat="46.04858" lon="6.97635">
        <ele>2360</ele>
        <time>2022-08-28T04:00:22Z</time>
      </trkpt>
      <trkpt lat="46.04856" lon="6.97634">
        <ele>2361</ele>
        <time>2022-08-28T04:00:25Z</time>
      </trkpt>
      <trkpt lat="46.04854" lon="6.97634">
        <ele>2361</ele>
        <time>2022-08-28T04:00:27Z</time>
      </trkpt>
      <trkpt lat="46.04852" lon="6.97633">
        <ele>2361</ele>
        <time>2022-08-28T04:00:30Z</time>
      </trkpt>
      <trkpt lat="46.0485" lon="6.97631">
        <ele>2361</ele>
        <time>2022-08-28T04:00:32Z</time>
      </trkpt>
      <trkpt lat="46.04849" lon="6.97628">
        <ele>2361</ele>
        <time>2022-08-28T04:00:35Z</time>
      </trkpt>
      <trkpt lat="46.04847" lon="6.97625">
        <ele>2362</ele>
        <time>2022-08-28T04:00:38Z</time>
      </trkpt>
      <trkpt lat="46.04845" lon="6.97623">
        <ele>2362</ele>
        <time>2022-08-28T04:00:42Z</time>
      </trkpt>
      <trkpt lat="46.04844" lon="6.97621">
        <ele>2362</ele>
        <time>2022-08-28T04:00:43Z</time>
      </trkpt>
      <trkpt lat="46.04843" lon="6.97619">
        <ele>2362</ele>
        <time>2022-08-28T04:00:45Z</time>
      </trkpt>
      <trkpt lat="46.04841" lon="6.97617">
        <ele>2362</ele>
        <time>2022-08-28T04:00:47Z</time>
      </trkpt>
      <trkpt lat="46.0484" lon="6.97615">
        <ele>2362</ele>
        <time>2022-08-28T04:00:50Z</time>
      </trkpt>
      <trkpt lat="46.04838" lon="6.97613">
        <ele>2362</ele>
        <time>2022-08-28T04:00:51Z</time>
      </trkpt>
      <trkpt lat="46.04836" lon="6.9761">
        <ele>2362</ele>
        <time>2022-08-28T04:00:53Z</time>
      </trkpt>
      <trkpt lat="46.04834" lon="6.97608">
        <ele>2362</ele>
        <time>2022-08-28T04:00:55Z</time>
      </trkpt>
      <trkpt lat="46.04832" lon="6.97605">
        <ele>2362</ele>
        <time>2022-08-28T04:00:57Z</time>
      </trkpt>
      <trkpt lat="46.04832" lon="6.97603">
        <ele>2362</ele>
        <time>2022-08-28T04:00:59Z</time>
      </trkpt>
      <trkpt lat="46.0483" lon="6.976">
        <ele>2362</ele>
        <time>2022-08-28T04:01:01Z</time>
      </trkpt>
      <trkpt lat="46.04829" lon="6.97598">
        <ele>2362</ele>
        <time>2022-08-28T04:01:03Z</time>
      </trkpt>
      <trkpt lat="46.04827" lon="6.97596">
        <ele>2362</ele>
        <time>2022-08-28T04:01:05Z</time>
      </trkpt>
      <trkpt lat="46.04826" lon="6.97593">
        <ele>2362</ele>
        <time>2022-08-28T04:01:08Z</time>
      </trkpt>
      <trkpt lat="46.04824" lon="6.97591">
        <ele>2362</ele>
        <time>2022-08-28T04:01:09Z</time>
      </trkpt>
      <trkpt lat="46.04822" lon="6.97589">
        <ele>2362</ele>
        <time>2022-08-28T04:01:11Z</time>
      </trkpt>
      <trkpt lat="46.04821" lon="6.97587">
        <ele>2362</ele>
        <time>2022-08-28T04:01:13Z</time>
      </trkpt>
      <trkpt lat="46.04819" lon="6.97586">
        <ele>2363</ele>
        <time>2022-08-28T04:01:15Z</time>
      </trkpt>
      <trkpt lat="46.04817" lon="6.97583">
        <ele>2363</ele>
        <time>2022-08-28T04:01:18Z</time>
      </trkpt>
      <trkpt lat="46.04816" lon="6.9758">
        <ele>2364</ele>
        <time>2022-08-28T04:01:22Z</time>
      </trkpt>
      <trkpt lat="46.04814" lon="6.97577">
        <ele>2365</ele>
        <time>2022-08-28T04:01:24Z</time>
      </trkpt>
      <trkpt lat="46.04813" lon="6.97575">
        <ele>2365</ele>
        <time>2022-08-28T04:01:26Z</time>
      </trkpt>
      <trkpt lat="46.04811" lon="6.97574">
        <ele>2365</ele>
        <time>2022-08-28T04:01:28Z</time>
      </trkpt>
      <trkpt lat="46.04809" lon="6.97572">
        <ele>2365</ele>
        <time>2022-08-28T04:01:30Z</time>
      </trkpt>
      <trkpt lat="46.04808" lon="6.9757">
        <ele>2365</ele>
        <time>2022-08-28T04:01:32Z</time>
      </trkpt>
      <trkpt lat="46.04806" lon="6.97568">
        <ele>2366</ele>
        <time>2022-08-28T04:01:35Z</time>
      </trkpt>
      <trkpt lat="46.04803" lon="6.97566">
        <ele>2366</ele>
        <time>2022-08-28T04:01:38Z</time>
      </trkpt>
      <trkpt lat="46.04802" lon="6.97565">
        <ele>2366</ele>
        <time>2022-08-28T04:01:40Z</time>
      </trkpt>
      <trkpt lat="46.04801" lon="6.97562">
        <ele>2366</ele>
        <time>2022-08-28T04:01:42Z</time>
      </trkpt>
      <trkpt lat="46.04799" lon="6.97561">
        <ele>2366</ele>
        <time>2022-08-28T04:01:44Z</time>
      </trkpt>
      <trkpt lat="46.04797" lon="6.97558">
        <ele>2367</ele>
        <time>2022-08-28T04:01:47Z</time>
      </trkpt>
      <trkpt lat="46.04795" lon="6.97556">
        <ele>2368</ele>
        <time>2022-08-28T04:01:50Z</time>
      </trkpt>
      <trkpt lat="46.04794" lon="6.97553">
        <ele>2368</ele>
        <time>2022-08-28T04:01:53Z</time>
      </trkpt>
      <trkpt lat="46.04791" lon="6.97551">
        <ele>2368</ele>
        <time>2022-08-28T04:01:56Z</time>
      </trkpt>
      <trkpt lat="46.0479" lon="6.97548">
        <ele>2369</ele>
        <time>2022-08-28T04:01:59Z</time>
      </trkpt>
      <trkpt lat="46.04789" lon="6.97545">
        <ele>2369</ele>
        <time>2022-08-28T04:02:01Z</time>
      </trkpt>
      <trkpt lat="46.04788" lon="6.97543">
        <ele>2369</ele>
        <time>2022-08-28T04:02:03Z</time>
      </trkpt>
      <trkpt lat="46.04787" lon="6.9754">
        <ele>2369</ele>
        <time>2022-08-28T04:02:05Z</time>
      </trkpt>
      <trkpt lat="46.04786" lon="6.97537">
        <ele>2369</ele>
        <time>2022-08-28T04:02:07Z</time>
      </trkpt>
      <trkpt lat="46.04785" lon="6.97535">
        <ele>2369</ele>
        <time>2022-08-28T04:02:09Z</time>
      </trkpt>
      <trkpt lat="46.04784" lon="6.97533">
        <ele>2369</ele>
        <time>2022-08-28T04:02:11Z</time>
      </trkpt>
      <trkpt lat="46.04782" lon="6.97531">
        <ele>2369</ele>
        <time>2022-08-28T04:02:14Z</time>
      </trkpt>
      <trkpt lat="46.0478" lon="6.97529">
        <ele>2369</ele>
        <time>2022-08-28T04:02:15Z</time>
      </trkpt>
      <trkpt lat="46.04778" lon="6.97526">
        <ele>2368</ele>
        <time>2022-08-28T04:02:17Z</time>
      </trkpt>
      <trkpt lat="46.04777" lon="6.97523">
        <ele>2368</ele>
        <time>2022-08-28T04:02:19Z</time>
      </trkpt>
      <trkpt lat="46.04775" lon="6.97521">
        <ele>2368</ele>
        <time>2022-08-28T04:02:21Z</time>
      </trkpt>
      <trkpt lat="46.04773" lon="6.97518">
        <ele>2368</ele>
        <time>2022-08-28T04:02:23Z</time>
      </trkpt>
      <trkpt lat="46.04771" lon="6.97516">
        <ele>2368</ele>
        <time>2022-08-28T04:02:25Z</time>
      </trkpt>
      <trkpt lat="46.04769" lon="6.97515">
        <ele>2368</ele>
        <time>2022-08-28T04:02:27Z</time>
      </trkpt>
      <trkpt lat="46.04766" lon="6.97513">
        <ele>2368</ele>
        <time>2022-08-28T04:02:29Z</time>
      </trkpt>
      <trkpt lat="46.04764" lon="6.97512">
        <ele>2368</ele>
        <time>2022-08-28T04:02:31Z</time>
      </trkpt>
      <trkpt lat="46.04763" lon="6.9751">
        <ele>2368</ele>
        <time>2022-08-28T04:02:33Z</time>
      </trkpt>
      <trkpt lat="46.04761" lon="6.97507">
        <ele>2368</ele>
        <time>2022-08-28T04:02:35Z</time>
      </trkpt>
      <trkpt lat="46.0476" lon="6.97505">
        <ele>2368</ele>
        <time>2022-08-28T04:02:37Z</time>
      </trkpt>
      <trkpt lat="46.04759" lon="6.97502">
        <ele>2368</ele>
        <time>2022-08-28T04:02:39Z</time>
      </trkpt>
      <trkpt lat="46.04758" lon="6.975">
        <ele>2368</ele>
        <time>2022-08-28T04:02:41Z</time>
      </trkpt>
      <trkpt lat="46.04757" lon="6.97498">
        <ele>2368</ele>
        <time>2022-08-28T04:02:43Z</time>
      </trkpt>
      <trkpt lat="46.04756" lon="6.97495">
        <ele>2369</ele>
        <time>2022-08-28T04:02:45Z</time>
      </trkpt>
      <trkpt lat="46.04754" lon="6.97492">
        <ele>2369</ele>
        <time>2022-08-28T04:02:47Z</time>
      </trkpt>
      <trkpt lat="46.04753" lon="6.97489">
        <ele>2370</ele>
        <time>2022-08-28T04:02:49Z</time>
      </trkpt>
      <trkpt lat="46.04752" lon="6.97487">
        <ele>2370</ele>
        <time>2022-08-28T04:02:51Z</time>
      </trkpt>
      <trkpt lat="46.0475" lon="6.97484">
        <ele>2370</ele>
        <time>2022-08-28T04:02:53Z</time>
      </trkpt>
      <trkpt lat="46.04749" lon="6.97482">
        <ele>2370</ele>
        <time>2022-08-28T04:02:55Z</time>
      </trkpt>
      <trkpt lat="46.04748" lon="6.9748">
        <ele>2370</ele>
        <time>2022-08-28T04:02:57Z</time>
      </trkpt>
      <trkpt lat="46.04746" lon="6.97477">
        <ele>2370</ele>
        <time>2022-08-28T04:02:59Z</time>
      </trkpt>
      <trkpt lat="46.04746" lon="6.97475">
        <ele>2370</ele>
        <time>2022-08-28T04:03:01Z</time>
      </trkpt>
      <trkpt lat="46.04744" lon="6.97472">
        <ele>2371</ele>
        <time>2022-08-28T04:03:04Z</time>
      </trkpt>
      <trkpt lat="46.04743" lon="6.9747">
        <ele>2371</ele>
        <time>2022-08-28T04:03:06Z</time>
      </trkpt>
      <trkpt lat="46.04742" lon="6.97468">
        <ele>2371</ele>
        <time>2022-08-28T04:03:08Z</time>
      </trkpt>
      <trkpt lat="46.04741" lon="6.97465">
        <ele>2371</ele>
        <time>2022-08-28T04:03:10Z</time>
      </trkpt>
      <trkpt lat="46.0474" lon="6.97462">
        <ele>2371</ele>
        <time>2022-08-28T04:03:12Z</time>
      </trkpt>
      <trkpt lat="46.04738" lon="6.9746">
        <ele>2371</ele>
        <time>2022-08-28T04:03:14Z</time>
      </trkpt>
      <trkpt lat="46.04737" lon="6.97458">
        <ele>2372</ele>
        <time>2022-08-28T04:03:16Z</time>
      </trkpt>
      <trkpt lat="46.04735" lon="6.97455">
        <ele>2372</ele>
        <time>2022-08-28T04:03:19Z</time>
      </trkpt>
      <trkpt lat="46.04734" lon="6.97452">
        <ele>2372</ele>
        <time>2022-08-28T04:03:21Z</time>
      </trkpt>
      <trkpt lat="46.04732" lon="6.97449">
        <ele>2372</ele>
        <time>2022-08-28T04:03:24Z</time>
      </trkpt>
      <trkpt lat="46.04731" lon="6.97446">
        <ele>2373</ele>
        <time>2022-08-28T04:03:27Z</time>
      </trkpt>
      <trkpt lat="46.0473" lon="6.97443">
        <ele>2374</ele>
        <time>2022-08-28T04:03:30Z</time>
      </trkpt>
      <trkpt lat="46.0473" lon="6.97439">
        <ele>2374</ele>
        <time>2022-08-28T04:03:33Z</time>
      </trkpt>
      <trkpt lat="46.04729" lon="6.97437">
        <ele>2375</ele>
        <time>2022-08-28T04:03:36Z</time>
      </trkpt>
      <trkpt lat="46.04728" lon="6.97434">
        <ele>2375</ele>
        <time>2022-08-28T04:03:40Z</time>
      </trkpt>
      <trkpt lat="46.04727" lon="6.97431">
        <ele>2376</ele>
        <time>2022-08-28T04:03:43Z</time>
      </trkpt>
      <trkpt lat="46.04726" lon="6.97429">
        <ele>2378</ele>
        <time>2022-08-28T04:03:46Z</time>
      </trkpt>
      <trkpt lat="46.04725" lon="6.97426">
        <ele>2378</ele>
        <time>2022-08-28T04:03:48Z</time>
      </trkpt>
      <trkpt lat="46.04724" lon="6.97424">
        <ele>2378</ele>
        <time>2022-08-28T04:03:51Z</time>
      </trkpt>
      <trkpt lat="46.04722" lon="6.97422">
        <ele>2378</ele>
        <time>2022-08-28T04:03:52Z</time>
      </trkpt>
      <trkpt lat="46.0472" lon="6.97421">
        <ele>2378</ele>
        <time>2022-08-28T04:03:54Z</time>
      </trkpt>
      <trkpt lat="46.04719" lon="6.97418">
        <ele>2378</ele>
        <time>2022-08-28T04:03:56Z</time>
      </trkpt>
      <trkpt lat="46.04717" lon="6.97415">
        <ele>2378</ele>
        <time>2022-08-28T04:03:59Z</time>
      </trkpt>
      <trkpt lat="46.04716" lon="6.97412">
        <ele>2378</ele>
        <time>2022-08-28T04:04:01Z</time>
      </trkpt>
      <trkpt lat="46.04715" lon="6.97409">
        <ele>2378</ele>
        <time>2022-08-28T04:04:03Z</time>
      </trkpt>
      <trkpt lat="46.04715" lon="6.97406">
        <ele>2378</ele>
        <time>2022-08-28T04:04:04Z</time>
      </trkpt>
      <trkpt lat="46.04714" lon="6.97402">
        <ele>2378</ele>
        <time>2022-08-28T04:04:06Z</time>
      </trkpt>
      <trkpt lat="46.04713" lon="6.97399">
        <ele>2378</ele>
        <time>2022-08-28T04:04:08Z</time>
      </trkpt>
      <trkpt lat="46.04712" lon="6.97396">
        <ele>2378</ele>
        <time>2022-08-28T04:04:10Z</time>
      </trkpt>
      <trkpt lat="46.0471" lon="6.97394">
        <ele>2378</ele>
        <time>2022-08-28T04:04:12Z</time>
      </trkpt>
      <trkpt lat="46.04709" lon="6.97391">
        <ele>2378</ele>
        <time>2022-08-28T04:04:14Z</time>
      </trkpt>
      <trkpt lat="46.04707" lon="6.97389">
        <ele>2378</ele>
        <time>2022-08-28T04:04:16Z</time>
      </trkpt>
      <trkpt lat="46.04705" lon="6.97387">
        <ele>2378</ele>
        <time>2022-08-28T04:04:18Z</time>
      </trkpt>
      <trkpt lat="46.04703" lon="6.97385">
        <ele>2378</ele>
        <time>2022-08-28T04:04:20Z</time>
      </trkpt>
      <trkpt lat="46.04702" lon="6.97383">
        <ele>2378</ele>
        <time>2022-08-28T04:04:22Z</time>
      </trkpt>
      <trkpt lat="46.047" lon="6.97381">
        <ele>2378</ele>
        <time>2022-08-28T04:04:24Z</time>
      </trkpt>
      <trkpt lat="46.04699" lon="6.97379">
        <ele>2378</ele>
        <time>2022-08-28T04:04:26Z</time>
      </trkpt>
      <trkpt lat="46.04697" lon="6.97377">
        <ele>2379</ele>
        <time>2022-08-28T04:04:28Z</time>
      </trkpt>
      <trkpt lat="46.04696" lon="6.97374">
        <ele>2379</ele>
        <time>2022-08-28T04:04:31Z</time>
      </trkpt>
      <trkpt lat="46.04694" lon="6.97372">
        <ele>2379</ele>
        <time>2022-08-28T04:04:34Z</time>
      </trkpt>
      <trkpt lat="46.04692" lon="6.9737">
        <ele>2379</ele>
        <time>2022-08-28T04:04:36Z</time>
      </trkpt>
      <trkpt lat="46.04691" lon="6.97369">
        <ele>2379</ele>
        <time>2022-08-28T04:04:37Z</time>
      </trkpt>
      <trkpt lat="46.04689" lon="6.97368">
        <ele>2379</ele>
        <time>2022-08-28T04:04:39Z</time>
      </trkpt>
      <trkpt lat="46.04687" lon="6.97366">
        <ele>2379</ele>
        <time>2022-08-28T04:04:41Z</time>
      </trkpt>
      <trkpt lat="46.04685" lon="6.97365">
        <ele>2379</ele>
        <time>2022-08-28T04:04:43Z</time>
      </trkpt>
      <trkpt lat="46.04684" lon="6.97363">
        <ele>2379</ele>
        <time>2022-08-28T04:04:45Z</time>
      </trkpt>
      <trkpt lat="46.04682" lon="6.97361">
        <ele>2379</ele>
        <time>2022-08-28T04:04:47Z</time>
      </trkpt>
      <trkpt lat="46.0468" lon="6.97359">
        <ele>2379</ele>
        <time>2022-08-28T04:04:49Z</time>
      </trkpt>
      <trkpt lat="46.04678" lon="6.97357">
        <ele>2379</ele>
        <time>2022-08-28T04:04:51Z</time>
      </trkpt>
      <trkpt lat="46.04676" lon="6.97355">
        <ele>2379</ele>
        <time>2022-08-28T04:04:53Z</time>
      </trkpt>
      <trkpt lat="46.04673" lon="6.97354">
        <ele>2379</ele>
        <time>2022-08-28T04:04:55Z</time>
      </trkpt>
      <trkpt lat="46.04671" lon="6.97352">
        <ele>2379</ele>
        <time>2022-08-28T04:04:57Z</time>
      </trkpt>
      <trkpt lat="46.04668" lon="6.9735">
        <ele>2379</ele>
        <time>2022-08-28T04:04:59Z</time>
      </trkpt>
      <trkpt lat="46.04666" lon="6.97348">
        <ele>2379</ele>
        <time>2022-08-28T04:05:00Z</time>
      </trkpt>
      <trkpt lat="46.04665" lon="6.97347">
        <ele>2379</ele>
        <time>2022-08-28T04:05:01Z</time>
      </trkpt>
      <trkpt lat="46.04663" lon="6.97346">
        <ele>2379</ele>
        <time>2022-08-28T04:05:02Z</time>
      </trkpt>
      <trkpt lat="46.0466" lon="6.97343">
        <ele>2376</ele>
        <time>2022-08-28T04:05:04Z</time>
      </trkpt>
      <trkpt lat="46.04658" lon="6.97339">
        <ele>2376</ele>
        <time>2022-08-28T04:05:06Z</time>
      </trkpt>
      <trkpt lat="46.04655" lon="6.97336">
        <ele>2376</ele>
        <time>2022-08-28T04:05:09Z</time>
      </trkpt>
      <trkpt lat="46.04652" lon="6.97335">
        <ele>2376</ele>
        <time>2022-08-28T04:05:10Z</time>
      </trkpt>
      <trkpt lat="46.04649" lon="6.97333">
        <ele>2376</ele>
        <time>2022-08-28T04:05:12Z</time>
      </trkpt>
      <trkpt lat="46.04647" lon="6.97332">
        <ele>2375</ele>
        <time>2022-08-28T04:05:15Z</time>
      </trkpt>
      <trkpt lat="46.04645" lon="6.9733">
        <ele>2374</ele>
        <time>2022-08-28T04:05:17Z</time>
      </trkpt>
      <trkpt lat="46.04643" lon="6.97329">
        <ele>2374</ele>
        <time>2022-08-28T04:05:18Z</time>
      </trkpt>
      <trkpt lat="46.04641" lon="6.97328">
        <ele>2374</ele>
        <time>2022-08-28T04:05:19Z</time>
      </trkpt>
      <trkpt lat="46.04639" lon="6.97327">
        <ele>2374</ele>
        <time>2022-08-28T04:05:20Z</time>
      </trkpt>
      <trkpt lat="46.04637" lon="6.97325">
        <ele>2374</ele>
        <time>2022-08-28T04:05:23Z</time>
      </trkpt>
      <trkpt lat="46.04635" lon="6.97322">
        <ele>2374</ele>
        <time>2022-08-28T04:05:24Z</time>
      </trkpt>
      <trkpt lat="46.04633" lon="6.9732">
        <ele>2374</ele>
        <time>2022-08-28T04:05:26Z</time>
      </trkpt>
      <trkpt lat="46.04632" lon="6.97316">
        <ele>2374</ele>
        <time>2022-08-28T04:05:28Z</time>
      </trkpt>
      <trkpt lat="46.04629" lon="6.97313">
        <ele>2374</ele>
        <time>2022-08-28T04:05:30Z</time>
      </trkpt>
      <trkpt lat="46.04626" lon="6.97311">
        <ele>2373</ele>
        <time>2022-08-28T04:05:33Z</time>
      </trkpt>
      <trkpt lat="46.04623" lon="6.97308">
        <ele>2372</ele>
        <time>2022-08-28T04:05:34Z</time>
      </trkpt>
      <trkpt lat="46.0462" lon="6.97306">
        <ele>2371</ele>
        <time>2022-08-28T04:05:36Z</time>
      </trkpt>
      <trkpt lat="46.04619" lon="6.97305">
        <ele>2371</ele>
        <time>2022-08-28T04:05:37Z</time>
      </trkpt>
      <trkpt lat="46.04616" lon="6.97303">
        <ele>2371</ele>
        <time>2022-08-28T04:05:39Z</time>
      </trkpt>
      <trkpt lat="46.04614" lon="6.973">
        <ele>2371</ele>
        <time>2022-08-28T04:05:41Z</time>
      </trkpt>
      <trkpt lat="46.04612" lon="6.97297">
        <ele>2372</ele>
        <time>2022-08-28T04:05:43Z</time>
      </trkpt>
      <trkpt lat="46.0461" lon="6.97295">
        <ele>2372</ele>
        <time>2022-08-28T04:05:45Z</time>
      </trkpt>
      <trkpt lat="46.04608" lon="6.97294">
        <ele>2372</ele>
        <time>2022-08-28T04:05:48Z</time>
      </trkpt>
      <trkpt lat="46.04607" lon="6.97292">
        <ele>2372</ele>
        <time>2022-08-28T04:05:49Z</time>
      </trkpt>
      <trkpt lat="46.04604" lon="6.97289">
        <ele>2372</ele>
        <time>2022-08-28T04:05:51Z</time>
      </trkpt>
      <trkpt lat="46.046" lon="6.97288">
        <ele>2372</ele>
        <time>2022-08-28T04:05:54Z</time>
      </trkpt>
      <trkpt lat="46.04599" lon="6.97287">
        <ele>2372</ele>
        <time>2022-08-28T04:05:55Z</time>
      </trkpt>
      <trkpt lat="46.04597" lon="6.97286">
        <ele>2372</ele>
        <time>2022-08-28T04:05:57Z</time>
      </trkpt>
      <trkpt lat="46.04595" lon="6.97285">
        <ele>2372</ele>
        <time>2022-08-28T04:05:59Z</time>
      </trkpt>
      <trkpt lat="46.04593" lon="6.97283">
        <ele>2372</ele>
        <time>2022-08-28T04:06:01Z</time>
      </trkpt>
      <trkpt lat="46.04591" lon="6.97281">
        <ele>2372</ele>
        <time>2022-08-28T04:06:03Z</time>
      </trkpt>
      <trkpt lat="46.0459" lon="6.97279">
        <ele>2372</ele>
        <time>2022-08-28T04:06:05Z</time>
      </trkpt>
      <trkpt lat="46.04588" lon="6.97277">
        <ele>2372</ele>
        <time>2022-08-28T04:06:08Z</time>
      </trkpt>
      <trkpt lat="46.04586" lon="6.97277">
        <ele>2372</ele>
        <time>2022-08-28T04:06:10Z</time>
      </trkpt>
      <trkpt lat="46.04584" lon="6.97276">
        <ele>2372</ele>
        <time>2022-08-28T04:06:13Z</time>
      </trkpt>
      <trkpt lat="46.04581" lon="6.97275">
        <ele>2372</ele>
        <time>2022-08-28T04:06:14Z</time>
      </trkpt>
      <trkpt lat="46.04579" lon="6.97274">
        <ele>2372</ele>
        <time>2022-08-28T04:06:16Z</time>
      </trkpt>
      <trkpt lat="46.04576" lon="6.97273">
        <ele>2372</ele>
        <time>2022-08-28T04:06:18Z</time>
      </trkpt>
      <trkpt lat="46.04574" lon="6.97272">
        <ele>2372</ele>
        <time>2022-08-28T04:06:20Z</time>
      </trkpt>
      <trkpt lat="46.04572" lon="6.97271">
        <ele>2372</ele>
        <time>2022-08-28T04:06:22Z</time>
      </trkpt>
      <trkpt lat="46.04569" lon="6.9727">
        <ele>2372</ele>
        <time>2022-08-28T04:06:24Z</time>
      </trkpt>
      <trkpt lat="46.04568" lon="6.97269">
        <ele>2372</ele>
        <time>2022-08-28T04:06:26Z</time>
      </trkpt>
      <trkpt lat="46.04566" lon="6.97268">
        <ele>2372</ele>
        <time>2022-08-28T04:06:28Z</time>
      </trkpt>
      <trkpt lat="46.04564" lon="6.97266">
        <ele>2372</ele>
        <time>2022-08-28T04:06:30Z</time>
      </trkpt>
      <trkpt lat="46.04562" lon="6.97265">
        <ele>2372</ele>
        <time>2022-08-28T04:06:32Z</time>
      </trkpt>
      <trkpt lat="46.0456" lon="6.97264">
        <ele>2372</ele>
        <time>2022-08-28T04:06:34Z</time>
      </trkpt>
      <trkpt lat="46.04558" lon="6.97264">
        <ele>2372</ele>
        <time>2022-08-28T04:06:37Z</time>
      </trkpt>
      <trkpt lat="46.04556" lon="6.97263">
        <ele>2372</ele>
        <time>2022-08-28T04:06:39Z</time>
      </trkpt>
      <trkpt lat="46.04554" lon="6.97262">
        <ele>2372</ele>
        <time>2022-08-28T04:06:41Z</time>
      </trkpt>
      <trkpt lat="46.04552" lon="6.97261">
        <ele>2372</ele>
        <time>2022-08-28T04:06:43Z</time>
      </trkpt>
      <trkpt lat="46.04549" lon="6.9726">
        <ele>2372</ele>
        <time>2022-08-28T04:06:45Z</time>
      </trkpt>
      <trkpt lat="46.04547" lon="6.9726">
        <ele>2372</ele>
        <time>2022-08-28T04:06:47Z</time>
      </trkpt>
      <trkpt lat="46.04544" lon="6.97259">
        <ele>2372</ele>
        <time>2022-08-28T04:06:50Z</time>
      </trkpt>
      <trkpt lat="46.04541" lon="6.97258">
        <ele>2372</ele>
        <time>2022-08-28T04:06:51Z</time>
      </trkpt>
      <trkpt lat="46.04539" lon="6.97257">
        <ele>2372</ele>
        <time>2022-08-28T04:06:53Z</time>
      </trkpt>
      <trkpt lat="46.04536" lon="6.97256">
        <ele>2372</ele>
        <time>2022-08-28T04:06:55Z</time>
      </trkpt>
      <trkpt lat="46.04534" lon="6.97254">
        <ele>2372</ele>
        <time>2022-08-28T04:06:57Z</time>
      </trkpt>
      <trkpt lat="46.04532" lon="6.97251">
        <ele>2373</ele>
        <time>2022-08-28T04:06:59Z</time>
      </trkpt>
      <trkpt lat="46.04529" lon="6.97249">
        <ele>2373</ele>
        <time>2022-08-28T04:07:01Z</time>
      </trkpt>
      <trkpt lat="46.04528" lon="6.97247">
        <ele>2372</ele>
        <time>2022-08-28T04:07:03Z</time>
      </trkpt>
      <trkpt lat="46.04526" lon="6.97246">
        <ele>2372</ele>
        <time>2022-08-28T04:07:05Z</time>
      </trkpt>
      <trkpt lat="46.04524" lon="6.97245">
        <ele>2372</ele>
        <time>2022-08-28T04:07:07Z</time>
      </trkpt>
      <trkpt lat="46.04521" lon="6.97243">
        <ele>2373</ele>
        <time>2022-08-28T04:07:09Z</time>
      </trkpt>
      <trkpt lat="46.04519" lon="6.97241">
        <ele>2372</ele>
        <time>2022-08-28T04:07:11Z</time>
      </trkpt>
      <trkpt lat="46.04516" lon="6.97239">
        <ele>2372</ele>
        <time>2022-08-28T04:07:13Z</time>
      </trkpt>
      <trkpt lat="46.04513" lon="6.97238">
        <ele>2372</ele>
        <time>2022-08-28T04:07:15Z</time>
      </trkpt>
      <trkpt lat="46.04511" lon="6.97236">
        <ele>2372</ele>
        <time>2022-08-28T04:07:17Z</time>
      </trkpt>
      <trkpt lat="46.04509" lon="6.97234">
        <ele>2372</ele>
        <time>2022-08-28T04:07:19Z</time>
      </trkpt>
      <trkpt lat="46.04506" lon="6.9723">
        <ele>2372</ele>
        <time>2022-08-28T04:07:23Z</time>
      </trkpt>
      <trkpt lat="46.04504" lon="6.97228">
        <ele>2372</ele>
        <time>2022-08-28T04:07:25Z</time>
      </trkpt>
      <trkpt lat="46.04501" lon="6.97227">
        <ele>2372</ele>
        <time>2022-08-28T04:07:27Z</time>
      </trkpt>
      <trkpt lat="46.04499" lon="6.97225">
        <ele>2372</ele>
        <time>2022-08-28T04:07:29Z</time>
      </trkpt>
      <trkpt lat="46.04497" lon="6.97223">
        <ele>2372</ele>
        <time>2022-08-28T04:07:31Z</time>
      </trkpt>
      <trkpt lat="46.04495" lon="6.97222">
        <ele>2372</ele>
        <time>2022-08-28T04:07:33Z</time>
      </trkpt>
      <trkpt lat="46.04493" lon="6.9722">
        <ele>2372</ele>
        <time>2022-08-28T04:07:35Z</time>
      </trkpt>
      <trkpt lat="46.04491" lon="6.97218">
        <ele>2373</ele>
        <time>2022-08-28T04:07:37Z</time>
      </trkpt>
      <trkpt lat="46.04489" lon="6.97216">
        <ele>2373</ele>
        <time>2022-08-28T04:07:39Z</time>
      </trkpt>
      <trkpt lat="46.04488" lon="6.97214">
        <ele>2373</ele>
        <time>2022-08-28T04:07:41Z</time>
      </trkpt>
      <trkpt lat="46.04486" lon="6.97211">
        <ele>2373</ele>
        <time>2022-08-28T04:07:43Z</time>
      </trkpt>
      <trkpt lat="46.04485" lon="6.97208">
        <ele>2373</ele>
        <time>2022-08-28T04:07:46Z</time>
      </trkpt>
      <trkpt lat="46.04483" lon="6.97205">
        <ele>2373</ele>
        <time>2022-08-28T04:07:47Z</time>
      </trkpt>
      <trkpt lat="46.04482" lon="6.97203">
        <ele>2372</ele>
        <time>2022-08-28T04:07:49Z</time>
      </trkpt>
      <trkpt lat="46.04481" lon="6.972">
        <ele>2373</ele>
        <time>2022-08-28T04:07:51Z</time>
      </trkpt>
      <trkpt lat="46.04479" lon="6.97198">
        <ele>2373</ele>
        <time>2022-08-28T04:07:53Z</time>
      </trkpt>
      <trkpt lat="46.04477" lon="6.97196">
        <ele>2373</ele>
        <time>2022-08-28T04:07:55Z</time>
      </trkpt>
      <trkpt lat="46.04475" lon="6.97194">
        <ele>2373</ele>
        <time>2022-08-28T04:07:57Z</time>
      </trkpt>
      <trkpt lat="46.04474" lon="6.97192">
        <ele>2373</ele>
        <time>2022-08-28T04:07:59Z</time>
      </trkpt>
      <trkpt lat="46.04472" lon="6.9719">
        <ele>2373</ele>
        <time>2022-08-28T04:08:01Z</time>
      </trkpt>
      <trkpt lat="46.04471" lon="6.97188">
        <ele>2373</ele>
        <time>2022-08-28T04:08:03Z</time>
      </trkpt>
      <trkpt lat="46.04469" lon="6.97185">
        <ele>2373</ele>
        <time>2022-08-28T04:08:05Z</time>
      </trkpt>
      <trkpt lat="46.04467" lon="6.97183">
        <ele>2373</ele>
        <time>2022-08-28T04:08:07Z</time>
      </trkpt>
      <trkpt lat="46.04465" lon="6.97181">
        <ele>2373</ele>
        <time>2022-08-28T04:08:09Z</time>
      </trkpt>
      <trkpt lat="46.04464" lon="6.97179">
        <ele>2373</ele>
        <time>2022-08-28T04:08:11Z</time>
      </trkpt>
      <trkpt lat="46.04462" lon="6.97176">
        <ele>2374</ele>
        <time>2022-08-28T04:08:14Z</time>
      </trkpt>
      <trkpt lat="46.04461" lon="6.97174">
        <ele>2374</ele>
        <time>2022-08-28T04:08:15Z</time>
      </trkpt>
      <trkpt lat="46.04459" lon="6.97172">
        <ele>2374</ele>
        <time>2022-08-28T04:08:17Z</time>
      </trkpt>
      <trkpt lat="46.04458" lon="6.9717">
        <ele>2374</ele>
        <time>2022-08-28T04:08:19Z</time>
      </trkpt>
      <trkpt lat="46.04456" lon="6.97168">
        <ele>2374</ele>
        <time>2022-08-28T04:08:21Z</time>
      </trkpt>
      <trkpt lat="46.04455" lon="6.97166">
        <ele>2375</ele>
        <time>2022-08-28T04:08:24Z</time>
      </trkpt>
      <trkpt lat="46.04453" lon="6.97164">
        <ele>2376</ele>
        <time>2022-08-28T04:08:27Z</time>
      </trkpt>
      <trkpt lat="46.04451" lon="6.97162">
        <ele>2376</ele>
        <time>2022-08-28T04:08:28Z</time>
      </trkpt>
      <trkpt lat="46.0445" lon="6.9716">
        <ele>2376</ele>
        <time>2022-08-28T04:08:30Z</time>
      </trkpt>
      <trkpt lat="46.04448" lon="6.97158">
        <ele>2376</ele>
        <time>2022-08-28T04:08:33Z</time>
      </trkpt>
      <trkpt lat="46.04446" lon="6.97155">
        <ele>2376</ele>
        <time>2022-08-28T04:08:36Z</time>
      </trkpt>
      <trkpt lat="46.04444" lon="6.97154">
        <ele>2376</ele>
        <time>2022-08-28T04:08:38Z</time>
      </trkpt>
      <trkpt lat="46.04442" lon="6.97151">
        <ele>2378</ele>
        <time>2022-08-28T04:08:41Z</time>
      </trkpt>
      <trkpt lat="46.04441" lon="6.97149">
        <ele>2378</ele>
        <time>2022-08-28T04:08:43Z</time>
      </trkpt>
      <trkpt lat="46.04439" lon="6.97148">
        <ele>2379</ele>
        <time>2022-08-28T04:08:45Z</time>
      </trkpt>
      <trkpt lat="46.04438" lon="6.97146">
        <ele>2379</ele>
        <time>2022-08-28T04:08:47Z</time>
      </trkpt>
      <trkpt lat="46.04436" lon="6.97144">
        <ele>2379</ele>
        <time>2022-08-28T04:08:49Z</time>
      </trkpt>
      <trkpt lat="46.04434" lon="6.97143">
        <ele>2379</ele>
        <time>2022-08-28T04:08:51Z</time>
      </trkpt>
      <trkpt lat="46.04432" lon="6.97141">
        <ele>2379</ele>
        <time>2022-08-28T04:08:54Z</time>
      </trkpt>
      <trkpt lat="46.0443" lon="6.97139">
        <ele>2379</ele>
        <time>2022-08-28T04:08:56Z</time>
      </trkpt>
      <trkpt lat="46.04428" lon="6.97138">
        <ele>2379</ele>
        <time>2022-08-28T04:08:59Z</time>
      </trkpt>
      <trkpt lat="46.04426" lon="6.97136">
        <ele>2379</ele>
        <time>2022-08-28T04:09:00Z</time>
      </trkpt>
      <trkpt lat="46.04424" lon="6.97135">
        <ele>2379</ele>
        <time>2022-08-28T04:09:02Z</time>
      </trkpt>
      <trkpt lat="46.04422" lon="6.97134">
        <ele>2379</ele>
        <time>2022-08-28T04:09:04Z</time>
      </trkpt>
      <trkpt lat="46.0442" lon="6.97133">
        <ele>2380</ele>
        <time>2022-08-28T04:09:06Z</time>
      </trkpt>
      <trkpt lat="46.04419" lon="6.97132">
        <ele>2380</ele>
        <time>2022-08-28T04:09:08Z</time>
      </trkpt>
      <trkpt lat="46.04417" lon="6.97131">
        <ele>2380</ele>
        <time>2022-08-28T04:09:10Z</time>
      </trkpt>
      <trkpt lat="46.04414" lon="6.97131">
        <ele>2380</ele>
        <time>2022-08-28T04:09:12Z</time>
      </trkpt>
      <trkpt lat="46.04413" lon="6.9713">
        <ele>2380</ele>
        <time>2022-08-28T04:09:14Z</time>
      </trkpt>
      <trkpt lat="46.04411" lon="6.97129">
        <ele>2380</ele>
        <time>2022-08-28T04:09:16Z</time>
      </trkpt>
      <trkpt lat="46.04409" lon="6.97128">
        <ele>2380</ele>
        <time>2022-08-28T04:09:18Z</time>
      </trkpt>
      <trkpt lat="46.04406" lon="6.97128">
        <ele>2380</ele>
        <time>2022-08-28T04:09:21Z</time>
      </trkpt>
      <trkpt lat="46.04404" lon="6.97127">
        <ele>2380</ele>
        <time>2022-08-28T04:09:22Z</time>
      </trkpt>
      <trkpt lat="46.04402" lon="6.97126">
        <ele>2380</ele>
        <time>2022-08-28T04:09:24Z</time>
      </trkpt>
      <trkpt lat="46.04399" lon="6.97126">
        <ele>2381</ele>
        <time>2022-08-28T04:09:26Z</time>
      </trkpt>
      <trkpt lat="46.04396" lon="6.97125">
        <ele>2381</ele>
        <time>2022-08-28T04:09:28Z</time>
      </trkpt>
      <trkpt lat="46.04394" lon="6.97124">
        <ele>2381</ele>
        <time>2022-08-28T04:09:30Z</time>
      </trkpt>
      <trkpt lat="46.04392" lon="6.97124">
        <ele>2381</ele>
        <time>2022-08-28T04:09:32Z</time>
      </trkpt>
      <trkpt lat="46.04389" lon="6.97123">
        <ele>2381</ele>
        <time>2022-08-28T04:09:34Z</time>
      </trkpt>
      <trkpt lat="46.04387" lon="6.97122">
        <ele>2381</ele>
        <time>2022-08-28T04:09:36Z</time>
      </trkpt>
      <trkpt lat="46.04385" lon="6.97122">
        <ele>2381</ele>
        <time>2022-08-28T04:09:38Z</time>
      </trkpt>
      <trkpt lat="46.04383" lon="6.97121">
        <ele>2381</ele>
        <time>2022-08-28T04:09:40Z</time>
      </trkpt>
      <trkpt lat="46.04381" lon="6.97121">
        <ele>2381</ele>
        <time>2022-08-28T04:09:42Z</time>
      </trkpt>
      <trkpt lat="46.04379" lon="6.97121">
        <ele>2381</ele>
        <time>2022-08-28T04:09:45Z</time>
      </trkpt>
      <trkpt lat="46.04376" lon="6.97121">
        <ele>2381</ele>
        <time>2022-08-28T04:09:46Z</time>
      </trkpt>
      <trkpt lat="46.04374" lon="6.97121">
        <ele>2382</ele>
        <time>2022-08-28T04:09:48Z</time>
      </trkpt>
      <trkpt lat="46.04372" lon="6.97121">
        <ele>2382</ele>
        <time>2022-08-28T04:09:50Z</time>
      </trkpt>
      <trkpt lat="46.0437" lon="6.9712">
        <ele>2382</ele>
        <time>2022-08-28T04:09:52Z</time>
      </trkpt>
      <trkpt lat="46.04367" lon="6.97119">
        <ele>2382</ele>
        <time>2022-08-28T04:09:55Z</time>
      </trkpt>
      <trkpt lat="46.04365" lon="6.97119">
        <ele>2382</ele>
        <time>2022-08-28T04:09:57Z</time>
      </trkpt>
      <trkpt lat="46.04363" lon="6.97119">
        <ele>2382</ele>
        <time>2022-08-28T04:10:00Z</time>
      </trkpt>
      <trkpt lat="46.04361" lon="6.97119">
        <ele>2382</ele>
        <time>2022-08-28T04:10:02Z</time>
      </trkpt>
      <trkpt lat="46.04359" lon="6.97119">
        <ele>2382</ele>
        <time>2022-08-28T04:10:04Z</time>
      </trkpt>
      <trkpt lat="46.04357" lon="6.97119">
        <ele>2382</ele>
        <time>2022-08-28T04:10:05Z</time>
      </trkpt>
      <trkpt lat="46.04355" lon="6.97119">
        <ele>2382</ele>
        <time>2022-08-28T04:10:07Z</time>
      </trkpt>
      <trkpt lat="46.04353" lon="6.9712">
        <ele>2382</ele>
        <time>2022-08-28T04:10:09Z</time>
      </trkpt>
      <trkpt lat="46.04351" lon="6.97121">
        <ele>2382</ele>
        <time>2022-08-28T04:10:11Z</time>
      </trkpt>
      <trkpt lat="46.04349" lon="6.97121">
        <ele>2382</ele>
        <time>2022-08-28T04:10:13Z</time>
      </trkpt>
      <trkpt lat="46.04347" lon="6.97121">
        <ele>2382</ele>
        <time>2022-08-28T04:10:15Z</time>
      </trkpt>
      <trkpt lat="46.04345" lon="6.97122">
        <ele>2382</ele>
        <time>2022-08-28T04:10:17Z</time>
      </trkpt>
      <trkpt lat="46.04343" lon="6.97122">
        <ele>2382</ele>
        <time>2022-08-28T04:10:19Z</time>
      </trkpt>
      <trkpt lat="46.0434" lon="6.97122">
        <ele>2382</ele>
        <time>2022-08-28T04:10:21Z</time>
      </trkpt>
      <trkpt lat="46.04338" lon="6.97123">
        <ele>2382</ele>
        <time>2022-08-28T04:10:23Z</time>
      </trkpt>
      <trkpt lat="46.04336" lon="6.97123">
        <ele>2382</ele>
        <time>2022-08-28T04:10:25Z</time>
      </trkpt>
      <trkpt lat="46.04334" lon="6.97124">
        <ele>2383</ele>
        <time>2022-08-28T04:10:27Z</time>
      </trkpt>
      <trkpt lat="46.04332" lon="6.97125">
        <ele>2383</ele>
        <time>2022-08-28T04:10:29Z</time>
      </trkpt>
      <trkpt lat="46.0433" lon="6.97125">
        <ele>2383</ele>
        <time>2022-08-28T04:10:31Z</time>
      </trkpt>
      <trkpt lat="46.04328" lon="6.97126">
        <ele>2384</ele>
        <time>2022-08-28T04:10:33Z</time>
      </trkpt>
      <trkpt lat="46.04326" lon="6.97127">
        <ele>2384</ele>
        <time>2022-08-28T04:10:36Z</time>
      </trkpt>
      <trkpt lat="46.04324" lon="6.97128">
        <ele>2384</ele>
        <time>2022-08-28T04:10:37Z</time>
      </trkpt>
      <trkpt lat="46.04322" lon="6.97129">
        <ele>2384</ele>
        <time>2022-08-28T04:10:39Z</time>
      </trkpt>
      <trkpt lat="46.0432" lon="6.9713">
        <ele>2385</ele>
        <time>2022-08-28T04:10:41Z</time>
      </trkpt>
      <trkpt lat="46.04318" lon="6.97131">
        <ele>2385</ele>
        <time>2022-08-28T04:10:43Z</time>
      </trkpt>
      <trkpt lat="46.04316" lon="6.97132">
        <ele>2385</ele>
        <time>2022-08-28T04:10:45Z</time>
      </trkpt>
      <trkpt lat="46.04314" lon="6.97134">
        <ele>2385</ele>
        <time>2022-08-28T04:10:47Z</time>
      </trkpt>
      <trkpt lat="46.04312" lon="6.97134">
        <ele>2385</ele>
        <time>2022-08-28T04:10:49Z</time>
      </trkpt>
      <trkpt lat="46.0431" lon="6.97134">
        <ele>2386</ele>
        <time>2022-08-28T04:10:51Z</time>
      </trkpt>
      <trkpt lat="46.04308" lon="6.97135">
        <ele>2386</ele>
        <time>2022-08-28T04:10:53Z</time>
      </trkpt>
      <trkpt lat="46.04306" lon="6.97135">
        <ele>2386</ele>
        <time>2022-08-28T04:10:55Z</time>
      </trkpt>
      <trkpt lat="46.04304" lon="6.97136">
        <ele>2386</ele>
        <time>2022-08-28T04:10:57Z</time>
      </trkpt>
      <trkpt lat="46.04301" lon="6.97137">
        <ele>2386</ele>
        <time>2022-08-28T04:11:01Z</time>
      </trkpt>
      <trkpt lat="46.043" lon="6.97138">
        <ele>2386</ele>
        <time>2022-08-28T04:11:02Z</time>
      </trkpt>
      <trkpt lat="46.04298" lon="6.97139">
        <ele>2387</ele>
        <time>2022-08-28T04:11:04Z</time>
      </trkpt>
      <trkpt lat="46.04296" lon="6.97142">
        <ele>2387</ele>
        <time>2022-08-28T04:11:07Z</time>
      </trkpt>
      <trkpt lat="46.04294" lon="6.97144">
        <ele>2387</ele>
        <time>2022-08-28T04:11:10Z</time>
      </trkpt>
      <trkpt lat="46.04292" lon="6.97146">
        <ele>2387</ele>
        <time>2022-08-28T04:11:13Z</time>
      </trkpt>
      <trkpt lat="46.04291" lon="6.97148">
        <ele>2387</ele>
        <time>2022-08-28T04:11:16Z</time>
      </trkpt>
      <trkpt lat="46.04289" lon="6.97151">
        <ele>2388</ele>
        <time>2022-08-28T04:11:19Z</time>
      </trkpt>
      <trkpt lat="46.04287" lon="6.97153">
        <ele>2389</ele>
        <time>2022-08-28T04:11:23Z</time>
      </trkpt>
      <trkpt lat="46.04285" lon="6.97154">
        <ele>2389</ele>
        <time>2022-08-28T04:11:26Z</time>
      </trkpt>
      <trkpt lat="46.04283" lon="6.97155">
        <ele>2390</ele>
        <time>2022-08-28T04:11:28Z</time>
      </trkpt>
      <trkpt lat="46.0428" lon="6.97156">
        <ele>2390</ele>
        <time>2022-08-28T04:11:31Z</time>
      </trkpt>
      <trkpt lat="46.04278" lon="6.97157">
        <ele>2391</ele>
        <time>2022-08-28T04:11:34Z</time>
      </trkpt>
      <trkpt lat="46.04276" lon="6.97157">
        <ele>2391</ele>
        <time>2022-08-28T04:11:37Z</time>
      </trkpt>
      <trkpt lat="46.04274" lon="6.97158">
        <ele>2392</ele>
        <time>2022-08-28T04:11:40Z</time>
      </trkpt>
      <trkpt lat="46.04272" lon="6.97158">
        <ele>2392</ele>
        <time>2022-08-28T04:11:43Z</time>
      </trkpt>
      <trkpt lat="46.04269" lon="6.97158">
        <ele>2392</ele>
        <time>2022-08-28T04:11:46Z</time>
      </trkpt>
      <trkpt lat="46.04268" lon="6.97159">
        <ele>2392</ele>
        <time>2022-08-28T04:11:49Z</time>
      </trkpt>
      <trkpt lat="46.04266" lon="6.97161">
        <ele>2393</ele>
        <time>2022-08-28T04:11:53Z</time>
      </trkpt>
      <trkpt lat="46.04265" lon="6.97164">
        <ele>2393</ele>
        <time>2022-08-28T04:11:56Z</time>
      </trkpt>
      <trkpt lat="46.04263" lon="6.97167">
        <ele>2393</ele>
        <time>2022-08-28T04:11:59Z</time>
      </trkpt>
      <trkpt lat="46.04261" lon="6.9717">
        <ele>2394</ele>
        <time>2022-08-28T04:12:01Z</time>
      </trkpt>
      <trkpt lat="46.04259" lon="6.97171">
        <ele>2394</ele>
        <time>2022-08-28T04:12:03Z</time>
      </trkpt>
      <trkpt lat="46.04257" lon="6.97172">
        <ele>2394</ele>
        <time>2022-08-28T04:12:05Z</time>
      </trkpt>
      <trkpt lat="46.04255" lon="6.97173">
        <ele>2395</ele>
        <time>2022-08-28T04:12:08Z</time>
      </trkpt>
      <trkpt lat="46.04253" lon="6.97174">
        <ele>2395</ele>
        <time>2022-08-28T04:12:11Z</time>
      </trkpt>
      <trkpt lat="46.04251" lon="6.97175">
        <ele>2395</ele>
        <time>2022-08-28T04:12:14Z</time>
      </trkpt>
      <trkpt lat="46.04249" lon="6.97177">
        <ele>2396</ele>
        <time>2022-08-28T04:12:17Z</time>
      </trkpt>
      <trkpt lat="46.04247" lon="6.97179">
        <ele>2396</ele>
        <time>2022-08-28T04:12:20Z</time>
      </trkpt>
      <trkpt lat="46.04245" lon="6.9718">
        <ele>2397</ele>
        <time>2022-08-28T04:12:22Z</time>
      </trkpt>
      <trkpt lat="46.04243" lon="6.97181">
        <ele>2397</ele>
        <time>2022-08-28T04:12:24Z</time>
      </trkpt>
      <trkpt lat="46.04241" lon="6.97182">
        <ele>2396</ele>
        <time>2022-08-28T04:12:26Z</time>
      </trkpt>
      <trkpt lat="46.04239" lon="6.97184">
        <ele>2397</ele>
        <time>2022-08-28T04:12:28Z</time>
      </trkpt>
      <trkpt lat="46.04237" lon="6.97185">
        <ele>2397</ele>
        <time>2022-08-28T04:12:30Z</time>
      </trkpt>
      <trkpt lat="46.04235" lon="6.97186">
        <ele>2397</ele>
        <time>2022-08-28T04:12:32Z</time>
      </trkpt>
      <trkpt lat="46.04234" lon="6.97187">
        <ele>2397</ele>
        <time>2022-08-28T04:12:34Z</time>
      </trkpt>
      <trkpt lat="46.04232" lon="6.97189">
        <ele>2397</ele>
        <time>2022-08-28T04:12:36Z</time>
      </trkpt>
      <trkpt lat="46.0423" lon="6.97191">
        <ele>2398</ele>
        <time>2022-08-28T04:12:38Z</time>
      </trkpt>
      <trkpt lat="46.04229" lon="6.97192">
        <ele>2398</ele>
        <time>2022-08-28T04:12:41Z</time>
      </trkpt>
      <trkpt lat="46.04227" lon="6.97193">
        <ele>2398</ele>
        <time>2022-08-28T04:12:42Z</time>
      </trkpt>
      <trkpt lat="46.04224" lon="6.97195">
        <ele>2398</ele>
        <time>2022-08-28T04:12:46Z</time>
      </trkpt>
      <trkpt lat="46.04222" lon="6.97196">
        <ele>2398</ele>
        <time>2022-08-28T04:12:48Z</time>
      </trkpt>
      <trkpt lat="46.0422" lon="6.97197">
        <ele>2398</ele>
        <time>2022-08-28T04:12:51Z</time>
      </trkpt>
      <trkpt lat="46.04218" lon="6.97197">
        <ele>2400</ele>
        <time>2022-08-28T04:12:55Z</time>
      </trkpt>
      <trkpt lat="46.04216" lon="6.97198">
        <ele>2400</ele>
        <time>2022-08-28T04:12:57Z</time>
      </trkpt>
      <trkpt lat="46.04214" lon="6.97198">
        <ele>2401</ele>
        <time>2022-08-28T04:13:00Z</time>
      </trkpt>
      <trkpt lat="46.04211" lon="6.97198">
        <ele>2401</ele>
        <time>2022-08-28T04:13:03Z</time>
      </trkpt>
      <trkpt lat="46.04209" lon="6.97198">
        <ele>2401</ele>
        <time>2022-08-28T04:13:06Z</time>
      </trkpt>
      <trkpt lat="46.04207" lon="6.97199">
        <ele>2402</ele>
        <time>2022-08-28T04:13:09Z</time>
      </trkpt>
      <trkpt lat="46.04205" lon="6.972">
        <ele>2402</ele>
        <time>2022-08-28T04:13:12Z</time>
      </trkpt>
      <trkpt lat="46.04202" lon="6.97201">
        <ele>2402</ele>
        <time>2022-08-28T04:13:15Z</time>
      </trkpt>
      <trkpt lat="46.042" lon="6.97202">
        <ele>2402</ele>
        <time>2022-08-28T04:13:17Z</time>
      </trkpt>
      <trkpt lat="46.04199" lon="6.97204">
        <ele>2402</ele>
        <time>2022-08-28T04:13:19Z</time>
      </trkpt>
      <trkpt lat="46.04197" lon="6.97205">
        <ele>2404</ele>
        <time>2022-08-28T04:13:21Z</time>
      </trkpt>
      <trkpt lat="46.04195" lon="6.97206">
        <ele>2404</ele>
        <time>2022-08-28T04:13:23Z</time>
      </trkpt>
      <trkpt lat="46.04193" lon="6.97207">
        <ele>2404</ele>
        <time>2022-08-28T04:13:25Z</time>
      </trkpt>
      <trkpt lat="46.04191" lon="6.97208">
        <ele>2404</ele>
        <time>2022-08-28T04:13:27Z</time>
      </trkpt>
      <trkpt lat="46.04188" lon="6.97209">
        <ele>2404</ele>
        <time>2022-08-28T04:13:29Z</time>
      </trkpt>
      <trkpt lat="46.04186" lon="6.97209">
        <ele>2404</ele>
        <time>2022-08-28T04:13:31Z</time>
      </trkpt>
      <trkpt lat="46.04183" lon="6.97209">
        <ele>2404</ele>
        <time>2022-08-28T04:13:33Z</time>
      </trkpt>
      <trkpt lat="46.04181" lon="6.97208">
        <ele>2405</ele>
        <time>2022-08-28T04:13:35Z</time>
      </trkpt>
      <trkpt lat="46.04179" lon="6.97207">
        <ele>2404</ele>
        <time>2022-08-28T04:13:38Z</time>
      </trkpt>
      <trkpt lat="46.04176" lon="6.97205">
        <ele>2404</ele>
        <time>2022-08-28T04:13:39Z</time>
      </trkpt>
      <trkpt lat="46.04175" lon="6.97204">
        <ele>2404</ele>
        <time>2022-08-28T04:13:41Z</time>
      </trkpt>
      <trkpt lat="46.04173" lon="6.97202">
        <ele>2404</ele>
        <time>2022-08-28T04:13:43Z</time>
      </trkpt>
      <trkpt lat="46.0417" lon="6.97201">
        <ele>2404</ele>
        <time>2022-08-28T04:13:45Z</time>
      </trkpt>
      <trkpt lat="46.04168" lon="6.972">
        <ele>2404</ele>
        <time>2022-08-28T04:13:47Z</time>
      </trkpt>
      <trkpt lat="46.04167" lon="6.97198">
        <ele>2404</ele>
        <time>2022-08-28T04:13:49Z</time>
      </trkpt>
      <trkpt lat="46.04165" lon="6.97196">
        <ele>2404</ele>
        <time>2022-08-28T04:13:52Z</time>
      </trkpt>
      <trkpt lat="46.04163" lon="6.97195">
        <ele>2404</ele>
        <time>2022-08-28T04:13:53Z</time>
      </trkpt>
      <trkpt lat="46.04162" lon="6.97192">
        <ele>2405</ele>
        <time>2022-08-28T04:13:55Z</time>
      </trkpt>
      <trkpt lat="46.04159" lon="6.9719">
        <ele>2405</ele>
        <time>2022-08-28T04:13:59Z</time>
      </trkpt>
      <trkpt lat="46.04157" lon="6.97189">
        <ele>2405</ele>
        <time>2022-08-28T04:14:00Z</time>
      </trkpt>
      <trkpt lat="46.04156" lon="6.97188">
        <ele>2405</ele>
        <time>2022-08-28T04:14:02Z</time>
      </trkpt>
      <trkpt lat="46.04154" lon="6.97187">
        <ele>2406</ele>
        <time>2022-08-28T04:14:04Z</time>
      </trkpt>
      <trkpt lat="46.04152" lon="6.97186">
        <ele>2406</ele>
        <time>2022-08-28T04:14:06Z</time>
      </trkpt>
      <trkpt lat="46.0415" lon="6.97185">
        <ele>2406</ele>
        <time>2022-08-28T04:14:08Z</time>
      </trkpt>
      <trkpt lat="46.04149" lon="6.97184">
        <ele>2407</ele>
        <time>2022-08-28T04:14:11Z</time>
      </trkpt>
      <trkpt lat="46.04147" lon="6.97182">
        <ele>2407</ele>
        <time>2022-08-28T04:14:12Z</time>
      </trkpt>
      <trkpt lat="46.04145" lon="6.97181">
        <ele>2407</ele>
        <time>2022-08-28T04:14:14Z</time>
      </trkpt>
      <trkpt lat="46.04142" lon="6.97179">
        <ele>2407</ele>
        <time>2022-08-28T04:14:17Z</time>
      </trkpt>
      <trkpt lat="46.04141" lon="6.97178">
        <ele>2407</ele>
        <time>2022-08-28T04:14:20Z</time>
      </trkpt>
      <trkpt lat="46.04139" lon="6.97177">
        <ele>2407</ele>
        <time>2022-08-28T04:14:21Z</time>
      </trkpt>
      <trkpt lat="46.04137" lon="6.97176">
        <ele>2407</ele>
        <time>2022-08-28T04:14:24Z</time>
      </trkpt>
      <trkpt lat="46.04135" lon="6.97175">
        <ele>2408</ele>
        <time>2022-08-28T04:14:28Z</time>
      </trkpt>
      <trkpt lat="46.04132" lon="6.97173">
        <ele>2408</ele>
        <time>2022-08-28T04:14:30Z</time>
      </trkpt>
      <trkpt lat="46.0413" lon="6.97171">
        <ele>2409</ele>
        <time>2022-08-28T04:14:33Z</time>
      </trkpt>
      <trkpt lat="46.04128" lon="6.97169">
        <ele>2409</ele>
        <time>2022-08-28T04:14:36Z</time>
      </trkpt>
      <trkpt lat="46.04126" lon="6.97167">
        <ele>2409</ele>
        <time>2022-08-28T04:14:39Z</time>
      </trkpt>
      <trkpt lat="46.04124" lon="6.97165">
        <ele>2409</ele>
        <time>2022-08-28T04:14:42Z</time>
      </trkpt>
      <trkpt lat="46.04123" lon="6.97164">
        <ele>2409</ele>
        <time>2022-08-28T04:14:44Z</time>
      </trkpt>
      <trkpt lat="46.04121" lon="6.97163">
        <ele>2410</ele>
        <time>2022-08-28T04:14:46Z</time>
      </trkpt>
      <trkpt lat="46.04119" lon="6.97162">
        <ele>2410</ele>
        <time>2022-08-28T04:14:48Z</time>
      </trkpt>
      <trkpt lat="46.04117" lon="6.97161">
        <ele>2410</ele>
        <time>2022-08-28T04:14:50Z</time>
      </trkpt>
      <trkpt lat="46.04115" lon="6.97161">
        <ele>2410</ele>
        <time>2022-08-28T04:14:52Z</time>
      </trkpt>
      <trkpt lat="46.04113" lon="6.97161">
        <ele>2410</ele>
        <time>2022-08-28T04:14:54Z</time>
      </trkpt>
      <trkpt lat="46.04111" lon="6.97163">
        <ele>2410</ele>
        <time>2022-08-28T04:14:56Z</time>
      </trkpt>
      <trkpt lat="46.04108" lon="6.97163">
        <ele>2409</ele>
        <time>2022-08-28T04:14:58Z</time>
      </trkpt>
      <trkpt lat="46.04107" lon="6.97161">
        <ele>2409</ele>
        <time>2022-08-28T04:15:00Z</time>
      </trkpt>
      <trkpt lat="46.04106" lon="6.97159">
        <ele>2409</ele>
        <time>2022-08-28T04:15:02Z</time>
      </trkpt>
      <trkpt lat="46.04105" lon="6.97156">
        <ele>2409</ele>
        <time>2022-08-28T04:15:04Z</time>
      </trkpt>
      <trkpt lat="46.04104" lon="6.97153">
        <ele>2409</ele>
        <time>2022-08-28T04:15:06Z</time>
      </trkpt>
      <trkpt lat="46.04103" lon="6.9715">
        <ele>2409</ele>
        <time>2022-08-28T04:15:08Z</time>
      </trkpt>
      <trkpt lat="46.04102" lon="6.97147">
        <ele>2409</ele>
        <time>2022-08-28T04:15:10Z</time>
      </trkpt>
      <trkpt lat="46.04101" lon="6.97145">
        <ele>2409</ele>
        <time>2022-08-28T04:15:12Z</time>
      </trkpt>
      <trkpt lat="46.041" lon="6.97142">
        <ele>2408</ele>
        <time>2022-08-28T04:15:14Z</time>
      </trkpt>
      <trkpt lat="46.04099" lon="6.97139">
        <ele>2408</ele>
        <time>2022-08-28T04:15:17Z</time>
      </trkpt>
      <trkpt lat="46.04099" lon="6.97136">
        <ele>2408</ele>
        <time>2022-08-28T04:15:18Z</time>
      </trkpt>
      <trkpt lat="46.04098" lon="6.97134">
        <ele>2408</ele>
        <time>2022-08-28T04:15:20Z</time>
      </trkpt>
      <trkpt lat="46.04097" lon="6.97131">
        <ele>2408</ele>
        <time>2022-08-28T04:15:22Z</time>
      </trkpt>
      <trkpt lat="46.04096" lon="6.97129">
        <ele>2408</ele>
        <time>2022-08-28T04:15:24Z</time>
      </trkpt>
      <trkpt lat="46.04094" lon="6.97127">
        <ele>2407</ele>
        <time>2022-08-28T04:15:27Z</time>
      </trkpt>
      <trkpt lat="46.04093" lon="6.97125">
        <ele>2407</ele>
        <time>2022-08-28T04:15:28Z</time>
      </trkpt>
      <trkpt lat="46.04091" lon="6.97123">
        <ele>2407</ele>
        <time>2022-08-28T04:15:30Z</time>
      </trkpt>
      <trkpt lat="46.0409" lon="6.97121">
        <ele>2406</ele>
        <time>2022-08-28T04:15:33Z</time>
      </trkpt>
      <trkpt lat="46.04088" lon="6.97119">
        <ele>2406</ele>
        <time>2022-08-28T04:15:35Z</time>
      </trkpt>
      <trkpt lat="46.04086" lon="6.97118">
        <ele>2405</ele>
        <time>2022-08-28T04:15:44Z</time>
      </trkpt>
      <trkpt lat="46.04085" lon="6.97116">
        <ele>2406</ele>
        <time>2022-08-28T04:15:49Z</time>
      </trkpt>
      <trkpt lat="46.04085" lon="6.97116">
        <ele>2405</ele>
        <time>2022-08-28T04:16:01Z</time>
      </trkpt>
      <trkpt lat="46.04085" lon="6.97116">
        <ele>2406</ele>
        <time>2022-08-28T04:16:19Z</time>
      </trkpt>
      <trkpt lat="46.04085" lon="6.97116">
        <ele>2404</ele>
        <time>2022-08-28T04:16:39Z</time>
      </trkpt>
      <trkpt lat="46.04085" lon="6.97116">
        <ele>2405</ele>
        <time>2022-08-28T04:16:55Z</time>
      </trkpt>
      <trkpt lat="46.04085" lon="6.97116">
        <ele>2404</ele>
        <time>2022-08-28T04:17:14Z</time>
      </trkpt>
      <trkpt lat="46.04085" lon="6.97116">
        <ele>2404</ele>
        <time>2022-08-28T04:17:31Z</time>
      </trkpt>
      <trkpt lat="46.04085" lon="6.97116">
        <ele>2404</ele>
        <time>2022-08-28T04:17:48Z</time>
      </trkpt>
      <trkpt lat="46.04085" lon="6.97116">
        <ele>2405</ele>
        <time>2022-08-28T04:18:08Z</time>
      </trkpt>
      <trkpt lat="46.04085" lon="6.97116">
        <ele>2405</ele>
        <time>2022-08-28T04:18:27Z</time>
      </trkpt>
      <trkpt lat="46.04085" lon="6.97116">
        <ele>2405</ele>
        <time>2022-08-28T04:18:44Z</time>
      </trkpt>
      <trkpt lat="46.04085" lon="6.97116">
        <ele>2405</ele>
        <time>2022-08-28T04:19:01Z</time>
      </trkpt>
      <trkpt lat="46.04085" lon="6.97116">
        <ele>2405</ele>
        <time>2022-08-28T04:19:18Z</time>
      </trkpt>
      <trkpt lat="46.04085" lon="6.97116">
        <ele>2405</ele>
        <time>2022-08-28T04:19:35Z</time>
      </trkpt>
      <trkpt lat="46.04085" lon="6.97116">
        <ele>2405</ele>
        <time>2022-08-28T04:19:54Z</time>
      </trkpt>
      <trkpt lat="46.04085" lon="6.97113">
        <ele>2406</ele>
        <time>2022-08-28T04:20:12Z</time>
      </trkpt>
      <trkpt lat="46.04085" lon="6.97113">
        <ele>2406</ele>
        <time>2022-08-28T04:20:14Z</time>
      </trkpt>
      <trkpt lat="46.04083" lon="6.97111">
        <ele>2406</ele>
        <time>2022-08-28T04:20:15Z</time>
      </trkpt>
      <trkpt lat="46.04081" lon="6.9711">
        <ele>2406</ele>
        <time>2022-08-28T04:20:17Z</time>
      </trkpt>
      <trkpt lat="46.04079" lon="6.97108">
        <ele>2405</ele>
        <time>2022-08-28T04:20:20Z</time>
      </trkpt>
      <trkpt lat="46.04077" lon="6.97106">
        <ele>2404</ele>
        <time>2022-08-28T04:20:23Z</time>
      </trkpt>
      <trkpt lat="46.04076" lon="6.97103">
        <ele>2404</ele>
        <time>2022-08-28T04:20:26Z</time>
      </trkpt>
      <trkpt lat="46.04074" lon="6.97101">
        <ele>2402</ele>
        <time>2022-08-28T04:20:28Z</time>
      </trkpt>
      <trkpt lat="46.04072" lon="6.97099">
        <ele>2402</ele>
        <time>2022-08-28T04:20:30Z</time>
      </trkpt>
      <trkpt lat="46.0407" lon="6.97097">
        <ele>2401</ele>
        <time>2022-08-28T04:20:31Z</time>
      </trkpt>
      <trkpt lat="46.04068" lon="6.97094">
        <ele>2401</ele>
        <time>2022-08-28T04:20:33Z</time>
      </trkpt>
      <trkpt lat="46.04065" lon="6.97092">
        <ele>2400</ele>
        <time>2022-08-28T04:20:35Z</time>
      </trkpt>
      <trkpt lat="46.04064" lon="6.97089">
        <ele>2400</ele>
        <time>2022-08-28T04:20:37Z</time>
      </trkpt>
      <trkpt lat="46.04062" lon="6.97088">
        <ele>2400</ele>
        <time>2022-08-28T04:20:39Z</time>
      </trkpt>
      <trkpt lat="46.04061" lon="6.97086">
        <ele>2399</ele>
        <time>2022-08-28T04:20:41Z</time>
      </trkpt>
      <trkpt lat="46.04061" lon="6.97083">
        <ele>2399</ele>
        <time>2022-08-28T04:20:43Z</time>
      </trkpt>
      <trkpt lat="46.04061" lon="6.9708">
        <ele>2398</ele>
        <time>2022-08-28T04:20:45Z</time>
      </trkpt>
      <trkpt lat="46.04061" lon="6.97076">
        <ele>2397</ele>
        <time>2022-08-28T04:20:47Z</time>
      </trkpt>
      <trkpt lat="46.04061" lon="6.97073">
        <ele>2396</ele>
        <time>2022-08-28T04:20:50Z</time>
      </trkpt>
      <trkpt lat="46.04061" lon="6.9707">
        <ele>2396</ele>
        <time>2022-08-28T04:20:51Z</time>
      </trkpt>
      <trkpt lat="46.04061" lon="6.97066">
        <ele>2396</ele>
        <time>2022-08-28T04:20:53Z</time>
      </trkpt>
      <trkpt lat="46.0406" lon="6.97063">
        <ele>2396</ele>
        <time>2022-08-28T04:20:55Z</time>
      </trkpt>
      <trkpt lat="46.0406" lon="6.97059">
        <ele>2395</ele>
        <time>2022-08-28T04:20:57Z</time>
      </trkpt>
      <trkpt lat="46.0406" lon="6.97056">
        <ele>2394</ele>
        <time>2022-08-28T04:20:59Z</time>
      </trkpt>
      <trkpt lat="46.04059" lon="6.97052">
        <ele>2394</ele>
        <time>2022-08-28T04:21:02Z</time>
      </trkpt>
      <trkpt lat="46.04058" lon="6.97049">
        <ele>2393</ele>
        <time>2022-08-28T04:21:03Z</time>
      </trkpt>
      <trkpt lat="46.04056" lon="6.97046">
        <ele>2392</ele>
        <time>2022-08-28T04:21:06Z</time>
      </trkpt>
      <trkpt lat="46.04054" lon="6.97044">
        <ele>2392</ele>
        <time>2022-08-28T04:21:07Z</time>
      </trkpt>
      <trkpt lat="46.04053" lon="6.97043">
        <ele>2392</ele>
        <time>2022-08-28T04:21:08Z</time>
      </trkpt>
      <trkpt lat="46.04052" lon="6.97043">
        <ele>2392</ele>
        <time>2022-08-28T04:21:09Z</time>
      </trkpt>
      <trkpt lat="46.04051" lon="6.97042">
        <ele>2392</ele>
        <time>2022-08-28T04:21:10Z</time>
      </trkpt>
      <trkpt lat="46.0405" lon="6.97042">
        <ele>2391</ele>
        <time>2022-08-28T04:21:11Z</time>
      </trkpt>
      <trkpt lat="46.04047" lon="6.97041">
        <ele>2390</ele>
        <time>2022-08-28T04:21:13Z</time>
      </trkpt>
      <trkpt lat="46.04045" lon="6.97041">
        <ele>2389</ele>
        <time>2022-08-28T04:21:16Z</time>
      </trkpt>
      <trkpt lat="46.04043" lon="6.9704">
        <ele>2389</ele>
        <time>2022-08-28T04:21:17Z</time>
      </trkpt>
      <trkpt lat="46.0404" lon="6.9704">
        <ele>2389</ele>
        <time>2022-08-28T04:21:19Z</time>
      </trkpt>
      <trkpt lat="46.04038" lon="6.9704">
        <ele>2388</ele>
        <time>2022-08-28T04:21:21Z</time>
      </trkpt>
      <trkpt lat="46.04037" lon="6.97038">
        <ele>2388</ele>
        <time>2022-08-28T04:21:23Z</time>
      </trkpt>
      <trkpt lat="46.04034" lon="6.97037">
        <ele>2386</ele>
        <time>2022-08-28T04:21:26Z</time>
      </trkpt>
      <trkpt lat="46.04032" lon="6.97036">
        <ele>2386</ele>
        <time>2022-08-28T04:21:28Z</time>
      </trkpt>
      <trkpt lat="46.0403" lon="6.97035">
        <ele>2385</ele>
        <time>2022-08-28T04:21:30Z</time>
      </trkpt>
      <trkpt lat="46.04028" lon="6.97034">
        <ele>2385</ele>
        <time>2022-08-28T04:21:32Z</time>
      </trkpt>
      <trkpt lat="46.04025" lon="6.97032">
        <ele>2385</ele>
        <time>2022-08-28T04:21:35Z</time>
      </trkpt>
      <trkpt lat="46.04023" lon="6.97032">
        <ele>2384</ele>
        <time>2022-08-28T04:21:37Z</time>
      </trkpt>
      <trkpt lat="46.04021" lon="6.97032">
        <ele>2384</ele>
        <time>2022-08-28T04:21:38Z</time>
      </trkpt>
      <trkpt lat="46.04018" lon="6.97031">
        <ele>2383</ele>
        <time>2022-08-28T04:21:40Z</time>
      </trkpt>
      <trkpt lat="46.04016" lon="6.97032">
        <ele>2383</ele>
        <time>2022-08-28T04:21:42Z</time>
      </trkpt>
      <trkpt lat="46.04014" lon="6.97032">
        <ele>2381</ele>
        <time>2022-08-28T04:21:45Z</time>
      </trkpt>
      <trkpt lat="46.04012" lon="6.97033">
        <ele>2381</ele>
        <time>2022-08-28T04:21:47Z</time>
      </trkpt>
      <trkpt lat="46.0401" lon="6.97034">
        <ele>2380</ele>
        <time>2022-08-28T04:21:49Z</time>
      </trkpt>
      <trkpt lat="46.04007" lon="6.97035">
        <ele>2380</ele>
        <time>2022-08-28T04:21:51Z</time>
      </trkpt>
      <trkpt lat="46.04006" lon="6.97036">
        <ele>2380</ele>
        <time>2022-08-28T04:21:53Z</time>
      </trkpt>
      <trkpt lat="46.04004" lon="6.97036">
        <ele>2379</ele>
        <time>2022-08-28T04:21:55Z</time>
      </trkpt>
      <trkpt lat="46.04002" lon="6.97038">
        <ele>2378</ele>
        <time>2022-08-28T04:21:58Z</time>
      </trkpt>
      <trkpt lat="46.04" lon="6.9704">
        <ele>2376</ele>
        <time>2022-08-28T04:21:59Z</time>
      </trkpt>
      <trkpt lat="46.03998" lon="6.97041">
        <ele>2376</ele>
        <time>2022-08-28T04:22:01Z</time>
      </trkpt>
      <trkpt lat="46.03996" lon="6.97042">
        <ele>2375</ele>
        <time>2022-08-28T04:22:03Z</time>
      </trkpt>
      <trkpt lat="46.03993" lon="6.97043">
        <ele>2374</ele>
        <time>2022-08-28T04:22:06Z</time>
      </trkpt>
      <trkpt lat="46.03989" lon="6.97045">
        <ele>2373</ele>
        <time>2022-08-28T04:22:10Z</time>
      </trkpt>
      <trkpt lat="46.03985" lon="6.97047">
        <ele>2373</ele>
        <time>2022-08-28T04:22:13Z</time>
      </trkpt>
      <trkpt lat="46.03982" lon="6.97048">
        <ele>2372</ele>
        <time>2022-08-28T04:22:15Z</time>
      </trkpt>
      <trkpt lat="46.0398" lon="6.97049">
        <ele>2371</ele>
        <time>2022-08-28T04:22:18Z</time>
      </trkpt>
      <trkpt lat="46.03979" lon="6.97049">
        <ele>2371</ele>
        <time>2022-08-28T04:22:20Z</time>
      </trkpt>
      <trkpt lat="46.03977" lon="6.97049">
        <ele>2371</ele>
        <time>2022-08-28T04:22:21Z</time>
      </trkpt>
      <trkpt lat="46.03976" lon="6.97049">
        <ele>2369</ele>
        <time>2022-08-28T04:22:22Z</time>
      </trkpt>
      <trkpt lat="46.03973" lon="6.9705">
        <ele>2369</ele>
        <time>2022-08-28T04:22:25Z</time>
      </trkpt>
      <trkpt lat="46.03971" lon="6.97052">
        <ele>2369</ele>
        <time>2022-08-28T04:22:28Z</time>
      </trkpt>
      <trkpt lat="46.03969" lon="6.97053">
        <ele>2368</ele>
        <time>2022-08-28T04:22:30Z</time>
      </trkpt>
      <trkpt lat="46.03968" lon="6.97054">
        <ele>2368</ele>
        <time>2022-08-28T04:22:32Z</time>
      </trkpt>
      <trkpt lat="46.03965" lon="6.97055">
        <ele>2367</ele>
        <time>2022-08-28T04:22:34Z</time>
      </trkpt>
      <trkpt lat="46.03962" lon="6.97055">
        <ele>2367</ele>
        <time>2022-08-28T04:22:36Z</time>
      </trkpt>
      <trkpt lat="46.0396" lon="6.97055">
        <ele>2366</ele>
        <time>2022-08-28T04:22:39Z</time>
      </trkpt>
      <trkpt lat="46.03957" lon="6.97056">
        <ele>2365</ele>
        <time>2022-08-28T04:22:40Z</time>
      </trkpt>
      <trkpt lat="46.03954" lon="6.97056">
        <ele>2365</ele>
        <time>2022-08-28T04:22:42Z</time>
      </trkpt>
      <trkpt lat="46.03952" lon="6.97057">
        <ele>2364</ele>
        <time>2022-08-28T04:22:44Z</time>
      </trkpt>
      <trkpt lat="46.03949" lon="6.97058">
        <ele>2364</ele>
        <time>2022-08-28T04:22:46Z</time>
      </trkpt>
      <trkpt lat="46.03946" lon="6.97058">
        <ele>2364</ele>
        <time>2022-08-28T04:22:48Z</time>
      </trkpt>
      <trkpt lat="46.03943" lon="6.97058">
        <ele>2363</ele>
        <time>2022-08-28T04:22:51Z</time>
      </trkpt>
      <trkpt lat="46.0394" lon="6.97057">
        <ele>2363</ele>
        <time>2022-08-28T04:22:52Z</time>
      </trkpt>
      <trkpt lat="46.03938" lon="6.97058">
        <ele>2362</ele>
        <time>2022-08-28T04:22:59Z</time>
      </trkpt>
      <trkpt lat="46.03935" lon="6.97057">
        <ele>2361</ele>
        <time>2022-08-28T04:23:01Z</time>
      </trkpt>
      <trkpt lat="46.03933" lon="6.97057">
        <ele>2361</ele>
        <time>2022-08-28T04:23:02Z</time>
      </trkpt>
      <trkpt lat="46.03931" lon="6.97056">
        <ele>2361</ele>
        <time>2022-08-28T04:23:03Z</time>
      </trkpt>
      <trkpt lat="46.03929" lon="6.97056">
        <ele>2361</ele>
        <time>2022-08-28T04:23:05Z</time>
      </trkpt>
      <trkpt lat="46.03928" lon="6.97055">
        <ele>2361</ele>
        <time>2022-08-28T04:23:06Z</time>
      </trkpt>
      <trkpt lat="46.03926" lon="6.97055">
        <ele>2361</ele>
        <time>2022-08-28T04:23:07Z</time>
      </trkpt>
      <trkpt lat="46.03924" lon="6.97054">
        <ele>2361</ele>
        <time>2022-08-28T04:23:08Z</time>
      </trkpt>
      <trkpt lat="46.03921" lon="6.97053">
        <ele>2361</ele>
        <time>2022-08-28T04:23:10Z</time>
      </trkpt>
      <trkpt lat="46.0392" lon="6.97053">
        <ele>2360</ele>
        <time>2022-08-28T04:23:12Z</time>
      </trkpt>
      <trkpt lat="46.03919" lon="6.97053">
        <ele>2360</ele>
        <time>2022-08-28T04:23:13Z</time>
      </trkpt>
      <trkpt lat="46.03918" lon="6.97053">
        <ele>2359</ele>
        <time>2022-08-28T04:23:14Z</time>
      </trkpt>
      <trkpt lat="46.03917" lon="6.97052">
        <ele>2359</ele>
        <time>2022-08-28T04:23:15Z</time>
      </trkpt>
      <trkpt lat="46.03916" lon="6.97052">
        <ele>2359</ele>
        <time>2022-08-28T04:23:16Z</time>
      </trkpt>
      <trkpt lat="46.03911" lon="6.9705">
        <ele>2358</ele>
        <time>2022-08-28T04:23:19Z</time>
      </trkpt>
      <trkpt lat="46.03908" lon="6.9705">
        <ele>2358</ele>
        <time>2022-08-28T04:23:20Z</time>
      </trkpt>
      <trkpt lat="46.03905" lon="6.97049">
        <ele>2357</ele>
        <time>2022-08-28T04:23:22Z</time>
      </trkpt>
      <trkpt lat="46.03903" lon="6.97048">
        <ele>2357</ele>
        <time>2022-08-28T04:23:24Z</time>
      </trkpt>
      <trkpt lat="46.03901" lon="6.97046">
        <ele>2357</ele>
        <time>2022-08-28T04:23:25Z</time>
      </trkpt>
      <trkpt lat="46.03898" lon="6.97045">
        <ele>2356</ele>
        <time>2022-08-28T04:23:27Z</time>
      </trkpt>
      <trkpt lat="46.03895" lon="6.97045">
        <ele>2356</ele>
        <time>2022-08-28T04:23:29Z</time>
      </trkpt>
      <trkpt lat="46.03893" lon="6.97043">
        <ele>2356</ele>
        <time>2022-08-28T04:23:31Z</time>
      </trkpt>
      <trkpt lat="46.03893" lon="6.97039">
        <ele>2355</ele>
        <time>2022-08-28T04:23:33Z</time>
      </trkpt>
      <trkpt lat="46.03894" lon="6.97036">
        <ele>2355</ele>
        <time>2022-08-28T04:23:35Z</time>
      </trkpt>
      <trkpt lat="46.03895" lon="6.97032">
        <ele>2354</ele>
        <time>2022-08-28T04:23:37Z</time>
      </trkpt>
      <trkpt lat="46.03896" lon="6.97029">
        <ele>2352</ele>
        <time>2022-08-28T04:23:39Z</time>
      </trkpt>
      <trkpt lat="46.03897" lon="6.97024">
        <ele>2352</ele>
        <time>2022-08-28T04:23:41Z</time>
      </trkpt>
      <trkpt lat="46.03897" lon="6.97022">
        <ele>2352</ele>
        <time>2022-08-28T04:23:43Z</time>
      </trkpt>
      <trkpt lat="46.03897" lon="6.97021">
        <ele>2352</ele>
        <time>2022-08-28T04:23:44Z</time>
      </trkpt>
      <trkpt lat="46.03898" lon="6.9702">
        <ele>2352</ele>
        <time>2022-08-28T04:23:45Z</time>
      </trkpt>
      <trkpt lat="46.03899" lon="6.97016">
        <ele>2350</ele>
        <time>2022-08-28T04:23:47Z</time>
      </trkpt>
      <trkpt lat="46.039" lon="6.97013">
        <ele>2350</ele>
        <time>2022-08-28T04:23:48Z</time>
      </trkpt>
      <trkpt lat="46.03901" lon="6.9701">
        <ele>2350</ele>
        <time>2022-08-28T04:23:50Z</time>
      </trkpt>
      <trkpt lat="46.03901" lon="6.97009">
        <ele>2350</ele>
        <time>2022-08-28T04:23:51Z</time>
      </trkpt>
      <trkpt lat="46.03901" lon="6.97008">
        <ele>2350</ele>
        <time>2022-08-28T04:23:52Z</time>
      </trkpt>
      <trkpt lat="46.03902" lon="6.97007">
        <ele>2350</ele>
        <time>2022-08-28T04:23:53Z</time>
      </trkpt>
      <trkpt lat="46.03902" lon="6.97006">
        <ele>2350</ele>
        <time>2022-08-28T04:23:55Z</time>
      </trkpt>
      <trkpt lat="46.03902" lon="6.97005">
        <ele>2350</ele>
        <time>2022-08-28T04:23:56Z</time>
      </trkpt>
      <trkpt lat="46.03903" lon="6.97004">
        <ele>2349</ele>
        <time>2022-08-28T04:23:57Z</time>
      </trkpt>
      <trkpt lat="46.03903" lon="6.97">
        <ele>2348</ele>
        <time>2022-08-28T04:23:58Z</time>
      </trkpt>
      <trkpt lat="46.03903" lon="6.96996">
        <ele>2348</ele>
        <time>2022-08-28T04:24:00Z</time>
      </trkpt>
      <trkpt lat="46.03903" lon="6.96992">
        <ele>2348</ele>
        <time>2022-08-28T04:24:02Z</time>
      </trkpt>
      <trkpt lat="46.03903" lon="6.96989">
        <ele>2348</ele>
        <time>2022-08-28T04:24:04Z</time>
      </trkpt>
      <trkpt lat="46.03903" lon="6.96985">
        <ele>2347</ele>
        <time>2022-08-28T04:24:07Z</time>
      </trkpt>
      <trkpt lat="46.03904" lon="6.96981">
        <ele>2346</ele>
        <time>2022-08-28T04:24:08Z</time>
      </trkpt>
      <trkpt lat="46.03904" lon="6.96977">
        <ele>2346</ele>
        <time>2022-08-28T04:24:10Z</time>
      </trkpt>
      <trkpt lat="46.03905" lon="6.96973">
        <ele>2345</ele>
        <time>2022-08-28T04:24:12Z</time>
      </trkpt>
      <trkpt lat="46.03906" lon="6.96969">
        <ele>2345</ele>
        <time>2022-08-28T04:24:14Z</time>
      </trkpt>
      <trkpt lat="46.03907" lon="6.96966">
        <ele>2345</ele>
        <time>2022-08-28T04:24:16Z</time>
      </trkpt>
      <trkpt lat="46.03909" lon="6.96962">
        <ele>2345</ele>
        <time>2022-08-28T04:24:18Z</time>
      </trkpt>
      <trkpt lat="46.0391" lon="6.96959">
        <ele>2345</ele>
        <time>2022-08-28T04:24:21Z</time>
      </trkpt>
      <trkpt lat="46.0391" lon="6.96956">
        <ele>2345</ele>
        <time>2022-08-28T04:24:22Z</time>
      </trkpt>
      <trkpt lat="46.0391" lon="6.96952">
        <ele>2345</ele>
        <time>2022-08-28T04:24:24Z</time>
      </trkpt>
      <trkpt lat="46.03911" lon="6.96949">
        <ele>2344</ele>
        <time>2022-08-28T04:24:26Z</time>
      </trkpt>
      <trkpt lat="46.03912" lon="6.96946">
        <ele>2344</ele>
        <time>2022-08-28T04:24:28Z</time>
      </trkpt>
      <trkpt lat="46.03913" lon="6.96942">
        <ele>2344</ele>
        <time>2022-08-28T04:24:31Z</time>
      </trkpt>
      <trkpt lat="46.03916" lon="6.96939">
        <ele>2344</ele>
        <time>2022-08-28T04:24:32Z</time>
      </trkpt>
      <trkpt lat="46.03919" lon="6.96937">
        <ele>2344</ele>
        <time>2022-08-28T04:24:34Z</time>
      </trkpt>
      <trkpt lat="46.03922" lon="6.96937">
        <ele>2343</ele>
        <time>2022-08-28T04:24:36Z</time>
      </trkpt>
      <trkpt lat="46.03924" lon="6.96937">
        <ele>2343</ele>
        <time>2022-08-28T04:24:38Z</time>
      </trkpt>
      <trkpt lat="46.03927" lon="6.96938">
        <ele>2343</ele>
        <time>2022-08-28T04:24:40Z</time>
      </trkpt>
      <trkpt lat="46.03929" lon="6.96938">
        <ele>2343</ele>
        <time>2022-08-28T04:24:42Z</time>
      </trkpt>
      <trkpt lat="46.03932" lon="6.96939">
        <ele>2345</ele>
        <time>2022-08-28T04:24:44Z</time>
      </trkpt>
      <trkpt lat="46.03935" lon="6.96939">
        <ele>2345</ele>
        <time>2022-08-28T04:24:46Z</time>
      </trkpt>
      <trkpt lat="46.03937" lon="6.9694">
        <ele>2345</ele>
        <time>2022-08-28T04:24:48Z</time>
      </trkpt>
      <trkpt lat="46.03939" lon="6.9694">
        <ele>2345</ele>
        <time>2022-08-28T04:24:50Z</time>
      </trkpt>
      <trkpt lat="46.03942" lon="6.9694">
        <ele>2345</ele>
        <time>2022-08-28T04:24:52Z</time>
      </trkpt>
      <trkpt lat="46.03944" lon="6.96938">
        <ele>2345</ele>
        <time>2022-08-28T04:24:54Z</time>
      </trkpt>
      <trkpt lat="46.03946" lon="6.96936">
        <ele>2345</ele>
        <time>2022-08-28T04:24:56Z</time>
      </trkpt>
      <trkpt lat="46.03949" lon="6.96933">
        <ele>2345</ele>
        <time>2022-08-28T04:24:59Z</time>
      </trkpt>
      <trkpt lat="46.03951" lon="6.9693">
        <ele>2345</ele>
        <time>2022-08-28T04:25:00Z</time>
      </trkpt>
      <trkpt lat="46.03953" lon="6.96926">
        <ele>2344</ele>
        <time>2022-08-28T04:25:03Z</time>
      </trkpt>
      <trkpt lat="46.03955" lon="6.96922">
        <ele>2344</ele>
        <time>2022-08-28T04:25:04Z</time>
      </trkpt>
      <trkpt lat="46.03956" lon="6.96918">
        <ele>2344</ele>
        <time>2022-08-28T04:25:06Z</time>
      </trkpt>
      <trkpt lat="46.03959" lon="6.96914">
        <ele>2344</ele>
        <time>2022-08-28T04:25:08Z</time>
      </trkpt>
      <trkpt lat="46.03961" lon="6.96912">
        <ele>2344</ele>
        <time>2022-08-28T04:25:10Z</time>
      </trkpt>
      <trkpt lat="46.03964" lon="6.9691">
        <ele>2343</ele>
        <time>2022-08-28T04:25:12Z</time>
      </trkpt>
      <trkpt lat="46.03967" lon="6.96909">
        <ele>2342</ele>
        <time>2022-08-28T04:25:14Z</time>
      </trkpt>
      <trkpt lat="46.0397" lon="6.96908">
        <ele>2342</ele>
        <time>2022-08-28T04:25:16Z</time>
      </trkpt>
      <trkpt lat="46.03973" lon="6.96909">
        <ele>2342</ele>
        <time>2022-08-28T04:25:19Z</time>
      </trkpt>
      <trkpt lat="46.03976" lon="6.96909">
        <ele>2342</ele>
        <time>2022-08-28T04:25:20Z</time>
      </trkpt>
      <trkpt lat="46.03978" lon="6.96908">
        <ele>2341</ele>
        <time>2022-08-28T04:25:22Z</time>
      </trkpt>
      <trkpt lat="46.03979" lon="6.96906">
        <ele>2341</ele>
        <time>2022-08-28T04:25:24Z</time>
      </trkpt>
      <trkpt lat="46.03979" lon="6.969">
        <ele>2341</ele>
        <time>2022-08-28T04:25:26Z</time>
      </trkpt>
      <trkpt lat="46.03979" lon="6.96899">
        <ele>2341</ele>
        <time>2022-08-28T04:25:27Z</time>
      </trkpt>
      <trkpt lat="46.0398" lon="6.96897">
        <ele>2341</ele>
        <time>2022-08-28T04:25:28Z</time>
      </trkpt>
      <trkpt lat="46.0398" lon="6.96895">
        <ele>2341</ele>
        <time>2022-08-28T04:25:29Z</time>
      </trkpt>
      <trkpt lat="46.0398" lon="6.96894">
        <ele>2341</ele>
        <time>2022-08-28T04:25:30Z</time>
      </trkpt>
      <trkpt lat="46.0398" lon="6.9689">
        <ele>2340</ele>
        <time>2022-08-28T04:25:32Z</time>
      </trkpt>
      <trkpt lat="46.0398" lon="6.96886">
        <ele>2340</ele>
        <time>2022-08-28T04:25:34Z</time>
      </trkpt>
      <trkpt lat="46.0398" lon="6.96883">
        <ele>2340</ele>
        <time>2022-08-28T04:25:36Z</time>
      </trkpt>
      <trkpt lat="46.0398" lon="6.96879">
        <ele>2339</ele>
        <time>2022-08-28T04:25:38Z</time>
      </trkpt>
      <trkpt lat="46.0398" lon="6.96875">
        <ele>2338</ele>
        <time>2022-08-28T04:25:41Z</time>
      </trkpt>
      <trkpt lat="46.0398" lon="6.96872">
        <ele>2338</ele>
        <time>2022-08-28T04:25:42Z</time>
      </trkpt>
      <trkpt lat="46.03979" lon="6.96869">
        <ele>2337</ele>
        <time>2022-08-28T04:25:44Z</time>
      </trkpt>
      <trkpt lat="46.03978" lon="6.96865">
        <ele>2337</ele>
        <time>2022-08-28T04:25:46Z</time>
      </trkpt>
      <trkpt lat="46.03978" lon="6.96862">
        <ele>2337</ele>
        <time>2022-08-28T04:25:49Z</time>
      </trkpt>
      <trkpt lat="46.03976" lon="6.96859">
        <ele>2336</ele>
        <time>2022-08-28T04:25:50Z</time>
      </trkpt>
      <trkpt lat="46.03975" lon="6.96857">
        <ele>2335</ele>
        <time>2022-08-28T04:25:51Z</time>
      </trkpt>
      <trkpt lat="46.03974" lon="6.96855">
        <ele>2335</ele>
        <time>2022-08-28T04:25:52Z</time>
      </trkpt>
      <trkpt lat="46.03973" lon="6.96853">
        <ele>2335</ele>
        <time>2022-08-28T04:25:53Z</time>
      </trkpt>
      <trkpt lat="46.0397" lon="6.9685">
        <ele>2335</ele>
        <time>2022-08-28T04:25:55Z</time>
      </trkpt>
      <trkpt lat="46.03968" lon="6.96849">
        <ele>2335</ele>
        <time>2022-08-28T04:25:57Z</time>
      </trkpt>
      <trkpt lat="46.03965" lon="6.96846">
        <ele>2335</ele>
        <time>2022-08-28T04:25:59Z</time>
      </trkpt>
      <trkpt lat="46.03963" lon="6.96844">
        <ele>2335</ele>
        <time>2022-08-28T04:26:01Z</time>
      </trkpt>
      <trkpt lat="46.03961" lon="6.96843">
        <ele>2335</ele>
        <time>2022-08-28T04:26:03Z</time>
      </trkpt>
      <trkpt lat="46.03959" lon="6.96842">
        <ele>2335</ele>
        <time>2022-08-28T04:26:06Z</time>
      </trkpt>
      <trkpt lat="46.03956" lon="6.9684">
        <ele>2335</ele>
        <time>2022-08-28T04:26:07Z</time>
      </trkpt>
      <trkpt lat="46.03954" lon="6.96838">
        <ele>2335</ele>
        <time>2022-08-28T04:26:09Z</time>
      </trkpt>
      <trkpt lat="46.03953" lon="6.96836">
        <ele>2335</ele>
        <time>2022-08-28T04:26:11Z</time>
      </trkpt>
      <trkpt lat="46.03951" lon="6.96835">
        <ele>2334</ele>
        <time>2022-08-28T04:26:13Z</time>
      </trkpt>
      <trkpt lat="46.03949" lon="6.96833">
        <ele>2333</ele>
        <time>2022-08-28T04:26:16Z</time>
      </trkpt>
      <trkpt lat="46.03947" lon="6.9683">
        <ele>2332</ele>
        <time>2022-08-28T04:26:18Z</time>
      </trkpt>
      <trkpt lat="46.03945" lon="6.96827">
        <ele>2331</ele>
        <time>2022-08-28T04:26:20Z</time>
      </trkpt>
      <trkpt lat="46.03944" lon="6.96823">
        <ele>2331</ele>
        <time>2022-08-28T04:26:22Z</time>
      </trkpt>
      <trkpt lat="46.03942" lon="6.9682">
        <ele>2331</ele>
        <time>2022-08-28T04:26:24Z</time>
      </trkpt>
      <trkpt lat="46.03941" lon="6.96817">
        <ele>2331</ele>
        <time>2022-08-28T04:26:26Z</time>
      </trkpt>
      <trkpt lat="46.0394" lon="6.96814">
        <ele>2329</ele>
        <time>2022-08-28T04:26:29Z</time>
      </trkpt>
      <trkpt lat="46.03939" lon="6.96811">
        <ele>2328</ele>
        <time>2022-08-28T04:26:31Z</time>
      </trkpt>
      <trkpt lat="46.03938" lon="6.96808">
        <ele>2328</ele>
        <time>2022-08-28T04:26:33Z</time>
      </trkpt>
      <trkpt lat="46.03936" lon="6.96805">
        <ele>2328</ele>
        <time>2022-08-28T04:26:35Z</time>
      </trkpt>
      <trkpt lat="46.03936" lon="6.96802">
        <ele>2327</ele>
        <time>2022-08-28T04:26:37Z</time>
      </trkpt>
      <trkpt lat="46.03936" lon="6.968">
        <ele>2327</ele>
        <time>2022-08-28T04:26:38Z</time>
      </trkpt>
      <trkpt lat="46.03936" lon="6.96799">
        <ele>2326</ele>
        <time>2022-08-28T04:26:39Z</time>
      </trkpt>
      <trkpt lat="46.03936" lon="6.96797">
        <ele>2326</ele>
        <time>2022-08-28T04:26:40Z</time>
      </trkpt>
      <trkpt lat="46.03936" lon="6.96795">
        <ele>2326</ele>
        <time>2022-08-28T04:26:41Z</time>
      </trkpt>
      <trkpt lat="46.03935" lon="6.96792">
        <ele>2326</ele>
        <time>2022-08-28T04:26:44Z</time>
      </trkpt>
      <trkpt lat="46.03934" lon="6.96789">
        <ele>2326</ele>
        <time>2022-08-28T04:26:45Z</time>
      </trkpt>
      <trkpt lat="46.03932" lon="6.96786">
        <ele>2324</ele>
        <time>2022-08-28T04:26:47Z</time>
      </trkpt>
      <trkpt lat="46.03931" lon="6.96782">
        <ele>2323</ele>
        <time>2022-08-28T04:26:49Z</time>
      </trkpt>
      <trkpt lat="46.03931" lon="6.96779">
        <ele>2323</ele>
        <time>2022-08-28T04:26:51Z</time>
      </trkpt>
      <trkpt lat="46.0393" lon="6.96776">
        <ele>2323</ele>
        <time>2022-08-28T04:26:53Z</time>
      </trkpt>
      <trkpt lat="46.03929" lon="6.96773">
        <ele>2321</ele>
        <time>2022-08-28T04:26:55Z</time>
      </trkpt>
      <trkpt lat="46.03928" lon="6.96771">
        <ele>2321</ele>
        <time>2022-08-28T04:26:57Z</time>
      </trkpt>
      <trkpt lat="46.03927" lon="6.96768">
        <ele>2320</ele>
        <time>2022-08-28T04:26:59Z</time>
      </trkpt>
      <trkpt lat="46.03926" lon="6.96766">
        <ele>2320</ele>
        <time>2022-08-28T04:27:01Z</time>
      </trkpt>
      <trkpt lat="46.03924" lon="6.96764">
        <ele>2320</ele>
        <time>2022-08-28T04:27:03Z</time>
      </trkpt>
      <trkpt lat="46.03922" lon="6.96762">
        <ele>2319</ele>
        <time>2022-08-28T04:27:05Z</time>
      </trkpt>
      <trkpt lat="46.03921" lon="6.96759">
        <ele>2319</ele>
        <time>2022-08-28T04:27:07Z</time>
      </trkpt>
      <trkpt lat="46.0392" lon="6.96756">
        <ele>2317</ele>
        <time>2022-08-28T04:27:09Z</time>
      </trkpt>
      <trkpt lat="46.03921" lon="6.96753">
        <ele>2317</ele>
        <time>2022-08-28T04:27:11Z</time>
      </trkpt>
      <trkpt lat="46.03923" lon="6.96751">
        <ele>2316</ele>
        <time>2022-08-28T04:27:13Z</time>
      </trkpt>
      <trkpt lat="46.03926" lon="6.96751">
        <ele>2316</ele>
        <time>2022-08-28T04:27:16Z</time>
      </trkpt>
      <trkpt lat="46.03929" lon="6.96751">
        <ele>2316</ele>
        <time>2022-08-28T04:27:18Z</time>
      </trkpt>
      <trkpt lat="46.03931" lon="6.96752">
        <ele>2315</ele>
        <time>2022-08-28T04:27:19Z</time>
      </trkpt>
      <trkpt lat="46.03934" lon="6.96754">
        <ele>2315</ele>
        <time>2022-08-28T04:27:21Z</time>
      </trkpt>
      <trkpt lat="46.03936" lon="6.96756">
        <ele>2314</ele>
        <time>2022-08-28T04:27:23Z</time>
      </trkpt>
      <trkpt lat="46.03938" lon="6.96758">
        <ele>2313</ele>
        <time>2022-08-28T04:27:26Z</time>
      </trkpt>
      <trkpt lat="46.0394" lon="6.96759">
        <ele>2313</ele>
        <time>2022-08-28T04:27:27Z</time>
      </trkpt>
      <trkpt lat="46.03943" lon="6.96758">
        <ele>2313</ele>
        <time>2022-08-28T04:27:29Z</time>
      </trkpt>
      <trkpt lat="46.03946" lon="6.96757">
        <ele>2312</ele>
        <time>2022-08-28T04:27:31Z</time>
      </trkpt>
      <trkpt lat="46.03949" lon="6.96758">
        <ele>2312</ele>
        <time>2022-08-28T04:27:34Z</time>
      </trkpt>
      <trkpt lat="46.03951" lon="6.96758">
        <ele>2311</ele>
        <time>2022-08-28T04:27:36Z</time>
      </trkpt>
      <trkpt lat="46.03954" lon="6.9676">
        <ele>2311</ele>
        <time>2022-08-28T04:27:38Z</time>
      </trkpt>
      <trkpt lat="46.03956" lon="6.96761">
        <ele>2311</ele>
        <time>2022-08-28T04:27:39Z</time>
      </trkpt>
      <trkpt lat="46.03958" lon="6.9676">
        <ele>2311</ele>
        <time>2022-08-28T04:27:42Z</time>
      </trkpt>
      <trkpt lat="46.0396" lon="6.96761">
        <ele>2309</ele>
        <time>2022-08-28T04:27:45Z</time>
      </trkpt>
      <trkpt lat="46.03963" lon="6.96762">
        <ele>2309</ele>
        <time>2022-08-28T04:27:46Z</time>
      </trkpt>
      <trkpt lat="46.03966" lon="6.96763">
        <ele>2309</ele>
        <time>2022-08-28T04:27:48Z</time>
      </trkpt>
      <trkpt lat="46.03968" lon="6.96765">
        <ele>2309</ele>
        <time>2022-08-28T04:27:51Z</time>
      </trkpt>
      <trkpt lat="46.0397" lon="6.96766">
        <ele>2308</ele>
        <time>2022-08-28T04:27:52Z</time>
      </trkpt>
      <trkpt lat="46.03972" lon="6.96768">
        <ele>2308</ele>
        <time>2022-08-28T04:27:54Z</time>
      </trkpt>
      <trkpt lat="46.03974" lon="6.9677">
        <ele>2307</ele>
        <time>2022-08-28T04:27:57Z</time>
      </trkpt>
      <trkpt lat="46.03978" lon="6.96772">
        <ele>2306</ele>
        <time>2022-08-28T04:28:02Z</time>
      </trkpt>
      <trkpt lat="46.0398" lon="6.96772">
        <ele>2305</ele>
        <time>2022-08-28T04:28:03Z</time>
      </trkpt>
      <trkpt lat="46.03982" lon="6.96773">
        <ele>2304</ele>
        <time>2022-08-28T04:28:05Z</time>
      </trkpt>
      <trkpt lat="46.03984" lon="6.96773">
        <ele>2304</ele>
        <time>2022-08-28T04:28:07Z</time>
      </trkpt>
      <trkpt lat="46.03985" lon="6.96774">
        <ele>2303</ele>
        <time>2022-08-28T04:28:08Z</time>
      </trkpt>
      <trkpt lat="46.03986" lon="6.96774">
        <ele>2303</ele>
        <time>2022-08-28T04:28:09Z</time>
      </trkpt>
      <trkpt lat="46.03987" lon="6.96774">
        <ele>2303</ele>
        <time>2022-08-28T04:28:10Z</time>
      </trkpt>
      <trkpt lat="46.03988" lon="6.96775">
        <ele>2303</ele>
        <time>2022-08-28T04:28:11Z</time>
      </trkpt>
      <trkpt lat="46.0399" lon="6.96775">
        <ele>2303</ele>
        <time>2022-08-28T04:28:13Z</time>
      </trkpt>
      <trkpt lat="46.03992" lon="6.96775">
        <ele>2302</ele>
        <time>2022-08-28T04:28:15Z</time>
      </trkpt>
      <trkpt lat="46.03994" lon="6.96776">
        <ele>2301</ele>
        <time>2022-08-28T04:28:17Z</time>
      </trkpt>
      <trkpt lat="46.03996" lon="6.96776">
        <ele>2301</ele>
        <time>2022-08-28T04:28:19Z</time>
      </trkpt>
      <trkpt lat="46.03997" lon="6.96774">
        <ele>2301</ele>
        <time>2022-08-28T04:28:22Z</time>
      </trkpt>
      <trkpt lat="46.03995" lon="6.96771">
        <ele>2297</ele>
        <time>2022-08-28T04:28:24Z</time>
      </trkpt>
      <trkpt lat="46.03993" lon="6.96768">
        <ele>2297</ele>
        <time>2022-08-28T04:28:26Z</time>
      </trkpt>
      <trkpt lat="46.03989" lon="6.96765">
        <ele>2296</ele>
        <time>2022-08-28T04:28:28Z</time>
      </trkpt>
      <trkpt lat="46.03988" lon="6.96764">
        <ele>2296</ele>
        <time>2022-08-28T04:28:29Z</time>
      </trkpt>
      <trkpt lat="46.03987" lon="6.96763">
        <ele>2295</ele>
        <time>2022-08-28T04:28:30Z</time>
      </trkpt>
      <trkpt lat="46.03987" lon="6.96762">
        <ele>2295</ele>
        <time>2022-08-28T04:28:31Z</time>
      </trkpt>
      <trkpt lat="46.03986" lon="6.9676">
        <ele>2295</ele>
        <time>2022-08-28T04:28:33Z</time>
      </trkpt>
      <trkpt lat="46.03985" lon="6.96759">
        <ele>2295</ele>
        <time>2022-08-28T04:28:34Z</time>
      </trkpt>
      <trkpt lat="46.03984" lon="6.96758">
        <ele>2295</ele>
        <time>2022-08-28T04:28:35Z</time>
      </trkpt>
      <trkpt lat="46.03983" lon="6.96757">
        <ele>2294</ele>
        <time>2022-08-28T04:28:36Z</time>
      </trkpt>
      <trkpt lat="46.03982" lon="6.96756">
        <ele>2294</ele>
        <time>2022-08-28T04:28:37Z</time>
      </trkpt>
      <trkpt lat="46.0398" lon="6.96754">
        <ele>2294</ele>
        <time>2022-08-28T04:28:38Z</time>
      </trkpt>
      <trkpt lat="46.03979" lon="6.96753">
        <ele>2293</ele>
        <time>2022-08-28T04:28:40Z</time>
      </trkpt>
      <trkpt lat="46.03978" lon="6.96751">
        <ele>2293</ele>
        <time>2022-08-28T04:28:41Z</time>
      </trkpt>
      <trkpt lat="46.03976" lon="6.96749">
        <ele>2293</ele>
        <time>2022-08-28T04:28:44Z</time>
      </trkpt>
      <trkpt lat="46.03974" lon="6.96746">
        <ele>2292</ele>
        <time>2022-08-28T04:28:46Z</time>
      </trkpt>
      <trkpt lat="46.03971" lon="6.96743">
        <ele>2291</ele>
        <time>2022-08-28T04:28:49Z</time>
      </trkpt>
      <trkpt lat="46.03969" lon="6.96741">
        <ele>2291</ele>
        <time>2022-08-28T04:28:51Z</time>
      </trkpt>
      <trkpt lat="46.03967" lon="6.96739">
        <ele>2291</ele>
        <time>2022-08-28T04:28:53Z</time>
      </trkpt>
      <trkpt lat="46.03965" lon="6.96737">
        <ele>2290</ele>
        <time>2022-08-28T04:28:55Z</time>
      </trkpt>
      <trkpt lat="46.03964" lon="6.96736">
        <ele>2289</ele>
        <time>2022-08-28T04:28:57Z</time>
      </trkpt>
      <trkpt lat="46.03962" lon="6.96734">
        <ele>2289</ele>
        <time>2022-08-28T04:28:59Z</time>
      </trkpt>
      <trkpt lat="46.03961" lon="6.96732">
        <ele>2289</ele>
        <time>2022-08-28T04:29:00Z</time>
      </trkpt>
      <trkpt lat="46.0396" lon="6.9673">
        <ele>2289</ele>
        <time>2022-08-28T04:29:01Z</time>
      </trkpt>
      <trkpt lat="46.03959" lon="6.96727">
        <ele>2289</ele>
        <time>2022-08-28T04:29:04Z</time>
      </trkpt>
      <trkpt lat="46.03957" lon="6.96725">
        <ele>2289</ele>
        <time>2022-08-28T04:29:06Z</time>
      </trkpt>
      <trkpt lat="46.03956" lon="6.96723">
        <ele>2289</ele>
        <time>2022-08-28T04:29:08Z</time>
      </trkpt>
      <trkpt lat="46.03954" lon="6.96721">
        <ele>2288</ele>
        <time>2022-08-28T04:29:11Z</time>
      </trkpt>
      <trkpt lat="46.03952" lon="6.96719">
        <ele>2288</ele>
        <time>2022-08-28T04:29:12Z</time>
      </trkpt>
      <trkpt lat="46.03951" lon="6.96716">
        <ele>2287</ele>
        <time>2022-08-28T04:29:14Z</time>
      </trkpt>
      <trkpt lat="46.03949" lon="6.96714">
        <ele>2287</ele>
        <time>2022-08-28T04:29:16Z</time>
      </trkpt>
      <trkpt lat="46.03947" lon="6.96712">
        <ele>2286</ele>
        <time>2022-08-28T04:29:19Z</time>
      </trkpt>
      <trkpt lat="46.03944" lon="6.9671">
        <ele>2286</ele>
        <time>2022-08-28T04:29:20Z</time>
      </trkpt>
      <trkpt lat="46.03943" lon="6.96707">
        <ele>2285</ele>
        <time>2022-08-28T04:29:22Z</time>
      </trkpt>
      <trkpt lat="46.03942" lon="6.96705">
        <ele>2284</ele>
        <time>2022-08-28T04:29:24Z</time>
      </trkpt>
      <trkpt lat="46.0394" lon="6.96702">
        <ele>2284</ele>
        <time>2022-08-28T04:29:26Z</time>
      </trkpt>
      <trkpt lat="46.03937" lon="6.96702">
        <ele>2283</ele>
        <time>2022-08-28T04:29:29Z</time>
      </trkpt>
      <trkpt lat="46.03938" lon="6.96699">
        <ele>2283</ele>
        <time>2022-08-28T04:29:31Z</time>
      </trkpt>
      <trkpt lat="46.0394" lon="6.96697">
        <ele>2282</ele>
        <time>2022-08-28T04:29:33Z</time>
      </trkpt>
      <trkpt lat="46.03941" lon="6.96696">
        <ele>2282</ele>
        <time>2022-08-28T04:29:34Z</time>
      </trkpt>
      <trkpt lat="46.03943" lon="6.96695">
        <ele>2281</ele>
        <time>2022-08-28T04:29:36Z</time>
      </trkpt>
      <trkpt lat="46.03944" lon="6.96693">
        <ele>2281</ele>
        <time>2022-08-28T04:29:37Z</time>
      </trkpt>
      <trkpt lat="46.03946" lon="6.96694">
        <ele>2280</ele>
        <time>2022-08-28T04:29:39Z</time>
      </trkpt>
      <trkpt lat="46.03949" lon="6.96695">
        <ele>2280</ele>
        <time>2022-08-28T04:29:41Z</time>
      </trkpt>
      <trkpt lat="46.03952" lon="6.96697">
        <ele>2279</ele>
        <time>2022-08-28T04:29:44Z</time>
      </trkpt>
      <trkpt lat="46.03954" lon="6.96698">
        <ele>2279</ele>
        <time>2022-08-28T04:29:45Z</time>
      </trkpt>
      <trkpt lat="46.03957" lon="6.967">
        <ele>2278</ele>
        <time>2022-08-28T04:29:48Z</time>
      </trkpt>
      <trkpt lat="46.0396" lon="6.967">
        <ele>2278</ele>
        <time>2022-08-28T04:29:49Z</time>
      </trkpt>
      <trkpt lat="46.03962" lon="6.967">
        <ele>2277</ele>
        <time>2022-08-28T04:29:51Z</time>
      </trkpt>
      <trkpt lat="46.03964" lon="6.96701">
        <ele>2276</ele>
        <time>2022-08-28T04:29:53Z</time>
      </trkpt>
      <trkpt lat="46.03967" lon="6.96703">
        <ele>2275</ele>
        <time>2022-08-28T04:29:55Z</time>
      </trkpt>
      <trkpt lat="46.0397" lon="6.96704">
        <ele>2275</ele>
        <time>2022-08-28T04:29:57Z</time>
      </trkpt>
      <trkpt lat="46.03973" lon="6.96705">
        <ele>2272</ele>
        <time>2022-08-28T04:29:59Z</time>
      </trkpt>
      <trkpt lat="46.03975" lon="6.96706">
        <ele>2272</ele>
        <time>2022-08-28T04:30:01Z</time>
      </trkpt>
      <trkpt lat="46.03978" lon="6.96707">
        <ele>2272</ele>
        <time>2022-08-28T04:30:03Z</time>
      </trkpt>
      <trkpt lat="46.03981" lon="6.96707">
        <ele>2271</ele>
        <time>2022-08-28T04:30:05Z</time>
      </trkpt>
      <trkpt lat="46.03983" lon="6.96708">
        <ele>2271</ele>
        <time>2022-08-28T04:30:07Z</time>
      </trkpt>
      <trkpt lat="46.03985" lon="6.96709">
        <ele>2271</ele>
        <time>2022-08-28T04:30:10Z</time>
      </trkpt>
      <trkpt lat="46.03987" lon="6.9671">
        <ele>2271</ele>
        <time>2022-08-28T04:30:11Z</time>
      </trkpt>
      <trkpt lat="46.03989" lon="6.96711">
        <ele>2270</ele>
        <time>2022-08-28T04:30:15Z</time>
      </trkpt>
      <trkpt lat="46.03991" lon="6.96711">
        <ele>2268</ele>
        <time>2022-08-28T04:30:18Z</time>
      </trkpt>
      <trkpt lat="46.03992" lon="6.9671">
        <ele>2268</ele>
        <time>2022-08-28T04:30:19Z</time>
      </trkpt>
      <trkpt lat="46.03993" lon="6.9671">
        <ele>2268</ele>
        <time>2022-08-28T04:30:20Z</time>
      </trkpt>
      <trkpt lat="46.03995" lon="6.96709">
        <ele>2268</ele>
        <time>2022-08-28T04:30:22Z</time>
      </trkpt>
      <trkpt lat="46.03996" lon="6.96709">
        <ele>2268</ele>
        <time>2022-08-28T04:30:23Z</time>
      </trkpt>
      <trkpt lat="46.03997" lon="6.96708">
        <ele>2268</ele>
        <time>2022-08-28T04:30:24Z</time>
      </trkpt>
      <trkpt lat="46.03998" lon="6.96707">
        <ele>2268</ele>
        <time>2022-08-28T04:30:25Z</time>
      </trkpt>
      <trkpt lat="46.03999" lon="6.96707">
        <ele>2268</ele>
        <time>2022-08-28T04:30:26Z</time>
      </trkpt>
      <trkpt lat="46.04" lon="6.96706">
        <ele>2267</ele>
        <time>2022-08-28T04:30:27Z</time>
      </trkpt>
      <trkpt lat="46.04009" lon="6.96701">
        <ele>2265</ele>
        <time>2022-08-28T04:30:34Z</time>
      </trkpt>
      <trkpt lat="46.04012" lon="6.96699">
        <ele>2262</ele>
        <time>2022-08-28T04:30:38Z</time>
      </trkpt>
      <trkpt lat="46.04014" lon="6.96698">
        <ele>2262</ele>
        <time>2022-08-28T04:30:40Z</time>
      </trkpt>
      <trkpt lat="46.04015" lon="6.96697">
        <ele>2262</ele>
        <time>2022-08-28T04:30:43Z</time>
      </trkpt>
      <trkpt lat="46.04016" lon="6.96696">
        <ele>2261</ele>
        <time>2022-08-28T04:30:44Z</time>
      </trkpt>
      <trkpt lat="46.04017" lon="6.96695">
        <ele>2260</ele>
        <time>2022-08-28T04:30:45Z</time>
      </trkpt>
      <trkpt lat="46.04019" lon="6.96694">
        <ele>2260</ele>
        <time>2022-08-28T04:30:46Z</time>
      </trkpt>
      <trkpt lat="46.0402" lon="6.96693">
        <ele>2260</ele>
        <time>2022-08-28T04:30:48Z</time>
      </trkpt>
      <trkpt lat="46.04021" lon="6.96692">
        <ele>2259</ele>
        <time>2022-08-28T04:30:49Z</time>
      </trkpt>
      <trkpt lat="46.04022" lon="6.96691">
        <ele>2259</ele>
        <time>2022-08-28T04:30:50Z</time>
      </trkpt>
      <trkpt lat="46.04023" lon="6.9669">
        <ele>2259</ele>
        <time>2022-08-28T04:30:51Z</time>
      </trkpt>
      <trkpt lat="46.04024" lon="6.96689">
        <ele>2259</ele>
        <time>2022-08-28T04:30:52Z</time>
      </trkpt>
      <trkpt lat="46.04025" lon="6.96688">
        <ele>2259</ele>
        <time>2022-08-28T04:30:53Z</time>
      </trkpt>
      <trkpt lat="46.04027" lon="6.96686">
        <ele>2257</ele>
        <time>2022-08-28T04:30:55Z</time>
      </trkpt>
      <trkpt lat="46.04029" lon="6.96684">
        <ele>2257</ele>
        <time>2022-08-28T04:30:57Z</time>
      </trkpt>
      <trkpt lat="46.0403" lon="6.96682">
        <ele>2257</ele>
        <time>2022-08-28T04:31:00Z</time>
      </trkpt>
      <trkpt lat="46.04032" lon="6.9668">
        <ele>2257</ele>
        <time>2022-08-28T04:31:01Z</time>
      </trkpt>
      <trkpt lat="46.04033" lon="6.96679">
        <ele>2254</ele>
        <time>2022-08-28T04:31:04Z</time>
      </trkpt>
      <trkpt lat="46.04036" lon="6.96677">
        <ele>2253</ele>
        <time>2022-08-28T04:31:07Z</time>
      </trkpt>
      <trkpt lat="46.04037" lon="6.96674">
        <ele>2253</ele>
        <time>2022-08-28T04:31:10Z</time>
      </trkpt>
      <trkpt lat="46.04039" lon="6.96672">
        <ele>2252</ele>
        <time>2022-08-28T04:31:13Z</time>
      </trkpt>
      <trkpt lat="46.0404" lon="6.96669">
        <ele>2251</ele>
        <time>2022-08-28T04:31:15Z</time>
      </trkpt>
      <trkpt lat="46.04039" lon="6.96668">
        <ele>2251</ele>
        <time>2022-08-28T04:31:17Z</time>
      </trkpt>
      <trkpt lat="46.04039" lon="6.96666">
        <ele>2251</ele>
        <time>2022-08-28T04:31:19Z</time>
      </trkpt>
      <trkpt lat="46.04038" lon="6.96664">
        <ele>2250</ele>
        <time>2022-08-28T04:31:20Z</time>
      </trkpt>
      <trkpt lat="46.04036" lon="6.96663">
        <ele>2250</ele>
        <time>2022-08-28T04:31:22Z</time>
      </trkpt>
      <trkpt lat="46.04034" lon="6.96661">
        <ele>2249</ele>
        <time>2022-08-28T04:31:24Z</time>
      </trkpt>
      <trkpt lat="46.04033" lon="6.96658">
        <ele>2248</ele>
        <time>2022-08-28T04:31:26Z</time>
      </trkpt>
      <trkpt lat="46.04031" lon="6.96656">
        <ele>2248</ele>
        <time>2022-08-28T04:31:28Z</time>
      </trkpt>
      <trkpt lat="46.04029" lon="6.96653">
        <ele>2248</ele>
        <time>2022-08-28T04:31:30Z</time>
      </trkpt>
      <trkpt lat="46.04025" lon="6.96649">
        <ele>2246</ele>
        <time>2022-08-28T04:31:33Z</time>
      </trkpt>
      <trkpt lat="46.04024" lon="6.96648">
        <ele>2246</ele>
        <time>2022-08-28T04:31:34Z</time>
      </trkpt>
      <trkpt lat="46.04021" lon="6.96647">
        <ele>2245</ele>
        <time>2022-08-28T04:31:36Z</time>
      </trkpt>
      <trkpt lat="46.04018" lon="6.96645">
        <ele>2244</ele>
        <time>2022-08-28T04:31:39Z</time>
      </trkpt>
      <trkpt lat="46.04016" lon="6.96643">
        <ele>2244</ele>
        <time>2022-08-28T04:31:40Z</time>
      </trkpt>
      <trkpt lat="46.04014" lon="6.96641">
        <ele>2244</ele>
        <time>2022-08-28T04:31:41Z</time>
      </trkpt>
      <trkpt lat="46.04013" lon="6.96639">
        <ele>2243</ele>
        <time>2022-08-28T04:31:43Z</time>
      </trkpt>
      <trkpt lat="46.04012" lon="6.96637">
        <ele>2243</ele>
        <time>2022-08-28T04:31:45Z</time>
      </trkpt>
      <trkpt lat="46.04012" lon="6.96635">
        <ele>2243</ele>
        <time>2022-08-28T04:31:46Z</time>
      </trkpt>
      <trkpt lat="46.04012" lon="6.96634">
        <ele>2243</ele>
        <time>2022-08-28T04:31:47Z</time>
      </trkpt>
      <trkpt lat="46.04012" lon="6.96632">
        <ele>2242</ele>
        <time>2022-08-28T04:31:49Z</time>
      </trkpt>
      <trkpt lat="46.04011" lon="6.9663">
        <ele>2242</ele>
        <time>2022-08-28T04:31:50Z</time>
      </trkpt>
      <trkpt lat="46.04011" lon="6.96629">
        <ele>2242</ele>
        <time>2022-08-28T04:31:52Z</time>
      </trkpt>
      <trkpt lat="46.04011" lon="6.96627">
        <ele>2242</ele>
        <time>2022-08-28T04:31:53Z</time>
      </trkpt>
      <trkpt lat="46.04011" lon="6.96625">
        <ele>2241</ele>
        <time>2022-08-28T04:31:54Z</time>
      </trkpt>
      <trkpt lat="46.04011" lon="6.96624">
        <ele>2241</ele>
        <time>2022-08-28T04:31:55Z</time>
      </trkpt>
      <trkpt lat="46.04012" lon="6.96622">
        <ele>2241</ele>
        <time>2022-08-28T04:31:56Z</time>
      </trkpt>
      <trkpt lat="46.04012" lon="6.96621">
        <ele>2240</ele>
        <time>2022-08-28T04:31:57Z</time>
      </trkpt>
      <trkpt lat="46.04012" lon="6.96619">
        <ele>2239</ele>
        <time>2022-08-28T04:31:59Z</time>
      </trkpt>
      <trkpt lat="46.04013" lon="6.96618">
        <ele>2239</ele>
        <time>2022-08-28T04:32:00Z</time>
      </trkpt>
      <trkpt lat="46.04013" lon="6.96616">
        <ele>2239</ele>
        <time>2022-08-28T04:32:01Z</time>
      </trkpt>
      <trkpt lat="46.04013" lon="6.96615">
        <ele>2238</ele>
        <time>2022-08-28T04:32:02Z</time>
      </trkpt>
      <trkpt lat="46.04014" lon="6.96613">
        <ele>2238</ele>
        <time>2022-08-28T04:32:03Z</time>
      </trkpt>
      <trkpt lat="46.04014" lon="6.96612">
        <ele>2238</ele>
        <time>2022-08-28T04:32:04Z</time>
      </trkpt>
      <trkpt lat="46.04014" lon="6.9661">
        <ele>2238</ele>
        <time>2022-08-28T04:32:05Z</time>
      </trkpt>
      <trkpt lat="46.04015" lon="6.96608">
        <ele>2237</ele>
        <time>2022-08-28T04:32:06Z</time>
      </trkpt>
      <trkpt lat="46.04015" lon="6.96607">
        <ele>2237</ele>
        <time>2022-08-28T04:32:07Z</time>
      </trkpt>
      <trkpt lat="46.04015" lon="6.96605">
        <ele>2237</ele>
        <time>2022-08-28T04:32:09Z</time>
      </trkpt>
      <trkpt lat="46.04015" lon="6.96603">
        <ele>2236</ele>
        <time>2022-08-28T04:32:11Z</time>
      </trkpt>
      <trkpt lat="46.04016" lon="6.96601">
        <ele>2236</ele>
        <time>2022-08-28T04:32:12Z</time>
      </trkpt>
      <trkpt lat="46.04016" lon="6.96599">
        <ele>2236</ele>
        <time>2022-08-28T04:32:13Z</time>
      </trkpt>
      <trkpt lat="46.04016" lon="6.96597">
        <ele>2236</ele>
        <time>2022-08-28T04:32:14Z</time>
      </trkpt>
      <trkpt lat="46.04016" lon="6.96596">
        <ele>2235</ele>
        <time>2022-08-28T04:32:16Z</time>
      </trkpt>
      <trkpt lat="46.04017" lon="6.96594">
        <ele>2235</ele>
        <time>2022-08-28T04:32:17Z</time>
      </trkpt>
      <trkpt lat="46.04017" lon="6.96593">
        <ele>2235</ele>
        <time>2022-08-28T04:32:18Z</time>
      </trkpt>
      <trkpt lat="46.04018" lon="6.96591">
        <ele>2235</ele>
        <time>2022-08-28T04:32:19Z</time>
      </trkpt>
      <trkpt lat="46.04018" lon="6.9659">
        <ele>2234</ele>
        <time>2022-08-28T04:32:21Z</time>
      </trkpt>
      <trkpt lat="46.04019" lon="6.96588">
        <ele>2233</ele>
        <time>2022-08-28T04:32:22Z</time>
      </trkpt>
      <trkpt lat="46.04019" lon="6.96587">
        <ele>2233</ele>
        <time>2022-08-28T04:32:23Z</time>
      </trkpt>
      <trkpt lat="46.04019" lon="6.96585">
        <ele>2232</ele>
        <time>2022-08-28T04:32:24Z</time>
      </trkpt>
      <trkpt lat="46.04019" lon="6.96584">
        <ele>2232</ele>
        <time>2022-08-28T04:32:25Z</time>
      </trkpt>
      <trkpt lat="46.04019" lon="6.96582">
        <ele>2232</ele>
        <time>2022-08-28T04:32:27Z</time>
      </trkpt>
      <trkpt lat="46.0402" lon="6.96581">
        <ele>2232</ele>
        <time>2022-08-28T04:32:28Z</time>
      </trkpt>
      <trkpt lat="46.0402" lon="6.96579">
        <ele>2232</ele>
        <time>2022-08-28T04:32:29Z</time>
      </trkpt>
      <trkpt lat="46.0402" lon="6.96578">
        <ele>2232</ele>
        <time>2022-08-28T04:32:30Z</time>
      </trkpt>
      <trkpt lat="46.0402" lon="6.96576">
        <ele>2232</ele>
        <time>2022-08-28T04:32:31Z</time>
      </trkpt>
      <trkpt lat="46.0402" lon="6.96575">
        <ele>2232</ele>
        <time>2022-08-28T04:32:32Z</time>
      </trkpt>
      <trkpt lat="46.04022" lon="6.96571">
        <ele>2231</ele>
        <time>2022-08-28T04:32:34Z</time>
      </trkpt>
      <trkpt lat="46.04023" lon="6.96567">
        <ele>2231</ele>
        <time>2022-08-28T04:32:36Z</time>
      </trkpt>
      <trkpt lat="46.04024" lon="6.96564">
        <ele>2231</ele>
        <time>2022-08-28T04:32:38Z</time>
      </trkpt>
      <trkpt lat="46.04024" lon="6.96561">
        <ele>2231</ele>
        <time>2022-08-28T04:32:40Z</time>
      </trkpt>
      <trkpt lat="46.04024" lon="6.96557">
        <ele>2230</ele>
        <time>2022-08-28T04:32:42Z</time>
      </trkpt>
      <trkpt lat="46.04025" lon="6.96553">
        <ele>2229</ele>
        <time>2022-08-28T04:32:44Z</time>
      </trkpt>
      <trkpt lat="46.04027" lon="6.96549">
        <ele>2229</ele>
        <time>2022-08-28T04:32:46Z</time>
      </trkpt>
      <trkpt lat="46.04028" lon="6.96546">
        <ele>2229</ele>
        <time>2022-08-28T04:32:48Z</time>
      </trkpt>
      <trkpt lat="46.04031" lon="6.96539">
        <ele>2228</ele>
        <time>2022-08-28T04:32:52Z</time>
      </trkpt>
      <trkpt lat="46.04033" lon="6.96535">
        <ele>2228</ele>
        <time>2022-08-28T04:32:55Z</time>
      </trkpt>
      <trkpt lat="46.04035" lon="6.96533">
        <ele>2228</ele>
        <time>2022-08-28T04:32:58Z</time>
      </trkpt>
      <trkpt lat="46.04037" lon="6.96531">
        <ele>2229</ele>
        <time>2022-08-28T04:33:00Z</time>
      </trkpt>
      <trkpt lat="46.04039" lon="6.96531">
        <ele>2229</ele>
        <time>2022-08-28T04:33:02Z</time>
      </trkpt>
      <trkpt lat="46.04042" lon="6.9653">
        <ele>2229</ele>
        <time>2022-08-28T04:33:04Z</time>
      </trkpt>
      <trkpt lat="46.04044" lon="6.9653">
        <ele>2229</ele>
        <time>2022-08-28T04:33:06Z</time>
      </trkpt>
      <trkpt lat="46.04046" lon="6.9653">
        <ele>2229</ele>
        <time>2022-08-28T04:33:08Z</time>
      </trkpt>
      <trkpt lat="46.04049" lon="6.96529">
        <ele>2230</ele>
        <time>2022-08-28T04:33:10Z</time>
      </trkpt>
      <trkpt lat="46.04052" lon="6.96529">
        <ele>2230</ele>
        <time>2022-08-28T04:33:13Z</time>
      </trkpt>
      <trkpt lat="46.04055" lon="6.96529">
        <ele>2230</ele>
        <time>2022-08-28T04:33:15Z</time>
      </trkpt>
      <trkpt lat="46.04058" lon="6.96529">
        <ele>2229</ele>
        <time>2022-08-28T04:33:16Z</time>
      </trkpt>
      <trkpt lat="46.04061" lon="6.9653">
        <ele>2229</ele>
        <time>2022-08-28T04:33:18Z</time>
      </trkpt>
      <trkpt lat="46.04064" lon="6.96531">
        <ele>2229</ele>
        <time>2022-08-28T04:33:20Z</time>
      </trkpt>
      <trkpt lat="46.04066" lon="6.96531">
        <ele>2229</ele>
        <time>2022-08-28T04:33:22Z</time>
      </trkpt>
      <trkpt lat="46.04069" lon="6.96531">
        <ele>2229</ele>
        <time>2022-08-28T04:33:25Z</time>
      </trkpt>
      <trkpt lat="46.04072" lon="6.9653">
        <ele>2228</ele>
        <time>2022-08-28T04:33:26Z</time>
      </trkpt>
      <trkpt lat="46.04075" lon="6.9653">
        <ele>2227</ele>
        <time>2022-08-28T04:33:29Z</time>
      </trkpt>
      <trkpt lat="46.04077" lon="6.96529">
        <ele>2227</ele>
        <time>2022-08-28T04:33:30Z</time>
      </trkpt>
      <trkpt lat="46.04079" lon="6.96529">
        <ele>2227</ele>
        <time>2022-08-28T04:33:31Z</time>
      </trkpt>
      <trkpt lat="46.0408" lon="6.9653">
        <ele>2227</ele>
        <time>2022-08-28T04:33:32Z</time>
      </trkpt>
      <trkpt lat="46.04081" lon="6.9653">
        <ele>2227</ele>
        <time>2022-08-28T04:33:33Z</time>
      </trkpt>
      <trkpt lat="46.04083" lon="6.9653">
        <ele>2227</ele>
        <time>2022-08-28T04:33:34Z</time>
      </trkpt>
      <trkpt lat="46.04086" lon="6.96531">
        <ele>2226</ele>
        <time>2022-08-28T04:33:36Z</time>
      </trkpt>
      <trkpt lat="46.04087" lon="6.96532">
        <ele>2226</ele>
        <time>2022-08-28T04:33:37Z</time>
      </trkpt>
      <trkpt lat="46.04089" lon="6.96534">
        <ele>2226</ele>
        <time>2022-08-28T04:33:39Z</time>
      </trkpt>
      <trkpt lat="46.04091" lon="6.96536">
        <ele>2226</ele>
        <time>2022-08-28T04:33:40Z</time>
      </trkpt>
      <trkpt lat="46.04091" lon="6.96537">
        <ele>2226</ele>
        <time>2022-08-28T04:33:41Z</time>
      </trkpt>
      <trkpt lat="46.04092" lon="6.96538">
        <ele>2226</ele>
        <time>2022-08-28T04:33:42Z</time>
      </trkpt>
      <trkpt lat="46.04093" lon="6.96539">
        <ele>2226</ele>
        <time>2022-08-28T04:33:43Z</time>
      </trkpt>
      <trkpt lat="46.04094" lon="6.9654">
        <ele>2226</ele>
        <time>2022-08-28T04:33:44Z</time>
      </trkpt>
      <trkpt lat="46.04095" lon="6.96541">
        <ele>2225</ele>
        <time>2022-08-28T04:33:45Z</time>
      </trkpt>
      <trkpt lat="46.04096" lon="6.96542">
        <ele>2224</ele>
        <time>2022-08-28T04:33:46Z</time>
      </trkpt>
      <trkpt lat="46.04097" lon="6.96543">
        <ele>2224</ele>
        <time>2022-08-28T04:33:47Z</time>
      </trkpt>
      <trkpt lat="46.04098" lon="6.96544">
        <ele>2224</ele>
        <time>2022-08-28T04:33:48Z</time>
      </trkpt>
      <trkpt lat="46.041" lon="6.96545">
        <ele>2224</ele>
        <time>2022-08-28T04:33:51Z</time>
      </trkpt>
      <trkpt lat="46.04102" lon="6.96546">
        <ele>2224</ele>
        <time>2022-08-28T04:33:52Z</time>
      </trkpt>
      <trkpt lat="46.04104" lon="6.96546">
        <ele>2223</ele>
        <time>2022-08-28T04:33:54Z</time>
      </trkpt>
      <trkpt lat="46.04106" lon="6.96546">
        <ele>2222</ele>
        <time>2022-08-28T04:33:56Z</time>
      </trkpt>
      <trkpt lat="46.04107" lon="6.96547">
        <ele>2222</ele>
        <time>2022-08-28T04:33:58Z</time>
      </trkpt>
      <trkpt lat="46.04109" lon="6.96548">
        <ele>2220</ele>
        <time>2022-08-28T04:34:01Z</time>
      </trkpt>
      <trkpt lat="46.04109" lon="6.96545">
        <ele>2219</ele>
        <time>2022-08-28T04:34:06Z</time>
      </trkpt>
      <trkpt lat="46.04108" lon="6.96542">
        <ele>2218</ele>
        <time>2022-08-28T04:34:08Z</time>
      </trkpt>
      <trkpt lat="46.04106" lon="6.9654">
        <ele>2218</ele>
        <time>2022-08-28T04:34:10Z</time>
      </trkpt>
      <trkpt lat="46.04105" lon="6.96537">
        <ele>2217</ele>
        <time>2022-08-28T04:34:12Z</time>
      </trkpt>
      <trkpt lat="46.04104" lon="6.96534">
        <ele>2216</ele>
        <time>2022-08-28T04:34:15Z</time>
      </trkpt>
      <trkpt lat="46.04104" lon="6.96531">
        <ele>2216</ele>
        <time>2022-08-28T04:34:18Z</time>
      </trkpt>
      <trkpt lat="46.04104" lon="6.96528">
        <ele>2215</ele>
        <time>2022-08-28T04:34:22Z</time>
      </trkpt>
      <trkpt lat="46.04103" lon="6.96525">
        <ele>2213</ele>
        <time>2022-08-28T04:34:24Z</time>
      </trkpt>
      <trkpt lat="46.04103" lon="6.96523">
        <ele>2213</ele>
        <time>2022-08-28T04:34:26Z</time>
      </trkpt>
      <trkpt lat="46.04102" lon="6.9652">
        <ele>2213</ele>
        <time>2022-08-28T04:34:29Z</time>
      </trkpt>
      <trkpt lat="46.04101" lon="6.96518">
        <ele>2213</ele>
        <time>2022-08-28T04:34:31Z</time>
      </trkpt>
      <trkpt lat="46.041" lon="6.96515">
        <ele>2212</ele>
        <time>2022-08-28T04:34:32Z</time>
      </trkpt>
      <trkpt lat="46.04099" lon="6.96512">
        <ele>2210</ele>
        <time>2022-08-28T04:34:35Z</time>
      </trkpt>
      <trkpt lat="46.04099" lon="6.9651">
        <ele>2210</ele>
        <time>2022-08-28T04:34:36Z</time>
      </trkpt>
      <trkpt lat="46.04098" lon="6.96508">
        <ele>2210</ele>
        <time>2022-08-28T04:34:37Z</time>
      </trkpt>
      <trkpt lat="46.04097" lon="6.96506">
        <ele>2209</ele>
        <time>2022-08-28T04:34:38Z</time>
      </trkpt>
      <trkpt lat="46.04096" lon="6.96503">
        <ele>2209</ele>
        <time>2022-08-28T04:34:41Z</time>
      </trkpt>
      <trkpt lat="46.04096" lon="6.96501">
        <ele>2209</ele>
        <time>2022-08-28T04:34:42Z</time>
      </trkpt>
      <trkpt lat="46.04095" lon="6.96497">
        <ele>2208</ele>
        <time>2022-08-28T04:34:44Z</time>
      </trkpt>
      <trkpt lat="46.04094" lon="6.96494">
        <ele>2207</ele>
        <time>2022-08-28T04:34:46Z</time>
      </trkpt>
      <trkpt lat="46.04094" lon="6.96491">
        <ele>2207</ele>
        <time>2022-08-28T04:34:48Z</time>
      </trkpt>
      <trkpt lat="46.04093" lon="6.96489">
        <ele>2206</ele>
        <time>2022-08-28T04:34:50Z</time>
      </trkpt>
      <trkpt lat="46.04092" lon="6.96486">
        <ele>2206</ele>
        <time>2022-08-28T04:34:53Z</time>
      </trkpt>
      <trkpt lat="46.04093" lon="6.96483">
        <ele>2205</ele>
        <time>2022-08-28T04:34:56Z</time>
      </trkpt>
      <trkpt lat="46.04096" lon="6.96485">
        <ele>2204</ele>
        <time>2022-08-28T04:34:58Z</time>
      </trkpt>
      <trkpt lat="46.04097" lon="6.96487">
        <ele>2204</ele>
        <time>2022-08-28T04:35:00Z</time>
      </trkpt>
      <trkpt lat="46.041" lon="6.96489">
        <ele>2203</ele>
        <time>2022-08-28T04:35:03Z</time>
      </trkpt>
      <trkpt lat="46.04102" lon="6.9649">
        <ele>2202</ele>
        <time>2022-08-28T04:35:05Z</time>
      </trkpt>
      <trkpt lat="46.04104" lon="6.96492">
        <ele>2202</ele>
        <time>2022-08-28T04:35:07Z</time>
      </trkpt>
      <trkpt lat="46.04105" lon="6.96489">
        <ele>2201</ele>
        <time>2022-08-28T04:35:12Z</time>
      </trkpt>
      <trkpt lat="46.04105" lon="6.96486">
        <ele>2201</ele>
        <time>2022-08-28T04:35:13Z</time>
      </trkpt>
      <trkpt lat="46.04104" lon="6.96484">
        <ele>2200</ele>
        <time>2022-08-28T04:35:15Z</time>
      </trkpt>
      <trkpt lat="46.04103" lon="6.96481">
        <ele>2199</ele>
        <time>2022-08-28T04:35:17Z</time>
      </trkpt>
      <trkpt lat="46.04102" lon="6.96478">
        <ele>2198</ele>
        <time>2022-08-28T04:35:20Z</time>
      </trkpt>
      <trkpt lat="46.04102" lon="6.96475">
        <ele>2198</ele>
        <time>2022-08-28T04:35:22Z</time>
      </trkpt>
      <trkpt lat="46.04105" lon="6.96475">
        <ele>2198</ele>
        <time>2022-08-28T04:35:24Z</time>
      </trkpt>
      <trkpt lat="46.04107" lon="6.96476">
        <ele>2197</ele>
        <time>2022-08-28T04:35:26Z</time>
      </trkpt>
      <trkpt lat="46.04109" lon="6.96478">
        <ele>2196</ele>
        <time>2022-08-28T04:35:28Z</time>
      </trkpt>
      <trkpt lat="46.0411" lon="6.9648">
        <ele>2196</ele>
        <time>2022-08-28T04:35:29Z</time>
      </trkpt>
      <trkpt lat="46.04112" lon="6.96481">
        <ele>2194</ele>
        <time>2022-08-28T04:35:31Z</time>
      </trkpt>
      <trkpt lat="46.04114" lon="6.96483">
        <ele>2194</ele>
        <time>2022-08-28T04:35:33Z</time>
      </trkpt>
      <trkpt lat="46.04116" lon="6.96485">
        <ele>2194</ele>
        <time>2022-08-28T04:35:35Z</time>
      </trkpt>
      <trkpt lat="46.04118" lon="6.96487">
        <ele>2194</ele>
        <time>2022-08-28T04:35:38Z</time>
      </trkpt>
      <trkpt lat="46.0412" lon="6.96489">
        <ele>2193</ele>
        <time>2022-08-28T04:35:40Z</time>
      </trkpt>
      <trkpt lat="46.04121" lon="6.96489">
        <ele>2192</ele>
        <time>2022-08-28T04:35:42Z</time>
      </trkpt>
      <trkpt lat="46.04122" lon="6.96489">
        <ele>2192</ele>
        <time>2022-08-28T04:35:43Z</time>
      </trkpt>
      <trkpt lat="46.04122" lon="6.96489">
        <ele>2192</ele>
        <time>2022-08-28T04:35:44Z</time>
      </trkpt>
      <trkpt lat="46.04123" lon="6.96489">
        <ele>2192</ele>
        <time>2022-08-28T04:35:45Z</time>
      </trkpt>
      <trkpt lat="46.04124" lon="6.9649">
        <ele>2192</ele>
        <time>2022-08-28T04:35:46Z</time>
      </trkpt>
      <trkpt lat="46.04125" lon="6.9649">
        <ele>2191</ele>
        <time>2022-08-28T04:35:47Z</time>
      </trkpt>
      <trkpt lat="46.04127" lon="6.9649">
        <ele>2191</ele>
        <time>2022-08-28T04:35:48Z</time>
      </trkpt>
      <trkpt lat="46.0413" lon="6.96491">
        <ele>2189</ele>
        <time>2022-08-28T04:35:52Z</time>
      </trkpt>
      <trkpt lat="46.04132" lon="6.96492">
        <ele>2189</ele>
        <time>2022-08-28T04:35:53Z</time>
      </trkpt>
      <trkpt lat="46.04134" lon="6.96495">
        <ele>2189</ele>
        <time>2022-08-28T04:35:58Z</time>
      </trkpt>
      <trkpt lat="46.04132" lon="6.96491">
        <ele>2187</ele>
        <time>2022-08-28T04:36:04Z</time>
      </trkpt>
      <trkpt lat="46.0413" lon="6.96487">
        <ele>2186</ele>
        <time>2022-08-28T04:36:07Z</time>
      </trkpt>
      <trkpt lat="46.04129" lon="6.96484">
        <ele>2186</ele>
        <time>2022-08-28T04:36:09Z</time>
      </trkpt>
      <trkpt lat="46.04127" lon="6.96481">
        <ele>2186</ele>
        <time>2022-08-28T04:36:11Z</time>
      </trkpt>
      <trkpt lat="46.04127" lon="6.9648">
        <ele>2185</ele>
        <time>2022-08-28T04:36:12Z</time>
      </trkpt>
      <trkpt lat="46.04128" lon="6.96478">
        <ele>2184</ele>
        <time>2022-08-28T04:36:14Z</time>
      </trkpt>
      <trkpt lat="46.04128" lon="6.96476">
        <ele>2184</ele>
        <time>2022-08-28T04:36:16Z</time>
      </trkpt>
      <trkpt lat="46.04128" lon="6.96474">
        <ele>2184</ele>
        <time>2022-08-28T04:36:17Z</time>
      </trkpt>
      <trkpt lat="46.04128" lon="6.96473">
        <ele>2184</ele>
        <time>2022-08-28T04:36:18Z</time>
      </trkpt>
      <trkpt lat="46.04128" lon="6.96471">
        <ele>2183</ele>
        <time>2022-08-28T04:36:19Z</time>
      </trkpt>
      <trkpt lat="46.0413" lon="6.9647">
        <ele>2182</ele>
        <time>2022-08-28T04:36:22Z</time>
      </trkpt>
      <trkpt lat="46.04132" lon="6.96471">
        <ele>2181</ele>
        <time>2022-08-28T04:36:24Z</time>
      </trkpt>
      <trkpt lat="46.04134" lon="6.96472">
        <ele>2180</ele>
        <time>2022-08-28T04:36:26Z</time>
      </trkpt>
      <trkpt lat="46.04135" lon="6.96473">
        <ele>2180</ele>
        <time>2022-08-28T04:36:27Z</time>
      </trkpt>
      <trkpt lat="46.04136" lon="6.96474">
        <ele>2180</ele>
        <time>2022-08-28T04:36:29Z</time>
      </trkpt>
      <trkpt lat="46.04138" lon="6.96474">
        <ele>2179</ele>
        <time>2022-08-28T04:36:31Z</time>
      </trkpt>
      <trkpt lat="46.04139" lon="6.96475">
        <ele>2179</ele>
        <time>2022-08-28T04:36:32Z</time>
      </trkpt>
      <trkpt lat="46.04141" lon="6.96475">
        <ele>2178</ele>
        <time>2022-08-28T04:36:34Z</time>
      </trkpt>
      <trkpt lat="46.04143" lon="6.96478">
        <ele>2177</ele>
        <time>2022-08-28T04:36:37Z</time>
      </trkpt>
      <trkpt lat="46.04144" lon="6.9648">
        <ele>2177</ele>
        <time>2022-08-28T04:36:38Z</time>
      </trkpt>
      <trkpt lat="46.04146" lon="6.96482">
        <ele>2177</ele>
        <time>2022-08-28T04:36:40Z</time>
      </trkpt>
      <trkpt lat="46.04147" lon="6.96483">
        <ele>2176</ele>
        <time>2022-08-28T04:36:41Z</time>
      </trkpt>
      <trkpt lat="46.04149" lon="6.96484">
        <ele>2175</ele>
        <time>2022-08-28T04:36:42Z</time>
      </trkpt>
      <trkpt lat="46.0415" lon="6.96485">
        <ele>2175</ele>
        <time>2022-08-28T04:36:44Z</time>
      </trkpt>
      <trkpt lat="46.04151" lon="6.96486">
        <ele>2175</ele>
        <time>2022-08-28T04:36:45Z</time>
      </trkpt>
      <trkpt lat="46.04153" lon="6.96488">
        <ele>2174</ele>
        <time>2022-08-28T04:36:48Z</time>
      </trkpt>
      <trkpt lat="46.04156" lon="6.96492">
        <ele>2172</ele>
        <time>2022-08-28T04:36:50Z</time>
      </trkpt>
      <trkpt lat="46.04159" lon="6.96495">
        <ele>2172</ele>
        <time>2022-08-28T04:36:52Z</time>
      </trkpt>
      <trkpt lat="46.04161" lon="6.96497">
        <ele>2172</ele>
        <time>2022-08-28T04:36:54Z</time>
      </trkpt>
      <trkpt lat="46.04163" lon="6.96498">
        <ele>2171</ele>
        <time>2022-08-28T04:36:56Z</time>
      </trkpt>
      <trkpt lat="46.04165" lon="6.96499">
        <ele>2171</ele>
        <time>2022-08-28T04:36:58Z</time>
      </trkpt>
      <trkpt lat="46.04167" lon="6.96497">
        <ele>2171</ele>
        <time>2022-08-28T04:37:01Z</time>
      </trkpt>
      <trkpt lat="46.04168" lon="6.96496">
        <ele>2170</ele>
        <time>2022-08-28T04:37:02Z</time>
      </trkpt>
      <trkpt lat="46.04169" lon="6.96495">
        <ele>2170</ele>
        <time>2022-08-28T04:37:03Z</time>
      </trkpt>
      <trkpt lat="46.0417" lon="6.96495">
        <ele>2170</ele>
        <time>2022-08-28T04:37:04Z</time>
      </trkpt>
      <trkpt lat="46.0417" lon="6.96494">
        <ele>2170</ele>
        <time>2022-08-28T04:37:05Z</time>
      </trkpt>
      <trkpt lat="46.04172" lon="6.96493">
        <ele>2168</ele>
        <time>2022-08-28T04:37:07Z</time>
      </trkpt>
      <trkpt lat="46.04175" lon="6.96492">
        <ele>2167</ele>
        <time>2022-08-28T04:37:10Z</time>
      </trkpt>
      <trkpt lat="46.04176" lon="6.96492">
        <ele>2167</ele>
        <time>2022-08-28T04:37:11Z</time>
      </trkpt>
      <trkpt lat="46.04179" lon="6.96491">
        <ele>2167</ele>
        <time>2022-08-28T04:37:13Z</time>
      </trkpt>
      <trkpt lat="46.04181" lon="6.9649">
        <ele>2166</ele>
        <time>2022-08-28T04:37:15Z</time>
      </trkpt>
      <trkpt lat="46.04184" lon="6.9649">
        <ele>2166</ele>
        <time>2022-08-28T04:37:17Z</time>
      </trkpt>
      <trkpt lat="46.04186" lon="6.9649">
        <ele>2166</ele>
        <time>2022-08-28T04:37:19Z</time>
      </trkpt>
      <trkpt lat="46.04189" lon="6.9649">
        <ele>2165</ele>
        <time>2022-08-28T04:37:21Z</time>
      </trkpt>
      <trkpt lat="46.04191" lon="6.96491">
        <ele>2164</ele>
        <time>2022-08-28T04:37:23Z</time>
      </trkpt>
      <trkpt lat="46.04194" lon="6.96492">
        <ele>2164</ele>
        <time>2022-08-28T04:37:25Z</time>
      </trkpt>
      <trkpt lat="46.04196" lon="6.96493">
        <ele>2164</ele>
        <time>2022-08-28T04:37:28Z</time>
      </trkpt>
      <trkpt lat="46.04198" lon="6.96494">
        <ele>2163</ele>
        <time>2022-08-28T04:37:30Z</time>
      </trkpt>
      <trkpt lat="46.04198" lon="6.96492">
        <ele>2162</ele>
        <time>2022-08-28T04:37:35Z</time>
      </trkpt>
      <trkpt lat="46.04198" lon="6.96488">
        <ele>2161</ele>
        <time>2022-08-28T04:37:37Z</time>
      </trkpt>
      <trkpt lat="46.04197" lon="6.96486">
        <ele>2161</ele>
        <time>2022-08-28T04:37:41Z</time>
      </trkpt>
      <trkpt lat="46.04197" lon="6.96483">
        <ele>2160</ele>
        <time>2022-08-28T04:37:43Z</time>
      </trkpt>
      <trkpt lat="46.04199" lon="6.9648">
        <ele>2159</ele>
        <time>2022-08-28T04:37:46Z</time>
      </trkpt>
      <trkpt lat="46.04201" lon="6.9648">
        <ele>2159</ele>
        <time>2022-08-28T04:37:47Z</time>
      </trkpt>
      <trkpt lat="46.04204" lon="6.96481">
        <ele>2158</ele>
        <time>2022-08-28T04:37:50Z</time>
      </trkpt>
      <trkpt lat="46.04207" lon="6.9648">
        <ele>2158</ele>
        <time>2022-08-28T04:37:52Z</time>
      </trkpt>
      <trkpt lat="46.04208" lon="6.9648">
        <ele>2157</ele>
        <time>2022-08-28T04:37:53Z</time>
      </trkpt>
      <trkpt lat="46.0421" lon="6.96479">
        <ele>2157</ele>
        <time>2022-08-28T04:37:56Z</time>
      </trkpt>
      <trkpt lat="46.04213" lon="6.96478">
        <ele>2156</ele>
        <time>2022-08-28T04:37:58Z</time>
      </trkpt>
      <trkpt lat="46.04215" lon="6.96477">
        <ele>2156</ele>
        <time>2022-08-28T04:38:00Z</time>
      </trkpt>
      <trkpt lat="46.04216" lon="6.96477">
        <ele>2155</ele>
        <time>2022-08-28T04:38:01Z</time>
      </trkpt>
      <trkpt lat="46.04217" lon="6.96477">
        <ele>2155</ele>
        <time>2022-08-28T04:38:02Z</time>
      </trkpt>
      <trkpt lat="46.04219" lon="6.96477">
        <ele>2155</ele>
        <time>2022-08-28T04:38:03Z</time>
      </trkpt>
      <trkpt lat="46.04221" lon="6.96477">
        <ele>2154</ele>
        <time>2022-08-28T04:38:06Z</time>
      </trkpt>
      <trkpt lat="46.04231" lon="6.96478">
        <ele>2151</ele>
        <time>2022-08-28T04:38:15Z</time>
      </trkpt>
      <trkpt lat="46.04236" lon="6.96478">
        <ele>2150</ele>
        <time>2022-08-28T04:38:20Z</time>
      </trkpt>
      <trkpt lat="46.04238" lon="6.96479">
        <ele>2150</ele>
        <time>2022-08-28T04:38:22Z</time>
      </trkpt>
      <trkpt lat="46.04241" lon="6.9648">
        <ele>2148</ele>
        <time>2022-08-28T04:38:25Z</time>
      </trkpt>
      <trkpt lat="46.04243" lon="6.96482">
        <ele>2148</ele>
        <time>2022-08-28T04:38:26Z</time>
      </trkpt>
      <trkpt lat="46.0425" lon="6.96484">
        <ele>2146</ele>
        <time>2022-08-28T04:38:33Z</time>
      </trkpt>
      <trkpt lat="46.04252" lon="6.96484">
        <ele>2146</ele>
        <time>2022-08-28T04:38:34Z</time>
      </trkpt>
      <trkpt lat="46.04253" lon="6.96484">
        <ele>2145</ele>
        <time>2022-08-28T04:38:35Z</time>
      </trkpt>
      <trkpt lat="46.04254" lon="6.96484">
        <ele>2145</ele>
        <time>2022-08-28T04:38:36Z</time>
      </trkpt>
      <trkpt lat="46.04255" lon="6.96484">
        <ele>2144</ele>
        <time>2022-08-28T04:38:38Z</time>
      </trkpt>
      <trkpt lat="46.04256" lon="6.96484">
        <ele>2144</ele>
        <time>2022-08-28T04:38:39Z</time>
      </trkpt>
      <trkpt lat="46.04257" lon="6.96484">
        <ele>2144</ele>
        <time>2022-08-28T04:38:40Z</time>
      </trkpt>
      <trkpt lat="46.04258" lon="6.96484">
        <ele>2144</ele>
        <time>2022-08-28T04:38:41Z</time>
      </trkpt>
      <trkpt lat="46.04259" lon="6.96483">
        <ele>2144</ele>
        <time>2022-08-28T04:38:43Z</time>
      </trkpt>
      <trkpt lat="46.04261" lon="6.96483">
        <ele>2144</ele>
        <time>2022-08-28T04:38:44Z</time>
      </trkpt>
      <trkpt lat="46.04267" lon="6.96482">
        <ele>2142</ele>
        <time>2022-08-28T04:38:48Z</time>
      </trkpt>
      <trkpt lat="46.04269" lon="6.96482">
        <ele>2140</ele>
        <time>2022-08-28T04:38:51Z</time>
      </trkpt>
      <trkpt lat="46.04271" lon="6.96483">
        <ele>2140</ele>
        <time>2022-08-28T04:38:53Z</time>
      </trkpt>
      <trkpt lat="46.04273" lon="6.96483">
        <ele>2140</ele>
        <time>2022-08-28T04:38:55Z</time>
      </trkpt>
      <trkpt lat="46.04275" lon="6.96483">
        <ele>2140</ele>
        <time>2022-08-28T04:38:56Z</time>
      </trkpt>
      <trkpt lat="46.04277" lon="6.96483">
        <ele>2139</ele>
        <time>2022-08-28T04:38:58Z</time>
      </trkpt>
      <trkpt lat="46.04279" lon="6.96483">
        <ele>2138</ele>
        <time>2022-08-28T04:39:01Z</time>
      </trkpt>
      <trkpt lat="46.04279" lon="6.96482">
        <ele>2138</ele>
        <time>2022-08-28T04:39:03Z</time>
      </trkpt>
      <trkpt lat="46.0428" lon="6.96481">
        <ele>2138</ele>
        <time>2022-08-28T04:39:05Z</time>
      </trkpt>
      <trkpt lat="46.0428" lon="6.9648">
        <ele>2138</ele>
        <time>2022-08-28T04:39:07Z</time>
      </trkpt>
      <trkpt lat="46.04281" lon="6.9648">
        <ele>2136</ele>
        <time>2022-08-28T04:39:08Z</time>
      </trkpt>
      <trkpt lat="46.04281" lon="6.96479">
        <ele>2136</ele>
        <time>2022-08-28T04:39:09Z</time>
      </trkpt>
      <trkpt lat="46.04282" lon="6.96478">
        <ele>2136</ele>
        <time>2022-08-28T04:39:11Z</time>
      </trkpt>
      <trkpt lat="46.04282" lon="6.96477">
        <ele>2136</ele>
        <time>2022-08-28T04:39:12Z</time>
      </trkpt>
      <trkpt lat="46.04283" lon="6.96476">
        <ele>2135</ele>
        <time>2022-08-28T04:39:13Z</time>
      </trkpt>
      <trkpt lat="46.04283" lon="6.96476">
        <ele>2135</ele>
        <time>2022-08-28T04:39:14Z</time>
      </trkpt>
      <trkpt lat="46.04284" lon="6.96475">
        <ele>2135</ele>
        <time>2022-08-28T04:39:16Z</time>
      </trkpt>
      <trkpt lat="46.04284" lon="6.96474">
        <ele>2134</ele>
        <time>2022-08-28T04:39:17Z</time>
      </trkpt>
      <trkpt lat="46.04284" lon="6.96473">
        <ele>2134</ele>
        <time>2022-08-28T04:39:18Z</time>
      </trkpt>
      <trkpt lat="46.04285" lon="6.96473">
        <ele>2133</ele>
        <time>2022-08-28T04:39:19Z</time>
      </trkpt>
      <trkpt lat="46.04284" lon="6.96458">
        <ele>2130</ele>
        <time>2022-08-28T04:39:30Z</time>
      </trkpt>
      <trkpt lat="46.04284" lon="6.96456">
        <ele>2130</ele>
        <time>2022-08-28T04:39:31Z</time>
      </trkpt>
      <trkpt lat="46.04284" lon="6.96454">
        <ele>2130</ele>
        <time>2022-08-28T04:39:32Z</time>
      </trkpt>
      <trkpt lat="46.04284" lon="6.96452">
        <ele>2129</ele>
        <time>2022-08-28T04:39:33Z</time>
      </trkpt>
      <trkpt lat="46.04284" lon="6.9645">
        <ele>2129</ele>
        <time>2022-08-28T04:39:35Z</time>
      </trkpt>
      <trkpt lat="46.04285" lon="6.96448">
        <ele>2129</ele>
        <time>2022-08-28T04:39:36Z</time>
      </trkpt>
      <trkpt lat="46.04285" lon="6.96446">
        <ele>2129</ele>
        <time>2022-08-28T04:39:37Z</time>
      </trkpt>
      <trkpt lat="46.04285" lon="6.96444">
        <ele>2128</ele>
        <time>2022-08-28T04:39:38Z</time>
      </trkpt>
      <trkpt lat="46.04283" lon="6.9643">
        <ele>2128</ele>
        <time>2022-08-28T04:39:45Z</time>
      </trkpt>
      <trkpt lat="46.04274" lon="6.96425">
        <ele>2127</ele>
        <time>2022-08-28T04:39:59Z</time>
      </trkpt>
      <trkpt lat="46.04273" lon="6.96424">
        <ele>2127</ele>
        <time>2022-08-28T04:40:00Z</time>
      </trkpt>
      <trkpt lat="46.04271" lon="6.96424">
        <ele>2127</ele>
        <time>2022-08-28T04:40:01Z</time>
      </trkpt>
      <trkpt lat="46.0427" lon="6.96423">
        <ele>2127</ele>
        <time>2022-08-28T04:40:02Z</time>
      </trkpt>
      <trkpt lat="46.04268" lon="6.96423">
        <ele>2127</ele>
        <time>2022-08-28T04:40:04Z</time>
      </trkpt>
      <trkpt lat="46.04266" lon="6.96422">
        <ele>2127</ele>
        <time>2022-08-28T04:40:05Z</time>
      </trkpt>
      <trkpt lat="46.04265" lon="6.96422">
        <ele>2127</ele>
        <time>2022-08-28T04:40:06Z</time>
      </trkpt>
      <trkpt lat="46.04263" lon="6.96422">
        <ele>2127</ele>
        <time>2022-08-28T04:40:07Z</time>
      </trkpt>
      <trkpt lat="46.04261" lon="6.96422">
        <ele>2127</ele>
        <time>2022-08-28T04:40:09Z</time>
      </trkpt>
      <trkpt lat="46.04259" lon="6.96422">
        <ele>2128</ele>
        <time>2022-08-28T04:40:11Z</time>
      </trkpt>
      <trkpt lat="46.04257" lon="6.96422">
        <ele>2128</ele>
        <time>2022-08-28T04:40:12Z</time>
      </trkpt>
      <trkpt lat="46.04255" lon="6.96422">
        <ele>2128</ele>
        <time>2022-08-28T04:40:13Z</time>
      </trkpt>
      <trkpt lat="46.04254" lon="6.96421">
        <ele>2128</ele>
        <time>2022-08-28T04:40:14Z</time>
      </trkpt>
      <trkpt lat="46.04252" lon="6.9642">
        <ele>2128</ele>
        <time>2022-08-28T04:40:16Z</time>
      </trkpt>
      <trkpt lat="46.04251" lon="6.9642">
        <ele>2128</ele>
        <time>2022-08-28T04:40:17Z</time>
      </trkpt>
      <trkpt lat="46.04249" lon="6.96419">
        <ele>2128</ele>
        <time>2022-08-28T04:40:18Z</time>
      </trkpt>
      <trkpt lat="46.04247" lon="6.96418">
        <ele>2128</ele>
        <time>2022-08-28T04:40:19Z</time>
      </trkpt>
      <trkpt lat="46.04246" lon="6.96418">
        <ele>2128</ele>
        <time>2022-08-28T04:40:20Z</time>
      </trkpt>
      <trkpt lat="46.04245" lon="6.96417">
        <ele>2129</ele>
        <time>2022-08-28T04:40:21Z</time>
      </trkpt>
      <trkpt lat="46.04244" lon="6.96417">
        <ele>2129</ele>
        <time>2022-08-28T04:40:23Z</time>
      </trkpt>
      <trkpt lat="46.04243" lon="6.96417">
        <ele>2129</ele>
        <time>2022-08-28T04:40:24Z</time>
      </trkpt>
      <trkpt lat="46.04242" lon="6.96417">
        <ele>2129</ele>
        <time>2022-08-28T04:40:25Z</time>
      </trkpt>
      <trkpt lat="46.04241" lon="6.96417">
        <ele>2129</ele>
        <time>2022-08-28T04:40:27Z</time>
      </trkpt>
      <trkpt lat="46.0424" lon="6.96416">
        <ele>2129</ele>
        <time>2022-08-28T04:40:28Z</time>
      </trkpt>
      <trkpt lat="46.04239" lon="6.96416">
        <ele>2129</ele>
        <time>2022-08-28T04:40:29Z</time>
      </trkpt>
      <trkpt lat="46.04239" lon="6.96416">
        <ele>2129</ele>
        <time>2022-08-28T04:40:30Z</time>
      </trkpt>
      <trkpt lat="46.04238" lon="6.96416">
        <ele>2129</ele>
        <time>2022-08-28T04:40:31Z</time>
      </trkpt>
      <trkpt lat="46.04237" lon="6.96416">
        <ele>2130</ele>
        <time>2022-08-28T04:40:32Z</time>
      </trkpt>
      <trkpt lat="46.04235" lon="6.96416">
        <ele>2130</ele>
        <time>2022-08-28T04:40:33Z</time>
      </trkpt>
      <trkpt lat="46.04233" lon="6.96416">
        <ele>2130</ele>
        <time>2022-08-28T04:40:34Z</time>
      </trkpt>
      <trkpt lat="46.04232" lon="6.96416">
        <ele>2130</ele>
        <time>2022-08-28T04:40:35Z</time>
      </trkpt>
      <trkpt lat="46.0423" lon="6.96416">
        <ele>2130</ele>
        <time>2022-08-28T04:40:37Z</time>
      </trkpt>
      <trkpt lat="46.04229" lon="6.96416">
        <ele>2130</ele>
        <time>2022-08-28T04:40:38Z</time>
      </trkpt>
      <trkpt lat="46.04227" lon="6.96416">
        <ele>2130</ele>
        <time>2022-08-28T04:40:39Z</time>
      </trkpt>
      <trkpt lat="46.04226" lon="6.96415">
        <ele>2130</ele>
        <time>2022-08-28T04:40:40Z</time>
      </trkpt>
      <trkpt lat="46.04226" lon="6.96414">
        <ele>2130</ele>
        <time>2022-08-28T04:40:42Z</time>
      </trkpt>
      <trkpt lat="46.04225" lon="6.96413">
        <ele>2131</ele>
        <time>2022-08-28T04:40:44Z</time>
      </trkpt>
      <trkpt lat="46.04225" lon="6.96412">
        <ele>2131</ele>
        <time>2022-08-28T04:40:45Z</time>
      </trkpt>
      <trkpt lat="46.04224" lon="6.96411">
        <ele>2131</ele>
        <time>2022-08-28T04:40:46Z</time>
      </trkpt>
      <trkpt lat="46.04224" lon="6.9641">
        <ele>2131</ele>
        <time>2022-08-28T04:40:47Z</time>
      </trkpt>
      <trkpt lat="46.04223" lon="6.96409">
        <ele>2131</ele>
        <time>2022-08-28T04:40:49Z</time>
      </trkpt>
      <trkpt lat="46.04223" lon="6.96408">
        <ele>2131</ele>
        <time>2022-08-28T04:40:50Z</time>
      </trkpt>
      <trkpt lat="46.04222" lon="6.96407">
        <ele>2131</ele>
        <time>2022-08-28T04:40:51Z</time>
      </trkpt>
      <trkpt lat="46.04222" lon="6.96406">
        <ele>2131</ele>
        <time>2022-08-28T04:40:52Z</time>
      </trkpt>
      <trkpt lat="46.04227" lon="6.96396">
        <ele>2131</ele>
        <time>2022-08-28T04:40:59Z</time>
      </trkpt>
      <trkpt lat="46.04228" lon="6.96394">
        <ele>2131</ele>
        <time>2022-08-28T04:41:01Z</time>
      </trkpt>
      <trkpt lat="46.04229" lon="6.96392">
        <ele>2131</ele>
        <time>2022-08-28T04:41:02Z</time>
      </trkpt>
      <trkpt lat="46.0423" lon="6.96389">
        <ele>2130</ele>
        <time>2022-08-28T04:41:03Z</time>
      </trkpt>
      <trkpt lat="46.04231" lon="6.96387">
        <ele>2131</ele>
        <time>2022-08-28T04:41:04Z</time>
      </trkpt>
      <trkpt lat="46.04232" lon="6.96385">
        <ele>2132</ele>
        <time>2022-08-28T04:41:06Z</time>
      </trkpt>
      <trkpt lat="46.04233" lon="6.96383">
        <ele>2132</ele>
        <time>2022-08-28T04:41:07Z</time>
      </trkpt>
      <trkpt lat="46.04234" lon="6.96382">
        <ele>2131</ele>
        <time>2022-08-28T04:41:08Z</time>
      </trkpt>
      <trkpt lat="46.04235" lon="6.96381">
        <ele>2131</ele>
        <time>2022-08-28T04:41:09Z</time>
      </trkpt>
      <trkpt lat="46.04236" lon="6.9638">
        <ele>2131</ele>
        <time>2022-08-28T04:41:11Z</time>
      </trkpt>
      <trkpt lat="46.04237" lon="6.96379">
        <ele>2131</ele>
        <time>2022-08-28T04:41:12Z</time>
      </trkpt>
      <trkpt lat="46.04238" lon="6.96378">
        <ele>2131</ele>
        <time>2022-08-28T04:41:13Z</time>
      </trkpt>
      <trkpt lat="46.04239" lon="6.96376">
        <ele>2131</ele>
        <time>2022-08-28T04:41:14Z</time>
      </trkpt>
      <trkpt lat="46.0424" lon="6.96375">
        <ele>2131</ele>
        <time>2022-08-28T04:41:15Z</time>
      </trkpt>
      <trkpt lat="46.0425" lon="6.96363">
        <ele>2131</ele>
        <time>2022-08-28T04:41:20Z</time>
      </trkpt>
      <trkpt lat="46.04253" lon="6.9636">
        <ele>2131</ele>
        <time>2022-08-28T04:41:22Z</time>
      </trkpt>
      <trkpt lat="46.04256" lon="6.96357">
        <ele>2131</ele>
        <time>2022-08-28T04:41:23Z</time>
      </trkpt>
      <trkpt lat="46.04258" lon="6.96354">
        <ele>2130</ele>
        <time>2022-08-28T04:41:25Z</time>
      </trkpt>
      <trkpt lat="46.04259" lon="6.96352">
        <ele>2130</ele>
        <time>2022-08-28T04:41:27Z</time>
      </trkpt>
      <trkpt lat="46.0426" lon="6.96349">
        <ele>2130</ele>
        <time>2022-08-28T04:41:28Z</time>
      </trkpt>
      <trkpt lat="46.04261" lon="6.96347">
        <ele>2130</ele>
        <time>2022-08-28T04:41:29Z</time>
      </trkpt>
      <trkpt lat="46.04261" lon="6.96342">
        <ele>2130</ele>
        <time>2022-08-28T04:41:32Z</time>
      </trkpt>
      <trkpt lat="46.0426" lon="6.96339">
        <ele>2130</ele>
        <time>2022-08-28T04:41:33Z</time>
      </trkpt>
      <trkpt lat="46.0426" lon="6.96335">
        <ele>2130</ele>
        <time>2022-08-28T04:41:35Z</time>
      </trkpt>
      <trkpt lat="46.0426" lon="6.96331">
        <ele>2129</ele>
        <time>2022-08-28T04:41:37Z</time>
      </trkpt>
      <trkpt lat="46.0426" lon="6.96328">
        <ele>2129</ele>
        <time>2022-08-28T04:41:39Z</time>
      </trkpt>
      <trkpt lat="46.0426" lon="6.96324">
        <ele>2128</ele>
        <time>2022-08-28T04:41:42Z</time>
      </trkpt>
      <trkpt lat="46.04261" lon="6.9632">
        <ele>2128</ele>
        <time>2022-08-28T04:41:43Z</time>
      </trkpt>
      <trkpt lat="46.04262" lon="6.96316">
        <ele>2128</ele>
        <time>2022-08-28T04:41:45Z</time>
      </trkpt>
      <trkpt lat="46.04262" lon="6.96314">
        <ele>2128</ele>
        <time>2022-08-28T04:41:46Z</time>
      </trkpt>
      <trkpt lat="46.04261" lon="6.96313">
        <ele>2127</ele>
        <time>2022-08-28T04:41:47Z</time>
      </trkpt>
      <trkpt lat="46.04261" lon="6.96311">
        <ele>2127</ele>
        <time>2022-08-28T04:41:48Z</time>
      </trkpt>
      <trkpt lat="46.04261" lon="6.9631">
        <ele>2127</ele>
        <time>2022-08-28T04:41:50Z</time>
      </trkpt>
      <trkpt lat="46.04261" lon="6.96308">
        <ele>2127</ele>
        <time>2022-08-28T04:41:52Z</time>
      </trkpt>
      <trkpt lat="46.0426" lon="6.96307">
        <ele>2126</ele>
        <time>2022-08-28T04:41:53Z</time>
      </trkpt>
      <trkpt lat="46.0426" lon="6.96306">
        <ele>2126</ele>
        <time>2022-08-28T04:41:54Z</time>
      </trkpt>
      <trkpt lat="46.0426" lon="6.96304">
        <ele>2125</ele>
        <time>2022-08-28T04:41:55Z</time>
      </trkpt>
      <trkpt lat="46.04259" lon="6.96301">
        <ele>2125</ele>
        <time>2022-08-28T04:41:57Z</time>
      </trkpt>
      <trkpt lat="46.04259" lon="6.96299">
        <ele>2125</ele>
        <time>2022-08-28T04:41:58Z</time>
      </trkpt>
      <trkpt lat="46.04258" lon="6.96296">
        <ele>2125</ele>
        <time>2022-08-28T04:42:00Z</time>
      </trkpt>
      <trkpt lat="46.04257" lon="6.96293">
        <ele>2125</ele>
        <time>2022-08-28T04:42:02Z</time>
      </trkpt>
      <trkpt lat="46.04257" lon="6.9629">
        <ele>2124</ele>
        <time>2022-08-28T04:42:03Z</time>
      </trkpt>
      <trkpt lat="46.04257" lon="6.96289">
        <ele>2124</ele>
        <time>2022-08-28T04:42:04Z</time>
      </trkpt>
      <trkpt lat="46.04257" lon="6.96288">
        <ele>2124</ele>
        <time>2022-08-28T04:42:05Z</time>
      </trkpt>
      <trkpt lat="46.04258" lon="6.96287">
        <ele>2124</ele>
        <time>2022-08-28T04:42:07Z</time>
      </trkpt>
      <trkpt lat="46.04258" lon="6.96285">
        <ele>2124</ele>
        <time>2022-08-28T04:42:08Z</time>
      </trkpt>
      <trkpt lat="46.04258" lon="6.96284">
        <ele>2124</ele>
        <time>2022-08-28T04:42:09Z</time>
      </trkpt>
      <trkpt lat="46.04257" lon="6.96277">
        <ele>2124</ele>
        <time>2022-08-28T04:42:12Z</time>
      </trkpt>
      <trkpt lat="46.04258" lon="6.96273">
        <ele>2124</ele>
        <time>2022-08-28T04:42:15Z</time>
      </trkpt>
      <trkpt lat="46.04259" lon="6.96271">
        <ele>2124</ele>
        <time>2022-08-28T04:42:17Z</time>
      </trkpt>
      <trkpt lat="46.0426" lon="6.96269">
        <ele>2124</ele>
        <time>2022-08-28T04:42:18Z</time>
      </trkpt>
      <trkpt lat="46.04261" lon="6.96267">
        <ele>2124</ele>
        <time>2022-08-28T04:42:20Z</time>
      </trkpt>
      <trkpt lat="46.04262" lon="6.96265">
        <ele>2124</ele>
        <time>2022-08-28T04:42:21Z</time>
      </trkpt>
      <trkpt lat="46.04263" lon="6.96263">
        <ele>2124</ele>
        <time>2022-08-28T04:42:22Z</time>
      </trkpt>
      <trkpt lat="46.04264" lon="6.96261">
        <ele>2124</ele>
        <time>2022-08-28T04:42:23Z</time>
      </trkpt>
      <trkpt lat="46.04266" lon="6.9626">
        <ele>2123</ele>
        <time>2022-08-28T04:42:25Z</time>
      </trkpt>
      <trkpt lat="46.04267" lon="6.96259">
        <ele>2123</ele>
        <time>2022-08-28T04:42:26Z</time>
      </trkpt>
      <trkpt lat="46.04269" lon="6.96257">
        <ele>2123</ele>
        <time>2022-08-28T04:42:27Z</time>
      </trkpt>
      <trkpt lat="46.0427" lon="6.96256">
        <ele>2123</ele>
        <time>2022-08-28T04:42:28Z</time>
      </trkpt>
      <trkpt lat="46.04272" lon="6.96255">
        <ele>2123</ele>
        <time>2022-08-28T04:42:29Z</time>
      </trkpt>
      <trkpt lat="46.04273" lon="6.96253">
        <ele>2123</ele>
        <time>2022-08-28T04:42:30Z</time>
      </trkpt>
      <trkpt lat="46.04275" lon="6.96251">
        <ele>2123</ele>
        <time>2022-08-28T04:42:31Z</time>
      </trkpt>
      <trkpt lat="46.04276" lon="6.96248">
        <ele>2123</ele>
        <time>2022-08-28T04:42:32Z</time>
      </trkpt>
      <trkpt lat="46.04278" lon="6.96246">
        <ele>2123</ele>
        <time>2022-08-28T04:42:33Z</time>
      </trkpt>
      <trkpt lat="46.0428" lon="6.96241">
        <ele>2123</ele>
        <time>2022-08-28T04:42:35Z</time>
      </trkpt>
      <trkpt lat="46.04281" lon="6.9624">
        <ele>2123</ele>
        <time>2022-08-28T04:42:36Z</time>
      </trkpt>
      <trkpt lat="46.04284" lon="6.96233">
        <ele>2122</ele>
        <time>2022-08-28T04:42:41Z</time>
      </trkpt>
      <trkpt lat="46.04286" lon="6.96232">
        <ele>2122</ele>
        <time>2022-08-28T04:42:43Z</time>
      </trkpt>
      <trkpt lat="46.04287" lon="6.9623">
        <ele>2122</ele>
        <time>2022-08-28T04:42:44Z</time>
      </trkpt>
      <trkpt lat="46.04287" lon="6.96228">
        <ele>2122</ele>
        <time>2022-08-28T04:42:45Z</time>
      </trkpt>
      <trkpt lat="46.04288" lon="6.96226">
        <ele>2122</ele>
        <time>2022-08-28T04:42:46Z</time>
      </trkpt>
      <trkpt lat="46.04289" lon="6.96223">
        <ele>2122</ele>
        <time>2022-08-28T04:42:48Z</time>
      </trkpt>
      <trkpt lat="46.0429" lon="6.9622">
        <ele>2121</ele>
        <time>2022-08-28T04:42:50Z</time>
      </trkpt>
      <trkpt lat="46.04291" lon="6.96217">
        <ele>2121</ele>
        <time>2022-08-28T04:42:52Z</time>
      </trkpt>
      <trkpt lat="46.04293" lon="6.96214">
        <ele>2121</ele>
        <time>2022-08-28T04:42:55Z</time>
      </trkpt>
      <trkpt lat="46.04295" lon="6.96212">
        <ele>2121</ele>
        <time>2022-08-28T04:42:57Z</time>
      </trkpt>
      <trkpt lat="46.04297" lon="6.96209">
        <ele>2121</ele>
        <time>2022-08-28T04:42:58Z</time>
      </trkpt>
      <trkpt lat="46.04298" lon="6.96206">
        <ele>2121</ele>
        <time>2022-08-28T04:43:00Z</time>
      </trkpt>
      <trkpt lat="46.043" lon="6.96201">
        <ele>2121</ele>
        <time>2022-08-28T04:43:02Z</time>
      </trkpt>
      <trkpt lat="46.04301" lon="6.96199">
        <ele>2121</ele>
        <time>2022-08-28T04:43:03Z</time>
      </trkpt>
      <trkpt lat="46.04301" lon="6.96197">
        <ele>2121</ele>
        <time>2022-08-28T04:43:04Z</time>
      </trkpt>
      <trkpt lat="46.04302" lon="6.96195">
        <ele>2121</ele>
        <time>2022-08-28T04:43:05Z</time>
      </trkpt>
      <trkpt lat="46.04302" lon="6.96194">
        <ele>2120</ele>
        <time>2022-08-28T04:43:07Z</time>
      </trkpt>
      <trkpt lat="46.04303" lon="6.96192">
        <ele>2120</ele>
        <time>2022-08-28T04:43:08Z</time>
      </trkpt>
      <trkpt lat="46.04303" lon="6.9619">
        <ele>2120</ele>
        <time>2022-08-28T04:43:09Z</time>
      </trkpt>
      <trkpt lat="46.04304" lon="6.96189">
        <ele>2120</ele>
        <time>2022-08-28T04:43:10Z</time>
      </trkpt>
      <trkpt lat="46.04309" lon="6.96176">
        <ele>2119</ele>
        <time>2022-08-28T04:43:16Z</time>
      </trkpt>
      <trkpt lat="46.0431" lon="6.96174">
        <ele>2119</ele>
        <time>2022-08-28T04:43:18Z</time>
      </trkpt>
      <trkpt lat="46.04311" lon="6.96171">
        <ele>2119</ele>
        <time>2022-08-28T04:43:19Z</time>
      </trkpt>
      <trkpt lat="46.04312" lon="6.96169">
        <ele>2119</ele>
        <time>2022-08-28T04:43:20Z</time>
      </trkpt>
      <trkpt lat="46.04313" lon="6.96167">
        <ele>2119</ele>
        <time>2022-08-28T04:43:21Z</time>
      </trkpt>
      <trkpt lat="46.04313" lon="6.96165">
        <ele>2119</ele>
        <time>2022-08-28T04:43:23Z</time>
      </trkpt>
      <trkpt lat="46.04314" lon="6.96163">
        <ele>2119</ele>
        <time>2022-08-28T04:43:24Z</time>
      </trkpt>
      <trkpt lat="46.04314" lon="6.96161">
        <ele>2119</ele>
        <time>2022-08-28T04:43:25Z</time>
      </trkpt>
      <trkpt lat="46.04314" lon="6.96159">
        <ele>2119</ele>
        <time>2022-08-28T04:43:26Z</time>
      </trkpt>
      <trkpt lat="46.04315" lon="6.96156">
        <ele>2119</ele>
        <time>2022-08-28T04:43:27Z</time>
      </trkpt>
      <trkpt lat="46.04315" lon="6.96154">
        <ele>2119</ele>
        <time>2022-08-28T04:43:28Z</time>
      </trkpt>
      <trkpt lat="46.04315" lon="6.96152">
        <ele>2119</ele>
        <time>2022-08-28T04:43:29Z</time>
      </trkpt>
      <trkpt lat="46.04316" lon="6.96149">
        <ele>2118</ele>
        <time>2022-08-28T04:43:30Z</time>
      </trkpt>
      <trkpt lat="46.04316" lon="6.96147">
        <ele>2118</ele>
        <time>2022-08-28T04:43:31Z</time>
      </trkpt>
      <trkpt lat="46.04316" lon="6.96144">
        <ele>2118</ele>
        <time>2022-08-28T04:43:33Z</time>
      </trkpt>
      <trkpt lat="46.04317" lon="6.96141">
        <ele>2118</ele>
        <time>2022-08-28T04:43:34Z</time>
      </trkpt>
      <trkpt lat="46.04317" lon="6.96139">
        <ele>2118</ele>
        <time>2022-08-28T04:43:35Z</time>
      </trkpt>
      <trkpt lat="46.04317" lon="6.96137">
        <ele>2118</ele>
        <time>2022-08-28T04:43:36Z</time>
      </trkpt>
      <trkpt lat="46.04317" lon="6.96135">
        <ele>2118</ele>
        <time>2022-08-28T04:43:37Z</time>
      </trkpt>
      <trkpt lat="46.04318" lon="6.96132">
        <ele>2118</ele>
        <time>2022-08-28T04:43:39Z</time>
      </trkpt>
      <trkpt lat="46.04318" lon="6.9613">
        <ele>2118</ele>
        <time>2022-08-28T04:43:40Z</time>
      </trkpt>
      <trkpt lat="46.04318" lon="6.96128">
        <ele>2118</ele>
        <time>2022-08-28T04:43:41Z</time>
      </trkpt>
      <trkpt lat="46.04317" lon="6.96113">
        <ele>2118</ele>
        <time>2022-08-28T04:43:50Z</time>
      </trkpt>
      <trkpt lat="46.04315" lon="6.96108">
        <ele>2118</ele>
        <time>2022-08-28T04:43:52Z</time>
      </trkpt>
      <trkpt lat="46.04314" lon="6.96105">
        <ele>2116</ele>
        <time>2022-08-28T04:43:54Z</time>
      </trkpt>
      <trkpt lat="46.04312" lon="6.96102">
        <ele>2116</ele>
        <time>2022-08-28T04:43:56Z</time>
      </trkpt>
      <trkpt lat="46.0431" lon="6.961">
        <ele>2116</ele>
        <time>2022-08-28T04:43:59Z</time>
      </trkpt>
      <trkpt lat="46.04307" lon="6.96098">
        <ele>2116</ele>
        <time>2022-08-28T04:44:00Z</time>
      </trkpt>
      <trkpt lat="46.04306" lon="6.96096">
        <ele>2116</ele>
        <time>2022-08-28T04:44:02Z</time>
      </trkpt>
      <trkpt lat="46.04306" lon="6.96095">
        <ele>2116</ele>
        <time>2022-08-28T04:44:03Z</time>
      </trkpt>
      <trkpt lat="46.04305" lon="6.96093">
        <ele>2116</ele>
        <time>2022-08-28T04:44:04Z</time>
      </trkpt>
      <trkpt lat="46.04304" lon="6.96091">
        <ele>2116</ele>
        <time>2022-08-28T04:44:06Z</time>
      </trkpt>
      <trkpt lat="46.04303" lon="6.9609">
        <ele>2116</ele>
        <time>2022-08-28T04:44:07Z</time>
      </trkpt>
      <trkpt lat="46.04302" lon="6.96088">
        <ele>2116</ele>
        <time>2022-08-28T04:44:08Z</time>
      </trkpt>
      <trkpt lat="46.04301" lon="6.96086">
        <ele>2116</ele>
        <time>2022-08-28T04:44:09Z</time>
      </trkpt>
      <trkpt lat="46.04294" lon="6.96076">
        <ele>2115</ele>
        <time>2022-08-28T04:44:15Z</time>
      </trkpt>
      <trkpt lat="46.04288" lon="6.96064">
        <ele>2114</ele>
        <time>2022-08-28T04:44:24Z</time>
      </trkpt>
      <trkpt lat="46.04286" lon="6.96062">
        <ele>2114</ele>
        <time>2022-08-28T04:44:25Z</time>
      </trkpt>
      <trkpt lat="46.04284" lon="6.9606">
        <ele>2114</ele>
        <time>2022-08-28T04:44:27Z</time>
      </trkpt>
      <trkpt lat="46.04282" lon="6.96059">
        <ele>2114</ele>
        <time>2022-08-28T04:44:29Z</time>
      </trkpt>
      <trkpt lat="46.0428" lon="6.96057">
        <ele>2114</ele>
        <time>2022-08-28T04:44:30Z</time>
      </trkpt>
      <trkpt lat="46.04279" lon="6.96054">
        <ele>2114</ele>
        <time>2022-08-28T04:44:32Z</time>
      </trkpt>
      <trkpt lat="46.04278" lon="6.96052">
        <ele>2114</ele>
        <time>2022-08-28T04:44:34Z</time>
      </trkpt>
      <trkpt lat="46.04277" lon="6.96049">
        <ele>2114</ele>
        <time>2022-08-28T04:44:35Z</time>
      </trkpt>
      <trkpt lat="46.04277" lon="6.96046">
        <ele>2113</ele>
        <time>2022-08-28T04:44:36Z</time>
      </trkpt>
      <trkpt lat="46.04276" lon="6.96044">
        <ele>2113</ele>
        <time>2022-08-28T04:44:37Z</time>
      </trkpt>
      <trkpt lat="46.04275" lon="6.96042">
        <ele>2113</ele>
        <time>2022-08-28T04:44:39Z</time>
      </trkpt>
      <trkpt lat="46.04274" lon="6.9604">
        <ele>2113</ele>
        <time>2022-08-28T04:44:40Z</time>
      </trkpt>
      <trkpt lat="46.04273" lon="6.96038">
        <ele>2113</ele>
        <time>2022-08-28T04:44:41Z</time>
      </trkpt>
      <trkpt lat="46.04272" lon="6.96036">
        <ele>2113</ele>
        <time>2022-08-28T04:44:42Z</time>
      </trkpt>
      <trkpt lat="46.04271" lon="6.96034">
        <ele>2113</ele>
        <time>2022-08-28T04:44:43Z</time>
      </trkpt>
      <trkpt lat="46.0427" lon="6.96033">
        <ele>2113</ele>
        <time>2022-08-28T04:44:44Z</time>
      </trkpt>
      <trkpt lat="46.04269" lon="6.9603">
        <ele>2113</ele>
        <time>2022-08-28T04:44:45Z</time>
      </trkpt>
      <trkpt lat="46.04269" lon="6.96028">
        <ele>2113</ele>
        <time>2022-08-28T04:44:46Z</time>
      </trkpt>
      <trkpt lat="46.04268" lon="6.96026">
        <ele>2113</ele>
        <time>2022-08-28T04:44:47Z</time>
      </trkpt>
      <trkpt lat="46.04268" lon="6.96024">
        <ele>2113</ele>
        <time>2022-08-28T04:44:49Z</time>
      </trkpt>
      <trkpt lat="46.04267" lon="6.96022">
        <ele>2113</ele>
        <time>2022-08-28T04:44:50Z</time>
      </trkpt>
      <trkpt lat="46.04267" lon="6.9602">
        <ele>2113</ele>
        <time>2022-08-28T04:44:51Z</time>
      </trkpt>
      <trkpt lat="46.04267" lon="6.96018">
        <ele>2112</ele>
        <time>2022-08-28T04:44:52Z</time>
      </trkpt>
      <trkpt lat="46.04266" lon="6.96015">
        <ele>2112</ele>
        <time>2022-08-28T04:44:53Z</time>
      </trkpt>
      <trkpt lat="46.04266" lon="6.96013">
        <ele>2112</ele>
        <time>2022-08-28T04:44:54Z</time>
      </trkpt>
      <trkpt lat="46.04266" lon="6.96011">
        <ele>2112</ele>
        <time>2022-08-28T04:44:55Z</time>
      </trkpt>
      <trkpt lat="46.04266" lon="6.96009">
        <ele>2112</ele>
        <time>2022-08-28T04:44:57Z</time>
      </trkpt>
      <trkpt lat="46.04266" lon="6.96007">
        <ele>2112</ele>
        <time>2022-08-28T04:44:58Z</time>
      </trkpt>
      <trkpt lat="46.04265" lon="6.96005">
        <ele>2112</ele>
        <time>2022-08-28T04:44:59Z</time>
      </trkpt>
      <trkpt lat="46.04264" lon="6.96003">
        <ele>2112</ele>
        <time>2022-08-28T04:45:00Z</time>
      </trkpt>
      <trkpt lat="46.04263" lon="6.96001">
        <ele>2112</ele>
        <time>2022-08-28T04:45:02Z</time>
      </trkpt>
      <trkpt lat="46.04262" lon="6.95999">
        <ele>2112</ele>
        <time>2022-08-28T04:45:04Z</time>
      </trkpt>
      <trkpt lat="46.04261" lon="6.95996">
        <ele>2112</ele>
        <time>2022-08-28T04:45:05Z</time>
      </trkpt>
      <trkpt lat="46.0426" lon="6.95994">
        <ele>2111</ele>
        <time>2022-08-28T04:45:06Z</time>
      </trkpt>
      <trkpt lat="46.0426" lon="6.95992">
        <ele>2111</ele>
        <time>2022-08-28T04:45:08Z</time>
      </trkpt>
      <trkpt lat="46.0426" lon="6.9599">
        <ele>2111</ele>
        <time>2022-08-28T04:45:09Z</time>
      </trkpt>
      <trkpt lat="46.0426" lon="6.95988">
        <ele>2110</ele>
        <time>2022-08-28T04:45:10Z</time>
      </trkpt>
      <trkpt lat="46.0426" lon="6.95986">
        <ele>2110</ele>
        <time>2022-08-28T04:45:12Z</time>
      </trkpt>
      <trkpt lat="46.0426" lon="6.95984">
        <ele>2110</ele>
        <time>2022-08-28T04:45:13Z</time>
      </trkpt>
      <trkpt lat="46.0426" lon="6.95982">
        <ele>2110</ele>
        <time>2022-08-28T04:45:14Z</time>
      </trkpt>
      <trkpt lat="46.0426" lon="6.9598">
        <ele>2110</ele>
        <time>2022-08-28T04:45:15Z</time>
      </trkpt>
      <trkpt lat="46.0426" lon="6.95978">
        <ele>2110</ele>
        <time>2022-08-28T04:45:17Z</time>
      </trkpt>
      <trkpt lat="46.04259" lon="6.95976">
        <ele>2110</ele>
        <time>2022-08-28T04:45:18Z</time>
      </trkpt>
      <trkpt lat="46.04259" lon="6.95973">
        <ele>2110</ele>
        <time>2022-08-28T04:45:19Z</time>
      </trkpt>
      <trkpt lat="46.04258" lon="6.95971">
        <ele>2110</ele>
        <time>2022-08-28T04:45:20Z</time>
      </trkpt>
      <trkpt lat="46.04258" lon="6.95969">
        <ele>2110</ele>
        <time>2022-08-28T04:45:22Z</time>
      </trkpt>
      <trkpt lat="46.04257" lon="6.95966">
        <ele>2110</ele>
        <time>2022-08-28T04:45:23Z</time>
      </trkpt>
      <trkpt lat="46.04257" lon="6.95964">
        <ele>2110</ele>
        <time>2022-08-28T04:45:24Z</time>
      </trkpt>
      <trkpt lat="46.04257" lon="6.95962">
        <ele>2110</ele>
        <time>2022-08-28T04:45:25Z</time>
      </trkpt>
      <trkpt lat="46.04256" lon="6.9596">
        <ele>2110</ele>
        <time>2022-08-28T04:45:27Z</time>
      </trkpt>
      <trkpt lat="46.04256" lon="6.95957">
        <ele>2109</ele>
        <time>2022-08-28T04:45:29Z</time>
      </trkpt>
      <trkpt lat="46.04256" lon="6.95955">
        <ele>2109</ele>
        <time>2022-08-28T04:45:30Z</time>
      </trkpt>
      <trkpt lat="46.04256" lon="6.95953">
        <ele>2109</ele>
        <time>2022-08-28T04:45:31Z</time>
      </trkpt>
      <trkpt lat="46.04256" lon="6.95951">
        <ele>2109</ele>
        <time>2022-08-28T04:45:32Z</time>
      </trkpt>
      <trkpt lat="46.04255" lon="6.95949">
        <ele>2109</ele>
        <time>2022-08-28T04:45:33Z</time>
      </trkpt>
      <trkpt lat="46.04255" lon="6.95947">
        <ele>2109</ele>
        <time>2022-08-28T04:45:34Z</time>
      </trkpt>
      <trkpt lat="46.04255" lon="6.95945">
        <ele>2109</ele>
        <time>2022-08-28T04:45:36Z</time>
      </trkpt>
      <trkpt lat="46.04255" lon="6.95943">
        <ele>2109</ele>
        <time>2022-08-28T04:45:37Z</time>
      </trkpt>
      <trkpt lat="46.04255" lon="6.9594">
        <ele>2109</ele>
        <time>2022-08-28T04:45:38Z</time>
      </trkpt>
      <trkpt lat="46.04255" lon="6.95938">
        <ele>2109</ele>
        <time>2022-08-28T04:45:39Z</time>
      </trkpt>
      <trkpt lat="46.04254" lon="6.95925">
        <ele>2109</ele>
        <time>2022-08-28T04:45:46Z</time>
      </trkpt>
      <trkpt lat="46.04253" lon="6.95911">
        <ele>2108</ele>
        <time>2022-08-28T04:45:53Z</time>
      </trkpt>
      <trkpt lat="46.04253" lon="6.95911">
        <ele>2108</ele>
        <time>2022-08-28T04:45:54Z</time>
      </trkpt>
      <trkpt lat="46.04252" lon="6.9591">
        <ele>2108</ele>
        <time>2022-08-28T04:45:55Z</time>
      </trkpt>
      <trkpt lat="46.04252" lon="6.95909">
        <ele>2108</ele>
        <time>2022-08-28T04:45:56Z</time>
      </trkpt>
      <trkpt lat="46.04252" lon="6.95909">
        <ele>2108</ele>
        <time>2022-08-28T04:45:58Z</time>
      </trkpt>
      <trkpt lat="46.04252" lon="6.95908">
        <ele>2108</ele>
        <time>2022-08-28T04:45:59Z</time>
      </trkpt>
      <trkpt lat="46.04252" lon="6.95907">
        <ele>2108</ele>
        <time>2022-08-28T04:46:00Z</time>
      </trkpt>
      <trkpt lat="46.04252" lon="6.95907">
        <ele>2108</ele>
        <time>2022-08-28T04:46:01Z</time>
      </trkpt>
      <trkpt lat="46.04249" lon="6.95895">
        <ele>2108</ele>
        <time>2022-08-28T04:46:03Z</time>
      </trkpt>
      <trkpt lat="46.04248" lon="6.95893">
        <ele>2108</ele>
        <time>2022-08-28T04:46:05Z</time>
      </trkpt>
      <trkpt lat="46.04247" lon="6.95891">
        <ele>2108</ele>
        <time>2022-08-28T04:46:06Z</time>
      </trkpt>
      <trkpt lat="46.04247" lon="6.95889">
        <ele>2107</ele>
        <time>2022-08-28T04:46:07Z</time>
      </trkpt>
      <trkpt lat="46.04246" lon="6.95887">
        <ele>2107</ele>
        <time>2022-08-28T04:46:09Z</time>
      </trkpt>
      <trkpt lat="46.04246" lon="6.95885">
        <ele>2107</ele>
        <time>2022-08-28T04:46:10Z</time>
      </trkpt>
      <trkpt lat="46.04243" lon="6.95872">
        <ele>2107</ele>
        <time>2022-08-28T04:46:15Z</time>
      </trkpt>
      <trkpt lat="46.04243" lon="6.9587">
        <ele>2107</ele>
        <time>2022-08-28T04:46:16Z</time>
      </trkpt>
      <trkpt lat="46.04243" lon="6.95868">
        <ele>2107</ele>
        <time>2022-08-28T04:46:17Z</time>
      </trkpt>
      <trkpt lat="46.04242" lon="6.95866">
        <ele>2106</ele>
        <time>2022-08-28T04:46:18Z</time>
      </trkpt>
      <trkpt lat="46.04242" lon="6.95864">
        <ele>2106</ele>
        <time>2022-08-28T04:46:20Z</time>
      </trkpt>
      <trkpt lat="46.04242" lon="6.95861">
        <ele>2106</ele>
        <time>2022-08-28T04:46:21Z</time>
      </trkpt>
      <trkpt lat="46.04242" lon="6.95859">
        <ele>2106</ele>
        <time>2022-08-28T04:46:22Z</time>
      </trkpt>
      <trkpt lat="46.04242" lon="6.95857">
        <ele>2106</ele>
        <time>2022-08-28T04:46:24Z</time>
      </trkpt>
      <trkpt lat="46.04241" lon="6.95855">
        <ele>2106</ele>
        <time>2022-08-28T04:46:25Z</time>
      </trkpt>
      <trkpt lat="46.04241" lon="6.95853">
        <ele>2106</ele>
        <time>2022-08-28T04:46:26Z</time>
      </trkpt>
      <trkpt lat="46.04241" lon="6.9585">
        <ele>2105</ele>
        <time>2022-08-28T04:46:28Z</time>
      </trkpt>
      <trkpt lat="46.0424" lon="6.95848">
        <ele>2105</ele>
        <time>2022-08-28T04:46:29Z</time>
      </trkpt>
      <trkpt lat="46.0424" lon="6.95846">
        <ele>2105</ele>
        <time>2022-08-28T04:46:30Z</time>
      </trkpt>
      <trkpt lat="46.04239" lon="6.95844">
        <ele>2105</ele>
        <time>2022-08-28T04:46:31Z</time>
      </trkpt>
      <trkpt lat="46.04238" lon="6.95841">
        <ele>2105</ele>
        <time>2022-08-28T04:46:33Z</time>
      </trkpt>
      <trkpt lat="46.04237" lon="6.95839">
        <ele>2105</ele>
        <time>2022-08-28T04:46:34Z</time>
      </trkpt>
      <trkpt lat="46.04237" lon="6.95836">
        <ele>2105</ele>
        <time>2022-08-28T04:46:35Z</time>
      </trkpt>
      <trkpt lat="46.04236" lon="6.95834">
        <ele>2105</ele>
        <time>2022-08-28T04:46:36Z</time>
      </trkpt>
      <trkpt lat="46.04236" lon="6.95831">
        <ele>2105</ele>
        <time>2022-08-28T04:46:38Z</time>
      </trkpt>
      <trkpt lat="46.04235" lon="6.95829">
        <ele>2104</ele>
        <time>2022-08-28T04:46:39Z</time>
      </trkpt>
      <trkpt lat="46.04235" lon="6.95827">
        <ele>2104</ele>
        <time>2022-08-28T04:46:40Z</time>
      </trkpt>
      <trkpt lat="46.04235" lon="6.95825">
        <ele>2104</ele>
        <time>2022-08-28T04:46:41Z</time>
      </trkpt>
      <trkpt lat="46.04234" lon="6.95823">
        <ele>2104</ele>
        <time>2022-08-28T04:46:42Z</time>
      </trkpt>
      <trkpt lat="46.04234" lon="6.9582">
        <ele>2103</ele>
        <time>2022-08-28T04:46:43Z</time>
      </trkpt>
      <trkpt lat="46.0423" lon="6.95807">
        <ele>2103</ele>
        <time>2022-08-28T04:46:48Z</time>
      </trkpt>
      <trkpt lat="46.04229" lon="6.95804">
        <ele>2103</ele>
        <time>2022-08-28T04:46:51Z</time>
      </trkpt>
      <trkpt lat="46.04228" lon="6.95798">
        <ele>2103</ele>
        <time>2022-08-28T04:46:53Z</time>
      </trkpt>
      <trkpt lat="46.04227" lon="6.95794">
        <ele>2103</ele>
        <time>2022-08-28T04:46:55Z</time>
      </trkpt>
      <trkpt lat="46.04227" lon="6.95792">
        <ele>2103</ele>
        <time>2022-08-28T04:46:56Z</time>
      </trkpt>
      <trkpt lat="46.04226" lon="6.95791">
        <ele>2103</ele>
        <time>2022-08-28T04:46:57Z</time>
      </trkpt>
      <trkpt lat="46.04226" lon="6.95789">
        <ele>2102</ele>
        <time>2022-08-28T04:46:58Z</time>
      </trkpt>
      <trkpt lat="46.04225" lon="6.95788">
        <ele>2102</ele>
        <time>2022-08-28T04:47:00Z</time>
      </trkpt>
      <trkpt lat="46.04224" lon="6.95786">
        <ele>2102</ele>
        <time>2022-08-28T04:47:02Z</time>
      </trkpt>
      <trkpt lat="46.04224" lon="6.95785">
        <ele>2102</ele>
        <time>2022-08-28T04:47:03Z</time>
      </trkpt>
      <trkpt lat="46.04223" lon="6.95783">
        <ele>2102</ele>
        <time>2022-08-28T04:47:04Z</time>
      </trkpt>
      <trkpt lat="46.04222" lon="6.9578">
        <ele>2102</ele>
        <time>2022-08-28T04:47:06Z</time>
      </trkpt>
      <trkpt lat="46.04222" lon="6.95777">
        <ele>2102</ele>
        <time>2022-08-28T04:47:07Z</time>
      </trkpt>
      <trkpt lat="46.04221" lon="6.95773">
        <ele>2102</ele>
        <time>2022-08-28T04:47:08Z</time>
      </trkpt>
      <trkpt lat="46.0422" lon="6.9577">
        <ele>2102</ele>
        <time>2022-08-28T04:47:09Z</time>
      </trkpt>
      <trkpt lat="46.04219" lon="6.95768">
        <ele>2102</ele>
        <time>2022-08-28T04:47:11Z</time>
      </trkpt>
      <trkpt lat="46.04218" lon="6.95766">
        <ele>2102</ele>
        <time>2022-08-28T04:47:12Z</time>
      </trkpt>
      <trkpt lat="46.04217" lon="6.95764">
        <ele>2102</ele>
        <time>2022-08-28T04:47:13Z</time>
      </trkpt>
      <trkpt lat="46.04216" lon="6.95762">
        <ele>2102</ele>
        <time>2022-08-28T04:47:14Z</time>
      </trkpt>
      <trkpt lat="46.04216" lon="6.9576">
        <ele>2102</ele>
        <time>2022-08-28T04:47:15Z</time>
      </trkpt>
      <trkpt lat="46.04215" lon="6.95758">
        <ele>2101</ele>
        <time>2022-08-28T04:47:16Z</time>
      </trkpt>
      <trkpt lat="46.04214" lon="6.95756">
        <ele>2101</ele>
        <time>2022-08-28T04:47:17Z</time>
      </trkpt>
      <trkpt lat="46.04213" lon="6.95754">
        <ele>2101</ele>
        <time>2022-08-28T04:47:18Z</time>
      </trkpt>
      <trkpt lat="46.04212" lon="6.95751">
        <ele>2101</ele>
        <time>2022-08-28T04:47:19Z</time>
      </trkpt>
      <trkpt lat="46.04211" lon="6.95749">
        <ele>2101</ele>
        <time>2022-08-28T04:47:20Z</time>
      </trkpt>
      <trkpt lat="46.0421" lon="6.95746">
        <ele>2101</ele>
        <time>2022-08-28T04:47:21Z</time>
      </trkpt>
      <trkpt lat="46.0421" lon="6.95745">
        <ele>2101</ele>
        <time>2022-08-28T04:47:23Z</time>
      </trkpt>
      <trkpt lat="46.0421" lon="6.95744">
        <ele>2101</ele>
        <time>2022-08-28T04:47:24Z</time>
      </trkpt>
      <trkpt lat="46.0421" lon="6.95743">
        <ele>2101</ele>
        <time>2022-08-28T04:47:25Z</time>
      </trkpt>
      <trkpt lat="46.0421" lon="6.95741">
        <ele>2101</ele>
        <time>2022-08-28T04:47:26Z</time>
      </trkpt>
      <trkpt lat="46.04209" lon="6.95731">
        <ele>2100</ele>
        <time>2022-08-28T04:47:28Z</time>
      </trkpt>
      <trkpt lat="46.04207" lon="6.95717">
        <ele>2099</ele>
        <time>2022-08-28T04:47:33Z</time>
      </trkpt>
      <trkpt lat="46.04206" lon="6.95715">
        <ele>2098</ele>
        <time>2022-08-28T04:47:34Z</time>
      </trkpt>
      <trkpt lat="46.04205" lon="6.95713">
        <ele>2098</ele>
        <time>2022-08-28T04:47:35Z</time>
      </trkpt>
      <trkpt lat="46.04204" lon="6.95711">
        <ele>2098</ele>
        <time>2022-08-28T04:47:36Z</time>
      </trkpt>
      <trkpt lat="46.04204" lon="6.95709">
        <ele>2097</ele>
        <time>2022-08-28T04:47:38Z</time>
      </trkpt>
      <trkpt lat="46.04203" lon="6.95707">
        <ele>2097</ele>
        <time>2022-08-28T04:47:39Z</time>
      </trkpt>
      <trkpt lat="46.04202" lon="6.95705">
        <ele>2097</ele>
        <time>2022-08-28T04:47:40Z</time>
      </trkpt>
      <trkpt lat="46.04202" lon="6.95703">
        <ele>2097</ele>
        <time>2022-08-28T04:47:41Z</time>
      </trkpt>
      <trkpt lat="46.04202" lon="6.95701">
        <ele>2096</ele>
        <time>2022-08-28T04:47:42Z</time>
      </trkpt>
      <trkpt lat="46.04203" lon="6.95699">
        <ele>2096</ele>
        <time>2022-08-28T04:47:44Z</time>
      </trkpt>
      <trkpt lat="46.04203" lon="6.95698">
        <ele>2096</ele>
        <time>2022-08-28T04:47:45Z</time>
      </trkpt>
      <trkpt lat="46.04203" lon="6.95696">
        <ele>2096</ele>
        <time>2022-08-28T04:47:46Z</time>
      </trkpt>
      <trkpt lat="46.04203" lon="6.95694">
        <ele>2096</ele>
        <time>2022-08-28T04:47:47Z</time>
      </trkpt>
      <trkpt lat="46.04203" lon="6.95692">
        <ele>2096</ele>
        <time>2022-08-28T04:47:48Z</time>
      </trkpt>
      <trkpt lat="46.04204" lon="6.9569">
        <ele>2096</ele>
        <time>2022-08-28T04:47:49Z</time>
      </trkpt>
      <trkpt lat="46.04203" lon="6.95689">
        <ele>2095</ele>
        <time>2022-08-28T04:47:50Z</time>
      </trkpt>
      <trkpt lat="46.04203" lon="6.95687">
        <ele>2095</ele>
        <time>2022-08-28T04:47:51Z</time>
      </trkpt>
      <trkpt lat="46.04202" lon="6.95685">
        <ele>2095</ele>
        <time>2022-08-28T04:47:52Z</time>
      </trkpt>
      <trkpt lat="46.04202" lon="6.95684">
        <ele>2094</ele>
        <time>2022-08-28T04:47:54Z</time>
      </trkpt>
      <trkpt lat="46.04202" lon="6.95682">
        <ele>2094</ele>
        <time>2022-08-28T04:47:55Z</time>
      </trkpt>
      <trkpt lat="46.04203" lon="6.95683">
        <ele>2093</ele>
        <time>2022-08-28T04:47:56Z</time>
      </trkpt>
      <trkpt lat="46.04204" lon="6.95683">
        <ele>2093</ele>
        <time>2022-08-28T04:47:57Z</time>
      </trkpt>
      <trkpt lat="46.04206" lon="6.95684">
        <ele>2093</ele>
        <time>2022-08-28T04:47:59Z</time>
      </trkpt>
      <trkpt lat="46.04207" lon="6.95684">
        <ele>2092</ele>
        <time>2022-08-28T04:48:00Z</time>
      </trkpt>
      <trkpt lat="46.04208" lon="6.95685">
        <ele>2090</ele>
        <time>2022-08-28T04:48:01Z</time>
      </trkpt>
      <trkpt lat="46.0421" lon="6.95685">
        <ele>2090</ele>
        <time>2022-08-28T04:48:03Z</time>
      </trkpt>
      <trkpt lat="46.04211" lon="6.95686">
        <ele>2090</ele>
        <time>2022-08-28T04:48:04Z</time>
      </trkpt>
      <trkpt lat="46.04213" lon="6.95688">
        <ele>2090</ele>
        <time>2022-08-28T04:48:06Z</time>
      </trkpt>
      <trkpt lat="46.04216" lon="6.95691">
        <ele>2089</ele>
        <time>2022-08-28T04:48:09Z</time>
      </trkpt>
      <trkpt lat="46.04218" lon="6.95693">
        <ele>2089</ele>
        <time>2022-08-28T04:48:11Z</time>
      </trkpt>
      <trkpt lat="46.0422" lon="6.95695">
        <ele>2089</ele>
        <time>2022-08-28T04:48:12Z</time>
      </trkpt>
      <trkpt lat="46.04222" lon="6.95696">
        <ele>2088</ele>
        <time>2022-08-28T04:48:14Z</time>
      </trkpt>
      <trkpt lat="46.04223" lon="6.95696">
        <ele>2088</ele>
        <time>2022-08-28T04:48:15Z</time>
      </trkpt>
      <trkpt lat="46.04225" lon="6.95696">
        <ele>2088</ele>
        <time>2022-08-28T04:48:16Z</time>
      </trkpt>
      <trkpt lat="46.04228" lon="6.95697">
        <ele>2088</ele>
        <time>2022-08-28T04:48:17Z</time>
      </trkpt>
      <trkpt lat="46.04231" lon="6.95698">
        <ele>2086</ele>
        <time>2022-08-28T04:48:20Z</time>
      </trkpt>
      <trkpt lat="46.04234" lon="6.95699">
        <ele>2086</ele>
        <time>2022-08-28T04:48:21Z</time>
      </trkpt>
      <trkpt lat="46.04237" lon="6.957">
        <ele>2086</ele>
        <time>2022-08-28T04:48:23Z</time>
      </trkpt>
      <trkpt lat="46.0424" lon="6.95703">
        <ele>2086</ele>
        <time>2022-08-28T04:48:25Z</time>
      </trkpt>
      <trkpt lat="46.04242" lon="6.95704">
        <ele>2085</ele>
        <time>2022-08-28T04:48:28Z</time>
      </trkpt>
      <trkpt lat="46.04243" lon="6.95703">
        <ele>2085</ele>
        <time>2022-08-28T04:48:30Z</time>
      </trkpt>
      <trkpt lat="46.04243" lon="6.95699">
        <ele>2083</ele>
        <time>2022-08-28T04:48:33Z</time>
      </trkpt>
      <trkpt lat="46.04243" lon="6.95696">
        <ele>2083</ele>
        <time>2022-08-28T04:48:35Z</time>
      </trkpt>
      <trkpt lat="46.04244" lon="6.95693">
        <ele>2082</ele>
        <time>2022-08-28T04:48:36Z</time>
      </trkpt>
      <trkpt lat="46.04246" lon="6.95693">
        <ele>2080</ele>
        <time>2022-08-28T04:48:40Z</time>
      </trkpt>
      <trkpt lat="46.04247" lon="6.95696">
        <ele>2079</ele>
        <time>2022-08-28T04:48:42Z</time>
      </trkpt>
      <trkpt lat="46.04249" lon="6.957">
        <ele>2079</ele>
        <time>2022-08-28T04:48:43Z</time>
      </trkpt>
      <trkpt lat="46.04251" lon="6.95702">
        <ele>2078</ele>
        <time>2022-08-28T04:48:45Z</time>
      </trkpt>
      <trkpt lat="46.04252" lon="6.95704">
        <ele>2078</ele>
        <time>2022-08-28T04:48:47Z</time>
      </trkpt>
      <trkpt lat="46.04254" lon="6.95707">
        <ele>2077</ele>
        <time>2022-08-28T04:48:50Z</time>
      </trkpt>
      <trkpt lat="46.04255" lon="6.95708">
        <ele>2077</ele>
        <time>2022-08-28T04:48:52Z</time>
      </trkpt>
      <trkpt lat="46.04256" lon="6.9571">
        <ele>2077</ele>
        <time>2022-08-28T04:48:53Z</time>
      </trkpt>
      <trkpt lat="46.04257" lon="6.95712">
        <ele>2076</ele>
        <time>2022-08-28T04:48:54Z</time>
      </trkpt>
      <trkpt lat="46.04259" lon="6.95714">
        <ele>2076</ele>
        <time>2022-08-28T04:48:56Z</time>
      </trkpt>
      <trkpt lat="46.04261" lon="6.95717">
        <ele>2076</ele>
        <time>2022-08-28T04:48:58Z</time>
      </trkpt>
      <trkpt lat="46.04262" lon="6.95719">
        <ele>2076</ele>
        <time>2022-08-28T04:49:00Z</time>
      </trkpt>
      <trkpt lat="46.04264" lon="6.95722">
        <ele>2075</ele>
        <time>2022-08-28T04:49:02Z</time>
      </trkpt>
      <trkpt lat="46.04265" lon="6.95724">
        <ele>2074</ele>
        <time>2022-08-28T04:49:03Z</time>
      </trkpt>
      <trkpt lat="46.04267" lon="6.95726">
        <ele>2073</ele>
        <time>2022-08-28T04:49:05Z</time>
      </trkpt>
      <trkpt lat="46.04269" lon="6.95728">
        <ele>2073</ele>
        <time>2022-08-28T04:49:08Z</time>
      </trkpt>
      <trkpt lat="46.04272" lon="6.9573">
        <ele>2072</ele>
        <time>2022-08-28T04:49:10Z</time>
      </trkpt>
      <trkpt lat="46.04273" lon="6.95732">
        <ele>2072</ele>
        <time>2022-08-28T04:49:12Z</time>
      </trkpt>
      <trkpt lat="46.04272" lon="6.95728">
        <ele>2071</ele>
        <time>2022-08-28T04:49:17Z</time>
      </trkpt>
      <trkpt lat="46.04272" lon="6.95719">
        <ele>2070</ele>
        <time>2022-08-28T04:49:23Z</time>
      </trkpt>
      <trkpt lat="46.04273" lon="6.95715">
        <ele>2070</ele>
        <time>2022-08-28T04:49:25Z</time>
      </trkpt>
      <trkpt lat="46.04273" lon="6.95712">
        <ele>2070</ele>
        <time>2022-08-28T04:49:26Z</time>
      </trkpt>
      <trkpt lat="46.04272" lon="6.95709">
        <ele>2069</ele>
        <time>2022-08-28T04:49:28Z</time>
      </trkpt>
      <trkpt lat="46.04273" lon="6.95705">
        <ele>2068</ele>
        <time>2022-08-28T04:49:30Z</time>
      </trkpt>
      <trkpt lat="46.04273" lon="6.957">
        <ele>2067</ele>
        <time>2022-08-28T04:49:32Z</time>
      </trkpt>
      <trkpt lat="46.04273" lon="6.95697">
        <ele>2067</ele>
        <time>2022-08-28T04:49:34Z</time>
      </trkpt>
      <trkpt lat="46.04274" lon="6.95693">
        <ele>2067</ele>
        <time>2022-08-28T04:49:36Z</time>
      </trkpt>
      <trkpt lat="46.04274" lon="6.95689">
        <ele>2067</ele>
        <time>2022-08-28T04:49:39Z</time>
      </trkpt>
      <trkpt lat="46.04273" lon="6.95686">
        <ele>2067</ele>
        <time>2022-08-28T04:49:40Z</time>
      </trkpt>
      <trkpt lat="46.04273" lon="6.95685">
        <ele>2066</ele>
        <time>2022-08-28T04:49:41Z</time>
      </trkpt>
      <trkpt lat="46.04273" lon="6.95683">
        <ele>2066</ele>
        <time>2022-08-28T04:49:42Z</time>
      </trkpt>
      <trkpt lat="46.04272" lon="6.95682">
        <ele>2066</ele>
        <time>2022-08-28T04:49:43Z</time>
      </trkpt>
      <trkpt lat="46.04272" lon="6.9568">
        <ele>2064</ele>
        <time>2022-08-28T04:49:44Z</time>
      </trkpt>
      <trkpt lat="46.04271" lon="6.95677">
        <ele>2063</ele>
        <time>2022-08-28T04:49:47Z</time>
      </trkpt>
      <trkpt lat="46.0427" lon="6.95674">
        <ele>2063</ele>
        <time>2022-08-28T04:49:49Z</time>
      </trkpt>
      <trkpt lat="46.04269" lon="6.95671">
        <ele>2062</ele>
        <time>2022-08-28T04:49:51Z</time>
      </trkpt>
      <trkpt lat="46.04267" lon="6.95669">
        <ele>2062</ele>
        <time>2022-08-28T04:49:52Z</time>
      </trkpt>
      <trkpt lat="46.04266" lon="6.95666">
        <ele>2061</ele>
        <time>2022-08-28T04:49:55Z</time>
      </trkpt>
      <trkpt lat="46.04268" lon="6.95663">
        <ele>2061</ele>
        <time>2022-08-28T04:49:57Z</time>
      </trkpt>
      <trkpt lat="46.0427" lon="6.95664">
        <ele>2060</ele>
        <time>2022-08-28T04:50:00Z</time>
      </trkpt>
      <trkpt lat="46.04272" lon="6.95666">
        <ele>2060</ele>
        <time>2022-08-28T04:50:01Z</time>
      </trkpt>
      <trkpt lat="46.04273" lon="6.95667">
        <ele>2060</ele>
        <time>2022-08-28T04:50:05Z</time>
      </trkpt>
      <trkpt lat="46.04275" lon="6.95669">
        <ele>2059</ele>
        <time>2022-08-28T04:50:08Z</time>
      </trkpt>
      <trkpt lat="46.04277" lon="6.9567">
        <ele>2059</ele>
        <time>2022-08-28T04:50:09Z</time>
      </trkpt>
      <trkpt lat="46.04279" lon="6.95671">
        <ele>2058</ele>
        <time>2022-08-28T04:50:11Z</time>
      </trkpt>
      <trkpt lat="46.04281" lon="6.95672">
        <ele>2058</ele>
        <time>2022-08-28T04:50:12Z</time>
      </trkpt>
      <trkpt lat="46.04282" lon="6.95673">
        <ele>2058</ele>
        <time>2022-08-28T04:50:13Z</time>
      </trkpt>
      <trkpt lat="46.04284" lon="6.95674">
        <ele>2057</ele>
        <time>2022-08-28T04:50:14Z</time>
      </trkpt>
      <trkpt lat="46.04285" lon="6.95675">
        <ele>2057</ele>
        <time>2022-08-28T04:50:15Z</time>
      </trkpt>
      <trkpt lat="46.04286" lon="6.95676">
        <ele>2057</ele>
        <time>2022-08-28T04:50:16Z</time>
      </trkpt>
      <trkpt lat="46.04288" lon="6.95678">
        <ele>2057</ele>
        <time>2022-08-28T04:50:18Z</time>
      </trkpt>
      <trkpt lat="46.0429" lon="6.9568">
        <ele>2056</ele>
        <time>2022-08-28T04:50:20Z</time>
      </trkpt>
      <trkpt lat="46.04292" lon="6.95682">
        <ele>2055</ele>
        <time>2022-08-28T04:50:22Z</time>
      </trkpt>
      <trkpt lat="46.04293" lon="6.95684">
        <ele>2055</ele>
        <time>2022-08-28T04:50:24Z</time>
      </trkpt>
      <trkpt lat="46.04292" lon="6.95681">
        <ele>2054</ele>
        <time>2022-08-28T04:50:29Z</time>
      </trkpt>
      <trkpt lat="46.04291" lon="6.95675">
        <ele>2054</ele>
        <time>2022-08-28T04:50:31Z</time>
      </trkpt>
      <trkpt lat="46.0429" lon="6.95672">
        <ele>2053</ele>
        <time>2022-08-28T04:50:33Z</time>
      </trkpt>
      <trkpt lat="46.04288" lon="6.95669">
        <ele>2052</ele>
        <time>2022-08-28T04:50:36Z</time>
      </trkpt>
      <trkpt lat="46.04288" lon="6.95666">
        <ele>2052</ele>
        <time>2022-08-28T04:50:38Z</time>
      </trkpt>
      <trkpt lat="46.04287" lon="6.95663">
        <ele>2051</ele>
        <time>2022-08-28T04:50:40Z</time>
      </trkpt>
      <trkpt lat="46.04285" lon="6.95661">
        <ele>2051</ele>
        <time>2022-08-28T04:50:42Z</time>
      </trkpt>
      <trkpt lat="46.04283" lon="6.95659">
        <ele>2051</ele>
        <time>2022-08-28T04:50:43Z</time>
      </trkpt>
      <trkpt lat="46.04283" lon="6.95655">
        <ele>2050</ele>
        <time>2022-08-28T04:50:45Z</time>
      </trkpt>
      <trkpt lat="46.04282" lon="6.95651">
        <ele>2050</ele>
        <time>2022-08-28T04:50:47Z</time>
      </trkpt>
      <trkpt lat="46.0428" lon="6.95648">
        <ele>2049</ele>
        <time>2022-08-28T04:50:50Z</time>
      </trkpt>
      <trkpt lat="46.04279" lon="6.95645">
        <ele>2047</ele>
        <time>2022-08-28T04:50:52Z</time>
      </trkpt>
      <trkpt lat="46.04276" lon="6.95642">
        <ele>2047</ele>
        <time>2022-08-28T04:50:53Z</time>
      </trkpt>
      <trkpt lat="46.04276" lon="6.9564">
        <ele>2047</ele>
        <time>2022-08-28T04:50:55Z</time>
      </trkpt>
      <trkpt lat="46.04275" lon="6.95639">
        <ele>2047</ele>
        <time>2022-08-28T04:50:56Z</time>
      </trkpt>
      <trkpt lat="46.04275" lon="6.95637">
        <ele>2047</ele>
        <time>2022-08-28T04:50:57Z</time>
      </trkpt>
      <trkpt lat="46.04274" lon="6.95635">
        <ele>2047</ele>
        <time>2022-08-28T04:50:59Z</time>
      </trkpt>
      <trkpt lat="46.04274" lon="6.95633">
        <ele>2046</ele>
        <time>2022-08-28T04:51:00Z</time>
      </trkpt>
      <trkpt lat="46.04273" lon="6.95631">
        <ele>2046</ele>
        <time>2022-08-28T04:51:01Z</time>
      </trkpt>
      <trkpt lat="46.04273" lon="6.95629">
        <ele>2046</ele>
        <time>2022-08-28T04:51:02Z</time>
      </trkpt>
      <trkpt lat="46.04268" lon="6.95617">
        <ele>2045</ele>
        <time>2022-08-28T04:51:09Z</time>
      </trkpt>
      <trkpt lat="46.04264" lon="6.95605">
        <ele>2043</ele>
        <time>2022-08-28T04:51:16Z</time>
      </trkpt>
      <trkpt lat="46.04263" lon="6.95604">
        <ele>2042</ele>
        <time>2022-08-28T04:51:18Z</time>
      </trkpt>
      <trkpt lat="46.04262" lon="6.95602">
        <ele>2041</ele>
        <time>2022-08-28T04:51:19Z</time>
      </trkpt>
      <trkpt lat="46.04261" lon="6.95601">
        <ele>2041</ele>
        <time>2022-08-28T04:51:20Z</time>
      </trkpt>
      <trkpt lat="46.04259" lon="6.95599">
        <ele>2041</ele>
        <time>2022-08-28T04:51:21Z</time>
      </trkpt>
      <trkpt lat="46.04257" lon="6.95595">
        <ele>2041</ele>
        <time>2022-08-28T04:51:22Z</time>
      </trkpt>
      <trkpt lat="46.04254" lon="6.9559">
        <ele>2041</ele>
        <time>2022-08-28T04:51:24Z</time>
      </trkpt>
      <trkpt lat="46.04252" lon="6.95586">
        <ele>2041</ele>
        <time>2022-08-28T04:51:26Z</time>
      </trkpt>
      <trkpt lat="46.04251" lon="6.95585">
        <ele>2040</ele>
        <time>2022-08-28T04:51:28Z</time>
      </trkpt>
      <trkpt lat="46.0425" lon="6.95583">
        <ele>2040</ele>
        <time>2022-08-28T04:51:29Z</time>
      </trkpt>
      <trkpt lat="46.04249" lon="6.95581">
        <ele>2038</ele>
        <time>2022-08-28T04:51:30Z</time>
      </trkpt>
      <trkpt lat="46.04248" lon="6.95579">
        <ele>2038</ele>
        <time>2022-08-28T04:51:31Z</time>
      </trkpt>
      <trkpt lat="46.04247" lon="6.95577">
        <ele>2038</ele>
        <time>2022-08-28T04:51:32Z</time>
      </trkpt>
      <trkpt lat="46.04247" lon="6.95575">
        <ele>2038</ele>
        <time>2022-08-28T04:51:33Z</time>
      </trkpt>
      <trkpt lat="46.04246" lon="6.95572">
        <ele>2038</ele>
        <time>2022-08-28T04:51:34Z</time>
      </trkpt>
      <trkpt lat="46.04246" lon="6.95569">
        <ele>2038</ele>
        <time>2022-08-28T04:51:35Z</time>
      </trkpt>
      <trkpt lat="46.04245" lon="6.95567">
        <ele>2037</ele>
        <time>2022-08-28T04:51:37Z</time>
      </trkpt>
      <trkpt lat="46.04245" lon="6.95564">
        <ele>2036</ele>
        <time>2022-08-28T04:51:38Z</time>
      </trkpt>
      <trkpt lat="46.04244" lon="6.95561">
        <ele>2036</ele>
        <time>2022-08-28T04:51:39Z</time>
      </trkpt>
      <trkpt lat="46.04243" lon="6.95559">
        <ele>2036</ele>
        <time>2022-08-28T04:51:40Z</time>
      </trkpt>
      <trkpt lat="46.04242" lon="6.95556">
        <ele>2035</ele>
        <time>2022-08-28T04:51:42Z</time>
      </trkpt>
      <trkpt lat="46.04241" lon="6.95553">
        <ele>2035</ele>
        <time>2022-08-28T04:51:43Z</time>
      </trkpt>
      <trkpt lat="46.0424" lon="6.95551">
        <ele>2035</ele>
        <time>2022-08-28T04:51:44Z</time>
      </trkpt>
      <trkpt lat="46.0424" lon="6.95549">
        <ele>2035</ele>
        <time>2022-08-28T04:51:45Z</time>
      </trkpt>
      <trkpt lat="46.04239" lon="6.95547">
        <ele>2034</ele>
        <time>2022-08-28T04:51:47Z</time>
      </trkpt>
      <trkpt lat="46.04239" lon="6.95546">
        <ele>2033</ele>
        <time>2022-08-28T04:51:49Z</time>
      </trkpt>
      <trkpt lat="46.04239" lon="6.95544">
        <ele>2033</ele>
        <time>2022-08-28T04:51:50Z</time>
      </trkpt>
      <trkpt lat="46.04238" lon="6.95543">
        <ele>2033</ele>
        <time>2022-08-28T04:51:51Z</time>
      </trkpt>
      <trkpt lat="46.04238" lon="6.95541">
        <ele>2033</ele>
        <time>2022-08-28T04:51:52Z</time>
      </trkpt>
      <trkpt lat="46.04237" lon="6.9554">
        <ele>2033</ele>
        <time>2022-08-28T04:51:53Z</time>
      </trkpt>
      <trkpt lat="46.04237" lon="6.95538">
        <ele>2033</ele>
        <time>2022-08-28T04:51:54Z</time>
      </trkpt>
      <trkpt lat="46.04238" lon="6.95538">
        <ele>2033</ele>
        <time>2022-08-28T04:51:55Z</time>
      </trkpt>
      <trkpt lat="46.04238" lon="6.95539">
        <ele>2033</ele>
        <time>2022-08-28T04:51:56Z</time>
      </trkpt>
      <trkpt lat="46.04239" lon="6.95539">
        <ele>2033</ele>
        <time>2022-08-28T04:51:57Z</time>
      </trkpt>
      <trkpt lat="46.0424" lon="6.95539">
        <ele>2031</ele>
        <time>2022-08-28T04:51:59Z</time>
      </trkpt>
      <trkpt lat="46.04241" lon="6.95539">
        <ele>2031</ele>
        <time>2022-08-28T04:52:00Z</time>
      </trkpt>
      <trkpt lat="46.04241" lon="6.9554">
        <ele>2031</ele>
        <time>2022-08-28T04:52:01Z</time>
      </trkpt>
      <trkpt lat="46.04242" lon="6.9554">
        <ele>2031</ele>
        <time>2022-08-28T04:52:02Z</time>
      </trkpt>
      <trkpt lat="46.04243" lon="6.9554">
        <ele>2031</ele>
        <time>2022-08-28T04:52:03Z</time>
      </trkpt>
      <trkpt lat="46.04243" lon="6.9554">
        <ele>2030</ele>
        <time>2022-08-28T04:52:05Z</time>
      </trkpt>
      <trkpt lat="46.04244" lon="6.9554">
        <ele>2030</ele>
        <time>2022-08-28T04:52:06Z</time>
      </trkpt>
      <trkpt lat="46.04245" lon="6.95541">
        <ele>2030</ele>
        <time>2022-08-28T04:52:07Z</time>
      </trkpt>
      <trkpt lat="46.04246" lon="6.95541">
        <ele>2030</ele>
        <time>2022-08-28T04:52:08Z</time>
      </trkpt>
      <trkpt lat="46.04246" lon="6.95541">
        <ele>2029</ele>
        <time>2022-08-28T04:52:09Z</time>
      </trkpt>
      <trkpt lat="46.04256" lon="6.95543">
        <ele>2026</ele>
        <time>2022-08-28T04:52:19Z</time>
      </trkpt>
      <trkpt lat="46.04258" lon="6.95543">
        <ele>2025</ele>
        <time>2022-08-28T04:52:21Z</time>
      </trkpt>
      <trkpt lat="46.0426" lon="6.95543">
        <ele>2024</ele>
        <time>2022-08-28T04:52:22Z</time>
      </trkpt>
      <trkpt lat="46.04262" lon="6.95543">
        <ele>2024</ele>
        <time>2022-08-28T04:52:23Z</time>
      </trkpt>
      <trkpt lat="46.04263" lon="6.95543">
        <ele>2024</ele>
        <time>2022-08-28T04:52:24Z</time>
      </trkpt>
      <trkpt lat="46.04265" lon="6.95543">
        <ele>2024</ele>
        <time>2022-08-28T04:52:25Z</time>
      </trkpt>
      <trkpt lat="46.04265" lon="6.95541">
        <ele>2024</ele>
        <time>2022-08-28T04:52:26Z</time>
      </trkpt>
      <trkpt lat="46.04265" lon="6.9554">
        <ele>2024</ele>
        <time>2022-08-28T04:52:27Z</time>
      </trkpt>
      <trkpt lat="46.04264" lon="6.95539">
        <ele>2023</ele>
        <time>2022-08-28T04:52:29Z</time>
      </trkpt>
      <trkpt lat="46.04264" lon="6.95538">
        <ele>2023</ele>
        <time>2022-08-28T04:52:30Z</time>
      </trkpt>
      <trkpt lat="46.04264" lon="6.95537">
        <ele>2023</ele>
        <time>2022-08-28T04:52:31Z</time>
      </trkpt>
      <trkpt lat="46.04263" lon="6.95535">
        <ele>2023</ele>
        <time>2022-08-28T04:52:32Z</time>
      </trkpt>
      <trkpt lat="46.04263" lon="6.95534">
        <ele>2022</ele>
        <time>2022-08-28T04:52:34Z</time>
      </trkpt>
      <trkpt lat="46.04263" lon="6.95533">
        <ele>2022</ele>
        <time>2022-08-28T04:52:35Z</time>
      </trkpt>
      <trkpt lat="46.04263" lon="6.95532">
        <ele>2022</ele>
        <time>2022-08-28T04:52:36Z</time>
      </trkpt>
      <trkpt lat="46.04262" lon="6.9553">
        <ele>2021</ele>
        <time>2022-08-28T04:52:37Z</time>
      </trkpt>
      <trkpt lat="46.04261" lon="6.95516">
        <ele>2018</ele>
        <time>2022-08-28T04:52:46Z</time>
      </trkpt>
      <trkpt lat="46.0426" lon="6.95514">
        <ele>2018</ele>
        <time>2022-08-28T04:52:47Z</time>
      </trkpt>
      <trkpt lat="46.0426" lon="6.95512">
        <ele>2018</ele>
        <time>2022-08-28T04:52:48Z</time>
      </trkpt>
      <trkpt lat="46.0426" lon="6.9551">
        <ele>2017</ele>
        <time>2022-08-28T04:52:49Z</time>
      </trkpt>
      <trkpt lat="46.0426" lon="6.95507">
        <ele>2016</ele>
        <time>2022-08-28T04:52:51Z</time>
      </trkpt>
      <trkpt lat="46.04259" lon="6.95505">
        <ele>2016</ele>
        <time>2022-08-28T04:52:52Z</time>
      </trkpt>
      <trkpt lat="46.04259" lon="6.95503">
        <ele>2016</ele>
        <time>2022-08-28T04:52:53Z</time>
      </trkpt>
      <trkpt lat="46.04259" lon="6.95501">
        <ele>2016</ele>
        <time>2022-08-28T04:52:54Z</time>
      </trkpt>
      <trkpt lat="46.04258" lon="6.95499">
        <ele>2015</ele>
        <time>2022-08-28T04:52:55Z</time>
      </trkpt>
      <trkpt lat="46.04258" lon="6.95496">
        <ele>2015</ele>
        <time>2022-08-28T04:52:56Z</time>
      </trkpt>
      <trkpt lat="46.04257" lon="6.95494">
        <ele>2015</ele>
        <time>2022-08-28T04:52:58Z</time>
      </trkpt>
      <trkpt lat="46.04256" lon="6.95492">
        <ele>2014</ele>
        <time>2022-08-28T04:53:00Z</time>
      </trkpt>
      <trkpt lat="46.04256" lon="6.9549">
        <ele>2014</ele>
        <time>2022-08-28T04:53:01Z</time>
      </trkpt>
      <trkpt lat="46.04256" lon="6.95484">
        <ele>2014</ele>
        <time>2022-08-28T04:53:05Z</time>
      </trkpt>
      <trkpt lat="46.04256" lon="6.95481">
        <ele>2012</ele>
        <time>2022-08-28T04:53:07Z</time>
      </trkpt>
      <trkpt lat="46.04255" lon="6.95477">
        <ele>2012</ele>
        <time>2022-08-28T04:53:08Z</time>
      </trkpt>
      <trkpt lat="46.04255" lon="6.95475">
        <ele>2012</ele>
        <time>2022-08-28T04:53:10Z</time>
      </trkpt>
      <trkpt lat="46.04255" lon="6.95472">
        <ele>2011</ele>
        <time>2022-08-28T04:53:13Z</time>
      </trkpt>
      <trkpt lat="46.04254" lon="6.95469">
        <ele>2011</ele>
        <time>2022-08-28T04:53:15Z</time>
      </trkpt>
      <trkpt lat="46.04253" lon="6.95467">
        <ele>2010</ele>
        <time>2022-08-28T04:53:17Z</time>
      </trkpt>
      <trkpt lat="46.04251" lon="6.95464">
        <ele>2010</ele>
        <time>2022-08-28T04:53:18Z</time>
      </trkpt>
      <trkpt lat="46.0425" lon="6.95461">
        <ele>2009</ele>
        <time>2022-08-28T04:53:19Z</time>
      </trkpt>
      <trkpt lat="46.04249" lon="6.95459">
        <ele>2008</ele>
        <time>2022-08-28T04:53:20Z</time>
      </trkpt>
      <trkpt lat="46.04245" lon="6.95447">
        <ele>2007</ele>
        <time>2022-08-28T04:53:27Z</time>
      </trkpt>
      <trkpt lat="46.04245" lon="6.95444">
        <ele>2007</ele>
        <time>2022-08-28T04:53:29Z</time>
      </trkpt>
      <trkpt lat="46.04244" lon="6.95441">
        <ele>2007</ele>
        <time>2022-08-28T04:53:30Z</time>
      </trkpt>
      <trkpt lat="46.04244" lon="6.95439">
        <ele>2007</ele>
        <time>2022-08-28T04:53:32Z</time>
      </trkpt>
      <trkpt lat="46.04244" lon="6.95436">
        <ele>2007</ele>
        <time>2022-08-28T04:53:34Z</time>
      </trkpt>
      <trkpt lat="46.04244" lon="6.95433">
        <ele>2006</ele>
        <time>2022-08-28T04:53:35Z</time>
      </trkpt>
      <trkpt lat="46.04244" lon="6.95432">
        <ele>2006</ele>
        <time>2022-08-28T04:53:36Z</time>
      </trkpt>
      <trkpt lat="46.04244" lon="6.9543">
        <ele>2006</ele>
        <time>2022-08-28T04:53:37Z</time>
      </trkpt>
      <trkpt lat="46.04244" lon="6.95429">
        <ele>2006</ele>
        <time>2022-08-28T04:53:38Z</time>
      </trkpt>
      <trkpt lat="46.04245" lon="6.95427">
        <ele>2006</ele>
        <time>2022-08-28T04:53:40Z</time>
      </trkpt>
      <trkpt lat="46.04245" lon="6.95426">
        <ele>2005</ele>
        <time>2022-08-28T04:53:41Z</time>
      </trkpt>
      <trkpt lat="46.04245" lon="6.95424">
        <ele>2005</ele>
        <time>2022-08-28T04:53:42Z</time>
      </trkpt>
      <trkpt lat="46.04245" lon="6.95423">
        <ele>2005</ele>
        <time>2022-08-28T04:53:43Z</time>
      </trkpt>
      <trkpt lat="46.04245" lon="6.95422">
        <ele>2005</ele>
        <time>2022-08-28T04:53:44Z</time>
      </trkpt>
      <trkpt lat="46.04246" lon="6.9542">
        <ele>2003</ele>
        <time>2022-08-28T04:53:45Z</time>
      </trkpt>
      <trkpt lat="46.04248" lon="6.95417">
        <ele>2003</ele>
        <time>2022-08-28T04:53:46Z</time>
      </trkpt>
      <trkpt lat="46.0425" lon="6.95414">
        <ele>2003</ele>
        <time>2022-08-28T04:53:47Z</time>
      </trkpt>
      <trkpt lat="46.04252" lon="6.95411">
        <ele>2002</ele>
        <time>2022-08-28T04:53:48Z</time>
      </trkpt>
      <trkpt lat="46.04254" lon="6.95409">
        <ele>2001</ele>
        <time>2022-08-28T04:53:50Z</time>
      </trkpt>
      <trkpt lat="46.04256" lon="6.95407">
        <ele>2001</ele>
        <time>2022-08-28T04:53:51Z</time>
      </trkpt>
      <trkpt lat="46.04258" lon="6.95405">
        <ele>2000</ele>
        <time>2022-08-28T04:53:52Z</time>
      </trkpt>
      <trkpt lat="46.04261" lon="6.95404">
        <ele>2000</ele>
        <time>2022-08-28T04:53:53Z</time>
      </trkpt>
      <trkpt lat="46.04268" lon="6.95394">
        <ele>1997</ele>
        <time>2022-08-28T04:54:02Z</time>
      </trkpt>
      <trkpt lat="46.04267" lon="6.95393">
        <ele>1996</ele>
        <time>2022-08-28T04:54:03Z</time>
      </trkpt>
      <trkpt lat="46.04267" lon="6.95391">
        <ele>1995</ele>
        <time>2022-08-28T04:54:04Z</time>
      </trkpt>
      <trkpt lat="46.04267" lon="6.95389">
        <ele>1995</ele>
        <time>2022-08-28T04:54:05Z</time>
      </trkpt>
      <trkpt lat="46.04267" lon="6.95387">
        <ele>1995</ele>
        <time>2022-08-28T04:54:07Z</time>
      </trkpt>
      <trkpt lat="46.04267" lon="6.95385">
        <ele>1995</ele>
        <time>2022-08-28T04:54:08Z</time>
      </trkpt>
      <trkpt lat="46.04267" lon="6.95383">
        <ele>1995</ele>
        <time>2022-08-28T04:54:09Z</time>
      </trkpt>
      <trkpt lat="46.04267" lon="6.95381">
        <ele>1994</ele>
        <time>2022-08-28T04:54:10Z</time>
      </trkpt>
      <trkpt lat="46.04268" lon="6.95367">
        <ele>1993</ele>
        <time>2022-08-28T04:54:15Z</time>
      </trkpt>
      <trkpt lat="46.04269" lon="6.95364">
        <ele>1993</ele>
        <time>2022-08-28T04:54:16Z</time>
      </trkpt>
      <trkpt lat="46.0427" lon="6.9536">
        <ele>1993</ele>
        <time>2022-08-28T04:54:17Z</time>
      </trkpt>
      <trkpt lat="46.04271" lon="6.95357">
        <ele>1993</ele>
        <time>2022-08-28T04:54:19Z</time>
      </trkpt>
      <trkpt lat="46.04272" lon="6.95353">
        <ele>1993</ele>
        <time>2022-08-28T04:54:20Z</time>
      </trkpt>
      <trkpt lat="46.04273" lon="6.95351">
        <ele>1992</ele>
        <time>2022-08-28T04:54:21Z</time>
      </trkpt>
      <trkpt lat="46.04273" lon="6.95348">
        <ele>1992</ele>
        <time>2022-08-28T04:54:23Z</time>
      </trkpt>
      <trkpt lat="46.04274" lon="6.95346">
        <ele>1992</ele>
        <time>2022-08-28T04:54:24Z</time>
      </trkpt>
      <trkpt lat="46.04275" lon="6.95344">
        <ele>1991</ele>
        <time>2022-08-28T04:54:25Z</time>
      </trkpt>
      <trkpt lat="46.04276" lon="6.95341">
        <ele>1991</ele>
        <time>2022-08-28T04:54:26Z</time>
      </trkpt>
      <trkpt lat="46.04277" lon="6.95338">
        <ele>1990</ele>
        <time>2022-08-28T04:54:28Z</time>
      </trkpt>
      <trkpt lat="46.04277" lon="6.95335">
        <ele>1990</ele>
        <time>2022-08-28T04:54:29Z</time>
      </trkpt>
      <trkpt lat="46.04278" lon="6.95333">
        <ele>1990</ele>
        <time>2022-08-28T04:54:30Z</time>
      </trkpt>
      <trkpt lat="46.0428" lon="6.9533">
        <ele>1989</ele>
        <time>2022-08-28T04:54:31Z</time>
      </trkpt>
      <trkpt lat="46.04282" lon="6.95325">
        <ele>1988</ele>
        <time>2022-08-28T04:54:37Z</time>
      </trkpt>
      <trkpt lat="46.04281" lon="6.95323">
        <ele>1985</ele>
        <time>2022-08-28T04:54:39Z</time>
      </trkpt>
      <trkpt lat="46.04281" lon="6.9532">
        <ele>1984</ele>
        <time>2022-08-28T04:54:40Z</time>
      </trkpt>
      <trkpt lat="46.0428" lon="6.95318">
        <ele>1984</ele>
        <time>2022-08-28T04:54:41Z</time>
      </trkpt>
      <trkpt lat="46.0428" lon="6.95316">
        <ele>1984</ele>
        <time>2022-08-28T04:54:42Z</time>
      </trkpt>
      <trkpt lat="46.04278" lon="6.95308">
        <ele>1983</ele>
        <time>2022-08-28T04:54:44Z</time>
      </trkpt>
      <trkpt lat="46.04277" lon="6.95304">
        <ele>1982</ele>
        <time>2022-08-28T04:54:46Z</time>
      </trkpt>
      <trkpt lat="46.04276" lon="6.95298">
        <ele>1982</ele>
        <time>2022-08-28T04:54:48Z</time>
      </trkpt>
      <trkpt lat="46.04276" lon="6.95297">
        <ele>1982</ele>
        <time>2022-08-28T04:54:49Z</time>
      </trkpt>
      <trkpt lat="46.04276" lon="6.95297">
        <ele>1981</ele>
        <time>2022-08-28T04:54:50Z</time>
      </trkpt>
      <trkpt lat="46.04276" lon="6.95296">
        <ele>1981</ele>
        <time>2022-08-28T04:54:51Z</time>
      </trkpt>
      <trkpt lat="46.04276" lon="6.95295">
        <ele>1981</ele>
        <time>2022-08-28T04:54:53Z</time>
      </trkpt>
      <trkpt lat="46.04276" lon="6.95294">
        <ele>1981</ele>
        <time>2022-08-28T04:54:54Z</time>
      </trkpt>
      <trkpt lat="46.04276" lon="6.95293">
        <ele>1981</ele>
        <time>2022-08-28T04:54:55Z</time>
      </trkpt>
      <trkpt lat="46.04277" lon="6.95279">
        <ele>1981</ele>
        <time>2022-08-28T04:54:57Z</time>
      </trkpt>
      <trkpt lat="46.04278" lon="6.95275">
        <ele>1981</ele>
        <time>2022-08-28T04:54:58Z</time>
      </trkpt>
      <trkpt lat="46.04279" lon="6.95271">
        <ele>1981</ele>
        <time>2022-08-28T04:54:59Z</time>
      </trkpt>
      <trkpt lat="46.04282" lon="6.95266">
        <ele>1981</ele>
        <time>2022-08-28T04:55:01Z</time>
      </trkpt>
      <trkpt lat="46.04284" lon="6.95261">
        <ele>1981</ele>
        <time>2022-08-28T04:55:02Z</time>
      </trkpt>
      <trkpt lat="46.04286" lon="6.95259">
        <ele>1981</ele>
        <time>2022-08-28T04:55:04Z</time>
      </trkpt>
      <trkpt lat="46.04288" lon="6.95257">
        <ele>1981</ele>
        <time>2022-08-28T04:55:05Z</time>
      </trkpt>
      <trkpt lat="46.04289" lon="6.95253">
        <ele>1981</ele>
        <time>2022-08-28T04:55:06Z</time>
      </trkpt>
      <trkpt lat="46.04291" lon="6.9525">
        <ele>1981</ele>
        <time>2022-08-28T04:55:09Z</time>
      </trkpt>
      <trkpt lat="46.04293" lon="6.95248">
        <ele>1981</ele>
        <time>2022-08-28T04:55:10Z</time>
      </trkpt>
      <trkpt lat="46.04295" lon="6.95246">
        <ele>1981</ele>
        <time>2022-08-28T04:55:11Z</time>
      </trkpt>
      <trkpt lat="46.04297" lon="6.95244">
        <ele>1981</ele>
        <time>2022-08-28T04:55:12Z</time>
      </trkpt>
      <trkpt lat="46.04298" lon="6.95243">
        <ele>1981</ele>
        <time>2022-08-28T04:55:13Z</time>
      </trkpt>
      <trkpt lat="46.04301" lon="6.9524">
        <ele>1981</ele>
        <time>2022-08-28T04:55:15Z</time>
      </trkpt>
      <trkpt lat="46.04304" lon="6.95236">
        <ele>1981</ele>
        <time>2022-08-28T04:55:18Z</time>
      </trkpt>
      <trkpt lat="46.04305" lon="6.95233">
        <ele>1981</ele>
        <time>2022-08-28T04:55:20Z</time>
      </trkpt>
      <trkpt lat="46.04305" lon="6.9523">
        <ele>1981</ele>
        <time>2022-08-28T04:55:21Z</time>
      </trkpt>
      <trkpt lat="46.04305" lon="6.95228">
        <ele>1981</ele>
        <time>2022-08-28T04:55:22Z</time>
      </trkpt>
      <trkpt lat="46.04305" lon="6.95225">
        <ele>1981</ele>
        <time>2022-08-28T04:55:23Z</time>
      </trkpt>
      <trkpt lat="46.04306" lon="6.95224">
        <ele>1980</ele>
        <time>2022-08-28T04:55:25Z</time>
      </trkpt>
      <trkpt lat="46.04307" lon="6.95223">
        <ele>1980</ele>
        <time>2022-08-28T04:55:26Z</time>
      </trkpt>
      <trkpt lat="46.04308" lon="6.95222">
        <ele>1980</ele>
        <time>2022-08-28T04:55:27Z</time>
      </trkpt>
      <trkpt lat="46.04309" lon="6.9522">
        <ele>1980</ele>
        <time>2022-08-28T04:55:28Z</time>
      </trkpt>
      <trkpt lat="46.04316" lon="6.95211">
        <ele>1980</ele>
        <time>2022-08-28T04:55:30Z</time>
      </trkpt>
      <trkpt lat="46.04318" lon="6.95209">
        <ele>1980</ele>
        <time>2022-08-28T04:55:32Z</time>
      </trkpt>
      <trkpt lat="46.04319" lon="6.95207">
        <ele>1980</ele>
        <time>2022-08-28T04:55:33Z</time>
      </trkpt>
      <trkpt lat="46.04321" lon="6.95205">
        <ele>1980</ele>
        <time>2022-08-28T04:55:34Z</time>
      </trkpt>
      <trkpt lat="46.04324" lon="6.95202">
        <ele>1980</ele>
        <time>2022-08-28T04:55:35Z</time>
      </trkpt>
      <trkpt lat="46.04326" lon="6.95199">
        <ele>1980</ele>
        <time>2022-08-28T04:55:37Z</time>
      </trkpt>
      <trkpt lat="46.04327" lon="6.95197">
        <ele>1981</ele>
        <time>2022-08-28T04:55:38Z</time>
      </trkpt>
      <trkpt lat="46.04328" lon="6.95195">
        <ele>1981</ele>
        <time>2022-08-28T04:55:39Z</time>
      </trkpt>
      <trkpt lat="46.04329" lon="6.95193">
        <ele>1981</ele>
        <time>2022-08-28T04:55:40Z</time>
      </trkpt>
      <trkpt lat="46.0433" lon="6.95191">
        <ele>1981</ele>
        <time>2022-08-28T04:55:41Z</time>
      </trkpt>
      <trkpt lat="46.04331" lon="6.95187">
        <ele>1981</ele>
        <time>2022-08-28T04:55:44Z</time>
      </trkpt>
      <trkpt lat="46.04332" lon="6.95183">
        <ele>1981</ele>
        <time>2022-08-28T04:55:46Z</time>
      </trkpt>
      <trkpt lat="46.04334" lon="6.95179">
        <ele>1981</ele>
        <time>2022-08-28T04:55:47Z</time>
      </trkpt>
      <trkpt lat="46.04337" lon="6.95176">
        <ele>1981</ele>
        <time>2022-08-28T04:55:49Z</time>
      </trkpt>
      <trkpt lat="46.04335" lon="6.95177">
        <ele>1981</ele>
        <time>2022-08-28T04:55:51Z</time>
      </trkpt>
      <trkpt lat="46.04332" lon="6.95178">
        <ele>1981</ele>
        <time>2022-08-28T04:55:53Z</time>
      </trkpt>
      <trkpt lat="46.04334" lon="6.95174">
        <ele>1981</ele>
        <time>2022-08-28T04:55:57Z</time>
      </trkpt>
      <trkpt lat="46.04335" lon="6.95172">
        <ele>1981</ele>
        <time>2022-08-28T04:55:59Z</time>
      </trkpt>
      <trkpt lat="46.04336" lon="6.95169">
        <ele>1981</ele>
        <time>2022-08-28T04:56:01Z</time>
      </trkpt>
      <trkpt lat="46.04338" lon="6.95167">
        <ele>1981</ele>
        <time>2022-08-28T04:56:03Z</time>
      </trkpt>
      <trkpt lat="46.0434" lon="6.95166">
        <ele>1981</ele>
        <time>2022-08-28T04:56:05Z</time>
      </trkpt>
      <trkpt lat="46.04342" lon="6.95164">
        <ele>1981</ele>
        <time>2022-08-28T04:56:08Z</time>
      </trkpt>
      <trkpt lat="46.04344" lon="6.95161">
        <ele>1981</ele>
        <time>2022-08-28T04:56:10Z</time>
      </trkpt>
      <trkpt lat="46.04347" lon="6.95159">
        <ele>1981</ele>
        <time>2022-08-28T04:56:12Z</time>
      </trkpt>
      <trkpt lat="46.04349" lon="6.95154">
        <ele>1981</ele>
        <time>2022-08-28T04:56:14Z</time>
      </trkpt>
      <trkpt lat="46.0435" lon="6.95152">
        <ele>1981</ele>
        <time>2022-08-28T04:56:15Z</time>
      </trkpt>
      <trkpt lat="46.04351" lon="6.95148">
        <ele>1981</ele>
        <time>2022-08-28T04:56:18Z</time>
      </trkpt>
      <trkpt lat="46.04352" lon="6.95144">
        <ele>1981</ele>
        <time>2022-08-28T04:56:20Z</time>
      </trkpt>
      <trkpt lat="46.04352" lon="6.9514">
        <ele>1981</ele>
        <time>2022-08-28T04:56:21Z</time>
      </trkpt>
      <trkpt lat="46.04353" lon="6.95136">
        <ele>1981</ele>
        <time>2022-08-28T04:56:23Z</time>
      </trkpt>
      <trkpt lat="46.04353" lon="6.95131">
        <ele>1980</ele>
        <time>2022-08-28T04:56:25Z</time>
      </trkpt>
      <trkpt lat="46.04353" lon="6.95127">
        <ele>1980</ele>
        <time>2022-08-28T04:56:28Z</time>
      </trkpt>
      <trkpt lat="46.04354" lon="6.95123">
        <ele>1980</ele>
        <time>2022-08-28T04:56:30Z</time>
      </trkpt>
      <trkpt lat="46.04354" lon="6.95118">
        <ele>1980</ele>
        <time>2022-08-28T04:56:31Z</time>
      </trkpt>
      <trkpt lat="46.04354" lon="6.95114">
        <ele>1979</ele>
        <time>2022-08-28T04:56:33Z</time>
      </trkpt>
      <trkpt lat="46.04354" lon="6.9511">
        <ele>1978</ele>
        <time>2022-08-28T04:56:35Z</time>
      </trkpt>
      <trkpt lat="46.04354" lon="6.95106">
        <ele>1978</ele>
        <time>2022-08-28T04:56:37Z</time>
      </trkpt>
      <trkpt lat="46.04356" lon="6.95102">
        <ele>1978</ele>
        <time>2022-08-28T04:56:40Z</time>
      </trkpt>
      <trkpt lat="46.04357" lon="6.95098">
        <ele>1977</ele>
        <time>2022-08-28T04:56:42Z</time>
      </trkpt>
      <trkpt lat="46.04359" lon="6.95094">
        <ele>1977</ele>
        <time>2022-08-28T04:56:44Z</time>
      </trkpt>
      <trkpt lat="46.0436" lon="6.95091">
        <ele>1977</ele>
        <time>2022-08-28T04:56:45Z</time>
      </trkpt>
      <trkpt lat="46.04361" lon="6.95088">
        <ele>1976</ele>
        <time>2022-08-28T04:56:48Z</time>
      </trkpt>
      <trkpt lat="46.04363" lon="6.95085">
        <ele>1976</ele>
        <time>2022-08-28T04:56:50Z</time>
      </trkpt>
      <trkpt lat="46.04365" lon="6.95081">
        <ele>1975</ele>
        <time>2022-08-28T04:56:52Z</time>
      </trkpt>
      <trkpt lat="46.04366" lon="6.9508">
        <ele>1973</ele>
        <time>2022-08-28T04:56:53Z</time>
      </trkpt>
      <trkpt lat="46.04367" lon="6.95076">
        <ele>1973</ele>
        <time>2022-08-28T04:56:55Z</time>
      </trkpt>
      <trkpt lat="46.04368" lon="6.95073">
        <ele>1973</ele>
        <time>2022-08-28T04:56:56Z</time>
      </trkpt>
      <trkpt lat="46.04368" lon="6.95069">
        <ele>1973</ele>
        <time>2022-08-28T04:56:59Z</time>
      </trkpt>
      <trkpt lat="46.04368" lon="6.95065">
        <ele>1972</ele>
        <time>2022-08-28T04:57:02Z</time>
      </trkpt>
      <trkpt lat="46.04367" lon="6.95062">
        <ele>1971</ele>
        <time>2022-08-28T04:57:05Z</time>
      </trkpt>
      <trkpt lat="46.04365" lon="6.95059">
        <ele>1971</ele>
        <time>2022-08-28T04:57:08Z</time>
      </trkpt>
      <trkpt lat="46.04363" lon="6.95058">
        <ele>1971</ele>
        <time>2022-08-28T04:57:10Z</time>
      </trkpt>
      <trkpt lat="46.04361" lon="6.95056">
        <ele>1971</ele>
        <time>2022-08-28T04:57:11Z</time>
      </trkpt>
      <trkpt lat="46.04358" lon="6.95055">
        <ele>1969</ele>
        <time>2022-08-28T04:57:13Z</time>
      </trkpt>
      <trkpt lat="46.04356" lon="6.95053">
        <ele>1969</ele>
        <time>2022-08-28T04:57:15Z</time>
      </trkpt>
      <trkpt lat="46.04354" lon="6.95051">
        <ele>1969</ele>
        <time>2022-08-28T04:57:17Z</time>
      </trkpt>
      <trkpt lat="46.04352" lon="6.95049">
        <ele>1968</ele>
        <time>2022-08-28T04:57:20Z</time>
      </trkpt>
      <trkpt lat="46.04349" lon="6.95047">
        <ele>1968</ele>
        <time>2022-08-28T04:57:21Z</time>
      </trkpt>
      <trkpt lat="46.04347" lon="6.95044">
        <ele>1967</ele>
        <time>2022-08-28T04:57:24Z</time>
      </trkpt>
      <trkpt lat="46.04346" lon="6.95042">
        <ele>1967</ele>
        <time>2022-08-28T04:57:25Z</time>
      </trkpt>
      <trkpt lat="46.04345" lon="6.9504">
        <ele>1967</ele>
        <time>2022-08-28T04:57:26Z</time>
      </trkpt>
      <trkpt lat="46.04344" lon="6.95038">
        <ele>1965</ele>
        <time>2022-08-28T04:57:27Z</time>
      </trkpt>
      <trkpt lat="46.04342" lon="6.95036">
        <ele>1965</ele>
        <time>2022-08-28T04:57:29Z</time>
      </trkpt>
      <trkpt lat="46.04341" lon="6.95033">
        <ele>1965</ele>
        <time>2022-08-28T04:57:30Z</time>
      </trkpt>
      <trkpt lat="46.0434" lon="6.95031">
        <ele>1965</ele>
        <time>2022-08-28T04:57:31Z</time>
      </trkpt>
      <trkpt lat="46.04339" lon="6.95027">
        <ele>1964</ele>
        <time>2022-08-28T04:57:34Z</time>
      </trkpt>
      <trkpt lat="46.04337" lon="6.95024">
        <ele>1964</ele>
        <time>2022-08-28T04:57:36Z</time>
      </trkpt>
      <trkpt lat="46.04336" lon="6.95021">
        <ele>1964</ele>
        <time>2022-08-28T04:57:37Z</time>
      </trkpt>
      <trkpt lat="46.04335" lon="6.95017">
        <ele>1963</ele>
        <time>2022-08-28T04:57:39Z</time>
      </trkpt>
      <trkpt lat="46.04332" lon="6.95011">
        <ele>1963</ele>
        <time>2022-08-28T04:57:41Z</time>
      </trkpt>
      <trkpt lat="46.04332" lon="6.9501">
        <ele>1962</ele>
        <time>2022-08-28T04:57:42Z</time>
      </trkpt>
      <trkpt lat="46.04331" lon="6.95008">
        <ele>1962</ele>
        <time>2022-08-28T04:57:43Z</time>
      </trkpt>
      <trkpt lat="46.04331" lon="6.95005">
        <ele>1962</ele>
        <time>2022-08-28T04:57:44Z</time>
      </trkpt>
      <trkpt lat="46.04332" lon="6.94999">
        <ele>1960</ele>
        <time>2022-08-28T04:57:46Z</time>
      </trkpt>
      <trkpt lat="46.04333" lon="6.94996">
        <ele>1960</ele>
        <time>2022-08-28T04:57:48Z</time>
      </trkpt>
      <trkpt lat="46.04334" lon="6.94994">
        <ele>1959</ele>
        <time>2022-08-28T04:57:49Z</time>
      </trkpt>
      <trkpt lat="46.04336" lon="6.94991">
        <ele>1958</ele>
        <time>2022-08-28T04:57:50Z</time>
      </trkpt>
      <trkpt lat="46.04338" lon="6.94992">
        <ele>1958</ele>
        <time>2022-08-28T04:57:52Z</time>
      </trkpt>
      <trkpt lat="46.0434" lon="6.94993">
        <ele>1958</ele>
        <time>2022-08-28T04:57:54Z</time>
      </trkpt>
      <trkpt lat="46.04343" lon="6.94994">
        <ele>1957</ele>
        <time>2022-08-28T04:57:55Z</time>
      </trkpt>
      <trkpt lat="46.04345" lon="6.94995">
        <ele>1957</ele>
        <time>2022-08-28T04:57:56Z</time>
      </trkpt>
      <trkpt lat="46.04351" lon="6.94999">
        <ele>1956</ele>
        <time>2022-08-28T04:57:58Z</time>
      </trkpt>
      <trkpt lat="46.04352" lon="6.94999">
        <ele>1956</ele>
        <time>2022-08-28T04:57:59Z</time>
      </trkpt>
      <trkpt lat="46.04354" lon="6.95">
        <ele>1956</ele>
        <time>2022-08-28T04:58:00Z</time>
      </trkpt>
      <trkpt lat="46.04358" lon="6.95001">
        <ele>1956</ele>
        <time>2022-08-28T04:58:02Z</time>
      </trkpt>
      <trkpt lat="46.04367" lon="6.95006">
        <ele>1954</ele>
        <time>2022-08-28T04:58:07Z</time>
      </trkpt>
      <trkpt lat="46.04376" lon="6.95007">
        <ele>1953</ele>
        <time>2022-08-28T04:58:12Z</time>
      </trkpt>
      <trkpt lat="46.04376" lon="6.95006">
        <ele>1953</ele>
        <time>2022-08-28T04:58:13Z</time>
      </trkpt>
      <trkpt lat="46.04375" lon="6.95005">
        <ele>1953</ele>
        <time>2022-08-28T04:58:14Z</time>
      </trkpt>
      <trkpt lat="46.04375" lon="6.95003">
        <ele>1952</ele>
        <time>2022-08-28T04:58:15Z</time>
      </trkpt>
      <trkpt lat="46.04374" lon="6.95002">
        <ele>1952</ele>
        <time>2022-08-28T04:58:16Z</time>
      </trkpt>
      <trkpt lat="46.04374" lon="6.95001">
        <ele>1952</ele>
        <time>2022-08-28T04:58:17Z</time>
      </trkpt>
      <trkpt lat="46.04373" lon="6.95">
        <ele>1952</ele>
        <time>2022-08-28T04:58:18Z</time>
      </trkpt>
      <trkpt lat="46.04373" lon="6.94999">
        <ele>1952</ele>
        <time>2022-08-28T04:58:19Z</time>
      </trkpt>
      <trkpt lat="46.04372" lon="6.94998">
        <ele>1951</ele>
        <time>2022-08-28T04:58:20Z</time>
      </trkpt>
      <trkpt lat="46.04372" lon="6.94996">
        <ele>1951</ele>
        <time>2022-08-28T04:58:21Z</time>
      </trkpt>
      <trkpt lat="46.04371" lon="6.94995">
        <ele>1951</ele>
        <time>2022-08-28T04:58:22Z</time>
      </trkpt>
      <trkpt lat="46.04364" lon="6.94985">
        <ele>1948</ele>
        <time>2022-08-28T04:58:28Z</time>
      </trkpt>
      <trkpt lat="46.04363" lon="6.94983">
        <ele>1948</ele>
        <time>2022-08-28T04:58:30Z</time>
      </trkpt>
      <trkpt lat="46.04362" lon="6.94981">
        <ele>1947</ele>
        <time>2022-08-28T04:58:31Z</time>
      </trkpt>
      <trkpt lat="46.04361" lon="6.9498">
        <ele>1947</ele>
        <time>2022-08-28T04:58:32Z</time>
      </trkpt>
      <trkpt lat="46.0436" lon="6.94978">
        <ele>1947</ele>
        <time>2022-08-28T04:58:33Z</time>
      </trkpt>
      <trkpt lat="46.04359" lon="6.94976">
        <ele>1947</ele>
        <time>2022-08-28T04:58:34Z</time>
      </trkpt>
      <trkpt lat="46.04358" lon="6.94974">
        <ele>1947</ele>
        <time>2022-08-28T04:58:35Z</time>
      </trkpt>
      <trkpt lat="46.04357" lon="6.94971">
        <ele>1946</ele>
        <time>2022-08-28T04:58:36Z</time>
      </trkpt>
      <trkpt lat="46.04356" lon="6.94968">
        <ele>1946</ele>
        <time>2022-08-28T04:58:37Z</time>
      </trkpt>
      <trkpt lat="46.04355" lon="6.94965">
        <ele>1946</ele>
        <time>2022-08-28T04:58:38Z</time>
      </trkpt>
      <trkpt lat="46.04354" lon="6.94963">
        <ele>1945</ele>
        <time>2022-08-28T04:58:39Z</time>
      </trkpt>
      <trkpt lat="46.04353" lon="6.9496">
        <ele>1945</ele>
        <time>2022-08-28T04:58:40Z</time>
      </trkpt>
      <trkpt lat="46.04352" lon="6.94957">
        <ele>1944</ele>
        <time>2022-08-28T04:58:41Z</time>
      </trkpt>
      <trkpt lat="46.0435" lon="6.94954">
        <ele>1944</ele>
        <time>2022-08-28T04:58:42Z</time>
      </trkpt>
      <trkpt lat="46.04349" lon="6.94951">
        <ele>1944</ele>
        <time>2022-08-28T04:58:43Z</time>
      </trkpt>
      <trkpt lat="46.04348" lon="6.94946">
        <ele>1944</ele>
        <time>2022-08-28T04:58:45Z</time>
      </trkpt>
      <trkpt lat="46.04345" lon="6.94942">
        <ele>1942</ele>
        <time>2022-08-28T04:58:47Z</time>
      </trkpt>
      <trkpt lat="46.04344" lon="6.94937">
        <ele>1941</ele>
        <time>2022-08-28T04:58:50Z</time>
      </trkpt>
      <trkpt lat="46.04342" lon="6.94934">
        <ele>1941</ele>
        <time>2022-08-28T04:58:52Z</time>
      </trkpt>
      <trkpt lat="46.04341" lon="6.9493">
        <ele>1941</ele>
        <time>2022-08-28T04:58:53Z</time>
      </trkpt>
      <trkpt lat="46.0434" lon="6.94927">
        <ele>1941</ele>
        <time>2022-08-28T04:58:55Z</time>
      </trkpt>
      <trkpt lat="46.04339" lon="6.94925">
        <ele>1940</ele>
        <time>2022-08-28T04:58:57Z</time>
      </trkpt>
      <trkpt lat="46.04338" lon="6.94923">
        <ele>1939</ele>
        <time>2022-08-28T04:58:58Z</time>
      </trkpt>
      <trkpt lat="46.04338" lon="6.9492">
        <ele>1939</ele>
        <time>2022-08-28T04:58:59Z</time>
      </trkpt>
      <trkpt lat="46.04337" lon="6.94918">
        <ele>1939</ele>
        <time>2022-08-28T04:59:00Z</time>
      </trkpt>
      <trkpt lat="46.04336" lon="6.94916">
        <ele>1939</ele>
        <time>2022-08-28T04:59:01Z</time>
      </trkpt>
      <trkpt lat="46.04334" lon="6.949">
        <ele>1937</ele>
        <time>2022-08-28T04:59:06Z</time>
      </trkpt>
      <trkpt lat="46.04337" lon="6.94886">
        <ele>1935</ele>
        <time>2022-08-28T04:59:11Z</time>
      </trkpt>
      <trkpt lat="46.04338" lon="6.94883">
        <ele>1935</ele>
        <time>2022-08-28T04:59:12Z</time>
      </trkpt>
      <trkpt lat="46.04338" lon="6.9488">
        <ele>1934</ele>
        <time>2022-08-28T04:59:13Z</time>
      </trkpt>
      <trkpt lat="46.04338" lon="6.94877">
        <ele>1934</ele>
        <time>2022-08-28T04:59:14Z</time>
      </trkpt>
      <trkpt lat="46.04338" lon="6.94875">
        <ele>1934</ele>
        <time>2022-08-28T04:59:15Z</time>
      </trkpt>
      <trkpt lat="46.04338" lon="6.94872">
        <ele>1933</ele>
        <time>2022-08-28T04:59:16Z</time>
      </trkpt>
      <trkpt lat="46.04337" lon="6.94865">
        <ele>1933</ele>
        <time>2022-08-28T04:59:18Z</time>
      </trkpt>
      <trkpt lat="46.04336" lon="6.94859">
        <ele>1933</ele>
        <time>2022-08-28T04:59:19Z</time>
      </trkpt>
      <trkpt lat="46.04336" lon="6.94857">
        <ele>1933</ele>
        <time>2022-08-28T04:59:20Z</time>
      </trkpt>
      <trkpt lat="46.04336" lon="6.94855">
        <ele>1933</ele>
        <time>2022-08-28T04:59:21Z</time>
      </trkpt>
      <trkpt lat="46.04336" lon="6.94853">
        <ele>1933</ele>
        <time>2022-08-28T04:59:23Z</time>
      </trkpt>
      <trkpt lat="46.04336" lon="6.94852">
        <ele>1931</ele>
        <time>2022-08-28T04:59:24Z</time>
      </trkpt>
      <trkpt lat="46.04336" lon="6.9485">
        <ele>1931</ele>
        <time>2022-08-28T04:59:25Z</time>
      </trkpt>
      <trkpt lat="46.04336" lon="6.94848">
        <ele>1931</ele>
        <time>2022-08-28T04:59:26Z</time>
      </trkpt>
      <trkpt lat="46.04336" lon="6.94846">
        <ele>1931</ele>
        <time>2022-08-28T04:59:27Z</time>
      </trkpt>
      <trkpt lat="46.04336" lon="6.94845">
        <ele>1931</ele>
        <time>2022-08-28T04:59:28Z</time>
      </trkpt>
      <trkpt lat="46.04336" lon="6.94841">
        <ele>1931</ele>
        <time>2022-08-28T04:59:29Z</time>
      </trkpt>
      <trkpt lat="46.04335" lon="6.94838">
        <ele>1931</ele>
        <time>2022-08-28T04:59:31Z</time>
      </trkpt>
      <trkpt lat="46.04335" lon="6.94835">
        <ele>1931</ele>
        <time>2022-08-28T04:59:32Z</time>
      </trkpt>
      <trkpt lat="46.04335" lon="6.94832">
        <ele>1931</ele>
        <time>2022-08-28T04:59:33Z</time>
      </trkpt>
      <trkpt lat="46.04332" lon="6.94826">
        <ele>1931</ele>
        <time>2022-08-28T04:59:36Z</time>
      </trkpt>
      <trkpt lat="46.04331" lon="6.94823">
        <ele>1931</ele>
        <time>2022-08-28T04:59:37Z</time>
      </trkpt>
      <trkpt lat="46.04328" lon="6.9482">
        <ele>1931</ele>
        <time>2022-08-28T04:59:39Z</time>
      </trkpt>
      <trkpt lat="46.04326" lon="6.94816">
        <ele>1931</ele>
        <time>2022-08-28T04:59:41Z</time>
      </trkpt>
      <trkpt lat="46.04324" lon="6.94813">
        <ele>1931</ele>
        <time>2022-08-28T04:59:44Z</time>
      </trkpt>
      <trkpt lat="46.04322" lon="6.9481">
        <ele>1931</ele>
        <time>2022-08-28T04:59:46Z</time>
      </trkpt>
      <trkpt lat="46.04321" lon="6.94807">
        <ele>1931</ele>
        <time>2022-08-28T04:59:48Z</time>
      </trkpt>
      <trkpt lat="46.04318" lon="6.94801">
        <ele>1931</ele>
        <time>2022-08-28T04:59:50Z</time>
      </trkpt>
      <trkpt lat="46.04318" lon="6.94799">
        <ele>1930</ele>
        <time>2022-08-28T04:59:51Z</time>
      </trkpt>
      <trkpt lat="46.04315" lon="6.94797">
        <ele>1929</ele>
        <time>2022-08-28T04:59:54Z</time>
      </trkpt>
      <trkpt lat="46.04313" lon="6.94795">
        <ele>1929</ele>
        <time>2022-08-28T04:59:56Z</time>
      </trkpt>
      <trkpt lat="46.04311" lon="6.94792">
        <ele>1929</ele>
        <time>2022-08-28T04:59:57Z</time>
      </trkpt>
      <trkpt lat="46.04309" lon="6.9479">
        <ele>1929</ele>
        <time>2022-08-28T04:59:58Z</time>
      </trkpt>
      <trkpt lat="46.04307" lon="6.94788">
        <ele>1928</ele>
        <time>2022-08-28T04:59:59Z</time>
      </trkpt>
      <trkpt lat="46.04301" lon="6.94778">
        <ele>1927</ele>
        <time>2022-08-28T05:00:03Z</time>
      </trkpt>
      <trkpt lat="46.04299" lon="6.94771">
        <ele>1927</ele>
        <time>2022-08-28T05:00:05Z</time>
      </trkpt>
      <trkpt lat="46.04298" lon="6.94769">
        <ele>1927</ele>
        <time>2022-08-28T05:00:06Z</time>
      </trkpt>
      <trkpt lat="46.04298" lon="6.94767">
        <ele>1926</ele>
        <time>2022-08-28T05:00:07Z</time>
      </trkpt>
      <trkpt lat="46.04297" lon="6.94765">
        <ele>1926</ele>
        <time>2022-08-28T05:00:08Z</time>
      </trkpt>
      <trkpt lat="46.04296" lon="6.94763">
        <ele>1926</ele>
        <time>2022-08-28T05:00:10Z</time>
      </trkpt>
      <trkpt lat="46.04296" lon="6.9476">
        <ele>1926</ele>
        <time>2022-08-28T05:00:11Z</time>
      </trkpt>
      <trkpt lat="46.04295" lon="6.94758">
        <ele>1926</ele>
        <time>2022-08-28T05:00:12Z</time>
      </trkpt>
      <trkpt lat="46.04293" lon="6.94755">
        <ele>1926</ele>
        <time>2022-08-28T05:00:13Z</time>
      </trkpt>
      <trkpt lat="46.04292" lon="6.94753">
        <ele>1926</ele>
        <time>2022-08-28T05:00:15Z</time>
      </trkpt>
      <trkpt lat="46.0429" lon="6.9475">
        <ele>1926</ele>
        <time>2022-08-28T05:00:16Z</time>
      </trkpt>
      <trkpt lat="46.04288" lon="6.94747">
        <ele>1925</ele>
        <time>2022-08-28T05:00:17Z</time>
      </trkpt>
      <trkpt lat="46.04287" lon="6.94744">
        <ele>1925</ele>
        <time>2022-08-28T05:00:18Z</time>
      </trkpt>
      <trkpt lat="46.04286" lon="6.94741">
        <ele>1924</ele>
        <time>2022-08-28T05:00:20Z</time>
      </trkpt>
      <trkpt lat="46.04285" lon="6.94737">
        <ele>1924</ele>
        <time>2022-08-28T05:00:22Z</time>
      </trkpt>
      <trkpt lat="46.04283" lon="6.94734">
        <ele>1924</ele>
        <time>2022-08-28T05:00:23Z</time>
      </trkpt>
      <trkpt lat="46.04282" lon="6.94733">
        <ele>1924</ele>
        <time>2022-08-28T05:00:24Z</time>
      </trkpt>
      <trkpt lat="46.0428" lon="6.94731">
        <ele>1924</ele>
        <time>2022-08-28T05:00:25Z</time>
      </trkpt>
      <trkpt lat="46.04278" lon="6.9473">
        <ele>1924</ele>
        <time>2022-08-28T05:00:26Z</time>
      </trkpt>
      <trkpt lat="46.04276" lon="6.94728">
        <ele>1924</ele>
        <time>2022-08-28T05:00:27Z</time>
      </trkpt>
      <trkpt lat="46.04275" lon="6.94727">
        <ele>1924</ele>
        <time>2022-08-28T05:00:28Z</time>
      </trkpt>
      <trkpt lat="46.04272" lon="6.94724">
        <ele>1924</ele>
        <time>2022-08-28T05:00:29Z</time>
      </trkpt>
      <trkpt lat="46.04269" lon="6.94722">
        <ele>1924</ele>
        <time>2022-08-28T05:00:30Z</time>
      </trkpt>
      <trkpt lat="46.04266" lon="6.9472">
        <ele>1924</ele>
        <time>2022-08-28T05:00:31Z</time>
      </trkpt>
      <trkpt lat="46.04263" lon="6.94717">
        <ele>1923</ele>
        <time>2022-08-28T05:00:33Z</time>
      </trkpt>
      <trkpt lat="46.04261" lon="6.94714">
        <ele>1923</ele>
        <time>2022-08-28T05:00:35Z</time>
      </trkpt>
      <trkpt lat="46.04258" lon="6.94711">
        <ele>1923</ele>
        <time>2022-08-28T05:00:36Z</time>
      </trkpt>
      <trkpt lat="46.04257" lon="6.9471">
        <ele>1922</ele>
        <time>2022-08-28T05:00:37Z</time>
      </trkpt>
      <trkpt lat="46.04256" lon="6.94708">
        <ele>1922</ele>
        <time>2022-08-28T05:00:39Z</time>
      </trkpt>
      <trkpt lat="46.04254" lon="6.94707">
        <ele>1922</ele>
        <time>2022-08-28T05:00:40Z</time>
      </trkpt>
      <trkpt lat="46.04253" lon="6.94706">
        <ele>1921</ele>
        <time>2022-08-28T05:00:41Z</time>
      </trkpt>
      <trkpt lat="46.04251" lon="6.94705">
        <ele>1921</ele>
        <time>2022-08-28T05:00:42Z</time>
      </trkpt>
      <trkpt lat="46.0425" lon="6.94703">
        <ele>1920</ele>
        <time>2022-08-28T05:00:43Z</time>
      </trkpt>
      <trkpt lat="46.04248" lon="6.94701">
        <ele>1920</ele>
        <time>2022-08-28T05:00:44Z</time>
      </trkpt>
      <trkpt lat="46.04246" lon="6.94698">
        <ele>1920</ele>
        <time>2022-08-28T05:00:45Z</time>
      </trkpt>
      <trkpt lat="46.04244" lon="6.94695">
        <ele>1920</ele>
        <time>2022-08-28T05:00:46Z</time>
      </trkpt>
      <trkpt lat="46.04243" lon="6.94693">
        <ele>1920</ele>
        <time>2022-08-28T05:00:47Z</time>
      </trkpt>
      <trkpt lat="46.04233" lon="6.94684">
        <ele>1918</ele>
        <time>2022-08-28T05:00:51Z</time>
      </trkpt>
      <trkpt lat="46.04223" lon="6.9468">
        <ele>1917</ele>
        <time>2022-08-28T05:00:56Z</time>
      </trkpt>
      <trkpt lat="46.04214" lon="6.94675">
        <ele>1914</ele>
        <time>2022-08-28T05:01:02Z</time>
      </trkpt>
      <trkpt lat="46.04212" lon="6.94674">
        <ele>1914</ele>
        <time>2022-08-28T05:01:03Z</time>
      </trkpt>
      <trkpt lat="46.04211" lon="6.94673">
        <ele>1913</ele>
        <time>2022-08-28T05:01:04Z</time>
      </trkpt>
      <trkpt lat="46.04209" lon="6.94671">
        <ele>1913</ele>
        <time>2022-08-28T05:01:05Z</time>
      </trkpt>
      <trkpt lat="46.04208" lon="6.9467">
        <ele>1912</ele>
        <time>2022-08-28T05:01:07Z</time>
      </trkpt>
      <trkpt lat="46.04206" lon="6.94669">
        <ele>1912</ele>
        <time>2022-08-28T05:01:08Z</time>
      </trkpt>
      <trkpt lat="46.04205" lon="6.94667">
        <ele>1912</ele>
        <time>2022-08-28T05:01:09Z</time>
      </trkpt>
      <trkpt lat="46.04201" lon="6.94665">
        <ele>1911</ele>
        <time>2022-08-28T05:01:10Z</time>
      </trkpt>
      <trkpt lat="46.04199" lon="6.94662">
        <ele>1911</ele>
        <time>2022-08-28T05:01:12Z</time>
      </trkpt>
      <trkpt lat="46.04196" lon="6.9466">
        <ele>1910</ele>
        <time>2022-08-28T05:01:14Z</time>
      </trkpt>
      <trkpt lat="46.04193" lon="6.94657">
        <ele>1909</ele>
        <time>2022-08-28T05:01:16Z</time>
      </trkpt>
      <trkpt lat="46.04186" lon="6.94651">
        <ele>1907</ele>
        <time>2022-08-28T05:01:21Z</time>
      </trkpt>
      <trkpt lat="46.04185" lon="6.9465">
        <ele>1907</ele>
        <time>2022-08-28T05:01:22Z</time>
      </trkpt>
      <trkpt lat="46.04184" lon="6.9465">
        <ele>1907</ele>
        <time>2022-08-28T05:01:23Z</time>
      </trkpt>
      <trkpt lat="46.04182" lon="6.94649">
        <ele>1907</ele>
        <time>2022-08-28T05:01:24Z</time>
      </trkpt>
      <trkpt lat="46.04181" lon="6.94649">
        <ele>1907</ele>
        <time>2022-08-28T05:01:25Z</time>
      </trkpt>
      <trkpt lat="46.0418" lon="6.94648">
        <ele>1907</ele>
        <time>2022-08-28T05:01:26Z</time>
      </trkpt>
      <trkpt lat="46.04178" lon="6.94647">
        <ele>1906</ele>
        <time>2022-08-28T05:01:27Z</time>
      </trkpt>
      <trkpt lat="46.04177" lon="6.94647">
        <ele>1906</ele>
        <time>2022-08-28T05:01:28Z</time>
      </trkpt>
      <trkpt lat="46.04175" lon="6.94646">
        <ele>1906</ele>
        <time>2022-08-28T05:01:29Z</time>
      </trkpt>
      <trkpt lat="46.04173" lon="6.94643">
        <ele>1905</ele>
        <time>2022-08-28T05:01:31Z</time>
      </trkpt>
      <trkpt lat="46.0417" lon="6.94641">
        <ele>1905</ele>
        <time>2022-08-28T05:01:33Z</time>
      </trkpt>
      <trkpt lat="46.04168" lon="6.94639">
        <ele>1905</ele>
        <time>2022-08-28T05:01:35Z</time>
      </trkpt>
      <trkpt lat="46.04166" lon="6.94636">
        <ele>1904</ele>
        <time>2022-08-28T05:01:37Z</time>
      </trkpt>
      <trkpt lat="46.04165" lon="6.94634">
        <ele>1904</ele>
        <time>2022-08-28T05:01:38Z</time>
      </trkpt>
      <trkpt lat="46.04162" lon="6.94632">
        <ele>1904</ele>
        <time>2022-08-28T05:01:41Z</time>
      </trkpt>
      <trkpt lat="46.0416" lon="6.9463">
        <ele>1903</ele>
        <time>2022-08-28T05:01:43Z</time>
      </trkpt>
      <trkpt lat="46.04159" lon="6.94628">
        <ele>1903</ele>
        <time>2022-08-28T05:01:44Z</time>
      </trkpt>
      <trkpt lat="46.04157" lon="6.94626">
        <ele>1903</ele>
        <time>2022-08-28T05:01:46Z</time>
      </trkpt>
      <trkpt lat="46.04155" lon="6.94624">
        <ele>1902</ele>
        <time>2022-08-28T05:01:47Z</time>
      </trkpt>
      <trkpt lat="46.04154" lon="6.94623">
        <ele>1902</ele>
        <time>2022-08-28T05:01:48Z</time>
      </trkpt>
      <trkpt lat="46.04153" lon="6.94621">
        <ele>1902</ele>
        <time>2022-08-28T05:01:49Z</time>
      </trkpt>
      <trkpt lat="46.04152" lon="6.94619">
        <ele>1902</ele>
        <time>2022-08-28T05:01:50Z</time>
      </trkpt>
      <trkpt lat="46.04151" lon="6.94618">
        <ele>1901</ele>
        <time>2022-08-28T05:01:52Z</time>
      </trkpt>
      <trkpt lat="46.0415" lon="6.94616">
        <ele>1901</ele>
        <time>2022-08-28T05:01:54Z</time>
      </trkpt>
      <trkpt lat="46.04149" lon="6.94614">
        <ele>1901</ele>
        <time>2022-08-28T05:01:55Z</time>
      </trkpt>
      <trkpt lat="46.04139" lon="6.94608">
        <ele>1900</ele>
        <time>2022-08-28T05:01:59Z</time>
      </trkpt>
      <trkpt lat="46.04138" lon="6.94607">
        <ele>1899</ele>
        <time>2022-08-28T05:02:00Z</time>
      </trkpt>
      <trkpt lat="46.04136" lon="6.94606">
        <ele>1899</ele>
        <time>2022-08-28T05:02:01Z</time>
      </trkpt>
      <trkpt lat="46.04134" lon="6.94605">
        <ele>1899</ele>
        <time>2022-08-28T05:02:02Z</time>
      </trkpt>
      <trkpt lat="46.04133" lon="6.94604">
        <ele>1898</ele>
        <time>2022-08-28T05:02:04Z</time>
      </trkpt>
      <trkpt lat="46.04131" lon="6.94603">
        <ele>1898</ele>
        <time>2022-08-28T05:02:05Z</time>
      </trkpt>
      <trkpt lat="46.0413" lon="6.94602">
        <ele>1898</ele>
        <time>2022-08-28T05:02:06Z</time>
      </trkpt>
      <trkpt lat="46.04128" lon="6.946">
        <ele>1898</ele>
        <time>2022-08-28T05:02:07Z</time>
      </trkpt>
      <trkpt lat="46.04127" lon="6.94598">
        <ele>1897</ele>
        <time>2022-08-28T05:02:09Z</time>
      </trkpt>
      <trkpt lat="46.04126" lon="6.94596">
        <ele>1897</ele>
        <time>2022-08-28T05:02:10Z</time>
      </trkpt>
      <trkpt lat="46.04125" lon="6.94594">
        <ele>1897</ele>
        <time>2022-08-28T05:02:11Z</time>
      </trkpt>
      <trkpt lat="46.04124" lon="6.94592">
        <ele>1897</ele>
        <time>2022-08-28T05:02:12Z</time>
      </trkpt>
      <trkpt lat="46.04123" lon="6.9459">
        <ele>1896</ele>
        <time>2022-08-28T05:02:14Z</time>
      </trkpt>
      <trkpt lat="46.04123" lon="6.94588">
        <ele>1896</ele>
        <time>2022-08-28T05:02:15Z</time>
      </trkpt>
      <trkpt lat="46.04122" lon="6.94585">
        <ele>1895</ele>
        <time>2022-08-28T05:02:16Z</time>
      </trkpt>
      <trkpt lat="46.04122" lon="6.94583">
        <ele>1895</ele>
        <time>2022-08-28T05:02:17Z</time>
      </trkpt>
      <trkpt lat="46.04121" lon="6.94581">
        <ele>1895</ele>
        <time>2022-08-28T05:02:19Z</time>
      </trkpt>
      <trkpt lat="46.04121" lon="6.94578">
        <ele>1894</ele>
        <time>2022-08-28T05:02:20Z</time>
      </trkpt>
      <trkpt lat="46.04131" lon="6.94581">
        <ele>1892</ele>
        <time>2022-08-28T05:02:30Z</time>
      </trkpt>
      <trkpt lat="46.04132" lon="6.94582">
        <ele>1891</ele>
        <time>2022-08-28T05:02:32Z</time>
      </trkpt>
      <trkpt lat="46.04134" lon="6.94583">
        <ele>1891</ele>
        <time>2022-08-28T05:02:33Z</time>
      </trkpt>
      <trkpt lat="46.04136" lon="6.94584">
        <ele>1890</ele>
        <time>2022-08-28T05:02:34Z</time>
      </trkpt>
      <trkpt lat="46.04138" lon="6.94586">
        <ele>1890</ele>
        <time>2022-08-28T05:02:35Z</time>
      </trkpt>
      <trkpt lat="46.04141" lon="6.94585">
        <ele>1889</ele>
        <time>2022-08-28T05:02:37Z</time>
      </trkpt>
      <trkpt lat="46.04142" lon="6.94585">
        <ele>1888</ele>
        <time>2022-08-28T05:02:38Z</time>
      </trkpt>
      <trkpt lat="46.04143" lon="6.94585">
        <ele>1888</ele>
        <time>2022-08-28T05:02:39Z</time>
      </trkpt>
      <trkpt lat="46.04144" lon="6.94586">
        <ele>1888</ele>
        <time>2022-08-28T05:02:40Z</time>
      </trkpt>
      <trkpt lat="46.04145" lon="6.94586">
        <ele>1888</ele>
        <time>2022-08-28T05:02:41Z</time>
      </trkpt>
      <trkpt lat="46.04146" lon="6.94586">
        <ele>1888</ele>
        <time>2022-08-28T05:02:42Z</time>
      </trkpt>
      <trkpt lat="46.04156" lon="6.94588">
        <ele>1887</ele>
        <time>2022-08-28T05:02:47Z</time>
      </trkpt>
      <trkpt lat="46.04167" lon="6.94587">
        <ele>1884</ele>
        <time>2022-08-28T05:02:54Z</time>
      </trkpt>
      <trkpt lat="46.04169" lon="6.94587">
        <ele>1884</ele>
        <time>2022-08-28T05:02:55Z</time>
      </trkpt>
      <trkpt lat="46.04171" lon="6.94587">
        <ele>1884</ele>
        <time>2022-08-28T05:02:56Z</time>
      </trkpt>
      <trkpt lat="46.04173" lon="6.94587">
        <ele>1884</ele>
        <time>2022-08-28T05:02:57Z</time>
      </trkpt>
      <trkpt lat="46.04176" lon="6.94587">
        <ele>1883</ele>
        <time>2022-08-28T05:02:59Z</time>
      </trkpt>
      <trkpt lat="46.04178" lon="6.94587">
        <ele>1883</ele>
        <time>2022-08-28T05:03:00Z</time>
      </trkpt>
      <trkpt lat="46.04183" lon="6.9459">
        <ele>1882</ele>
        <time>2022-08-28T05:03:01Z</time>
      </trkpt>
      <trkpt lat="46.04187" lon="6.94592">
        <ele>1882</ele>
        <time>2022-08-28T05:03:02Z</time>
      </trkpt>
      <trkpt lat="46.04189" lon="6.94592">
        <ele>1882</ele>
        <time>2022-08-28T05:03:03Z</time>
      </trkpt>
      <trkpt lat="46.0419" lon="6.94593">
        <ele>1881</ele>
        <time>2022-08-28T05:03:05Z</time>
      </trkpt>
      <trkpt lat="46.04192" lon="6.94593">
        <ele>1881</ele>
        <time>2022-08-28T05:03:07Z</time>
      </trkpt>
      <trkpt lat="46.04193" lon="6.94594">
        <ele>1881</ele>
        <time>2022-08-28T05:03:08Z</time>
      </trkpt>
      <trkpt lat="46.04195" lon="6.94594">
        <ele>1881</ele>
        <time>2022-08-28T05:03:09Z</time>
      </trkpt>
      <trkpt lat="46.04197" lon="6.94594">
        <ele>1880</ele>
        <time>2022-08-28T05:03:10Z</time>
      </trkpt>
      <trkpt lat="46.04197" lon="6.94593">
        <ele>1879</ele>
        <time>2022-08-28T05:03:11Z</time>
      </trkpt>
      <trkpt lat="46.04198" lon="6.94591">
        <ele>1879</ele>
        <time>2022-08-28T05:03:12Z</time>
      </trkpt>
      <trkpt lat="46.04198" lon="6.94589">
        <ele>1879</ele>
        <time>2022-08-28T05:03:13Z</time>
      </trkpt>
      <trkpt lat="46.04199" lon="6.94587">
        <ele>1879</ele>
        <time>2022-08-28T05:03:15Z</time>
      </trkpt>
      <trkpt lat="46.04199" lon="6.94586">
        <ele>1878</ele>
        <time>2022-08-28T05:03:16Z</time>
      </trkpt>
      <trkpt lat="46.042" lon="6.94584">
        <ele>1878</ele>
        <time>2022-08-28T05:03:17Z</time>
      </trkpt>
      <trkpt lat="46.04199" lon="6.94579">
        <ele>1878</ele>
        <time>2022-08-28T05:03:18Z</time>
      </trkpt>
      <trkpt lat="46.04196" lon="6.94577">
        <ele>1878</ele>
        <time>2022-08-28T05:03:20Z</time>
      </trkpt>
      <trkpt lat="46.04195" lon="6.94576">
        <ele>1878</ele>
        <time>2022-08-28T05:03:21Z</time>
      </trkpt>
      <trkpt lat="46.04194" lon="6.94576">
        <ele>1877</ele>
        <time>2022-08-28T05:03:22Z</time>
      </trkpt>
      <trkpt lat="46.04192" lon="6.94575">
        <ele>1877</ele>
        <time>2022-08-28T05:03:23Z</time>
      </trkpt>
      <trkpt lat="46.04189" lon="6.94574">
        <ele>1877</ele>
        <time>2022-08-28T05:03:25Z</time>
      </trkpt>
      <trkpt lat="46.04185" lon="6.94572">
        <ele>1876</ele>
        <time>2022-08-28T05:03:27Z</time>
      </trkpt>
      <trkpt lat="46.04182" lon="6.9457">
        <ele>1875</ele>
        <time>2022-08-28T05:03:29Z</time>
      </trkpt>
      <trkpt lat="46.04179" lon="6.94569">
        <ele>1875</ele>
        <time>2022-08-28T05:03:32Z</time>
      </trkpt>
      <trkpt lat="46.04175" lon="6.94567">
        <ele>1875</ele>
        <time>2022-08-28T05:03:34Z</time>
      </trkpt>
      <trkpt lat="46.04174" lon="6.94567">
        <ele>1875</ele>
        <time>2022-08-28T05:03:35Z</time>
      </trkpt>
      <trkpt lat="46.04172" lon="6.94567">
        <ele>1875</ele>
        <time>2022-08-28T05:03:36Z</time>
      </trkpt>
      <trkpt lat="46.04171" lon="6.94567">
        <ele>1874</ele>
        <time>2022-08-28T05:03:37Z</time>
      </trkpt>
      <trkpt lat="46.04168" lon="6.94567">
        <ele>1874</ele>
        <time>2022-08-28T05:03:38Z</time>
      </trkpt>
      <trkpt lat="46.04165" lon="6.94566">
        <ele>1874</ele>
        <time>2022-08-28T05:03:40Z</time>
      </trkpt>
      <trkpt lat="46.04163" lon="6.94566">
        <ele>1873</ele>
        <time>2022-08-28T05:03:41Z</time>
      </trkpt>
      <trkpt lat="46.04161" lon="6.94566">
        <ele>1873</ele>
        <time>2022-08-28T05:03:42Z</time>
      </trkpt>
      <trkpt lat="46.04159" lon="6.94566">
        <ele>1873</ele>
        <time>2022-08-28T05:03:44Z</time>
      </trkpt>
      <trkpt lat="46.04157" lon="6.94566">
        <ele>1873</ele>
        <time>2022-08-28T05:03:45Z</time>
      </trkpt>
      <trkpt lat="46.04155" lon="6.94566">
        <ele>1873</ele>
        <time>2022-08-28T05:03:47Z</time>
      </trkpt>
      <trkpt lat="46.04151" lon="6.94565">
        <ele>1873</ele>
        <time>2022-08-28T05:03:48Z</time>
      </trkpt>
      <trkpt lat="46.0415" lon="6.94564">
        <ele>1873</ele>
        <time>2022-08-28T05:03:49Z</time>
      </trkpt>
      <trkpt lat="46.04147" lon="6.94563">
        <ele>1871</ele>
        <time>2022-08-28T05:03:51Z</time>
      </trkpt>
      <trkpt lat="46.04145" lon="6.94562">
        <ele>1871</ele>
        <time>2022-08-28T05:03:52Z</time>
      </trkpt>
      <trkpt lat="46.04141" lon="6.9456">
        <ele>1871</ele>
        <time>2022-08-28T05:03:54Z</time>
      </trkpt>
      <trkpt lat="46.0414" lon="6.94559">
        <ele>1869</ele>
        <time>2022-08-28T05:03:56Z</time>
      </trkpt>
      <trkpt lat="46.04139" lon="6.94558">
        <ele>1869</ele>
        <time>2022-08-28T05:03:57Z</time>
      </trkpt>
      <trkpt lat="46.04138" lon="6.94557">
        <ele>1869</ele>
        <time>2022-08-28T05:03:58Z</time>
      </trkpt>
      <trkpt lat="46.04137" lon="6.94556">
        <ele>1868</ele>
        <time>2022-08-28T05:03:59Z</time>
      </trkpt>
      <trkpt lat="46.04136" lon="6.94556">
        <ele>1868</ele>
        <time>2022-08-28T05:04:01Z</time>
      </trkpt>
      <trkpt lat="46.04135" lon="6.94555">
        <ele>1868</ele>
        <time>2022-08-28T05:04:02Z</time>
      </trkpt>
      <trkpt lat="46.04134" lon="6.94554">
        <ele>1868</ele>
        <time>2022-08-28T05:04:03Z</time>
      </trkpt>
      <trkpt lat="46.04132" lon="6.94552">
        <ele>1867</ele>
        <time>2022-08-28T05:04:04Z</time>
      </trkpt>
      <trkpt lat="46.04131" lon="6.94551">
        <ele>1867</ele>
        <time>2022-08-28T05:04:05Z</time>
      </trkpt>
      <trkpt lat="46.0413" lon="6.94549">
        <ele>1867</ele>
        <time>2022-08-28T05:04:06Z</time>
      </trkpt>
      <trkpt lat="46.04128" lon="6.94548">
        <ele>1867</ele>
        <time>2022-08-28T05:04:08Z</time>
      </trkpt>
      <trkpt lat="46.04127" lon="6.94547">
        <ele>1866</ele>
        <time>2022-08-28T05:04:10Z</time>
      </trkpt>
      <trkpt lat="46.04126" lon="6.94545">
        <ele>1866</ele>
        <time>2022-08-28T05:04:11Z</time>
      </trkpt>
      <trkpt lat="46.04121" lon="6.94533">
        <ele>1863</ele>
        <time>2022-08-28T05:04:23Z</time>
      </trkpt>
      <trkpt lat="46.04113" lon="6.94525">
        <ele>1861</ele>
        <time>2022-08-28T05:04:31Z</time>
      </trkpt>
      <trkpt lat="46.04113" lon="6.94525">
        <ele>1859</ele>
        <time>2022-08-28T05:04:36Z</time>
      </trkpt>
      <trkpt lat="46.04105" lon="6.94518">
        <ele>1859</ele>
        <time>2022-08-28T05:04:41Z</time>
      </trkpt>
      <trkpt lat="46.04104" lon="6.94517">
        <ele>1859</ele>
        <time>2022-08-28T05:04:42Z</time>
      </trkpt>
      <trkpt lat="46.04103" lon="6.94516">
        <ele>1858</ele>
        <time>2022-08-28T05:04:43Z</time>
      </trkpt>
      <trkpt lat="46.04102" lon="6.94515">
        <ele>1858</ele>
        <time>2022-08-28T05:04:44Z</time>
      </trkpt>
      <trkpt lat="46.04101" lon="6.94514">
        <ele>1858</ele>
        <time>2022-08-28T05:04:46Z</time>
      </trkpt>
      <trkpt lat="46.041" lon="6.94513">
        <ele>1857</ele>
        <time>2022-08-28T05:04:47Z</time>
      </trkpt>
      <trkpt lat="46.04098" lon="6.94512">
        <ele>1856</ele>
        <time>2022-08-28T05:04:48Z</time>
      </trkpt>
      <trkpt lat="46.04097" lon="6.94511">
        <ele>1856</ele>
        <time>2022-08-28T05:04:49Z</time>
      </trkpt>
      <trkpt lat="46.04096" lon="6.9451">
        <ele>1856</ele>
        <time>2022-08-28T05:04:50Z</time>
      </trkpt>
      <trkpt lat="46.04095" lon="6.94509">
        <ele>1856</ele>
        <time>2022-08-28T05:04:52Z</time>
      </trkpt>
      <trkpt lat="46.04094" lon="6.94508">
        <ele>1856</ele>
        <time>2022-08-28T05:04:53Z</time>
      </trkpt>
      <trkpt lat="46.04093" lon="6.94508">
        <ele>1856</ele>
        <time>2022-08-28T05:04:54Z</time>
      </trkpt>
      <trkpt lat="46.04092" lon="6.94507">
        <ele>1855</ele>
        <time>2022-08-28T05:04:55Z</time>
      </trkpt>
      <trkpt lat="46.0409" lon="6.94505">
        <ele>1855</ele>
        <time>2022-08-28T05:04:56Z</time>
      </trkpt>
      <trkpt lat="46.04088" lon="6.94504">
        <ele>1854</ele>
        <time>2022-08-28T05:04:58Z</time>
      </trkpt>
      <trkpt lat="46.04087" lon="6.94503">
        <ele>1854</ele>
        <time>2022-08-28T05:04:59Z</time>
      </trkpt>
      <trkpt lat="46.04085" lon="6.94502">
        <ele>1854</ele>
        <time>2022-08-28T05:05:00Z</time>
      </trkpt>
      <trkpt lat="46.04083" lon="6.94501">
        <ele>1853</ele>
        <time>2022-08-28T05:05:02Z</time>
      </trkpt>
      <trkpt lat="46.04081" lon="6.945">
        <ele>1852</ele>
        <time>2022-08-28T05:05:03Z</time>
      </trkpt>
      <trkpt lat="46.04079" lon="6.94498">
        <ele>1852</ele>
        <time>2022-08-28T05:05:05Z</time>
      </trkpt>
      <trkpt lat="46.04077" lon="6.94495">
        <ele>1852</ele>
        <time>2022-08-28T05:05:07Z</time>
      </trkpt>
      <trkpt lat="46.04075" lon="6.94493">
        <ele>1852</ele>
        <time>2022-08-28T05:05:08Z</time>
      </trkpt>
      <trkpt lat="46.04073" lon="6.94491">
        <ele>1852</ele>
        <time>2022-08-28T05:05:09Z</time>
      </trkpt>
      <trkpt lat="46.04072" lon="6.9449">
        <ele>1852</ele>
        <time>2022-08-28T05:05:10Z</time>
      </trkpt>
      <trkpt lat="46.04071" lon="6.94488">
        <ele>1851</ele>
        <time>2022-08-28T05:05:11Z</time>
      </trkpt>
      <trkpt lat="46.0407" lon="6.94487">
        <ele>1851</ele>
        <time>2022-08-28T05:05:12Z</time>
      </trkpt>
      <trkpt lat="46.04069" lon="6.94486">
        <ele>1851</ele>
        <time>2022-08-28T05:05:13Z</time>
      </trkpt>
      <trkpt lat="46.04068" lon="6.94485">
        <ele>1850</ele>
        <time>2022-08-28T05:05:15Z</time>
      </trkpt>
      <trkpt lat="46.04067" lon="6.94484">
        <ele>1850</ele>
        <time>2022-08-28T05:05:16Z</time>
      </trkpt>
      <trkpt lat="46.04066" lon="6.94482">
        <ele>1850</ele>
        <time>2022-08-28T05:05:17Z</time>
      </trkpt>
      <trkpt lat="46.04064" lon="6.94481">
        <ele>1850</ele>
        <time>2022-08-28T05:05:18Z</time>
      </trkpt>
      <trkpt lat="46.04063" lon="6.9448">
        <ele>1850</ele>
        <time>2022-08-28T05:05:19Z</time>
      </trkpt>
      <trkpt lat="46.04061" lon="6.94479">
        <ele>1849</ele>
        <time>2022-08-28T05:05:20Z</time>
      </trkpt>
      <trkpt lat="46.0406" lon="6.94478">
        <ele>1849</ele>
        <time>2022-08-28T05:05:22Z</time>
      </trkpt>
      <trkpt lat="46.04058" lon="6.94477">
        <ele>1849</ele>
        <time>2022-08-28T05:05:23Z</time>
      </trkpt>
      <trkpt lat="46.04057" lon="6.94477">
        <ele>1848</ele>
        <time>2022-08-28T05:05:24Z</time>
      </trkpt>
      <trkpt lat="46.04048" lon="6.94471">
        <ele>1847</ele>
        <time>2022-08-28T05:05:31Z</time>
      </trkpt>
      <trkpt lat="46.04038" lon="6.94464">
        <ele>1845</ele>
        <time>2022-08-28T05:05:38Z</time>
      </trkpt>
      <trkpt lat="46.04037" lon="6.94462">
        <ele>1845</ele>
        <time>2022-08-28T05:05:39Z</time>
      </trkpt>
      <trkpt lat="46.04036" lon="6.94461">
        <ele>1844</ele>
        <time>2022-08-28T05:05:40Z</time>
      </trkpt>
      <trkpt lat="46.04036" lon="6.94459">
        <ele>1844</ele>
        <time>2022-08-28T05:05:41Z</time>
      </trkpt>
      <trkpt lat="46.04035" lon="6.94457">
        <ele>1843</ele>
        <time>2022-08-28T05:05:43Z</time>
      </trkpt>
      <trkpt lat="46.04034" lon="6.94455">
        <ele>1843</ele>
        <time>2022-08-28T05:05:44Z</time>
      </trkpt>
      <trkpt lat="46.04033" lon="6.94453">
        <ele>1842</ele>
        <time>2022-08-28T05:05:45Z</time>
      </trkpt>
      <trkpt lat="46.04031" lon="6.94452">
        <ele>1842</ele>
        <time>2022-08-28T05:05:46Z</time>
      </trkpt>
      <trkpt lat="46.0403" lon="6.9445">
        <ele>1842</ele>
        <time>2022-08-28T05:05:48Z</time>
      </trkpt>
      <trkpt lat="46.04028" lon="6.94449">
        <ele>1842</ele>
        <time>2022-08-28T05:05:50Z</time>
      </trkpt>
      <trkpt lat="46.04026" lon="6.94448">
        <ele>1842</ele>
        <time>2022-08-28T05:05:51Z</time>
      </trkpt>
      <trkpt lat="46.04024" lon="6.94446">
        <ele>1841</ele>
        <time>2022-08-28T05:05:52Z</time>
      </trkpt>
      <trkpt lat="46.04018" lon="6.94437">
        <ele>1839</ele>
        <time>2022-08-28T05:05:57Z</time>
      </trkpt>
      <trkpt lat="46.04017" lon="6.94435">
        <ele>1838</ele>
        <time>2022-08-28T05:06:00Z</time>
      </trkpt>
      <trkpt lat="46.04016" lon="6.94433">
        <ele>1838</ele>
        <time>2022-08-28T05:06:02Z</time>
      </trkpt>
      <trkpt lat="46.04015" lon="6.94431">
        <ele>1838</ele>
        <time>2022-08-28T05:06:03Z</time>
      </trkpt>
      <trkpt lat="46.04014" lon="6.94429">
        <ele>1838</ele>
        <time>2022-08-28T05:06:04Z</time>
      </trkpt>
      <trkpt lat="46.04012" lon="6.94427">
        <ele>1838</ele>
        <time>2022-08-28T05:06:05Z</time>
      </trkpt>
      <trkpt lat="46.04011" lon="6.94426">
        <ele>1838</ele>
        <time>2022-08-28T05:06:06Z</time>
      </trkpt>
      <trkpt lat="46.0401" lon="6.94424">
        <ele>1837</ele>
        <time>2022-08-28T05:06:07Z</time>
      </trkpt>
      <trkpt lat="46.04008" lon="6.94422">
        <ele>1837</ele>
        <time>2022-08-28T05:06:08Z</time>
      </trkpt>
      <trkpt lat="46.04007" lon="6.94421">
        <ele>1837</ele>
        <time>2022-08-28T05:06:09Z</time>
      </trkpt>
      <trkpt lat="46.04005" lon="6.94419">
        <ele>1837</ele>
        <time>2022-08-28T05:06:11Z</time>
      </trkpt>
      <trkpt lat="46.04004" lon="6.94417">
        <ele>1836</ele>
        <time>2022-08-28T05:06:12Z</time>
      </trkpt>
      <trkpt lat="46.03998" lon="6.94404">
        <ele>1835</ele>
        <time>2022-08-28T05:06:21Z</time>
      </trkpt>
      <trkpt lat="46.03997" lon="6.94402">
        <ele>1833</ele>
        <time>2022-08-28T05:06:23Z</time>
      </trkpt>
      <trkpt lat="46.03996" lon="6.94401">
        <ele>1833</ele>
        <time>2022-08-28T05:06:24Z</time>
      </trkpt>
      <trkpt lat="46.03995" lon="6.94399">
        <ele>1833</ele>
        <time>2022-08-28T05:06:25Z</time>
      </trkpt>
      <trkpt lat="46.03994" lon="6.94398">
        <ele>1833</ele>
        <time>2022-08-28T05:06:26Z</time>
      </trkpt>
      <trkpt lat="46.03993" lon="6.94397">
        <ele>1833</ele>
        <time>2022-08-28T05:06:28Z</time>
      </trkpt>
      <trkpt lat="46.03992" lon="6.94395">
        <ele>1833</ele>
        <time>2022-08-28T05:06:29Z</time>
      </trkpt>
      <trkpt lat="46.03991" lon="6.94394">
        <ele>1832</ele>
        <time>2022-08-28T05:06:30Z</time>
      </trkpt>
      <trkpt lat="46.03989" lon="6.94392">
        <ele>1832</ele>
        <time>2022-08-28T05:06:32Z</time>
      </trkpt>
      <trkpt lat="46.03988" lon="6.9439">
        <ele>1831</ele>
        <time>2022-08-28T05:06:34Z</time>
      </trkpt>
      <trkpt lat="46.03987" lon="6.94388">
        <ele>1831</ele>
        <time>2022-08-28T05:06:35Z</time>
      </trkpt>
      <trkpt lat="46.03985" lon="6.94386">
        <ele>1831</ele>
        <time>2022-08-28T05:06:37Z</time>
      </trkpt>
      <trkpt lat="46.03984" lon="6.94384">
        <ele>1830</ele>
        <time>2022-08-28T05:06:38Z</time>
      </trkpt>
      <trkpt lat="46.03982" lon="6.94382">
        <ele>1830</ele>
        <time>2022-08-28T05:06:40Z</time>
      </trkpt>
      <trkpt lat="46.03981" lon="6.9438">
        <ele>1829</ele>
        <time>2022-08-28T05:06:42Z</time>
      </trkpt>
      <trkpt lat="46.03979" lon="6.94377">
        <ele>1829</ele>
        <time>2022-08-28T05:06:43Z</time>
      </trkpt>
      <trkpt lat="46.03978" lon="6.94375">
        <ele>1828</ele>
        <time>2022-08-28T05:06:44Z</time>
      </trkpt>
      <trkpt lat="46.03976" lon="6.94373">
        <ele>1828</ele>
        <time>2022-08-28T05:06:45Z</time>
      </trkpt>
      <trkpt lat="46.03974" lon="6.94371">
        <ele>1828</ele>
        <time>2022-08-28T05:06:46Z</time>
      </trkpt>
      <trkpt lat="46.03973" lon="6.94369">
        <ele>1828</ele>
        <time>2022-08-28T05:06:47Z</time>
      </trkpt>
      <trkpt lat="46.03971" lon="6.94367">
        <ele>1828</ele>
        <time>2022-08-28T05:06:48Z</time>
      </trkpt>
      <trkpt lat="46.03969" lon="6.94366">
        <ele>1828</ele>
        <time>2022-08-28T05:06:49Z</time>
      </trkpt>
      <trkpt lat="46.03968" lon="6.94365">
        <ele>1827</ele>
        <time>2022-08-28T05:06:50Z</time>
      </trkpt>
      <trkpt lat="46.03966" lon="6.94364">
        <ele>1827</ele>
        <time>2022-08-28T05:06:51Z</time>
      </trkpt>
      <trkpt lat="46.03964" lon="6.94363">
        <ele>1827</ele>
        <time>2022-08-28T05:06:52Z</time>
      </trkpt>
      <trkpt lat="46.03962" lon="6.94363">
        <ele>1827</ele>
        <time>2022-08-28T05:06:53Z</time>
      </trkpt>
      <trkpt lat="46.03961" lon="6.94362">
        <ele>1826</ele>
        <time>2022-08-28T05:06:54Z</time>
      </trkpt>
      <trkpt lat="46.0396" lon="6.9436">
        <ele>1826</ele>
        <time>2022-08-28T05:06:55Z</time>
      </trkpt>
      <trkpt lat="46.03959" lon="6.94357">
        <ele>1826</ele>
        <time>2022-08-28T05:06:56Z</time>
      </trkpt>
      <trkpt lat="46.03958" lon="6.94355">
        <ele>1826</ele>
        <time>2022-08-28T05:06:57Z</time>
      </trkpt>
      <trkpt lat="46.03958" lon="6.94353">
        <ele>1826</ele>
        <time>2022-08-28T05:06:59Z</time>
      </trkpt>
      <trkpt lat="46.03957" lon="6.94351">
        <ele>1826</ele>
        <time>2022-08-28T05:07:00Z</time>
      </trkpt>
      <trkpt lat="46.03956" lon="6.94348">
        <ele>1825</ele>
        <time>2022-08-28T05:07:01Z</time>
      </trkpt>
      <trkpt lat="46.03957" lon="6.94348">
        <ele>1825</ele>
        <time>2022-08-28T05:07:02Z</time>
      </trkpt>
      <trkpt lat="46.03958" lon="6.94349">
        <ele>1825</ele>
        <time>2022-08-28T05:07:03Z</time>
      </trkpt>
      <trkpt lat="46.03959" lon="6.94349">
        <ele>1824</ele>
        <time>2022-08-28T05:07:04Z</time>
      </trkpt>
      <trkpt lat="46.0396" lon="6.94349">
        <ele>1824</ele>
        <time>2022-08-28T05:07:06Z</time>
      </trkpt>
      <trkpt lat="46.03961" lon="6.94349">
        <ele>1824</ele>
        <time>2022-08-28T05:07:07Z</time>
      </trkpt>
      <trkpt lat="46.03962" lon="6.94349">
        <ele>1824</ele>
        <time>2022-08-28T05:07:08Z</time>
      </trkpt>
      <trkpt lat="46.03963" lon="6.94349">
        <ele>1824</ele>
        <time>2022-08-28T05:07:09Z</time>
      </trkpt>
      <trkpt lat="46.03965" lon="6.9435">
        <ele>1823</ele>
        <time>2022-08-28T05:07:11Z</time>
      </trkpt>
      <trkpt lat="46.03966" lon="6.9435">
        <ele>1823</ele>
        <time>2022-08-28T05:07:12Z</time>
      </trkpt>
      <trkpt lat="46.03967" lon="6.94351">
        <ele>1823</ele>
        <time>2022-08-28T05:07:13Z</time>
      </trkpt>
      <trkpt lat="46.03969" lon="6.94352">
        <ele>1822</ele>
        <time>2022-08-28T05:07:14Z</time>
      </trkpt>
      <trkpt lat="46.03971" lon="6.94354">
        <ele>1822</ele>
        <time>2022-08-28T05:07:15Z</time>
      </trkpt>
      <trkpt lat="46.03972" lon="6.94355">
        <ele>1822</ele>
        <time>2022-08-28T05:07:17Z</time>
      </trkpt>
      <trkpt lat="46.03974" lon="6.94357">
        <ele>1822</ele>
        <time>2022-08-28T05:07:18Z</time>
      </trkpt>
      <trkpt lat="46.03976" lon="6.94358">
        <ele>1822</ele>
        <time>2022-08-28T05:07:19Z</time>
      </trkpt>
      <trkpt lat="46.03978" lon="6.94358">
        <ele>1822</ele>
        <time>2022-08-28T05:07:20Z</time>
      </trkpt>
      <trkpt lat="46.03979" lon="6.94359">
        <ele>1821</ele>
        <time>2022-08-28T05:07:22Z</time>
      </trkpt>
      <trkpt lat="46.03981" lon="6.9436">
        <ele>1821</ele>
        <time>2022-08-28T05:07:23Z</time>
      </trkpt>
      <trkpt lat="46.03983" lon="6.94361">
        <ele>1821</ele>
        <time>2022-08-28T05:07:24Z</time>
      </trkpt>
      <trkpt lat="46.03984" lon="6.94363">
        <ele>1821</ele>
        <time>2022-08-28T05:07:25Z</time>
      </trkpt>
      <trkpt lat="46.03986" lon="6.94364">
        <ele>1820</ele>
        <time>2022-08-28T05:07:27Z</time>
      </trkpt>
      <trkpt lat="46.03988" lon="6.94366">
        <ele>1820</ele>
        <time>2022-08-28T05:07:28Z</time>
      </trkpt>
      <trkpt lat="46.03989" lon="6.94368">
        <ele>1819</ele>
        <time>2022-08-28T05:07:29Z</time>
      </trkpt>
      <trkpt lat="46.03991" lon="6.94369">
        <ele>1819</ele>
        <time>2022-08-28T05:07:30Z</time>
      </trkpt>
      <trkpt lat="46.04" lon="6.94376">
        <ele>1818</ele>
        <time>2022-08-28T05:07:37Z</time>
      </trkpt>
      <trkpt lat="46.04001" lon="6.94377">
        <ele>1818</ele>
        <time>2022-08-28T05:07:39Z</time>
      </trkpt>
      <trkpt lat="46.04003" lon="6.94378">
        <ele>1818</ele>
        <time>2022-08-28T05:07:40Z</time>
      </trkpt>
      <trkpt lat="46.04004" lon="6.94379">
        <ele>1817</ele>
        <time>2022-08-28T05:07:41Z</time>
      </trkpt>
      <trkpt lat="46.04006" lon="6.94379">
        <ele>1817</ele>
        <time>2022-08-28T05:07:42Z</time>
      </trkpt>
      <trkpt lat="46.04007" lon="6.9438">
        <ele>1817</ele>
        <time>2022-08-28T05:07:44Z</time>
      </trkpt>
      <trkpt lat="46.04009" lon="6.94381">
        <ele>1817</ele>
        <time>2022-08-28T05:07:45Z</time>
      </trkpt>
      <trkpt lat="46.04018" lon="6.94384">
        <ele>1815</ele>
        <time>2022-08-28T05:07:50Z</time>
      </trkpt>
      <trkpt lat="46.04018" lon="6.94384">
        <ele>1815</ele>
        <time>2022-08-28T05:07:51Z</time>
      </trkpt>
      <trkpt lat="46.04018" lon="6.94383">
        <ele>1814</ele>
        <time>2022-08-28T05:07:52Z</time>
      </trkpt>
      <trkpt lat="46.04017" lon="6.94382">
        <ele>1814</ele>
        <time>2022-08-28T05:07:53Z</time>
      </trkpt>
      <trkpt lat="46.04017" lon="6.94381">
        <ele>1814</ele>
        <time>2022-08-28T05:07:55Z</time>
      </trkpt>
      <trkpt lat="46.04017" lon="6.9438">
        <ele>1814</ele>
        <time>2022-08-28T05:07:56Z</time>
      </trkpt>
      <trkpt lat="46.04017" lon="6.9438">
        <ele>1814</ele>
        <time>2022-08-28T05:07:57Z</time>
      </trkpt>
      <trkpt lat="46.04016" lon="6.94379">
        <ele>1814</ele>
        <time>2022-08-28T05:07:58Z</time>
      </trkpt>
      <trkpt lat="46.04016" lon="6.94378">
        <ele>1814</ele>
        <time>2022-08-28T05:08:00Z</time>
      </trkpt>
      <trkpt lat="46.04016" lon="6.94377">
        <ele>1814</ele>
        <time>2022-08-28T05:08:01Z</time>
      </trkpt>
      <trkpt lat="46.04016" lon="6.94376">
        <ele>1814</ele>
        <time>2022-08-28T05:08:02Z</time>
      </trkpt>
      <trkpt lat="46.04015" lon="6.94376">
        <ele>1813</ele>
        <time>2022-08-28T05:08:03Z</time>
      </trkpt>
      <trkpt lat="46.04015" lon="6.94375">
        <ele>1813</ele>
        <time>2022-08-28T05:08:05Z</time>
      </trkpt>
      <trkpt lat="46.04015" lon="6.94374">
        <ele>1813</ele>
        <time>2022-08-28T05:08:06Z</time>
      </trkpt>
      <trkpt lat="46.04015" lon="6.94373">
        <ele>1812</ele>
        <time>2022-08-28T05:08:07Z</time>
      </trkpt>
      <trkpt lat="46.04014" lon="6.94372">
        <ele>1812</ele>
        <time>2022-08-28T05:08:08Z</time>
      </trkpt>
      <trkpt lat="46.04011" lon="6.94371">
        <ele>1812</ele>
        <time>2022-08-28T05:08:10Z</time>
      </trkpt>
      <trkpt lat="46.04009" lon="6.9437">
        <ele>1812</ele>
        <time>2022-08-28T05:08:11Z</time>
      </trkpt>
      <trkpt lat="46.04006" lon="6.94368">
        <ele>1812</ele>
        <time>2022-08-28T05:08:12Z</time>
      </trkpt>
      <trkpt lat="46.04004" lon="6.94367">
        <ele>1812</ele>
        <time>2022-08-28T05:08:13Z</time>
      </trkpt>
      <trkpt lat="46.04003" lon="6.94366">
        <ele>1811</ele>
        <time>2022-08-28T05:08:15Z</time>
      </trkpt>
      <trkpt lat="46.04002" lon="6.94364">
        <ele>1810</ele>
        <time>2022-08-28T05:08:17Z</time>
      </trkpt>
      <trkpt lat="46.04001" lon="6.94363">
        <ele>1810</ele>
        <time>2022-08-28T05:08:18Z</time>
      </trkpt>
      <trkpt lat="46.03999" lon="6.94362">
        <ele>1810</ele>
        <time>2022-08-28T05:08:19Z</time>
      </trkpt>
      <trkpt lat="46.03998" lon="6.94361">
        <ele>1809</ele>
        <time>2022-08-28T05:08:20Z</time>
      </trkpt>
      <trkpt lat="46.03992" lon="6.94348">
        <ele>1808</ele>
        <time>2022-08-28T05:08:27Z</time>
      </trkpt>
      <trkpt lat="46.03992" lon="6.94346">
        <ele>1807</ele>
        <time>2022-08-28T05:08:28Z</time>
      </trkpt>
      <trkpt lat="46.03991" lon="6.94343">
        <ele>1807</ele>
        <time>2022-08-28T05:08:29Z</time>
      </trkpt>
      <trkpt lat="46.03991" lon="6.9434">
        <ele>1806</ele>
        <time>2022-08-28T05:08:30Z</time>
      </trkpt>
      <trkpt lat="46.0399" lon="6.94338">
        <ele>1806</ele>
        <time>2022-08-28T05:08:32Z</time>
      </trkpt>
      <trkpt lat="46.0399" lon="6.94335">
        <ele>1806</ele>
        <time>2022-08-28T05:08:33Z</time>
      </trkpt>
      <trkpt lat="46.03989" lon="6.94335">
        <ele>1806</ele>
        <time>2022-08-28T05:08:34Z</time>
      </trkpt>
      <trkpt lat="46.03988" lon="6.94334">
        <ele>1805</ele>
        <time>2022-08-28T05:08:35Z</time>
      </trkpt>
      <trkpt lat="46.03987" lon="6.94333">
        <ele>1805</ele>
        <time>2022-08-28T05:08:36Z</time>
      </trkpt>
      <trkpt lat="46.03986" lon="6.94333">
        <ele>1804</ele>
        <time>2022-08-28T05:08:38Z</time>
      </trkpt>
      <trkpt lat="46.03985" lon="6.94332">
        <ele>1804</ele>
        <time>2022-08-28T05:08:39Z</time>
      </trkpt>
      <trkpt lat="46.0398" lon="6.94327">
        <ele>1804</ele>
        <time>2022-08-28T05:08:40Z</time>
      </trkpt>
      <trkpt lat="46.03979" lon="6.94325">
        <ele>1804</ele>
        <time>2022-08-28T05:08:41Z</time>
      </trkpt>
      <trkpt lat="46.03978" lon="6.94323">
        <ele>1804</ele>
        <time>2022-08-28T05:08:43Z</time>
      </trkpt>
      <trkpt lat="46.03977" lon="6.94321">
        <ele>1803</ele>
        <time>2022-08-28T05:08:44Z</time>
      </trkpt>
      <trkpt lat="46.03976" lon="6.94319">
        <ele>1802</ele>
        <time>2022-08-28T05:08:45Z</time>
      </trkpt>
      <trkpt lat="46.03975" lon="6.94317">
        <ele>1802</ele>
        <time>2022-08-28T05:08:46Z</time>
      </trkpt>
      <trkpt lat="46.03975" lon="6.94316">
        <ele>1802</ele>
        <time>2022-08-28T05:08:48Z</time>
      </trkpt>
      <trkpt lat="46.03975" lon="6.94316">
        <ele>1802</ele>
        <time>2022-08-28T05:08:49Z</time>
      </trkpt>
      <trkpt lat="46.03975" lon="6.94315">
        <ele>1802</ele>
        <time>2022-08-28T05:08:50Z</time>
      </trkpt>
      <trkpt lat="46.03975" lon="6.94314">
        <ele>1802</ele>
        <time>2022-08-28T05:08:51Z</time>
      </trkpt>
      <trkpt lat="46.03975" lon="6.94313">
        <ele>1801</ele>
        <time>2022-08-28T05:08:53Z</time>
      </trkpt>
      <trkpt lat="46.03975" lon="6.94312">
        <ele>1800</ele>
        <time>2022-08-28T05:08:55Z</time>
      </trkpt>
      <trkpt lat="46.03974" lon="6.94312">
        <ele>1800</ele>
        <time>2022-08-28T05:08:56Z</time>
      </trkpt>
      <trkpt lat="46.03974" lon="6.94311">
        <ele>1800</ele>
        <time>2022-08-28T05:08:57Z</time>
      </trkpt>
      <trkpt lat="46.03974" lon="6.9431">
        <ele>1800</ele>
        <time>2022-08-28T05:08:58Z</time>
      </trkpt>
      <trkpt lat="46.03974" lon="6.94309">
        <ele>1800</ele>
        <time>2022-08-28T05:09:00Z</time>
      </trkpt>
      <trkpt lat="46.03974" lon="6.94308">
        <ele>1800</ele>
        <time>2022-08-28T05:09:01Z</time>
      </trkpt>
      <trkpt lat="46.03974" lon="6.94308">
        <ele>1800</ele>
        <time>2022-08-28T05:09:02Z</time>
      </trkpt>
      <trkpt lat="46.03974" lon="6.94307">
        <ele>1799</ele>
        <time>2022-08-28T05:09:03Z</time>
      </trkpt>
      <trkpt lat="46.03974" lon="6.94306">
        <ele>1799</ele>
        <time>2022-08-28T05:09:04Z</time>
      </trkpt>
      <trkpt lat="46.03973" lon="6.94305">
        <ele>1799</ele>
        <time>2022-08-28T05:09:05Z</time>
      </trkpt>
      <trkpt lat="46.03973" lon="6.94305">
        <ele>1799</ele>
        <time>2022-08-28T05:09:06Z</time>
      </trkpt>
      <trkpt lat="46.03971" lon="6.94304">
        <ele>1799</ele>
        <time>2022-08-28T05:09:10Z</time>
      </trkpt>
      <trkpt lat="46.03971" lon="6.94303">
        <ele>1799</ele>
        <time>2022-08-28T05:09:12Z</time>
      </trkpt>
      <trkpt lat="46.03971" lon="6.94301">
        <ele>1799</ele>
        <time>2022-08-28T05:09:13Z</time>
      </trkpt>
      <trkpt lat="46.03971" lon="6.943">
        <ele>1798</ele>
        <time>2022-08-28T05:09:14Z</time>
      </trkpt>
      <trkpt lat="46.03971" lon="6.94298">
        <ele>1798</ele>
        <time>2022-08-28T05:09:16Z</time>
      </trkpt>
      <trkpt lat="46.03971" lon="6.94297">
        <ele>1798</ele>
        <time>2022-08-28T05:09:17Z</time>
      </trkpt>
      <trkpt lat="46.03971" lon="6.94295">
        <ele>1797</ele>
        <time>2022-08-28T05:09:18Z</time>
      </trkpt>
      <trkpt lat="46.03971" lon="6.94294">
        <ele>1797</ele>
        <time>2022-08-28T05:09:19Z</time>
      </trkpt>
      <trkpt lat="46.0397" lon="6.94293">
        <ele>1796</ele>
        <time>2022-08-28T05:09:21Z</time>
      </trkpt>
      <trkpt lat="46.0397" lon="6.94291">
        <ele>1796</ele>
        <time>2022-08-28T05:09:22Z</time>
      </trkpt>
      <trkpt lat="46.0397" lon="6.9429">
        <ele>1796</ele>
        <time>2022-08-28T05:09:23Z</time>
      </trkpt>
      <trkpt lat="46.0397" lon="6.94289">
        <ele>1796</ele>
        <time>2022-08-28T05:09:24Z</time>
      </trkpt>
      <trkpt lat="46.0397" lon="6.94288">
        <ele>1795</ele>
        <time>2022-08-28T05:09:25Z</time>
      </trkpt>
      <trkpt lat="46.0397" lon="6.94287">
        <ele>1795</ele>
        <time>2022-08-28T05:09:26Z</time>
      </trkpt>
      <trkpt lat="46.0397" lon="6.94286">
        <ele>1794</ele>
        <time>2022-08-28T05:09:28Z</time>
      </trkpt>
      <trkpt lat="46.0397" lon="6.94285">
        <ele>1794</ele>
        <time>2022-08-28T05:09:29Z</time>
      </trkpt>
      <trkpt lat="46.0397" lon="6.94284">
        <ele>1794</ele>
        <time>2022-08-28T05:09:31Z</time>
      </trkpt>
      <trkpt lat="46.03969" lon="6.94283">
        <ele>1794</ele>
        <time>2022-08-28T05:09:32Z</time>
      </trkpt>
      <trkpt lat="46.03969" lon="6.94282">
        <ele>1793</ele>
        <time>2022-08-28T05:09:33Z</time>
      </trkpt>
      <trkpt lat="46.03969" lon="6.94281">
        <ele>1792</ele>
        <time>2022-08-28T05:09:35Z</time>
      </trkpt>
      <trkpt lat="46.03969" lon="6.9428">
        <ele>1792</ele>
        <time>2022-08-28T05:09:36Z</time>
      </trkpt>
      <trkpt lat="46.03969" lon="6.94279">
        <ele>1791</ele>
        <time>2022-08-28T05:09:37Z</time>
      </trkpt>
      <trkpt lat="46.03969" lon="6.94279">
        <ele>1791</ele>
        <time>2022-08-28T05:09:38Z</time>
      </trkpt>
      <trkpt lat="46.03969" lon="6.94278">
        <ele>1791</ele>
        <time>2022-08-28T05:09:40Z</time>
      </trkpt>
      <trkpt lat="46.03969" lon="6.94277">
        <ele>1790</ele>
        <time>2022-08-28T05:09:41Z</time>
      </trkpt>
      <trkpt lat="46.03969" lon="6.94276">
        <ele>1790</ele>
        <time>2022-08-28T05:09:42Z</time>
      </trkpt>
      <trkpt lat="46.03967" lon="6.94262">
        <ele>1787</ele>
        <time>2022-08-28T05:09:52Z</time>
      </trkpt>
      <trkpt lat="46.03959" lon="6.94256">
        <ele>1787</ele>
        <time>2022-08-28T05:09:59Z</time>
      </trkpt>
      <trkpt lat="46.03959" lon="6.94255">
        <ele>1787</ele>
        <time>2022-08-28T05:10:00Z</time>
      </trkpt>
      <trkpt lat="46.03959" lon="6.94254">
        <ele>1787</ele>
        <time>2022-08-28T05:10:01Z</time>
      </trkpt>
      <trkpt lat="46.0396" lon="6.94253">
        <ele>1786</ele>
        <time>2022-08-28T05:10:02Z</time>
      </trkpt>
      <trkpt lat="46.0396" lon="6.94252">
        <ele>1785</ele>
        <time>2022-08-28T05:10:04Z</time>
      </trkpt>
      <trkpt lat="46.0396" lon="6.94251">
        <ele>1785</ele>
        <time>2022-08-28T05:10:05Z</time>
      </trkpt>
      <trkpt lat="46.03961" lon="6.9425">
        <ele>1785</ele>
        <time>2022-08-28T05:10:06Z</time>
      </trkpt>
      <trkpt lat="46.03961" lon="6.94249">
        <ele>1784</ele>
        <time>2022-08-28T05:10:07Z</time>
      </trkpt>
      <trkpt lat="46.03961" lon="6.94249">
        <ele>1784</ele>
        <time>2022-08-28T05:10:09Z</time>
      </trkpt>
      <trkpt lat="46.03962" lon="6.94248">
        <ele>1783</ele>
        <time>2022-08-28T05:10:10Z</time>
      </trkpt>
      <trkpt lat="46.03962" lon="6.94247">
        <ele>1782</ele>
        <time>2022-08-28T05:10:11Z</time>
      </trkpt>
      <trkpt lat="46.03962" lon="6.94246">
        <ele>1782</ele>
        <time>2022-08-28T05:10:12Z</time>
      </trkpt>
      <trkpt lat="46.03963" lon="6.94245">
        <ele>1782</ele>
        <time>2022-08-28T05:10:14Z</time>
      </trkpt>
      <trkpt lat="46.03963" lon="6.94244">
        <ele>1782</ele>
        <time>2022-08-28T05:10:15Z</time>
      </trkpt>
      <trkpt lat="46.03972" lon="6.94244">
        <ele>1779</ele>
        <time>2022-08-28T05:10:26Z</time>
      </trkpt>
      <trkpt lat="46.03973" lon="6.94244">
        <ele>1779</ele>
        <time>2022-08-28T05:10:28Z</time>
      </trkpt>
      <trkpt lat="46.03974" lon="6.94243">
        <ele>1778</ele>
        <time>2022-08-28T05:10:29Z</time>
      </trkpt>
      <trkpt lat="46.03975" lon="6.94243">
        <ele>1778</ele>
        <time>2022-08-28T05:10:30Z</time>
      </trkpt>
      <trkpt lat="46.03976" lon="6.94243">
        <ele>1777</ele>
        <time>2022-08-28T05:10:32Z</time>
      </trkpt>
      <trkpt lat="46.03977" lon="6.94242">
        <ele>1777</ele>
        <time>2022-08-28T05:10:33Z</time>
      </trkpt>
      <trkpt lat="46.03978" lon="6.94242">
        <ele>1777</ele>
        <time>2022-08-28T05:10:34Z</time>
      </trkpt>
      <trkpt lat="46.0398" lon="6.94241">
        <ele>1777</ele>
        <time>2022-08-28T05:10:35Z</time>
      </trkpt>
      <trkpt lat="46.03981" lon="6.94241">
        <ele>1777</ele>
        <time>2022-08-28T05:10:36Z</time>
      </trkpt>
      <trkpt lat="46.03982" lon="6.94241">
        <ele>1776</ele>
        <time>2022-08-28T05:10:37Z</time>
      </trkpt>
      <trkpt lat="46.03984" lon="6.94242">
        <ele>1776</ele>
        <time>2022-08-28T05:10:38Z</time>
      </trkpt>
      <trkpt lat="46.03986" lon="6.94244">
        <ele>1776</ele>
        <time>2022-08-28T05:10:40Z</time>
      </trkpt>
      <trkpt lat="46.03988" lon="6.94245">
        <ele>1775</ele>
        <time>2022-08-28T05:10:41Z</time>
      </trkpt>
      <trkpt lat="46.0399" lon="6.94246">
        <ele>1774</ele>
        <time>2022-08-28T05:10:42Z</time>
      </trkpt>
      <trkpt lat="46.03993" lon="6.94248">
        <ele>1774</ele>
        <time>2022-08-28T05:10:43Z</time>
      </trkpt>
      <trkpt lat="46.03995" lon="6.94249">
        <ele>1774</ele>
        <time>2022-08-28T05:10:45Z</time>
      </trkpt>
      <trkpt lat="46.03997" lon="6.9425">
        <ele>1773</ele>
        <time>2022-08-28T05:10:47Z</time>
      </trkpt>
      <trkpt lat="46.03999" lon="6.94252">
        <ele>1773</ele>
        <time>2022-08-28T05:10:48Z</time>
      </trkpt>
      <trkpt lat="46.04002" lon="6.94251">
        <ele>1773</ele>
        <time>2022-08-28T05:10:49Z</time>
      </trkpt>
      <trkpt lat="46.04004" lon="6.94251">
        <ele>1773</ele>
        <time>2022-08-28T05:10:51Z</time>
      </trkpt>
      <trkpt lat="46.04007" lon="6.94251">
        <ele>1773</ele>
        <time>2022-08-28T05:10:52Z</time>
      </trkpt>
      <trkpt lat="46.04009" lon="6.94251">
        <ele>1772</ele>
        <time>2022-08-28T05:10:53Z</time>
      </trkpt>
      <trkpt lat="46.04013" lon="6.9425">
        <ele>1771</ele>
        <time>2022-08-28T05:10:56Z</time>
      </trkpt>
      <trkpt lat="46.04016" lon="6.94251">
        <ele>1770</ele>
        <time>2022-08-28T05:10:58Z</time>
      </trkpt>
      <trkpt lat="46.04017" lon="6.94252">
        <ele>1770</ele>
        <time>2022-08-28T05:10:59Z</time>
      </trkpt>
      <trkpt lat="46.04018" lon="6.94253">
        <ele>1770</ele>
        <time>2022-08-28T05:11:00Z</time>
      </trkpt>
      <trkpt lat="46.04019" lon="6.94253">
        <ele>1770</ele>
        <time>2022-08-28T05:11:01Z</time>
      </trkpt>
      <trkpt lat="46.0402" lon="6.94254">
        <ele>1769</ele>
        <time>2022-08-28T05:11:02Z</time>
      </trkpt>
      <trkpt lat="46.04022" lon="6.94255">
        <ele>1769</ele>
        <time>2022-08-28T05:11:03Z</time>
      </trkpt>
      <trkpt lat="46.04023" lon="6.94255">
        <ele>1769</ele>
        <time>2022-08-28T05:11:04Z</time>
      </trkpt>
      <trkpt lat="46.04021" lon="6.94254">
        <ele>1766</ele>
        <time>2022-08-28T05:11:09Z</time>
      </trkpt>
      <trkpt lat="46.04021" lon="6.94253">
        <ele>1765</ele>
        <time>2022-08-28T05:11:11Z</time>
      </trkpt>
      <trkpt lat="46.0402" lon="6.94252">
        <ele>1765</ele>
        <time>2022-08-28T05:11:12Z</time>
      </trkpt>
      <trkpt lat="46.0402" lon="6.94251">
        <ele>1765</ele>
        <time>2022-08-28T05:11:13Z</time>
      </trkpt>
      <trkpt lat="46.0402" lon="6.94251">
        <ele>1764</ele>
        <time>2022-08-28T05:11:15Z</time>
      </trkpt>
      <trkpt lat="46.04019" lon="6.9425">
        <ele>1764</ele>
        <time>2022-08-28T05:11:16Z</time>
      </trkpt>
      <trkpt lat="46.04019" lon="6.94249">
        <ele>1764</ele>
        <time>2022-08-28T05:11:17Z</time>
      </trkpt>
      <trkpt lat="46.04019" lon="6.94248">
        <ele>1763</ele>
        <time>2022-08-28T05:11:18Z</time>
      </trkpt>
      <trkpt lat="46.04018" lon="6.94248">
        <ele>1763</ele>
        <time>2022-08-28T05:11:20Z</time>
      </trkpt>
      <trkpt lat="46.04018" lon="6.94247">
        <ele>1762</ele>
        <time>2022-08-28T05:11:21Z</time>
      </trkpt>
      <trkpt lat="46.04017" lon="6.94246">
        <ele>1762</ele>
        <time>2022-08-28T05:11:22Z</time>
      </trkpt>
      <trkpt lat="46.04017" lon="6.94245">
        <ele>1762</ele>
        <time>2022-08-28T05:11:23Z</time>
      </trkpt>
      <trkpt lat="46.04017" lon="6.94244">
        <ele>1761</ele>
        <time>2022-08-28T05:11:25Z</time>
      </trkpt>
      <trkpt lat="46.04016" lon="6.94244">
        <ele>1761</ele>
        <time>2022-08-28T05:11:27Z</time>
      </trkpt>
      <trkpt lat="46.04016" lon="6.94243">
        <ele>1760</ele>
        <time>2022-08-28T05:11:28Z</time>
      </trkpt>
      <trkpt lat="46.04016" lon="6.94242">
        <ele>1760</ele>
        <time>2022-08-28T05:11:29Z</time>
      </trkpt>
      <trkpt lat="46.04014" lon="6.9424">
        <ele>1760</ele>
        <time>2022-08-28T05:11:30Z</time>
      </trkpt>
      <trkpt lat="46.04013" lon="6.94238">
        <ele>1759</ele>
        <time>2022-08-28T05:11:32Z</time>
      </trkpt>
      <trkpt lat="46.04012" lon="6.94235">
        <ele>1759</ele>
        <time>2022-08-28T05:11:33Z</time>
      </trkpt>
      <trkpt lat="46.04011" lon="6.94233">
        <ele>1758</ele>
        <time>2022-08-28T05:11:34Z</time>
      </trkpt>
      <trkpt lat="46.0401" lon="6.94231">
        <ele>1758</ele>
        <time>2022-08-28T05:11:35Z</time>
      </trkpt>
      <trkpt lat="46.04009" lon="6.94229">
        <ele>1758</ele>
        <time>2022-08-28T05:11:37Z</time>
      </trkpt>
      <trkpt lat="46.04009" lon="6.94228">
        <ele>1758</ele>
        <time>2022-08-28T05:11:39Z</time>
      </trkpt>
      <trkpt lat="46.04008" lon="6.94226">
        <ele>1758</ele>
        <time>2022-08-28T05:11:40Z</time>
      </trkpt>
      <trkpt lat="46.04007" lon="6.94225">
        <ele>1758</ele>
        <time>2022-08-28T05:11:41Z</time>
      </trkpt>
      <trkpt lat="46.04007" lon="6.94223">
        <ele>1757</ele>
        <time>2022-08-28T05:11:42Z</time>
      </trkpt>
      <trkpt lat="46.04006" lon="6.94222">
        <ele>1757</ele>
        <time>2022-08-28T05:11:44Z</time>
      </trkpt>
      <trkpt lat="46.04005" lon="6.9422">
        <ele>1756</ele>
        <time>2022-08-28T05:11:45Z</time>
      </trkpt>
      <trkpt lat="46.04005" lon="6.94219">
        <ele>1755</ele>
        <time>2022-08-28T05:11:46Z</time>
      </trkpt>
      <trkpt lat="46.03996" lon="6.94213">
        <ele>1755</ele>
        <time>2022-08-28T05:11:51Z</time>
      </trkpt>
      <trkpt lat="46.03996" lon="6.94211">
        <ele>1754</ele>
        <time>2022-08-28T05:11:52Z</time>
      </trkpt>
      <trkpt lat="46.03995" lon="6.9421">
        <ele>1754</ele>
        <time>2022-08-28T05:11:54Z</time>
      </trkpt>
      <trkpt lat="46.03994" lon="6.94209">
        <ele>1753</ele>
        <time>2022-08-28T05:11:56Z</time>
      </trkpt>
      <trkpt lat="46.03994" lon="6.94207">
        <ele>1753</ele>
        <time>2022-08-28T05:11:57Z</time>
      </trkpt>
      <trkpt lat="46.03993" lon="6.94206">
        <ele>1753</ele>
        <time>2022-08-28T05:11:58Z</time>
      </trkpt>
      <trkpt lat="46.03992" lon="6.94204">
        <ele>1752</ele>
        <time>2022-08-28T05:11:59Z</time>
      </trkpt>
      <trkpt lat="46.03992" lon="6.94203">
        <ele>1752</ele>
        <time>2022-08-28T05:12:00Z</time>
      </trkpt>
      <trkpt lat="46.03991" lon="6.94202">
        <ele>1752</ele>
        <time>2022-08-28T05:12:01Z</time>
      </trkpt>
      <trkpt lat="46.03982" lon="6.94195">
        <ele>1749</ele>
        <time>2022-08-28T05:12:07Z</time>
      </trkpt>
      <trkpt lat="46.03981" lon="6.94194">
        <ele>1749</ele>
        <time>2022-08-28T05:12:08Z</time>
      </trkpt>
      <trkpt lat="46.0398" lon="6.94192">
        <ele>1749</ele>
        <time>2022-08-28T05:12:09Z</time>
      </trkpt>
      <trkpt lat="46.03979" lon="6.94191">
        <ele>1749</ele>
        <time>2022-08-28T05:12:10Z</time>
      </trkpt>
      <trkpt lat="46.03978" lon="6.94189">
        <ele>1748</ele>
        <time>2022-08-28T05:12:12Z</time>
      </trkpt>
      <trkpt lat="46.03978" lon="6.94188">
        <ele>1748</ele>
        <time>2022-08-28T05:12:13Z</time>
      </trkpt>
      <trkpt lat="46.03977" lon="6.94186">
        <ele>1748</ele>
        <time>2022-08-28T05:12:14Z</time>
      </trkpt>
      <trkpt lat="46.03976" lon="6.94185">
        <ele>1748</ele>
        <time>2022-08-28T05:12:15Z</time>
      </trkpt>
      <trkpt lat="46.03975" lon="6.94183">
        <ele>1747</ele>
        <time>2022-08-28T05:12:17Z</time>
      </trkpt>
      <trkpt lat="46.03975" lon="6.94181">
        <ele>1747</ele>
        <time>2022-08-28T05:12:18Z</time>
      </trkpt>
      <trkpt lat="46.03975" lon="6.94179">
        <ele>1746</ele>
        <time>2022-08-28T05:12:19Z</time>
      </trkpt>
      <trkpt lat="46.03975" lon="6.94177">
        <ele>1745</ele>
        <time>2022-08-28T05:12:20Z</time>
      </trkpt>
      <trkpt lat="46.03972" lon="6.94176">
        <ele>1745</ele>
        <time>2022-08-28T05:12:22Z</time>
      </trkpt>
      <trkpt lat="46.03971" lon="6.94175">
        <ele>1744</ele>
        <time>2022-08-28T05:12:25Z</time>
      </trkpt>
      <trkpt lat="46.03969" lon="6.94174">
        <ele>1743</ele>
        <time>2022-08-28T05:12:27Z</time>
      </trkpt>
      <trkpt lat="46.03967" lon="6.94173">
        <ele>1743</ele>
        <time>2022-08-28T05:12:28Z</time>
      </trkpt>
      <trkpt lat="46.03965" lon="6.94172">
        <ele>1743</ele>
        <time>2022-08-28T05:12:29Z</time>
      </trkpt>
      <trkpt lat="46.03964" lon="6.9417">
        <ele>1742</ele>
        <time>2022-08-28T05:12:30Z</time>
      </trkpt>
      <trkpt lat="46.03955" lon="6.94162">
        <ele>1740</ele>
        <time>2022-08-28T05:12:37Z</time>
      </trkpt>
      <trkpt lat="46.03954" lon="6.94161">
        <ele>1740</ele>
        <time>2022-08-28T05:12:38Z</time>
      </trkpt>
      <trkpt lat="46.03953" lon="6.9416">
        <ele>1740</ele>
        <time>2022-08-28T05:12:39Z</time>
      </trkpt>
      <trkpt lat="46.03952" lon="6.94158">
        <ele>1739</ele>
        <time>2022-08-28T05:12:41Z</time>
      </trkpt>
      <trkpt lat="46.03951" lon="6.94157">
        <ele>1739</ele>
        <time>2022-08-28T05:12:42Z</time>
      </trkpt>
      <trkpt lat="46.0395" lon="6.94156">
        <ele>1739</ele>
        <time>2022-08-28T05:12:43Z</time>
      </trkpt>
      <trkpt lat="46.03949" lon="6.94155">
        <ele>1739</ele>
        <time>2022-08-28T05:12:45Z</time>
      </trkpt>
      <trkpt lat="46.03948" lon="6.94154">
        <ele>1738</ele>
        <time>2022-08-28T05:12:46Z</time>
      </trkpt>
      <trkpt lat="46.03943" lon="6.94141">
        <ele>1735</ele>
        <time>2022-08-28T05:12:55Z</time>
      </trkpt>
      <trkpt lat="46.03939" lon="6.94131">
        <ele>1734</ele>
        <time>2022-08-28T05:13:02Z</time>
      </trkpt>
      <trkpt lat="46.03938" lon="6.9413">
        <ele>1733</ele>
        <time>2022-08-28T05:13:03Z</time>
      </trkpt>
      <trkpt lat="46.03937" lon="6.9413">
        <ele>1733</ele>
        <time>2022-08-28T05:13:04Z</time>
      </trkpt>
      <trkpt lat="46.03936" lon="6.94129">
        <ele>1733</ele>
        <time>2022-08-28T05:13:05Z</time>
      </trkpt>
      <trkpt lat="46.03936" lon="6.94128">
        <ele>1733</ele>
        <time>2022-08-28T05:13:07Z</time>
      </trkpt>
      <trkpt lat="46.03935" lon="6.94128">
        <ele>1732</ele>
        <time>2022-08-28T05:13:08Z</time>
      </trkpt>
      <trkpt lat="46.03934" lon="6.94127">
        <ele>1732</ele>
        <time>2022-08-28T05:13:09Z</time>
      </trkpt>
      <trkpt lat="46.03933" lon="6.94127">
        <ele>1732</ele>
        <time>2022-08-28T05:13:10Z</time>
      </trkpt>
      <trkpt lat="46.03933" lon="6.94126">
        <ele>1731</ele>
        <time>2022-08-28T05:13:12Z</time>
      </trkpt>
      <trkpt lat="46.03932" lon="6.94125">
        <ele>1731</ele>
        <time>2022-08-28T05:13:13Z</time>
      </trkpt>
      <trkpt lat="46.03931" lon="6.94125">
        <ele>1731</ele>
        <time>2022-08-28T05:13:14Z</time>
      </trkpt>
      <trkpt lat="46.03931" lon="6.94124">
        <ele>1730</ele>
        <time>2022-08-28T05:13:15Z</time>
      </trkpt>
      <trkpt lat="46.03928" lon="6.94123">
        <ele>1730</ele>
        <time>2022-08-28T05:13:17Z</time>
      </trkpt>
      <trkpt lat="46.03926" lon="6.94122">
        <ele>1730</ele>
        <time>2022-08-28T05:13:19Z</time>
      </trkpt>
      <trkpt lat="46.03924" lon="6.94121">
        <ele>1729</ele>
        <time>2022-08-28T05:13:20Z</time>
      </trkpt>
      <trkpt lat="46.03922" lon="6.9412">
        <ele>1729</ele>
        <time>2022-08-28T05:13:21Z</time>
      </trkpt>
      <trkpt lat="46.03922" lon="6.94118">
        <ele>1728</ele>
        <time>2022-08-28T05:13:23Z</time>
      </trkpt>
      <trkpt lat="46.03922" lon="6.94117">
        <ele>1728</ele>
        <time>2022-08-28T05:13:24Z</time>
      </trkpt>
      <trkpt lat="46.03922" lon="6.94115">
        <ele>1728</ele>
        <time>2022-08-28T05:13:25Z</time>
      </trkpt>
      <trkpt lat="46.03922" lon="6.94113">
        <ele>1728</ele>
        <time>2022-08-28T05:13:26Z</time>
      </trkpt>
      <trkpt lat="46.03923" lon="6.94112">
        <ele>1728</ele>
        <time>2022-08-28T05:13:28Z</time>
      </trkpt>
      <trkpt lat="46.03923" lon="6.9411">
        <ele>1727</ele>
        <time>2022-08-28T05:13:29Z</time>
      </trkpt>
      <trkpt lat="46.03923" lon="6.94108">
        <ele>1727</ele>
        <time>2022-08-28T05:13:30Z</time>
      </trkpt>
      <trkpt lat="46.03923" lon="6.94107">
        <ele>1726</ele>
        <time>2022-08-28T05:13:31Z</time>
      </trkpt>
      <trkpt lat="46.03922" lon="6.94106">
        <ele>1726</ele>
        <time>2022-08-28T05:13:32Z</time>
      </trkpt>
      <trkpt lat="46.03921" lon="6.94105">
        <ele>1726</ele>
        <time>2022-08-28T05:13:33Z</time>
      </trkpt>
      <trkpt lat="46.03921" lon="6.94104">
        <ele>1725</ele>
        <time>2022-08-28T05:13:34Z</time>
      </trkpt>
      <trkpt lat="46.0392" lon="6.94103">
        <ele>1725</ele>
        <time>2022-08-28T05:13:36Z</time>
      </trkpt>
      <trkpt lat="46.03919" lon="6.94103">
        <ele>1725</ele>
        <time>2022-08-28T05:13:38Z</time>
      </trkpt>
      <trkpt lat="46.03918" lon="6.94102">
        <ele>1724</ele>
        <time>2022-08-28T05:13:39Z</time>
      </trkpt>
      <trkpt lat="46.03918" lon="6.94101">
        <ele>1723</ele>
        <time>2022-08-28T05:13:40Z</time>
      </trkpt>
      <trkpt lat="46.03917" lon="6.941">
        <ele>1723</ele>
        <time>2022-08-28T05:13:42Z</time>
      </trkpt>
      <trkpt lat="46.03916" lon="6.94099">
        <ele>1723</ele>
        <time>2022-08-28T05:13:43Z</time>
      </trkpt>
      <trkpt lat="46.03916" lon="6.94099">
        <ele>1723</ele>
        <time>2022-08-28T05:13:44Z</time>
      </trkpt>
      <trkpt lat="46.03915" lon="6.94098">
        <ele>1723</ele>
        <time>2022-08-28T05:13:45Z</time>
      </trkpt>
      <trkpt lat="46.03914" lon="6.94097">
        <ele>1722</ele>
        <time>2022-08-28T05:13:47Z</time>
      </trkpt>
      <trkpt lat="46.03913" lon="6.94096">
        <ele>1722</ele>
        <time>2022-08-28T05:13:48Z</time>
      </trkpt>
      <trkpt lat="46.03913" lon="6.94096">
        <ele>1722</ele>
        <time>2022-08-28T05:13:49Z</time>
      </trkpt>
      <trkpt lat="46.03912" lon="6.94095">
        <ele>1721</ele>
        <time>2022-08-28T05:13:50Z</time>
      </trkpt>
      <trkpt lat="46.03911" lon="6.94094">
        <ele>1720</ele>
        <time>2022-08-28T05:13:52Z</time>
      </trkpt>
      <trkpt lat="46.03911" lon="6.94093">
        <ele>1720</ele>
        <time>2022-08-28T05:13:53Z</time>
      </trkpt>
      <trkpt lat="46.0391" lon="6.94093">
        <ele>1720</ele>
        <time>2022-08-28T05:13:54Z</time>
      </trkpt>
      <trkpt lat="46.03909" lon="6.94092">
        <ele>1720</ele>
        <time>2022-08-28T05:13:55Z</time>
      </trkpt>
      <trkpt lat="46.03908" lon="6.94091">
        <ele>1720</ele>
        <time>2022-08-28T05:13:56Z</time>
      </trkpt>
      <trkpt lat="46.03908" lon="6.9409">
        <ele>1720</ele>
        <time>2022-08-28T05:13:57Z</time>
      </trkpt>
      <trkpt lat="46.039" lon="6.94081">
        <ele>1716</ele>
        <time>2022-08-28T05:14:04Z</time>
      </trkpt>
      <trkpt lat="46.03899" lon="6.94079">
        <ele>1716</ele>
        <time>2022-08-28T05:14:05Z</time>
      </trkpt>
      <trkpt lat="46.03897" lon="6.94078">
        <ele>1716</ele>
        <time>2022-08-28T05:14:06Z</time>
      </trkpt>
      <trkpt lat="46.03896" lon="6.94077">
        <ele>1715</ele>
        <time>2022-08-28T05:14:07Z</time>
      </trkpt>
      <trkpt lat="46.03894" lon="6.94076">
        <ele>1715</ele>
        <time>2022-08-28T05:14:09Z</time>
      </trkpt>
      <trkpt lat="46.03893" lon="6.94075">
        <ele>1714</ele>
        <time>2022-08-28T05:14:10Z</time>
      </trkpt>
      <trkpt lat="46.03892" lon="6.94074">
        <ele>1714</ele>
        <time>2022-08-28T05:14:11Z</time>
      </trkpt>
      <trkpt lat="46.0389" lon="6.94073">
        <ele>1714</ele>
        <time>2022-08-28T05:14:12Z</time>
      </trkpt>
      <trkpt lat="46.03888" lon="6.94072">
        <ele>1712</ele>
        <time>2022-08-28T05:14:14Z</time>
      </trkpt>
      <trkpt lat="46.03886" lon="6.9407">
        <ele>1712</ele>
        <time>2022-08-28T05:14:16Z</time>
      </trkpt>
      <trkpt lat="46.03884" lon="6.94069">
        <ele>1712</ele>
        <time>2022-08-28T05:14:17Z</time>
      </trkpt>
      <trkpt lat="46.03882" lon="6.94068">
        <ele>1710</ele>
        <time>2022-08-28T05:14:18Z</time>
      </trkpt>
      <trkpt lat="46.03873" lon="6.94063">
        <ele>1710</ele>
        <time>2022-08-28T05:14:23Z</time>
      </trkpt>
      <trkpt lat="46.03872" lon="6.94063">
        <ele>1709</ele>
        <time>2022-08-28T05:14:24Z</time>
      </trkpt>
      <trkpt lat="46.03871" lon="6.94063">
        <ele>1709</ele>
        <time>2022-08-28T05:14:25Z</time>
      </trkpt>
      <trkpt lat="46.0387" lon="6.94063">
        <ele>1709</ele>
        <time>2022-08-28T05:14:26Z</time>
      </trkpt>
      <trkpt lat="46.0387" lon="6.94063">
        <ele>1709</ele>
        <time>2022-08-28T05:14:28Z</time>
      </trkpt>
      <trkpt lat="46.03869" lon="6.94062">
        <ele>1708</ele>
        <time>2022-08-28T05:14:29Z</time>
      </trkpt>
      <trkpt lat="46.03868" lon="6.94062">
        <ele>1707</ele>
        <time>2022-08-28T05:14:30Z</time>
      </trkpt>
      <trkpt lat="46.03867" lon="6.94062">
        <ele>1707</ele>
        <time>2022-08-28T05:14:31Z</time>
      </trkpt>
      <trkpt lat="46.03866" lon="6.94062">
        <ele>1707</ele>
        <time>2022-08-28T05:14:33Z</time>
      </trkpt>
      <trkpt lat="46.03865" lon="6.94062">
        <ele>1707</ele>
        <time>2022-08-28T05:14:34Z</time>
      </trkpt>
      <trkpt lat="46.03864" lon="6.94061">
        <ele>1706</ele>
        <time>2022-08-28T05:14:35Z</time>
      </trkpt>
      <trkpt lat="46.03862" lon="6.9406">
        <ele>1704</ele>
        <time>2022-08-28T05:14:37Z</time>
      </trkpt>
      <trkpt lat="46.0386" lon="6.94058">
        <ele>1704</ele>
        <time>2022-08-28T05:14:39Z</time>
      </trkpt>
      <trkpt lat="46.03858" lon="6.94056">
        <ele>1704</ele>
        <time>2022-08-28T05:14:40Z</time>
      </trkpt>
      <trkpt lat="46.03856" lon="6.94055">
        <ele>1704</ele>
        <time>2022-08-28T05:14:41Z</time>
      </trkpt>
      <trkpt lat="46.03856" lon="6.94053">
        <ele>1704</ele>
        <time>2022-08-28T05:14:42Z</time>
      </trkpt>
      <trkpt lat="46.03857" lon="6.94051">
        <ele>1703</ele>
        <time>2022-08-28T05:14:44Z</time>
      </trkpt>
      <trkpt lat="46.03857" lon="6.94049">
        <ele>1703</ele>
        <time>2022-08-28T05:14:45Z</time>
      </trkpt>
      <trkpt lat="46.03858" lon="6.94048">
        <ele>1702</ele>
        <time>2022-08-28T05:14:46Z</time>
      </trkpt>
      <trkpt lat="46.03859" lon="6.94046">
        <ele>1702</ele>
        <time>2022-08-28T05:14:47Z</time>
      </trkpt>
      <trkpt lat="46.03859" lon="6.94044">
        <ele>1701</ele>
        <time>2022-08-28T05:14:49Z</time>
      </trkpt>
      <trkpt lat="46.0386" lon="6.94043">
        <ele>1701</ele>
        <time>2022-08-28T05:14:50Z</time>
      </trkpt>
      <trkpt lat="46.03861" lon="6.94042">
        <ele>1701</ele>
        <time>2022-08-28T05:14:51Z</time>
      </trkpt>
      <trkpt lat="46.03862" lon="6.94041">
        <ele>1701</ele>
        <time>2022-08-28T05:14:52Z</time>
      </trkpt>
      <trkpt lat="46.03863" lon="6.9404">
        <ele>1701</ele>
        <time>2022-08-28T05:14:54Z</time>
      </trkpt>
      <trkpt lat="46.03865" lon="6.94039">
        <ele>1698</ele>
        <time>2022-08-28T05:14:56Z</time>
      </trkpt>
      <trkpt lat="46.03866" lon="6.94038">
        <ele>1699</ele>
        <time>2022-08-28T05:14:57Z</time>
      </trkpt>
      <trkpt lat="46.03867" lon="6.94037">
        <ele>1699</ele>
        <time>2022-08-28T05:14:58Z</time>
      </trkpt>
      <trkpt lat="46.03868" lon="6.94037">
        <ele>1699</ele>
        <time>2022-08-28T05:14:59Z</time>
      </trkpt>
      <trkpt lat="46.0387" lon="6.94037">
        <ele>1699</ele>
        <time>2022-08-28T05:15:01Z</time>
      </trkpt>
      <trkpt lat="46.03871" lon="6.94037">
        <ele>1699</ele>
        <time>2022-08-28T05:15:02Z</time>
      </trkpt>
      <trkpt lat="46.03872" lon="6.94037">
        <ele>1698</ele>
        <time>2022-08-28T05:15:03Z</time>
      </trkpt>
      <trkpt lat="46.03873" lon="6.94037">
        <ele>1697</ele>
        <time>2022-08-28T05:15:04Z</time>
      </trkpt>
      <trkpt lat="46.03874" lon="6.94037">
        <ele>1697</ele>
        <time>2022-08-28T05:15:05Z</time>
      </trkpt>
      <trkpt lat="46.03876" lon="6.94037">
        <ele>1697</ele>
        <time>2022-08-28T05:15:06Z</time>
      </trkpt>
      <trkpt lat="46.03877" lon="6.94037">
        <ele>1697</ele>
        <time>2022-08-28T05:15:07Z</time>
      </trkpt>
      <trkpt lat="46.03878" lon="6.94037">
        <ele>1696</ele>
        <time>2022-08-28T05:15:08Z</time>
      </trkpt>
      <trkpt lat="46.03885" lon="6.94046">
        <ele>1695</ele>
        <time>2022-08-28T05:15:15Z</time>
      </trkpt>
      <trkpt lat="46.03885" lon="6.94045">
        <ele>1694</ele>
        <time>2022-08-28T05:15:16Z</time>
      </trkpt>
      <trkpt lat="46.03884" lon="6.94044">
        <ele>1694</ele>
        <time>2022-08-28T05:15:17Z</time>
      </trkpt>
      <trkpt lat="46.03883" lon="6.94044">
        <ele>1693</ele>
        <time>2022-08-28T05:15:18Z</time>
      </trkpt>
      <trkpt lat="46.03882" lon="6.94043">
        <ele>1693</ele>
        <time>2022-08-28T05:15:20Z</time>
      </trkpt>
      <trkpt lat="46.03881" lon="6.94043">
        <ele>1693</ele>
        <time>2022-08-28T05:15:21Z</time>
      </trkpt>
      <trkpt lat="46.03881" lon="6.94042">
        <ele>1693</ele>
        <time>2022-08-28T05:15:22Z</time>
      </trkpt>
      <trkpt lat="46.0388" lon="6.94041">
        <ele>1692</ele>
        <time>2022-08-28T05:15:23Z</time>
      </trkpt>
      <trkpt lat="46.03879" lon="6.94041">
        <ele>1692</ele>
        <time>2022-08-28T05:15:25Z</time>
      </trkpt>
      <trkpt lat="46.03878" lon="6.9404">
        <ele>1691</ele>
        <time>2022-08-28T05:15:26Z</time>
      </trkpt>
      <trkpt lat="46.03877" lon="6.94039">
        <ele>1691</ele>
        <time>2022-08-28T05:15:27Z</time>
      </trkpt>
      <trkpt lat="46.03877" lon="6.94039">
        <ele>1691</ele>
        <time>2022-08-28T05:15:28Z</time>
      </trkpt>
      <trkpt lat="46.03875" lon="6.94038">
        <ele>1690</ele>
        <time>2022-08-28T05:15:30Z</time>
      </trkpt>
      <trkpt lat="46.03873" lon="6.94036">
        <ele>1690</ele>
        <time>2022-08-28T05:15:32Z</time>
      </trkpt>
      <trkpt lat="46.03871" lon="6.94035">
        <ele>1688</ele>
        <time>2022-08-28T05:15:34Z</time>
      </trkpt>
      <trkpt lat="46.0387" lon="6.94034">
        <ele>1688</ele>
        <time>2022-08-28T05:15:36Z</time>
      </trkpt>
      <trkpt lat="46.03868" lon="6.94033">
        <ele>1688</ele>
        <time>2022-08-28T05:15:37Z</time>
      </trkpt>
      <trkpt lat="46.03867" lon="6.94032">
        <ele>1688</ele>
        <time>2022-08-28T05:15:38Z</time>
      </trkpt>
      <trkpt lat="46.03866" lon="6.94032">
        <ele>1687</ele>
        <time>2022-08-28T05:15:39Z</time>
      </trkpt>
      <trkpt lat="46.03865" lon="6.94031">
        <ele>1686</ele>
        <time>2022-08-28T05:15:41Z</time>
      </trkpt>
      <trkpt lat="46.03863" lon="6.94031">
        <ele>1686</ele>
        <time>2022-08-28T05:15:42Z</time>
      </trkpt>
      <trkpt lat="46.03862" lon="6.9403">
        <ele>1686</ele>
        <time>2022-08-28T05:15:43Z</time>
      </trkpt>
      <trkpt lat="46.03861" lon="6.94029">
        <ele>1685</ele>
        <time>2022-08-28T05:15:44Z</time>
      </trkpt>
      <trkpt lat="46.0386" lon="6.94029">
        <ele>1685</ele>
        <time>2022-08-28T05:15:45Z</time>
      </trkpt>
      <trkpt lat="46.03859" lon="6.94028">
        <ele>1685</ele>
        <time>2022-08-28T05:15:46Z</time>
      </trkpt>
      <trkpt lat="46.03858" lon="6.94027">
        <ele>1684</ele>
        <time>2022-08-28T05:15:47Z</time>
      </trkpt>
      <trkpt lat="46.03857" lon="6.94026">
        <ele>1684</ele>
        <time>2022-08-28T05:15:48Z</time>
      </trkpt>
      <trkpt lat="46.03856" lon="6.94025">
        <ele>1683</ele>
        <time>2022-08-28T05:15:49Z</time>
      </trkpt>
      <trkpt lat="46.03855" lon="6.94024">
        <ele>1682</ele>
        <time>2022-08-28T05:15:51Z</time>
      </trkpt>
      <trkpt lat="46.03854" lon="6.94023">
        <ele>1681</ele>
        <time>2022-08-28T05:15:53Z</time>
      </trkpt>
      <trkpt lat="46.03853" lon="6.94022">
        <ele>1681</ele>
        <time>2022-08-28T05:15:54Z</time>
      </trkpt>
      <trkpt lat="46.03852" lon="6.94021">
        <ele>1681</ele>
        <time>2022-08-28T05:15:55Z</time>
      </trkpt>
      <trkpt lat="46.03851" lon="6.9402">
        <ele>1681</ele>
        <time>2022-08-28T05:15:56Z</time>
      </trkpt>
      <trkpt lat="46.0385" lon="6.94019">
        <ele>1680</ele>
        <time>2022-08-28T05:15:57Z</time>
      </trkpt>
      <trkpt lat="46.03849" lon="6.94019">
        <ele>1680</ele>
        <time>2022-08-28T05:15:58Z</time>
      </trkpt>
      <trkpt lat="46.03848" lon="6.94018">
        <ele>1680</ele>
        <time>2022-08-28T05:15:59Z</time>
      </trkpt>
      <trkpt lat="46.03848" lon="6.94017">
        <ele>1679</ele>
        <time>2022-08-28T05:16:01Z</time>
      </trkpt>
      <trkpt lat="46.03847" lon="6.94017">
        <ele>1679</ele>
        <time>2022-08-28T05:16:02Z</time>
      </trkpt>
      <trkpt lat="46.03846" lon="6.94016">
        <ele>1679</ele>
        <time>2022-08-28T05:16:03Z</time>
      </trkpt>
      <trkpt lat="46.03845" lon="6.94015">
        <ele>1679</ele>
        <time>2022-08-28T05:16:04Z</time>
      </trkpt>
      <trkpt lat="46.03845" lon="6.94014">
        <ele>1679</ele>
        <time>2022-08-28T05:16:06Z</time>
      </trkpt>
      <trkpt lat="46.03844" lon="6.94014">
        <ele>1679</ele>
        <time>2022-08-28T05:16:07Z</time>
      </trkpt>
      <trkpt lat="46.03843" lon="6.94013">
        <ele>1678</ele>
        <time>2022-08-28T05:16:08Z</time>
      </trkpt>
      <trkpt lat="46.03837" lon="6.94003">
        <ele>1675</ele>
        <time>2022-08-28T05:16:17Z</time>
      </trkpt>
      <trkpt lat="46.03828" lon="6.93997">
        <ele>1672</ele>
        <time>2022-08-28T05:16:24Z</time>
      </trkpt>
      <trkpt lat="46.03827" lon="6.93996">
        <ele>1672</ele>
        <time>2022-08-28T05:16:25Z</time>
      </trkpt>
      <trkpt lat="46.03826" lon="6.93994">
        <ele>1672</ele>
        <time>2022-08-28T05:16:26Z</time>
      </trkpt>
      <trkpt lat="46.03825" lon="6.93992">
        <ele>1672</ele>
        <time>2022-08-28T05:16:27Z</time>
      </trkpt>
      <trkpt lat="46.03824" lon="6.93991">
        <ele>1672</ele>
        <time>2022-08-28T05:16:29Z</time>
      </trkpt>
      <trkpt lat="46.03823" lon="6.93989">
        <ele>1670</ele>
        <time>2022-08-28T05:16:31Z</time>
      </trkpt>
      <trkpt lat="46.03822" lon="6.93988">
        <ele>1670</ele>
        <time>2022-08-28T05:16:32Z</time>
      </trkpt>
      <trkpt lat="46.03821" lon="6.93986">
        <ele>1670</ele>
        <time>2022-08-28T05:16:33Z</time>
      </trkpt>
      <trkpt lat="46.0382" lon="6.93985">
        <ele>1670</ele>
        <time>2022-08-28T05:16:34Z</time>
      </trkpt>
      <trkpt lat="46.03819" lon="6.93984">
        <ele>1670</ele>
        <time>2022-08-28T05:16:36Z</time>
      </trkpt>
      <trkpt lat="46.03818" lon="6.93983">
        <ele>1670</ele>
        <time>2022-08-28T05:16:37Z</time>
      </trkpt>
      <trkpt lat="46.03817" lon="6.93982">
        <ele>1670</ele>
        <time>2022-08-28T05:16:38Z</time>
      </trkpt>
      <trkpt lat="46.03816" lon="6.9398">
        <ele>1670</ele>
        <time>2022-08-28T05:16:39Z</time>
      </trkpt>
      <trkpt lat="46.03815" lon="6.93979">
        <ele>1670</ele>
        <time>2022-08-28T05:16:40Z</time>
      </trkpt>
      <trkpt lat="46.03814" lon="6.93977">
        <ele>1670</ele>
        <time>2022-08-28T05:16:41Z</time>
      </trkpt>
      <trkpt lat="46.03813" lon="6.93974">
        <ele>1669</ele>
        <time>2022-08-28T05:16:42Z</time>
      </trkpt>
      <trkpt lat="46.03812" lon="6.93972">
        <ele>1669</ele>
        <time>2022-08-28T05:16:43Z</time>
      </trkpt>
      <trkpt lat="46.03811" lon="6.93969">
        <ele>1668</ele>
        <time>2022-08-28T05:16:45Z</time>
      </trkpt>
      <trkpt lat="46.0381" lon="6.93967">
        <ele>1668</ele>
        <time>2022-08-28T05:16:46Z</time>
      </trkpt>
      <trkpt lat="46.038" lon="6.93959">
        <ele>1667</ele>
        <time>2022-08-28T05:16:52Z</time>
      </trkpt>
      <trkpt lat="46.03799" lon="6.93958">
        <ele>1667</ele>
        <time>2022-08-28T05:16:53Z</time>
      </trkpt>
      <trkpt lat="46.03797" lon="6.93957">
        <ele>1667</ele>
        <time>2022-08-28T05:16:54Z</time>
      </trkpt>
      <trkpt lat="46.03796" lon="6.93956">
        <ele>1667</ele>
        <time>2022-08-28T05:16:55Z</time>
      </trkpt>
      <trkpt lat="46.03794" lon="6.93955">
        <ele>1667</ele>
        <time>2022-08-28T05:16:57Z</time>
      </trkpt>
      <trkpt lat="46.03793" lon="6.93953">
        <ele>1667</ele>
        <time>2022-08-28T05:16:58Z</time>
      </trkpt>
      <trkpt lat="46.03791" lon="6.93952">
        <ele>1666</ele>
        <time>2022-08-28T05:16:59Z</time>
      </trkpt>
      <trkpt lat="46.0379" lon="6.9395">
        <ele>1666</ele>
        <time>2022-08-28T05:17:00Z</time>
      </trkpt>
      <trkpt lat="46.03789" lon="6.93948">
        <ele>1666</ele>
        <time>2022-08-28T05:17:02Z</time>
      </trkpt>
      <trkpt lat="46.03787" lon="6.93947">
        <ele>1666</ele>
        <time>2022-08-28T05:17:03Z</time>
      </trkpt>
      <trkpt lat="46.03786" lon="6.93945">
        <ele>1666</ele>
        <time>2022-08-28T05:17:04Z</time>
      </trkpt>
      <trkpt lat="46.03785" lon="6.93943">
        <ele>1666</ele>
        <time>2022-08-28T05:17:05Z</time>
      </trkpt>
      <trkpt lat="46.03784" lon="6.93942">
        <ele>1665</ele>
        <time>2022-08-28T05:17:07Z</time>
      </trkpt>
      <trkpt lat="46.03783" lon="6.93941">
        <ele>1665</ele>
        <time>2022-08-28T05:17:08Z</time>
      </trkpt>
      <trkpt lat="46.03782" lon="6.9394">
        <ele>1664</ele>
        <time>2022-08-28T05:17:09Z</time>
      </trkpt>
      <trkpt lat="46.03781" lon="6.93939">
        <ele>1664</ele>
        <time>2022-08-28T05:17:10Z</time>
      </trkpt>
      <trkpt lat="46.0378" lon="6.93938">
        <ele>1664</ele>
        <time>2022-08-28T05:17:12Z</time>
      </trkpt>
      <trkpt lat="46.0378" lon="6.93937">
        <ele>1664</ele>
        <time>2022-08-28T05:17:13Z</time>
      </trkpt>
      <trkpt lat="46.03779" lon="6.93936">
        <ele>1664</ele>
        <time>2022-08-28T05:17:14Z</time>
      </trkpt>
      <trkpt lat="46.03778" lon="6.93934">
        <ele>1664</ele>
        <time>2022-08-28T05:17:15Z</time>
      </trkpt>
      <trkpt lat="46.03777" lon="6.93932">
        <ele>1663</ele>
        <time>2022-08-28T05:17:16Z</time>
      </trkpt>
      <trkpt lat="46.03777" lon="6.9393">
        <ele>1662</ele>
        <time>2022-08-28T05:17:17Z</time>
      </trkpt>
      <trkpt lat="46.03776" lon="6.93928">
        <ele>1662</ele>
        <time>2022-08-28T05:17:18Z</time>
      </trkpt>
      <trkpt lat="46.03775" lon="6.93926">
        <ele>1662</ele>
        <time>2022-08-28T05:17:20Z</time>
      </trkpt>
      <trkpt lat="46.03775" lon="6.93924">
        <ele>1662</ele>
        <time>2022-08-28T05:17:21Z</time>
      </trkpt>
      <trkpt lat="46.03774" lon="6.93922">
        <ele>1661</ele>
        <time>2022-08-28T05:17:22Z</time>
      </trkpt>
      <trkpt lat="46.03769" lon="6.93912">
        <ele>1658</ele>
        <time>2022-08-28T05:17:30Z</time>
      </trkpt>
      <trkpt lat="46.03768" lon="6.93911">
        <ele>1658</ele>
        <time>2022-08-28T05:17:31Z</time>
      </trkpt>
      <trkpt lat="46.03767" lon="6.9391">
        <ele>1658</ele>
        <time>2022-08-28T05:17:32Z</time>
      </trkpt>
      <trkpt lat="46.03766" lon="6.93909">
        <ele>1658</ele>
        <time>2022-08-28T05:17:33Z</time>
      </trkpt>
      <trkpt lat="46.03766" lon="6.93908">
        <ele>1657</ele>
        <time>2022-08-28T05:17:35Z</time>
      </trkpt>
      <trkpt lat="46.03765" lon="6.93907">
        <ele>1656</ele>
        <time>2022-08-28T05:17:36Z</time>
      </trkpt>
      <trkpt lat="46.03764" lon="6.93906">
        <ele>1656</ele>
        <time>2022-08-28T05:17:37Z</time>
      </trkpt>
      <trkpt lat="46.03763" lon="6.93905">
        <ele>1656</ele>
        <time>2022-08-28T05:17:38Z</time>
      </trkpt>
      <trkpt lat="46.03763" lon="6.93904">
        <ele>1656</ele>
        <time>2022-08-28T05:17:39Z</time>
      </trkpt>
      <trkpt lat="46.03762" lon="6.93903">
        <ele>1656</ele>
        <time>2022-08-28T05:17:40Z</time>
      </trkpt>
      <trkpt lat="46.03752" lon="6.93895">
        <ele>1654</ele>
        <time>2022-08-28T05:17:45Z</time>
      </trkpt>
      <trkpt lat="46.03751" lon="6.93894">
        <ele>1653</ele>
        <time>2022-08-28T05:17:46Z</time>
      </trkpt>
      <trkpt lat="46.0375" lon="6.93893">
        <ele>1653</ele>
        <time>2022-08-28T05:17:47Z</time>
      </trkpt>
      <trkpt lat="46.03749" lon="6.93892">
        <ele>1653</ele>
        <time>2022-08-28T05:17:48Z</time>
      </trkpt>
      <trkpt lat="46.03748" lon="6.93892">
        <ele>1653</ele>
        <time>2022-08-28T05:17:50Z</time>
      </trkpt>
      <trkpt lat="46.03747" lon="6.93891">
        <ele>1653</ele>
        <time>2022-08-28T05:17:51Z</time>
      </trkpt>
      <trkpt lat="46.03747" lon="6.9389">
        <ele>1653</ele>
        <time>2022-08-28T05:17:52Z</time>
      </trkpt>
      <trkpt lat="46.03746" lon="6.93889">
        <ele>1653</ele>
        <time>2022-08-28T05:17:53Z</time>
      </trkpt>
      <trkpt lat="46.03745" lon="6.93888">
        <ele>1653</ele>
        <time>2022-08-28T05:17:55Z</time>
      </trkpt>
      <trkpt lat="46.03744" lon="6.93887">
        <ele>1652</ele>
        <time>2022-08-28T05:17:56Z</time>
      </trkpt>
      <trkpt lat="46.03742" lon="6.93886">
        <ele>1652</ele>
        <time>2022-08-28T05:17:57Z</time>
      </trkpt>
      <trkpt lat="46.03741" lon="6.93884">
        <ele>1651</ele>
        <time>2022-08-28T05:17:58Z</time>
      </trkpt>
      <trkpt lat="46.03739" lon="6.93883">
        <ele>1651</ele>
        <time>2022-08-28T05:17:59Z</time>
      </trkpt>
      <trkpt lat="46.03737" lon="6.93881">
        <ele>1651</ele>
        <time>2022-08-28T05:18:00Z</time>
      </trkpt>
      <trkpt lat="46.03736" lon="6.9388">
        <ele>1650</ele>
        <time>2022-08-28T05:18:01Z</time>
      </trkpt>
      <trkpt lat="46.03734" lon="6.9388">
        <ele>1650</ele>
        <time>2022-08-28T05:18:02Z</time>
      </trkpt>
      <trkpt lat="46.03733" lon="6.93879">
        <ele>1650</ele>
        <time>2022-08-28T05:18:04Z</time>
      </trkpt>
      <trkpt lat="46.03731" lon="6.93878">
        <ele>1649</ele>
        <time>2022-08-28T05:18:06Z</time>
      </trkpt>
      <trkpt lat="46.0373" lon="6.93878">
        <ele>1649</ele>
        <time>2022-08-28T05:18:07Z</time>
      </trkpt>
      <trkpt lat="46.03728" lon="6.93877">
        <ele>1649</ele>
        <time>2022-08-28T05:18:08Z</time>
      </trkpt>
      <trkpt lat="46.03727" lon="6.93877">
        <ele>1649</ele>
        <time>2022-08-28T05:18:09Z</time>
      </trkpt>
      <trkpt lat="46.03726" lon="6.93876">
        <ele>1648</ele>
        <time>2022-08-28T05:18:11Z</time>
      </trkpt>
      <trkpt lat="46.03725" lon="6.93875">
        <ele>1648</ele>
        <time>2022-08-28T05:18:13Z</time>
      </trkpt>
      <trkpt lat="46.03724" lon="6.93873">
        <ele>1647</ele>
        <time>2022-08-28T05:18:14Z</time>
      </trkpt>
      <trkpt lat="46.03723" lon="6.93872">
        <ele>1647</ele>
        <time>2022-08-28T05:18:15Z</time>
      </trkpt>
      <trkpt lat="46.03722" lon="6.93871">
        <ele>1646</ele>
        <time>2022-08-28T05:18:16Z</time>
      </trkpt>
      <trkpt lat="46.03721" lon="6.9387">
        <ele>1646</ele>
        <time>2022-08-28T05:18:18Z</time>
      </trkpt>
      <trkpt lat="46.0372" lon="6.93869">
        <ele>1646</ele>
        <time>2022-08-28T05:18:19Z</time>
      </trkpt>
      <trkpt lat="46.03719" lon="6.93868">
        <ele>1646</ele>
        <time>2022-08-28T05:18:20Z</time>
      </trkpt>
      <trkpt lat="46.03718" lon="6.93867">
        <ele>1646</ele>
        <time>2022-08-28T05:18:21Z</time>
      </trkpt>
      <trkpt lat="46.03717" lon="6.93867">
        <ele>1646</ele>
        <time>2022-08-28T05:18:23Z</time>
      </trkpt>
      <trkpt lat="46.03716" lon="6.93866">
        <ele>1646</ele>
        <time>2022-08-28T05:18:24Z</time>
      </trkpt>
      <trkpt lat="46.03714" lon="6.93865">
        <ele>1645</ele>
        <time>2022-08-28T05:18:25Z</time>
      </trkpt>
      <trkpt lat="46.03713" lon="6.93864">
        <ele>1645</ele>
        <time>2022-08-28T05:18:26Z</time>
      </trkpt>
      <trkpt lat="46.03712" lon="6.93864">
        <ele>1645</ele>
        <time>2022-08-28T05:18:27Z</time>
      </trkpt>
      <trkpt lat="46.03711" lon="6.93863">
        <ele>1645</ele>
        <time>2022-08-28T05:18:28Z</time>
      </trkpt>
      <trkpt lat="46.03702" lon="6.93858">
        <ele>1642</ele>
        <time>2022-08-28T05:18:35Z</time>
      </trkpt>
      <trkpt lat="46.03701" lon="6.93857">
        <ele>1642</ele>
        <time>2022-08-28T05:18:36Z</time>
      </trkpt>
      <trkpt lat="46.03701" lon="6.93856">
        <ele>1642</ele>
        <time>2022-08-28T05:18:37Z</time>
      </trkpt>
      <trkpt lat="46.037" lon="6.93855">
        <ele>1642</ele>
        <time>2022-08-28T05:18:38Z</time>
      </trkpt>
      <trkpt lat="46.03699" lon="6.93854">
        <ele>1642</ele>
        <time>2022-08-28T05:18:40Z</time>
      </trkpt>
      <trkpt lat="46.03698" lon="6.93853">
        <ele>1642</ele>
        <time>2022-08-28T05:18:42Z</time>
      </trkpt>
      <trkpt lat="46.03697" lon="6.93851">
        <ele>1642</ele>
        <time>2022-08-28T05:18:43Z</time>
      </trkpt>
      <trkpt lat="46.03696" lon="6.9385">
        <ele>1642</ele>
        <time>2022-08-28T05:18:44Z</time>
      </trkpt>
      <trkpt lat="46.03696" lon="6.93849">
        <ele>1642</ele>
        <time>2022-08-28T05:18:45Z</time>
      </trkpt>
      <trkpt lat="46.03686" lon="6.93847">
        <ele>1641</ele>
        <time>2022-08-28T05:18:50Z</time>
      </trkpt>
      <trkpt lat="46.03686" lon="6.93846">
        <ele>1641</ele>
        <time>2022-08-28T05:18:51Z</time>
      </trkpt>
      <trkpt lat="46.03685" lon="6.93844">
        <ele>1641</ele>
        <time>2022-08-28T05:18:52Z</time>
      </trkpt>
      <trkpt lat="46.03684" lon="6.93842">
        <ele>1641</ele>
        <time>2022-08-28T05:18:53Z</time>
      </trkpt>
      <trkpt lat="46.03684" lon="6.93841">
        <ele>1640</ele>
        <time>2022-08-28T05:18:55Z</time>
      </trkpt>
      <trkpt lat="46.03683" lon="6.93839">
        <ele>1639</ele>
        <time>2022-08-28T05:18:56Z</time>
      </trkpt>
      <trkpt lat="46.03683" lon="6.93838">
        <ele>1639</ele>
        <time>2022-08-28T05:18:57Z</time>
      </trkpt>
      <trkpt lat="46.03682" lon="6.93836">
        <ele>1638</ele>
        <time>2022-08-28T05:18:58Z</time>
      </trkpt>
      <trkpt lat="46.03681" lon="6.93834">
        <ele>1638</ele>
        <time>2022-08-28T05:19:00Z</time>
      </trkpt>
      <trkpt lat="46.03681" lon="6.93832">
        <ele>1638</ele>
        <time>2022-08-28T05:19:01Z</time>
      </trkpt>
      <trkpt lat="46.0368" lon="6.9383">
        <ele>1638</ele>
        <time>2022-08-28T05:19:02Z</time>
      </trkpt>
      <trkpt lat="46.0368" lon="6.93828">
        <ele>1638</ele>
        <time>2022-08-28T05:19:03Z</time>
      </trkpt>
      <trkpt lat="46.03679" lon="6.93826">
        <ele>1638</ele>
        <time>2022-08-28T05:19:04Z</time>
      </trkpt>
      <trkpt lat="46.03679" lon="6.93824">
        <ele>1637</ele>
        <time>2022-08-28T05:19:05Z</time>
      </trkpt>
      <trkpt lat="46.03677" lon="6.93822">
        <ele>1637</ele>
        <time>2022-08-28T05:19:06Z</time>
      </trkpt>
      <trkpt lat="46.03675" lon="6.9382">
        <ele>1637</ele>
        <time>2022-08-28T05:19:07Z</time>
      </trkpt>
      <trkpt lat="46.03674" lon="6.93818">
        <ele>1637</ele>
        <time>2022-08-28T05:19:08Z</time>
      </trkpt>
      <trkpt lat="46.03672" lon="6.93816">
        <ele>1636</ele>
        <time>2022-08-28T05:19:10Z</time>
      </trkpt>
      <trkpt lat="46.03671" lon="6.93815">
        <ele>1636</ele>
        <time>2022-08-28T05:19:11Z</time>
      </trkpt>
      <trkpt lat="46.0367" lon="6.93813">
        <ele>1636</ele>
        <time>2022-08-28T05:19:12Z</time>
      </trkpt>
      <trkpt lat="46.0367" lon="6.93812">
        <ele>1636</ele>
        <time>2022-08-28T05:19:13Z</time>
      </trkpt>
      <trkpt lat="46.03669" lon="6.93811">
        <ele>1636</ele>
        <time>2022-08-28T05:19:15Z</time>
      </trkpt>
      <trkpt lat="46.03669" lon="6.93809">
        <ele>1636</ele>
        <time>2022-08-28T05:19:16Z</time>
      </trkpt>
      <trkpt lat="46.03669" lon="6.93808">
        <ele>1635</ele>
        <time>2022-08-28T05:19:17Z</time>
      </trkpt>
      <trkpt lat="46.03668" lon="6.93807">
        <ele>1635</ele>
        <time>2022-08-28T05:19:18Z</time>
      </trkpt>
      <trkpt lat="46.03668" lon="6.93805">
        <ele>1635</ele>
        <time>2022-08-28T05:19:20Z</time>
      </trkpt>
      <trkpt lat="46.03667" lon="6.93804">
        <ele>1633</ele>
        <time>2022-08-28T05:19:22Z</time>
      </trkpt>
      <trkpt lat="46.03667" lon="6.93803">
        <ele>1632</ele>
        <time>2022-08-28T05:19:23Z</time>
      </trkpt>
      <trkpt lat="46.03666" lon="6.93801">
        <ele>1632</ele>
        <time>2022-08-28T05:19:24Z</time>
      </trkpt>
      <trkpt lat="46.03666" lon="6.93799">
        <ele>1632</ele>
        <time>2022-08-28T05:19:25Z</time>
      </trkpt>
      <trkpt lat="46.03666" lon="6.93797">
        <ele>1632</ele>
        <time>2022-08-28T05:19:26Z</time>
      </trkpt>
      <trkpt lat="46.03665" lon="6.93794">
        <ele>1632</ele>
        <time>2022-08-28T05:19:28Z</time>
      </trkpt>
      <trkpt lat="46.03665" lon="6.93792">
        <ele>1631</ele>
        <time>2022-08-28T05:19:29Z</time>
      </trkpt>
      <trkpt lat="46.03665" lon="6.9379">
        <ele>1631</ele>
        <time>2022-08-28T05:19:30Z</time>
      </trkpt>
      <trkpt lat="46.03664" lon="6.93789">
        <ele>1631</ele>
        <time>2022-08-28T05:19:31Z</time>
      </trkpt>
      <trkpt lat="46.03663" lon="6.93788">
        <ele>1630</ele>
        <time>2022-08-28T05:19:33Z</time>
      </trkpt>
      <trkpt lat="46.03663" lon="6.93787">
        <ele>1630</ele>
        <time>2022-08-28T05:19:35Z</time>
      </trkpt>
      <trkpt lat="46.03662" lon="6.93786">
        <ele>1630</ele>
        <time>2022-08-28T05:19:36Z</time>
      </trkpt>
      <trkpt lat="46.03661" lon="6.93784">
        <ele>1630</ele>
        <time>2022-08-28T05:19:38Z</time>
      </trkpt>
      <trkpt lat="46.03661" lon="6.93783">
        <ele>1630</ele>
        <time>2022-08-28T05:19:39Z</time>
      </trkpt>
      <trkpt lat="46.0366" lon="6.93782">
        <ele>1629</ele>
        <time>2022-08-28T05:19:41Z</time>
      </trkpt>
      <trkpt lat="46.03659" lon="6.93781">
        <ele>1629</ele>
        <time>2022-08-28T05:19:42Z</time>
      </trkpt>
      <trkpt lat="46.03658" lon="6.9378">
        <ele>1627</ele>
        <time>2022-08-28T05:19:43Z</time>
      </trkpt>
      <trkpt lat="46.03657" lon="6.93779">
        <ele>1627</ele>
        <time>2022-08-28T05:19:44Z</time>
      </trkpt>
      <trkpt lat="46.03656" lon="6.93778">
        <ele>1627</ele>
        <time>2022-08-28T05:19:45Z</time>
      </trkpt>
      <trkpt lat="46.03655" lon="6.93777">
        <ele>1627</ele>
        <time>2022-08-28T05:19:46Z</time>
      </trkpt>
      <trkpt lat="46.03653" lon="6.93776">
        <ele>1627</ele>
        <time>2022-08-28T05:19:48Z</time>
      </trkpt>
      <trkpt lat="46.03652" lon="6.93776">
        <ele>1626</ele>
        <time>2022-08-28T05:19:49Z</time>
      </trkpt>
      <trkpt lat="46.03651" lon="6.93775">
        <ele>1626</ele>
        <time>2022-08-28T05:19:50Z</time>
      </trkpt>
      <trkpt lat="46.03649" lon="6.93774">
        <ele>1626</ele>
        <time>2022-08-28T05:19:51Z</time>
      </trkpt>
      <trkpt lat="46.03648" lon="6.93774">
        <ele>1626</ele>
        <time>2022-08-28T05:19:53Z</time>
      </trkpt>
      <trkpt lat="46.03647" lon="6.93773">
        <ele>1625</ele>
        <time>2022-08-28T05:19:54Z</time>
      </trkpt>
      <trkpt lat="46.03645" lon="6.93772">
        <ele>1624</ele>
        <time>2022-08-28T05:19:55Z</time>
      </trkpt>
      <trkpt lat="46.03644" lon="6.93772">
        <ele>1624</ele>
        <time>2022-08-28T05:19:56Z</time>
      </trkpt>
      <trkpt lat="46.03642" lon="6.93771">
        <ele>1624</ele>
        <time>2022-08-28T05:19:57Z</time>
      </trkpt>
      <trkpt lat="46.03641" lon="6.9377">
        <ele>1624</ele>
        <time>2022-08-28T05:19:58Z</time>
      </trkpt>
      <trkpt lat="46.0364" lon="6.93769">
        <ele>1623</ele>
        <time>2022-08-28T05:19:59Z</time>
      </trkpt>
      <trkpt lat="46.03639" lon="6.93768">
        <ele>1622</ele>
        <time>2022-08-28T05:20:00Z</time>
      </trkpt>
      <trkpt lat="46.03638" lon="6.93766">
        <ele>1622</ele>
        <time>2022-08-28T05:20:02Z</time>
      </trkpt>
      <trkpt lat="46.03638" lon="6.93765">
        <ele>1622</ele>
        <time>2022-08-28T05:20:03Z</time>
      </trkpt>
      <trkpt lat="46.03637" lon="6.93764">
        <ele>1622</ele>
        <time>2022-08-28T05:20:04Z</time>
      </trkpt>
      <trkpt lat="46.03636" lon="6.93763">
        <ele>1622</ele>
        <time>2022-08-28T05:20:05Z</time>
      </trkpt>
      <trkpt lat="46.03635" lon="6.93761">
        <ele>1622</ele>
        <time>2022-08-28T05:20:07Z</time>
      </trkpt>
      <trkpt lat="46.03634" lon="6.9376">
        <ele>1622</ele>
        <time>2022-08-28T05:20:08Z</time>
      </trkpt>
      <trkpt lat="46.03633" lon="6.93759">
        <ele>1622</ele>
        <time>2022-08-28T05:20:09Z</time>
      </trkpt>
      <trkpt lat="46.03631" lon="6.93758">
        <ele>1622</ele>
        <time>2022-08-28T05:20:10Z</time>
      </trkpt>
      <trkpt lat="46.03629" lon="6.93758">
        <ele>1621</ele>
        <time>2022-08-28T05:20:11Z</time>
      </trkpt>
      <trkpt lat="46.03627" lon="6.93757">
        <ele>1621</ele>
        <time>2022-08-28T05:20:13Z</time>
      </trkpt>
      <trkpt lat="46.03625" lon="6.93756">
        <ele>1620</ele>
        <time>2022-08-28T05:20:14Z</time>
      </trkpt>
      <trkpt lat="46.03624" lon="6.93755">
        <ele>1620</ele>
        <time>2022-08-28T05:20:15Z</time>
      </trkpt>
      <trkpt lat="46.03622" lon="6.93754">
        <ele>1619</ele>
        <time>2022-08-28T05:20:17Z</time>
      </trkpt>
      <trkpt lat="46.03621" lon="6.93753">
        <ele>1619</ele>
        <time>2022-08-28T05:20:18Z</time>
      </trkpt>
      <trkpt lat="46.0362" lon="6.93752">
        <ele>1619</ele>
        <time>2022-08-28T05:20:19Z</time>
      </trkpt>
      <trkpt lat="46.03618" lon="6.93752">
        <ele>1618</ele>
        <time>2022-08-28T05:20:21Z</time>
      </trkpt>
      <trkpt lat="46.03617" lon="6.93751">
        <ele>1618</ele>
        <time>2022-08-28T05:20:22Z</time>
      </trkpt>
      <trkpt lat="46.03615" lon="6.9375">
        <ele>1618</ele>
        <time>2022-08-28T05:20:23Z</time>
      </trkpt>
      <trkpt lat="46.03613" lon="6.9375">
        <ele>1618</ele>
        <time>2022-08-28T05:20:24Z</time>
      </trkpt>
      <trkpt lat="46.03611" lon="6.93749">
        <ele>1618</ele>
        <time>2022-08-28T05:20:26Z</time>
      </trkpt>
      <trkpt lat="46.0361" lon="6.93749">
        <ele>1618</ele>
        <time>2022-08-28T05:20:27Z</time>
      </trkpt>
      <trkpt lat="46.03608" lon="6.93749">
        <ele>1618</ele>
        <time>2022-08-28T05:20:28Z</time>
      </trkpt>
      <trkpt lat="46.03607" lon="6.93747">
        <ele>1618</ele>
        <time>2022-08-28T05:20:29Z</time>
      </trkpt>
      <trkpt lat="46.03606" lon="6.93746">
        <ele>1618</ele>
        <time>2022-08-28T05:20:31Z</time>
      </trkpt>
      <trkpt lat="46.03605" lon="6.93745">
        <ele>1618</ele>
        <time>2022-08-28T05:20:32Z</time>
      </trkpt>
      <trkpt lat="46.03604" lon="6.93744">
        <ele>1618</ele>
        <time>2022-08-28T05:20:33Z</time>
      </trkpt>
      <trkpt lat="46.03604" lon="6.93743">
        <ele>1617</ele>
        <time>2022-08-28T05:20:34Z</time>
      </trkpt>
      <trkpt lat="46.03603" lon="6.93741">
        <ele>1617</ele>
        <time>2022-08-28T05:20:36Z</time>
      </trkpt>
      <trkpt lat="46.03602" lon="6.9374">
        <ele>1617</ele>
        <time>2022-08-28T05:20:37Z</time>
      </trkpt>
      <trkpt lat="46.03601" lon="6.93739">
        <ele>1616</ele>
        <time>2022-08-28T05:20:38Z</time>
      </trkpt>
      <trkpt lat="46.03596" lon="6.93727">
        <ele>1613</ele>
        <time>2022-08-28T05:20:48Z</time>
      </trkpt>
      <trkpt lat="46.03596" lon="6.93726">
        <ele>1612</ele>
        <time>2022-08-28T05:20:50Z</time>
      </trkpt>
      <trkpt lat="46.03595" lon="6.93725">
        <ele>1612</ele>
        <time>2022-08-28T05:20:51Z</time>
      </trkpt>
      <trkpt lat="46.03594" lon="6.93723">
        <ele>1611</ele>
        <time>2022-08-28T05:20:52Z</time>
      </trkpt>
      <trkpt lat="46.03594" lon="6.93722">
        <ele>1611</ele>
        <time>2022-08-28T05:20:53Z</time>
      </trkpt>
      <trkpt lat="46.03593" lon="6.93721">
        <ele>1611</ele>
        <time>2022-08-28T05:20:55Z</time>
      </trkpt>
      <trkpt lat="46.03593" lon="6.9372">
        <ele>1610</ele>
        <time>2022-08-28T05:20:56Z</time>
      </trkpt>
      <trkpt lat="46.03592" lon="6.93719">
        <ele>1609</ele>
        <time>2022-08-28T05:20:57Z</time>
      </trkpt>
      <trkpt lat="46.03591" lon="6.93718">
        <ele>1609</ele>
        <time>2022-08-28T05:20:58Z</time>
      </trkpt>
      <trkpt lat="46.03591" lon="6.93717">
        <ele>1609</ele>
        <time>2022-08-28T05:20:59Z</time>
      </trkpt>
      <trkpt lat="46.0359" lon="6.93716">
        <ele>1609</ele>
        <time>2022-08-28T05:21:00Z</time>
      </trkpt>
      <trkpt lat="46.03583" lon="6.93709">
        <ele>1607</ele>
        <time>2022-08-28T05:21:06Z</time>
      </trkpt>
      <trkpt lat="46.03581" lon="6.93708">
        <ele>1607</ele>
        <time>2022-08-28T05:21:07Z</time>
      </trkpt>
      <trkpt lat="46.03579" lon="6.93708">
        <ele>1606</ele>
        <time>2022-08-28T05:21:08Z</time>
      </trkpt>
      <trkpt lat="46.03577" lon="6.93707">
        <ele>1606</ele>
        <time>2022-08-28T05:21:09Z</time>
      </trkpt>
      <trkpt lat="46.03575" lon="6.93706">
        <ele>1606</ele>
        <time>2022-08-28T05:21:11Z</time>
      </trkpt>
      <trkpt lat="46.03573" lon="6.93706">
        <ele>1606</ele>
        <time>2022-08-28T05:21:12Z</time>
      </trkpt>
      <trkpt lat="46.03566" lon="6.93695">
        <ele>1605</ele>
        <time>2022-08-28T05:21:18Z</time>
      </trkpt>
      <trkpt lat="46.03565" lon="6.93694">
        <ele>1605</ele>
        <time>2022-08-28T05:21:19Z</time>
      </trkpt>
      <trkpt lat="46.03565" lon="6.93693">
        <ele>1605</ele>
        <time>2022-08-28T05:21:20Z</time>
      </trkpt>
      <trkpt lat="46.03564" lon="6.93693">
        <ele>1605</ele>
        <time>2022-08-28T05:21:21Z</time>
      </trkpt>
      <trkpt lat="46.03563" lon="6.93692">
        <ele>1604</ele>
        <time>2022-08-28T05:21:23Z</time>
      </trkpt>
      <trkpt lat="46.03562" lon="6.93691">
        <ele>1604</ele>
        <time>2022-08-28T05:21:24Z</time>
      </trkpt>
      <trkpt lat="46.03556" lon="6.93686">
        <ele>1604</ele>
        <time>2022-08-28T05:21:25Z</time>
      </trkpt>
      <trkpt lat="46.03555" lon="6.93685">
        <ele>1603</ele>
        <time>2022-08-28T05:21:26Z</time>
      </trkpt>
      <trkpt lat="46.03553" lon="6.93684">
        <ele>1603</ele>
        <time>2022-08-28T05:21:28Z</time>
      </trkpt>
      <trkpt lat="46.03552" lon="6.93682">
        <ele>1603</ele>
        <time>2022-08-28T05:21:29Z</time>
      </trkpt>
      <trkpt lat="46.03551" lon="6.93681">
        <ele>1603</ele>
        <time>2022-08-28T05:21:30Z</time>
      </trkpt>
      <trkpt lat="46.0355" lon="6.9368">
        <ele>1603</ele>
        <time>2022-08-28T05:21:31Z</time>
      </trkpt>
      <trkpt lat="46.03547" lon="6.93677">
        <ele>1603</ele>
        <time>2022-08-28T05:21:33Z</time>
      </trkpt>
      <trkpt lat="46.03544" lon="6.93674">
        <ele>1602</ele>
        <time>2022-08-28T05:21:34Z</time>
      </trkpt>
      <trkpt lat="46.03541" lon="6.93671">
        <ele>1601</ele>
        <time>2022-08-28T05:21:35Z</time>
      </trkpt>
      <trkpt lat="46.03539" lon="6.93666">
        <ele>1602</ele>
        <time>2022-08-28T05:21:37Z</time>
      </trkpt>
      <trkpt lat="46.03536" lon="6.9366">
        <ele>1602</ele>
        <time>2022-08-28T05:21:38Z</time>
      </trkpt>
      <trkpt lat="46.03537" lon="6.93645">
        <ele>1601</ele>
        <time>2022-08-28T05:21:42Z</time>
      </trkpt>
      <trkpt lat="46.0354" lon="6.93631">
        <ele>1600</ele>
        <time>2022-08-28T05:21:47Z</time>
      </trkpt>
      <trkpt lat="46.0354" lon="6.93629">
        <ele>1600</ele>
        <time>2022-08-28T05:21:48Z</time>
      </trkpt>
      <trkpt lat="46.03539" lon="6.93627">
        <ele>1600</ele>
        <time>2022-08-28T05:21:49Z</time>
      </trkpt>
      <trkpt lat="46.03539" lon="6.93625">
        <ele>1600</ele>
        <time>2022-08-28T05:21:50Z</time>
      </trkpt>
      <trkpt lat="46.03538" lon="6.93623">
        <ele>1600</ele>
        <time>2022-08-28T05:21:52Z</time>
      </trkpt>
      <trkpt lat="46.03538" lon="6.93622">
        <ele>1600</ele>
        <time>2022-08-28T05:21:54Z</time>
      </trkpt>
      <trkpt lat="46.03538" lon="6.9362">
        <ele>1600</ele>
        <time>2022-08-28T05:21:55Z</time>
      </trkpt>
      <trkpt lat="46.03537" lon="6.93618">
        <ele>1600</ele>
        <time>2022-08-28T05:21:56Z</time>
      </trkpt>
      <trkpt lat="46.03536" lon="6.93617">
        <ele>1599</ele>
        <time>2022-08-28T05:21:57Z</time>
      </trkpt>
      <trkpt lat="46.03534" lon="6.93616">
        <ele>1598</ele>
        <time>2022-08-28T05:21:58Z</time>
      </trkpt>
      <trkpt lat="46.03532" lon="6.93615">
        <ele>1598</ele>
        <time>2022-08-28T05:21:59Z</time>
      </trkpt>
      <trkpt lat="46.0353" lon="6.93615">
        <ele>1598</ele>
        <time>2022-08-28T05:22:00Z</time>
      </trkpt>
      <trkpt lat="46.03529" lon="6.93614">
        <ele>1598</ele>
        <time>2022-08-28T05:22:01Z</time>
      </trkpt>
      <trkpt lat="46.03521" lon="6.93607">
        <ele>1596</ele>
        <time>2022-08-28T05:22:06Z</time>
      </trkpt>
      <trkpt lat="46.03517" lon="6.93595">
        <ele>1595</ele>
        <time>2022-08-28T05:22:11Z</time>
      </trkpt>
      <trkpt lat="46.03517" lon="6.93593">
        <ele>1595</ele>
        <time>2022-08-28T05:22:12Z</time>
      </trkpt>
      <trkpt lat="46.03516" lon="6.93591">
        <ele>1594</ele>
        <time>2022-08-28T05:22:13Z</time>
      </trkpt>
      <trkpt lat="46.03515" lon="6.93589">
        <ele>1594</ele>
        <time>2022-08-28T05:22:14Z</time>
      </trkpt>
      <trkpt lat="46.03515" lon="6.93586">
        <ele>1593</ele>
        <time>2022-08-28T05:22:15Z</time>
      </trkpt>
      <trkpt lat="46.03514" lon="6.93584">
        <ele>1593</ele>
        <time>2022-08-28T05:22:16Z</time>
      </trkpt>
      <trkpt lat="46.03513" lon="6.93582">
        <ele>1593</ele>
        <time>2022-08-28T05:22:17Z</time>
      </trkpt>
      <trkpt lat="46.03514" lon="6.9358">
        <ele>1593</ele>
        <time>2022-08-28T05:22:18Z</time>
      </trkpt>
      <trkpt lat="46.03514" lon="6.93577">
        <ele>1593</ele>
        <time>2022-08-28T05:22:19Z</time>
      </trkpt>
      <trkpt lat="46.03514" lon="6.93574">
        <ele>1593</ele>
        <time>2022-08-28T05:22:20Z</time>
      </trkpt>
      <trkpt lat="46.03514" lon="6.93572">
        <ele>1592</ele>
        <time>2022-08-28T05:22:21Z</time>
      </trkpt>
      <trkpt lat="46.03514" lon="6.93569">
        <ele>1592</ele>
        <time>2022-08-28T05:22:23Z</time>
      </trkpt>
      <trkpt lat="46.03514" lon="6.93566">
        <ele>1591</ele>
        <time>2022-08-28T05:22:24Z</time>
      </trkpt>
      <trkpt lat="46.03515" lon="6.93564">
        <ele>1591</ele>
        <time>2022-08-28T05:22:25Z</time>
      </trkpt>
      <trkpt lat="46.03516" lon="6.93561">
        <ele>1591</ele>
        <time>2022-08-28T05:22:26Z</time>
      </trkpt>
      <trkpt lat="46.03516" lon="6.93559">
        <ele>1591</ele>
        <time>2022-08-28T05:22:27Z</time>
      </trkpt>
      <trkpt lat="46.03517" lon="6.93556">
        <ele>1591</ele>
        <time>2022-08-28T05:22:28Z</time>
      </trkpt>
      <trkpt lat="46.03518" lon="6.93553">
        <ele>1591</ele>
        <time>2022-08-28T05:22:29Z</time>
      </trkpt>
      <trkpt lat="46.03518" lon="6.9355">
        <ele>1590</ele>
        <time>2022-08-28T05:22:30Z</time>
      </trkpt>
      <trkpt lat="46.03517" lon="6.93546">
        <ele>1589</ele>
        <time>2022-08-28T05:22:32Z</time>
      </trkpt>
      <trkpt lat="46.03517" lon="6.93543">
        <ele>1589</ele>
        <time>2022-08-28T05:22:33Z</time>
      </trkpt>
      <trkpt lat="46.03517" lon="6.93539">
        <ele>1588</ele>
        <time>2022-08-28T05:22:34Z</time>
      </trkpt>
      <trkpt lat="46.03516" lon="6.93536">
        <ele>1588</ele>
        <time>2022-08-28T05:22:35Z</time>
      </trkpt>
      <trkpt lat="46.03515" lon="6.93534">
        <ele>1588</ele>
        <time>2022-08-28T05:22:36Z</time>
      </trkpt>
      <trkpt lat="46.03515" lon="6.93531">
        <ele>1588</ele>
        <time>2022-08-28T05:22:37Z</time>
      </trkpt>
      <trkpt lat="46.03514" lon="6.93529">
        <ele>1588</ele>
        <time>2022-08-28T05:22:38Z</time>
      </trkpt>
      <trkpt lat="46.03513" lon="6.93526">
        <ele>1588</ele>
        <time>2022-08-28T05:22:39Z</time>
      </trkpt>
      <trkpt lat="46.03512" lon="6.93523">
        <ele>1587</ele>
        <time>2022-08-28T05:22:40Z</time>
      </trkpt>
      <trkpt lat="46.03511" lon="6.93521">
        <ele>1587</ele>
        <time>2022-08-28T05:22:41Z</time>
      </trkpt>
      <trkpt lat="46.03511" lon="6.93518">
        <ele>1587</ele>
        <time>2022-08-28T05:22:42Z</time>
      </trkpt>
      <trkpt lat="46.0351" lon="6.93515">
        <ele>1587</ele>
        <time>2022-08-28T05:22:44Z</time>
      </trkpt>
      <trkpt lat="46.03509" lon="6.93513">
        <ele>1587</ele>
        <time>2022-08-28T05:22:45Z</time>
      </trkpt>
      <trkpt lat="46.03507" lon="6.93512">
        <ele>1587</ele>
        <time>2022-08-28T05:22:46Z</time>
      </trkpt>
      <trkpt lat="46.03506" lon="6.93511">
        <ele>1587</ele>
        <time>2022-08-28T05:22:47Z</time>
      </trkpt>
      <trkpt lat="46.03504" lon="6.9351">
        <ele>1587</ele>
        <time>2022-08-28T05:22:49Z</time>
      </trkpt>
      <trkpt lat="46.03503" lon="6.93509">
        <ele>1587</ele>
        <time>2022-08-28T05:22:51Z</time>
      </trkpt>
      <trkpt lat="46.03501" lon="6.93508">
        <ele>1587</ele>
        <time>2022-08-28T05:22:52Z</time>
      </trkpt>
      <trkpt lat="46.035" lon="6.93507">
        <ele>1587</ele>
        <time>2022-08-28T05:22:53Z</time>
      </trkpt>
      <trkpt lat="46.03494" lon="6.93494">
        <ele>1587</ele>
        <time>2022-08-28T05:22:58Z</time>
      </trkpt>
      <trkpt lat="46.03487" lon="6.93487">
        <ele>1586</ele>
        <time>2022-08-28T05:23:05Z</time>
      </trkpt>
      <trkpt lat="46.03485" lon="6.93485">
        <ele>1586</ele>
        <time>2022-08-28T05:23:06Z</time>
      </trkpt>
      <trkpt lat="46.03483" lon="6.93484">
        <ele>1586</ele>
        <time>2022-08-28T05:23:08Z</time>
      </trkpt>
      <trkpt lat="46.03481" lon="6.93483">
        <ele>1586</ele>
        <time>2022-08-28T05:23:10Z</time>
      </trkpt>
      <trkpt lat="46.03479" lon="6.93481">
        <ele>1586</ele>
        <time>2022-08-28T05:23:11Z</time>
      </trkpt>
      <trkpt lat="46.03478" lon="6.9348">
        <ele>1586</ele>
        <time>2022-08-28T05:23:12Z</time>
      </trkpt>
      <trkpt lat="46.03476" lon="6.93478">
        <ele>1586</ele>
        <time>2022-08-28T05:23:13Z</time>
      </trkpt>
      <trkpt lat="46.03474" lon="6.93477">
        <ele>1586</ele>
        <time>2022-08-28T05:23:15Z</time>
      </trkpt>
      <trkpt lat="46.03473" lon="6.93475">
        <ele>1586</ele>
        <time>2022-08-28T05:23:17Z</time>
      </trkpt>
      <trkpt lat="46.03471" lon="6.93473">
        <ele>1586</ele>
        <time>2022-08-28T05:23:18Z</time>
      </trkpt>
      <trkpt lat="46.0347" lon="6.93472">
        <ele>1586</ele>
        <time>2022-08-28T05:23:19Z</time>
      </trkpt>
      <trkpt lat="46.03464" lon="6.9346">
        <ele>1587</ele>
        <time>2022-08-28T05:23:24Z</time>
      </trkpt>
      <trkpt lat="46.03463" lon="6.93458">
        <ele>1587</ele>
        <time>2022-08-28T05:23:27Z</time>
      </trkpt>
      <trkpt lat="46.03462" lon="6.93455">
        <ele>1587</ele>
        <time>2022-08-28T05:23:28Z</time>
      </trkpt>
      <trkpt lat="46.03461" lon="6.93453">
        <ele>1587</ele>
        <time>2022-08-28T05:23:29Z</time>
      </trkpt>
      <trkpt lat="46.0346" lon="6.93451">
        <ele>1587</ele>
        <time>2022-08-28T05:23:31Z</time>
      </trkpt>
      <trkpt lat="46.03459" lon="6.93448">
        <ele>1587</ele>
        <time>2022-08-28T05:23:32Z</time>
      </trkpt>
      <trkpt lat="46.03457" lon="6.93447">
        <ele>1587</ele>
        <time>2022-08-28T05:23:33Z</time>
      </trkpt>
      <trkpt lat="46.03456" lon="6.93445">
        <ele>1587</ele>
        <time>2022-08-28T05:23:34Z</time>
      </trkpt>
      <trkpt lat="46.03455" lon="6.93444">
        <ele>1587</ele>
        <time>2022-08-28T05:23:36Z</time>
      </trkpt>
      <trkpt lat="46.03454" lon="6.93442">
        <ele>1587</ele>
        <time>2022-08-28T05:23:37Z</time>
      </trkpt>
      <trkpt lat="46.03453" lon="6.93441">
        <ele>1587</ele>
        <time>2022-08-28T05:23:38Z</time>
      </trkpt>
      <trkpt lat="46.03452" lon="6.93439">
        <ele>1587</ele>
        <time>2022-08-28T05:23:39Z</time>
      </trkpt>
      <trkpt lat="46.03451" lon="6.93437">
        <ele>1587</ele>
        <time>2022-08-28T05:23:41Z</time>
      </trkpt>
      <trkpt lat="46.03451" lon="6.93435">
        <ele>1588</ele>
        <time>2022-08-28T05:23:42Z</time>
      </trkpt>
      <trkpt lat="46.0345" lon="6.93433">
        <ele>1588</ele>
        <time>2022-08-28T05:23:43Z</time>
      </trkpt>
      <trkpt lat="46.03449" lon="6.93431">
        <ele>1588</ele>
        <time>2022-08-28T05:23:44Z</time>
      </trkpt>
      <trkpt lat="46.03449" lon="6.93429">
        <ele>1588</ele>
        <time>2022-08-28T05:23:45Z</time>
      </trkpt>
      <trkpt lat="46.03448" lon="6.93427">
        <ele>1588</ele>
        <time>2022-08-28T05:23:46Z</time>
      </trkpt>
      <trkpt lat="46.0345" lon="6.93421">
        <ele>1589</ele>
        <time>2022-08-28T05:23:48Z</time>
      </trkpt>
      <trkpt lat="46.03452" lon="6.93415">
        <ele>1589</ele>
        <time>2022-08-28T05:23:49Z</time>
      </trkpt>
      <trkpt lat="46.03453" lon="6.93412">
        <ele>1589</ele>
        <time>2022-08-28T05:23:50Z</time>
      </trkpt>
      <trkpt lat="46.03454" lon="6.9341">
        <ele>1588</ele>
        <time>2022-08-28T05:23:51Z</time>
      </trkpt>
      <trkpt lat="46.03455" lon="6.93408">
        <ele>1588</ele>
        <time>2022-08-28T05:23:53Z</time>
      </trkpt>
      <trkpt lat="46.03456" lon="6.93406">
        <ele>1588</ele>
        <time>2022-08-28T05:23:54Z</time>
      </trkpt>
      <trkpt lat="46.03457" lon="6.93403">
        <ele>1588</ele>
        <time>2022-08-28T05:23:55Z</time>
      </trkpt>
      <trkpt lat="46.03456" lon="6.93402">
        <ele>1588</ele>
        <time>2022-08-28T05:23:56Z</time>
      </trkpt>
      <trkpt lat="46.03456" lon="6.93401">
        <ele>1588</ele>
        <time>2022-08-28T05:23:57Z</time>
      </trkpt>
      <trkpt lat="46.03455" lon="6.93399">
        <ele>1588</ele>
        <time>2022-08-28T05:23:58Z</time>
      </trkpt>
      <trkpt lat="46.03454" lon="6.93398">
        <ele>1588</ele>
        <time>2022-08-28T05:24:00Z</time>
      </trkpt>
      <trkpt lat="46.03454" lon="6.93397">
        <ele>1588</ele>
        <time>2022-08-28T05:24:01Z</time>
      </trkpt>
      <trkpt lat="46.03453" lon="6.93395">
        <ele>1588</ele>
        <time>2022-08-28T05:24:02Z</time>
      </trkpt>
      <trkpt lat="46.03452" lon="6.93394">
        <ele>1588</ele>
        <time>2022-08-28T05:24:03Z</time>
      </trkpt>
      <trkpt lat="46.03452" lon="6.93392">
        <ele>1588</ele>
        <time>2022-08-28T05:24:04Z</time>
      </trkpt>
      <trkpt lat="46.03451" lon="6.93391">
        <ele>1588</ele>
        <time>2022-08-28T05:24:05Z</time>
      </trkpt>
      <trkpt lat="46.03449" lon="6.9339">
        <ele>1588</ele>
        <time>2022-08-28T05:24:07Z</time>
      </trkpt>
      <trkpt lat="46.03448" lon="6.93389">
        <ele>1588</ele>
        <time>2022-08-28T05:24:08Z</time>
      </trkpt>
      <trkpt lat="46.03446" lon="6.93389">
        <ele>1588</ele>
        <time>2022-08-28T05:24:09Z</time>
      </trkpt>
      <trkpt lat="46.03445" lon="6.93388">
        <ele>1588</ele>
        <time>2022-08-28T05:24:10Z</time>
      </trkpt>
      <trkpt lat="46.03443" lon="6.93387">
        <ele>1588</ele>
        <time>2022-08-28T05:24:11Z</time>
      </trkpt>
      <trkpt lat="46.03442" lon="6.93386">
        <ele>1588</ele>
        <time>2022-08-28T05:24:12Z</time>
      </trkpt>
      <trkpt lat="46.03433" lon="6.93379">
        <ele>1589</ele>
        <time>2022-08-28T05:24:19Z</time>
      </trkpt>
      <trkpt lat="46.03432" lon="6.93377">
        <ele>1590</ele>
        <time>2022-08-28T05:24:20Z</time>
      </trkpt>
      <trkpt lat="46.03432" lon="6.93375">
        <ele>1590</ele>
        <time>2022-08-28T05:24:21Z</time>
      </trkpt>
      <trkpt lat="46.03431" lon="6.93373">
        <ele>1590</ele>
        <time>2022-08-28T05:24:23Z</time>
      </trkpt>
      <trkpt lat="46.0343" lon="6.93371">
        <ele>1590</ele>
        <time>2022-08-28T05:24:24Z</time>
      </trkpt>
      <trkpt lat="46.0343" lon="6.93369">
        <ele>1590</ele>
        <time>2022-08-28T05:24:25Z</time>
      </trkpt>
      <trkpt lat="46.03429" lon="6.93367">
        <ele>1591</ele>
        <time>2022-08-28T05:24:26Z</time>
      </trkpt>
      <trkpt lat="46.0343" lon="6.93365">
        <ele>1591</ele>
        <time>2022-08-28T05:24:28Z</time>
      </trkpt>
      <trkpt lat="46.0343" lon="6.93362">
        <ele>1591</ele>
        <time>2022-08-28T05:24:29Z</time>
      </trkpt>
      <trkpt lat="46.03431" lon="6.9336">
        <ele>1591</ele>
        <time>2022-08-28T05:24:30Z</time>
      </trkpt>
      <trkpt lat="46.03432" lon="6.93358">
        <ele>1591</ele>
        <time>2022-08-28T05:24:31Z</time>
      </trkpt>
      <trkpt lat="46.03433" lon="6.93355">
        <ele>1591</ele>
        <time>2022-08-28T05:24:32Z</time>
      </trkpt>
      <trkpt lat="46.03432" lon="6.93353">
        <ele>1591</ele>
        <time>2022-08-28T05:24:33Z</time>
      </trkpt>
      <trkpt lat="46.0343" lon="6.93352">
        <ele>1591</ele>
        <time>2022-08-28T05:24:34Z</time>
      </trkpt>
      <trkpt lat="46.03429" lon="6.9335">
        <ele>1591</ele>
        <time>2022-08-28T05:24:36Z</time>
      </trkpt>
      <trkpt lat="46.03428" lon="6.93349">
        <ele>1591</ele>
        <time>2022-08-28T05:24:37Z</time>
      </trkpt>
      <trkpt lat="46.03427" lon="6.93347">
        <ele>1591</ele>
        <time>2022-08-28T05:24:38Z</time>
      </trkpt>
      <trkpt lat="46.03426" lon="6.93345">
        <ele>1591</ele>
        <time>2022-08-28T05:24:39Z</time>
      </trkpt>
      <trkpt lat="46.03424" lon="6.93345">
        <ele>1590</ele>
        <time>2022-08-28T05:24:41Z</time>
      </trkpt>
      <trkpt lat="46.03422" lon="6.93344">
        <ele>1590</ele>
        <time>2022-08-28T05:24:43Z</time>
      </trkpt>
      <trkpt lat="46.03419" lon="6.93343">
        <ele>1590</ele>
        <time>2022-08-28T05:24:44Z</time>
      </trkpt>
      <trkpt lat="46.03417" lon="6.93342">
        <ele>1589</ele>
        <time>2022-08-28T05:24:45Z</time>
      </trkpt>
      <trkpt lat="46.03415" lon="6.9334">
        <ele>1589</ele>
        <time>2022-08-28T05:24:47Z</time>
      </trkpt>
      <trkpt lat="46.03413" lon="6.93338">
        <ele>1589</ele>
        <time>2022-08-28T05:24:48Z</time>
      </trkpt>
      <trkpt lat="46.03411" lon="6.93336">
        <ele>1589</ele>
        <time>2022-08-28T05:24:49Z</time>
      </trkpt>
      <trkpt lat="46.03409" lon="6.93334">
        <ele>1589</ele>
        <time>2022-08-28T05:24:50Z</time>
      </trkpt>
      <trkpt lat="46.034" lon="6.93327">
        <ele>1589</ele>
        <time>2022-08-28T05:24:57Z</time>
      </trkpt>
      <trkpt lat="46.03399" lon="6.93326">
        <ele>1590</ele>
        <time>2022-08-28T05:24:58Z</time>
      </trkpt>
      <trkpt lat="46.03398" lon="6.93325">
        <ele>1590</ele>
        <time>2022-08-28T05:24:59Z</time>
      </trkpt>
      <trkpt lat="46.03397" lon="6.93324">
        <ele>1590</ele>
        <time>2022-08-28T05:25:00Z</time>
      </trkpt>
      <trkpt lat="46.03395" lon="6.93323">
        <ele>1590</ele>
        <time>2022-08-28T05:25:02Z</time>
      </trkpt>
      <trkpt lat="46.03394" lon="6.93322">
        <ele>1590</ele>
        <time>2022-08-28T05:25:03Z</time>
      </trkpt>
      <trkpt lat="46.03393" lon="6.93321">
        <ele>1590</ele>
        <time>2022-08-28T05:25:04Z</time>
      </trkpt>
      <trkpt lat="46.03392" lon="6.9332">
        <ele>1590</ele>
        <time>2022-08-28T05:25:05Z</time>
      </trkpt>
      <trkpt lat="46.0339" lon="6.93319">
        <ele>1590</ele>
        <time>2022-08-28T05:25:06Z</time>
      </trkpt>
      <trkpt lat="46.03389" lon="6.93317">
        <ele>1590</ele>
        <time>2022-08-28T05:25:07Z</time>
      </trkpt>
      <trkpt lat="46.03387" lon="6.93316">
        <ele>1590</ele>
        <time>2022-08-28T05:25:08Z</time>
      </trkpt>
      <trkpt lat="46.03386" lon="6.93314">
        <ele>1590</ele>
        <time>2022-08-28T05:25:10Z</time>
      </trkpt>
      <trkpt lat="46.03384" lon="6.93313">
        <ele>1590</ele>
        <time>2022-08-28T05:25:11Z</time>
      </trkpt>
      <trkpt lat="46.03383" lon="6.93312">
        <ele>1590</ele>
        <time>2022-08-28T05:25:12Z</time>
      </trkpt>
      <trkpt lat="46.03381" lon="6.9331">
        <ele>1590</ele>
        <time>2022-08-28T05:25:13Z</time>
      </trkpt>
      <trkpt lat="46.0338" lon="6.93308">
        <ele>1590</ele>
        <time>2022-08-28T05:25:14Z</time>
      </trkpt>
      <trkpt lat="46.03378" lon="6.93307">
        <ele>1590</ele>
        <time>2022-08-28T05:25:15Z</time>
      </trkpt>
      <trkpt lat="46.03376" lon="6.93305">
        <ele>1590</ele>
        <time>2022-08-28T05:25:17Z</time>
      </trkpt>
      <trkpt lat="46.03375" lon="6.93304">
        <ele>1590</ele>
        <time>2022-08-28T05:25:18Z</time>
      </trkpt>
      <trkpt lat="46.03369" lon="6.93293">
        <ele>1591</ele>
        <time>2022-08-28T05:25:25Z</time>
      </trkpt>
      <trkpt lat="46.03368" lon="6.93291">
        <ele>1591</ele>
        <time>2022-08-28T05:25:26Z</time>
      </trkpt>
      <trkpt lat="46.03367" lon="6.9329">
        <ele>1591</ele>
        <time>2022-08-28T05:25:27Z</time>
      </trkpt>
      <trkpt lat="46.03366" lon="6.93288">
        <ele>1591</ele>
        <time>2022-08-28T05:25:28Z</time>
      </trkpt>
      <trkpt lat="46.03365" lon="6.93287">
        <ele>1591</ele>
        <time>2022-08-28T05:25:30Z</time>
      </trkpt>
      <trkpt lat="46.03364" lon="6.93285">
        <ele>1591</ele>
        <time>2022-08-28T05:25:31Z</time>
      </trkpt>
      <trkpt lat="46.03364" lon="6.93284">
        <ele>1591</ele>
        <time>2022-08-28T05:25:32Z</time>
      </trkpt>
      <trkpt lat="46.03363" lon="6.93282">
        <ele>1591</ele>
        <time>2022-08-28T05:25:33Z</time>
      </trkpt>
      <trkpt lat="46.03353" lon="6.93278">
        <ele>1592</ele>
        <time>2022-08-28T05:25:40Z</time>
      </trkpt>
      <trkpt lat="46.03352" lon="6.93276">
        <ele>1591</ele>
        <time>2022-08-28T05:25:42Z</time>
      </trkpt>
      <trkpt lat="46.03351" lon="6.93275">
        <ele>1591</ele>
        <time>2022-08-28T05:25:43Z</time>
      </trkpt>
      <trkpt lat="46.0335" lon="6.93273">
        <ele>1592</ele>
        <time>2022-08-28T05:25:44Z</time>
      </trkpt>
      <trkpt lat="46.03349" lon="6.93271">
        <ele>1592</ele>
        <time>2022-08-28T05:25:45Z</time>
      </trkpt>
      <trkpt lat="46.03347" lon="6.93269">
        <ele>1592</ele>
        <time>2022-08-28T05:25:46Z</time>
      </trkpt>
      <trkpt lat="46.03346" lon="6.93267">
        <ele>1592</ele>
        <time>2022-08-28T05:25:47Z</time>
      </trkpt>
      <trkpt lat="46.03345" lon="6.93264">
        <ele>1592</ele>
        <time>2022-08-28T05:25:48Z</time>
      </trkpt>
      <trkpt lat="46.03344" lon="6.93261">
        <ele>1592</ele>
        <time>2022-08-28T05:25:50Z</time>
      </trkpt>
      <trkpt lat="46.03342" lon="6.93258">
        <ele>1592</ele>
        <time>2022-08-28T05:25:51Z</time>
      </trkpt>
      <trkpt lat="46.03341" lon="6.93255">
        <ele>1592</ele>
        <time>2022-08-28T05:25:52Z</time>
      </trkpt>
      <trkpt lat="46.0334" lon="6.93253">
        <ele>1592</ele>
        <time>2022-08-28T05:25:53Z</time>
      </trkpt>
      <trkpt lat="46.03339" lon="6.93252">
        <ele>1592</ele>
        <time>2022-08-28T05:25:55Z</time>
      </trkpt>
      <trkpt lat="46.03338" lon="6.9325">
        <ele>1592</ele>
        <time>2022-08-28T05:25:56Z</time>
      </trkpt>
      <trkpt lat="46.03336" lon="6.93248">
        <ele>1592</ele>
        <time>2022-08-28T05:25:57Z</time>
      </trkpt>
      <trkpt lat="46.03335" lon="6.93246">
        <ele>1592</ele>
        <time>2022-08-28T05:25:59Z</time>
      </trkpt>
      <trkpt lat="46.03334" lon="6.93245">
        <ele>1593</ele>
        <time>2022-08-28T05:26:00Z</time>
      </trkpt>
      <trkpt lat="46.0333" lon="6.93232">
        <ele>1594</ele>
        <time>2022-08-28T05:26:08Z</time>
      </trkpt>
      <trkpt lat="46.03329" lon="6.93229">
        <ele>1594</ele>
        <time>2022-08-28T05:26:09Z</time>
      </trkpt>
      <trkpt lat="46.03328" lon="6.93227">
        <ele>1594</ele>
        <time>2022-08-28T05:26:10Z</time>
      </trkpt>
      <trkpt lat="46.03327" lon="6.93225">
        <ele>1594</ele>
        <time>2022-08-28T05:26:11Z</time>
      </trkpt>
      <trkpt lat="46.03326" lon="6.93223">
        <ele>1594</ele>
        <time>2022-08-28T05:26:13Z</time>
      </trkpt>
      <trkpt lat="46.03326" lon="6.9322">
        <ele>1594</ele>
        <time>2022-08-28T05:26:14Z</time>
      </trkpt>
      <trkpt lat="46.03325" lon="6.93218">
        <ele>1594</ele>
        <time>2022-08-28T05:26:15Z</time>
      </trkpt>
      <trkpt lat="46.03324" lon="6.93216">
        <ele>1594</ele>
        <time>2022-08-28T05:26:16Z</time>
      </trkpt>
      <trkpt lat="46.03323" lon="6.93214">
        <ele>1594</ele>
        <time>2022-08-28T05:26:18Z</time>
      </trkpt>
      <trkpt lat="46.03323" lon="6.93211">
        <ele>1594</ele>
        <time>2022-08-28T05:26:19Z</time>
      </trkpt>
      <trkpt lat="46.03322" lon="6.93209">
        <ele>1593</ele>
        <time>2022-08-28T05:26:20Z</time>
      </trkpt>
      <trkpt lat="46.03321" lon="6.93207">
        <ele>1593</ele>
        <time>2022-08-28T05:26:21Z</time>
      </trkpt>
      <trkpt lat="46.0332" lon="6.93205">
        <ele>1594</ele>
        <time>2022-08-28T05:26:22Z</time>
      </trkpt>
      <trkpt lat="46.03313" lon="6.93195">
        <ele>1594</ele>
        <time>2022-08-28T05:26:27Z</time>
      </trkpt>
      <trkpt lat="46.03311" lon="6.93195">
        <ele>1594</ele>
        <time>2022-08-28T05:26:28Z</time>
      </trkpt>
      <trkpt lat="46.03309" lon="6.93195">
        <ele>1594</ele>
        <time>2022-08-28T05:26:29Z</time>
      </trkpt>
      <trkpt lat="46.03307" lon="6.93196">
        <ele>1594</ele>
        <time>2022-08-28T05:26:30Z</time>
      </trkpt>
      <trkpt lat="46.03305" lon="6.93196">
        <ele>1594</ele>
        <time>2022-08-28T05:26:32Z</time>
      </trkpt>
      <trkpt lat="46.03303" lon="6.93196">
        <ele>1595</ele>
        <time>2022-08-28T05:26:33Z</time>
      </trkpt>
      <trkpt lat="46.03304" lon="6.9321">
        <ele>1596</ele>
        <time>2022-08-28T05:26:41Z</time>
      </trkpt>
      <trkpt lat="46.03303" lon="6.93212">
        <ele>1596</ele>
        <time>2022-08-28T05:26:42Z</time>
      </trkpt>
      <trkpt lat="46.03302" lon="6.93215">
        <ele>1596</ele>
        <time>2022-08-28T05:26:43Z</time>
      </trkpt>
      <trkpt lat="46.03301" lon="6.93217">
        <ele>1597</ele>
        <time>2022-08-28T05:26:44Z</time>
      </trkpt>
      <trkpt lat="46.033" lon="6.93219">
        <ele>1597</ele>
        <time>2022-08-28T05:26:46Z</time>
      </trkpt>
      <trkpt lat="46.03299" lon="6.93222">
        <ele>1597</ele>
        <time>2022-08-28T05:26:47Z</time>
      </trkpt>
      <trkpt lat="46.03297" lon="6.93223">
        <ele>1597</ele>
        <time>2022-08-28T05:26:48Z</time>
      </trkpt>
      <trkpt lat="46.03296" lon="6.93225">
        <ele>1597</ele>
        <time>2022-08-28T05:26:49Z</time>
      </trkpt>
      <trkpt lat="46.03295" lon="6.93227">
        <ele>1597</ele>
        <time>2022-08-28T05:26:51Z</time>
      </trkpt>
      <trkpt lat="46.03293" lon="6.93228">
        <ele>1597</ele>
        <time>2022-08-28T05:26:52Z</time>
      </trkpt>
      <trkpt lat="46.03292" lon="6.9323">
        <ele>1597</ele>
        <time>2022-08-28T05:26:53Z</time>
      </trkpt>
      <trkpt lat="46.0329" lon="6.93232">
        <ele>1596</ele>
        <time>2022-08-28T05:26:54Z</time>
      </trkpt>
      <trkpt lat="46.0329" lon="6.93231">
        <ele>1596</ele>
        <time>2022-08-28T05:26:56Z</time>
      </trkpt>
      <trkpt lat="46.03289" lon="6.93231">
        <ele>1596</ele>
        <time>2022-08-28T05:26:57Z</time>
      </trkpt>
      <trkpt lat="46.03288" lon="6.9323">
        <ele>1596</ele>
        <time>2022-08-28T05:26:58Z</time>
      </trkpt>
      <trkpt lat="46.03287" lon="6.9323">
        <ele>1596</ele>
        <time>2022-08-28T05:26:59Z</time>
      </trkpt>
      <trkpt lat="46.0328" lon="6.93224">
        <ele>1595</ele>
        <time>2022-08-28T05:27:01Z</time>
      </trkpt>
      <trkpt lat="46.03279" lon="6.93223">
        <ele>1595</ele>
        <time>2022-08-28T05:27:03Z</time>
      </trkpt>
      <trkpt lat="46.03278" lon="6.93222">
        <ele>1595</ele>
        <time>2022-08-28T05:27:04Z</time>
      </trkpt>
      <trkpt lat="46.03271" lon="6.93212">
        <ele>1595</ele>
        <time>2022-08-28T05:27:06Z</time>
      </trkpt>
      <trkpt lat="46.03269" lon="6.9321">
        <ele>1595</ele>
        <time>2022-08-28T05:27:08Z</time>
      </trkpt>
      <trkpt lat="46.03267" lon="6.93208">
        <ele>1595</ele>
        <time>2022-08-28T05:27:09Z</time>
      </trkpt>
      <trkpt lat="46.03265" lon="6.93206">
        <ele>1595</ele>
        <time>2022-08-28T05:27:10Z</time>
      </trkpt>
      <trkpt lat="46.03263" lon="6.93204">
        <ele>1595</ele>
        <time>2022-08-28T05:27:11Z</time>
      </trkpt>
      <trkpt lat="46.03261" lon="6.93203">
        <ele>1595</ele>
        <time>2022-08-28T05:27:13Z</time>
      </trkpt>
      <trkpt lat="46.0326" lon="6.93201">
        <ele>1595</ele>
        <time>2022-08-28T05:27:15Z</time>
      </trkpt>
      <trkpt lat="46.03258" lon="6.93199">
        <ele>1595</ele>
        <time>2022-08-28T05:27:16Z</time>
      </trkpt>
      <trkpt lat="46.03256" lon="6.93198">
        <ele>1595</ele>
        <time>2022-08-28T05:27:17Z</time>
      </trkpt>
      <trkpt lat="46.03255" lon="6.93195">
        <ele>1595</ele>
        <time>2022-08-28T05:27:18Z</time>
      </trkpt>
      <trkpt lat="46.03253" lon="6.93193">
        <ele>1595</ele>
        <time>2022-08-28T05:27:20Z</time>
      </trkpt>
      <trkpt lat="46.03251" lon="6.93191">
        <ele>1595</ele>
        <time>2022-08-28T05:27:22Z</time>
      </trkpt>
      <trkpt lat="46.0325" lon="6.93188">
        <ele>1595</ele>
        <time>2022-08-28T05:27:23Z</time>
      </trkpt>
      <trkpt lat="46.03242" lon="6.93196">
        <ele>1595</ele>
        <time>2022-08-28T05:27:34Z</time>
      </trkpt>
      <trkpt lat="46.03236" lon="6.93206">
        <ele>1595</ele>
        <time>2022-08-28T05:27:43Z</time>
      </trkpt>
      <trkpt lat="46.03236" lon="6.93208">
        <ele>1595</ele>
        <time>2022-08-28T05:27:44Z</time>
      </trkpt>
      <trkpt lat="46.03235" lon="6.93209">
        <ele>1595</ele>
        <time>2022-08-28T05:27:45Z</time>
      </trkpt>
      <trkpt lat="46.03234" lon="6.93211">
        <ele>1596</ele>
        <time>2022-08-28T05:27:46Z</time>
      </trkpt>
      <trkpt lat="46.03233" lon="6.93213">
        <ele>1596</ele>
        <time>2022-08-28T05:27:48Z</time>
      </trkpt>
      <trkpt lat="46.03233" lon="6.93214">
        <ele>1596</ele>
        <time>2022-08-28T05:27:49Z</time>
      </trkpt>
      <trkpt lat="46.03232" lon="6.93216">
        <ele>1596</ele>
        <time>2022-08-28T05:27:50Z</time>
      </trkpt>
      <trkpt lat="46.03231" lon="6.93217">
        <ele>1596</ele>
        <time>2022-08-28T05:27:51Z</time>
      </trkpt>
      <trkpt lat="46.03239" lon="6.93225">
        <ele>1595</ele>
        <time>2022-08-28T05:28:00Z</time>
      </trkpt>
      <trkpt lat="46.0324" lon="6.93225">
        <ele>1595</ele>
        <time>2022-08-28T05:28:01Z</time>
      </trkpt>
      <trkpt lat="46.0324" lon="6.93225">
        <ele>1595</ele>
        <time>2022-08-28T05:28:02Z</time>
      </trkpt>
      <trkpt lat="46.0324" lon="6.93225">
        <ele>1595</ele>
        <time>2022-08-28T05:28:03Z</time>
      </trkpt>
      <trkpt lat="46.03241" lon="6.93225">
        <ele>1595</ele>
        <time>2022-08-28T05:28:05Z</time>
      </trkpt>
      <trkpt lat="46.03241" lon="6.93225">
        <ele>1595</ele>
        <time>2022-08-28T05:28:06Z</time>
      </trkpt>
      <trkpt lat="46.03242" lon="6.93226">
        <ele>1595</ele>
        <time>2022-08-28T05:28:07Z</time>
      </trkpt>
      <trkpt lat="46.03242" lon="6.93226">
        <ele>1595</ele>
        <time>2022-08-28T05:28:08Z</time>
      </trkpt>
      <trkpt lat="46.03243" lon="6.93226">
        <ele>1595</ele>
        <time>2022-08-28T05:28:10Z</time>
      </trkpt>
      <trkpt lat="46.03243" lon="6.93226">
        <ele>1595</ele>
        <time>2022-08-28T05:28:12Z</time>
      </trkpt>
      <trkpt lat="46.03243" lon="6.93226">
        <ele>1595</ele>
        <time>2022-08-28T05:28:13Z</time>
      </trkpt>
      <trkpt lat="46.03244" lon="6.93226">
        <ele>1595</ele>
        <time>2022-08-28T05:28:14Z</time>
      </trkpt>
      <trkpt lat="46.03244" lon="6.93226">
        <ele>1595</ele>
        <time>2022-08-28T05:28:16Z</time>
      </trkpt>
      <trkpt lat="46.03245" lon="6.93226">
        <ele>1596</ele>
        <time>2022-08-28T05:28:18Z</time>
      </trkpt>
      <trkpt lat="46.03245" lon="6.93226">
        <ele>1596</ele>
        <time>2022-08-28T05:28:19Z</time>
      </trkpt>
      <trkpt lat="46.03246" lon="6.93226">
        <ele>1596</ele>
        <time>2022-08-28T05:28:20Z</time>
      </trkpt>
      <trkpt lat="46.03246" lon="6.93226">
        <ele>1596</ele>
        <time>2022-08-28T05:28:21Z</time>
      </trkpt>
      <trkpt lat="46.03246" lon="6.93226">
        <ele>1596</ele>
        <time>2022-08-28T05:28:23Z</time>
      </trkpt>
      <trkpt lat="46.03247" lon="6.93226">
        <ele>1595</ele>
        <time>2022-08-28T05:28:24Z</time>
      </trkpt>
      <trkpt lat="46.03247" lon="6.93226">
        <ele>1595</ele>
        <time>2022-08-28T05:28:25Z</time>
      </trkpt>
      <trkpt lat="46.03248" lon="6.93226">
        <ele>1595</ele>
        <time>2022-08-28T05:28:26Z</time>
      </trkpt>
      <trkpt lat="46.03248" lon="6.93226">
        <ele>1595</ele>
        <time>2022-08-28T05:28:28Z</time>
      </trkpt>
      <trkpt lat="46.03248" lon="6.93226">
        <ele>1595</ele>
        <time>2022-08-28T05:28:29Z</time>
      </trkpt>
      <trkpt lat="46.03249" lon="6.93226">
        <ele>1595</ele>
        <time>2022-08-28T05:28:30Z</time>
      </trkpt>
      <trkpt lat="46.03249" lon="6.93227">
        <ele>1594</ele>
        <time>2022-08-28T05:28:31Z</time>
      </trkpt>
      <trkpt lat="46.03249" lon="6.93227">
        <ele>1594</ele>
        <time>2022-08-28T05:28:32Z</time>
      </trkpt>
      <trkpt lat="46.0325" lon="6.93227">
        <ele>1594</ele>
        <time>2022-08-28T05:28:33Z</time>
      </trkpt>
      <trkpt lat="46.0325" lon="6.93227">
        <ele>1595</ele>
        <time>2022-08-28T05:28:35Z</time>
      </trkpt>
      <trkpt lat="46.0325" lon="6.93227">
        <ele>1595</ele>
        <time>2022-08-28T05:28:36Z</time>
      </trkpt>
      <trkpt lat="46.0325" lon="6.93227">
        <ele>1595</ele>
        <time>2022-08-28T05:28:37Z</time>
      </trkpt>
      <trkpt lat="46.03251" lon="6.93228">
        <ele>1595</ele>
        <time>2022-08-28T05:28:38Z</time>
      </trkpt>
      <trkpt lat="46.03251" lon="6.93228">
        <ele>1595</ele>
        <time>2022-08-28T05:28:39Z</time>
      </trkpt>
      <trkpt lat="46.03251" lon="6.93228">
        <ele>1595</ele>
        <time>2022-08-28T05:28:40Z</time>
      </trkpt>
      <trkpt lat="46.03252" lon="6.93228">
        <ele>1595</ele>
        <time>2022-08-28T05:28:41Z</time>
      </trkpt>
      <trkpt lat="46.03252" lon="6.93228">
        <ele>1595</ele>
        <time>2022-08-28T05:28:43Z</time>
      </trkpt>
      <trkpt lat="46.03252" lon="6.93229">
        <ele>1595</ele>
        <time>2022-08-28T05:28:45Z</time>
      </trkpt>
      <trkpt lat="46.03252" lon="6.93229">
        <ele>1595</ele>
        <time>2022-08-28T05:28:46Z</time>
      </trkpt>
      <trkpt lat="46.03253" lon="6.93229">
        <ele>1595</ele>
        <time>2022-08-28T05:28:47Z</time>
      </trkpt>
      <trkpt lat="46.03253" lon="6.93229">
        <ele>1595</ele>
        <time>2022-08-28T05:28:48Z</time>
      </trkpt>
      <trkpt lat="46.03253" lon="6.93229">
        <ele>1595</ele>
        <time>2022-08-28T05:28:50Z</time>
      </trkpt>
      <trkpt lat="46.03253" lon="6.9323">
        <ele>1595</ele>
        <time>2022-08-28T05:28:51Z</time>
      </trkpt>
      <trkpt lat="46.03254" lon="6.9323">
        <ele>1594</ele>
        <time>2022-08-28T05:28:53Z</time>
      </trkpt>
      <trkpt lat="46.03254" lon="6.9323">
        <ele>1594</ele>
        <time>2022-08-28T05:28:54Z</time>
      </trkpt>
      <trkpt lat="46.03254" lon="6.9323">
        <ele>1594</ele>
        <time>2022-08-28T05:28:55Z</time>
      </trkpt>
      <trkpt lat="46.03255" lon="6.9323">
        <ele>1595</ele>
        <time>2022-08-28T05:28:56Z</time>
      </trkpt>
      <trkpt lat="46.03255" lon="6.93231">
        <ele>1595</ele>
        <time>2022-08-28T05:28:58Z</time>
      </trkpt>
      <trkpt lat="46.03255" lon="6.93231">
        <ele>1595</ele>
        <time>2022-08-28T05:28:59Z</time>
      </trkpt>
      <trkpt lat="46.03255" lon="6.93231">
        <ele>1595</ele>
        <time>2022-08-28T05:29:00Z</time>
      </trkpt>
      <trkpt lat="46.03256" lon="6.93231">
        <ele>1596</ele>
        <time>2022-08-28T05:29:01Z</time>
      </trkpt>
      <trkpt lat="46.03256" lon="6.93231">
        <ele>1596</ele>
        <time>2022-08-28T05:29:03Z</time>
      </trkpt>
      <trkpt lat="46.03256" lon="6.93231">
        <ele>1596</ele>
        <time>2022-08-28T05:29:04Z</time>
      </trkpt>
      <trkpt lat="46.03256" lon="6.93232">
        <ele>1596</ele>
        <time>2022-08-28T05:29:05Z</time>
      </trkpt>
      <trkpt lat="46.03257" lon="6.93232">
        <ele>1596</ele>
        <time>2022-08-28T05:29:06Z</time>
      </trkpt>
      <trkpt lat="46.03257" lon="6.93232">
        <ele>1596</ele>
        <time>2022-08-28T05:29:08Z</time>
      </trkpt>
      <trkpt lat="46.03257" lon="6.93232">
        <ele>1596</ele>
        <time>2022-08-28T05:29:09Z</time>
      </trkpt>
      <trkpt lat="46.03257" lon="6.93232">
        <ele>1596</ele>
        <time>2022-08-28T05:29:10Z</time>
      </trkpt>
      <trkpt lat="46.03257" lon="6.93232">
        <ele>1596</ele>
        <time>2022-08-28T05:29:11Z</time>
      </trkpt>
      <trkpt lat="46.03257" lon="6.93232">
        <ele>1596</ele>
        <time>2022-08-28T05:29:12Z</time>
      </trkpt>
      <trkpt lat="46.03256" lon="6.93232">
        <ele>1596</ele>
        <time>2022-08-28T05:29:13Z</time>
      </trkpt>
      <trkpt lat="46.03256" lon="6.93232">
        <ele>1595</ele>
        <time>2022-08-28T05:29:15Z</time>
      </trkpt>
      <trkpt lat="46.03256" lon="6.93232">
        <ele>1595</ele>
        <time>2022-08-28T05:29:16Z</time>
      </trkpt>
      <trkpt lat="46.03256" lon="6.93232">
        <ele>1595</ele>
        <time>2022-08-28T05:29:17Z</time>
      </trkpt>
      <trkpt lat="46.03255" lon="6.93231">
        <ele>1595</ele>
        <time>2022-08-28T05:29:18Z</time>
      </trkpt>
      <trkpt lat="46.03255" lon="6.93231">
        <ele>1595</ele>
        <time>2022-08-28T05:29:19Z</time>
      </trkpt>
      <trkpt lat="46.03255" lon="6.93231">
        <ele>1595</ele>
        <time>2022-08-28T05:29:20Z</time>
      </trkpt>
      <trkpt lat="46.03255" lon="6.93231">
        <ele>1595</ele>
        <time>2022-08-28T05:29:21Z</time>
      </trkpt>
      <trkpt lat="46.03255" lon="6.93231">
        <ele>1595</ele>
        <time>2022-08-28T05:29:22Z</time>
      </trkpt>
      <trkpt lat="46.03254" lon="6.93231">
        <ele>1595</ele>
        <time>2022-08-28T05:29:23Z</time>
      </trkpt>
      <trkpt lat="46.03254" lon="6.93231">
        <ele>1595</ele>
        <time>2022-08-28T05:29:24Z</time>
      </trkpt>
      <trkpt lat="46.03254" lon="6.93231">
        <ele>1595</ele>
        <time>2022-08-28T05:29:25Z</time>
      </trkpt>
      <trkpt lat="46.03254" lon="6.93231">
        <ele>1595</ele>
        <time>2022-08-28T05:29:26Z</time>
      </trkpt>
      <trkpt lat="46.03253" lon="6.93231">
        <ele>1595</ele>
        <time>2022-08-28T05:29:28Z</time>
      </trkpt>
      <trkpt lat="46.03253" lon="6.93231">
        <ele>1595</ele>
        <time>2022-08-28T05:29:29Z</time>
      </trkpt>
      <trkpt lat="46.03253" lon="6.93231">
        <ele>1595</ele>
        <time>2022-08-28T05:29:30Z</time>
      </trkpt>
      <trkpt lat="46.03253" lon="6.9323">
        <ele>1595</ele>
        <time>2022-08-28T05:29:31Z</time>
      </trkpt>
      <trkpt lat="46.03253" lon="6.9323">
        <ele>1595</ele>
        <time>2022-08-28T05:29:32Z</time>
      </trkpt>
      <trkpt lat="46.03252" lon="6.9323">
        <ele>1595</ele>
        <time>2022-08-28T05:29:33Z</time>
      </trkpt>
      <trkpt lat="46.03252" lon="6.9323">
        <ele>1595</ele>
        <time>2022-08-28T05:29:34Z</time>
      </trkpt>
      <trkpt lat="46.03252" lon="6.9323">
        <ele>1595</ele>
        <time>2022-08-28T05:29:35Z</time>
      </trkpt>
      <trkpt lat="46.03252" lon="6.9323">
        <ele>1595</ele>
        <time>2022-08-28T05:29:36Z</time>
      </trkpt>
      <trkpt lat="46.03252" lon="6.9323">
        <ele>1595</ele>
        <time>2022-08-28T05:29:37Z</time>
      </trkpt>
      <trkpt lat="46.03251" lon="6.9323">
        <ele>1595</ele>
        <time>2022-08-28T05:29:38Z</time>
      </trkpt>
      <trkpt lat="46.03251" lon="6.9323">
        <ele>1595</ele>
        <time>2022-08-28T05:29:39Z</time>
      </trkpt>
      <trkpt lat="46.03251" lon="6.9323">
        <ele>1595</ele>
        <time>2022-08-28T05:29:40Z</time>
      </trkpt>
      <trkpt lat="46.03251" lon="6.9323">
        <ele>1595</ele>
        <time>2022-08-28T05:29:41Z</time>
      </trkpt>
      <trkpt lat="46.0325" lon="6.93229">
        <ele>1595</ele>
        <time>2022-08-28T05:29:42Z</time>
      </trkpt>
      <trkpt lat="46.0325" lon="6.93229">
        <ele>1595</ele>
        <time>2022-08-28T05:29:43Z</time>
      </trkpt>
      <trkpt lat="46.0325" lon="6.93229">
        <ele>1596</ele>
        <time>2022-08-28T05:29:44Z</time>
      </trkpt>
      <trkpt lat="46.0325" lon="6.93229">
        <ele>1596</ele>
        <time>2022-08-28T05:29:46Z</time>
      </trkpt>
      <trkpt lat="46.0325" lon="6.93229">
        <ele>1596</ele>
        <time>2022-08-28T05:29:47Z</time>
      </trkpt>
      <trkpt lat="46.03249" lon="6.93229">
        <ele>1596</ele>
        <time>2022-08-28T05:29:48Z</time>
      </trkpt>
      <trkpt lat="46.03249" lon="6.93229">
        <ele>1595</ele>
        <time>2022-08-28T05:29:49Z</time>
      </trkpt>
      <trkpt lat="46.03249" lon="6.93229">
        <ele>1595</ele>
        <time>2022-08-28T05:29:51Z</time>
      </trkpt>
      <trkpt lat="46.03249" lon="6.93229">
        <ele>1595</ele>
        <time>2022-08-28T05:29:52Z</time>
      </trkpt>
      <trkpt lat="46.03248" lon="6.93229">
        <ele>1595</ele>
        <time>2022-08-28T05:29:53Z</time>
      </trkpt>
      <trkpt lat="46.03248" lon="6.93229">
        <ele>1595</ele>
        <time>2022-08-28T05:29:54Z</time>
      </trkpt>
      <trkpt lat="46.03248" lon="6.93228">
        <ele>1595</ele>
        <time>2022-08-28T05:29:55Z</time>
      </trkpt>
      <trkpt lat="46.03248" lon="6.93228">
        <ele>1595</ele>
        <time>2022-08-28T05:29:56Z</time>
      </trkpt>
      <trkpt lat="46.03248" lon="6.93228">
        <ele>1595</ele>
        <time>2022-08-28T05:29:57Z</time>
      </trkpt>
      <trkpt lat="46.03248" lon="6.93228">
        <ele>1595</ele>
        <time>2022-08-28T05:30:02Z</time>
      </trkpt>
      <trkpt lat="46.03248" lon="6.93228">
        <ele>1595</ele>
        <time>2022-08-28T05:30:04Z</time>
      </trkpt>
      <trkpt lat="46.03248" lon="6.93228">
        <ele>1595</ele>
        <time>2022-08-28T05:30:06Z</time>
      </trkpt>
      <trkpt lat="46.03248" lon="6.93228">
        <ele>1595</ele>
        <time>2022-08-28T05:30:09Z</time>
      </trkpt>
      <trkpt lat="46.03248" lon="6.93229">
        <ele>1595</ele>
        <time>2022-08-28T05:30:11Z</time>
      </trkpt>
      <trkpt lat="46.03248" lon="6.93229">
        <ele>1595</ele>
        <time>2022-08-28T05:30:13Z</time>
      </trkpt>
      <trkpt lat="46.03248" lon="6.93229">
        <ele>1595</ele>
        <time>2022-08-28T05:30:18Z</time>
      </trkpt>
      <trkpt lat="46.03248" lon="6.93229">
        <ele>1595</ele>
        <time>2022-08-28T05:30:20Z</time>
      </trkpt>
      <trkpt lat="46.03248" lon="6.93229">
        <ele>1595</ele>
        <time>2022-08-28T05:30:22Z</time>
      </trkpt>
      <trkpt lat="46.03248" lon="6.93229">
        <ele>1595</ele>
        <time>2022-08-28T05:30:26Z</time>
      </trkpt>
      <trkpt lat="46.03248" lon="6.93229">
        <ele>1595</ele>
        <time>2022-08-28T05:30:27Z</time>
      </trkpt>
      <trkpt lat="46.03248" lon="6.93229">
        <ele>1595</ele>
        <time>2022-08-28T05:30:29Z</time>
      </trkpt>
      <trkpt lat="46.03249" lon="6.93229">
        <ele>1595</ele>
        <time>2022-08-28T05:30:33Z</time>
      </trkpt>
      <trkpt lat="46.03249" lon="6.93229">
        <ele>1596</ele>
        <time>2022-08-28T05:30:35Z</time>
      </trkpt>
      <trkpt lat="46.03249" lon="6.93229">
        <ele>1596</ele>
        <time>2022-08-28T05:30:38Z</time>
      </trkpt>
      <trkpt lat="46.03249" lon="6.93229">
        <ele>1596</ele>
        <time>2022-08-28T05:30:40Z</time>
      </trkpt>
      <trkpt lat="46.03249" lon="6.93229">
        <ele>1596</ele>
        <time>2022-08-28T05:30:41Z</time>
      </trkpt>
      <trkpt lat="46.03249" lon="6.93229">
        <ele>1597</ele>
        <time>2022-08-28T05:30:45Z</time>
      </trkpt>
      <trkpt lat="46.03249" lon="6.93229">
        <ele>1596</ele>
        <time>2022-08-28T05:30:47Z</time>
      </trkpt>
      <trkpt lat="46.03249" lon="6.93229">
        <ele>1596</ele>
        <time>2022-08-28T05:30:48Z</time>
      </trkpt>
      <trkpt lat="46.03249" lon="6.93229">
        <ele>1596</ele>
        <time>2022-08-28T05:30:52Z</time>
      </trkpt>
      <trkpt lat="46.03249" lon="6.93229">
        <ele>1596</ele>
        <time>2022-08-28T05:30:53Z</time>
      </trkpt>
      <trkpt lat="46.03249" lon="6.93229">
        <ele>1597</ele>
        <time>2022-08-28T05:30:55Z</time>
      </trkpt>
      <trkpt lat="46.03249" lon="6.93229">
        <ele>1596</ele>
        <time>2022-08-28T05:30:58Z</time>
      </trkpt>
      <trkpt lat="46.03249" lon="6.93229">
        <ele>1596</ele>
        <time>2022-08-28T05:30:59Z</time>
      </trkpt>
      <trkpt lat="46.03249" lon="6.93229">
        <ele>1596</ele>
        <time>2022-08-28T05:31:01Z</time>
      </trkpt>
      <trkpt lat="46.03249" lon="6.93229">
        <ele>1597</ele>
        <time>2022-08-28T05:31:06Z</time>
      </trkpt>
      <trkpt lat="46.0325" lon="6.93229">
        <ele>1596</ele>
        <time>2022-08-28T05:31:10Z</time>
      </trkpt>
      <trkpt lat="46.0325" lon="6.93229">
        <ele>1595</ele>
        <time>2022-08-28T05:31:15Z</time>
      </trkpt>
      <trkpt lat="46.0325" lon="6.93229">
        <ele>1595</ele>
        <time>2022-08-28T05:31:18Z</time>
      </trkpt>
      <trkpt lat="46.0325" lon="6.9323">
        <ele>1595</ele>
        <time>2022-08-28T05:31:22Z</time>
      </trkpt>
      <trkpt lat="46.0325" lon="6.9323">
        <ele>1595</ele>
        <time>2022-08-28T05:31:23Z</time>
      </trkpt>
      <trkpt lat="46.0325" lon="6.9323">
        <ele>1595</ele>
        <time>2022-08-28T05:31:27Z</time>
      </trkpt>
      <trkpt lat="46.0325" lon="6.9323">
        <ele>1595</ele>
        <time>2022-08-28T05:31:29Z</time>
      </trkpt>
      <trkpt lat="46.0325" lon="6.9323">
        <ele>1596</ele>
        <time>2022-08-28T05:31:30Z</time>
      </trkpt>
      <trkpt lat="46.0325" lon="6.9323">
        <ele>1596</ele>
        <time>2022-08-28T05:31:35Z</time>
      </trkpt>
      <trkpt lat="46.0325" lon="6.9323">
        <ele>1595</ele>
        <time>2022-08-28T05:31:37Z</time>
      </trkpt>
      <trkpt lat="46.0325" lon="6.9323">
        <ele>1595</ele>
        <time>2022-08-28T05:31:41Z</time>
      </trkpt>
      <trkpt lat="46.0325" lon="6.9323">
        <ele>1595</ele>
        <time>2022-08-28T05:31:44Z</time>
      </trkpt>
      <trkpt lat="46.0325" lon="6.9323">
        <ele>1595</ele>
        <time>2022-08-28T05:31:45Z</time>
      </trkpt>
      <trkpt lat="46.0325" lon="6.9323">
        <ele>1595</ele>
        <time>2022-08-28T05:31:47Z</time>
      </trkpt>
      <trkpt lat="46.03251" lon="6.9323">
        <ele>1595</ele>
        <time>2022-08-28T05:31:51Z</time>
      </trkpt>
      <trkpt lat="46.03251" lon="6.9323">
        <ele>1595</ele>
        <time>2022-08-28T05:31:52Z</time>
      </trkpt>
      <trkpt lat="46.03251" lon="6.9323">
        <ele>1596</ele>
        <time>2022-08-28T05:31:55Z</time>
      </trkpt>
      <trkpt lat="46.03251" lon="6.9323">
        <ele>1595</ele>
        <time>2022-08-28T05:32:00Z</time>
      </trkpt>
      <trkpt lat="46.03251" lon="6.9323">
        <ele>1595</ele>
        <time>2022-08-28T05:32:03Z</time>
      </trkpt>
      <trkpt lat="46.03251" lon="6.9323">
        <ele>1595</ele>
        <time>2022-08-28T05:32:06Z</time>
      </trkpt>
      <trkpt lat="46.03251" lon="6.9323">
        <ele>1594</ele>
        <time>2022-08-28T05:32:09Z</time>
      </trkpt>
      <trkpt lat="46.03251" lon="6.9323">
        <ele>1595</ele>
        <time>2022-08-28T05:32:12Z</time>
      </trkpt>
      <trkpt lat="46.03251" lon="6.9323">
        <ele>1595</ele>
        <time>2022-08-28T05:32:13Z</time>
      </trkpt>
      <trkpt lat="46.03251" lon="6.9323">
        <ele>1595</ele>
        <time>2022-08-28T05:32:17Z</time>
      </trkpt>
      <trkpt lat="46.03251" lon="6.9323">
        <ele>1595</ele>
        <time>2022-08-28T05:32:19Z</time>
      </trkpt>
      <trkpt lat="46.03251" lon="6.9323">
        <ele>1595</ele>
        <time>2022-08-28T05:32:21Z</time>
      </trkpt>
      <trkpt lat="46.03251" lon="6.9323">
        <ele>1594</ele>
        <time>2022-08-28T05:32:25Z</time>
      </trkpt>
      <trkpt lat="46.03251" lon="6.9323">
        <ele>1594</ele>
        <time>2022-08-28T05:32:26Z</time>
      </trkpt>
      <trkpt lat="46.03252" lon="6.9323">
        <ele>1594</ele>
        <time>2022-08-28T05:32:29Z</time>
      </trkpt>
      <trkpt lat="46.03252" lon="6.93231">
        <ele>1594</ele>
        <time>2022-08-28T05:32:32Z</time>
      </trkpt>
      <trkpt lat="46.03252" lon="6.93231">
        <ele>1594</ele>
        <time>2022-08-28T05:32:35Z</time>
      </trkpt>
      <trkpt lat="46.03252" lon="6.93231">
        <ele>1594</ele>
        <time>2022-08-28T05:32:39Z</time>
      </trkpt>
      <trkpt lat="46.03252" lon="6.93231">
        <ele>1594</ele>
        <time>2022-08-28T05:32:43Z</time>
      </trkpt>
      <trkpt lat="46.03252" lon="6.93231">
        <ele>1594</ele>
        <time>2022-08-28T05:32:45Z</time>
      </trkpt>
      <trkpt lat="46.03252" lon="6.93231">
        <ele>1594</ele>
        <time>2022-08-28T05:32:46Z</time>
      </trkpt>
      <trkpt lat="46.03252" lon="6.93231">
        <ele>1595</ele>
        <time>2022-08-28T05:32:49Z</time>
      </trkpt>
      <trkpt lat="46.03252" lon="6.93231">
        <ele>1595</ele>
        <time>2022-08-28T05:32:51Z</time>
      </trkpt>
      <trkpt lat="46.03252" lon="6.93231">
        <ele>1595</ele>
        <time>2022-08-28T05:32:52Z</time>
      </trkpt>
      <trkpt lat="46.03252" lon="6.93231">
        <ele>1595</ele>
        <time>2022-08-28T05:32:55Z</time>
      </trkpt>
      <trkpt lat="46.03252" lon="6.93231">
        <ele>1595</ele>
        <time>2022-08-28T05:32:58Z</time>
      </trkpt>
      <trkpt lat="46.03252" lon="6.93231">
        <ele>1595</ele>
        <time>2022-08-28T05:33:00Z</time>
      </trkpt>
      <trkpt lat="46.03253" lon="6.93231">
        <ele>1595</ele>
        <time>2022-08-28T05:33:03Z</time>
      </trkpt>
      <trkpt lat="46.03253" lon="6.93231">
        <ele>1595</ele>
        <time>2022-08-28T05:33:04Z</time>
      </trkpt>
      <trkpt lat="46.03258" lon="6.93234">
        <ele>1595</ele>
        <time>2022-08-28T05:33:06Z</time>
      </trkpt>
      <trkpt lat="46.03258" lon="6.93234">
        <ele>1595</ele>
        <time>2022-08-28T05:33:07Z</time>
      </trkpt>
      <trkpt lat="46.03258" lon="6.93234">
        <ele>1595</ele>
        <time>2022-08-28T05:33:08Z</time>
      </trkpt>
      <trkpt lat="46.03258" lon="6.93234">
        <ele>1595</ele>
        <time>2022-08-28T05:33:09Z</time>
      </trkpt>
      <trkpt lat="46.03258" lon="6.93234">
        <ele>1595</ele>
        <time>2022-08-28T05:33:10Z</time>
      </trkpt>
      <trkpt lat="46.03259" lon="6.93234">
        <ele>1595</ele>
        <time>2022-08-28T05:33:11Z</time>
      </trkpt>
      <trkpt lat="46.03259" lon="6.93234">
        <ele>1595</ele>
        <time>2022-08-28T05:33:12Z</time>
      </trkpt>
      <trkpt lat="46.03259" lon="6.93234">
        <ele>1595</ele>
        <time>2022-08-28T05:33:13Z</time>
      </trkpt>
      <trkpt lat="46.03259" lon="6.93235">
        <ele>1595</ele>
        <time>2022-08-28T05:33:14Z</time>
      </trkpt>
      <trkpt lat="46.03259" lon="6.93235">
        <ele>1595</ele>
        <time>2022-08-28T05:33:16Z</time>
      </trkpt>
      <trkpt lat="46.0326" lon="6.93235">
        <ele>1594</ele>
        <time>2022-08-28T05:33:17Z</time>
      </trkpt>
      <trkpt lat="46.0326" lon="6.93235">
        <ele>1594</ele>
        <time>2022-08-28T05:33:18Z</time>
      </trkpt>
      <trkpt lat="46.0326" lon="6.93235">
        <ele>1594</ele>
        <time>2022-08-28T05:33:19Z</time>
      </trkpt>
      <trkpt lat="46.0326" lon="6.93235">
        <ele>1594</ele>
        <time>2022-08-28T05:33:20Z</time>
      </trkpt>
      <trkpt lat="46.0326" lon="6.93235">
        <ele>1594</ele>
        <time>2022-08-28T05:33:21Z</time>
      </trkpt>
      <trkpt lat="46.0326" lon="6.93235">
        <ele>1594</ele>
        <time>2022-08-28T05:33:22Z</time>
      </trkpt>
      <trkpt lat="46.03261" lon="6.93235">
        <ele>1594</ele>
        <time>2022-08-28T05:33:23Z</time>
      </trkpt>
      <trkpt lat="46.03261" lon="6.93235">
        <ele>1594</ele>
        <time>2022-08-28T05:33:24Z</time>
      </trkpt>
      <trkpt lat="46.03261" lon="6.93235">
        <ele>1594</ele>
        <time>2022-08-28T05:33:25Z</time>
      </trkpt>
      <trkpt lat="46.03261" lon="6.93236">
        <ele>1594</ele>
        <time>2022-08-28T05:33:26Z</time>
      </trkpt>
      <trkpt lat="46.03261" lon="6.93236">
        <ele>1594</ele>
        <time>2022-08-28T05:33:27Z</time>
      </trkpt>
      <trkpt lat="46.03261" lon="6.93236">
        <ele>1594</ele>
        <time>2022-08-28T05:33:28Z</time>
      </trkpt>
      <trkpt lat="46.03262" lon="6.93236">
        <ele>1594</ele>
        <time>2022-08-28T05:33:29Z</time>
      </trkpt>
      <trkpt lat="46.03262" lon="6.93236">
        <ele>1594</ele>
        <time>2022-08-28T05:33:30Z</time>
      </trkpt>
      <trkpt lat="46.03262" lon="6.93236">
        <ele>1594</ele>
        <time>2022-08-28T05:33:31Z</time>
      </trkpt>
      <trkpt lat="46.03262" lon="6.93236">
        <ele>1594</ele>
        <time>2022-08-28T05:33:32Z</time>
      </trkpt>
      <trkpt lat="46.03262" lon="6.93236">
        <ele>1594</ele>
        <time>2022-08-28T05:33:33Z</time>
      </trkpt>
      <trkpt lat="46.03263" lon="6.93236">
        <ele>1594</ele>
        <time>2022-08-28T05:33:35Z</time>
      </trkpt>
      <trkpt lat="46.03263" lon="6.93236">
        <ele>1594</ele>
        <time>2022-08-28T05:33:36Z</time>
      </trkpt>
      <trkpt lat="46.03263" lon="6.93236">
        <ele>1594</ele>
        <time>2022-08-28T05:33:37Z</time>
      </trkpt>
      <trkpt lat="46.03263" lon="6.93237">
        <ele>1595</ele>
        <time>2022-08-28T05:33:38Z</time>
      </trkpt>
      <trkpt lat="46.03263" lon="6.93237">
        <ele>1595</ele>
        <time>2022-08-28T05:33:39Z</time>
      </trkpt>
      <trkpt lat="46.03263" lon="6.93237">
        <ele>1595</ele>
        <time>2022-08-28T05:33:40Z</time>
      </trkpt>
      <trkpt lat="46.03264" lon="6.93237">
        <ele>1595</ele>
        <time>2022-08-28T05:33:41Z</time>
      </trkpt>
      <trkpt lat="46.03264" lon="6.93237">
        <ele>1595</ele>
        <time>2022-08-28T05:33:42Z</time>
      </trkpt>
      <trkpt lat="46.03264" lon="6.93237">
        <ele>1595</ele>
        <time>2022-08-28T05:33:43Z</time>
      </trkpt>
      <trkpt lat="46.03264" lon="6.93237">
        <ele>1595</ele>
        <time>2022-08-28T05:33:44Z</time>
      </trkpt>
      <trkpt lat="46.03264" lon="6.93237">
        <ele>1595</ele>
        <time>2022-08-28T05:33:45Z</time>
      </trkpt>
      <trkpt lat="46.03265" lon="6.93237">
        <ele>1595</ele>
        <time>2022-08-28T05:33:46Z</time>
      </trkpt>
      <trkpt lat="46.03265" lon="6.93237">
        <ele>1595</ele>
        <time>2022-08-28T05:33:47Z</time>
      </trkpt>
      <trkpt lat="46.03265" lon="6.93238">
        <ele>1595</ele>
        <time>2022-08-28T05:33:48Z</time>
      </trkpt>
      <trkpt lat="46.03265" lon="6.93238">
        <ele>1595</ele>
        <time>2022-08-28T05:33:49Z</time>
      </trkpt>
      <trkpt lat="46.03265" lon="6.93238">
        <ele>1595</ele>
        <time>2022-08-28T05:33:50Z</time>
      </trkpt>
      <trkpt lat="46.03265" lon="6.93238">
        <ele>1595</ele>
        <time>2022-08-28T05:33:51Z</time>
      </trkpt>
      <trkpt lat="46.03266" lon="6.93238">
        <ele>1595</ele>
        <time>2022-08-28T05:33:52Z</time>
      </trkpt>
      <trkpt lat="46.03266" lon="6.93238">
        <ele>1595</ele>
        <time>2022-08-28T05:33:54Z</time>
      </trkpt>
      <trkpt lat="46.03266" lon="6.93238">
        <ele>1595</ele>
        <time>2022-08-28T05:33:55Z</time>
      </trkpt>
      <trkpt lat="46.03266" lon="6.93238">
        <ele>1595</ele>
        <time>2022-08-28T05:33:56Z</time>
      </trkpt>
      <trkpt lat="46.03265" lon="6.93238">
        <ele>1595</ele>
        <time>2022-08-28T05:33:57Z</time>
      </trkpt>
      <trkpt lat="46.03265" lon="6.93238">
        <ele>1595</ele>
        <time>2022-08-28T05:33:58Z</time>
      </trkpt>
      <trkpt lat="46.03264" lon="6.93237">
        <ele>1595</ele>
        <time>2022-08-28T05:33:59Z</time>
      </trkpt>
      <trkpt lat="46.03263" lon="6.93237">
        <ele>1595</ele>
        <time>2022-08-28T05:34:00Z</time>
      </trkpt>
      <trkpt lat="46.03263" lon="6.93237">
        <ele>1595</ele>
        <time>2022-08-28T05:34:01Z</time>
      </trkpt>
      <trkpt lat="46.03262" lon="6.93237">
        <ele>1595</ele>
        <time>2022-08-28T05:34:02Z</time>
      </trkpt>
      <trkpt lat="46.03261" lon="6.93237">
        <ele>1595</ele>
        <time>2022-08-28T05:34:03Z</time>
      </trkpt>
      <trkpt lat="46.0326" lon="6.93236">
        <ele>1595</ele>
        <time>2022-08-28T05:34:04Z</time>
      </trkpt>
      <trkpt lat="46.0326" lon="6.93236">
        <ele>1595</ele>
        <time>2022-08-28T05:34:05Z</time>
      </trkpt>
      <trkpt lat="46.03259" lon="6.93236">
        <ele>1595</ele>
        <time>2022-08-28T05:34:06Z</time>
      </trkpt>
      <trkpt lat="46.03258" lon="6.93236">
        <ele>1595</ele>
        <time>2022-08-28T05:34:07Z</time>
      </trkpt>
      <trkpt lat="46.03258" lon="6.93235">
        <ele>1595</ele>
        <time>2022-08-28T05:34:08Z</time>
      </trkpt>
      <trkpt lat="46.03257" lon="6.93235">
        <ele>1595</ele>
        <time>2022-08-28T05:34:09Z</time>
      </trkpt>
      <trkpt lat="46.03256" lon="6.93235">
        <ele>1595</ele>
        <time>2022-08-28T05:34:10Z</time>
      </trkpt>
      <trkpt lat="46.03255" lon="6.93235">
        <ele>1595</ele>
        <time>2022-08-28T05:34:11Z</time>
      </trkpt>
      <trkpt lat="46.03256" lon="6.93235">
        <ele>1595</ele>
        <time>2022-08-28T05:34:13Z</time>
      </trkpt>
      <trkpt lat="46.03256" lon="6.93235">
        <ele>1595</ele>
        <time>2022-08-28T05:34:14Z</time>
      </trkpt>
      <trkpt lat="46.03256" lon="6.93235">
        <ele>1595</ele>
        <time>2022-08-28T05:34:15Z</time>
      </trkpt>
      <trkpt lat="46.03257" lon="6.93235">
        <ele>1595</ele>
        <time>2022-08-28T05:34:16Z</time>
      </trkpt>
      <trkpt lat="46.03257" lon="6.93235">
        <ele>1595</ele>
        <time>2022-08-28T05:34:17Z</time>
      </trkpt>
      <trkpt lat="46.03257" lon="6.93235">
        <ele>1595</ele>
        <time>2022-08-28T05:34:18Z</time>
      </trkpt>
      <trkpt lat="46.03257" lon="6.93235">
        <ele>1595</ele>
        <time>2022-08-28T05:34:19Z</time>
      </trkpt>
      <trkpt lat="46.03258" lon="6.93235">
        <ele>1595</ele>
        <time>2022-08-28T05:34:20Z</time>
      </trkpt>
      <trkpt lat="46.03258" lon="6.93235">
        <ele>1595</ele>
        <time>2022-08-28T05:34:21Z</time>
      </trkpt>
      <trkpt lat="46.03258" lon="6.93235">
        <ele>1595</ele>
        <time>2022-08-28T05:34:22Z</time>
      </trkpt>
      <trkpt lat="46.03259" lon="6.93235">
        <ele>1595</ele>
        <time>2022-08-28T05:34:23Z</time>
      </trkpt>
      <trkpt lat="46.03259" lon="6.93235">
        <ele>1595</ele>
        <time>2022-08-28T05:34:24Z</time>
      </trkpt>
      <trkpt lat="46.03259" lon="6.93235">
        <ele>1595</ele>
        <time>2022-08-28T05:34:25Z</time>
      </trkpt>
      <trkpt lat="46.03259" lon="6.93235">
        <ele>1595</ele>
        <time>2022-08-28T05:34:26Z</time>
      </trkpt>
      <trkpt lat="46.0326" lon="6.93235">
        <ele>1595</ele>
        <time>2022-08-28T05:34:27Z</time>
      </trkpt>
      <trkpt lat="46.0326" lon="6.93235">
        <ele>1595</ele>
        <time>2022-08-28T05:34:28Z</time>
      </trkpt>
      <trkpt lat="46.0326" lon="6.93235">
        <ele>1595</ele>
        <time>2022-08-28T05:34:29Z</time>
      </trkpt>
      <trkpt lat="46.03261" lon="6.93235">
        <ele>1595</ele>
        <time>2022-08-28T05:34:30Z</time>
      </trkpt>
      <trkpt lat="46.03261" lon="6.93235">
        <ele>1595</ele>
        <time>2022-08-28T05:34:32Z</time>
      </trkpt>
      <trkpt lat="46.03261" lon="6.93235">
        <ele>1595</ele>
        <time>2022-08-28T05:34:33Z</time>
      </trkpt>
      <trkpt lat="46.03262" lon="6.93235">
        <ele>1595</ele>
        <time>2022-08-28T05:34:34Z</time>
      </trkpt>
      <trkpt lat="46.03262" lon="6.93235">
        <ele>1595</ele>
        <time>2022-08-28T05:34:35Z</time>
      </trkpt>
      <trkpt lat="46.03262" lon="6.93235">
        <ele>1595</ele>
        <time>2022-08-28T05:34:36Z</time>
      </trkpt>
      <trkpt lat="46.03262" lon="6.93235">
        <ele>1595</ele>
        <time>2022-08-28T05:34:37Z</time>
      </trkpt>
      <trkpt lat="46.03263" lon="6.93235">
        <ele>1595</ele>
        <time>2022-08-28T05:34:38Z</time>
      </trkpt>
      <trkpt lat="46.03263" lon="6.93235">
        <ele>1595</ele>
        <time>2022-08-28T05:34:39Z</time>
      </trkpt>
      <trkpt lat="46.03263" lon="6.93235">
        <ele>1595</ele>
        <time>2022-08-28T05:34:40Z</time>
      </trkpt>
      <trkpt lat="46.03264" lon="6.93235">
        <ele>1595</ele>
        <time>2022-08-28T05:34:41Z</time>
      </trkpt>
      <trkpt lat="46.03264" lon="6.93235">
        <ele>1595</ele>
        <time>2022-08-28T05:34:42Z</time>
      </trkpt>
      <trkpt lat="46.03264" lon="6.93235">
        <ele>1595</ele>
        <time>2022-08-28T05:34:43Z</time>
      </trkpt>
      <trkpt lat="46.03264" lon="6.93235">
        <ele>1595</ele>
        <time>2022-08-28T05:34:44Z</time>
      </trkpt>
      <trkpt lat="46.03265" lon="6.93235">
        <ele>1595</ele>
        <time>2022-08-28T05:34:45Z</time>
      </trkpt>
      <trkpt lat="46.03264" lon="6.93236">
        <ele>1595</ele>
        <time>2022-08-28T05:34:46Z</time>
      </trkpt>
      <trkpt lat="46.03264" lon="6.93236">
        <ele>1595</ele>
        <time>2022-08-28T05:34:47Z</time>
      </trkpt>
      <trkpt lat="46.03264" lon="6.93236">
        <ele>1595</ele>
        <time>2022-08-28T05:34:48Z</time>
      </trkpt>
      <trkpt lat="46.03263" lon="6.93236">
        <ele>1595</ele>
        <time>2022-08-28T05:34:49Z</time>
      </trkpt>
      <trkpt lat="46.03263" lon="6.93236">
        <ele>1595</ele>
        <time>2022-08-28T05:34:51Z</time>
      </trkpt>
      <trkpt lat="46.03262" lon="6.93236">
        <ele>1594</ele>
        <time>2022-08-28T05:34:53Z</time>
      </trkpt>
      <trkpt lat="46.03262" lon="6.93237">
        <ele>1594</ele>
        <time>2022-08-28T05:34:54Z</time>
      </trkpt>
      <trkpt lat="46.03261" lon="6.93237">
        <ele>1594</ele>
        <time>2022-08-28T05:34:55Z</time>
      </trkpt>
      <trkpt lat="46.03261" lon="6.93237">
        <ele>1594</ele>
        <time>2022-08-28T05:34:56Z</time>
      </trkpt>
      <trkpt lat="46.03261" lon="6.93237">
        <ele>1594</ele>
        <time>2022-08-28T05:34:57Z</time>
      </trkpt>
      <trkpt lat="46.0326" lon="6.93237">
        <ele>1595</ele>
        <time>2022-08-28T05:34:58Z</time>
      </trkpt>
      <trkpt lat="46.0326" lon="6.93237">
        <ele>1595</ele>
        <time>2022-08-28T05:34:59Z</time>
      </trkpt>
      <trkpt lat="46.03259" lon="6.93238">
        <ele>1595</ele>
        <time>2022-08-28T05:35:00Z</time>
      </trkpt>
      <trkpt lat="46.03259" lon="6.93238">
        <ele>1595</ele>
        <time>2022-08-28T05:35:01Z</time>
      </trkpt>
      <trkpt lat="46.03259" lon="6.93238">
        <ele>1595</ele>
        <time>2022-08-28T05:35:02Z</time>
      </trkpt>
      <trkpt lat="46.03258" lon="6.93238">
        <ele>1595</ele>
        <time>2022-08-28T05:35:03Z</time>
      </trkpt>
      <trkpt lat="46.03258" lon="6.93238">
        <ele>1595</ele>
        <time>2022-08-28T05:35:04Z</time>
      </trkpt>
      <trkpt lat="46.03257" lon="6.93238">
        <ele>1595</ele>
        <time>2022-08-28T05:35:05Z</time>
      </trkpt>
      <trkpt lat="46.03257" lon="6.93239">
        <ele>1595</ele>
        <time>2022-08-28T05:35:06Z</time>
      </trkpt>
      <trkpt lat="46.03257" lon="6.93239">
        <ele>1595</ele>
        <time>2022-08-28T05:35:07Z</time>
      </trkpt>
      <trkpt lat="46.03256" lon="6.93239">
        <ele>1595</ele>
        <time>2022-08-28T05:35:09Z</time>
      </trkpt>
      <trkpt lat="46.03256" lon="6.93239">
        <ele>1595</ele>
        <time>2022-08-28T05:35:10Z</time>
      </trkpt>
      <trkpt lat="46.03255" lon="6.93239">
        <ele>1595</ele>
        <time>2022-08-28T05:35:11Z</time>
      </trkpt>
      <trkpt lat="46.03255" lon="6.93239">
        <ele>1595</ele>
        <time>2022-08-28T05:35:12Z</time>
      </trkpt>
      <trkpt lat="46.03254" lon="6.93239">
        <ele>1595</ele>
        <time>2022-08-28T05:35:13Z</time>
      </trkpt>
      <trkpt lat="46.03254" lon="6.93238">
        <ele>1595</ele>
        <time>2022-08-28T05:35:15Z</time>
      </trkpt>
      <trkpt lat="46.03253" lon="6.93238">
        <ele>1595</ele>
        <time>2022-08-28T05:35:16Z</time>
      </trkpt>
      <trkpt lat="46.03253" lon="6.93238">
        <ele>1595</ele>
        <time>2022-08-28T05:35:17Z</time>
      </trkpt>
      <trkpt lat="46.03252" lon="6.93238">
        <ele>1595</ele>
        <time>2022-08-28T05:35:18Z</time>
      </trkpt>
      <trkpt lat="46.03252" lon="6.93238">
        <ele>1595</ele>
        <time>2022-08-28T05:35:19Z</time>
      </trkpt>
      <trkpt lat="46.03252" lon="6.93238">
        <ele>1595</ele>
        <time>2022-08-28T05:35:20Z</time>
      </trkpt>
      <trkpt lat="46.03251" lon="6.93237">
        <ele>1595</ele>
        <time>2022-08-28T05:35:21Z</time>
      </trkpt>
      <trkpt lat="46.03251" lon="6.93237">
        <ele>1595</ele>
        <time>2022-08-28T05:35:22Z</time>
      </trkpt>
      <trkpt lat="46.0325" lon="6.93237">
        <ele>1595</ele>
        <time>2022-08-28T05:35:23Z</time>
      </trkpt>
      <trkpt lat="46.0325" lon="6.93237">
        <ele>1595</ele>
        <time>2022-08-28T05:35:24Z</time>
      </trkpt>
      <trkpt lat="46.03249" lon="6.93237">
        <ele>1595</ele>
        <time>2022-08-28T05:35:25Z</time>
      </trkpt>
      <trkpt lat="46.03249" lon="6.93237">
        <ele>1595</ele>
        <time>2022-08-28T05:35:26Z</time>
      </trkpt>
      <trkpt lat="46.03248" lon="6.93236">
        <ele>1595</ele>
        <time>2022-08-28T05:35:27Z</time>
      </trkpt>
      <trkpt lat="46.0325" lon="6.93234">
        <ele>1595</ele>
        <time>2022-08-28T05:35:28Z</time>
      </trkpt>
      <trkpt lat="46.03253" lon="6.93233">
        <ele>1595</ele>
        <time>2022-08-28T05:35:31Z</time>
      </trkpt>
      <trkpt lat="46.03255" lon="6.93232">
        <ele>1595</ele>
        <time>2022-08-28T05:35:34Z</time>
      </trkpt>
      <trkpt lat="46.03255" lon="6.93232">
        <ele>1595</ele>
        <time>2022-08-28T05:35:37Z</time>
      </trkpt>
      <trkpt lat="46.03255" lon="6.93232">
        <ele>1595</ele>
        <time>2022-08-28T05:35:39Z</time>
      </trkpt>
      <trkpt lat="46.03255" lon="6.93232">
        <ele>1595</ele>
        <time>2022-08-28T05:35:40Z</time>
      </trkpt>
      <trkpt lat="46.03255" lon="6.93232">
        <ele>1595</ele>
        <time>2022-08-28T05:35:43Z</time>
      </trkpt>
      <trkpt lat="46.03255" lon="6.93232">
        <ele>1595</ele>
        <time>2022-08-28T05:35:45Z</time>
      </trkpt>
      <trkpt lat="46.03255" lon="6.93232">
        <ele>1595</ele>
        <time>2022-08-28T05:35:46Z</time>
      </trkpt>
      <trkpt lat="46.03255" lon="6.93231">
        <ele>1595</ele>
        <time>2022-08-28T05:35:48Z</time>
      </trkpt>
      <trkpt lat="46.03255" lon="6.93231">
        <ele>1595</ele>
        <time>2022-08-28T05:35:50Z</time>
      </trkpt>
      <trkpt lat="46.03255" lon="6.93231">
        <ele>1595</ele>
        <time>2022-08-28T05:35:52Z</time>
      </trkpt>
      <trkpt lat="46.03255" lon="6.93231">
        <ele>1595</ele>
        <time>2022-08-28T05:35:53Z</time>
      </trkpt>
      <trkpt lat="46.03255" lon="6.93231">
        <ele>1595</ele>
        <time>2022-08-28T05:35:54Z</time>
      </trkpt>
      <trkpt lat="46.03255" lon="6.93231">
        <ele>1595</ele>
        <time>2022-08-28T05:35:56Z</time>
      </trkpt>
      <trkpt lat="46.03255" lon="6.93231">
        <ele>1595</ele>
        <time>2022-08-28T05:35:58Z</time>
      </trkpt>
      <trkpt lat="46.03255" lon="6.93231">
        <ele>1596</ele>
        <time>2022-08-28T05:36:00Z</time>
      </trkpt>
      <trkpt lat="46.03255" lon="6.93231">
        <ele>1595</ele>
        <time>2022-08-28T05:36:02Z</time>
      </trkpt>
      <trkpt lat="46.03255" lon="6.93231">
        <ele>1595</ele>
        <time>2022-08-28T05:36:04Z</time>
      </trkpt>
      <trkpt lat="46.03255" lon="6.93231">
        <ele>1596</ele>
        <time>2022-08-28T05:36:07Z</time>
      </trkpt>
      <trkpt lat="46.03255" lon="6.9323">
        <ele>1596</ele>
        <time>2022-08-28T05:36:09Z</time>
      </trkpt>
      <trkpt lat="46.03255" lon="6.9323">
        <ele>1596</ele>
        <time>2022-08-28T05:36:10Z</time>
      </trkpt>
      <trkpt lat="46.03255" lon="6.9323">
        <ele>1595</ele>
        <time>2022-08-28T05:36:12Z</time>
      </trkpt>
      <trkpt lat="46.03255" lon="6.9323">
        <ele>1595</ele>
        <time>2022-08-28T05:36:14Z</time>
      </trkpt>
      <trkpt lat="46.03255" lon="6.9323">
        <ele>1595</ele>
        <time>2022-08-28T05:36:15Z</time>
      </trkpt>
      <trkpt lat="46.03255" lon="6.9323">
        <ele>1595</ele>
        <time>2022-08-28T05:36:16Z</time>
      </trkpt>
      <trkpt lat="46.03255" lon="6.9323">
        <ele>1595</ele>
        <time>2022-08-28T05:36:18Z</time>
      </trkpt>
      <trkpt lat="46.03255" lon="6.9323">
        <ele>1595</ele>
        <time>2022-08-28T05:36:20Z</time>
      </trkpt>
      <trkpt lat="46.03255" lon="6.9323">
        <ele>1595</ele>
        <time>2022-08-28T05:36:21Z</time>
      </trkpt>
      <trkpt lat="46.03255" lon="6.9323">
        <ele>1595</ele>
        <time>2022-08-28T05:36:22Z</time>
      </trkpt>
      <trkpt lat="46.03255" lon="6.9323">
        <ele>1595</ele>
        <time>2022-08-28T05:36:24Z</time>
      </trkpt>
      <trkpt lat="46.03256" lon="6.9323">
        <ele>1595</ele>
        <time>2022-08-28T05:36:27Z</time>
      </trkpt>
      <trkpt lat="46.03256" lon="6.9323">
        <ele>1595</ele>
        <time>2022-08-28T05:36:29Z</time>
      </trkpt>
      <trkpt lat="46.03256" lon="6.93229">
        <ele>1596</ele>
        <time>2022-08-28T05:36:31Z</time>
      </trkpt>
      <trkpt lat="46.03256" lon="6.93229">
        <ele>1596</ele>
        <time>2022-08-28T05:36:33Z</time>
      </trkpt>
      <trkpt lat="46.03256" lon="6.93229">
        <ele>1596</ele>
        <time>2022-08-28T05:36:35Z</time>
      </trkpt>
      <trkpt lat="46.03256" lon="6.93229">
        <ele>1596</ele>
        <time>2022-08-28T05:36:37Z</time>
      </trkpt>
      <trkpt lat="46.03256" lon="6.93229">
        <ele>1596</ele>
        <time>2022-08-28T05:36:38Z</time>
      </trkpt>
      <trkpt lat="46.03256" lon="6.93229">
        <ele>1595</ele>
        <time>2022-08-28T05:36:40Z</time>
      </trkpt>
      <trkpt lat="46.03256" lon="6.93229">
        <ele>1596</ele>
        <time>2022-08-28T05:36:42Z</time>
      </trkpt>
      <trkpt lat="46.03256" lon="6.93229">
        <ele>1596</ele>
        <time>2022-08-28T05:36:43Z</time>
      </trkpt>
      <trkpt lat="46.03256" lon="6.93229">
        <ele>1596</ele>
        <time>2022-08-28T05:36:45Z</time>
      </trkpt>
      <trkpt lat="46.03256" lon="6.93229">
        <ele>1596</ele>
        <time>2022-08-28T05:36:47Z</time>
      </trkpt>
      <trkpt lat="46.03256" lon="6.93229">
        <ele>1596</ele>
        <time>2022-08-28T05:36:50Z</time>
      </trkpt>
      <trkpt lat="46.03256" lon="6.93229">
        <ele>1596</ele>
        <time>2022-08-28T05:36:51Z</time>
      </trkpt>
      <trkpt lat="46.03256" lon="6.93229">
        <ele>1596</ele>
        <time>2022-08-28T05:36:52Z</time>
      </trkpt>
      <trkpt lat="46.03256" lon="6.93228">
        <ele>1596</ele>
        <time>2022-08-28T05:36:55Z</time>
      </trkpt>
      <trkpt lat="46.03256" lon="6.93228">
        <ele>1595</ele>
        <time>2022-08-28T05:36:58Z</time>
      </trkpt>
      <trkpt lat="46.03256" lon="6.93228">
        <ele>1595</ele>
        <time>2022-08-28T05:37:00Z</time>
      </trkpt>
      <trkpt lat="46.03256" lon="6.93228">
        <ele>1595</ele>
        <time>2022-08-28T05:37:02Z</time>
      </trkpt>
      <trkpt lat="46.03256" lon="6.93228">
        <ele>1595</ele>
        <time>2022-08-28T05:37:06Z</time>
      </trkpt>
      <trkpt lat="46.03256" lon="6.93228">
        <ele>1595</ele>
        <time>2022-08-28T05:37:08Z</time>
      </trkpt>
      <trkpt lat="46.03256" lon="6.93228">
        <ele>1596</ele>
        <time>2022-08-28T05:37:13Z</time>
      </trkpt>
      <trkpt lat="46.03256" lon="6.93228">
        <ele>1596</ele>
        <time>2022-08-28T05:37:15Z</time>
      </trkpt>
      <trkpt lat="46.03256" lon="6.93228">
        <ele>1596</ele>
        <time>2022-08-28T05:37:18Z</time>
      </trkpt>
      <trkpt lat="46.03256" lon="6.93228">
        <ele>1595</ele>
        <time>2022-08-28T05:37:20Z</time>
      </trkpt>
      <trkpt lat="46.03256" lon="6.93227">
        <ele>1596</ele>
        <time>2022-08-28T05:37:23Z</time>
      </trkpt>
      <trkpt lat="46.03256" lon="6.93227">
        <ele>1595</ele>
        <time>2022-08-28T05:37:26Z</time>
      </trkpt>
      <trkpt lat="46.03256" lon="6.93227">
        <ele>1595</ele>
        <time>2022-08-28T05:37:27Z</time>
      </trkpt>
      <trkpt lat="46.03256" lon="6.93227">
        <ele>1595</ele>
        <time>2022-08-28T05:37:28Z</time>
      </trkpt>
      <trkpt lat="46.03256" lon="6.93227">
        <ele>1595</ele>
        <time>2022-08-28T05:37:30Z</time>
      </trkpt>
      <trkpt lat="46.03257" lon="6.93227">
        <ele>1595</ele>
        <time>2022-08-28T05:37:32Z</time>
      </trkpt>
      <trkpt lat="46.03257" lon="6.93227">
        <ele>1595</ele>
        <time>2022-08-28T05:37:35Z</time>
      </trkpt>
      <trkpt lat="46.03257" lon="6.93227">
        <ele>1595</ele>
        <time>2022-08-28T05:37:37Z</time>
      </trkpt>
      <trkpt lat="46.03257" lon="6.93227">
        <ele>1596</ele>
        <time>2022-08-28T05:37:39Z</time>
      </trkpt>
      <trkpt lat="46.03257" lon="6.93227">
        <ele>1596</ele>
        <time>2022-08-28T05:37:42Z</time>
      </trkpt>
      <trkpt lat="46.03257" lon="6.93227">
        <ele>1596</ele>
        <time>2022-08-28T05:37:46Z</time>
      </trkpt>
      <trkpt lat="46.03257" lon="6.93226">
        <ele>1596</ele>
        <time>2022-08-28T05:37:48Z</time>
      </trkpt>
      <trkpt lat="46.03257" lon="6.93226">
        <ele>1595</ele>
        <time>2022-08-28T05:37:50Z</time>
      </trkpt>
      <trkpt lat="46.03257" lon="6.93226">
        <ele>1595</ele>
        <time>2022-08-28T05:37:52Z</time>
      </trkpt>
      <trkpt lat="46.03257" lon="6.93226">
        <ele>1595</ele>
        <time>2022-08-28T05:37:54Z</time>
      </trkpt>
      <trkpt lat="46.03257" lon="6.93226">
        <ele>1596</ele>
        <time>2022-08-28T05:37:57Z</time>
      </trkpt>
      <trkpt lat="46.03257" lon="6.93226">
        <ele>1596</ele>
        <time>2022-08-28T05:37:58Z</time>
      </trkpt>
      <trkpt lat="46.03257" lon="6.93226">
        <ele>1596</ele>
        <time>2022-08-28T05:37:59Z</time>
      </trkpt>
      <trkpt lat="46.03257" lon="6.93226">
        <ele>1596</ele>
        <time>2022-08-28T05:38:02Z</time>
      </trkpt>
      <trkpt lat="46.03257" lon="6.93226">
        <ele>1595</ele>
        <time>2022-08-28T05:38:04Z</time>
      </trkpt>
      <trkpt lat="46.03257" lon="6.93226">
        <ele>1595</ele>
        <time>2022-08-28T05:38:06Z</time>
      </trkpt>
      <trkpt lat="46.03257" lon="6.93226">
        <ele>1595</ele>
        <time>2022-08-28T05:38:08Z</time>
      </trkpt>
      <trkpt lat="46.03257" lon="6.93225">
        <ele>1595</ele>
        <time>2022-08-28T05:38:10Z</time>
      </trkpt>
      <trkpt lat="46.03257" lon="6.93225">
        <ele>1596</ele>
        <time>2022-08-28T05:38:12Z</time>
      </trkpt>
      <trkpt lat="46.03257" lon="6.93225">
        <ele>1596</ele>
        <time>2022-08-28T05:38:15Z</time>
      </trkpt>
      <trkpt lat="46.03257" lon="6.93225">
        <ele>1596</ele>
        <time>2022-08-28T05:38:17Z</time>
      </trkpt>
      <trkpt lat="46.03257" lon="6.93225">
        <ele>1596</ele>
        <time>2022-08-28T05:38:20Z</time>
      </trkpt>
      <trkpt lat="46.03257" lon="6.93225">
        <ele>1596</ele>
        <time>2022-08-28T05:38:22Z</time>
      </trkpt>
      <trkpt lat="46.03257" lon="6.93225">
        <ele>1596</ele>
        <time>2022-08-28T05:38:25Z</time>
      </trkpt>
      <trkpt lat="46.03257" lon="6.93225">
        <ele>1595</ele>
        <time>2022-08-28T05:38:27Z</time>
      </trkpt>
      <trkpt lat="46.03257" lon="6.93225">
        <ele>1595</ele>
        <time>2022-08-28T05:38:29Z</time>
      </trkpt>
      <trkpt lat="46.03257" lon="6.93225">
        <ele>1595</ele>
        <time>2022-08-28T05:38:30Z</time>
      </trkpt>
      <trkpt lat="46.03257" lon="6.93225">
        <ele>1596</ele>
        <time>2022-08-28T05:38:32Z</time>
      </trkpt>
      <trkpt lat="46.03257" lon="6.93224">
        <ele>1596</ele>
        <time>2022-08-28T05:38:34Z</time>
      </trkpt>
      <trkpt lat="46.03258" lon="6.93224">
        <ele>1596</ele>
        <time>2022-08-28T05:38:35Z</time>
      </trkpt>
      <trkpt lat="46.03258" lon="6.93224">
        <ele>1595</ele>
        <time>2022-08-28T05:38:36Z</time>
      </trkpt>
      <trkpt lat="46.03258" lon="6.93224">
        <ele>1595</ele>
        <time>2022-08-28T05:38:39Z</time>
      </trkpt>
      <trkpt lat="46.03258" lon="6.93224">
        <ele>1596</ele>
        <time>2022-08-28T05:38:41Z</time>
      </trkpt>
      <trkpt lat="46.03258" lon="6.93224">
        <ele>1595</ele>
        <time>2022-08-28T05:38:45Z</time>
      </trkpt>
      <trkpt lat="46.03258" lon="6.93224">
        <ele>1595</ele>
        <time>2022-08-28T05:38:48Z</time>
      </trkpt>
      <trkpt lat="46.03258" lon="6.93224">
        <ele>1595</ele>
        <time>2022-08-28T05:38:50Z</time>
      </trkpt>
      <trkpt lat="46.03258" lon="6.93224">
        <ele>1595</ele>
        <time>2022-08-28T05:38:52Z</time>
      </trkpt>
      <trkpt lat="46.03258" lon="6.93224">
        <ele>1595</ele>
        <time>2022-08-28T05:38:54Z</time>
      </trkpt>
      <trkpt lat="46.03258" lon="6.93224">
        <ele>1595</ele>
        <time>2022-08-28T05:38:56Z</time>
      </trkpt>
      <trkpt lat="46.03258" lon="6.93223">
        <ele>1596</ele>
        <time>2022-08-28T05:39:00Z</time>
      </trkpt>
      <trkpt lat="46.03258" lon="6.93223">
        <ele>1596</ele>
        <time>2022-08-28T05:39:01Z</time>
      </trkpt>
      <trkpt lat="46.03258" lon="6.93223">
        <ele>1596</ele>
        <time>2022-08-28T05:39:02Z</time>
      </trkpt>
      <trkpt lat="46.03258" lon="6.93223">
        <ele>1595</ele>
        <time>2022-08-28T05:39:05Z</time>
      </trkpt>
      <trkpt lat="46.03258" lon="6.93223">
        <ele>1595</ele>
        <time>2022-08-28T05:39:07Z</time>
      </trkpt>
      <trkpt lat="46.03258" lon="6.93223">
        <ele>1595</ele>
        <time>2022-08-28T05:39:08Z</time>
      </trkpt>
      <trkpt lat="46.03258" lon="6.93223">
        <ele>1595</ele>
        <time>2022-08-28T05:39:09Z</time>
      </trkpt>
      <trkpt lat="46.03258" lon="6.93223">
        <ele>1595</ele>
        <time>2022-08-28T05:39:11Z</time>
      </trkpt>
      <trkpt lat="46.03258" lon="6.93223">
        <ele>1595</ele>
        <time>2022-08-28T05:39:13Z</time>
      </trkpt>
      <trkpt lat="46.03258" lon="6.93223">
        <ele>1595</ele>
        <time>2022-08-28T05:39:17Z</time>
      </trkpt>
      <trkpt lat="46.03258" lon="6.93223">
        <ele>1595</ele>
        <time>2022-08-28T05:39:19Z</time>
      </trkpt>
      <trkpt lat="46.03258" lon="6.93223">
        <ele>1595</ele>
        <time>2022-08-28T05:39:21Z</time>
      </trkpt>
      <trkpt lat="46.03258" lon="6.93222">
        <ele>1595</ele>
        <time>2022-08-28T05:39:23Z</time>
      </trkpt>
      <trkpt lat="46.03258" lon="6.93222">
        <ele>1595</ele>
        <time>2022-08-28T05:39:25Z</time>
      </trkpt>
      <trkpt lat="46.03258" lon="6.93222">
        <ele>1595</ele>
        <time>2022-08-28T05:39:28Z</time>
      </trkpt>
      <trkpt lat="46.03258" lon="6.93222">
        <ele>1596</ele>
        <time>2022-08-28T05:39:30Z</time>
      </trkpt>
      <trkpt lat="46.03258" lon="6.93222">
        <ele>1596</ele>
        <time>2022-08-28T05:39:31Z</time>
      </trkpt>
      <trkpt lat="46.03258" lon="6.93222">
        <ele>1596</ele>
        <time>2022-08-28T05:39:32Z</time>
      </trkpt>
      <trkpt lat="46.03258" lon="6.93222">
        <ele>1596</ele>
        <time>2022-08-28T05:39:34Z</time>
      </trkpt>
      <trkpt lat="46.03258" lon="6.93222">
        <ele>1596</ele>
        <time>2022-08-28T05:39:37Z</time>
      </trkpt>
      <trkpt lat="46.03259" lon="6.93222">
        <ele>1596</ele>
        <time>2022-08-28T05:39:39Z</time>
      </trkpt>
      <trkpt lat="46.03259" lon="6.93222">
        <ele>1596</ele>
        <time>2022-08-28T05:39:40Z</time>
      </trkpt>
      <trkpt lat="46.03259" lon="6.93222">
        <ele>1596</ele>
        <time>2022-08-28T05:39:42Z</time>
      </trkpt>
      <trkpt lat="46.03259" lon="6.93222">
        <ele>1595</ele>
        <time>2022-08-28T05:39:45Z</time>
      </trkpt>
      <trkpt lat="46.03259" lon="6.93221">
        <ele>1596</ele>
        <time>2022-08-28T05:39:49Z</time>
      </trkpt>
      <trkpt lat="46.03259" lon="6.93221">
        <ele>1596</ele>
        <time>2022-08-28T05:39:51Z</time>
      </trkpt>
      <trkpt lat="46.03259" lon="6.93221">
        <ele>1596</ele>
        <time>2022-08-28T05:39:52Z</time>
      </trkpt>
      <trkpt lat="46.03259" lon="6.93221">
        <ele>1596</ele>
        <time>2022-08-28T05:39:53Z</time>
      </trkpt>
      <trkpt lat="46.03259" lon="6.93221">
        <ele>1595</ele>
        <time>2022-08-28T05:39:56Z</time>
      </trkpt>
      <trkpt lat="46.03259" lon="6.93221">
        <ele>1595</ele>
        <time>2022-08-28T05:39:58Z</time>
      </trkpt>
      <trkpt lat="46.03259" lon="6.93221">
        <ele>1595</ele>
        <time>2022-08-28T05:40:00Z</time>
      </trkpt>
      <trkpt lat="46.03259" lon="6.93221">
        <ele>1595</ele>
        <time>2022-08-28T05:40:02Z</time>
      </trkpt>
      <trkpt lat="46.03259" lon="6.93221">
        <ele>1595</ele>
        <time>2022-08-28T05:40:03Z</time>
      </trkpt>
      <trkpt lat="46.03259" lon="6.93221">
        <ele>1595</ele>
        <time>2022-08-28T05:40:04Z</time>
      </trkpt>
      <trkpt lat="46.03259" lon="6.93221">
        <ele>1596</ele>
        <time>2022-08-28T05:40:06Z</time>
      </trkpt>
      <trkpt lat="46.03259" lon="6.93221">
        <ele>1596</ele>
        <time>2022-08-28T05:40:08Z</time>
      </trkpt>
      <trkpt lat="46.03259" lon="6.93221">
        <ele>1596</ele>
        <time>2022-08-28T05:40:09Z</time>
      </trkpt>
      <trkpt lat="46.03259" lon="6.9322">
        <ele>1596</ele>
        <time>2022-08-28T05:40:10Z</time>
      </trkpt>
      <trkpt lat="46.03259" lon="6.9322">
        <ele>1596</ele>
        <time>2022-08-28T05:40:14Z</time>
      </trkpt>
      <trkpt lat="46.03259" lon="6.93221">
        <ele>1595</ele>
        <time>2022-08-28T05:40:16Z</time>
      </trkpt>
      <trkpt lat="46.03259" lon="6.93221">
        <ele>1596</ele>
        <time>2022-08-28T05:40:17Z</time>
      </trkpt>
      <trkpt lat="46.03259" lon="6.93221">
        <ele>1596</ele>
        <time>2022-08-28T05:40:18Z</time>
      </trkpt>
      <trkpt lat="46.03259" lon="6.93222">
        <ele>1596</ele>
        <time>2022-08-28T05:40:19Z</time>
      </trkpt>
      <trkpt lat="46.03259" lon="6.93222">
        <ele>1596</ele>
        <time>2022-08-28T05:40:20Z</time>
      </trkpt>
      <trkpt lat="46.03259" lon="6.93222">
        <ele>1596</ele>
        <time>2022-08-28T05:40:21Z</time>
      </trkpt>
      <trkpt lat="46.03259" lon="6.93223">
        <ele>1596</ele>
        <time>2022-08-28T05:40:22Z</time>
      </trkpt>
      <trkpt lat="46.03259" lon="6.93223">
        <ele>1596</ele>
        <time>2022-08-28T05:40:23Z</time>
      </trkpt>
      <trkpt lat="46.03259" lon="6.93224">
        <ele>1596</ele>
        <time>2022-08-28T05:40:24Z</time>
      </trkpt>
      <trkpt lat="46.03259" lon="6.93224">
        <ele>1596</ele>
        <time>2022-08-28T05:40:25Z</time>
      </trkpt>
      <trkpt lat="46.03259" lon="6.93224">
        <ele>1596</ele>
        <time>2022-08-28T05:40:26Z</time>
      </trkpt>
      <trkpt lat="46.03258" lon="6.93225">
        <ele>1596</ele>
        <time>2022-08-28T05:40:27Z</time>
      </trkpt>
      <trkpt lat="46.03258" lon="6.93225">
        <ele>1596</ele>
        <time>2022-08-28T05:40:28Z</time>
      </trkpt>
      <trkpt lat="46.03258" lon="6.93225">
        <ele>1596</ele>
        <time>2022-08-28T05:40:29Z</time>
      </trkpt>
      <trkpt lat="46.03258" lon="6.93226">
        <ele>1596</ele>
        <time>2022-08-28T05:40:30Z</time>
      </trkpt>
      <trkpt lat="46.03258" lon="6.93226">
        <ele>1596</ele>
        <time>2022-08-28T05:40:31Z</time>
      </trkpt>
      <trkpt lat="46.03258" lon="6.93226">
        <ele>1596</ele>
        <time>2022-08-28T05:40:33Z</time>
      </trkpt>
      <trkpt lat="46.03258" lon="6.93227">
        <ele>1596</ele>
        <time>2022-08-28T05:40:34Z</time>
      </trkpt>
      <trkpt lat="46.03258" lon="6.93227">
        <ele>1596</ele>
        <time>2022-08-28T05:40:35Z</time>
      </trkpt>
      <trkpt lat="46.03258" lon="6.93227">
        <ele>1596</ele>
        <time>2022-08-28T05:40:36Z</time>
      </trkpt>
      <trkpt lat="46.03258" lon="6.93228">
        <ele>1595</ele>
        <time>2022-08-28T05:40:37Z</time>
      </trkpt>
      <trkpt lat="46.03258" lon="6.93228">
        <ele>1595</ele>
        <time>2022-08-28T05:40:38Z</time>
      </trkpt>
      <trkpt lat="46.03258" lon="6.93229">
        <ele>1595</ele>
        <time>2022-08-28T05:40:39Z</time>
      </trkpt>
      <trkpt lat="46.03258" lon="6.93229">
        <ele>1595</ele>
        <time>2022-08-28T05:40:40Z</time>
      </trkpt>
      <trkpt lat="46.03258" lon="6.93229">
        <ele>1595</ele>
        <time>2022-08-28T05:40:42Z</time>
      </trkpt>
      <trkpt lat="46.03258" lon="6.9323">
        <ele>1595</ele>
        <time>2022-08-28T05:40:43Z</time>
      </trkpt>
      <trkpt lat="46.03258" lon="6.9323">
        <ele>1595</ele>
        <time>2022-08-28T05:40:44Z</time>
      </trkpt>
      <trkpt lat="46.03258" lon="6.9323">
        <ele>1595</ele>
        <time>2022-08-28T05:40:46Z</time>
      </trkpt>
      <trkpt lat="46.03258" lon="6.93231">
        <ele>1595</ele>
        <time>2022-08-28T05:40:47Z</time>
      </trkpt>
      <trkpt lat="46.03258" lon="6.93231">
        <ele>1595</ele>
        <time>2022-08-28T05:40:48Z</time>
      </trkpt>
      <trkpt lat="46.03258" lon="6.93231">
        <ele>1595</ele>
        <time>2022-08-28T05:40:49Z</time>
      </trkpt>
      <trkpt lat="46.03257" lon="6.93232">
        <ele>1595</ele>
        <time>2022-08-28T05:40:51Z</time>
      </trkpt>
      <trkpt lat="46.03257" lon="6.93232">
        <ele>1595</ele>
        <time>2022-08-28T05:40:52Z</time>
      </trkpt>
      <trkpt lat="46.03257" lon="6.93232">
        <ele>1595</ele>
        <time>2022-08-28T05:40:53Z</time>
      </trkpt>
      <trkpt lat="46.03257" lon="6.93233">
        <ele>1595</ele>
        <time>2022-08-28T05:40:54Z</time>
      </trkpt>
      <trkpt lat="46.03257" lon="6.93233">
        <ele>1595</ele>
        <time>2022-08-28T05:40:55Z</time>
      </trkpt>
      <trkpt lat="46.03257" lon="6.93233">
        <ele>1595</ele>
        <time>2022-08-28T05:41:14Z</time>
      </trkpt>
      <trkpt lat="46.03257" lon="6.93233">
        <ele>1595</ele>
        <time>2022-08-28T05:41:35Z</time>
      </trkpt>
      <trkpt lat="46.03257" lon="6.93233">
        <ele>1595</ele>
        <time>2022-08-28T05:41:55Z</time>
      </trkpt>
      <trkpt lat="46.03249" lon="6.93239">
        <ele>1595</ele>
        <time>2022-08-28T05:42:14Z</time>
      </trkpt>
      <trkpt lat="46.03248" lon="6.93239">
        <ele>1595</ele>
        <time>2022-08-28T05:42:15Z</time>
      </trkpt>
      <trkpt lat="46.03248" lon="6.93239">
        <ele>1595</ele>
        <time>2022-08-28T05:42:16Z</time>
      </trkpt>
      <trkpt lat="46.03247" lon="6.93239">
        <ele>1595</ele>
        <time>2022-08-28T05:42:17Z</time>
      </trkpt>
      <trkpt lat="46.03247" lon="6.93239">
        <ele>1595</ele>
        <time>2022-08-28T05:42:19Z</time>
      </trkpt>
      <trkpt lat="46.03246" lon="6.93239">
        <ele>1595</ele>
        <time>2022-08-28T05:42:20Z</time>
      </trkpt>
      <trkpt lat="46.03246" lon="6.93239">
        <ele>1595</ele>
        <time>2022-08-28T05:42:21Z</time>
      </trkpt>
      <trkpt lat="46.03245" lon="6.93239">
        <ele>1595</ele>
        <time>2022-08-28T05:42:23Z</time>
      </trkpt>
      <trkpt lat="46.03245" lon="6.93239">
        <ele>1595</ele>
        <time>2022-08-28T05:42:24Z</time>
      </trkpt>
      <trkpt lat="46.03244" lon="6.93239">
        <ele>1595</ele>
        <time>2022-08-28T05:42:25Z</time>
      </trkpt>
      <trkpt lat="46.03244" lon="6.93239">
        <ele>1595</ele>
        <time>2022-08-28T05:42:27Z</time>
      </trkpt>
      <trkpt lat="46.03243" lon="6.93239">
        <ele>1595</ele>
        <time>2022-08-28T05:42:28Z</time>
      </trkpt>
      <trkpt lat="46.03243" lon="6.93239">
        <ele>1595</ele>
        <time>2022-08-28T05:42:29Z</time>
      </trkpt>
      <trkpt lat="46.03242" lon="6.93239">
        <ele>1595</ele>
        <time>2022-08-28T05:42:30Z</time>
      </trkpt>
      <trkpt lat="46.03242" lon="6.93238">
        <ele>1595</ele>
        <time>2022-08-28T05:42:31Z</time>
      </trkpt>
      <trkpt lat="46.03241" lon="6.93238">
        <ele>1595</ele>
        <time>2022-08-28T05:42:33Z</time>
      </trkpt>
      <trkpt lat="46.0324" lon="6.93238">
        <ele>1595</ele>
        <time>2022-08-28T05:42:34Z</time>
      </trkpt>
      <trkpt lat="46.0324" lon="6.93238">
        <ele>1595</ele>
        <time>2022-08-28T05:42:35Z</time>
      </trkpt>
      <trkpt lat="46.03239" lon="6.93238">
        <ele>1595</ele>
        <time>2022-08-28T05:42:36Z</time>
      </trkpt>
      <trkpt lat="46.03238" lon="6.93237">
        <ele>1595</ele>
        <time>2022-08-28T05:42:37Z</time>
      </trkpt>
      <trkpt lat="46.03238" lon="6.93236">
        <ele>1595</ele>
        <time>2022-08-28T05:42:38Z</time>
      </trkpt>
      <trkpt lat="46.03237" lon="6.93235">
        <ele>1595</ele>
        <time>2022-08-28T05:42:39Z</time>
      </trkpt>
      <trkpt lat="46.03236" lon="6.93235">
        <ele>1595</ele>
        <time>2022-08-28T05:42:40Z</time>
      </trkpt>
      <trkpt lat="46.03235" lon="6.93234">
        <ele>1595</ele>
        <time>2022-08-28T05:42:42Z</time>
      </trkpt>
      <trkpt lat="46.03235" lon="6.93233">
        <ele>1595</ele>
        <time>2022-08-28T05:42:43Z</time>
      </trkpt>
      <trkpt lat="46.03234" lon="6.93233">
        <ele>1595</ele>
        <time>2022-08-28T05:42:44Z</time>
      </trkpt>
      <trkpt lat="46.03233" lon="6.93232">
        <ele>1595</ele>
        <time>2022-08-28T05:42:45Z</time>
      </trkpt>
      <trkpt lat="46.03232" lon="6.93231">
        <ele>1595</ele>
        <time>2022-08-28T05:42:46Z</time>
      </trkpt>
      <trkpt lat="46.03231" lon="6.9323">
        <ele>1595</ele>
        <time>2022-08-28T05:42:48Z</time>
      </trkpt>
      <trkpt lat="46.0323" lon="6.93229">
        <ele>1595</ele>
        <time>2022-08-28T05:42:49Z</time>
      </trkpt>
      <trkpt lat="46.03229" lon="6.93228">
        <ele>1595</ele>
        <time>2022-08-28T05:42:50Z</time>
      </trkpt>
      <trkpt lat="46.03228" lon="6.93227">
        <ele>1595</ele>
        <time>2022-08-28T05:42:51Z</time>
      </trkpt>
      <trkpt lat="46.03227" lon="6.93226">
        <ele>1595</ele>
        <time>2022-08-28T05:42:53Z</time>
      </trkpt>
      <trkpt lat="46.03225" lon="6.93225">
        <ele>1595</ele>
        <time>2022-08-28T05:42:54Z</time>
      </trkpt>
      <trkpt lat="46.03224" lon="6.93224">
        <ele>1595</ele>
        <time>2022-08-28T05:42:55Z</time>
      </trkpt>
      <trkpt lat="46.03223" lon="6.93225">
        <ele>1595</ele>
        <time>2022-08-28T05:42:56Z</time>
      </trkpt>
      <trkpt lat="46.03222" lon="6.93225">
        <ele>1595</ele>
        <time>2022-08-28T05:42:58Z</time>
      </trkpt>
      <trkpt lat="46.0322" lon="6.93226">
        <ele>1595</ele>
        <time>2022-08-28T05:42:59Z</time>
      </trkpt>
      <trkpt lat="46.03219" lon="6.93226">
        <ele>1595</ele>
        <time>2022-08-28T05:43:00Z</time>
      </trkpt>
      <trkpt lat="46.03218" lon="6.93227">
        <ele>1595</ele>
        <time>2022-08-28T05:43:01Z</time>
      </trkpt>
      <trkpt lat="46.03217" lon="6.93228">
        <ele>1595</ele>
        <time>2022-08-28T05:43:03Z</time>
      </trkpt>
      <trkpt lat="46.03215" lon="6.93228">
        <ele>1595</ele>
        <time>2022-08-28T05:43:04Z</time>
      </trkpt>
      <trkpt lat="46.03214" lon="6.93229">
        <ele>1595</ele>
        <time>2022-08-28T05:43:05Z</time>
      </trkpt>
      <trkpt lat="46.03213" lon="6.93229">
        <ele>1595</ele>
        <time>2022-08-28T05:43:06Z</time>
      </trkpt>
      <trkpt lat="46.03213" lon="6.9323">
        <ele>1595</ele>
        <time>2022-08-28T05:43:07Z</time>
      </trkpt>
      <trkpt lat="46.03212" lon="6.93231">
        <ele>1595</ele>
        <time>2022-08-28T05:43:09Z</time>
      </trkpt>
      <trkpt lat="46.03211" lon="6.93231">
        <ele>1595</ele>
        <time>2022-08-28T05:43:10Z</time>
      </trkpt>
      <trkpt lat="46.0321" lon="6.93232">
        <ele>1595</ele>
        <time>2022-08-28T05:43:11Z</time>
      </trkpt>
      <trkpt lat="46.03209" lon="6.93233">
        <ele>1595</ele>
        <time>2022-08-28T05:43:12Z</time>
      </trkpt>
      <trkpt lat="46.03208" lon="6.93234">
        <ele>1595</ele>
        <time>2022-08-28T05:43:13Z</time>
      </trkpt>
      <trkpt lat="46.03207" lon="6.93234">
        <ele>1595</ele>
        <time>2022-08-28T05:43:14Z</time>
      </trkpt>
      <trkpt lat="46.032" lon="6.93225">
        <ele>1595</ele>
        <time>2022-08-28T05:43:19Z</time>
      </trkpt>
      <trkpt lat="46.03199" lon="6.93224">
        <ele>1595</ele>
        <time>2022-08-28T05:43:21Z</time>
      </trkpt>
      <trkpt lat="46.03198" lon="6.93223">
        <ele>1595</ele>
        <time>2022-08-28T05:43:22Z</time>
      </trkpt>
      <trkpt lat="46.03197" lon="6.93222">
        <ele>1595</ele>
        <time>2022-08-28T05:43:24Z</time>
      </trkpt>
      <trkpt lat="46.03196" lon="6.93221">
        <ele>1595</ele>
        <time>2022-08-28T05:43:25Z</time>
      </trkpt>
      <trkpt lat="46.03195" lon="6.9322">
        <ele>1595</ele>
        <time>2022-08-28T05:43:26Z</time>
      </trkpt>
      <trkpt lat="46.03194" lon="6.93218">
        <ele>1595</ele>
        <time>2022-08-28T05:43:27Z</time>
      </trkpt>
      <trkpt lat="46.03193" lon="6.93217">
        <ele>1595</ele>
        <time>2022-08-28T05:43:28Z</time>
      </trkpt>
      <trkpt lat="46.03192" lon="6.93216">
        <ele>1595</ele>
        <time>2022-08-28T05:43:29Z</time>
      </trkpt>
      <trkpt lat="46.0319" lon="6.93214">
        <ele>1595</ele>
        <time>2022-08-28T05:43:30Z</time>
      </trkpt>
      <trkpt lat="46.03188" lon="6.93213">
        <ele>1595</ele>
        <time>2022-08-28T05:43:31Z</time>
      </trkpt>
      <trkpt lat="46.03187" lon="6.93211">
        <ele>1595</ele>
        <time>2022-08-28T05:43:33Z</time>
      </trkpt>
      <trkpt lat="46.03185" lon="6.9321">
        <ele>1595</ele>
        <time>2022-08-28T05:43:34Z</time>
      </trkpt>
      <trkpt lat="46.03184" lon="6.93209">
        <ele>1595</ele>
        <time>2022-08-28T05:43:35Z</time>
      </trkpt>
      <trkpt lat="46.03183" lon="6.93208">
        <ele>1595</ele>
        <time>2022-08-28T05:43:36Z</time>
      </trkpt>
      <trkpt lat="46.03182" lon="6.93208">
        <ele>1595</ele>
        <time>2022-08-28T05:43:38Z</time>
      </trkpt>
      <trkpt lat="46.0318" lon="6.93207">
        <ele>1595</ele>
        <time>2022-08-28T05:43:39Z</time>
      </trkpt>
      <trkpt lat="46.03179" lon="6.93206">
        <ele>1595</ele>
        <time>2022-08-28T05:43:40Z</time>
      </trkpt>
      <trkpt lat="46.03178" lon="6.93205">
        <ele>1595</ele>
        <time>2022-08-28T05:43:41Z</time>
      </trkpt>
      <trkpt lat="46.03177" lon="6.93205">
        <ele>1595</ele>
        <time>2022-08-28T05:43:42Z</time>
      </trkpt>
      <trkpt lat="46.03175" lon="6.93204">
        <ele>1595</ele>
        <time>2022-08-28T05:43:43Z</time>
      </trkpt>
      <trkpt lat="46.03174" lon="6.93203">
        <ele>1595</ele>
        <time>2022-08-28T05:43:44Z</time>
      </trkpt>
      <trkpt lat="46.03173" lon="6.93202">
        <ele>1595</ele>
        <time>2022-08-28T05:43:45Z</time>
      </trkpt>
      <trkpt lat="46.03172" lon="6.93201">
        <ele>1595</ele>
        <time>2022-08-28T05:43:46Z</time>
      </trkpt>
      <trkpt lat="46.0317" lon="6.93201">
        <ele>1595</ele>
        <time>2022-08-28T05:43:48Z</time>
      </trkpt>
      <trkpt lat="46.03169" lon="6.932">
        <ele>1595</ele>
        <time>2022-08-28T05:43:49Z</time>
      </trkpt>
      <trkpt lat="46.03168" lon="6.93199">
        <ele>1595</ele>
        <time>2022-08-28T05:43:50Z</time>
      </trkpt>
      <trkpt lat="46.03167" lon="6.93198">
        <ele>1595</ele>
        <time>2022-08-28T05:43:51Z</time>
      </trkpt>
      <trkpt lat="46.03166" lon="6.93196">
        <ele>1595</ele>
        <time>2022-08-28T05:43:52Z</time>
      </trkpt>
      <trkpt lat="46.03166" lon="6.93195">
        <ele>1595</ele>
        <time>2022-08-28T05:43:53Z</time>
      </trkpt>
      <trkpt lat="46.03165" lon="6.93194">
        <ele>1595</ele>
        <time>2022-08-28T05:43:55Z</time>
      </trkpt>
      <trkpt lat="46.03164" lon="6.93192">
        <ele>1595</ele>
        <time>2022-08-28T05:43:56Z</time>
      </trkpt>
      <trkpt lat="46.03164" lon="6.93191">
        <ele>1595</ele>
        <time>2022-08-28T05:43:57Z</time>
      </trkpt>
      <trkpt lat="46.03163" lon="6.9319">
        <ele>1595</ele>
        <time>2022-08-28T05:43:58Z</time>
      </trkpt>
      <trkpt lat="46.03162" lon="6.93188">
        <ele>1595</ele>
        <time>2022-08-28T05:43:59Z</time>
      </trkpt>
      <trkpt lat="46.03162" lon="6.93187">
        <ele>1595</ele>
        <time>2022-08-28T05:44:00Z</time>
      </trkpt>
      <trkpt lat="46.0316" lon="6.93184">
        <ele>1595</ele>
        <time>2022-08-28T05:44:02Z</time>
      </trkpt>
      <trkpt lat="46.03159" lon="6.93182">
        <ele>1595</ele>
        <time>2022-08-28T05:44:03Z</time>
      </trkpt>
      <trkpt lat="46.03157" lon="6.93179">
        <ele>1595</ele>
        <time>2022-08-28T05:44:04Z</time>
      </trkpt>
      <trkpt lat="46.03156" lon="6.93177">
        <ele>1595</ele>
        <time>2022-08-28T05:44:05Z</time>
      </trkpt>
      <trkpt lat="46.03155" lon="6.93176">
        <ele>1595</ele>
        <time>2022-08-28T05:44:07Z</time>
      </trkpt>
      <trkpt lat="46.03153" lon="6.93175">
        <ele>1595</ele>
        <time>2022-08-28T05:44:09Z</time>
      </trkpt>
      <trkpt lat="46.03152" lon="6.93174">
        <ele>1595</ele>
        <time>2022-08-28T05:44:10Z</time>
      </trkpt>
      <trkpt lat="46.03151" lon="6.93174">
        <ele>1595</ele>
        <time>2022-08-28T05:44:11Z</time>
      </trkpt>
      <trkpt lat="46.0315" lon="6.93173">
        <ele>1595</ele>
        <time>2022-08-28T05:44:12Z</time>
      </trkpt>
      <trkpt lat="46.03148" lon="6.93172">
        <ele>1595</ele>
        <time>2022-08-28T05:44:13Z</time>
      </trkpt>
      <trkpt lat="46.03147" lon="6.93171">
        <ele>1595</ele>
        <time>2022-08-28T05:44:14Z</time>
      </trkpt>
      <trkpt lat="46.03146" lon="6.9317">
        <ele>1595</ele>
        <time>2022-08-28T05:44:15Z</time>
      </trkpt>
      <trkpt lat="46.03145" lon="6.93168">
        <ele>1595</ele>
        <time>2022-08-28T05:44:16Z</time>
      </trkpt>
      <trkpt lat="46.03143" lon="6.93167">
        <ele>1595</ele>
        <time>2022-08-28T05:44:17Z</time>
      </trkpt>
      <trkpt lat="46.03142" lon="6.93166">
        <ele>1595</ele>
        <time>2022-08-28T05:44:19Z</time>
      </trkpt>
      <trkpt lat="46.03141" lon="6.93164">
        <ele>1595</ele>
        <time>2022-08-28T05:44:21Z</time>
      </trkpt>
      <trkpt lat="46.0314" lon="6.93163">
        <ele>1595</ele>
        <time>2022-08-28T05:44:22Z</time>
      </trkpt>
      <trkpt lat="46.03139" lon="6.93161">
        <ele>1595</ele>
        <time>2022-08-28T05:44:23Z</time>
      </trkpt>
      <trkpt lat="46.03137" lon="6.9316">
        <ele>1595</ele>
        <time>2022-08-28T05:44:24Z</time>
      </trkpt>
      <trkpt lat="46.03136" lon="6.93158">
        <ele>1595</ele>
        <time>2022-08-28T05:44:25Z</time>
      </trkpt>
      <trkpt lat="46.03135" lon="6.93157">
        <ele>1595</ele>
        <time>2022-08-28T05:44:27Z</time>
      </trkpt>
      <trkpt lat="46.03134" lon="6.93155">
        <ele>1595</ele>
        <time>2022-08-28T05:44:28Z</time>
      </trkpt>
      <trkpt lat="46.03133" lon="6.93154">
        <ele>1595</ele>
        <time>2022-08-28T05:44:29Z</time>
      </trkpt>
      <trkpt lat="46.03132" lon="6.93153">
        <ele>1595</ele>
        <time>2022-08-28T05:44:30Z</time>
      </trkpt>
      <trkpt lat="46.03131" lon="6.93152">
        <ele>1595</ele>
        <time>2022-08-28T05:44:31Z</time>
      </trkpt>
      <trkpt lat="46.0313" lon="6.93152">
        <ele>1595</ele>
        <time>2022-08-28T05:44:32Z</time>
      </trkpt>
      <trkpt lat="46.03129" lon="6.93151">
        <ele>1595</ele>
        <time>2022-08-28T05:44:34Z</time>
      </trkpt>
      <trkpt lat="46.03128" lon="6.9315">
        <ele>1595</ele>
        <time>2022-08-28T05:44:35Z</time>
      </trkpt>
      <trkpt lat="46.03127" lon="6.9315">
        <ele>1595</ele>
        <time>2022-08-28T05:44:36Z</time>
      </trkpt>
      <trkpt lat="46.03126" lon="6.93149">
        <ele>1595</ele>
        <time>2022-08-28T05:44:37Z</time>
      </trkpt>
      <trkpt lat="46.03125" lon="6.93148">
        <ele>1595</ele>
        <time>2022-08-28T05:44:38Z</time>
      </trkpt>
      <trkpt lat="46.03124" lon="6.93148">
        <ele>1595</ele>
        <time>2022-08-28T05:44:39Z</time>
      </trkpt>
      <trkpt lat="46.03123" lon="6.93146">
        <ele>1595</ele>
        <time>2022-08-28T05:44:40Z</time>
      </trkpt>
      <trkpt lat="46.03122" lon="6.93144">
        <ele>1595</ele>
        <time>2022-08-28T05:44:41Z</time>
      </trkpt>
      <trkpt lat="46.03121" lon="6.93143">
        <ele>1595</ele>
        <time>2022-08-28T05:44:42Z</time>
      </trkpt>
      <trkpt lat="46.0312" lon="6.93141">
        <ele>1595</ele>
        <time>2022-08-28T05:44:44Z</time>
      </trkpt>
      <trkpt lat="46.03119" lon="6.93139">
        <ele>1595</ele>
        <time>2022-08-28T05:44:45Z</time>
      </trkpt>
      <trkpt lat="46.03118" lon="6.93138">
        <ele>1595</ele>
        <time>2022-08-28T05:44:46Z</time>
      </trkpt>
      <trkpt lat="46.03116" lon="6.93136">
        <ele>1595</ele>
        <time>2022-08-28T05:44:47Z</time>
      </trkpt>
      <trkpt lat="46.03115" lon="6.93135">
        <ele>1595</ele>
        <time>2022-08-28T05:44:49Z</time>
      </trkpt>
      <trkpt lat="46.03114" lon="6.93133">
        <ele>1601</ele>
        <time>2022-08-28T05:44:50Z</time>
      </trkpt>
      <trkpt lat="46.03112" lon="6.93132">
        <ele>1601</ele>
        <time>2022-08-28T05:44:51Z</time>
      </trkpt>
      <trkpt lat="46.03111" lon="6.9313">
        <ele>1600</ele>
        <time>2022-08-28T05:44:53Z</time>
      </trkpt>
      <trkpt lat="46.0311" lon="6.93129">
        <ele>1601</ele>
        <time>2022-08-28T05:44:54Z</time>
      </trkpt>
      <trkpt lat="46.03109" lon="6.93127">
        <ele>1601</ele>
        <time>2022-08-28T05:44:55Z</time>
      </trkpt>
      <trkpt lat="46.03108" lon="6.93125">
        <ele>1601</ele>
        <time>2022-08-28T05:44:56Z</time>
      </trkpt>
      <trkpt lat="46.03107" lon="6.93124">
        <ele>1601</ele>
        <time>2022-08-28T05:44:58Z</time>
      </trkpt>
      <trkpt lat="46.03105" lon="6.93122">
        <ele>1601</ele>
        <time>2022-08-28T05:44:59Z</time>
      </trkpt>
      <trkpt lat="46.03104" lon="6.93121">
        <ele>1600</ele>
        <time>2022-08-28T05:45:01Z</time>
      </trkpt>
      <trkpt lat="46.03103" lon="6.93119">
        <ele>1600</ele>
        <time>2022-08-28T05:45:02Z</time>
      </trkpt>
      <trkpt lat="46.03102" lon="6.93118">
        <ele>1600</ele>
        <time>2022-08-28T05:45:03Z</time>
      </trkpt>
      <trkpt lat="46.03101" lon="6.93117">
        <ele>1600</ele>
        <time>2022-08-28T05:45:04Z</time>
      </trkpt>
      <trkpt lat="46.031" lon="6.93115">
        <ele>1601</ele>
        <time>2022-08-28T05:45:05Z</time>
      </trkpt>
      <trkpt lat="46.03099" lon="6.93114">
        <ele>1601</ele>
        <time>2022-08-28T05:45:06Z</time>
      </trkpt>
      <trkpt lat="46.03098" lon="6.93113">
        <ele>1601</ele>
        <time>2022-08-28T05:45:07Z</time>
      </trkpt>
      <trkpt lat="46.03097" lon="6.93112">
        <ele>1601</ele>
        <time>2022-08-28T05:45:08Z</time>
      </trkpt>
      <trkpt lat="46.03096" lon="6.93111">
        <ele>1601</ele>
        <time>2022-08-28T05:45:09Z</time>
      </trkpt>
      <trkpt lat="46.03095" lon="6.9311">
        <ele>1601</ele>
        <time>2022-08-28T05:45:10Z</time>
      </trkpt>
      <trkpt lat="46.03094" lon="6.93108">
        <ele>1601</ele>
        <time>2022-08-28T05:45:12Z</time>
      </trkpt>
      <trkpt lat="46.03093" lon="6.93106">
        <ele>1601</ele>
        <time>2022-08-28T05:45:13Z</time>
      </trkpt>
      <trkpt lat="46.03091" lon="6.93105">
        <ele>1601</ele>
        <time>2022-08-28T05:45:14Z</time>
      </trkpt>
      <trkpt lat="46.0309" lon="6.93103">
        <ele>1601</ele>
        <time>2022-08-28T05:45:15Z</time>
      </trkpt>
      <trkpt lat="46.03089" lon="6.93102">
        <ele>1601</ele>
        <time>2022-08-28T05:45:16Z</time>
      </trkpt>
      <trkpt lat="46.03088" lon="6.931">
        <ele>1601</ele>
        <time>2022-08-28T05:45:17Z</time>
      </trkpt>
      <trkpt lat="46.03086" lon="6.93098">
        <ele>1601</ele>
        <time>2022-08-28T05:45:18Z</time>
      </trkpt>
      <trkpt lat="46.03085" lon="6.93096">
        <ele>1601</ele>
        <time>2022-08-28T05:45:19Z</time>
      </trkpt>
      <trkpt lat="46.03083" lon="6.93094">
        <ele>1601</ele>
        <time>2022-08-28T05:45:20Z</time>
      </trkpt>
      <trkpt lat="46.03082" lon="6.93092">
        <ele>1602</ele>
        <time>2022-08-28T05:45:22Z</time>
      </trkpt>
      <trkpt lat="46.03081" lon="6.9309">
        <ele>1602</ele>
        <time>2022-08-28T05:45:23Z</time>
      </trkpt>
      <trkpt lat="46.03073" lon="6.93082">
        <ele>1602</ele>
        <time>2022-08-28T05:45:32Z</time>
      </trkpt>
      <trkpt lat="46.03073" lon="6.93081">
        <ele>1602</ele>
        <time>2022-08-28T05:45:33Z</time>
      </trkpt>
      <trkpt lat="46.03073" lon="6.93081">
        <ele>1602</ele>
        <time>2022-08-28T05:45:34Z</time>
      </trkpt>
      <trkpt lat="46.03072" lon="6.93081">
        <ele>1602</ele>
        <time>2022-08-28T05:45:35Z</time>
      </trkpt>
      <trkpt lat="46.03072" lon="6.9308">
        <ele>1602</ele>
        <time>2022-08-28T05:45:37Z</time>
      </trkpt>
      <trkpt lat="46.03071" lon="6.9308">
        <ele>1602</ele>
        <time>2022-08-28T05:45:38Z</time>
      </trkpt>
      <trkpt lat="46.03071" lon="6.9308">
        <ele>1602</ele>
        <time>2022-08-28T05:45:39Z</time>
      </trkpt>
      <trkpt lat="46.0307" lon="6.93079">
        <ele>1602</ele>
        <time>2022-08-28T05:45:40Z</time>
      </trkpt>
      <trkpt lat="46.0307" lon="6.93079">
        <ele>1602</ele>
        <time>2022-08-28T05:45:41Z</time>
      </trkpt>
      <trkpt lat="46.0307" lon="6.93078">
        <ele>1602</ele>
        <time>2022-08-28T05:45:42Z</time>
      </trkpt>
      <trkpt lat="46.03069" lon="6.93078">
        <ele>1602</ele>
        <time>2022-08-28T05:45:43Z</time>
      </trkpt>
      <trkpt lat="46.03069" lon="6.93078">
        <ele>1602</ele>
        <time>2022-08-28T05:45:44Z</time>
      </trkpt>
      <trkpt lat="46.03068" lon="6.93077">
        <ele>1602</ele>
        <time>2022-08-28T05:45:45Z</time>
      </trkpt>
      <trkpt lat="46.03068" lon="6.93077">
        <ele>1602</ele>
        <time>2022-08-28T05:45:46Z</time>
      </trkpt>
      <trkpt lat="46.03068" lon="6.93076">
        <ele>1602</ele>
        <time>2022-08-28T05:45:47Z</time>
      </trkpt>
      <trkpt lat="46.03067" lon="6.93076">
        <ele>1602</ele>
        <time>2022-08-28T05:45:48Z</time>
      </trkpt>
      <trkpt lat="46.03067" lon="6.93076">
        <ele>1602</ele>
        <time>2022-08-28T05:45:50Z</time>
      </trkpt>
      <trkpt lat="46.03066" lon="6.93075">
        <ele>1602</ele>
        <time>2022-08-28T05:45:52Z</time>
      </trkpt>
      <trkpt lat="46.03066" lon="6.93075">
        <ele>1602</ele>
        <time>2022-08-28T05:45:53Z</time>
      </trkpt>
      <trkpt lat="46.03065" lon="6.93074">
        <ele>1602</ele>
        <time>2022-08-28T05:45:54Z</time>
      </trkpt>
      <trkpt lat="46.03064" lon="6.93073">
        <ele>1602</ele>
        <time>2022-08-28T05:45:56Z</time>
      </trkpt>
      <trkpt lat="46.03063" lon="6.93072">
        <ele>1602</ele>
        <time>2022-08-28T05:45:57Z</time>
      </trkpt>
      <trkpt lat="46.03062" lon="6.93071">
        <ele>1602</ele>
        <time>2022-08-28T05:45:58Z</time>
      </trkpt>
      <trkpt lat="46.0306" lon="6.9307">
        <ele>1602</ele>
        <time>2022-08-28T05:46:00Z</time>
      </trkpt>
      <trkpt lat="46.03059" lon="6.93069">
        <ele>1602</ele>
        <time>2022-08-28T05:46:01Z</time>
      </trkpt>
      <trkpt lat="46.03058" lon="6.93068">
        <ele>1602</ele>
        <time>2022-08-28T05:46:02Z</time>
      </trkpt>
      <trkpt lat="46.03056" lon="6.93066">
        <ele>1602</ele>
        <time>2022-08-28T05:46:03Z</time>
      </trkpt>
      <trkpt lat="46.03054" lon="6.93064">
        <ele>1602</ele>
        <time>2022-08-28T05:46:04Z</time>
      </trkpt>
      <trkpt lat="46.03053" lon="6.93063">
        <ele>1602</ele>
        <time>2022-08-28T05:46:05Z</time>
      </trkpt>
      <trkpt lat="46.03051" lon="6.93061">
        <ele>1602</ele>
        <time>2022-08-28T05:46:07Z</time>
      </trkpt>
      <trkpt lat="46.0305" lon="6.93059">
        <ele>1602</ele>
        <time>2022-08-28T05:46:08Z</time>
      </trkpt>
      <trkpt lat="46.03043" lon="6.93051">
        <ele>1602</ele>
        <time>2022-08-28T05:46:15Z</time>
      </trkpt>
      <trkpt lat="46.03041" lon="6.93049">
        <ele>1602</ele>
        <time>2022-08-28T05:46:16Z</time>
      </trkpt>
      <trkpt lat="46.0304" lon="6.93048">
        <ele>1602</ele>
        <time>2022-08-28T05:46:17Z</time>
      </trkpt>
      <trkpt lat="46.03039" lon="6.93046">
        <ele>1603</ele>
        <time>2022-08-28T05:46:19Z</time>
      </trkpt>
      <trkpt lat="46.03037" lon="6.93045">
        <ele>1602</ele>
        <time>2022-08-28T05:46:20Z</time>
      </trkpt>
      <trkpt lat="46.03036" lon="6.93043">
        <ele>1602</ele>
        <time>2022-08-28T05:46:21Z</time>
      </trkpt>
      <trkpt lat="46.03035" lon="6.93042">
        <ele>1602</ele>
        <time>2022-08-28T05:46:22Z</time>
      </trkpt>
      <trkpt lat="46.03028" lon="6.93033">
        <ele>1602</ele>
        <time>2022-08-28T05:46:29Z</time>
      </trkpt>
      <trkpt lat="46.03027" lon="6.93032">
        <ele>1602</ele>
        <time>2022-08-28T05:46:30Z</time>
      </trkpt>
      <trkpt lat="46.03025" lon="6.9303">
        <ele>1602</ele>
        <time>2022-08-28T05:46:31Z</time>
      </trkpt>
      <trkpt lat="46.03024" lon="6.93029">
        <ele>1602</ele>
        <time>2022-08-28T05:46:32Z</time>
      </trkpt>
      <trkpt lat="46.03023" lon="6.93028">
        <ele>1602</ele>
        <time>2022-08-28T05:46:34Z</time>
      </trkpt>
      <trkpt lat="46.03021" lon="6.93026">
        <ele>1602</ele>
        <time>2022-08-28T05:46:35Z</time>
      </trkpt>
      <trkpt lat="46.0302" lon="6.93025">
        <ele>1602</ele>
        <time>2022-08-28T05:46:36Z</time>
      </trkpt>
      <trkpt lat="46.03019" lon="6.93025">
        <ele>1602</ele>
        <time>2022-08-28T05:46:37Z</time>
      </trkpt>
      <trkpt lat="46.03019" lon="6.93024">
        <ele>1603</ele>
        <time>2022-08-28T05:46:39Z</time>
      </trkpt>
      <trkpt lat="46.03018" lon="6.93024">
        <ele>1603</ele>
        <time>2022-08-28T05:46:40Z</time>
      </trkpt>
      <trkpt lat="46.03018" lon="6.93023">
        <ele>1603</ele>
        <time>2022-08-28T05:46:41Z</time>
      </trkpt>
      <trkpt lat="46.03017" lon="6.93023">
        <ele>1603</ele>
        <time>2022-08-28T05:46:42Z</time>
      </trkpt>
      <trkpt lat="46.0301" lon="6.93016">
        <ele>1603</ele>
        <time>2022-08-28T05:46:44Z</time>
      </trkpt>
      <trkpt lat="46.03008" lon="6.93014">
        <ele>1603</ele>
        <time>2022-08-28T05:46:46Z</time>
      </trkpt>
      <trkpt lat="46.03007" lon="6.93012">
        <ele>1603</ele>
        <time>2022-08-28T05:46:47Z</time>
      </trkpt>
      <trkpt lat="46.03006" lon="6.9301">
        <ele>1603</ele>
        <time>2022-08-28T05:46:48Z</time>
      </trkpt>
      <trkpt lat="46.03005" lon="6.93009">
        <ele>1603</ele>
        <time>2022-08-28T05:46:49Z</time>
      </trkpt>
      <trkpt lat="46.03003" lon="6.93007">
        <ele>1603</ele>
        <time>2022-08-28T05:46:51Z</time>
      </trkpt>
      <trkpt lat="46.03002" lon="6.93006">
        <ele>1603</ele>
        <time>2022-08-28T05:46:53Z</time>
      </trkpt>
      <trkpt lat="46.03001" lon="6.93004">
        <ele>1603</ele>
        <time>2022-08-28T05:46:54Z</time>
      </trkpt>
      <trkpt lat="46.03" lon="6.93003">
        <ele>1603</ele>
        <time>2022-08-28T05:46:55Z</time>
      </trkpt>
      <trkpt lat="46.02999" lon="6.93002">
        <ele>1603</ele>
        <time>2022-08-28T05:46:56Z</time>
      </trkpt>
      <trkpt lat="46.02998" lon="6.93">
        <ele>1603</ele>
        <time>2022-08-28T05:46:57Z</time>
      </trkpt>
      <trkpt lat="46.02997" lon="6.92999">
        <ele>1603</ele>
        <time>2022-08-28T05:46:58Z</time>
      </trkpt>
      <trkpt lat="46.02991" lon="6.92989">
        <ele>1603</ele>
        <time>2022-08-28T05:47:03Z</time>
      </trkpt>
      <trkpt lat="46.0299" lon="6.92988">
        <ele>1603</ele>
        <time>2022-08-28T05:47:04Z</time>
      </trkpt>
      <trkpt lat="46.02989" lon="6.92987">
        <ele>1603</ele>
        <time>2022-08-28T05:47:05Z</time>
      </trkpt>
      <trkpt lat="46.02988" lon="6.92986">
        <ele>1603</ele>
        <time>2022-08-28T05:47:06Z</time>
      </trkpt>
      <trkpt lat="46.02987" lon="6.92984">
        <ele>1603</ele>
        <time>2022-08-28T05:47:08Z</time>
      </trkpt>
      <trkpt lat="46.02986" lon="6.92983">
        <ele>1603</ele>
        <time>2022-08-28T05:47:10Z</time>
      </trkpt>
      <trkpt lat="46.02985" lon="6.92982">
        <ele>1603</ele>
        <time>2022-08-28T05:47:11Z</time>
      </trkpt>
      <trkpt lat="46.02984" lon="6.9298">
        <ele>1603</ele>
        <time>2022-08-28T05:47:12Z</time>
      </trkpt>
      <trkpt lat="46.02982" lon="6.92979">
        <ele>1603</ele>
        <time>2022-08-28T05:47:13Z</time>
      </trkpt>
      <trkpt lat="46.0298" lon="6.92977">
        <ele>1604</ele>
        <time>2022-08-28T05:47:15Z</time>
      </trkpt>
      <trkpt lat="46.02978" lon="6.92976">
        <ele>1604</ele>
        <time>2022-08-28T05:47:16Z</time>
      </trkpt>
      <trkpt lat="46.02977" lon="6.92975">
        <ele>1604</ele>
        <time>2022-08-28T05:47:17Z</time>
      </trkpt>
      <trkpt lat="46.02975" lon="6.92973">
        <ele>1604</ele>
        <time>2022-08-28T05:47:18Z</time>
      </trkpt>
      <trkpt lat="46.02973" lon="6.92971">
        <ele>1604</ele>
        <time>2022-08-28T05:47:20Z</time>
      </trkpt>
      <trkpt lat="46.02971" lon="6.92969">
        <ele>1604</ele>
        <time>2022-08-28T05:47:22Z</time>
      </trkpt>
      <trkpt lat="46.0297" lon="6.92967">
        <ele>1604</ele>
        <time>2022-08-28T05:47:23Z</time>
      </trkpt>
      <trkpt lat="46.02968" lon="6.92964">
        <ele>1604</ele>
        <time>2022-08-28T05:47:24Z</time>
      </trkpt>
      <trkpt lat="46.02962" lon="6.92953">
        <ele>1604</ele>
        <time>2022-08-28T05:47:31Z</time>
      </trkpt>
      <trkpt lat="46.02961" lon="6.92952">
        <ele>1604</ele>
        <time>2022-08-28T05:47:32Z</time>
      </trkpt>
      <trkpt lat="46.0296" lon="6.9295">
        <ele>1604</ele>
        <time>2022-08-28T05:47:33Z</time>
      </trkpt>
      <trkpt lat="46.02959" lon="6.92948">
        <ele>1604</ele>
        <time>2022-08-28T05:47:35Z</time>
      </trkpt>
      <trkpt lat="46.02958" lon="6.92947">
        <ele>1604</ele>
        <time>2022-08-28T05:47:36Z</time>
      </trkpt>
      <trkpt lat="46.02957" lon="6.92945">
        <ele>1604</ele>
        <time>2022-08-28T05:47:37Z</time>
      </trkpt>
      <trkpt lat="46.02956" lon="6.92944">
        <ele>1604</ele>
        <time>2022-08-28T05:47:38Z</time>
      </trkpt>
      <trkpt lat="46.02955" lon="6.92942">
        <ele>1604</ele>
        <time>2022-08-28T05:47:40Z</time>
      </trkpt>
      <trkpt lat="46.02953" lon="6.92941">
        <ele>1604</ele>
        <time>2022-08-28T05:47:41Z</time>
      </trkpt>
      <trkpt lat="46.02952" lon="6.9294">
        <ele>1604</ele>
        <time>2022-08-28T05:47:42Z</time>
      </trkpt>
      <trkpt lat="46.02951" lon="6.92939">
        <ele>1604</ele>
        <time>2022-08-28T05:47:43Z</time>
      </trkpt>
      <trkpt lat="46.02949" lon="6.92938">
        <ele>1604</ele>
        <time>2022-08-28T05:47:45Z</time>
      </trkpt>
      <trkpt lat="46.02948" lon="6.92936">
        <ele>1605</ele>
        <time>2022-08-28T05:47:46Z</time>
      </trkpt>
      <trkpt lat="46.02946" lon="6.92935">
        <ele>1605</ele>
        <time>2022-08-28T05:47:47Z</time>
      </trkpt>
      <trkpt lat="46.02945" lon="6.92933">
        <ele>1605</ele>
        <time>2022-08-28T05:47:48Z</time>
      </trkpt>
      <trkpt lat="46.02943" lon="6.92931">
        <ele>1605</ele>
        <time>2022-08-28T05:47:50Z</time>
      </trkpt>
      <trkpt lat="46.02941" lon="6.92929">
        <ele>1605</ele>
        <time>2022-08-28T05:47:51Z</time>
      </trkpt>
      <trkpt lat="46.0294" lon="6.92927">
        <ele>1605</ele>
        <time>2022-08-28T05:47:52Z</time>
      </trkpt>
      <trkpt lat="46.02938" lon="6.92925">
        <ele>1605</ele>
        <time>2022-08-28T05:47:54Z</time>
      </trkpt>
      <trkpt lat="46.02937" lon="6.92924">
        <ele>1605</ele>
        <time>2022-08-28T05:47:55Z</time>
      </trkpt>
      <trkpt lat="46.02936" lon="6.92922">
        <ele>1605</ele>
        <time>2022-08-28T05:47:56Z</time>
      </trkpt>
      <trkpt lat="46.02934" lon="6.9292">
        <ele>1605</ele>
        <time>2022-08-28T05:47:58Z</time>
      </trkpt>
      <trkpt lat="46.02933" lon="6.92918">
        <ele>1605</ele>
        <time>2022-08-28T05:47:59Z</time>
      </trkpt>
      <trkpt lat="46.02932" lon="6.92917">
        <ele>1605</ele>
        <time>2022-08-28T05:48:00Z</time>
      </trkpt>
      <trkpt lat="46.02931" lon="6.92915">
        <ele>1605</ele>
        <time>2022-08-28T05:48:01Z</time>
      </trkpt>
      <trkpt lat="46.0293" lon="6.92914">
        <ele>1605</ele>
        <time>2022-08-28T05:48:03Z</time>
      </trkpt>
      <trkpt lat="46.02928" lon="6.92913">
        <ele>1606</ele>
        <time>2022-08-28T05:48:04Z</time>
      </trkpt>
      <trkpt lat="46.02927" lon="6.92911">
        <ele>1606</ele>
        <time>2022-08-28T05:48:05Z</time>
      </trkpt>
      <trkpt lat="46.02926" lon="6.9291">
        <ele>1606</ele>
        <time>2022-08-28T05:48:06Z</time>
      </trkpt>
      <trkpt lat="46.02918" lon="6.92903">
        <ele>1606</ele>
        <time>2022-08-28T05:48:13Z</time>
      </trkpt>
      <trkpt lat="46.02917" lon="6.92902">
        <ele>1607</ele>
        <time>2022-08-28T05:48:14Z</time>
      </trkpt>
      <trkpt lat="46.02916" lon="6.929">
        <ele>1607</ele>
        <time>2022-08-28T05:48:15Z</time>
      </trkpt>
      <trkpt lat="46.02916" lon="6.92899">
        <ele>1607</ele>
        <time>2022-08-28T05:48:16Z</time>
      </trkpt>
      <trkpt lat="46.02915" lon="6.92897">
        <ele>1607</ele>
        <time>2022-08-28T05:48:18Z</time>
      </trkpt>
      <trkpt lat="46.02914" lon="6.92896">
        <ele>1607</ele>
        <time>2022-08-28T05:48:19Z</time>
      </trkpt>
      <trkpt lat="46.02913" lon="6.92895">
        <ele>1607</ele>
        <time>2022-08-28T05:48:20Z</time>
      </trkpt>
      <trkpt lat="46.02913" lon="6.92893">
        <ele>1607</ele>
        <time>2022-08-28T05:48:21Z</time>
      </trkpt>
      <trkpt lat="46.02912" lon="6.92892">
        <ele>1607</ele>
        <time>2022-08-28T05:48:22Z</time>
      </trkpt>
      <trkpt lat="46.02911" lon="6.92891">
        <ele>1607</ele>
        <time>2022-08-28T05:48:23Z</time>
      </trkpt>
      <trkpt lat="46.02911" lon="6.9289">
        <ele>1607</ele>
        <time>2022-08-28T05:48:24Z</time>
      </trkpt>
      <trkpt lat="46.0291" lon="6.92889">
        <ele>1607</ele>
        <time>2022-08-28T05:48:25Z</time>
      </trkpt>
      <trkpt lat="46.02909" lon="6.92887">
        <ele>1607</ele>
        <time>2022-08-28T05:48:27Z</time>
      </trkpt>
      <trkpt lat="46.02909" lon="6.92886">
        <ele>1607</ele>
        <time>2022-08-28T05:48:28Z</time>
      </trkpt>
      <trkpt lat="46.02905" lon="6.92878">
        <ele>1607</ele>
        <time>2022-08-28T05:48:29Z</time>
      </trkpt>
      <trkpt lat="46.02904" lon="6.92876">
        <ele>1607</ele>
        <time>2022-08-28T05:48:30Z</time>
      </trkpt>
      <trkpt lat="46.02903" lon="6.92874">
        <ele>1607</ele>
        <time>2022-08-28T05:48:32Z</time>
      </trkpt>
      <trkpt lat="46.02902" lon="6.92872">
        <ele>1607</ele>
        <time>2022-08-28T05:48:33Z</time>
      </trkpt>
      <trkpt lat="46.02902" lon="6.9287">
        <ele>1607</ele>
        <time>2022-08-28T05:48:34Z</time>
      </trkpt>
      <trkpt lat="46.02901" lon="6.92868">
        <ele>1607</ele>
        <time>2022-08-28T05:48:35Z</time>
      </trkpt>
      <trkpt lat="46.02896" lon="6.92856">
        <ele>1607</ele>
        <time>2022-08-28T05:48:42Z</time>
      </trkpt>
      <trkpt lat="46.02895" lon="6.92854">
        <ele>1607</ele>
        <time>2022-08-28T05:48:43Z</time>
      </trkpt>
      <trkpt lat="46.02895" lon="6.92852">
        <ele>1607</ele>
        <time>2022-08-28T05:48:44Z</time>
      </trkpt>
      <trkpt lat="46.02894" lon="6.92849">
        <ele>1607</ele>
        <time>2022-08-28T05:48:45Z</time>
      </trkpt>
      <trkpt lat="46.02893" lon="6.92847">
        <ele>1607</ele>
        <time>2022-08-28T05:48:47Z</time>
      </trkpt>
      <trkpt lat="46.02893" lon="6.92845">
        <ele>1607</ele>
        <time>2022-08-28T05:48:49Z</time>
      </trkpt>
      <trkpt lat="46.02892" lon="6.92843">
        <ele>1607</ele>
        <time>2022-08-28T05:48:50Z</time>
      </trkpt>
      <trkpt lat="46.02892" lon="6.92842">
        <ele>1607</ele>
        <time>2022-08-28T05:48:51Z</time>
      </trkpt>
      <trkpt lat="46.02891" lon="6.9284">
        <ele>1607</ele>
        <time>2022-08-28T05:48:52Z</time>
      </trkpt>
      <trkpt lat="46.0289" lon="6.92839">
        <ele>1607</ele>
        <time>2022-08-28T05:48:54Z</time>
      </trkpt>
      <trkpt lat="46.0289" lon="6.92837">
        <ele>1607</ele>
        <time>2022-08-28T05:48:55Z</time>
      </trkpt>
      <trkpt lat="46.02889" lon="6.92835">
        <ele>1607</ele>
        <time>2022-08-28T05:48:56Z</time>
      </trkpt>
      <trkpt lat="46.02889" lon="6.92834">
        <ele>1607</ele>
        <time>2022-08-28T05:48:57Z</time>
      </trkpt>
      <trkpt lat="46.02888" lon="6.92832">
        <ele>1607</ele>
        <time>2022-08-28T05:48:58Z</time>
      </trkpt>
      <trkpt lat="46.02887" lon="6.92831">
        <ele>1607</ele>
        <time>2022-08-28T05:48:59Z</time>
      </trkpt>
      <trkpt lat="46.02886" lon="6.9283">
        <ele>1607</ele>
        <time>2022-08-28T05:49:01Z</time>
      </trkpt>
      <trkpt lat="46.02886" lon="6.92828">
        <ele>1607</ele>
        <time>2022-08-28T05:49:02Z</time>
      </trkpt>
      <trkpt lat="46.02885" lon="6.92827">
        <ele>1607</ele>
        <time>2022-08-28T05:49:03Z</time>
      </trkpt>
      <trkpt lat="46.02884" lon="6.92826">
        <ele>1607</ele>
        <time>2022-08-28T05:49:04Z</time>
      </trkpt>
      <trkpt lat="46.02883" lon="6.92824">
        <ele>1608</ele>
        <time>2022-08-28T05:49:06Z</time>
      </trkpt>
      <trkpt lat="46.02882" lon="6.92823">
        <ele>1608</ele>
        <time>2022-08-28T05:49:07Z</time>
      </trkpt>
      <trkpt lat="46.02881" lon="6.92822">
        <ele>1608</ele>
        <time>2022-08-28T05:49:08Z</time>
      </trkpt>
      <trkpt lat="46.0288" lon="6.92821">
        <ele>1608</ele>
        <time>2022-08-28T05:49:09Z</time>
      </trkpt>
      <trkpt lat="46.02879" lon="6.92819">
        <ele>1608</ele>
        <time>2022-08-28T05:49:11Z</time>
      </trkpt>
      <trkpt lat="46.02878" lon="6.92817">
        <ele>1609</ele>
        <time>2022-08-28T05:49:12Z</time>
      </trkpt>
      <trkpt lat="46.02877" lon="6.92815">
        <ele>1609</ele>
        <time>2022-08-28T05:49:13Z</time>
      </trkpt>
      <trkpt lat="46.02876" lon="6.92814">
        <ele>1609</ele>
        <time>2022-08-28T05:49:14Z</time>
      </trkpt>
      <trkpt lat="46.02875" lon="6.92812">
        <ele>1609</ele>
        <time>2022-08-28T05:49:15Z</time>
      </trkpt>
      <trkpt lat="46.02874" lon="6.9281">
        <ele>1609</ele>
        <time>2022-08-28T05:49:16Z</time>
      </trkpt>
      <trkpt lat="46.02873" lon="6.92808">
        <ele>1609</ele>
        <time>2022-08-28T05:49:18Z</time>
      </trkpt>
      <trkpt lat="46.02872" lon="6.92806">
        <ele>1609</ele>
        <time>2022-08-28T05:49:19Z</time>
      </trkpt>
      <trkpt lat="46.02871" lon="6.92804">
        <ele>1609</ele>
        <time>2022-08-28T05:49:20Z</time>
      </trkpt>
      <trkpt lat="46.0287" lon="6.92802">
        <ele>1609</ele>
        <time>2022-08-28T05:49:21Z</time>
      </trkpt>
      <trkpt lat="46.02869" lon="6.928">
        <ele>1609</ele>
        <time>2022-08-28T05:49:22Z</time>
      </trkpt>
      <trkpt lat="46.02868" lon="6.92798">
        <ele>1609</ele>
        <time>2022-08-28T05:49:23Z</time>
      </trkpt>
      <trkpt lat="46.02867" lon="6.92795">
        <ele>1609</ele>
        <time>2022-08-28T05:49:25Z</time>
      </trkpt>
      <trkpt lat="46.02865" lon="6.92793">
        <ele>1609</ele>
        <time>2022-08-28T05:49:27Z</time>
      </trkpt>
      <trkpt lat="46.02864" lon="6.9279">
        <ele>1609</ele>
        <time>2022-08-28T05:49:28Z</time>
      </trkpt>
      <trkpt lat="46.02862" lon="6.92788">
        <ele>1609</ele>
        <time>2022-08-28T05:49:29Z</time>
      </trkpt>
      <trkpt lat="46.02861" lon="6.92786">
        <ele>1610</ele>
        <time>2022-08-28T05:49:30Z</time>
      </trkpt>
      <trkpt lat="46.0286" lon="6.92785">
        <ele>1610</ele>
        <time>2022-08-28T05:49:31Z</time>
      </trkpt>
      <trkpt lat="46.02859" lon="6.92784">
        <ele>1610</ele>
        <time>2022-08-28T05:49:32Z</time>
      </trkpt>
      <trkpt lat="46.02858" lon="6.92782">
        <ele>1610</ele>
        <time>2022-08-28T05:49:34Z</time>
      </trkpt>
      <trkpt lat="46.02856" lon="6.92781">
        <ele>1609</ele>
        <time>2022-08-28T05:49:35Z</time>
      </trkpt>
      <trkpt lat="46.02855" lon="6.9278">
        <ele>1610</ele>
        <time>2022-08-28T05:49:36Z</time>
      </trkpt>
      <trkpt lat="46.02854" lon="6.92779">
        <ele>1610</ele>
        <time>2022-08-28T05:49:37Z</time>
      </trkpt>
      <trkpt lat="46.02853" lon="6.92778">
        <ele>1610</ele>
        <time>2022-08-28T05:49:39Z</time>
      </trkpt>
      <trkpt lat="46.02852" lon="6.92778">
        <ele>1609</ele>
        <time>2022-08-28T05:49:40Z</time>
      </trkpt>
      <trkpt lat="46.0285" lon="6.92777">
        <ele>1610</ele>
        <time>2022-08-28T05:49:41Z</time>
      </trkpt>
      <trkpt lat="46.02849" lon="6.92777">
        <ele>1610</ele>
        <time>2022-08-28T05:49:42Z</time>
      </trkpt>
      <trkpt lat="46.02848" lon="6.92776">
        <ele>1610</ele>
        <time>2022-08-28T05:49:44Z</time>
      </trkpt>
      <trkpt lat="46.02846" lon="6.92776">
        <ele>1610</ele>
        <time>2022-08-28T05:49:46Z</time>
      </trkpt>
      <trkpt lat="46.02845" lon="6.92775">
        <ele>1609</ele>
        <time>2022-08-28T05:49:47Z</time>
      </trkpt>
      <trkpt lat="46.02843" lon="6.92775">
        <ele>1610</ele>
        <time>2022-08-28T05:49:48Z</time>
      </trkpt>
      <trkpt lat="46.02842" lon="6.92775">
        <ele>1610</ele>
        <time>2022-08-28T05:49:49Z</time>
      </trkpt>
      <trkpt lat="46.0284" lon="6.92774">
        <ele>1610</ele>
        <time>2022-08-28T05:49:50Z</time>
      </trkpt>
      <trkpt lat="46.02838" lon="6.92774">
        <ele>1610</ele>
        <time>2022-08-28T05:49:52Z</time>
      </trkpt>
      <trkpt lat="46.02837" lon="6.92774">
        <ele>1610</ele>
        <time>2022-08-28T05:49:53Z</time>
      </trkpt>
      <trkpt lat="46.02835" lon="6.92773">
        <ele>1610</ele>
        <time>2022-08-28T05:49:54Z</time>
      </trkpt>
      <trkpt lat="46.02833" lon="6.92773">
        <ele>1610</ele>
        <time>2022-08-28T05:49:55Z</time>
      </trkpt>
      <trkpt lat="46.02831" lon="6.92773">
        <ele>1610</ele>
        <time>2022-08-28T05:49:57Z</time>
      </trkpt>
      <trkpt lat="46.0283" lon="6.92773">
        <ele>1610</ele>
        <time>2022-08-28T05:49:58Z</time>
      </trkpt>
      <trkpt lat="46.02828" lon="6.92773">
        <ele>1611</ele>
        <time>2022-08-28T05:49:59Z</time>
      </trkpt>
      <trkpt lat="46.02826" lon="6.92773">
        <ele>1611</ele>
        <time>2022-08-28T05:50:00Z</time>
      </trkpt>
      <trkpt lat="46.02825" lon="6.92772">
        <ele>1611</ele>
        <time>2022-08-28T05:50:02Z</time>
      </trkpt>
      <trkpt lat="46.02824" lon="6.92772">
        <ele>1611</ele>
        <time>2022-08-28T05:50:03Z</time>
      </trkpt>
      <trkpt lat="46.02822" lon="6.92772">
        <ele>1611</ele>
        <time>2022-08-28T05:50:04Z</time>
      </trkpt>
      <trkpt lat="46.02821" lon="6.92771">
        <ele>1611</ele>
        <time>2022-08-28T05:50:05Z</time>
      </trkpt>
      <trkpt lat="46.0282" lon="6.92771">
        <ele>1611</ele>
        <time>2022-08-28T05:50:07Z</time>
      </trkpt>
      <trkpt lat="46.02819" lon="6.9277">
        <ele>1611</ele>
        <time>2022-08-28T05:50:08Z</time>
      </trkpt>
      <trkpt lat="46.02818" lon="6.9277">
        <ele>1611</ele>
        <time>2022-08-28T05:50:09Z</time>
      </trkpt>
      <trkpt lat="46.02816" lon="6.9277">
        <ele>1612</ele>
        <time>2022-08-28T05:50:10Z</time>
      </trkpt>
      <trkpt lat="46.02815" lon="6.92769">
        <ele>1612</ele>
        <time>2022-08-28T05:50:11Z</time>
      </trkpt>
      <trkpt lat="46.02814" lon="6.92769">
        <ele>1613</ele>
        <time>2022-08-28T05:50:12Z</time>
      </trkpt>
      <trkpt lat="46.02813" lon="6.92768">
        <ele>1613</ele>
        <time>2022-08-28T05:50:13Z</time>
      </trkpt>
      <trkpt lat="46.02812" lon="6.92768">
        <ele>1613</ele>
        <time>2022-08-28T05:50:15Z</time>
      </trkpt>
      <trkpt lat="46.02811" lon="6.92767">
        <ele>1613</ele>
        <time>2022-08-28T05:50:16Z</time>
      </trkpt>
      <trkpt lat="46.0281" lon="6.92767">
        <ele>1613</ele>
        <time>2022-08-28T05:50:17Z</time>
      </trkpt>
      <trkpt lat="46.02809" lon="6.92766">
        <ele>1613</ele>
        <time>2022-08-28T05:50:18Z</time>
      </trkpt>
      <trkpt lat="46.02808" lon="6.92766">
        <ele>1613</ele>
        <time>2022-08-28T05:50:19Z</time>
      </trkpt>
      <trkpt lat="46.02807" lon="6.92765">
        <ele>1613</ele>
        <time>2022-08-28T05:50:20Z</time>
      </trkpt>
      <trkpt lat="46.02804" lon="6.92766">
        <ele>1613</ele>
        <time>2022-08-28T05:50:22Z</time>
      </trkpt>
      <trkpt lat="46.02801" lon="6.92767">
        <ele>1613</ele>
        <time>2022-08-28T05:50:24Z</time>
      </trkpt>
      <trkpt lat="46.02797" lon="6.92768">
        <ele>1612</ele>
        <time>2022-08-28T05:50:25Z</time>
      </trkpt>
      <trkpt lat="46.02796" lon="6.92768">
        <ele>1612</ele>
        <time>2022-08-28T05:50:26Z</time>
      </trkpt>
      <trkpt lat="46.02794" lon="6.92767">
        <ele>1612</ele>
        <time>2022-08-28T05:50:27Z</time>
      </trkpt>
      <trkpt lat="46.02792" lon="6.92767">
        <ele>1612</ele>
        <time>2022-08-28T05:50:28Z</time>
      </trkpt>
      <trkpt lat="46.0279" lon="6.92767">
        <ele>1612</ele>
        <time>2022-08-28T05:50:30Z</time>
      </trkpt>
      <trkpt lat="46.02788" lon="6.92766">
        <ele>1612</ele>
        <time>2022-08-28T05:50:31Z</time>
      </trkpt>
      <trkpt lat="46.02786" lon="6.92766">
        <ele>1612</ele>
        <time>2022-08-28T05:50:32Z</time>
      </trkpt>
      <trkpt lat="46.02785" lon="6.92766">
        <ele>1612</ele>
        <time>2022-08-28T05:50:33Z</time>
      </trkpt>
      <trkpt lat="46.02783" lon="6.92765">
        <ele>1612</ele>
        <time>2022-08-28T05:50:35Z</time>
      </trkpt>
      <trkpt lat="46.02781" lon="6.92765">
        <ele>1612</ele>
        <time>2022-08-28T05:50:36Z</time>
      </trkpt>
      <trkpt lat="46.0278" lon="6.92765">
        <ele>1612</ele>
        <time>2022-08-28T05:50:37Z</time>
      </trkpt>
      <trkpt lat="46.02778" lon="6.92764">
        <ele>1612</ele>
        <time>2022-08-28T05:50:38Z</time>
      </trkpt>
      <trkpt lat="46.02777" lon="6.92765">
        <ele>1612</ele>
        <time>2022-08-28T05:50:40Z</time>
      </trkpt>
      <trkpt lat="46.02775" lon="6.92766">
        <ele>1613</ele>
        <time>2022-08-28T05:50:41Z</time>
      </trkpt>
      <trkpt lat="46.02774" lon="6.92766">
        <ele>1613</ele>
        <time>2022-08-28T05:50:42Z</time>
      </trkpt>
      <trkpt lat="46.02773" lon="6.92767">
        <ele>1613</ele>
        <time>2022-08-28T05:50:43Z</time>
      </trkpt>
      <trkpt lat="46.02771" lon="6.92768">
        <ele>1613</ele>
        <time>2022-08-28T05:50:44Z</time>
      </trkpt>
      <trkpt lat="46.0277" lon="6.92768">
        <ele>1613</ele>
        <time>2022-08-28T05:50:46Z</time>
      </trkpt>
      <trkpt lat="46.02769" lon="6.92769">
        <ele>1613</ele>
        <time>2022-08-28T05:50:47Z</time>
      </trkpt>
      <trkpt lat="46.02767" lon="6.92769">
        <ele>1614</ele>
        <time>2022-08-28T05:50:48Z</time>
      </trkpt>
      <trkpt lat="46.02765" lon="6.92769">
        <ele>1614</ele>
        <time>2022-08-28T05:50:49Z</time>
      </trkpt>
      <trkpt lat="46.02763" lon="6.92769">
        <ele>1614</ele>
        <time>2022-08-28T05:50:51Z</time>
      </trkpt>
      <trkpt lat="46.02761" lon="6.92768">
        <ele>1614</ele>
        <time>2022-08-28T05:50:52Z</time>
      </trkpt>
      <trkpt lat="46.0276" lon="6.92768">
        <ele>1614</ele>
        <time>2022-08-28T05:50:53Z</time>
      </trkpt>
      <trkpt lat="46.02758" lon="6.92768">
        <ele>1614</ele>
        <time>2022-08-28T05:50:54Z</time>
      </trkpt>
      <trkpt lat="46.02757" lon="6.92767">
        <ele>1614</ele>
        <time>2022-08-28T05:50:56Z</time>
      </trkpt>
      <trkpt lat="46.02755" lon="6.92767">
        <ele>1614</ele>
        <time>2022-08-28T05:50:57Z</time>
      </trkpt>
      <trkpt lat="46.02754" lon="6.92766">
        <ele>1614</ele>
        <time>2022-08-28T05:50:58Z</time>
      </trkpt>
      <trkpt lat="46.02752" lon="6.92766">
        <ele>1614</ele>
        <time>2022-08-28T05:50:59Z</time>
      </trkpt>
      <trkpt lat="46.02751" lon="6.92765">
        <ele>1614</ele>
        <time>2022-08-28T05:51:00Z</time>
      </trkpt>
      <trkpt lat="46.02749" lon="6.92765">
        <ele>1614</ele>
        <time>2022-08-28T05:51:01Z</time>
      </trkpt>
      <trkpt lat="46.02748" lon="6.92764">
        <ele>1614</ele>
        <time>2022-08-28T05:51:03Z</time>
      </trkpt>
      <trkpt lat="46.02747" lon="6.92764">
        <ele>1614</ele>
        <time>2022-08-28T05:51:04Z</time>
      </trkpt>
      <trkpt lat="46.02745" lon="6.92764">
        <ele>1614</ele>
        <time>2022-08-28T05:51:05Z</time>
      </trkpt>
      <trkpt lat="46.02744" lon="6.92763">
        <ele>1614</ele>
        <time>2022-08-28T05:51:06Z</time>
      </trkpt>
      <trkpt lat="46.02743" lon="6.92763">
        <ele>1614</ele>
        <time>2022-08-28T05:51:07Z</time>
      </trkpt>
      <trkpt lat="46.02741" lon="6.92762">
        <ele>1614</ele>
        <time>2022-08-28T05:51:08Z</time>
      </trkpt>
      <trkpt lat="46.02739" lon="6.92762">
        <ele>1614</ele>
        <time>2022-08-28T05:51:10Z</time>
      </trkpt>
      <trkpt lat="46.02737" lon="6.92761">
        <ele>1614</ele>
        <time>2022-08-28T05:51:11Z</time>
      </trkpt>
      <trkpt lat="46.02735" lon="6.92761">
        <ele>1614</ele>
        <time>2022-08-28T05:51:13Z</time>
      </trkpt>
      <trkpt lat="46.02733" lon="6.9276">
        <ele>1614</ele>
        <time>2022-08-28T05:51:14Z</time>
      </trkpt>
      <trkpt lat="46.02731" lon="6.92759">
        <ele>1614</ele>
        <time>2022-08-28T05:51:15Z</time>
      </trkpt>
      <trkpt lat="46.02724" lon="6.92749">
        <ele>1615</ele>
        <time>2022-08-28T05:51:17Z</time>
      </trkpt>
      <trkpt lat="46.02715" lon="6.92744">
        <ele>1615</ele>
        <time>2022-08-28T05:51:24Z</time>
      </trkpt>
      <trkpt lat="46.02714" lon="6.92742">
        <ele>1615</ele>
        <time>2022-08-28T05:51:25Z</time>
      </trkpt>
      <trkpt lat="46.02713" lon="6.92741">
        <ele>1615</ele>
        <time>2022-08-28T05:51:26Z</time>
      </trkpt>
      <trkpt lat="46.02711" lon="6.9274">
        <ele>1615</ele>
        <time>2022-08-28T05:51:27Z</time>
      </trkpt>
      <trkpt lat="46.0271" lon="6.92739">
        <ele>1615</ele>
        <time>2022-08-28T05:51:29Z</time>
      </trkpt>
      <trkpt lat="46.02709" lon="6.92738">
        <ele>1615</ele>
        <time>2022-08-28T05:51:30Z</time>
      </trkpt>
      <trkpt lat="46.02708" lon="6.92736">
        <ele>1615</ele>
        <time>2022-08-28T05:51:31Z</time>
      </trkpt>
      <trkpt lat="46.02707" lon="6.92736">
        <ele>1615</ele>
        <time>2022-08-28T05:51:32Z</time>
      </trkpt>
      <trkpt lat="46.02706" lon="6.92736">
        <ele>1615</ele>
        <time>2022-08-28T05:51:33Z</time>
      </trkpt>
      <trkpt lat="46.02705" lon="6.92736">
        <ele>1615</ele>
        <time>2022-08-28T05:51:34Z</time>
      </trkpt>
      <trkpt lat="46.02704" lon="6.92736">
        <ele>1615</ele>
        <time>2022-08-28T05:51:35Z</time>
      </trkpt>
      <trkpt lat="46.02703" lon="6.92735">
        <ele>1615</ele>
        <time>2022-08-28T05:51:37Z</time>
      </trkpt>
      <trkpt lat="46.02702" lon="6.92735">
        <ele>1615</ele>
        <time>2022-08-28T05:51:38Z</time>
      </trkpt>
      <trkpt lat="46.02701" lon="6.92735">
        <ele>1616</ele>
        <time>2022-08-28T05:51:40Z</time>
      </trkpt>
      <trkpt lat="46.027" lon="6.92735">
        <ele>1616</ele>
        <time>2022-08-28T05:51:41Z</time>
      </trkpt>
      <trkpt lat="46.02699" lon="6.92735">
        <ele>1616</ele>
        <time>2022-08-28T05:51:42Z</time>
      </trkpt>
      <trkpt lat="46.02698" lon="6.92734">
        <ele>1616</ele>
        <time>2022-08-28T05:51:43Z</time>
      </trkpt>
      <trkpt lat="46.02697" lon="6.92733">
        <ele>1616</ele>
        <time>2022-08-28T05:51:44Z</time>
      </trkpt>
      <trkpt lat="46.02696" lon="6.92732">
        <ele>1616</ele>
        <time>2022-08-28T05:51:45Z</time>
      </trkpt>
      <trkpt lat="46.02695" lon="6.9273">
        <ele>1616</ele>
        <time>2022-08-28T05:51:47Z</time>
      </trkpt>
      <trkpt lat="46.02694" lon="6.92729">
        <ele>1616</ele>
        <time>2022-08-28T05:51:48Z</time>
      </trkpt>
      <trkpt lat="46.02694" lon="6.92728">
        <ele>1616</ele>
        <time>2022-08-28T05:51:49Z</time>
      </trkpt>
      <trkpt lat="46.02693" lon="6.92727">
        <ele>1616</ele>
        <time>2022-08-28T05:51:50Z</time>
      </trkpt>
      <trkpt lat="46.02692" lon="6.92726">
        <ele>1616</ele>
        <time>2022-08-28T05:51:51Z</time>
      </trkpt>
      <trkpt lat="46.02691" lon="6.92725">
        <ele>1617</ele>
        <time>2022-08-28T05:51:52Z</time>
      </trkpt>
      <trkpt lat="46.02684" lon="6.92716">
        <ele>1617</ele>
        <time>2022-08-28T05:51:59Z</time>
      </trkpt>
      <trkpt lat="46.02682" lon="6.92715">
        <ele>1617</ele>
        <time>2022-08-28T05:52:00Z</time>
      </trkpt>
      <trkpt lat="46.02681" lon="6.92715">
        <ele>1617</ele>
        <time>2022-08-28T05:52:01Z</time>
      </trkpt>
      <trkpt lat="46.0268" lon="6.92714">
        <ele>1616</ele>
        <time>2022-08-28T05:52:02Z</time>
      </trkpt>
      <trkpt lat="46.02679" lon="6.92713">
        <ele>1617</ele>
        <time>2022-08-28T05:52:04Z</time>
      </trkpt>
      <trkpt lat="46.02677" lon="6.92713">
        <ele>1617</ele>
        <time>2022-08-28T05:52:05Z</time>
      </trkpt>
      <trkpt lat="46.02676" lon="6.92712">
        <ele>1617</ele>
        <time>2022-08-28T05:52:06Z</time>
      </trkpt>
      <trkpt lat="46.02675" lon="6.92712">
        <ele>1617</ele>
        <time>2022-08-28T05:52:07Z</time>
      </trkpt>
      <trkpt lat="46.02674" lon="6.92711">
        <ele>1617</ele>
        <time>2022-08-28T05:52:08Z</time>
      </trkpt>
      <trkpt lat="46.02672" lon="6.9271">
        <ele>1617</ele>
        <time>2022-08-28T05:52:09Z</time>
      </trkpt>
      <trkpt lat="46.02671" lon="6.92709">
        <ele>1617</ele>
        <time>2022-08-28T05:52:10Z</time>
      </trkpt>
      <trkpt lat="46.0267" lon="6.92707">
        <ele>1617</ele>
        <time>2022-08-28T05:52:11Z</time>
      </trkpt>
      <trkpt lat="46.02669" lon="6.92706">
        <ele>1618</ele>
        <time>2022-08-28T05:52:13Z</time>
      </trkpt>
      <trkpt lat="46.02668" lon="6.92705">
        <ele>1618</ele>
        <time>2022-08-28T05:52:14Z</time>
      </trkpt>
      <trkpt lat="46.02666" lon="6.92703">
        <ele>1618</ele>
        <time>2022-08-28T05:52:15Z</time>
      </trkpt>
      <trkpt lat="46.02665" lon="6.92702">
        <ele>1618</ele>
        <time>2022-08-28T05:52:16Z</time>
      </trkpt>
      <trkpt lat="46.02663" lon="6.927">
        <ele>1618</ele>
        <time>2022-08-28T05:52:18Z</time>
      </trkpt>
      <trkpt lat="46.02661" lon="6.92699">
        <ele>1619</ele>
        <time>2022-08-28T05:52:20Z</time>
      </trkpt>
      <trkpt lat="46.0266" lon="6.92697">
        <ele>1619</ele>
        <time>2022-08-28T05:52:21Z</time>
      </trkpt>
      <trkpt lat="46.02658" lon="6.92696">
        <ele>1619</ele>
        <time>2022-08-28T05:52:22Z</time>
      </trkpt>
      <trkpt lat="46.02657" lon="6.92695">
        <ele>1619</ele>
        <time>2022-08-28T05:52:24Z</time>
      </trkpt>
      <trkpt lat="46.02655" lon="6.92694">
        <ele>1619</ele>
        <time>2022-08-28T05:52:25Z</time>
      </trkpt>
      <trkpt lat="46.02654" lon="6.92693">
        <ele>1619</ele>
        <time>2022-08-28T05:52:26Z</time>
      </trkpt>
      <trkpt lat="46.02653" lon="6.92692">
        <ele>1619</ele>
        <time>2022-08-28T05:52:27Z</time>
      </trkpt>
      <trkpt lat="46.02651" lon="6.92691">
        <ele>1619</ele>
        <time>2022-08-28T05:52:29Z</time>
      </trkpt>
      <trkpt lat="46.0265" lon="6.9269">
        <ele>1619</ele>
        <time>2022-08-28T05:52:30Z</time>
      </trkpt>
      <trkpt lat="46.0265" lon="6.92689">
        <ele>1619</ele>
        <time>2022-08-28T05:52:31Z</time>
      </trkpt>
      <trkpt lat="46.02649" lon="6.92688">
        <ele>1619</ele>
        <time>2022-08-28T05:52:32Z</time>
      </trkpt>
      <trkpt lat="46.02649" lon="6.92688">
        <ele>1619</ele>
        <time>2022-08-28T05:52:34Z</time>
      </trkpt>
      <trkpt lat="46.02649" lon="6.92687">
        <ele>1620</ele>
        <time>2022-08-28T05:52:35Z</time>
      </trkpt>
      <trkpt lat="46.02648" lon="6.92686">
        <ele>1621</ele>
        <time>2022-08-28T05:52:36Z</time>
      </trkpt>
      <trkpt lat="46.02648" lon="6.92686">
        <ele>1621</ele>
        <time>2022-08-28T05:52:37Z</time>
      </trkpt>
      <trkpt lat="46.02642" lon="6.92676">
        <ele>1620</ele>
        <time>2022-08-28T05:52:39Z</time>
      </trkpt>
      <trkpt lat="46.02642" lon="6.92674">
        <ele>1620</ele>
        <time>2022-08-28T05:52:40Z</time>
      </trkpt>
      <trkpt lat="46.02641" lon="6.92672">
        <ele>1620</ele>
        <time>2022-08-28T05:52:41Z</time>
      </trkpt>
      <trkpt lat="46.0264" lon="6.9267">
        <ele>1620</ele>
        <time>2022-08-28T05:52:42Z</time>
      </trkpt>
      <trkpt lat="46.02639" lon="6.92668">
        <ele>1620</ele>
        <time>2022-08-28T05:52:44Z</time>
      </trkpt>
      <trkpt lat="46.02638" lon="6.92666">
        <ele>1620</ele>
        <time>2022-08-28T05:52:45Z</time>
      </trkpt>
      <trkpt lat="46.02637" lon="6.92665">
        <ele>1620</ele>
        <time>2022-08-28T05:52:46Z</time>
      </trkpt>
      <trkpt lat="46.02636" lon="6.92664">
        <ele>1620</ele>
        <time>2022-08-28T05:52:47Z</time>
      </trkpt>
      <trkpt lat="46.02635" lon="6.92663">
        <ele>1620</ele>
        <time>2022-08-28T05:52:49Z</time>
      </trkpt>
      <trkpt lat="46.02634" lon="6.92662">
        <ele>1620</ele>
        <time>2022-08-28T05:52:50Z</time>
      </trkpt>
      <trkpt lat="46.02633" lon="6.92661">
        <ele>1621</ele>
        <time>2022-08-28T05:52:51Z</time>
      </trkpt>
      <trkpt lat="46.02632" lon="6.9266">
        <ele>1622</ele>
        <time>2022-08-28T05:52:52Z</time>
      </trkpt>
      <trkpt lat="46.02631" lon="6.92659">
        <ele>1622</ele>
        <time>2022-08-28T05:52:54Z</time>
      </trkpt>
      <trkpt lat="46.0263" lon="6.92659">
        <ele>1622</ele>
        <time>2022-08-28T05:52:55Z</time>
      </trkpt>
      <trkpt lat="46.02629" lon="6.92657">
        <ele>1622</ele>
        <time>2022-08-28T05:52:56Z</time>
      </trkpt>
      <trkpt lat="46.02627" lon="6.92656">
        <ele>1622</ele>
        <time>2022-08-28T05:52:57Z</time>
      </trkpt>
      <trkpt lat="46.02626" lon="6.92655">
        <ele>1622</ele>
        <time>2022-08-28T05:52:58Z</time>
      </trkpt>
      <trkpt lat="46.02625" lon="6.92653">
        <ele>1623</ele>
        <time>2022-08-28T05:53:00Z</time>
      </trkpt>
      <trkpt lat="46.02624" lon="6.92652">
        <ele>1623</ele>
        <time>2022-08-28T05:53:01Z</time>
      </trkpt>
      <trkpt lat="46.02622" lon="6.92651">
        <ele>1623</ele>
        <time>2022-08-28T05:53:02Z</time>
      </trkpt>
      <trkpt lat="46.02621" lon="6.92651">
        <ele>1623</ele>
        <time>2022-08-28T05:53:03Z</time>
      </trkpt>
      <trkpt lat="46.0262" lon="6.92651">
        <ele>1625</ele>
        <time>2022-08-28T05:53:05Z</time>
      </trkpt>
      <trkpt lat="46.02619" lon="6.92652">
        <ele>1625</ele>
        <time>2022-08-28T05:53:06Z</time>
      </trkpt>
      <trkpt lat="46.02618" lon="6.92652">
        <ele>1625</ele>
        <time>2022-08-28T05:53:07Z</time>
      </trkpt>
      <trkpt lat="46.02617" lon="6.92652">
        <ele>1625</ele>
        <time>2022-08-28T05:53:08Z</time>
      </trkpt>
      <trkpt lat="46.02616" lon="6.92652">
        <ele>1626</ele>
        <time>2022-08-28T05:53:10Z</time>
      </trkpt>
      <trkpt lat="46.02614" lon="6.92653">
        <ele>1627</ele>
        <time>2022-08-28T05:53:12Z</time>
      </trkpt>
      <trkpt lat="46.02613" lon="6.92653">
        <ele>1627</ele>
        <time>2022-08-28T05:53:13Z</time>
      </trkpt>
      <trkpt lat="46.02604" lon="6.9265">
        <ele>1627</ele>
        <time>2022-08-28T05:53:22Z</time>
      </trkpt>
      <trkpt lat="46.02603" lon="6.92649">
        <ele>1627</ele>
        <time>2022-08-28T05:53:23Z</time>
      </trkpt>
      <trkpt lat="46.02602" lon="6.92649">
        <ele>1627</ele>
        <time>2022-08-28T05:53:24Z</time>
      </trkpt>
      <trkpt lat="46.02601" lon="6.92648">
        <ele>1627</ele>
        <time>2022-08-28T05:53:25Z</time>
      </trkpt>
      <trkpt lat="46.026" lon="6.92647">
        <ele>1627</ele>
        <time>2022-08-28T05:53:27Z</time>
      </trkpt>
      <trkpt lat="46.02599" lon="6.92646">
        <ele>1627</ele>
        <time>2022-08-28T05:53:28Z</time>
      </trkpt>
      <trkpt lat="46.02598" lon="6.92646">
        <ele>1627</ele>
        <time>2022-08-28T05:53:29Z</time>
      </trkpt>
      <trkpt lat="46.02597" lon="6.92645">
        <ele>1627</ele>
        <time>2022-08-28T05:53:30Z</time>
      </trkpt>
      <trkpt lat="46.02596" lon="6.92644">
        <ele>1627</ele>
        <time>2022-08-28T05:53:31Z</time>
      </trkpt>
      <trkpt lat="46.02595" lon="6.92643">
        <ele>1627</ele>
        <time>2022-08-28T05:53:32Z</time>
      </trkpt>
      <trkpt lat="46.02594" lon="6.92642">
        <ele>1627</ele>
        <time>2022-08-28T05:53:34Z</time>
      </trkpt>
      <trkpt lat="46.02592" lon="6.92641">
        <ele>1627</ele>
        <time>2022-08-28T05:53:35Z</time>
      </trkpt>
      <trkpt lat="46.02591" lon="6.9264">
        <ele>1627</ele>
        <time>2022-08-28T05:53:36Z</time>
      </trkpt>
      <trkpt lat="46.02589" lon="6.92639">
        <ele>1627</ele>
        <time>2022-08-28T05:53:37Z</time>
      </trkpt>
      <trkpt lat="46.02588" lon="6.92638">
        <ele>1628</ele>
        <time>2022-08-28T05:53:39Z</time>
      </trkpt>
      <trkpt lat="46.02586" lon="6.92637">
        <ele>1628</ele>
        <time>2022-08-28T05:53:40Z</time>
      </trkpt>
      <trkpt lat="46.02585" lon="6.92636">
        <ele>1628</ele>
        <time>2022-08-28T05:53:41Z</time>
      </trkpt>
      <trkpt lat="46.02583" lon="6.92635">
        <ele>1627</ele>
        <time>2022-08-28T05:53:42Z</time>
      </trkpt>
      <trkpt lat="46.02581" lon="6.92634">
        <ele>1627</ele>
        <time>2022-08-28T05:53:43Z</time>
      </trkpt>
      <trkpt lat="46.0258" lon="6.92632">
        <ele>1627</ele>
        <time>2022-08-28T05:53:45Z</time>
      </trkpt>
      <trkpt lat="46.02578" lon="6.92631">
        <ele>1627</ele>
        <time>2022-08-28T05:53:46Z</time>
      </trkpt>
      <trkpt lat="46.02577" lon="6.9263">
        <ele>1628</ele>
        <time>2022-08-28T05:53:47Z</time>
      </trkpt>
      <trkpt lat="46.02576" lon="6.92629">
        <ele>1628</ele>
        <time>2022-08-28T05:53:48Z</time>
      </trkpt>
      <trkpt lat="46.02575" lon="6.92628">
        <ele>1628</ele>
        <time>2022-08-28T05:53:50Z</time>
      </trkpt>
      <trkpt lat="46.02574" lon="6.92626">
        <ele>1628</ele>
        <time>2022-08-28T05:53:51Z</time>
      </trkpt>
      <trkpt lat="46.02573" lon="6.92625">
        <ele>1628</ele>
        <time>2022-08-28T05:53:52Z</time>
      </trkpt>
      <trkpt lat="46.02572" lon="6.92624">
        <ele>1629</ele>
        <time>2022-08-28T05:53:53Z</time>
      </trkpt>
      <trkpt lat="46.02571" lon="6.92623">
        <ele>1629</ele>
        <time>2022-08-28T05:53:54Z</time>
      </trkpt>
      <trkpt lat="46.0257" lon="6.92622">
        <ele>1629</ele>
        <time>2022-08-28T05:53:55Z</time>
      </trkpt>
      <trkpt lat="46.02568" lon="6.9262">
        <ele>1629</ele>
        <time>2022-08-28T05:53:56Z</time>
      </trkpt>
      <trkpt lat="46.02567" lon="6.92619">
        <ele>1629</ele>
        <time>2022-08-28T05:53:57Z</time>
      </trkpt>
      <trkpt lat="46.02566" lon="6.92617">
        <ele>1629</ele>
        <time>2022-08-28T05:53:58Z</time>
      </trkpt>
      <trkpt lat="46.02564" lon="6.92615">
        <ele>1629</ele>
        <time>2022-08-28T05:54:00Z</time>
      </trkpt>
      <trkpt lat="46.02563" lon="6.92614">
        <ele>1629</ele>
        <time>2022-08-28T05:54:01Z</time>
      </trkpt>
      <trkpt lat="46.02562" lon="6.92612">
        <ele>1629</ele>
        <time>2022-08-28T05:54:02Z</time>
      </trkpt>
      <trkpt lat="46.02553" lon="6.92606">
        <ele>1630</ele>
        <time>2022-08-28T05:54:10Z</time>
      </trkpt>
      <trkpt lat="46.02552" lon="6.92605">
        <ele>1630</ele>
        <time>2022-08-28T05:54:12Z</time>
      </trkpt>
      <trkpt lat="46.02551" lon="6.92603">
        <ele>1630</ele>
        <time>2022-08-28T05:54:13Z</time>
      </trkpt>
      <trkpt lat="46.0255" lon="6.92602">
        <ele>1630</ele>
        <time>2022-08-28T05:54:14Z</time>
      </trkpt>
      <trkpt lat="46.02549" lon="6.92601">
        <ele>1631</ele>
        <time>2022-08-28T05:54:15Z</time>
      </trkpt>
      <trkpt lat="46.02548" lon="6.926">
        <ele>1632</ele>
        <time>2022-08-28T05:54:17Z</time>
      </trkpt>
      <trkpt lat="46.02547" lon="6.92599">
        <ele>1632</ele>
        <time>2022-08-28T05:54:19Z</time>
      </trkpt>
      <trkpt lat="46.02546" lon="6.92598">
        <ele>1632</ele>
        <time>2022-08-28T05:54:20Z</time>
      </trkpt>
      <trkpt lat="46.02545" lon="6.92597">
        <ele>1632</ele>
        <time>2022-08-28T05:54:21Z</time>
      </trkpt>
      <trkpt lat="46.02544" lon="6.92596">
        <ele>1632</ele>
        <time>2022-08-28T05:54:22Z</time>
      </trkpt>
      <trkpt lat="46.02543" lon="6.92595">
        <ele>1632</ele>
        <time>2022-08-28T05:54:24Z</time>
      </trkpt>
      <trkpt lat="46.02543" lon="6.92594">
        <ele>1632</ele>
        <time>2022-08-28T05:54:25Z</time>
      </trkpt>
      <trkpt lat="46.02542" lon="6.92594">
        <ele>1633</ele>
        <time>2022-08-28T05:54:26Z</time>
      </trkpt>
      <trkpt lat="46.02541" lon="6.92593">
        <ele>1633</ele>
        <time>2022-08-28T05:54:27Z</time>
      </trkpt>
      <trkpt lat="46.0254" lon="6.92592">
        <ele>1633</ele>
        <time>2022-08-28T05:54:29Z</time>
      </trkpt>
      <trkpt lat="46.02539" lon="6.92591">
        <ele>1634</ele>
        <time>2022-08-28T05:54:30Z</time>
      </trkpt>
      <trkpt lat="46.02539" lon="6.9259">
        <ele>1634</ele>
        <time>2022-08-28T05:54:31Z</time>
      </trkpt>
      <trkpt lat="46.02538" lon="6.9259">
        <ele>1634</ele>
        <time>2022-08-28T05:54:32Z</time>
      </trkpt>
      <trkpt lat="46.02536" lon="6.92589">
        <ele>1634</ele>
        <time>2022-08-28T05:54:33Z</time>
      </trkpt>
      <trkpt lat="46.02535" lon="6.92588">
        <ele>1634</ele>
        <time>2022-08-28T05:54:34Z</time>
      </trkpt>
      <trkpt lat="46.02534" lon="6.92587">
        <ele>1635</ele>
        <time>2022-08-28T05:54:35Z</time>
      </trkpt>
      <trkpt lat="46.02532" lon="6.92586">
        <ele>1635</ele>
        <time>2022-08-28T05:54:37Z</time>
      </trkpt>
      <trkpt lat="46.02531" lon="6.92585">
        <ele>1635</ele>
        <time>2022-08-28T05:54:38Z</time>
      </trkpt>
      <trkpt lat="46.0253" lon="6.92584">
        <ele>1635</ele>
        <time>2022-08-28T05:54:39Z</time>
      </trkpt>
      <trkpt lat="46.02528" lon="6.92583">
        <ele>1635</ele>
        <time>2022-08-28T05:54:40Z</time>
      </trkpt>
      <trkpt lat="46.02527" lon="6.92583">
        <ele>1635</ele>
        <time>2022-08-28T05:54:42Z</time>
      </trkpt>
      <trkpt lat="46.02526" lon="6.92582">
        <ele>1635</ele>
        <time>2022-08-28T05:54:43Z</time>
      </trkpt>
      <trkpt lat="46.02525" lon="6.92581">
        <ele>1635</ele>
        <time>2022-08-28T05:54:44Z</time>
      </trkpt>
      <trkpt lat="46.02523" lon="6.9258">
        <ele>1635</ele>
        <time>2022-08-28T05:54:45Z</time>
      </trkpt>
      <trkpt lat="46.02522" lon="6.92579">
        <ele>1635</ele>
        <time>2022-08-28T05:54:46Z</time>
      </trkpt>
      <trkpt lat="46.02521" lon="6.92578">
        <ele>1635</ele>
        <time>2022-08-28T05:54:47Z</time>
      </trkpt>
      <trkpt lat="46.02519" lon="6.92577">
        <ele>1635</ele>
        <time>2022-08-28T05:54:48Z</time>
      </trkpt>
      <trkpt lat="46.02517" lon="6.92575">
        <ele>1635</ele>
        <time>2022-08-28T05:54:49Z</time>
      </trkpt>
      <trkpt lat="46.02516" lon="6.92574">
        <ele>1635</ele>
        <time>2022-08-28T05:54:50Z</time>
      </trkpt>
      <trkpt lat="46.02514" lon="6.92572">
        <ele>1634</ele>
        <time>2022-08-28T05:54:52Z</time>
      </trkpt>
      <trkpt lat="46.02513" lon="6.9257">
        <ele>1634</ele>
        <time>2022-08-28T05:54:53Z</time>
      </trkpt>
      <trkpt lat="46.02511" lon="6.92568">
        <ele>1634</ele>
        <time>2022-08-28T05:54:54Z</time>
      </trkpt>
      <trkpt lat="46.02509" lon="6.92566">
        <ele>1634</ele>
        <time>2022-08-28T05:54:55Z</time>
      </trkpt>
      <trkpt lat="46.02507" lon="6.92564">
        <ele>1634</ele>
        <time>2022-08-28T05:54:57Z</time>
      </trkpt>
      <trkpt lat="46.02505" lon="6.92562">
        <ele>1634</ele>
        <time>2022-08-28T05:54:58Z</time>
      </trkpt>
      <trkpt lat="46.02504" lon="6.92561">
        <ele>1633</ele>
        <time>2022-08-28T05:54:59Z</time>
      </trkpt>
      <trkpt lat="46.02503" lon="6.92559">
        <ele>1633</ele>
        <time>2022-08-28T05:55:00Z</time>
      </trkpt>
      <trkpt lat="46.02502" lon="6.92558">
        <ele>1633</ele>
        <time>2022-08-28T05:55:02Z</time>
      </trkpt>
      <trkpt lat="46.02501" lon="6.92556">
        <ele>1633</ele>
        <time>2022-08-28T05:55:03Z</time>
      </trkpt>
      <trkpt lat="46.02499" lon="6.92555">
        <ele>1633</ele>
        <time>2022-08-28T05:55:04Z</time>
      </trkpt>
      <trkpt lat="46.02498" lon="6.92554">
        <ele>1633</ele>
        <time>2022-08-28T05:55:05Z</time>
      </trkpt>
      <trkpt lat="46.02489" lon="6.92546">
        <ele>1633</ele>
        <time>2022-08-28T05:55:11Z</time>
      </trkpt>
      <trkpt lat="46.02489" lon="6.92546">
        <ele>1633</ele>
        <time>2022-08-28T05:55:12Z</time>
      </trkpt>
      <trkpt lat="46.02488" lon="6.92545">
        <ele>1633</ele>
        <time>2022-08-28T05:55:13Z</time>
      </trkpt>
      <trkpt lat="46.02488" lon="6.92545">
        <ele>1633</ele>
        <time>2022-08-28T05:55:14Z</time>
      </trkpt>
      <trkpt lat="46.02487" lon="6.92544">
        <ele>1633</ele>
        <time>2022-08-28T05:55:16Z</time>
      </trkpt>
      <trkpt lat="46.02487" lon="6.92544">
        <ele>1633</ele>
        <time>2022-08-28T05:55:17Z</time>
      </trkpt>
      <trkpt lat="46.02487" lon="6.92544">
        <ele>1633</ele>
        <time>2022-08-28T05:55:18Z</time>
      </trkpt>
      <trkpt lat="46.02486" lon="6.92543">
        <ele>1633</ele>
        <time>2022-08-28T05:55:19Z</time>
      </trkpt>
      <trkpt lat="46.0248" lon="6.92538">
        <ele>1634</ele>
        <time>2022-08-28T05:55:21Z</time>
      </trkpt>
      <trkpt lat="46.02473" lon="6.9253">
        <ele>1634</ele>
        <time>2022-08-28T05:55:26Z</time>
      </trkpt>
      <trkpt lat="46.02472" lon="6.92529">
        <ele>1634</ele>
        <time>2022-08-28T05:55:28Z</time>
      </trkpt>
      <trkpt lat="46.0247" lon="6.92528">
        <ele>1634</ele>
        <time>2022-08-28T05:55:29Z</time>
      </trkpt>
      <trkpt lat="46.02469" lon="6.92526">
        <ele>1634</ele>
        <time>2022-08-28T05:55:30Z</time>
      </trkpt>
      <trkpt lat="46.02468" lon="6.92525">
        <ele>1634</ele>
        <time>2022-08-28T05:55:31Z</time>
      </trkpt>
      <trkpt lat="46.02466" lon="6.92524">
        <ele>1634</ele>
        <time>2022-08-28T05:55:33Z</time>
      </trkpt>
      <trkpt lat="46.02465" lon="6.92523">
        <ele>1634</ele>
        <time>2022-08-28T05:55:34Z</time>
      </trkpt>
      <trkpt lat="46.02463" lon="6.92522">
        <ele>1634</ele>
        <time>2022-08-28T05:55:35Z</time>
      </trkpt>
      <trkpt lat="46.02462" lon="6.92521">
        <ele>1635</ele>
        <time>2022-08-28T05:55:36Z</time>
      </trkpt>
      <trkpt lat="46.02461" lon="6.9252">
        <ele>1635</ele>
        <time>2022-08-28T05:55:38Z</time>
      </trkpt>
      <trkpt lat="46.02459" lon="6.92519">
        <ele>1635</ele>
        <time>2022-08-28T05:55:39Z</time>
      </trkpt>
      <trkpt lat="46.02458" lon="6.92518">
        <ele>1635</ele>
        <time>2022-08-28T05:55:40Z</time>
      </trkpt>
      <trkpt lat="46.02457" lon="6.92517">
        <ele>1635</ele>
        <time>2022-08-28T05:55:41Z</time>
      </trkpt>
      <trkpt lat="46.02455" lon="6.92516">
        <ele>1635</ele>
        <time>2022-08-28T05:55:42Z</time>
      </trkpt>
      <trkpt lat="46.02454" lon="6.92516">
        <ele>1635</ele>
        <time>2022-08-28T05:55:43Z</time>
      </trkpt>
      <trkpt lat="46.02452" lon="6.92516">
        <ele>1635</ele>
        <time>2022-08-28T05:55:45Z</time>
      </trkpt>
      <trkpt lat="46.02451" lon="6.92515">
        <ele>1635</ele>
        <time>2022-08-28T05:55:46Z</time>
      </trkpt>
      <trkpt lat="46.02449" lon="6.92515">
        <ele>1635</ele>
        <time>2022-08-28T05:55:47Z</time>
      </trkpt>
      <trkpt lat="46.02447" lon="6.92515">
        <ele>1635</ele>
        <time>2022-08-28T05:55:48Z</time>
      </trkpt>
      <trkpt lat="46.02446" lon="6.92514">
        <ele>1635</ele>
        <time>2022-08-28T05:55:49Z</time>
      </trkpt>
      <trkpt lat="46.02444" lon="6.92513">
        <ele>1635</ele>
        <time>2022-08-28T05:55:50Z</time>
      </trkpt>
      <trkpt lat="46.02442" lon="6.92512">
        <ele>1635</ele>
        <time>2022-08-28T05:55:51Z</time>
      </trkpt>
      <trkpt lat="46.02441" lon="6.9251">
        <ele>1635</ele>
        <time>2022-08-28T05:55:52Z</time>
      </trkpt>
      <trkpt lat="46.02439" lon="6.92509">
        <ele>1635</ele>
        <time>2022-08-28T05:55:54Z</time>
      </trkpt>
      <trkpt lat="46.02437" lon="6.92507">
        <ele>1635</ele>
        <time>2022-08-28T05:55:55Z</time>
      </trkpt>
      <trkpt lat="46.02436" lon="6.92506">
        <ele>1636</ele>
        <time>2022-08-28T05:55:56Z</time>
      </trkpt>
      <trkpt lat="46.02435" lon="6.92504">
        <ele>1636</ele>
        <time>2022-08-28T05:55:57Z</time>
      </trkpt>
      <trkpt lat="46.02434" lon="6.92503">
        <ele>1636</ele>
        <time>2022-08-28T05:55:59Z</time>
      </trkpt>
      <trkpt lat="46.02433" lon="6.92501">
        <ele>1636</ele>
        <time>2022-08-28T05:56:00Z</time>
      </trkpt>
      <trkpt lat="46.02432" lon="6.925">
        <ele>1636</ele>
        <time>2022-08-28T05:56:01Z</time>
      </trkpt>
      <trkpt lat="46.02431" lon="6.92498">
        <ele>1636</ele>
        <time>2022-08-28T05:56:02Z</time>
      </trkpt>
      <trkpt lat="46.02429" lon="6.92497">
        <ele>1636</ele>
        <time>2022-08-28T05:56:04Z</time>
      </trkpt>
      <trkpt lat="46.02428" lon="6.92497">
        <ele>1636</ele>
        <time>2022-08-28T05:56:06Z</time>
      </trkpt>
      <trkpt lat="46.02427" lon="6.92496">
        <ele>1636</ele>
        <time>2022-08-28T05:56:07Z</time>
      </trkpt>
      <trkpt lat="46.02425" lon="6.92495">
        <ele>1636</ele>
        <time>2022-08-28T05:56:08Z</time>
      </trkpt>
      <trkpt lat="46.02424" lon="6.92494">
        <ele>1636</ele>
        <time>2022-08-28T05:56:09Z</time>
      </trkpt>
      <trkpt lat="46.02423" lon="6.92493">
        <ele>1636</ele>
        <time>2022-08-28T05:56:10Z</time>
      </trkpt>
      <trkpt lat="46.02421" lon="6.92492">
        <ele>1636</ele>
        <time>2022-08-28T05:56:11Z</time>
      </trkpt>
      <trkpt lat="46.0242" lon="6.92491">
        <ele>1636</ele>
        <time>2022-08-28T05:56:12Z</time>
      </trkpt>
      <trkpt lat="46.02419" lon="6.9249">
        <ele>1636</ele>
        <time>2022-08-28T05:56:13Z</time>
      </trkpt>
      <trkpt lat="46.02417" lon="6.92489">
        <ele>1636</ele>
        <time>2022-08-28T05:56:14Z</time>
      </trkpt>
      <trkpt lat="46.02416" lon="6.92488">
        <ele>1636</ele>
        <time>2022-08-28T05:56:16Z</time>
      </trkpt>
      <trkpt lat="46.02415" lon="6.92487">
        <ele>1636</ele>
        <time>2022-08-28T05:56:17Z</time>
      </trkpt>
      <trkpt lat="46.02413" lon="6.92485">
        <ele>1636</ele>
        <time>2022-08-28T05:56:18Z</time>
      </trkpt>
      <trkpt lat="46.02412" lon="6.92484">
        <ele>1636</ele>
        <time>2022-08-28T05:56:19Z</time>
      </trkpt>
      <trkpt lat="46.02411" lon="6.92482">
        <ele>1636</ele>
        <time>2022-08-28T05:56:20Z</time>
      </trkpt>
      <trkpt lat="46.0241" lon="6.92481">
        <ele>1636</ele>
        <time>2022-08-28T05:56:21Z</time>
      </trkpt>
      <trkpt lat="46.02409" lon="6.9248">
        <ele>1636</ele>
        <time>2022-08-28T05:56:23Z</time>
      </trkpt>
      <trkpt lat="46.02407" lon="6.92478">
        <ele>1636</ele>
        <time>2022-08-28T05:56:24Z</time>
      </trkpt>
      <trkpt lat="46.02406" lon="6.92477">
        <ele>1637</ele>
        <time>2022-08-28T05:56:25Z</time>
      </trkpt>
      <trkpt lat="46.02405" lon="6.92476">
        <ele>1637</ele>
        <time>2022-08-28T05:56:26Z</time>
      </trkpt>
      <trkpt lat="46.02404" lon="6.92475">
        <ele>1637</ele>
        <time>2022-08-28T05:56:27Z</time>
      </trkpt>
      <trkpt lat="46.02404" lon="6.92474">
        <ele>1637</ele>
        <time>2022-08-28T05:56:28Z</time>
      </trkpt>
      <trkpt lat="46.02403" lon="6.92473">
        <ele>1637</ele>
        <time>2022-08-28T05:56:30Z</time>
      </trkpt>
      <trkpt lat="46.02402" lon="6.92473">
        <ele>1637</ele>
        <time>2022-08-28T05:56:31Z</time>
      </trkpt>
      <trkpt lat="46.02397" lon="6.92468">
        <ele>1637</ele>
        <time>2022-08-28T05:56:32Z</time>
      </trkpt>
      <trkpt lat="46.02396" lon="6.92468">
        <ele>1637</ele>
        <time>2022-08-28T05:56:33Z</time>
      </trkpt>
      <trkpt lat="46.02396" lon="6.92467">
        <ele>1637</ele>
        <time>2022-08-28T05:56:35Z</time>
      </trkpt>
      <trkpt lat="46.02395" lon="6.92467">
        <ele>1637</ele>
        <time>2022-08-28T05:56:36Z</time>
      </trkpt>
      <trkpt lat="46.02395" lon="6.92466">
        <ele>1637</ele>
        <time>2022-08-28T05:56:37Z</time>
      </trkpt>
      <trkpt lat="46.02394" lon="6.92466">
        <ele>1637</ele>
        <time>2022-08-28T05:56:38Z</time>
      </trkpt>
      <trkpt lat="46.02387" lon="6.92459">
        <ele>1637</ele>
        <time>2022-08-28T05:56:40Z</time>
      </trkpt>
      <trkpt lat="46.02386" lon="6.92457">
        <ele>1637</ele>
        <time>2022-08-28T05:56:42Z</time>
      </trkpt>
      <trkpt lat="46.02385" lon="6.92456">
        <ele>1637</ele>
        <time>2022-08-28T05:56:43Z</time>
      </trkpt>
      <trkpt lat="46.02383" lon="6.92455">
        <ele>1637</ele>
        <time>2022-08-28T05:56:44Z</time>
      </trkpt>
      <trkpt lat="46.02382" lon="6.92454">
        <ele>1637</ele>
        <time>2022-08-28T05:56:45Z</time>
      </trkpt>
      <trkpt lat="46.02381" lon="6.92453">
        <ele>1637</ele>
        <time>2022-08-28T05:56:46Z</time>
      </trkpt>
      <trkpt lat="46.02379" lon="6.92453">
        <ele>1638</ele>
        <time>2022-08-28T05:56:47Z</time>
      </trkpt>
      <trkpt lat="46.02378" lon="6.92453">
        <ele>1638</ele>
        <time>2022-08-28T05:56:48Z</time>
      </trkpt>
      <trkpt lat="46.02376" lon="6.92453">
        <ele>1638</ele>
        <time>2022-08-28T05:56:49Z</time>
      </trkpt>
      <trkpt lat="46.02375" lon="6.92453">
        <ele>1638</ele>
        <time>2022-08-28T05:56:51Z</time>
      </trkpt>
      <trkpt lat="46.02373" lon="6.92453">
        <ele>1638</ele>
        <time>2022-08-28T05:56:52Z</time>
      </trkpt>
      <trkpt lat="46.02372" lon="6.92453">
        <ele>1638</ele>
        <time>2022-08-28T05:56:53Z</time>
      </trkpt>
      <trkpt lat="46.0237" lon="6.92454">
        <ele>1638</ele>
        <time>2022-08-28T05:56:54Z</time>
      </trkpt>
      <trkpt lat="46.02368" lon="6.92455">
        <ele>1638</ele>
        <time>2022-08-28T05:56:55Z</time>
      </trkpt>
      <trkpt lat="46.02366" lon="6.92456">
        <ele>1638</ele>
        <time>2022-08-28T05:56:56Z</time>
      </trkpt>
      <trkpt lat="46.02364" lon="6.92457">
        <ele>1638</ele>
        <time>2022-08-28T05:56:58Z</time>
      </trkpt>
      <trkpt lat="46.02362" lon="6.92458">
        <ele>1638</ele>
        <time>2022-08-28T05:56:59Z</time>
      </trkpt>
      <trkpt lat="46.02361" lon="6.92457">
        <ele>1638</ele>
        <time>2022-08-28T05:57:01Z</time>
      </trkpt>
      <trkpt lat="46.02359" lon="6.92457">
        <ele>1638</ele>
        <time>2022-08-28T05:57:02Z</time>
      </trkpt>
      <trkpt lat="46.02358" lon="6.92456">
        <ele>1638</ele>
        <time>2022-08-28T05:57:03Z</time>
      </trkpt>
      <trkpt lat="46.02356" lon="6.92456">
        <ele>1639</ele>
        <time>2022-08-28T05:57:05Z</time>
      </trkpt>
      <trkpt lat="46.02354" lon="6.92455">
        <ele>1639</ele>
        <time>2022-08-28T05:57:06Z</time>
      </trkpt>
      <trkpt lat="46.02353" lon="6.92455">
        <ele>1639</ele>
        <time>2022-08-28T05:57:07Z</time>
      </trkpt>
      <trkpt lat="46.02352" lon="6.92454">
        <ele>1639</ele>
        <time>2022-08-28T05:57:08Z</time>
      </trkpt>
      <trkpt lat="46.02351" lon="6.92453">
        <ele>1639</ele>
        <time>2022-08-28T05:57:09Z</time>
      </trkpt>
      <trkpt lat="46.0235" lon="6.92452">
        <ele>1639</ele>
        <time>2022-08-28T05:57:10Z</time>
      </trkpt>
      <trkpt lat="46.02349" lon="6.92452">
        <ele>1640</ele>
        <time>2022-08-28T05:57:11Z</time>
      </trkpt>
      <trkpt lat="46.02348" lon="6.92451">
        <ele>1640</ele>
        <time>2022-08-28T05:57:12Z</time>
      </trkpt>
      <trkpt lat="46.02347" lon="6.9245">
        <ele>1640</ele>
        <time>2022-08-28T05:57:13Z</time>
      </trkpt>
      <trkpt lat="46.02346" lon="6.92449">
        <ele>1640</ele>
        <time>2022-08-28T05:57:15Z</time>
      </trkpt>
      <trkpt lat="46.02345" lon="6.92448">
        <ele>1640</ele>
        <time>2022-08-28T05:57:16Z</time>
      </trkpt>
      <trkpt lat="46.02343" lon="6.92447">
        <ele>1640</ele>
        <time>2022-08-28T05:57:17Z</time>
      </trkpt>
      <trkpt lat="46.02342" lon="6.92446">
        <ele>1640</ele>
        <time>2022-08-28T05:57:18Z</time>
      </trkpt>
      <trkpt lat="46.02341" lon="6.92445">
        <ele>1641</ele>
        <time>2022-08-28T05:57:20Z</time>
      </trkpt>
      <trkpt lat="46.02339" lon="6.92444">
        <ele>1641</ele>
        <time>2022-08-28T05:57:22Z</time>
      </trkpt>
      <trkpt lat="46.02338" lon="6.92443">
        <ele>1641</ele>
        <time>2022-08-28T05:57:23Z</time>
      </trkpt>
      <trkpt lat="46.02337" lon="6.92441">
        <ele>1641</ele>
        <time>2022-08-28T05:57:24Z</time>
      </trkpt>
      <trkpt lat="46.02336" lon="6.9244">
        <ele>1641</ele>
        <time>2022-08-28T05:57:25Z</time>
      </trkpt>
      <trkpt lat="46.02335" lon="6.92439">
        <ele>1641</ele>
        <time>2022-08-28T05:57:27Z</time>
      </trkpt>
      <trkpt lat="46.02333" lon="6.92438">
        <ele>1642</ele>
        <time>2022-08-28T05:57:28Z</time>
      </trkpt>
      <trkpt lat="46.02332" lon="6.92437">
        <ele>1642</ele>
        <time>2022-08-28T05:57:29Z</time>
      </trkpt>
      <trkpt lat="46.02331" lon="6.92436">
        <ele>1642</ele>
        <time>2022-08-28T05:57:30Z</time>
      </trkpt>
      <trkpt lat="46.0233" lon="6.92435">
        <ele>1642</ele>
        <time>2022-08-28T05:57:32Z</time>
      </trkpt>
      <trkpt lat="46.02329" lon="6.92434">
        <ele>1642</ele>
        <time>2022-08-28T05:57:33Z</time>
      </trkpt>
      <trkpt lat="46.02327" lon="6.92433">
        <ele>1642</ele>
        <time>2022-08-28T05:57:34Z</time>
      </trkpt>
      <trkpt lat="46.02325" lon="6.92432">
        <ele>1642</ele>
        <time>2022-08-28T05:57:35Z</time>
      </trkpt>
      <trkpt lat="46.02324" lon="6.9243">
        <ele>1643</ele>
        <time>2022-08-28T05:57:36Z</time>
      </trkpt>
      <trkpt lat="46.02322" lon="6.92429">
        <ele>1643</ele>
        <time>2022-08-28T05:57:38Z</time>
      </trkpt>
      <trkpt lat="46.0232" lon="6.92428">
        <ele>1643</ele>
        <time>2022-08-28T05:57:39Z</time>
      </trkpt>
      <trkpt lat="46.02318" lon="6.92426">
        <ele>1643</ele>
        <time>2022-08-28T05:57:40Z</time>
      </trkpt>
      <trkpt lat="46.02317" lon="6.92425">
        <ele>1643</ele>
        <time>2022-08-28T05:57:41Z</time>
      </trkpt>
      <trkpt lat="46.02315" lon="6.92423">
        <ele>1644</ele>
        <time>2022-08-28T05:57:43Z</time>
      </trkpt>
      <trkpt lat="46.02314" lon="6.92422">
        <ele>1644</ele>
        <time>2022-08-28T05:57:44Z</time>
      </trkpt>
      <trkpt lat="46.02312" lon="6.9242">
        <ele>1644</ele>
        <time>2022-08-28T05:57:45Z</time>
      </trkpt>
      <trkpt lat="46.02311" lon="6.92419">
        <ele>1644</ele>
        <time>2022-08-28T05:57:46Z</time>
      </trkpt>
      <trkpt lat="46.0231" lon="6.92419">
        <ele>1644</ele>
        <time>2022-08-28T05:57:48Z</time>
      </trkpt>
      <trkpt lat="46.02308" lon="6.92418">
        <ele>1644</ele>
        <time>2022-08-28T05:57:49Z</time>
      </trkpt>
      <trkpt lat="46.02307" lon="6.92417">
        <ele>1644</ele>
        <time>2022-08-28T05:57:50Z</time>
      </trkpt>
      <trkpt lat="46.02306" lon="6.92416">
        <ele>1644</ele>
        <time>2022-08-28T05:57:51Z</time>
      </trkpt>
      <trkpt lat="46.02305" lon="6.92416">
        <ele>1644</ele>
        <time>2022-08-28T05:57:53Z</time>
      </trkpt>
      <trkpt lat="46.02303" lon="6.92415">
        <ele>1645</ele>
        <time>2022-08-28T05:57:54Z</time>
      </trkpt>
      <trkpt lat="46.02302" lon="6.92414">
        <ele>1645</ele>
        <time>2022-08-28T05:57:55Z</time>
      </trkpt>
      <trkpt lat="46.02301" lon="6.92412">
        <ele>1645</ele>
        <time>2022-08-28T05:57:56Z</time>
      </trkpt>
      <trkpt lat="46.023" lon="6.92411">
        <ele>1645</ele>
        <time>2022-08-28T05:57:58Z</time>
      </trkpt>
      <trkpt lat="46.02299" lon="6.9241">
        <ele>1646</ele>
        <time>2022-08-28T05:58:00Z</time>
      </trkpt>
      <trkpt lat="46.02297" lon="6.92409">
        <ele>1646</ele>
        <time>2022-08-28T05:58:01Z</time>
      </trkpt>
      <trkpt lat="46.02296" lon="6.92407">
        <ele>1646</ele>
        <time>2022-08-28T05:58:02Z</time>
      </trkpt>
      <trkpt lat="46.02295" lon="6.92406">
        <ele>1646</ele>
        <time>2022-08-28T05:58:03Z</time>
      </trkpt>
      <trkpt lat="46.02294" lon="6.92405">
        <ele>1646</ele>
        <time>2022-08-28T05:58:05Z</time>
      </trkpt>
      <trkpt lat="46.02292" lon="6.92404">
        <ele>1646</ele>
        <time>2022-08-28T05:58:06Z</time>
      </trkpt>
      <trkpt lat="46.02291" lon="6.92403">
        <ele>1646</ele>
        <time>2022-08-28T05:58:07Z</time>
      </trkpt>
      <trkpt lat="46.0229" lon="6.92401">
        <ele>1646</ele>
        <time>2022-08-28T05:58:08Z</time>
      </trkpt>
      <trkpt lat="46.02288" lon="6.924">
        <ele>1646</ele>
        <time>2022-08-28T05:58:10Z</time>
      </trkpt>
      <trkpt lat="46.02287" lon="6.92399">
        <ele>1646</ele>
        <time>2022-08-28T05:58:11Z</time>
      </trkpt>
      <trkpt lat="46.02285" lon="6.92398">
        <ele>1646</ele>
        <time>2022-08-28T05:58:12Z</time>
      </trkpt>
      <trkpt lat="46.02283" lon="6.92396">
        <ele>1646</ele>
        <time>2022-08-28T05:58:13Z</time>
      </trkpt>
      <trkpt lat="46.02282" lon="6.92395">
        <ele>1647</ele>
        <time>2022-08-28T05:58:14Z</time>
      </trkpt>
      <trkpt lat="46.0228" lon="6.92394">
        <ele>1647</ele>
        <time>2022-08-28T05:58:16Z</time>
      </trkpt>
      <trkpt lat="46.02278" lon="6.92392">
        <ele>1647</ele>
        <time>2022-08-28T05:58:17Z</time>
      </trkpt>
      <trkpt lat="46.02277" lon="6.92391">
        <ele>1647</ele>
        <time>2022-08-28T05:58:18Z</time>
      </trkpt>
      <trkpt lat="46.02276" lon="6.9239">
        <ele>1647</ele>
        <time>2022-08-28T05:58:19Z</time>
      </trkpt>
      <trkpt lat="46.02275" lon="6.92389">
        <ele>1647</ele>
        <time>2022-08-28T05:58:21Z</time>
      </trkpt>
      <trkpt lat="46.02274" lon="6.92388">
        <ele>1647</ele>
        <time>2022-08-28T05:58:22Z</time>
      </trkpt>
      <trkpt lat="46.02273" lon="6.92387">
        <ele>1647</ele>
        <time>2022-08-28T05:58:23Z</time>
      </trkpt>
      <trkpt lat="46.02273" lon="6.92386">
        <ele>1648</ele>
        <time>2022-08-28T05:58:24Z</time>
      </trkpt>
      <trkpt lat="46.02272" lon="6.92385">
        <ele>1648</ele>
        <time>2022-08-28T05:58:25Z</time>
      </trkpt>
      <trkpt lat="46.02271" lon="6.92384">
        <ele>1648</ele>
        <time>2022-08-28T05:58:26Z</time>
      </trkpt>
      <trkpt lat="46.02269" lon="6.92382">
        <ele>1648</ele>
        <time>2022-08-28T05:58:27Z</time>
      </trkpt>
      <trkpt lat="46.02268" lon="6.92381">
        <ele>1648</ele>
        <time>2022-08-28T05:58:28Z</time>
      </trkpt>
      <trkpt lat="46.02267" lon="6.9238">
        <ele>1648</ele>
        <time>2022-08-28T05:58:29Z</time>
      </trkpt>
      <trkpt lat="46.02265" lon="6.92378">
        <ele>1648</ele>
        <time>2022-08-28T05:58:31Z</time>
      </trkpt>
      <trkpt lat="46.02264" lon="6.92377">
        <ele>1648</ele>
        <time>2022-08-28T05:58:32Z</time>
      </trkpt>
      <trkpt lat="46.02263" lon="6.92376">
        <ele>1648</ele>
        <time>2022-08-28T05:58:33Z</time>
      </trkpt>
      <trkpt lat="46.02261" lon="6.92374">
        <ele>1648</ele>
        <time>2022-08-28T05:58:34Z</time>
      </trkpt>
      <trkpt lat="46.02259" lon="6.92373">
        <ele>1648</ele>
        <time>2022-08-28T05:58:36Z</time>
      </trkpt>
      <trkpt lat="46.02258" lon="6.92372">
        <ele>1649</ele>
        <time>2022-08-28T05:58:38Z</time>
      </trkpt>
      <trkpt lat="46.02256" lon="6.92371">
        <ele>1649</ele>
        <time>2022-08-28T05:58:39Z</time>
      </trkpt>
      <trkpt lat="46.02254" lon="6.9237">
        <ele>1649</ele>
        <time>2022-08-28T05:58:40Z</time>
      </trkpt>
      <trkpt lat="46.02247" lon="6.92363">
        <ele>1650</ele>
        <time>2022-08-28T05:58:48Z</time>
      </trkpt>
      <trkpt lat="46.02245" lon="6.92362">
        <ele>1650</ele>
        <time>2022-08-28T05:58:49Z</time>
      </trkpt>
      <trkpt lat="46.02244" lon="6.92361">
        <ele>1650</ele>
        <time>2022-08-28T05:58:50Z</time>
      </trkpt>
      <trkpt lat="46.02243" lon="6.9236">
        <ele>1651</ele>
        <time>2022-08-28T05:58:51Z</time>
      </trkpt>
      <trkpt lat="46.02242" lon="6.92359">
        <ele>1651</ele>
        <time>2022-08-28T05:58:53Z</time>
      </trkpt>
      <trkpt lat="46.02241" lon="6.92357">
        <ele>1651</ele>
        <time>2022-08-28T05:58:55Z</time>
      </trkpt>
      <trkpt lat="46.0224" lon="6.92356">
        <ele>1651</ele>
        <time>2022-08-28T05:58:56Z</time>
      </trkpt>
      <trkpt lat="46.02239" lon="6.92355">
        <ele>1651</ele>
        <time>2022-08-28T05:58:57Z</time>
      </trkpt>
      <trkpt lat="46.02238" lon="6.92355">
        <ele>1651</ele>
        <time>2022-08-28T05:58:58Z</time>
      </trkpt>
      <trkpt lat="46.02236" lon="6.92354">
        <ele>1652</ele>
        <time>2022-08-28T05:58:59Z</time>
      </trkpt>
      <trkpt lat="46.02235" lon="6.92353">
        <ele>1652</ele>
        <time>2022-08-28T05:59:00Z</time>
      </trkpt>
      <trkpt lat="46.02234" lon="6.92352">
        <ele>1652</ele>
        <time>2022-08-28T05:59:02Z</time>
      </trkpt>
      <trkpt lat="46.02232" lon="6.92351">
        <ele>1652</ele>
        <time>2022-08-28T05:59:03Z</time>
      </trkpt>
      <trkpt lat="46.02231" lon="6.92351">
        <ele>1652</ele>
        <time>2022-08-28T05:59:04Z</time>
      </trkpt>
      <trkpt lat="46.0223" lon="6.9235">
        <ele>1652</ele>
        <time>2022-08-28T05:59:05Z</time>
      </trkpt>
      <trkpt lat="46.02229" lon="6.92349">
        <ele>1652</ele>
        <time>2022-08-28T05:59:06Z</time>
      </trkpt>
      <trkpt lat="46.02227" lon="6.92348">
        <ele>1652</ele>
        <time>2022-08-28T05:59:08Z</time>
      </trkpt>
      <trkpt lat="46.02226" lon="6.92347">
        <ele>1652</ele>
        <time>2022-08-28T05:59:09Z</time>
      </trkpt>
      <trkpt lat="46.02225" lon="6.92346">
        <ele>1652</ele>
        <time>2022-08-28T05:59:10Z</time>
      </trkpt>
      <trkpt lat="46.02224" lon="6.92345">
        <ele>1653</ele>
        <time>2022-08-28T05:59:11Z</time>
      </trkpt>
      <trkpt lat="46.02222" lon="6.92344">
        <ele>1653</ele>
        <time>2022-08-28T05:59:13Z</time>
      </trkpt>
      <trkpt lat="46.02221" lon="6.92343">
        <ele>1653</ele>
        <time>2022-08-28T05:59:14Z</time>
      </trkpt>
      <trkpt lat="46.0222" lon="6.92341">
        <ele>1653</ele>
        <time>2022-08-28T05:59:15Z</time>
      </trkpt>
      <trkpt lat="46.02218" lon="6.9234">
        <ele>1654</ele>
        <time>2022-08-28T05:59:16Z</time>
      </trkpt>
      <trkpt lat="46.02216" lon="6.92339">
        <ele>1654</ele>
        <time>2022-08-28T05:59:18Z</time>
      </trkpt>
      <trkpt lat="46.02215" lon="6.92338">
        <ele>1654</ele>
        <time>2022-08-28T05:59:19Z</time>
      </trkpt>
      <trkpt lat="46.02213" lon="6.92337">
        <ele>1654</ele>
        <time>2022-08-28T05:59:20Z</time>
      </trkpt>
      <trkpt lat="46.02205" lon="6.9233">
        <ele>1654</ele>
        <time>2022-08-28T05:59:28Z</time>
      </trkpt>
      <trkpt lat="46.02203" lon="6.92328">
        <ele>1655</ele>
        <time>2022-08-28T05:59:29Z</time>
      </trkpt>
      <trkpt lat="46.02202" lon="6.92327">
        <ele>1655</ele>
        <time>2022-08-28T05:59:30Z</time>
      </trkpt>
      <trkpt lat="46.02201" lon="6.92326">
        <ele>1655</ele>
        <time>2022-08-28T05:59:31Z</time>
      </trkpt>
      <trkpt lat="46.022" lon="6.92325">
        <ele>1655</ele>
        <time>2022-08-28T05:59:33Z</time>
      </trkpt>
      <trkpt lat="46.02199" lon="6.92324">
        <ele>1655</ele>
        <time>2022-08-28T05:59:35Z</time>
      </trkpt>
      <trkpt lat="46.02198" lon="6.92322">
        <ele>1655</ele>
        <time>2022-08-28T05:59:36Z</time>
      </trkpt>
      <trkpt lat="46.02197" lon="6.92321">
        <ele>1655</ele>
        <time>2022-08-28T05:59:37Z</time>
      </trkpt>
      <trkpt lat="46.02195" lon="6.9232">
        <ele>1655</ele>
        <time>2022-08-28T05:59:38Z</time>
      </trkpt>
      <trkpt lat="46.02194" lon="6.92318">
        <ele>1655</ele>
        <time>2022-08-28T05:59:39Z</time>
      </trkpt>
      <trkpt lat="46.02193" lon="6.92317">
        <ele>1655</ele>
        <time>2022-08-28T05:59:40Z</time>
      </trkpt>
      <trkpt lat="46.02191" lon="6.92316">
        <ele>1656</ele>
        <time>2022-08-28T05:59:42Z</time>
      </trkpt>
      <trkpt lat="46.0219" lon="6.92314">
        <ele>1656</ele>
        <time>2022-08-28T05:59:43Z</time>
      </trkpt>
      <trkpt lat="46.02189" lon="6.92313">
        <ele>1656</ele>
        <time>2022-08-28T05:59:44Z</time>
      </trkpt>
      <trkpt lat="46.0218" lon="6.92307">
        <ele>1656</ele>
        <time>2022-08-28T05:59:52Z</time>
      </trkpt>
      <trkpt lat="46.02179" lon="6.92306">
        <ele>1656</ele>
        <time>2022-08-28T05:59:54Z</time>
      </trkpt>
      <trkpt lat="46.02177" lon="6.92304">
        <ele>1656</ele>
        <time>2022-08-28T05:59:55Z</time>
      </trkpt>
      <trkpt lat="46.02176" lon="6.92303">
        <ele>1656</ele>
        <time>2022-08-28T05:59:56Z</time>
      </trkpt>
      <trkpt lat="46.02174" lon="6.92301">
        <ele>1656</ele>
        <time>2022-08-28T05:59:57Z</time>
      </trkpt>
      <trkpt lat="46.02173" lon="6.923">
        <ele>1656</ele>
        <time>2022-08-28T05:59:59Z</time>
      </trkpt>
      <trkpt lat="46.02172" lon="6.92299">
        <ele>1656</ele>
        <time>2022-08-28T06:00:00Z</time>
      </trkpt>
      <trkpt lat="46.02163" lon="6.92291">
        <ele>1658</ele>
        <time>2022-08-28T06:00:08Z</time>
      </trkpt>
      <trkpt lat="46.02162" lon="6.9229">
        <ele>1658</ele>
        <time>2022-08-28T06:00:10Z</time>
      </trkpt>
      <trkpt lat="46.0216" lon="6.92289">
        <ele>1658</ele>
        <time>2022-08-28T06:00:11Z</time>
      </trkpt>
      <trkpt lat="46.02159" lon="6.92287">
        <ele>1658</ele>
        <time>2022-08-28T06:00:13Z</time>
      </trkpt>
      <trkpt lat="46.02158" lon="6.92286">
        <ele>1659</ele>
        <time>2022-08-28T06:00:15Z</time>
      </trkpt>
      <trkpt lat="46.02157" lon="6.92285">
        <ele>1659</ele>
        <time>2022-08-28T06:00:16Z</time>
      </trkpt>
      <trkpt lat="46.02155" lon="6.92283">
        <ele>1659</ele>
        <time>2022-08-28T06:00:17Z</time>
      </trkpt>
      <trkpt lat="46.02154" lon="6.92282">
        <ele>1659</ele>
        <time>2022-08-28T06:00:18Z</time>
      </trkpt>
      <trkpt lat="46.02153" lon="6.92281">
        <ele>1659</ele>
        <time>2022-08-28T06:00:19Z</time>
      </trkpt>
      <trkpt lat="46.02152" lon="6.92279">
        <ele>1659</ele>
        <time>2022-08-28T06:00:20Z</time>
      </trkpt>
      <trkpt lat="46.0215" lon="6.92278">
        <ele>1659</ele>
        <time>2022-08-28T06:00:22Z</time>
      </trkpt>
      <trkpt lat="46.02149" lon="6.92276">
        <ele>1659</ele>
        <time>2022-08-28T06:00:23Z</time>
      </trkpt>
      <trkpt lat="46.02148" lon="6.92275">
        <ele>1659</ele>
        <time>2022-08-28T06:00:24Z</time>
      </trkpt>
      <trkpt lat="46.0214" lon="6.92268">
        <ele>1659</ele>
        <time>2022-08-28T06:00:32Z</time>
      </trkpt>
      <trkpt lat="46.02139" lon="6.92266">
        <ele>1660</ele>
        <time>2022-08-28T06:00:34Z</time>
      </trkpt>
      <trkpt lat="46.02137" lon="6.92265">
        <ele>1660</ele>
        <time>2022-08-28T06:00:35Z</time>
      </trkpt>
      <trkpt lat="46.02136" lon="6.92264">
        <ele>1660</ele>
        <time>2022-08-28T06:00:36Z</time>
      </trkpt>
      <trkpt lat="46.02135" lon="6.92263">
        <ele>1660</ele>
        <time>2022-08-28T06:00:37Z</time>
      </trkpt>
      <trkpt lat="46.02133" lon="6.92262">
        <ele>1660</ele>
        <time>2022-08-28T06:00:39Z</time>
      </trkpt>
      <trkpt lat="46.02132" lon="6.92261">
        <ele>1660</ele>
        <time>2022-08-28T06:00:40Z</time>
      </trkpt>
      <trkpt lat="46.02131" lon="6.9226">
        <ele>1660</ele>
        <time>2022-08-28T06:00:41Z</time>
      </trkpt>
      <trkpt lat="46.02129" lon="6.92259">
        <ele>1661</ele>
        <time>2022-08-28T06:00:42Z</time>
      </trkpt>
      <trkpt lat="46.02128" lon="6.92258">
        <ele>1661</ele>
        <time>2022-08-28T06:00:44Z</time>
      </trkpt>
      <trkpt lat="46.02127" lon="6.92258">
        <ele>1661</ele>
        <time>2022-08-28T06:00:45Z</time>
      </trkpt>
      <trkpt lat="46.02126" lon="6.92257">
        <ele>1661</ele>
        <time>2022-08-28T06:00:46Z</time>
      </trkpt>
      <trkpt lat="46.02125" lon="6.92256">
        <ele>1661</ele>
        <time>2022-08-28T06:00:47Z</time>
      </trkpt>
      <trkpt lat="46.02124" lon="6.92255">
        <ele>1661</ele>
        <time>2022-08-28T06:00:48Z</time>
      </trkpt>
      <trkpt lat="46.02123" lon="6.92255">
        <ele>1661</ele>
        <time>2022-08-28T06:00:49Z</time>
      </trkpt>
      <trkpt lat="46.02121" lon="6.92253">
        <ele>1661</ele>
        <time>2022-08-28T06:00:50Z</time>
      </trkpt>
      <trkpt lat="46.0212" lon="6.92252">
        <ele>1661</ele>
        <time>2022-08-28T06:00:51Z</time>
      </trkpt>
      <trkpt lat="46.02118" lon="6.92251">
        <ele>1661</ele>
        <time>2022-08-28T06:00:52Z</time>
      </trkpt>
      <trkpt lat="46.02116" lon="6.92249">
        <ele>1661</ele>
        <time>2022-08-28T06:00:54Z</time>
      </trkpt>
      <trkpt lat="46.02114" lon="6.92247">
        <ele>1661</ele>
        <time>2022-08-28T06:00:56Z</time>
      </trkpt>
      <trkpt lat="46.0211" lon="6.92244">
        <ele>1661</ele>
        <time>2022-08-28T06:00:59Z</time>
      </trkpt>
      <trkpt lat="46.02107" lon="6.92242">
        <ele>1661</ele>
        <time>2022-08-28T06:01:01Z</time>
      </trkpt>
      <trkpt lat="46.02106" lon="6.92242">
        <ele>1661</ele>
        <time>2022-08-28T06:01:02Z</time>
      </trkpt>
      <trkpt lat="46.02104" lon="6.92241">
        <ele>1661</ele>
        <time>2022-08-28T06:01:04Z</time>
      </trkpt>
      <trkpt lat="46.02103" lon="6.92241">
        <ele>1661</ele>
        <time>2022-08-28T06:01:05Z</time>
      </trkpt>
      <trkpt lat="46.02102" lon="6.9224">
        <ele>1662</ele>
        <time>2022-08-28T06:01:06Z</time>
      </trkpt>
      <trkpt lat="46.021" lon="6.92239">
        <ele>1662</ele>
        <time>2022-08-28T06:01:08Z</time>
      </trkpt>
      <trkpt lat="46.02099" lon="6.92239">
        <ele>1662</ele>
        <time>2022-08-28T06:01:09Z</time>
      </trkpt>
      <trkpt lat="46.02098" lon="6.92238">
        <ele>1662</ele>
        <time>2022-08-28T06:01:10Z</time>
      </trkpt>
      <trkpt lat="46.02096" lon="6.92237">
        <ele>1662</ele>
        <time>2022-08-28T06:01:11Z</time>
      </trkpt>
      <trkpt lat="46.02094" lon="6.92236">
        <ele>1662</ele>
        <time>2022-08-28T06:01:13Z</time>
      </trkpt>
      <trkpt lat="46.02092" lon="6.92235">
        <ele>1663</ele>
        <time>2022-08-28T06:01:14Z</time>
      </trkpt>
      <trkpt lat="46.0209" lon="6.92234">
        <ele>1663</ele>
        <time>2022-08-28T06:01:17Z</time>
      </trkpt>
      <trkpt lat="46.02087" lon="6.92233">
        <ele>1663</ele>
        <time>2022-08-28T06:01:19Z</time>
      </trkpt>
      <trkpt lat="46.02085" lon="6.92231">
        <ele>1663</ele>
        <time>2022-08-28T06:01:21Z</time>
      </trkpt>
      <trkpt lat="46.02083" lon="6.92229">
        <ele>1664</ele>
        <time>2022-08-28T06:01:23Z</time>
      </trkpt>
      <trkpt lat="46.0208" lon="6.92228">
        <ele>1664</ele>
        <time>2022-08-28T06:01:25Z</time>
      </trkpt>
      <trkpt lat="46.02078" lon="6.92226">
        <ele>1664</ele>
        <time>2022-08-28T06:01:27Z</time>
      </trkpt>
      <trkpt lat="46.02075" lon="6.92225">
        <ele>1664</ele>
        <time>2022-08-28T06:01:29Z</time>
      </trkpt>
      <trkpt lat="46.02073" lon="6.92224">
        <ele>1664</ele>
        <time>2022-08-28T06:01:31Z</time>
      </trkpt>
      <trkpt lat="46.0207" lon="6.92222">
        <ele>1665</ele>
        <time>2022-08-28T06:01:33Z</time>
      </trkpt>
      <trkpt lat="46.02067" lon="6.92221">
        <ele>1665</ele>
        <time>2022-08-28T06:01:36Z</time>
      </trkpt>
      <trkpt lat="46.02065" lon="6.92221">
        <ele>1665</ele>
        <time>2022-08-28T06:01:38Z</time>
      </trkpt>
      <trkpt lat="46.02063" lon="6.9222">
        <ele>1665</ele>
        <time>2022-08-28T06:01:40Z</time>
      </trkpt>
      <trkpt lat="46.02061" lon="6.92218">
        <ele>1666</ele>
        <time>2022-08-28T06:01:42Z</time>
      </trkpt>
      <trkpt lat="46.02059" lon="6.92217">
        <ele>1666</ele>
        <time>2022-08-28T06:01:44Z</time>
      </trkpt>
      <trkpt lat="46.02056" lon="6.92216">
        <ele>1666</ele>
        <time>2022-08-28T06:01:46Z</time>
      </trkpt>
      <trkpt lat="46.02053" lon="6.92215">
        <ele>1666</ele>
        <time>2022-08-28T06:01:48Z</time>
      </trkpt>
      <trkpt lat="46.0205" lon="6.92213">
        <ele>1666</ele>
        <time>2022-08-28T06:01:50Z</time>
      </trkpt>
      <trkpt lat="46.02049" lon="6.92212">
        <ele>1666</ele>
        <time>2022-08-28T06:01:52Z</time>
      </trkpt>
      <trkpt lat="46.02046" lon="6.9221">
        <ele>1666</ele>
        <time>2022-08-28T06:01:54Z</time>
      </trkpt>
      <trkpt lat="46.02044" lon="6.92209">
        <ele>1667</ele>
        <time>2022-08-28T06:01:56Z</time>
      </trkpt>
      <trkpt lat="46.02042" lon="6.92208">
        <ele>1667</ele>
        <time>2022-08-28T06:01:58Z</time>
      </trkpt>
      <trkpt lat="46.02039" lon="6.92207">
        <ele>1667</ele>
        <time>2022-08-28T06:02:00Z</time>
      </trkpt>
      <trkpt lat="46.02038" lon="6.92205">
        <ele>1668</ele>
        <time>2022-08-28T06:02:02Z</time>
      </trkpt>
      <trkpt lat="46.02035" lon="6.92204">
        <ele>1668</ele>
        <time>2022-08-28T06:02:04Z</time>
      </trkpt>
      <trkpt lat="46.02033" lon="6.92203">
        <ele>1668</ele>
        <time>2022-08-28T06:02:06Z</time>
      </trkpt>
      <trkpt lat="46.02031" lon="6.92202">
        <ele>1668</ele>
        <time>2022-08-28T06:02:08Z</time>
      </trkpt>
      <trkpt lat="46.02029" lon="6.922">
        <ele>1669</ele>
        <time>2022-08-28T06:02:10Z</time>
      </trkpt>
      <trkpt lat="46.02027" lon="6.92198">
        <ele>1669</ele>
        <time>2022-08-28T06:02:12Z</time>
      </trkpt>
      <trkpt lat="46.02025" lon="6.92198">
        <ele>1669</ele>
        <time>2022-08-28T06:02:14Z</time>
      </trkpt>
      <trkpt lat="46.02023" lon="6.92197">
        <ele>1669</ele>
        <time>2022-08-28T06:02:16Z</time>
      </trkpt>
      <trkpt lat="46.02021" lon="6.92196">
        <ele>1669</ele>
        <time>2022-08-28T06:02:17Z</time>
      </trkpt>
      <trkpt lat="46.02018" lon="6.92196">
        <ele>1669</ele>
        <time>2022-08-28T06:02:20Z</time>
      </trkpt>
      <trkpt lat="46.02016" lon="6.92196">
        <ele>1670</ele>
        <time>2022-08-28T06:02:22Z</time>
      </trkpt>
      <trkpt lat="46.02013" lon="6.92195">
        <ele>1670</ele>
        <time>2022-08-28T06:02:24Z</time>
      </trkpt>
      <trkpt lat="46.02011" lon="6.92194">
        <ele>1670</ele>
        <time>2022-08-28T06:02:26Z</time>
      </trkpt>
      <trkpt lat="46.02008" lon="6.92193">
        <ele>1670</ele>
        <time>2022-08-28T06:02:28Z</time>
      </trkpt>
      <trkpt lat="46.02005" lon="6.92193">
        <ele>1670</ele>
        <time>2022-08-28T06:02:30Z</time>
      </trkpt>
      <trkpt lat="46.02003" lon="6.92192">
        <ele>1670</ele>
        <time>2022-08-28T06:02:32Z</time>
      </trkpt>
      <trkpt lat="46.02001" lon="6.92192">
        <ele>1671</ele>
        <time>2022-08-28T06:02:34Z</time>
      </trkpt>
      <trkpt lat="46.01998" lon="6.92192">
        <ele>1671</ele>
        <time>2022-08-28T06:02:36Z</time>
      </trkpt>
      <trkpt lat="46.01989" lon="6.92191">
        <ele>1671</ele>
        <time>2022-08-28T06:02:43Z</time>
      </trkpt>
      <trkpt lat="46.01979" lon="6.9219">
        <ele>1671</ele>
        <time>2022-08-28T06:02:50Z</time>
      </trkpt>
      <trkpt lat="46.01976" lon="6.92189">
        <ele>1671</ele>
        <time>2022-08-28T06:02:52Z</time>
      </trkpt>
      <trkpt lat="46.01973" lon="6.92188">
        <ele>1672</ele>
        <time>2022-08-28T06:02:54Z</time>
      </trkpt>
      <trkpt lat="46.01972" lon="6.92188">
        <ele>1672</ele>
        <time>2022-08-28T06:02:56Z</time>
      </trkpt>
      <trkpt lat="46.0197" lon="6.92187">
        <ele>1672</ele>
        <time>2022-08-28T06:02:58Z</time>
      </trkpt>
      <trkpt lat="46.01969" lon="6.92186">
        <ele>1672</ele>
        <time>2022-08-28T06:02:59Z</time>
      </trkpt>
      <trkpt lat="46.01967" lon="6.92186">
        <ele>1672</ele>
        <time>2022-08-28T06:03:00Z</time>
      </trkpt>
      <trkpt lat="46.01966" lon="6.92185">
        <ele>1672</ele>
        <time>2022-08-28T06:03:01Z</time>
      </trkpt>
      <trkpt lat="46.01964" lon="6.92184">
        <ele>1672</ele>
        <time>2022-08-28T06:03:02Z</time>
      </trkpt>
      <trkpt lat="46.01963" lon="6.92181">
        <ele>1672</ele>
        <time>2022-08-28T06:03:03Z</time>
      </trkpt>
      <trkpt lat="46.0196" lon="6.92177">
        <ele>1672</ele>
        <time>2022-08-28T06:03:06Z</time>
      </trkpt>
      <trkpt lat="46.01959" lon="6.92174">
        <ele>1672</ele>
        <time>2022-08-28T06:03:08Z</time>
      </trkpt>
      <trkpt lat="46.01957" lon="6.92171">
        <ele>1673</ele>
        <time>2022-08-28T06:03:10Z</time>
      </trkpt>
      <trkpt lat="46.01956" lon="6.92168">
        <ele>1673</ele>
        <time>2022-08-28T06:03:12Z</time>
      </trkpt>
      <trkpt lat="46.01954" lon="6.92165">
        <ele>1673</ele>
        <time>2022-08-28T06:03:14Z</time>
      </trkpt>
      <trkpt lat="46.01953" lon="6.92162">
        <ele>1673</ele>
        <time>2022-08-28T06:03:16Z</time>
      </trkpt>
      <trkpt lat="46.01951" lon="6.92159">
        <ele>1673</ele>
        <time>2022-08-28T06:03:18Z</time>
      </trkpt>
      <trkpt lat="46.01949" lon="6.92156">
        <ele>1673</ele>
        <time>2022-08-28T06:03:20Z</time>
      </trkpt>
      <trkpt lat="46.01947" lon="6.92154">
        <ele>1673</ele>
        <time>2022-08-28T06:03:22Z</time>
      </trkpt>
      <trkpt lat="46.01945" lon="6.92152">
        <ele>1673</ele>
        <time>2022-08-28T06:03:24Z</time>
      </trkpt>
      <trkpt lat="46.01943" lon="6.92151">
        <ele>1673</ele>
        <time>2022-08-28T06:03:26Z</time>
      </trkpt>
      <trkpt lat="46.01941" lon="6.92149">
        <ele>1673</ele>
        <time>2022-08-28T06:03:28Z</time>
      </trkpt>
      <trkpt lat="46.01938" lon="6.92148">
        <ele>1673</ele>
        <time>2022-08-28T06:03:30Z</time>
      </trkpt>
      <trkpt lat="46.01936" lon="6.92146">
        <ele>1673</ele>
        <time>2022-08-28T06:03:32Z</time>
      </trkpt>
      <trkpt lat="46.01934" lon="6.92144">
        <ele>1673</ele>
        <time>2022-08-28T06:03:34Z</time>
      </trkpt>
      <trkpt lat="46.01932" lon="6.92142">
        <ele>1674</ele>
        <time>2022-08-28T06:03:36Z</time>
      </trkpt>
      <trkpt lat="46.01929" lon="6.9214">
        <ele>1674</ele>
        <time>2022-08-28T06:03:38Z</time>
      </trkpt>
      <trkpt lat="46.01927" lon="6.92138">
        <ele>1674</ele>
        <time>2022-08-28T06:03:40Z</time>
      </trkpt>
      <trkpt lat="46.01925" lon="6.92136">
        <ele>1674</ele>
        <time>2022-08-28T06:03:41Z</time>
      </trkpt>
      <trkpt lat="46.01923" lon="6.92134">
        <ele>1674</ele>
        <time>2022-08-28T06:03:44Z</time>
      </trkpt>
      <trkpt lat="46.01921" lon="6.92133">
        <ele>1674</ele>
        <time>2022-08-28T06:03:46Z</time>
      </trkpt>
      <trkpt lat="46.01919" lon="6.9213">
        <ele>1674</ele>
        <time>2022-08-28T06:03:48Z</time>
      </trkpt>
      <trkpt lat="46.01917" lon="6.92128">
        <ele>1674</ele>
        <time>2022-08-28T06:03:50Z</time>
      </trkpt>
      <trkpt lat="46.01914" lon="6.92126">
        <ele>1674</ele>
        <time>2022-08-28T06:03:52Z</time>
      </trkpt>
      <trkpt lat="46.01912" lon="6.92124">
        <ele>1674</ele>
        <time>2022-08-28T06:03:54Z</time>
      </trkpt>
      <trkpt lat="46.0191" lon="6.92121">
        <ele>1676</ele>
        <time>2022-08-28T06:03:56Z</time>
      </trkpt>
      <trkpt lat="46.01908" lon="6.92119">
        <ele>1676</ele>
        <time>2022-08-28T06:03:58Z</time>
      </trkpt>
      <trkpt lat="46.01906" lon="6.92117">
        <ele>1676</ele>
        <time>2022-08-28T06:04:00Z</time>
      </trkpt>
      <trkpt lat="46.01904" lon="6.92116">
        <ele>1675</ele>
        <time>2022-08-28T06:04:02Z</time>
      </trkpt>
      <trkpt lat="46.01903" lon="6.92114">
        <ele>1676</ele>
        <time>2022-08-28T06:04:03Z</time>
      </trkpt>
      <trkpt lat="46.01901" lon="6.92113">
        <ele>1676</ele>
        <time>2022-08-28T06:04:04Z</time>
      </trkpt>
      <trkpt lat="46.019" lon="6.92111">
        <ele>1676</ele>
        <time>2022-08-28T06:04:06Z</time>
      </trkpt>
      <trkpt lat="46.01898" lon="6.92109">
        <ele>1676</ele>
        <time>2022-08-28T06:04:07Z</time>
      </trkpt>
      <trkpt lat="46.01897" lon="6.92106">
        <ele>1676</ele>
        <time>2022-08-28T06:04:09Z</time>
      </trkpt>
      <trkpt lat="46.01895" lon="6.92103">
        <ele>1676</ele>
        <time>2022-08-28T06:04:11Z</time>
      </trkpt>
      <trkpt lat="46.01893" lon="6.92101">
        <ele>1676</ele>
        <time>2022-08-28T06:04:13Z</time>
      </trkpt>
      <trkpt lat="46.01891" lon="6.921">
        <ele>1676</ele>
        <time>2022-08-28T06:04:15Z</time>
      </trkpt>
      <trkpt lat="46.01888" lon="6.92101">
        <ele>1676</ele>
        <time>2022-08-28T06:04:17Z</time>
      </trkpt>
      <trkpt lat="46.01886" lon="6.92103">
        <ele>1676</ele>
        <time>2022-08-28T06:04:19Z</time>
      </trkpt>
      <trkpt lat="46.01884" lon="6.92103">
        <ele>1676</ele>
        <time>2022-08-28T06:04:21Z</time>
      </trkpt>
      <trkpt lat="46.01882" lon="6.92103">
        <ele>1676</ele>
        <time>2022-08-28T06:04:23Z</time>
      </trkpt>
      <trkpt lat="46.01879" lon="6.92101">
        <ele>1676</ele>
        <time>2022-08-28T06:04:25Z</time>
      </trkpt>
      <trkpt lat="46.01876" lon="6.92099">
        <ele>1676</ele>
        <time>2022-08-28T06:04:27Z</time>
      </trkpt>
      <trkpt lat="46.01874" lon="6.92098">
        <ele>1676</ele>
        <time>2022-08-28T06:04:29Z</time>
      </trkpt>
      <trkpt lat="46.01871" lon="6.92096">
        <ele>1677</ele>
        <time>2022-08-28T06:04:31Z</time>
      </trkpt>
      <trkpt lat="46.01869" lon="6.92095">
        <ele>1677</ele>
        <time>2022-08-28T06:04:33Z</time>
      </trkpt>
      <trkpt lat="46.01866" lon="6.92095">
        <ele>1677</ele>
        <time>2022-08-28T06:04:35Z</time>
      </trkpt>
      <trkpt lat="46.01864" lon="6.92093">
        <ele>1677</ele>
        <time>2022-08-28T06:04:37Z</time>
      </trkpt>
      <trkpt lat="46.01863" lon="6.92092">
        <ele>1677</ele>
        <time>2022-08-28T06:04:39Z</time>
      </trkpt>
      <trkpt lat="46.0186" lon="6.92091">
        <ele>1678</ele>
        <time>2022-08-28T06:04:42Z</time>
      </trkpt>
      <trkpt lat="46.01851" lon="6.92091">
        <ele>1678</ele>
        <time>2022-08-28T06:04:49Z</time>
      </trkpt>
      <trkpt lat="46.0185" lon="6.92089">
        <ele>1679</ele>
        <time>2022-08-28T06:04:51Z</time>
      </trkpt>
      <trkpt lat="46.01847" lon="6.92089">
        <ele>1679</ele>
        <time>2022-08-28T06:04:53Z</time>
      </trkpt>
      <trkpt lat="46.01845" lon="6.92088">
        <ele>1679</ele>
        <time>2022-08-28T06:04:55Z</time>
      </trkpt>
      <trkpt lat="46.01843" lon="6.92088">
        <ele>1679</ele>
        <time>2022-08-28T06:04:57Z</time>
      </trkpt>
      <trkpt lat="46.0184" lon="6.92087">
        <ele>1679</ele>
        <time>2022-08-28T06:04:58Z</time>
      </trkpt>
      <trkpt lat="46.01838" lon="6.92087">
        <ele>1679</ele>
        <time>2022-08-28T06:05:01Z</time>
      </trkpt>
      <trkpt lat="46.01836" lon="6.92088">
        <ele>1679</ele>
        <time>2022-08-28T06:05:03Z</time>
      </trkpt>
      <trkpt lat="46.01836" lon="6.92088">
        <ele>1679</ele>
        <time>2022-08-28T06:05:05Z</time>
      </trkpt>
      <trkpt lat="46.01835" lon="6.92088">
        <ele>1679</ele>
        <time>2022-08-28T06:05:06Z</time>
      </trkpt>
      <trkpt lat="46.01835" lon="6.92088">
        <ele>1679</ele>
        <time>2022-08-28T06:05:08Z</time>
      </trkpt>
      <trkpt lat="46.01834" lon="6.92088">
        <ele>1679</ele>
        <time>2022-08-28T06:05:10Z</time>
      </trkpt>
      <trkpt lat="46.01834" lon="6.92088">
        <ele>1679</ele>
        <time>2022-08-28T06:05:11Z</time>
      </trkpt>
      <trkpt lat="46.01833" lon="6.92088">
        <ele>1680</ele>
        <time>2022-08-28T06:05:12Z</time>
      </trkpt>
      <trkpt lat="46.01833" lon="6.92088">
        <ele>1680</ele>
        <time>2022-08-28T06:05:13Z</time>
      </trkpt>
      <trkpt lat="46.01825" lon="6.92089">
        <ele>1680</ele>
        <time>2022-08-28T06:05:15Z</time>
      </trkpt>
      <trkpt lat="46.01824" lon="6.92089">
        <ele>1680</ele>
        <time>2022-08-28T06:05:16Z</time>
      </trkpt>
      <trkpt lat="46.01823" lon="6.92089">
        <ele>1680</ele>
        <time>2022-08-28T06:05:17Z</time>
      </trkpt>
      <trkpt lat="46.01822" lon="6.92089">
        <ele>1681</ele>
        <time>2022-08-28T06:05:18Z</time>
      </trkpt>
      <trkpt lat="46.01821" lon="6.92089">
        <ele>1681</ele>
        <time>2022-08-28T06:05:20Z</time>
      </trkpt>
      <trkpt lat="46.0182" lon="6.9209">
        <ele>1681</ele>
        <time>2022-08-28T06:05:22Z</time>
      </trkpt>
      <trkpt lat="46.01818" lon="6.9209">
        <ele>1681</ele>
        <time>2022-08-28T06:05:23Z</time>
      </trkpt>
      <trkpt lat="46.01816" lon="6.9209">
        <ele>1682</ele>
        <time>2022-08-28T06:05:26Z</time>
      </trkpt>
      <trkpt lat="46.01815" lon="6.92091">
        <ele>1682</ele>
        <time>2022-08-28T06:05:28Z</time>
      </trkpt>
      <trkpt lat="46.01813" lon="6.92091">
        <ele>1682</ele>
        <time>2022-08-28T06:05:29Z</time>
      </trkpt>
      <trkpt lat="46.01811" lon="6.92092">
        <ele>1682</ele>
        <time>2022-08-28T06:05:30Z</time>
      </trkpt>
      <trkpt lat="46.0181" lon="6.92092">
        <ele>1683</ele>
        <time>2022-08-28T06:05:32Z</time>
      </trkpt>
      <trkpt lat="46.01808" lon="6.92093">
        <ele>1683</ele>
        <time>2022-08-28T06:05:34Z</time>
      </trkpt>
      <trkpt lat="46.01807" lon="6.92093">
        <ele>1683</ele>
        <time>2022-08-28T06:05:35Z</time>
      </trkpt>
      <trkpt lat="46.01805" lon="6.92094">
        <ele>1683</ele>
        <time>2022-08-28T06:05:36Z</time>
      </trkpt>
      <trkpt lat="46.01804" lon="6.92094">
        <ele>1683</ele>
        <time>2022-08-28T06:05:38Z</time>
      </trkpt>
      <trkpt lat="46.01803" lon="6.92094">
        <ele>1683</ele>
        <time>2022-08-28T06:05:39Z</time>
      </trkpt>
      <trkpt lat="46.01802" lon="6.92095">
        <ele>1683</ele>
        <time>2022-08-28T06:05:40Z</time>
      </trkpt>
      <trkpt lat="46.018" lon="6.92095">
        <ele>1684</ele>
        <time>2022-08-28T06:05:41Z</time>
      </trkpt>
      <trkpt lat="46.01799" lon="6.92095">
        <ele>1684</ele>
        <time>2022-08-28T06:05:42Z</time>
      </trkpt>
      <trkpt lat="46.01798" lon="6.92095">
        <ele>1684</ele>
        <time>2022-08-28T06:05:43Z</time>
      </trkpt>
      <trkpt lat="46.01795" lon="6.92096">
        <ele>1684</ele>
        <time>2022-08-28T06:05:44Z</time>
      </trkpt>
      <trkpt lat="46.01793" lon="6.92097">
        <ele>1684</ele>
        <time>2022-08-28T06:05:46Z</time>
      </trkpt>
      <trkpt lat="46.01789" lon="6.92097">
        <ele>1684</ele>
        <time>2022-08-28T06:05:49Z</time>
      </trkpt>
      <trkpt lat="46.01786" lon="6.92097">
        <ele>1684</ele>
        <time>2022-08-28T06:05:51Z</time>
      </trkpt>
      <trkpt lat="46.01783" lon="6.92097">
        <ele>1684</ele>
        <time>2022-08-28T06:05:53Z</time>
      </trkpt>
      <trkpt lat="46.01782" lon="6.92097">
        <ele>1684</ele>
        <time>2022-08-28T06:05:54Z</time>
      </trkpt>
      <trkpt lat="46.01781" lon="6.92097">
        <ele>1684</ele>
        <time>2022-08-28T06:05:55Z</time>
      </trkpt>
      <trkpt lat="46.0178" lon="6.92097">
        <ele>1684</ele>
        <time>2022-08-28T06:05:57Z</time>
      </trkpt>
      <trkpt lat="46.01779" lon="6.92097">
        <ele>1684</ele>
        <time>2022-08-28T06:05:58Z</time>
      </trkpt>
      <trkpt lat="46.01778" lon="6.92097">
        <ele>1684</ele>
        <time>2022-08-28T06:05:59Z</time>
      </trkpt>
      <trkpt lat="46.01776" lon="6.92097">
        <ele>1684</ele>
        <time>2022-08-28T06:06:00Z</time>
      </trkpt>
      <trkpt lat="46.01775" lon="6.92097">
        <ele>1684</ele>
        <time>2022-08-28T06:06:01Z</time>
      </trkpt>
      <trkpt lat="46.01774" lon="6.92097">
        <ele>1685</ele>
        <time>2022-08-28T06:06:02Z</time>
      </trkpt>
      <trkpt lat="46.01773" lon="6.92097">
        <ele>1685</ele>
        <time>2022-08-28T06:06:03Z</time>
      </trkpt>
      <trkpt lat="46.01771" lon="6.92097">
        <ele>1685</ele>
        <time>2022-08-28T06:06:04Z</time>
      </trkpt>
      <trkpt lat="46.0177" lon="6.92098">
        <ele>1685</ele>
        <time>2022-08-28T06:06:05Z</time>
      </trkpt>
      <trkpt lat="46.01769" lon="6.92098">
        <ele>1686</ele>
        <time>2022-08-28T06:06:07Z</time>
      </trkpt>
      <trkpt lat="46.01768" lon="6.92098">
        <ele>1686</ele>
        <time>2022-08-28T06:06:08Z</time>
      </trkpt>
      <trkpt lat="46.01766" lon="6.92098">
        <ele>1686</ele>
        <time>2022-08-28T06:06:09Z</time>
      </trkpt>
      <trkpt lat="46.01765" lon="6.92099">
        <ele>1686</ele>
        <time>2022-08-28T06:06:10Z</time>
      </trkpt>
      <trkpt lat="46.01762" lon="6.921">
        <ele>1686</ele>
        <time>2022-08-28T06:06:12Z</time>
      </trkpt>
      <trkpt lat="46.0176" lon="6.92101">
        <ele>1687</ele>
        <time>2022-08-28T06:06:14Z</time>
      </trkpt>
      <trkpt lat="46.01759" lon="6.92101">
        <ele>1687</ele>
        <time>2022-08-28T06:06:15Z</time>
      </trkpt>
      <trkpt lat="46.01757" lon="6.92101">
        <ele>1687</ele>
        <time>2022-08-28T06:06:16Z</time>
      </trkpt>
      <trkpt lat="46.01756" lon="6.92101">
        <ele>1687</ele>
        <time>2022-08-28T06:06:17Z</time>
      </trkpt>
      <trkpt lat="46.01755" lon="6.92101">
        <ele>1687</ele>
        <time>2022-08-28T06:06:18Z</time>
      </trkpt>
      <trkpt lat="46.01753" lon="6.92102">
        <ele>1687</ele>
        <time>2022-08-28T06:06:19Z</time>
      </trkpt>
      <trkpt lat="46.01751" lon="6.92101">
        <ele>1687</ele>
        <time>2022-08-28T06:06:20Z</time>
      </trkpt>
      <trkpt lat="46.01749" lon="6.921">
        <ele>1687</ele>
        <time>2022-08-28T06:06:21Z</time>
      </trkpt>
      <trkpt lat="46.01747" lon="6.921">
        <ele>1687</ele>
        <time>2022-08-28T06:06:22Z</time>
      </trkpt>
      <trkpt lat="46.01746" lon="6.92099">
        <ele>1686</ele>
        <time>2022-08-28T06:06:24Z</time>
      </trkpt>
      <trkpt lat="46.01744" lon="6.92098">
        <ele>1686</ele>
        <time>2022-08-28T06:06:25Z</time>
      </trkpt>
      <trkpt lat="46.01742" lon="6.92098">
        <ele>1686</ele>
        <time>2022-08-28T06:06:26Z</time>
      </trkpt>
      <trkpt lat="46.0174" lon="6.92097">
        <ele>1687</ele>
        <time>2022-08-28T06:06:27Z</time>
      </trkpt>
      <trkpt lat="46.01739" lon="6.92097">
        <ele>1687</ele>
        <time>2022-08-28T06:06:28Z</time>
      </trkpt>
      <trkpt lat="46.01737" lon="6.92096">
        <ele>1687</ele>
        <time>2022-08-28T06:06:30Z</time>
      </trkpt>
      <trkpt lat="46.01735" lon="6.92096">
        <ele>1687</ele>
        <time>2022-08-28T06:06:31Z</time>
      </trkpt>
      <trkpt lat="46.01734" lon="6.92095">
        <ele>1687</ele>
        <time>2022-08-28T06:06:33Z</time>
      </trkpt>
      <trkpt lat="46.01732" lon="6.92095">
        <ele>1687</ele>
        <time>2022-08-28T06:06:34Z</time>
      </trkpt>
      <trkpt lat="46.01731" lon="6.92095">
        <ele>1687</ele>
        <time>2022-08-28T06:06:35Z</time>
      </trkpt>
      <trkpt lat="46.01729" lon="6.92094">
        <ele>1686</ele>
        <time>2022-08-28T06:06:36Z</time>
      </trkpt>
      <trkpt lat="46.01728" lon="6.92094">
        <ele>1686</ele>
        <time>2022-08-28T06:06:37Z</time>
      </trkpt>
      <trkpt lat="46.01726" lon="6.92094">
        <ele>1687</ele>
        <time>2022-08-28T06:06:38Z</time>
      </trkpt>
      <trkpt lat="46.01722" lon="6.92094">
        <ele>1687</ele>
        <time>2022-08-28T06:06:40Z</time>
      </trkpt>
      <trkpt lat="46.01719" lon="6.92094">
        <ele>1687</ele>
        <time>2022-08-28T06:06:42Z</time>
      </trkpt>
      <trkpt lat="46.01716" lon="6.92094">
        <ele>1687</ele>
        <time>2022-08-28T06:06:45Z</time>
      </trkpt>
      <trkpt lat="46.01713" lon="6.92094">
        <ele>1687</ele>
        <time>2022-08-28T06:06:47Z</time>
      </trkpt>
      <trkpt lat="46.01711" lon="6.92095">
        <ele>1687</ele>
        <time>2022-08-28T06:06:49Z</time>
      </trkpt>
      <trkpt lat="46.01708" lon="6.92095">
        <ele>1688</ele>
        <time>2022-08-28T06:06:51Z</time>
      </trkpt>
      <trkpt lat="46.01706" lon="6.92095">
        <ele>1688</ele>
        <time>2022-08-28T06:06:52Z</time>
      </trkpt>
      <trkpt lat="46.01705" lon="6.92094">
        <ele>1688</ele>
        <time>2022-08-28T06:06:53Z</time>
      </trkpt>
      <trkpt lat="46.01704" lon="6.92094">
        <ele>1688</ele>
        <time>2022-08-28T06:06:55Z</time>
      </trkpt>
      <trkpt lat="46.01703" lon="6.92093">
        <ele>1688</ele>
        <time>2022-08-28T06:06:56Z</time>
      </trkpt>
      <trkpt lat="46.01702" lon="6.92093">
        <ele>1688</ele>
        <time>2022-08-28T06:06:57Z</time>
      </trkpt>
      <trkpt lat="46.01701" lon="6.92092">
        <ele>1688</ele>
        <time>2022-08-28T06:06:58Z</time>
      </trkpt>
      <trkpt lat="46.017" lon="6.92092">
        <ele>1688</ele>
        <time>2022-08-28T06:07:00Z</time>
      </trkpt>
      <trkpt lat="46.01698" lon="6.92091">
        <ele>1689</ele>
        <time>2022-08-28T06:07:01Z</time>
      </trkpt>
      <trkpt lat="46.01697" lon="6.9209">
        <ele>1689</ele>
        <time>2022-08-28T06:07:02Z</time>
      </trkpt>
      <trkpt lat="46.01695" lon="6.92089">
        <ele>1689</ele>
        <time>2022-08-28T06:07:03Z</time>
      </trkpt>
      <trkpt lat="46.01694" lon="6.92087">
        <ele>1689</ele>
        <time>2022-08-28T06:07:04Z</time>
      </trkpt>
      <trkpt lat="46.01693" lon="6.92086">
        <ele>1689</ele>
        <time>2022-08-28T06:07:06Z</time>
      </trkpt>
      <trkpt lat="46.01691" lon="6.92084">
        <ele>1689</ele>
        <time>2022-08-28T06:07:07Z</time>
      </trkpt>
      <trkpt lat="46.01688" lon="6.92083">
        <ele>1689</ele>
        <time>2022-08-28T06:07:09Z</time>
      </trkpt>
      <trkpt lat="46.0168" lon="6.92078">
        <ele>1689</ele>
        <time>2022-08-28T06:07:17Z</time>
      </trkpt>
      <trkpt lat="46.01679" lon="6.92077">
        <ele>1689</ele>
        <time>2022-08-28T06:07:18Z</time>
      </trkpt>
      <trkpt lat="46.01678" lon="6.92076">
        <ele>1689</ele>
        <time>2022-08-28T06:07:19Z</time>
      </trkpt>
      <trkpt lat="46.01676" lon="6.92075">
        <ele>1689</ele>
        <time>2022-08-28T06:07:20Z</time>
      </trkpt>
      <trkpt lat="46.01675" lon="6.92074">
        <ele>1689</ele>
        <time>2022-08-28T06:07:22Z</time>
      </trkpt>
      <trkpt lat="46.01674" lon="6.92073">
        <ele>1689</ele>
        <time>2022-08-28T06:07:23Z</time>
      </trkpt>
      <trkpt lat="46.01673" lon="6.92072">
        <ele>1689</ele>
        <time>2022-08-28T06:07:24Z</time>
      </trkpt>
      <trkpt lat="46.01672" lon="6.92071">
        <ele>1689</ele>
        <time>2022-08-28T06:07:25Z</time>
      </trkpt>
      <trkpt lat="46.01671" lon="6.92071">
        <ele>1689</ele>
        <time>2022-08-28T06:07:27Z</time>
      </trkpt>
      <trkpt lat="46.0167" lon="6.9207">
        <ele>1689</ele>
        <time>2022-08-28T06:07:28Z</time>
      </trkpt>
      <trkpt lat="46.01669" lon="6.9207">
        <ele>1689</ele>
        <time>2022-08-28T06:07:29Z</time>
      </trkpt>
      <trkpt lat="46.01668" lon="6.92069">
        <ele>1690</ele>
        <time>2022-08-28T06:07:30Z</time>
      </trkpt>
      <trkpt lat="46.01667" lon="6.92069">
        <ele>1690</ele>
        <time>2022-08-28T06:07:31Z</time>
      </trkpt>
      <trkpt lat="46.01666" lon="6.92068">
        <ele>1690</ele>
        <time>2022-08-28T06:07:32Z</time>
      </trkpt>
      <trkpt lat="46.01664" lon="6.92068">
        <ele>1690</ele>
        <time>2022-08-28T06:07:33Z</time>
      </trkpt>
      <trkpt lat="46.01662" lon="6.92067">
        <ele>1690</ele>
        <time>2022-08-28T06:07:36Z</time>
      </trkpt>
      <trkpt lat="46.01661" lon="6.92067">
        <ele>1691</ele>
        <time>2022-08-28T06:07:38Z</time>
      </trkpt>
      <trkpt lat="46.0166" lon="6.92068">
        <ele>1691</ele>
        <time>2022-08-28T06:07:39Z</time>
      </trkpt>
      <trkpt lat="46.01659" lon="6.92068">
        <ele>1692</ele>
        <time>2022-08-28T06:07:40Z</time>
      </trkpt>
      <trkpt lat="46.01658" lon="6.92069">
        <ele>1692</ele>
        <time>2022-08-28T06:07:42Z</time>
      </trkpt>
      <trkpt lat="46.01657" lon="6.92069">
        <ele>1692</ele>
        <time>2022-08-28T06:07:43Z</time>
      </trkpt>
      <trkpt lat="46.01656" lon="6.92069">
        <ele>1692</ele>
        <time>2022-08-28T06:07:44Z</time>
      </trkpt>
      <trkpt lat="46.01655" lon="6.9207">
        <ele>1692</ele>
        <time>2022-08-28T06:07:45Z</time>
      </trkpt>
      <trkpt lat="46.01654" lon="6.9207">
        <ele>1692</ele>
        <time>2022-08-28T06:07:46Z</time>
      </trkpt>
      <trkpt lat="46.01653" lon="6.9207">
        <ele>1692</ele>
        <time>2022-08-28T06:07:47Z</time>
      </trkpt>
      <trkpt lat="46.01651" lon="6.92071">
        <ele>1693</ele>
        <time>2022-08-28T06:07:49Z</time>
      </trkpt>
      <trkpt lat="46.01649" lon="6.92072">
        <ele>1693</ele>
        <time>2022-08-28T06:07:50Z</time>
      </trkpt>
      <trkpt lat="46.01647" lon="6.92072">
        <ele>1693</ele>
        <time>2022-08-28T06:07:52Z</time>
      </trkpt>
      <trkpt lat="46.01646" lon="6.92073">
        <ele>1694</ele>
        <time>2022-08-28T06:07:54Z</time>
      </trkpt>
      <trkpt lat="46.01644" lon="6.92074">
        <ele>1694</ele>
        <time>2022-08-28T06:07:55Z</time>
      </trkpt>
      <trkpt lat="46.01643" lon="6.92074">
        <ele>1694</ele>
        <time>2022-08-28T06:07:56Z</time>
      </trkpt>
      <trkpt lat="46.01642" lon="6.92075">
        <ele>1694</ele>
        <time>2022-08-28T06:07:57Z</time>
      </trkpt>
      <trkpt lat="46.01641" lon="6.92075">
        <ele>1694</ele>
        <time>2022-08-28T06:07:59Z</time>
      </trkpt>
      <trkpt lat="46.01639" lon="6.92075">
        <ele>1694</ele>
        <time>2022-08-28T06:08:00Z</time>
      </trkpt>
      <trkpt lat="46.01638" lon="6.92076">
        <ele>1694</ele>
        <time>2022-08-28T06:08:01Z</time>
      </trkpt>
      <trkpt lat="46.01637" lon="6.92076">
        <ele>1694</ele>
        <time>2022-08-28T06:08:02Z</time>
      </trkpt>
      <trkpt lat="46.01636" lon="6.92076">
        <ele>1694</ele>
        <time>2022-08-28T06:08:03Z</time>
      </trkpt>
      <trkpt lat="46.01635" lon="6.92077">
        <ele>1694</ele>
        <time>2022-08-28T06:08:04Z</time>
      </trkpt>
      <trkpt lat="46.01632" lon="6.92078">
        <ele>1694</ele>
        <time>2022-08-28T06:08:05Z</time>
      </trkpt>
      <trkpt lat="46.01629" lon="6.92079">
        <ele>1695</ele>
        <time>2022-08-28T06:08:07Z</time>
      </trkpt>
      <trkpt lat="46.01628" lon="6.9208">
        <ele>1695</ele>
        <time>2022-08-28T06:08:08Z</time>
      </trkpt>
      <trkpt lat="46.01626" lon="6.9208">
        <ele>1695</ele>
        <time>2022-08-28T06:08:10Z</time>
      </trkpt>
      <trkpt lat="46.01624" lon="6.92081">
        <ele>1695</ele>
        <time>2022-08-28T06:08:11Z</time>
      </trkpt>
      <trkpt lat="46.01622" lon="6.92083">
        <ele>1695</ele>
        <time>2022-08-28T06:08:12Z</time>
      </trkpt>
      <trkpt lat="46.0162" lon="6.92085">
        <ele>1695</ele>
        <time>2022-08-28T06:08:15Z</time>
      </trkpt>
      <trkpt lat="46.01619" lon="6.92086">
        <ele>1695</ele>
        <time>2022-08-28T06:08:17Z</time>
      </trkpt>
      <trkpt lat="46.01615" lon="6.92088">
        <ele>1695</ele>
        <time>2022-08-28T06:08:20Z</time>
      </trkpt>
      <trkpt lat="46.01613" lon="6.92089">
        <ele>1696</ele>
        <time>2022-08-28T06:08:22Z</time>
      </trkpt>
      <trkpt lat="46.01611" lon="6.9209">
        <ele>1696</ele>
        <time>2022-08-28T06:08:24Z</time>
      </trkpt>
      <trkpt lat="46.01609" lon="6.92091">
        <ele>1696</ele>
        <time>2022-08-28T06:08:26Z</time>
      </trkpt>
      <trkpt lat="46.01607" lon="6.92093">
        <ele>1696</ele>
        <time>2022-08-28T06:08:28Z</time>
      </trkpt>
      <trkpt lat="46.01605" lon="6.92094">
        <ele>1696</ele>
        <time>2022-08-28T06:08:30Z</time>
      </trkpt>
      <trkpt lat="46.01602" lon="6.92096">
        <ele>1696</ele>
        <time>2022-08-28T06:08:32Z</time>
      </trkpt>
      <trkpt lat="46.016" lon="6.92097">
        <ele>1696</ele>
        <time>2022-08-28T06:08:34Z</time>
      </trkpt>
      <trkpt lat="46.01598" lon="6.92098">
        <ele>1696</ele>
        <time>2022-08-28T06:08:36Z</time>
      </trkpt>
      <trkpt lat="46.01596" lon="6.92099">
        <ele>1696</ele>
        <time>2022-08-28T06:08:38Z</time>
      </trkpt>
      <trkpt lat="46.01594" lon="6.921">
        <ele>1697</ele>
        <time>2022-08-28T06:08:40Z</time>
      </trkpt>
      <trkpt lat="46.01593" lon="6.92103">
        <ele>1697</ele>
        <time>2022-08-28T06:08:42Z</time>
      </trkpt>
      <trkpt lat="46.0159" lon="6.92106">
        <ele>1697</ele>
        <time>2022-08-28T06:08:45Z</time>
      </trkpt>
      <trkpt lat="46.01588" lon="6.92108">
        <ele>1697</ele>
        <time>2022-08-28T06:08:47Z</time>
      </trkpt>
      <trkpt lat="46.01586" lon="6.92111">
        <ele>1698</ele>
        <time>2022-08-28T06:08:50Z</time>
      </trkpt>
      <trkpt lat="46.01583" lon="6.92114">
        <ele>1698</ele>
        <time>2022-08-28T06:08:53Z</time>
      </trkpt>
      <trkpt lat="46.01581" lon="6.92117">
        <ele>1698</ele>
        <time>2022-08-28T06:08:55Z</time>
      </trkpt>
      <trkpt lat="46.01578" lon="6.92119">
        <ele>1698</ele>
        <time>2022-08-28T06:08:57Z</time>
      </trkpt>
      <trkpt lat="46.01577" lon="6.92122">
        <ele>1698</ele>
        <time>2022-08-28T06:08:59Z</time>
      </trkpt>
      <trkpt lat="46.01575" lon="6.92123">
        <ele>1698</ele>
        <time>2022-08-28T06:09:02Z</time>
      </trkpt>
      <trkpt lat="46.01572" lon="6.92125">
        <ele>1699</ele>
        <time>2022-08-28T06:09:05Z</time>
      </trkpt>
      <trkpt lat="46.01568" lon="6.92129">
        <ele>1699</ele>
        <time>2022-08-28T06:09:08Z</time>
      </trkpt>
      <trkpt lat="46.01567" lon="6.9213">
        <ele>1699</ele>
        <time>2022-08-28T06:09:09Z</time>
      </trkpt>
      <trkpt lat="46.01566" lon="6.9213">
        <ele>1699</ele>
        <time>2022-08-28T06:09:10Z</time>
      </trkpt>
      <trkpt lat="46.01565" lon="6.92131">
        <ele>1699</ele>
        <time>2022-08-28T06:09:11Z</time>
      </trkpt>
      <trkpt lat="46.01564" lon="6.92132">
        <ele>1699</ele>
        <time>2022-08-28T06:09:13Z</time>
      </trkpt>
      <trkpt lat="46.01562" lon="6.92133">
        <ele>1699</ele>
        <time>2022-08-28T06:09:14Z</time>
      </trkpt>
      <trkpt lat="46.01561" lon="6.92134">
        <ele>1699</ele>
        <time>2022-08-28T06:09:15Z</time>
      </trkpt>
      <trkpt lat="46.0156" lon="6.92134">
        <ele>1700</ele>
        <time>2022-08-28T06:09:16Z</time>
      </trkpt>
      <trkpt lat="46.01559" lon="6.92136">
        <ele>1700</ele>
        <time>2022-08-28T06:09:17Z</time>
      </trkpt>
      <trkpt lat="46.01557" lon="6.92137">
        <ele>1700</ele>
        <time>2022-08-28T06:09:18Z</time>
      </trkpt>
      <trkpt lat="46.01555" lon="6.92139">
        <ele>1700</ele>
        <time>2022-08-28T06:09:20Z</time>
      </trkpt>
      <trkpt lat="46.01554" lon="6.9214">
        <ele>1700</ele>
        <time>2022-08-28T06:09:21Z</time>
      </trkpt>
      <trkpt lat="46.01552" lon="6.92141">
        <ele>1700</ele>
        <time>2022-08-28T06:09:22Z</time>
      </trkpt>
      <trkpt lat="46.0155" lon="6.92143">
        <ele>1700</ele>
        <time>2022-08-28T06:09:23Z</time>
      </trkpt>
      <trkpt lat="46.01547" lon="6.92145">
        <ele>1700</ele>
        <time>2022-08-28T06:09:25Z</time>
      </trkpt>
      <trkpt lat="46.01546" lon="6.92148">
        <ele>1700</ele>
        <time>2022-08-28T06:09:27Z</time>
      </trkpt>
      <trkpt lat="46.01544" lon="6.9215">
        <ele>1700</ele>
        <time>2022-08-28T06:09:29Z</time>
      </trkpt>
      <trkpt lat="46.01543" lon="6.92153">
        <ele>1700</ele>
        <time>2022-08-28T06:09:31Z</time>
      </trkpt>
      <trkpt lat="46.01542" lon="6.92155">
        <ele>1701</ele>
        <time>2022-08-28T06:09:33Z</time>
      </trkpt>
      <trkpt lat="46.01541" lon="6.92158">
        <ele>1701</ele>
        <time>2022-08-28T06:09:35Z</time>
      </trkpt>
      <trkpt lat="46.01539" lon="6.92161">
        <ele>1701</ele>
        <time>2022-08-28T06:09:37Z</time>
      </trkpt>
      <trkpt lat="46.01537" lon="6.92162">
        <ele>1702</ele>
        <time>2022-08-28T06:09:39Z</time>
      </trkpt>
      <trkpt lat="46.01535" lon="6.92165">
        <ele>1702</ele>
        <time>2022-08-28T06:09:41Z</time>
      </trkpt>
      <trkpt lat="46.01533" lon="6.92167">
        <ele>1702</ele>
        <time>2022-08-28T06:09:43Z</time>
      </trkpt>
      <trkpt lat="46.01531" lon="6.92167">
        <ele>1702</ele>
        <time>2022-08-28T06:09:45Z</time>
      </trkpt>
      <trkpt lat="46.01529" lon="6.92169">
        <ele>1702</ele>
        <time>2022-08-28T06:09:47Z</time>
      </trkpt>
      <trkpt lat="46.01528" lon="6.92171">
        <ele>1702</ele>
        <time>2022-08-28T06:09:49Z</time>
      </trkpt>
      <trkpt lat="46.01526" lon="6.92172">
        <ele>1702</ele>
        <time>2022-08-28T06:09:51Z</time>
      </trkpt>
      <trkpt lat="46.01524" lon="6.92175">
        <ele>1703</ele>
        <time>2022-08-28T06:09:54Z</time>
      </trkpt>
      <trkpt lat="46.01521" lon="6.92176">
        <ele>1703</ele>
        <time>2022-08-28T06:09:56Z</time>
      </trkpt>
      <trkpt lat="46.01519" lon="6.92179">
        <ele>1703</ele>
        <time>2022-08-28T06:09:58Z</time>
      </trkpt>
      <trkpt lat="46.01516" lon="6.9218">
        <ele>1703</ele>
        <time>2022-08-28T06:10:00Z</time>
      </trkpt>
      <trkpt lat="46.01514" lon="6.92181">
        <ele>1704</ele>
        <time>2022-08-28T06:10:02Z</time>
      </trkpt>
      <trkpt lat="46.01511" lon="6.92181">
        <ele>1705</ele>
        <time>2022-08-28T06:10:05Z</time>
      </trkpt>
      <trkpt lat="46.01509" lon="6.92183">
        <ele>1705</ele>
        <time>2022-08-28T06:10:07Z</time>
      </trkpt>
      <trkpt lat="46.01507" lon="6.92186">
        <ele>1705</ele>
        <time>2022-08-28T06:10:10Z</time>
      </trkpt>
      <trkpt lat="46.01505" lon="6.92187">
        <ele>1705</ele>
        <time>2022-08-28T06:10:12Z</time>
      </trkpt>
      <trkpt lat="46.01503" lon="6.92189">
        <ele>1705</ele>
        <time>2022-08-28T06:10:14Z</time>
      </trkpt>
      <trkpt lat="46.01501" lon="6.9219">
        <ele>1706</ele>
        <time>2022-08-28T06:10:16Z</time>
      </trkpt>
      <trkpt lat="46.01498" lon="6.92192">
        <ele>1706</ele>
        <time>2022-08-28T06:10:18Z</time>
      </trkpt>
      <trkpt lat="46.01495" lon="6.92194">
        <ele>1706</ele>
        <time>2022-08-28T06:10:20Z</time>
      </trkpt>
      <trkpt lat="46.01492" lon="6.92195">
        <ele>1706</ele>
        <time>2022-08-28T06:10:22Z</time>
      </trkpt>
      <trkpt lat="46.0149" lon="6.92197">
        <ele>1706</ele>
        <time>2022-08-28T06:10:24Z</time>
      </trkpt>
      <trkpt lat="46.01487" lon="6.92198">
        <ele>1707</ele>
        <time>2022-08-28T06:10:26Z</time>
      </trkpt>
      <trkpt lat="46.01485" lon="6.92199">
        <ele>1707</ele>
        <time>2022-08-28T06:10:28Z</time>
      </trkpt>
      <trkpt lat="46.01482" lon="6.92201">
        <ele>1707</ele>
        <time>2022-08-28T06:10:30Z</time>
      </trkpt>
      <trkpt lat="46.01479" lon="6.92202">
        <ele>1707</ele>
        <time>2022-08-28T06:10:32Z</time>
      </trkpt>
      <trkpt lat="46.01477" lon="6.92201">
        <ele>1706</ele>
        <time>2022-08-28T06:10:34Z</time>
      </trkpt>
      <trkpt lat="46.01474" lon="6.92202">
        <ele>1706</ele>
        <time>2022-08-28T06:10:36Z</time>
      </trkpt>
      <trkpt lat="46.01471" lon="6.92204">
        <ele>1706</ele>
        <time>2022-08-28T06:10:38Z</time>
      </trkpt>
      <trkpt lat="46.01469" lon="6.92204">
        <ele>1705</ele>
        <time>2022-08-28T06:10:40Z</time>
      </trkpt>
      <trkpt lat="46.01465" lon="6.92204">
        <ele>1705</ele>
        <time>2022-08-28T06:10:42Z</time>
      </trkpt>
      <trkpt lat="46.01463" lon="6.92204">
        <ele>1704</ele>
        <time>2022-08-28T06:10:43Z</time>
      </trkpt>
      <trkpt lat="46.01459" lon="6.92203">
        <ele>1704</ele>
        <time>2022-08-28T06:10:45Z</time>
      </trkpt>
      <trkpt lat="46.01456" lon="6.92203">
        <ele>1704</ele>
        <time>2022-08-28T06:10:46Z</time>
      </trkpt>
      <trkpt lat="46.01455" lon="6.92203">
        <ele>1703</ele>
        <time>2022-08-28T06:10:47Z</time>
      </trkpt>
      <trkpt lat="46.01454" lon="6.92203">
        <ele>1703</ele>
        <time>2022-08-28T06:10:48Z</time>
      </trkpt>
      <trkpt lat="46.01452" lon="6.92203">
        <ele>1703</ele>
        <time>2022-08-28T06:10:49Z</time>
      </trkpt>
      <trkpt lat="46.0145" lon="6.92203">
        <ele>1703</ele>
        <time>2022-08-28T06:10:50Z</time>
      </trkpt>
      <trkpt lat="46.01448" lon="6.92203">
        <ele>1703</ele>
        <time>2022-08-28T06:10:51Z</time>
      </trkpt>
      <trkpt lat="46.01446" lon="6.92202">
        <ele>1703</ele>
        <time>2022-08-28T06:10:52Z</time>
      </trkpt>
      <trkpt lat="46.01443" lon="6.92202">
        <ele>1702</ele>
        <time>2022-08-28T06:10:54Z</time>
      </trkpt>
      <trkpt lat="46.01441" lon="6.92201">
        <ele>1702</ele>
        <time>2022-08-28T06:10:56Z</time>
      </trkpt>
      <trkpt lat="46.01438" lon="6.922">
        <ele>1702</ele>
        <time>2022-08-28T06:10:58Z</time>
      </trkpt>
      <trkpt lat="46.01435" lon="6.92201">
        <ele>1701</ele>
        <time>2022-08-28T06:11:00Z</time>
      </trkpt>
      <trkpt lat="46.01433" lon="6.92201">
        <ele>1701</ele>
        <time>2022-08-28T06:11:02Z</time>
      </trkpt>
      <trkpt lat="46.0143" lon="6.92202">
        <ele>1701</ele>
        <time>2022-08-28T06:11:04Z</time>
      </trkpt>
      <trkpt lat="46.01428" lon="6.92202">
        <ele>1701</ele>
        <time>2022-08-28T06:11:06Z</time>
      </trkpt>
      <trkpt lat="46.01425" lon="6.92202">
        <ele>1701</ele>
        <time>2022-08-28T06:11:08Z</time>
      </trkpt>
      <trkpt lat="46.01422" lon="6.92202">
        <ele>1701</ele>
        <time>2022-08-28T06:11:10Z</time>
      </trkpt>
      <trkpt lat="46.0142" lon="6.92202">
        <ele>1701</ele>
        <time>2022-08-28T06:11:12Z</time>
      </trkpt>
      <trkpt lat="46.01418" lon="6.92201">
        <ele>1702</ele>
        <time>2022-08-28T06:11:14Z</time>
      </trkpt>
      <trkpt lat="46.01415" lon="6.92202">
        <ele>1702</ele>
        <time>2022-08-28T06:11:16Z</time>
      </trkpt>
      <trkpt lat="46.01414" lon="6.92203">
        <ele>1702</ele>
        <time>2022-08-28T06:11:18Z</time>
      </trkpt>
      <trkpt lat="46.01412" lon="6.92205">
        <ele>1703</ele>
        <time>2022-08-28T06:11:20Z</time>
      </trkpt>
      <trkpt lat="46.0141" lon="6.92207">
        <ele>1703</ele>
        <time>2022-08-28T06:11:22Z</time>
      </trkpt>
      <trkpt lat="46.01409" lon="6.92209">
        <ele>1703</ele>
        <time>2022-08-28T06:11:24Z</time>
      </trkpt>
      <trkpt lat="46.01407" lon="6.9221">
        <ele>1703</ele>
        <time>2022-08-28T06:11:26Z</time>
      </trkpt>
      <trkpt lat="46.01406" lon="6.92212">
        <ele>1704</ele>
        <time>2022-08-28T06:11:28Z</time>
      </trkpt>
      <trkpt lat="46.01403" lon="6.92214">
        <ele>1705</ele>
        <time>2022-08-28T06:11:31Z</time>
      </trkpt>
      <trkpt lat="46.01401" lon="6.92215">
        <ele>1705</ele>
        <time>2022-08-28T06:11:34Z</time>
      </trkpt>
      <trkpt lat="46.01399" lon="6.92217">
        <ele>1705</ele>
        <time>2022-08-28T06:11:37Z</time>
      </trkpt>
      <trkpt lat="46.01397" lon="6.92219">
        <ele>1705</ele>
        <time>2022-08-28T06:11:39Z</time>
      </trkpt>
      <trkpt lat="46.01396" lon="6.92221">
        <ele>1705</ele>
        <time>2022-08-28T06:11:41Z</time>
      </trkpt>
      <trkpt lat="46.01394" lon="6.92222">
        <ele>1705</ele>
        <time>2022-08-28T06:11:43Z</time>
      </trkpt>
      <trkpt lat="46.01393" lon="6.92224">
        <ele>1706</ele>
        <time>2022-08-28T06:11:45Z</time>
      </trkpt>
      <trkpt lat="46.01391" lon="6.92226">
        <ele>1706</ele>
        <time>2022-08-28T06:11:47Z</time>
      </trkpt>
      <trkpt lat="46.01389" lon="6.92228">
        <ele>1706</ele>
        <time>2022-08-28T06:11:49Z</time>
      </trkpt>
      <trkpt lat="46.01388" lon="6.92229">
        <ele>1706</ele>
        <time>2022-08-28T06:11:51Z</time>
      </trkpt>
      <trkpt lat="46.01386" lon="6.92231">
        <ele>1707</ele>
        <time>2022-08-28T06:11:53Z</time>
      </trkpt>
      <trkpt lat="46.01384" lon="6.92232">
        <ele>1707</ele>
        <time>2022-08-28T06:11:55Z</time>
      </trkpt>
      <trkpt lat="46.01383" lon="6.92234">
        <ele>1707</ele>
        <time>2022-08-28T06:11:57Z</time>
      </trkpt>
      <trkpt lat="46.01381" lon="6.92236">
        <ele>1708</ele>
        <time>2022-08-28T06:11:59Z</time>
      </trkpt>
      <trkpt lat="46.01379" lon="6.92238">
        <ele>1708</ele>
        <time>2022-08-28T06:12:01Z</time>
      </trkpt>
      <trkpt lat="46.01377" lon="6.92239">
        <ele>1708</ele>
        <time>2022-08-28T06:12:03Z</time>
      </trkpt>
      <trkpt lat="46.01375" lon="6.9224">
        <ele>1708</ele>
        <time>2022-08-28T06:12:05Z</time>
      </trkpt>
      <trkpt lat="46.01373" lon="6.92241">
        <ele>1708</ele>
        <time>2022-08-28T06:12:07Z</time>
      </trkpt>
      <trkpt lat="46.0137" lon="6.92243">
        <ele>1708</ele>
        <time>2022-08-28T06:12:09Z</time>
      </trkpt>
      <trkpt lat="46.01368" lon="6.92244">
        <ele>1708</ele>
        <time>2022-08-28T06:12:11Z</time>
      </trkpt>
      <trkpt lat="46.01366" lon="6.92246">
        <ele>1709</ele>
        <time>2022-08-28T06:12:13Z</time>
      </trkpt>
      <trkpt lat="46.01364" lon="6.92247">
        <ele>1708</ele>
        <time>2022-08-28T06:12:15Z</time>
      </trkpt>
      <trkpt lat="46.01362" lon="6.92248">
        <ele>1708</ele>
        <time>2022-08-28T06:12:17Z</time>
      </trkpt>
      <trkpt lat="46.0136" lon="6.92249">
        <ele>1708</ele>
        <time>2022-08-28T06:12:19Z</time>
      </trkpt>
      <trkpt lat="46.01358" lon="6.92251">
        <ele>1708</ele>
        <time>2022-08-28T06:12:21Z</time>
      </trkpt>
      <trkpt lat="46.01355" lon="6.92251">
        <ele>1709</ele>
        <time>2022-08-28T06:12:23Z</time>
      </trkpt>
      <trkpt lat="46.01353" lon="6.92253">
        <ele>1709</ele>
        <time>2022-08-28T06:12:25Z</time>
      </trkpt>
      <trkpt lat="46.01351" lon="6.92253">
        <ele>1709</ele>
        <time>2022-08-28T06:12:27Z</time>
      </trkpt>
      <trkpt lat="46.01349" lon="6.92254">
        <ele>1710</ele>
        <time>2022-08-28T06:12:29Z</time>
      </trkpt>
      <trkpt lat="46.01346" lon="6.92257">
        <ele>1710</ele>
        <time>2022-08-28T06:12:32Z</time>
      </trkpt>
      <trkpt lat="46.01343" lon="6.92258">
        <ele>1710</ele>
        <time>2022-08-28T06:12:34Z</time>
      </trkpt>
      <trkpt lat="46.01342" lon="6.9226">
        <ele>1710</ele>
        <time>2022-08-28T06:12:36Z</time>
      </trkpt>
      <trkpt lat="46.01339" lon="6.9226">
        <ele>1711</ele>
        <time>2022-08-28T06:12:38Z</time>
      </trkpt>
      <trkpt lat="46.01337" lon="6.92262">
        <ele>1711</ele>
        <time>2022-08-28T06:12:40Z</time>
      </trkpt>
      <trkpt lat="46.01335" lon="6.92262">
        <ele>1711</ele>
        <time>2022-08-28T06:12:42Z</time>
      </trkpt>
      <trkpt lat="46.01333" lon="6.92264">
        <ele>1711</ele>
        <time>2022-08-28T06:12:44Z</time>
      </trkpt>
      <trkpt lat="46.01331" lon="6.92266">
        <ele>1712</ele>
        <time>2022-08-28T06:12:46Z</time>
      </trkpt>
      <trkpt lat="46.01329" lon="6.92268">
        <ele>1711</ele>
        <time>2022-08-28T06:12:48Z</time>
      </trkpt>
      <trkpt lat="46.01327" lon="6.92269">
        <ele>1712</ele>
        <time>2022-08-28T06:12:50Z</time>
      </trkpt>
      <trkpt lat="46.01325" lon="6.9227">
        <ele>1712</ele>
        <time>2022-08-28T06:12:51Z</time>
      </trkpt>
      <trkpt lat="46.01323" lon="6.92271">
        <ele>1712</ele>
        <time>2022-08-28T06:12:53Z</time>
      </trkpt>
      <trkpt lat="46.01322" lon="6.92272">
        <ele>1712</ele>
        <time>2022-08-28T06:12:55Z</time>
      </trkpt>
      <trkpt lat="46.0132" lon="6.92274">
        <ele>1712</ele>
        <time>2022-08-28T06:12:56Z</time>
      </trkpt>
      <trkpt lat="46.01319" lon="6.92275">
        <ele>1712</ele>
        <time>2022-08-28T06:12:57Z</time>
      </trkpt>
      <trkpt lat="46.01318" lon="6.92276">
        <ele>1712</ele>
        <time>2022-08-28T06:12:58Z</time>
      </trkpt>
      <trkpt lat="46.01316" lon="6.92277">
        <ele>1713</ele>
        <time>2022-08-28T06:13:00Z</time>
      </trkpt>
      <trkpt lat="46.01315" lon="6.92278">
        <ele>1713</ele>
        <time>2022-08-28T06:13:01Z</time>
      </trkpt>
      <trkpt lat="46.01314" lon="6.92279">
        <ele>1713</ele>
        <time>2022-08-28T06:13:02Z</time>
      </trkpt>
      <trkpt lat="46.01313" lon="6.9228">
        <ele>1713</ele>
        <time>2022-08-28T06:13:03Z</time>
      </trkpt>
      <trkpt lat="46.01312" lon="6.9228">
        <ele>1713</ele>
        <time>2022-08-28T06:13:05Z</time>
      </trkpt>
      <trkpt lat="46.01311" lon="6.92281">
        <ele>1713</ele>
        <time>2022-08-28T06:13:06Z</time>
      </trkpt>
      <trkpt lat="46.0131" lon="6.92282">
        <ele>1713</ele>
        <time>2022-08-28T06:13:07Z</time>
      </trkpt>
      <trkpt lat="46.01309" lon="6.92283">
        <ele>1713</ele>
        <time>2022-08-28T06:13:09Z</time>
      </trkpt>
      <trkpt lat="46.01308" lon="6.92283">
        <ele>1713</ele>
        <time>2022-08-28T06:13:10Z</time>
      </trkpt>
      <trkpt lat="46.01306" lon="6.92284">
        <ele>1713</ele>
        <time>2022-08-28T06:13:11Z</time>
      </trkpt>
      <trkpt lat="46.01304" lon="6.92286">
        <ele>1714</ele>
        <time>2022-08-28T06:13:13Z</time>
      </trkpt>
      <trkpt lat="46.01302" lon="6.92288">
        <ele>1714</ele>
        <time>2022-08-28T06:13:15Z</time>
      </trkpt>
      <trkpt lat="46.01301" lon="6.92289">
        <ele>1714</ele>
        <time>2022-08-28T06:13:16Z</time>
      </trkpt>
      <trkpt lat="46.013" lon="6.9229">
        <ele>1714</ele>
        <time>2022-08-28T06:13:17Z</time>
      </trkpt>
      <trkpt lat="46.01299" lon="6.92291">
        <ele>1714</ele>
        <time>2022-08-28T06:13:19Z</time>
      </trkpt>
      <trkpt lat="46.01298" lon="6.92291">
        <ele>1714</ele>
        <time>2022-08-28T06:13:20Z</time>
      </trkpt>
      <trkpt lat="46.01297" lon="6.92292">
        <ele>1714</ele>
        <time>2022-08-28T06:13:21Z</time>
      </trkpt>
      <trkpt lat="46.01296" lon="6.92293">
        <ele>1715</ele>
        <time>2022-08-28T06:13:22Z</time>
      </trkpt>
      <trkpt lat="46.01295" lon="6.92293">
        <ele>1715</ele>
        <time>2022-08-28T06:13:24Z</time>
      </trkpt>
      <trkpt lat="46.01294" lon="6.92294">
        <ele>1715</ele>
        <time>2022-08-28T06:13:25Z</time>
      </trkpt>
      <trkpt lat="46.01293" lon="6.92295">
        <ele>1715</ele>
        <time>2022-08-28T06:13:26Z</time>
      </trkpt>
      <trkpt lat="46.01284" lon="6.92301">
        <ele>1715</ele>
        <time>2022-08-28T06:13:33Z</time>
      </trkpt>
      <trkpt lat="46.01282" lon="6.92302">
        <ele>1715</ele>
        <time>2022-08-28T06:13:35Z</time>
      </trkpt>
      <trkpt lat="46.01281" lon="6.92305">
        <ele>1715</ele>
        <time>2022-08-28T06:13:37Z</time>
      </trkpt>
      <trkpt lat="46.0128" lon="6.92308">
        <ele>1716</ele>
        <time>2022-08-28T06:13:39Z</time>
      </trkpt>
      <trkpt lat="46.01278" lon="6.9231">
        <ele>1717</ele>
        <time>2022-08-28T06:13:41Z</time>
      </trkpt>
      <trkpt lat="46.01277" lon="6.92313">
        <ele>1717</ele>
        <time>2022-08-28T06:13:44Z</time>
      </trkpt>
      <trkpt lat="46.01277" lon="6.92316">
        <ele>1717</ele>
        <time>2022-08-28T06:13:47Z</time>
      </trkpt>
      <trkpt lat="46.01276" lon="6.9232">
        <ele>1718</ele>
        <time>2022-08-28T06:13:49Z</time>
      </trkpt>
      <trkpt lat="46.01276" lon="6.92322">
        <ele>1718</ele>
        <time>2022-08-28T06:13:51Z</time>
      </trkpt>
      <trkpt lat="46.01275" lon="6.92325">
        <ele>1719</ele>
        <time>2022-08-28T06:13:53Z</time>
      </trkpt>
      <trkpt lat="46.01273" lon="6.92327">
        <ele>1719</ele>
        <time>2022-08-28T06:13:55Z</time>
      </trkpt>
      <trkpt lat="46.01271" lon="6.92329">
        <ele>1719</ele>
        <time>2022-08-28T06:13:57Z</time>
      </trkpt>
      <trkpt lat="46.01269" lon="6.9233">
        <ele>1720</ele>
        <time>2022-08-28T06:13:59Z</time>
      </trkpt>
      <trkpt lat="46.01268" lon="6.92332">
        <ele>1720</ele>
        <time>2022-08-28T06:14:01Z</time>
      </trkpt>
      <trkpt lat="46.01267" lon="6.92333">
        <ele>1720</ele>
        <time>2022-08-28T06:14:03Z</time>
      </trkpt>
      <trkpt lat="46.01266" lon="6.92335">
        <ele>1721</ele>
        <time>2022-08-28T06:14:04Z</time>
      </trkpt>
      <trkpt lat="46.01265" lon="6.92336">
        <ele>1721</ele>
        <time>2022-08-28T06:14:05Z</time>
      </trkpt>
      <trkpt lat="46.01265" lon="6.92337">
        <ele>1721</ele>
        <time>2022-08-28T06:14:06Z</time>
      </trkpt>
      <trkpt lat="46.01263" lon="6.9234">
        <ele>1721</ele>
        <time>2022-08-28T06:14:07Z</time>
      </trkpt>
      <trkpt lat="46.01262" lon="6.92343">
        <ele>1722</ele>
        <time>2022-08-28T06:14:10Z</time>
      </trkpt>
      <trkpt lat="46.0126" lon="6.92346">
        <ele>1722</ele>
        <time>2022-08-28T06:14:13Z</time>
      </trkpt>
      <trkpt lat="46.01259" lon="6.92349">
        <ele>1722</ele>
        <time>2022-08-28T06:14:15Z</time>
      </trkpt>
      <trkpt lat="46.01257" lon="6.92351">
        <ele>1722</ele>
        <time>2022-08-28T06:14:17Z</time>
      </trkpt>
      <trkpt lat="46.01256" lon="6.92354">
        <ele>1722</ele>
        <time>2022-08-28T06:14:19Z</time>
      </trkpt>
      <trkpt lat="46.01254" lon="6.92357">
        <ele>1723</ele>
        <time>2022-08-28T06:14:21Z</time>
      </trkpt>
      <trkpt lat="46.01252" lon="6.92359">
        <ele>1723</ele>
        <time>2022-08-28T06:14:23Z</time>
      </trkpt>
      <trkpt lat="46.01251" lon="6.9236">
        <ele>1723</ele>
        <time>2022-08-28T06:14:24Z</time>
      </trkpt>
      <trkpt lat="46.0125" lon="6.92362">
        <ele>1723</ele>
        <time>2022-08-28T06:14:26Z</time>
      </trkpt>
      <trkpt lat="46.01248" lon="6.92363">
        <ele>1723</ele>
        <time>2022-08-28T06:14:28Z</time>
      </trkpt>
      <trkpt lat="46.01247" lon="6.92365">
        <ele>1723</ele>
        <time>2022-08-28T06:14:29Z</time>
      </trkpt>
      <trkpt lat="46.01246" lon="6.92366">
        <ele>1723</ele>
        <time>2022-08-28T06:14:30Z</time>
      </trkpt>
      <trkpt lat="46.01245" lon="6.92368">
        <ele>1723</ele>
        <time>2022-08-28T06:14:31Z</time>
      </trkpt>
      <trkpt lat="46.01244" lon="6.9237">
        <ele>1723</ele>
        <time>2022-08-28T06:14:33Z</time>
      </trkpt>
      <trkpt lat="46.01243" lon="6.92371">
        <ele>1723</ele>
        <time>2022-08-28T06:14:34Z</time>
      </trkpt>
      <trkpt lat="46.01242" lon="6.92373">
        <ele>1723</ele>
        <time>2022-08-28T06:14:35Z</time>
      </trkpt>
      <trkpt lat="46.01241" lon="6.92375">
        <ele>1723</ele>
        <time>2022-08-28T06:14:36Z</time>
      </trkpt>
      <trkpt lat="46.0124" lon="6.92376">
        <ele>1723</ele>
        <time>2022-08-28T06:14:38Z</time>
      </trkpt>
      <trkpt lat="46.0124" lon="6.92378">
        <ele>1723</ele>
        <time>2022-08-28T06:14:39Z</time>
      </trkpt>
      <trkpt lat="46.01235" lon="6.9239">
        <ele>1724</ele>
        <time>2022-08-28T06:14:49Z</time>
      </trkpt>
      <trkpt lat="46.01234" lon="6.92391">
        <ele>1724</ele>
        <time>2022-08-28T06:14:50Z</time>
      </trkpt>
      <trkpt lat="46.01233" lon="6.92392">
        <ele>1724</ele>
        <time>2022-08-28T06:14:51Z</time>
      </trkpt>
      <trkpt lat="46.01232" lon="6.92393">
        <ele>1724</ele>
        <time>2022-08-28T06:14:52Z</time>
      </trkpt>
      <trkpt lat="46.01231" lon="6.92394">
        <ele>1725</ele>
        <time>2022-08-28T06:14:54Z</time>
      </trkpt>
      <trkpt lat="46.0123" lon="6.92395">
        <ele>1725</ele>
        <time>2022-08-28T06:14:55Z</time>
      </trkpt>
      <trkpt lat="46.01229" lon="6.92396">
        <ele>1725</ele>
        <time>2022-08-28T06:14:56Z</time>
      </trkpt>
      <trkpt lat="46.01228" lon="6.92397">
        <ele>1725</ele>
        <time>2022-08-28T06:14:57Z</time>
      </trkpt>
      <trkpt lat="46.01227" lon="6.92398">
        <ele>1726</ele>
        <time>2022-08-28T06:14:58Z</time>
      </trkpt>
      <trkpt lat="46.01226" lon="6.92399">
        <ele>1726</ele>
        <time>2022-08-28T06:14:59Z</time>
      </trkpt>
      <trkpt lat="46.01225" lon="6.924">
        <ele>1726</ele>
        <time>2022-08-28T06:15:00Z</time>
      </trkpt>
      <trkpt lat="46.01224" lon="6.92401">
        <ele>1726</ele>
        <time>2022-08-28T06:15:01Z</time>
      </trkpt>
      <trkpt lat="46.01223" lon="6.92402">
        <ele>1726</ele>
        <time>2022-08-28T06:15:03Z</time>
      </trkpt>
      <trkpt lat="46.01222" lon="6.92403">
        <ele>1726</ele>
        <time>2022-08-28T06:15:04Z</time>
      </trkpt>
      <trkpt lat="46.0122" lon="6.92404">
        <ele>1726</ele>
        <time>2022-08-28T06:15:05Z</time>
      </trkpt>
      <trkpt lat="46.01219" lon="6.92405">
        <ele>1727</ele>
        <time>2022-08-28T06:15:06Z</time>
      </trkpt>
      <trkpt lat="46.01218" lon="6.92407">
        <ele>1727</ele>
        <time>2022-08-28T06:15:07Z</time>
      </trkpt>
      <trkpt lat="46.01217" lon="6.92408">
        <ele>1727</ele>
        <time>2022-08-28T06:15:08Z</time>
      </trkpt>
      <trkpt lat="46.01216" lon="6.92409">
        <ele>1727</ele>
        <time>2022-08-28T06:15:09Z</time>
      </trkpt>
      <trkpt lat="46.01215" lon="6.92411">
        <ele>1728</ele>
        <time>2022-08-28T06:15:10Z</time>
      </trkpt>
      <trkpt lat="46.01214" lon="6.92412">
        <ele>1728</ele>
        <time>2022-08-28T06:15:12Z</time>
      </trkpt>
      <trkpt lat="46.01214" lon="6.92413">
        <ele>1728</ele>
        <time>2022-08-28T06:15:13Z</time>
      </trkpt>
      <trkpt lat="46.01213" lon="6.92414">
        <ele>1728</ele>
        <time>2022-08-28T06:15:14Z</time>
      </trkpt>
      <trkpt lat="46.01211" lon="6.92415">
        <ele>1728</ele>
        <time>2022-08-28T06:15:15Z</time>
      </trkpt>
      <trkpt lat="46.0121" lon="6.92416">
        <ele>1728</ele>
        <time>2022-08-28T06:15:17Z</time>
      </trkpt>
      <trkpt lat="46.01209" lon="6.92417">
        <ele>1728</ele>
        <time>2022-08-28T06:15:18Z</time>
      </trkpt>
      <trkpt lat="46.01208" lon="6.92418">
        <ele>1728</ele>
        <time>2022-08-28T06:15:19Z</time>
      </trkpt>
      <trkpt lat="46.01206" lon="6.92419">
        <ele>1728</ele>
        <time>2022-08-28T06:15:20Z</time>
      </trkpt>
      <trkpt lat="46.01205" lon="6.9242">
        <ele>1728</ele>
        <time>2022-08-28T06:15:22Z</time>
      </trkpt>
      <trkpt lat="46.01204" lon="6.92421">
        <ele>1728</ele>
        <time>2022-08-28T06:15:23Z</time>
      </trkpt>
      <trkpt lat="46.01195" lon="6.92426">
        <ele>1729</ele>
        <time>2022-08-28T06:15:32Z</time>
      </trkpt>
      <trkpt lat="46.01194" lon="6.92426">
        <ele>1729</ele>
        <time>2022-08-28T06:15:33Z</time>
      </trkpt>
      <trkpt lat="46.01194" lon="6.92427">
        <ele>1729</ele>
        <time>2022-08-28T06:15:34Z</time>
      </trkpt>
      <trkpt lat="46.01193" lon="6.92427">
        <ele>1729</ele>
        <time>2022-08-28T06:15:35Z</time>
      </trkpt>
      <trkpt lat="46.01192" lon="6.92427">
        <ele>1730</ele>
        <time>2022-08-28T06:15:37Z</time>
      </trkpt>
      <trkpt lat="46.01191" lon="6.92428">
        <ele>1730</ele>
        <time>2022-08-28T06:15:38Z</time>
      </trkpt>
      <trkpt lat="46.0119" lon="6.92428">
        <ele>1730</ele>
        <time>2022-08-28T06:15:39Z</time>
      </trkpt>
      <trkpt lat="46.01189" lon="6.92429">
        <ele>1730</ele>
        <time>2022-08-28T06:15:40Z</time>
      </trkpt>
      <trkpt lat="46.01188" lon="6.92429">
        <ele>1730</ele>
        <time>2022-08-28T06:15:41Z</time>
      </trkpt>
      <trkpt lat="46.01187" lon="6.9243">
        <ele>1730</ele>
        <time>2022-08-28T06:15:42Z</time>
      </trkpt>
      <trkpt lat="46.01185" lon="6.9243">
        <ele>1730</ele>
        <time>2022-08-28T06:15:43Z</time>
      </trkpt>
      <trkpt lat="46.01183" lon="6.92431">
        <ele>1731</ele>
        <time>2022-08-28T06:15:44Z</time>
      </trkpt>
      <trkpt lat="46.01181" lon="6.92431">
        <ele>1731</ele>
        <time>2022-08-28T06:15:45Z</time>
      </trkpt>
      <trkpt lat="46.0118" lon="6.92431">
        <ele>1731</ele>
        <time>2022-08-28T06:15:47Z</time>
      </trkpt>
      <trkpt lat="46.01178" lon="6.92432">
        <ele>1731</ele>
        <time>2022-08-28T06:15:48Z</time>
      </trkpt>
      <trkpt lat="46.01177" lon="6.92432">
        <ele>1731</ele>
        <time>2022-08-28T06:15:49Z</time>
      </trkpt>
      <trkpt lat="46.01176" lon="6.92432">
        <ele>1732</ele>
        <time>2022-08-28T06:15:50Z</time>
      </trkpt>
      <trkpt lat="46.01174" lon="6.92432">
        <ele>1732</ele>
        <time>2022-08-28T06:15:52Z</time>
      </trkpt>
      <trkpt lat="46.01173" lon="6.92432">
        <ele>1732</ele>
        <time>2022-08-28T06:15:53Z</time>
      </trkpt>
      <trkpt lat="46.01172" lon="6.92431">
        <ele>1732</ele>
        <time>2022-08-28T06:15:54Z</time>
      </trkpt>
      <trkpt lat="46.01171" lon="6.92431">
        <ele>1732</ele>
        <time>2022-08-28T06:15:55Z</time>
      </trkpt>
      <trkpt lat="46.0117" lon="6.92431">
        <ele>1732</ele>
        <time>2022-08-28T06:15:56Z</time>
      </trkpt>
      <trkpt lat="46.01169" lon="6.92431">
        <ele>1732</ele>
        <time>2022-08-28T06:15:57Z</time>
      </trkpt>
      <trkpt lat="46.01159" lon="6.9243">
        <ele>1733</ele>
        <time>2022-08-28T06:16:05Z</time>
      </trkpt>
      <trkpt lat="46.01158" lon="6.9243">
        <ele>1733</ele>
        <time>2022-08-28T06:16:06Z</time>
      </trkpt>
      <trkpt lat="46.01157" lon="6.9243">
        <ele>1733</ele>
        <time>2022-08-28T06:16:07Z</time>
      </trkpt>
      <trkpt lat="46.01156" lon="6.9243">
        <ele>1734</ele>
        <time>2022-08-28T06:16:08Z</time>
      </trkpt>
      <trkpt lat="46.01155" lon="6.9243">
        <ele>1734</ele>
        <time>2022-08-28T06:16:10Z</time>
      </trkpt>
      <trkpt lat="46.01154" lon="6.92431">
        <ele>1734</ele>
        <time>2022-08-28T06:16:11Z</time>
      </trkpt>
      <trkpt lat="46.01153" lon="6.92431">
        <ele>1734</ele>
        <time>2022-08-28T06:16:12Z</time>
      </trkpt>
      <trkpt lat="46.01152" lon="6.92431">
        <ele>1734</ele>
        <time>2022-08-28T06:16:13Z</time>
      </trkpt>
      <trkpt lat="46.01151" lon="6.92431">
        <ele>1734</ele>
        <time>2022-08-28T06:16:14Z</time>
      </trkpt>
      <trkpt lat="46.0115" lon="6.92431">
        <ele>1734</ele>
        <time>2022-08-28T06:16:15Z</time>
      </trkpt>
      <trkpt lat="46.01149" lon="6.92431">
        <ele>1734</ele>
        <time>2022-08-28T06:16:16Z</time>
      </trkpt>
      <trkpt lat="46.01147" lon="6.92431">
        <ele>1734</ele>
        <time>2022-08-28T06:16:17Z</time>
      </trkpt>
      <trkpt lat="46.01146" lon="6.92431">
        <ele>1734</ele>
        <time>2022-08-28T06:16:18Z</time>
      </trkpt>
      <trkpt lat="46.01145" lon="6.92431">
        <ele>1734</ele>
        <time>2022-08-28T06:16:20Z</time>
      </trkpt>
      <trkpt lat="46.01144" lon="6.92431">
        <ele>1735</ele>
        <time>2022-08-28T06:16:22Z</time>
      </trkpt>
      <trkpt lat="46.01143" lon="6.92432">
        <ele>1735</ele>
        <time>2022-08-28T06:16:23Z</time>
      </trkpt>
      <trkpt lat="46.01142" lon="6.92432">
        <ele>1735</ele>
        <time>2022-08-28T06:16:24Z</time>
      </trkpt>
      <trkpt lat="46.0114" lon="6.92432">
        <ele>1735</ele>
        <time>2022-08-28T06:16:25Z</time>
      </trkpt>
      <trkpt lat="46.01139" lon="6.92432">
        <ele>1735</ele>
        <time>2022-08-28T06:16:26Z</time>
      </trkpt>
      <trkpt lat="46.01138" lon="6.92433">
        <ele>1735</ele>
        <time>2022-08-28T06:16:27Z</time>
      </trkpt>
      <trkpt lat="46.01136" lon="6.92434">
        <ele>1735</ele>
        <time>2022-08-28T06:16:28Z</time>
      </trkpt>
      <trkpt lat="46.01135" lon="6.92434">
        <ele>1736</ele>
        <time>2022-08-28T06:16:30Z</time>
      </trkpt>
      <trkpt lat="46.01134" lon="6.92435">
        <ele>1736</ele>
        <time>2022-08-28T06:16:31Z</time>
      </trkpt>
      <trkpt lat="46.01132" lon="6.92435">
        <ele>1736</ele>
        <time>2022-08-28T06:16:32Z</time>
      </trkpt>
      <trkpt lat="46.01131" lon="6.92436">
        <ele>1736</ele>
        <time>2022-08-28T06:16:33Z</time>
      </trkpt>
      <trkpt lat="46.01122" lon="6.92442">
        <ele>1737</ele>
        <time>2022-08-28T06:16:43Z</time>
      </trkpt>
      <trkpt lat="46.01122" lon="6.92442">
        <ele>1737</ele>
        <time>2022-08-28T06:16:44Z</time>
      </trkpt>
      <trkpt lat="46.01121" lon="6.92443">
        <ele>1737</ele>
        <time>2022-08-28T06:16:45Z</time>
      </trkpt>
      <trkpt lat="46.0112" lon="6.92444">
        <ele>1737</ele>
        <time>2022-08-28T06:16:46Z</time>
      </trkpt>
      <trkpt lat="46.01119" lon="6.92444">
        <ele>1738</ele>
        <time>2022-08-28T06:16:48Z</time>
      </trkpt>
      <trkpt lat="46.01118" lon="6.92445">
        <ele>1738</ele>
        <time>2022-08-28T06:16:49Z</time>
      </trkpt>
      <trkpt lat="46.01117" lon="6.92445">
        <ele>1738</ele>
        <time>2022-08-28T06:16:50Z</time>
      </trkpt>
      <trkpt lat="46.01116" lon="6.92446">
        <ele>1738</ele>
        <time>2022-08-28T06:16:51Z</time>
      </trkpt>
      <trkpt lat="46.01115" lon="6.92446">
        <ele>1738</ele>
        <time>2022-08-28T06:16:52Z</time>
      </trkpt>
      <trkpt lat="46.01114" lon="6.92447">
        <ele>1739</ele>
        <time>2022-08-28T06:16:53Z</time>
      </trkpt>
      <trkpt lat="46.01113" lon="6.92447">
        <ele>1739</ele>
        <time>2022-08-28T06:16:54Z</time>
      </trkpt>
      <trkpt lat="46.01112" lon="6.92448">
        <ele>1739</ele>
        <time>2022-08-28T06:16:55Z</time>
      </trkpt>
      <trkpt lat="46.0111" lon="6.92448">
        <ele>1739</ele>
        <time>2022-08-28T06:16:56Z</time>
      </trkpt>
      <trkpt lat="46.01109" lon="6.92449">
        <ele>1739</ele>
        <time>2022-08-28T06:16:58Z</time>
      </trkpt>
      <trkpt lat="46.01108" lon="6.92449">
        <ele>1740</ele>
        <time>2022-08-28T06:17:00Z</time>
      </trkpt>
      <trkpt lat="46.01107" lon="6.9245">
        <ele>1740</ele>
        <time>2022-08-28T06:17:01Z</time>
      </trkpt>
      <trkpt lat="46.01105" lon="6.9245">
        <ele>1740</ele>
        <time>2022-08-28T06:17:02Z</time>
      </trkpt>
      <trkpt lat="46.01104" lon="6.9245">
        <ele>1740</ele>
        <time>2022-08-28T06:17:03Z</time>
      </trkpt>
      <trkpt lat="46.01102" lon="6.9245">
        <ele>1741</ele>
        <time>2022-08-28T06:17:05Z</time>
      </trkpt>
      <trkpt lat="46.01101" lon="6.92451">
        <ele>1741</ele>
        <time>2022-08-28T06:17:06Z</time>
      </trkpt>
      <trkpt lat="46.01099" lon="6.92451">
        <ele>1741</ele>
        <time>2022-08-28T06:17:07Z</time>
      </trkpt>
      <trkpt lat="46.01098" lon="6.92451">
        <ele>1741</ele>
        <time>2022-08-28T06:17:08Z</time>
      </trkpt>
      <trkpt lat="46.01097" lon="6.92451">
        <ele>1740</ele>
        <time>2022-08-28T06:17:10Z</time>
      </trkpt>
      <trkpt lat="46.01095" lon="6.92451">
        <ele>1740</ele>
        <time>2022-08-28T06:17:11Z</time>
      </trkpt>
      <trkpt lat="46.01094" lon="6.92451">
        <ele>1740</ele>
        <time>2022-08-28T06:17:12Z</time>
      </trkpt>
      <trkpt lat="46.01092" lon="6.9245">
        <ele>1740</ele>
        <time>2022-08-28T06:17:13Z</time>
      </trkpt>
      <trkpt lat="46.01091" lon="6.9245">
        <ele>1740</ele>
        <time>2022-08-28T06:17:14Z</time>
      </trkpt>
      <trkpt lat="46.01089" lon="6.92449">
        <ele>1740</ele>
        <time>2022-08-28T06:17:16Z</time>
      </trkpt>
      <trkpt lat="46.01088" lon="6.92449">
        <ele>1740</ele>
        <time>2022-08-28T06:17:17Z</time>
      </trkpt>
      <trkpt lat="46.01086" lon="6.92449">
        <ele>1740</ele>
        <time>2022-08-28T06:17:18Z</time>
      </trkpt>
      <trkpt lat="46.01077" lon="6.92448">
        <ele>1741</ele>
        <time>2022-08-28T06:17:26Z</time>
      </trkpt>
      <trkpt lat="46.01076" lon="6.92448">
        <ele>1741</ele>
        <time>2022-08-28T06:17:27Z</time>
      </trkpt>
      <trkpt lat="46.01074" lon="6.92447">
        <ele>1741</ele>
        <time>2022-08-28T06:17:29Z</time>
      </trkpt>
      <trkpt lat="46.01073" lon="6.92446">
        <ele>1741</ele>
        <time>2022-08-28T06:17:30Z</time>
      </trkpt>
      <trkpt lat="46.01072" lon="6.92445">
        <ele>1741</ele>
        <time>2022-08-28T06:17:31Z</time>
      </trkpt>
      <trkpt lat="46.01071" lon="6.92445">
        <ele>1742</ele>
        <time>2022-08-28T06:17:32Z</time>
      </trkpt>
      <trkpt lat="46.0107" lon="6.92444">
        <ele>1742</ele>
        <time>2022-08-28T06:17:34Z</time>
      </trkpt>
      <trkpt lat="46.01069" lon="6.92443">
        <ele>1742</ele>
        <time>2022-08-28T06:17:35Z</time>
      </trkpt>
      <trkpt lat="46.01068" lon="6.92442">
        <ele>1742</ele>
        <time>2022-08-28T06:17:36Z</time>
      </trkpt>
      <trkpt lat="46.01066" lon="6.92441">
        <ele>1742</ele>
        <time>2022-08-28T06:17:37Z</time>
      </trkpt>
      <trkpt lat="46.01065" lon="6.92439">
        <ele>1742</ele>
        <time>2022-08-28T06:17:38Z</time>
      </trkpt>
      <trkpt lat="46.01063" lon="6.92438">
        <ele>1742</ele>
        <time>2022-08-28T06:17:39Z</time>
      </trkpt>
      <trkpt lat="46.01062" lon="6.92437">
        <ele>1742</ele>
        <time>2022-08-28T06:17:41Z</time>
      </trkpt>
      <trkpt lat="46.01061" lon="6.92435">
        <ele>1742</ele>
        <time>2022-08-28T06:17:42Z</time>
      </trkpt>
      <trkpt lat="46.01059" lon="6.92434">
        <ele>1742</ele>
        <time>2022-08-28T06:17:43Z</time>
      </trkpt>
      <trkpt lat="46.01051" lon="6.92429">
        <ele>1742</ele>
        <time>2022-08-28T06:17:51Z</time>
      </trkpt>
      <trkpt lat="46.0105" lon="6.92429">
        <ele>1743</ele>
        <time>2022-08-28T06:17:52Z</time>
      </trkpt>
      <trkpt lat="46.01049" lon="6.92429">
        <ele>1743</ele>
        <time>2022-08-28T06:17:53Z</time>
      </trkpt>
      <trkpt lat="46.01048" lon="6.92428">
        <ele>1743</ele>
        <time>2022-08-28T06:17:55Z</time>
      </trkpt>
      <trkpt lat="46.01047" lon="6.92428">
        <ele>1743</ele>
        <time>2022-08-28T06:17:56Z</time>
      </trkpt>
      <trkpt lat="46.01046" lon="6.92428">
        <ele>1743</ele>
        <time>2022-08-28T06:17:57Z</time>
      </trkpt>
      <trkpt lat="46.01044" lon="6.92427">
        <ele>1743</ele>
        <time>2022-08-28T06:17:59Z</time>
      </trkpt>
      <trkpt lat="46.01043" lon="6.92427">
        <ele>1743</ele>
        <time>2022-08-28T06:18:00Z</time>
      </trkpt>
      <trkpt lat="46.01042" lon="6.92427">
        <ele>1743</ele>
        <time>2022-08-28T06:18:01Z</time>
      </trkpt>
      <trkpt lat="46.01041" lon="6.92426">
        <ele>1743</ele>
        <time>2022-08-28T06:18:02Z</time>
      </trkpt>
      <trkpt lat="46.01039" lon="6.92426">
        <ele>1743</ele>
        <time>2022-08-28T06:18:03Z</time>
      </trkpt>
      <trkpt lat="46.01038" lon="6.92426">
        <ele>1743</ele>
        <time>2022-08-28T06:18:04Z</time>
      </trkpt>
      <trkpt lat="46.01036" lon="6.92426">
        <ele>1743</ele>
        <time>2022-08-28T06:18:05Z</time>
      </trkpt>
      <trkpt lat="46.01034" lon="6.92425">
        <ele>1743</ele>
        <time>2022-08-28T06:18:07Z</time>
      </trkpt>
      <trkpt lat="46.01032" lon="6.92425">
        <ele>1743</ele>
        <time>2022-08-28T06:18:08Z</time>
      </trkpt>
      <trkpt lat="46.0103" lon="6.92425">
        <ele>1743</ele>
        <time>2022-08-28T06:18:09Z</time>
      </trkpt>
      <trkpt lat="46.01028" lon="6.92426">
        <ele>1743</ele>
        <time>2022-08-28T06:18:10Z</time>
      </trkpt>
      <trkpt lat="46.01027" lon="6.92426">
        <ele>1744</ele>
        <time>2022-08-28T06:18:12Z</time>
      </trkpt>
      <trkpt lat="46.01025" lon="6.92426">
        <ele>1744</ele>
        <time>2022-08-28T06:18:14Z</time>
      </trkpt>
      <trkpt lat="46.01023" lon="6.92426">
        <ele>1744</ele>
        <time>2022-08-28T06:18:15Z</time>
      </trkpt>
      <trkpt lat="46.01013" lon="6.92428">
        <ele>1744</ele>
        <time>2022-08-28T06:18:23Z</time>
      </trkpt>
      <trkpt lat="46.01004" lon="6.92429">
        <ele>1746</ele>
        <time>2022-08-28T06:18:35Z</time>
      </trkpt>
      <trkpt lat="46.01" lon="6.92429">
        <ele>1746</ele>
        <time>2022-08-28T06:18:38Z</time>
      </trkpt>
      <trkpt lat="46.00998" lon="6.92429">
        <ele>1747</ele>
        <time>2022-08-28T06:18:40Z</time>
      </trkpt>
      <trkpt lat="46.00997" lon="6.92429">
        <ele>1747</ele>
        <time>2022-08-28T06:18:41Z</time>
      </trkpt>
      <trkpt lat="46.00996" lon="6.92429">
        <ele>1747</ele>
        <time>2022-08-28T06:18:42Z</time>
      </trkpt>
      <trkpt lat="46.00994" lon="6.92429">
        <ele>1747</ele>
        <time>2022-08-28T06:18:43Z</time>
      </trkpt>
      <trkpt lat="46.00991" lon="6.9243">
        <ele>1747</ele>
        <time>2022-08-28T06:18:45Z</time>
      </trkpt>
      <trkpt lat="46.0099" lon="6.9243">
        <ele>1747</ele>
        <time>2022-08-28T06:18:47Z</time>
      </trkpt>
      <trkpt lat="46.00988" lon="6.92431">
        <ele>1747</ele>
        <time>2022-08-28T06:18:48Z</time>
      </trkpt>
      <trkpt lat="46.00987" lon="6.92431">
        <ele>1747</ele>
        <time>2022-08-28T06:18:49Z</time>
      </trkpt>
      <trkpt lat="46.00985" lon="6.9243">
        <ele>1747</ele>
        <time>2022-08-28T06:18:51Z</time>
      </trkpt>
      <trkpt lat="46.00982" lon="6.9243">
        <ele>1747</ele>
        <time>2022-08-28T06:18:53Z</time>
      </trkpt>
      <trkpt lat="46.00981" lon="6.92431">
        <ele>1747</ele>
        <time>2022-08-28T06:18:55Z</time>
      </trkpt>
      <trkpt lat="46.00979" lon="6.92431">
        <ele>1748</ele>
        <time>2022-08-28T06:18:56Z</time>
      </trkpt>
      <trkpt lat="46.00977" lon="6.92431">
        <ele>1748</ele>
        <time>2022-08-28T06:18:57Z</time>
      </trkpt>
      <trkpt lat="46.00976" lon="6.92431">
        <ele>1748</ele>
        <time>2022-08-28T06:18:59Z</time>
      </trkpt>
      <trkpt lat="46.00974" lon="6.92431">
        <ele>1748</ele>
        <time>2022-08-28T06:19:00Z</time>
      </trkpt>
      <trkpt lat="46.00972" lon="6.92431">
        <ele>1748</ele>
        <time>2022-08-28T06:19:01Z</time>
      </trkpt>
      <trkpt lat="46.00964" lon="6.92435">
        <ele>1749</ele>
        <time>2022-08-28T06:19:09Z</time>
      </trkpt>
      <trkpt lat="46.00962" lon="6.92436">
        <ele>1749</ele>
        <time>2022-08-28T06:19:11Z</time>
      </trkpt>
      <trkpt lat="46.00961" lon="6.92437">
        <ele>1749</ele>
        <time>2022-08-28T06:19:12Z</time>
      </trkpt>
      <trkpt lat="46.00959" lon="6.92439">
        <ele>1749</ele>
        <time>2022-08-28T06:19:13Z</time>
      </trkpt>
      <trkpt lat="46.00958" lon="6.9244">
        <ele>1749</ele>
        <time>2022-08-28T06:19:15Z</time>
      </trkpt>
      <trkpt lat="46.00957" lon="6.92441">
        <ele>1749</ele>
        <time>2022-08-28T06:19:16Z</time>
      </trkpt>
      <trkpt lat="46.00955" lon="6.92442">
        <ele>1749</ele>
        <time>2022-08-28T06:19:17Z</time>
      </trkpt>
      <trkpt lat="46.00954" lon="6.92443">
        <ele>1749</ele>
        <time>2022-08-28T06:19:18Z</time>
      </trkpt>
      <trkpt lat="46.00952" lon="6.92443">
        <ele>1749</ele>
        <time>2022-08-28T06:19:20Z</time>
      </trkpt>
      <trkpt lat="46.00951" lon="6.92443">
        <ele>1749</ele>
        <time>2022-08-28T06:19:21Z</time>
      </trkpt>
      <trkpt lat="46.0095" lon="6.92444">
        <ele>1749</ele>
        <time>2022-08-28T06:19:22Z</time>
      </trkpt>
      <trkpt lat="46.00948" lon="6.92444">
        <ele>1749</ele>
        <time>2022-08-28T06:19:23Z</time>
      </trkpt>
      <trkpt lat="46.00947" lon="6.92444">
        <ele>1749</ele>
        <time>2022-08-28T06:19:24Z</time>
      </trkpt>
      <trkpt lat="46.00946" lon="6.92445">
        <ele>1749</ele>
        <time>2022-08-28T06:19:25Z</time>
      </trkpt>
      <trkpt lat="46.00944" lon="6.92445">
        <ele>1749</ele>
        <time>2022-08-28T06:19:26Z</time>
      </trkpt>
      <trkpt lat="46.00942" lon="6.92444">
        <ele>1749</ele>
        <time>2022-08-28T06:19:28Z</time>
      </trkpt>
      <trkpt lat="46.0094" lon="6.92444">
        <ele>1749</ele>
        <time>2022-08-28T06:19:30Z</time>
      </trkpt>
      <trkpt lat="46.00938" lon="6.92444">
        <ele>1749</ele>
        <time>2022-08-28T06:19:31Z</time>
      </trkpt>
      <trkpt lat="46.00936" lon="6.92444">
        <ele>1749</ele>
        <time>2022-08-28T06:19:32Z</time>
      </trkpt>
      <trkpt lat="46.00935" lon="6.92445">
        <ele>1749</ele>
        <time>2022-08-28T06:19:34Z</time>
      </trkpt>
      <trkpt lat="46.00933" lon="6.92445">
        <ele>1749</ele>
        <time>2022-08-28T06:19:35Z</time>
      </trkpt>
      <trkpt lat="46.00932" lon="6.92446">
        <ele>1749</ele>
        <time>2022-08-28T06:19:36Z</time>
      </trkpt>
      <trkpt lat="46.0093" lon="6.92447">
        <ele>1749</ele>
        <time>2022-08-28T06:19:37Z</time>
      </trkpt>
      <trkpt lat="46.00929" lon="6.92447">
        <ele>1750</ele>
        <time>2022-08-28T06:19:38Z</time>
      </trkpt>
      <trkpt lat="46.00927" lon="6.92448">
        <ele>1750</ele>
        <time>2022-08-28T06:19:39Z</time>
      </trkpt>
      <trkpt lat="46.00926" lon="6.92448">
        <ele>1750</ele>
        <time>2022-08-28T06:19:40Z</time>
      </trkpt>
      <trkpt lat="46.00925" lon="6.92448">
        <ele>1750</ele>
        <time>2022-08-28T06:19:41Z</time>
      </trkpt>
      <trkpt lat="46.00924" lon="6.92448">
        <ele>1750</ele>
        <time>2022-08-28T06:19:42Z</time>
      </trkpt>
      <trkpt lat="46.00923" lon="6.92448">
        <ele>1750</ele>
        <time>2022-08-28T06:19:44Z</time>
      </trkpt>
      <trkpt lat="46.00922" lon="6.92448">
        <ele>1750</ele>
        <time>2022-08-28T06:19:45Z</time>
      </trkpt>
      <trkpt lat="46.00921" lon="6.92448">
        <ele>1751</ele>
        <time>2022-08-28T06:19:46Z</time>
      </trkpt>
      <trkpt lat="46.0092" lon="6.92448">
        <ele>1751</ele>
        <time>2022-08-28T06:19:47Z</time>
      </trkpt>
      <trkpt lat="46.00919" lon="6.92448">
        <ele>1751</ele>
        <time>2022-08-28T06:19:48Z</time>
      </trkpt>
      <trkpt lat="46.00918" lon="6.92449">
        <ele>1751</ele>
        <time>2022-08-28T06:19:49Z</time>
      </trkpt>
      <trkpt lat="46.00916" lon="6.92449">
        <ele>1750</ele>
        <time>2022-08-28T06:19:51Z</time>
      </trkpt>
      <trkpt lat="46.00914" lon="6.92449">
        <ele>1750</ele>
        <time>2022-08-28T06:19:53Z</time>
      </trkpt>
      <trkpt lat="46.00913" lon="6.9245">
        <ele>1750</ele>
        <time>2022-08-28T06:19:54Z</time>
      </trkpt>
      <trkpt lat="46.00911" lon="6.9245">
        <ele>1751</ele>
        <time>2022-08-28T06:19:55Z</time>
      </trkpt>
      <trkpt lat="46.0091" lon="6.92451">
        <ele>1751</ele>
        <time>2022-08-28T06:19:56Z</time>
      </trkpt>
      <trkpt lat="46.00908" lon="6.92451">
        <ele>1751</ele>
        <time>2022-08-28T06:19:57Z</time>
      </trkpt>
      <trkpt lat="46.00906" lon="6.92452">
        <ele>1751</ele>
        <time>2022-08-28T06:19:58Z</time>
      </trkpt>
      <trkpt lat="46.00904" lon="6.92452">
        <ele>1751</ele>
        <time>2022-08-28T06:19:59Z</time>
      </trkpt>
      <trkpt lat="46.00902" lon="6.92453">
        <ele>1751</ele>
        <time>2022-08-28T06:20:00Z</time>
      </trkpt>
      <trkpt lat="46.009" lon="6.92453">
        <ele>1751</ele>
        <time>2022-08-28T06:20:02Z</time>
      </trkpt>
      <trkpt lat="46.00899" lon="6.92454">
        <ele>1751</ele>
        <time>2022-08-28T06:20:03Z</time>
      </trkpt>
      <trkpt lat="46.00897" lon="6.92454">
        <ele>1751</ele>
        <time>2022-08-28T06:20:04Z</time>
      </trkpt>
      <trkpt lat="46.00895" lon="6.92454">
        <ele>1752</ele>
        <time>2022-08-28T06:20:05Z</time>
      </trkpt>
      <trkpt lat="46.00894" lon="6.92453">
        <ele>1752</ele>
        <time>2022-08-28T06:20:06Z</time>
      </trkpt>
      <trkpt lat="46.00892" lon="6.92453">
        <ele>1752</ele>
        <time>2022-08-28T06:20:08Z</time>
      </trkpt>
      <trkpt lat="46.00891" lon="6.92453">
        <ele>1752</ele>
        <time>2022-08-28T06:20:09Z</time>
      </trkpt>
      <trkpt lat="46.00889" lon="6.92453">
        <ele>1752</ele>
        <time>2022-08-28T06:20:10Z</time>
      </trkpt>
      <trkpt lat="46.00888" lon="6.92452">
        <ele>1752</ele>
        <time>2022-08-28T06:20:11Z</time>
      </trkpt>
      <trkpt lat="46.00887" lon="6.92452">
        <ele>1752</ele>
        <time>2022-08-28T06:20:13Z</time>
      </trkpt>
      <trkpt lat="46.00886" lon="6.92451">
        <ele>1753</ele>
        <time>2022-08-28T06:20:15Z</time>
      </trkpt>
      <trkpt lat="46.00885" lon="6.92451">
        <ele>1753</ele>
        <time>2022-08-28T06:20:16Z</time>
      </trkpt>
      <trkpt lat="46.00884" lon="6.9245">
        <ele>1753</ele>
        <time>2022-08-28T06:20:17Z</time>
      </trkpt>
      <trkpt lat="46.00883" lon="6.9245">
        <ele>1753</ele>
        <time>2022-08-28T06:20:18Z</time>
      </trkpt>
      <trkpt lat="46.00881" lon="6.92449">
        <ele>1753</ele>
        <time>2022-08-28T06:20:19Z</time>
      </trkpt>
      <trkpt lat="46.0088" lon="6.92449">
        <ele>1753</ele>
        <time>2022-08-28T06:20:20Z</time>
      </trkpt>
      <trkpt lat="46.00879" lon="6.92448">
        <ele>1753</ele>
        <time>2022-08-28T06:20:21Z</time>
      </trkpt>
      <trkpt lat="46.00877" lon="6.92448">
        <ele>1753</ele>
        <time>2022-08-28T06:20:22Z</time>
      </trkpt>
      <trkpt lat="46.00876" lon="6.92448">
        <ele>1753</ele>
        <time>2022-08-28T06:20:23Z</time>
      </trkpt>
      <trkpt lat="46.00874" lon="6.92447">
        <ele>1753</ele>
        <time>2022-08-28T06:20:25Z</time>
      </trkpt>
      <trkpt lat="46.00872" lon="6.92447">
        <ele>1753</ele>
        <time>2022-08-28T06:20:27Z</time>
      </trkpt>
      <trkpt lat="46.00871" lon="6.92447">
        <ele>1754</ele>
        <time>2022-08-28T06:20:28Z</time>
      </trkpt>
      <trkpt lat="46.00863" lon="6.9244">
        <ele>1754</ele>
        <time>2022-08-28T06:20:36Z</time>
      </trkpt>
      <trkpt lat="46.00862" lon="6.92439">
        <ele>1754</ele>
        <time>2022-08-28T06:20:37Z</time>
      </trkpt>
      <trkpt lat="46.00861" lon="6.92438">
        <ele>1754</ele>
        <time>2022-08-28T06:20:38Z</time>
      </trkpt>
      <trkpt lat="46.0086" lon="6.92436">
        <ele>1754</ele>
        <time>2022-08-28T06:20:39Z</time>
      </trkpt>
      <trkpt lat="46.00859" lon="6.92435">
        <ele>1755</ele>
        <time>2022-08-28T06:20:41Z</time>
      </trkpt>
      <trkpt lat="46.00858" lon="6.92434">
        <ele>1755</ele>
        <time>2022-08-28T06:20:42Z</time>
      </trkpt>
      <trkpt lat="46.00857" lon="6.92433">
        <ele>1755</ele>
        <time>2022-08-28T06:20:43Z</time>
      </trkpt>
      <trkpt lat="46.00856" lon="6.92432">
        <ele>1755</ele>
        <time>2022-08-28T06:20:44Z</time>
      </trkpt>
      <trkpt lat="46.00856" lon="6.92431">
        <ele>1755</ele>
        <time>2022-08-28T06:20:45Z</time>
      </trkpt>
      <trkpt lat="46.00854" lon="6.9243">
        <ele>1755</ele>
        <time>2022-08-28T06:20:46Z</time>
      </trkpt>
      <trkpt lat="46.00852" lon="6.92429">
        <ele>1755</ele>
        <time>2022-08-28T06:20:47Z</time>
      </trkpt>
      <trkpt lat="46.00851" lon="6.92428">
        <ele>1755</ele>
        <time>2022-08-28T06:20:48Z</time>
      </trkpt>
      <trkpt lat="46.00849" lon="6.92428">
        <ele>1755</ele>
        <time>2022-08-28T06:20:50Z</time>
      </trkpt>
      <trkpt lat="46.00848" lon="6.92427">
        <ele>1755</ele>
        <time>2022-08-28T06:20:51Z</time>
      </trkpt>
      <trkpt lat="46.00846" lon="6.92426">
        <ele>1755</ele>
        <time>2022-08-28T06:20:52Z</time>
      </trkpt>
      <trkpt lat="46.00845" lon="6.92426">
        <ele>1755</ele>
        <time>2022-08-28T06:20:53Z</time>
      </trkpt>
      <trkpt lat="46.00844" lon="6.92425">
        <ele>1755</ele>
        <time>2022-08-28T06:20:55Z</time>
      </trkpt>
      <trkpt lat="46.00842" lon="6.92425">
        <ele>1756</ele>
        <time>2022-08-28T06:20:56Z</time>
      </trkpt>
      <trkpt lat="46.00841" lon="6.92424">
        <ele>1756</ele>
        <time>2022-08-28T06:20:57Z</time>
      </trkpt>
      <trkpt lat="46.0084" lon="6.92424">
        <ele>1756</ele>
        <time>2022-08-28T06:20:58Z</time>
      </trkpt>
      <trkpt lat="46.00838" lon="6.92423">
        <ele>1756</ele>
        <time>2022-08-28T06:20:59Z</time>
      </trkpt>
      <trkpt lat="46.00837" lon="6.92423">
        <ele>1756</ele>
        <time>2022-08-28T06:21:00Z</time>
      </trkpt>
      <trkpt lat="46.00835" lon="6.92423">
        <ele>1756</ele>
        <time>2022-08-28T06:21:01Z</time>
      </trkpt>
      <trkpt lat="46.00834" lon="6.92422">
        <ele>1756</ele>
        <time>2022-08-28T06:21:02Z</time>
      </trkpt>
      <trkpt lat="46.00832" lon="6.92422">
        <ele>1756</ele>
        <time>2022-08-28T06:21:03Z</time>
      </trkpt>
      <trkpt lat="46.0083" lon="6.92421">
        <ele>1756</ele>
        <time>2022-08-28T06:21:05Z</time>
      </trkpt>
      <trkpt lat="46.00829" lon="6.92421">
        <ele>1756</ele>
        <time>2022-08-28T06:21:07Z</time>
      </trkpt>
      <trkpt lat="46.00827" lon="6.92421">
        <ele>1756</ele>
        <time>2022-08-28T06:21:08Z</time>
      </trkpt>
      <trkpt lat="46.00818" lon="6.92414">
        <ele>1757</ele>
        <time>2022-08-28T06:21:17Z</time>
      </trkpt>
      <trkpt lat="46.00816" lon="6.92414">
        <ele>1757</ele>
        <time>2022-08-28T06:21:18Z</time>
      </trkpt>
      <trkpt lat="46.00815" lon="6.92413">
        <ele>1757</ele>
        <time>2022-08-28T06:21:19Z</time>
      </trkpt>
      <trkpt lat="46.00813" lon="6.92413">
        <ele>1757</ele>
        <time>2022-08-28T06:21:20Z</time>
      </trkpt>
      <trkpt lat="46.00812" lon="6.92412">
        <ele>1757</ele>
        <time>2022-08-28T06:21:22Z</time>
      </trkpt>
      <trkpt lat="46.0081" lon="6.92412">
        <ele>1757</ele>
        <time>2022-08-28T06:21:24Z</time>
      </trkpt>
      <trkpt lat="46.00809" lon="6.92411">
        <ele>1757</ele>
        <time>2022-08-28T06:21:25Z</time>
      </trkpt>
      <trkpt lat="46.00808" lon="6.92411">
        <ele>1757</ele>
        <time>2022-08-28T06:21:26Z</time>
      </trkpt>
      <trkpt lat="46.00807" lon="6.9241">
        <ele>1758</ele>
        <time>2022-08-28T06:21:28Z</time>
      </trkpt>
      <trkpt lat="46.00806" lon="6.9241">
        <ele>1758</ele>
        <time>2022-08-28T06:21:29Z</time>
      </trkpt>
      <trkpt lat="46.00804" lon="6.92409">
        <ele>1758</ele>
        <time>2022-08-28T06:21:30Z</time>
      </trkpt>
      <trkpt lat="46.00803" lon="6.92409">
        <ele>1758</ele>
        <time>2022-08-28T06:21:31Z</time>
      </trkpt>
      <trkpt lat="46.00802" lon="6.92408">
        <ele>1758</ele>
        <time>2022-08-28T06:21:33Z</time>
      </trkpt>
      <trkpt lat="46.00801" lon="6.92408">
        <ele>1758</ele>
        <time>2022-08-28T06:21:34Z</time>
      </trkpt>
      <trkpt lat="46.008" lon="6.92407">
        <ele>1758</ele>
        <time>2022-08-28T06:21:35Z</time>
      </trkpt>
      <trkpt lat="46.0079" lon="6.92404">
        <ele>1759</ele>
        <time>2022-08-28T06:21:43Z</time>
      </trkpt>
      <trkpt lat="46.00789" lon="6.92403">
        <ele>1759</ele>
        <time>2022-08-28T06:21:44Z</time>
      </trkpt>
      <trkpt lat="46.00788" lon="6.92403">
        <ele>1759</ele>
        <time>2022-08-28T06:21:45Z</time>
      </trkpt>
      <trkpt lat="46.00787" lon="6.92403">
        <ele>1759</ele>
        <time>2022-08-28T06:21:47Z</time>
      </trkpt>
      <trkpt lat="46.00785" lon="6.92402">
        <ele>1759</ele>
        <time>2022-08-28T06:21:48Z</time>
      </trkpt>
      <trkpt lat="46.00784" lon="6.92402">
        <ele>1759</ele>
        <time>2022-08-28T06:21:49Z</time>
      </trkpt>
      <trkpt lat="46.00783" lon="6.92402">
        <ele>1760</ele>
        <time>2022-08-28T06:21:50Z</time>
      </trkpt>
      <trkpt lat="46.00782" lon="6.92401">
        <ele>1760</ele>
        <time>2022-08-28T06:21:51Z</time>
      </trkpt>
      <trkpt lat="46.00781" lon="6.92401">
        <ele>1760</ele>
        <time>2022-08-28T06:21:52Z</time>
      </trkpt>
      <trkpt lat="46.00779" lon="6.924">
        <ele>1760</ele>
        <time>2022-08-28T06:21:53Z</time>
      </trkpt>
      <trkpt lat="46.00778" lon="6.924">
        <ele>1760</ele>
        <time>2022-08-28T06:21:55Z</time>
      </trkpt>
      <trkpt lat="46.00777" lon="6.92399">
        <ele>1760</ele>
        <time>2022-08-28T06:21:56Z</time>
      </trkpt>
      <trkpt lat="46.00776" lon="6.92398">
        <ele>1760</ele>
        <time>2022-08-28T06:21:57Z</time>
      </trkpt>
      <trkpt lat="46.00775" lon="6.92398">
        <ele>1760</ele>
        <time>2022-08-28T06:21:58Z</time>
      </trkpt>
      <trkpt lat="46.00773" lon="6.92397">
        <ele>1760</ele>
        <time>2022-08-28T06:22:00Z</time>
      </trkpt>
      <trkpt lat="46.00772" lon="6.92397">
        <ele>1760</ele>
        <time>2022-08-28T06:22:01Z</time>
      </trkpt>
      <trkpt lat="46.00771" lon="6.92396">
        <ele>1760</ele>
        <time>2022-08-28T06:22:02Z</time>
      </trkpt>
      <trkpt lat="46.00769" lon="6.92395">
        <ele>1760</ele>
        <time>2022-08-28T06:22:04Z</time>
      </trkpt>
      <trkpt lat="46.00768" lon="6.92394">
        <ele>1760</ele>
        <time>2022-08-28T06:22:06Z</time>
      </trkpt>
      <trkpt lat="46.00766" lon="6.92393">
        <ele>1760</ele>
        <time>2022-08-28T06:22:07Z</time>
      </trkpt>
      <trkpt lat="46.00765" lon="6.92393">
        <ele>1761</ele>
        <time>2022-08-28T06:22:08Z</time>
      </trkpt>
      <trkpt lat="46.00763" lon="6.92392">
        <ele>1761</ele>
        <time>2022-08-28T06:22:09Z</time>
      </trkpt>
      <trkpt lat="46.00761" lon="6.92391">
        <ele>1761</ele>
        <time>2022-08-28T06:22:10Z</time>
      </trkpt>
      <trkpt lat="46.00754" lon="6.92381">
        <ele>1762</ele>
        <time>2022-08-28T06:22:17Z</time>
      </trkpt>
      <trkpt lat="46.00746" lon="6.92376">
        <ele>1762</ele>
        <time>2022-08-28T06:22:25Z</time>
      </trkpt>
      <trkpt lat="46.00745" lon="6.92375">
        <ele>1762</ele>
        <time>2022-08-28T06:22:26Z</time>
      </trkpt>
      <trkpt lat="46.00744" lon="6.92374">
        <ele>1762</ele>
        <time>2022-08-28T06:22:27Z</time>
      </trkpt>
      <trkpt lat="46.00744" lon="6.92374">
        <ele>1763</ele>
        <time>2022-08-28T06:22:28Z</time>
      </trkpt>
      <trkpt lat="46.00743" lon="6.92373">
        <ele>1763</ele>
        <time>2022-08-28T06:22:30Z</time>
      </trkpt>
      <trkpt lat="46.00742" lon="6.92372">
        <ele>1763</ele>
        <time>2022-08-28T06:22:31Z</time>
      </trkpt>
      <trkpt lat="46.00741" lon="6.92371">
        <ele>1763</ele>
        <time>2022-08-28T06:22:32Z</time>
      </trkpt>
      <trkpt lat="46.0074" lon="6.9237">
        <ele>1763</ele>
        <time>2022-08-28T06:22:33Z</time>
      </trkpt>
      <trkpt lat="46.00739" lon="6.92369">
        <ele>1763</ele>
        <time>2022-08-28T06:22:34Z</time>
      </trkpt>
      <trkpt lat="46.00738" lon="6.92368">
        <ele>1764</ele>
        <time>2022-08-28T06:22:35Z</time>
      </trkpt>
      <trkpt lat="46.0073" lon="6.92362">
        <ele>1764</ele>
        <time>2022-08-28T06:22:42Z</time>
      </trkpt>
      <trkpt lat="46.00729" lon="6.92361">
        <ele>1764</ele>
        <time>2022-08-28T06:22:43Z</time>
      </trkpt>
      <trkpt lat="46.00728" lon="6.9236">
        <ele>1765</ele>
        <time>2022-08-28T06:22:44Z</time>
      </trkpt>
      <trkpt lat="46.00727" lon="6.92359">
        <ele>1765</ele>
        <time>2022-08-28T06:22:45Z</time>
      </trkpt>
      <trkpt lat="46.00726" lon="6.92358">
        <ele>1765</ele>
        <time>2022-08-28T06:22:47Z</time>
      </trkpt>
      <trkpt lat="46.00724" lon="6.92357">
        <ele>1765</ele>
        <time>2022-08-28T06:22:48Z</time>
      </trkpt>
      <trkpt lat="46.00723" lon="6.92356">
        <ele>1765</ele>
        <time>2022-08-28T06:22:49Z</time>
      </trkpt>
      <trkpt lat="46.00722" lon="6.92355">
        <ele>1765</ele>
        <time>2022-08-28T06:22:50Z</time>
      </trkpt>
      <trkpt lat="46.00721" lon="6.92354">
        <ele>1766</ele>
        <time>2022-08-28T06:22:52Z</time>
      </trkpt>
      <trkpt lat="46.0072" lon="6.92353">
        <ele>1766</ele>
        <time>2022-08-28T06:22:53Z</time>
      </trkpt>
      <trkpt lat="46.00719" lon="6.92351">
        <ele>1766</ele>
        <time>2022-08-28T06:22:54Z</time>
      </trkpt>
      <trkpt lat="46.00718" lon="6.9235">
        <ele>1766</ele>
        <time>2022-08-28T06:22:55Z</time>
      </trkpt>
      <trkpt lat="46.00717" lon="6.92349">
        <ele>1767</ele>
        <time>2022-08-28T06:22:57Z</time>
      </trkpt>
      <trkpt lat="46.00716" lon="6.92347">
        <ele>1767</ele>
        <time>2022-08-28T06:22:59Z</time>
      </trkpt>
      <trkpt lat="46.00715" lon="6.92346">
        <ele>1767</ele>
        <time>2022-08-28T06:23:00Z</time>
      </trkpt>
      <trkpt lat="46.00714" lon="6.92346">
        <ele>1767</ele>
        <time>2022-08-28T06:23:01Z</time>
      </trkpt>
      <trkpt lat="46.00713" lon="6.92345">
        <ele>1767</ele>
        <time>2022-08-28T06:23:02Z</time>
      </trkpt>
      <trkpt lat="46.00711" lon="6.92345">
        <ele>1767</ele>
        <time>2022-08-28T06:23:03Z</time>
      </trkpt>
      <trkpt lat="46.0071" lon="6.92345">
        <ele>1767</ele>
        <time>2022-08-28T06:23:05Z</time>
      </trkpt>
      <trkpt lat="46.00709" lon="6.92344">
        <ele>1767</ele>
        <time>2022-08-28T06:23:07Z</time>
      </trkpt>
      <trkpt lat="46.00707" lon="6.92344">
        <ele>1767</ele>
        <time>2022-08-28T06:23:08Z</time>
      </trkpt>
      <trkpt lat="46.00706" lon="6.92344">
        <ele>1767</ele>
        <time>2022-08-28T06:23:09Z</time>
      </trkpt>
      <trkpt lat="46.00705" lon="6.92343">
        <ele>1767</ele>
        <time>2022-08-28T06:23:10Z</time>
      </trkpt>
      <trkpt lat="46.00704" lon="6.92343">
        <ele>1767</ele>
        <time>2022-08-28T06:23:12Z</time>
      </trkpt>
      <trkpt lat="46.00703" lon="6.92343">
        <ele>1767</ele>
        <time>2022-08-28T06:23:13Z</time>
      </trkpt>
      <trkpt lat="46.00702" lon="6.92343">
        <ele>1767</ele>
        <time>2022-08-28T06:23:14Z</time>
      </trkpt>
      <trkpt lat="46.00701" lon="6.92343">
        <ele>1767</ele>
        <time>2022-08-28T06:23:15Z</time>
      </trkpt>
      <trkpt lat="46.007" lon="6.92343">
        <ele>1767</ele>
        <time>2022-08-28T06:23:16Z</time>
      </trkpt>
      <trkpt lat="46.00699" lon="6.92343">
        <ele>1767</ele>
        <time>2022-08-28T06:23:18Z</time>
      </trkpt>
      <trkpt lat="46.00698" lon="6.92342">
        <ele>1767</ele>
        <time>2022-08-28T06:23:19Z</time>
      </trkpt>
      <trkpt lat="46.00697" lon="6.92342">
        <ele>1768</ele>
        <time>2022-08-28T06:23:20Z</time>
      </trkpt>
      <trkpt lat="46.00696" lon="6.92342">
        <ele>1769</ele>
        <time>2022-08-28T06:23:22Z</time>
      </trkpt>
      <trkpt lat="46.00694" lon="6.92342">
        <ele>1769</ele>
        <time>2022-08-28T06:23:23Z</time>
      </trkpt>
      <trkpt lat="46.00693" lon="6.92342">
        <ele>1769</ele>
        <time>2022-08-28T06:23:24Z</time>
      </trkpt>
      <trkpt lat="46.00692" lon="6.92342">
        <ele>1769</ele>
        <time>2022-08-28T06:23:25Z</time>
      </trkpt>
      <trkpt lat="46.0069" lon="6.92343">
        <ele>1769</ele>
        <time>2022-08-28T06:23:27Z</time>
      </trkpt>
      <trkpt lat="46.00689" lon="6.92343">
        <ele>1769</ele>
        <time>2022-08-28T06:23:28Z</time>
      </trkpt>
      <trkpt lat="46.00687" lon="6.92343">
        <ele>1769</ele>
        <time>2022-08-28T06:23:29Z</time>
      </trkpt>
      <trkpt lat="46.00686" lon="6.92343">
        <ele>1769</ele>
        <time>2022-08-28T06:23:30Z</time>
      </trkpt>
      <trkpt lat="46.00685" lon="6.92343">
        <ele>1769</ele>
        <time>2022-08-28T06:23:32Z</time>
      </trkpt>
      <trkpt lat="46.00683" lon="6.92343">
        <ele>1769</ele>
        <time>2022-08-28T06:23:33Z</time>
      </trkpt>
      <trkpt lat="46.00682" lon="6.92343">
        <ele>1770</ele>
        <time>2022-08-28T06:23:34Z</time>
      </trkpt>
      <trkpt lat="46.00681" lon="6.92343">
        <ele>1770</ele>
        <time>2022-08-28T06:23:35Z</time>
      </trkpt>
      <trkpt lat="46.00679" lon="6.92343">
        <ele>1770</ele>
        <time>2022-08-28T06:23:37Z</time>
      </trkpt>
      <trkpt lat="46.00678" lon="6.92343">
        <ele>1771</ele>
        <time>2022-08-28T06:23:38Z</time>
      </trkpt>
      <trkpt lat="46.00677" lon="6.92342">
        <ele>1771</ele>
        <time>2022-08-28T06:23:39Z</time>
      </trkpt>
      <trkpt lat="46.00676" lon="6.92342">
        <ele>1771</ele>
        <time>2022-08-28T06:23:40Z</time>
      </trkpt>
      <trkpt lat="46.00675" lon="6.92341">
        <ele>1771</ele>
        <time>2022-08-28T06:23:42Z</time>
      </trkpt>
      <trkpt lat="46.00674" lon="6.92341">
        <ele>1771</ele>
        <time>2022-08-28T06:23:43Z</time>
      </trkpt>
      <trkpt lat="46.00673" lon="6.9234">
        <ele>1771</ele>
        <time>2022-08-28T06:23:44Z</time>
      </trkpt>
      <trkpt lat="46.00672" lon="6.9234">
        <ele>1772</ele>
        <time>2022-08-28T06:23:45Z</time>
      </trkpt>
      <trkpt lat="46.00671" lon="6.92339">
        <ele>1772</ele>
        <time>2022-08-28T06:23:47Z</time>
      </trkpt>
      <trkpt lat="46.0067" lon="6.92339">
        <ele>1772</ele>
        <time>2022-08-28T06:23:49Z</time>
      </trkpt>
      <trkpt lat="46.00669" lon="6.92338">
        <ele>1772</ele>
        <time>2022-08-28T06:23:50Z</time>
      </trkpt>
      <trkpt lat="46.00662" lon="6.9233">
        <ele>1774</ele>
        <time>2022-08-28T06:24:00Z</time>
      </trkpt>
      <trkpt lat="46.00653" lon="6.92334">
        <ele>1774</ele>
        <time>2022-08-28T06:24:10Z</time>
      </trkpt>
      <trkpt lat="46.00652" lon="6.92333">
        <ele>1774</ele>
        <time>2022-08-28T06:24:11Z</time>
      </trkpt>
      <trkpt lat="46.00651" lon="6.92333">
        <ele>1775</ele>
        <time>2022-08-28T06:24:13Z</time>
      </trkpt>
      <trkpt lat="46.0065" lon="6.92332">
        <ele>1775</ele>
        <time>2022-08-28T06:24:15Z</time>
      </trkpt>
      <trkpt lat="46.00649" lon="6.92332">
        <ele>1775</ele>
        <time>2022-08-28T06:24:16Z</time>
      </trkpt>
      <trkpt lat="46.00648" lon="6.92332">
        <ele>1775</ele>
        <time>2022-08-28T06:24:17Z</time>
      </trkpt>
      <trkpt lat="46.00647" lon="6.92331">
        <ele>1775</ele>
        <time>2022-08-28T06:24:18Z</time>
      </trkpt>
      <trkpt lat="46.00646" lon="6.92331">
        <ele>1776</ele>
        <time>2022-08-28T06:24:20Z</time>
      </trkpt>
      <trkpt lat="46.00646" lon="6.92331">
        <ele>1776</ele>
        <time>2022-08-28T06:24:21Z</time>
      </trkpt>
      <trkpt lat="46.00645" lon="6.9233">
        <ele>1776</ele>
        <time>2022-08-28T06:24:22Z</time>
      </trkpt>
      <trkpt lat="46.00644" lon="6.9233">
        <ele>1776</ele>
        <time>2022-08-28T06:24:23Z</time>
      </trkpt>
      <trkpt lat="46.00635" lon="6.92331">
        <ele>1777</ele>
        <time>2022-08-28T06:24:32Z</time>
      </trkpt>
      <trkpt lat="46.00633" lon="6.92331">
        <ele>1777</ele>
        <time>2022-08-28T06:24:34Z</time>
      </trkpt>
      <trkpt lat="46.00632" lon="6.92331">
        <ele>1777</ele>
        <time>2022-08-28T06:24:36Z</time>
      </trkpt>
      <trkpt lat="46.00631" lon="6.92332">
        <ele>1777</ele>
        <time>2022-08-28T06:24:38Z</time>
      </trkpt>
      <trkpt lat="46.0063" lon="6.92332">
        <ele>1777</ele>
        <time>2022-08-28T06:24:39Z</time>
      </trkpt>
      <trkpt lat="46.00628" lon="6.92332">
        <ele>1777</ele>
        <time>2022-08-28T06:24:40Z</time>
      </trkpt>
      <trkpt lat="46.00627" lon="6.92333">
        <ele>1777</ele>
        <time>2022-08-28T06:24:41Z</time>
      </trkpt>
      <trkpt lat="46.00626" lon="6.92333">
        <ele>1777</ele>
        <time>2022-08-28T06:24:42Z</time>
      </trkpt>
      <trkpt lat="46.00625" lon="6.92333">
        <ele>1777</ele>
        <time>2022-08-28T06:24:43Z</time>
      </trkpt>
      <trkpt lat="46.00624" lon="6.92334">
        <ele>1777</ele>
        <time>2022-08-28T06:24:44Z</time>
      </trkpt>
      <trkpt lat="46.00622" lon="6.92335">
        <ele>1777</ele>
        <time>2022-08-28T06:24:46Z</time>
      </trkpt>
      <trkpt lat="46.00621" lon="6.92336">
        <ele>1777</ele>
        <time>2022-08-28T06:24:47Z</time>
      </trkpt>
      <trkpt lat="46.00619" lon="6.92337">
        <ele>1777</ele>
        <time>2022-08-28T06:24:48Z</time>
      </trkpt>
      <trkpt lat="46.00617" lon="6.92338">
        <ele>1777</ele>
        <time>2022-08-28T06:24:50Z</time>
      </trkpt>
      <trkpt lat="46.00615" lon="6.92339">
        <ele>1777</ele>
        <time>2022-08-28T06:24:53Z</time>
      </trkpt>
      <trkpt lat="46.00612" lon="6.9234">
        <ele>1778</ele>
        <time>2022-08-28T06:24:55Z</time>
      </trkpt>
      <trkpt lat="46.0061" lon="6.92341">
        <ele>1778</ele>
        <time>2022-08-28T06:24:57Z</time>
      </trkpt>
      <trkpt lat="46.00608" lon="6.92343">
        <ele>1778</ele>
        <time>2022-08-28T06:24:58Z</time>
      </trkpt>
      <trkpt lat="46.00607" lon="6.92344">
        <ele>1778</ele>
        <time>2022-08-28T06:25:00Z</time>
      </trkpt>
      <trkpt lat="46.00606" lon="6.92345">
        <ele>1778</ele>
        <time>2022-08-28T06:25:02Z</time>
      </trkpt>
      <trkpt lat="46.00605" lon="6.92347">
        <ele>1778</ele>
        <time>2022-08-28T06:25:03Z</time>
      </trkpt>
      <trkpt lat="46.00604" lon="6.92348">
        <ele>1779</ele>
        <time>2022-08-28T06:25:04Z</time>
      </trkpt>
      <trkpt lat="46.00603" lon="6.92349">
        <ele>1779</ele>
        <time>2022-08-28T06:25:05Z</time>
      </trkpt>
      <trkpt lat="46.00602" lon="6.92351">
        <ele>1779</ele>
        <time>2022-08-28T06:25:06Z</time>
      </trkpt>
      <trkpt lat="46.00601" lon="6.92352">
        <ele>1779</ele>
        <time>2022-08-28T06:25:07Z</time>
      </trkpt>
      <trkpt lat="46.006" lon="6.92354">
        <ele>1779</ele>
        <time>2022-08-28T06:25:08Z</time>
      </trkpt>
      <trkpt lat="46.00599" lon="6.92355">
        <ele>1779</ele>
        <time>2022-08-28T06:25:09Z</time>
      </trkpt>
      <trkpt lat="46.00598" lon="6.92357">
        <ele>1779</ele>
        <time>2022-08-28T06:25:10Z</time>
      </trkpt>
      <trkpt lat="46.00597" lon="6.92359">
        <ele>1779</ele>
        <time>2022-08-28T06:25:12Z</time>
      </trkpt>
      <trkpt lat="46.00595" lon="6.92361">
        <ele>1779</ele>
        <time>2022-08-28T06:25:13Z</time>
      </trkpt>
      <trkpt lat="46.00594" lon="6.92362">
        <ele>1779</ele>
        <time>2022-08-28T06:25:14Z</time>
      </trkpt>
      <trkpt lat="46.00594" lon="6.92364">
        <ele>1780</ele>
        <time>2022-08-28T06:25:15Z</time>
      </trkpt>
      <trkpt lat="46.00593" lon="6.92367">
        <ele>1780</ele>
        <time>2022-08-28T06:25:17Z</time>
      </trkpt>
      <trkpt lat="46.00592" lon="6.92369">
        <ele>1780</ele>
        <time>2022-08-28T06:25:19Z</time>
      </trkpt>
      <trkpt lat="46.00591" lon="6.92371">
        <ele>1780</ele>
        <time>2022-08-28T06:25:20Z</time>
      </trkpt>
      <trkpt lat="46.00591" lon="6.92373">
        <ele>1780</ele>
        <time>2022-08-28T06:25:21Z</time>
      </trkpt>
      <trkpt lat="46.0059" lon="6.92375">
        <ele>1780</ele>
        <time>2022-08-28T06:25:22Z</time>
      </trkpt>
      <trkpt lat="46.00589" lon="6.92377">
        <ele>1780</ele>
        <time>2022-08-28T06:25:24Z</time>
      </trkpt>
      <trkpt lat="46.00588" lon="6.92378">
        <ele>1780</ele>
        <time>2022-08-28T06:25:25Z</time>
      </trkpt>
      <trkpt lat="46.00588" lon="6.9238">
        <ele>1780</ele>
        <time>2022-08-28T06:25:26Z</time>
      </trkpt>
      <trkpt lat="46.00587" lon="6.92381">
        <ele>1780</ele>
        <time>2022-08-28T06:25:27Z</time>
      </trkpt>
      <trkpt lat="46.00586" lon="6.92383">
        <ele>1781</ele>
        <time>2022-08-28T06:25:29Z</time>
      </trkpt>
      <trkpt lat="46.00585" lon="6.92384">
        <ele>1781</ele>
        <time>2022-08-28T06:25:31Z</time>
      </trkpt>
      <trkpt lat="46.00585" lon="6.92386">
        <ele>1781</ele>
        <time>2022-08-28T06:25:32Z</time>
      </trkpt>
      <trkpt lat="46.00584" lon="6.92388">
        <ele>1781</ele>
        <time>2022-08-28T06:25:33Z</time>
      </trkpt>
      <trkpt lat="46.00583" lon="6.9239">
        <ele>1781</ele>
        <time>2022-08-28T06:25:34Z</time>
      </trkpt>
      <trkpt lat="46.00582" lon="6.92392">
        <ele>1781</ele>
        <time>2022-08-28T06:25:35Z</time>
      </trkpt>
      <trkpt lat="46.00581" lon="6.92393">
        <ele>1782</ele>
        <time>2022-08-28T06:25:37Z</time>
      </trkpt>
      <trkpt lat="46.00581" lon="6.92395">
        <ele>1782</ele>
        <time>2022-08-28T06:25:38Z</time>
      </trkpt>
      <trkpt lat="46.0058" lon="6.92397">
        <ele>1782</ele>
        <time>2022-08-28T06:25:39Z</time>
      </trkpt>
      <trkpt lat="46.00576" lon="6.9241">
        <ele>1783</ele>
        <time>2022-08-28T06:25:47Z</time>
      </trkpt>
      <trkpt lat="46.00576" lon="6.92413">
        <ele>1783</ele>
        <time>2022-08-28T06:25:49Z</time>
      </trkpt>
      <trkpt lat="46.00575" lon="6.92415">
        <ele>1783</ele>
        <time>2022-08-28T06:25:50Z</time>
      </trkpt>
      <trkpt lat="46.00574" lon="6.92418">
        <ele>1783</ele>
        <time>2022-08-28T06:25:52Z</time>
      </trkpt>
      <trkpt lat="46.00573" lon="6.9242">
        <ele>1783</ele>
        <time>2022-08-28T06:25:54Z</time>
      </trkpt>
      <trkpt lat="46.00572" lon="6.92422">
        <ele>1783</ele>
        <time>2022-08-28T06:25:55Z</time>
      </trkpt>
      <trkpt lat="46.00567" lon="6.92434">
        <ele>1784</ele>
        <time>2022-08-28T06:26:04Z</time>
      </trkpt>
      <trkpt lat="46.00567" lon="6.92435">
        <ele>1784</ele>
        <time>2022-08-28T06:26:05Z</time>
      </trkpt>
      <trkpt lat="46.00566" lon="6.92437">
        <ele>1784</ele>
        <time>2022-08-28T06:26:06Z</time>
      </trkpt>
      <trkpt lat="46.00566" lon="6.92438">
        <ele>1784</ele>
        <time>2022-08-28T06:26:07Z</time>
      </trkpt>
      <trkpt lat="46.00565" lon="6.92439">
        <ele>1784</ele>
        <time>2022-08-28T06:26:08Z</time>
      </trkpt>
      <trkpt lat="46.00565" lon="6.9244">
        <ele>1784</ele>
        <time>2022-08-28T06:26:09Z</time>
      </trkpt>
      <trkpt lat="46.00564" lon="6.92442">
        <ele>1784</ele>
        <time>2022-08-28T06:26:10Z</time>
      </trkpt>
      <trkpt lat="46.00563" lon="6.92445">
        <ele>1784</ele>
        <time>2022-08-28T06:26:12Z</time>
      </trkpt>
      <trkpt lat="46.00561" lon="6.92448">
        <ele>1784</ele>
        <time>2022-08-28T06:26:14Z</time>
      </trkpt>
      <trkpt lat="46.0056" lon="6.92451">
        <ele>1784</ele>
        <time>2022-08-28T06:26:16Z</time>
      </trkpt>
      <trkpt lat="46.00559" lon="6.92454">
        <ele>1785</ele>
        <time>2022-08-28T06:26:18Z</time>
      </trkpt>
      <trkpt lat="46.00557" lon="6.92456">
        <ele>1785</ele>
        <time>2022-08-28T06:26:19Z</time>
      </trkpt>
      <trkpt lat="46.00556" lon="6.92457">
        <ele>1785</ele>
        <time>2022-08-28T06:26:21Z</time>
      </trkpt>
      <trkpt lat="46.00555" lon="6.92458">
        <ele>1785</ele>
        <time>2022-08-28T06:26:22Z</time>
      </trkpt>
      <trkpt lat="46.00554" lon="6.9246">
        <ele>1785</ele>
        <time>2022-08-28T06:26:23Z</time>
      </trkpt>
      <trkpt lat="46.00552" lon="6.92461">
        <ele>1785</ele>
        <time>2022-08-28T06:26:24Z</time>
      </trkpt>
      <trkpt lat="46.00544" lon="6.92465">
        <ele>1786</ele>
        <time>2022-08-28T06:26:32Z</time>
      </trkpt>
      <trkpt lat="46.00541" lon="6.92466">
        <ele>1787</ele>
        <time>2022-08-28T06:26:34Z</time>
      </trkpt>
      <trkpt lat="46.00538" lon="6.92466">
        <ele>1787</ele>
        <time>2022-08-28T06:26:36Z</time>
      </trkpt>
      <trkpt lat="46.00536" lon="6.92465">
        <ele>1787</ele>
        <time>2022-08-28T06:26:38Z</time>
      </trkpt>
      <trkpt lat="46.00533" lon="6.92465">
        <ele>1787</ele>
        <time>2022-08-28T06:26:40Z</time>
      </trkpt>
      <trkpt lat="46.0053" lon="6.92464">
        <ele>1787</ele>
        <time>2022-08-28T06:26:42Z</time>
      </trkpt>
      <trkpt lat="46.00527" lon="6.92464">
        <ele>1788</ele>
        <time>2022-08-28T06:26:44Z</time>
      </trkpt>
      <trkpt lat="46.00524" lon="6.92463">
        <ele>1788</ele>
        <time>2022-08-28T06:26:46Z</time>
      </trkpt>
      <trkpt lat="46.00522" lon="6.92462">
        <ele>1788</ele>
        <time>2022-08-28T06:26:48Z</time>
      </trkpt>
      <trkpt lat="46.00519" lon="6.92461">
        <ele>1788</ele>
        <time>2022-08-28T06:26:50Z</time>
      </trkpt>
      <trkpt lat="46.00516" lon="6.9246">
        <ele>1788</ele>
        <time>2022-08-28T06:26:52Z</time>
      </trkpt>
      <trkpt lat="46.00513" lon="6.92459">
        <ele>1788</ele>
        <time>2022-08-28T06:26:54Z</time>
      </trkpt>
      <trkpt lat="46.00511" lon="6.92458">
        <ele>1788</ele>
        <time>2022-08-28T06:26:56Z</time>
      </trkpt>
      <trkpt lat="46.00509" lon="6.92456">
        <ele>1788</ele>
        <time>2022-08-28T06:26:58Z</time>
      </trkpt>
      <trkpt lat="46.00506" lon="6.92455">
        <ele>1788</ele>
        <time>2022-08-28T06:27:00Z</time>
      </trkpt>
      <trkpt lat="46.00504" lon="6.92454">
        <ele>1789</ele>
        <time>2022-08-28T06:27:02Z</time>
      </trkpt>
      <trkpt lat="46.00502" lon="6.92452">
        <ele>1789</ele>
        <time>2022-08-28T06:27:04Z</time>
      </trkpt>
      <trkpt lat="46.005" lon="6.92451">
        <ele>1789</ele>
        <time>2022-08-28T06:27:06Z</time>
      </trkpt>
      <trkpt lat="46.00498" lon="6.9245">
        <ele>1789</ele>
        <time>2022-08-28T06:27:08Z</time>
      </trkpt>
      <trkpt lat="46.00495" lon="6.92449">
        <ele>1789</ele>
        <time>2022-08-28T06:27:10Z</time>
      </trkpt>
      <trkpt lat="46.00493" lon="6.92448">
        <ele>1789</ele>
        <time>2022-08-28T06:27:12Z</time>
      </trkpt>
      <trkpt lat="46.00491" lon="6.92447">
        <ele>1789</ele>
        <time>2022-08-28T06:27:14Z</time>
      </trkpt>
      <trkpt lat="46.0049" lon="6.92446">
        <ele>1790</ele>
        <time>2022-08-28T06:27:16Z</time>
      </trkpt>
      <trkpt lat="46.00487" lon="6.92445">
        <ele>1790</ele>
        <time>2022-08-28T06:27:18Z</time>
      </trkpt>
      <trkpt lat="46.00485" lon="6.92444">
        <ele>1790</ele>
        <time>2022-08-28T06:27:20Z</time>
      </trkpt>
      <trkpt lat="46.00483" lon="6.92443">
        <ele>1790</ele>
        <time>2022-08-28T06:27:22Z</time>
      </trkpt>
      <trkpt lat="46.0048" lon="6.92442">
        <ele>1790</ele>
        <time>2022-08-28T06:27:24Z</time>
      </trkpt>
      <trkpt lat="46.00478" lon="6.9244">
        <ele>1790</ele>
        <time>2022-08-28T06:27:26Z</time>
      </trkpt>
      <trkpt lat="46.00476" lon="6.92439">
        <ele>1791</ele>
        <time>2022-08-28T06:27:28Z</time>
      </trkpt>
      <trkpt lat="46.00473" lon="6.92438">
        <ele>1791</ele>
        <time>2022-08-28T06:27:30Z</time>
      </trkpt>
      <trkpt lat="46.00472" lon="6.92437">
        <ele>1791</ele>
        <time>2022-08-28T06:27:32Z</time>
      </trkpt>
      <trkpt lat="46.0047" lon="6.92436">
        <ele>1791</ele>
        <time>2022-08-28T06:27:33Z</time>
      </trkpt>
      <trkpt lat="46.00469" lon="6.92435">
        <ele>1791</ele>
        <time>2022-08-28T06:27:34Z</time>
      </trkpt>
      <trkpt lat="46.00467" lon="6.92434">
        <ele>1792</ele>
        <time>2022-08-28T06:27:36Z</time>
      </trkpt>
      <trkpt lat="46.00466" lon="6.92433">
        <ele>1792</ele>
        <time>2022-08-28T06:27:37Z</time>
      </trkpt>
      <trkpt lat="46.00464" lon="6.92432">
        <ele>1792</ele>
        <time>2022-08-28T06:27:38Z</time>
      </trkpt>
      <trkpt lat="46.00463" lon="6.92432">
        <ele>1792</ele>
        <time>2022-08-28T06:27:39Z</time>
      </trkpt>
      <trkpt lat="46.00462" lon="6.92431">
        <ele>1792</ele>
        <time>2022-08-28T06:27:41Z</time>
      </trkpt>
      <trkpt lat="46.00461" lon="6.9243">
        <ele>1792</ele>
        <time>2022-08-28T06:27:43Z</time>
      </trkpt>
      <trkpt lat="46.0046" lon="6.92429">
        <ele>1792</ele>
        <time>2022-08-28T06:27:44Z</time>
      </trkpt>
      <trkpt lat="46.00459" lon="6.92429">
        <ele>1792</ele>
        <time>2022-08-28T06:27:45Z</time>
      </trkpt>
      <trkpt lat="46.00458" lon="6.92428">
        <ele>1792</ele>
        <time>2022-08-28T06:27:46Z</time>
      </trkpt>
      <trkpt lat="46.00456" lon="6.92427">
        <ele>1792</ele>
        <time>2022-08-28T06:27:47Z</time>
      </trkpt>
      <trkpt lat="46.00455" lon="6.92427">
        <ele>1793</ele>
        <time>2022-08-28T06:27:48Z</time>
      </trkpt>
      <trkpt lat="46.00454" lon="6.92426">
        <ele>1793</ele>
        <time>2022-08-28T06:27:49Z</time>
      </trkpt>
      <trkpt lat="46.00453" lon="6.92425">
        <ele>1793</ele>
        <time>2022-08-28T06:27:50Z</time>
      </trkpt>
      <trkpt lat="46.00452" lon="6.92424">
        <ele>1793</ele>
        <time>2022-08-28T06:27:51Z</time>
      </trkpt>
      <trkpt lat="46.0045" lon="6.92424">
        <ele>1793</ele>
        <time>2022-08-28T06:27:53Z</time>
      </trkpt>
      <trkpt lat="46.00449" lon="6.92423">
        <ele>1793</ele>
        <time>2022-08-28T06:27:54Z</time>
      </trkpt>
      <trkpt lat="46.00448" lon="6.92422">
        <ele>1793</ele>
        <time>2022-08-28T06:27:55Z</time>
      </trkpt>
      <trkpt lat="46.00447" lon="6.92421">
        <ele>1794</ele>
        <time>2022-08-28T06:27:56Z</time>
      </trkpt>
      <trkpt lat="46.00446" lon="6.9242">
        <ele>1794</ele>
        <time>2022-08-28T06:27:58Z</time>
      </trkpt>
      <trkpt lat="46.00444" lon="6.92419">
        <ele>1794</ele>
        <time>2022-08-28T06:27:59Z</time>
      </trkpt>
      <trkpt lat="46.00443" lon="6.92418">
        <ele>1794</ele>
        <time>2022-08-28T06:28:00Z</time>
      </trkpt>
      <trkpt lat="46.00442" lon="6.92418">
        <ele>1794</ele>
        <time>2022-08-28T06:28:01Z</time>
      </trkpt>
      <trkpt lat="46.00441" lon="6.92417">
        <ele>1794</ele>
        <time>2022-08-28T06:28:03Z</time>
      </trkpt>
      <trkpt lat="46.00439" lon="6.92416">
        <ele>1794</ele>
        <time>2022-08-28T06:28:04Z</time>
      </trkpt>
      <trkpt lat="46.00438" lon="6.92415">
        <ele>1795</ele>
        <time>2022-08-28T06:28:05Z</time>
      </trkpt>
      <trkpt lat="46.00437" lon="6.92413">
        <ele>1795</ele>
        <time>2022-08-28T06:28:06Z</time>
      </trkpt>
      <trkpt lat="46.00436" lon="6.92412">
        <ele>1795</ele>
        <time>2022-08-28T06:28:08Z</time>
      </trkpt>
      <trkpt lat="46.00435" lon="6.9241">
        <ele>1795</ele>
        <time>2022-08-28T06:28:10Z</time>
      </trkpt>
      <trkpt lat="46.00434" lon="6.92409">
        <ele>1795</ele>
        <time>2022-08-28T06:28:11Z</time>
      </trkpt>
      <trkpt lat="46.00433" lon="6.92408">
        <ele>1795</ele>
        <time>2022-08-28T06:28:12Z</time>
      </trkpt>
      <trkpt lat="46.00432" lon="6.92406">
        <ele>1795</ele>
        <time>2022-08-28T06:28:13Z</time>
      </trkpt>
      <trkpt lat="46.00431" lon="6.92405">
        <ele>1795</ele>
        <time>2022-08-28T06:28:14Z</time>
      </trkpt>
      <trkpt lat="46.00429" lon="6.92404">
        <ele>1795</ele>
        <time>2022-08-28T06:28:15Z</time>
      </trkpt>
      <trkpt lat="46.00428" lon="6.92403">
        <ele>1795</ele>
        <time>2022-08-28T06:28:16Z</time>
      </trkpt>
      <trkpt lat="46.00427" lon="6.92402">
        <ele>1795</ele>
        <time>2022-08-28T06:28:17Z</time>
      </trkpt>
      <trkpt lat="46.00426" lon="6.924">
        <ele>1796</ele>
        <time>2022-08-28T06:28:19Z</time>
      </trkpt>
      <trkpt lat="46.00425" lon="6.92399">
        <ele>1796</ele>
        <time>2022-08-28T06:28:20Z</time>
      </trkpt>
      <trkpt lat="46.00424" lon="6.92398">
        <ele>1796</ele>
        <time>2022-08-28T06:28:21Z</time>
      </trkpt>
      <trkpt lat="46.00422" lon="6.92397">
        <ele>1796</ele>
        <time>2022-08-28T06:28:22Z</time>
      </trkpt>
      <trkpt lat="46.00421" lon="6.92396">
        <ele>1796</ele>
        <time>2022-08-28T06:28:23Z</time>
      </trkpt>
      <trkpt lat="46.0042" lon="6.92394">
        <ele>1796</ele>
        <time>2022-08-28T06:28:24Z</time>
      </trkpt>
      <trkpt lat="46.00418" lon="6.92393">
        <ele>1796</ele>
        <time>2022-08-28T06:28:25Z</time>
      </trkpt>
      <trkpt lat="46.00417" lon="6.92391">
        <ele>1797</ele>
        <time>2022-08-28T06:28:26Z</time>
      </trkpt>
      <trkpt lat="46.00416" lon="6.9239">
        <ele>1797</ele>
        <time>2022-08-28T06:28:28Z</time>
      </trkpt>
      <trkpt lat="46.00415" lon="6.92389">
        <ele>1797</ele>
        <time>2022-08-28T06:28:29Z</time>
      </trkpt>
      <trkpt lat="46.00414" lon="6.92387">
        <ele>1797</ele>
        <time>2022-08-28T06:28:30Z</time>
      </trkpt>
      <trkpt lat="46.00413" lon="6.92386">
        <ele>1797</ele>
        <time>2022-08-28T06:28:31Z</time>
      </trkpt>
      <trkpt lat="46.00412" lon="6.92385">
        <ele>1797</ele>
        <time>2022-08-28T06:28:33Z</time>
      </trkpt>
      <trkpt lat="46.00411" lon="6.92384">
        <ele>1797</ele>
        <time>2022-08-28T06:28:34Z</time>
      </trkpt>
      <trkpt lat="46.0041" lon="6.92382">
        <ele>1797</ele>
        <time>2022-08-28T06:28:35Z</time>
      </trkpt>
      <trkpt lat="46.00409" lon="6.92381">
        <ele>1797</ele>
        <time>2022-08-28T06:28:36Z</time>
      </trkpt>
      <trkpt lat="46.00408" lon="6.9238">
        <ele>1797</ele>
        <time>2022-08-28T06:28:37Z</time>
      </trkpt>
      <trkpt lat="46.00407" lon="6.92379">
        <ele>1797</ele>
        <time>2022-08-28T06:28:38Z</time>
      </trkpt>
      <trkpt lat="46.00401" lon="6.92368">
        <ele>1798</ele>
        <time>2022-08-28T06:28:45Z</time>
      </trkpt>
      <trkpt lat="46.004" lon="6.92367">
        <ele>1798</ele>
        <time>2022-08-28T06:28:46Z</time>
      </trkpt>
      <trkpt lat="46.004" lon="6.92366">
        <ele>1798</ele>
        <time>2022-08-28T06:28:47Z</time>
      </trkpt>
      <trkpt lat="46.00399" lon="6.92365">
        <ele>1798</ele>
        <time>2022-08-28T06:28:48Z</time>
      </trkpt>
      <trkpt lat="46.00398" lon="6.92364">
        <ele>1798</ele>
        <time>2022-08-28T06:28:50Z</time>
      </trkpt>
      <trkpt lat="46.00398" lon="6.92363">
        <ele>1798</ele>
        <time>2022-08-28T06:28:51Z</time>
      </trkpt>
      <trkpt lat="46.00397" lon="6.92362">
        <ele>1798</ele>
        <time>2022-08-28T06:28:52Z</time>
      </trkpt>
      <trkpt lat="46.00397" lon="6.9236">
        <ele>1798</ele>
        <time>2022-08-28T06:28:53Z</time>
      </trkpt>
      <trkpt lat="46.00396" lon="6.92359">
        <ele>1798</ele>
        <time>2022-08-28T06:28:55Z</time>
      </trkpt>
      <trkpt lat="46.00396" lon="6.92358">
        <ele>1798</ele>
        <time>2022-08-28T06:28:56Z</time>
      </trkpt>
      <trkpt lat="46.00395" lon="6.92357">
        <ele>1798</ele>
        <time>2022-08-28T06:28:57Z</time>
      </trkpt>
      <trkpt lat="46.00391" lon="6.92344">
        <ele>1798</ele>
        <time>2022-08-28T06:29:04Z</time>
      </trkpt>
      <trkpt lat="46.00391" lon="6.92342">
        <ele>1798</ele>
        <time>2022-08-28T06:29:05Z</time>
      </trkpt>
      <trkpt lat="46.0039" lon="6.9234">
        <ele>1798</ele>
        <time>2022-08-28T06:29:06Z</time>
      </trkpt>
      <trkpt lat="46.00389" lon="6.92338">
        <ele>1798</ele>
        <time>2022-08-28T06:29:07Z</time>
      </trkpt>
      <trkpt lat="46.00389" lon="6.92337">
        <ele>1798</ele>
        <time>2022-08-28T06:29:09Z</time>
      </trkpt>
      <trkpt lat="46.00388" lon="6.92335">
        <ele>1798</ele>
        <time>2022-08-28T06:29:10Z</time>
      </trkpt>
      <trkpt lat="46.00387" lon="6.92333">
        <ele>1798</ele>
        <time>2022-08-28T06:29:11Z</time>
      </trkpt>
      <trkpt lat="46.00387" lon="6.92331">
        <ele>1798</ele>
        <time>2022-08-28T06:29:12Z</time>
      </trkpt>
      <trkpt lat="46.00386" lon="6.9233">
        <ele>1798</ele>
        <time>2022-08-28T06:29:14Z</time>
      </trkpt>
      <trkpt lat="46.00385" lon="6.92328">
        <ele>1798</ele>
        <time>2022-08-28T06:29:15Z</time>
      </trkpt>
      <trkpt lat="46.00384" lon="6.92327">
        <ele>1798</ele>
        <time>2022-08-28T06:29:16Z</time>
      </trkpt>
      <trkpt lat="46.00383" lon="6.92326">
        <ele>1798</ele>
        <time>2022-08-28T06:29:17Z</time>
      </trkpt>
      <trkpt lat="46.00382" lon="6.92324">
        <ele>1798</ele>
        <time>2022-08-28T06:29:19Z</time>
      </trkpt>
      <trkpt lat="46.00381" lon="6.92323">
        <ele>1798</ele>
        <time>2022-08-28T06:29:20Z</time>
      </trkpt>
      <trkpt lat="46.0038" lon="6.92322">
        <ele>1798</ele>
        <time>2022-08-28T06:29:21Z</time>
      </trkpt>
      <trkpt lat="46.0038" lon="6.9232">
        <ele>1798</ele>
        <time>2022-08-28T06:29:22Z</time>
      </trkpt>
      <trkpt lat="46.0038" lon="6.92319">
        <ele>1798</ele>
        <time>2022-08-28T06:29:23Z</time>
      </trkpt>
      <trkpt lat="46.00379" lon="6.92318">
        <ele>1798</ele>
        <time>2022-08-28T06:29:24Z</time>
      </trkpt>
      <trkpt lat="46.00379" lon="6.92316">
        <ele>1798</ele>
        <time>2022-08-28T06:29:26Z</time>
      </trkpt>
      <trkpt lat="46.00378" lon="6.92315">
        <ele>1798</ele>
        <time>2022-08-28T06:29:27Z</time>
      </trkpt>
      <trkpt lat="46.00376" lon="6.92307">
        <ele>1798</ele>
        <time>2022-08-28T06:29:28Z</time>
      </trkpt>
      <trkpt lat="46.00375" lon="6.92306">
        <ele>1798</ele>
        <time>2022-08-28T06:29:29Z</time>
      </trkpt>
      <trkpt lat="46.00374" lon="6.92304">
        <ele>1799</ele>
        <time>2022-08-28T06:29:31Z</time>
      </trkpt>
      <trkpt lat="46.00373" lon="6.92303">
        <ele>1799</ele>
        <time>2022-08-28T06:29:32Z</time>
      </trkpt>
      <trkpt lat="46.00372" lon="6.92302">
        <ele>1799</ele>
        <time>2022-08-28T06:29:33Z</time>
      </trkpt>
      <trkpt lat="46.00371" lon="6.923">
        <ele>1799</ele>
        <time>2022-08-28T06:29:34Z</time>
      </trkpt>
      <trkpt lat="46.0037" lon="6.92299">
        <ele>1799</ele>
        <time>2022-08-28T06:29:35Z</time>
      </trkpt>
      <trkpt lat="46.00369" lon="6.92298">
        <ele>1799</ele>
        <time>2022-08-28T06:29:36Z</time>
      </trkpt>
      <trkpt lat="46.00369" lon="6.92296">
        <ele>1799</ele>
        <time>2022-08-28T06:29:38Z</time>
      </trkpt>
      <trkpt lat="46.00369" lon="6.92293">
        <ele>1799</ele>
        <time>2022-08-28T06:29:39Z</time>
      </trkpt>
      <trkpt lat="46.00368" lon="6.92291">
        <ele>1799</ele>
        <time>2022-08-28T06:29:40Z</time>
      </trkpt>
      <trkpt lat="46.00368" lon="6.92289">
        <ele>1798</ele>
        <time>2022-08-28T06:29:42Z</time>
      </trkpt>
      <trkpt lat="46.00368" lon="6.92286">
        <ele>1798</ele>
        <time>2022-08-28T06:29:43Z</time>
      </trkpt>
      <trkpt lat="46.00367" lon="6.92284">
        <ele>1798</ele>
        <time>2022-08-28T06:29:44Z</time>
      </trkpt>
      <trkpt lat="46.00367" lon="6.92282">
        <ele>1798</ele>
        <time>2022-08-28T06:29:45Z</time>
      </trkpt>
      <trkpt lat="46.00368" lon="6.9228">
        <ele>1798</ele>
        <time>2022-08-28T06:29:46Z</time>
      </trkpt>
      <trkpt lat="46.00368" lon="6.92277">
        <ele>1798</ele>
        <time>2022-08-28T06:29:47Z</time>
      </trkpt>
      <trkpt lat="46.00368" lon="6.92275">
        <ele>1798</ele>
        <time>2022-08-28T06:29:49Z</time>
      </trkpt>
      <trkpt lat="46.00368" lon="6.92273">
        <ele>1799</ele>
        <time>2022-08-28T06:29:50Z</time>
      </trkpt>
      <trkpt lat="46.00369" lon="6.92271">
        <ele>1799</ele>
        <time>2022-08-28T06:29:51Z</time>
      </trkpt>
      <trkpt lat="46.00369" lon="6.92269">
        <ele>1799</ele>
        <time>2022-08-28T06:29:52Z</time>
      </trkpt>
      <trkpt lat="46.00369" lon="6.92267">
        <ele>1799</ele>
        <time>2022-08-28T06:29:54Z</time>
      </trkpt>
      <trkpt lat="46.00369" lon="6.92266">
        <ele>1799</ele>
        <time>2022-08-28T06:29:56Z</time>
      </trkpt>
      <trkpt lat="46.00369" lon="6.92264">
        <ele>1800</ele>
        <time>2022-08-28T06:29:57Z</time>
      </trkpt>
      <trkpt lat="46.00369" lon="6.92262">
        <ele>1800</ele>
        <time>2022-08-28T06:29:58Z</time>
      </trkpt>
      <trkpt lat="46.00369" lon="6.92261">
        <ele>1800</ele>
        <time>2022-08-28T06:29:59Z</time>
      </trkpt>
      <trkpt lat="46.00369" lon="6.92259">
        <ele>1800</ele>
        <time>2022-08-28T06:30:00Z</time>
      </trkpt>
      <trkpt lat="46.00369" lon="6.92257">
        <ele>1800</ele>
        <time>2022-08-28T06:30:01Z</time>
      </trkpt>
      <trkpt lat="46.00369" lon="6.92256">
        <ele>1800</ele>
        <time>2022-08-28T06:30:02Z</time>
      </trkpt>
      <trkpt lat="46.00369" lon="6.92254">
        <ele>1800</ele>
        <time>2022-08-28T06:30:03Z</time>
      </trkpt>
      <trkpt lat="46.00369" lon="6.92252">
        <ele>1801</ele>
        <time>2022-08-28T06:30:04Z</time>
      </trkpt>
      <trkpt lat="46.00369" lon="6.92251">
        <ele>1801</ele>
        <time>2022-08-28T06:30:05Z</time>
      </trkpt>
      <trkpt lat="46.00368" lon="6.92249">
        <ele>1800</ele>
        <time>2022-08-28T06:30:06Z</time>
      </trkpt>
      <trkpt lat="46.00368" lon="6.92248">
        <ele>1801</ele>
        <time>2022-08-28T06:30:07Z</time>
      </trkpt>
      <trkpt lat="46.00368" lon="6.92246">
        <ele>1801</ele>
        <time>2022-08-28T06:30:08Z</time>
      </trkpt>
      <trkpt lat="46.00368" lon="6.92244">
        <ele>1801</ele>
        <time>2022-08-28T06:30:09Z</time>
      </trkpt>
      <trkpt lat="46.00367" lon="6.92242">
        <ele>1801</ele>
        <time>2022-08-28T06:30:10Z</time>
      </trkpt>
      <trkpt lat="46.00366" lon="6.9224">
        <ele>1801</ele>
        <time>2022-08-28T06:30:11Z</time>
      </trkpt>
      <trkpt lat="46.00366" lon="6.92239">
        <ele>1801</ele>
        <time>2022-08-28T06:30:12Z</time>
      </trkpt>
      <trkpt lat="46.00365" lon="6.92237">
        <ele>1801</ele>
        <time>2022-08-28T06:30:14Z</time>
      </trkpt>
      <trkpt lat="46.00364" lon="6.92235">
        <ele>1801</ele>
        <time>2022-08-28T06:30:16Z</time>
      </trkpt>
      <trkpt lat="46.00364" lon="6.92233">
        <ele>1801</ele>
        <time>2022-08-28T06:30:17Z</time>
      </trkpt>
      <trkpt lat="46.00363" lon="6.92231">
        <ele>1800</ele>
        <time>2022-08-28T06:30:18Z</time>
      </trkpt>
      <trkpt lat="46.00363" lon="6.92229">
        <ele>1801</ele>
        <time>2022-08-28T06:30:20Z</time>
      </trkpt>
      <trkpt lat="46.00362" lon="6.92228">
        <ele>1801</ele>
        <time>2022-08-28T06:30:21Z</time>
      </trkpt>
      <trkpt lat="46.00362" lon="6.92226">
        <ele>1801</ele>
        <time>2022-08-28T06:30:22Z</time>
      </trkpt>
      <trkpt lat="46.00361" lon="6.92224">
        <ele>1801</ele>
        <time>2022-08-28T06:30:23Z</time>
      </trkpt>
      <trkpt lat="46.00361" lon="6.92223">
        <ele>1801</ele>
        <time>2022-08-28T06:30:25Z</time>
      </trkpt>
      <trkpt lat="46.00361" lon="6.92221">
        <ele>1801</ele>
        <time>2022-08-28T06:30:26Z</time>
      </trkpt>
      <trkpt lat="46.0036" lon="6.92219">
        <ele>1801</ele>
        <time>2022-08-28T06:30:27Z</time>
      </trkpt>
      <trkpt lat="46.00359" lon="6.92217">
        <ele>1801</ele>
        <time>2022-08-28T06:30:28Z</time>
      </trkpt>
      <trkpt lat="46.00359" lon="6.92216">
        <ele>1801</ele>
        <time>2022-08-28T06:30:29Z</time>
      </trkpt>
      <trkpt lat="46.00358" lon="6.92214">
        <ele>1801</ele>
        <time>2022-08-28T06:30:30Z</time>
      </trkpt>
      <trkpt lat="46.00357" lon="6.92212">
        <ele>1801</ele>
        <time>2022-08-28T06:30:32Z</time>
      </trkpt>
      <trkpt lat="46.00357" lon="6.92211">
        <ele>1802</ele>
        <time>2022-08-28T06:30:33Z</time>
      </trkpt>
      <trkpt lat="46.00356" lon="6.92209">
        <ele>1802</ele>
        <time>2022-08-28T06:30:34Z</time>
      </trkpt>
      <trkpt lat="46.00355" lon="6.92207">
        <ele>1802</ele>
        <time>2022-08-28T06:30:35Z</time>
      </trkpt>
      <trkpt lat="46.00354" lon="6.92206">
        <ele>1802</ele>
        <time>2022-08-28T06:30:37Z</time>
      </trkpt>
      <trkpt lat="46.00353" lon="6.92204">
        <ele>1803</ele>
        <time>2022-08-28T06:30:38Z</time>
      </trkpt>
      <trkpt lat="46.00351" lon="6.92203">
        <ele>1803</ele>
        <time>2022-08-28T06:30:40Z</time>
      </trkpt>
      <trkpt lat="46.0035" lon="6.92201">
        <ele>1803</ele>
        <time>2022-08-28T06:30:41Z</time>
      </trkpt>
      <trkpt lat="46.00349" lon="6.922">
        <ele>1803</ele>
        <time>2022-08-28T06:30:42Z</time>
      </trkpt>
      <trkpt lat="46.00348" lon="6.92199">
        <ele>1803</ele>
        <time>2022-08-28T06:30:43Z</time>
      </trkpt>
      <trkpt lat="46.00347" lon="6.92198">
        <ele>1803</ele>
        <time>2022-08-28T06:30:45Z</time>
      </trkpt>
      <trkpt lat="46.00345" lon="6.92197">
        <ele>1803</ele>
        <time>2022-08-28T06:30:46Z</time>
      </trkpt>
      <trkpt lat="46.00344" lon="6.92196">
        <ele>1803</ele>
        <time>2022-08-28T06:30:47Z</time>
      </trkpt>
      <trkpt lat="46.00343" lon="6.92195">
        <ele>1803</ele>
        <time>2022-08-28T06:30:48Z</time>
      </trkpt>
      <trkpt lat="46.00342" lon="6.92195">
        <ele>1804</ele>
        <time>2022-08-28T06:30:50Z</time>
      </trkpt>
      <trkpt lat="46.0034" lon="6.92194">
        <ele>1804</ele>
        <time>2022-08-28T06:30:51Z</time>
      </trkpt>
      <trkpt lat="46.00339" lon="6.92193">
        <ele>1804</ele>
        <time>2022-08-28T06:30:52Z</time>
      </trkpt>
      <trkpt lat="46.00338" lon="6.92192">
        <ele>1804</ele>
        <time>2022-08-28T06:30:54Z</time>
      </trkpt>
      <trkpt lat="46.00337" lon="6.92192">
        <ele>1804</ele>
        <time>2022-08-28T06:30:55Z</time>
      </trkpt>
      <trkpt lat="46.00335" lon="6.92191">
        <ele>1804</ele>
        <time>2022-08-28T06:30:56Z</time>
      </trkpt>
      <trkpt lat="46.00334" lon="6.9219">
        <ele>1804</ele>
        <time>2022-08-28T06:30:58Z</time>
      </trkpt>
      <trkpt lat="46.00333" lon="6.92189">
        <ele>1804</ele>
        <time>2022-08-28T06:30:59Z</time>
      </trkpt>
      <trkpt lat="46.00332" lon="6.92189">
        <ele>1804</ele>
        <time>2022-08-28T06:31:00Z</time>
      </trkpt>
      <trkpt lat="46.00331" lon="6.92188">
        <ele>1804</ele>
        <time>2022-08-28T06:31:01Z</time>
      </trkpt>
      <trkpt lat="46.00329" lon="6.92188">
        <ele>1805</ele>
        <time>2022-08-28T06:31:03Z</time>
      </trkpt>
      <trkpt lat="46.00328" lon="6.92188">
        <ele>1805</ele>
        <time>2022-08-28T06:31:04Z</time>
      </trkpt>
      <trkpt lat="46.00327" lon="6.92188">
        <ele>1805</ele>
        <time>2022-08-28T06:31:05Z</time>
      </trkpt>
      <trkpt lat="46.00325" lon="6.92188">
        <ele>1805</ele>
        <time>2022-08-28T06:31:06Z</time>
      </trkpt>
      <trkpt lat="46.00324" lon="6.92188">
        <ele>1805</ele>
        <time>2022-08-28T06:31:08Z</time>
      </trkpt>
      <trkpt lat="46.00323" lon="6.92188">
        <ele>1805</ele>
        <time>2022-08-28T06:31:09Z</time>
      </trkpt>
      <trkpt lat="46.00321" lon="6.92188">
        <ele>1805</ele>
        <time>2022-08-28T06:31:10Z</time>
      </trkpt>
      <trkpt lat="46.00321" lon="6.92187">
        <ele>1805</ele>
        <time>2022-08-28T06:31:11Z</time>
      </trkpt>
      <trkpt lat="46.0032" lon="6.92187">
        <ele>1805</ele>
        <time>2022-08-28T06:31:13Z</time>
      </trkpt>
      <trkpt lat="46.00319" lon="6.92187">
        <ele>1805</ele>
        <time>2022-08-28T06:31:14Z</time>
      </trkpt>
      <trkpt lat="46.00319" lon="6.92186">
        <ele>1806</ele>
        <time>2022-08-28T06:31:15Z</time>
      </trkpt>
      <trkpt lat="46.00318" lon="6.92186">
        <ele>1806</ele>
        <time>2022-08-28T06:31:17Z</time>
      </trkpt>
      <trkpt lat="46.00317" lon="6.92185">
        <ele>1806</ele>
        <time>2022-08-28T06:31:18Z</time>
      </trkpt>
      <trkpt lat="46.00317" lon="6.92185">
        <ele>1806</ele>
        <time>2022-08-28T06:31:19Z</time>
      </trkpt>
      <trkpt lat="46.00311" lon="6.92181">
        <ele>1807</ele>
        <time>2022-08-28T06:31:20Z</time>
      </trkpt>
      <trkpt lat="46.00311" lon="6.92181">
        <ele>1807</ele>
        <time>2022-08-28T06:31:22Z</time>
      </trkpt>
      <trkpt lat="46.0031" lon="6.9218">
        <ele>1808</ele>
        <time>2022-08-28T06:31:23Z</time>
      </trkpt>
      <trkpt lat="46.00309" lon="6.92179">
        <ele>1808</ele>
        <time>2022-08-28T06:31:24Z</time>
      </trkpt>
      <trkpt lat="46.00309" lon="6.92178">
        <ele>1808</ele>
        <time>2022-08-28T06:31:25Z</time>
      </trkpt>
      <trkpt lat="46.00308" lon="6.92177">
        <ele>1808</ele>
        <time>2022-08-28T06:31:27Z</time>
      </trkpt>
      <trkpt lat="46.00307" lon="6.92177">
        <ele>1808</ele>
        <time>2022-08-28T06:31:28Z</time>
      </trkpt>
      <trkpt lat="46.00306" lon="6.92177">
        <ele>1808</ele>
        <time>2022-08-28T06:31:29Z</time>
      </trkpt>
      <trkpt lat="46.00305" lon="6.92177">
        <ele>1808</ele>
        <time>2022-08-28T06:31:30Z</time>
      </trkpt>
      <trkpt lat="46.00304" lon="6.92177">
        <ele>1808</ele>
        <time>2022-08-28T06:31:32Z</time>
      </trkpt>
      <trkpt lat="46.00303" lon="6.92178">
        <ele>1808</ele>
        <time>2022-08-28T06:31:34Z</time>
      </trkpt>
      <trkpt lat="46.00302" lon="6.92178">
        <ele>1809</ele>
        <time>2022-08-28T06:31:35Z</time>
      </trkpt>
      <trkpt lat="46.00302" lon="6.92178">
        <ele>1809</ele>
        <time>2022-08-28T06:31:36Z</time>
      </trkpt>
      <trkpt lat="46.00301" lon="6.92179">
        <ele>1809</ele>
        <time>2022-08-28T06:31:37Z</time>
      </trkpt>
      <trkpt lat="46.003" lon="6.92179">
        <ele>1809</ele>
        <time>2022-08-28T06:31:38Z</time>
      </trkpt>
      <trkpt lat="46.00299" lon="6.92179">
        <ele>1809</ele>
        <time>2022-08-28T06:31:39Z</time>
      </trkpt>
      <trkpt lat="46.00293" lon="6.92168">
        <ele>1811</ele>
        <time>2022-08-28T06:31:55Z</time>
      </trkpt>
      <trkpt lat="46.00293" lon="6.92167">
        <ele>1811</ele>
        <time>2022-08-28T06:31:56Z</time>
      </trkpt>
      <trkpt lat="46.00293" lon="6.92167">
        <ele>1811</ele>
        <time>2022-08-28T06:31:57Z</time>
      </trkpt>
      <trkpt lat="46.00294" lon="6.92166">
        <ele>1812</ele>
        <time>2022-08-28T06:31:58Z</time>
      </trkpt>
      <trkpt lat="46.00294" lon="6.92165">
        <ele>1812</ele>
        <time>2022-08-28T06:31:59Z</time>
      </trkpt>
      <trkpt lat="46.00294" lon="6.92164">
        <ele>1812</ele>
        <time>2022-08-28T06:32:00Z</time>
      </trkpt>
      <trkpt lat="46.00294" lon="6.92164">
        <ele>1812</ele>
        <time>2022-08-28T06:32:01Z</time>
      </trkpt>
      <trkpt lat="46.00294" lon="6.92163">
        <ele>1813</ele>
        <time>2022-08-28T06:32:02Z</time>
      </trkpt>
      <trkpt lat="46.00295" lon="6.92162">
        <ele>1813</ele>
        <time>2022-08-28T06:32:03Z</time>
      </trkpt>
      <trkpt lat="46.00295" lon="6.92162">
        <ele>1813</ele>
        <time>2022-08-28T06:32:04Z</time>
      </trkpt>
      <trkpt lat="46.00295" lon="6.92161">
        <ele>1813</ele>
        <time>2022-08-28T06:32:05Z</time>
      </trkpt>
      <trkpt lat="46.00294" lon="6.92158">
        <ele>1814</ele>
        <time>2022-08-28T06:32:14Z</time>
      </trkpt>
      <trkpt lat="46.00294" lon="6.92158">
        <ele>1814</ele>
        <time>2022-08-28T06:32:15Z</time>
      </trkpt>
      <trkpt lat="46.00294" lon="6.92158">
        <ele>1814</ele>
        <time>2022-08-28T06:32:16Z</time>
      </trkpt>
      <trkpt lat="46.00294" lon="6.92157">
        <ele>1814</ele>
        <time>2022-08-28T06:32:17Z</time>
      </trkpt>
      <trkpt lat="46.00293" lon="6.92157">
        <ele>1814</ele>
        <time>2022-08-28T06:32:18Z</time>
      </trkpt>
      <trkpt lat="46.00293" lon="6.92157">
        <ele>1814</ele>
        <time>2022-08-28T06:32:19Z</time>
      </trkpt>
      <trkpt lat="46.00293" lon="6.92157">
        <ele>1814</ele>
        <time>2022-08-28T06:32:20Z</time>
      </trkpt>
      <trkpt lat="46.00293" lon="6.92156">
        <ele>1814</ele>
        <time>2022-08-28T06:32:21Z</time>
      </trkpt>
      <trkpt lat="46.00292" lon="6.92156">
        <ele>1814</ele>
        <time>2022-08-28T06:32:22Z</time>
      </trkpt>
      <trkpt lat="46.00292" lon="6.92156">
        <ele>1815</ele>
        <time>2022-08-28T06:32:23Z</time>
      </trkpt>
      <trkpt lat="46.00292" lon="6.92155">
        <ele>1815</ele>
        <time>2022-08-28T06:32:24Z</time>
      </trkpt>
      <trkpt lat="46.00292" lon="6.92155">
        <ele>1815</ele>
        <time>2022-08-28T06:32:25Z</time>
      </trkpt>
      <trkpt lat="46.00291" lon="6.92155">
        <ele>1815</ele>
        <time>2022-08-28T06:32:26Z</time>
      </trkpt>
      <trkpt lat="46.00291" lon="6.92155">
        <ele>1815</ele>
        <time>2022-08-28T06:32:28Z</time>
      </trkpt>
      <trkpt lat="46.00291" lon="6.92154">
        <ele>1815</ele>
        <time>2022-08-28T06:32:29Z</time>
      </trkpt>
      <trkpt lat="46.00291" lon="6.92154">
        <ele>1815</ele>
        <time>2022-08-28T06:32:30Z</time>
      </trkpt>
      <trkpt lat="46.0029" lon="6.92154">
        <ele>1815</ele>
        <time>2022-08-28T06:32:31Z</time>
      </trkpt>
      <trkpt lat="46.0029" lon="6.92153">
        <ele>1815</ele>
        <time>2022-08-28T06:32:33Z</time>
      </trkpt>
      <trkpt lat="46.0029" lon="6.92153">
        <ele>1815</ele>
        <time>2022-08-28T06:32:34Z</time>
      </trkpt>
      <trkpt lat="46.0029" lon="6.92153">
        <ele>1816</ele>
        <time>2022-08-28T06:32:35Z</time>
      </trkpt>
      <trkpt lat="46.00289" lon="6.92153">
        <ele>1816</ele>
        <time>2022-08-28T06:32:36Z</time>
      </trkpt>
      <trkpt lat="46.00289" lon="6.92152">
        <ele>1816</ele>
        <time>2022-08-28T06:32:38Z</time>
      </trkpt>
      <trkpt lat="46.00289" lon="6.92152">
        <ele>1816</ele>
        <time>2022-08-28T06:32:39Z</time>
      </trkpt>
      <trkpt lat="46.00289" lon="6.92152">
        <ele>1816</ele>
        <time>2022-08-28T06:32:40Z</time>
      </trkpt>
      <trkpt lat="46.00288" lon="6.92151">
        <ele>1816</ele>
        <time>2022-08-28T06:32:41Z</time>
      </trkpt>
      <trkpt lat="46.00288" lon="6.92151">
        <ele>1817</ele>
        <time>2022-08-28T06:32:43Z</time>
      </trkpt>
      <trkpt lat="46.00288" lon="6.92151">
        <ele>1817</ele>
        <time>2022-08-28T06:32:44Z</time>
      </trkpt>
      <trkpt lat="46.00288" lon="6.92151">
        <ele>1818</ele>
        <time>2022-08-28T06:32:45Z</time>
      </trkpt>
      <trkpt lat="46.00288" lon="6.9215">
        <ele>1818</ele>
        <time>2022-08-28T06:32:46Z</time>
      </trkpt>
      <trkpt lat="46.00287" lon="6.9215">
        <ele>1818</ele>
        <time>2022-08-28T06:32:47Z</time>
      </trkpt>
      <trkpt lat="46.00287" lon="6.9215">
        <ele>1818</ele>
        <time>2022-08-28T06:32:48Z</time>
      </trkpt>
      <trkpt lat="46.00287" lon="6.92149">
        <ele>1818</ele>
        <time>2022-08-28T06:32:49Z</time>
      </trkpt>
      <trkpt lat="46.00287" lon="6.92149">
        <ele>1818</ele>
        <time>2022-08-28T06:32:50Z</time>
      </trkpt>
      <trkpt lat="46.00287" lon="6.92148">
        <ele>1818</ele>
        <time>2022-08-28T06:32:51Z</time>
      </trkpt>
      <trkpt lat="46.00287" lon="6.92147">
        <ele>1818</ele>
        <time>2022-08-28T06:32:53Z</time>
      </trkpt>
      <trkpt lat="46.00286" lon="6.92147">
        <ele>1818</ele>
        <time>2022-08-28T06:32:54Z</time>
      </trkpt>
      <trkpt lat="46.00286" lon="6.92146">
        <ele>1819</ele>
        <time>2022-08-28T06:32:55Z</time>
      </trkpt>
      <trkpt lat="46.00286" lon="6.92146">
        <ele>1819</ele>
        <time>2022-08-28T06:32:56Z</time>
      </trkpt>
      <trkpt lat="46.00286" lon="6.92145">
        <ele>1819</ele>
        <time>2022-08-28T06:32:57Z</time>
      </trkpt>
      <trkpt lat="46.00286" lon="6.92144">
        <ele>1819</ele>
        <time>2022-08-28T06:32:58Z</time>
      </trkpt>
      <trkpt lat="46.00286" lon="6.92144">
        <ele>1819</ele>
        <time>2022-08-28T06:32:59Z</time>
      </trkpt>
      <trkpt lat="46.00286" lon="6.92143">
        <ele>1820</ele>
        <time>2022-08-28T06:33:00Z</time>
      </trkpt>
      <trkpt lat="46.00286" lon="6.92143">
        <ele>1820</ele>
        <time>2022-08-28T06:33:01Z</time>
      </trkpt>
      <trkpt lat="46.00286" lon="6.92142">
        <ele>1820</ele>
        <time>2022-08-28T06:33:02Z</time>
      </trkpt>
      <trkpt lat="46.00285" lon="6.92142">
        <ele>1820</ele>
        <time>2022-08-28T06:33:03Z</time>
      </trkpt>
      <trkpt lat="46.00284" lon="6.9214">
        <ele>1820</ele>
        <time>2022-08-28T06:33:06Z</time>
      </trkpt>
      <trkpt lat="46.00282" lon="6.92136">
        <ele>1822</ele>
        <time>2022-08-28T06:33:15Z</time>
      </trkpt>
      <trkpt lat="46.0028" lon="6.92134">
        <ele>1823</ele>
        <time>2022-08-28T06:33:18Z</time>
      </trkpt>
      <trkpt lat="46.00278" lon="6.92133">
        <ele>1823</ele>
        <time>2022-08-28T06:33:21Z</time>
      </trkpt>
      <trkpt lat="46.00276" lon="6.92131">
        <ele>1824</ele>
        <time>2022-08-28T06:33:27Z</time>
      </trkpt>
      <trkpt lat="46.00274" lon="6.9213">
        <ele>1826</ele>
        <time>2022-08-28T06:33:32Z</time>
      </trkpt>
      <trkpt lat="46.00272" lon="6.92129">
        <ele>1826</ele>
        <time>2022-08-28T06:33:35Z</time>
      </trkpt>
      <trkpt lat="46.00269" lon="6.92129">
        <ele>1826</ele>
        <time>2022-08-28T06:33:42Z</time>
      </trkpt>
      <trkpt lat="46.00268" lon="6.92127">
        <ele>1826</ele>
        <time>2022-08-28T06:33:46Z</time>
      </trkpt>
      <trkpt lat="46.00266" lon="6.92126">
        <ele>1828</ele>
        <time>2022-08-28T06:33:51Z</time>
      </trkpt>
      <trkpt lat="46.00264" lon="6.92125">
        <ele>1828</ele>
        <time>2022-08-28T06:33:55Z</time>
      </trkpt>
      <trkpt lat="46.00262" lon="6.92124">
        <ele>1829</ele>
        <time>2022-08-28T06:34:00Z</time>
      </trkpt>
      <trkpt lat="46.0026" lon="6.92123">
        <ele>1829</ele>
        <time>2022-08-28T06:34:03Z</time>
      </trkpt>
      <trkpt lat="46.00258" lon="6.92121">
        <ele>1829</ele>
        <time>2022-08-28T06:34:08Z</time>
      </trkpt>
      <trkpt lat="46.00256" lon="6.92121">
        <ele>1831</ele>
        <time>2022-08-28T06:34:13Z</time>
      </trkpt>
      <trkpt lat="46.00254" lon="6.92121">
        <ele>1832</ele>
        <time>2022-08-28T06:34:17Z</time>
      </trkpt>
      <trkpt lat="46.00252" lon="6.92121">
        <ele>1832</ele>
        <time>2022-08-28T06:34:21Z</time>
      </trkpt>
      <trkpt lat="46.0025" lon="6.9212">
        <ele>1833</ele>
        <time>2022-08-28T06:34:26Z</time>
      </trkpt>
      <trkpt lat="46.00248" lon="6.92119">
        <ele>1833</ele>
        <time>2022-08-28T06:34:29Z</time>
      </trkpt>
      <trkpt lat="46.00246" lon="6.92118">
        <ele>1834</ele>
        <time>2022-08-28T06:34:33Z</time>
      </trkpt>
      <trkpt lat="46.00244" lon="6.92117">
        <ele>1835</ele>
        <time>2022-08-28T06:34:37Z</time>
      </trkpt>
      <trkpt lat="46.00243" lon="6.92115">
        <ele>1835</ele>
        <time>2022-08-28T06:34:42Z</time>
      </trkpt>
      <trkpt lat="46.00241" lon="6.92114">
        <ele>1837</ele>
        <time>2022-08-28T06:34:46Z</time>
      </trkpt>
      <trkpt lat="46.00239" lon="6.92113">
        <ele>1837</ele>
        <time>2022-08-28T06:34:52Z</time>
      </trkpt>
      <trkpt lat="46.00237" lon="6.92112">
        <ele>1838</ele>
        <time>2022-08-28T06:34:57Z</time>
      </trkpt>
      <trkpt lat="46.00235" lon="6.92112">
        <ele>1839</ele>
        <time>2022-08-28T06:35:01Z</time>
      </trkpt>
      <trkpt lat="46.00233" lon="6.92111">
        <ele>1840</ele>
        <time>2022-08-28T06:35:06Z</time>
      </trkpt>
      <trkpt lat="46.00231" lon="6.9211">
        <ele>1841</ele>
        <time>2022-08-28T06:35:09Z</time>
      </trkpt>
      <trkpt lat="46.00228" lon="6.92108">
        <ele>1841</ele>
        <time>2022-08-28T06:35:13Z</time>
      </trkpt>
      <trkpt lat="46.00226" lon="6.92108">
        <ele>1841</ele>
        <time>2022-08-28T06:35:15Z</time>
      </trkpt>
      <trkpt lat="46.00224" lon="6.92109">
        <ele>1842</ele>
        <time>2022-08-28T06:35:18Z</time>
      </trkpt>
      <trkpt lat="46.00222" lon="6.92107">
        <ele>1843</ele>
        <time>2022-08-28T06:35:23Z</time>
      </trkpt>
      <trkpt lat="46.00221" lon="6.92106">
        <ele>1843</ele>
        <time>2022-08-28T06:35:27Z</time>
      </trkpt>
      <trkpt lat="46.00219" lon="6.92104">
        <ele>1844</ele>
        <time>2022-08-28T06:35:31Z</time>
      </trkpt>
      <trkpt lat="46.00217" lon="6.92104">
        <ele>1845</ele>
        <time>2022-08-28T06:35:34Z</time>
      </trkpt>
      <trkpt lat="46.00215" lon="6.92104">
        <ele>1845</ele>
        <time>2022-08-28T06:35:38Z</time>
      </trkpt>
      <trkpt lat="46.00213" lon="6.92102">
        <ele>1846</ele>
        <time>2022-08-28T06:35:41Z</time>
      </trkpt>
      <trkpt lat="46.00212" lon="6.92102">
        <ele>1847</ele>
        <time>2022-08-28T06:35:44Z</time>
      </trkpt>
      <trkpt lat="46.00209" lon="6.92102">
        <ele>1847</ele>
        <time>2022-08-28T06:35:47Z</time>
      </trkpt>
      <trkpt lat="46.00207" lon="6.92102">
        <ele>1847</ele>
        <time>2022-08-28T06:35:51Z</time>
      </trkpt>
      <trkpt lat="46.00205" lon="6.92102">
        <ele>1848</ele>
        <time>2022-08-28T06:35:53Z</time>
      </trkpt>
      <trkpt lat="46.00203" lon="6.92102">
        <ele>1848</ele>
        <time>2022-08-28T06:35:55Z</time>
      </trkpt>
      <trkpt lat="46.00201" lon="6.92101">
        <ele>1848</ele>
        <time>2022-08-28T06:35:57Z</time>
      </trkpt>
      <trkpt lat="46.00199" lon="6.921">
        <ele>1848</ele>
        <time>2022-08-28T06:36:00Z</time>
      </trkpt>
      <trkpt lat="46.00198" lon="6.92099">
        <ele>1849</ele>
        <time>2022-08-28T06:36:03Z</time>
      </trkpt>
      <trkpt lat="46.00195" lon="6.92098">
        <ele>1849</ele>
        <time>2022-08-28T06:36:06Z</time>
      </trkpt>
      <trkpt lat="46.00193" lon="6.92097">
        <ele>1850</ele>
        <time>2022-08-28T06:36:10Z</time>
      </trkpt>
      <trkpt lat="46.0019" lon="6.92096">
        <ele>1850</ele>
        <time>2022-08-28T06:36:13Z</time>
      </trkpt>
      <trkpt lat="46.00188" lon="6.92095">
        <ele>1851</ele>
        <time>2022-08-28T06:36:16Z</time>
      </trkpt>
      <trkpt lat="46.00186" lon="6.92093">
        <ele>1852</ele>
        <time>2022-08-28T06:36:19Z</time>
      </trkpt>
      <trkpt lat="46.00185" lon="6.92091">
        <ele>1853</ele>
        <time>2022-08-28T06:36:22Z</time>
      </trkpt>
      <trkpt lat="46.00183" lon="6.9209">
        <ele>1853</ele>
        <time>2022-08-28T06:36:24Z</time>
      </trkpt>
      <trkpt lat="46.00181" lon="6.92089">
        <ele>1853</ele>
        <time>2022-08-28T06:36:27Z</time>
      </trkpt>
      <trkpt lat="46.00179" lon="6.92088">
        <ele>1854</ele>
        <time>2022-08-28T06:36:30Z</time>
      </trkpt>
      <trkpt lat="46.00177" lon="6.92086">
        <ele>1854</ele>
        <time>2022-08-28T06:36:33Z</time>
      </trkpt>
      <trkpt lat="46.00175" lon="6.92086">
        <ele>1854</ele>
        <time>2022-08-28T06:36:36Z</time>
      </trkpt>
      <trkpt lat="46.00173" lon="6.92085">
        <ele>1854</ele>
        <time>2022-08-28T06:36:38Z</time>
      </trkpt>
      <trkpt lat="46.00173" lon="6.92082">
        <ele>1854</ele>
        <time>2022-08-28T06:36:41Z</time>
      </trkpt>
      <trkpt lat="46.00175" lon="6.92082">
        <ele>1855</ele>
        <time>2022-08-28T06:36:44Z</time>
      </trkpt>
      <trkpt lat="46.00177" lon="6.92083">
        <ele>1856</ele>
        <time>2022-08-28T06:36:50Z</time>
      </trkpt>
      <trkpt lat="46.00179" lon="6.92081">
        <ele>1856</ele>
        <time>2022-08-28T06:36:52Z</time>
      </trkpt>
      <trkpt lat="46.00181" lon="6.9208">
        <ele>1856</ele>
        <time>2022-08-28T06:36:54Z</time>
      </trkpt>
      <trkpt lat="46.00183" lon="6.9208">
        <ele>1857</ele>
        <time>2022-08-28T06:36:57Z</time>
      </trkpt>
      <trkpt lat="46.00185" lon="6.9208">
        <ele>1857</ele>
        <time>2022-08-28T06:37:01Z</time>
      </trkpt>
      <trkpt lat="46.00183" lon="6.92078">
        <ele>1858</ele>
        <time>2022-08-28T06:37:07Z</time>
      </trkpt>
      <trkpt lat="46.0018" lon="6.92077">
        <ele>1858</ele>
        <time>2022-08-28T06:37:09Z</time>
      </trkpt>
      <trkpt lat="46.00179" lon="6.92076">
        <ele>1858</ele>
        <time>2022-08-28T06:37:11Z</time>
      </trkpt>
      <trkpt lat="46.00177" lon="6.92075">
        <ele>1858</ele>
        <time>2022-08-28T06:37:14Z</time>
      </trkpt>
      <trkpt lat="46.00174" lon="6.92073">
        <ele>1859</ele>
        <time>2022-08-28T06:37:17Z</time>
      </trkpt>
      <trkpt lat="46.00173" lon="6.92071">
        <ele>1860</ele>
        <time>2022-08-28T06:37:20Z</time>
      </trkpt>
      <trkpt lat="46.00171" lon="6.9207">
        <ele>1861</ele>
        <time>2022-08-28T06:37:23Z</time>
      </trkpt>
      <trkpt lat="46.00168" lon="6.9207">
        <ele>1861</ele>
        <time>2022-08-28T06:37:26Z</time>
      </trkpt>
      <trkpt lat="46.00166" lon="6.92068">
        <ele>1861</ele>
        <time>2022-08-28T06:37:29Z</time>
      </trkpt>
      <trkpt lat="46.00165" lon="6.92066">
        <ele>1862</ele>
        <time>2022-08-28T06:37:34Z</time>
      </trkpt>
      <trkpt lat="46.00164" lon="6.92063">
        <ele>1862</ele>
        <time>2022-08-28T06:37:37Z</time>
      </trkpt>
      <trkpt lat="46.00165" lon="6.92061">
        <ele>1863</ele>
        <time>2022-08-28T06:37:39Z</time>
      </trkpt>
      <trkpt lat="46.00168" lon="6.92061">
        <ele>1863</ele>
        <time>2022-08-28T06:37:42Z</time>
      </trkpt>
      <trkpt lat="46.0017" lon="6.92062">
        <ele>1863</ele>
        <time>2022-08-28T06:37:45Z</time>
      </trkpt>
      <trkpt lat="46.00171" lon="6.92062">
        <ele>1864</ele>
        <time>2022-08-28T06:37:47Z</time>
      </trkpt>
      <trkpt lat="46.00174" lon="6.92062">
        <ele>1865</ele>
        <time>2022-08-28T06:37:50Z</time>
      </trkpt>
      <trkpt lat="46.00176" lon="6.92062">
        <ele>1865</ele>
        <time>2022-08-28T06:37:53Z</time>
      </trkpt>
      <trkpt lat="46.00178" lon="6.92062">
        <ele>1866</ele>
        <time>2022-08-28T06:37:56Z</time>
      </trkpt>
      <trkpt lat="46.0018" lon="6.92061">
        <ele>1867</ele>
        <time>2022-08-28T06:38:00Z</time>
      </trkpt>
      <trkpt lat="46.00182" lon="6.92061">
        <ele>1867</ele>
        <time>2022-08-28T06:38:04Z</time>
      </trkpt>
      <trkpt lat="46.00184" lon="6.9206">
        <ele>1867</ele>
        <time>2022-08-28T06:38:08Z</time>
      </trkpt>
      <trkpt lat="46.00187" lon="6.92059">
        <ele>1868</ele>
        <time>2022-08-28T06:38:12Z</time>
      </trkpt>
      <trkpt lat="46.00189" lon="6.92058">
        <ele>1869</ele>
        <time>2022-08-28T06:38:15Z</time>
      </trkpt>
      <trkpt lat="46.0019" lon="6.92056">
        <ele>1870</ele>
        <time>2022-08-28T06:38:19Z</time>
      </trkpt>
      <trkpt lat="46.00193" lon="6.92054">
        <ele>1870</ele>
        <time>2022-08-28T06:38:22Z</time>
      </trkpt>
      <trkpt lat="46.00195" lon="6.92053">
        <ele>1871</ele>
        <time>2022-08-28T06:38:25Z</time>
      </trkpt>
      <trkpt lat="46.00197" lon="6.92052">
        <ele>1871</ele>
        <time>2022-08-28T06:38:28Z</time>
      </trkpt>
      <trkpt lat="46.00199" lon="6.9205">
        <ele>1871</ele>
        <time>2022-08-28T06:38:31Z</time>
      </trkpt>
      <trkpt lat="46.00201" lon="6.9205">
        <ele>1872</ele>
        <time>2022-08-28T06:38:34Z</time>
      </trkpt>
      <trkpt lat="46.00203" lon="6.92049">
        <ele>1872</ele>
        <time>2022-08-28T06:38:38Z</time>
      </trkpt>
      <trkpt lat="46.00205" lon="6.92047">
        <ele>1872</ele>
        <time>2022-08-28T06:38:42Z</time>
      </trkpt>
      <trkpt lat="46.00206" lon="6.92046">
        <ele>1874</ele>
        <time>2022-08-28T06:38:47Z</time>
      </trkpt>
      <trkpt lat="46.00208" lon="6.92044">
        <ele>1874</ele>
        <time>2022-08-28T06:38:50Z</time>
      </trkpt>
      <trkpt lat="46.00209" lon="6.92042">
        <ele>1875</ele>
        <time>2022-08-28T06:38:54Z</time>
      </trkpt>
      <trkpt lat="46.00207" lon="6.92041">
        <ele>1875</ele>
        <time>2022-08-28T06:39:00Z</time>
      </trkpt>
      <trkpt lat="46.00205" lon="6.92041">
        <ele>1875</ele>
        <time>2022-08-28T06:39:02Z</time>
      </trkpt>
      <trkpt lat="46.00203" lon="6.92041">
        <ele>1876</ele>
        <time>2022-08-28T06:39:05Z</time>
      </trkpt>
      <trkpt lat="46.00203" lon="6.92041">
        <ele>1875</ele>
        <time>2022-08-28T06:39:21Z</time>
      </trkpt>
      <trkpt lat="46.00203" lon="6.92041">
        <ele>1875</ele>
        <time>2022-08-28T06:39:41Z</time>
      </trkpt>
      <trkpt lat="46.00203" lon="6.92041">
        <ele>1875</ele>
        <time>2022-08-28T06:40:00Z</time>
      </trkpt>
      <trkpt lat="46.00203" lon="6.92041">
        <ele>1876</ele>
        <time>2022-08-28T06:40:19Z</time>
      </trkpt>
      <trkpt lat="46.002" lon="6.92041">
        <ele>1876</ele>
        <time>2022-08-28T06:40:30Z</time>
      </trkpt>
      <trkpt lat="46.00198" lon="6.92041">
        <ele>1876</ele>
        <time>2022-08-28T06:40:32Z</time>
      </trkpt>
      <trkpt lat="46.00196" lon="6.9204">
        <ele>1877</ele>
        <time>2022-08-28T06:40:35Z</time>
      </trkpt>
      <trkpt lat="46.00194" lon="6.92039">
        <ele>1878</ele>
        <time>2022-08-28T06:40:38Z</time>
      </trkpt>
      <trkpt lat="46.00192" lon="6.92039">
        <ele>1878</ele>
        <time>2022-08-28T06:40:41Z</time>
      </trkpt>
      <trkpt lat="46.00189" lon="6.92039">
        <ele>1878</ele>
        <time>2022-08-28T06:40:44Z</time>
      </trkpt>
      <trkpt lat="46.00187" lon="6.92038">
        <ele>1879</ele>
        <time>2022-08-28T06:40:47Z</time>
      </trkpt>
      <trkpt lat="46.00187" lon="6.92038">
        <ele>1879</ele>
        <time>2022-08-28T06:40:48Z</time>
      </trkpt>
      <trkpt lat="46.00187" lon="6.92037">
        <ele>1879</ele>
        <time>2022-08-28T06:40:50Z</time>
      </trkpt>
      <trkpt lat="46.00187" lon="6.92037">
        <ele>1879</ele>
        <time>2022-08-28T06:40:51Z</time>
      </trkpt>
      <trkpt lat="46.00187" lon="6.92037">
        <ele>1879</ele>
        <time>2022-08-28T06:40:52Z</time>
      </trkpt>
      <trkpt lat="46.00187" lon="6.92037">
        <ele>1879</ele>
        <time>2022-08-28T06:40:53Z</time>
      </trkpt>
      <trkpt lat="46.00187" lon="6.92036">
        <ele>1879</ele>
        <time>2022-08-28T06:40:55Z</time>
      </trkpt>
      <trkpt lat="46.00186" lon="6.92036">
        <ele>1879</ele>
        <time>2022-08-28T06:40:56Z</time>
      </trkpt>
      <trkpt lat="46.00186" lon="6.92036">
        <ele>1879</ele>
        <time>2022-08-28T06:40:57Z</time>
      </trkpt>
      <trkpt lat="46.00186" lon="6.92036">
        <ele>1879</ele>
        <time>2022-08-28T06:40:58Z</time>
      </trkpt>
      <trkpt lat="46.00186" lon="6.92036">
        <ele>1880</ele>
        <time>2022-08-28T06:41:00Z</time>
      </trkpt>
      <trkpt lat="46.00186" lon="6.92035">
        <ele>1880</ele>
        <time>2022-08-28T06:41:02Z</time>
      </trkpt>
      <trkpt lat="46.00186" lon="6.92035">
        <ele>1881</ele>
        <time>2022-08-28T06:41:03Z</time>
      </trkpt>
      <trkpt lat="46.00186" lon="6.92035">
        <ele>1881</ele>
        <time>2022-08-28T06:41:04Z</time>
      </trkpt>
      <trkpt lat="46.00186" lon="6.92035">
        <ele>1881</ele>
        <time>2022-08-28T06:41:05Z</time>
      </trkpt>
      <trkpt lat="46.00186" lon="6.92034">
        <ele>1881</ele>
        <time>2022-08-28T06:41:07Z</time>
      </trkpt>
      <trkpt lat="46.00185" lon="6.92034">
        <ele>1881</ele>
        <time>2022-08-28T06:41:08Z</time>
      </trkpt>
      <trkpt lat="46.00185" lon="6.92034">
        <ele>1881</ele>
        <time>2022-08-28T06:41:09Z</time>
      </trkpt>
      <trkpt lat="46.00185" lon="6.92034">
        <ele>1881</ele>
        <time>2022-08-28T06:41:10Z</time>
      </trkpt>
      <trkpt lat="46.00185" lon="6.92033">
        <ele>1881</ele>
        <time>2022-08-28T06:41:12Z</time>
      </trkpt>
      <trkpt lat="46.00185" lon="6.92033">
        <ele>1881</ele>
        <time>2022-08-28T06:41:13Z</time>
      </trkpt>
      <trkpt lat="46.00185" lon="6.92033">
        <ele>1880</ele>
        <time>2022-08-28T06:41:14Z</time>
      </trkpt>
      <trkpt lat="46.00185" lon="6.92033">
        <ele>1880</ele>
        <time>2022-08-28T06:41:15Z</time>
      </trkpt>
      <trkpt lat="46.00185" lon="6.92032">
        <ele>1880</ele>
        <time>2022-08-28T06:41:16Z</time>
      </trkpt>
      <trkpt lat="46.00185" lon="6.92032">
        <ele>1880</ele>
        <time>2022-08-28T06:41:17Z</time>
      </trkpt>
      <trkpt lat="46.00184" lon="6.92032">
        <ele>1880</ele>
        <time>2022-08-28T06:41:18Z</time>
      </trkpt>
      <trkpt lat="46.00184" lon="6.92032">
        <ele>1880</ele>
        <time>2022-08-28T06:41:19Z</time>
      </trkpt>
      <trkpt lat="46.00184" lon="6.92031">
        <ele>1881</ele>
        <time>2022-08-28T06:41:21Z</time>
      </trkpt>
      <trkpt lat="46.00184" lon="6.92031">
        <ele>1881</ele>
        <time>2022-08-28T06:41:22Z</time>
      </trkpt>
      <trkpt lat="46.00184" lon="6.92031">
        <ele>1881</ele>
        <time>2022-08-28T06:41:23Z</time>
      </trkpt>
      <trkpt lat="46.00184" lon="6.92031">
        <ele>1881</ele>
        <time>2022-08-28T06:41:25Z</time>
      </trkpt>
      <trkpt lat="46.00184" lon="6.9203">
        <ele>1881</ele>
        <time>2022-08-28T06:41:26Z</time>
      </trkpt>
      <trkpt lat="46.00184" lon="6.9203">
        <ele>1881</ele>
        <time>2022-08-28T06:41:27Z</time>
      </trkpt>
      <trkpt lat="46.00184" lon="6.9203">
        <ele>1881</ele>
        <time>2022-08-28T06:41:28Z</time>
      </trkpt>
      <trkpt lat="46.00183" lon="6.9203">
        <ele>1880</ele>
        <time>2022-08-28T06:41:29Z</time>
      </trkpt>
      <trkpt lat="46.00183" lon="6.92029">
        <ele>1880</ele>
        <time>2022-08-28T06:41:30Z</time>
      </trkpt>
      <trkpt lat="46.00183" lon="6.92029">
        <ele>1880</ele>
        <time>2022-08-28T06:41:31Z</time>
      </trkpt>
      <trkpt lat="46.00183" lon="6.92029">
        <ele>1880</ele>
        <time>2022-08-28T06:41:32Z</time>
      </trkpt>
      <trkpt lat="46.00183" lon="6.92029">
        <ele>1880</ele>
        <time>2022-08-28T06:41:33Z</time>
      </trkpt>
      <trkpt lat="46.00183" lon="6.92028">
        <ele>1880</ele>
        <time>2022-08-28T06:41:34Z</time>
      </trkpt>
      <trkpt lat="46.00183" lon="6.92028">
        <ele>1880</ele>
        <time>2022-08-28T06:41:35Z</time>
      </trkpt>
      <trkpt lat="46.00183" lon="6.92028">
        <ele>1880</ele>
        <time>2022-08-28T06:41:36Z</time>
      </trkpt>
      <trkpt lat="46.00183" lon="6.92028">
        <ele>1880</ele>
        <time>2022-08-28T06:41:37Z</time>
      </trkpt>
      <trkpt lat="46.00182" lon="6.92027">
        <ele>1880</ele>
        <time>2022-08-28T06:41:38Z</time>
      </trkpt>
      <trkpt lat="46.00182" lon="6.92027">
        <ele>1880</ele>
        <time>2022-08-28T06:41:40Z</time>
      </trkpt>
      <trkpt lat="46.00182" lon="6.92027">
        <ele>1881</ele>
        <time>2022-08-28T06:41:41Z</time>
      </trkpt>
      <trkpt lat="46.00182" lon="6.92027">
        <ele>1881</ele>
        <time>2022-08-28T06:41:43Z</time>
      </trkpt>
      <trkpt lat="46.00182" lon="6.92026">
        <ele>1880</ele>
        <time>2022-08-28T06:41:44Z</time>
      </trkpt>
      <trkpt lat="46.00182" lon="6.92026">
        <ele>1880</ele>
        <time>2022-08-28T06:41:45Z</time>
      </trkpt>
      <trkpt lat="46.00182" lon="6.92026">
        <ele>1880</ele>
        <time>2022-08-28T06:41:47Z</time>
      </trkpt>
      <trkpt lat="46.00182" lon="6.92026">
        <ele>1880</ele>
        <time>2022-08-28T06:41:48Z</time>
      </trkpt>
      <trkpt lat="46.00182" lon="6.92025">
        <ele>1880</ele>
        <time>2022-08-28T06:41:49Z</time>
      </trkpt>
      <trkpt lat="46.00181" lon="6.92025">
        <ele>1880</ele>
        <time>2022-08-28T06:41:50Z</time>
      </trkpt>
      <trkpt lat="46.00181" lon="6.92025">
        <ele>1880</ele>
        <time>2022-08-28T06:41:52Z</time>
      </trkpt>
      <trkpt lat="46.00181" lon="6.92025">
        <ele>1881</ele>
        <time>2022-08-28T06:41:53Z</time>
      </trkpt>
      <trkpt lat="46.00181" lon="6.92024">
        <ele>1881</ele>
        <time>2022-08-28T06:41:54Z</time>
      </trkpt>
      <trkpt lat="46.00181" lon="6.92024">
        <ele>1881</ele>
        <time>2022-08-28T06:41:55Z</time>
      </trkpt>
      <trkpt lat="46.00181" lon="6.92024">
        <ele>1880</ele>
        <time>2022-08-28T06:41:56Z</time>
      </trkpt>
      <trkpt lat="46.00179" lon="6.92028">
        <ele>1881</ele>
        <time>2022-08-28T06:42:03Z</time>
      </trkpt>
      <trkpt lat="46.00176" lon="6.92026">
        <ele>1883</ele>
        <time>2022-08-28T06:42:08Z</time>
      </trkpt>
      <trkpt lat="46.00177" lon="6.92023">
        <ele>1883</ele>
        <time>2022-08-28T06:42:11Z</time>
      </trkpt>
      <trkpt lat="46.0018" lon="6.92024">
        <ele>1883</ele>
        <time>2022-08-28T06:42:14Z</time>
      </trkpt>
      <trkpt lat="46.00181" lon="6.92024">
        <ele>1884</ele>
        <time>2022-08-28T06:42:17Z</time>
      </trkpt>
      <trkpt lat="46.00184" lon="6.92024">
        <ele>1884</ele>
        <time>2022-08-28T06:42:19Z</time>
      </trkpt>
      <trkpt lat="46.00186" lon="6.92024">
        <ele>1885</ele>
        <time>2022-08-28T06:42:22Z</time>
      </trkpt>
      <trkpt lat="46.00188" lon="6.92024">
        <ele>1885</ele>
        <time>2022-08-28T06:42:24Z</time>
      </trkpt>
      <trkpt lat="46.0019" lon="6.92023">
        <ele>1886</ele>
        <time>2022-08-28T06:42:27Z</time>
      </trkpt>
      <trkpt lat="46.00192" lon="6.92021">
        <ele>1886</ele>
        <time>2022-08-28T06:42:30Z</time>
      </trkpt>
      <trkpt lat="46.00194" lon="6.9202">
        <ele>1886</ele>
        <time>2022-08-28T06:42:33Z</time>
      </trkpt>
      <trkpt lat="46.00196" lon="6.92018">
        <ele>1887</ele>
        <time>2022-08-28T06:42:36Z</time>
      </trkpt>
      <trkpt lat="46.00198" lon="6.92016">
        <ele>1888</ele>
        <time>2022-08-28T06:42:39Z</time>
      </trkpt>
      <trkpt lat="46.002" lon="6.92016">
        <ele>1888</ele>
        <time>2022-08-28T06:42:43Z</time>
      </trkpt>
      <trkpt lat="46.00202" lon="6.92015">
        <ele>1888</ele>
        <time>2022-08-28T06:42:46Z</time>
      </trkpt>
      <trkpt lat="46.00205" lon="6.92014">
        <ele>1889</ele>
        <time>2022-08-28T06:42:49Z</time>
      </trkpt>
      <trkpt lat="46.00203" lon="6.92012">
        <ele>1890</ele>
        <time>2022-08-28T06:42:55Z</time>
      </trkpt>
      <trkpt lat="46.00201" lon="6.92013">
        <ele>1890</ele>
        <time>2022-08-28T06:42:58Z</time>
      </trkpt>
      <trkpt lat="46.00199" lon="6.92013">
        <ele>1891</ele>
        <time>2022-08-28T06:43:00Z</time>
      </trkpt>
      <trkpt lat="46.00197" lon="6.92013">
        <ele>1891</ele>
        <time>2022-08-28T06:43:03Z</time>
      </trkpt>
      <trkpt lat="46.00194" lon="6.92012">
        <ele>1892</ele>
        <time>2022-08-28T06:43:06Z</time>
      </trkpt>
      <trkpt lat="46.00192" lon="6.92011">
        <ele>1892</ele>
        <time>2022-08-28T06:43:09Z</time>
      </trkpt>
      <trkpt lat="46.0019" lon="6.92011">
        <ele>1892</ele>
        <time>2022-08-28T06:43:12Z</time>
      </trkpt>
      <trkpt lat="46.00188" lon="6.92009">
        <ele>1893</ele>
        <time>2022-08-28T06:43:15Z</time>
      </trkpt>
      <trkpt lat="46.00187" lon="6.92007">
        <ele>1893</ele>
        <time>2022-08-28T06:43:18Z</time>
      </trkpt>
      <trkpt lat="46.00185" lon="6.92005">
        <ele>1894</ele>
        <time>2022-08-28T06:43:21Z</time>
      </trkpt>
      <trkpt lat="46.00183" lon="6.92003">
        <ele>1895</ele>
        <time>2022-08-28T06:43:25Z</time>
      </trkpt>
      <trkpt lat="46.00181" lon="6.92003">
        <ele>1895</ele>
        <time>2022-08-28T06:43:28Z</time>
      </trkpt>
      <trkpt lat="46.00178" lon="6.92003">
        <ele>1896</ele>
        <time>2022-08-28T06:43:31Z</time>
      </trkpt>
      <trkpt lat="46.00176" lon="6.92003">
        <ele>1896</ele>
        <time>2022-08-28T06:43:34Z</time>
      </trkpt>
      <trkpt lat="46.00174" lon="6.92001">
        <ele>1897</ele>
        <time>2022-08-28T06:43:37Z</time>
      </trkpt>
      <trkpt lat="46.00174" lon="6.91998">
        <ele>1897</ele>
        <time>2022-08-28T06:43:40Z</time>
      </trkpt>
      <trkpt lat="46.00176" lon="6.91996">
        <ele>1898</ele>
        <time>2022-08-28T06:43:42Z</time>
      </trkpt>
      <trkpt lat="46.00179" lon="6.91996">
        <ele>1898</ele>
        <time>2022-08-28T06:43:45Z</time>
      </trkpt>
      <trkpt lat="46.00181" lon="6.91995">
        <ele>1900</ele>
        <time>2022-08-28T06:43:49Z</time>
      </trkpt>
      <trkpt lat="46.00183" lon="6.91994">
        <ele>1900</ele>
        <time>2022-08-28T06:43:51Z</time>
      </trkpt>
      <trkpt lat="46.00185" lon="6.91993">
        <ele>1900</ele>
        <time>2022-08-28T06:43:54Z</time>
      </trkpt>
      <trkpt lat="46.00187" lon="6.91993">
        <ele>1900</ele>
        <time>2022-08-28T06:43:59Z</time>
      </trkpt>
      <trkpt lat="46.00189" lon="6.91993">
        <ele>1901</ele>
        <time>2022-08-28T06:44:02Z</time>
      </trkpt>
      <trkpt lat="46.00191" lon="6.91991">
        <ele>1901</ele>
        <time>2022-08-28T06:44:07Z</time>
      </trkpt>
      <trkpt lat="46.00193" lon="6.9199">
        <ele>1901</ele>
        <time>2022-08-28T06:44:10Z</time>
      </trkpt>
      <trkpt lat="46.00195" lon="6.91989">
        <ele>1902</ele>
        <time>2022-08-28T06:44:13Z</time>
      </trkpt>
      <trkpt lat="46.00197" lon="6.91989">
        <ele>1903</ele>
        <time>2022-08-28T06:44:16Z</time>
      </trkpt>
      <trkpt lat="46.00195" lon="6.91987">
        <ele>1904</ele>
        <time>2022-08-28T06:44:22Z</time>
      </trkpt>
      <trkpt lat="46.00193" lon="6.91986">
        <ele>1904</ele>
        <time>2022-08-28T06:44:26Z</time>
      </trkpt>
      <trkpt lat="46.00191" lon="6.91986">
        <ele>1905</ele>
        <time>2022-08-28T06:44:29Z</time>
      </trkpt>
      <trkpt lat="46.00189" lon="6.91986">
        <ele>1905</ele>
        <time>2022-08-28T06:44:32Z</time>
      </trkpt>
      <trkpt lat="46.00187" lon="6.91985">
        <ele>1905</ele>
        <time>2022-08-28T06:44:35Z</time>
      </trkpt>
      <trkpt lat="46.00185" lon="6.91984">
        <ele>1906</ele>
        <time>2022-08-28T06:44:38Z</time>
      </trkpt>
      <trkpt lat="46.00183" lon="6.91983">
        <ele>1907</ele>
        <time>2022-08-28T06:44:41Z</time>
      </trkpt>
      <trkpt lat="46.00181" lon="6.91982">
        <ele>1907</ele>
        <time>2022-08-28T06:44:44Z</time>
      </trkpt>
      <trkpt lat="46.00179" lon="6.9198">
        <ele>1908</ele>
        <time>2022-08-28T06:44:47Z</time>
      </trkpt>
      <trkpt lat="46.00177" lon="6.9198">
        <ele>1908</ele>
        <time>2022-08-28T06:44:50Z</time>
      </trkpt>
      <trkpt lat="46.00176" lon="6.91979">
        <ele>1909</ele>
        <time>2022-08-28T06:44:53Z</time>
      </trkpt>
      <trkpt lat="46.00174" lon="6.91976">
        <ele>1910</ele>
        <time>2022-08-28T06:44:56Z</time>
      </trkpt>
      <trkpt lat="46.00174" lon="6.91974">
        <ele>1910</ele>
        <time>2022-08-28T06:44:59Z</time>
      </trkpt>
      <trkpt lat="46.00176" lon="6.91973">
        <ele>1911</ele>
        <time>2022-08-28T06:45:01Z</time>
      </trkpt>
      <trkpt lat="46.00176" lon="6.91973">
        <ele>1911</ele>
        <time>2022-08-28T06:45:02Z</time>
      </trkpt>
      <trkpt lat="46.00177" lon="6.91972">
        <ele>1911</ele>
        <time>2022-08-28T06:45:03Z</time>
      </trkpt>
      <trkpt lat="46.00177" lon="6.91972">
        <ele>1911</ele>
        <time>2022-08-28T06:45:04Z</time>
      </trkpt>
      <trkpt lat="46.00178" lon="6.91972">
        <ele>1911</ele>
        <time>2022-08-28T06:45:05Z</time>
      </trkpt>
      <trkpt lat="46.00178" lon="6.91972">
        <ele>1911</ele>
        <time>2022-08-28T06:45:06Z</time>
      </trkpt>
      <trkpt lat="46.00178" lon="6.91971">
        <ele>1912</ele>
        <time>2022-08-28T06:45:07Z</time>
      </trkpt>
      <trkpt lat="46.00179" lon="6.91971">
        <ele>1912</ele>
        <time>2022-08-28T06:45:08Z</time>
      </trkpt>
      <trkpt lat="46.00179" lon="6.91971">
        <ele>1912</ele>
        <time>2022-08-28T06:45:09Z</time>
      </trkpt>
      <trkpt lat="46.00181" lon="6.91969">
        <ele>1912</ele>
        <time>2022-08-28T06:45:13Z</time>
      </trkpt>
      <trkpt lat="46.00182" lon="6.91967">
        <ele>1913</ele>
        <time>2022-08-28T06:45:16Z</time>
      </trkpt>
      <trkpt lat="46.00184" lon="6.91966">
        <ele>1914</ele>
        <time>2022-08-28T06:45:20Z</time>
      </trkpt>
      <trkpt lat="46.00186" lon="6.91965">
        <ele>1915</ele>
        <time>2022-08-28T06:45:25Z</time>
      </trkpt>
      <trkpt lat="46.00188" lon="6.91963">
        <ele>1916</ele>
        <time>2022-08-28T06:45:30Z</time>
      </trkpt>
      <trkpt lat="46.00189" lon="6.91961">
        <ele>1916</ele>
        <time>2022-08-28T06:45:33Z</time>
      </trkpt>
      <trkpt lat="46.00191" lon="6.91958">
        <ele>1917</ele>
        <time>2022-08-28T06:45:37Z</time>
      </trkpt>
      <trkpt lat="46.00192" lon="6.91957">
        <ele>1917</ele>
        <time>2022-08-28T06:45:40Z</time>
      </trkpt>
      <trkpt lat="46.00194" lon="6.91956">
        <ele>1918</ele>
        <time>2022-08-28T06:45:43Z</time>
      </trkpt>
      <trkpt lat="46.00196" lon="6.91955">
        <ele>1918</ele>
        <time>2022-08-28T06:45:47Z</time>
      </trkpt>
      <trkpt lat="46.00198" lon="6.91952">
        <ele>1919</ele>
        <time>2022-08-28T06:45:50Z</time>
      </trkpt>
      <trkpt lat="46.002" lon="6.91951">
        <ele>1920</ele>
        <time>2022-08-28T06:45:54Z</time>
      </trkpt>
      <trkpt lat="46.00202" lon="6.91947">
        <ele>1922</ele>
        <time>2022-08-28T06:46:02Z</time>
      </trkpt>
      <trkpt lat="46.00203" lon="6.91945">
        <ele>1922</ele>
        <time>2022-08-28T06:46:07Z</time>
      </trkpt>
      <trkpt lat="46.00205" lon="6.91945">
        <ele>1923</ele>
        <time>2022-08-28T06:46:13Z</time>
      </trkpt>
      <trkpt lat="46.00206" lon="6.91942">
        <ele>1923</ele>
        <time>2022-08-28T06:46:17Z</time>
      </trkpt>
      <trkpt lat="46.00208" lon="6.9194">
        <ele>1924</ele>
        <time>2022-08-28T06:46:22Z</time>
      </trkpt>
      <trkpt lat="46.00209" lon="6.91938">
        <ele>1924</ele>
        <time>2022-08-28T06:46:27Z</time>
      </trkpt>
      <trkpt lat="46.0021" lon="6.91935">
        <ele>1925</ele>
        <time>2022-08-28T06:46:30Z</time>
      </trkpt>
      <trkpt lat="46.00211" lon="6.91932">
        <ele>1926</ele>
        <time>2022-08-28T06:46:33Z</time>
      </trkpt>
      <trkpt lat="46.00213" lon="6.9193">
        <ele>1926</ele>
        <time>2022-08-28T06:46:37Z</time>
      </trkpt>
      <trkpt lat="46.00214" lon="6.91927">
        <ele>1927</ele>
        <time>2022-08-28T06:46:41Z</time>
      </trkpt>
      <trkpt lat="46.00214" lon="6.91924">
        <ele>1928</ele>
        <time>2022-08-28T06:46:47Z</time>
      </trkpt>
      <trkpt lat="46.00214" lon="6.91921">
        <ele>1929</ele>
        <time>2022-08-28T06:46:50Z</time>
      </trkpt>
      <trkpt lat="46.00212" lon="6.91921">
        <ele>1931</ele>
        <time>2022-08-28T06:47:01Z</time>
      </trkpt>
      <trkpt lat="46.00211" lon="6.91922">
        <ele>1931</ele>
        <time>2022-08-28T06:47:04Z</time>
      </trkpt>
      <trkpt lat="46.00209" lon="6.91922">
        <ele>1932</ele>
        <time>2022-08-28T06:47:08Z</time>
      </trkpt>
      <trkpt lat="46.00207" lon="6.91922">
        <ele>1933</ele>
        <time>2022-08-28T06:47:13Z</time>
      </trkpt>
      <trkpt lat="46.00205" lon="6.91922">
        <ele>1934</ele>
        <time>2022-08-28T06:47:16Z</time>
      </trkpt>
      <trkpt lat="46.00203" lon="6.91922">
        <ele>1934</ele>
        <time>2022-08-28T06:47:19Z</time>
      </trkpt>
      <trkpt lat="46.00201" lon="6.9192">
        <ele>1935</ele>
        <time>2022-08-28T06:47:24Z</time>
      </trkpt>
      <trkpt lat="46.00198" lon="6.91921">
        <ele>1936</ele>
        <time>2022-08-28T06:47:28Z</time>
      </trkpt>
      <trkpt lat="46.00196" lon="6.9192">
        <ele>1936</ele>
        <time>2022-08-28T06:47:31Z</time>
      </trkpt>
      <trkpt lat="46.00194" lon="6.91919">
        <ele>1937</ele>
        <time>2022-08-28T06:47:34Z</time>
      </trkpt>
      <trkpt lat="46.00193" lon="6.91918">
        <ele>1938</ele>
        <time>2022-08-28T06:47:38Z</time>
      </trkpt>
      <trkpt lat="46.0019" lon="6.91917">
        <ele>1940</ele>
        <time>2022-08-28T06:47:43Z</time>
      </trkpt>
      <trkpt lat="46.00188" lon="6.91916">
        <ele>1940</ele>
        <time>2022-08-28T06:47:46Z</time>
      </trkpt>
      <trkpt lat="46.00186" lon="6.91915">
        <ele>1940</ele>
        <time>2022-08-28T06:47:51Z</time>
      </trkpt>
      <trkpt lat="46.00184" lon="6.91915">
        <ele>1941</ele>
        <time>2022-08-28T06:47:55Z</time>
      </trkpt>
      <trkpt lat="46.00182" lon="6.91914">
        <ele>1942</ele>
        <time>2022-08-28T06:47:59Z</time>
      </trkpt>
      <trkpt lat="46.00182" lon="6.9191">
        <ele>1944</ele>
        <time>2022-08-28T06:48:06Z</time>
      </trkpt>
      <trkpt lat="46.00184" lon="6.91909">
        <ele>1944</ele>
        <time>2022-08-28T06:48:10Z</time>
      </trkpt>
      <trkpt lat="46.00185" lon="6.91907">
        <ele>1944</ele>
        <time>2022-08-28T06:48:13Z</time>
      </trkpt>
      <trkpt lat="46.00187" lon="6.91906">
        <ele>1944</ele>
        <time>2022-08-28T06:48:16Z</time>
      </trkpt>
      <trkpt lat="46.00189" lon="6.91904">
        <ele>1945</ele>
        <time>2022-08-28T06:48:19Z</time>
      </trkpt>
      <trkpt lat="46.0019" lon="6.91903">
        <ele>1946</ele>
        <time>2022-08-28T06:48:22Z</time>
      </trkpt>
      <trkpt lat="46.0019" lon="6.91899">
        <ele>1947</ele>
        <time>2022-08-28T06:48:27Z</time>
      </trkpt>
      <trkpt lat="46.00192" lon="6.91899">
        <ele>1947</ele>
        <time>2022-08-28T06:48:30Z</time>
      </trkpt>
      <trkpt lat="46.00194" lon="6.91897">
        <ele>1948</ele>
        <time>2022-08-28T06:48:34Z</time>
      </trkpt>
      <trkpt lat="46.00196" lon="6.91896">
        <ele>1948</ele>
        <time>2022-08-28T06:48:37Z</time>
      </trkpt>
      <trkpt lat="46.00198" lon="6.91894">
        <ele>1949</ele>
        <time>2022-08-28T06:48:41Z</time>
      </trkpt>
      <trkpt lat="46.002" lon="6.91893">
        <ele>1950</ele>
        <time>2022-08-28T06:48:44Z</time>
      </trkpt>
      <trkpt lat="46.00201" lon="6.91891">
        <ele>1951</ele>
        <time>2022-08-28T06:48:46Z</time>
      </trkpt>
      <trkpt lat="46.00203" lon="6.9189">
        <ele>1951</ele>
        <time>2022-08-28T06:48:49Z</time>
      </trkpt>
      <trkpt lat="46.00201" lon="6.91887">
        <ele>1953</ele>
        <time>2022-08-28T06:49:07Z</time>
      </trkpt>
      <trkpt lat="46.00201" lon="6.91887">
        <ele>1953</ele>
        <time>2022-08-28T06:49:08Z</time>
      </trkpt>
      <trkpt lat="46.00198" lon="6.91887">
        <ele>1955</ele>
        <time>2022-08-28T06:49:12Z</time>
      </trkpt>
      <trkpt lat="46.00196" lon="6.91886">
        <ele>1955</ele>
        <time>2022-08-28T06:49:16Z</time>
      </trkpt>
      <trkpt lat="46.00193" lon="6.91886">
        <ele>1956</ele>
        <time>2022-08-28T06:49:21Z</time>
      </trkpt>
      <trkpt lat="46.00191" lon="6.91886">
        <ele>1956</ele>
        <time>2022-08-28T06:49:23Z</time>
      </trkpt>
      <trkpt lat="46.00189" lon="6.91885">
        <ele>1956</ele>
        <time>2022-08-28T06:49:26Z</time>
      </trkpt>
      <trkpt lat="46.00187" lon="6.91884">
        <ele>1957</ele>
        <time>2022-08-28T06:49:29Z</time>
      </trkpt>
      <trkpt lat="46.00185" lon="6.91884">
        <ele>1957</ele>
        <time>2022-08-28T06:49:33Z</time>
      </trkpt>
      <trkpt lat="46.00183" lon="6.91884">
        <ele>1958</ele>
        <time>2022-08-28T06:49:36Z</time>
      </trkpt>
      <trkpt lat="46.00182" lon="6.91881">
        <ele>1959</ele>
        <time>2022-08-28T06:49:40Z</time>
      </trkpt>
      <trkpt lat="46.00183" lon="6.91879">
        <ele>1960</ele>
        <time>2022-08-28T06:49:46Z</time>
      </trkpt>
      <trkpt lat="46.00185" lon="6.91878">
        <ele>1960</ele>
        <time>2022-08-28T06:49:49Z</time>
      </trkpt>
      <trkpt lat="46.00187" lon="6.91877">
        <ele>1962</ele>
        <time>2022-08-28T06:49:52Z</time>
      </trkpt>
      <trkpt lat="46.00189" lon="6.91875">
        <ele>1963</ele>
        <time>2022-08-28T06:49:55Z</time>
      </trkpt>
      <trkpt lat="46.00191" lon="6.91874">
        <ele>1964</ele>
        <time>2022-08-28T06:50:00Z</time>
      </trkpt>
      <trkpt lat="46.00193" lon="6.9187">
        <ele>1965</ele>
        <time>2022-08-28T06:50:06Z</time>
      </trkpt>
      <trkpt lat="46.00192" lon="6.91868">
        <ele>1966</ele>
        <time>2022-08-28T06:50:11Z</time>
      </trkpt>
      <trkpt lat="46.00192" lon="6.91868">
        <ele>1968</ele>
        <time>2022-08-28T06:50:20Z</time>
      </trkpt>
      <trkpt lat="46.00188" lon="6.91867">
        <ele>1968</ele>
        <time>2022-08-28T06:50:21Z</time>
      </trkpt>
      <trkpt lat="46.00187" lon="6.91864">
        <ele>1969</ele>
        <time>2022-08-28T06:50:26Z</time>
      </trkpt>
      <trkpt lat="46.00188" lon="6.91862">
        <ele>1969</ele>
        <time>2022-08-28T06:50:31Z</time>
      </trkpt>
      <trkpt lat="46.00191" lon="6.91861">
        <ele>1970</ele>
        <time>2022-08-28T06:50:36Z</time>
      </trkpt>
      <trkpt lat="46.00188" lon="6.9186">
        <ele>1972</ele>
        <time>2022-08-28T06:50:46Z</time>
      </trkpt>
      <trkpt lat="46.00186" lon="6.91858">
        <ele>1973</ele>
        <time>2022-08-28T06:50:49Z</time>
      </trkpt>
      <trkpt lat="46.00187" lon="6.91855">
        <ele>1973</ele>
        <time>2022-08-28T06:50:52Z</time>
      </trkpt>
      <trkpt lat="46.00189" lon="6.91854">
        <ele>1975</ele>
        <time>2022-08-28T06:50:59Z</time>
      </trkpt>
      <trkpt lat="46.00191" lon="6.91853">
        <ele>1975</ele>
        <time>2022-08-28T06:51:02Z</time>
      </trkpt>
      <trkpt lat="46.00191" lon="6.9185">
        <ele>1977</ele>
        <time>2022-08-28T06:51:07Z</time>
      </trkpt>
      <trkpt lat="46.00192" lon="6.91847">
        <ele>1977</ele>
        <time>2022-08-28T06:51:10Z</time>
      </trkpt>
      <trkpt lat="46.0019" lon="6.91844">
        <ele>1979</ele>
        <time>2022-08-28T06:51:21Z</time>
      </trkpt>
      <trkpt lat="46.00187" lon="6.91846">
        <ele>1979</ele>
        <time>2022-08-28T06:51:25Z</time>
      </trkpt>
      <trkpt lat="46.00185" lon="6.91848">
        <ele>1979</ele>
        <time>2022-08-28T06:51:27Z</time>
      </trkpt>
      <trkpt lat="46.00183" lon="6.91848">
        <ele>1980</ele>
        <time>2022-08-28T06:51:29Z</time>
      </trkpt>
      <trkpt lat="46.00183" lon="6.91845">
        <ele>1980</ele>
        <time>2022-08-28T06:51:31Z</time>
      </trkpt>
      <trkpt lat="46.00184" lon="6.91842">
        <ele>1981</ele>
        <time>2022-08-28T06:51:35Z</time>
      </trkpt>
      <trkpt lat="46.00186" lon="6.91841">
        <ele>1982</ele>
        <time>2022-08-28T06:51:38Z</time>
      </trkpt>
      <trkpt lat="46.00188" lon="6.91838">
        <ele>1982</ele>
        <time>2022-08-28T06:51:41Z</time>
      </trkpt>
      <trkpt lat="46.00189" lon="6.91836">
        <ele>1983</ele>
        <time>2022-08-28T06:51:46Z</time>
      </trkpt>
      <trkpt lat="46.0019" lon="6.91833">
        <ele>1985</ele>
        <time>2022-08-28T06:51:52Z</time>
      </trkpt>
      <trkpt lat="46.00189" lon="6.91831">
        <ele>1986</ele>
        <time>2022-08-28T06:51:57Z</time>
      </trkpt>
      <trkpt lat="46.00188" lon="6.91832">
        <ele>1986</ele>
        <time>2022-08-28T06:52:04Z</time>
      </trkpt>
      <trkpt lat="46.00187" lon="6.91833">
        <ele>1988</ele>
        <time>2022-08-28T06:52:07Z</time>
      </trkpt>
      <trkpt lat="46.00186" lon="6.91835">
        <ele>1988</ele>
        <time>2022-08-28T06:52:09Z</time>
      </trkpt>
      <trkpt lat="46.00185" lon="6.91836">
        <ele>1988</ele>
        <time>2022-08-28T06:52:11Z</time>
      </trkpt>
      <trkpt lat="46.00184" lon="6.91837">
        <ele>1988</ele>
        <time>2022-08-28T06:52:12Z</time>
      </trkpt>
      <trkpt lat="46.00183" lon="6.91838">
        <ele>1989</ele>
        <time>2022-08-28T06:52:13Z</time>
      </trkpt>
      <trkpt lat="46.00181" lon="6.91839">
        <ele>1989</ele>
        <time>2022-08-28T06:52:14Z</time>
      </trkpt>
      <trkpt lat="46.0018" lon="6.9184">
        <ele>1989</ele>
        <time>2022-08-28T06:52:15Z</time>
      </trkpt>
      <trkpt lat="46.00178" lon="6.91842">
        <ele>1990</ele>
        <time>2022-08-28T06:52:18Z</time>
      </trkpt>
      <trkpt lat="46.00176" lon="6.91843">
        <ele>1991</ele>
        <time>2022-08-28T06:52:23Z</time>
      </trkpt>
      <trkpt lat="46.00174" lon="6.91842">
        <ele>1992</ele>
        <time>2022-08-28T06:52:27Z</time>
      </trkpt>
      <trkpt lat="46.00172" lon="6.91841">
        <ele>1993</ele>
        <time>2022-08-28T06:52:31Z</time>
      </trkpt>
      <trkpt lat="46.0017" lon="6.91842">
        <ele>1994</ele>
        <time>2022-08-28T06:52:36Z</time>
      </trkpt>
      <trkpt lat="46.00168" lon="6.91842">
        <ele>1995</ele>
        <time>2022-08-28T06:52:41Z</time>
      </trkpt>
      <trkpt lat="46.00166" lon="6.91842">
        <ele>1996</ele>
        <time>2022-08-28T06:52:45Z</time>
      </trkpt>
      <trkpt lat="46.00163" lon="6.91842">
        <ele>1997</ele>
        <time>2022-08-28T06:52:50Z</time>
      </trkpt>
      <trkpt lat="46.00161" lon="6.9184">
        <ele>1998</ele>
        <time>2022-08-28T06:52:54Z</time>
      </trkpt>
      <trkpt lat="46.00159" lon="6.9184">
        <ele>1998</ele>
        <time>2022-08-28T06:52:58Z</time>
      </trkpt>
      <trkpt lat="46.00157" lon="6.91839">
        <ele>1999</ele>
        <time>2022-08-28T06:53:02Z</time>
      </trkpt>
      <trkpt lat="46.00154" lon="6.91839">
        <ele>1999</ele>
        <time>2022-08-28T06:53:09Z</time>
      </trkpt>
      <trkpt lat="46.00154" lon="6.91839">
        <ele>2002</ele>
        <time>2022-08-28T06:53:20Z</time>
      </trkpt>
      <trkpt lat="46.00145" lon="6.91841">
        <ele>2006</ele>
        <time>2022-08-28T06:53:40Z</time>
      </trkpt>
      <trkpt lat="46.00145" lon="6.91841">
        <ele>2006</ele>
        <time>2022-08-28T06:53:42Z</time>
      </trkpt>
      <trkpt lat="46.00145" lon="6.9184">
        <ele>2006</ele>
        <time>2022-08-28T06:53:43Z</time>
      </trkpt>
      <trkpt lat="46.00144" lon="6.9184">
        <ele>2007</ele>
        <time>2022-08-28T06:53:44Z</time>
      </trkpt>
      <trkpt lat="46.00144" lon="6.9184">
        <ele>2007</ele>
        <time>2022-08-28T06:53:45Z</time>
      </trkpt>
      <trkpt lat="46.00144" lon="6.9184">
        <ele>2007</ele>
        <time>2022-08-28T06:53:47Z</time>
      </trkpt>
      <trkpt lat="46.00144" lon="6.9184">
        <ele>2007</ele>
        <time>2022-08-28T06:53:48Z</time>
      </trkpt>
      <trkpt lat="46.00144" lon="6.9184">
        <ele>2007</ele>
        <time>2022-08-28T06:53:49Z</time>
      </trkpt>
      <trkpt lat="46.00143" lon="6.9184">
        <ele>2008</ele>
        <time>2022-08-28T06:53:50Z</time>
      </trkpt>
      <trkpt lat="46.00143" lon="6.9184">
        <ele>2008</ele>
        <time>2022-08-28T06:53:51Z</time>
      </trkpt>
      <trkpt lat="46.00143" lon="6.91839">
        <ele>2008</ele>
        <time>2022-08-28T06:53:52Z</time>
      </trkpt>
      <trkpt lat="46.00143" lon="6.91839">
        <ele>2008</ele>
        <time>2022-08-28T06:53:53Z</time>
      </trkpt>
      <trkpt lat="46.00143" lon="6.91839">
        <ele>2009</ele>
        <time>2022-08-28T06:53:54Z</time>
      </trkpt>
      <trkpt lat="46.00142" lon="6.91839">
        <ele>2009</ele>
        <time>2022-08-28T06:53:55Z</time>
      </trkpt>
      <trkpt lat="46.00142" lon="6.91839">
        <ele>2009</ele>
        <time>2022-08-28T06:53:57Z</time>
      </trkpt>
      <trkpt lat="46.00142" lon="6.91839">
        <ele>2009</ele>
        <time>2022-08-28T06:53:58Z</time>
      </trkpt>
      <trkpt lat="46.00142" lon="6.91839">
        <ele>2009</ele>
        <time>2022-08-28T06:53:59Z</time>
      </trkpt>
      <trkpt lat="46.00141" lon="6.91839">
        <ele>2010</ele>
        <time>2022-08-28T06:54:01Z</time>
      </trkpt>
      <trkpt lat="46.00141" lon="6.91839">
        <ele>2010</ele>
        <time>2022-08-28T06:54:02Z</time>
      </trkpt>
      <trkpt lat="46.00141" lon="6.91838">
        <ele>2011</ele>
        <time>2022-08-28T06:54:03Z</time>
      </trkpt>
      <trkpt lat="46.00141" lon="6.91838">
        <ele>2011</ele>
        <time>2022-08-28T06:54:05Z</time>
      </trkpt>
      <trkpt lat="46.00141" lon="6.91838">
        <ele>2011</ele>
        <time>2022-08-28T06:54:06Z</time>
      </trkpt>
      <trkpt lat="46.00139" lon="6.91837">
        <ele>2014</ele>
        <time>2022-08-28T06:54:16Z</time>
      </trkpt>
      <trkpt lat="46.00138" lon="6.91837">
        <ele>2015</ele>
        <time>2022-08-28T06:54:17Z</time>
      </trkpt>
      <trkpt lat="46.00138" lon="6.91837">
        <ele>2015</ele>
        <time>2022-08-28T06:54:18Z</time>
      </trkpt>
      <trkpt lat="46.00137" lon="6.91837">
        <ele>2016</ele>
        <time>2022-08-28T06:54:20Z</time>
      </trkpt>
      <trkpt lat="46.00137" lon="6.91838">
        <ele>2016</ele>
        <time>2022-08-28T06:54:21Z</time>
      </trkpt>
      <trkpt lat="46.00136" lon="6.91838">
        <ele>2016</ele>
        <time>2022-08-28T06:54:22Z</time>
      </trkpt>
      <trkpt lat="46.00136" lon="6.91838">
        <ele>2016</ele>
        <time>2022-08-28T06:54:23Z</time>
      </trkpt>
      <trkpt lat="46.00135" lon="6.91838">
        <ele>2016</ele>
        <time>2022-08-28T06:54:25Z</time>
      </trkpt>
      <trkpt lat="46.00135" lon="6.91838">
        <ele>2016</ele>
        <time>2022-08-28T06:54:26Z</time>
      </trkpt>
      <trkpt lat="46.00135" lon="6.91839">
        <ele>2016</ele>
        <time>2022-08-28T06:54:27Z</time>
      </trkpt>
      <trkpt lat="46.00134" lon="6.91839">
        <ele>2017</ele>
        <time>2022-08-28T06:54:28Z</time>
      </trkpt>
      <trkpt lat="46.00134" lon="6.91839">
        <ele>2017</ele>
        <time>2022-08-28T06:54:30Z</time>
      </trkpt>
      <trkpt lat="46.00133" lon="6.91839">
        <ele>2017</ele>
        <time>2022-08-28T06:54:31Z</time>
      </trkpt>
      <trkpt lat="46.00133" lon="6.91839">
        <ele>2018</ele>
        <time>2022-08-28T06:54:32Z</time>
      </trkpt>
      <trkpt lat="46.00132" lon="6.9184">
        <ele>2018</ele>
        <time>2022-08-28T06:54:33Z</time>
      </trkpt>
      <trkpt lat="46.00132" lon="6.9184">
        <ele>2018</ele>
        <time>2022-08-28T06:54:34Z</time>
      </trkpt>
      <trkpt lat="46.00133" lon="6.91837">
        <ele>2018</ele>
        <time>2022-08-28T06:54:36Z</time>
      </trkpt>
      <trkpt lat="46.00134" lon="6.91833">
        <ele>2018</ele>
        <time>2022-08-28T06:54:39Z</time>
      </trkpt>
      <trkpt lat="46.00134" lon="6.91831">
        <ele>2020</ele>
        <time>2022-08-28T06:54:46Z</time>
      </trkpt>
      <trkpt lat="46.00132" lon="6.91831">
        <ele>2020</ele>
        <time>2022-08-28T06:54:49Z</time>
      </trkpt>
      <trkpt lat="46.0013" lon="6.9183">
        <ele>2021</ele>
        <time>2022-08-28T06:54:52Z</time>
      </trkpt>
      <trkpt lat="46.00128" lon="6.91829">
        <ele>2022</ele>
        <time>2022-08-28T06:54:57Z</time>
      </trkpt>
      <trkpt lat="46.00126" lon="6.91829">
        <ele>2022</ele>
        <time>2022-08-28T06:55:01Z</time>
      </trkpt>
      <trkpt lat="46.00124" lon="6.9183">
        <ele>2023</ele>
        <time>2022-08-28T06:55:04Z</time>
      </trkpt>
      <trkpt lat="46.00122" lon="6.9183">
        <ele>2024</ele>
        <time>2022-08-28T06:55:07Z</time>
      </trkpt>
      <trkpt lat="46.00121" lon="6.91828">
        <ele>2024</ele>
        <time>2022-08-28T06:55:09Z</time>
      </trkpt>
      <trkpt lat="46.00121" lon="6.91825">
        <ele>2024</ele>
        <time>2022-08-28T06:55:11Z</time>
      </trkpt>
      <trkpt lat="46.00123" lon="6.91822">
        <ele>2025</ele>
        <time>2022-08-28T06:55:14Z</time>
      </trkpt>
      <trkpt lat="46.00121" lon="6.91821">
        <ele>2026</ele>
        <time>2022-08-28T06:55:21Z</time>
      </trkpt>
      <trkpt lat="46.00119" lon="6.91823">
        <ele>2026</ele>
        <time>2022-08-28T06:55:24Z</time>
      </trkpt>
      <trkpt lat="46.00117" lon="6.91823">
        <ele>2027</ele>
        <time>2022-08-28T06:55:27Z</time>
      </trkpt>
      <trkpt lat="46.00115" lon="6.91825">
        <ele>2028</ele>
        <time>2022-08-28T06:55:30Z</time>
      </trkpt>
      <trkpt lat="46.00114" lon="6.91827">
        <ele>2028</ele>
        <time>2022-08-28T06:55:33Z</time>
      </trkpt>
      <trkpt lat="46.00113" lon="6.9183">
        <ele>2029</ele>
        <time>2022-08-28T06:55:37Z</time>
      </trkpt>
      <trkpt lat="46.00111" lon="6.91831">
        <ele>2031</ele>
        <time>2022-08-28T06:55:41Z</time>
      </trkpt>
      <trkpt lat="46.00111" lon="6.91828">
        <ele>2031</ele>
        <time>2022-08-28T06:55:44Z</time>
      </trkpt>
      <trkpt lat="46.00111" lon="6.91828">
        <ele>2031</ele>
        <time>2022-08-28T06:55:46Z</time>
      </trkpt>
      <trkpt lat="46.00111" lon="6.91827">
        <ele>2032</ele>
        <time>2022-08-28T06:55:48Z</time>
      </trkpt>
      <trkpt lat="46.00111" lon="6.91826">
        <ele>2032</ele>
        <time>2022-08-28T06:55:49Z</time>
      </trkpt>
      <trkpt lat="46.00111" lon="6.91825">
        <ele>2033</ele>
        <time>2022-08-28T06:55:50Z</time>
      </trkpt>
      <trkpt lat="46.00111" lon="6.91824">
        <ele>2033</ele>
        <time>2022-08-28T06:55:51Z</time>
      </trkpt>
      <trkpt lat="46.00111" lon="6.91823">
        <ele>2033</ele>
        <time>2022-08-28T06:55:53Z</time>
      </trkpt>
      <trkpt lat="46.00111" lon="6.91822">
        <ele>2033</ele>
        <time>2022-08-28T06:55:55Z</time>
      </trkpt>
      <trkpt lat="46.00111" lon="6.91821">
        <ele>2033</ele>
        <time>2022-08-28T06:55:56Z</time>
      </trkpt>
      <trkpt lat="46.00111" lon="6.9182">
        <ele>2033</ele>
        <time>2022-08-28T06:55:57Z</time>
      </trkpt>
      <trkpt lat="46.00111" lon="6.91819">
        <ele>2034</ele>
        <time>2022-08-28T06:55:59Z</time>
      </trkpt>
      <trkpt lat="46.00111" lon="6.91818">
        <ele>2034</ele>
        <time>2022-08-28T06:56:00Z</time>
      </trkpt>
      <trkpt lat="46.00111" lon="6.91817">
        <ele>2034</ele>
        <time>2022-08-28T06:56:01Z</time>
      </trkpt>
      <trkpt lat="46.00112" lon="6.91814">
        <ele>2035</ele>
        <time>2022-08-28T06:56:04Z</time>
      </trkpt>
      <trkpt lat="46.00111" lon="6.91812">
        <ele>2036</ele>
        <time>2022-08-28T06:56:09Z</time>
      </trkpt>
      <trkpt lat="46.00109" lon="6.91813">
        <ele>2036</ele>
        <time>2022-08-28T06:56:14Z</time>
      </trkpt>
      <trkpt lat="46.00107" lon="6.91816">
        <ele>2037</ele>
        <time>2022-08-28T06:56:17Z</time>
      </trkpt>
      <trkpt lat="46.00106" lon="6.91813">
        <ele>2038</ele>
        <time>2022-08-28T06:56:21Z</time>
      </trkpt>
      <trkpt lat="46.00107" lon="6.9181">
        <ele>2038</ele>
        <time>2022-08-28T06:56:24Z</time>
      </trkpt>
      <trkpt lat="46.00108" lon="6.91808">
        <ele>2038</ele>
        <time>2022-08-28T06:56:26Z</time>
      </trkpt>
      <trkpt lat="46.00109" lon="6.91806">
        <ele>2041</ele>
        <time>2022-08-28T06:56:29Z</time>
      </trkpt>
      <trkpt lat="46.00111" lon="6.91804">
        <ele>2041</ele>
        <time>2022-08-28T06:56:34Z</time>
      </trkpt>
      <trkpt lat="46.00113" lon="6.91803">
        <ele>2043</ele>
        <time>2022-08-28T06:56:38Z</time>
      </trkpt>
      <trkpt lat="46.00114" lon="6.918">
        <ele>2043</ele>
        <time>2022-08-28T06:56:41Z</time>
      </trkpt>
      <trkpt lat="46.00115" lon="6.91798">
        <ele>2044</ele>
        <time>2022-08-28T06:56:45Z</time>
      </trkpt>
      <trkpt lat="46.00117" lon="6.91797">
        <ele>2044</ele>
        <time>2022-08-28T06:56:48Z</time>
      </trkpt>
      <trkpt lat="46.00115" lon="6.91798">
        <ele>2045</ele>
        <time>2022-08-28T06:56:57Z</time>
      </trkpt>
      <trkpt lat="46.00113" lon="6.91799">
        <ele>2046</ele>
        <time>2022-08-28T06:57:01Z</time>
      </trkpt>
      <trkpt lat="46.0011" lon="6.91798">
        <ele>2046</ele>
        <time>2022-08-28T06:57:05Z</time>
      </trkpt>
      <trkpt lat="46.00108" lon="6.91798">
        <ele>2047</ele>
        <time>2022-08-28T06:57:08Z</time>
      </trkpt>
      <trkpt lat="46.00106" lon="6.91799">
        <ele>2047</ele>
        <time>2022-08-28T06:57:10Z</time>
      </trkpt>
      <trkpt lat="46.00104" lon="6.91799">
        <ele>2047</ele>
        <time>2022-08-28T06:57:12Z</time>
      </trkpt>
      <trkpt lat="46.00101" lon="6.918">
        <ele>2049</ele>
        <time>2022-08-28T06:57:15Z</time>
      </trkpt>
      <trkpt lat="46.001" lon="6.918">
        <ele>2049</ele>
        <time>2022-08-28T06:57:17Z</time>
      </trkpt>
      <trkpt lat="46.00098" lon="6.918">
        <ele>2049</ele>
        <time>2022-08-28T06:57:20Z</time>
      </trkpt>
      <trkpt lat="46.00095" lon="6.91801">
        <ele>2050</ele>
        <time>2022-08-28T06:57:23Z</time>
      </trkpt>
      <trkpt lat="46.00092" lon="6.91801">
        <ele>2050</ele>
        <time>2022-08-28T06:57:26Z</time>
      </trkpt>
      <trkpt lat="46.0009" lon="6.918">
        <ele>2050</ele>
        <time>2022-08-28T06:57:29Z</time>
      </trkpt>
      <trkpt lat="46.00088" lon="6.91801">
        <ele>2052</ele>
        <time>2022-08-28T06:57:32Z</time>
      </trkpt>
      <trkpt lat="46.00085" lon="6.91801">
        <ele>2052</ele>
        <time>2022-08-28T06:57:35Z</time>
      </trkpt>
      <trkpt lat="46.00083" lon="6.91802">
        <ele>2052</ele>
        <time>2022-08-28T06:57:38Z</time>
      </trkpt>
      <trkpt lat="46.00081" lon="6.91803">
        <ele>2053</ele>
        <time>2022-08-28T06:57:41Z</time>
      </trkpt>
      <trkpt lat="46.00079" lon="6.91804">
        <ele>2054</ele>
        <time>2022-08-28T06:57:46Z</time>
      </trkpt>
      <trkpt lat="46.00078" lon="6.91807">
        <ele>2055</ele>
        <time>2022-08-28T06:57:51Z</time>
      </trkpt>
      <trkpt lat="46.00078" lon="6.91809">
        <ele>2055</ele>
        <time>2022-08-28T06:57:55Z</time>
      </trkpt>
      <trkpt lat="46.00079" lon="6.91812">
        <ele>2056</ele>
        <time>2022-08-28T06:57:58Z</time>
      </trkpt>
      <trkpt lat="46.00079" lon="6.91812">
        <ele>2056</ele>
        <time>2022-08-28T06:58:13Z</time>
      </trkpt>
      <trkpt lat="46.00077" lon="6.91814">
        <ele>2056</ele>
        <time>2022-08-28T06:58:24Z</time>
      </trkpt>
      <trkpt lat="46.00077" lon="6.91814">
        <ele>2056</ele>
        <time>2022-08-28T06:58:31Z</time>
      </trkpt>
      <trkpt lat="46.00075" lon="6.91815">
        <ele>2056</ele>
        <time>2022-08-28T06:58:38Z</time>
      </trkpt>
      <trkpt lat="46.00074" lon="6.91814">
        <ele>2056</ele>
        <time>2022-08-28T06:58:41Z</time>
      </trkpt>
      <trkpt lat="46.00074" lon="6.91811">
        <ele>2056</ele>
        <time>2022-08-28T06:58:44Z</time>
      </trkpt>
      <trkpt lat="46.00075" lon="6.91809">
        <ele>2056</ele>
        <time>2022-08-28T06:58:47Z</time>
      </trkpt>
      <trkpt lat="46.00075" lon="6.91805">
        <ele>2055</ele>
        <time>2022-08-28T06:58:50Z</time>
      </trkpt>
      <trkpt lat="46.00074" lon="6.91802">
        <ele>2054</ele>
        <time>2022-08-28T06:58:52Z</time>
      </trkpt>
      <trkpt lat="46.00072" lon="6.91799">
        <ele>2054</ele>
        <time>2022-08-28T06:58:54Z</time>
      </trkpt>
      <trkpt lat="46.00071" lon="6.91797">
        <ele>2054</ele>
        <time>2022-08-28T06:58:56Z</time>
      </trkpt>
      <trkpt lat="46.0007" lon="6.91794">
        <ele>2054</ele>
        <time>2022-08-28T06:58:58Z</time>
      </trkpt>
      <trkpt lat="46.00068" lon="6.91792">
        <ele>2054</ele>
        <time>2022-08-28T06:59:01Z</time>
      </trkpt>
      <trkpt lat="46.00066" lon="6.91791">
        <ele>2054</ele>
        <time>2022-08-28T06:59:03Z</time>
      </trkpt>
      <trkpt lat="46.00064" lon="6.9179">
        <ele>2054</ele>
        <time>2022-08-28T06:59:05Z</time>
      </trkpt>
      <trkpt lat="46.00062" lon="6.91789">
        <ele>2055</ele>
        <time>2022-08-28T06:59:07Z</time>
      </trkpt>
      <trkpt lat="46.0006" lon="6.91788">
        <ele>2055</ele>
        <time>2022-08-28T06:59:09Z</time>
      </trkpt>
      <trkpt lat="46.00058" lon="6.91786">
        <ele>2056</ele>
        <time>2022-08-28T06:59:11Z</time>
      </trkpt>
      <trkpt lat="46.00056" lon="6.91785">
        <ele>2056</ele>
        <time>2022-08-28T06:59:14Z</time>
      </trkpt>
      <trkpt lat="46.00054" lon="6.91784">
        <ele>2056</ele>
        <time>2022-08-28T06:59:17Z</time>
      </trkpt>
      <trkpt lat="46.00052" lon="6.91784">
        <ele>2057</ele>
        <time>2022-08-28T06:59:21Z</time>
      </trkpt>
      <trkpt lat="46.0005" lon="6.91785">
        <ele>2058</ele>
        <time>2022-08-28T06:59:24Z</time>
      </trkpt>
      <trkpt lat="46.00048" lon="6.91786">
        <ele>2058</ele>
        <time>2022-08-28T06:59:27Z</time>
      </trkpt>
      <trkpt lat="46.00045" lon="6.91787">
        <ele>2059</ele>
        <time>2022-08-28T06:59:32Z</time>
      </trkpt>
      <trkpt lat="46.00043" lon="6.91787">
        <ele>2060</ele>
        <time>2022-08-28T06:59:36Z</time>
      </trkpt>
      <trkpt lat="46.00041" lon="6.91788">
        <ele>2060</ele>
        <time>2022-08-28T06:59:38Z</time>
      </trkpt>
      <trkpt lat="46.00039" lon="6.91787">
        <ele>2061</ele>
        <time>2022-08-28T06:59:41Z</time>
      </trkpt>
      <trkpt lat="46.00039" lon="6.91787">
        <ele>2061</ele>
        <time>2022-08-28T06:59:57Z</time>
      </trkpt>
      <trkpt lat="46.00039" lon="6.91787">
        <ele>2061</ele>
        <time>2022-08-28T07:00:15Z</time>
      </trkpt>
      <trkpt lat="46.00039" lon="6.91784">
        <ele>2062</ele>
        <time>2022-08-28T07:00:17Z</time>
      </trkpt>
      <trkpt lat="46.00038" lon="6.9178">
        <ele>2063</ele>
        <time>2022-08-28T07:00:22Z</time>
      </trkpt>
      <trkpt lat="46.00038" lon="6.91777">
        <ele>2064</ele>
        <time>2022-08-28T07:00:25Z</time>
      </trkpt>
      <trkpt lat="46.0004" lon="6.91775">
        <ele>2064</ele>
        <time>2022-08-28T07:00:28Z</time>
      </trkpt>
      <trkpt lat="46.00043" lon="6.91774">
        <ele>2064</ele>
        <time>2022-08-28T07:00:30Z</time>
      </trkpt>
      <trkpt lat="46.00045" lon="6.91773">
        <ele>2066</ele>
        <time>2022-08-28T07:00:32Z</time>
      </trkpt>
      <trkpt lat="46.00047" lon="6.91772">
        <ele>2066</ele>
        <time>2022-08-28T07:00:34Z</time>
      </trkpt>
      <trkpt lat="46.00049" lon="6.91771">
        <ele>2066</ele>
        <time>2022-08-28T07:00:37Z</time>
      </trkpt>
      <trkpt lat="46.00051" lon="6.91769">
        <ele>2066</ele>
        <time>2022-08-28T07:00:40Z</time>
      </trkpt>
      <trkpt lat="46.00052" lon="6.91767">
        <ele>2068</ele>
        <time>2022-08-28T07:00:43Z</time>
      </trkpt>
      <trkpt lat="46.00054" lon="6.91766">
        <ele>2068</ele>
        <time>2022-08-28T07:00:46Z</time>
      </trkpt>
      <trkpt lat="46.00056" lon="6.91764">
        <ele>2069</ele>
        <time>2022-08-28T07:00:49Z</time>
      </trkpt>
      <trkpt lat="46.00058" lon="6.91763">
        <ele>2069</ele>
        <time>2022-08-28T07:00:52Z</time>
      </trkpt>
      <trkpt lat="46.00059" lon="6.91762">
        <ele>2070</ele>
        <time>2022-08-28T07:00:55Z</time>
      </trkpt>
      <trkpt lat="46.00062" lon="6.91762">
        <ele>2070</ele>
        <time>2022-08-28T07:00:58Z</time>
      </trkpt>
      <trkpt lat="46.00064" lon="6.91762">
        <ele>2070</ele>
        <time>2022-08-28T07:01:01Z</time>
      </trkpt>
      <trkpt lat="46.00062" lon="6.9176">
        <ele>2072</ele>
        <time>2022-08-28T07:01:08Z</time>
      </trkpt>
      <trkpt lat="46.0006" lon="6.91759">
        <ele>2072</ele>
        <time>2022-08-28T07:01:10Z</time>
      </trkpt>
      <trkpt lat="46.00058" lon="6.91759">
        <ele>2072</ele>
        <time>2022-08-28T07:01:12Z</time>
      </trkpt>
      <trkpt lat="46.00056" lon="6.91759">
        <ele>2072</ele>
        <time>2022-08-28T07:01:16Z</time>
      </trkpt>
      <trkpt lat="46.00054" lon="6.91757">
        <ele>2073</ele>
        <time>2022-08-28T07:01:19Z</time>
      </trkpt>
      <trkpt lat="46.00052" lon="6.91756">
        <ele>2074</ele>
        <time>2022-08-28T07:01:23Z</time>
      </trkpt>
      <trkpt lat="46.0005" lon="6.91756">
        <ele>2075</ele>
        <time>2022-08-28T07:01:27Z</time>
      </trkpt>
      <trkpt lat="46.00048" lon="6.91755">
        <ele>2075</ele>
        <time>2022-08-28T07:01:31Z</time>
      </trkpt>
      <trkpt lat="46.00046" lon="6.91754">
        <ele>2076</ele>
        <time>2022-08-28T07:01:35Z</time>
      </trkpt>
      <trkpt lat="46.00044" lon="6.91753">
        <ele>2076</ele>
        <time>2022-08-28T07:01:38Z</time>
      </trkpt>
      <trkpt lat="46.00042" lon="6.91752">
        <ele>2077</ele>
        <time>2022-08-28T07:01:41Z</time>
      </trkpt>
      <trkpt lat="46.0004" lon="6.91751">
        <ele>2078</ele>
        <time>2022-08-28T07:01:44Z</time>
      </trkpt>
      <trkpt lat="46.00038" lon="6.91749">
        <ele>2078</ele>
        <time>2022-08-28T07:01:47Z</time>
      </trkpt>
      <trkpt lat="46.00036" lon="6.91748">
        <ele>2078</ele>
        <time>2022-08-28T07:01:50Z</time>
      </trkpt>
      <trkpt lat="46.00034" lon="6.91748">
        <ele>2078</ele>
        <time>2022-08-28T07:01:53Z</time>
      </trkpt>
      <trkpt lat="46.00032" lon="6.91747">
        <ele>2078</ele>
        <time>2022-08-28T07:01:56Z</time>
      </trkpt>
      <trkpt lat="46.0003" lon="6.91747">
        <ele>2079</ele>
        <time>2022-08-28T07:01:59Z</time>
      </trkpt>
      <trkpt lat="46.00027" lon="6.91746">
        <ele>2079</ele>
        <time>2022-08-28T07:02:02Z</time>
      </trkpt>
      <trkpt lat="46.00025" lon="6.91746">
        <ele>2079</ele>
        <time>2022-08-28T07:02:04Z</time>
      </trkpt>
      <trkpt lat="46.00024" lon="6.91745">
        <ele>2080</ele>
        <time>2022-08-28T07:02:07Z</time>
      </trkpt>
      <trkpt lat="46.00021" lon="6.91743">
        <ele>2082</ele>
        <time>2022-08-28T07:02:11Z</time>
      </trkpt>
      <trkpt lat="46.00019" lon="6.91743">
        <ele>2082</ele>
        <time>2022-08-28T07:02:16Z</time>
      </trkpt>
      <trkpt lat="46.00017" lon="6.91742">
        <ele>2084</ele>
        <time>2022-08-28T07:02:21Z</time>
      </trkpt>
      <trkpt lat="46.00017" lon="6.91739">
        <ele>2084</ele>
        <time>2022-08-28T07:02:26Z</time>
      </trkpt>
      <trkpt lat="46.00016" lon="6.91739">
        <ele>2086</ele>
        <time>2022-08-28T07:02:35Z</time>
      </trkpt>
      <trkpt lat="46.00014" lon="6.91741">
        <ele>2086</ele>
        <time>2022-08-28T07:02:38Z</time>
      </trkpt>
      <trkpt lat="46.00012" lon="6.91741">
        <ele>2087</ele>
        <time>2022-08-28T07:02:42Z</time>
      </trkpt>
      <trkpt lat="46.0001" lon="6.91742">
        <ele>2088</ele>
        <time>2022-08-28T07:02:47Z</time>
      </trkpt>
      <trkpt lat="46.00009" lon="6.91744">
        <ele>2088</ele>
        <time>2022-08-28T07:02:50Z</time>
      </trkpt>
      <trkpt lat="46.00007" lon="6.91744">
        <ele>2088</ele>
        <time>2022-08-28T07:02:53Z</time>
      </trkpt>
      <trkpt lat="46.00005" lon="6.91745">
        <ele>2089</ele>
        <time>2022-08-28T07:02:57Z</time>
      </trkpt>
      <trkpt lat="46.00003" lon="6.91745">
        <ele>2090</ele>
        <time>2022-08-28T07:03:00Z</time>
      </trkpt>
      <trkpt lat="46.00001" lon="6.91744">
        <ele>2090</ele>
        <time>2022-08-28T07:03:05Z</time>
      </trkpt>
      <trkpt lat="46" lon="6.91741">
        <ele>2092</ele>
        <time>2022-08-28T07:03:12Z</time>
      </trkpt>
      <trkpt lat="46.00001" lon="6.91738">
        <ele>2094</ele>
        <time>2022-08-28T07:03:17Z</time>
      </trkpt>
      <trkpt lat="46.00002" lon="6.91736">
        <ele>2094</ele>
        <time>2022-08-28T07:03:20Z</time>
      </trkpt>
      <trkpt lat="46.00003" lon="6.91734">
        <ele>2095</ele>
        <time>2022-08-28T07:03:23Z</time>
      </trkpt>
      <trkpt lat="46.00004" lon="6.91731">
        <ele>2096</ele>
        <time>2022-08-28T07:03:28Z</time>
      </trkpt>
      <trkpt lat="46.00004" lon="6.91728">
        <ele>2096</ele>
        <time>2022-08-28T07:03:32Z</time>
      </trkpt>
      <trkpt lat="46.00004" lon="6.91725">
        <ele>2097</ele>
        <time>2022-08-28T07:03:36Z</time>
      </trkpt>
      <trkpt lat="46.00002" lon="6.91727">
        <ele>2097</ele>
        <time>2022-08-28T07:03:41Z</time>
      </trkpt>
      <trkpt lat="45.99999" lon="6.91727">
        <ele>2099</ele>
        <time>2022-08-28T07:03:45Z</time>
      </trkpt>
      <trkpt lat="45.99999" lon="6.91724">
        <ele>2099</ele>
        <time>2022-08-28T07:03:49Z</time>
      </trkpt>
      <trkpt lat="46" lon="6.91722">
        <ele>2099</ele>
        <time>2022-08-28T07:03:51Z</time>
      </trkpt>
      <trkpt lat="46.00001" lon="6.91718">
        <ele>2100</ele>
        <time>2022-08-28T07:03:55Z</time>
      </trkpt>
      <trkpt lat="46.00002" lon="6.91715">
        <ele>2101</ele>
        <time>2022-08-28T07:04:00Z</time>
      </trkpt>
      <trkpt lat="46" lon="6.91716">
        <ele>2101</ele>
        <time>2022-08-28T07:04:06Z</time>
      </trkpt>
      <trkpt lat="45.99998" lon="6.91716">
        <ele>2102</ele>
        <time>2022-08-28T07:04:09Z</time>
      </trkpt>
      <trkpt lat="45.99996" lon="6.91715">
        <ele>2103</ele>
        <time>2022-08-28T07:04:14Z</time>
      </trkpt>
      <trkpt lat="45.99994" lon="6.91713">
        <ele>2104</ele>
        <time>2022-08-28T07:04:21Z</time>
      </trkpt>
      <trkpt lat="45.99992" lon="6.91713">
        <ele>2105</ele>
        <time>2022-08-28T07:04:28Z</time>
      </trkpt>
      <trkpt lat="45.99992" lon="6.91713">
        <ele>2106</ele>
        <time>2022-08-28T07:04:35Z</time>
      </trkpt>
      <trkpt lat="45.99991" lon="6.91715">
        <ele>2106</ele>
        <time>2022-08-28T07:04:36Z</time>
      </trkpt>
      <trkpt lat="45.99991" lon="6.91718">
        <ele>2107</ele>
        <time>2022-08-28T07:04:39Z</time>
      </trkpt>
      <trkpt lat="45.99989" lon="6.9172">
        <ele>2107</ele>
        <time>2022-08-28T07:04:42Z</time>
      </trkpt>
      <trkpt lat="45.99987" lon="6.91718">
        <ele>2109</ele>
        <time>2022-08-28T07:04:46Z</time>
      </trkpt>
      <trkpt lat="45.99986" lon="6.91715">
        <ele>2109</ele>
        <time>2022-08-28T07:04:51Z</time>
      </trkpt>
      <trkpt lat="45.99984" lon="6.91717">
        <ele>2110</ele>
        <time>2022-08-28T07:04:58Z</time>
      </trkpt>
      <trkpt lat="45.99983" lon="6.91719">
        <ele>2111</ele>
        <time>2022-08-28T07:05:05Z</time>
      </trkpt>
      <trkpt lat="45.99981" lon="6.91719">
        <ele>2112</ele>
        <time>2022-08-28T07:05:08Z</time>
      </trkpt>
      <trkpt lat="45.99979" lon="6.91717">
        <ele>2112</ele>
        <time>2022-08-28T07:05:12Z</time>
      </trkpt>
      <trkpt lat="45.99979" lon="6.91714">
        <ele>2112</ele>
        <time>2022-08-28T07:05:15Z</time>
      </trkpt>
      <trkpt lat="45.99977" lon="6.91713">
        <ele>2113</ele>
        <time>2022-08-28T07:05:19Z</time>
      </trkpt>
      <trkpt lat="45.99975" lon="6.91712">
        <ele>2114</ele>
        <time>2022-08-28T07:05:23Z</time>
      </trkpt>
      <trkpt lat="45.99973" lon="6.91712">
        <ele>2115</ele>
        <time>2022-08-28T07:05:27Z</time>
      </trkpt>
      <trkpt lat="45.99971" lon="6.9171">
        <ele>2115</ele>
        <time>2022-08-28T07:05:30Z</time>
      </trkpt>
      <trkpt lat="45.9997" lon="6.91709">
        <ele>2116</ele>
        <time>2022-08-28T07:05:34Z</time>
      </trkpt>
      <trkpt lat="45.99968" lon="6.91708">
        <ele>2118</ele>
        <time>2022-08-28T07:05:39Z</time>
      </trkpt>
      <trkpt lat="45.99966" lon="6.91709">
        <ele>2119</ele>
        <time>2022-08-28T07:05:44Z</time>
      </trkpt>
      <trkpt lat="45.99965" lon="6.91707">
        <ele>2119</ele>
        <time>2022-08-28T07:05:48Z</time>
      </trkpt>
      <trkpt lat="45.99964" lon="6.91704">
        <ele>2120</ele>
        <time>2022-08-28T07:05:54Z</time>
      </trkpt>
      <trkpt lat="45.99964" lon="6.91701">
        <ele>2121</ele>
        <time>2022-08-28T07:05:59Z</time>
      </trkpt>
      <trkpt lat="45.99966" lon="6.917">
        <ele>2122</ele>
        <time>2022-08-28T07:06:02Z</time>
      </trkpt>
      <trkpt lat="45.99967" lon="6.91698">
        <ele>2122</ele>
        <time>2022-08-28T07:06:05Z</time>
      </trkpt>
      <trkpt lat="45.99968" lon="6.91695">
        <ele>2122</ele>
        <time>2022-08-28T07:06:10Z</time>
      </trkpt>
      <trkpt lat="45.99967" lon="6.91693">
        <ele>2123</ele>
        <time>2022-08-28T07:06:15Z</time>
      </trkpt>
      <trkpt lat="45.99965" lon="6.91693">
        <ele>2123</ele>
        <time>2022-08-28T07:06:18Z</time>
      </trkpt>
      <trkpt lat="45.99962" lon="6.91692">
        <ele>2125</ele>
        <time>2022-08-28T07:06:23Z</time>
      </trkpt>
      <trkpt lat="45.9996" lon="6.91693">
        <ele>2126</ele>
        <time>2022-08-28T07:06:28Z</time>
      </trkpt>
      <trkpt lat="45.99958" lon="6.91691">
        <ele>2126</ele>
        <time>2022-08-28T07:06:31Z</time>
      </trkpt>
      <trkpt lat="45.99956" lon="6.9169">
        <ele>2127</ele>
        <time>2022-08-28T07:06:34Z</time>
      </trkpt>
      <trkpt lat="45.99955" lon="6.91688">
        <ele>2127</ele>
        <time>2022-08-28T07:06:38Z</time>
      </trkpt>
      <trkpt lat="45.99953" lon="6.91686">
        <ele>2128</ele>
        <time>2022-08-28T07:06:43Z</time>
      </trkpt>
      <trkpt lat="45.99954" lon="6.91684">
        <ele>2129</ele>
        <time>2022-08-28T07:06:49Z</time>
      </trkpt>
      <trkpt lat="45.99956" lon="6.91682">
        <ele>2130</ele>
        <time>2022-08-28T07:06:53Z</time>
      </trkpt>
      <trkpt lat="45.99958" lon="6.91682">
        <ele>2130</ele>
        <time>2022-08-28T07:06:57Z</time>
      </trkpt>
      <trkpt lat="45.9996" lon="6.91682">
        <ele>2131</ele>
        <time>2022-08-28T07:07:00Z</time>
      </trkpt>
      <trkpt lat="45.99962" lon="6.91682">
        <ele>2131</ele>
        <time>2022-08-28T07:07:02Z</time>
      </trkpt>
      <trkpt lat="45.99964" lon="6.91681">
        <ele>2131</ele>
        <time>2022-08-28T07:07:05Z</time>
      </trkpt>
      <trkpt lat="45.99965" lon="6.91678">
        <ele>2132</ele>
        <time>2022-08-28T07:07:10Z</time>
      </trkpt>
      <trkpt lat="45.99963" lon="6.91679">
        <ele>2133</ele>
        <time>2022-08-28T07:07:16Z</time>
      </trkpt>
      <trkpt lat="45.99961" lon="6.91678">
        <ele>2134</ele>
        <time>2022-08-28T07:07:20Z</time>
      </trkpt>
      <trkpt lat="45.99959" lon="6.91677">
        <ele>2135</ele>
        <time>2022-08-28T07:07:25Z</time>
      </trkpt>
      <trkpt lat="45.99957" lon="6.91675">
        <ele>2135</ele>
        <time>2022-08-28T07:07:29Z</time>
      </trkpt>
      <trkpt lat="45.99957" lon="6.91672">
        <ele>2136</ele>
        <time>2022-08-28T07:07:35Z</time>
      </trkpt>
      <trkpt lat="45.99957" lon="6.91669">
        <ele>2136</ele>
        <time>2022-08-28T07:07:39Z</time>
      </trkpt>
      <trkpt lat="45.99955" lon="6.91668">
        <ele>2138</ele>
        <time>2022-08-28T07:07:45Z</time>
      </trkpt>
      <trkpt lat="45.99955" lon="6.91668">
        <ele>2140</ele>
        <time>2022-08-28T07:07:57Z</time>
      </trkpt>
      <trkpt lat="45.9996" lon="6.91657">
        <ele>2142</ele>
        <time>2022-08-28T07:08:16Z</time>
      </trkpt>
      <trkpt lat="45.9996" lon="6.91656">
        <ele>2142</ele>
        <time>2022-08-28T07:08:17Z</time>
      </trkpt>
      <trkpt lat="45.99961" lon="6.91656">
        <ele>2142</ele>
        <time>2022-08-28T07:08:18Z</time>
      </trkpt>
      <trkpt lat="45.99961" lon="6.91656">
        <ele>2142</ele>
        <time>2022-08-28T07:08:20Z</time>
      </trkpt>
      <trkpt lat="45.99962" lon="6.91656">
        <ele>2144</ele>
        <time>2022-08-28T07:08:21Z</time>
      </trkpt>
      <trkpt lat="45.99962" lon="6.91655">
        <ele>2144</ele>
        <time>2022-08-28T07:08:22Z</time>
      </trkpt>
      <trkpt lat="45.99963" lon="6.91655">
        <ele>2144</ele>
        <time>2022-08-28T07:08:23Z</time>
      </trkpt>
      <trkpt lat="45.99964" lon="6.91655">
        <ele>2145</ele>
        <time>2022-08-28T07:08:25Z</time>
      </trkpt>
      <trkpt lat="45.99964" lon="6.91655">
        <ele>2145</ele>
        <time>2022-08-28T07:08:26Z</time>
      </trkpt>
      <trkpt lat="45.99965" lon="6.91655">
        <ele>2145</ele>
        <time>2022-08-28T07:08:27Z</time>
      </trkpt>
      <trkpt lat="45.99965" lon="6.91654">
        <ele>2145</ele>
        <time>2022-08-28T07:08:28Z</time>
      </trkpt>
      <trkpt lat="45.99966" lon="6.91654">
        <ele>2145</ele>
        <time>2022-08-28T07:08:30Z</time>
      </trkpt>
      <trkpt lat="45.99966" lon="6.91654">
        <ele>2145</ele>
        <time>2022-08-28T07:08:31Z</time>
      </trkpt>
      <trkpt lat="45.99967" lon="6.91654">
        <ele>2146</ele>
        <time>2022-08-28T07:08:32Z</time>
      </trkpt>
      <trkpt lat="45.99967" lon="6.91653">
        <ele>2146</ele>
        <time>2022-08-28T07:08:33Z</time>
      </trkpt>
      <trkpt lat="45.99968" lon="6.91653">
        <ele>2146</ele>
        <time>2022-08-28T07:08:35Z</time>
      </trkpt>
      <trkpt lat="45.99968" lon="6.91653">
        <ele>2146</ele>
        <time>2022-08-28T07:08:36Z</time>
      </trkpt>
      <trkpt lat="45.99969" lon="6.91653">
        <ele>2147</ele>
        <time>2022-08-28T07:08:37Z</time>
      </trkpt>
      <trkpt lat="45.9997" lon="6.91652">
        <ele>2147</ele>
        <time>2022-08-28T07:08:38Z</time>
      </trkpt>
      <trkpt lat="45.9997" lon="6.91652">
        <ele>2148</ele>
        <time>2022-08-28T07:08:39Z</time>
      </trkpt>
      <trkpt lat="45.99971" lon="6.91651">
        <ele>2148</ele>
        <time>2022-08-28T07:08:40Z</time>
      </trkpt>
      <trkpt lat="45.99972" lon="6.91651">
        <ele>2148</ele>
        <time>2022-08-28T07:08:42Z</time>
      </trkpt>
      <trkpt lat="45.99973" lon="6.91651">
        <ele>2148</ele>
        <time>2022-08-28T07:08:44Z</time>
      </trkpt>
      <trkpt lat="45.99973" lon="6.9165">
        <ele>2148</ele>
        <time>2022-08-28T07:08:45Z</time>
      </trkpt>
      <trkpt lat="45.99974" lon="6.9165">
        <ele>2148</ele>
        <time>2022-08-28T07:08:46Z</time>
      </trkpt>
      <trkpt lat="45.99975" lon="6.91649">
        <ele>2149</ele>
        <time>2022-08-28T07:08:47Z</time>
      </trkpt>
      <trkpt lat="45.99976" lon="6.91649">
        <ele>2149</ele>
        <time>2022-08-28T07:08:49Z</time>
      </trkpt>
      <trkpt lat="45.99976" lon="6.91649">
        <ele>2149</ele>
        <time>2022-08-28T07:08:50Z</time>
      </trkpt>
      <trkpt lat="45.99977" lon="6.91648">
        <ele>2149</ele>
        <time>2022-08-28T07:08:51Z</time>
      </trkpt>
      <trkpt lat="45.99978" lon="6.91648">
        <ele>2149</ele>
        <time>2022-08-28T07:08:52Z</time>
      </trkpt>
      <trkpt lat="45.9998" lon="6.91646">
        <ele>2150</ele>
        <time>2022-08-28T07:08:57Z</time>
      </trkpt>
      <trkpt lat="45.99982" lon="6.91645">
        <ele>2150</ele>
        <time>2022-08-28T07:09:00Z</time>
      </trkpt>
      <trkpt lat="45.99984" lon="6.91645">
        <ele>2150</ele>
        <time>2022-08-28T07:09:03Z</time>
      </trkpt>
      <trkpt lat="45.99986" lon="6.91644">
        <ele>2151</ele>
        <time>2022-08-28T07:09:06Z</time>
      </trkpt>
      <trkpt lat="45.99988" lon="6.91643">
        <ele>2151</ele>
        <time>2022-08-28T07:09:09Z</time>
      </trkpt>
      <trkpt lat="45.9999" lon="6.91643">
        <ele>2152</ele>
        <time>2022-08-28T07:09:11Z</time>
      </trkpt>
      <trkpt lat="45.99992" lon="6.91643">
        <ele>2152</ele>
        <time>2022-08-28T07:09:14Z</time>
      </trkpt>
      <trkpt lat="45.99994" lon="6.91642">
        <ele>2152</ele>
        <time>2022-08-28T07:09:17Z</time>
      </trkpt>
      <trkpt lat="45.99993" lon="6.91639">
        <ele>2153</ele>
        <time>2022-08-28T07:09:29Z</time>
      </trkpt>
      <trkpt lat="45.99994" lon="6.91638">
        <ele>2155</ele>
        <time>2022-08-28T07:09:32Z</time>
      </trkpt>
      <trkpt lat="45.99995" lon="6.91638">
        <ele>2155</ele>
        <time>2022-08-28T07:09:34Z</time>
      </trkpt>
      <trkpt lat="45.99996" lon="6.91638">
        <ele>2155</ele>
        <time>2022-08-28T07:09:36Z</time>
      </trkpt>
      <trkpt lat="45.99997" lon="6.91638">
        <ele>2156</ele>
        <time>2022-08-28T07:09:37Z</time>
      </trkpt>
      <trkpt lat="45.99997" lon="6.91637">
        <ele>2156</ele>
        <time>2022-08-28T07:09:38Z</time>
      </trkpt>
      <trkpt lat="45.99998" lon="6.91637">
        <ele>2156</ele>
        <time>2022-08-28T07:09:39Z</time>
      </trkpt>
      <trkpt lat="45.99999" lon="6.91637">
        <ele>2156</ele>
        <time>2022-08-28T07:09:41Z</time>
      </trkpt>
      <trkpt lat="46" lon="6.91637">
        <ele>2156</ele>
        <time>2022-08-28T07:09:42Z</time>
      </trkpt>
      <trkpt lat="46.00001" lon="6.91637">
        <ele>2156</ele>
        <time>2022-08-28T07:09:43Z</time>
      </trkpt>
      <trkpt lat="46.00002" lon="6.91636">
        <ele>2156</ele>
        <time>2022-08-28T07:09:44Z</time>
      </trkpt>
      <trkpt lat="46.00004" lon="6.91637">
        <ele>2156</ele>
        <time>2022-08-28T07:09:46Z</time>
      </trkpt>
      <trkpt lat="46.00006" lon="6.91637">
        <ele>2157</ele>
        <time>2022-08-28T07:09:49Z</time>
      </trkpt>
      <trkpt lat="46.00008" lon="6.91636">
        <ele>2157</ele>
        <time>2022-08-28T07:09:52Z</time>
      </trkpt>
      <trkpt lat="46.00009" lon="6.91635">
        <ele>2157</ele>
        <time>2022-08-28T07:09:55Z</time>
      </trkpt>
      <trkpt lat="46.00012" lon="6.91634">
        <ele>2158</ele>
        <time>2022-08-28T07:09:58Z</time>
      </trkpt>
      <trkpt lat="46.00014" lon="6.91633">
        <ele>2158</ele>
        <time>2022-08-28T07:10:02Z</time>
      </trkpt>
      <trkpt lat="46.00016" lon="6.91632">
        <ele>2158</ele>
        <time>2022-08-28T07:10:05Z</time>
      </trkpt>
      <trkpt lat="46.00017" lon="6.9163">
        <ele>2159</ele>
        <time>2022-08-28T07:10:09Z</time>
      </trkpt>
      <trkpt lat="46.00016" lon="6.91627">
        <ele>2160</ele>
        <time>2022-08-28T07:10:14Z</time>
      </trkpt>
      <trkpt lat="46.00014" lon="6.91626">
        <ele>2161</ele>
        <time>2022-08-28T07:10:18Z</time>
      </trkpt>
      <trkpt lat="46.00012" lon="6.91625">
        <ele>2162</ele>
        <time>2022-08-28T07:10:22Z</time>
      </trkpt>
      <trkpt lat="46.00009" lon="6.91624">
        <ele>2162</ele>
        <time>2022-08-28T07:10:25Z</time>
      </trkpt>
      <trkpt lat="46.00008" lon="6.91621">
        <ele>2163</ele>
        <time>2022-08-28T07:10:31Z</time>
      </trkpt>
      <trkpt lat="46.00006" lon="6.91621">
        <ele>2164</ele>
        <time>2022-08-28T07:10:35Z</time>
      </trkpt>
      <trkpt lat="46.00004" lon="6.9162">
        <ele>2165</ele>
        <time>2022-08-28T07:10:39Z</time>
      </trkpt>
      <trkpt lat="46.00002" lon="6.9162">
        <ele>2165</ele>
        <time>2022-08-28T07:10:43Z</time>
      </trkpt>
      <trkpt lat="46" lon="6.91617">
        <ele>2166</ele>
        <time>2022-08-28T07:10:48Z</time>
      </trkpt>
      <trkpt lat="45.99997" lon="6.91616">
        <ele>2167</ele>
        <time>2022-08-28T07:10:54Z</time>
      </trkpt>
      <trkpt lat="45.99997" lon="6.91613">
        <ele>2168</ele>
        <time>2022-08-28T07:10:58Z</time>
      </trkpt>
      <trkpt lat="45.99999" lon="6.91613">
        <ele>2168</ele>
        <time>2022-08-28T07:11:01Z</time>
      </trkpt>
      <trkpt lat="46.00002" lon="6.91612">
        <ele>2170</ele>
        <time>2022-08-28T07:11:04Z</time>
      </trkpt>
      <trkpt lat="46.00004" lon="6.91612">
        <ele>2170</ele>
        <time>2022-08-28T07:11:07Z</time>
      </trkpt>
      <trkpt lat="46.00006" lon="6.9161">
        <ele>2170</ele>
        <time>2022-08-28T07:11:10Z</time>
      </trkpt>
      <trkpt lat="46.00008" lon="6.91609">
        <ele>2170</ele>
        <time>2022-08-28T07:11:12Z</time>
      </trkpt>
      <trkpt lat="46.0001" lon="6.91608">
        <ele>2170</ele>
        <time>2022-08-28T07:11:14Z</time>
      </trkpt>
      <trkpt lat="46.00012" lon="6.91608">
        <ele>2172</ele>
        <time>2022-08-28T07:11:20Z</time>
      </trkpt>
      <trkpt lat="46.00014" lon="6.91607">
        <ele>2172</ele>
        <time>2022-08-28T07:11:23Z</time>
      </trkpt>
      <trkpt lat="46.00016" lon="6.91607">
        <ele>2172</ele>
        <time>2022-08-28T07:11:26Z</time>
      </trkpt>
      <trkpt lat="46.00018" lon="6.91607">
        <ele>2173</ele>
        <time>2022-08-28T07:11:28Z</time>
      </trkpt>
      <trkpt lat="46.00021" lon="6.91606">
        <ele>2173</ele>
        <time>2022-08-28T07:11:30Z</time>
      </trkpt>
      <trkpt lat="46.00023" lon="6.91606">
        <ele>2173</ele>
        <time>2022-08-28T07:11:32Z</time>
      </trkpt>
      <trkpt lat="46.00025" lon="6.91605">
        <ele>2173</ele>
        <time>2022-08-28T07:11:35Z</time>
      </trkpt>
      <trkpt lat="46.00027" lon="6.91605">
        <ele>2173</ele>
        <time>2022-08-28T07:11:37Z</time>
      </trkpt>
      <trkpt lat="46.00029" lon="6.91605">
        <ele>2174</ele>
        <time>2022-08-28T07:11:39Z</time>
      </trkpt>
      <trkpt lat="46.00031" lon="6.91605">
        <ele>2174</ele>
        <time>2022-08-28T07:11:41Z</time>
      </trkpt>
      <trkpt lat="46.00033" lon="6.91604">
        <ele>2174</ele>
        <time>2022-08-28T07:11:43Z</time>
      </trkpt>
      <trkpt lat="46.00035" lon="6.91603">
        <ele>2174</ele>
        <time>2022-08-28T07:11:46Z</time>
      </trkpt>
      <trkpt lat="46.00037" lon="6.91601">
        <ele>2174</ele>
        <time>2022-08-28T07:11:49Z</time>
      </trkpt>
      <trkpt lat="46.00039" lon="6.916">
        <ele>2175</ele>
        <time>2022-08-28T07:11:51Z</time>
      </trkpt>
      <trkpt lat="46.00041" lon="6.91599">
        <ele>2175</ele>
        <time>2022-08-28T07:11:53Z</time>
      </trkpt>
      <trkpt lat="46.00044" lon="6.91598">
        <ele>2175</ele>
        <time>2022-08-28T07:11:55Z</time>
      </trkpt>
      <trkpt lat="46.00046" lon="6.91598">
        <ele>2175</ele>
        <time>2022-08-28T07:11:57Z</time>
      </trkpt>
      <trkpt lat="46.00048" lon="6.91598">
        <ele>2175</ele>
        <time>2022-08-28T07:11:59Z</time>
      </trkpt>
      <trkpt lat="46.0005" lon="6.91598">
        <ele>2175</ele>
        <time>2022-08-28T07:12:01Z</time>
      </trkpt>
      <trkpt lat="46.00052" lon="6.91598">
        <ele>2175</ele>
        <time>2022-08-28T07:12:03Z</time>
      </trkpt>
      <trkpt lat="46.00054" lon="6.91598">
        <ele>2175</ele>
        <time>2022-08-28T07:12:05Z</time>
      </trkpt>
      <trkpt lat="46.00056" lon="6.91599">
        <ele>2175</ele>
        <time>2022-08-28T07:12:07Z</time>
      </trkpt>
      <trkpt lat="46.00058" lon="6.91601">
        <ele>2175</ele>
        <time>2022-08-28T07:12:09Z</time>
      </trkpt>
      <trkpt lat="46.0006" lon="6.91602">
        <ele>2175</ele>
        <time>2022-08-28T07:12:11Z</time>
      </trkpt>
      <trkpt lat="46.00062" lon="6.91603">
        <ele>2175</ele>
        <time>2022-08-28T07:12:13Z</time>
      </trkpt>
      <trkpt lat="46.00064" lon="6.91603">
        <ele>2175</ele>
        <time>2022-08-28T07:12:15Z</time>
      </trkpt>
      <trkpt lat="46.00067" lon="6.91603">
        <ele>2175</ele>
        <time>2022-08-28T07:12:17Z</time>
      </trkpt>
      <trkpt lat="46.00069" lon="6.91603">
        <ele>2175</ele>
        <time>2022-08-28T07:12:19Z</time>
      </trkpt>
      <trkpt lat="46.00071" lon="6.91602">
        <ele>2176</ele>
        <time>2022-08-28T07:12:21Z</time>
      </trkpt>
      <trkpt lat="46.00073" lon="6.91601">
        <ele>2176</ele>
        <time>2022-08-28T07:12:23Z</time>
      </trkpt>
      <trkpt lat="46.00075" lon="6.91599">
        <ele>2175</ele>
        <time>2022-08-28T07:12:25Z</time>
      </trkpt>
      <trkpt lat="46.00077" lon="6.91598">
        <ele>2175</ele>
        <time>2022-08-28T07:12:27Z</time>
      </trkpt>
      <trkpt lat="46.00078" lon="6.91597">
        <ele>2176</ele>
        <time>2022-08-28T07:12:29Z</time>
      </trkpt>
      <trkpt lat="46.0008" lon="6.91595">
        <ele>2176</ele>
        <time>2022-08-28T07:12:31Z</time>
      </trkpt>
      <trkpt lat="46.00082" lon="6.91594">
        <ele>2177</ele>
        <time>2022-08-28T07:12:34Z</time>
      </trkpt>
      <trkpt lat="46.00084" lon="6.91592">
        <ele>2177</ele>
        <time>2022-08-28T07:12:37Z</time>
      </trkpt>
      <trkpt lat="46.00085" lon="6.91589">
        <ele>2177</ele>
        <time>2022-08-28T07:12:42Z</time>
      </trkpt>
      <trkpt lat="46.00085" lon="6.91586">
        <ele>2178</ele>
        <time>2022-08-28T07:12:45Z</time>
      </trkpt>
      <trkpt lat="46.00086" lon="6.91584">
        <ele>2178</ele>
        <time>2022-08-28T07:12:47Z</time>
      </trkpt>
      <trkpt lat="46.00088" lon="6.91582">
        <ele>2179</ele>
        <time>2022-08-28T07:12:50Z</time>
      </trkpt>
      <trkpt lat="46.0009" lon="6.91581">
        <ele>2179</ele>
        <time>2022-08-28T07:12:53Z</time>
      </trkpt>
      <trkpt lat="46.00092" lon="6.91578">
        <ele>2179</ele>
        <time>2022-08-28T07:12:57Z</time>
      </trkpt>
      <trkpt lat="46.00092" lon="6.91575">
        <ele>2180</ele>
        <time>2022-08-28T07:13:00Z</time>
      </trkpt>
      <trkpt lat="46.00092" lon="6.91572">
        <ele>2181</ele>
        <time>2022-08-28T07:13:03Z</time>
      </trkpt>
      <trkpt lat="46.0009" lon="6.9157">
        <ele>2182</ele>
        <time>2022-08-28T07:13:07Z</time>
      </trkpt>
      <trkpt lat="46.00088" lon="6.91572">
        <ele>2182</ele>
        <time>2022-08-28T07:13:12Z</time>
      </trkpt>
      <trkpt lat="46.00085" lon="6.91575">
        <ele>2183</ele>
        <time>2022-08-28T07:13:15Z</time>
      </trkpt>
      <trkpt lat="46.00083" lon="6.91577">
        <ele>2184</ele>
        <time>2022-08-28T07:13:18Z</time>
      </trkpt>
      <trkpt lat="46.00082" lon="6.91577">
        <ele>2184</ele>
        <time>2022-08-28T07:13:20Z</time>
      </trkpt>
      <trkpt lat="46.00081" lon="6.91577">
        <ele>2184</ele>
        <time>2022-08-28T07:13:22Z</time>
      </trkpt>
      <trkpt lat="46.00081" lon="6.91577">
        <ele>2184</ele>
        <time>2022-08-28T07:13:23Z</time>
      </trkpt>
      <trkpt lat="46.0008" lon="6.91578">
        <ele>2184</ele>
        <time>2022-08-28T07:13:24Z</time>
      </trkpt>
      <trkpt lat="46.00079" lon="6.91578">
        <ele>2184</ele>
        <time>2022-08-28T07:13:25Z</time>
      </trkpt>
      <trkpt lat="46.00078" lon="6.91578">
        <ele>2184</ele>
        <time>2022-08-28T07:13:26Z</time>
      </trkpt>
      <trkpt lat="46.00077" lon="6.91578">
        <ele>2184</ele>
        <time>2022-08-28T07:13:27Z</time>
      </trkpt>
      <trkpt lat="46.00077" lon="6.91579">
        <ele>2184</ele>
        <time>2022-08-28T07:13:28Z</time>
      </trkpt>
      <trkpt lat="46.00075" lon="6.91577">
        <ele>2187</ele>
        <time>2022-08-28T07:13:33Z</time>
      </trkpt>
      <trkpt lat="46.00073" lon="6.91578">
        <ele>2187</ele>
        <time>2022-08-28T07:13:38Z</time>
      </trkpt>
      <trkpt lat="46.00071" lon="6.91577">
        <ele>2189</ele>
        <time>2022-08-28T07:13:45Z</time>
      </trkpt>
      <trkpt lat="46.00071" lon="6.91577">
        <ele>2190</ele>
        <time>2022-08-28T07:13:49Z</time>
      </trkpt>
      <trkpt lat="46.00069" lon="6.91576">
        <ele>2190</ele>
        <time>2022-08-28T07:13:52Z</time>
      </trkpt>
      <trkpt lat="46.00067" lon="6.91578">
        <ele>2190</ele>
        <time>2022-08-28T07:13:55Z</time>
      </trkpt>
      <trkpt lat="46.00065" lon="6.91577">
        <ele>2191</ele>
        <time>2022-08-28T07:14:01Z</time>
      </trkpt>
      <trkpt lat="46.00063" lon="6.91577">
        <ele>2191</ele>
        <time>2022-08-28T07:14:04Z</time>
      </trkpt>
      <trkpt lat="46.00061" lon="6.91575">
        <ele>2193</ele>
        <time>2022-08-28T07:14:08Z</time>
      </trkpt>
      <trkpt lat="46.00063" lon="6.91572">
        <ele>2194</ele>
        <time>2022-08-28T07:14:14Z</time>
      </trkpt>
      <trkpt lat="46.00065" lon="6.91572">
        <ele>2194</ele>
        <time>2022-08-28T07:14:19Z</time>
      </trkpt>
      <trkpt lat="46.00065" lon="6.91572">
        <ele>2196</ele>
        <time>2022-08-28T07:14:27Z</time>
      </trkpt>
      <trkpt lat="46.00069" lon="6.9156">
        <ele>2197</ele>
        <time>2022-08-28T07:14:33Z</time>
      </trkpt>
      <trkpt lat="46.00069" lon="6.9156">
        <ele>2200</ele>
        <time>2022-08-28T07:14:51Z</time>
      </trkpt>
      <trkpt lat="46.00075" lon="6.91549">
        <ele>2201</ele>
        <time>2022-08-28T07:14:55Z</time>
      </trkpt>
      <trkpt lat="46.00074" lon="6.91549">
        <ele>2202</ele>
        <time>2022-08-28T07:14:57Z</time>
      </trkpt>
      <trkpt lat="46.00074" lon="6.91548">
        <ele>2202</ele>
        <time>2022-08-28T07:14:58Z</time>
      </trkpt>
      <trkpt lat="46.00073" lon="6.91548">
        <ele>2202</ele>
        <time>2022-08-28T07:14:59Z</time>
      </trkpt>
      <trkpt lat="46.00073" lon="6.91548">
        <ele>2202</ele>
        <time>2022-08-28T07:15:00Z</time>
      </trkpt>
      <trkpt lat="46.00073" lon="6.91548">
        <ele>2202</ele>
        <time>2022-08-28T07:15:02Z</time>
      </trkpt>
      <trkpt lat="46.00072" lon="6.91548">
        <ele>2202</ele>
        <time>2022-08-28T07:15:03Z</time>
      </trkpt>
      <trkpt lat="46.00072" lon="6.91547">
        <ele>2203</ele>
        <time>2022-08-28T07:15:04Z</time>
      </trkpt>
      <trkpt lat="46.00072" lon="6.91547">
        <ele>2203</ele>
        <time>2022-08-28T07:15:05Z</time>
      </trkpt>
      <trkpt lat="46.00071" lon="6.91547">
        <ele>2203</ele>
        <time>2022-08-28T07:15:06Z</time>
      </trkpt>
      <trkpt lat="46.00071" lon="6.91547">
        <ele>2203</ele>
        <time>2022-08-28T07:15:07Z</time>
      </trkpt>
      <trkpt lat="46.00071" lon="6.91546">
        <ele>2204</ele>
        <time>2022-08-28T07:15:09Z</time>
      </trkpt>
      <trkpt lat="46.0007" lon="6.91546">
        <ele>2204</ele>
        <time>2022-08-28T07:15:11Z</time>
      </trkpt>
      <trkpt lat="46.0007" lon="6.91546">
        <ele>2204</ele>
        <time>2022-08-28T07:15:12Z</time>
      </trkpt>
      <trkpt lat="46.0007" lon="6.91546">
        <ele>2204</ele>
        <time>2022-08-28T07:15:14Z</time>
      </trkpt>
      <trkpt lat="46.00069" lon="6.91545">
        <ele>2205</ele>
        <time>2022-08-28T07:15:16Z</time>
      </trkpt>
      <trkpt lat="46.00069" lon="6.91545">
        <ele>2205</ele>
        <time>2022-08-28T07:15:18Z</time>
      </trkpt>
      <trkpt lat="46.00069" lon="6.91545">
        <ele>2205</ele>
        <time>2022-08-28T07:15:19Z</time>
      </trkpt>
      <trkpt lat="46.00068" lon="6.91545">
        <ele>2205</ele>
        <time>2022-08-28T07:15:20Z</time>
      </trkpt>
      <trkpt lat="46.00068" lon="6.91545">
        <ele>2205</ele>
        <time>2022-08-28T07:15:21Z</time>
      </trkpt>
      <trkpt lat="46.00068" lon="6.91544">
        <ele>2205</ele>
        <time>2022-08-28T07:15:23Z</time>
      </trkpt>
      <trkpt lat="46.00067" lon="6.91544">
        <ele>2205</ele>
        <time>2022-08-28T07:15:24Z</time>
      </trkpt>
      <trkpt lat="46.00067" lon="6.91544">
        <ele>2205</ele>
        <time>2022-08-28T07:15:25Z</time>
      </trkpt>
      <trkpt lat="46.00066" lon="6.91544">
        <ele>2206</ele>
        <time>2022-08-28T07:15:26Z</time>
      </trkpt>
      <trkpt lat="46.00066" lon="6.91543">
        <ele>2206</ele>
        <time>2022-08-28T07:15:27Z</time>
      </trkpt>
      <trkpt lat="46.00066" lon="6.91543">
        <ele>2206</ele>
        <time>2022-08-28T07:15:28Z</time>
      </trkpt>
      <trkpt lat="46.00058" lon="6.91551">
        <ele>2206</ele>
        <time>2022-08-28T07:15:33Z</time>
      </trkpt>
      <trkpt lat="46.00056" lon="6.91552">
        <ele>2206</ele>
        <time>2022-08-28T07:15:35Z</time>
      </trkpt>
      <trkpt lat="46.00054" lon="6.91553">
        <ele>2207</ele>
        <time>2022-08-28T07:15:37Z</time>
      </trkpt>
      <trkpt lat="46.00052" lon="6.91551">
        <ele>2208</ele>
        <time>2022-08-28T07:15:43Z</time>
      </trkpt>
      <trkpt lat="46.0005" lon="6.9155">
        <ele>2208</ele>
        <time>2022-08-28T07:15:47Z</time>
      </trkpt>
      <trkpt lat="46.0005" lon="6.91547">
        <ele>2209</ele>
        <time>2022-08-28T07:15:52Z</time>
      </trkpt>
      <trkpt lat="46.00049" lon="6.91544">
        <ele>2211</ele>
        <time>2022-08-28T07:15:57Z</time>
      </trkpt>
      <trkpt lat="46.00046" lon="6.91545">
        <ele>2212</ele>
        <time>2022-08-28T07:16:03Z</time>
      </trkpt>
      <trkpt lat="46.00045" lon="6.91543">
        <ele>2213</ele>
        <time>2022-08-28T07:16:07Z</time>
      </trkpt>
      <trkpt lat="46.00045" lon="6.91538">
        <ele>2213</ele>
        <time>2022-08-28T07:16:10Z</time>
      </trkpt>
      <trkpt lat="46.00044" lon="6.91538">
        <ele>2214</ele>
        <time>2022-08-28T07:16:13Z</time>
      </trkpt>
      <trkpt lat="46.00044" lon="6.91539">
        <ele>2215</ele>
        <time>2022-08-28T07:16:14Z</time>
      </trkpt>
      <trkpt lat="46.00043" lon="6.91539">
        <ele>2215</ele>
        <time>2022-08-28T07:16:15Z</time>
      </trkpt>
      <trkpt lat="46.00042" lon="6.91539">
        <ele>2215</ele>
        <time>2022-08-28T07:16:16Z</time>
      </trkpt>
      <trkpt lat="46.00041" lon="6.91539">
        <ele>2215</ele>
        <time>2022-08-28T07:16:18Z</time>
      </trkpt>
      <trkpt lat="46.00041" lon="6.91539">
        <ele>2215</ele>
        <time>2022-08-28T07:16:19Z</time>
      </trkpt>
      <trkpt lat="46.0004" lon="6.91539">
        <ele>2215</ele>
        <time>2022-08-28T07:16:20Z</time>
      </trkpt>
      <trkpt lat="46.0004" lon="6.91536">
        <ele>2216</ele>
        <time>2022-08-28T07:16:23Z</time>
      </trkpt>
      <trkpt lat="46.00039" lon="6.91535">
        <ele>2216</ele>
        <time>2022-08-28T07:16:27Z</time>
      </trkpt>
      <trkpt lat="46.00038" lon="6.91532">
        <ele>2217</ele>
        <time>2022-08-28T07:16:31Z</time>
      </trkpt>
      <trkpt lat="46.00038" lon="6.91529">
        <ele>2218</ele>
        <time>2022-08-28T07:16:35Z</time>
      </trkpt>
      <trkpt lat="46.00037" lon="6.91526">
        <ele>2220</ele>
        <time>2022-08-28T07:16:43Z</time>
      </trkpt>
      <trkpt lat="46.00036" lon="6.91522">
        <ele>2220</ele>
        <time>2022-08-28T07:16:49Z</time>
      </trkpt>
      <trkpt lat="46.00036" lon="6.91518">
        <ele>2220</ele>
        <time>2022-08-28T07:16:52Z</time>
      </trkpt>
      <trkpt lat="46.00036" lon="6.91515">
        <ele>2223</ele>
        <time>2022-08-28T07:16:55Z</time>
      </trkpt>
      <trkpt lat="46.00034" lon="6.91512">
        <ele>2223</ele>
        <time>2022-08-28T07:16:59Z</time>
      </trkpt>
      <trkpt lat="46.00034" lon="6.91509">
        <ele>2223</ele>
        <time>2022-08-28T07:17:01Z</time>
      </trkpt>
      <trkpt lat="46.00034" lon="6.91505">
        <ele>2224</ele>
        <time>2022-08-28T07:17:02Z</time>
      </trkpt>
      <trkpt lat="46.00032" lon="6.91503">
        <ele>2225</ele>
        <time>2022-08-28T07:17:11Z</time>
      </trkpt>
      <trkpt lat="46.00032" lon="6.91503">
        <ele>2226</ele>
        <time>2022-08-28T07:17:13Z</time>
      </trkpt>
      <trkpt lat="46.00031" lon="6.91503">
        <ele>2226</ele>
        <time>2022-08-28T07:17:15Z</time>
      </trkpt>
      <trkpt lat="46.0003" lon="6.91503">
        <ele>2226</ele>
        <time>2022-08-28T07:17:16Z</time>
      </trkpt>
      <trkpt lat="46.00029" lon="6.91503">
        <ele>2226</ele>
        <time>2022-08-28T07:17:17Z</time>
      </trkpt>
      <trkpt lat="46.00028" lon="6.91503">
        <ele>2226</ele>
        <time>2022-08-28T07:17:18Z</time>
      </trkpt>
      <trkpt lat="46.00028" lon="6.91503">
        <ele>2226</ele>
        <time>2022-08-28T07:17:20Z</time>
      </trkpt>
      <trkpt lat="46.00027" lon="6.91503">
        <ele>2226</ele>
        <time>2022-08-28T07:17:21Z</time>
      </trkpt>
      <trkpt lat="46.00026" lon="6.91503">
        <ele>2226</ele>
        <time>2022-08-28T07:17:22Z</time>
      </trkpt>
      <trkpt lat="46.00025" lon="6.91502">
        <ele>2226</ele>
        <time>2022-08-28T07:17:23Z</time>
      </trkpt>
      <trkpt lat="46.00024" lon="6.91502">
        <ele>2227</ele>
        <time>2022-08-28T07:17:25Z</time>
      </trkpt>
      <trkpt lat="46.00024" lon="6.91502">
        <ele>2227</ele>
        <time>2022-08-28T07:17:26Z</time>
      </trkpt>
      <trkpt lat="46.00023" lon="6.91502">
        <ele>2227</ele>
        <time>2022-08-28T07:17:27Z</time>
      </trkpt>
      <trkpt lat="46.00024" lon="6.91498">
        <ele>2227</ele>
        <time>2022-08-28T07:17:28Z</time>
      </trkpt>
      <trkpt lat="46.00025" lon="6.91495">
        <ele>2227</ele>
        <time>2022-08-28T07:17:29Z</time>
      </trkpt>
      <trkpt lat="46.00028" lon="6.91484">
        <ele>2227</ele>
        <time>2022-08-28T07:17:30Z</time>
      </trkpt>
      <trkpt lat="46.00028" lon="6.91482">
        <ele>2228</ele>
        <time>2022-08-28T07:17:32Z</time>
      </trkpt>
      <trkpt lat="46.00029" lon="6.91479">
        <ele>2229</ele>
        <time>2022-08-28T07:17:33Z</time>
      </trkpt>
      <trkpt lat="46.00031" lon="6.91468">
        <ele>2229</ele>
        <time>2022-08-28T07:17:34Z</time>
      </trkpt>
      <trkpt lat="46.00031" lon="6.91464">
        <ele>2229</ele>
        <time>2022-08-28T07:17:35Z</time>
      </trkpt>
      <trkpt lat="46.00032" lon="6.91461">
        <ele>2229</ele>
        <time>2022-08-28T07:17:37Z</time>
      </trkpt>
      <trkpt lat="46.00032" lon="6.91458">
        <ele>2229</ele>
        <time>2022-08-28T07:17:38Z</time>
      </trkpt>
      <trkpt lat="46.00033" lon="6.91456">
        <ele>2229</ele>
        <time>2022-08-28T07:17:40Z</time>
      </trkpt>
      <trkpt lat="46.00034" lon="6.91454">
        <ele>2229</ele>
        <time>2022-08-28T07:17:41Z</time>
      </trkpt>
      <trkpt lat="46.00034" lon="6.91451">
        <ele>2229</ele>
        <time>2022-08-28T07:17:42Z</time>
      </trkpt>
      <trkpt lat="46.00035" lon="6.91449">
        <ele>2229</ele>
        <time>2022-08-28T07:17:43Z</time>
      </trkpt>
      <trkpt lat="46.00036" lon="6.91447">
        <ele>2229</ele>
        <time>2022-08-28T07:17:44Z</time>
      </trkpt>
      <trkpt lat="46.00036" lon="6.91445">
        <ele>2230</ele>
        <time>2022-08-28T07:17:45Z</time>
      </trkpt>
      <trkpt lat="46.00035" lon="6.91447">
        <ele>2230</ele>
        <time>2022-08-28T07:17:46Z</time>
      </trkpt>
      <trkpt lat="46.00034" lon="6.91449">
        <ele>2230</ele>
        <time>2022-08-28T07:17:47Z</time>
      </trkpt>
      <trkpt lat="46.00032" lon="6.91451">
        <ele>2231</ele>
        <time>2022-08-28T07:17:48Z</time>
      </trkpt>
      <trkpt lat="46.00031" lon="6.91453">
        <ele>2231</ele>
        <time>2022-08-28T07:17:50Z</time>
      </trkpt>
      <trkpt lat="46.0003" lon="6.91456">
        <ele>2231</ele>
        <time>2022-08-28T07:17:51Z</time>
      </trkpt>
      <trkpt lat="46.00026" lon="6.91462">
        <ele>2231</ele>
        <time>2022-08-28T07:17:52Z</time>
      </trkpt>
      <trkpt lat="46.00023" lon="6.91468">
        <ele>2231</ele>
        <time>2022-08-28T07:17:53Z</time>
      </trkpt>
      <trkpt lat="46.0002" lon="6.91474">
        <ele>2231</ele>
        <time>2022-08-28T07:17:54Z</time>
      </trkpt>
      <trkpt lat="46.00016" lon="6.91479">
        <ele>2232</ele>
        <time>2022-08-28T07:17:55Z</time>
      </trkpt>
      <trkpt lat="46.00013" lon="6.91484">
        <ele>2232</ele>
        <time>2022-08-28T07:17:56Z</time>
      </trkpt>
      <trkpt lat="46.00012" lon="6.91487">
        <ele>2233</ele>
        <time>2022-08-28T07:17:57Z</time>
      </trkpt>
      <trkpt lat="46.0001" lon="6.91489">
        <ele>2233</ele>
        <time>2022-08-28T07:17:58Z</time>
      </trkpt>
      <trkpt lat="46.00008" lon="6.91491">
        <ele>2233</ele>
        <time>2022-08-28T07:18:00Z</time>
      </trkpt>
      <trkpt lat="46.00007" lon="6.91494">
        <ele>2233</ele>
        <time>2022-08-28T07:18:01Z</time>
      </trkpt>
      <trkpt lat="46.00005" lon="6.91496">
        <ele>2233</ele>
        <time>2022-08-28T07:18:02Z</time>
      </trkpt>
      <trkpt lat="46.00004" lon="6.91498">
        <ele>2233</ele>
        <time>2022-08-28T07:18:03Z</time>
      </trkpt>
      <trkpt lat="46.00002" lon="6.915">
        <ele>2233</ele>
        <time>2022-08-28T07:18:04Z</time>
      </trkpt>
      <trkpt lat="46.00001" lon="6.91502">
        <ele>2233</ele>
        <time>2022-08-28T07:18:06Z</time>
      </trkpt>
      <trkpt lat="45.99999" lon="6.91504">
        <ele>2233</ele>
        <time>2022-08-28T07:18:07Z</time>
      </trkpt>
      <trkpt lat="45.99997" lon="6.91505">
        <ele>2234</ele>
        <time>2022-08-28T07:18:09Z</time>
      </trkpt>
      <trkpt lat="45.99995" lon="6.91506">
        <ele>2234</ele>
        <time>2022-08-28T07:18:10Z</time>
      </trkpt>
      <trkpt lat="45.99994" lon="6.91508">
        <ele>2234</ele>
        <time>2022-08-28T07:18:12Z</time>
      </trkpt>
      <trkpt lat="45.99992" lon="6.91509">
        <ele>2234</ele>
        <time>2022-08-28T07:18:14Z</time>
      </trkpt>
      <trkpt lat="45.99989" lon="6.9151">
        <ele>2234</ele>
        <time>2022-08-28T07:18:17Z</time>
      </trkpt>
      <trkpt lat="45.99987" lon="6.91511">
        <ele>2234</ele>
        <time>2022-08-28T07:18:19Z</time>
      </trkpt>
      <trkpt lat="45.99985" lon="6.9151">
        <ele>2235</ele>
        <time>2022-08-28T07:18:22Z</time>
      </trkpt>
      <trkpt lat="45.99983" lon="6.9151">
        <ele>2236</ele>
        <time>2022-08-28T07:18:27Z</time>
      </trkpt>
      <trkpt lat="45.99981" lon="6.9151">
        <ele>2236</ele>
        <time>2022-08-28T07:18:31Z</time>
      </trkpt>
      <trkpt lat="45.99979" lon="6.9151">
        <ele>2236</ele>
        <time>2022-08-28T07:18:34Z</time>
      </trkpt>
      <trkpt lat="45.99977" lon="6.91511">
        <ele>2237</ele>
        <time>2022-08-28T07:18:36Z</time>
      </trkpt>
      <trkpt lat="45.99975" lon="6.91511">
        <ele>2237</ele>
        <time>2022-08-28T07:18:38Z</time>
      </trkpt>
      <trkpt lat="45.99973" lon="6.91512">
        <ele>2238</ele>
        <time>2022-08-28T07:18:41Z</time>
      </trkpt>
      <trkpt lat="45.9997" lon="6.91511">
        <ele>2238</ele>
        <time>2022-08-28T07:18:44Z</time>
      </trkpt>
      <trkpt lat="45.99968" lon="6.91512">
        <ele>2237</ele>
        <time>2022-08-28T07:18:47Z</time>
      </trkpt>
      <trkpt lat="45.99967" lon="6.91511">
        <ele>2237</ele>
        <time>2022-08-28T07:18:48Z</time>
      </trkpt>
      <trkpt lat="45.99967" lon="6.91511">
        <ele>2237</ele>
        <time>2022-08-28T07:18:50Z</time>
      </trkpt>
      <trkpt lat="45.99966" lon="6.91511">
        <ele>2238</ele>
        <time>2022-08-28T07:18:51Z</time>
      </trkpt>
      <trkpt lat="45.99965" lon="6.9151">
        <ele>2238</ele>
        <time>2022-08-28T07:18:52Z</time>
      </trkpt>
      <trkpt lat="45.99965" lon="6.9151">
        <ele>2238</ele>
        <time>2022-08-28T07:18:53Z</time>
      </trkpt>
      <trkpt lat="45.99964" lon="6.9151">
        <ele>2238</ele>
        <time>2022-08-28T07:18:55Z</time>
      </trkpt>
      <trkpt lat="45.99963" lon="6.9151">
        <ele>2238</ele>
        <time>2022-08-28T07:18:56Z</time>
      </trkpt>
      <trkpt lat="45.99963" lon="6.91509">
        <ele>2239</ele>
        <time>2022-08-28T07:18:57Z</time>
      </trkpt>
      <trkpt lat="45.99962" lon="6.91509">
        <ele>2239</ele>
        <time>2022-08-28T07:18:58Z</time>
      </trkpt>
      <trkpt lat="45.99962" lon="6.91509">
        <ele>2239</ele>
        <time>2022-08-28T07:19:00Z</time>
      </trkpt>
      <trkpt lat="45.99961" lon="6.91509">
        <ele>2239</ele>
        <time>2022-08-28T07:19:02Z</time>
      </trkpt>
      <trkpt lat="45.9996" lon="6.91508">
        <ele>2239</ele>
        <time>2022-08-28T07:19:03Z</time>
      </trkpt>
      <trkpt lat="45.9996" lon="6.91508">
        <ele>2239</ele>
        <time>2022-08-28T07:19:04Z</time>
      </trkpt>
      <trkpt lat="45.99959" lon="6.91508">
        <ele>2239</ele>
        <time>2022-08-28T07:19:05Z</time>
      </trkpt>
      <trkpt lat="45.9995" lon="6.91511">
        <ele>2241</ele>
        <time>2022-08-28T07:19:17Z</time>
      </trkpt>
      <trkpt lat="45.99949" lon="6.91511">
        <ele>2241</ele>
        <time>2022-08-28T07:19:18Z</time>
      </trkpt>
      <trkpt lat="45.99949" lon="6.91512">
        <ele>2241</ele>
        <time>2022-08-28T07:19:19Z</time>
      </trkpt>
      <trkpt lat="45.99948" lon="6.91512">
        <ele>2241</ele>
        <time>2022-08-28T07:19:21Z</time>
      </trkpt>
      <trkpt lat="45.99947" lon="6.91513">
        <ele>2241</ele>
        <time>2022-08-28T07:19:22Z</time>
      </trkpt>
      <trkpt lat="45.99946" lon="6.91513">
        <ele>2242</ele>
        <time>2022-08-28T07:19:23Z</time>
      </trkpt>
      <trkpt lat="45.99945" lon="6.91513">
        <ele>2242</ele>
        <time>2022-08-28T07:19:25Z</time>
      </trkpt>
      <trkpt lat="45.99945" lon="6.91514">
        <ele>2242</ele>
        <time>2022-08-28T07:19:26Z</time>
      </trkpt>
      <trkpt lat="45.99944" lon="6.91514">
        <ele>2242</ele>
        <time>2022-08-28T07:19:27Z</time>
      </trkpt>
      <trkpt lat="45.99943" lon="6.91514">
        <ele>2242</ele>
        <time>2022-08-28T07:19:28Z</time>
      </trkpt>
      <trkpt lat="45.99942" lon="6.91515">
        <ele>2244</ele>
        <time>2022-08-28T07:19:30Z</time>
      </trkpt>
      <trkpt lat="45.99941" lon="6.91515">
        <ele>2244</ele>
        <time>2022-08-28T07:19:31Z</time>
      </trkpt>
      <trkpt lat="45.99939" lon="6.91515">
        <ele>2244</ele>
        <time>2022-08-28T07:19:35Z</time>
      </trkpt>
      <trkpt lat="45.99938" lon="6.91517">
        <ele>2245</ele>
        <time>2022-08-28T07:19:39Z</time>
      </trkpt>
      <trkpt lat="45.99936" lon="6.91519">
        <ele>2244</ele>
        <time>2022-08-28T07:19:43Z</time>
      </trkpt>
      <trkpt lat="45.99934" lon="6.91518">
        <ele>2246</ele>
        <time>2022-08-28T07:19:48Z</time>
      </trkpt>
      <trkpt lat="45.99932" lon="6.91517">
        <ele>2246</ele>
        <time>2022-08-28T07:19:51Z</time>
      </trkpt>
      <trkpt lat="45.9993" lon="6.91514">
        <ele>2246</ele>
        <time>2022-08-28T07:19:54Z</time>
      </trkpt>
      <trkpt lat="45.99928" lon="6.91513">
        <ele>2246</ele>
        <time>2022-08-28T07:19:57Z</time>
      </trkpt>
      <trkpt lat="45.99927" lon="6.9151">
        <ele>2246</ele>
        <time>2022-08-28T07:20:00Z</time>
      </trkpt>
      <trkpt lat="45.99927" lon="6.91507">
        <ele>2248</ele>
        <time>2022-08-28T07:20:03Z</time>
      </trkpt>
      <trkpt lat="45.99925" lon="6.91505">
        <ele>2248</ele>
        <time>2022-08-28T07:20:07Z</time>
      </trkpt>
      <trkpt lat="45.99924" lon="6.91502">
        <ele>2250</ele>
        <time>2022-08-28T07:20:10Z</time>
      </trkpt>
      <trkpt lat="45.99923" lon="6.91502">
        <ele>2250</ele>
        <time>2022-08-28T07:20:11Z</time>
      </trkpt>
      <trkpt lat="45.99922" lon="6.91501">
        <ele>2250</ele>
        <time>2022-08-28T07:20:13Z</time>
      </trkpt>
      <trkpt lat="45.99922" lon="6.91501">
        <ele>2250</ele>
        <time>2022-08-28T07:20:14Z</time>
      </trkpt>
      <trkpt lat="45.99921" lon="6.91501">
        <ele>2250</ele>
        <time>2022-08-28T07:20:15Z</time>
      </trkpt>
      <trkpt lat="45.9992" lon="6.91501">
        <ele>2250</ele>
        <time>2022-08-28T07:20:16Z</time>
      </trkpt>
      <trkpt lat="45.9992" lon="6.915">
        <ele>2250</ele>
        <time>2022-08-28T07:20:18Z</time>
      </trkpt>
      <trkpt lat="45.99919" lon="6.915">
        <ele>2251</ele>
        <time>2022-08-28T07:20:20Z</time>
      </trkpt>
      <trkpt lat="45.99918" lon="6.915">
        <ele>2251</ele>
        <time>2022-08-28T07:20:21Z</time>
      </trkpt>
      <trkpt lat="45.99917" lon="6.91499">
        <ele>2251</ele>
        <time>2022-08-28T07:20:22Z</time>
      </trkpt>
      <trkpt lat="45.99917" lon="6.91499">
        <ele>2251</ele>
        <time>2022-08-28T07:20:23Z</time>
      </trkpt>
      <trkpt lat="45.99916" lon="6.91499">
        <ele>2251</ele>
        <time>2022-08-28T07:20:24Z</time>
      </trkpt>
      <trkpt lat="45.99915" lon="6.91499">
        <ele>2251</ele>
        <time>2022-08-28T07:20:25Z</time>
      </trkpt>
      <trkpt lat="45.99915" lon="6.91498">
        <ele>2251</ele>
        <time>2022-08-28T07:20:26Z</time>
      </trkpt>
      <trkpt lat="45.99914" lon="6.91498">
        <ele>2251</ele>
        <time>2022-08-28T07:20:27Z</time>
      </trkpt>
      <trkpt lat="45.99913" lon="6.91498">
        <ele>2251</ele>
        <time>2022-08-28T07:20:28Z</time>
      </trkpt>
      <trkpt lat="45.99913" lon="6.91497">
        <ele>2251</ele>
        <time>2022-08-28T07:20:29Z</time>
      </trkpt>
      <trkpt lat="45.99912" lon="6.91497">
        <ele>2252</ele>
        <time>2022-08-28T07:20:31Z</time>
      </trkpt>
      <trkpt lat="45.99911" lon="6.91496">
        <ele>2252</ele>
        <time>2022-08-28T07:20:32Z</time>
      </trkpt>
      <trkpt lat="45.99911" lon="6.91496">
        <ele>2253</ele>
        <time>2022-08-28T07:20:33Z</time>
      </trkpt>
      <trkpt lat="45.99905" lon="6.91495">
        <ele>2253</ele>
        <time>2022-08-28T07:20:41Z</time>
      </trkpt>
      <trkpt lat="45.99904" lon="6.91494">
        <ele>2254</ele>
        <time>2022-08-28T07:20:44Z</time>
      </trkpt>
      <trkpt lat="45.99903" lon="6.91493">
        <ele>2254</ele>
        <time>2022-08-28T07:20:46Z</time>
      </trkpt>
      <trkpt lat="45.99902" lon="6.91493">
        <ele>2254</ele>
        <time>2022-08-28T07:20:47Z</time>
      </trkpt>
      <trkpt lat="45.99901" lon="6.91493">
        <ele>2255</ele>
        <time>2022-08-28T07:20:48Z</time>
      </trkpt>
      <trkpt lat="45.99901" lon="6.91492">
        <ele>2255</ele>
        <time>2022-08-28T07:20:49Z</time>
      </trkpt>
      <trkpt lat="45.999" lon="6.91492">
        <ele>2255</ele>
        <time>2022-08-28T07:20:51Z</time>
      </trkpt>
      <trkpt lat="45.99899" lon="6.91491">
        <ele>2255</ele>
        <time>2022-08-28T07:20:53Z</time>
      </trkpt>
      <trkpt lat="45.99899" lon="6.91491">
        <ele>2256</ele>
        <time>2022-08-28T07:20:54Z</time>
      </trkpt>
      <trkpt lat="45.99898" lon="6.9149">
        <ele>2256</ele>
        <time>2022-08-28T07:20:56Z</time>
      </trkpt>
      <trkpt lat="45.99897" lon="6.9149">
        <ele>2256</ele>
        <time>2022-08-28T07:20:57Z</time>
      </trkpt>
      <trkpt lat="45.99896" lon="6.91489">
        <ele>2256</ele>
        <time>2022-08-28T07:20:58Z</time>
      </trkpt>
      <trkpt lat="45.99896" lon="6.91489">
        <ele>2256</ele>
        <time>2022-08-28T07:21:00Z</time>
      </trkpt>
      <trkpt lat="45.99895" lon="6.91489">
        <ele>2257</ele>
        <time>2022-08-28T07:21:01Z</time>
      </trkpt>
      <trkpt lat="45.99894" lon="6.91488">
        <ele>2257</ele>
        <time>2022-08-28T07:21:02Z</time>
      </trkpt>
      <trkpt lat="45.99894" lon="6.91488">
        <ele>2257</ele>
        <time>2022-08-28T07:21:03Z</time>
      </trkpt>
      <trkpt lat="45.99893" lon="6.91488">
        <ele>2258</ele>
        <time>2022-08-28T07:21:05Z</time>
      </trkpt>
      <trkpt lat="45.99893" lon="6.91487">
        <ele>2258</ele>
        <time>2022-08-28T07:21:06Z</time>
      </trkpt>
      <trkpt lat="45.99892" lon="6.91487">
        <ele>2258</ele>
        <time>2022-08-28T07:21:07Z</time>
      </trkpt>
      <trkpt lat="45.99892" lon="6.91487">
        <ele>2258</ele>
        <time>2022-08-28T07:21:08Z</time>
      </trkpt>
      <trkpt lat="45.99891" lon="6.91486">
        <ele>2258</ele>
        <time>2022-08-28T07:21:10Z</time>
      </trkpt>
      <trkpt lat="45.99891" lon="6.91486">
        <ele>2258</ele>
        <time>2022-08-28T07:21:11Z</time>
      </trkpt>
      <trkpt lat="45.9989" lon="6.91486">
        <ele>2258</ele>
        <time>2022-08-28T07:21:12Z</time>
      </trkpt>
      <trkpt lat="45.99889" lon="6.91485">
        <ele>2258</ele>
        <time>2022-08-28T07:21:13Z</time>
      </trkpt>
      <trkpt lat="45.99889" lon="6.91485">
        <ele>2258</ele>
        <time>2022-08-28T07:21:15Z</time>
      </trkpt>
      <trkpt lat="45.99888" lon="6.91485">
        <ele>2259</ele>
        <time>2022-08-28T07:21:17Z</time>
      </trkpt>
      <trkpt lat="45.99888" lon="6.91484">
        <ele>2260</ele>
        <time>2022-08-28T07:21:18Z</time>
      </trkpt>
      <trkpt lat="45.99887" lon="6.91484">
        <ele>2260</ele>
        <time>2022-08-28T07:21:19Z</time>
      </trkpt>
      <trkpt lat="45.99887" lon="6.91484">
        <ele>2260</ele>
        <time>2022-08-28T07:21:20Z</time>
      </trkpt>
      <trkpt lat="45.99887" lon="6.91484">
        <ele>2263</ele>
        <time>2022-08-28T07:21:42Z</time>
      </trkpt>
      <trkpt lat="45.99883" lon="6.91473">
        <ele>2266</ele>
        <time>2022-08-28T07:22:02Z</time>
      </trkpt>
      <trkpt lat="45.99883" lon="6.91473">
        <ele>2267</ele>
        <time>2022-08-28T07:22:05Z</time>
      </trkpt>
      <trkpt lat="45.99881" lon="6.9147">
        <ele>2268</ele>
        <time>2022-08-28T07:22:13Z</time>
      </trkpt>
      <trkpt lat="45.9988" lon="6.9147">
        <ele>2269</ele>
        <time>2022-08-28T07:22:16Z</time>
      </trkpt>
      <trkpt lat="45.9988" lon="6.91469">
        <ele>2269</ele>
        <time>2022-08-28T07:22:17Z</time>
      </trkpt>
      <trkpt lat="45.9988" lon="6.91469">
        <ele>2269</ele>
        <time>2022-08-28T07:22:18Z</time>
      </trkpt>
      <trkpt lat="45.9988" lon="6.91468">
        <ele>2269</ele>
        <time>2022-08-28T07:22:19Z</time>
      </trkpt>
      <trkpt lat="45.9988" lon="6.91468">
        <ele>2271</ele>
        <time>2022-08-28T07:22:21Z</time>
      </trkpt>
      <trkpt lat="45.9988" lon="6.91468">
        <ele>2271</ele>
        <time>2022-08-28T07:22:22Z</time>
      </trkpt>
      <trkpt lat="45.9988" lon="6.91467">
        <ele>2271</ele>
        <time>2022-08-28T07:22:23Z</time>
      </trkpt>
      <trkpt lat="45.9988" lon="6.91467">
        <ele>2271</ele>
        <time>2022-08-28T07:22:24Z</time>
      </trkpt>
      <trkpt lat="45.9988" lon="6.91466">
        <ele>2272</ele>
        <time>2022-08-28T07:22:26Z</time>
      </trkpt>
      <trkpt lat="45.9988" lon="6.91466">
        <ele>2272</ele>
        <time>2022-08-28T07:22:27Z</time>
      </trkpt>
      <trkpt lat="45.9988" lon="6.91465">
        <ele>2272</ele>
        <time>2022-08-28T07:22:28Z</time>
      </trkpt>
      <trkpt lat="45.9988" lon="6.91465">
        <ele>2272</ele>
        <time>2022-08-28T07:22:29Z</time>
      </trkpt>
      <trkpt lat="45.9988" lon="6.91465">
        <ele>2272</ele>
        <time>2022-08-28T07:22:31Z</time>
      </trkpt>
      <trkpt lat="45.99879" lon="6.91464">
        <ele>2274</ele>
        <time>2022-08-28T07:22:33Z</time>
      </trkpt>
      <trkpt lat="45.99879" lon="6.91464">
        <ele>2274</ele>
        <time>2022-08-28T07:22:34Z</time>
      </trkpt>
      <trkpt lat="45.99879" lon="6.91463">
        <ele>2274</ele>
        <time>2022-08-28T07:22:35Z</time>
      </trkpt>
      <trkpt lat="45.99879" lon="6.91463">
        <ele>2274</ele>
        <time>2022-08-28T07:22:36Z</time>
      </trkpt>
      <trkpt lat="45.99879" lon="6.91463">
        <ele>2274</ele>
        <time>2022-08-28T07:22:37Z</time>
      </trkpt>
      <trkpt lat="45.99879" lon="6.91462">
        <ele>2274</ele>
        <time>2022-08-28T07:22:38Z</time>
      </trkpt>
      <trkpt lat="45.99879" lon="6.91462">
        <ele>2274</ele>
        <time>2022-08-28T07:22:39Z</time>
      </trkpt>
      <trkpt lat="45.99879" lon="6.91461">
        <ele>2274</ele>
        <time>2022-08-28T07:22:40Z</time>
      </trkpt>
      <trkpt lat="45.99879" lon="6.91461">
        <ele>2274</ele>
        <time>2022-08-28T07:22:41Z</time>
      </trkpt>
      <trkpt lat="45.99879" lon="6.9146">
        <ele>2275</ele>
        <time>2022-08-28T07:22:43Z</time>
      </trkpt>
      <trkpt lat="45.99879" lon="6.9146">
        <ele>2276</ele>
        <time>2022-08-28T07:22:45Z</time>
      </trkpt>
      <trkpt lat="45.99879" lon="6.9146">
        <ele>2276</ele>
        <time>2022-08-28T07:22:46Z</time>
      </trkpt>
      <trkpt lat="45.99879" lon="6.91459">
        <ele>2276</ele>
        <time>2022-08-28T07:22:47Z</time>
      </trkpt>
      <trkpt lat="45.99878" lon="6.91459">
        <ele>2276</ele>
        <time>2022-08-28T07:22:48Z</time>
      </trkpt>
      <trkpt lat="45.99878" lon="6.91458">
        <ele>2276</ele>
        <time>2022-08-28T07:22:50Z</time>
      </trkpt>
      <trkpt lat="45.99878" lon="6.91458">
        <ele>2276</ele>
        <time>2022-08-28T07:22:51Z</time>
      </trkpt>
      <trkpt lat="45.99878" lon="6.91458">
        <ele>2276</ele>
        <time>2022-08-28T07:22:52Z</time>
      </trkpt>
      <trkpt lat="45.99869" lon="6.91456">
        <ele>2278</ele>
        <time>2022-08-28T07:23:11Z</time>
      </trkpt>
      <trkpt lat="45.99869" lon="6.91456">
        <ele>2278</ele>
        <time>2022-08-28T07:23:12Z</time>
      </trkpt>
      <trkpt lat="45.99868" lon="6.91456">
        <ele>2279</ele>
        <time>2022-08-28T07:23:13Z</time>
      </trkpt>
      <trkpt lat="45.99868" lon="6.91455">
        <ele>2279</ele>
        <time>2022-08-28T07:23:14Z</time>
      </trkpt>
      <trkpt lat="45.99867" lon="6.91455">
        <ele>2279</ele>
        <time>2022-08-28T07:23:16Z</time>
      </trkpt>
      <trkpt lat="45.99866" lon="6.91455">
        <ele>2279</ele>
        <time>2022-08-28T07:23:17Z</time>
      </trkpt>
      <trkpt lat="45.99866" lon="6.91455">
        <ele>2279</ele>
        <time>2022-08-28T07:23:18Z</time>
      </trkpt>
      <trkpt lat="45.99865" lon="6.91455">
        <ele>2279</ele>
        <time>2022-08-28T07:23:19Z</time>
      </trkpt>
      <trkpt lat="45.99865" lon="6.91455">
        <ele>2280</ele>
        <time>2022-08-28T07:23:21Z</time>
      </trkpt>
      <trkpt lat="45.99864" lon="6.91454">
        <ele>2280</ele>
        <time>2022-08-28T07:23:22Z</time>
      </trkpt>
      <trkpt lat="45.99864" lon="6.91454">
        <ele>2280</ele>
        <time>2022-08-28T07:23:23Z</time>
      </trkpt>
      <trkpt lat="45.99863" lon="6.91454">
        <ele>2280</ele>
        <time>2022-08-28T07:23:24Z</time>
      </trkpt>
      <trkpt lat="45.99862" lon="6.91454">
        <ele>2280</ele>
        <time>2022-08-28T07:23:26Z</time>
      </trkpt>
      <trkpt lat="45.99862" lon="6.91454">
        <ele>2280</ele>
        <time>2022-08-28T07:23:28Z</time>
      </trkpt>
      <trkpt lat="45.99861" lon="6.91453">
        <ele>2281</ele>
        <time>2022-08-28T07:23:29Z</time>
      </trkpt>
      <trkpt lat="45.99861" lon="6.91453">
        <ele>2281</ele>
        <time>2022-08-28T07:23:30Z</time>
      </trkpt>
      <trkpt lat="45.9986" lon="6.91453">
        <ele>2281</ele>
        <time>2022-08-28T07:23:31Z</time>
      </trkpt>
      <trkpt lat="45.99852" lon="6.91458">
        <ele>2283</ele>
        <time>2022-08-28T07:23:43Z</time>
      </trkpt>
      <trkpt lat="45.9985" lon="6.91459">
        <ele>2283</ele>
        <time>2022-08-28T07:23:45Z</time>
      </trkpt>
      <trkpt lat="45.99849" lon="6.91459">
        <ele>2283</ele>
        <time>2022-08-28T07:23:47Z</time>
      </trkpt>
      <trkpt lat="45.99848" lon="6.91459">
        <ele>2283</ele>
        <time>2022-08-28T07:23:49Z</time>
      </trkpt>
      <trkpt lat="45.99847" lon="6.91459">
        <ele>2283</ele>
        <time>2022-08-28T07:23:51Z</time>
      </trkpt>
      <trkpt lat="45.99846" lon="6.91459">
        <ele>2283</ele>
        <time>2022-08-28T07:23:52Z</time>
      </trkpt>
      <trkpt lat="45.99845" lon="6.91459">
        <ele>2283</ele>
        <time>2022-08-28T07:23:53Z</time>
      </trkpt>
      <trkpt lat="45.99844" lon="6.91459">
        <ele>2283</ele>
        <time>2022-08-28T07:23:54Z</time>
      </trkpt>
      <trkpt lat="45.99843" lon="6.91459">
        <ele>2284</ele>
        <time>2022-08-28T07:23:56Z</time>
      </trkpt>
      <trkpt lat="45.99843" lon="6.91459">
        <ele>2284</ele>
        <time>2022-08-28T07:23:57Z</time>
      </trkpt>
      <trkpt lat="45.99842" lon="6.91459">
        <ele>2284</ele>
        <time>2022-08-28T07:23:58Z</time>
      </trkpt>
      <trkpt lat="45.99841" lon="6.91459">
        <ele>2284</ele>
        <time>2022-08-28T07:23:59Z</time>
      </trkpt>
      <trkpt lat="45.9984" lon="6.91459">
        <ele>2285</ele>
        <time>2022-08-28T07:24:01Z</time>
      </trkpt>
      <trkpt lat="45.99839" lon="6.91459">
        <ele>2285</ele>
        <time>2022-08-28T07:24:02Z</time>
      </trkpt>
      <trkpt lat="45.99838" lon="6.91459">
        <ele>2285</ele>
        <time>2022-08-28T07:24:03Z</time>
      </trkpt>
      <trkpt lat="45.99836" lon="6.91457">
        <ele>2286</ele>
        <time>2022-08-28T07:24:08Z</time>
      </trkpt>
      <trkpt lat="45.99835" lon="6.91456">
        <ele>2286</ele>
        <time>2022-08-28T07:24:12Z</time>
      </trkpt>
      <trkpt lat="45.99833" lon="6.91454">
        <ele>2287</ele>
        <time>2022-08-28T07:24:16Z</time>
      </trkpt>
      <trkpt lat="45.99831" lon="6.91455">
        <ele>2288</ele>
        <time>2022-08-28T07:24:19Z</time>
      </trkpt>
      <trkpt lat="45.99828" lon="6.91455">
        <ele>2288</ele>
        <time>2022-08-28T07:24:22Z</time>
      </trkpt>
      <trkpt lat="45.99826" lon="6.91455">
        <ele>2288</ele>
        <time>2022-08-28T07:24:25Z</time>
      </trkpt>
      <trkpt lat="45.99824" lon="6.91453">
        <ele>2289</ele>
        <time>2022-08-28T07:24:30Z</time>
      </trkpt>
      <trkpt lat="45.99824" lon="6.9145">
        <ele>2290</ele>
        <time>2022-08-28T07:24:35Z</time>
      </trkpt>
      <trkpt lat="45.99822" lon="6.91448">
        <ele>2291</ele>
        <time>2022-08-28T07:24:44Z</time>
      </trkpt>
      <trkpt lat="45.9982" lon="6.91446">
        <ele>2292</ele>
        <time>2022-08-28T07:24:49Z</time>
      </trkpt>
      <trkpt lat="45.9982" lon="6.91444">
        <ele>2292</ele>
        <time>2022-08-28T07:24:52Z</time>
      </trkpt>
      <trkpt lat="45.99821" lon="6.91441">
        <ele>2292</ele>
        <time>2022-08-28T07:24:57Z</time>
      </trkpt>
      <trkpt lat="45.99822" lon="6.91439">
        <ele>2293</ele>
        <time>2022-08-28T07:25:01Z</time>
      </trkpt>
      <trkpt lat="45.99823" lon="6.91437">
        <ele>2294</ele>
        <time>2022-08-28T07:25:07Z</time>
      </trkpt>
      <trkpt lat="45.99822" lon="6.91434">
        <ele>2295</ele>
        <time>2022-08-28T07:25:11Z</time>
      </trkpt>
      <trkpt lat="45.99823" lon="6.91431">
        <ele>2295</ele>
        <time>2022-08-28T07:25:14Z</time>
      </trkpt>
      <trkpt lat="45.99822" lon="6.91429">
        <ele>2297</ele>
        <time>2022-08-28T07:25:20Z</time>
      </trkpt>
      <trkpt lat="45.9982" lon="6.91428">
        <ele>2297</ele>
        <time>2022-08-28T07:25:26Z</time>
      </trkpt>
      <trkpt lat="45.99819" lon="6.91431">
        <ele>2298</ele>
        <time>2022-08-28T07:25:30Z</time>
      </trkpt>
      <trkpt lat="45.99817" lon="6.91431">
        <ele>2298</ele>
        <time>2022-08-28T07:25:34Z</time>
      </trkpt>
      <trkpt lat="45.99816" lon="6.91428">
        <ele>2300</ele>
        <time>2022-08-28T07:25:40Z</time>
      </trkpt>
      <trkpt lat="45.99814" lon="6.91428">
        <ele>2302</ele>
        <time>2022-08-28T07:25:50Z</time>
      </trkpt>
      <trkpt lat="45.99814" lon="6.91428">
        <ele>2302</ele>
        <time>2022-08-28T07:25:55Z</time>
      </trkpt>
      <trkpt lat="45.99814" lon="6.91425">
        <ele>2303</ele>
        <time>2022-08-28T07:25:59Z</time>
      </trkpt>
      <trkpt lat="45.99813" lon="6.91423">
        <ele>2303</ele>
        <time>2022-08-28T07:26:06Z</time>
      </trkpt>
      <trkpt lat="45.99811" lon="6.91422">
        <ele>2305</ele>
        <time>2022-08-28T07:26:11Z</time>
      </trkpt>
      <trkpt lat="45.9981" lon="6.91419">
        <ele>2306</ele>
        <time>2022-08-28T07:26:17Z</time>
      </trkpt>
      <trkpt lat="45.99809" lon="6.91416">
        <ele>2306</ele>
        <time>2022-08-28T07:26:22Z</time>
      </trkpt>
      <trkpt lat="45.99807" lon="6.91415">
        <ele>2307</ele>
        <time>2022-08-28T07:26:26Z</time>
      </trkpt>
      <trkpt lat="45.99807" lon="6.91412">
        <ele>2308</ele>
        <time>2022-08-28T07:26:31Z</time>
      </trkpt>
      <trkpt lat="45.99807" lon="6.91409">
        <ele>2309</ele>
        <time>2022-08-28T07:26:36Z</time>
      </trkpt>
      <trkpt lat="45.99807" lon="6.91407">
        <ele>2309</ele>
        <time>2022-08-28T07:26:40Z</time>
      </trkpt>
      <trkpt lat="45.99805" lon="6.91405">
        <ele>2310</ele>
        <time>2022-08-28T07:26:48Z</time>
      </trkpt>
      <trkpt lat="45.99803" lon="6.91403">
        <ele>2311</ele>
        <time>2022-08-28T07:26:52Z</time>
      </trkpt>
      <trkpt lat="45.99805" lon="6.91402">
        <ele>2311</ele>
        <time>2022-08-28T07:26:56Z</time>
      </trkpt>
      <trkpt lat="45.99806" lon="6.914">
        <ele>2313</ele>
        <time>2022-08-28T07:27:01Z</time>
      </trkpt>
      <trkpt lat="45.99808" lon="6.91397">
        <ele>2313</ele>
        <time>2022-08-28T07:27:05Z</time>
      </trkpt>
      <trkpt lat="45.99807" lon="6.91394">
        <ele>2313</ele>
        <time>2022-08-28T07:27:10Z</time>
      </trkpt>
      <trkpt lat="45.99806" lon="6.91392">
        <ele>2314</ele>
        <time>2022-08-28T07:27:15Z</time>
      </trkpt>
      <trkpt lat="45.99804" lon="6.91391">
        <ele>2315</ele>
        <time>2022-08-28T07:27:18Z</time>
      </trkpt>
      <trkpt lat="45.99802" lon="6.91389">
        <ele>2315</ele>
        <time>2022-08-28T07:27:22Z</time>
      </trkpt>
      <trkpt lat="45.998" lon="6.91389">
        <ele>2316</ele>
        <time>2022-08-28T07:27:26Z</time>
      </trkpt>
      <trkpt lat="45.99798" lon="6.91388">
        <ele>2317</ele>
        <time>2022-08-28T07:27:30Z</time>
      </trkpt>
      <trkpt lat="45.99796" lon="6.91388">
        <ele>2317</ele>
        <time>2022-08-28T07:27:33Z</time>
      </trkpt>
      <trkpt lat="45.99794" lon="6.91387">
        <ele>2316</ele>
        <time>2022-08-28T07:27:37Z</time>
      </trkpt>
      <trkpt lat="45.99792" lon="6.91386">
        <ele>2317</ele>
        <time>2022-08-28T07:27:41Z</time>
      </trkpt>
      <trkpt lat="45.9979" lon="6.91386">
        <ele>2318</ele>
        <time>2022-08-28T07:27:44Z</time>
      </trkpt>
      <trkpt lat="45.99787" lon="6.91386">
        <ele>2318</ele>
        <time>2022-08-28T07:27:47Z</time>
      </trkpt>
      <trkpt lat="45.99785" lon="6.91387">
        <ele>2319</ele>
        <time>2022-08-28T07:27:51Z</time>
      </trkpt>
      <trkpt lat="45.99783" lon="6.91385">
        <ele>2319</ele>
        <time>2022-08-28T07:27:56Z</time>
      </trkpt>
      <trkpt lat="45.99781" lon="6.91384">
        <ele>2319</ele>
        <time>2022-08-28T07:28:01Z</time>
      </trkpt>
      <trkpt lat="45.99779" lon="6.91386">
        <ele>2320</ele>
        <time>2022-08-28T07:28:04Z</time>
      </trkpt>
      <trkpt lat="45.99777" lon="6.91387">
        <ele>2320</ele>
        <time>2022-08-28T07:28:06Z</time>
      </trkpt>
      <trkpt lat="45.99775" lon="6.91386">
        <ele>2321</ele>
        <time>2022-08-28T07:28:09Z</time>
      </trkpt>
      <trkpt lat="45.99773" lon="6.91384">
        <ele>2321</ele>
        <time>2022-08-28T07:28:12Z</time>
      </trkpt>
      <trkpt lat="45.99772" lon="6.91382">
        <ele>2322</ele>
        <time>2022-08-28T07:28:17Z</time>
      </trkpt>
      <trkpt lat="45.99771" lon="6.91379">
        <ele>2323</ele>
        <time>2022-08-28T07:28:22Z</time>
      </trkpt>
      <trkpt lat="45.99769" lon="6.91379">
        <ele>2323</ele>
        <time>2022-08-28T07:28:25Z</time>
      </trkpt>
      <trkpt lat="45.99767" lon="6.91378">
        <ele>2324</ele>
        <time>2022-08-28T07:28:27Z</time>
      </trkpt>
      <trkpt lat="45.99765" lon="6.91376">
        <ele>2324</ele>
        <time>2022-08-28T07:28:31Z</time>
      </trkpt>
      <trkpt lat="45.99763" lon="6.91375">
        <ele>2326</ele>
        <time>2022-08-28T07:28:35Z</time>
      </trkpt>
      <trkpt lat="45.99761" lon="6.91377">
        <ele>2327</ele>
        <time>2022-08-28T07:28:39Z</time>
      </trkpt>
      <trkpt lat="45.9976" lon="6.91379">
        <ele>2327</ele>
        <time>2022-08-28T07:28:43Z</time>
      </trkpt>
      <trkpt lat="45.99758" lon="6.91381">
        <ele>2328</ele>
        <time>2022-08-28T07:28:47Z</time>
      </trkpt>
      <trkpt lat="45.99757" lon="6.91383">
        <ele>2329</ele>
        <time>2022-08-28T07:28:53Z</time>
      </trkpt>
      <trkpt lat="45.99755" lon="6.91385">
        <ele>2329</ele>
        <time>2022-08-28T07:28:56Z</time>
      </trkpt>
      <trkpt lat="45.99753" lon="6.91386">
        <ele>2329</ele>
        <time>2022-08-28T07:28:59Z</time>
      </trkpt>
      <trkpt lat="45.99751" lon="6.91387">
        <ele>2330</ele>
        <time>2022-08-28T07:29:01Z</time>
      </trkpt>
      <trkpt lat="45.99749" lon="6.91387">
        <ele>2330</ele>
        <time>2022-08-28T07:29:04Z</time>
      </trkpt>
      <trkpt lat="45.99747" lon="6.91385">
        <ele>2330</ele>
        <time>2022-08-28T07:29:06Z</time>
      </trkpt>
      <trkpt lat="45.99746" lon="6.91383">
        <ele>2330</ele>
        <time>2022-08-28T07:29:08Z</time>
      </trkpt>
      <trkpt lat="45.99745" lon="6.9138">
        <ele>2330</ele>
        <time>2022-08-28T07:29:10Z</time>
      </trkpt>
      <trkpt lat="45.99743" lon="6.91379">
        <ele>2330</ele>
        <time>2022-08-28T07:29:14Z</time>
      </trkpt>
      <trkpt lat="45.99741" lon="6.91379">
        <ele>2331</ele>
        <time>2022-08-28T07:29:17Z</time>
      </trkpt>
      <trkpt lat="45.99739" lon="6.9138">
        <ele>2332</ele>
        <time>2022-08-28T07:29:20Z</time>
      </trkpt>
      <trkpt lat="45.99737" lon="6.9138">
        <ele>2332</ele>
        <time>2022-08-28T07:29:23Z</time>
      </trkpt>
      <trkpt lat="45.99735" lon="6.91378">
        <ele>2332</ele>
        <time>2022-08-28T07:29:26Z</time>
      </trkpt>
      <trkpt lat="45.99734" lon="6.91375">
        <ele>2332</ele>
        <time>2022-08-28T07:29:29Z</time>
      </trkpt>
      <trkpt lat="45.99732" lon="6.91374">
        <ele>2333</ele>
        <time>2022-08-28T07:29:34Z</time>
      </trkpt>
      <trkpt lat="45.9973" lon="6.91372">
        <ele>2334</ele>
        <time>2022-08-28T07:29:37Z</time>
      </trkpt>
      <trkpt lat="45.99728" lon="6.9137">
        <ele>2334</ele>
        <time>2022-08-28T07:29:39Z</time>
      </trkpt>
      <trkpt lat="45.99727" lon="6.91368">
        <ele>2334</ele>
        <time>2022-08-28T07:29:41Z</time>
      </trkpt>
      <trkpt lat="45.99726" lon="6.91366">
        <ele>2334</ele>
        <time>2022-08-28T07:29:45Z</time>
      </trkpt>
      <trkpt lat="45.99724" lon="6.91366">
        <ele>2335</ele>
        <time>2022-08-28T07:29:50Z</time>
      </trkpt>
      <trkpt lat="45.99722" lon="6.91365">
        <ele>2335</ele>
        <time>2022-08-28T07:29:52Z</time>
      </trkpt>
      <trkpt lat="45.99721" lon="6.91362">
        <ele>2336</ele>
        <time>2022-08-28T07:29:55Z</time>
      </trkpt>
      <trkpt lat="45.9972" lon="6.9136">
        <ele>2336</ele>
        <time>2022-08-28T07:29:58Z</time>
      </trkpt>
      <trkpt lat="45.99719" lon="6.91358">
        <ele>2337</ele>
        <time>2022-08-28T07:30:02Z</time>
      </trkpt>
      <trkpt lat="45.99718" lon="6.91355">
        <ele>2337</ele>
        <time>2022-08-28T07:30:05Z</time>
      </trkpt>
      <trkpt lat="45.99718" lon="6.91352">
        <ele>2338</ele>
        <time>2022-08-28T07:30:09Z</time>
      </trkpt>
      <trkpt lat="45.99716" lon="6.91351">
        <ele>2338</ele>
        <time>2022-08-28T07:30:13Z</time>
      </trkpt>
      <trkpt lat="45.99714" lon="6.91351">
        <ele>2338</ele>
        <time>2022-08-28T07:30:16Z</time>
      </trkpt>
      <trkpt lat="45.99712" lon="6.9135">
        <ele>2338</ele>
        <time>2022-08-28T07:30:19Z</time>
      </trkpt>
      <trkpt lat="45.99711" lon="6.91349">
        <ele>2339</ele>
        <time>2022-08-28T07:30:22Z</time>
      </trkpt>
      <trkpt lat="45.99709" lon="6.91347">
        <ele>2339</ele>
        <time>2022-08-28T07:30:26Z</time>
      </trkpt>
      <trkpt lat="45.99708" lon="6.91345">
        <ele>2340</ele>
        <time>2022-08-28T07:30:32Z</time>
      </trkpt>
      <trkpt lat="45.99707" lon="6.91343">
        <ele>2341</ele>
        <time>2022-08-28T07:30:36Z</time>
      </trkpt>
      <trkpt lat="45.99706" lon="6.9134">
        <ele>2342</ele>
        <time>2022-08-28T07:30:41Z</time>
      </trkpt>
      <trkpt lat="45.99704" lon="6.91339">
        <ele>2342</ele>
        <time>2022-08-28T07:30:47Z</time>
      </trkpt>
      <trkpt lat="45.99702" lon="6.91338">
        <ele>2343</ele>
        <time>2022-08-28T07:30:50Z</time>
      </trkpt>
      <trkpt lat="45.99701" lon="6.91337">
        <ele>2344</ele>
        <time>2022-08-28T07:30:53Z</time>
      </trkpt>
      <trkpt lat="45.99699" lon="6.91334">
        <ele>2344</ele>
        <time>2022-08-28T07:30:57Z</time>
      </trkpt>
      <trkpt lat="45.99698" lon="6.91333">
        <ele>2345</ele>
        <time>2022-08-28T07:31:04Z</time>
      </trkpt>
      <trkpt lat="45.99696" lon="6.91333">
        <ele>2346</ele>
        <time>2022-08-28T07:31:07Z</time>
      </trkpt>
      <trkpt lat="45.99694" lon="6.91332">
        <ele>2346</ele>
        <time>2022-08-28T07:31:10Z</time>
      </trkpt>
      <trkpt lat="45.99693" lon="6.9133">
        <ele>2346</ele>
        <time>2022-08-28T07:31:13Z</time>
      </trkpt>
      <trkpt lat="45.99692" lon="6.91328">
        <ele>2347</ele>
        <time>2022-08-28T07:31:17Z</time>
      </trkpt>
      <trkpt lat="45.9969" lon="6.91326">
        <ele>2347</ele>
        <time>2022-08-28T07:31:21Z</time>
      </trkpt>
      <trkpt lat="45.99688" lon="6.91325">
        <ele>2348</ele>
        <time>2022-08-28T07:31:25Z</time>
      </trkpt>
      <trkpt lat="45.99687" lon="6.91322">
        <ele>2348</ele>
        <time>2022-08-28T07:31:29Z</time>
      </trkpt>
      <trkpt lat="45.99685" lon="6.91324">
        <ele>2350</ele>
        <time>2022-08-28T07:31:35Z</time>
      </trkpt>
      <trkpt lat="45.99683" lon="6.91323">
        <ele>2350</ele>
        <time>2022-08-28T07:31:40Z</time>
      </trkpt>
      <trkpt lat="45.99682" lon="6.91321">
        <ele>2352</ele>
        <time>2022-08-28T07:31:44Z</time>
      </trkpt>
      <trkpt lat="45.9968" lon="6.9132">
        <ele>2352</ele>
        <time>2022-08-28T07:31:48Z</time>
      </trkpt>
      <trkpt lat="45.99677" lon="6.91319">
        <ele>2354</ele>
        <time>2022-08-28T07:31:52Z</time>
      </trkpt>
      <trkpt lat="45.99675" lon="6.91319">
        <ele>2354</ele>
        <time>2022-08-28T07:31:57Z</time>
      </trkpt>
      <trkpt lat="45.99673" lon="6.91319">
        <ele>2355</ele>
        <time>2022-08-28T07:32:01Z</time>
      </trkpt>
      <trkpt lat="45.99671" lon="6.91318">
        <ele>2354</ele>
        <time>2022-08-28T07:32:04Z</time>
      </trkpt>
      <trkpt lat="45.99669" lon="6.91319">
        <ele>2355</ele>
        <time>2022-08-28T07:32:09Z</time>
      </trkpt>
      <trkpt lat="45.99667" lon="6.91321">
        <ele>2356</ele>
        <time>2022-08-28T07:32:12Z</time>
      </trkpt>
      <trkpt lat="45.99665" lon="6.91321">
        <ele>2356</ele>
        <time>2022-08-28T07:32:15Z</time>
      </trkpt>
      <trkpt lat="45.99663" lon="6.91322">
        <ele>2356</ele>
        <time>2022-08-28T07:32:20Z</time>
      </trkpt>
      <trkpt lat="45.99661" lon="6.91322">
        <ele>2356</ele>
        <time>2022-08-28T07:32:23Z</time>
      </trkpt>
      <trkpt lat="45.99659" lon="6.91321">
        <ele>2357</ele>
        <time>2022-08-28T07:32:26Z</time>
      </trkpt>
      <trkpt lat="45.99657" lon="6.91319">
        <ele>2357</ele>
        <time>2022-08-28T07:32:29Z</time>
      </trkpt>
      <trkpt lat="45.99654" lon="6.91319">
        <ele>2357</ele>
        <time>2022-08-28T07:32:32Z</time>
      </trkpt>
      <trkpt lat="45.99652" lon="6.91317">
        <ele>2357</ele>
        <time>2022-08-28T07:32:34Z</time>
      </trkpt>
      <trkpt lat="45.9965" lon="6.91317">
        <ele>2357</ele>
        <time>2022-08-28T07:32:36Z</time>
      </trkpt>
      <trkpt lat="45.99648" lon="6.91317">
        <ele>2357</ele>
        <time>2022-08-28T07:32:38Z</time>
      </trkpt>
      <trkpt lat="45.99646" lon="6.91317">
        <ele>2357</ele>
        <time>2022-08-28T07:32:40Z</time>
      </trkpt>
      <trkpt lat="45.99644" lon="6.91317">
        <ele>2357</ele>
        <time>2022-08-28T07:32:41Z</time>
      </trkpt>
      <trkpt lat="45.99642" lon="6.91316">
        <ele>2357</ele>
        <time>2022-08-28T07:32:44Z</time>
      </trkpt>
      <trkpt lat="45.99639" lon="6.91316">
        <ele>2357</ele>
        <time>2022-08-28T07:32:46Z</time>
      </trkpt>
      <trkpt lat="45.99637" lon="6.91316">
        <ele>2357</ele>
        <time>2022-08-28T07:32:48Z</time>
      </trkpt>
      <trkpt lat="45.99635" lon="6.91316">
        <ele>2356</ele>
        <time>2022-08-28T07:32:50Z</time>
      </trkpt>
      <trkpt lat="45.99632" lon="6.91316">
        <ele>2356</ele>
        <time>2022-08-28T07:32:52Z</time>
      </trkpt>
      <trkpt lat="45.9963" lon="6.91316">
        <ele>2356</ele>
        <time>2022-08-28T07:32:54Z</time>
      </trkpt>
      <trkpt lat="45.99628" lon="6.91315">
        <ele>2356</ele>
        <time>2022-08-28T07:32:56Z</time>
      </trkpt>
      <trkpt lat="45.99625" lon="6.91314">
        <ele>2356</ele>
        <time>2022-08-28T07:32:58Z</time>
      </trkpt>
      <trkpt lat="45.99623" lon="6.91313">
        <ele>2356</ele>
        <time>2022-08-28T07:33:00Z</time>
      </trkpt>
      <trkpt lat="45.99621" lon="6.91311">
        <ele>2356</ele>
        <time>2022-08-28T07:33:02Z</time>
      </trkpt>
      <trkpt lat="45.99619" lon="6.91308">
        <ele>2356</ele>
        <time>2022-08-28T07:33:04Z</time>
      </trkpt>
      <trkpt lat="45.99618" lon="6.91307">
        <ele>2356</ele>
        <time>2022-08-28T07:33:06Z</time>
      </trkpt>
      <trkpt lat="45.99616" lon="6.91305">
        <ele>2356</ele>
        <time>2022-08-28T07:33:08Z</time>
      </trkpt>
      <trkpt lat="45.99613" lon="6.91303">
        <ele>2356</ele>
        <time>2022-08-28T07:33:10Z</time>
      </trkpt>
      <trkpt lat="45.99612" lon="6.91302">
        <ele>2356</ele>
        <time>2022-08-28T07:33:12Z</time>
      </trkpt>
      <trkpt lat="45.9961" lon="6.913">
        <ele>2356</ele>
        <time>2022-08-28T07:33:14Z</time>
      </trkpt>
      <trkpt lat="45.99608" lon="6.91298">
        <ele>2356</ele>
        <time>2022-08-28T07:33:16Z</time>
      </trkpt>
      <trkpt lat="45.99606" lon="6.91297">
        <ele>2357</ele>
        <time>2022-08-28T07:33:18Z</time>
      </trkpt>
      <trkpt lat="45.99604" lon="6.91296">
        <ele>2357</ele>
        <time>2022-08-28T07:33:20Z</time>
      </trkpt>
      <trkpt lat="45.99602" lon="6.91295">
        <ele>2357</ele>
        <time>2022-08-28T07:33:22Z</time>
      </trkpt>
      <trkpt lat="45.99601" lon="6.91294">
        <ele>2357</ele>
        <time>2022-08-28T07:33:24Z</time>
      </trkpt>
      <trkpt lat="45.99598" lon="6.91293">
        <ele>2357</ele>
        <time>2022-08-28T07:33:27Z</time>
      </trkpt>
      <trkpt lat="45.99596" lon="6.91292">
        <ele>2357</ele>
        <time>2022-08-28T07:33:29Z</time>
      </trkpt>
      <trkpt lat="45.99595" lon="6.91292">
        <ele>2357</ele>
        <time>2022-08-28T07:33:31Z</time>
      </trkpt>
      <trkpt lat="45.99593" lon="6.9129">
        <ele>2357</ele>
        <time>2022-08-28T07:33:33Z</time>
      </trkpt>
      <trkpt lat="45.99591" lon="6.91288">
        <ele>2357</ele>
        <time>2022-08-28T07:33:35Z</time>
      </trkpt>
      <trkpt lat="45.99589" lon="6.91286">
        <ele>2357</ele>
        <time>2022-08-28T07:33:37Z</time>
      </trkpt>
      <trkpt lat="45.99587" lon="6.91284">
        <ele>2358</ele>
        <time>2022-08-28T07:33:39Z</time>
      </trkpt>
      <trkpt lat="45.99586" lon="6.91282">
        <ele>2358</ele>
        <time>2022-08-28T07:33:41Z</time>
      </trkpt>
      <trkpt lat="45.99584" lon="6.91281">
        <ele>2358</ele>
        <time>2022-08-28T07:33:43Z</time>
      </trkpt>
      <trkpt lat="45.99582" lon="6.9128">
        <ele>2358</ele>
        <time>2022-08-28T07:33:45Z</time>
      </trkpt>
      <trkpt lat="45.9958" lon="6.91279">
        <ele>2358</ele>
        <time>2022-08-28T07:33:47Z</time>
      </trkpt>
      <trkpt lat="45.99578" lon="6.91278">
        <ele>2358</ele>
        <time>2022-08-28T07:33:49Z</time>
      </trkpt>
      <trkpt lat="45.99576" lon="6.91277">
        <ele>2359</ele>
        <time>2022-08-28T07:33:51Z</time>
      </trkpt>
      <trkpt lat="45.99574" lon="6.91276">
        <ele>2360</ele>
        <time>2022-08-28T07:33:54Z</time>
      </trkpt>
      <trkpt lat="45.99572" lon="6.91276">
        <ele>2360</ele>
        <time>2022-08-28T07:33:57Z</time>
      </trkpt>
      <trkpt lat="45.9957" lon="6.91276">
        <ele>2360</ele>
        <time>2022-08-28T07:34:00Z</time>
      </trkpt>
      <trkpt lat="45.99568" lon="6.91276">
        <ele>2360</ele>
        <time>2022-08-28T07:34:02Z</time>
      </trkpt>
      <trkpt lat="45.99566" lon="6.91275">
        <ele>2360</ele>
        <time>2022-08-28T07:34:04Z</time>
      </trkpt>
      <trkpt lat="45.99563" lon="6.91274">
        <ele>2360</ele>
        <time>2022-08-28T07:34:07Z</time>
      </trkpt>
      <trkpt lat="45.99561" lon="6.91271">
        <ele>2361</ele>
        <time>2022-08-28T07:34:10Z</time>
      </trkpt>
      <trkpt lat="45.9956" lon="6.9127">
        <ele>2361</ele>
        <time>2022-08-28T07:34:12Z</time>
      </trkpt>
      <trkpt lat="45.99558" lon="6.91267">
        <ele>2361</ele>
        <time>2022-08-28T07:34:15Z</time>
      </trkpt>
      <trkpt lat="45.99557" lon="6.91265">
        <ele>2362</ele>
        <time>2022-08-28T07:34:18Z</time>
      </trkpt>
      <trkpt lat="45.99555" lon="6.91265">
        <ele>2363</ele>
        <time>2022-08-28T07:34:21Z</time>
      </trkpt>
      <trkpt lat="45.99553" lon="6.91264">
        <ele>2363</ele>
        <time>2022-08-28T07:34:24Z</time>
      </trkpt>
      <trkpt lat="45.99552" lon="6.91264">
        <ele>2363</ele>
        <time>2022-08-28T07:34:25Z</time>
      </trkpt>
      <trkpt lat="45.99552" lon="6.91264">
        <ele>2364</ele>
        <time>2022-08-28T07:34:26Z</time>
      </trkpt>
      <trkpt lat="45.99551" lon="6.91263">
        <ele>2364</ele>
        <time>2022-08-28T07:34:28Z</time>
      </trkpt>
      <trkpt lat="45.9955" lon="6.91263">
        <ele>2364</ele>
        <time>2022-08-28T07:34:29Z</time>
      </trkpt>
      <trkpt lat="45.9955" lon="6.91262">
        <ele>2364</ele>
        <time>2022-08-28T07:34:30Z</time>
      </trkpt>
      <trkpt lat="45.99549" lon="6.91262">
        <ele>2364</ele>
        <time>2022-08-28T07:34:31Z</time>
      </trkpt>
      <trkpt lat="45.99549" lon="6.91262">
        <ele>2364</ele>
        <time>2022-08-28T07:34:33Z</time>
      </trkpt>
      <trkpt lat="45.99548" lon="6.91261">
        <ele>2364</ele>
        <time>2022-08-28T07:34:35Z</time>
      </trkpt>
      <trkpt lat="45.99547" lon="6.91261">
        <ele>2364</ele>
        <time>2022-08-28T07:34:36Z</time>
      </trkpt>
      <trkpt lat="45.99547" lon="6.91261">
        <ele>2365</ele>
        <time>2022-08-28T07:34:37Z</time>
      </trkpt>
      <trkpt lat="45.99546" lon="6.9126">
        <ele>2365</ele>
        <time>2022-08-28T07:34:38Z</time>
      </trkpt>
      <trkpt lat="45.99546" lon="6.9126">
        <ele>2365</ele>
        <time>2022-08-28T07:34:39Z</time>
      </trkpt>
      <trkpt lat="45.99545" lon="6.9126">
        <ele>2365</ele>
        <time>2022-08-28T07:34:41Z</time>
      </trkpt>
      <trkpt lat="45.99544" lon="6.91259">
        <ele>2365</ele>
        <time>2022-08-28T07:34:42Z</time>
      </trkpt>
      <trkpt lat="45.99542" lon="6.91259">
        <ele>2366</ele>
        <time>2022-08-28T07:34:45Z</time>
      </trkpt>
      <trkpt lat="45.9954" lon="6.91258">
        <ele>2366</ele>
        <time>2022-08-28T07:34:47Z</time>
      </trkpt>
      <trkpt lat="45.99538" lon="6.91258">
        <ele>2366</ele>
        <time>2022-08-28T07:34:50Z</time>
      </trkpt>
      <trkpt lat="45.99535" lon="6.91256">
        <ele>2366</ele>
        <time>2022-08-28T07:34:53Z</time>
      </trkpt>
      <trkpt lat="45.99533" lon="6.91254">
        <ele>2367</ele>
        <time>2022-08-28T07:34:56Z</time>
      </trkpt>
      <trkpt lat="45.99531" lon="6.91253">
        <ele>2367</ele>
        <time>2022-08-28T07:34:59Z</time>
      </trkpt>
      <trkpt lat="45.99529" lon="6.91251">
        <ele>2367</ele>
        <time>2022-08-28T07:35:01Z</time>
      </trkpt>
      <trkpt lat="45.99528" lon="6.9125">
        <ele>2368</ele>
        <time>2022-08-28T07:35:03Z</time>
      </trkpt>
      <trkpt lat="45.99525" lon="6.91248">
        <ele>2368</ele>
        <time>2022-08-28T07:35:06Z</time>
      </trkpt>
      <trkpt lat="45.99523" lon="6.91248">
        <ele>2368</ele>
        <time>2022-08-28T07:35:09Z</time>
      </trkpt>
      <trkpt lat="45.99522" lon="6.91251">
        <ele>2369</ele>
        <time>2022-08-28T07:35:12Z</time>
      </trkpt>
      <trkpt lat="45.99521" lon="6.91254">
        <ele>2369</ele>
        <time>2022-08-28T07:35:15Z</time>
      </trkpt>
      <trkpt lat="45.99521" lon="6.91256">
        <ele>2370</ele>
        <time>2022-08-28T07:35:18Z</time>
      </trkpt>
      <trkpt lat="45.9952" lon="6.91259">
        <ele>2370</ele>
        <time>2022-08-28T07:35:22Z</time>
      </trkpt>
      <trkpt lat="45.99518" lon="6.9126">
        <ele>2371</ele>
        <time>2022-08-28T07:35:26Z</time>
      </trkpt>
      <trkpt lat="45.99515" lon="6.9126">
        <ele>2371</ele>
        <time>2022-08-28T07:35:29Z</time>
      </trkpt>
      <trkpt lat="45.99513" lon="6.91259">
        <ele>2372</ele>
        <time>2022-08-28T07:35:32Z</time>
      </trkpt>
      <trkpt lat="45.99512" lon="6.91258">
        <ele>2372</ele>
        <time>2022-08-28T07:35:35Z</time>
      </trkpt>
      <trkpt lat="45.99509" lon="6.91259">
        <ele>2372</ele>
        <time>2022-08-28T07:35:38Z</time>
      </trkpt>
      <trkpt lat="45.99507" lon="6.91259">
        <ele>2372</ele>
        <time>2022-08-28T07:35:40Z</time>
      </trkpt>
      <trkpt lat="45.99505" lon="6.91258">
        <ele>2372</ele>
        <time>2022-08-28T07:35:43Z</time>
      </trkpt>
      <trkpt lat="45.99505" lon="6.91257">
        <ele>2373</ele>
        <time>2022-08-28T07:35:45Z</time>
      </trkpt>
      <trkpt lat="45.99504" lon="6.91256">
        <ele>2373</ele>
        <time>2022-08-28T07:35:46Z</time>
      </trkpt>
      <trkpt lat="45.99503" lon="6.91254">
        <ele>2373</ele>
        <time>2022-08-28T07:35:47Z</time>
      </trkpt>
      <trkpt lat="45.99503" lon="6.91253">
        <ele>2374</ele>
        <time>2022-08-28T07:35:49Z</time>
      </trkpt>
      <trkpt lat="45.99502" lon="6.91252">
        <ele>2374</ele>
        <time>2022-08-28T07:35:51Z</time>
      </trkpt>
      <trkpt lat="45.99502" lon="6.9125">
        <ele>2374</ele>
        <time>2022-08-28T07:35:52Z</time>
      </trkpt>
      <trkpt lat="45.995" lon="6.91247">
        <ele>2375</ele>
        <time>2022-08-28T07:35:55Z</time>
      </trkpt>
      <trkpt lat="45.99499" lon="6.91245">
        <ele>2375</ele>
        <time>2022-08-28T07:35:58Z</time>
      </trkpt>
      <trkpt lat="45.99497" lon="6.91243">
        <ele>2376</ele>
        <time>2022-08-28T07:36:02Z</time>
      </trkpt>
      <trkpt lat="45.99496" lon="6.91245">
        <ele>2378</ele>
        <time>2022-08-28T07:36:10Z</time>
      </trkpt>
      <trkpt lat="45.99494" lon="6.91247">
        <ele>2378</ele>
        <time>2022-08-28T07:36:13Z</time>
      </trkpt>
      <trkpt lat="45.99492" lon="6.91247">
        <ele>2378</ele>
        <time>2022-08-28T07:36:18Z</time>
      </trkpt>
      <trkpt lat="45.9949" lon="6.91247">
        <ele>2378</ele>
        <time>2022-08-28T07:36:21Z</time>
      </trkpt>
      <trkpt lat="45.99488" lon="6.91245">
        <ele>2380</ele>
        <time>2022-08-28T07:36:24Z</time>
      </trkpt>
      <trkpt lat="45.99487" lon="6.91242">
        <ele>2380</ele>
        <time>2022-08-28T07:36:27Z</time>
      </trkpt>
      <trkpt lat="45.99486" lon="6.91239">
        <ele>2380</ele>
        <time>2022-08-28T07:36:30Z</time>
      </trkpt>
      <trkpt lat="45.99485" lon="6.91236">
        <ele>2380</ele>
        <time>2022-08-28T07:36:33Z</time>
      </trkpt>
      <trkpt lat="45.99484" lon="6.91234">
        <ele>2381</ele>
        <time>2022-08-28T07:36:36Z</time>
      </trkpt>
      <trkpt lat="45.99483" lon="6.91231">
        <ele>2381</ele>
        <time>2022-08-28T07:36:39Z</time>
      </trkpt>
      <trkpt lat="45.99482" lon="6.91229">
        <ele>2382</ele>
        <time>2022-08-28T07:36:42Z</time>
      </trkpt>
      <trkpt lat="45.99481" lon="6.91226">
        <ele>2383</ele>
        <time>2022-08-28T07:36:45Z</time>
      </trkpt>
      <trkpt lat="45.99481" lon="6.91223">
        <ele>2383</ele>
        <time>2022-08-28T07:36:48Z</time>
      </trkpt>
      <trkpt lat="45.9948" lon="6.91223">
        <ele>2383</ele>
        <time>2022-08-28T07:36:49Z</time>
      </trkpt>
      <trkpt lat="45.99479" lon="6.91223">
        <ele>2383</ele>
        <time>2022-08-28T07:36:50Z</time>
      </trkpt>
      <trkpt lat="45.99479" lon="6.91223">
        <ele>2383</ele>
        <time>2022-08-28T07:36:51Z</time>
      </trkpt>
      <trkpt lat="45.99478" lon="6.91223">
        <ele>2383</ele>
        <time>2022-08-28T07:36:52Z</time>
      </trkpt>
      <trkpt lat="45.99477" lon="6.91223">
        <ele>2383</ele>
        <time>2022-08-28T07:36:53Z</time>
      </trkpt>
      <trkpt lat="45.99477" lon="6.91223">
        <ele>2384</ele>
        <time>2022-08-28T07:36:55Z</time>
      </trkpt>
      <trkpt lat="45.99476" lon="6.91223">
        <ele>2384</ele>
        <time>2022-08-28T07:36:56Z</time>
      </trkpt>
      <trkpt lat="45.99476" lon="6.91223">
        <ele>2385</ele>
        <time>2022-08-28T07:36:57Z</time>
      </trkpt>
      <trkpt lat="45.99475" lon="6.91223">
        <ele>2385</ele>
        <time>2022-08-28T07:36:58Z</time>
      </trkpt>
      <trkpt lat="45.99474" lon="6.91223">
        <ele>2385</ele>
        <time>2022-08-28T07:37:00Z</time>
      </trkpt>
      <trkpt lat="45.99474" lon="6.91223">
        <ele>2386</ele>
        <time>2022-08-28T07:37:02Z</time>
      </trkpt>
      <trkpt lat="45.99473" lon="6.91223">
        <ele>2386</ele>
        <time>2022-08-28T07:37:03Z</time>
      </trkpt>
      <trkpt lat="45.99473" lon="6.91223">
        <ele>2386</ele>
        <time>2022-08-28T07:37:05Z</time>
      </trkpt>
      <trkpt lat="45.99472" lon="6.91222">
        <ele>2386</ele>
        <time>2022-08-28T07:37:06Z</time>
      </trkpt>
      <trkpt lat="45.99471" lon="6.91222">
        <ele>2386</ele>
        <time>2022-08-28T07:37:07Z</time>
      </trkpt>
      <trkpt lat="45.9947" lon="6.9122">
        <ele>2386</ele>
        <time>2022-08-28T07:37:09Z</time>
      </trkpt>
      <trkpt lat="45.99468" lon="6.91219">
        <ele>2387</ele>
        <time>2022-08-28T07:37:13Z</time>
      </trkpt>
      <trkpt lat="45.99466" lon="6.91218">
        <ele>2387</ele>
        <time>2022-08-28T07:37:17Z</time>
      </trkpt>
      <trkpt lat="45.99464" lon="6.91217">
        <ele>2389</ele>
        <time>2022-08-28T07:37:20Z</time>
      </trkpt>
      <trkpt lat="45.99463" lon="6.91216">
        <ele>2389</ele>
        <time>2022-08-28T07:37:23Z</time>
      </trkpt>
      <trkpt lat="45.99461" lon="6.91215">
        <ele>2389</ele>
        <time>2022-08-28T07:37:26Z</time>
      </trkpt>
      <trkpt lat="45.99459" lon="6.91214">
        <ele>2389</ele>
        <time>2022-08-28T07:37:28Z</time>
      </trkpt>
      <trkpt lat="45.99458" lon="6.91212">
        <ele>2389</ele>
        <time>2022-08-28T07:37:30Z</time>
      </trkpt>
      <trkpt lat="45.99456" lon="6.91211">
        <ele>2389</ele>
        <time>2022-08-28T07:37:32Z</time>
      </trkpt>
      <trkpt lat="45.99454" lon="6.9121">
        <ele>2389</ele>
        <time>2022-08-28T07:37:34Z</time>
      </trkpt>
      <trkpt lat="45.99452" lon="6.91208">
        <ele>2389</ele>
        <time>2022-08-28T07:37:36Z</time>
      </trkpt>
      <trkpt lat="45.9945" lon="6.91206">
        <ele>2389</ele>
        <time>2022-08-28T07:37:39Z</time>
      </trkpt>
      <trkpt lat="45.99449" lon="6.91204">
        <ele>2389</ele>
        <time>2022-08-28T07:37:41Z</time>
      </trkpt>
      <trkpt lat="45.99447" lon="6.91203">
        <ele>2389</ele>
        <time>2022-08-28T07:37:43Z</time>
      </trkpt>
      <trkpt lat="45.99446" lon="6.91201">
        <ele>2389</ele>
        <time>2022-08-28T07:37:45Z</time>
      </trkpt>
      <trkpt lat="45.99444" lon="6.91199">
        <ele>2389</ele>
        <time>2022-08-28T07:37:47Z</time>
      </trkpt>
      <trkpt lat="45.99442" lon="6.91197">
        <ele>2389</ele>
        <time>2022-08-28T07:37:49Z</time>
      </trkpt>
      <trkpt lat="45.99441" lon="6.91195">
        <ele>2389</ele>
        <time>2022-08-28T07:37:51Z</time>
      </trkpt>
      <trkpt lat="45.99439" lon="6.91194">
        <ele>2390</ele>
        <time>2022-08-28T07:37:54Z</time>
      </trkpt>
      <trkpt lat="45.99438" lon="6.91191">
        <ele>2391</ele>
        <time>2022-08-28T07:37:57Z</time>
      </trkpt>
      <trkpt lat="45.99437" lon="6.91191">
        <ele>2391</ele>
        <time>2022-08-28T07:37:59Z</time>
      </trkpt>
      <trkpt lat="45.99437" lon="6.9119">
        <ele>2391</ele>
        <time>2022-08-28T07:38:00Z</time>
      </trkpt>
      <trkpt lat="45.99436" lon="6.9119">
        <ele>2391</ele>
        <time>2022-08-28T07:38:02Z</time>
      </trkpt>
      <trkpt lat="45.99436" lon="6.9119">
        <ele>2391</ele>
        <time>2022-08-28T07:38:04Z</time>
      </trkpt>
      <trkpt lat="45.99435" lon="6.91189">
        <ele>2391</ele>
        <time>2022-08-28T07:38:05Z</time>
      </trkpt>
      <trkpt lat="45.99434" lon="6.91189">
        <ele>2392</ele>
        <time>2022-08-28T07:38:06Z</time>
      </trkpt>
      <trkpt lat="45.99434" lon="6.91188">
        <ele>2392</ele>
        <time>2022-08-28T07:38:07Z</time>
      </trkpt>
      <trkpt lat="45.99433" lon="6.91188">
        <ele>2392</ele>
        <time>2022-08-28T07:38:09Z</time>
      </trkpt>
      <trkpt lat="45.99433" lon="6.91187">
        <ele>2392</ele>
        <time>2022-08-28T07:38:11Z</time>
      </trkpt>
      <trkpt lat="45.99432" lon="6.91187">
        <ele>2392</ele>
        <time>2022-08-28T07:38:12Z</time>
      </trkpt>
      <trkpt lat="45.99432" lon="6.91187">
        <ele>2392</ele>
        <time>2022-08-28T07:38:13Z</time>
      </trkpt>
      <trkpt lat="45.99431" lon="6.91186">
        <ele>2393</ele>
        <time>2022-08-28T07:38:14Z</time>
      </trkpt>
      <trkpt lat="45.99431" lon="6.91186">
        <ele>2393</ele>
        <time>2022-08-28T07:38:16Z</time>
      </trkpt>
      <trkpt lat="45.9943" lon="6.91185">
        <ele>2393</ele>
        <time>2022-08-28T07:38:17Z</time>
      </trkpt>
      <trkpt lat="45.99429" lon="6.91185">
        <ele>2394</ele>
        <time>2022-08-28T07:38:18Z</time>
      </trkpt>
      <trkpt lat="45.99428" lon="6.91182">
        <ele>2394</ele>
        <time>2022-08-28T07:38:21Z</time>
      </trkpt>
      <trkpt lat="45.99426" lon="6.9118">
        <ele>2394</ele>
        <time>2022-08-28T07:38:24Z</time>
      </trkpt>
      <trkpt lat="45.99425" lon="6.91179">
        <ele>2394</ele>
        <time>2022-08-28T07:38:26Z</time>
      </trkpt>
      <trkpt lat="45.99423" lon="6.91178">
        <ele>2395</ele>
        <time>2022-08-28T07:38:29Z</time>
      </trkpt>
      <trkpt lat="45.9942" lon="6.91177">
        <ele>2395</ele>
        <time>2022-08-28T07:38:33Z</time>
      </trkpt>
      <trkpt lat="45.99418" lon="6.91177">
        <ele>2395</ele>
        <time>2022-08-28T07:38:36Z</time>
      </trkpt>
      <trkpt lat="45.99416" lon="6.91175">
        <ele>2396</ele>
        <time>2022-08-28T07:38:39Z</time>
      </trkpt>
      <trkpt lat="45.99415" lon="6.91174">
        <ele>2396</ele>
        <time>2022-08-28T07:38:41Z</time>
      </trkpt>
      <trkpt lat="45.99414" lon="6.91174">
        <ele>2396</ele>
        <time>2022-08-28T07:38:42Z</time>
      </trkpt>
      <trkpt lat="45.99413" lon="6.91173">
        <ele>2397</ele>
        <time>2022-08-28T07:38:43Z</time>
      </trkpt>
      <trkpt lat="45.99413" lon="6.91172">
        <ele>2397</ele>
        <time>2022-08-28T07:38:44Z</time>
      </trkpt>
      <trkpt lat="45.99412" lon="6.91171">
        <ele>2397</ele>
        <time>2022-08-28T07:38:45Z</time>
      </trkpt>
      <trkpt lat="45.99411" lon="6.91171">
        <ele>2397</ele>
        <time>2022-08-28T07:38:47Z</time>
      </trkpt>
      <trkpt lat="45.9941" lon="6.91171">
        <ele>2397</ele>
        <time>2022-08-28T07:38:48Z</time>
      </trkpt>
      <trkpt lat="45.99409" lon="6.9117">
        <ele>2397</ele>
        <time>2022-08-28T07:38:50Z</time>
      </trkpt>
      <trkpt lat="45.99408" lon="6.9117">
        <ele>2397</ele>
        <time>2022-08-28T07:38:51Z</time>
      </trkpt>
      <trkpt lat="45.99407" lon="6.91169">
        <ele>2397</ele>
        <time>2022-08-28T07:38:52Z</time>
      </trkpt>
      <trkpt lat="45.99406" lon="6.91169">
        <ele>2397</ele>
        <time>2022-08-28T07:38:53Z</time>
      </trkpt>
      <trkpt lat="45.99406" lon="6.91169">
        <ele>2397</ele>
        <time>2022-08-28T07:38:55Z</time>
      </trkpt>
      <trkpt lat="45.99405" lon="6.91168">
        <ele>2397</ele>
        <time>2022-08-28T07:38:56Z</time>
      </trkpt>
      <trkpt lat="45.99404" lon="6.91168">
        <ele>2397</ele>
        <time>2022-08-28T07:38:57Z</time>
      </trkpt>
      <trkpt lat="45.99402" lon="6.91167">
        <ele>2397</ele>
        <time>2022-08-28T07:38:59Z</time>
      </trkpt>
      <trkpt lat="45.994" lon="6.91168">
        <ele>2397</ele>
        <time>2022-08-28T07:39:02Z</time>
      </trkpt>
      <trkpt lat="45.99398" lon="6.91168">
        <ele>2398</ele>
        <time>2022-08-28T07:39:06Z</time>
      </trkpt>
      <trkpt lat="45.99396" lon="6.9117">
        <ele>2399</ele>
        <time>2022-08-28T07:39:15Z</time>
      </trkpt>
      <trkpt lat="45.99394" lon="6.91171">
        <ele>2399</ele>
        <time>2022-08-28T07:39:18Z</time>
      </trkpt>
      <trkpt lat="45.99392" lon="6.91173">
        <ele>2400</ele>
        <time>2022-08-28T07:39:21Z</time>
      </trkpt>
      <trkpt lat="45.9939" lon="6.91175">
        <ele>2400</ele>
        <time>2022-08-28T07:39:26Z</time>
      </trkpt>
      <trkpt lat="45.99387" lon="6.91177">
        <ele>2400</ele>
        <time>2022-08-28T07:39:28Z</time>
      </trkpt>
      <trkpt lat="45.99385" lon="6.91177">
        <ele>2400</ele>
        <time>2022-08-28T07:39:30Z</time>
      </trkpt>
      <trkpt lat="45.99382" lon="6.91177">
        <ele>2399</ele>
        <time>2022-08-28T07:39:32Z</time>
      </trkpt>
      <trkpt lat="45.9938" lon="6.91177">
        <ele>2399</ele>
        <time>2022-08-28T07:39:34Z</time>
      </trkpt>
      <trkpt lat="45.99378" lon="6.91177">
        <ele>2399</ele>
        <time>2022-08-28T07:39:36Z</time>
      </trkpt>
      <trkpt lat="45.99375" lon="6.91178">
        <ele>2399</ele>
        <time>2022-08-28T07:39:38Z</time>
      </trkpt>
      <trkpt lat="45.99373" lon="6.91179">
        <ele>2399</ele>
        <time>2022-08-28T07:39:40Z</time>
      </trkpt>
      <trkpt lat="45.99371" lon="6.91179">
        <ele>2399</ele>
        <time>2022-08-28T07:39:42Z</time>
      </trkpt>
      <trkpt lat="45.9937" lon="6.91176">
        <ele>2400</ele>
        <time>2022-08-28T07:39:45Z</time>
      </trkpt>
      <trkpt lat="45.99369" lon="6.91175">
        <ele>2400</ele>
        <time>2022-08-28T07:39:48Z</time>
      </trkpt>
      <trkpt lat="45.99366" lon="6.91175">
        <ele>2400</ele>
        <time>2022-08-28T07:39:51Z</time>
      </trkpt>
      <trkpt lat="45.99364" lon="6.91176">
        <ele>2400</ele>
        <time>2022-08-28T07:39:53Z</time>
      </trkpt>
      <trkpt lat="45.99362" lon="6.91175">
        <ele>2399</ele>
        <time>2022-08-28T07:39:55Z</time>
      </trkpt>
      <trkpt lat="45.99359" lon="6.91174">
        <ele>2399</ele>
        <time>2022-08-28T07:39:57Z</time>
      </trkpt>
      <trkpt lat="45.99357" lon="6.91175">
        <ele>2400</ele>
        <time>2022-08-28T07:40:00Z</time>
      </trkpt>
      <trkpt lat="45.99354" lon="6.91175">
        <ele>2400</ele>
        <time>2022-08-28T07:40:03Z</time>
      </trkpt>
      <trkpt lat="45.99352" lon="6.91174">
        <ele>2400</ele>
        <time>2022-08-28T07:40:05Z</time>
      </trkpt>
      <trkpt lat="45.9935" lon="6.91174">
        <ele>2400</ele>
        <time>2022-08-28T07:40:07Z</time>
      </trkpt>
      <trkpt lat="45.99348" lon="6.91175">
        <ele>2400</ele>
        <time>2022-08-28T07:40:09Z</time>
      </trkpt>
      <trkpt lat="45.99346" lon="6.91176">
        <ele>2400</ele>
        <time>2022-08-28T07:40:11Z</time>
      </trkpt>
      <trkpt lat="45.99344" lon="6.91178">
        <ele>2399</ele>
        <time>2022-08-28T07:40:14Z</time>
      </trkpt>
      <trkpt lat="45.99343" lon="6.91175">
        <ele>2399</ele>
        <time>2022-08-28T07:40:17Z</time>
      </trkpt>
      <trkpt lat="45.99342" lon="6.91173">
        <ele>2400</ele>
        <time>2022-08-28T07:40:21Z</time>
      </trkpt>
      <trkpt lat="45.99341" lon="6.91171">
        <ele>2401</ele>
        <time>2022-08-28T07:40:24Z</time>
      </trkpt>
      <trkpt lat="45.99339" lon="6.9117">
        <ele>2402</ele>
        <time>2022-08-28T07:40:28Z</time>
      </trkpt>
      <trkpt lat="45.99336" lon="6.9117">
        <ele>2402</ele>
        <time>2022-08-28T07:40:31Z</time>
      </trkpt>
      <trkpt lat="45.99334" lon="6.91172">
        <ele>2402</ele>
        <time>2022-08-28T07:40:34Z</time>
      </trkpt>
      <trkpt lat="45.99332" lon="6.91172">
        <ele>2404</ele>
        <time>2022-08-28T07:40:37Z</time>
      </trkpt>
      <trkpt lat="45.9933" lon="6.91172">
        <ele>2404</ele>
        <time>2022-08-28T07:40:40Z</time>
      </trkpt>
      <trkpt lat="45.99328" lon="6.91172">
        <ele>2404</ele>
        <time>2022-08-28T07:40:42Z</time>
      </trkpt>
      <trkpt lat="45.99326" lon="6.91173">
        <ele>2404</ele>
        <time>2022-08-28T07:40:45Z</time>
      </trkpt>
      <trkpt lat="45.99324" lon="6.91174">
        <ele>2404</ele>
        <time>2022-08-28T07:40:47Z</time>
      </trkpt>
      <trkpt lat="45.99322" lon="6.91173">
        <ele>2404</ele>
        <time>2022-08-28T07:40:48Z</time>
      </trkpt>
      <trkpt lat="45.9932" lon="6.91173">
        <ele>2404</ele>
        <time>2022-08-28T07:40:51Z</time>
      </trkpt>
      <trkpt lat="45.99318" lon="6.91173">
        <ele>2404</ele>
        <time>2022-08-28T07:40:53Z</time>
      </trkpt>
      <trkpt lat="45.99316" lon="6.91173">
        <ele>2404</ele>
        <time>2022-08-28T07:40:55Z</time>
      </trkpt>
      <trkpt lat="45.99313" lon="6.91173">
        <ele>2404</ele>
        <time>2022-08-28T07:40:58Z</time>
      </trkpt>
      <trkpt lat="45.99311" lon="6.91173">
        <ele>2404</ele>
        <time>2022-08-28T07:41:01Z</time>
      </trkpt>
      <trkpt lat="45.99309" lon="6.91173">
        <ele>2404</ele>
        <time>2022-08-28T07:41:03Z</time>
      </trkpt>
      <trkpt lat="45.99307" lon="6.91173">
        <ele>2404</ele>
        <time>2022-08-28T07:41:06Z</time>
      </trkpt>
      <trkpt lat="45.99305" lon="6.91173">
        <ele>2404</ele>
        <time>2022-08-28T07:41:10Z</time>
      </trkpt>
      <trkpt lat="45.99302" lon="6.91172">
        <ele>2402</ele>
        <time>2022-08-28T07:41:14Z</time>
      </trkpt>
      <trkpt lat="45.993" lon="6.91171">
        <ele>2402</ele>
        <time>2022-08-28T07:41:16Z</time>
      </trkpt>
      <trkpt lat="45.99298" lon="6.91172">
        <ele>2402</ele>
        <time>2022-08-28T07:41:18Z</time>
      </trkpt>
      <trkpt lat="45.99297" lon="6.91174">
        <ele>2402</ele>
        <time>2022-08-28T07:41:21Z</time>
      </trkpt>
      <trkpt lat="45.99295" lon="6.91176">
        <ele>2402</ele>
        <time>2022-08-28T07:41:24Z</time>
      </trkpt>
      <trkpt lat="45.99293" lon="6.91177">
        <ele>2402</ele>
        <time>2022-08-28T07:41:27Z</time>
      </trkpt>
      <trkpt lat="45.99291" lon="6.91177">
        <ele>2402</ele>
        <time>2022-08-28T07:41:30Z</time>
      </trkpt>
      <trkpt lat="45.99288" lon="6.91177">
        <ele>2401</ele>
        <time>2022-08-28T07:41:34Z</time>
      </trkpt>
      <trkpt lat="45.99285" lon="6.91177">
        <ele>2400</ele>
        <time>2022-08-28T07:41:37Z</time>
      </trkpt>
      <trkpt lat="45.99283" lon="6.91177">
        <ele>2400</ele>
        <time>2022-08-28T07:41:39Z</time>
      </trkpt>
      <trkpt lat="45.99281" lon="6.91177">
        <ele>2399</ele>
        <time>2022-08-28T07:41:41Z</time>
      </trkpt>
      <trkpt lat="45.99279" lon="6.91177">
        <ele>2399</ele>
        <time>2022-08-28T07:41:43Z</time>
      </trkpt>
      <trkpt lat="45.99277" lon="6.91176">
        <ele>2399</ele>
        <time>2022-08-28T07:41:45Z</time>
      </trkpt>
      <trkpt lat="45.99275" lon="6.91175">
        <ele>2399</ele>
        <time>2022-08-28T07:41:47Z</time>
      </trkpt>
      <trkpt lat="45.99273" lon="6.91174">
        <ele>2399</ele>
        <time>2022-08-28T07:41:49Z</time>
      </trkpt>
      <trkpt lat="45.99272" lon="6.91172">
        <ele>2400</ele>
        <time>2022-08-28T07:41:51Z</time>
      </trkpt>
      <trkpt lat="45.9927" lon="6.91171">
        <ele>2400</ele>
        <time>2022-08-28T07:41:53Z</time>
      </trkpt>
      <trkpt lat="45.99269" lon="6.91167">
        <ele>2399</ele>
        <time>2022-08-28T07:41:56Z</time>
      </trkpt>
      <trkpt lat="45.99268" lon="6.91165">
        <ele>2400</ele>
        <time>2022-08-28T07:41:59Z</time>
      </trkpt>
      <trkpt lat="45.99266" lon="6.91163">
        <ele>2401</ele>
        <time>2022-08-28T07:42:02Z</time>
      </trkpt>
      <trkpt lat="45.99265" lon="6.91161">
        <ele>2401</ele>
        <time>2022-08-28T07:42:05Z</time>
      </trkpt>
      <trkpt lat="45.99263" lon="6.9116">
        <ele>2402</ele>
        <time>2022-08-28T07:42:08Z</time>
      </trkpt>
      <trkpt lat="45.99261" lon="6.91158">
        <ele>2401</ele>
        <time>2022-08-28T07:42:11Z</time>
      </trkpt>
      <trkpt lat="45.99259" lon="6.91157">
        <ele>2402</ele>
        <time>2022-08-28T07:42:14Z</time>
      </trkpt>
      <trkpt lat="45.99257" lon="6.91157">
        <ele>2402</ele>
        <time>2022-08-28T07:42:17Z</time>
      </trkpt>
      <trkpt lat="45.99255" lon="6.91158">
        <ele>2404</ele>
        <time>2022-08-28T07:42:19Z</time>
      </trkpt>
      <trkpt lat="45.99253" lon="6.91159">
        <ele>2404</ele>
        <time>2022-08-28T07:42:22Z</time>
      </trkpt>
      <trkpt lat="45.99252" lon="6.91162">
        <ele>2402</ele>
        <time>2022-08-28T07:42:24Z</time>
      </trkpt>
      <trkpt lat="45.9925" lon="6.91164">
        <ele>2404</ele>
        <time>2022-08-28T07:42:27Z</time>
      </trkpt>
      <trkpt lat="45.99248" lon="6.91165">
        <ele>2404</ele>
        <time>2022-08-28T07:42:30Z</time>
      </trkpt>
      <trkpt lat="45.99246" lon="6.91165">
        <ele>2404</ele>
        <time>2022-08-28T07:42:33Z</time>
      </trkpt>
      <trkpt lat="45.99244" lon="6.91164">
        <ele>2405</ele>
        <time>2022-08-28T07:42:36Z</time>
      </trkpt>
      <trkpt lat="45.99242" lon="6.91164">
        <ele>2405</ele>
        <time>2022-08-28T07:42:38Z</time>
      </trkpt>
      <trkpt lat="45.9924" lon="6.91165">
        <ele>2404</ele>
        <time>2022-08-28T07:42:40Z</time>
      </trkpt>
      <trkpt lat="45.99238" lon="6.91166">
        <ele>2404</ele>
        <time>2022-08-28T07:42:42Z</time>
      </trkpt>
      <trkpt lat="45.99236" lon="6.91166">
        <ele>2404</ele>
        <time>2022-08-28T07:42:44Z</time>
      </trkpt>
      <trkpt lat="45.99234" lon="6.91166">
        <ele>2404</ele>
        <time>2022-08-28T07:42:47Z</time>
      </trkpt>
      <trkpt lat="45.99232" lon="6.91166">
        <ele>2405</ele>
        <time>2022-08-28T07:42:49Z</time>
      </trkpt>
      <trkpt lat="45.9923" lon="6.91166">
        <ele>2405</ele>
        <time>2022-08-28T07:42:52Z</time>
      </trkpt>
      <trkpt lat="45.99228" lon="6.91165">
        <ele>2405</ele>
        <time>2022-08-28T07:42:54Z</time>
      </trkpt>
      <trkpt lat="45.99226" lon="6.91165">
        <ele>2405</ele>
        <time>2022-08-28T07:42:56Z</time>
      </trkpt>
      <trkpt lat="45.99224" lon="6.91164">
        <ele>2405</ele>
        <time>2022-08-28T07:42:58Z</time>
      </trkpt>
      <trkpt lat="45.99222" lon="6.91163">
        <ele>2405</ele>
        <time>2022-08-28T07:43:01Z</time>
      </trkpt>
      <trkpt lat="45.9922" lon="6.91164">
        <ele>2405</ele>
        <time>2022-08-28T07:43:03Z</time>
      </trkpt>
      <trkpt lat="45.99217" lon="6.91163">
        <ele>2405</ele>
        <time>2022-08-28T07:43:06Z</time>
      </trkpt>
      <trkpt lat="45.99215" lon="6.91163">
        <ele>2404</ele>
        <time>2022-08-28T07:43:09Z</time>
      </trkpt>
      <trkpt lat="45.99213" lon="6.91164">
        <ele>2404</ele>
        <time>2022-08-28T07:43:12Z</time>
      </trkpt>
      <trkpt lat="45.99211" lon="6.91164">
        <ele>2405</ele>
        <time>2022-08-28T07:43:15Z</time>
      </trkpt>
      <trkpt lat="45.99209" lon="6.91166">
        <ele>2404</ele>
        <time>2022-08-28T07:43:20Z</time>
      </trkpt>
      <trkpt lat="45.99207" lon="6.91166">
        <ele>2404</ele>
        <time>2022-08-28T07:43:22Z</time>
      </trkpt>
      <trkpt lat="45.99205" lon="6.91166">
        <ele>2404</ele>
        <time>2022-08-28T07:43:24Z</time>
      </trkpt>
      <trkpt lat="45.99203" lon="6.91166">
        <ele>2404</ele>
        <time>2022-08-28T07:43:27Z</time>
      </trkpt>
      <trkpt lat="45.99201" lon="6.91167">
        <ele>2404</ele>
        <time>2022-08-28T07:43:31Z</time>
      </trkpt>
      <trkpt lat="45.99199" lon="6.91168">
        <ele>2402</ele>
        <time>2022-08-28T07:43:34Z</time>
      </trkpt>
      <trkpt lat="45.99197" lon="6.91169">
        <ele>2402</ele>
        <time>2022-08-28T07:43:37Z</time>
      </trkpt>
      <trkpt lat="45.99194" lon="6.9117">
        <ele>2402</ele>
        <time>2022-08-28T07:43:40Z</time>
      </trkpt>
      <trkpt lat="45.99192" lon="6.91169">
        <ele>2402</ele>
        <time>2022-08-28T07:43:42Z</time>
      </trkpt>
      <trkpt lat="45.9919" lon="6.91169">
        <ele>2401</ele>
        <time>2022-08-28T07:43:45Z</time>
      </trkpt>
      <trkpt lat="45.99188" lon="6.9117">
        <ele>2400</ele>
        <time>2022-08-28T07:43:48Z</time>
      </trkpt>
      <trkpt lat="45.99186" lon="6.91169">
        <ele>2401</ele>
        <time>2022-08-28T07:43:54Z</time>
      </trkpt>
      <trkpt lat="45.99184" lon="6.91168">
        <ele>2400</ele>
        <time>2022-08-28T07:43:59Z</time>
      </trkpt>
      <trkpt lat="45.99183" lon="6.91166">
        <ele>2400</ele>
        <time>2022-08-28T07:44:03Z</time>
      </trkpt>
      <trkpt lat="45.99183" lon="6.91163">
        <ele>2398</ele>
        <time>2022-08-28T07:44:06Z</time>
      </trkpt>
      <trkpt lat="45.99182" lon="6.9116">
        <ele>2398</ele>
        <time>2022-08-28T07:44:10Z</time>
      </trkpt>
      <trkpt lat="45.9918" lon="6.91159">
        <ele>2398</ele>
        <time>2022-08-28T07:44:13Z</time>
      </trkpt>
      <trkpt lat="45.99179" lon="6.91156">
        <ele>2398</ele>
        <time>2022-08-28T07:44:16Z</time>
      </trkpt>
      <trkpt lat="45.99177" lon="6.91154">
        <ele>2398</ele>
        <time>2022-08-28T07:44:20Z</time>
      </trkpt>
      <trkpt lat="45.99176" lon="6.91153">
        <ele>2398</ele>
        <time>2022-08-28T07:44:23Z</time>
      </trkpt>
      <trkpt lat="45.99174" lon="6.91151">
        <ele>2397</ele>
        <time>2022-08-28T07:44:27Z</time>
      </trkpt>
      <trkpt lat="45.99173" lon="6.91149">
        <ele>2396</ele>
        <time>2022-08-28T07:44:32Z</time>
      </trkpt>
      <trkpt lat="45.99172" lon="6.91147">
        <ele>2396</ele>
        <time>2022-08-28T07:44:36Z</time>
      </trkpt>
      <trkpt lat="45.9917" lon="6.91144">
        <ele>2395</ele>
        <time>2022-08-28T07:44:41Z</time>
      </trkpt>
      <trkpt lat="45.9917" lon="6.91142">
        <ele>2396</ele>
        <time>2022-08-28T07:44:46Z</time>
      </trkpt>
      <trkpt lat="45.99168" lon="6.91141">
        <ele>2396</ele>
        <time>2022-08-28T07:44:53Z</time>
      </trkpt>
      <trkpt lat="45.99166" lon="6.91139">
        <ele>2395</ele>
        <time>2022-08-28T07:44:59Z</time>
      </trkpt>
      <trkpt lat="45.99164" lon="6.91137">
        <ele>2394</ele>
        <time>2022-08-28T07:45:07Z</time>
      </trkpt>
      <trkpt lat="45.99162" lon="6.91137">
        <ele>2394</ele>
        <time>2022-08-28T07:45:11Z</time>
      </trkpt>
      <trkpt lat="45.9916" lon="6.91139">
        <ele>2394</ele>
        <time>2022-08-28T07:45:14Z</time>
      </trkpt>
      <trkpt lat="45.99158" lon="6.91139">
        <ele>2394</ele>
        <time>2022-08-28T07:45:17Z</time>
      </trkpt>
      <trkpt lat="45.99156" lon="6.91138">
        <ele>2394</ele>
        <time>2022-08-28T07:45:20Z</time>
      </trkpt>
      <trkpt lat="45.99154" lon="6.91138">
        <ele>2394</ele>
        <time>2022-08-28T07:45:23Z</time>
      </trkpt>
      <trkpt lat="45.99152" lon="6.91138">
        <ele>2394</ele>
        <time>2022-08-28T07:45:27Z</time>
      </trkpt>
      <trkpt lat="45.9915" lon="6.9114">
        <ele>2394</ele>
        <time>2022-08-28T07:45:31Z</time>
      </trkpt>
      <trkpt lat="45.99149" lon="6.91138">
        <ele>2394</ele>
        <time>2022-08-28T07:45:36Z</time>
      </trkpt>
      <trkpt lat="45.99147" lon="6.91139">
        <ele>2394</ele>
        <time>2022-08-28T07:45:38Z</time>
      </trkpt>
      <trkpt lat="45.99145" lon="6.91139">
        <ele>2394</ele>
        <time>2022-08-28T07:45:42Z</time>
      </trkpt>
      <trkpt lat="45.99143" lon="6.91141">
        <ele>2394</ele>
        <time>2022-08-28T07:45:46Z</time>
      </trkpt>
      <trkpt lat="45.99141" lon="6.91141">
        <ele>2394</ele>
        <time>2022-08-28T07:45:49Z</time>
      </trkpt>
      <trkpt lat="45.99139" lon="6.91141">
        <ele>2394</ele>
        <time>2022-08-28T07:45:52Z</time>
      </trkpt>
      <trkpt lat="45.99136" lon="6.91141">
        <ele>2394</ele>
        <time>2022-08-28T07:45:55Z</time>
      </trkpt>
      <trkpt lat="45.99134" lon="6.91142">
        <ele>2394</ele>
        <time>2022-08-28T07:45:59Z</time>
      </trkpt>
      <trkpt lat="45.99132" lon="6.91142">
        <ele>2394</ele>
        <time>2022-08-28T07:46:02Z</time>
      </trkpt>
      <trkpt lat="45.9913" lon="6.91141">
        <ele>2393</ele>
        <time>2022-08-28T07:46:06Z</time>
      </trkpt>
      <trkpt lat="45.99129" lon="6.9114">
        <ele>2393</ele>
        <time>2022-08-28T07:46:12Z</time>
      </trkpt>
      <trkpt lat="45.99127" lon="6.9114">
        <ele>2392</ele>
        <time>2022-08-28T07:46:17Z</time>
      </trkpt>
      <trkpt lat="45.99125" lon="6.91139">
        <ele>2392</ele>
        <time>2022-08-28T07:46:20Z</time>
      </trkpt>
      <trkpt lat="45.99122" lon="6.91139">
        <ele>2392</ele>
        <time>2022-08-28T07:46:24Z</time>
      </trkpt>
      <trkpt lat="45.9912" lon="6.91139">
        <ele>2391</ele>
        <time>2022-08-28T07:46:26Z</time>
      </trkpt>
      <trkpt lat="45.99119" lon="6.91139">
        <ele>2391</ele>
        <time>2022-08-28T07:46:28Z</time>
      </trkpt>
      <trkpt lat="45.99117" lon="6.91139">
        <ele>2391</ele>
        <time>2022-08-28T07:46:30Z</time>
      </trkpt>
      <trkpt lat="45.99114" lon="6.91139">
        <ele>2391</ele>
        <time>2022-08-28T07:46:32Z</time>
      </trkpt>
      <trkpt lat="45.99112" lon="6.91139">
        <ele>2391</ele>
        <time>2022-08-28T07:46:34Z</time>
      </trkpt>
      <trkpt lat="45.9911" lon="6.91138">
        <ele>2391</ele>
        <time>2022-08-28T07:46:36Z</time>
      </trkpt>
      <trkpt lat="45.99108" lon="6.91138">
        <ele>2391</ele>
        <time>2022-08-28T07:46:39Z</time>
      </trkpt>
      <trkpt lat="45.99106" lon="6.91137">
        <ele>2392</ele>
        <time>2022-08-28T07:46:42Z</time>
      </trkpt>
      <trkpt lat="45.99103" lon="6.91137">
        <ele>2392</ele>
        <time>2022-08-28T07:46:45Z</time>
      </trkpt>
      <trkpt lat="45.99101" lon="6.91136">
        <ele>2392</ele>
        <time>2022-08-28T07:46:48Z</time>
      </trkpt>
      <trkpt lat="45.99099" lon="6.91133">
        <ele>2392</ele>
        <time>2022-08-28T07:46:51Z</time>
      </trkpt>
      <trkpt lat="45.99097" lon="6.91132">
        <ele>2392</ele>
        <time>2022-08-28T07:46:54Z</time>
      </trkpt>
      <trkpt lat="45.99096" lon="6.9113">
        <ele>2392</ele>
        <time>2022-08-28T07:46:58Z</time>
      </trkpt>
      <trkpt lat="45.99093" lon="6.91129">
        <ele>2392</ele>
        <time>2022-08-28T07:47:01Z</time>
      </trkpt>
      <trkpt lat="45.99091" lon="6.91129">
        <ele>2392</ele>
        <time>2022-08-28T07:47:04Z</time>
      </trkpt>
      <trkpt lat="45.99088" lon="6.91129">
        <ele>2392</ele>
        <time>2022-08-28T07:47:07Z</time>
      </trkpt>
      <trkpt lat="45.99086" lon="6.91129">
        <ele>2392</ele>
        <time>2022-08-28T07:47:09Z</time>
      </trkpt>
      <trkpt lat="45.99084" lon="6.91127">
        <ele>2392</ele>
        <time>2022-08-28T07:47:12Z</time>
      </trkpt>
      <trkpt lat="45.99082" lon="6.91125">
        <ele>2392</ele>
        <time>2022-08-28T07:47:15Z</time>
      </trkpt>
      <trkpt lat="45.9908" lon="6.91123">
        <ele>2392</ele>
        <time>2022-08-28T07:47:18Z</time>
      </trkpt>
      <trkpt lat="45.99077" lon="6.91121">
        <ele>2391</ele>
        <time>2022-08-28T07:47:22Z</time>
      </trkpt>
      <trkpt lat="45.99075" lon="6.91119">
        <ele>2391</ele>
        <time>2022-08-28T07:47:24Z</time>
      </trkpt>
      <trkpt lat="45.99074" lon="6.91117">
        <ele>2391</ele>
        <time>2022-08-28T07:47:26Z</time>
      </trkpt>
      <trkpt lat="45.99072" lon="6.91115">
        <ele>2391</ele>
        <time>2022-08-28T07:47:28Z</time>
      </trkpt>
      <trkpt lat="45.99071" lon="6.91113">
        <ele>2391</ele>
        <time>2022-08-28T07:47:30Z</time>
      </trkpt>
      <trkpt lat="45.99069" lon="6.91112">
        <ele>2391</ele>
        <time>2022-08-28T07:47:33Z</time>
      </trkpt>
      <trkpt lat="45.99067" lon="6.91113">
        <ele>2392</ele>
        <time>2022-08-28T07:47:35Z</time>
      </trkpt>
      <trkpt lat="45.99065" lon="6.91113">
        <ele>2392</ele>
        <time>2022-08-28T07:47:38Z</time>
      </trkpt>
      <trkpt lat="45.99062" lon="6.91113">
        <ele>2392</ele>
        <time>2022-08-28T07:47:41Z</time>
      </trkpt>
      <trkpt lat="45.9906" lon="6.91113">
        <ele>2392</ele>
        <time>2022-08-28T07:47:44Z</time>
      </trkpt>
      <trkpt lat="45.99058" lon="6.91114">
        <ele>2392</ele>
        <time>2022-08-28T07:47:47Z</time>
      </trkpt>
      <trkpt lat="45.99056" lon="6.91116">
        <ele>2391</ele>
        <time>2022-08-28T07:47:50Z</time>
      </trkpt>
      <trkpt lat="45.99054" lon="6.91118">
        <ele>2390</ele>
        <time>2022-08-28T07:47:52Z</time>
      </trkpt>
      <trkpt lat="45.99052" lon="6.9112">
        <ele>2391</ele>
        <time>2022-08-28T07:47:54Z</time>
      </trkpt>
      <trkpt lat="45.99051" lon="6.91123">
        <ele>2391</ele>
        <time>2022-08-28T07:47:56Z</time>
      </trkpt>
      <trkpt lat="45.99049" lon="6.91125">
        <ele>2391</ele>
        <time>2022-08-28T07:47:58Z</time>
      </trkpt>
      <trkpt lat="45.99048" lon="6.91128">
        <ele>2391</ele>
        <time>2022-08-28T07:48:00Z</time>
      </trkpt>
      <trkpt lat="45.99046" lon="6.9113">
        <ele>2392</ele>
        <time>2022-08-28T07:48:02Z</time>
      </trkpt>
      <trkpt lat="45.99045" lon="6.91133">
        <ele>2392</ele>
        <time>2022-08-28T07:48:05Z</time>
      </trkpt>
      <trkpt lat="45.99044" lon="6.91135">
        <ele>2392</ele>
        <time>2022-08-28T07:48:07Z</time>
      </trkpt>
      <trkpt lat="45.99043" lon="6.91137">
        <ele>2393</ele>
        <time>2022-08-28T07:48:09Z</time>
      </trkpt>
      <trkpt lat="45.99041" lon="6.91138">
        <ele>2393</ele>
        <time>2022-08-28T07:48:11Z</time>
      </trkpt>
      <trkpt lat="45.99039" lon="6.91139">
        <ele>2393</ele>
        <time>2022-08-28T07:48:13Z</time>
      </trkpt>
      <trkpt lat="45.99037" lon="6.91142">
        <ele>2393</ele>
        <time>2022-08-28T07:48:16Z</time>
      </trkpt>
      <trkpt lat="45.99035" lon="6.91145">
        <ele>2393</ele>
        <time>2022-08-28T07:48:19Z</time>
      </trkpt>
      <trkpt lat="45.99034" lon="6.91147">
        <ele>2394</ele>
        <time>2022-08-28T07:48:21Z</time>
      </trkpt>
      <trkpt lat="45.99032" lon="6.91148">
        <ele>2394</ele>
        <time>2022-08-28T07:48:23Z</time>
      </trkpt>
      <trkpt lat="45.99031" lon="6.91149">
        <ele>2395</ele>
        <time>2022-08-28T07:48:25Z</time>
      </trkpt>
      <trkpt lat="45.99029" lon="6.91151">
        <ele>2395</ele>
        <time>2022-08-28T07:48:27Z</time>
      </trkpt>
      <trkpt lat="45.99027" lon="6.91153">
        <ele>2395</ele>
        <time>2022-08-28T07:48:29Z</time>
      </trkpt>
      <trkpt lat="45.99025" lon="6.91155">
        <ele>2395</ele>
        <time>2022-08-28T07:48:32Z</time>
      </trkpt>
      <trkpt lat="45.99023" lon="6.91158">
        <ele>2395</ele>
        <time>2022-08-28T07:48:35Z</time>
      </trkpt>
      <trkpt lat="45.99021" lon="6.9116">
        <ele>2395</ele>
        <time>2022-08-28T07:48:37Z</time>
      </trkpt>
      <trkpt lat="45.99019" lon="6.91162">
        <ele>2395</ele>
        <time>2022-08-28T07:48:39Z</time>
      </trkpt>
      <trkpt lat="45.99017" lon="6.91164">
        <ele>2395</ele>
        <time>2022-08-28T07:48:41Z</time>
      </trkpt>
      <trkpt lat="45.99015" lon="6.91165">
        <ele>2395</ele>
        <time>2022-08-28T07:48:43Z</time>
      </trkpt>
      <trkpt lat="45.99013" lon="6.91165">
        <ele>2395</ele>
        <time>2022-08-28T07:48:46Z</time>
      </trkpt>
      <trkpt lat="45.99011" lon="6.91167">
        <ele>2395</ele>
        <time>2022-08-28T07:48:49Z</time>
      </trkpt>
      <trkpt lat="45.99009" lon="6.9117">
        <ele>2395</ele>
        <time>2022-08-28T07:48:51Z</time>
      </trkpt>
      <trkpt lat="45.99007" lon="6.91172">
        <ele>2395</ele>
        <time>2022-08-28T07:48:53Z</time>
      </trkpt>
      <trkpt lat="45.99005" lon="6.91173">
        <ele>2395</ele>
        <time>2022-08-28T07:48:55Z</time>
      </trkpt>
      <trkpt lat="45.99003" lon="6.91176">
        <ele>2396</ele>
        <time>2022-08-28T07:48:58Z</time>
      </trkpt>
      <trkpt lat="45.99001" lon="6.91178">
        <ele>2396</ele>
        <time>2022-08-28T07:49:01Z</time>
      </trkpt>
      <trkpt lat="45.99" lon="6.9118">
        <ele>2396</ele>
        <time>2022-08-28T07:49:04Z</time>
      </trkpt>
      <trkpt lat="45.99" lon="6.91183">
        <ele>2396</ele>
        <time>2022-08-28T07:49:06Z</time>
      </trkpt>
      <trkpt lat="45.98999" lon="6.91187">
        <ele>2396</ele>
        <time>2022-08-28T07:49:10Z</time>
      </trkpt>
      <trkpt lat="45.98997" lon="6.91191">
        <ele>2395</ele>
        <time>2022-08-28T07:49:12Z</time>
      </trkpt>
      <trkpt lat="45.98996" lon="6.91193">
        <ele>2395</ele>
        <time>2022-08-28T07:49:14Z</time>
      </trkpt>
      <trkpt lat="45.98994" lon="6.91194">
        <ele>2395</ele>
        <time>2022-08-28T07:49:16Z</time>
      </trkpt>
      <trkpt lat="45.98992" lon="6.91197">
        <ele>2396</ele>
        <time>2022-08-28T07:49:19Z</time>
      </trkpt>
      <trkpt lat="45.98991" lon="6.912">
        <ele>2397</ele>
        <time>2022-08-28T07:49:21Z</time>
      </trkpt>
      <trkpt lat="45.9899" lon="6.91203">
        <ele>2397</ele>
        <time>2022-08-28T07:49:23Z</time>
      </trkpt>
      <trkpt lat="45.98988" lon="6.91206">
        <ele>2397</ele>
        <time>2022-08-28T07:49:25Z</time>
      </trkpt>
      <trkpt lat="45.98986" lon="6.91207">
        <ele>2396</ele>
        <time>2022-08-28T07:49:27Z</time>
      </trkpt>
      <trkpt lat="45.98984" lon="6.91208">
        <ele>2396</ele>
        <time>2022-08-28T07:49:30Z</time>
      </trkpt>
      <trkpt lat="45.98982" lon="6.9121">
        <ele>2397</ele>
        <time>2022-08-28T07:49:32Z</time>
      </trkpt>
      <trkpt lat="45.98981" lon="6.91212">
        <ele>2397</ele>
        <time>2022-08-28T07:49:34Z</time>
      </trkpt>
      <trkpt lat="45.98979" lon="6.91214">
        <ele>2397</ele>
        <time>2022-08-28T07:49:36Z</time>
      </trkpt>
      <trkpt lat="45.98977" lon="6.91216">
        <ele>2397</ele>
        <time>2022-08-28T07:49:38Z</time>
      </trkpt>
      <trkpt lat="45.98975" lon="6.91216">
        <ele>2397</ele>
        <time>2022-08-28T07:49:40Z</time>
      </trkpt>
      <trkpt lat="45.98973" lon="6.91217">
        <ele>2397</ele>
        <time>2022-08-28T07:49:43Z</time>
      </trkpt>
      <trkpt lat="45.98971" lon="6.91217">
        <ele>2397</ele>
        <time>2022-08-28T07:49:45Z</time>
      </trkpt>
      <trkpt lat="45.98968" lon="6.91216">
        <ele>2397</ele>
        <time>2022-08-28T07:49:47Z</time>
      </trkpt>
      <trkpt lat="45.98966" lon="6.91215">
        <ele>2397</ele>
        <time>2022-08-28T07:49:49Z</time>
      </trkpt>
      <trkpt lat="45.98964" lon="6.91213">
        <ele>2397</ele>
        <time>2022-08-28T07:49:51Z</time>
      </trkpt>
      <trkpt lat="45.98963" lon="6.91211">
        <ele>2398</ele>
        <time>2022-08-28T07:49:53Z</time>
      </trkpt>
      <trkpt lat="45.98961" lon="6.9121">
        <ele>2398</ele>
        <time>2022-08-28T07:49:55Z</time>
      </trkpt>
      <trkpt lat="45.98959" lon="6.91209">
        <ele>2398</ele>
        <time>2022-08-28T07:49:57Z</time>
      </trkpt>
      <trkpt lat="45.98957" lon="6.91207">
        <ele>2398</ele>
        <time>2022-08-28T07:49:59Z</time>
      </trkpt>
      <trkpt lat="45.98955" lon="6.91206">
        <ele>2398</ele>
        <time>2022-08-28T07:50:01Z</time>
      </trkpt>
      <trkpt lat="45.98953" lon="6.91206">
        <ele>2398</ele>
        <time>2022-08-28T07:50:03Z</time>
      </trkpt>
      <trkpt lat="45.98951" lon="6.91206">
        <ele>2398</ele>
        <time>2022-08-28T07:50:05Z</time>
      </trkpt>
      <trkpt lat="45.98949" lon="6.91204">
        <ele>2397</ele>
        <time>2022-08-28T07:50:07Z</time>
      </trkpt>
      <trkpt lat="45.98947" lon="6.91203">
        <ele>2397</ele>
        <time>2022-08-28T07:50:09Z</time>
      </trkpt>
      <trkpt lat="45.98945" lon="6.91204">
        <ele>2396</ele>
        <time>2022-08-28T07:50:11Z</time>
      </trkpt>
      <trkpt lat="45.98943" lon="6.91205">
        <ele>2396</ele>
        <time>2022-08-28T07:50:13Z</time>
      </trkpt>
      <trkpt lat="45.98942" lon="6.91208">
        <ele>2396</ele>
        <time>2022-08-28T07:50:15Z</time>
      </trkpt>
      <trkpt lat="45.98942" lon="6.91211">
        <ele>2396</ele>
        <time>2022-08-28T07:50:17Z</time>
      </trkpt>
      <trkpt lat="45.98941" lon="6.91215">
        <ele>2396</ele>
        <time>2022-08-28T07:50:20Z</time>
      </trkpt>
      <trkpt lat="45.9894" lon="6.91217">
        <ele>2397</ele>
        <time>2022-08-28T07:50:22Z</time>
      </trkpt>
      <trkpt lat="45.98938" lon="6.9122">
        <ele>2397</ele>
        <time>2022-08-28T07:50:25Z</time>
      </trkpt>
      <trkpt lat="45.98936" lon="6.91221">
        <ele>2398</ele>
        <time>2022-08-28T07:50:28Z</time>
      </trkpt>
      <trkpt lat="45.98934" lon="6.91221">
        <ele>2398</ele>
        <time>2022-08-28T07:50:30Z</time>
      </trkpt>
      <trkpt lat="45.98932" lon="6.91219">
        <ele>2399</ele>
        <time>2022-08-28T07:50:32Z</time>
      </trkpt>
      <trkpt lat="45.9893" lon="6.91217">
        <ele>2399</ele>
        <time>2022-08-28T07:50:35Z</time>
      </trkpt>
      <trkpt lat="45.98927" lon="6.91216">
        <ele>2400</ele>
        <time>2022-08-28T07:50:38Z</time>
      </trkpt>
      <trkpt lat="45.98925" lon="6.91214">
        <ele>2400</ele>
        <time>2022-08-28T07:50:41Z</time>
      </trkpt>
      <trkpt lat="45.98923" lon="6.91213">
        <ele>2400</ele>
        <time>2022-08-28T07:50:43Z</time>
      </trkpt>
      <trkpt lat="45.98921" lon="6.91211">
        <ele>2401</ele>
        <time>2022-08-28T07:50:45Z</time>
      </trkpt>
      <trkpt lat="45.98919" lon="6.9121">
        <ele>2401</ele>
        <time>2022-08-28T07:50:48Z</time>
      </trkpt>
      <trkpt lat="45.98917" lon="6.91207">
        <ele>2402</ele>
        <time>2022-08-28T07:50:51Z</time>
      </trkpt>
      <trkpt lat="45.98915" lon="6.91206">
        <ele>2402</ele>
        <time>2022-08-28T07:50:54Z</time>
      </trkpt>
      <trkpt lat="45.98913" lon="6.91204">
        <ele>2404</ele>
        <time>2022-08-28T07:50:57Z</time>
      </trkpt>
      <trkpt lat="45.98913" lon="6.91201">
        <ele>2404</ele>
        <time>2022-08-28T07:50:59Z</time>
      </trkpt>
      <trkpt lat="45.98912" lon="6.91198">
        <ele>2404</ele>
        <time>2022-08-28T07:51:02Z</time>
      </trkpt>
      <trkpt lat="45.98911" lon="6.91196">
        <ele>2406</ele>
        <time>2022-08-28T07:51:05Z</time>
      </trkpt>
      <trkpt lat="45.98908" lon="6.91196">
        <ele>2406</ele>
        <time>2022-08-28T07:51:08Z</time>
      </trkpt>
      <trkpt lat="45.98907" lon="6.91194">
        <ele>2406</ele>
        <time>2022-08-28T07:51:10Z</time>
      </trkpt>
      <trkpt lat="45.98905" lon="6.91192">
        <ele>2407</ele>
        <time>2022-08-28T07:51:13Z</time>
      </trkpt>
      <trkpt lat="45.98903" lon="6.9119">
        <ele>2407</ele>
        <time>2022-08-28T07:51:15Z</time>
      </trkpt>
      <trkpt lat="45.98901" lon="6.91188">
        <ele>2407</ele>
        <time>2022-08-28T07:51:17Z</time>
      </trkpt>
      <trkpt lat="45.98899" lon="6.91186">
        <ele>2407</ele>
        <time>2022-08-28T07:51:20Z</time>
      </trkpt>
      <trkpt lat="45.98897" lon="6.91184">
        <ele>2408</ele>
        <time>2022-08-28T07:51:22Z</time>
      </trkpt>
      <trkpt lat="45.98896" lon="6.91183">
        <ele>2408</ele>
        <time>2022-08-28T07:51:24Z</time>
      </trkpt>
      <trkpt lat="45.98894" lon="6.91183">
        <ele>2408</ele>
        <time>2022-08-28T07:51:26Z</time>
      </trkpt>
      <trkpt lat="45.98892" lon="6.91182">
        <ele>2408</ele>
        <time>2022-08-28T07:51:28Z</time>
      </trkpt>
      <trkpt lat="45.9889" lon="6.91182">
        <ele>2408</ele>
        <time>2022-08-28T07:51:30Z</time>
      </trkpt>
      <trkpt lat="45.98887" lon="6.9118">
        <ele>2408</ele>
        <time>2022-08-28T07:51:33Z</time>
      </trkpt>
      <trkpt lat="45.98885" lon="6.91178">
        <ele>2409</ele>
        <time>2022-08-28T07:51:36Z</time>
      </trkpt>
      <trkpt lat="45.98883" lon="6.91176">
        <ele>2410</ele>
        <time>2022-08-28T07:51:39Z</time>
      </trkpt>
      <trkpt lat="45.98881" lon="6.91174">
        <ele>2410</ele>
        <time>2022-08-28T07:51:41Z</time>
      </trkpt>
      <trkpt lat="45.98879" lon="6.91173">
        <ele>2410</ele>
        <time>2022-08-28T07:51:43Z</time>
      </trkpt>
      <trkpt lat="45.98877" lon="6.91172">
        <ele>2410</ele>
        <time>2022-08-28T07:51:45Z</time>
      </trkpt>
      <trkpt lat="45.98875" lon="6.9117">
        <ele>2410</ele>
        <time>2022-08-28T07:51:47Z</time>
      </trkpt>
      <trkpt lat="45.98872" lon="6.91168">
        <ele>2409</ele>
        <time>2022-08-28T07:51:49Z</time>
      </trkpt>
      <trkpt lat="45.9887" lon="6.91167">
        <ele>2409</ele>
        <time>2022-08-28T07:51:51Z</time>
      </trkpt>
      <trkpt lat="45.98868" lon="6.91166">
        <ele>2409</ele>
        <time>2022-08-28T07:51:53Z</time>
      </trkpt>
      <trkpt lat="45.98866" lon="6.91165">
        <ele>2409</ele>
        <time>2022-08-28T07:51:55Z</time>
      </trkpt>
      <trkpt lat="45.98864" lon="6.91164">
        <ele>2409</ele>
        <time>2022-08-28T07:51:57Z</time>
      </trkpt>
      <trkpt lat="45.98862" lon="6.91161">
        <ele>2409</ele>
        <time>2022-08-28T07:51:59Z</time>
      </trkpt>
      <trkpt lat="45.98861" lon="6.91159">
        <ele>2407</ele>
        <time>2022-08-28T07:52:01Z</time>
      </trkpt>
      <trkpt lat="45.98859" lon="6.91157">
        <ele>2407</ele>
        <time>2022-08-28T07:52:03Z</time>
      </trkpt>
      <trkpt lat="45.98857" lon="6.91155">
        <ele>2408</ele>
        <time>2022-08-28T07:52:05Z</time>
      </trkpt>
      <trkpt lat="45.98855" lon="6.91153">
        <ele>2408</ele>
        <time>2022-08-28T07:52:07Z</time>
      </trkpt>
      <trkpt lat="45.98853" lon="6.91151">
        <ele>2408</ele>
        <time>2022-08-28T07:52:09Z</time>
      </trkpt>
      <trkpt lat="45.98851" lon="6.91148">
        <ele>2408</ele>
        <time>2022-08-28T07:52:11Z</time>
      </trkpt>
      <trkpt lat="45.98849" lon="6.91146">
        <ele>2408</ele>
        <time>2022-08-28T07:52:13Z</time>
      </trkpt>
      <trkpt lat="45.98847" lon="6.91143">
        <ele>2408</ele>
        <time>2022-08-28T07:52:15Z</time>
      </trkpt>
      <trkpt lat="45.98846" lon="6.91142">
        <ele>2409</ele>
        <time>2022-08-28T07:52:17Z</time>
      </trkpt>
      <trkpt lat="45.98844" lon="6.9114">
        <ele>2408</ele>
        <time>2022-08-28T07:52:19Z</time>
      </trkpt>
      <trkpt lat="45.98842" lon="6.91139">
        <ele>2409</ele>
        <time>2022-08-28T07:52:22Z</time>
      </trkpt>
      <trkpt lat="45.9884" lon="6.91137">
        <ele>2410</ele>
        <time>2022-08-28T07:52:25Z</time>
      </trkpt>
      <trkpt lat="45.98838" lon="6.91137">
        <ele>2410</ele>
        <time>2022-08-28T07:52:28Z</time>
      </trkpt>
      <trkpt lat="45.98836" lon="6.91137">
        <ele>2410</ele>
        <time>2022-08-28T07:52:30Z</time>
      </trkpt>
      <trkpt lat="45.98833" lon="6.91137">
        <ele>2410</ele>
        <time>2022-08-28T07:52:33Z</time>
      </trkpt>
      <trkpt lat="45.98831" lon="6.91137">
        <ele>2411</ele>
        <time>2022-08-28T07:52:36Z</time>
      </trkpt>
      <trkpt lat="45.9883" lon="6.91135">
        <ele>2413</ele>
        <time>2022-08-28T07:52:40Z</time>
      </trkpt>
      <trkpt lat="45.98828" lon="6.91136">
        <ele>2412</ele>
        <time>2022-08-28T07:52:43Z</time>
      </trkpt>
      <trkpt lat="45.98826" lon="6.91134">
        <ele>2413</ele>
        <time>2022-08-28T07:52:47Z</time>
      </trkpt>
      <trkpt lat="45.98824" lon="6.91133">
        <ele>2413</ele>
        <time>2022-08-28T07:52:51Z</time>
      </trkpt>
      <trkpt lat="45.98821" lon="6.91132">
        <ele>2413</ele>
        <time>2022-08-28T07:52:53Z</time>
      </trkpt>
      <trkpt lat="45.9882" lon="6.91131">
        <ele>2413</ele>
        <time>2022-08-28T07:52:55Z</time>
      </trkpt>
      <trkpt lat="45.98817" lon="6.9113">
        <ele>2414</ele>
        <time>2022-08-28T07:52:58Z</time>
      </trkpt>
      <trkpt lat="45.98814" lon="6.91129">
        <ele>2414</ele>
        <time>2022-08-28T07:53:01Z</time>
      </trkpt>
      <trkpt lat="45.98813" lon="6.91129">
        <ele>2414</ele>
        <time>2022-08-28T07:53:03Z</time>
      </trkpt>
      <trkpt lat="45.98811" lon="6.91128">
        <ele>2414</ele>
        <time>2022-08-28T07:53:05Z</time>
      </trkpt>
      <trkpt lat="45.98809" lon="6.91127">
        <ele>2414</ele>
        <time>2022-08-28T07:53:07Z</time>
      </trkpt>
      <trkpt lat="45.98807" lon="6.91126">
        <ele>2414</ele>
        <time>2022-08-28T07:53:09Z</time>
      </trkpt>
      <trkpt lat="45.98805" lon="6.91123">
        <ele>2415</ele>
        <time>2022-08-28T07:53:11Z</time>
      </trkpt>
      <trkpt lat="45.98804" lon="6.91121">
        <ele>2415</ele>
        <time>2022-08-28T07:53:13Z</time>
      </trkpt>
      <trkpt lat="45.98803" lon="6.91119">
        <ele>2415</ele>
        <time>2022-08-28T07:53:15Z</time>
      </trkpt>
      <trkpt lat="45.98801" lon="6.91117">
        <ele>2415</ele>
        <time>2022-08-28T07:53:17Z</time>
      </trkpt>
      <trkpt lat="45.988" lon="6.91116">
        <ele>2415</ele>
        <time>2022-08-28T07:53:19Z</time>
      </trkpt>
      <trkpt lat="45.98798" lon="6.91115">
        <ele>2415</ele>
        <time>2022-08-28T07:53:21Z</time>
      </trkpt>
      <trkpt lat="45.98796" lon="6.91113">
        <ele>2416</ele>
        <time>2022-08-28T07:53:24Z</time>
      </trkpt>
      <trkpt lat="45.98794" lon="6.9111">
        <ele>2416</ele>
        <time>2022-08-28T07:53:27Z</time>
      </trkpt>
      <trkpt lat="45.98793" lon="6.91108">
        <ele>2418</ele>
        <time>2022-08-28T07:53:31Z</time>
      </trkpt>
      <trkpt lat="45.98792" lon="6.91105">
        <ele>2418</ele>
        <time>2022-08-28T07:53:34Z</time>
      </trkpt>
      <trkpt lat="45.98791" lon="6.91102">
        <ele>2419</ele>
        <time>2022-08-28T07:53:37Z</time>
      </trkpt>
      <trkpt lat="45.9879" lon="6.91101">
        <ele>2419</ele>
        <time>2022-08-28T07:53:41Z</time>
      </trkpt>
      <trkpt lat="45.98788" lon="6.91098">
        <ele>2419</ele>
        <time>2022-08-28T07:53:45Z</time>
      </trkpt>
      <trkpt lat="45.98788" lon="6.91096">
        <ele>2420</ele>
        <time>2022-08-28T07:53:48Z</time>
      </trkpt>
      <trkpt lat="45.98786" lon="6.91094">
        <ele>2421</ele>
        <time>2022-08-28T07:53:51Z</time>
      </trkpt>
      <trkpt lat="45.98784" lon="6.91094">
        <ele>2421</ele>
        <time>2022-08-28T07:53:53Z</time>
      </trkpt>
      <trkpt lat="45.98781" lon="6.91093">
        <ele>2422</ele>
        <time>2022-08-28T07:53:56Z</time>
      </trkpt>
      <trkpt lat="45.98779" lon="6.91093">
        <ele>2422</ele>
        <time>2022-08-28T07:53:59Z</time>
      </trkpt>
      <trkpt lat="45.98777" lon="6.9109">
        <ele>2423</ele>
        <time>2022-08-28T07:54:02Z</time>
      </trkpt>
      <trkpt lat="45.98775" lon="6.91088">
        <ele>2423</ele>
        <time>2022-08-28T07:54:05Z</time>
      </trkpt>
      <trkpt lat="45.98773" lon="6.91087">
        <ele>2423</ele>
        <time>2022-08-28T07:54:07Z</time>
      </trkpt>
      <trkpt lat="45.98771" lon="6.91086">
        <ele>2423</ele>
        <time>2022-08-28T07:54:10Z</time>
      </trkpt>
      <trkpt lat="45.98769" lon="6.91085">
        <ele>2423</ele>
        <time>2022-08-28T07:54:12Z</time>
      </trkpt>
      <trkpt lat="45.98767" lon="6.91085">
        <ele>2423</ele>
        <time>2022-08-28T07:54:14Z</time>
      </trkpt>
      <trkpt lat="45.98765" lon="6.91084">
        <ele>2423</ele>
        <time>2022-08-28T07:54:17Z</time>
      </trkpt>
      <trkpt lat="45.98763" lon="6.91083">
        <ele>2424</ele>
        <time>2022-08-28T07:54:20Z</time>
      </trkpt>
      <trkpt lat="45.98762" lon="6.91081">
        <ele>2424</ele>
        <time>2022-08-28T07:54:23Z</time>
      </trkpt>
      <trkpt lat="45.98759" lon="6.9108">
        <ele>2424</ele>
        <time>2022-08-28T07:54:26Z</time>
      </trkpt>
      <trkpt lat="45.98757" lon="6.91079">
        <ele>2424</ele>
        <time>2022-08-28T07:54:29Z</time>
      </trkpt>
      <trkpt lat="45.98755" lon="6.91077">
        <ele>2425</ele>
        <time>2022-08-28T07:54:31Z</time>
      </trkpt>
      <trkpt lat="45.98754" lon="6.91075">
        <ele>2425</ele>
        <time>2022-08-28T07:54:33Z</time>
      </trkpt>
      <trkpt lat="45.98752" lon="6.91073">
        <ele>2425</ele>
        <time>2022-08-28T07:54:35Z</time>
      </trkpt>
      <trkpt lat="45.98751" lon="6.91071">
        <ele>2425</ele>
        <time>2022-08-28T07:54:37Z</time>
      </trkpt>
      <trkpt lat="45.9875" lon="6.91068">
        <ele>2425</ele>
        <time>2022-08-28T07:54:39Z</time>
      </trkpt>
      <trkpt lat="45.98749" lon="6.91065">
        <ele>2425</ele>
        <time>2022-08-28T07:54:41Z</time>
      </trkpt>
      <trkpt lat="45.98748" lon="6.91063">
        <ele>2426</ele>
        <time>2022-08-28T07:54:43Z</time>
      </trkpt>
      <trkpt lat="45.98746" lon="6.91061">
        <ele>2426</ele>
        <time>2022-08-28T07:54:45Z</time>
      </trkpt>
      <trkpt lat="45.98744" lon="6.91059">
        <ele>2426</ele>
        <time>2022-08-28T07:54:47Z</time>
      </trkpt>
      <trkpt lat="45.98743" lon="6.91057">
        <ele>2426</ele>
        <time>2022-08-28T07:54:49Z</time>
      </trkpt>
      <trkpt lat="45.98741" lon="6.91055">
        <ele>2426</ele>
        <time>2022-08-28T07:54:52Z</time>
      </trkpt>
      <trkpt lat="45.98738" lon="6.91053">
        <ele>2428</ele>
        <time>2022-08-28T07:54:55Z</time>
      </trkpt>
      <trkpt lat="45.98736" lon="6.91051">
        <ele>2428</ele>
        <time>2022-08-28T07:54:58Z</time>
      </trkpt>
      <trkpt lat="45.98734" lon="6.91048">
        <ele>2428</ele>
        <time>2022-08-28T07:55:01Z</time>
      </trkpt>
      <trkpt lat="45.98733" lon="6.91046">
        <ele>2428</ele>
        <time>2022-08-28T07:55:03Z</time>
      </trkpt>
      <trkpt lat="45.9873" lon="6.91044">
        <ele>2428</ele>
        <time>2022-08-28T07:55:06Z</time>
      </trkpt>
      <trkpt lat="45.98728" lon="6.91043">
        <ele>2428</ele>
        <time>2022-08-28T07:55:09Z</time>
      </trkpt>
      <trkpt lat="45.98727" lon="6.91041">
        <ele>2430</ele>
        <time>2022-08-28T07:55:12Z</time>
      </trkpt>
      <trkpt lat="45.98725" lon="6.91039">
        <ele>2431</ele>
        <time>2022-08-28T07:55:15Z</time>
      </trkpt>
      <trkpt lat="45.98723" lon="6.91039">
        <ele>2431</ele>
        <time>2022-08-28T07:55:18Z</time>
      </trkpt>
      <trkpt lat="45.9872" lon="6.91039">
        <ele>2431</ele>
        <time>2022-08-28T07:55:21Z</time>
      </trkpt>
      <trkpt lat="45.98717" lon="6.91039">
        <ele>2431</ele>
        <time>2022-08-28T07:55:24Z</time>
      </trkpt>
      <trkpt lat="45.98716" lon="6.91038">
        <ele>2432</ele>
        <time>2022-08-28T07:55:26Z</time>
      </trkpt>
      <trkpt lat="45.98714" lon="6.91036">
        <ele>2432</ele>
        <time>2022-08-28T07:55:29Z</time>
      </trkpt>
      <trkpt lat="45.98712" lon="6.91034">
        <ele>2433</ele>
        <time>2022-08-28T07:55:32Z</time>
      </trkpt>
      <trkpt lat="45.9871" lon="6.91032">
        <ele>2433</ele>
        <time>2022-08-28T07:55:35Z</time>
      </trkpt>
      <trkpt lat="45.98708" lon="6.91031">
        <ele>2433</ele>
        <time>2022-08-28T07:55:38Z</time>
      </trkpt>
      <trkpt lat="45.98705" lon="6.91029">
        <ele>2434</ele>
        <time>2022-08-28T07:55:41Z</time>
      </trkpt>
      <trkpt lat="45.98704" lon="6.91027">
        <ele>2434</ele>
        <time>2022-08-28T07:55:44Z</time>
      </trkpt>
      <trkpt lat="45.98703" lon="6.91025">
        <ele>2434</ele>
        <time>2022-08-28T07:55:47Z</time>
      </trkpt>
      <trkpt lat="45.98701" lon="6.91023">
        <ele>2434</ele>
        <time>2022-08-28T07:55:50Z</time>
      </trkpt>
      <trkpt lat="45.98699" lon="6.91023">
        <ele>2435</ele>
        <time>2022-08-28T07:55:54Z</time>
      </trkpt>
      <trkpt lat="45.98697" lon="6.91023">
        <ele>2435</ele>
        <time>2022-08-28T07:55:57Z</time>
      </trkpt>
      <trkpt lat="45.98695" lon="6.91022">
        <ele>2436</ele>
        <time>2022-08-28T07:56:00Z</time>
      </trkpt>
      <trkpt lat="45.98693" lon="6.91021">
        <ele>2436</ele>
        <time>2022-08-28T07:56:03Z</time>
      </trkpt>
      <trkpt lat="45.98691" lon="6.91018">
        <ele>2437</ele>
        <time>2022-08-28T07:56:07Z</time>
      </trkpt>
      <trkpt lat="45.98689" lon="6.91017">
        <ele>2437</ele>
        <time>2022-08-28T07:56:10Z</time>
      </trkpt>
      <trkpt lat="45.98687" lon="6.91016">
        <ele>2437</ele>
        <time>2022-08-28T07:56:13Z</time>
      </trkpt>
      <trkpt lat="45.98687" lon="6.91012">
        <ele>2437</ele>
        <time>2022-08-28T07:56:16Z</time>
      </trkpt>
      <trkpt lat="45.98687" lon="6.9101">
        <ele>2439</ele>
        <time>2022-08-28T07:56:21Z</time>
      </trkpt>
      <trkpt lat="45.98686" lon="6.91007">
        <ele>2440</ele>
        <time>2022-08-28T07:56:26Z</time>
      </trkpt>
      <trkpt lat="45.98684" lon="6.91005">
        <ele>2440</ele>
        <time>2022-08-28T07:56:32Z</time>
      </trkpt>
      <trkpt lat="45.98682" lon="6.91003">
        <ele>2441</ele>
        <time>2022-08-28T07:56:35Z</time>
      </trkpt>
      <trkpt lat="45.9868" lon="6.91001">
        <ele>2441</ele>
        <time>2022-08-28T07:56:38Z</time>
      </trkpt>
      <trkpt lat="45.98679" lon="6.90999">
        <ele>2441</ele>
        <time>2022-08-28T07:56:41Z</time>
      </trkpt>
      <trkpt lat="45.98677" lon="6.90997">
        <ele>2442</ele>
        <time>2022-08-28T07:56:45Z</time>
      </trkpt>
      <trkpt lat="45.98675" lon="6.90994">
        <ele>2442</ele>
        <time>2022-08-28T07:56:49Z</time>
      </trkpt>
      <trkpt lat="45.98674" lon="6.90993">
        <ele>2442</ele>
        <time>2022-08-28T07:56:51Z</time>
      </trkpt>
      <trkpt lat="45.98673" lon="6.9099">
        <ele>2443</ele>
        <time>2022-08-28T07:56:54Z</time>
      </trkpt>
      <trkpt lat="45.98671" lon="6.90988">
        <ele>2443</ele>
        <time>2022-08-28T07:56:58Z</time>
      </trkpt>
      <trkpt lat="45.98669" lon="6.90986">
        <ele>2443</ele>
        <time>2022-08-28T07:57:01Z</time>
      </trkpt>
      <trkpt lat="45.98668" lon="6.90983">
        <ele>2444</ele>
        <time>2022-08-28T07:57:04Z</time>
      </trkpt>
      <trkpt lat="45.98666" lon="6.90981">
        <ele>2444</ele>
        <time>2022-08-28T07:57:07Z</time>
      </trkpt>
      <trkpt lat="45.98664" lon="6.90978">
        <ele>2444</ele>
        <time>2022-08-28T07:57:09Z</time>
      </trkpt>
      <trkpt lat="45.98663" lon="6.90975">
        <ele>2445</ele>
        <time>2022-08-28T07:57:11Z</time>
      </trkpt>
      <trkpt lat="45.98661" lon="6.90973">
        <ele>2445</ele>
        <time>2022-08-28T07:57:13Z</time>
      </trkpt>
      <trkpt lat="45.9866" lon="6.90971">
        <ele>2445</ele>
        <time>2022-08-28T07:57:15Z</time>
      </trkpt>
      <trkpt lat="45.98658" lon="6.90968">
        <ele>2445</ele>
        <time>2022-08-28T07:57:17Z</time>
      </trkpt>
      <trkpt lat="45.98657" lon="6.90966">
        <ele>2445</ele>
        <time>2022-08-28T07:57:19Z</time>
      </trkpt>
      <trkpt lat="45.98656" lon="6.90963">
        <ele>2445</ele>
        <time>2022-08-28T07:57:22Z</time>
      </trkpt>
      <trkpt lat="45.98654" lon="6.90961">
        <ele>2445</ele>
        <time>2022-08-28T07:57:24Z</time>
      </trkpt>
      <trkpt lat="45.98653" lon="6.90959">
        <ele>2445</ele>
        <time>2022-08-28T07:57:26Z</time>
      </trkpt>
      <trkpt lat="45.98651" lon="6.90957">
        <ele>2445</ele>
        <time>2022-08-28T07:57:28Z</time>
      </trkpt>
      <trkpt lat="45.9865" lon="6.90954">
        <ele>2446</ele>
        <time>2022-08-28T07:57:30Z</time>
      </trkpt>
      <trkpt lat="45.98649" lon="6.90952">
        <ele>2447</ele>
        <time>2022-08-28T07:57:34Z</time>
      </trkpt>
      <trkpt lat="45.98648" lon="6.90948">
        <ele>2446</ele>
        <time>2022-08-28T07:57:37Z</time>
      </trkpt>
      <trkpt lat="45.98648" lon="6.90945">
        <ele>2446</ele>
        <time>2022-08-28T07:57:39Z</time>
      </trkpt>
      <trkpt lat="45.98648" lon="6.90942">
        <ele>2446</ele>
        <time>2022-08-28T07:57:42Z</time>
      </trkpt>
      <trkpt lat="45.98646" lon="6.90938">
        <ele>2446</ele>
        <time>2022-08-28T07:57:45Z</time>
      </trkpt>
      <trkpt lat="45.98644" lon="6.90937">
        <ele>2445</ele>
        <time>2022-08-28T07:57:49Z</time>
      </trkpt>
      <trkpt lat="45.98643" lon="6.90934">
        <ele>2445</ele>
        <time>2022-08-28T07:57:51Z</time>
      </trkpt>
      <trkpt lat="45.98643" lon="6.90931">
        <ele>2445</ele>
        <time>2022-08-28T07:57:53Z</time>
      </trkpt>
      <trkpt lat="45.98643" lon="6.90927">
        <ele>2445</ele>
        <time>2022-08-28T07:57:55Z</time>
      </trkpt>
      <trkpt lat="45.98643" lon="6.90924">
        <ele>2445</ele>
        <time>2022-08-28T07:57:57Z</time>
      </trkpt>
      <trkpt lat="45.98643" lon="6.90921">
        <ele>2445</ele>
        <time>2022-08-28T07:57:59Z</time>
      </trkpt>
      <trkpt lat="45.98643" lon="6.90918">
        <ele>2445</ele>
        <time>2022-08-28T07:58:01Z</time>
      </trkpt>
      <trkpt lat="45.98641" lon="6.90916">
        <ele>2446</ele>
        <time>2022-08-28T07:58:04Z</time>
      </trkpt>
      <trkpt lat="45.98639" lon="6.90916">
        <ele>2446</ele>
        <time>2022-08-28T07:58:07Z</time>
      </trkpt>
      <trkpt lat="45.98637" lon="6.90915">
        <ele>2446</ele>
        <time>2022-08-28T07:58:10Z</time>
      </trkpt>
      <trkpt lat="45.98635" lon="6.90913">
        <ele>2447</ele>
        <time>2022-08-28T07:58:13Z</time>
      </trkpt>
      <trkpt lat="45.98633" lon="6.90912">
        <ele>2447</ele>
        <time>2022-08-28T07:58:16Z</time>
      </trkpt>
      <trkpt lat="45.98632" lon="6.90911">
        <ele>2448</ele>
        <time>2022-08-28T07:58:19Z</time>
      </trkpt>
      <trkpt lat="45.9863" lon="6.9091">
        <ele>2448</ele>
        <time>2022-08-28T07:58:23Z</time>
      </trkpt>
      <trkpt lat="45.98628" lon="6.90908">
        <ele>2448</ele>
        <time>2022-08-28T07:58:26Z</time>
      </trkpt>
      <trkpt lat="45.98626" lon="6.90907">
        <ele>2448</ele>
        <time>2022-08-28T07:58:29Z</time>
      </trkpt>
      <trkpt lat="45.98624" lon="6.90907">
        <ele>2449</ele>
        <time>2022-08-28T07:58:32Z</time>
      </trkpt>
      <trkpt lat="45.98622" lon="6.90906">
        <ele>2450</ele>
        <time>2022-08-28T07:58:35Z</time>
      </trkpt>
      <trkpt lat="45.98619" lon="6.90905">
        <ele>2450</ele>
        <time>2022-08-28T07:58:38Z</time>
      </trkpt>
      <trkpt lat="45.98618" lon="6.90903">
        <ele>2450</ele>
        <time>2022-08-28T07:58:41Z</time>
      </trkpt>
      <trkpt lat="45.98617" lon="6.909">
        <ele>2450</ele>
        <time>2022-08-28T07:58:43Z</time>
      </trkpt>
      <trkpt lat="45.98615" lon="6.90898">
        <ele>2450</ele>
        <time>2022-08-28T07:58:46Z</time>
      </trkpt>
      <trkpt lat="45.98614" lon="6.90895">
        <ele>2451</ele>
        <time>2022-08-28T07:58:48Z</time>
      </trkpt>
      <trkpt lat="45.98614" lon="6.90892">
        <ele>2451</ele>
        <time>2022-08-28T07:58:50Z</time>
      </trkpt>
      <trkpt lat="45.98613" lon="6.90889">
        <ele>2451</ele>
        <time>2022-08-28T07:58:53Z</time>
      </trkpt>
      <trkpt lat="45.98612" lon="6.90886">
        <ele>2452</ele>
        <time>2022-08-28T07:58:56Z</time>
      </trkpt>
      <trkpt lat="45.98612" lon="6.90882">
        <ele>2452</ele>
        <time>2022-08-28T07:58:59Z</time>
      </trkpt>
      <trkpt lat="45.98612" lon="6.9088">
        <ele>2452</ele>
        <time>2022-08-28T07:59:01Z</time>
      </trkpt>
      <trkpt lat="45.98612" lon="6.90876">
        <ele>2453</ele>
        <time>2022-08-28T07:59:04Z</time>
      </trkpt>
      <trkpt lat="45.98611" lon="6.90873">
        <ele>2453</ele>
        <time>2022-08-28T07:59:07Z</time>
      </trkpt>
      <trkpt lat="45.9861" lon="6.90871">
        <ele>2453</ele>
        <time>2022-08-28T07:59:09Z</time>
      </trkpt>
      <trkpt lat="45.98608" lon="6.90868">
        <ele>2454</ele>
        <time>2022-08-28T07:59:12Z</time>
      </trkpt>
      <trkpt lat="45.98607" lon="6.90865">
        <ele>2454</ele>
        <time>2022-08-28T07:59:15Z</time>
      </trkpt>
      <trkpt lat="45.98605" lon="6.90863">
        <ele>2454</ele>
        <time>2022-08-28T07:59:18Z</time>
      </trkpt>
      <trkpt lat="45.98604" lon="6.9086">
        <ele>2454</ele>
        <time>2022-08-28T07:59:21Z</time>
      </trkpt>
      <trkpt lat="45.98601" lon="6.90858">
        <ele>2454</ele>
        <time>2022-08-28T07:59:24Z</time>
      </trkpt>
      <trkpt lat="45.98599" lon="6.90857">
        <ele>2454</ele>
        <time>2022-08-28T07:59:27Z</time>
      </trkpt>
      <trkpt lat="45.98597" lon="6.90857">
        <ele>2457</ele>
        <time>2022-08-28T07:59:31Z</time>
      </trkpt>
      <trkpt lat="45.98595" lon="6.90857">
        <ele>2457</ele>
        <time>2022-08-28T07:59:34Z</time>
      </trkpt>
      <trkpt lat="45.98595" lon="6.90854">
        <ele>2456</ele>
        <time>2022-08-28T07:59:37Z</time>
      </trkpt>
      <trkpt lat="45.98592" lon="6.90853">
        <ele>2457</ele>
        <time>2022-08-28T07:59:41Z</time>
      </trkpt>
      <trkpt lat="45.9859" lon="6.90853">
        <ele>2457</ele>
        <time>2022-08-28T07:59:44Z</time>
      </trkpt>
      <trkpt lat="45.98588" lon="6.90854">
        <ele>2459</ele>
        <time>2022-08-28T07:59:47Z</time>
      </trkpt>
      <trkpt lat="45.98586" lon="6.90853">
        <ele>2458</ele>
        <time>2022-08-28T07:59:50Z</time>
      </trkpt>
      <trkpt lat="45.98584" lon="6.90853">
        <ele>2458</ele>
        <time>2022-08-28T07:59:53Z</time>
      </trkpt>
      <trkpt lat="45.98582" lon="6.90851">
        <ele>2459</ele>
        <time>2022-08-28T07:59:55Z</time>
      </trkpt>
      <trkpt lat="45.9858" lon="6.9085">
        <ele>2460</ele>
        <time>2022-08-28T07:59:58Z</time>
      </trkpt>
      <trkpt lat="45.98579" lon="6.90848">
        <ele>2460</ele>
        <time>2022-08-28T08:00:00Z</time>
      </trkpt>
      <trkpt lat="45.98577" lon="6.90846">
        <ele>2460</ele>
        <time>2022-08-28T08:00:03Z</time>
      </trkpt>
      <trkpt lat="45.98576" lon="6.90843">
        <ele>2460</ele>
        <time>2022-08-28T08:00:06Z</time>
      </trkpt>
      <trkpt lat="45.98575" lon="6.9084">
        <ele>2460</ele>
        <time>2022-08-28T08:00:09Z</time>
      </trkpt>
      <trkpt lat="45.98573" lon="6.90838">
        <ele>2461</ele>
        <time>2022-08-28T08:00:12Z</time>
      </trkpt>
      <trkpt lat="45.98571" lon="6.90836">
        <ele>2461</ele>
        <time>2022-08-28T08:00:14Z</time>
      </trkpt>
      <trkpt lat="45.9857" lon="6.90833">
        <ele>2461</ele>
        <time>2022-08-28T08:00:17Z</time>
      </trkpt>
      <trkpt lat="45.98569" lon="6.90831">
        <ele>2462</ele>
        <time>2022-08-28T08:00:19Z</time>
      </trkpt>
      <trkpt lat="45.98567" lon="6.9083">
        <ele>2462</ele>
        <time>2022-08-28T08:00:22Z</time>
      </trkpt>
      <trkpt lat="45.98564" lon="6.9083">
        <ele>2462</ele>
        <time>2022-08-28T08:00:24Z</time>
      </trkpt>
      <trkpt lat="45.98562" lon="6.90829">
        <ele>2462</ele>
        <time>2022-08-28T08:00:26Z</time>
      </trkpt>
      <trkpt lat="45.98561" lon="6.90827">
        <ele>2462</ele>
        <time>2022-08-28T08:00:28Z</time>
      </trkpt>
      <trkpt lat="45.98559" lon="6.90826">
        <ele>2462</ele>
        <time>2022-08-28T08:00:31Z</time>
      </trkpt>
      <trkpt lat="45.98557" lon="6.90826">
        <ele>2462</ele>
        <time>2022-08-28T08:00:33Z</time>
      </trkpt>
      <trkpt lat="45.98555" lon="6.90825">
        <ele>2463</ele>
        <time>2022-08-28T08:00:35Z</time>
      </trkpt>
      <trkpt lat="45.98553" lon="6.90823">
        <ele>2463</ele>
        <time>2022-08-28T08:00:37Z</time>
      </trkpt>
      <trkpt lat="45.98551" lon="6.90822">
        <ele>2463</ele>
        <time>2022-08-28T08:00:39Z</time>
      </trkpt>
      <trkpt lat="45.9855" lon="6.9082">
        <ele>2464</ele>
        <time>2022-08-28T08:00:41Z</time>
      </trkpt>
      <trkpt lat="45.98549" lon="6.90818">
        <ele>2464</ele>
        <time>2022-08-28T08:00:43Z</time>
      </trkpt>
      <trkpt lat="45.98547" lon="6.90816">
        <ele>2464</ele>
        <time>2022-08-28T08:00:46Z</time>
      </trkpt>
      <trkpt lat="45.98546" lon="6.90814">
        <ele>2464</ele>
        <time>2022-08-28T08:00:49Z</time>
      </trkpt>
      <trkpt lat="45.98544" lon="6.90812">
        <ele>2465</ele>
        <time>2022-08-28T08:00:52Z</time>
      </trkpt>
      <trkpt lat="45.98545" lon="6.90809">
        <ele>2465</ele>
        <time>2022-08-28T08:00:55Z</time>
      </trkpt>
      <trkpt lat="45.98546" lon="6.90807">
        <ele>2465</ele>
        <time>2022-08-28T08:01:00Z</time>
      </trkpt>
      <trkpt lat="45.98543" lon="6.90806">
        <ele>2467</ele>
        <time>2022-08-28T08:01:04Z</time>
      </trkpt>
      <trkpt lat="45.98542" lon="6.90805">
        <ele>2467</ele>
        <time>2022-08-28T08:01:07Z</time>
      </trkpt>
      <trkpt lat="45.9854" lon="6.90802">
        <ele>2467</ele>
        <time>2022-08-28T08:01:09Z</time>
      </trkpt>
      <trkpt lat="45.98539" lon="6.90798">
        <ele>2467</ele>
        <time>2022-08-28T08:01:12Z</time>
      </trkpt>
      <trkpt lat="45.98538" lon="6.90795">
        <ele>2467</ele>
        <time>2022-08-28T08:01:14Z</time>
      </trkpt>
      <trkpt lat="45.98537" lon="6.90792">
        <ele>2467</ele>
        <time>2022-08-28T08:01:16Z</time>
      </trkpt>
      <trkpt lat="45.98536" lon="6.9079">
        <ele>2467</ele>
        <time>2022-08-28T08:01:18Z</time>
      </trkpt>
      <trkpt lat="45.98534" lon="6.90788">
        <ele>2467</ele>
        <time>2022-08-28T08:01:20Z</time>
      </trkpt>
      <trkpt lat="45.98532" lon="6.90786">
        <ele>2468</ele>
        <time>2022-08-28T08:01:23Z</time>
      </trkpt>
      <trkpt lat="45.9853" lon="6.90784">
        <ele>2468</ele>
        <time>2022-08-28T08:01:26Z</time>
      </trkpt>
      <trkpt lat="45.98528" lon="6.90782">
        <ele>2468</ele>
        <time>2022-08-28T08:01:29Z</time>
      </trkpt>
      <trkpt lat="45.98527" lon="6.90781">
        <ele>2468</ele>
        <time>2022-08-28T08:01:33Z</time>
      </trkpt>
      <trkpt lat="45.98525" lon="6.9078">
        <ele>2469</ele>
        <time>2022-08-28T08:01:37Z</time>
      </trkpt>
      <trkpt lat="45.98524" lon="6.90777">
        <ele>2470</ele>
        <time>2022-08-28T08:01:42Z</time>
      </trkpt>
      <trkpt lat="45.98522" lon="6.90776">
        <ele>2472</ele>
        <time>2022-08-28T08:01:50Z</time>
      </trkpt>
      <trkpt lat="45.98522" lon="6.90776">
        <ele>2472</ele>
        <time>2022-08-28T08:01:54Z</time>
      </trkpt>
      <trkpt lat="45.9852" lon="6.90775">
        <ele>2472</ele>
        <time>2022-08-28T08:01:55Z</time>
      </trkpt>
      <trkpt lat="45.98519" lon="6.90773">
        <ele>2474</ele>
        <time>2022-08-28T08:01:59Z</time>
      </trkpt>
      <trkpt lat="45.98516" lon="6.90774">
        <ele>2474</ele>
        <time>2022-08-28T08:02:02Z</time>
      </trkpt>
      <trkpt lat="45.98515" lon="6.90774">
        <ele>2474</ele>
        <time>2022-08-28T08:02:04Z</time>
      </trkpt>
      <trkpt lat="45.98513" lon="6.90775">
        <ele>2474</ele>
        <time>2022-08-28T08:02:06Z</time>
      </trkpt>
      <trkpt lat="45.98511" lon="6.90775">
        <ele>2472</ele>
        <time>2022-08-28T08:02:08Z</time>
      </trkpt>
      <trkpt lat="45.98509" lon="6.90773">
        <ele>2472</ele>
        <time>2022-08-28T08:02:10Z</time>
      </trkpt>
      <trkpt lat="45.98507" lon="6.90772">
        <ele>2472</ele>
        <time>2022-08-28T08:02:12Z</time>
      </trkpt>
      <trkpt lat="45.98505" lon="6.9077">
        <ele>2472</ele>
        <time>2022-08-28T08:02:14Z</time>
      </trkpt>
      <trkpt lat="45.98503" lon="6.90769">
        <ele>2471</ele>
        <time>2022-08-28T08:02:16Z</time>
      </trkpt>
      <trkpt lat="45.98501" lon="6.9077">
        <ele>2471</ele>
        <time>2022-08-28T08:02:18Z</time>
      </trkpt>
      <trkpt lat="45.98499" lon="6.9077">
        <ele>2471</ele>
        <time>2022-08-28T08:02:20Z</time>
      </trkpt>
      <trkpt lat="45.98496" lon="6.90771">
        <ele>2471</ele>
        <time>2022-08-28T08:02:22Z</time>
      </trkpt>
      <trkpt lat="45.98494" lon="6.90771">
        <ele>2471</ele>
        <time>2022-08-28T08:02:24Z</time>
      </trkpt>
      <trkpt lat="45.98491" lon="6.90771">
        <ele>2471</ele>
        <time>2022-08-28T08:02:26Z</time>
      </trkpt>
      <trkpt lat="45.98488" lon="6.90771">
        <ele>2470</ele>
        <time>2022-08-28T08:02:28Z</time>
      </trkpt>
      <trkpt lat="45.98486" lon="6.9077">
        <ele>2470</ele>
        <time>2022-08-28T08:02:30Z</time>
      </trkpt>
      <trkpt lat="45.98483" lon="6.90769">
        <ele>2470</ele>
        <time>2022-08-28T08:02:32Z</time>
      </trkpt>
      <trkpt lat="45.98481" lon="6.90768">
        <ele>2470</ele>
        <time>2022-08-28T08:02:34Z</time>
      </trkpt>
      <trkpt lat="45.98479" lon="6.90769">
        <ele>2470</ele>
        <time>2022-08-28T08:02:36Z</time>
      </trkpt>
      <trkpt lat="45.98476" lon="6.90769">
        <ele>2470</ele>
        <time>2022-08-28T08:02:38Z</time>
      </trkpt>
      <trkpt lat="45.98473" lon="6.90769">
        <ele>2470</ele>
        <time>2022-08-28T08:02:40Z</time>
      </trkpt>
      <trkpt lat="45.98471" lon="6.90769">
        <ele>2470</ele>
        <time>2022-08-28T08:02:42Z</time>
      </trkpt>
      <trkpt lat="45.9847" lon="6.90767">
        <ele>2470</ele>
        <time>2022-08-28T08:02:44Z</time>
      </trkpt>
      <trkpt lat="45.98467" lon="6.90765">
        <ele>2471</ele>
        <time>2022-08-28T08:02:48Z</time>
      </trkpt>
      <trkpt lat="45.98466" lon="6.90763">
        <ele>2472</ele>
        <time>2022-08-28T08:02:51Z</time>
      </trkpt>
      <trkpt lat="45.98463" lon="6.90762">
        <ele>2471</ele>
        <time>2022-08-28T08:02:54Z</time>
      </trkpt>
      <trkpt lat="45.98461" lon="6.90761">
        <ele>2471</ele>
        <time>2022-08-28T08:02:56Z</time>
      </trkpt>
      <trkpt lat="45.9846" lon="6.90759">
        <ele>2471</ele>
        <time>2022-08-28T08:02:58Z</time>
      </trkpt>
      <trkpt lat="45.98458" lon="6.90757">
        <ele>2471</ele>
        <time>2022-08-28T08:03:00Z</time>
      </trkpt>
      <trkpt lat="45.98456" lon="6.90756">
        <ele>2471</ele>
        <time>2022-08-28T08:03:02Z</time>
      </trkpt>
      <trkpt lat="45.98454" lon="6.90754">
        <ele>2471</ele>
        <time>2022-08-28T08:03:04Z</time>
      </trkpt>
      <trkpt lat="45.98453" lon="6.90753">
        <ele>2471</ele>
        <time>2022-08-28T08:03:06Z</time>
      </trkpt>
      <trkpt lat="45.98451" lon="6.90751">
        <ele>2472</ele>
        <time>2022-08-28T08:03:08Z</time>
      </trkpt>
      <trkpt lat="45.98448" lon="6.9075">
        <ele>2474</ele>
        <time>2022-08-28T08:03:11Z</time>
      </trkpt>
      <trkpt lat="45.98447" lon="6.90749">
        <ele>2474</ele>
        <time>2022-08-28T08:03:13Z</time>
      </trkpt>
      <trkpt lat="45.98445" lon="6.90747">
        <ele>2474</ele>
        <time>2022-08-28T08:03:15Z</time>
      </trkpt>
      <trkpt lat="45.98443" lon="6.90746">
        <ele>2474</ele>
        <time>2022-08-28T08:03:18Z</time>
      </trkpt>
      <trkpt lat="45.98439" lon="6.90746">
        <ele>2474</ele>
        <time>2022-08-28T08:03:20Z</time>
      </trkpt>
      <trkpt lat="45.98438" lon="6.90745">
        <ele>2474</ele>
        <time>2022-08-28T08:03:22Z</time>
      </trkpt>
      <trkpt lat="45.98437" lon="6.90745">
        <ele>2474</ele>
        <time>2022-08-28T08:03:23Z</time>
      </trkpt>
      <trkpt lat="45.98435" lon="6.90745">
        <ele>2474</ele>
        <time>2022-08-28T08:03:24Z</time>
      </trkpt>
      <trkpt lat="45.98434" lon="6.90745">
        <ele>2472</ele>
        <time>2022-08-28T08:03:25Z</time>
      </trkpt>
      <trkpt lat="45.98432" lon="6.90744">
        <ele>2472</ele>
        <time>2022-08-28T08:03:26Z</time>
      </trkpt>
      <trkpt lat="45.9843" lon="6.90743">
        <ele>2472</ele>
        <time>2022-08-28T08:03:27Z</time>
      </trkpt>
      <trkpt lat="45.98428" lon="6.90741">
        <ele>2472</ele>
        <time>2022-08-28T08:03:29Z</time>
      </trkpt>
      <trkpt lat="45.98425" lon="6.90739">
        <ele>2472</ele>
        <time>2022-08-28T08:03:31Z</time>
      </trkpt>
      <trkpt lat="45.98424" lon="6.90736">
        <ele>2472</ele>
        <time>2022-08-28T08:03:33Z</time>
      </trkpt>
      <trkpt lat="45.98422" lon="6.90733">
        <ele>2472</ele>
        <time>2022-08-28T08:03:35Z</time>
      </trkpt>
      <trkpt lat="45.9842" lon="6.9073">
        <ele>2472</ele>
        <time>2022-08-28T08:03:37Z</time>
      </trkpt>
      <trkpt lat="45.98419" lon="6.90728">
        <ele>2472</ele>
        <time>2022-08-28T08:03:39Z</time>
      </trkpt>
      <trkpt lat="45.98417" lon="6.90727">
        <ele>2472</ele>
        <time>2022-08-28T08:03:41Z</time>
      </trkpt>
      <trkpt lat="45.98415" lon="6.90726">
        <ele>2472</ele>
        <time>2022-08-28T08:03:43Z</time>
      </trkpt>
      <trkpt lat="45.98413" lon="6.90724">
        <ele>2472</ele>
        <time>2022-08-28T08:03:45Z</time>
      </trkpt>
      <trkpt lat="45.98411" lon="6.90722">
        <ele>2472</ele>
        <time>2022-08-28T08:03:47Z</time>
      </trkpt>
      <trkpt lat="45.98409" lon="6.9072">
        <ele>2472</ele>
        <time>2022-08-28T08:03:49Z</time>
      </trkpt>
      <trkpt lat="45.98408" lon="6.90718">
        <ele>2472</ele>
        <time>2022-08-28T08:03:51Z</time>
      </trkpt>
      <trkpt lat="45.98405" lon="6.90716">
        <ele>2474</ele>
        <time>2022-08-28T08:03:54Z</time>
      </trkpt>
      <trkpt lat="45.98404" lon="6.90714">
        <ele>2474</ele>
        <time>2022-08-28T08:03:56Z</time>
      </trkpt>
      <trkpt lat="45.98402" lon="6.90712">
        <ele>2474</ele>
        <time>2022-08-28T08:03:58Z</time>
      </trkpt>
      <trkpt lat="45.984" lon="6.9071">
        <ele>2474</ele>
        <time>2022-08-28T08:04:00Z</time>
      </trkpt>
      <trkpt lat="45.98397" lon="6.90708">
        <ele>2472</ele>
        <time>2022-08-28T08:04:02Z</time>
      </trkpt>
      <trkpt lat="45.98394" lon="6.90707">
        <ele>2472</ele>
        <time>2022-08-28T08:04:04Z</time>
      </trkpt>
      <trkpt lat="45.98392" lon="6.90705">
        <ele>2472</ele>
        <time>2022-08-28T08:04:06Z</time>
      </trkpt>
      <trkpt lat="45.9839" lon="6.90703">
        <ele>2472</ele>
        <time>2022-08-28T08:04:08Z</time>
      </trkpt>
      <trkpt lat="45.98388" lon="6.90701">
        <ele>2472</ele>
        <time>2022-08-28T08:04:10Z</time>
      </trkpt>
      <trkpt lat="45.98385" lon="6.90699">
        <ele>2472</ele>
        <time>2022-08-28T08:04:12Z</time>
      </trkpt>
      <trkpt lat="45.98383" lon="6.90697">
        <ele>2472</ele>
        <time>2022-08-28T08:04:14Z</time>
      </trkpt>
      <trkpt lat="45.98382" lon="6.90696">
        <ele>2472</ele>
        <time>2022-08-28T08:04:16Z</time>
      </trkpt>
      <trkpt lat="45.9838" lon="6.90694">
        <ele>2474</ele>
        <time>2022-08-28T08:04:18Z</time>
      </trkpt>
      <trkpt lat="45.98377" lon="6.90692">
        <ele>2474</ele>
        <time>2022-08-28T08:04:21Z</time>
      </trkpt>
      <trkpt lat="45.98375" lon="6.9069">
        <ele>2474</ele>
        <time>2022-08-28T08:04:24Z</time>
      </trkpt>
      <trkpt lat="45.98373" lon="6.90689">
        <ele>2475</ele>
        <time>2022-08-28T08:04:27Z</time>
      </trkpt>
      <trkpt lat="45.98372" lon="6.90687">
        <ele>2475</ele>
        <time>2022-08-28T08:04:30Z</time>
      </trkpt>
      <trkpt lat="45.98369" lon="6.90685">
        <ele>2475</ele>
        <time>2022-08-28T08:04:33Z</time>
      </trkpt>
      <trkpt lat="45.98367" lon="6.90684">
        <ele>2475</ele>
        <time>2022-08-28T08:04:35Z</time>
      </trkpt>
      <trkpt lat="45.98365" lon="6.90682">
        <ele>2475</ele>
        <time>2022-08-28T08:04:37Z</time>
      </trkpt>
      <trkpt lat="45.98363" lon="6.90681">
        <ele>2475</ele>
        <time>2022-08-28T08:04:39Z</time>
      </trkpt>
      <trkpt lat="45.98361" lon="6.90679">
        <ele>2474</ele>
        <time>2022-08-28T08:04:41Z</time>
      </trkpt>
      <trkpt lat="45.98359" lon="6.90676">
        <ele>2475</ele>
        <time>2022-08-28T08:04:43Z</time>
      </trkpt>
      <trkpt lat="45.98358" lon="6.90674">
        <ele>2475</ele>
        <time>2022-08-28T08:04:45Z</time>
      </trkpt>
      <trkpt lat="45.98357" lon="6.90672">
        <ele>2475</ele>
        <time>2022-08-28T08:04:47Z</time>
      </trkpt>
      <trkpt lat="45.98355" lon="6.9067">
        <ele>2475</ele>
        <time>2022-08-28T08:04:50Z</time>
      </trkpt>
      <trkpt lat="45.98353" lon="6.9067">
        <ele>2475</ele>
        <time>2022-08-28T08:04:52Z</time>
      </trkpt>
      <trkpt lat="45.98351" lon="6.90669">
        <ele>2475</ele>
        <time>2022-08-28T08:04:54Z</time>
      </trkpt>
      <trkpt lat="45.98349" lon="6.90667">
        <ele>2475</ele>
        <time>2022-08-28T08:04:56Z</time>
      </trkpt>
      <trkpt lat="45.98347" lon="6.90665">
        <ele>2475</ele>
        <time>2022-08-28T08:04:58Z</time>
      </trkpt>
      <trkpt lat="45.98346" lon="6.90663">
        <ele>2475</ele>
        <time>2022-08-28T08:05:00Z</time>
      </trkpt>
      <trkpt lat="45.98344" lon="6.90661">
        <ele>2475</ele>
        <time>2022-08-28T08:05:02Z</time>
      </trkpt>
      <trkpt lat="45.98343" lon="6.90659">
        <ele>2475</ele>
        <time>2022-08-28T08:05:04Z</time>
      </trkpt>
      <trkpt lat="45.98341" lon="6.90657">
        <ele>2475</ele>
        <time>2022-08-28T08:05:06Z</time>
      </trkpt>
      <trkpt lat="45.98339" lon="6.90656">
        <ele>2475</ele>
        <time>2022-08-28T08:05:08Z</time>
      </trkpt>
      <trkpt lat="45.98337" lon="6.90655">
        <ele>2475</ele>
        <time>2022-08-28T08:05:10Z</time>
      </trkpt>
      <trkpt lat="45.98336" lon="6.90654">
        <ele>2474</ele>
        <time>2022-08-28T08:05:12Z</time>
      </trkpt>
      <trkpt lat="45.98333" lon="6.90653">
        <ele>2474</ele>
        <time>2022-08-28T08:05:15Z</time>
      </trkpt>
      <trkpt lat="45.9833" lon="6.90653">
        <ele>2474</ele>
        <time>2022-08-28T08:05:18Z</time>
      </trkpt>
      <trkpt lat="45.98328" lon="6.90653">
        <ele>2475</ele>
        <time>2022-08-28T08:05:21Z</time>
      </trkpt>
      <trkpt lat="45.98326" lon="6.90653">
        <ele>2475</ele>
        <time>2022-08-28T08:05:23Z</time>
      </trkpt>
      <trkpt lat="45.98324" lon="6.90654">
        <ele>2475</ele>
        <time>2022-08-28T08:05:27Z</time>
      </trkpt>
      <trkpt lat="45.98322" lon="6.90654">
        <ele>2475</ele>
        <time>2022-08-28T08:05:30Z</time>
      </trkpt>
      <trkpt lat="45.9832" lon="6.90653">
        <ele>2475</ele>
        <time>2022-08-28T08:05:32Z</time>
      </trkpt>
      <trkpt lat="45.98318" lon="6.90652">
        <ele>2475</ele>
        <time>2022-08-28T08:05:34Z</time>
      </trkpt>
      <trkpt lat="45.98316" lon="6.90651">
        <ele>2475</ele>
        <time>2022-08-28T08:05:36Z</time>
      </trkpt>
      <trkpt lat="45.98314" lon="6.9065">
        <ele>2475</ele>
        <time>2022-08-28T08:05:38Z</time>
      </trkpt>
      <trkpt lat="45.98311" lon="6.90649">
        <ele>2474</ele>
        <time>2022-08-28T08:05:41Z</time>
      </trkpt>
      <trkpt lat="45.98309" lon="6.90648">
        <ele>2474</ele>
        <time>2022-08-28T08:05:44Z</time>
      </trkpt>
      <trkpt lat="45.98307" lon="6.90647">
        <ele>2475</ele>
        <time>2022-08-28T08:05:46Z</time>
      </trkpt>
      <trkpt lat="45.98306" lon="6.90646">
        <ele>2475</ele>
        <time>2022-08-28T08:05:48Z</time>
      </trkpt>
      <trkpt lat="45.98303" lon="6.90645">
        <ele>2475</ele>
        <time>2022-08-28T08:05:51Z</time>
      </trkpt>
      <trkpt lat="45.98301" lon="6.90643">
        <ele>2475</ele>
        <time>2022-08-28T08:05:53Z</time>
      </trkpt>
      <trkpt lat="45.98299" lon="6.90642">
        <ele>2475</ele>
        <time>2022-08-28T08:05:56Z</time>
      </trkpt>
      <trkpt lat="45.98297" lon="6.90641">
        <ele>2475</ele>
        <time>2022-08-28T08:05:58Z</time>
      </trkpt>
      <trkpt lat="45.98294" lon="6.90643">
        <ele>2475</ele>
        <time>2022-08-28T08:06:01Z</time>
      </trkpt>
      <trkpt lat="45.98292" lon="6.90643">
        <ele>2472</ele>
        <time>2022-08-28T08:06:04Z</time>
      </trkpt>
      <trkpt lat="45.9829" lon="6.90643">
        <ele>2472</ele>
        <time>2022-08-28T08:06:06Z</time>
      </trkpt>
      <trkpt lat="45.98287" lon="6.90642">
        <ele>2472</ele>
        <time>2022-08-28T08:06:09Z</time>
      </trkpt>
      <trkpt lat="45.98285" lon="6.9064">
        <ele>2474</ele>
        <time>2022-08-28T08:06:13Z</time>
      </trkpt>
      <trkpt lat="45.98283" lon="6.9064">
        <ele>2474</ele>
        <time>2022-08-28T08:06:16Z</time>
      </trkpt>
      <trkpt lat="45.98281" lon="6.9064">
        <ele>2474</ele>
        <time>2022-08-28T08:06:19Z</time>
      </trkpt>
      <trkpt lat="45.98278" lon="6.9064">
        <ele>2474</ele>
        <time>2022-08-28T08:06:23Z</time>
      </trkpt>
      <trkpt lat="45.98276" lon="6.9064">
        <ele>2474</ele>
        <time>2022-08-28T08:06:27Z</time>
      </trkpt>
      <trkpt lat="45.98274" lon="6.9064">
        <ele>2474</ele>
        <time>2022-08-28T08:06:29Z</time>
      </trkpt>
      <trkpt lat="45.98272" lon="6.9064">
        <ele>2474</ele>
        <time>2022-08-28T08:06:31Z</time>
      </trkpt>
      <trkpt lat="45.98269" lon="6.90641">
        <ele>2474</ele>
        <time>2022-08-28T08:06:34Z</time>
      </trkpt>
      <trkpt lat="45.98268" lon="6.90643">
        <ele>2474</ele>
        <time>2022-08-28T08:06:36Z</time>
      </trkpt>
      <trkpt lat="45.98265" lon="6.90645">
        <ele>2474</ele>
        <time>2022-08-28T08:06:39Z</time>
      </trkpt>
      <trkpt lat="45.98263" lon="6.90646">
        <ele>2474</ele>
        <time>2022-08-28T08:06:41Z</time>
      </trkpt>
      <trkpt lat="45.98261" lon="6.90647">
        <ele>2474</ele>
        <time>2022-08-28T08:06:44Z</time>
      </trkpt>
      <trkpt lat="45.98259" lon="6.90649">
        <ele>2474</ele>
        <time>2022-08-28T08:06:47Z</time>
      </trkpt>
      <trkpt lat="45.98258" lon="6.90651">
        <ele>2472</ele>
        <time>2022-08-28T08:06:49Z</time>
      </trkpt>
      <trkpt lat="45.98256" lon="6.90652">
        <ele>2472</ele>
        <time>2022-08-28T08:06:51Z</time>
      </trkpt>
      <trkpt lat="45.98254" lon="6.90654">
        <ele>2471</ele>
        <time>2022-08-28T08:06:53Z</time>
      </trkpt>
      <trkpt lat="45.98252" lon="6.90655">
        <ele>2471</ele>
        <time>2022-08-28T08:06:56Z</time>
      </trkpt>
      <trkpt lat="45.9825" lon="6.90656">
        <ele>2471</ele>
        <time>2022-08-28T08:06:59Z</time>
      </trkpt>
      <trkpt lat="45.98248" lon="6.90658">
        <ele>2471</ele>
        <time>2022-08-28T08:07:02Z</time>
      </trkpt>
      <trkpt lat="45.98248" lon="6.90658">
        <ele>2470</ele>
        <time>2022-08-28T08:07:14Z</time>
      </trkpt>
      <trkpt lat="45.98246" lon="6.90659">
        <ele>2470</ele>
        <time>2022-08-28T08:07:15Z</time>
      </trkpt>
      <trkpt lat="45.98245" lon="6.90662">
        <ele>2470</ele>
        <time>2022-08-28T08:07:18Z</time>
      </trkpt>
      <trkpt lat="45.98242" lon="6.90663">
        <ele>2470</ele>
        <time>2022-08-28T08:07:21Z</time>
      </trkpt>
      <trkpt lat="45.9824" lon="6.90661">
        <ele>2469</ele>
        <time>2022-08-28T08:07:23Z</time>
      </trkpt>
      <trkpt lat="45.98238" lon="6.90659">
        <ele>2468</ele>
        <time>2022-08-28T08:07:26Z</time>
      </trkpt>
      <trkpt lat="45.98237" lon="6.90657">
        <ele>2468</ele>
        <time>2022-08-28T08:07:29Z</time>
      </trkpt>
      <trkpt lat="45.98235" lon="6.90655">
        <ele>2468</ele>
        <time>2022-08-28T08:07:32Z</time>
      </trkpt>
      <trkpt lat="45.98233" lon="6.90653">
        <ele>2467</ele>
        <time>2022-08-28T08:07:35Z</time>
      </trkpt>
      <trkpt lat="45.98232" lon="6.90652">
        <ele>2467</ele>
        <time>2022-08-28T08:07:38Z</time>
      </trkpt>
      <trkpt lat="45.98229" lon="6.90652">
        <ele>2466</ele>
        <time>2022-08-28T08:07:42Z</time>
      </trkpt>
      <trkpt lat="45.98227" lon="6.9065">
        <ele>2465</ele>
        <time>2022-08-28T08:07:44Z</time>
      </trkpt>
      <trkpt lat="45.98226" lon="6.90647">
        <ele>2465</ele>
        <time>2022-08-28T08:07:47Z</time>
      </trkpt>
      <trkpt lat="45.98224" lon="6.90645">
        <ele>2463</ele>
        <time>2022-08-28T08:07:51Z</time>
      </trkpt>
      <trkpt lat="45.98222" lon="6.90643">
        <ele>2462</ele>
        <time>2022-08-28T08:07:57Z</time>
      </trkpt>
      <trkpt lat="45.9822" lon="6.90641">
        <ele>2461</ele>
        <time>2022-08-28T08:07:59Z</time>
      </trkpt>
      <trkpt lat="45.98219" lon="6.90639">
        <ele>2461</ele>
        <time>2022-08-28T08:08:01Z</time>
      </trkpt>
      <trkpt lat="45.98217" lon="6.90637">
        <ele>2461</ele>
        <time>2022-08-28T08:08:03Z</time>
      </trkpt>
      <trkpt lat="45.98215" lon="6.90635">
        <ele>2460</ele>
        <time>2022-08-28T08:08:05Z</time>
      </trkpt>
      <trkpt lat="45.98214" lon="6.90633">
        <ele>2460</ele>
        <time>2022-08-28T08:08:07Z</time>
      </trkpt>
      <trkpt lat="45.98212" lon="6.90629">
        <ele>2459</ele>
        <time>2022-08-28T08:08:09Z</time>
      </trkpt>
      <trkpt lat="45.98211" lon="6.90626">
        <ele>2458</ele>
        <time>2022-08-28T08:08:11Z</time>
      </trkpt>
      <trkpt lat="45.9821" lon="6.90623">
        <ele>2458</ele>
        <time>2022-08-28T08:08:13Z</time>
      </trkpt>
      <trkpt lat="45.9821" lon="6.90621">
        <ele>2458</ele>
        <time>2022-08-28T08:08:15Z</time>
      </trkpt>
      <trkpt lat="45.98209" lon="6.90618">
        <ele>2458</ele>
        <time>2022-08-28T08:08:17Z</time>
      </trkpt>
      <trkpt lat="45.98208" lon="6.90616">
        <ele>2456</ele>
        <time>2022-08-28T08:08:22Z</time>
      </trkpt>
      <trkpt lat="45.98206" lon="6.90615">
        <ele>2456</ele>
        <time>2022-08-28T08:08:25Z</time>
      </trkpt>
      <trkpt lat="45.98205" lon="6.90617">
        <ele>2454</ele>
        <time>2022-08-28T08:08:32Z</time>
      </trkpt>
      <trkpt lat="45.98204" lon="6.90619">
        <ele>2454</ele>
        <time>2022-08-28T08:08:35Z</time>
      </trkpt>
      <trkpt lat="45.98202" lon="6.90618">
        <ele>2452</ele>
        <time>2022-08-28T08:08:39Z</time>
      </trkpt>
      <trkpt lat="45.982" lon="6.90614">
        <ele>2451</ele>
        <time>2022-08-28T08:08:41Z</time>
      </trkpt>
      <trkpt lat="45.98199" lon="6.90612">
        <ele>2451</ele>
        <time>2022-08-28T08:08:42Z</time>
      </trkpt>
      <trkpt lat="45.98197" lon="6.90608">
        <ele>2450</ele>
        <time>2022-08-28T08:08:44Z</time>
      </trkpt>
      <trkpt lat="45.98196" lon="6.90605">
        <ele>2450</ele>
        <time>2022-08-28T08:08:46Z</time>
      </trkpt>
      <trkpt lat="45.98194" lon="6.90603">
        <ele>2448</ele>
        <time>2022-08-28T08:08:49Z</time>
      </trkpt>
      <trkpt lat="45.98192" lon="6.90603">
        <ele>2448</ele>
        <time>2022-08-28T08:08:53Z</time>
      </trkpt>
      <trkpt lat="45.9819" lon="6.90604">
        <ele>2446</ele>
        <time>2022-08-28T08:08:56Z</time>
      </trkpt>
      <trkpt lat="45.98188" lon="6.90602">
        <ele>2446</ele>
        <time>2022-08-28T08:08:59Z</time>
      </trkpt>
      <trkpt lat="45.98186" lon="6.90599">
        <ele>2445</ele>
        <time>2022-08-28T08:09:01Z</time>
      </trkpt>
      <trkpt lat="45.98184" lon="6.90596">
        <ele>2445</ele>
        <time>2022-08-28T08:09:03Z</time>
      </trkpt>
      <trkpt lat="45.98182" lon="6.90592">
        <ele>2445</ele>
        <time>2022-08-28T08:09:05Z</time>
      </trkpt>
      <trkpt lat="45.9818" lon="6.90588">
        <ele>2443</ele>
        <time>2022-08-28T08:09:07Z</time>
      </trkpt>
      <trkpt lat="45.98178" lon="6.90584">
        <ele>2443</ele>
        <time>2022-08-28T08:09:09Z</time>
      </trkpt>
      <trkpt lat="45.98177" lon="6.9058">
        <ele>2443</ele>
        <time>2022-08-28T08:09:11Z</time>
      </trkpt>
      <trkpt lat="45.98177" lon="6.90577">
        <ele>2444</ele>
        <time>2022-08-28T08:09:14Z</time>
      </trkpt>
      <trkpt lat="45.98176" lon="6.90574">
        <ele>2444</ele>
        <time>2022-08-28T08:09:18Z</time>
      </trkpt>
      <trkpt lat="45.98176" lon="6.90571">
        <ele>2444</ele>
        <time>2022-08-28T08:09:21Z</time>
      </trkpt>
      <trkpt lat="45.98174" lon="6.90568">
        <ele>2444</ele>
        <time>2022-08-28T08:09:24Z</time>
      </trkpt>
      <trkpt lat="45.98173" lon="6.90565">
        <ele>2445</ele>
        <time>2022-08-28T08:09:27Z</time>
      </trkpt>
      <trkpt lat="45.98172" lon="6.90562">
        <ele>2445</ele>
        <time>2022-08-28T08:09:31Z</time>
      </trkpt>
      <trkpt lat="45.98172" lon="6.90559">
        <ele>2445</ele>
        <time>2022-08-28T08:09:34Z</time>
      </trkpt>
      <trkpt lat="45.9817" lon="6.90557">
        <ele>2445</ele>
        <time>2022-08-28T08:09:38Z</time>
      </trkpt>
      <trkpt lat="45.98168" lon="6.90558">
        <ele>2445</ele>
        <time>2022-08-28T08:09:42Z</time>
      </trkpt>
      <trkpt lat="45.98166" lon="6.90557">
        <ele>2444</ele>
        <time>2022-08-28T08:09:45Z</time>
      </trkpt>
      <trkpt lat="45.98164" lon="6.90554">
        <ele>2443</ele>
        <time>2022-08-28T08:09:48Z</time>
      </trkpt>
      <trkpt lat="45.98164" lon="6.90551">
        <ele>2443</ele>
        <time>2022-08-28T08:09:51Z</time>
      </trkpt>
      <trkpt lat="45.98163" lon="6.90549">
        <ele>2442</ele>
        <time>2022-08-28T08:09:55Z</time>
      </trkpt>
      <trkpt lat="45.98161" lon="6.90547">
        <ele>2441</ele>
        <time>2022-08-28T08:10:02Z</time>
      </trkpt>
      <trkpt lat="45.9816" lon="6.90544">
        <ele>2440</ele>
        <time>2022-08-28T08:10:06Z</time>
      </trkpt>
      <trkpt lat="45.9816" lon="6.90542">
        <ele>2440</ele>
        <time>2022-08-28T08:10:09Z</time>
      </trkpt>
      <trkpt lat="45.98159" lon="6.90539">
        <ele>2439</ele>
        <time>2022-08-28T08:10:12Z</time>
      </trkpt>
      <trkpt lat="45.98157" lon="6.9054">
        <ele>2438</ele>
        <time>2022-08-28T08:10:18Z</time>
      </trkpt>
      <trkpt lat="45.98155" lon="6.90541">
        <ele>2438</ele>
        <time>2022-08-28T08:10:21Z</time>
      </trkpt>
      <trkpt lat="45.98154" lon="6.90539">
        <ele>2437</ele>
        <time>2022-08-28T08:10:23Z</time>
      </trkpt>
      <trkpt lat="45.98154" lon="6.90535">
        <ele>2436</ele>
        <time>2022-08-28T08:10:25Z</time>
      </trkpt>
      <trkpt lat="45.98155" lon="6.90532">
        <ele>2436</ele>
        <time>2022-08-28T08:10:27Z</time>
      </trkpt>
      <trkpt lat="45.98154" lon="6.90528">
        <ele>2436</ele>
        <time>2022-08-28T08:10:29Z</time>
      </trkpt>
      <trkpt lat="45.98155" lon="6.90526">
        <ele>2435</ele>
        <time>2022-08-28T08:10:31Z</time>
      </trkpt>
      <trkpt lat="45.98155" lon="6.90523">
        <ele>2435</ele>
        <time>2022-08-28T08:10:34Z</time>
      </trkpt>
      <trkpt lat="45.98153" lon="6.90523">
        <ele>2435</ele>
        <time>2022-08-28T08:10:38Z</time>
      </trkpt>
      <trkpt lat="45.98151" lon="6.90523">
        <ele>2434</ele>
        <time>2022-08-28T08:10:40Z</time>
      </trkpt>
      <trkpt lat="45.98149" lon="6.90522">
        <ele>2433</ele>
        <time>2022-08-28T08:10:42Z</time>
      </trkpt>
      <trkpt lat="45.98149" lon="6.90519">
        <ele>2432</ele>
        <time>2022-08-28T08:10:45Z</time>
      </trkpt>
      <trkpt lat="45.9815" lon="6.90516">
        <ele>2432</ele>
        <time>2022-08-28T08:10:48Z</time>
      </trkpt>
      <trkpt lat="45.9815" lon="6.90512">
        <ele>2431</ele>
        <time>2022-08-28T08:10:51Z</time>
      </trkpt>
      <trkpt lat="45.98147" lon="6.90514">
        <ele>2430</ele>
        <time>2022-08-28T08:10:55Z</time>
      </trkpt>
      <trkpt lat="45.98146" lon="6.90514">
        <ele>2430</ele>
        <time>2022-08-28T08:10:58Z</time>
      </trkpt>
      <trkpt lat="45.98145" lon="6.90515">
        <ele>2428</ele>
        <time>2022-08-28T08:10:59Z</time>
      </trkpt>
      <trkpt lat="45.98144" lon="6.90516">
        <ele>2428</ele>
        <time>2022-08-28T08:11:00Z</time>
      </trkpt>
      <trkpt lat="45.98143" lon="6.90517">
        <ele>2427</ele>
        <time>2022-08-28T08:11:02Z</time>
      </trkpt>
      <trkpt lat="45.98141" lon="6.90518">
        <ele>2427</ele>
        <time>2022-08-28T08:11:03Z</time>
      </trkpt>
      <trkpt lat="45.9814" lon="6.90518">
        <ele>2427</ele>
        <time>2022-08-28T08:11:04Z</time>
      </trkpt>
      <trkpt lat="45.98139" lon="6.90519">
        <ele>2427</ele>
        <time>2022-08-28T08:11:05Z</time>
      </trkpt>
      <trkpt lat="45.98137" lon="6.90516">
        <ele>2426</ele>
        <time>2022-08-28T08:11:09Z</time>
      </trkpt>
      <trkpt lat="45.98137" lon="6.90513">
        <ele>2424</ele>
        <time>2022-08-28T08:11:11Z</time>
      </trkpt>
      <trkpt lat="45.98137" lon="6.90509">
        <ele>2424</ele>
        <time>2022-08-28T08:11:13Z</time>
      </trkpt>
      <trkpt lat="45.98137" lon="6.90506">
        <ele>2424</ele>
        <time>2022-08-28T08:11:15Z</time>
      </trkpt>
      <trkpt lat="45.98136" lon="6.90503">
        <ele>2423</ele>
        <time>2022-08-28T08:11:17Z</time>
      </trkpt>
      <trkpt lat="45.98134" lon="6.905">
        <ele>2422</ele>
        <time>2022-08-28T08:11:19Z</time>
      </trkpt>
      <trkpt lat="45.98133" lon="6.90497">
        <ele>2421</ele>
        <time>2022-08-28T08:11:21Z</time>
      </trkpt>
      <trkpt lat="45.98134" lon="6.90494">
        <ele>2421</ele>
        <time>2022-08-28T08:11:23Z</time>
      </trkpt>
      <trkpt lat="45.98133" lon="6.90491">
        <ele>2420</ele>
        <time>2022-08-28T08:11:25Z</time>
      </trkpt>
      <trkpt lat="45.98131" lon="6.90489">
        <ele>2419</ele>
        <time>2022-08-28T08:11:28Z</time>
      </trkpt>
      <trkpt lat="45.98129" lon="6.9049">
        <ele>2419</ele>
        <time>2022-08-28T08:11:30Z</time>
      </trkpt>
      <trkpt lat="45.98127" lon="6.90492">
        <ele>2419</ele>
        <time>2022-08-28T08:11:32Z</time>
      </trkpt>
      <trkpt lat="45.98125" lon="6.90495">
        <ele>2418</ele>
        <time>2022-08-28T08:11:34Z</time>
      </trkpt>
      <trkpt lat="45.98123" lon="6.90499">
        <ele>2418</ele>
        <time>2022-08-28T08:11:36Z</time>
      </trkpt>
      <trkpt lat="45.98122" lon="6.905">
        <ele>2418</ele>
        <time>2022-08-28T08:11:38Z</time>
      </trkpt>
      <trkpt lat="45.98121" lon="6.90501">
        <ele>2417</ele>
        <time>2022-08-28T08:11:40Z</time>
      </trkpt>
      <trkpt lat="45.9812" lon="6.90503">
        <ele>2416</ele>
        <time>2022-08-28T08:11:41Z</time>
      </trkpt>
      <trkpt lat="45.98119" lon="6.90502">
        <ele>2415</ele>
        <time>2022-08-28T08:11:42Z</time>
      </trkpt>
      <trkpt lat="45.98118" lon="6.90501">
        <ele>2415</ele>
        <time>2022-08-28T08:11:43Z</time>
      </trkpt>
      <trkpt lat="45.98117" lon="6.905">
        <ele>2415</ele>
        <time>2022-08-28T08:11:45Z</time>
      </trkpt>
      <trkpt lat="45.98116" lon="6.90499">
        <ele>2415</ele>
        <time>2022-08-28T08:11:46Z</time>
      </trkpt>
      <trkpt lat="45.98115" lon="6.90495">
        <ele>2414</ele>
        <time>2022-08-28T08:11:49Z</time>
      </trkpt>
      <trkpt lat="45.98113" lon="6.90494">
        <ele>2413</ele>
        <time>2022-08-28T08:11:52Z</time>
      </trkpt>
      <trkpt lat="45.98111" lon="6.90493">
        <ele>2411</ele>
        <time>2022-08-28T08:11:59Z</time>
      </trkpt>
      <trkpt lat="45.98109" lon="6.90492">
        <ele>2411</ele>
        <time>2022-08-28T08:12:03Z</time>
      </trkpt>
      <trkpt lat="45.98106" lon="6.90492">
        <ele>2411</ele>
        <time>2022-08-28T08:12:07Z</time>
      </trkpt>
      <trkpt lat="45.98104" lon="6.90494">
        <ele>2409</ele>
        <time>2022-08-28T08:12:10Z</time>
      </trkpt>
      <trkpt lat="45.98102" lon="6.90495">
        <ele>2409</ele>
        <time>2022-08-28T08:12:12Z</time>
      </trkpt>
      <trkpt lat="45.981" lon="6.90497">
        <ele>2409</ele>
        <time>2022-08-28T08:12:14Z</time>
      </trkpt>
      <trkpt lat="45.98098" lon="6.90498">
        <ele>2409</ele>
        <time>2022-08-28T08:12:16Z</time>
      </trkpt>
      <trkpt lat="45.98097" lon="6.90499">
        <ele>2407</ele>
        <time>2022-08-28T08:12:21Z</time>
      </trkpt>
      <trkpt lat="45.98094" lon="6.905">
        <ele>2406</ele>
        <time>2022-08-28T08:12:24Z</time>
      </trkpt>
      <trkpt lat="45.98092" lon="6.90499">
        <ele>2405</ele>
        <time>2022-08-28T08:12:27Z</time>
      </trkpt>
      <trkpt lat="45.9809" lon="6.90497">
        <ele>2405</ele>
        <time>2022-08-28T08:12:30Z</time>
      </trkpt>
      <trkpt lat="45.98089" lon="6.90493">
        <ele>2404</ele>
        <time>2022-08-28T08:12:33Z</time>
      </trkpt>
      <trkpt lat="45.98088" lon="6.90491">
        <ele>2404</ele>
        <time>2022-08-28T08:12:36Z</time>
      </trkpt>
      <trkpt lat="45.98087" lon="6.90488">
        <ele>2402</ele>
        <time>2022-08-28T08:12:39Z</time>
      </trkpt>
      <trkpt lat="45.98085" lon="6.90486">
        <ele>2402</ele>
        <time>2022-08-28T08:12:42Z</time>
      </trkpt>
      <trkpt lat="45.98083" lon="6.90484">
        <ele>2401</ele>
        <time>2022-08-28T08:12:46Z</time>
      </trkpt>
      <trkpt lat="45.98082" lon="6.90482">
        <ele>2401</ele>
        <time>2022-08-28T08:12:48Z</time>
      </trkpt>
      <trkpt lat="45.9808" lon="6.9048">
        <ele>2400</ele>
        <time>2022-08-28T08:12:51Z</time>
      </trkpt>
      <trkpt lat="45.98078" lon="6.90479">
        <ele>2399</ele>
        <time>2022-08-28T08:12:55Z</time>
      </trkpt>
      <trkpt lat="45.98076" lon="6.90479">
        <ele>2399</ele>
        <time>2022-08-28T08:12:57Z</time>
      </trkpt>
      <trkpt lat="45.98074" lon="6.90478">
        <ele>2399</ele>
        <time>2022-08-28T08:13:00Z</time>
      </trkpt>
      <trkpt lat="45.98071" lon="6.9048">
        <ele>2398</ele>
        <time>2022-08-28T08:13:02Z</time>
      </trkpt>
      <trkpt lat="45.98069" lon="6.9048">
        <ele>2398</ele>
        <time>2022-08-28T08:13:04Z</time>
      </trkpt>
      <trkpt lat="45.98066" lon="6.90479">
        <ele>2398</ele>
        <time>2022-08-28T08:13:06Z</time>
      </trkpt>
      <trkpt lat="45.98065" lon="6.90478">
        <ele>2398</ele>
        <time>2022-08-28T08:13:08Z</time>
      </trkpt>
      <trkpt lat="45.98062" lon="6.90479">
        <ele>2397</ele>
        <time>2022-08-28T08:13:12Z</time>
      </trkpt>
      <trkpt lat="45.9806" lon="6.90479">
        <ele>2396</ele>
        <time>2022-08-28T08:13:14Z</time>
      </trkpt>
      <trkpt lat="45.98059" lon="6.90479">
        <ele>2396</ele>
        <time>2022-08-28T08:13:16Z</time>
      </trkpt>
      <trkpt lat="45.98056" lon="6.90479">
        <ele>2396</ele>
        <time>2022-08-28T08:13:18Z</time>
      </trkpt>
      <trkpt lat="45.98054" lon="6.90478">
        <ele>2395</ele>
        <time>2022-08-28T08:13:20Z</time>
      </trkpt>
      <trkpt lat="45.98052" lon="6.90476">
        <ele>2395</ele>
        <time>2022-08-28T08:13:22Z</time>
      </trkpt>
      <trkpt lat="45.9805" lon="6.90474">
        <ele>2395</ele>
        <time>2022-08-28T08:13:24Z</time>
      </trkpt>
      <trkpt lat="45.98048" lon="6.90472">
        <ele>2395</ele>
        <time>2022-08-28T08:13:26Z</time>
      </trkpt>
      <trkpt lat="45.98046" lon="6.90469">
        <ele>2394</ele>
        <time>2022-08-28T08:13:28Z</time>
      </trkpt>
      <trkpt lat="45.98045" lon="6.90466">
        <ele>2394</ele>
        <time>2022-08-28T08:13:31Z</time>
      </trkpt>
      <trkpt lat="45.98044" lon="6.90463">
        <ele>2393</ele>
        <time>2022-08-28T08:13:34Z</time>
      </trkpt>
      <trkpt lat="45.98043" lon="6.90461">
        <ele>2393</ele>
        <time>2022-08-28T08:13:42Z</time>
      </trkpt>
      <trkpt lat="45.98043" lon="6.90461">
        <ele>2393</ele>
        <time>2022-08-28T08:13:53Z</time>
      </trkpt>
      <trkpt lat="45.98042" lon="6.90458">
        <ele>2393</ele>
        <time>2022-08-28T08:13:56Z</time>
      </trkpt>
      <trkpt lat="45.98041" lon="6.90456">
        <ele>2391</ele>
        <time>2022-08-28T08:14:06Z</time>
      </trkpt>
      <trkpt lat="45.9804" lon="6.90454">
        <ele>2390</ele>
        <time>2022-08-28T08:14:10Z</time>
      </trkpt>
      <trkpt lat="45.9804" lon="6.9045">
        <ele>2389</ele>
        <time>2022-08-28T08:14:14Z</time>
      </trkpt>
      <trkpt lat="45.98039" lon="6.90447">
        <ele>2389</ele>
        <time>2022-08-28T08:14:17Z</time>
      </trkpt>
      <trkpt lat="45.98038" lon="6.90445">
        <ele>2388</ele>
        <time>2022-08-28T08:14:21Z</time>
      </trkpt>
      <trkpt lat="45.98036" lon="6.90443">
        <ele>2388</ele>
        <time>2022-08-28T08:14:27Z</time>
      </trkpt>
      <trkpt lat="45.98035" lon="6.90439">
        <ele>2385</ele>
        <time>2022-08-28T08:14:29Z</time>
      </trkpt>
      <trkpt lat="45.98035" lon="6.90436">
        <ele>2386</ele>
        <time>2022-08-28T08:14:31Z</time>
      </trkpt>
      <trkpt lat="45.98035" lon="6.90433">
        <ele>2386</ele>
        <time>2022-08-28T08:14:33Z</time>
      </trkpt>
      <trkpt lat="45.98035" lon="6.9043">
        <ele>2385</ele>
        <time>2022-08-28T08:14:35Z</time>
      </trkpt>
      <trkpt lat="45.98034" lon="6.90427">
        <ele>2385</ele>
        <time>2022-08-28T08:14:38Z</time>
      </trkpt>
      <trkpt lat="45.98032" lon="6.90428">
        <ele>2384</ele>
        <time>2022-08-28T08:14:41Z</time>
      </trkpt>
      <trkpt lat="45.9803" lon="6.9043">
        <ele>2383</ele>
        <time>2022-08-28T08:14:43Z</time>
      </trkpt>
      <trkpt lat="45.9803" lon="6.90431">
        <ele>2383</ele>
        <time>2022-08-28T08:14:44Z</time>
      </trkpt>
      <trkpt lat="45.9803" lon="6.90432">
        <ele>2383</ele>
        <time>2022-08-28T08:14:46Z</time>
      </trkpt>
      <trkpt lat="45.98029" lon="6.90433">
        <ele>2383</ele>
        <time>2022-08-28T08:14:47Z</time>
      </trkpt>
      <trkpt lat="45.98029" lon="6.90433">
        <ele>2383</ele>
        <time>2022-08-28T08:14:48Z</time>
      </trkpt>
      <trkpt lat="45.98028" lon="6.90434">
        <ele>2383</ele>
        <time>2022-08-28T08:14:49Z</time>
      </trkpt>
      <trkpt lat="45.98028" lon="6.90435">
        <ele>2383</ele>
        <time>2022-08-28T08:14:50Z</time>
      </trkpt>
      <trkpt lat="45.98028" lon="6.90436">
        <ele>2382</ele>
        <time>2022-08-28T08:14:51Z</time>
      </trkpt>
      <trkpt lat="45.98027" lon="6.90436">
        <ele>2382</ele>
        <time>2022-08-28T08:14:53Z</time>
      </trkpt>
      <trkpt lat="45.98027" lon="6.90437">
        <ele>2382</ele>
        <time>2022-08-28T08:14:54Z</time>
      </trkpt>
      <trkpt lat="45.98027" lon="6.90438">
        <ele>2382</ele>
        <time>2022-08-28T08:14:55Z</time>
      </trkpt>
      <trkpt lat="45.98026" lon="6.90439">
        <ele>2382</ele>
        <time>2022-08-28T08:14:56Z</time>
      </trkpt>
      <trkpt lat="45.98026" lon="6.90439">
        <ele>2381</ele>
        <time>2022-08-28T08:14:58Z</time>
      </trkpt>
      <trkpt lat="45.98025" lon="6.9044">
        <ele>2381</ele>
        <time>2022-08-28T08:14:59Z</time>
      </trkpt>
      <trkpt lat="45.98025" lon="6.90441">
        <ele>2381</ele>
        <time>2022-08-28T08:15:00Z</time>
      </trkpt>
      <trkpt lat="45.98025" lon="6.90442">
        <ele>2381</ele>
        <time>2022-08-28T08:15:01Z</time>
      </trkpt>
      <trkpt lat="45.98024" lon="6.90442">
        <ele>2380</ele>
        <time>2022-08-28T08:15:03Z</time>
      </trkpt>
      <trkpt lat="45.98023" lon="6.90442">
        <ele>2380</ele>
        <time>2022-08-28T08:15:05Z</time>
      </trkpt>
      <trkpt lat="45.98023" lon="6.90442">
        <ele>2380</ele>
        <time>2022-08-28T08:15:06Z</time>
      </trkpt>
      <trkpt lat="45.98022" lon="6.90442">
        <ele>2379</ele>
        <time>2022-08-28T08:15:07Z</time>
      </trkpt>
      <trkpt lat="45.98021" lon="6.90442">
        <ele>2379</ele>
        <time>2022-08-28T08:15:08Z</time>
      </trkpt>
      <trkpt lat="45.9802" lon="6.90443">
        <ele>2378</ele>
        <time>2022-08-28T08:15:09Z</time>
      </trkpt>
      <trkpt lat="45.98019" lon="6.9044">
        <ele>2378</ele>
        <time>2022-08-28T08:15:10Z</time>
      </trkpt>
      <trkpt lat="45.98018" lon="6.90436">
        <ele>2378</ele>
        <time>2022-08-28T08:15:14Z</time>
      </trkpt>
      <trkpt lat="45.98017" lon="6.90433">
        <ele>2378</ele>
        <time>2022-08-28T08:15:16Z</time>
      </trkpt>
      <trkpt lat="45.98016" lon="6.9043">
        <ele>2378</ele>
        <time>2022-08-28T08:15:18Z</time>
      </trkpt>
      <trkpt lat="45.98015" lon="6.90426">
        <ele>2376</ele>
        <time>2022-08-28T08:15:20Z</time>
      </trkpt>
      <trkpt lat="45.98014" lon="6.90422">
        <ele>2374</ele>
        <time>2022-08-28T08:15:22Z</time>
      </trkpt>
      <trkpt lat="45.98014" lon="6.90418">
        <ele>2374</ele>
        <time>2022-08-28T08:15:24Z</time>
      </trkpt>
      <trkpt lat="45.98014" lon="6.90413">
        <ele>2374</ele>
        <time>2022-08-28T08:15:26Z</time>
      </trkpt>
      <trkpt lat="45.98015" lon="6.9041">
        <ele>2374</ele>
        <time>2022-08-28T08:15:28Z</time>
      </trkpt>
      <trkpt lat="45.98017" lon="6.90408">
        <ele>2374</ele>
        <time>2022-08-28T08:15:31Z</time>
      </trkpt>
      <trkpt lat="45.98017" lon="6.90408">
        <ele>2374</ele>
        <time>2022-08-28T08:15:50Z</time>
      </trkpt>
      <trkpt lat="45.98017" lon="6.90406">
        <ele>2374</ele>
        <time>2022-08-28T08:15:54Z</time>
      </trkpt>
      <trkpt lat="45.98019" lon="6.90403">
        <ele>2373</ele>
        <time>2022-08-28T08:15:56Z</time>
      </trkpt>
      <trkpt lat="45.98021" lon="6.904">
        <ele>2373</ele>
        <time>2022-08-28T08:15:58Z</time>
      </trkpt>
      <trkpt lat="45.98021" lon="6.90396">
        <ele>2373</ele>
        <time>2022-08-28T08:16:00Z</time>
      </trkpt>
      <trkpt lat="45.98022" lon="6.90392">
        <ele>2372</ele>
        <time>2022-08-28T08:16:02Z</time>
      </trkpt>
      <trkpt lat="45.98022" lon="6.90388">
        <ele>2372</ele>
        <time>2022-08-28T08:16:04Z</time>
      </trkpt>
      <trkpt lat="45.98024" lon="6.90385">
        <ele>2372</ele>
        <time>2022-08-28T08:16:06Z</time>
      </trkpt>
      <trkpt lat="45.98024" lon="6.90381">
        <ele>2372</ele>
        <time>2022-08-28T08:16:08Z</time>
      </trkpt>
      <trkpt lat="45.98024" lon="6.90377">
        <ele>2372</ele>
        <time>2022-08-28T08:16:10Z</time>
      </trkpt>
      <trkpt lat="45.98024" lon="6.90374">
        <ele>2371</ele>
        <time>2022-08-28T08:16:12Z</time>
      </trkpt>
      <trkpt lat="45.98024" lon="6.90371">
        <ele>2370</ele>
        <time>2022-08-28T08:16:14Z</time>
      </trkpt>
      <trkpt lat="45.98025" lon="6.90369">
        <ele>2370</ele>
        <time>2022-08-28T08:16:16Z</time>
      </trkpt>
      <trkpt lat="45.98024" lon="6.90365">
        <ele>2370</ele>
        <time>2022-08-28T08:16:19Z</time>
      </trkpt>
      <trkpt lat="45.98023" lon="6.90362">
        <ele>2369</ele>
        <time>2022-08-28T08:16:22Z</time>
      </trkpt>
      <trkpt lat="45.98022" lon="6.90359">
        <ele>2369</ele>
        <time>2022-08-28T08:16:24Z</time>
      </trkpt>
      <trkpt lat="45.98021" lon="6.90357">
        <ele>2368</ele>
        <time>2022-08-28T08:16:26Z</time>
      </trkpt>
      <trkpt lat="45.98019" lon="6.90354">
        <ele>2368</ele>
        <time>2022-08-28T08:16:28Z</time>
      </trkpt>
      <trkpt lat="45.98017" lon="6.90354">
        <ele>2368</ele>
        <time>2022-08-28T08:16:30Z</time>
      </trkpt>
      <trkpt lat="45.98015" lon="6.90354">
        <ele>2367</ele>
        <time>2022-08-28T08:16:32Z</time>
      </trkpt>
      <trkpt lat="45.98012" lon="6.90355">
        <ele>2367</ele>
        <time>2022-08-28T08:16:35Z</time>
      </trkpt>
      <trkpt lat="45.98009" lon="6.90354">
        <ele>2366</ele>
        <time>2022-08-28T08:16:37Z</time>
      </trkpt>
      <trkpt lat="45.98006" lon="6.90354">
        <ele>2366</ele>
        <time>2022-08-28T08:16:39Z</time>
      </trkpt>
      <trkpt lat="45.98004" lon="6.90355">
        <ele>2366</ele>
        <time>2022-08-28T08:16:41Z</time>
      </trkpt>
      <trkpt lat="45.98001" lon="6.90355">
        <ele>2365</ele>
        <time>2022-08-28T08:16:43Z</time>
      </trkpt>
      <trkpt lat="45.97999" lon="6.90355">
        <ele>2365</ele>
        <time>2022-08-28T08:16:44Z</time>
      </trkpt>
      <trkpt lat="45.97996" lon="6.90354">
        <ele>2365</ele>
        <time>2022-08-28T08:16:46Z</time>
      </trkpt>
      <trkpt lat="45.97994" lon="6.90354">
        <ele>2365</ele>
        <time>2022-08-28T08:16:48Z</time>
      </trkpt>
      <trkpt lat="45.97993" lon="6.90353">
        <ele>2364</ele>
        <time>2022-08-28T08:16:49Z</time>
      </trkpt>
      <trkpt lat="45.9799" lon="6.90352">
        <ele>2362</ele>
        <time>2022-08-28T08:16:57Z</time>
      </trkpt>
      <trkpt lat="45.97988" lon="6.90353">
        <ele>2362</ele>
        <time>2022-08-28T08:16:59Z</time>
      </trkpt>
      <trkpt lat="45.97986" lon="6.90355">
        <ele>2361</ele>
        <time>2022-08-28T08:17:01Z</time>
      </trkpt>
      <trkpt lat="45.97982" lon="6.90355">
        <ele>2361</ele>
        <time>2022-08-28T08:17:03Z</time>
      </trkpt>
      <trkpt lat="45.97979" lon="6.90355">
        <ele>2361</ele>
        <time>2022-08-28T08:17:05Z</time>
      </trkpt>
      <trkpt lat="45.97977" lon="6.90356">
        <ele>2360</ele>
        <time>2022-08-28T08:17:07Z</time>
      </trkpt>
      <trkpt lat="45.97974" lon="6.90356">
        <ele>2359</ele>
        <time>2022-08-28T08:17:09Z</time>
      </trkpt>
      <trkpt lat="45.97972" lon="6.90355">
        <ele>2359</ele>
        <time>2022-08-28T08:17:12Z</time>
      </trkpt>
      <trkpt lat="45.9797" lon="6.90356">
        <ele>2359</ele>
        <time>2022-08-28T08:17:14Z</time>
      </trkpt>
      <trkpt lat="45.97967" lon="6.90357">
        <ele>2359</ele>
        <time>2022-08-28T08:17:16Z</time>
      </trkpt>
      <trkpt lat="45.97965" lon="6.90358">
        <ele>2359</ele>
        <time>2022-08-28T08:17:19Z</time>
      </trkpt>
      <trkpt lat="45.97963" lon="6.90358">
        <ele>2358</ele>
        <time>2022-08-28T08:17:21Z</time>
      </trkpt>
      <trkpt lat="45.97961" lon="6.90359">
        <ele>2357</ele>
        <time>2022-08-28T08:17:23Z</time>
      </trkpt>
      <trkpt lat="45.97959" lon="6.9036">
        <ele>2357</ele>
        <time>2022-08-28T08:17:25Z</time>
      </trkpt>
      <trkpt lat="45.97956" lon="6.9036">
        <ele>2356</ele>
        <time>2022-08-28T08:17:27Z</time>
      </trkpt>
      <trkpt lat="45.97954" lon="6.90361">
        <ele>2355</ele>
        <time>2022-08-28T08:17:29Z</time>
      </trkpt>
      <trkpt lat="45.97951" lon="6.90362">
        <ele>2355</ele>
        <time>2022-08-28T08:17:31Z</time>
      </trkpt>
      <trkpt lat="45.97949" lon="6.90362">
        <ele>2355</ele>
        <time>2022-08-28T08:17:32Z</time>
      </trkpt>
      <trkpt lat="45.97946" lon="6.90362">
        <ele>2355</ele>
        <time>2022-08-28T08:17:34Z</time>
      </trkpt>
      <trkpt lat="45.97943" lon="6.90363">
        <ele>2355</ele>
        <time>2022-08-28T08:17:36Z</time>
      </trkpt>
      <trkpt lat="45.9794" lon="6.90365">
        <ele>2355</ele>
        <time>2022-08-28T08:17:38Z</time>
      </trkpt>
      <trkpt lat="45.97937" lon="6.90366">
        <ele>2354</ele>
        <time>2022-08-28T08:17:40Z</time>
      </trkpt>
      <trkpt lat="45.97934" lon="6.90367">
        <ele>2354</ele>
        <time>2022-08-28T08:17:42Z</time>
      </trkpt>
      <trkpt lat="45.97931" lon="6.90367">
        <ele>2353</ele>
        <time>2022-08-28T08:17:44Z</time>
      </trkpt>
      <trkpt lat="45.9793" lon="6.90366">
        <ele>2353</ele>
        <time>2022-08-28T08:17:46Z</time>
      </trkpt>
      <trkpt lat="45.97927" lon="6.90365">
        <ele>2353</ele>
        <time>2022-08-28T08:17:48Z</time>
      </trkpt>
      <trkpt lat="45.97925" lon="6.90364">
        <ele>2353</ele>
        <time>2022-08-28T08:17:50Z</time>
      </trkpt>
      <trkpt lat="45.97923" lon="6.90365">
        <ele>2352</ele>
        <time>2022-08-28T08:17:52Z</time>
      </trkpt>
      <trkpt lat="45.97921" lon="6.90365">
        <ele>2352</ele>
        <time>2022-08-28T08:17:54Z</time>
      </trkpt>
      <trkpt lat="45.97919" lon="6.90364">
        <ele>2352</ele>
        <time>2022-08-28T08:17:56Z</time>
      </trkpt>
      <trkpt lat="45.97917" lon="6.90364">
        <ele>2350</ele>
        <time>2022-08-28T08:17:58Z</time>
      </trkpt>
      <trkpt lat="45.97914" lon="6.90364">
        <ele>2350</ele>
        <time>2022-08-28T08:18:00Z</time>
      </trkpt>
      <trkpt lat="45.97911" lon="6.90363">
        <ele>2350</ele>
        <time>2022-08-28T08:18:02Z</time>
      </trkpt>
      <trkpt lat="45.97909" lon="6.90361">
        <ele>2350</ele>
        <time>2022-08-28T08:18:05Z</time>
      </trkpt>
      <trkpt lat="45.97907" lon="6.90359">
        <ele>2349</ele>
        <time>2022-08-28T08:18:07Z</time>
      </trkpt>
      <trkpt lat="45.97905" lon="6.90357">
        <ele>2349</ele>
        <time>2022-08-28T08:18:09Z</time>
      </trkpt>
      <trkpt lat="45.97903" lon="6.90355">
        <ele>2349</ele>
        <time>2022-08-28T08:18:11Z</time>
      </trkpt>
      <trkpt lat="45.97901" lon="6.90354">
        <ele>2347</ele>
        <time>2022-08-28T08:18:13Z</time>
      </trkpt>
      <trkpt lat="45.97898" lon="6.90351">
        <ele>2347</ele>
        <time>2022-08-28T08:18:15Z</time>
      </trkpt>
      <trkpt lat="45.97896" lon="6.90348">
        <ele>2346</ele>
        <time>2022-08-28T08:18:17Z</time>
      </trkpt>
      <trkpt lat="45.97895" lon="6.90345">
        <ele>2345</ele>
        <time>2022-08-28T08:18:19Z</time>
      </trkpt>
      <trkpt lat="45.97894" lon="6.90343">
        <ele>2345</ele>
        <time>2022-08-28T08:18:21Z</time>
      </trkpt>
      <trkpt lat="45.97893" lon="6.9034">
        <ele>2345</ele>
        <time>2022-08-28T08:18:23Z</time>
      </trkpt>
      <trkpt lat="45.97891" lon="6.90339">
        <ele>2344</ele>
        <time>2022-08-28T08:18:27Z</time>
      </trkpt>
      <trkpt lat="45.9789" lon="6.90336">
        <ele>2344</ele>
        <time>2022-08-28T08:18:30Z</time>
      </trkpt>
      <trkpt lat="45.97889" lon="6.90332">
        <ele>2344</ele>
        <time>2022-08-28T08:18:33Z</time>
      </trkpt>
      <trkpt lat="45.97888" lon="6.9033">
        <ele>2344</ele>
        <time>2022-08-28T08:18:35Z</time>
      </trkpt>
      <trkpt lat="45.97886" lon="6.90327">
        <ele>2342</ele>
        <time>2022-08-28T08:18:38Z</time>
      </trkpt>
      <trkpt lat="45.97885" lon="6.90325">
        <ele>2342</ele>
        <time>2022-08-28T08:18:40Z</time>
      </trkpt>
      <trkpt lat="45.97884" lon="6.90322">
        <ele>2341</ele>
        <time>2022-08-28T08:18:42Z</time>
      </trkpt>
      <trkpt lat="45.97883" lon="6.90319">
        <ele>2341</ele>
        <time>2022-08-28T08:18:44Z</time>
      </trkpt>
      <trkpt lat="45.97883" lon="6.90316">
        <ele>2341</ele>
        <time>2022-08-28T08:18:46Z</time>
      </trkpt>
      <trkpt lat="45.97882" lon="6.90313">
        <ele>2340</ele>
        <time>2022-08-28T08:18:49Z</time>
      </trkpt>
      <trkpt lat="45.9788" lon="6.9031">
        <ele>2340</ele>
        <time>2022-08-28T08:18:52Z</time>
      </trkpt>
      <trkpt lat="45.97879" lon="6.90308">
        <ele>2340</ele>
        <time>2022-08-28T08:18:54Z</time>
      </trkpt>
      <trkpt lat="45.97879" lon="6.90305">
        <ele>2339</ele>
        <time>2022-08-28T08:18:56Z</time>
      </trkpt>
      <trkpt lat="45.97878" lon="6.90301">
        <ele>2338</ele>
        <time>2022-08-28T08:18:58Z</time>
      </trkpt>
      <trkpt lat="45.97878" lon="6.90298">
        <ele>2338</ele>
        <time>2022-08-28T08:19:00Z</time>
      </trkpt>
      <trkpt lat="45.97877" lon="6.90294">
        <ele>2338</ele>
        <time>2022-08-28T08:19:02Z</time>
      </trkpt>
      <trkpt lat="45.97875" lon="6.9029">
        <ele>2338</ele>
        <time>2022-08-28T08:19:04Z</time>
      </trkpt>
      <trkpt lat="45.97874" lon="6.90286">
        <ele>2338</ele>
        <time>2022-08-28T08:19:06Z</time>
      </trkpt>
      <trkpt lat="45.97874" lon="6.90282">
        <ele>2337</ele>
        <time>2022-08-28T08:19:08Z</time>
      </trkpt>
      <trkpt lat="45.97873" lon="6.90279">
        <ele>2337</ele>
        <time>2022-08-28T08:19:10Z</time>
      </trkpt>
      <trkpt lat="45.97872" lon="6.90275">
        <ele>2337</ele>
        <time>2022-08-28T08:19:12Z</time>
      </trkpt>
      <trkpt lat="45.97871" lon="6.90272">
        <ele>2338</ele>
        <time>2022-08-28T08:19:14Z</time>
      </trkpt>
      <trkpt lat="45.9787" lon="6.90269">
        <ele>2338</ele>
        <time>2022-08-28T08:19:16Z</time>
      </trkpt>
      <trkpt lat="45.9787" lon="6.90265">
        <ele>2338</ele>
        <time>2022-08-28T08:19:18Z</time>
      </trkpt>
      <trkpt lat="45.97869" lon="6.90262">
        <ele>2337</ele>
        <time>2022-08-28T08:19:20Z</time>
      </trkpt>
      <trkpt lat="45.97868" lon="6.90258">
        <ele>2336</ele>
        <time>2022-08-28T08:19:22Z</time>
      </trkpt>
      <trkpt lat="45.97868" lon="6.90254">
        <ele>2336</ele>
        <time>2022-08-28T08:19:24Z</time>
      </trkpt>
      <trkpt lat="45.97868" lon="6.9025">
        <ele>2336</ele>
        <time>2022-08-28T08:19:26Z</time>
      </trkpt>
      <trkpt lat="45.97869" lon="6.90247">
        <ele>2336</ele>
        <time>2022-08-28T08:19:28Z</time>
      </trkpt>
      <trkpt lat="45.97868" lon="6.90243">
        <ele>2335</ele>
        <time>2022-08-28T08:19:30Z</time>
      </trkpt>
      <trkpt lat="45.97868" lon="6.90239">
        <ele>2335</ele>
        <time>2022-08-28T08:19:32Z</time>
      </trkpt>
      <trkpt lat="45.97868" lon="6.90235">
        <ele>2334</ele>
        <time>2022-08-28T08:19:34Z</time>
      </trkpt>
      <trkpt lat="45.97869" lon="6.90232">
        <ele>2333</ele>
        <time>2022-08-28T08:19:36Z</time>
      </trkpt>
      <trkpt lat="45.97871" lon="6.90229">
        <ele>2333</ele>
        <time>2022-08-28T08:19:38Z</time>
      </trkpt>
      <trkpt lat="45.97872" lon="6.90226">
        <ele>2332</ele>
        <time>2022-08-28T08:19:40Z</time>
      </trkpt>
      <trkpt lat="45.97872" lon="6.90224">
        <ele>2332</ele>
        <time>2022-08-28T08:19:41Z</time>
      </trkpt>
      <trkpt lat="45.97872" lon="6.90221">
        <ele>2332</ele>
        <time>2022-08-28T08:19:42Z</time>
      </trkpt>
      <trkpt lat="45.97872" lon="6.90219">
        <ele>2331</ele>
        <time>2022-08-28T08:19:43Z</time>
      </trkpt>
      <trkpt lat="45.97872" lon="6.90215">
        <ele>2331</ele>
        <time>2022-08-28T08:19:45Z</time>
      </trkpt>
      <trkpt lat="45.97873" lon="6.90212">
        <ele>2331</ele>
        <time>2022-08-28T08:19:47Z</time>
      </trkpt>
      <trkpt lat="45.97874" lon="6.90209">
        <ele>2331</ele>
        <time>2022-08-28T08:19:49Z</time>
      </trkpt>
      <trkpt lat="45.97874" lon="6.90205">
        <ele>2331</ele>
        <time>2022-08-28T08:19:52Z</time>
      </trkpt>
      <trkpt lat="45.97873" lon="6.90202">
        <ele>2330</ele>
        <time>2022-08-28T08:19:54Z</time>
      </trkpt>
      <trkpt lat="45.97873" lon="6.90199">
        <ele>2330</ele>
        <time>2022-08-28T08:19:56Z</time>
      </trkpt>
      <trkpt lat="45.97872" lon="6.90196">
        <ele>2329</ele>
        <time>2022-08-28T08:19:59Z</time>
      </trkpt>
      <trkpt lat="45.97871" lon="6.90194">
        <ele>2329</ele>
        <time>2022-08-28T08:20:01Z</time>
      </trkpt>
      <trkpt lat="45.9787" lon="6.9019">
        <ele>2329</ele>
        <time>2022-08-28T08:20:04Z</time>
      </trkpt>
      <trkpt lat="45.97868" lon="6.90188">
        <ele>2328</ele>
        <time>2022-08-28T08:20:07Z</time>
      </trkpt>
      <trkpt lat="45.97868" lon="6.90185">
        <ele>2328</ele>
        <time>2022-08-28T08:20:10Z</time>
      </trkpt>
      <trkpt lat="45.97867" lon="6.90183">
        <ele>2327</ele>
        <time>2022-08-28T08:20:12Z</time>
      </trkpt>
      <trkpt lat="45.97865" lon="6.9018">
        <ele>2327</ele>
        <time>2022-08-28T08:20:15Z</time>
      </trkpt>
      <trkpt lat="45.97865" lon="6.90177">
        <ele>2327</ele>
        <time>2022-08-28T08:20:18Z</time>
      </trkpt>
      <trkpt lat="45.97864" lon="6.90175">
        <ele>2326</ele>
        <time>2022-08-28T08:20:20Z</time>
      </trkpt>
      <trkpt lat="45.97863" lon="6.90172">
        <ele>2326</ele>
        <time>2022-08-28T08:20:22Z</time>
      </trkpt>
      <trkpt lat="45.97862" lon="6.90169">
        <ele>2326</ele>
        <time>2022-08-28T08:20:24Z</time>
      </trkpt>
      <trkpt lat="45.97862" lon="6.90165">
        <ele>2326</ele>
        <time>2022-08-28T08:20:27Z</time>
      </trkpt>
      <trkpt lat="45.97861" lon="6.90162">
        <ele>2324</ele>
        <time>2022-08-28T08:20:30Z</time>
      </trkpt>
      <trkpt lat="45.9786" lon="6.9016">
        <ele>2324</ele>
        <time>2022-08-28T08:20:32Z</time>
      </trkpt>
      <trkpt lat="45.9786" lon="6.90157">
        <ele>2323</ele>
        <time>2022-08-28T08:20:35Z</time>
      </trkpt>
      <trkpt lat="45.97859" lon="6.90154">
        <ele>2322</ele>
        <time>2022-08-28T08:20:39Z</time>
      </trkpt>
      <trkpt lat="45.97858" lon="6.90151">
        <ele>2322</ele>
        <time>2022-08-28T08:20:42Z</time>
      </trkpt>
      <trkpt lat="45.97857" lon="6.90147">
        <ele>2321</ele>
        <time>2022-08-28T08:20:45Z</time>
      </trkpt>
      <trkpt lat="45.97857" lon="6.90144">
        <ele>2321</ele>
        <time>2022-08-28T08:20:47Z</time>
      </trkpt>
      <trkpt lat="45.97856" lon="6.90141">
        <ele>2320</ele>
        <time>2022-08-28T08:20:49Z</time>
      </trkpt>
      <trkpt lat="45.97855" lon="6.90138">
        <ele>2320</ele>
        <time>2022-08-28T08:20:51Z</time>
      </trkpt>
      <trkpt lat="45.97854" lon="6.90135">
        <ele>2320</ele>
        <time>2022-08-28T08:20:53Z</time>
      </trkpt>
      <trkpt lat="45.97853" lon="6.90133">
        <ele>2320</ele>
        <time>2022-08-28T08:20:55Z</time>
      </trkpt>
      <trkpt lat="45.97852" lon="6.9013">
        <ele>2318</ele>
        <time>2022-08-28T08:20:57Z</time>
      </trkpt>
      <trkpt lat="45.97852" lon="6.90126">
        <ele>2318</ele>
        <time>2022-08-28T08:20:59Z</time>
      </trkpt>
      <trkpt lat="45.97851" lon="6.90123">
        <ele>2318</ele>
        <time>2022-08-28T08:21:01Z</time>
      </trkpt>
      <trkpt lat="45.97851" lon="6.9012">
        <ele>2318</ele>
        <time>2022-08-28T08:21:03Z</time>
      </trkpt>
      <trkpt lat="45.9785" lon="6.90117">
        <ele>2318</ele>
        <time>2022-08-28T08:21:05Z</time>
      </trkpt>
      <trkpt lat="45.9785" lon="6.90115">
        <ele>2318</ele>
        <time>2022-08-28T08:21:07Z</time>
      </trkpt>
      <trkpt lat="45.97849" lon="6.90112">
        <ele>2317</ele>
        <time>2022-08-28T08:21:09Z</time>
      </trkpt>
      <trkpt lat="45.97848" lon="6.9011">
        <ele>2317</ele>
        <time>2022-08-28T08:21:11Z</time>
      </trkpt>
      <trkpt lat="45.97846" lon="6.90107">
        <ele>2317</ele>
        <time>2022-08-28T08:21:13Z</time>
      </trkpt>
      <trkpt lat="45.97845" lon="6.90104">
        <ele>2315</ele>
        <time>2022-08-28T08:21:15Z</time>
      </trkpt>
      <trkpt lat="45.97844" lon="6.90101">
        <ele>2315</ele>
        <time>2022-08-28T08:21:17Z</time>
      </trkpt>
      <trkpt lat="45.97843" lon="6.90097">
        <ele>2314</ele>
        <time>2022-08-28T08:21:19Z</time>
      </trkpt>
      <trkpt lat="45.97842" lon="6.90094">
        <ele>2314</ele>
        <time>2022-08-28T08:21:22Z</time>
      </trkpt>
      <trkpt lat="45.97841" lon="6.90091">
        <ele>2314</ele>
        <time>2022-08-28T08:21:24Z</time>
      </trkpt>
      <trkpt lat="45.97841" lon="6.90088">
        <ele>2314</ele>
        <time>2022-08-28T08:21:26Z</time>
      </trkpt>
      <trkpt lat="45.97841" lon="6.90085">
        <ele>2313</ele>
        <time>2022-08-28T08:21:28Z</time>
      </trkpt>
      <trkpt lat="45.97839" lon="6.90082">
        <ele>2313</ele>
        <time>2022-08-28T08:21:31Z</time>
      </trkpt>
      <trkpt lat="45.97838" lon="6.90079">
        <ele>2312</ele>
        <time>2022-08-28T08:21:33Z</time>
      </trkpt>
      <trkpt lat="45.97837" lon="6.90075">
        <ele>2311</ele>
        <time>2022-08-28T08:21:35Z</time>
      </trkpt>
      <trkpt lat="45.97837" lon="6.90072">
        <ele>2311</ele>
        <time>2022-08-28T08:21:37Z</time>
      </trkpt>
      <trkpt lat="45.97837" lon="6.90069">
        <ele>2311</ele>
        <time>2022-08-28T08:21:39Z</time>
      </trkpt>
      <trkpt lat="45.97836" lon="6.90065">
        <ele>2311</ele>
        <time>2022-08-28T08:21:41Z</time>
      </trkpt>
      <trkpt lat="45.97836" lon="6.90062">
        <ele>2311</ele>
        <time>2022-08-28T08:21:43Z</time>
      </trkpt>
      <trkpt lat="45.97836" lon="6.90059">
        <ele>2311</ele>
        <time>2022-08-28T08:21:45Z</time>
      </trkpt>
      <trkpt lat="45.97835" lon="6.90056">
        <ele>2309</ele>
        <time>2022-08-28T08:21:47Z</time>
      </trkpt>
      <trkpt lat="45.97835" lon="6.90052">
        <ele>2309</ele>
        <time>2022-08-28T08:21:49Z</time>
      </trkpt>
      <trkpt lat="45.97834" lon="6.90049">
        <ele>2308</ele>
        <time>2022-08-28T08:21:51Z</time>
      </trkpt>
      <trkpt lat="45.97833" lon="6.90045">
        <ele>2308</ele>
        <time>2022-08-28T08:21:53Z</time>
      </trkpt>
      <trkpt lat="45.97832" lon="6.90042">
        <ele>2308</ele>
        <time>2022-08-28T08:21:55Z</time>
      </trkpt>
      <trkpt lat="45.97832" lon="6.90039">
        <ele>2308</ele>
        <time>2022-08-28T08:21:57Z</time>
      </trkpt>
      <trkpt lat="45.97832" lon="6.90036">
        <ele>2307</ele>
        <time>2022-08-28T08:22:00Z</time>
      </trkpt>
      <trkpt lat="45.9783" lon="6.90033">
        <ele>2307</ele>
        <time>2022-08-28T08:22:03Z</time>
      </trkpt>
      <trkpt lat="45.97829" lon="6.9003">
        <ele>2305</ele>
        <time>2022-08-28T08:22:05Z</time>
      </trkpt>
      <trkpt lat="45.97829" lon="6.90027">
        <ele>2306</ele>
        <time>2022-08-28T08:22:08Z</time>
      </trkpt>
      <trkpt lat="45.97829" lon="6.90023">
        <ele>2306</ele>
        <time>2022-08-28T08:22:11Z</time>
      </trkpt>
      <trkpt lat="45.97829" lon="6.9002">
        <ele>2305</ele>
        <time>2022-08-28T08:22:14Z</time>
      </trkpt>
      <trkpt lat="45.97829" lon="6.90017">
        <ele>2304</ele>
        <time>2022-08-28T08:22:17Z</time>
      </trkpt>
      <trkpt lat="45.97825" lon="6.90012">
        <ele>2303</ele>
        <time>2022-08-28T08:22:22Z</time>
      </trkpt>
      <trkpt lat="45.97824" lon="6.9001">
        <ele>2302</ele>
        <time>2022-08-28T08:22:24Z</time>
      </trkpt>
      <trkpt lat="45.97822" lon="6.90007">
        <ele>2302</ele>
        <time>2022-08-28T08:22:26Z</time>
      </trkpt>
      <trkpt lat="45.9782" lon="6.90003">
        <ele>2302</ele>
        <time>2022-08-28T08:22:28Z</time>
      </trkpt>
      <trkpt lat="45.97819" lon="6.90001">
        <ele>2302</ele>
        <time>2022-08-28T08:22:29Z</time>
      </trkpt>
      <trkpt lat="45.97817" lon="6.89998">
        <ele>2302</ele>
        <time>2022-08-28T08:22:31Z</time>
      </trkpt>
      <trkpt lat="45.97814" lon="6.89996">
        <ele>2302</ele>
        <time>2022-08-28T08:22:33Z</time>
      </trkpt>
      <trkpt lat="45.97813" lon="6.89995">
        <ele>2302</ele>
        <time>2022-08-28T08:22:34Z</time>
      </trkpt>
      <trkpt lat="45.97812" lon="6.89993">
        <ele>2302</ele>
        <time>2022-08-28T08:22:35Z</time>
      </trkpt>
      <trkpt lat="45.97811" lon="6.89992">
        <ele>2301</ele>
        <time>2022-08-28T08:22:37Z</time>
      </trkpt>
      <trkpt lat="45.9781" lon="6.8999">
        <ele>2301</ele>
        <time>2022-08-28T08:22:38Z</time>
      </trkpt>
      <trkpt lat="45.9781" lon="6.89989">
        <ele>2301</ele>
        <time>2022-08-28T08:22:39Z</time>
      </trkpt>
      <trkpt lat="45.97809" lon="6.89988">
        <ele>2301</ele>
        <time>2022-08-28T08:22:40Z</time>
      </trkpt>
      <trkpt lat="45.97808" lon="6.89986">
        <ele>2301</ele>
        <time>2022-08-28T08:22:41Z</time>
      </trkpt>
      <trkpt lat="45.97806" lon="6.89982">
        <ele>2301</ele>
        <time>2022-08-28T08:22:44Z</time>
      </trkpt>
      <trkpt lat="45.97804" lon="6.8998">
        <ele>2301</ele>
        <time>2022-08-28T08:22:47Z</time>
      </trkpt>
      <trkpt lat="45.97802" lon="6.8998">
        <ele>2301</ele>
        <time>2022-08-28T08:22:49Z</time>
      </trkpt>
      <trkpt lat="45.97799" lon="6.89979">
        <ele>2301</ele>
        <time>2022-08-28T08:22:51Z</time>
      </trkpt>
      <trkpt lat="45.97798" lon="6.89978">
        <ele>2301</ele>
        <time>2022-08-28T08:22:53Z</time>
      </trkpt>
      <trkpt lat="45.97795" lon="6.89977">
        <ele>2301</ele>
        <time>2022-08-28T08:22:55Z</time>
      </trkpt>
      <trkpt lat="45.97793" lon="6.89976">
        <ele>2301</ele>
        <time>2022-08-28T08:22:57Z</time>
      </trkpt>
      <trkpt lat="45.97791" lon="6.89974">
        <ele>2301</ele>
        <time>2022-08-28T08:22:59Z</time>
      </trkpt>
      <trkpt lat="45.97789" lon="6.89972">
        <ele>2301</ele>
        <time>2022-08-28T08:23:01Z</time>
      </trkpt>
      <trkpt lat="45.97787" lon="6.8997">
        <ele>2300</ele>
        <time>2022-08-28T08:23:03Z</time>
      </trkpt>
      <trkpt lat="45.97786" lon="6.89968">
        <ele>2300</ele>
        <time>2022-08-28T08:23:05Z</time>
      </trkpt>
      <trkpt lat="45.97784" lon="6.89966">
        <ele>2300</ele>
        <time>2022-08-28T08:23:07Z</time>
      </trkpt>
      <trkpt lat="45.97784" lon="6.89963">
        <ele>2300</ele>
        <time>2022-08-28T08:23:09Z</time>
      </trkpt>
      <trkpt lat="45.97784" lon="6.89959">
        <ele>2300</ele>
        <time>2022-08-28T08:23:12Z</time>
      </trkpt>
      <trkpt lat="45.97784" lon="6.89959">
        <ele>2298</ele>
        <time>2022-08-28T08:23:26Z</time>
      </trkpt>
      <trkpt lat="45.97781" lon="6.89957">
        <ele>2298</ele>
        <time>2022-08-28T08:23:38Z</time>
      </trkpt>
      <trkpt lat="45.97779" lon="6.89955">
        <ele>2298</ele>
        <time>2022-08-28T08:23:40Z</time>
      </trkpt>
      <trkpt lat="45.97778" lon="6.89951">
        <ele>2298</ele>
        <time>2022-08-28T08:23:42Z</time>
      </trkpt>
      <trkpt lat="45.97778" lon="6.89947">
        <ele>2298</ele>
        <time>2022-08-28T08:23:44Z</time>
      </trkpt>
      <trkpt lat="45.97777" lon="6.89947">
        <ele>2298</ele>
        <time>2022-08-28T08:23:45Z</time>
      </trkpt>
      <trkpt lat="45.97776" lon="6.89946">
        <ele>2298</ele>
        <time>2022-08-28T08:23:47Z</time>
      </trkpt>
      <trkpt lat="45.97776" lon="6.89945">
        <ele>2298</ele>
        <time>2022-08-28T08:23:48Z</time>
      </trkpt>
      <trkpt lat="45.97775" lon="6.89944">
        <ele>2300</ele>
        <time>2022-08-28T08:23:49Z</time>
      </trkpt>
      <trkpt lat="45.97775" lon="6.89943">
        <ele>2300</ele>
        <time>2022-08-28T08:23:50Z</time>
      </trkpt>
      <trkpt lat="45.97774" lon="6.89943">
        <ele>2300</ele>
        <time>2022-08-28T08:23:51Z</time>
      </trkpt>
      <trkpt lat="45.97773" lon="6.89942">
        <ele>2300</ele>
        <time>2022-08-28T08:23:52Z</time>
      </trkpt>
      <trkpt lat="45.97771" lon="6.89939">
        <ele>2300</ele>
        <time>2022-08-28T08:23:53Z</time>
      </trkpt>
      <trkpt lat="45.97769" lon="6.89936">
        <ele>2300</ele>
        <time>2022-08-28T08:23:56Z</time>
      </trkpt>
      <trkpt lat="45.97768" lon="6.89935">
        <ele>2301</ele>
        <time>2022-08-28T08:23:59Z</time>
      </trkpt>
      <trkpt lat="45.97766" lon="6.89935">
        <ele>2301</ele>
        <time>2022-08-28T08:24:01Z</time>
      </trkpt>
      <trkpt lat="45.97764" lon="6.89936">
        <ele>2301</ele>
        <time>2022-08-28T08:24:03Z</time>
      </trkpt>
      <trkpt lat="45.97762" lon="6.89935">
        <ele>2301</ele>
        <time>2022-08-28T08:24:06Z</time>
      </trkpt>
      <trkpt lat="45.9776" lon="6.89934">
        <ele>2300</ele>
        <time>2022-08-28T08:24:08Z</time>
      </trkpt>
      <trkpt lat="45.97758" lon="6.89932">
        <ele>2300</ele>
        <time>2022-08-28T08:24:10Z</time>
      </trkpt>
      <trkpt lat="45.97757" lon="6.89931">
        <ele>2300</ele>
        <time>2022-08-28T08:24:14Z</time>
      </trkpt>
      <trkpt lat="45.97755" lon="6.89933">
        <ele>2298</ele>
        <time>2022-08-28T08:24:18Z</time>
      </trkpt>
      <trkpt lat="45.97753" lon="6.89933">
        <ele>2297</ele>
        <time>2022-08-28T08:24:22Z</time>
      </trkpt>
      <trkpt lat="45.97751" lon="6.8993">
        <ele>2295</ele>
        <time>2022-08-28T08:24:26Z</time>
      </trkpt>
      <trkpt lat="45.9775" lon="6.89929">
        <ele>2295</ele>
        <time>2022-08-28T08:24:29Z</time>
      </trkpt>
      <trkpt lat="45.97748" lon="6.89929">
        <ele>2295</ele>
        <time>2022-08-28T08:24:32Z</time>
      </trkpt>
      <trkpt lat="45.97746" lon="6.89931">
        <ele>2294</ele>
        <time>2022-08-28T08:24:36Z</time>
      </trkpt>
      <trkpt lat="45.97746" lon="6.89934">
        <ele>2293</ele>
        <time>2022-08-28T08:24:39Z</time>
      </trkpt>
      <trkpt lat="45.97744" lon="6.89933">
        <ele>2292</ele>
        <time>2022-08-28T08:24:42Z</time>
      </trkpt>
      <trkpt lat="45.97742" lon="6.89933">
        <ele>2292</ele>
        <time>2022-08-28T08:24:46Z</time>
      </trkpt>
      <trkpt lat="45.9774" lon="6.89935">
        <ele>2291</ele>
        <time>2022-08-28T08:24:48Z</time>
      </trkpt>
      <trkpt lat="45.97738" lon="6.89934">
        <ele>2290</ele>
        <time>2022-08-28T08:24:50Z</time>
      </trkpt>
      <trkpt lat="45.97736" lon="6.89934">
        <ele>2290</ele>
        <time>2022-08-28T08:24:52Z</time>
      </trkpt>
      <trkpt lat="45.97734" lon="6.89932">
        <ele>2290</ele>
        <time>2022-08-28T08:24:55Z</time>
      </trkpt>
      <trkpt lat="45.97733" lon="6.8993">
        <ele>2288</ele>
        <time>2022-08-28T08:24:57Z</time>
      </trkpt>
      <trkpt lat="45.9773" lon="6.89929">
        <ele>2288</ele>
        <time>2022-08-28T08:25:00Z</time>
      </trkpt>
      <trkpt lat="45.97728" lon="6.89929">
        <ele>2289</ele>
        <time>2022-08-28T08:25:02Z</time>
      </trkpt>
      <trkpt lat="45.97727" lon="6.89929">
        <ele>2289</ele>
        <time>2022-08-28T08:25:04Z</time>
      </trkpt>
      <trkpt lat="45.97725" lon="6.89927">
        <ele>2289</ele>
        <time>2022-08-28T08:25:06Z</time>
      </trkpt>
      <trkpt lat="45.97723" lon="6.89925">
        <ele>2289</ele>
        <time>2022-08-28T08:25:09Z</time>
      </trkpt>
      <trkpt lat="45.9772" lon="6.89924">
        <ele>2290</ele>
        <time>2022-08-28T08:25:12Z</time>
      </trkpt>
      <trkpt lat="45.97719" lon="6.89923">
        <ele>2290</ele>
        <time>2022-08-28T08:25:15Z</time>
      </trkpt>
      <trkpt lat="45.97717" lon="6.89921">
        <ele>2290</ele>
        <time>2022-08-28T08:25:18Z</time>
      </trkpt>
      <trkpt lat="45.97714" lon="6.8992">
        <ele>2290</ele>
        <time>2022-08-28T08:25:21Z</time>
      </trkpt>
      <trkpt lat="45.97713" lon="6.89918">
        <ele>2291</ele>
        <time>2022-08-28T08:25:24Z</time>
      </trkpt>
      <trkpt lat="45.97711" lon="6.89916">
        <ele>2291</ele>
        <time>2022-08-28T08:25:28Z</time>
      </trkpt>
      <trkpt lat="45.97709" lon="6.89916">
        <ele>2291</ele>
        <time>2022-08-28T08:25:31Z</time>
      </trkpt>
      <trkpt lat="45.97706" lon="6.89918">
        <ele>2290</ele>
        <time>2022-08-28T08:25:34Z</time>
      </trkpt>
      <trkpt lat="45.97704" lon="6.89918">
        <ele>2291</ele>
        <time>2022-08-28T08:25:36Z</time>
      </trkpt>
      <trkpt lat="45.97702" lon="6.89919">
        <ele>2291</ele>
        <time>2022-08-28T08:25:38Z</time>
      </trkpt>
      <trkpt lat="45.977" lon="6.89919">
        <ele>2291</ele>
        <time>2022-08-28T08:25:40Z</time>
      </trkpt>
      <trkpt lat="45.97698" lon="6.89918">
        <ele>2291</ele>
        <time>2022-08-28T08:25:42Z</time>
      </trkpt>
      <trkpt lat="45.97696" lon="6.89918">
        <ele>2291</ele>
        <time>2022-08-28T08:25:44Z</time>
      </trkpt>
      <trkpt lat="45.97693" lon="6.89918">
        <ele>2291</ele>
        <time>2022-08-28T08:25:46Z</time>
      </trkpt>
      <trkpt lat="45.97691" lon="6.89916">
        <ele>2291</ele>
        <time>2022-08-28T08:25:48Z</time>
      </trkpt>
      <trkpt lat="45.97689" lon="6.89915">
        <ele>2291</ele>
        <time>2022-08-28T08:25:51Z</time>
      </trkpt>
      <trkpt lat="45.97688" lon="6.89913">
        <ele>2291</ele>
        <time>2022-08-28T08:25:54Z</time>
      </trkpt>
      <trkpt lat="45.97685" lon="6.89911">
        <ele>2291</ele>
        <time>2022-08-28T08:25:57Z</time>
      </trkpt>
      <trkpt lat="45.97683" lon="6.89911">
        <ele>2291</ele>
        <time>2022-08-28T08:25:59Z</time>
      </trkpt>
      <trkpt lat="45.9768" lon="6.89911">
        <ele>2291</ele>
        <time>2022-08-28T08:26:01Z</time>
      </trkpt>
      <trkpt lat="45.97678" lon="6.8991">
        <ele>2291</ele>
        <time>2022-08-28T08:26:03Z</time>
      </trkpt>
      <trkpt lat="45.97675" lon="6.89909">
        <ele>2291</ele>
        <time>2022-08-28T08:26:05Z</time>
      </trkpt>
      <trkpt lat="45.97672" lon="6.89908">
        <ele>2291</ele>
        <time>2022-08-28T08:26:07Z</time>
      </trkpt>
      <trkpt lat="45.9767" lon="6.89907">
        <ele>2291</ele>
        <time>2022-08-28T08:26:09Z</time>
      </trkpt>
      <trkpt lat="45.97668" lon="6.89906">
        <ele>2291</ele>
        <time>2022-08-28T08:26:11Z</time>
      </trkpt>
      <trkpt lat="45.97666" lon="6.89904">
        <ele>2291</ele>
        <time>2022-08-28T08:26:13Z</time>
      </trkpt>
      <trkpt lat="45.97664" lon="6.89903">
        <ele>2292</ele>
        <time>2022-08-28T08:26:15Z</time>
      </trkpt>
      <trkpt lat="45.97662" lon="6.89902">
        <ele>2292</ele>
        <time>2022-08-28T08:26:17Z</time>
      </trkpt>
      <trkpt lat="45.9766" lon="6.89901">
        <ele>2292</ele>
        <time>2022-08-28T08:26:19Z</time>
      </trkpt>
      <trkpt lat="45.97658" lon="6.899">
        <ele>2292</ele>
        <time>2022-08-28T08:26:21Z</time>
      </trkpt>
      <trkpt lat="45.97656" lon="6.89899">
        <ele>2292</ele>
        <time>2022-08-28T08:26:23Z</time>
      </trkpt>
      <trkpt lat="45.97654" lon="6.89899">
        <ele>2293</ele>
        <time>2022-08-28T08:26:25Z</time>
      </trkpt>
      <trkpt lat="45.97652" lon="6.89898">
        <ele>2293</ele>
        <time>2022-08-28T08:26:27Z</time>
      </trkpt>
      <trkpt lat="45.9765" lon="6.89897">
        <ele>2293</ele>
        <time>2022-08-28T08:26:29Z</time>
      </trkpt>
      <trkpt lat="45.97648" lon="6.89896">
        <ele>2292</ele>
        <time>2022-08-28T08:26:31Z</time>
      </trkpt>
      <trkpt lat="45.97646" lon="6.89894">
        <ele>2292</ele>
        <time>2022-08-28T08:26:33Z</time>
      </trkpt>
      <trkpt lat="45.97644" lon="6.89892">
        <ele>2292</ele>
        <time>2022-08-28T08:26:36Z</time>
      </trkpt>
      <trkpt lat="45.97642" lon="6.89891">
        <ele>2292</ele>
        <time>2022-08-28T08:26:39Z</time>
      </trkpt>
      <trkpt lat="45.97639" lon="6.89891">
        <ele>2292</ele>
        <time>2022-08-28T08:26:42Z</time>
      </trkpt>
      <trkpt lat="45.97637" lon="6.89891">
        <ele>2292</ele>
        <time>2022-08-28T08:26:44Z</time>
      </trkpt>
      <trkpt lat="45.97635" lon="6.89891">
        <ele>2292</ele>
        <time>2022-08-28T08:26:46Z</time>
      </trkpt>
      <trkpt lat="45.97633" lon="6.89891">
        <ele>2291</ele>
        <time>2022-08-28T08:26:48Z</time>
      </trkpt>
      <trkpt lat="45.9763" lon="6.89891">
        <ele>2291</ele>
        <time>2022-08-28T08:26:50Z</time>
      </trkpt>
      <trkpt lat="45.97628" lon="6.89891">
        <ele>2291</ele>
        <time>2022-08-28T08:26:52Z</time>
      </trkpt>
      <trkpt lat="45.97625" lon="6.89889">
        <ele>2291</ele>
        <time>2022-08-28T08:26:54Z</time>
      </trkpt>
      <trkpt lat="45.97624" lon="6.89888">
        <ele>2291</ele>
        <time>2022-08-28T08:26:56Z</time>
      </trkpt>
      <trkpt lat="45.97622" lon="6.89887">
        <ele>2292</ele>
        <time>2022-08-28T08:26:58Z</time>
      </trkpt>
      <trkpt lat="45.9762" lon="6.89886">
        <ele>2292</ele>
        <time>2022-08-28T08:27:00Z</time>
      </trkpt>
      <trkpt lat="45.97618" lon="6.89885">
        <ele>2292</ele>
        <time>2022-08-28T08:27:02Z</time>
      </trkpt>
      <trkpt lat="45.97616" lon="6.89885">
        <ele>2292</ele>
        <time>2022-08-28T08:27:05Z</time>
      </trkpt>
      <trkpt lat="45.97613" lon="6.89886">
        <ele>2292</ele>
        <time>2022-08-28T08:27:07Z</time>
      </trkpt>
      <trkpt lat="45.9761" lon="6.89885">
        <ele>2291</ele>
        <time>2022-08-28T08:27:09Z</time>
      </trkpt>
      <trkpt lat="45.97608" lon="6.89885">
        <ele>2291</ele>
        <time>2022-08-28T08:27:11Z</time>
      </trkpt>
      <trkpt lat="45.97606" lon="6.89884">
        <ele>2291</ele>
        <time>2022-08-28T08:27:13Z</time>
      </trkpt>
      <trkpt lat="45.97604" lon="6.89883">
        <ele>2290</ele>
        <time>2022-08-28T08:27:16Z</time>
      </trkpt>
      <trkpt lat="45.97601" lon="6.89884">
        <ele>2290</ele>
        <time>2022-08-28T08:27:18Z</time>
      </trkpt>
      <trkpt lat="45.97598" lon="6.89885">
        <ele>2289</ele>
        <time>2022-08-28T08:27:20Z</time>
      </trkpt>
      <trkpt lat="45.97596" lon="6.89884">
        <ele>2289</ele>
        <time>2022-08-28T08:27:22Z</time>
      </trkpt>
      <trkpt lat="45.97593" lon="6.89883">
        <ele>2289</ele>
        <time>2022-08-28T08:27:24Z</time>
      </trkpt>
      <trkpt lat="45.97591" lon="6.89883">
        <ele>2288</ele>
        <time>2022-08-28T08:27:26Z</time>
      </trkpt>
      <trkpt lat="45.97589" lon="6.89882">
        <ele>2289</ele>
        <time>2022-08-28T08:27:28Z</time>
      </trkpt>
      <trkpt lat="45.97586" lon="6.89882">
        <ele>2289</ele>
        <time>2022-08-28T08:27:30Z</time>
      </trkpt>
      <trkpt lat="45.97584" lon="6.89882">
        <ele>2289</ele>
        <time>2022-08-28T08:27:32Z</time>
      </trkpt>
      <trkpt lat="45.97582" lon="6.89881">
        <ele>2289</ele>
        <time>2022-08-28T08:27:34Z</time>
      </trkpt>
      <trkpt lat="45.97579" lon="6.89881">
        <ele>2289</ele>
        <time>2022-08-28T08:27:36Z</time>
      </trkpt>
      <trkpt lat="45.97576" lon="6.8988">
        <ele>2289</ele>
        <time>2022-08-28T08:27:38Z</time>
      </trkpt>
      <trkpt lat="45.97574" lon="6.89879">
        <ele>2289</ele>
        <time>2022-08-28T08:27:40Z</time>
      </trkpt>
      <trkpt lat="45.97572" lon="6.89877">
        <ele>2289</ele>
        <time>2022-08-28T08:27:42Z</time>
      </trkpt>
      <trkpt lat="45.9757" lon="6.89876">
        <ele>2289</ele>
        <time>2022-08-28T08:27:44Z</time>
      </trkpt>
      <trkpt lat="45.97567" lon="6.89875">
        <ele>2289</ele>
        <time>2022-08-28T08:27:46Z</time>
      </trkpt>
      <trkpt lat="45.97564" lon="6.89874">
        <ele>2289</ele>
        <time>2022-08-28T08:27:48Z</time>
      </trkpt>
      <trkpt lat="45.97561" lon="6.89872">
        <ele>2289</ele>
        <time>2022-08-28T08:27:50Z</time>
      </trkpt>
      <trkpt lat="45.97559" lon="6.89872">
        <ele>2288</ele>
        <time>2022-08-28T08:27:53Z</time>
      </trkpt>
      <trkpt lat="45.97557" lon="6.89872">
        <ele>2287</ele>
        <time>2022-08-28T08:27:55Z</time>
      </trkpt>
      <trkpt lat="45.97555" lon="6.89871">
        <ele>2287</ele>
        <time>2022-08-28T08:27:57Z</time>
      </trkpt>
      <trkpt lat="45.97552" lon="6.8987">
        <ele>2287</ele>
        <time>2022-08-28T08:27:59Z</time>
      </trkpt>
      <trkpt lat="45.9755" lon="6.89869">
        <ele>2286</ele>
        <time>2022-08-28T08:28:01Z</time>
      </trkpt>
      <trkpt lat="45.97548" lon="6.89867">
        <ele>2285</ele>
        <time>2022-08-28T08:28:04Z</time>
      </trkpt>
      <trkpt lat="45.97546" lon="6.89866">
        <ele>2285</ele>
        <time>2022-08-28T08:28:07Z</time>
      </trkpt>
      <trkpt lat="45.97543" lon="6.89865">
        <ele>2284</ele>
        <time>2022-08-28T08:28:10Z</time>
      </trkpt>
      <trkpt lat="45.97541" lon="6.89865">
        <ele>2284</ele>
        <time>2022-08-28T08:28:12Z</time>
      </trkpt>
      <trkpt lat="45.97539" lon="6.89863">
        <ele>2284</ele>
        <time>2022-08-28T08:28:14Z</time>
      </trkpt>
      <trkpt lat="45.97537" lon="6.89862">
        <ele>2283</ele>
        <time>2022-08-28T08:28:16Z</time>
      </trkpt>
      <trkpt lat="45.97533" lon="6.89861">
        <ele>2282</ele>
        <time>2022-08-28T08:28:18Z</time>
      </trkpt>
      <trkpt lat="45.97532" lon="6.8986">
        <ele>2282</ele>
        <time>2022-08-28T08:28:19Z</time>
      </trkpt>
      <trkpt lat="45.9753" lon="6.89859">
        <ele>2282</ele>
        <time>2022-08-28T08:28:20Z</time>
      </trkpt>
      <trkpt lat="45.97527" lon="6.89857">
        <ele>2281</ele>
        <time>2022-08-28T08:28:22Z</time>
      </trkpt>
      <trkpt lat="45.97524" lon="6.89856">
        <ele>2281</ele>
        <time>2022-08-28T08:28:24Z</time>
      </trkpt>
      <trkpt lat="45.97522" lon="6.89855">
        <ele>2280</ele>
        <time>2022-08-28T08:28:25Z</time>
      </trkpt>
      <trkpt lat="45.9752" lon="6.89853">
        <ele>2280</ele>
        <time>2022-08-28T08:28:26Z</time>
      </trkpt>
      <trkpt lat="45.97517" lon="6.8985">
        <ele>2280</ele>
        <time>2022-08-28T08:28:28Z</time>
      </trkpt>
      <trkpt lat="45.97514" lon="6.89846">
        <ele>2280</ele>
        <time>2022-08-28T08:28:30Z</time>
      </trkpt>
      <trkpt lat="45.97513" lon="6.89844">
        <ele>2280</ele>
        <time>2022-08-28T08:28:32Z</time>
      </trkpt>
      <trkpt lat="45.97511" lon="6.89845">
        <ele>2279</ele>
        <time>2022-08-28T08:28:37Z</time>
      </trkpt>
      <trkpt lat="45.97509" lon="6.89845">
        <ele>2280</ele>
        <time>2022-08-28T08:28:39Z</time>
      </trkpt>
      <trkpt lat="45.97507" lon="6.89845">
        <ele>2279</ele>
        <time>2022-08-28T08:28:41Z</time>
      </trkpt>
      <trkpt lat="45.97504" lon="6.89845">
        <ele>2279</ele>
        <time>2022-08-28T08:28:43Z</time>
      </trkpt>
      <trkpt lat="45.97502" lon="6.89844">
        <ele>2279</ele>
        <time>2022-08-28T08:28:45Z</time>
      </trkpt>
      <trkpt lat="45.975" lon="6.89843">
        <ele>2279</ele>
        <time>2022-08-28T08:28:47Z</time>
      </trkpt>
      <trkpt lat="45.97497" lon="6.89842">
        <ele>2279</ele>
        <time>2022-08-28T08:28:49Z</time>
      </trkpt>
      <trkpt lat="45.97495" lon="6.89841">
        <ele>2279</ele>
        <time>2022-08-28T08:28:51Z</time>
      </trkpt>
      <trkpt lat="45.97493" lon="6.89839">
        <ele>2279</ele>
        <time>2022-08-28T08:28:53Z</time>
      </trkpt>
      <trkpt lat="45.97491" lon="6.89839">
        <ele>2279</ele>
        <time>2022-08-28T08:28:55Z</time>
      </trkpt>
      <trkpt lat="45.97489" lon="6.89837">
        <ele>2279</ele>
        <time>2022-08-28T08:28:57Z</time>
      </trkpt>
      <trkpt lat="45.97487" lon="6.89835">
        <ele>2279</ele>
        <time>2022-08-28T08:28:59Z</time>
      </trkpt>
      <trkpt lat="45.97485" lon="6.89832">
        <ele>2279</ele>
        <time>2022-08-28T08:29:02Z</time>
      </trkpt>
      <trkpt lat="45.97484" lon="6.8983">
        <ele>2279</ele>
        <time>2022-08-28T08:29:04Z</time>
      </trkpt>
      <trkpt lat="45.97484" lon="6.89827">
        <ele>2279</ele>
        <time>2022-08-28T08:29:06Z</time>
      </trkpt>
      <trkpt lat="45.97483" lon="6.89825">
        <ele>2279</ele>
        <time>2022-08-28T08:29:09Z</time>
      </trkpt>
      <trkpt lat="45.97481" lon="6.89824">
        <ele>2278</ele>
        <time>2022-08-28T08:29:12Z</time>
      </trkpt>
      <trkpt lat="45.97478" lon="6.89824">
        <ele>2278</ele>
        <time>2022-08-28T08:29:14Z</time>
      </trkpt>
      <trkpt lat="45.97477" lon="6.89823">
        <ele>2278</ele>
        <time>2022-08-28T08:29:16Z</time>
      </trkpt>
      <trkpt lat="45.97474" lon="6.89822">
        <ele>2278</ele>
        <time>2022-08-28T08:29:19Z</time>
      </trkpt>
      <trkpt lat="45.97472" lon="6.89821">
        <ele>2278</ele>
        <time>2022-08-28T08:29:22Z</time>
      </trkpt>
      <trkpt lat="45.97471" lon="6.89819">
        <ele>2277</ele>
        <time>2022-08-28T08:29:24Z</time>
      </trkpt>
      <trkpt lat="45.97469" lon="6.89817">
        <ele>2277</ele>
        <time>2022-08-28T08:29:26Z</time>
      </trkpt>
      <trkpt lat="45.97468" lon="6.89814">
        <ele>2276</ele>
        <time>2022-08-28T08:29:28Z</time>
      </trkpt>
      <trkpt lat="45.97467" lon="6.89812">
        <ele>2276</ele>
        <time>2022-08-28T08:29:30Z</time>
      </trkpt>
      <trkpt lat="45.97465" lon="6.89811">
        <ele>2276</ele>
        <time>2022-08-28T08:29:32Z</time>
      </trkpt>
      <trkpt lat="45.97463" lon="6.89811">
        <ele>2275</ele>
        <time>2022-08-28T08:29:34Z</time>
      </trkpt>
      <trkpt lat="45.97461" lon="6.89809">
        <ele>2275</ele>
        <time>2022-08-28T08:29:36Z</time>
      </trkpt>
      <trkpt lat="45.97459" lon="6.89807">
        <ele>2275</ele>
        <time>2022-08-28T08:29:39Z</time>
      </trkpt>
      <trkpt lat="45.97458" lon="6.89804">
        <ele>2274</ele>
        <time>2022-08-28T08:29:42Z</time>
      </trkpt>
      <trkpt lat="45.97455" lon="6.89803">
        <ele>2274</ele>
        <time>2022-08-28T08:29:45Z</time>
      </trkpt>
      <trkpt lat="45.97453" lon="6.89803">
        <ele>2274</ele>
        <time>2022-08-28T08:29:47Z</time>
      </trkpt>
      <trkpt lat="45.97451" lon="6.89802">
        <ele>2274</ele>
        <time>2022-08-28T08:29:49Z</time>
      </trkpt>
      <trkpt lat="45.97448" lon="6.898">
        <ele>2275</ele>
        <time>2022-08-28T08:29:52Z</time>
      </trkpt>
      <trkpt lat="45.97446" lon="6.89798">
        <ele>2275</ele>
        <time>2022-08-28T08:29:55Z</time>
      </trkpt>
      <trkpt lat="45.97445" lon="6.89795">
        <ele>2276</ele>
        <time>2022-08-28T08:29:57Z</time>
      </trkpt>
      <trkpt lat="45.97444" lon="6.89793">
        <ele>2276</ele>
        <time>2022-08-28T08:30:00Z</time>
      </trkpt>
      <trkpt lat="45.97442" lon="6.89792">
        <ele>2276</ele>
        <time>2022-08-28T08:30:03Z</time>
      </trkpt>
      <trkpt lat="45.9744" lon="6.89791">
        <ele>2276</ele>
        <time>2022-08-28T08:30:05Z</time>
      </trkpt>
      <trkpt lat="45.97438" lon="6.8979">
        <ele>2277</ele>
        <time>2022-08-28T08:30:07Z</time>
      </trkpt>
      <trkpt lat="45.97436" lon="6.89788">
        <ele>2277</ele>
        <time>2022-08-28T08:30:10Z</time>
      </trkpt>
      <trkpt lat="45.97435" lon="6.89786">
        <ele>2277</ele>
        <time>2022-08-28T08:30:13Z</time>
      </trkpt>
      <trkpt lat="45.97434" lon="6.89784">
        <ele>2277</ele>
        <time>2022-08-28T08:30:15Z</time>
      </trkpt>
      <trkpt lat="45.97432" lon="6.89783">
        <ele>2277</ele>
        <time>2022-08-28T08:30:18Z</time>
      </trkpt>
      <trkpt lat="45.97429" lon="6.89782">
        <ele>2278</ele>
        <time>2022-08-28T08:30:21Z</time>
      </trkpt>
      <trkpt lat="45.97427" lon="6.89782">
        <ele>2278</ele>
        <time>2022-08-28T08:30:24Z</time>
      </trkpt>
      <trkpt lat="45.97424" lon="6.89781">
        <ele>2278</ele>
        <time>2022-08-28T08:30:27Z</time>
      </trkpt>
      <trkpt lat="45.97422" lon="6.89781">
        <ele>2278</ele>
        <time>2022-08-28T08:30:29Z</time>
      </trkpt>
      <trkpt lat="45.97421" lon="6.8978">
        <ele>2278</ele>
        <time>2022-08-28T08:30:31Z</time>
      </trkpt>
      <trkpt lat="45.97418" lon="6.89781">
        <ele>2278</ele>
        <time>2022-08-28T08:30:33Z</time>
      </trkpt>
      <trkpt lat="45.97416" lon="6.8978">
        <ele>2278</ele>
        <time>2022-08-28T08:30:36Z</time>
      </trkpt>
      <trkpt lat="45.97414" lon="6.8978">
        <ele>2278</ele>
        <time>2022-08-28T08:30:39Z</time>
      </trkpt>
      <trkpt lat="45.97411" lon="6.8978">
        <ele>2278</ele>
        <time>2022-08-28T08:30:42Z</time>
      </trkpt>
      <trkpt lat="45.97409" lon="6.8978">
        <ele>2278</ele>
        <time>2022-08-28T08:30:44Z</time>
      </trkpt>
      <trkpt lat="45.97406" lon="6.89781">
        <ele>2278</ele>
        <time>2022-08-28T08:30:47Z</time>
      </trkpt>
      <trkpt lat="45.97404" lon="6.8978">
        <ele>2278</ele>
        <time>2022-08-28T08:30:50Z</time>
      </trkpt>
      <trkpt lat="45.97402" lon="6.89779">
        <ele>2279</ele>
        <time>2022-08-28T08:30:54Z</time>
      </trkpt>
      <trkpt lat="45.974" lon="6.89777">
        <ele>2280</ele>
        <time>2022-08-28T08:30:58Z</time>
      </trkpt>
      <trkpt lat="45.97398" lon="6.89777">
        <ele>2281</ele>
        <time>2022-08-28T08:31:02Z</time>
      </trkpt>
      <trkpt lat="45.97397" lon="6.89776">
        <ele>2282</ele>
        <time>2022-08-28T08:31:05Z</time>
      </trkpt>
      <trkpt lat="45.97394" lon="6.89775">
        <ele>2282</ele>
        <time>2022-08-28T08:31:09Z</time>
      </trkpt>
      <trkpt lat="45.97392" lon="6.89775">
        <ele>2282</ele>
        <time>2022-08-28T08:31:12Z</time>
      </trkpt>
      <trkpt lat="45.9739" lon="6.89777">
        <ele>2283</ele>
        <time>2022-08-28T08:31:15Z</time>
      </trkpt>
      <trkpt lat="45.97388" lon="6.89778">
        <ele>2283</ele>
        <time>2022-08-28T08:31:18Z</time>
      </trkpt>
      <trkpt lat="45.97386" lon="6.8978">
        <ele>2283</ele>
        <time>2022-08-28T08:31:21Z</time>
      </trkpt>
      <trkpt lat="45.97384" lon="6.89781">
        <ele>2283</ele>
        <time>2022-08-28T08:31:23Z</time>
      </trkpt>
      <trkpt lat="45.97382" lon="6.8978">
        <ele>2283</ele>
        <time>2022-08-28T08:31:26Z</time>
      </trkpt>
      <trkpt lat="45.9738" lon="6.89782">
        <ele>2283</ele>
        <time>2022-08-28T08:31:29Z</time>
      </trkpt>
      <trkpt lat="45.97379" lon="6.89784">
        <ele>2283</ele>
        <time>2022-08-28T08:31:31Z</time>
      </trkpt>
      <trkpt lat="45.97376" lon="6.89785">
        <ele>2283</ele>
        <time>2022-08-28T08:31:34Z</time>
      </trkpt>
      <trkpt lat="45.97373" lon="6.89786">
        <ele>2283</ele>
        <time>2022-08-28T08:31:37Z</time>
      </trkpt>
      <trkpt lat="45.97371" lon="6.89788">
        <ele>2283</ele>
        <time>2022-08-28T08:31:39Z</time>
      </trkpt>
      <trkpt lat="45.97369" lon="6.89789">
        <ele>2283</ele>
        <time>2022-08-28T08:31:41Z</time>
      </trkpt>
      <trkpt lat="45.97368" lon="6.8979">
        <ele>2283</ele>
        <time>2022-08-28T08:31:43Z</time>
      </trkpt>
      <trkpt lat="45.97365" lon="6.8979">
        <ele>2284</ele>
        <time>2022-08-28T08:31:47Z</time>
      </trkpt>
      <trkpt lat="45.97364" lon="6.89789">
        <ele>2285</ele>
        <time>2022-08-28T08:31:51Z</time>
      </trkpt>
      <trkpt lat="45.97362" lon="6.89789">
        <ele>2286</ele>
        <time>2022-08-28T08:31:56Z</time>
      </trkpt>
      <trkpt lat="45.97359" lon="6.8979">
        <ele>2286</ele>
        <time>2022-08-28T08:31:59Z</time>
      </trkpt>
      <trkpt lat="45.97357" lon="6.89789">
        <ele>2285</ele>
        <time>2022-08-28T08:32:01Z</time>
      </trkpt>
      <trkpt lat="45.97356" lon="6.89788">
        <ele>2286</ele>
        <time>2022-08-28T08:32:04Z</time>
      </trkpt>
      <trkpt lat="45.97354" lon="6.89785">
        <ele>2287</ele>
        <time>2022-08-28T08:32:09Z</time>
      </trkpt>
      <trkpt lat="45.97352" lon="6.89783">
        <ele>2288</ele>
        <time>2022-08-28T08:32:15Z</time>
      </trkpt>
      <trkpt lat="45.97351" lon="6.89781">
        <ele>2289</ele>
        <time>2022-08-28T08:32:20Z</time>
      </trkpt>
      <trkpt lat="45.97349" lon="6.89779">
        <ele>2290</ele>
        <time>2022-08-28T08:32:24Z</time>
      </trkpt>
      <trkpt lat="45.97348" lon="6.89777">
        <ele>2291</ele>
        <time>2022-08-28T08:32:36Z</time>
      </trkpt>
      <trkpt lat="45.97345" lon="6.89778">
        <ele>2292</ele>
        <time>2022-08-28T08:32:39Z</time>
      </trkpt>
      <trkpt lat="45.97343" lon="6.89778">
        <ele>2292</ele>
        <time>2022-08-28T08:32:42Z</time>
      </trkpt>
      <trkpt lat="45.97341" lon="6.89779">
        <ele>2292</ele>
        <time>2022-08-28T08:32:46Z</time>
      </trkpt>
      <trkpt lat="45.97339" lon="6.8978">
        <ele>2292</ele>
        <time>2022-08-28T08:32:49Z</time>
      </trkpt>
      <trkpt lat="45.97337" lon="6.8978">
        <ele>2293</ele>
        <time>2022-08-28T08:32:52Z</time>
      </trkpt>
      <trkpt lat="45.97335" lon="6.89779">
        <ele>2294</ele>
        <time>2022-08-28T08:32:56Z</time>
      </trkpt>
      <trkpt lat="45.97333" lon="6.8978">
        <ele>2295</ele>
        <time>2022-08-28T08:33:00Z</time>
      </trkpt>
      <trkpt lat="45.97331" lon="6.89782">
        <ele>2295</ele>
        <time>2022-08-28T08:33:03Z</time>
      </trkpt>
      <trkpt lat="45.9733" lon="6.89785">
        <ele>2295</ele>
        <time>2022-08-28T08:33:06Z</time>
      </trkpt>
      <trkpt lat="45.9733" lon="6.89788">
        <ele>2295</ele>
        <time>2022-08-28T08:33:08Z</time>
      </trkpt>
      <trkpt lat="45.97328" lon="6.8979">
        <ele>2295</ele>
        <time>2022-08-28T08:33:11Z</time>
      </trkpt>
      <trkpt lat="45.97326" lon="6.8979">
        <ele>2295</ele>
        <time>2022-08-28T08:33:13Z</time>
      </trkpt>
      <trkpt lat="45.97324" lon="6.8979">
        <ele>2296</ele>
        <time>2022-08-28T08:33:15Z</time>
      </trkpt>
      <trkpt lat="45.97322" lon="6.89789">
        <ele>2296</ele>
        <time>2022-08-28T08:33:18Z</time>
      </trkpt>
      <trkpt lat="45.97319" lon="6.89789">
        <ele>2296</ele>
        <time>2022-08-28T08:33:21Z</time>
      </trkpt>
      <trkpt lat="45.97317" lon="6.89789">
        <ele>2297</ele>
        <time>2022-08-28T08:33:24Z</time>
      </trkpt>
      <trkpt lat="45.97315" lon="6.89789">
        <ele>2297</ele>
        <time>2022-08-28T08:33:27Z</time>
      </trkpt>
      <trkpt lat="45.97313" lon="6.89789">
        <ele>2297</ele>
        <time>2022-08-28T08:33:31Z</time>
      </trkpt>
      <trkpt lat="45.97311" lon="6.89788">
        <ele>2297</ele>
        <time>2022-08-28T08:33:33Z</time>
      </trkpt>
      <trkpt lat="45.97309" lon="6.89789">
        <ele>2297</ele>
        <time>2022-08-28T08:33:37Z</time>
      </trkpt>
      <trkpt lat="45.97306" lon="6.8979">
        <ele>2297</ele>
        <time>2022-08-28T08:33:41Z</time>
      </trkpt>
      <trkpt lat="45.97304" lon="6.8979">
        <ele>2297</ele>
        <time>2022-08-28T08:33:44Z</time>
      </trkpt>
      <trkpt lat="45.97302" lon="6.8979">
        <ele>2297</ele>
        <time>2022-08-28T08:33:55Z</time>
      </trkpt>
      <trkpt lat="45.97299" lon="6.89789">
        <ele>2296</ele>
        <time>2022-08-28T08:33:58Z</time>
      </trkpt>
      <trkpt lat="45.97297" lon="6.89789">
        <ele>2296</ele>
        <time>2022-08-28T08:34:00Z</time>
      </trkpt>
      <trkpt lat="45.97295" lon="6.89788">
        <ele>2297</ele>
        <time>2022-08-28T08:34:02Z</time>
      </trkpt>
      <trkpt lat="45.97293" lon="6.89786">
        <ele>2297</ele>
        <time>2022-08-28T08:34:05Z</time>
      </trkpt>
      <trkpt lat="45.97291" lon="6.89785">
        <ele>2296</ele>
        <time>2022-08-28T08:34:09Z</time>
      </trkpt>
      <trkpt lat="45.9729" lon="6.89782">
        <ele>2297</ele>
        <time>2022-08-28T08:34:11Z</time>
      </trkpt>
      <trkpt lat="45.97289" lon="6.8978">
        <ele>2297</ele>
        <time>2022-08-28T08:34:13Z</time>
      </trkpt>
      <trkpt lat="45.97288" lon="6.89777">
        <ele>2297</ele>
        <time>2022-08-28T08:34:15Z</time>
      </trkpt>
      <trkpt lat="45.97287" lon="6.89774">
        <ele>2297</ele>
        <time>2022-08-28T08:34:17Z</time>
      </trkpt>
      <trkpt lat="45.97286" lon="6.89771">
        <ele>2297</ele>
        <time>2022-08-28T08:34:20Z</time>
      </trkpt>
      <trkpt lat="45.97285" lon="6.89768">
        <ele>2297</ele>
        <time>2022-08-28T08:34:23Z</time>
      </trkpt>
      <trkpt lat="45.97284" lon="6.89766">
        <ele>2297</ele>
        <time>2022-08-28T08:34:26Z</time>
      </trkpt>
      <trkpt lat="45.97282" lon="6.89763">
        <ele>2298</ele>
        <time>2022-08-28T08:34:30Z</time>
      </trkpt>
      <trkpt lat="45.97282" lon="6.89761">
        <ele>2298</ele>
        <time>2022-08-28T08:34:32Z</time>
      </trkpt>
      <trkpt lat="45.9728" lon="6.89757">
        <ele>2298</ele>
        <time>2022-08-28T08:34:36Z</time>
      </trkpt>
      <trkpt lat="45.97279" lon="6.89755">
        <ele>2298</ele>
        <time>2022-08-28T08:34:38Z</time>
      </trkpt>
      <trkpt lat="45.97277" lon="6.89753">
        <ele>2297</ele>
        <time>2022-08-28T08:34:41Z</time>
      </trkpt>
      <trkpt lat="45.97275" lon="6.89751">
        <ele>2297</ele>
        <time>2022-08-28T08:34:43Z</time>
      </trkpt>
      <trkpt lat="45.97273" lon="6.89749">
        <ele>2296</ele>
        <time>2022-08-28T08:34:45Z</time>
      </trkpt>
      <trkpt lat="45.97271" lon="6.89748">
        <ele>2296</ele>
        <time>2022-08-28T08:34:47Z</time>
      </trkpt>
      <trkpt lat="45.97268" lon="6.89747">
        <ele>2296</ele>
        <time>2022-08-28T08:34:49Z</time>
      </trkpt>
      <trkpt lat="45.97267" lon="6.89746">
        <ele>2296</ele>
        <time>2022-08-28T08:34:51Z</time>
      </trkpt>
      <trkpt lat="45.97266" lon="6.89744">
        <ele>2296</ele>
        <time>2022-08-28T08:34:53Z</time>
      </trkpt>
      <trkpt lat="45.97264" lon="6.89742">
        <ele>2297</ele>
        <time>2022-08-28T08:34:55Z</time>
      </trkpt>
      <trkpt lat="45.97263" lon="6.89739">
        <ele>2297</ele>
        <time>2022-08-28T08:34:57Z</time>
      </trkpt>
      <trkpt lat="45.97263" lon="6.89736">
        <ele>2297</ele>
        <time>2022-08-28T08:34:59Z</time>
      </trkpt>
      <trkpt lat="45.97263" lon="6.89733">
        <ele>2297</ele>
        <time>2022-08-28T08:35:02Z</time>
      </trkpt>
      <trkpt lat="45.97262" lon="6.89729">
        <ele>2298</ele>
        <time>2022-08-28T08:35:05Z</time>
      </trkpt>
      <trkpt lat="45.97261" lon="6.89726">
        <ele>2298</ele>
        <time>2022-08-28T08:35:08Z</time>
      </trkpt>
      <trkpt lat="45.97258" lon="6.89724">
        <ele>2298</ele>
        <time>2022-08-28T08:35:11Z</time>
      </trkpt>
      <trkpt lat="45.97257" lon="6.89722">
        <ele>2298</ele>
        <time>2022-08-28T08:35:13Z</time>
      </trkpt>
      <trkpt lat="45.97256" lon="6.89719">
        <ele>2298</ele>
        <time>2022-08-28T08:35:15Z</time>
      </trkpt>
      <trkpt lat="45.97255" lon="6.89716">
        <ele>2298</ele>
        <time>2022-08-28T08:35:18Z</time>
      </trkpt>
      <trkpt lat="45.97254" lon="6.89714">
        <ele>2298</ele>
        <time>2022-08-28T08:35:20Z</time>
      </trkpt>
      <trkpt lat="45.97251" lon="6.89709">
        <ele>2298</ele>
        <time>2022-08-28T08:35:22Z</time>
      </trkpt>
      <trkpt lat="45.9725" lon="6.89708">
        <ele>2297</ele>
        <time>2022-08-28T08:35:23Z</time>
      </trkpt>
      <trkpt lat="45.97249" lon="6.89706">
        <ele>2296</ele>
        <time>2022-08-28T08:35:24Z</time>
      </trkpt>
      <trkpt lat="45.97247" lon="6.89702">
        <ele>2296</ele>
        <time>2022-08-28T08:35:26Z</time>
      </trkpt>
      <trkpt lat="45.97245" lon="6.89701">
        <ele>2296</ele>
        <time>2022-08-28T08:35:27Z</time>
      </trkpt>
      <trkpt lat="45.97243" lon="6.89698">
        <ele>2295</ele>
        <time>2022-08-28T08:35:29Z</time>
      </trkpt>
      <trkpt lat="45.9724" lon="6.89697">
        <ele>2295</ele>
        <time>2022-08-28T08:35:31Z</time>
      </trkpt>
      <trkpt lat="45.97237" lon="6.89695">
        <ele>2295</ele>
        <time>2022-08-28T08:35:33Z</time>
      </trkpt>
      <trkpt lat="45.97235" lon="6.89692">
        <ele>2295</ele>
        <time>2022-08-28T08:35:35Z</time>
      </trkpt>
      <trkpt lat="45.97233" lon="6.89689">
        <ele>2295</ele>
        <time>2022-08-28T08:35:37Z</time>
      </trkpt>
      <trkpt lat="45.9723" lon="6.89687">
        <ele>2295</ele>
        <time>2022-08-28T08:35:39Z</time>
      </trkpt>
      <trkpt lat="45.97229" lon="6.89685">
        <ele>2294</ele>
        <time>2022-08-28T08:35:41Z</time>
      </trkpt>
      <trkpt lat="45.97228" lon="6.89682">
        <ele>2294</ele>
        <time>2022-08-28T08:35:43Z</time>
      </trkpt>
      <trkpt lat="45.97226" lon="6.89679">
        <ele>2294</ele>
        <time>2022-08-28T08:35:45Z</time>
      </trkpt>
      <trkpt lat="45.97224" lon="6.89676">
        <ele>2294</ele>
        <time>2022-08-28T08:35:47Z</time>
      </trkpt>
      <trkpt lat="45.97221" lon="6.89674">
        <ele>2293</ele>
        <time>2022-08-28T08:35:49Z</time>
      </trkpt>
      <trkpt lat="45.97219" lon="6.89672">
        <ele>2293</ele>
        <time>2022-08-28T08:35:51Z</time>
      </trkpt>
      <trkpt lat="45.97217" lon="6.8967">
        <ele>2293</ele>
        <time>2022-08-28T08:35:53Z</time>
      </trkpt>
      <trkpt lat="45.97214" lon="6.89668">
        <ele>2293</ele>
        <time>2022-08-28T08:35:55Z</time>
      </trkpt>
      <trkpt lat="45.97212" lon="6.89666">
        <ele>2293</ele>
        <time>2022-08-28T08:35:57Z</time>
      </trkpt>
      <trkpt lat="45.9721" lon="6.89664">
        <ele>2293</ele>
        <time>2022-08-28T08:35:59Z</time>
      </trkpt>
      <trkpt lat="45.97207" lon="6.89663">
        <ele>2293</ele>
        <time>2022-08-28T08:36:01Z</time>
      </trkpt>
      <trkpt lat="45.97204" lon="6.89662">
        <ele>2293</ele>
        <time>2022-08-28T08:36:03Z</time>
      </trkpt>
      <trkpt lat="45.97201" lon="6.8966">
        <ele>2293</ele>
        <time>2022-08-28T08:36:05Z</time>
      </trkpt>
      <trkpt lat="45.972" lon="6.89659">
        <ele>2293</ele>
        <time>2022-08-28T08:36:06Z</time>
      </trkpt>
      <trkpt lat="45.97198" lon="6.89657">
        <ele>2293</ele>
        <time>2022-08-28T08:36:07Z</time>
      </trkpt>
      <trkpt lat="45.97197" lon="6.89655">
        <ele>2293</ele>
        <time>2022-08-28T08:36:08Z</time>
      </trkpt>
      <trkpt lat="45.97195" lon="6.89652">
        <ele>2293</ele>
        <time>2022-08-28T08:36:10Z</time>
      </trkpt>
      <trkpt lat="45.97193" lon="6.8965">
        <ele>2293</ele>
        <time>2022-08-28T08:36:12Z</time>
      </trkpt>
      <trkpt lat="45.97191" lon="6.89647">
        <ele>2292</ele>
        <time>2022-08-28T08:36:14Z</time>
      </trkpt>
      <trkpt lat="45.97189" lon="6.89644">
        <ele>2292</ele>
        <time>2022-08-28T08:36:16Z</time>
      </trkpt>
      <trkpt lat="45.97188" lon="6.8964">
        <ele>2292</ele>
        <time>2022-08-28T08:36:18Z</time>
      </trkpt>
      <trkpt lat="45.97187" lon="6.89636">
        <ele>2292</ele>
        <time>2022-08-28T08:36:20Z</time>
      </trkpt>
      <trkpt lat="45.97185" lon="6.89633">
        <ele>2292</ele>
        <time>2022-08-28T08:36:22Z</time>
      </trkpt>
      <trkpt lat="45.97184" lon="6.89631">
        <ele>2292</ele>
        <time>2022-08-28T08:36:24Z</time>
      </trkpt>
      <trkpt lat="45.97182" lon="6.8963">
        <ele>2292</ele>
        <time>2022-08-28T08:36:26Z</time>
      </trkpt>
      <trkpt lat="45.9718" lon="6.89628">
        <ele>2292</ele>
        <time>2022-08-28T08:36:28Z</time>
      </trkpt>
      <trkpt lat="45.97178" lon="6.89626">
        <ele>2292</ele>
        <time>2022-08-28T08:36:30Z</time>
      </trkpt>
      <trkpt lat="45.97176" lon="6.89624">
        <ele>2292</ele>
        <time>2022-08-28T08:36:32Z</time>
      </trkpt>
      <trkpt lat="45.97174" lon="6.89621">
        <ele>2292</ele>
        <time>2022-08-28T08:36:34Z</time>
      </trkpt>
      <trkpt lat="45.97172" lon="6.8962">
        <ele>2292</ele>
        <time>2022-08-28T08:36:36Z</time>
      </trkpt>
      <trkpt lat="45.9717" lon="6.89618">
        <ele>2292</ele>
        <time>2022-08-28T08:36:38Z</time>
      </trkpt>
      <trkpt lat="45.97169" lon="6.89616">
        <ele>2292</ele>
        <time>2022-08-28T08:36:40Z</time>
      </trkpt>
      <trkpt lat="45.97167" lon="6.89614">
        <ele>2293</ele>
        <time>2022-08-28T08:36:42Z</time>
      </trkpt>
      <trkpt lat="45.97165" lon="6.89612">
        <ele>2293</ele>
        <time>2022-08-28T08:36:45Z</time>
      </trkpt>
      <trkpt lat="45.97163" lon="6.8961">
        <ele>2293</ele>
        <time>2022-08-28T08:36:47Z</time>
      </trkpt>
      <trkpt lat="45.97161" lon="6.89608">
        <ele>2293</ele>
        <time>2022-08-28T08:36:50Z</time>
      </trkpt>
      <trkpt lat="45.97158" lon="6.89607">
        <ele>2293</ele>
        <time>2022-08-28T08:36:52Z</time>
      </trkpt>
      <trkpt lat="45.97156" lon="6.89604">
        <ele>2293</ele>
        <time>2022-08-28T08:36:54Z</time>
      </trkpt>
      <trkpt lat="45.97155" lon="6.89603">
        <ele>2293</ele>
        <time>2022-08-28T08:36:56Z</time>
      </trkpt>
      <trkpt lat="45.97153" lon="6.89601">
        <ele>2293</ele>
        <time>2022-08-28T08:36:58Z</time>
      </trkpt>
      <trkpt lat="45.97151" lon="6.89599">
        <ele>2293</ele>
        <time>2022-08-28T08:37:00Z</time>
      </trkpt>
      <trkpt lat="45.9715" lon="6.89596">
        <ele>2293</ele>
        <time>2022-08-28T08:37:02Z</time>
      </trkpt>
      <trkpt lat="45.97148" lon="6.89594">
        <ele>2294</ele>
        <time>2022-08-28T08:37:04Z</time>
      </trkpt>
      <trkpt lat="45.97147" lon="6.89592">
        <ele>2294</ele>
        <time>2022-08-28T08:37:06Z</time>
      </trkpt>
      <trkpt lat="45.97145" lon="6.89589">
        <ele>2294</ele>
        <time>2022-08-28T08:37:09Z</time>
      </trkpt>
      <trkpt lat="45.97144" lon="6.89586">
        <ele>2294</ele>
        <time>2022-08-28T08:37:11Z</time>
      </trkpt>
      <trkpt lat="45.97143" lon="6.89583">
        <ele>2294</ele>
        <time>2022-08-28T08:37:13Z</time>
      </trkpt>
      <trkpt lat="45.97142" lon="6.89579">
        <ele>2294</ele>
        <time>2022-08-28T08:37:15Z</time>
      </trkpt>
      <trkpt lat="45.97142" lon="6.89576">
        <ele>2294</ele>
        <time>2022-08-28T08:37:17Z</time>
      </trkpt>
      <trkpt lat="45.97141" lon="6.89573">
        <ele>2294</ele>
        <time>2022-08-28T08:37:20Z</time>
      </trkpt>
      <trkpt lat="45.97139" lon="6.89571">
        <ele>2294</ele>
        <time>2022-08-28T08:37:22Z</time>
      </trkpt>
      <trkpt lat="45.97136" lon="6.89571">
        <ele>2294</ele>
        <time>2022-08-28T08:37:24Z</time>
      </trkpt>
      <trkpt lat="45.97135" lon="6.8957">
        <ele>2294</ele>
        <time>2022-08-28T08:37:26Z</time>
      </trkpt>
      <trkpt lat="45.97133" lon="6.89568">
        <ele>2294</ele>
        <time>2022-08-28T08:37:29Z</time>
      </trkpt>
      <trkpt lat="45.97131" lon="6.89565">
        <ele>2295</ele>
        <time>2022-08-28T08:37:32Z</time>
      </trkpt>
      <trkpt lat="45.97129" lon="6.89562">
        <ele>2295</ele>
        <time>2022-08-28T08:37:35Z</time>
      </trkpt>
      <trkpt lat="45.97128" lon="6.8956">
        <ele>2295</ele>
        <time>2022-08-28T08:37:37Z</time>
      </trkpt>
      <trkpt lat="45.97125" lon="6.89558">
        <ele>2295</ele>
        <time>2022-08-28T08:37:40Z</time>
      </trkpt>
      <trkpt lat="45.97124" lon="6.89555">
        <ele>2296</ele>
        <time>2022-08-28T08:37:42Z</time>
      </trkpt>
      <trkpt lat="45.97122" lon="6.89554">
        <ele>2296</ele>
        <time>2022-08-28T08:37:44Z</time>
      </trkpt>
      <trkpt lat="45.9712" lon="6.89552">
        <ele>2296</ele>
        <time>2022-08-28T08:37:46Z</time>
      </trkpt>
      <trkpt lat="45.97119" lon="6.89549">
        <ele>2295</ele>
        <time>2022-08-28T08:37:48Z</time>
      </trkpt>
      <trkpt lat="45.97117" lon="6.89548">
        <ele>2295</ele>
        <time>2022-08-28T08:37:50Z</time>
      </trkpt>
      <trkpt lat="45.97115" lon="6.89546">
        <ele>2295</ele>
        <time>2022-08-28T08:37:52Z</time>
      </trkpt>
      <trkpt lat="45.97113" lon="6.89544">
        <ele>2295</ele>
        <time>2022-08-28T08:37:54Z</time>
      </trkpt>
      <trkpt lat="45.97111" lon="6.89542">
        <ele>2295</ele>
        <time>2022-08-28T08:37:56Z</time>
      </trkpt>
      <trkpt lat="45.97109" lon="6.8954">
        <ele>2296</ele>
        <time>2022-08-28T08:37:58Z</time>
      </trkpt>
      <trkpt lat="45.97108" lon="6.89538">
        <ele>2296</ele>
        <time>2022-08-28T08:38:00Z</time>
      </trkpt>
      <trkpt lat="45.97106" lon="6.89536">
        <ele>2296</ele>
        <time>2022-08-28T08:38:02Z</time>
      </trkpt>
      <trkpt lat="45.97105" lon="6.89536">
        <ele>2297</ele>
        <time>2022-08-28T08:38:04Z</time>
      </trkpt>
      <trkpt lat="45.97103" lon="6.89535">
        <ele>2298</ele>
        <time>2022-08-28T08:38:06Z</time>
      </trkpt>
      <trkpt lat="45.971" lon="6.89533">
        <ele>2296</ele>
        <time>2022-08-28T08:38:08Z</time>
      </trkpt>
      <trkpt lat="45.97098" lon="6.89531">
        <ele>2296</ele>
        <time>2022-08-28T08:38:10Z</time>
      </trkpt>
      <trkpt lat="45.97097" lon="6.89528">
        <ele>2296</ele>
        <time>2022-08-28T08:38:12Z</time>
      </trkpt>
      <trkpt lat="45.97096" lon="6.89526">
        <ele>2297</ele>
        <time>2022-08-28T08:38:14Z</time>
      </trkpt>
      <trkpt lat="45.97093" lon="6.89524">
        <ele>2297</ele>
        <time>2022-08-28T08:38:17Z</time>
      </trkpt>
      <trkpt lat="45.97091" lon="6.89522">
        <ele>2297</ele>
        <time>2022-08-28T08:38:19Z</time>
      </trkpt>
      <trkpt lat="45.9709" lon="6.89521">
        <ele>2297</ele>
        <time>2022-08-28T08:38:21Z</time>
      </trkpt>
      <trkpt lat="45.97088" lon="6.89519">
        <ele>2297</ele>
        <time>2022-08-28T08:38:23Z</time>
      </trkpt>
      <trkpt lat="45.97086" lon="6.89518">
        <ele>2297</ele>
        <time>2022-08-28T08:38:25Z</time>
      </trkpt>
      <trkpt lat="45.97084" lon="6.89515">
        <ele>2297</ele>
        <time>2022-08-28T08:38:27Z</time>
      </trkpt>
      <trkpt lat="45.97082" lon="6.89513">
        <ele>2297</ele>
        <time>2022-08-28T08:38:29Z</time>
      </trkpt>
      <trkpt lat="45.97081" lon="6.8951">
        <ele>2297</ele>
        <time>2022-08-28T08:38:31Z</time>
      </trkpt>
      <trkpt lat="45.97078" lon="6.89508">
        <ele>2297</ele>
        <time>2022-08-28T08:38:33Z</time>
      </trkpt>
      <trkpt lat="45.97076" lon="6.89506">
        <ele>2297</ele>
        <time>2022-08-28T08:38:35Z</time>
      </trkpt>
      <trkpt lat="45.97074" lon="6.89505">
        <ele>2297</ele>
        <time>2022-08-28T08:38:37Z</time>
      </trkpt>
      <trkpt lat="45.97072" lon="6.89504">
        <ele>2297</ele>
        <time>2022-08-28T08:38:39Z</time>
      </trkpt>
      <trkpt lat="45.9707" lon="6.89502">
        <ele>2297</ele>
        <time>2022-08-28T08:38:41Z</time>
      </trkpt>
      <trkpt lat="45.97068" lon="6.895">
        <ele>2297</ele>
        <time>2022-08-28T08:38:43Z</time>
      </trkpt>
      <trkpt lat="45.97065" lon="6.89499">
        <ele>2297</ele>
        <time>2022-08-28T08:38:45Z</time>
      </trkpt>
      <trkpt lat="45.97063" lon="6.89498">
        <ele>2297</ele>
        <time>2022-08-28T08:38:47Z</time>
      </trkpt>
      <trkpt lat="45.97061" lon="6.89496">
        <ele>2297</ele>
        <time>2022-08-28T08:38:49Z</time>
      </trkpt>
      <trkpt lat="45.97058" lon="6.89495">
        <ele>2297</ele>
        <time>2022-08-28T08:38:51Z</time>
      </trkpt>
      <trkpt lat="45.97055" lon="6.89493">
        <ele>2296</ele>
        <time>2022-08-28T08:38:53Z</time>
      </trkpt>
      <trkpt lat="45.97053" lon="6.89492">
        <ele>2296</ele>
        <time>2022-08-28T08:38:54Z</time>
      </trkpt>
      <trkpt lat="45.9705" lon="6.89491">
        <ele>2296</ele>
        <time>2022-08-28T08:38:56Z</time>
      </trkpt>
      <trkpt lat="45.97047" lon="6.89489">
        <ele>2295</ele>
        <time>2022-08-28T08:38:58Z</time>
      </trkpt>
      <trkpt lat="45.97045" lon="6.89487">
        <ele>2295</ele>
        <time>2022-08-28T08:39:00Z</time>
      </trkpt>
      <trkpt lat="45.97042" lon="6.89485">
        <ele>2295</ele>
        <time>2022-08-28T08:39:02Z</time>
      </trkpt>
      <trkpt lat="45.9704" lon="6.89484">
        <ele>2295</ele>
        <time>2022-08-28T08:39:04Z</time>
      </trkpt>
      <trkpt lat="45.97037" lon="6.89484">
        <ele>2295</ele>
        <time>2022-08-28T08:39:06Z</time>
      </trkpt>
      <trkpt lat="45.97034" lon="6.89483">
        <ele>2294</ele>
        <time>2022-08-28T08:39:08Z</time>
      </trkpt>
      <trkpt lat="45.97032" lon="6.89481">
        <ele>2295</ele>
        <time>2022-08-28T08:39:10Z</time>
      </trkpt>
      <trkpt lat="45.97029" lon="6.8948">
        <ele>2294</ele>
        <time>2022-08-28T08:39:12Z</time>
      </trkpt>
      <trkpt lat="45.97026" lon="6.89478">
        <ele>2294</ele>
        <time>2022-08-28T08:39:14Z</time>
      </trkpt>
      <trkpt lat="45.97024" lon="6.89477">
        <ele>2294</ele>
        <time>2022-08-28T08:39:15Z</time>
      </trkpt>
      <trkpt lat="45.97022" lon="6.89476">
        <ele>2294</ele>
        <time>2022-08-28T08:39:16Z</time>
      </trkpt>
      <trkpt lat="45.97019" lon="6.89473">
        <ele>2294</ele>
        <time>2022-08-28T08:39:17Z</time>
      </trkpt>
      <trkpt lat="45.97018" lon="6.89472">
        <ele>2294</ele>
        <time>2022-08-28T08:39:18Z</time>
      </trkpt>
      <trkpt lat="45.97017" lon="6.89471">
        <ele>2294</ele>
        <time>2022-08-28T08:39:19Z</time>
      </trkpt>
      <trkpt lat="45.97014" lon="6.89468">
        <ele>2294</ele>
        <time>2022-08-28T08:39:21Z</time>
      </trkpt>
      <trkpt lat="45.97011" lon="6.89465">
        <ele>2294</ele>
        <time>2022-08-28T08:39:23Z</time>
      </trkpt>
      <trkpt lat="45.97009" lon="6.89462">
        <ele>2294</ele>
        <time>2022-08-28T08:39:25Z</time>
      </trkpt>
      <trkpt lat="45.97006" lon="6.89459">
        <ele>2294</ele>
        <time>2022-08-28T08:39:27Z</time>
      </trkpt>
      <trkpt lat="45.97004" lon="6.89456">
        <ele>2294</ele>
        <time>2022-08-28T08:39:29Z</time>
      </trkpt>
      <trkpt lat="45.97003" lon="6.89453">
        <ele>2294</ele>
        <time>2022-08-28T08:39:31Z</time>
      </trkpt>
      <trkpt lat="45.97001" lon="6.89451">
        <ele>2294</ele>
        <time>2022-08-28T08:39:33Z</time>
      </trkpt>
      <trkpt lat="45.97" lon="6.89449">
        <ele>2294</ele>
        <time>2022-08-28T08:39:35Z</time>
      </trkpt>
      <trkpt lat="45.96999" lon="6.89447">
        <ele>2294</ele>
        <time>2022-08-28T08:39:37Z</time>
      </trkpt>
      <trkpt lat="45.96996" lon="6.89444">
        <ele>2294</ele>
        <time>2022-08-28T08:39:39Z</time>
      </trkpt>
      <trkpt lat="45.96993" lon="6.89442">
        <ele>2294</ele>
        <time>2022-08-28T08:39:41Z</time>
      </trkpt>
      <trkpt lat="45.96991" lon="6.8944">
        <ele>2294</ele>
        <time>2022-08-28T08:39:43Z</time>
      </trkpt>
      <trkpt lat="45.96988" lon="6.89438">
        <ele>2292</ele>
        <time>2022-08-28T08:39:45Z</time>
      </trkpt>
      <trkpt lat="45.96985" lon="6.89438">
        <ele>2292</ele>
        <time>2022-08-28T08:39:47Z</time>
      </trkpt>
      <trkpt lat="45.96982" lon="6.89436">
        <ele>2290</ele>
        <time>2022-08-28T08:39:49Z</time>
      </trkpt>
      <trkpt lat="45.9698" lon="6.89435">
        <ele>2290</ele>
        <time>2022-08-28T08:39:51Z</time>
      </trkpt>
      <trkpt lat="45.96978" lon="6.89435">
        <ele>2290</ele>
        <time>2022-08-28T08:39:53Z</time>
      </trkpt>
      <trkpt lat="45.96975" lon="6.89434">
        <ele>2289</ele>
        <time>2022-08-28T08:39:55Z</time>
      </trkpt>
      <trkpt lat="45.96973" lon="6.89433">
        <ele>2289</ele>
        <time>2022-08-28T08:39:57Z</time>
      </trkpt>
      <trkpt lat="45.96971" lon="6.89431">
        <ele>2289</ele>
        <time>2022-08-28T08:39:59Z</time>
      </trkpt>
      <trkpt lat="45.9697" lon="6.8943">
        <ele>2289</ele>
        <time>2022-08-28T08:40:00Z</time>
      </trkpt>
      <trkpt lat="45.96968" lon="6.89429">
        <ele>2288</ele>
        <time>2022-08-28T08:40:03Z</time>
      </trkpt>
      <trkpt lat="45.96966" lon="6.89429">
        <ele>2288</ele>
        <time>2022-08-28T08:40:05Z</time>
      </trkpt>
      <trkpt lat="45.96963" lon="6.8943">
        <ele>2287</ele>
        <time>2022-08-28T08:40:07Z</time>
      </trkpt>
      <trkpt lat="45.96961" lon="6.89429">
        <ele>2286</ele>
        <time>2022-08-28T08:40:09Z</time>
      </trkpt>
      <trkpt lat="45.96959" lon="6.89428">
        <ele>2285</ele>
        <time>2022-08-28T08:40:11Z</time>
      </trkpt>
      <trkpt lat="45.96957" lon="6.89427">
        <ele>2284</ele>
        <time>2022-08-28T08:40:13Z</time>
      </trkpt>
      <trkpt lat="45.96954" lon="6.89426">
        <ele>2284</ele>
        <time>2022-08-28T08:40:15Z</time>
      </trkpt>
      <trkpt lat="45.96952" lon="6.89424">
        <ele>2283</ele>
        <time>2022-08-28T08:40:17Z</time>
      </trkpt>
      <trkpt lat="45.9695" lon="6.89422">
        <ele>2281</ele>
        <time>2022-08-28T08:40:20Z</time>
      </trkpt>
      <trkpt lat="45.96948" lon="6.8942">
        <ele>2281</ele>
        <time>2022-08-28T08:40:23Z</time>
      </trkpt>
      <trkpt lat="45.96946" lon="6.89418">
        <ele>2281</ele>
        <time>2022-08-28T08:40:25Z</time>
      </trkpt>
      <trkpt lat="45.96944" lon="6.89417">
        <ele>2280</ele>
        <time>2022-08-28T08:40:27Z</time>
      </trkpt>
      <trkpt lat="45.96942" lon="6.89415">
        <ele>2279</ele>
        <time>2022-08-28T08:40:29Z</time>
      </trkpt>
      <trkpt lat="45.96941" lon="6.89414">
        <ele>2279</ele>
        <time>2022-08-28T08:40:30Z</time>
      </trkpt>
      <trkpt lat="45.96939" lon="6.89413">
        <ele>2279</ele>
        <time>2022-08-28T08:40:31Z</time>
      </trkpt>
      <trkpt lat="45.96938" lon="6.89412">
        <ele>2278</ele>
        <time>2022-08-28T08:40:32Z</time>
      </trkpt>
      <trkpt lat="45.96936" lon="6.89409">
        <ele>2278</ele>
        <time>2022-08-28T08:40:34Z</time>
      </trkpt>
      <trkpt lat="45.96934" lon="6.89408">
        <ele>2277</ele>
        <time>2022-08-28T08:40:36Z</time>
      </trkpt>
      <trkpt lat="45.96932" lon="6.89407">
        <ele>2276</ele>
        <time>2022-08-28T08:40:38Z</time>
      </trkpt>
      <trkpt lat="45.9693" lon="6.89404">
        <ele>2276</ele>
        <time>2022-08-28T08:40:41Z</time>
      </trkpt>
      <trkpt lat="45.9693" lon="6.894">
        <ele>2276</ele>
        <time>2022-08-28T08:40:44Z</time>
      </trkpt>
      <trkpt lat="45.9693" lon="6.89397">
        <ele>2274</ele>
        <time>2022-08-28T08:40:47Z</time>
      </trkpt>
      <trkpt lat="45.96929" lon="6.89395">
        <ele>2274</ele>
        <time>2022-08-28T08:40:51Z</time>
      </trkpt>
      <trkpt lat="45.96926" lon="6.89395">
        <ele>2272</ele>
        <time>2022-08-28T08:40:54Z</time>
      </trkpt>
      <trkpt lat="45.96924" lon="6.89397">
        <ele>2272</ele>
        <time>2022-08-28T08:40:57Z</time>
      </trkpt>
      <trkpt lat="45.96923" lon="6.89399">
        <ele>2271</ele>
        <time>2022-08-28T08:41:02Z</time>
      </trkpt>
      <trkpt lat="45.96922" lon="6.89401">
        <ele>2269</ele>
        <time>2022-08-28T08:41:05Z</time>
      </trkpt>
      <trkpt lat="45.96921" lon="6.89404">
        <ele>2269</ele>
        <time>2022-08-28T08:41:07Z</time>
      </trkpt>
      <trkpt lat="45.9692" lon="6.89407">
        <ele>2269</ele>
        <time>2022-08-28T08:41:10Z</time>
      </trkpt>
      <trkpt lat="45.96919" lon="6.89405">
        <ele>2268</ele>
        <time>2022-08-28T08:41:15Z</time>
      </trkpt>
      <trkpt lat="45.96919" lon="6.89403">
        <ele>2268</ele>
        <time>2022-08-28T08:41:17Z</time>
      </trkpt>
      <trkpt lat="45.96919" lon="6.89399">
        <ele>2268</ele>
        <time>2022-08-28T08:41:20Z</time>
      </trkpt>
      <trkpt lat="45.96919" lon="6.89396">
        <ele>2267</ele>
        <time>2022-08-28T08:41:22Z</time>
      </trkpt>
      <trkpt lat="45.96917" lon="6.89393">
        <ele>2266</ele>
        <time>2022-08-28T08:41:26Z</time>
      </trkpt>
      <trkpt lat="45.96916" lon="6.89391">
        <ele>2265</ele>
        <time>2022-08-28T08:41:28Z</time>
      </trkpt>
      <trkpt lat="45.96915" lon="6.89388">
        <ele>2265</ele>
        <time>2022-08-28T08:41:30Z</time>
      </trkpt>
      <trkpt lat="45.96915" lon="6.89385">
        <ele>2265</ele>
        <time>2022-08-28T08:41:32Z</time>
      </trkpt>
      <trkpt lat="45.96914" lon="6.89381">
        <ele>2264</ele>
        <time>2022-08-28T08:41:34Z</time>
      </trkpt>
      <trkpt lat="45.96914" lon="6.89377">
        <ele>2262</ele>
        <time>2022-08-28T08:41:36Z</time>
      </trkpt>
      <trkpt lat="45.96914" lon="6.89373">
        <ele>2262</ele>
        <time>2022-08-28T08:41:38Z</time>
      </trkpt>
      <trkpt lat="45.96913" lon="6.89368">
        <ele>2261</ele>
        <time>2022-08-28T08:41:40Z</time>
      </trkpt>
      <trkpt lat="45.96914" lon="6.89364">
        <ele>2261</ele>
        <time>2022-08-28T08:41:42Z</time>
      </trkpt>
      <trkpt lat="45.96914" lon="6.89359">
        <ele>2261</ele>
        <time>2022-08-28T08:41:44Z</time>
      </trkpt>
      <trkpt lat="45.96914" lon="6.89355">
        <ele>2260</ele>
        <time>2022-08-28T08:41:46Z</time>
      </trkpt>
      <trkpt lat="45.96914" lon="6.89351">
        <ele>2260</ele>
        <time>2022-08-28T08:41:48Z</time>
      </trkpt>
      <trkpt lat="45.96913" lon="6.89347">
        <ele>2259</ele>
        <time>2022-08-28T08:41:51Z</time>
      </trkpt>
      <trkpt lat="45.96913" lon="6.89344">
        <ele>2258</ele>
        <time>2022-08-28T08:41:54Z</time>
      </trkpt>
      <trkpt lat="45.96913" lon="6.89341">
        <ele>2258</ele>
        <time>2022-08-28T08:41:57Z</time>
      </trkpt>
      <trkpt lat="45.96913" lon="6.89337">
        <ele>2258</ele>
        <time>2022-08-28T08:42:00Z</time>
      </trkpt>
      <trkpt lat="45.96913" lon="6.89333">
        <ele>2256</ele>
        <time>2022-08-28T08:42:02Z</time>
      </trkpt>
      <trkpt lat="45.96913" lon="6.8933">
        <ele>2256</ele>
        <time>2022-08-28T08:42:04Z</time>
      </trkpt>
      <trkpt lat="45.96914" lon="6.89328">
        <ele>2256</ele>
        <time>2022-08-28T08:42:06Z</time>
      </trkpt>
      <trkpt lat="45.96914" lon="6.89324">
        <ele>2256</ele>
        <time>2022-08-28T08:42:08Z</time>
      </trkpt>
      <trkpt lat="45.96915" lon="6.89321">
        <ele>2255</ele>
        <time>2022-08-28T08:42:11Z</time>
      </trkpt>
      <trkpt lat="45.96914" lon="6.89318">
        <ele>2254</ele>
        <time>2022-08-28T08:42:14Z</time>
      </trkpt>
      <trkpt lat="45.96915" lon="6.89315">
        <ele>2254</ele>
        <time>2022-08-28T08:42:17Z</time>
      </trkpt>
      <trkpt lat="45.96916" lon="6.89313">
        <ele>2253</ele>
        <time>2022-08-28T08:42:19Z</time>
      </trkpt>
      <trkpt lat="45.96916" lon="6.8931">
        <ele>2253</ele>
        <time>2022-08-28T08:42:21Z</time>
      </trkpt>
      <trkpt lat="45.96916" lon="6.89307">
        <ele>2253</ele>
        <time>2022-08-28T08:42:23Z</time>
      </trkpt>
      <trkpt lat="45.96914" lon="6.89308">
        <ele>2252</ele>
        <time>2022-08-28T08:42:32Z</time>
      </trkpt>
      <trkpt lat="45.96912" lon="6.8931">
        <ele>2251</ele>
        <time>2022-08-28T08:42:35Z</time>
      </trkpt>
      <trkpt lat="45.96911" lon="6.89313">
        <ele>2251</ele>
        <time>2022-08-28T08:42:38Z</time>
      </trkpt>
      <trkpt lat="45.96909" lon="6.89315">
        <ele>2251</ele>
        <time>2022-08-28T08:42:41Z</time>
      </trkpt>
      <trkpt lat="45.96908" lon="6.89317">
        <ele>2250</ele>
        <time>2022-08-28T08:42:45Z</time>
      </trkpt>
      <trkpt lat="45.96906" lon="6.89319">
        <ele>2249</ele>
        <time>2022-08-28T08:42:47Z</time>
      </trkpt>
      <trkpt lat="45.96904" lon="6.8932">
        <ele>2248</ele>
        <time>2022-08-28T08:42:49Z</time>
      </trkpt>
      <trkpt lat="45.96903" lon="6.89317">
        <ele>2248</ele>
        <time>2022-08-28T08:42:52Z</time>
      </trkpt>
      <trkpt lat="45.96903" lon="6.89316">
        <ele>2248</ele>
        <time>2022-08-28T08:42:53Z</time>
      </trkpt>
      <trkpt lat="45.96903" lon="6.89314">
        <ele>2248</ele>
        <time>2022-08-28T08:42:55Z</time>
      </trkpt>
      <trkpt lat="45.96903" lon="6.89313">
        <ele>2248</ele>
        <time>2022-08-28T08:42:56Z</time>
      </trkpt>
      <trkpt lat="45.96903" lon="6.89311">
        <ele>2248</ele>
        <time>2022-08-28T08:42:57Z</time>
      </trkpt>
      <trkpt lat="45.96903" lon="6.89309">
        <ele>2246</ele>
        <time>2022-08-28T08:42:59Z</time>
      </trkpt>
      <trkpt lat="45.96901" lon="6.89306">
        <ele>2246</ele>
        <time>2022-08-28T08:43:03Z</time>
      </trkpt>
      <trkpt lat="45.96899" lon="6.89305">
        <ele>2244</ele>
        <time>2022-08-28T08:43:07Z</time>
      </trkpt>
      <trkpt lat="45.96899" lon="6.89301">
        <ele>2243</ele>
        <time>2022-08-28T08:43:10Z</time>
      </trkpt>
      <trkpt lat="45.96898" lon="6.89298">
        <ele>2243</ele>
        <time>2022-08-28T08:43:13Z</time>
      </trkpt>
      <trkpt lat="45.96897" lon="6.89295">
        <ele>2243</ele>
        <time>2022-08-28T08:43:15Z</time>
      </trkpt>
      <trkpt lat="45.96896" lon="6.89292">
        <ele>2242</ele>
        <time>2022-08-28T08:43:18Z</time>
      </trkpt>
      <trkpt lat="45.96897" lon="6.89289">
        <ele>2242</ele>
        <time>2022-08-28T08:43:20Z</time>
      </trkpt>
      <trkpt lat="45.96896" lon="6.89287">
        <ele>2242</ele>
        <time>2022-08-28T08:43:22Z</time>
      </trkpt>
      <trkpt lat="45.96895" lon="6.89284">
        <ele>2242</ele>
        <time>2022-08-28T08:43:25Z</time>
      </trkpt>
      <trkpt lat="45.96894" lon="6.89281">
        <ele>2241</ele>
        <time>2022-08-28T08:43:27Z</time>
      </trkpt>
      <trkpt lat="45.96893" lon="6.89278">
        <ele>2241</ele>
        <time>2022-08-28T08:43:29Z</time>
      </trkpt>
      <trkpt lat="45.96892" lon="6.89275">
        <ele>2240</ele>
        <time>2022-08-28T08:43:31Z</time>
      </trkpt>
      <trkpt lat="45.96891" lon="6.89272">
        <ele>2240</ele>
        <time>2022-08-28T08:43:33Z</time>
      </trkpt>
      <trkpt lat="45.9689" lon="6.8927">
        <ele>2240</ele>
        <time>2022-08-28T08:43:35Z</time>
      </trkpt>
      <trkpt lat="45.96888" lon="6.89267">
        <ele>2239</ele>
        <time>2022-08-28T08:43:38Z</time>
      </trkpt>
      <trkpt lat="45.96886" lon="6.89264">
        <ele>2239</ele>
        <time>2022-08-28T08:43:40Z</time>
      </trkpt>
      <trkpt lat="45.96885" lon="6.89262">
        <ele>2239</ele>
        <time>2022-08-28T08:43:42Z</time>
      </trkpt>
      <trkpt lat="45.96883" lon="6.8926">
        <ele>2238</ele>
        <time>2022-08-28T08:43:44Z</time>
      </trkpt>
      <trkpt lat="45.96882" lon="6.89258">
        <ele>2238</ele>
        <time>2022-08-28T08:43:46Z</time>
      </trkpt>
      <trkpt lat="45.96882" lon="6.89255">
        <ele>2237</ele>
        <time>2022-08-28T08:43:49Z</time>
      </trkpt>
      <trkpt lat="45.96882" lon="6.89252">
        <ele>2237</ele>
        <time>2022-08-28T08:43:51Z</time>
      </trkpt>
      <trkpt lat="45.96881" lon="6.89249">
        <ele>2237</ele>
        <time>2022-08-28T08:43:54Z</time>
      </trkpt>
      <trkpt lat="45.96879" lon="6.89248">
        <ele>2237</ele>
        <time>2022-08-28T08:43:56Z</time>
      </trkpt>
      <trkpt lat="45.96877" lon="6.89244">
        <ele>2236</ele>
        <time>2022-08-28T08:44:01Z</time>
      </trkpt>
      <trkpt lat="45.96876" lon="6.89241">
        <ele>2235</ele>
        <time>2022-08-28T08:44:04Z</time>
      </trkpt>
      <trkpt lat="45.96874" lon="6.89238">
        <ele>2234</ele>
        <time>2022-08-28T08:44:06Z</time>
      </trkpt>
      <trkpt lat="45.96873" lon="6.89235">
        <ele>2234</ele>
        <time>2022-08-28T08:44:08Z</time>
      </trkpt>
      <trkpt lat="45.96872" lon="6.89232">
        <ele>2234</ele>
        <time>2022-08-28T08:44:10Z</time>
      </trkpt>
      <trkpt lat="45.96871" lon="6.8923">
        <ele>2234</ele>
        <time>2022-08-28T08:44:12Z</time>
      </trkpt>
      <trkpt lat="45.96869" lon="6.89229">
        <ele>2234</ele>
        <time>2022-08-28T08:44:14Z</time>
      </trkpt>
      <trkpt lat="45.96866" lon="6.89229">
        <ele>2234</ele>
        <time>2022-08-28T08:44:17Z</time>
      </trkpt>
      <trkpt lat="45.96864" lon="6.89229">
        <ele>2234</ele>
        <time>2022-08-28T08:44:19Z</time>
      </trkpt>
      <trkpt lat="45.96862" lon="6.89229">
        <ele>2234</ele>
        <time>2022-08-28T08:44:21Z</time>
      </trkpt>
      <trkpt lat="45.9686" lon="6.89229">
        <ele>2234</ele>
        <time>2022-08-28T08:44:23Z</time>
      </trkpt>
      <trkpt lat="45.96857" lon="6.89229">
        <ele>2234</ele>
        <time>2022-08-28T08:44:25Z</time>
      </trkpt>
      <trkpt lat="45.96855" lon="6.89228">
        <ele>2234</ele>
        <time>2022-08-28T08:44:27Z</time>
      </trkpt>
      <trkpt lat="45.96852" lon="6.89226">
        <ele>2234</ele>
        <time>2022-08-28T08:44:29Z</time>
      </trkpt>
      <trkpt lat="45.9685" lon="6.89225">
        <ele>2234</ele>
        <time>2022-08-28T08:44:31Z</time>
      </trkpt>
      <trkpt lat="45.96848" lon="6.89224">
        <ele>2234</ele>
        <time>2022-08-28T08:44:33Z</time>
      </trkpt>
      <trkpt lat="45.96847" lon="6.89223">
        <ele>2232</ele>
        <time>2022-08-28T08:44:35Z</time>
      </trkpt>
      <trkpt lat="45.96844" lon="6.89222">
        <ele>2232</ele>
        <time>2022-08-28T08:44:37Z</time>
      </trkpt>
      <trkpt lat="45.96842" lon="6.89221">
        <ele>2232</ele>
        <time>2022-08-28T08:44:39Z</time>
      </trkpt>
      <trkpt lat="45.96841" lon="6.8922">
        <ele>2232</ele>
        <time>2022-08-28T08:44:41Z</time>
      </trkpt>
      <trkpt lat="45.96838" lon="6.89219">
        <ele>2232</ele>
        <time>2022-08-28T08:44:44Z</time>
      </trkpt>
      <trkpt lat="45.96837" lon="6.89219">
        <ele>2232</ele>
        <time>2022-08-28T08:44:46Z</time>
      </trkpt>
      <trkpt lat="45.96834" lon="6.89218">
        <ele>2231</ele>
        <time>2022-08-28T08:44:49Z</time>
      </trkpt>
      <trkpt lat="45.96832" lon="6.89217">
        <ele>2231</ele>
        <time>2022-08-28T08:44:51Z</time>
      </trkpt>
      <trkpt lat="45.9683" lon="6.89217">
        <ele>2230</ele>
        <time>2022-08-28T08:44:53Z</time>
      </trkpt>
      <trkpt lat="45.96828" lon="6.89216">
        <ele>2230</ele>
        <time>2022-08-28T08:44:55Z</time>
      </trkpt>
      <trkpt lat="45.96825" lon="6.89215">
        <ele>2229</ele>
        <time>2022-08-28T08:44:58Z</time>
      </trkpt>
      <trkpt lat="45.96823" lon="6.89215">
        <ele>2229</ele>
        <time>2022-08-28T08:45:02Z</time>
      </trkpt>
      <trkpt lat="45.96821" lon="6.89214">
        <ele>2227</ele>
        <time>2022-08-28T08:45:06Z</time>
      </trkpt>
      <trkpt lat="45.96819" lon="6.89215">
        <ele>2227</ele>
        <time>2022-08-28T08:45:08Z</time>
      </trkpt>
      <trkpt lat="45.96817" lon="6.89214">
        <ele>2227</ele>
        <time>2022-08-28T08:45:10Z</time>
      </trkpt>
      <trkpt lat="45.96814" lon="6.89214">
        <ele>2227</ele>
        <time>2022-08-28T08:45:12Z</time>
      </trkpt>
      <trkpt lat="45.96811" lon="6.89214">
        <ele>2226</ele>
        <time>2022-08-28T08:45:14Z</time>
      </trkpt>
      <trkpt lat="45.96809" lon="6.89214">
        <ele>2226</ele>
        <time>2022-08-28T08:45:16Z</time>
      </trkpt>
      <trkpt lat="45.96806" lon="6.89212">
        <ele>2226</ele>
        <time>2022-08-28T08:45:18Z</time>
      </trkpt>
      <trkpt lat="45.96803" lon="6.89212">
        <ele>2226</ele>
        <time>2022-08-28T08:45:20Z</time>
      </trkpt>
      <trkpt lat="45.96801" lon="6.89211">
        <ele>2225</ele>
        <time>2022-08-28T08:45:22Z</time>
      </trkpt>
      <trkpt lat="45.96798" lon="6.8921">
        <ele>2225</ele>
        <time>2022-08-28T08:45:24Z</time>
      </trkpt>
      <trkpt lat="45.96794" lon="6.89209">
        <ele>2225</ele>
        <time>2022-08-28T08:45:26Z</time>
      </trkpt>
      <trkpt lat="45.96791" lon="6.89208">
        <ele>2225</ele>
        <time>2022-08-28T08:45:28Z</time>
      </trkpt>
      <trkpt lat="45.96789" lon="6.89206">
        <ele>2224</ele>
        <time>2022-08-28T08:45:30Z</time>
      </trkpt>
      <trkpt lat="45.96786" lon="6.89204">
        <ele>2223</ele>
        <time>2022-08-28T08:45:32Z</time>
      </trkpt>
      <trkpt lat="45.96783" lon="6.89203">
        <ele>2223</ele>
        <time>2022-08-28T08:45:34Z</time>
      </trkpt>
      <trkpt lat="45.96781" lon="6.892">
        <ele>2223</ele>
        <time>2022-08-28T08:45:36Z</time>
      </trkpt>
      <trkpt lat="45.96779" lon="6.89199">
        <ele>2223</ele>
        <time>2022-08-28T08:45:38Z</time>
      </trkpt>
      <trkpt lat="45.96777" lon="6.89198">
        <ele>2222</ele>
        <time>2022-08-28T08:45:40Z</time>
      </trkpt>
      <trkpt lat="45.96774" lon="6.89197">
        <ele>2222</ele>
        <time>2022-08-28T08:45:42Z</time>
      </trkpt>
      <trkpt lat="45.96771" lon="6.89195">
        <ele>2222</ele>
        <time>2022-08-28T08:45:44Z</time>
      </trkpt>
      <trkpt lat="45.96769" lon="6.89193">
        <ele>2222</ele>
        <time>2022-08-28T08:45:46Z</time>
      </trkpt>
      <trkpt lat="45.96767" lon="6.89191">
        <ele>2222</ele>
        <time>2022-08-28T08:45:48Z</time>
      </trkpt>
      <trkpt lat="45.96765" lon="6.8919">
        <ele>2220</ele>
        <time>2022-08-28T08:45:50Z</time>
      </trkpt>
      <trkpt lat="45.96762" lon="6.8919">
        <ele>2220</ele>
        <time>2022-08-28T08:45:51Z</time>
      </trkpt>
      <trkpt lat="45.96759" lon="6.89189">
        <ele>2220</ele>
        <time>2022-08-28T08:45:54Z</time>
      </trkpt>
      <trkpt lat="45.96757" lon="6.89185">
        <ele>2220</ele>
        <time>2022-08-28T08:45:56Z</time>
      </trkpt>
      <trkpt lat="45.96754" lon="6.89182">
        <ele>2220</ele>
        <time>2022-08-28T08:45:58Z</time>
      </trkpt>
      <trkpt lat="45.96753" lon="6.89179">
        <ele>2219</ele>
        <time>2022-08-28T08:46:00Z</time>
      </trkpt>
      <trkpt lat="45.96753" lon="6.89176">
        <ele>2219</ele>
        <time>2022-08-28T08:46:02Z</time>
      </trkpt>
      <trkpt lat="45.96752" lon="6.89173">
        <ele>2218</ele>
        <time>2022-08-28T08:46:04Z</time>
      </trkpt>
      <trkpt lat="45.96752" lon="6.8917">
        <ele>2218</ele>
        <time>2022-08-28T08:46:06Z</time>
      </trkpt>
      <trkpt lat="45.96752" lon="6.89167">
        <ele>2218</ele>
        <time>2022-08-28T08:46:08Z</time>
      </trkpt>
      <trkpt lat="45.96751" lon="6.89163">
        <ele>2216</ele>
        <time>2022-08-28T08:46:11Z</time>
      </trkpt>
      <trkpt lat="45.9675" lon="6.8916">
        <ele>2216</ele>
        <time>2022-08-28T08:46:13Z</time>
      </trkpt>
      <trkpt lat="45.96748" lon="6.89157">
        <ele>2215</ele>
        <time>2022-08-28T08:46:15Z</time>
      </trkpt>
      <trkpt lat="45.96747" lon="6.89154">
        <ele>2215</ele>
        <time>2022-08-28T08:46:17Z</time>
      </trkpt>
      <trkpt lat="45.96746" lon="6.8915">
        <ele>2214</ele>
        <time>2022-08-28T08:46:19Z</time>
      </trkpt>
      <trkpt lat="45.96745" lon="6.89146">
        <ele>2214</ele>
        <time>2022-08-28T08:46:21Z</time>
      </trkpt>
      <trkpt lat="45.96745" lon="6.89143">
        <ele>2213</ele>
        <time>2022-08-28T08:46:23Z</time>
      </trkpt>
      <trkpt lat="45.96744" lon="6.8914">
        <ele>2213</ele>
        <time>2022-08-28T08:46:25Z</time>
      </trkpt>
      <trkpt lat="45.96741" lon="6.89137">
        <ele>2213</ele>
        <time>2022-08-28T08:46:27Z</time>
      </trkpt>
      <trkpt lat="45.96739" lon="6.89133">
        <ele>2212</ele>
        <time>2022-08-28T08:46:29Z</time>
      </trkpt>
      <trkpt lat="45.96737" lon="6.89131">
        <ele>2212</ele>
        <time>2022-08-28T08:46:31Z</time>
      </trkpt>
      <trkpt lat="45.96735" lon="6.89129">
        <ele>2212</ele>
        <time>2022-08-28T08:46:33Z</time>
      </trkpt>
      <trkpt lat="45.96733" lon="6.89128">
        <ele>2211</ele>
        <time>2022-08-28T08:46:35Z</time>
      </trkpt>
      <trkpt lat="45.96731" lon="6.89126">
        <ele>2211</ele>
        <time>2022-08-28T08:46:37Z</time>
      </trkpt>
      <trkpt lat="45.96728" lon="6.89125">
        <ele>2211</ele>
        <time>2022-08-28T08:46:40Z</time>
      </trkpt>
      <trkpt lat="45.96726" lon="6.89124">
        <ele>2211</ele>
        <time>2022-08-28T08:46:42Z</time>
      </trkpt>
      <trkpt lat="45.96725" lon="6.89123">
        <ele>2210</ele>
        <time>2022-08-28T08:46:44Z</time>
      </trkpt>
      <trkpt lat="45.96723" lon="6.8912">
        <ele>2210</ele>
        <time>2022-08-28T08:46:48Z</time>
      </trkpt>
      <trkpt lat="45.96721" lon="6.89119">
        <ele>2209</ele>
        <time>2022-08-28T08:46:51Z</time>
      </trkpt>
      <trkpt lat="45.9672" lon="6.89118">
        <ele>2209</ele>
        <time>2022-08-28T08:46:54Z</time>
      </trkpt>
      <trkpt lat="45.96718" lon="6.89118">
        <ele>2209</ele>
        <time>2022-08-28T08:46:58Z</time>
      </trkpt>
      <trkpt lat="45.96716" lon="6.89117">
        <ele>2208</ele>
        <time>2022-08-28T08:47:00Z</time>
      </trkpt>
      <trkpt lat="45.96714" lon="6.89115">
        <ele>2208</ele>
        <time>2022-08-28T08:47:03Z</time>
      </trkpt>
      <trkpt lat="45.96712" lon="6.89112">
        <ele>2207</ele>
        <time>2022-08-28T08:47:06Z</time>
      </trkpt>
      <trkpt lat="45.96711" lon="6.8911">
        <ele>2207</ele>
        <time>2022-08-28T08:47:09Z</time>
      </trkpt>
      <trkpt lat="45.96709" lon="6.89109">
        <ele>2207</ele>
        <time>2022-08-28T08:47:12Z</time>
      </trkpt>
      <trkpt lat="45.96707" lon="6.89108">
        <ele>2207</ele>
        <time>2022-08-28T08:47:14Z</time>
      </trkpt>
      <trkpt lat="45.96705" lon="6.89105">
        <ele>2206</ele>
        <time>2022-08-28T08:47:16Z</time>
      </trkpt>
      <trkpt lat="45.96704" lon="6.89103">
        <ele>2206</ele>
        <time>2022-08-28T08:47:18Z</time>
      </trkpt>
      <trkpt lat="45.96703" lon="6.891">
        <ele>2206</ele>
        <time>2022-08-28T08:47:20Z</time>
      </trkpt>
      <trkpt lat="45.96701" lon="6.89098">
        <ele>2206</ele>
        <time>2022-08-28T08:47:23Z</time>
      </trkpt>
      <trkpt lat="45.967" lon="6.89096">
        <ele>2205</ele>
        <time>2022-08-28T08:47:25Z</time>
      </trkpt>
      <trkpt lat="45.96698" lon="6.89094">
        <ele>2205</ele>
        <time>2022-08-28T08:47:27Z</time>
      </trkpt>
      <trkpt lat="45.96697" lon="6.89091">
        <ele>2206</ele>
        <time>2022-08-28T08:47:29Z</time>
      </trkpt>
      <trkpt lat="45.96696" lon="6.89088">
        <ele>2206</ele>
        <time>2022-08-28T08:47:32Z</time>
      </trkpt>
      <trkpt lat="45.96695" lon="6.89085">
        <ele>2206</ele>
        <time>2022-08-28T08:47:35Z</time>
      </trkpt>
      <trkpt lat="45.96693" lon="6.89083">
        <ele>2206</ele>
        <time>2022-08-28T08:47:38Z</time>
      </trkpt>
      <trkpt lat="45.96691" lon="6.89084">
        <ele>2206</ele>
        <time>2022-08-28T08:47:40Z</time>
      </trkpt>
      <trkpt lat="45.96689" lon="6.89083">
        <ele>2206</ele>
        <time>2022-08-28T08:47:42Z</time>
      </trkpt>
      <trkpt lat="45.96686" lon="6.89082">
        <ele>2206</ele>
        <time>2022-08-28T08:47:44Z</time>
      </trkpt>
      <trkpt lat="45.96684" lon="6.89079">
        <ele>2206</ele>
        <time>2022-08-28T08:47:46Z</time>
      </trkpt>
      <trkpt lat="45.96681" lon="6.89076">
        <ele>2206</ele>
        <time>2022-08-28T08:47:48Z</time>
      </trkpt>
      <trkpt lat="45.96679" lon="6.89073">
        <ele>2206</ele>
        <time>2022-08-28T08:47:50Z</time>
      </trkpt>
      <trkpt lat="45.96676" lon="6.89069">
        <ele>2205</ele>
        <time>2022-08-28T08:47:52Z</time>
      </trkpt>
      <trkpt lat="45.96675" lon="6.89067">
        <ele>2205</ele>
        <time>2022-08-28T08:47:53Z</time>
      </trkpt>
      <trkpt lat="45.96674" lon="6.89065">
        <ele>2204</ele>
        <time>2022-08-28T08:47:54Z</time>
      </trkpt>
      <trkpt lat="45.96673" lon="6.89061">
        <ele>2204</ele>
        <time>2022-08-28T08:47:56Z</time>
      </trkpt>
      <trkpt lat="45.96673" lon="6.89056">
        <ele>2205</ele>
        <time>2022-08-28T08:47:59Z</time>
      </trkpt>
      <trkpt lat="45.96672" lon="6.89054">
        <ele>2205</ele>
        <time>2022-08-28T08:48:01Z</time>
      </trkpt>
      <trkpt lat="45.96671" lon="6.89052">
        <ele>2205</ele>
        <time>2022-08-28T08:48:03Z</time>
      </trkpt>
      <trkpt lat="45.96669" lon="6.89048">
        <ele>2206</ele>
        <time>2022-08-28T08:48:06Z</time>
      </trkpt>
      <trkpt lat="45.96668" lon="6.89046">
        <ele>2206</ele>
        <time>2022-08-28T08:48:08Z</time>
      </trkpt>
      <trkpt lat="45.96667" lon="6.89044">
        <ele>2206</ele>
        <time>2022-08-28T08:48:10Z</time>
      </trkpt>
      <trkpt lat="45.96665" lon="6.89041">
        <ele>2206</ele>
        <time>2022-08-28T08:48:12Z</time>
      </trkpt>
      <trkpt lat="45.96664" lon="6.89039">
        <ele>2206</ele>
        <time>2022-08-28T08:48:15Z</time>
      </trkpt>
      <trkpt lat="45.96662" lon="6.89039">
        <ele>2206</ele>
        <time>2022-08-28T08:48:18Z</time>
      </trkpt>
      <trkpt lat="45.9666" lon="6.89038">
        <ele>2207</ele>
        <time>2022-08-28T08:48:21Z</time>
      </trkpt>
      <trkpt lat="45.96658" lon="6.89036">
        <ele>2207</ele>
        <time>2022-08-28T08:48:24Z</time>
      </trkpt>
      <trkpt lat="45.96656" lon="6.89035">
        <ele>2206</ele>
        <time>2022-08-28T08:48:26Z</time>
      </trkpt>
      <trkpt lat="45.96655" lon="6.89034">
        <ele>2206</ele>
        <time>2022-08-28T08:48:28Z</time>
      </trkpt>
      <trkpt lat="45.96653" lon="6.89031">
        <ele>2206</ele>
        <time>2022-08-28T08:48:30Z</time>
      </trkpt>
      <trkpt lat="45.96652" lon="6.89028">
        <ele>2206</ele>
        <time>2022-08-28T08:48:33Z</time>
      </trkpt>
      <trkpt lat="45.96652" lon="6.89024">
        <ele>2205</ele>
        <time>2022-08-28T08:48:35Z</time>
      </trkpt>
      <trkpt lat="45.96651" lon="6.89021">
        <ele>2205</ele>
        <time>2022-08-28T08:48:37Z</time>
      </trkpt>
      <trkpt lat="45.96651" lon="6.89018">
        <ele>2205</ele>
        <time>2022-08-28T08:48:39Z</time>
      </trkpt>
      <trkpt lat="45.9665" lon="6.89015">
        <ele>2204</ele>
        <time>2022-08-28T08:48:42Z</time>
      </trkpt>
      <trkpt lat="45.96649" lon="6.89014">
        <ele>2205</ele>
        <time>2022-08-28T08:48:46Z</time>
      </trkpt>
      <trkpt lat="45.96646" lon="6.89014">
        <ele>2205</ele>
        <time>2022-08-28T08:48:49Z</time>
      </trkpt>
      <trkpt lat="45.96644" lon="6.89013">
        <ele>2205</ele>
        <time>2022-08-28T08:48:51Z</time>
      </trkpt>
      <trkpt lat="45.96641" lon="6.89013">
        <ele>2204</ele>
        <time>2022-08-28T08:48:54Z</time>
      </trkpt>
      <trkpt lat="45.96639" lon="6.89013">
        <ele>2204</ele>
        <time>2022-08-28T08:48:56Z</time>
      </trkpt>
      <trkpt lat="45.96637" lon="6.89013">
        <ele>2204</ele>
        <time>2022-08-28T08:48:58Z</time>
      </trkpt>
      <trkpt lat="45.96635" lon="6.89011">
        <ele>2203</ele>
        <time>2022-08-28T08:49:01Z</time>
      </trkpt>
      <trkpt lat="45.96633" lon="6.89011">
        <ele>2202</ele>
        <time>2022-08-28T08:49:04Z</time>
      </trkpt>
      <trkpt lat="45.96631" lon="6.89009">
        <ele>2202</ele>
        <time>2022-08-28T08:49:07Z</time>
      </trkpt>
      <trkpt lat="45.96628" lon="6.89006">
        <ele>2202</ele>
        <time>2022-08-28T08:49:10Z</time>
      </trkpt>
      <trkpt lat="45.96627" lon="6.89004">
        <ele>2202</ele>
        <time>2022-08-28T08:49:11Z</time>
      </trkpt>
      <trkpt lat="45.96626" lon="6.89004">
        <ele>2202</ele>
        <time>2022-08-28T08:49:12Z</time>
      </trkpt>
      <trkpt lat="45.96624" lon="6.89003">
        <ele>2202</ele>
        <time>2022-08-28T08:49:13Z</time>
      </trkpt>
      <trkpt lat="45.96623" lon="6.89002">
        <ele>2201</ele>
        <time>2022-08-28T08:49:14Z</time>
      </trkpt>
      <trkpt lat="45.96621" lon="6.88999">
        <ele>2201</ele>
        <time>2022-08-28T08:49:15Z</time>
      </trkpt>
      <trkpt lat="45.9662" lon="6.88997">
        <ele>2201</ele>
        <time>2022-08-28T08:49:17Z</time>
      </trkpt>
      <trkpt lat="45.96618" lon="6.88995">
        <ele>2201</ele>
        <time>2022-08-28T08:49:19Z</time>
      </trkpt>
      <trkpt lat="45.96616" lon="6.88993">
        <ele>2201</ele>
        <time>2022-08-28T08:49:21Z</time>
      </trkpt>
      <trkpt lat="45.96614" lon="6.88991">
        <ele>2201</ele>
        <time>2022-08-28T08:49:23Z</time>
      </trkpt>
      <trkpt lat="45.96612" lon="6.88989">
        <ele>2201</ele>
        <time>2022-08-28T08:49:25Z</time>
      </trkpt>
      <trkpt lat="45.9661" lon="6.88988">
        <ele>2200</ele>
        <time>2022-08-28T08:49:27Z</time>
      </trkpt>
      <trkpt lat="45.96609" lon="6.88986">
        <ele>2200</ele>
        <time>2022-08-28T08:49:29Z</time>
      </trkpt>
      <trkpt lat="45.96607" lon="6.88985">
        <ele>2200</ele>
        <time>2022-08-28T08:49:31Z</time>
      </trkpt>
      <trkpt lat="45.96605" lon="6.88984">
        <ele>2200</ele>
        <time>2022-08-28T08:49:33Z</time>
      </trkpt>
      <trkpt lat="45.96603" lon="6.88983">
        <ele>2199</ele>
        <time>2022-08-28T08:49:35Z</time>
      </trkpt>
      <trkpt lat="45.96601" lon="6.88982">
        <ele>2199</ele>
        <time>2022-08-28T08:49:37Z</time>
      </trkpt>
      <trkpt lat="45.96599" lon="6.88981">
        <ele>2198</ele>
        <time>2022-08-28T08:49:39Z</time>
      </trkpt>
      <trkpt lat="45.96598" lon="6.88979">
        <ele>2198</ele>
        <time>2022-08-28T08:49:41Z</time>
      </trkpt>
      <trkpt lat="45.96595" lon="6.88977">
        <ele>2198</ele>
        <time>2022-08-28T08:49:43Z</time>
      </trkpt>
      <trkpt lat="45.96593" lon="6.88975">
        <ele>2198</ele>
        <time>2022-08-28T08:49:45Z</time>
      </trkpt>
      <trkpt lat="45.9659" lon="6.88974">
        <ele>2197</ele>
        <time>2022-08-28T08:49:47Z</time>
      </trkpt>
      <trkpt lat="45.96587" lon="6.88972">
        <ele>2196</ele>
        <time>2022-08-28T08:49:49Z</time>
      </trkpt>
      <trkpt lat="45.96584" lon="6.8897">
        <ele>2196</ele>
        <time>2022-08-28T08:49:51Z</time>
      </trkpt>
      <trkpt lat="45.96581" lon="6.88969">
        <ele>2196</ele>
        <time>2022-08-28T08:49:53Z</time>
      </trkpt>
      <trkpt lat="45.96578" lon="6.88968">
        <ele>2194</ele>
        <time>2022-08-28T08:49:55Z</time>
      </trkpt>
      <trkpt lat="45.96575" lon="6.88967">
        <ele>2194</ele>
        <time>2022-08-28T08:49:57Z</time>
      </trkpt>
      <trkpt lat="45.96573" lon="6.88966">
        <ele>2194</ele>
        <time>2022-08-28T08:49:59Z</time>
      </trkpt>
      <trkpt lat="45.96571" lon="6.88963">
        <ele>2194</ele>
        <time>2022-08-28T08:50:01Z</time>
      </trkpt>
      <trkpt lat="45.96568" lon="6.88962">
        <ele>2194</ele>
        <time>2022-08-28T08:50:03Z</time>
      </trkpt>
      <trkpt lat="45.96566" lon="6.8896">
        <ele>2194</ele>
        <time>2022-08-28T08:50:05Z</time>
      </trkpt>
      <trkpt lat="45.96563" lon="6.88958">
        <ele>2194</ele>
        <time>2022-08-28T08:50:07Z</time>
      </trkpt>
      <trkpt lat="45.9656" lon="6.88955">
        <ele>2193</ele>
        <time>2022-08-28T08:50:09Z</time>
      </trkpt>
      <trkpt lat="45.96558" lon="6.88952">
        <ele>2193</ele>
        <time>2022-08-28T08:50:11Z</time>
      </trkpt>
      <trkpt lat="45.96556" lon="6.88949">
        <ele>2193</ele>
        <time>2022-08-28T08:50:13Z</time>
      </trkpt>
      <trkpt lat="45.96555" lon="6.88945">
        <ele>2193</ele>
        <time>2022-08-28T08:50:15Z</time>
      </trkpt>
      <trkpt lat="45.96555" lon="6.88942">
        <ele>2193</ele>
        <time>2022-08-28T08:50:17Z</time>
      </trkpt>
      <trkpt lat="45.96553" lon="6.8894">
        <ele>2193</ele>
        <time>2022-08-28T08:50:20Z</time>
      </trkpt>
      <trkpt lat="45.96551" lon="6.88939">
        <ele>2193</ele>
        <time>2022-08-28T08:50:23Z</time>
      </trkpt>
      <trkpt lat="45.96549" lon="6.88939">
        <ele>2192</ele>
        <time>2022-08-28T08:50:25Z</time>
      </trkpt>
      <trkpt lat="45.96547" lon="6.8894">
        <ele>2192</ele>
        <time>2022-08-28T08:50:27Z</time>
      </trkpt>
      <trkpt lat="45.96545" lon="6.88941">
        <ele>2192</ele>
        <time>2022-08-28T08:50:29Z</time>
      </trkpt>
      <trkpt lat="45.96542" lon="6.88942">
        <ele>2192</ele>
        <time>2022-08-28T08:50:31Z</time>
      </trkpt>
      <trkpt lat="45.9654" lon="6.88942">
        <ele>2193</ele>
        <time>2022-08-28T08:50:33Z</time>
      </trkpt>
      <trkpt lat="45.96538" lon="6.88942">
        <ele>2193</ele>
        <time>2022-08-28T08:50:35Z</time>
      </trkpt>
      <trkpt lat="45.96535" lon="6.88943">
        <ele>2193</ele>
        <time>2022-08-28T08:50:37Z</time>
      </trkpt>
      <trkpt lat="45.96532" lon="6.88943">
        <ele>2193</ele>
        <time>2022-08-28T08:50:39Z</time>
      </trkpt>
      <trkpt lat="45.96529" lon="6.88943">
        <ele>2192</ele>
        <time>2022-08-28T08:50:41Z</time>
      </trkpt>
      <trkpt lat="45.96526" lon="6.88941">
        <ele>2192</ele>
        <time>2022-08-28T08:50:43Z</time>
      </trkpt>
      <trkpt lat="45.96523" lon="6.8894">
        <ele>2190</ele>
        <time>2022-08-28T08:50:45Z</time>
      </trkpt>
      <trkpt lat="45.96521" lon="6.88939">
        <ele>2190</ele>
        <time>2022-08-28T08:50:47Z</time>
      </trkpt>
      <trkpt lat="45.96518" lon="6.88936">
        <ele>2190</ele>
        <time>2022-08-28T08:50:49Z</time>
      </trkpt>
      <trkpt lat="45.96516" lon="6.88933">
        <ele>2190</ele>
        <time>2022-08-28T08:50:51Z</time>
      </trkpt>
      <trkpt lat="45.96515" lon="6.88929">
        <ele>2190</ele>
        <time>2022-08-28T08:50:53Z</time>
      </trkpt>
      <trkpt lat="45.96514" lon="6.88926">
        <ele>2190</ele>
        <time>2022-08-28T08:50:55Z</time>
      </trkpt>
      <trkpt lat="45.96512" lon="6.88924">
        <ele>2190</ele>
        <time>2022-08-28T08:50:57Z</time>
      </trkpt>
      <trkpt lat="45.96511" lon="6.88921">
        <ele>2190</ele>
        <time>2022-08-28T08:50:59Z</time>
      </trkpt>
      <trkpt lat="45.96509" lon="6.8892">
        <ele>2189</ele>
        <time>2022-08-28T08:51:01Z</time>
      </trkpt>
      <trkpt lat="45.96507" lon="6.88919">
        <ele>2189</ele>
        <time>2022-08-28T08:51:03Z</time>
      </trkpt>
      <trkpt lat="45.96504" lon="6.88918">
        <ele>2188</ele>
        <time>2022-08-28T08:51:05Z</time>
      </trkpt>
      <trkpt lat="45.96501" lon="6.88916">
        <ele>2188</ele>
        <time>2022-08-28T08:51:07Z</time>
      </trkpt>
      <trkpt lat="45.96498" lon="6.88915">
        <ele>2188</ele>
        <time>2022-08-28T08:51:09Z</time>
      </trkpt>
      <trkpt lat="45.96496" lon="6.88914">
        <ele>2188</ele>
        <time>2022-08-28T08:51:11Z</time>
      </trkpt>
      <trkpt lat="45.96493" lon="6.88912">
        <ele>2188</ele>
        <time>2022-08-28T08:51:13Z</time>
      </trkpt>
      <trkpt lat="45.96491" lon="6.88908">
        <ele>2188</ele>
        <time>2022-08-28T08:51:15Z</time>
      </trkpt>
      <trkpt lat="45.9649" lon="6.88904">
        <ele>2188</ele>
        <time>2022-08-28T08:51:17Z</time>
      </trkpt>
      <trkpt lat="45.96489" lon="6.88901">
        <ele>2188</ele>
        <time>2022-08-28T08:51:19Z</time>
      </trkpt>
      <trkpt lat="45.96488" lon="6.88897">
        <ele>2189</ele>
        <time>2022-08-28T08:51:21Z</time>
      </trkpt>
      <trkpt lat="45.96487" lon="6.88894">
        <ele>2189</ele>
        <time>2022-08-28T08:51:23Z</time>
      </trkpt>
      <trkpt lat="45.96486" lon="6.88891">
        <ele>2189</ele>
        <time>2022-08-28T08:51:25Z</time>
      </trkpt>
      <trkpt lat="45.96485" lon="6.88889">
        <ele>2189</ele>
        <time>2022-08-28T08:51:27Z</time>
      </trkpt>
      <trkpt lat="45.96483" lon="6.88886">
        <ele>2189</ele>
        <time>2022-08-28T08:51:29Z</time>
      </trkpt>
      <trkpt lat="45.96482" lon="6.88884">
        <ele>2189</ele>
        <time>2022-08-28T08:51:31Z</time>
      </trkpt>
      <trkpt lat="45.96481" lon="6.88881">
        <ele>2189</ele>
        <time>2022-08-28T08:51:33Z</time>
      </trkpt>
      <trkpt lat="45.96479" lon="6.88878">
        <ele>2189</ele>
        <time>2022-08-28T08:51:35Z</time>
      </trkpt>
      <trkpt lat="45.96478" lon="6.88875">
        <ele>2190</ele>
        <time>2022-08-28T08:51:37Z</time>
      </trkpt>
      <trkpt lat="45.96477" lon="6.88872">
        <ele>2190</ele>
        <time>2022-08-28T08:51:39Z</time>
      </trkpt>
      <trkpt lat="45.96476" lon="6.8887">
        <ele>2190</ele>
        <time>2022-08-28T08:51:41Z</time>
      </trkpt>
      <trkpt lat="45.96475" lon="6.88867">
        <ele>2190</ele>
        <time>2022-08-28T08:51:43Z</time>
      </trkpt>
      <trkpt lat="45.96473" lon="6.88864">
        <ele>2191</ele>
        <time>2022-08-28T08:51:46Z</time>
      </trkpt>
      <trkpt lat="45.96471" lon="6.88861">
        <ele>2191</ele>
        <time>2022-08-28T08:51:48Z</time>
      </trkpt>
      <trkpt lat="45.96469" lon="6.8886">
        <ele>2191</ele>
        <time>2022-08-28T08:51:50Z</time>
      </trkpt>
      <trkpt lat="45.96468" lon="6.88858">
        <ele>2192</ele>
        <time>2022-08-28T08:51:52Z</time>
      </trkpt>
      <trkpt lat="45.96466" lon="6.88857">
        <ele>2192</ele>
        <time>2022-08-28T08:51:54Z</time>
      </trkpt>
      <trkpt lat="45.96463" lon="6.88855">
        <ele>2192</ele>
        <time>2022-08-28T08:51:57Z</time>
      </trkpt>
      <trkpt lat="45.96461" lon="6.88855">
        <ele>2192</ele>
        <time>2022-08-28T08:51:59Z</time>
      </trkpt>
      <trkpt lat="45.96459" lon="6.88852">
        <ele>2192</ele>
        <time>2022-08-28T08:52:01Z</time>
      </trkpt>
      <trkpt lat="45.96457" lon="6.8885">
        <ele>2192</ele>
        <time>2022-08-28T08:52:03Z</time>
      </trkpt>
      <trkpt lat="45.96455" lon="6.88848">
        <ele>2192</ele>
        <time>2022-08-28T08:52:05Z</time>
      </trkpt>
      <trkpt lat="45.96453" lon="6.88846">
        <ele>2192</ele>
        <time>2022-08-28T08:52:07Z</time>
      </trkpt>
      <trkpt lat="45.96451" lon="6.88845">
        <ele>2192</ele>
        <time>2022-08-28T08:52:09Z</time>
      </trkpt>
      <trkpt lat="45.9645" lon="6.88843">
        <ele>2193</ele>
        <time>2022-08-28T08:52:11Z</time>
      </trkpt>
      <trkpt lat="45.96448" lon="6.88841">
        <ele>2193</ele>
        <time>2022-08-28T08:52:14Z</time>
      </trkpt>
      <trkpt lat="45.96446" lon="6.88838">
        <ele>2193</ele>
        <time>2022-08-28T08:52:17Z</time>
      </trkpt>
      <trkpt lat="45.96444" lon="6.88837">
        <ele>2196</ele>
        <time>2022-08-28T08:52:20Z</time>
      </trkpt>
      <trkpt lat="45.96442" lon="6.88835">
        <ele>2196</ele>
        <time>2022-08-28T08:52:23Z</time>
      </trkpt>
      <trkpt lat="45.96441" lon="6.88833">
        <ele>2196</ele>
        <time>2022-08-28T08:52:25Z</time>
      </trkpt>
      <trkpt lat="45.9644" lon="6.88831">
        <ele>2196</ele>
        <time>2022-08-28T08:52:28Z</time>
      </trkpt>
      <trkpt lat="45.96439" lon="6.88829">
        <ele>2197</ele>
        <time>2022-08-28T08:52:30Z</time>
      </trkpt>
      <trkpt lat="45.96437" lon="6.88827">
        <ele>2197</ele>
        <time>2022-08-28T08:52:33Z</time>
      </trkpt>
      <trkpt lat="45.96435" lon="6.88825">
        <ele>2198</ele>
        <time>2022-08-28T08:52:36Z</time>
      </trkpt>
      <trkpt lat="45.96433" lon="6.88824">
        <ele>2199</ele>
        <time>2022-08-28T08:52:39Z</time>
      </trkpt>
      <trkpt lat="45.96431" lon="6.88822">
        <ele>2199</ele>
        <time>2022-08-28T08:52:42Z</time>
      </trkpt>
      <trkpt lat="45.96429" lon="6.88821">
        <ele>2199</ele>
        <time>2022-08-28T08:52:45Z</time>
      </trkpt>
      <trkpt lat="45.96426" lon="6.8882">
        <ele>2200</ele>
        <time>2022-08-28T08:52:48Z</time>
      </trkpt>
      <trkpt lat="45.96424" lon="6.88819">
        <ele>2200</ele>
        <time>2022-08-28T08:52:51Z</time>
      </trkpt>
      <trkpt lat="45.96422" lon="6.88817">
        <ele>2201</ele>
        <time>2022-08-28T08:52:54Z</time>
      </trkpt>
      <trkpt lat="45.96421" lon="6.88815">
        <ele>2201</ele>
        <time>2022-08-28T08:52:57Z</time>
      </trkpt>
      <trkpt lat="45.9642" lon="6.88813">
        <ele>2203</ele>
        <time>2022-08-28T08:53:00Z</time>
      </trkpt>
      <trkpt lat="45.96418" lon="6.88811">
        <ele>2203</ele>
        <time>2022-08-28T08:53:05Z</time>
      </trkpt>
      <trkpt lat="45.96416" lon="6.88809">
        <ele>2203</ele>
        <time>2022-08-28T08:53:08Z</time>
      </trkpt>
      <trkpt lat="45.96414" lon="6.88807">
        <ele>2203</ele>
        <time>2022-08-28T08:53:11Z</time>
      </trkpt>
      <trkpt lat="45.96413" lon="6.88804">
        <ele>2203</ele>
        <time>2022-08-28T08:53:14Z</time>
      </trkpt>
      <trkpt lat="45.96412" lon="6.88802">
        <ele>2203</ele>
        <time>2022-08-28T08:53:16Z</time>
      </trkpt>
      <trkpt lat="45.9641" lon="6.88799">
        <ele>2203</ele>
        <time>2022-08-28T08:53:19Z</time>
      </trkpt>
      <trkpt lat="45.96409" lon="6.88797">
        <ele>2204</ele>
        <time>2022-08-28T08:53:21Z</time>
      </trkpt>
      <trkpt lat="45.96408" lon="6.88793">
        <ele>2204</ele>
        <time>2022-08-28T08:53:24Z</time>
      </trkpt>
      <trkpt lat="45.96406" lon="6.8879">
        <ele>2202</ele>
        <time>2022-08-28T08:53:26Z</time>
      </trkpt>
      <trkpt lat="45.96404" lon="6.88786">
        <ele>2202</ele>
        <time>2022-08-28T08:53:28Z</time>
      </trkpt>
      <trkpt lat="45.96402" lon="6.88782">
        <ele>2202</ele>
        <time>2022-08-28T08:53:30Z</time>
      </trkpt>
      <trkpt lat="45.964" lon="6.88777">
        <ele>2202</ele>
        <time>2022-08-28T08:53:32Z</time>
      </trkpt>
      <trkpt lat="45.96399" lon="6.88775">
        <ele>2202</ele>
        <time>2022-08-28T08:53:33Z</time>
      </trkpt>
      <trkpt lat="45.96398" lon="6.88773">
        <ele>2201</ele>
        <time>2022-08-28T08:53:34Z</time>
      </trkpt>
      <trkpt lat="45.96397" lon="6.88771">
        <ele>2201</ele>
        <time>2022-08-28T08:53:35Z</time>
      </trkpt>
      <trkpt lat="45.96396" lon="6.88769">
        <ele>2201</ele>
        <time>2022-08-28T08:53:36Z</time>
      </trkpt>
      <trkpt lat="45.96395" lon="6.88767">
        <ele>2200</ele>
        <time>2022-08-28T08:53:37Z</time>
      </trkpt>
      <trkpt lat="45.96395" lon="6.88764">
        <ele>2199</ele>
        <time>2022-08-28T08:53:38Z</time>
      </trkpt>
      <trkpt lat="45.96393" lon="6.88762">
        <ele>2199</ele>
        <time>2022-08-28T08:53:39Z</time>
      </trkpt>
      <trkpt lat="45.96391" lon="6.88759">
        <ele>2199</ele>
        <time>2022-08-28T08:53:41Z</time>
      </trkpt>
      <trkpt lat="45.96389" lon="6.88755">
        <ele>2198</ele>
        <time>2022-08-28T08:53:43Z</time>
      </trkpt>
      <trkpt lat="45.96386" lon="6.88753">
        <ele>2197</ele>
        <time>2022-08-28T08:53:45Z</time>
      </trkpt>
      <trkpt lat="45.96384" lon="6.88751">
        <ele>2197</ele>
        <time>2022-08-28T08:53:46Z</time>
      </trkpt>
      <trkpt lat="45.96381" lon="6.88749">
        <ele>2197</ele>
        <time>2022-08-28T08:53:48Z</time>
      </trkpt>
      <trkpt lat="45.96379" lon="6.88747">
        <ele>2196</ele>
        <time>2022-08-28T08:53:49Z</time>
      </trkpt>
      <trkpt lat="45.96377" lon="6.88746">
        <ele>2196</ele>
        <time>2022-08-28T08:53:51Z</time>
      </trkpt>
      <trkpt lat="45.96374" lon="6.88743">
        <ele>2196</ele>
        <time>2022-08-28T08:53:53Z</time>
      </trkpt>
      <trkpt lat="45.96371" lon="6.88742">
        <ele>2196</ele>
        <time>2022-08-28T08:53:55Z</time>
      </trkpt>
      <trkpt lat="45.96368" lon="6.88739">
        <ele>2196</ele>
        <time>2022-08-28T08:53:57Z</time>
      </trkpt>
      <trkpt lat="45.96365" lon="6.88737">
        <ele>2194</ele>
        <time>2022-08-28T08:53:59Z</time>
      </trkpt>
      <trkpt lat="45.96362" lon="6.88735">
        <ele>2194</ele>
        <time>2022-08-28T08:54:01Z</time>
      </trkpt>
      <trkpt lat="45.96358" lon="6.88733">
        <ele>2194</ele>
        <time>2022-08-28T08:54:03Z</time>
      </trkpt>
      <trkpt lat="45.96357" lon="6.88733">
        <ele>2192</ele>
        <time>2022-08-28T08:54:04Z</time>
      </trkpt>
      <trkpt lat="45.96356" lon="6.88731">
        <ele>2192</ele>
        <time>2022-08-28T08:54:05Z</time>
      </trkpt>
      <trkpt lat="45.96354" lon="6.8873">
        <ele>2192</ele>
        <time>2022-08-28T08:54:06Z</time>
      </trkpt>
      <trkpt lat="45.96352" lon="6.88728">
        <ele>2192</ele>
        <time>2022-08-28T08:54:08Z</time>
      </trkpt>
      <trkpt lat="45.96349" lon="6.88727">
        <ele>2192</ele>
        <time>2022-08-28T08:54:10Z</time>
      </trkpt>
      <trkpt lat="45.96346" lon="6.88725">
        <ele>2192</ele>
        <time>2022-08-28T08:54:12Z</time>
      </trkpt>
      <trkpt lat="45.96344" lon="6.88723">
        <ele>2191</ele>
        <time>2022-08-28T08:54:14Z</time>
      </trkpt>
      <trkpt lat="45.96342" lon="6.88722">
        <ele>2190</ele>
        <time>2022-08-28T08:54:15Z</time>
      </trkpt>
      <trkpt lat="45.96341" lon="6.8872">
        <ele>2190</ele>
        <time>2022-08-28T08:54:16Z</time>
      </trkpt>
      <trkpt lat="45.96338" lon="6.88717">
        <ele>2190</ele>
        <time>2022-08-28T08:54:18Z</time>
      </trkpt>
      <trkpt lat="45.96335" lon="6.88714">
        <ele>2190</ele>
        <time>2022-08-28T08:54:20Z</time>
      </trkpt>
      <trkpt lat="45.96333" lon="6.88712">
        <ele>2190</ele>
        <time>2022-08-28T08:54:22Z</time>
      </trkpt>
      <trkpt lat="45.9633" lon="6.88711">
        <ele>2190</ele>
        <time>2022-08-28T08:54:25Z</time>
      </trkpt>
      <trkpt lat="45.96327" lon="6.8871">
        <ele>2190</ele>
        <time>2022-08-28T08:54:27Z</time>
      </trkpt>
      <trkpt lat="45.96325" lon="6.88709">
        <ele>2190</ele>
        <time>2022-08-28T08:54:28Z</time>
      </trkpt>
      <trkpt lat="45.96323" lon="6.88708">
        <ele>2190</ele>
        <time>2022-08-28T08:54:29Z</time>
      </trkpt>
      <trkpt lat="45.96322" lon="6.88708">
        <ele>2190</ele>
        <time>2022-08-28T08:54:30Z</time>
      </trkpt>
      <trkpt lat="45.9632" lon="6.88707">
        <ele>2190</ele>
        <time>2022-08-28T08:54:31Z</time>
      </trkpt>
      <trkpt lat="45.96317" lon="6.88705">
        <ele>2190</ele>
        <time>2022-08-28T08:54:33Z</time>
      </trkpt>
      <trkpt lat="45.96314" lon="6.88702">
        <ele>2189</ele>
        <time>2022-08-28T08:54:35Z</time>
      </trkpt>
      <trkpt lat="45.96311" lon="6.88701">
        <ele>2189</ele>
        <time>2022-08-28T08:54:37Z</time>
      </trkpt>
      <trkpt lat="45.96308" lon="6.88699">
        <ele>2188</ele>
        <time>2022-08-28T08:54:39Z</time>
      </trkpt>
      <trkpt lat="45.96305" lon="6.88697">
        <ele>2188</ele>
        <time>2022-08-28T08:54:41Z</time>
      </trkpt>
      <trkpt lat="45.96302" lon="6.88696">
        <ele>2187</ele>
        <time>2022-08-28T08:54:43Z</time>
      </trkpt>
      <trkpt lat="45.96299" lon="6.88695">
        <ele>2186</ele>
        <time>2022-08-28T08:54:45Z</time>
      </trkpt>
      <trkpt lat="45.96297" lon="6.88694">
        <ele>2186</ele>
        <time>2022-08-28T08:54:47Z</time>
      </trkpt>
      <trkpt lat="45.96293" lon="6.88693">
        <ele>2186</ele>
        <time>2022-08-28T08:54:49Z</time>
      </trkpt>
      <trkpt lat="45.9629" lon="6.88692">
        <ele>2185</ele>
        <time>2022-08-28T08:54:51Z</time>
      </trkpt>
      <trkpt lat="45.96286" lon="6.88691">
        <ele>2185</ele>
        <time>2022-08-28T08:54:53Z</time>
      </trkpt>
      <trkpt lat="45.96283" lon="6.88691">
        <ele>2185</ele>
        <time>2022-08-28T08:54:55Z</time>
      </trkpt>
      <trkpt lat="45.96281" lon="6.88691">
        <ele>2185</ele>
        <time>2022-08-28T08:54:56Z</time>
      </trkpt>
      <trkpt lat="45.96279" lon="6.88691">
        <ele>2185</ele>
        <time>2022-08-28T08:54:57Z</time>
      </trkpt>
      <trkpt lat="45.96275" lon="6.88691">
        <ele>2185</ele>
        <time>2022-08-28T08:54:59Z</time>
      </trkpt>
      <trkpt lat="45.96273" lon="6.88691">
        <ele>2185</ele>
        <time>2022-08-28T08:55:00Z</time>
      </trkpt>
      <trkpt lat="45.9627" lon="6.8869">
        <ele>2183</ele>
        <time>2022-08-28T08:55:02Z</time>
      </trkpt>
      <trkpt lat="45.96266" lon="6.88691">
        <ele>2183</ele>
        <time>2022-08-28T08:55:04Z</time>
      </trkpt>
      <trkpt lat="45.96264" lon="6.88691">
        <ele>2183</ele>
        <time>2022-08-28T08:55:05Z</time>
      </trkpt>
      <trkpt lat="45.96262" lon="6.88691">
        <ele>2183</ele>
        <time>2022-08-28T08:55:06Z</time>
      </trkpt>
      <trkpt lat="45.9626" lon="6.88691">
        <ele>2184</ele>
        <time>2022-08-28T08:55:07Z</time>
      </trkpt>
      <trkpt lat="45.96257" lon="6.88692">
        <ele>2183</ele>
        <time>2022-08-28T08:55:09Z</time>
      </trkpt>
      <trkpt lat="45.96255" lon="6.88693">
        <ele>2183</ele>
        <time>2022-08-28T08:55:10Z</time>
      </trkpt>
      <trkpt lat="45.96253" lon="6.88693">
        <ele>2183</ele>
        <time>2022-08-28T08:55:11Z</time>
      </trkpt>
      <trkpt lat="45.96249" lon="6.88694">
        <ele>2183</ele>
        <time>2022-08-28T08:55:13Z</time>
      </trkpt>
      <trkpt lat="45.96246" lon="6.88695">
        <ele>2183</ele>
        <time>2022-08-28T08:55:15Z</time>
      </trkpt>
      <trkpt lat="45.96244" lon="6.88695">
        <ele>2183</ele>
        <time>2022-08-28T08:55:16Z</time>
      </trkpt>
      <trkpt lat="45.96239" lon="6.88698">
        <ele>2183</ele>
        <time>2022-08-28T08:55:18Z</time>
      </trkpt>
      <trkpt lat="45.96237" lon="6.88699">
        <ele>2182</ele>
        <time>2022-08-28T08:55:21Z</time>
      </trkpt>
      <trkpt lat="45.96235" lon="6.88701">
        <ele>2183</ele>
        <time>2022-08-28T08:55:23Z</time>
      </trkpt>
      <trkpt lat="45.96233" lon="6.88703">
        <ele>2183</ele>
        <time>2022-08-28T08:55:26Z</time>
      </trkpt>
      <trkpt lat="45.96231" lon="6.88704">
        <ele>2183</ele>
        <time>2022-08-28T08:55:29Z</time>
      </trkpt>
      <trkpt lat="45.96229" lon="6.88707">
        <ele>2184</ele>
        <time>2022-08-28T08:55:33Z</time>
      </trkpt>
      <trkpt lat="45.96226" lon="6.88708">
        <ele>2185</ele>
        <time>2022-08-28T08:55:36Z</time>
      </trkpt>
      <trkpt lat="45.96225" lon="6.8871">
        <ele>2186</ele>
        <time>2022-08-28T08:55:39Z</time>
      </trkpt>
      <trkpt lat="45.96223" lon="6.88712">
        <ele>2186</ele>
        <time>2022-08-28T08:55:42Z</time>
      </trkpt>
      <trkpt lat="45.96222" lon="6.88713">
        <ele>2186</ele>
        <time>2022-08-28T08:55:45Z</time>
      </trkpt>
      <trkpt lat="45.96219" lon="6.88716">
        <ele>2188</ele>
        <time>2022-08-28T08:55:49Z</time>
      </trkpt>
      <trkpt lat="45.96217" lon="6.88718">
        <ele>2189</ele>
        <time>2022-08-28T08:55:55Z</time>
      </trkpt>
      <trkpt lat="45.96215" lon="6.8872">
        <ele>2189</ele>
        <time>2022-08-28T08:55:58Z</time>
      </trkpt>
      <trkpt lat="45.96213" lon="6.88723">
        <ele>2190</ele>
        <time>2022-08-28T08:56:02Z</time>
      </trkpt>
      <trkpt lat="45.96211" lon="6.88725">
        <ele>2190</ele>
        <time>2022-08-28T08:56:05Z</time>
      </trkpt>
      <trkpt lat="45.96209" lon="6.88727">
        <ele>2190</ele>
        <time>2022-08-28T08:56:08Z</time>
      </trkpt>
      <trkpt lat="45.96207" lon="6.88729">
        <ele>2191</ele>
        <time>2022-08-28T08:56:11Z</time>
      </trkpt>
      <trkpt lat="45.96205" lon="6.88732">
        <ele>2191</ele>
        <time>2022-08-28T08:56:14Z</time>
      </trkpt>
      <trkpt lat="45.96204" lon="6.88734">
        <ele>2191</ele>
        <time>2022-08-28T08:56:16Z</time>
      </trkpt>
      <trkpt lat="45.96202" lon="6.88736">
        <ele>2192</ele>
        <time>2022-08-28T08:56:19Z</time>
      </trkpt>
      <trkpt lat="45.96199" lon="6.88736">
        <ele>2193</ele>
        <time>2022-08-28T08:56:23Z</time>
      </trkpt>
      <trkpt lat="45.96197" lon="6.88735">
        <ele>2194</ele>
        <time>2022-08-28T08:56:26Z</time>
      </trkpt>
      <trkpt lat="45.96196" lon="6.88733">
        <ele>2194</ele>
        <time>2022-08-28T08:56:29Z</time>
      </trkpt>
      <trkpt lat="45.96194" lon="6.8873">
        <ele>2194</ele>
        <time>2022-08-28T08:56:32Z</time>
      </trkpt>
      <trkpt lat="45.96194" lon="6.88726">
        <ele>2194</ele>
        <time>2022-08-28T08:56:35Z</time>
      </trkpt>
      <trkpt lat="45.96194" lon="6.88723">
        <ele>2196</ele>
        <time>2022-08-28T08:56:38Z</time>
      </trkpt>
      <trkpt lat="45.96194" lon="6.88721">
        <ele>2197</ele>
        <time>2022-08-28T08:56:41Z</time>
      </trkpt>
      <trkpt lat="45.96194" lon="6.88718">
        <ele>2197</ele>
        <time>2022-08-28T08:56:43Z</time>
      </trkpt>
      <trkpt lat="45.96194" lon="6.88715">
        <ele>2197</ele>
        <time>2022-08-28T08:56:46Z</time>
      </trkpt>
      <trkpt lat="45.96193" lon="6.88712">
        <ele>2198</ele>
        <time>2022-08-28T08:56:49Z</time>
      </trkpt>
      <trkpt lat="45.96193" lon="6.88709">
        <ele>2198</ele>
        <time>2022-08-28T08:56:52Z</time>
      </trkpt>
      <trkpt lat="45.96193" lon="6.88706">
        <ele>2199</ele>
        <time>2022-08-28T08:56:55Z</time>
      </trkpt>
      <trkpt lat="45.96192" lon="6.88702">
        <ele>2199</ele>
        <time>2022-08-28T08:56:58Z</time>
      </trkpt>
      <trkpt lat="45.96192" lon="6.88699">
        <ele>2200</ele>
        <time>2022-08-28T08:57:01Z</time>
      </trkpt>
      <trkpt lat="45.96191" lon="6.88697">
        <ele>2200</ele>
        <time>2022-08-28T08:57:03Z</time>
      </trkpt>
      <trkpt lat="45.96191" lon="6.88693">
        <ele>2200</ele>
        <time>2022-08-28T08:57:06Z</time>
      </trkpt>
      <trkpt lat="45.96191" lon="6.8869">
        <ele>2201</ele>
        <time>2022-08-28T08:57:09Z</time>
      </trkpt>
      <trkpt lat="45.96191" lon="6.88687">
        <ele>2202</ele>
        <time>2022-08-28T08:57:12Z</time>
      </trkpt>
      <trkpt lat="45.9619" lon="6.88684">
        <ele>2202</ele>
        <time>2022-08-28T08:57:15Z</time>
      </trkpt>
      <trkpt lat="45.96188" lon="6.88681">
        <ele>2202</ele>
        <time>2022-08-28T08:57:18Z</time>
      </trkpt>
      <trkpt lat="45.96187" lon="6.88679">
        <ele>2203</ele>
        <time>2022-08-28T08:57:20Z</time>
      </trkpt>
      <trkpt lat="45.96187" lon="6.88677">
        <ele>2203</ele>
        <time>2022-08-28T08:57:22Z</time>
      </trkpt>
      <trkpt lat="45.96186" lon="6.88673">
        <ele>2204</ele>
        <time>2022-08-28T08:57:25Z</time>
      </trkpt>
      <trkpt lat="45.96187" lon="6.8867">
        <ele>2204</ele>
        <time>2022-08-28T08:57:27Z</time>
      </trkpt>
      <trkpt lat="45.96187" lon="6.88667">
        <ele>2204</ele>
        <time>2022-08-28T08:57:30Z</time>
      </trkpt>
      <trkpt lat="45.96187" lon="6.88663">
        <ele>2205</ele>
        <time>2022-08-28T08:57:33Z</time>
      </trkpt>
      <trkpt lat="45.96188" lon="6.8866">
        <ele>2205</ele>
        <time>2022-08-28T08:57:36Z</time>
      </trkpt>
      <trkpt lat="45.96189" lon="6.88657">
        <ele>2205</ele>
        <time>2022-08-28T08:57:39Z</time>
      </trkpt>
      <trkpt lat="45.9619" lon="6.88653">
        <ele>2205</ele>
        <time>2022-08-28T08:57:42Z</time>
      </trkpt>
      <trkpt lat="45.9619" lon="6.88651">
        <ele>2206</ele>
        <time>2022-08-28T08:57:44Z</time>
      </trkpt>
      <trkpt lat="45.96191" lon="6.88648">
        <ele>2207</ele>
        <time>2022-08-28T08:57:46Z</time>
      </trkpt>
      <trkpt lat="45.96192" lon="6.88645">
        <ele>2207</ele>
        <time>2022-08-28T08:57:49Z</time>
      </trkpt>
      <trkpt lat="45.96193" lon="6.88642">
        <ele>2208</ele>
        <time>2022-08-28T08:57:52Z</time>
      </trkpt>
      <trkpt lat="45.96194" lon="6.88639">
        <ele>2208</ele>
        <time>2022-08-28T08:57:55Z</time>
      </trkpt>
      <trkpt lat="45.96195" lon="6.88637">
        <ele>2209</ele>
        <time>2022-08-28T08:57:58Z</time>
      </trkpt>
      <trkpt lat="45.96197" lon="6.88633">
        <ele>2209</ele>
        <time>2022-08-28T08:58:01Z</time>
      </trkpt>
      <trkpt lat="45.96196" lon="6.88633">
        <ele>2210</ele>
        <time>2022-08-28T08:58:03Z</time>
      </trkpt>
      <trkpt lat="45.96196" lon="6.88632">
        <ele>2210</ele>
        <time>2022-08-28T08:58:05Z</time>
      </trkpt>
      <trkpt lat="45.96196" lon="6.88632">
        <ele>2210</ele>
        <time>2022-08-28T08:58:06Z</time>
      </trkpt>
      <trkpt lat="45.96195" lon="6.88632">
        <ele>2210</ele>
        <time>2022-08-28T08:58:07Z</time>
      </trkpt>
      <trkpt lat="45.96195" lon="6.88632">
        <ele>2210</ele>
        <time>2022-08-28T08:58:09Z</time>
      </trkpt>
      <trkpt lat="45.96194" lon="6.88631">
        <ele>2210</ele>
        <time>2022-08-28T08:58:10Z</time>
      </trkpt>
      <trkpt lat="45.96194" lon="6.88631">
        <ele>2211</ele>
        <time>2022-08-28T08:58:11Z</time>
      </trkpt>
      <trkpt lat="45.96194" lon="6.88631">
        <ele>2211</ele>
        <time>2022-08-28T08:58:12Z</time>
      </trkpt>
      <trkpt lat="45.96193" lon="6.8863">
        <ele>2211</ele>
        <time>2022-08-28T08:58:13Z</time>
      </trkpt>
      <trkpt lat="45.96193" lon="6.8863">
        <ele>2211</ele>
        <time>2022-08-28T08:58:14Z</time>
      </trkpt>
      <trkpt lat="45.96193" lon="6.8863">
        <ele>2212</ele>
        <time>2022-08-28T08:58:15Z</time>
      </trkpt>
      <trkpt lat="45.96192" lon="6.8863">
        <ele>2212</ele>
        <time>2022-08-28T08:58:16Z</time>
      </trkpt>
      <trkpt lat="45.96192" lon="6.88629">
        <ele>2212</ele>
        <time>2022-08-28T08:58:18Z</time>
      </trkpt>
      <trkpt lat="45.96192" lon="6.88629">
        <ele>2212</ele>
        <time>2022-08-28T08:58:19Z</time>
      </trkpt>
      <trkpt lat="45.96191" lon="6.88629">
        <ele>2212</ele>
        <time>2022-08-28T08:58:20Z</time>
      </trkpt>
      <trkpt lat="45.96191" lon="6.88628">
        <ele>2212</ele>
        <time>2022-08-28T08:58:21Z</time>
      </trkpt>
      <trkpt lat="45.9619" lon="6.88628">
        <ele>2213</ele>
        <time>2022-08-28T08:58:23Z</time>
      </trkpt>
      <trkpt lat="45.9619" lon="6.88628">
        <ele>2213</ele>
        <time>2022-08-28T08:58:25Z</time>
      </trkpt>
      <trkpt lat="45.9619" lon="6.88628">
        <ele>2213</ele>
        <time>2022-08-28T08:58:26Z</time>
      </trkpt>
      <trkpt lat="45.96189" lon="6.88627">
        <ele>2213</ele>
        <time>2022-08-28T08:58:27Z</time>
      </trkpt>
      <trkpt lat="45.96189" lon="6.88627">
        <ele>2213</ele>
        <time>2022-08-28T08:58:28Z</time>
      </trkpt>
      <trkpt lat="45.96187" lon="6.88628">
        <ele>2214</ele>
        <time>2022-08-28T08:58:30Z</time>
      </trkpt>
      <trkpt lat="45.96185" lon="6.8863">
        <ele>2214</ele>
        <time>2022-08-28T08:58:32Z</time>
      </trkpt>
      <trkpt lat="45.96184" lon="6.88631">
        <ele>2214</ele>
        <time>2022-08-28T08:58:34Z</time>
      </trkpt>
      <trkpt lat="45.96183" lon="6.88633">
        <ele>2214</ele>
        <time>2022-08-28T08:58:36Z</time>
      </trkpt>
      <trkpt lat="45.9618" lon="6.88635">
        <ele>2215</ele>
        <time>2022-08-28T08:58:39Z</time>
      </trkpt>
      <trkpt lat="45.96179" lon="6.88636">
        <ele>2215</ele>
        <time>2022-08-28T08:58:40Z</time>
      </trkpt>
      <trkpt lat="45.96179" lon="6.88637">
        <ele>2215</ele>
        <time>2022-08-28T08:58:42Z</time>
      </trkpt>
      <trkpt lat="45.96178" lon="6.88638">
        <ele>2216</ele>
        <time>2022-08-28T08:58:43Z</time>
      </trkpt>
      <trkpt lat="45.96177" lon="6.88638">
        <ele>2216</ele>
        <time>2022-08-28T08:58:44Z</time>
      </trkpt>
      <trkpt lat="45.96175" lon="6.8864">
        <ele>2216</ele>
        <time>2022-08-28T08:58:47Z</time>
      </trkpt>
      <trkpt lat="45.96172" lon="6.88643">
        <ele>2216</ele>
        <time>2022-08-28T08:58:50Z</time>
      </trkpt>
      <trkpt lat="45.96171" lon="6.88645">
        <ele>2217</ele>
        <time>2022-08-28T08:58:52Z</time>
      </trkpt>
      <trkpt lat="45.9617" lon="6.88646">
        <ele>2217</ele>
        <time>2022-08-28T08:58:54Z</time>
      </trkpt>
      <trkpt lat="45.96168" lon="6.88648">
        <ele>2217</ele>
        <time>2022-08-28T08:58:56Z</time>
      </trkpt>
      <trkpt lat="45.96167" lon="6.8865">
        <ele>2217</ele>
        <time>2022-08-28T08:58:58Z</time>
      </trkpt>
      <trkpt lat="45.96165" lon="6.88652">
        <ele>2218</ele>
        <time>2022-08-28T08:59:00Z</time>
      </trkpt>
      <trkpt lat="45.96165" lon="6.88653">
        <ele>2218</ele>
        <time>2022-08-28T08:59:01Z</time>
      </trkpt>
      <trkpt lat="45.96164" lon="6.88653">
        <ele>2218</ele>
        <time>2022-08-28T08:59:02Z</time>
      </trkpt>
      <trkpt lat="45.96163" lon="6.88654">
        <ele>2219</ele>
        <time>2022-08-28T08:59:04Z</time>
      </trkpt>
      <trkpt lat="45.96163" lon="6.88655">
        <ele>2219</ele>
        <time>2022-08-28T08:59:05Z</time>
      </trkpt>
      <trkpt lat="45.96162" lon="6.88656">
        <ele>2219</ele>
        <time>2022-08-28T08:59:06Z</time>
      </trkpt>
      <trkpt lat="45.9616" lon="6.88658">
        <ele>2218</ele>
        <time>2022-08-28T08:59:08Z</time>
      </trkpt>
      <trkpt lat="45.96158" lon="6.88661">
        <ele>2219</ele>
        <time>2022-08-28T08:59:11Z</time>
      </trkpt>
      <trkpt lat="45.96155" lon="6.88664">
        <ele>2219</ele>
        <time>2022-08-28T08:59:15Z</time>
      </trkpt>
      <trkpt lat="45.96154" lon="6.88666">
        <ele>2220</ele>
        <time>2022-08-28T08:59:17Z</time>
      </trkpt>
      <trkpt lat="45.96152" lon="6.88669">
        <ele>2220</ele>
        <time>2022-08-28T08:59:20Z</time>
      </trkpt>
      <trkpt lat="45.9615" lon="6.88671">
        <ele>2222</ele>
        <time>2022-08-28T08:59:22Z</time>
      </trkpt>
      <trkpt lat="45.96149" lon="6.88673">
        <ele>2222</ele>
        <time>2022-08-28T08:59:24Z</time>
      </trkpt>
      <trkpt lat="45.96147" lon="6.88674">
        <ele>2222</ele>
        <time>2022-08-28T08:59:26Z</time>
      </trkpt>
      <trkpt lat="45.96146" lon="6.88676">
        <ele>2220</ele>
        <time>2022-08-28T08:59:28Z</time>
      </trkpt>
      <trkpt lat="45.96144" lon="6.88677">
        <ele>2222</ele>
        <time>2022-08-28T08:59:30Z</time>
      </trkpt>
      <trkpt lat="45.96142" lon="6.88679">
        <ele>2222</ele>
        <time>2022-08-28T08:59:32Z</time>
      </trkpt>
      <trkpt lat="45.9614" lon="6.8868">
        <ele>2222</ele>
        <time>2022-08-28T08:59:34Z</time>
      </trkpt>
      <trkpt lat="45.96138" lon="6.88681">
        <ele>2222</ele>
        <time>2022-08-28T08:59:36Z</time>
      </trkpt>
      <trkpt lat="45.96136" lon="6.88682">
        <ele>2222</ele>
        <time>2022-08-28T08:59:38Z</time>
      </trkpt>
      <trkpt lat="45.96134" lon="6.88683">
        <ele>2223</ele>
        <time>2022-08-28T08:59:40Z</time>
      </trkpt>
      <trkpt lat="45.96131" lon="6.88684">
        <ele>2223</ele>
        <time>2022-08-28T08:59:42Z</time>
      </trkpt>
      <trkpt lat="45.9613" lon="6.88684">
        <ele>2223</ele>
        <time>2022-08-28T08:59:44Z</time>
      </trkpt>
      <trkpt lat="45.96127" lon="6.88685">
        <ele>2223</ele>
        <time>2022-08-28T08:59:46Z</time>
      </trkpt>
      <trkpt lat="45.96125" lon="6.88686">
        <ele>2223</ele>
        <time>2022-08-28T08:59:48Z</time>
      </trkpt>
      <trkpt lat="45.96123" lon="6.88686">
        <ele>2223</ele>
        <time>2022-08-28T08:59:50Z</time>
      </trkpt>
      <trkpt lat="45.9612" lon="6.88686">
        <ele>2224</ele>
        <time>2022-08-28T08:59:53Z</time>
      </trkpt>
      <trkpt lat="45.96118" lon="6.88687">
        <ele>2224</ele>
        <time>2022-08-28T08:59:55Z</time>
      </trkpt>
      <trkpt lat="45.96116" lon="6.88687">
        <ele>2224</ele>
        <time>2022-08-28T08:59:57Z</time>
      </trkpt>
      <trkpt lat="45.96114" lon="6.88688">
        <ele>2224</ele>
        <time>2022-08-28T08:59:59Z</time>
      </trkpt>
      <trkpt lat="45.96112" lon="6.88688">
        <ele>2225</ele>
        <time>2022-08-28T09:00:01Z</time>
      </trkpt>
      <trkpt lat="45.9611" lon="6.88687">
        <ele>2225</ele>
        <time>2022-08-28T09:00:03Z</time>
      </trkpt>
      <trkpt lat="45.96107" lon="6.88686">
        <ele>2225</ele>
        <time>2022-08-28T09:00:05Z</time>
      </trkpt>
      <trkpt lat="45.96105" lon="6.88686">
        <ele>2225</ele>
        <time>2022-08-28T09:00:07Z</time>
      </trkpt>
      <trkpt lat="45.96104" lon="6.88686">
        <ele>2225</ele>
        <time>2022-08-28T09:00:09Z</time>
      </trkpt>
      <trkpt lat="45.96102" lon="6.88686">
        <ele>2225</ele>
        <time>2022-08-28T09:00:11Z</time>
      </trkpt>
      <trkpt lat="45.961" lon="6.88686">
        <ele>2225</ele>
        <time>2022-08-28T09:00:13Z</time>
      </trkpt>
      <trkpt lat="45.96098" lon="6.88686">
        <ele>2226</ele>
        <time>2022-08-28T09:00:15Z</time>
      </trkpt>
      <trkpt lat="45.96095" lon="6.88686">
        <ele>2226</ele>
        <time>2022-08-28T09:00:18Z</time>
      </trkpt>
      <trkpt lat="45.96093" lon="6.88687">
        <ele>2226</ele>
        <time>2022-08-28T09:00:21Z</time>
      </trkpt>
      <trkpt lat="45.9609" lon="6.88687">
        <ele>2227</ele>
        <time>2022-08-28T09:00:24Z</time>
      </trkpt>
      <trkpt lat="45.96088" lon="6.88686">
        <ele>2228</ele>
        <time>2022-08-28T09:00:26Z</time>
      </trkpt>
      <trkpt lat="45.96086" lon="6.88685">
        <ele>2228</ele>
        <time>2022-08-28T09:00:29Z</time>
      </trkpt>
      <trkpt lat="45.96084" lon="6.88685">
        <ele>2228</ele>
        <time>2022-08-28T09:00:31Z</time>
      </trkpt>
      <trkpt lat="45.96082" lon="6.88683">
        <ele>2229</ele>
        <time>2022-08-28T09:00:34Z</time>
      </trkpt>
      <trkpt lat="45.9608" lon="6.88681">
        <ele>2229</ele>
        <time>2022-08-28T09:00:37Z</time>
      </trkpt>
      <trkpt lat="45.96077" lon="6.8868">
        <ele>2229</ele>
        <time>2022-08-28T09:00:40Z</time>
      </trkpt>
      <trkpt lat="45.96075" lon="6.88679">
        <ele>2230</ele>
        <time>2022-08-28T09:00:43Z</time>
      </trkpt>
      <trkpt lat="45.96072" lon="6.88678">
        <ele>2230</ele>
        <time>2022-08-28T09:00:46Z</time>
      </trkpt>
      <trkpt lat="45.9607" lon="6.88676">
        <ele>2230</ele>
        <time>2022-08-28T09:00:49Z</time>
      </trkpt>
      <trkpt lat="45.96069" lon="6.88674">
        <ele>2230</ele>
        <time>2022-08-28T09:00:51Z</time>
      </trkpt>
      <trkpt lat="45.96066" lon="6.88672">
        <ele>2231</ele>
        <time>2022-08-28T09:00:54Z</time>
      </trkpt>
      <trkpt lat="45.96064" lon="6.88669">
        <ele>2231</ele>
        <time>2022-08-28T09:00:57Z</time>
      </trkpt>
      <trkpt lat="45.96063" lon="6.88667">
        <ele>2231</ele>
        <time>2022-08-28T09:01:00Z</time>
      </trkpt>
      <trkpt lat="45.96063" lon="6.88667">
        <ele>2231</ele>
        <time>2022-08-28T09:01:13Z</time>
      </trkpt>
      <trkpt lat="45.96063" lon="6.88667">
        <ele>2230</ele>
        <time>2022-08-28T09:01:30Z</time>
      </trkpt>
      <trkpt lat="45.96063" lon="6.88667">
        <ele>2231</ele>
        <time>2022-08-28T09:01:47Z</time>
      </trkpt>
      <trkpt lat="45.96063" lon="6.88667">
        <ele>2231</ele>
        <time>2022-08-28T09:02:04Z</time>
      </trkpt>
      <trkpt lat="45.96063" lon="6.88667">
        <ele>2231</ele>
        <time>2022-08-28T09:02:22Z</time>
      </trkpt>
      <trkpt lat="45.96063" lon="6.88667">
        <ele>2230</ele>
        <time>2022-08-28T09:02:41Z</time>
      </trkpt>
      <trkpt lat="45.96063" lon="6.88667">
        <ele>2230</ele>
        <time>2022-08-28T09:02:58Z</time>
      </trkpt>
      <trkpt lat="45.96063" lon="6.88667">
        <ele>2230</ele>
        <time>2022-08-28T09:03:15Z</time>
      </trkpt>
      <trkpt lat="45.96063" lon="6.88667">
        <ele>2231</ele>
        <time>2022-08-28T09:03:32Z</time>
      </trkpt>
      <trkpt lat="45.96063" lon="6.88667">
        <ele>2230</ele>
        <time>2022-08-28T09:03:48Z</time>
      </trkpt>
      <trkpt lat="45.96063" lon="6.88667">
        <ele>2230</ele>
        <time>2022-08-28T09:04:05Z</time>
      </trkpt>
      <trkpt lat="45.96063" lon="6.88667">
        <ele>2230</ele>
        <time>2022-08-28T09:04:26Z</time>
      </trkpt>
      <trkpt lat="45.96063" lon="6.88667">
        <ele>2230</ele>
        <time>2022-08-28T09:04:45Z</time>
      </trkpt>
      <trkpt lat="45.96063" lon="6.88667">
        <ele>2230</ele>
        <time>2022-08-28T09:05:03Z</time>
      </trkpt>
      <trkpt lat="45.96061" lon="6.88665">
        <ele>2230</ele>
        <time>2022-08-28T09:05:18Z</time>
      </trkpt>
      <trkpt lat="45.96061" lon="6.88665">
        <ele>2230</ele>
        <time>2022-08-28T09:05:23Z</time>
      </trkpt>
      <trkpt lat="45.96061" lon="6.88662">
        <ele>2230</ele>
        <time>2022-08-28T09:05:28Z</time>
      </trkpt>
      <trkpt lat="45.9606" lon="6.8866">
        <ele>2230</ele>
        <time>2022-08-28T09:05:30Z</time>
      </trkpt>
      <trkpt lat="45.96059" lon="6.88657">
        <ele>2230</ele>
        <time>2022-08-28T09:05:33Z</time>
      </trkpt>
      <trkpt lat="45.96058" lon="6.88654">
        <ele>2231</ele>
        <time>2022-08-28T09:05:35Z</time>
      </trkpt>
      <trkpt lat="45.96057" lon="6.88651">
        <ele>2231</ele>
        <time>2022-08-28T09:05:37Z</time>
      </trkpt>
      <trkpt lat="45.96056" lon="6.88648">
        <ele>2231</ele>
        <time>2022-08-28T09:05:39Z</time>
      </trkpt>
      <trkpt lat="45.96055" lon="6.88646">
        <ele>2230</ele>
        <time>2022-08-28T09:05:41Z</time>
      </trkpt>
      <trkpt lat="45.96055" lon="6.88643">
        <ele>2230</ele>
        <time>2022-08-28T09:05:43Z</time>
      </trkpt>
      <trkpt lat="45.96054" lon="6.8864">
        <ele>2230</ele>
        <time>2022-08-28T09:05:45Z</time>
      </trkpt>
      <trkpt lat="45.96053" lon="6.88638">
        <ele>2230</ele>
        <time>2022-08-28T09:05:47Z</time>
      </trkpt>
      <trkpt lat="45.96052" lon="6.88636">
        <ele>2230</ele>
        <time>2022-08-28T09:05:49Z</time>
      </trkpt>
      <trkpt lat="45.9605" lon="6.88633">
        <ele>2229</ele>
        <time>2022-08-28T09:05:52Z</time>
      </trkpt>
      <trkpt lat="45.96049" lon="6.88629">
        <ele>2229</ele>
        <time>2022-08-28T09:05:55Z</time>
      </trkpt>
      <trkpt lat="45.96048" lon="6.88627">
        <ele>2229</ele>
        <time>2022-08-28T09:05:58Z</time>
      </trkpt>
      <trkpt lat="45.96046" lon="6.88625">
        <ele>2228</ele>
        <time>2022-08-28T09:06:10Z</time>
      </trkpt>
      <trkpt lat="45.96045" lon="6.88623">
        <ele>2228</ele>
        <time>2022-08-28T09:06:12Z</time>
      </trkpt>
      <trkpt lat="45.96044" lon="6.8862">
        <ele>2227</ele>
        <time>2022-08-28T09:06:14Z</time>
      </trkpt>
      <trkpt lat="45.96043" lon="6.88616">
        <ele>2226</ele>
        <time>2022-08-28T09:06:16Z</time>
      </trkpt>
      <trkpt lat="45.96041" lon="6.88613">
        <ele>2226</ele>
        <time>2022-08-28T09:06:18Z</time>
      </trkpt>
      <trkpt lat="45.96038" lon="6.88609">
        <ele>2226</ele>
        <time>2022-08-28T09:06:20Z</time>
      </trkpt>
      <trkpt lat="45.96036" lon="6.88606">
        <ele>2226</ele>
        <time>2022-08-28T09:06:22Z</time>
      </trkpt>
      <trkpt lat="45.96033" lon="6.88604">
        <ele>2226</ele>
        <time>2022-08-28T09:06:24Z</time>
      </trkpt>
      <trkpt lat="45.9603" lon="6.88601">
        <ele>2223</ele>
        <time>2022-08-28T09:06:26Z</time>
      </trkpt>
      <trkpt lat="45.96027" lon="6.88598">
        <ele>2223</ele>
        <time>2022-08-28T09:06:28Z</time>
      </trkpt>
      <trkpt lat="45.96025" lon="6.88596">
        <ele>2223</ele>
        <time>2022-08-28T09:06:30Z</time>
      </trkpt>
      <trkpt lat="45.96022" lon="6.88595">
        <ele>2223</ele>
        <time>2022-08-28T09:06:32Z</time>
      </trkpt>
      <trkpt lat="45.9602" lon="6.88595">
        <ele>2223</ele>
        <time>2022-08-28T09:06:34Z</time>
      </trkpt>
      <trkpt lat="45.96018" lon="6.88597">
        <ele>2223</ele>
        <time>2022-08-28T09:06:36Z</time>
      </trkpt>
      <trkpt lat="45.96016" lon="6.88599">
        <ele>2223</ele>
        <time>2022-08-28T09:06:38Z</time>
      </trkpt>
      <trkpt lat="45.96014" lon="6.88602">
        <ele>2222</ele>
        <time>2022-08-28T09:06:40Z</time>
      </trkpt>
      <trkpt lat="45.96013" lon="6.88604">
        <ele>2222</ele>
        <time>2022-08-28T09:06:42Z</time>
      </trkpt>
      <trkpt lat="45.96012" lon="6.88607">
        <ele>2219</ele>
        <time>2022-08-28T09:06:44Z</time>
      </trkpt>
      <trkpt lat="45.9601" lon="6.8861">
        <ele>2219</ele>
        <time>2022-08-28T09:06:46Z</time>
      </trkpt>
      <trkpt lat="45.96009" lon="6.88613">
        <ele>2218</ele>
        <time>2022-08-28T09:06:48Z</time>
      </trkpt>
      <trkpt lat="45.96008" lon="6.88616">
        <ele>2216</ele>
        <time>2022-08-28T09:06:50Z</time>
      </trkpt>
      <trkpt lat="45.96007" lon="6.88619">
        <ele>2216</ele>
        <time>2022-08-28T09:06:52Z</time>
      </trkpt>
      <trkpt lat="45.96007" lon="6.88622">
        <ele>2215</ele>
        <time>2022-08-28T09:06:54Z</time>
      </trkpt>
      <trkpt lat="45.96007" lon="6.88626">
        <ele>2215</ele>
        <time>2022-08-28T09:06:56Z</time>
      </trkpt>
      <trkpt lat="45.96007" lon="6.8863">
        <ele>2214</ele>
        <time>2022-08-28T09:06:58Z</time>
      </trkpt>
      <trkpt lat="45.96006" lon="6.88633">
        <ele>2214</ele>
        <time>2022-08-28T09:07:00Z</time>
      </trkpt>
      <trkpt lat="45.96005" lon="6.88634">
        <ele>2211</ele>
        <time>2022-08-28T09:07:02Z</time>
      </trkpt>
      <trkpt lat="45.96003" lon="6.88637">
        <ele>2210</ele>
        <time>2022-08-28T09:07:04Z</time>
      </trkpt>
      <trkpt lat="45.96003" lon="6.88641">
        <ele>2210</ele>
        <time>2022-08-28T09:07:07Z</time>
      </trkpt>
      <trkpt lat="45.96002" lon="6.88644">
        <ele>2209</ele>
        <time>2022-08-28T09:07:09Z</time>
      </trkpt>
      <trkpt lat="45.96001" lon="6.88647">
        <ele>2208</ele>
        <time>2022-08-28T09:07:12Z</time>
      </trkpt>
      <trkpt lat="45.96" lon="6.88648">
        <ele>2208</ele>
        <time>2022-08-28T09:07:14Z</time>
      </trkpt>
      <trkpt lat="45.95998" lon="6.8865">
        <ele>2207</ele>
        <time>2022-08-28T09:07:16Z</time>
      </trkpt>
      <trkpt lat="45.95996" lon="6.88651">
        <ele>2206</ele>
        <time>2022-08-28T09:07:18Z</time>
      </trkpt>
      <trkpt lat="45.95994" lon="6.88654">
        <ele>2205</ele>
        <time>2022-08-28T09:07:21Z</time>
      </trkpt>
      <trkpt lat="45.95992" lon="6.88657">
        <ele>2204</ele>
        <time>2022-08-28T09:07:24Z</time>
      </trkpt>
      <trkpt lat="45.9599" lon="6.88657">
        <ele>2203</ele>
        <time>2022-08-28T09:07:26Z</time>
      </trkpt>
      <trkpt lat="45.95988" lon="6.88658">
        <ele>2201</ele>
        <time>2022-08-28T09:07:28Z</time>
      </trkpt>
      <trkpt lat="45.95985" lon="6.88657">
        <ele>2201</ele>
        <time>2022-08-28T09:07:30Z</time>
      </trkpt>
      <trkpt lat="45.95983" lon="6.88656">
        <ele>2200</ele>
        <time>2022-08-28T09:07:32Z</time>
      </trkpt>
      <trkpt lat="45.95981" lon="6.88656">
        <ele>2199</ele>
        <time>2022-08-28T09:07:34Z</time>
      </trkpt>
      <trkpt lat="45.95978" lon="6.88657">
        <ele>2199</ele>
        <time>2022-08-28T09:07:36Z</time>
      </trkpt>
      <trkpt lat="45.95976" lon="6.88655">
        <ele>2198</ele>
        <time>2022-08-28T09:07:38Z</time>
      </trkpt>
      <trkpt lat="45.95974" lon="6.88656">
        <ele>2196</ele>
        <time>2022-08-28T09:07:40Z</time>
      </trkpt>
      <trkpt lat="45.95972" lon="6.88658">
        <ele>2194</ele>
        <time>2022-08-28T09:07:42Z</time>
      </trkpt>
      <trkpt lat="45.95969" lon="6.88659">
        <ele>2194</ele>
        <time>2022-08-28T09:07:44Z</time>
      </trkpt>
      <trkpt lat="45.95967" lon="6.88661">
        <ele>2192</ele>
        <time>2022-08-28T09:07:46Z</time>
      </trkpt>
      <trkpt lat="45.95964" lon="6.8866">
        <ele>2191</ele>
        <time>2022-08-28T09:07:48Z</time>
      </trkpt>
      <trkpt lat="45.95961" lon="6.88661">
        <ele>2191</ele>
        <time>2022-08-28T09:07:50Z</time>
      </trkpt>
      <trkpt lat="45.95958" lon="6.88661">
        <ele>2190</ele>
        <time>2022-08-28T09:07:52Z</time>
      </trkpt>
      <trkpt lat="45.95956" lon="6.8866">
        <ele>2189</ele>
        <time>2022-08-28T09:07:53Z</time>
      </trkpt>
      <trkpt lat="45.95953" lon="6.88657">
        <ele>2189</ele>
        <time>2022-08-28T09:07:55Z</time>
      </trkpt>
      <trkpt lat="45.95952" lon="6.88654">
        <ele>2189</ele>
        <time>2022-08-28T09:07:56Z</time>
      </trkpt>
      <trkpt lat="45.95952" lon="6.88651">
        <ele>2189</ele>
        <time>2022-08-28T09:07:57Z</time>
      </trkpt>
      <trkpt lat="45.95951" lon="6.88649">
        <ele>2188</ele>
        <time>2022-08-28T09:07:58Z</time>
      </trkpt>
      <trkpt lat="45.95949" lon="6.88645">
        <ele>2188</ele>
        <time>2022-08-28T09:07:59Z</time>
      </trkpt>
      <trkpt lat="45.95949" lon="6.88644">
        <ele>2188</ele>
        <time>2022-08-28T09:08:00Z</time>
      </trkpt>
      <trkpt lat="45.95948" lon="6.88642">
        <ele>2188</ele>
        <time>2022-08-28T09:08:01Z</time>
      </trkpt>
      <trkpt lat="45.95947" lon="6.88639">
        <ele>2187</ele>
        <time>2022-08-28T09:08:02Z</time>
      </trkpt>
      <trkpt lat="45.95945" lon="6.88634">
        <ele>2187</ele>
        <time>2022-08-28T09:08:03Z</time>
      </trkpt>
      <trkpt lat="45.95944" lon="6.88632">
        <ele>2187</ele>
        <time>2022-08-28T09:08:05Z</time>
      </trkpt>
      <trkpt lat="45.95943" lon="6.8863">
        <ele>2186</ele>
        <time>2022-08-28T09:08:06Z</time>
      </trkpt>
      <trkpt lat="45.95941" lon="6.88626">
        <ele>2186</ele>
        <time>2022-08-28T09:08:07Z</time>
      </trkpt>
      <trkpt lat="45.95941" lon="6.88625">
        <ele>2186</ele>
        <time>2022-08-28T09:08:08Z</time>
      </trkpt>
      <trkpt lat="45.95939" lon="6.88624">
        <ele>2186</ele>
        <time>2022-08-28T09:08:09Z</time>
      </trkpt>
      <trkpt lat="45.95938" lon="6.88622">
        <ele>2185</ele>
        <time>2022-08-28T09:08:10Z</time>
      </trkpt>
      <trkpt lat="45.95935" lon="6.88619">
        <ele>2185</ele>
        <time>2022-08-28T09:08:12Z</time>
      </trkpt>
      <trkpt lat="45.95933" lon="6.88617">
        <ele>2185</ele>
        <time>2022-08-28T09:08:14Z</time>
      </trkpt>
      <trkpt lat="45.9593" lon="6.88615">
        <ele>2185</ele>
        <time>2022-08-28T09:08:16Z</time>
      </trkpt>
      <trkpt lat="45.95927" lon="6.88613">
        <ele>2183</ele>
        <time>2022-08-28T09:08:18Z</time>
      </trkpt>
      <trkpt lat="45.95925" lon="6.88611">
        <ele>2182</ele>
        <time>2022-08-28T09:08:19Z</time>
      </trkpt>
      <trkpt lat="45.95924" lon="6.8861">
        <ele>2182</ele>
        <time>2022-08-28T09:08:20Z</time>
      </trkpt>
      <trkpt lat="45.95921" lon="6.88607">
        <ele>2182</ele>
        <time>2022-08-28T09:08:22Z</time>
      </trkpt>
      <trkpt lat="45.95919" lon="6.88604">
        <ele>2182</ele>
        <time>2022-08-28T09:08:24Z</time>
      </trkpt>
      <trkpt lat="45.95917" lon="6.88601">
        <ele>2181</ele>
        <time>2022-08-28T09:08:26Z</time>
      </trkpt>
      <trkpt lat="45.95915" lon="6.88598">
        <ele>2180</ele>
        <time>2022-08-28T09:08:28Z</time>
      </trkpt>
      <trkpt lat="45.95912" lon="6.88596">
        <ele>2180</ele>
        <time>2022-08-28T09:08:30Z</time>
      </trkpt>
      <trkpt lat="45.9591" lon="6.88593">
        <ele>2178</ele>
        <time>2022-08-28T09:08:32Z</time>
      </trkpt>
      <trkpt lat="45.95908" lon="6.8859">
        <ele>2178</ele>
        <time>2022-08-28T09:08:34Z</time>
      </trkpt>
      <trkpt lat="45.95906" lon="6.88587">
        <ele>2178</ele>
        <time>2022-08-28T09:08:36Z</time>
      </trkpt>
      <trkpt lat="45.95903" lon="6.88583">
        <ele>2177</ele>
        <time>2022-08-28T09:08:38Z</time>
      </trkpt>
      <trkpt lat="45.95901" lon="6.8858">
        <ele>2176</ele>
        <time>2022-08-28T09:08:40Z</time>
      </trkpt>
      <trkpt lat="45.95899" lon="6.88577">
        <ele>2176</ele>
        <time>2022-08-28T09:08:42Z</time>
      </trkpt>
      <trkpt lat="45.95897" lon="6.88575">
        <ele>2174</ele>
        <time>2022-08-28T09:08:44Z</time>
      </trkpt>
      <trkpt lat="45.95895" lon="6.88572">
        <ele>2174</ele>
        <time>2022-08-28T09:08:46Z</time>
      </trkpt>
      <trkpt lat="45.95892" lon="6.88568">
        <ele>2173</ele>
        <time>2022-08-28T09:08:48Z</time>
      </trkpt>
      <trkpt lat="45.95891" lon="6.88566">
        <ele>2173</ele>
        <time>2022-08-28T09:08:50Z</time>
      </trkpt>
      <trkpt lat="45.95889" lon="6.88562">
        <ele>2172</ele>
        <time>2022-08-28T09:08:52Z</time>
      </trkpt>
      <trkpt lat="45.95887" lon="6.8856">
        <ele>2171</ele>
        <time>2022-08-28T09:08:54Z</time>
      </trkpt>
      <trkpt lat="45.95884" lon="6.88559">
        <ele>2171</ele>
        <time>2022-08-28T09:08:56Z</time>
      </trkpt>
      <trkpt lat="45.95882" lon="6.88557">
        <ele>2170</ele>
        <time>2022-08-28T09:08:58Z</time>
      </trkpt>
      <trkpt lat="45.9588" lon="6.88555">
        <ele>2170</ele>
        <time>2022-08-28T09:09:00Z</time>
      </trkpt>
      <trkpt lat="45.95877" lon="6.88553">
        <ele>2168</ele>
        <time>2022-08-28T09:09:02Z</time>
      </trkpt>
      <trkpt lat="45.95875" lon="6.88552">
        <ele>2167</ele>
        <time>2022-08-28T09:09:04Z</time>
      </trkpt>
      <trkpt lat="45.95873" lon="6.8855">
        <ele>2167</ele>
        <time>2022-08-28T09:09:06Z</time>
      </trkpt>
      <trkpt lat="45.9587" lon="6.88549">
        <ele>2167</ele>
        <time>2022-08-28T09:09:08Z</time>
      </trkpt>
      <trkpt lat="45.95868" lon="6.88548">
        <ele>2166</ele>
        <time>2022-08-28T09:09:10Z</time>
      </trkpt>
      <trkpt lat="45.95865" lon="6.88547">
        <ele>2166</ele>
        <time>2022-08-28T09:09:12Z</time>
      </trkpt>
      <trkpt lat="45.95863" lon="6.88546">
        <ele>2165</ele>
        <time>2022-08-28T09:09:14Z</time>
      </trkpt>
      <trkpt lat="45.95861" lon="6.88547">
        <ele>2164</ele>
        <time>2022-08-28T09:09:16Z</time>
      </trkpt>
      <trkpt lat="45.95858" lon="6.88547">
        <ele>2163</ele>
        <time>2022-08-28T09:09:18Z</time>
      </trkpt>
      <trkpt lat="45.95854" lon="6.88546">
        <ele>2163</ele>
        <time>2022-08-28T09:09:20Z</time>
      </trkpt>
      <trkpt lat="45.95851" lon="6.88544">
        <ele>2162</ele>
        <time>2022-08-28T09:09:22Z</time>
      </trkpt>
      <trkpt lat="45.95849" lon="6.88544">
        <ele>2161</ele>
        <time>2022-08-28T09:09:24Z</time>
      </trkpt>
      <trkpt lat="45.95846" lon="6.88543">
        <ele>2160</ele>
        <time>2022-08-28T09:09:26Z</time>
      </trkpt>
      <trkpt lat="45.95843" lon="6.88542">
        <ele>2159</ele>
        <time>2022-08-28T09:09:28Z</time>
      </trkpt>
      <trkpt lat="45.95841" lon="6.8854">
        <ele>2159</ele>
        <time>2022-08-28T09:09:30Z</time>
      </trkpt>
      <trkpt lat="45.95839" lon="6.88539">
        <ele>2159</ele>
        <time>2022-08-28T09:09:32Z</time>
      </trkpt>
      <trkpt lat="45.95837" lon="6.88538">
        <ele>2157</ele>
        <time>2022-08-28T09:09:34Z</time>
      </trkpt>
      <trkpt lat="45.95834" lon="6.88537">
        <ele>2156</ele>
        <time>2022-08-28T09:09:36Z</time>
      </trkpt>
      <trkpt lat="45.95832" lon="6.88536">
        <ele>2156</ele>
        <time>2022-08-28T09:09:38Z</time>
      </trkpt>
      <trkpt lat="45.9583" lon="6.88534">
        <ele>2155</ele>
        <time>2022-08-28T09:09:40Z</time>
      </trkpt>
      <trkpt lat="45.95827" lon="6.88534">
        <ele>2155</ele>
        <time>2022-08-28T09:09:42Z</time>
      </trkpt>
      <trkpt lat="45.95825" lon="6.88533">
        <ele>2154</ele>
        <time>2022-08-28T09:09:44Z</time>
      </trkpt>
      <trkpt lat="45.95823" lon="6.88532">
        <ele>2154</ele>
        <time>2022-08-28T09:09:46Z</time>
      </trkpt>
      <trkpt lat="45.95821" lon="6.88531">
        <ele>2154</ele>
        <time>2022-08-28T09:09:48Z</time>
      </trkpt>
      <trkpt lat="45.95818" lon="6.88529">
        <ele>2153</ele>
        <time>2022-08-28T09:09:50Z</time>
      </trkpt>
      <trkpt lat="45.95816" lon="6.88528">
        <ele>2152</ele>
        <time>2022-08-28T09:09:52Z</time>
      </trkpt>
      <trkpt lat="45.95813" lon="6.88525">
        <ele>2151</ele>
        <time>2022-08-28T09:09:54Z</time>
      </trkpt>
      <trkpt lat="45.95811" lon="6.88523">
        <ele>2151</ele>
        <time>2022-08-28T09:09:56Z</time>
      </trkpt>
      <trkpt lat="45.95808" lon="6.88521">
        <ele>2149</ele>
        <time>2022-08-28T09:09:58Z</time>
      </trkpt>
      <trkpt lat="45.95805" lon="6.88518">
        <ele>2149</ele>
        <time>2022-08-28T09:10:00Z</time>
      </trkpt>
      <trkpt lat="45.95803" lon="6.88514">
        <ele>2148</ele>
        <time>2022-08-28T09:10:02Z</time>
      </trkpt>
      <trkpt lat="45.958" lon="6.88511">
        <ele>2147</ele>
        <time>2022-08-28T09:10:04Z</time>
      </trkpt>
      <trkpt lat="45.95799" lon="6.88509">
        <ele>2147</ele>
        <time>2022-08-28T09:10:05Z</time>
      </trkpt>
      <trkpt lat="45.95797" lon="6.88506">
        <ele>2147</ele>
        <time>2022-08-28T09:10:07Z</time>
      </trkpt>
      <trkpt lat="45.95796" lon="6.88502">
        <ele>2145</ele>
        <time>2022-08-28T09:10:09Z</time>
      </trkpt>
      <trkpt lat="45.95794" lon="6.88498">
        <ele>2145</ele>
        <time>2022-08-28T09:10:11Z</time>
      </trkpt>
      <trkpt lat="45.95791" lon="6.88495">
        <ele>2145</ele>
        <time>2022-08-28T09:10:13Z</time>
      </trkpt>
      <trkpt lat="45.95789" lon="6.88491">
        <ele>2144</ele>
        <time>2022-08-28T09:10:15Z</time>
      </trkpt>
      <trkpt lat="45.95788" lon="6.88487">
        <ele>2142</ele>
        <time>2022-08-28T09:10:17Z</time>
      </trkpt>
      <trkpt lat="45.95788" lon="6.88484">
        <ele>2142</ele>
        <time>2022-08-28T09:10:18Z</time>
      </trkpt>
      <trkpt lat="45.95787" lon="6.88481">
        <ele>2142</ele>
        <time>2022-08-28T09:10:19Z</time>
      </trkpt>
      <trkpt lat="45.95786" lon="6.88477">
        <ele>2142</ele>
        <time>2022-08-28T09:10:21Z</time>
      </trkpt>
      <trkpt lat="45.95785" lon="6.88475">
        <ele>2142</ele>
        <time>2022-08-28T09:10:22Z</time>
      </trkpt>
      <trkpt lat="45.95783" lon="6.88473">
        <ele>2141</ele>
        <time>2022-08-28T09:10:23Z</time>
      </trkpt>
      <trkpt lat="45.95782" lon="6.88471">
        <ele>2141</ele>
        <time>2022-08-28T09:10:24Z</time>
      </trkpt>
      <trkpt lat="45.95781" lon="6.88469">
        <ele>2141</ele>
        <time>2022-08-28T09:10:25Z</time>
      </trkpt>
      <trkpt lat="45.95778" lon="6.88466">
        <ele>2141</ele>
        <time>2022-08-28T09:10:27Z</time>
      </trkpt>
      <trkpt lat="45.95776" lon="6.88462">
        <ele>2140</ele>
        <time>2022-08-28T09:10:29Z</time>
      </trkpt>
      <trkpt lat="45.95775" lon="6.88458">
        <ele>2139</ele>
        <time>2022-08-28T09:10:31Z</time>
      </trkpt>
      <trkpt lat="45.95774" lon="6.88454">
        <ele>2138</ele>
        <time>2022-08-28T09:10:33Z</time>
      </trkpt>
      <trkpt lat="45.95772" lon="6.8845">
        <ele>2138</ele>
        <time>2022-08-28T09:10:35Z</time>
      </trkpt>
      <trkpt lat="45.95769" lon="6.88447">
        <ele>2138</ele>
        <time>2022-08-28T09:10:37Z</time>
      </trkpt>
      <trkpt lat="45.95768" lon="6.88445">
        <ele>2137</ele>
        <time>2022-08-28T09:10:38Z</time>
      </trkpt>
      <trkpt lat="45.95766" lon="6.88441">
        <ele>2137</ele>
        <time>2022-08-28T09:10:40Z</time>
      </trkpt>
      <trkpt lat="45.95764" lon="6.88438">
        <ele>2135</ele>
        <time>2022-08-28T09:10:42Z</time>
      </trkpt>
      <trkpt lat="45.95762" lon="6.88435">
        <ele>2135</ele>
        <time>2022-08-28T09:10:44Z</time>
      </trkpt>
      <trkpt lat="45.95761" lon="6.88433">
        <ele>2135</ele>
        <time>2022-08-28T09:10:45Z</time>
      </trkpt>
      <trkpt lat="45.9576" lon="6.88431">
        <ele>2135</ele>
        <time>2022-08-28T09:10:46Z</time>
      </trkpt>
      <trkpt lat="45.95759" lon="6.88429">
        <ele>2135</ele>
        <time>2022-08-28T09:10:47Z</time>
      </trkpt>
      <trkpt lat="45.95758" lon="6.88427">
        <ele>2135</ele>
        <time>2022-08-28T09:10:48Z</time>
      </trkpt>
      <trkpt lat="45.95756" lon="6.88424">
        <ele>2134</ele>
        <time>2022-08-28T09:10:50Z</time>
      </trkpt>
      <trkpt lat="45.95753" lon="6.88422">
        <ele>2132</ele>
        <time>2022-08-28T09:10:52Z</time>
      </trkpt>
      <trkpt lat="45.9575" lon="6.88421">
        <ele>2132</ele>
        <time>2022-08-28T09:10:54Z</time>
      </trkpt>
      <trkpt lat="45.95749" lon="6.88417">
        <ele>2131</ele>
        <time>2022-08-28T09:10:56Z</time>
      </trkpt>
      <trkpt lat="45.95746" lon="6.88413">
        <ele>2131</ele>
        <time>2022-08-28T09:10:58Z</time>
      </trkpt>
      <trkpt lat="45.95746" lon="6.88411">
        <ele>2131</ele>
        <time>2022-08-28T09:10:59Z</time>
      </trkpt>
      <trkpt lat="45.95744" lon="6.88409">
        <ele>2131</ele>
        <time>2022-08-28T09:11:00Z</time>
      </trkpt>
      <trkpt lat="45.95742" lon="6.88406">
        <ele>2130</ele>
        <time>2022-08-28T09:11:02Z</time>
      </trkpt>
      <trkpt lat="45.95741" lon="6.88404">
        <ele>2129</ele>
        <time>2022-08-28T09:11:03Z</time>
      </trkpt>
      <trkpt lat="45.9574" lon="6.88402">
        <ele>2129</ele>
        <time>2022-08-28T09:11:04Z</time>
      </trkpt>
      <trkpt lat="45.95739" lon="6.884">
        <ele>2129</ele>
        <time>2022-08-28T09:11:05Z</time>
      </trkpt>
      <trkpt lat="45.95738" lon="6.88397">
        <ele>2128</ele>
        <time>2022-08-28T09:11:06Z</time>
      </trkpt>
      <trkpt lat="45.95737" lon="6.88395">
        <ele>2128</ele>
        <time>2022-08-28T09:11:07Z</time>
      </trkpt>
      <trkpt lat="45.95735" lon="6.88391">
        <ele>2128</ele>
        <time>2022-08-28T09:11:09Z</time>
      </trkpt>
      <trkpt lat="45.95734" lon="6.88388">
        <ele>2128</ele>
        <time>2022-08-28T09:11:11Z</time>
      </trkpt>
      <trkpt lat="45.95732" lon="6.88385">
        <ele>2127</ele>
        <time>2022-08-28T09:11:13Z</time>
      </trkpt>
      <trkpt lat="45.9573" lon="6.88383">
        <ele>2126</ele>
        <time>2022-08-28T09:11:15Z</time>
      </trkpt>
      <trkpt lat="45.95728" lon="6.8838">
        <ele>2126</ele>
        <time>2022-08-28T09:11:17Z</time>
      </trkpt>
      <trkpt lat="45.95727" lon="6.88377">
        <ele>2125</ele>
        <time>2022-08-28T09:11:19Z</time>
      </trkpt>
      <trkpt lat="45.95725" lon="6.88374">
        <ele>2124</ele>
        <time>2022-08-28T09:11:21Z</time>
      </trkpt>
      <trkpt lat="45.95724" lon="6.88371">
        <ele>2124</ele>
        <time>2022-08-28T09:11:23Z</time>
      </trkpt>
      <trkpt lat="45.95722" lon="6.88367">
        <ele>2123</ele>
        <time>2022-08-28T09:11:25Z</time>
      </trkpt>
      <trkpt lat="45.9572" lon="6.88363">
        <ele>2123</ele>
        <time>2022-08-28T09:11:27Z</time>
      </trkpt>
      <trkpt lat="45.95719" lon="6.88359">
        <ele>2122</ele>
        <time>2022-08-28T09:11:29Z</time>
      </trkpt>
      <trkpt lat="45.95718" lon="6.88356">
        <ele>2122</ele>
        <time>2022-08-28T09:11:31Z</time>
      </trkpt>
      <trkpt lat="45.95716" lon="6.88353">
        <ele>2121</ele>
        <time>2022-08-28T09:11:33Z</time>
      </trkpt>
      <trkpt lat="45.95714" lon="6.88351">
        <ele>2121</ele>
        <time>2022-08-28T09:11:35Z</time>
      </trkpt>
      <trkpt lat="45.95712" lon="6.88346">
        <ele>2120</ele>
        <time>2022-08-28T09:11:37Z</time>
      </trkpt>
      <trkpt lat="45.9571" lon="6.88342">
        <ele>2119</ele>
        <time>2022-08-28T09:11:39Z</time>
      </trkpt>
      <trkpt lat="45.95708" lon="6.8834">
        <ele>2119</ele>
        <time>2022-08-28T09:11:41Z</time>
      </trkpt>
      <trkpt lat="45.95707" lon="6.88336">
        <ele>2118</ele>
        <time>2022-08-28T09:11:43Z</time>
      </trkpt>
      <trkpt lat="45.95706" lon="6.88333">
        <ele>2118</ele>
        <time>2022-08-28T09:11:45Z</time>
      </trkpt>
      <trkpt lat="45.95704" lon="6.88328">
        <ele>2116</ele>
        <time>2022-08-28T09:11:48Z</time>
      </trkpt>
      <trkpt lat="45.95702" lon="6.88325">
        <ele>2115</ele>
        <time>2022-08-28T09:11:50Z</time>
      </trkpt>
      <trkpt lat="45.95702" lon="6.88322">
        <ele>2115</ele>
        <time>2022-08-28T09:11:52Z</time>
      </trkpt>
      <trkpt lat="45.95701" lon="6.88318">
        <ele>2115</ele>
        <time>2022-08-28T09:11:54Z</time>
      </trkpt>
      <trkpt lat="45.95699" lon="6.88315">
        <ele>2114</ele>
        <time>2022-08-28T09:11:56Z</time>
      </trkpt>
      <trkpt lat="45.95698" lon="6.8831">
        <ele>2113</ele>
        <time>2022-08-28T09:11:58Z</time>
      </trkpt>
      <trkpt lat="45.95697" lon="6.88307">
        <ele>2113</ele>
        <time>2022-08-28T09:12:00Z</time>
      </trkpt>
      <trkpt lat="45.95697" lon="6.88304">
        <ele>2112</ele>
        <time>2022-08-28T09:12:02Z</time>
      </trkpt>
      <trkpt lat="45.95695" lon="6.88301">
        <ele>2112</ele>
        <time>2022-08-28T09:12:04Z</time>
      </trkpt>
      <trkpt lat="45.95693" lon="6.88299">
        <ele>2112</ele>
        <time>2022-08-28T09:12:06Z</time>
      </trkpt>
      <trkpt lat="45.95691" lon="6.88296">
        <ele>2111</ele>
        <time>2022-08-28T09:12:08Z</time>
      </trkpt>
      <trkpt lat="45.95688" lon="6.88294">
        <ele>2111</ele>
        <time>2022-08-28T09:12:10Z</time>
      </trkpt>
      <trkpt lat="45.95686" lon="6.88291">
        <ele>2109</ele>
        <time>2022-08-28T09:12:12Z</time>
      </trkpt>
      <trkpt lat="45.95684" lon="6.88289">
        <ele>2109</ele>
        <time>2022-08-28T09:12:14Z</time>
      </trkpt>
      <trkpt lat="45.95683" lon="6.88286">
        <ele>2107</ele>
        <time>2022-08-28T09:12:16Z</time>
      </trkpt>
      <trkpt lat="45.95679" lon="6.88284">
        <ele>2107</ele>
        <time>2022-08-28T09:12:18Z</time>
      </trkpt>
      <trkpt lat="45.95678" lon="6.88284">
        <ele>2107</ele>
        <time>2022-08-28T09:12:19Z</time>
      </trkpt>
      <trkpt lat="45.95676" lon="6.88283">
        <ele>2107</ele>
        <time>2022-08-28T09:12:20Z</time>
      </trkpt>
      <trkpt lat="45.95674" lon="6.88282">
        <ele>2107</ele>
        <time>2022-08-28T09:12:21Z</time>
      </trkpt>
      <trkpt lat="45.95672" lon="6.88281">
        <ele>2106</ele>
        <time>2022-08-28T09:12:23Z</time>
      </trkpt>
      <trkpt lat="45.9567" lon="6.88279">
        <ele>2106</ele>
        <time>2022-08-28T09:12:25Z</time>
      </trkpt>
      <trkpt lat="45.95667" lon="6.88278">
        <ele>2105</ele>
        <time>2022-08-28T09:12:27Z</time>
      </trkpt>
      <trkpt lat="45.95665" lon="6.88276">
        <ele>2104</ele>
        <time>2022-08-28T09:12:29Z</time>
      </trkpt>
      <trkpt lat="45.95663" lon="6.88274">
        <ele>2103</ele>
        <time>2022-08-28T09:12:31Z</time>
      </trkpt>
      <trkpt lat="45.95661" lon="6.88272">
        <ele>2102</ele>
        <time>2022-08-28T09:12:33Z</time>
      </trkpt>
      <trkpt lat="45.95659" lon="6.88269">
        <ele>2102</ele>
        <time>2022-08-28T09:12:35Z</time>
      </trkpt>
      <trkpt lat="45.95657" lon="6.88266">
        <ele>2102</ele>
        <time>2022-08-28T09:12:37Z</time>
      </trkpt>
      <trkpt lat="45.95656" lon="6.88262">
        <ele>2101</ele>
        <time>2022-08-28T09:12:39Z</time>
      </trkpt>
      <trkpt lat="45.95655" lon="6.88259">
        <ele>2100</ele>
        <time>2022-08-28T09:12:41Z</time>
      </trkpt>
      <trkpt lat="45.95655" lon="6.88255">
        <ele>2100</ele>
        <time>2022-08-28T09:12:43Z</time>
      </trkpt>
      <trkpt lat="45.95654" lon="6.88251">
        <ele>2099</ele>
        <time>2022-08-28T09:12:45Z</time>
      </trkpt>
      <trkpt lat="45.95654" lon="6.88248">
        <ele>2099</ele>
        <time>2022-08-28T09:12:46Z</time>
      </trkpt>
      <trkpt lat="45.95654" lon="6.88246">
        <ele>2099</ele>
        <time>2022-08-28T09:12:47Z</time>
      </trkpt>
      <trkpt lat="45.95654" lon="6.88243">
        <ele>2098</ele>
        <time>2022-08-28T09:12:48Z</time>
      </trkpt>
      <trkpt lat="45.95654" lon="6.88241">
        <ele>2097</ele>
        <time>2022-08-28T09:12:49Z</time>
      </trkpt>
      <trkpt lat="45.95655" lon="6.88236">
        <ele>2096</ele>
        <time>2022-08-28T09:12:51Z</time>
      </trkpt>
      <trkpt lat="45.95656" lon="6.88233">
        <ele>2096</ele>
        <time>2022-08-28T09:12:53Z</time>
      </trkpt>
      <trkpt lat="45.95656" lon="6.88228">
        <ele>2096</ele>
        <time>2022-08-28T09:12:55Z</time>
      </trkpt>
      <trkpt lat="45.95656" lon="6.88223">
        <ele>2096</ele>
        <time>2022-08-28T09:12:57Z</time>
      </trkpt>
      <trkpt lat="45.95656" lon="6.88216">
        <ele>2095</ele>
        <time>2022-08-28T09:12:59Z</time>
      </trkpt>
      <trkpt lat="45.95656" lon="6.88215">
        <ele>2094</ele>
        <time>2022-08-28T09:13:00Z</time>
      </trkpt>
      <trkpt lat="45.95657" lon="6.88211">
        <ele>2094</ele>
        <time>2022-08-28T09:13:02Z</time>
      </trkpt>
      <trkpt lat="45.95658" lon="6.88206">
        <ele>2093</ele>
        <time>2022-08-28T09:13:04Z</time>
      </trkpt>
      <trkpt lat="45.95659" lon="6.88204">
        <ele>2093</ele>
        <time>2022-08-28T09:13:05Z</time>
      </trkpt>
      <trkpt lat="45.95659" lon="6.88199">
        <ele>2093</ele>
        <time>2022-08-28T09:13:07Z</time>
      </trkpt>
      <trkpt lat="45.95659" lon="6.88196">
        <ele>2093</ele>
        <time>2022-08-28T09:13:08Z</time>
      </trkpt>
      <trkpt lat="45.9566" lon="6.88192">
        <ele>2092</ele>
        <time>2022-08-28T09:13:10Z</time>
      </trkpt>
      <trkpt lat="45.95662" lon="6.88188">
        <ele>2092</ele>
        <time>2022-08-28T09:13:12Z</time>
      </trkpt>
      <trkpt lat="45.95663" lon="6.88185">
        <ele>2090</ele>
        <time>2022-08-28T09:13:13Z</time>
      </trkpt>
      <trkpt lat="45.95664" lon="6.88183">
        <ele>2090</ele>
        <time>2022-08-28T09:13:14Z</time>
      </trkpt>
      <trkpt lat="45.95665" lon="6.8818">
        <ele>2090</ele>
        <time>2022-08-28T09:13:15Z</time>
      </trkpt>
      <trkpt lat="45.95665" lon="6.88178">
        <ele>2090</ele>
        <time>2022-08-28T09:13:16Z</time>
      </trkpt>
      <trkpt lat="45.95666" lon="6.88176">
        <ele>2090</ele>
        <time>2022-08-28T09:13:17Z</time>
      </trkpt>
      <trkpt lat="45.95666" lon="6.88173">
        <ele>2090</ele>
        <time>2022-08-28T09:13:18Z</time>
      </trkpt>
      <trkpt lat="45.95667" lon="6.88171">
        <ele>2088</ele>
        <time>2022-08-28T09:13:19Z</time>
      </trkpt>
      <trkpt lat="45.95667" lon="6.88168">
        <ele>2088</ele>
        <time>2022-08-28T09:13:20Z</time>
      </trkpt>
      <trkpt lat="45.95668" lon="6.88165">
        <ele>2087</ele>
        <time>2022-08-28T09:13:21Z</time>
      </trkpt>
      <trkpt lat="45.95668" lon="6.88161">
        <ele>2087</ele>
        <time>2022-08-28T09:13:22Z</time>
      </trkpt>
      <trkpt lat="45.95668" lon="6.8816">
        <ele>2086</ele>
        <time>2022-08-28T09:13:23Z</time>
      </trkpt>
      <trkpt lat="45.95669" lon="6.88157">
        <ele>2086</ele>
        <time>2022-08-28T09:13:24Z</time>
      </trkpt>
      <trkpt lat="45.9567" lon="6.88152">
        <ele>2086</ele>
        <time>2022-08-28T09:13:26Z</time>
      </trkpt>
      <trkpt lat="45.95671" lon="6.88148">
        <ele>2085</ele>
        <time>2022-08-28T09:13:28Z</time>
      </trkpt>
      <trkpt lat="45.95672" lon="6.88145">
        <ele>2085</ele>
        <time>2022-08-28T09:13:29Z</time>
      </trkpt>
      <trkpt lat="45.95672" lon="6.8814">
        <ele>2084</ele>
        <time>2022-08-28T09:13:31Z</time>
      </trkpt>
      <trkpt lat="45.95674" lon="6.88136">
        <ele>2083</ele>
        <time>2022-08-28T09:13:33Z</time>
      </trkpt>
      <trkpt lat="45.95675" lon="6.88132">
        <ele>2083</ele>
        <time>2022-08-28T09:13:35Z</time>
      </trkpt>
      <trkpt lat="45.95676" lon="6.88128">
        <ele>2083</ele>
        <time>2022-08-28T09:13:37Z</time>
      </trkpt>
      <trkpt lat="45.95677" lon="6.88123">
        <ele>2082</ele>
        <time>2022-08-28T09:13:39Z</time>
      </trkpt>
      <trkpt lat="45.95678" lon="6.8812">
        <ele>2081</ele>
        <time>2022-08-28T09:13:41Z</time>
      </trkpt>
      <trkpt lat="45.95679" lon="6.88116">
        <ele>2080</ele>
        <time>2022-08-28T09:13:43Z</time>
      </trkpt>
      <trkpt lat="45.9568" lon="6.88112">
        <ele>2080</ele>
        <time>2022-08-28T09:13:45Z</time>
      </trkpt>
      <trkpt lat="45.95681" lon="6.88108">
        <ele>2080</ele>
        <time>2022-08-28T09:13:47Z</time>
      </trkpt>
      <trkpt lat="45.95682" lon="6.88104">
        <ele>2080</ele>
        <time>2022-08-28T09:13:49Z</time>
      </trkpt>
      <trkpt lat="45.95682" lon="6.881">
        <ele>2079</ele>
        <time>2022-08-28T09:13:51Z</time>
      </trkpt>
      <trkpt lat="45.95682" lon="6.88095">
        <ele>2079</ele>
        <time>2022-08-28T09:13:53Z</time>
      </trkpt>
      <trkpt lat="45.95682" lon="6.8809">
        <ele>2078</ele>
        <time>2022-08-28T09:13:55Z</time>
      </trkpt>
      <trkpt lat="45.95682" lon="6.88087">
        <ele>2077</ele>
        <time>2022-08-28T09:13:57Z</time>
      </trkpt>
      <trkpt lat="45.9568" lon="6.88084">
        <ele>2077</ele>
        <time>2022-08-28T09:13:59Z</time>
      </trkpt>
      <trkpt lat="45.95679" lon="6.88086">
        <ele>2076</ele>
        <time>2022-08-28T09:14:01Z</time>
      </trkpt>
      <trkpt lat="45.95677" lon="6.8809">
        <ele>2076</ele>
        <time>2022-08-28T09:14:03Z</time>
      </trkpt>
      <trkpt lat="45.95676" lon="6.88094">
        <ele>2076</ele>
        <time>2022-08-28T09:14:05Z</time>
      </trkpt>
      <trkpt lat="45.95674" lon="6.88097">
        <ele>2075</ele>
        <time>2022-08-28T09:14:07Z</time>
      </trkpt>
      <trkpt lat="45.95673" lon="6.88101">
        <ele>2075</ele>
        <time>2022-08-28T09:14:09Z</time>
      </trkpt>
      <trkpt lat="45.95671" lon="6.88105">
        <ele>2074</ele>
        <time>2022-08-28T09:14:11Z</time>
      </trkpt>
      <trkpt lat="45.95671" lon="6.8811">
        <ele>2074</ele>
        <time>2022-08-28T09:14:13Z</time>
      </trkpt>
      <trkpt lat="45.95671" lon="6.88113">
        <ele>2074</ele>
        <time>2022-08-28T09:14:15Z</time>
      </trkpt>
      <trkpt lat="45.9567" lon="6.88116">
        <ele>2074</ele>
        <time>2022-08-28T09:14:17Z</time>
      </trkpt>
      <trkpt lat="45.9567" lon="6.88121">
        <ele>2074</ele>
        <time>2022-08-28T09:14:19Z</time>
      </trkpt>
      <trkpt lat="45.9567" lon="6.88124">
        <ele>2074</ele>
        <time>2022-08-28T09:14:21Z</time>
      </trkpt>
      <trkpt lat="45.9567" lon="6.88128">
        <ele>2074</ele>
        <time>2022-08-28T09:14:23Z</time>
      </trkpt>
      <trkpt lat="45.9567" lon="6.88131">
        <ele>2074</ele>
        <time>2022-08-28T09:14:25Z</time>
      </trkpt>
      <trkpt lat="45.95668" lon="6.88134">
        <ele>2075</ele>
        <time>2022-08-28T09:14:27Z</time>
      </trkpt>
      <trkpt lat="45.95667" lon="6.88137">
        <ele>2074</ele>
        <time>2022-08-28T09:14:29Z</time>
      </trkpt>
      <trkpt lat="45.95665" lon="6.88139">
        <ele>2074</ele>
        <time>2022-08-28T09:14:31Z</time>
      </trkpt>
      <trkpt lat="45.95663" lon="6.88143">
        <ele>2074</ele>
        <time>2022-08-28T09:14:33Z</time>
      </trkpt>
      <trkpt lat="45.95662" lon="6.88147">
        <ele>2074</ele>
        <time>2022-08-28T09:14:35Z</time>
      </trkpt>
      <trkpt lat="45.9566" lon="6.88151">
        <ele>2074</ele>
        <time>2022-08-28T09:14:37Z</time>
      </trkpt>
      <trkpt lat="45.95659" lon="6.88153">
        <ele>2074</ele>
        <time>2022-08-28T09:14:39Z</time>
      </trkpt>
      <trkpt lat="45.95659" lon="6.88155">
        <ele>2074</ele>
        <time>2022-08-28T09:14:40Z</time>
      </trkpt>
      <trkpt lat="45.95659" lon="6.88158">
        <ele>2074</ele>
        <time>2022-08-28T09:14:41Z</time>
      </trkpt>
      <trkpt lat="45.95659" lon="6.8816">
        <ele>2074</ele>
        <time>2022-08-28T09:14:42Z</time>
      </trkpt>
      <trkpt lat="45.95658" lon="6.88162">
        <ele>2074</ele>
        <time>2022-08-28T09:14:43Z</time>
      </trkpt>
      <trkpt lat="45.95658" lon="6.88164">
        <ele>2074</ele>
        <time>2022-08-28T09:14:44Z</time>
      </trkpt>
      <trkpt lat="45.9565" lon="6.88175">
        <ele>2072</ele>
        <time>2022-08-28T09:14:51Z</time>
      </trkpt>
      <trkpt lat="45.95649" lon="6.88177">
        <ele>2072</ele>
        <time>2022-08-28T09:14:52Z</time>
      </trkpt>
      <trkpt lat="45.95649" lon="6.88179">
        <ele>2072</ele>
        <time>2022-08-28T09:14:53Z</time>
      </trkpt>
      <trkpt lat="45.95648" lon="6.8818">
        <ele>2072</ele>
        <time>2022-08-28T09:14:54Z</time>
      </trkpt>
      <trkpt lat="45.95647" lon="6.88182">
        <ele>2072</ele>
        <time>2022-08-28T09:14:56Z</time>
      </trkpt>
      <trkpt lat="45.95646" lon="6.88184">
        <ele>2072</ele>
        <time>2022-08-28T09:14:57Z</time>
      </trkpt>
      <trkpt lat="45.95645" lon="6.88186">
        <ele>2071</ele>
        <time>2022-08-28T09:14:58Z</time>
      </trkpt>
      <trkpt lat="45.95643" lon="6.88187">
        <ele>2070</ele>
        <time>2022-08-28T09:14:59Z</time>
      </trkpt>
      <trkpt lat="45.95642" lon="6.88189">
        <ele>2070</ele>
        <time>2022-08-28T09:15:00Z</time>
      </trkpt>
      <trkpt lat="45.95641" lon="6.88191">
        <ele>2070</ele>
        <time>2022-08-28T09:15:01Z</time>
      </trkpt>
      <trkpt lat="45.95639" lon="6.88192">
        <ele>2070</ele>
        <time>2022-08-28T09:15:02Z</time>
      </trkpt>
      <trkpt lat="45.95638" lon="6.88194">
        <ele>2070</ele>
        <time>2022-08-28T09:15:03Z</time>
      </trkpt>
      <trkpt lat="45.95637" lon="6.88196">
        <ele>2070</ele>
        <time>2022-08-28T09:15:04Z</time>
      </trkpt>
      <trkpt lat="45.95637" lon="6.88198">
        <ele>2069</ele>
        <time>2022-08-28T09:15:05Z</time>
      </trkpt>
      <trkpt lat="45.95636" lon="6.882">
        <ele>2069</ele>
        <time>2022-08-28T09:15:06Z</time>
      </trkpt>
      <trkpt lat="45.95635" lon="6.88202">
        <ele>2069</ele>
        <time>2022-08-28T09:15:07Z</time>
      </trkpt>
      <trkpt lat="45.95634" lon="6.88204">
        <ele>2069</ele>
        <time>2022-08-28T09:15:08Z</time>
      </trkpt>
      <trkpt lat="45.95634" lon="6.88206">
        <ele>2069</ele>
        <time>2022-08-28T09:15:09Z</time>
      </trkpt>
      <trkpt lat="45.95631" lon="6.8822">
        <ele>2068</ele>
        <time>2022-08-28T09:15:15Z</time>
      </trkpt>
      <trkpt lat="45.9563" lon="6.88223">
        <ele>2068</ele>
        <time>2022-08-28T09:15:16Z</time>
      </trkpt>
      <trkpt lat="45.95629" lon="6.88225">
        <ele>2067</ele>
        <time>2022-08-28T09:15:17Z</time>
      </trkpt>
      <trkpt lat="45.95628" lon="6.88228">
        <ele>2067</ele>
        <time>2022-08-28T09:15:19Z</time>
      </trkpt>
      <trkpt lat="45.95628" lon="6.88231">
        <ele>2067</ele>
        <time>2022-08-28T09:15:20Z</time>
      </trkpt>
      <trkpt lat="45.95627" lon="6.88233">
        <ele>2067</ele>
        <time>2022-08-28T09:15:21Z</time>
      </trkpt>
      <trkpt lat="45.95626" lon="6.88235">
        <ele>2067</ele>
        <time>2022-08-28T09:15:22Z</time>
      </trkpt>
      <trkpt lat="45.95625" lon="6.88238">
        <ele>2066</ele>
        <time>2022-08-28T09:15:24Z</time>
      </trkpt>
      <trkpt lat="45.95625" lon="6.8824">
        <ele>2066</ele>
        <time>2022-08-28T09:15:25Z</time>
      </trkpt>
      <trkpt lat="45.95624" lon="6.88242">
        <ele>2066</ele>
        <time>2022-08-28T09:15:26Z</time>
      </trkpt>
      <trkpt lat="45.95623" lon="6.88244">
        <ele>2066</ele>
        <time>2022-08-28T09:15:27Z</time>
      </trkpt>
      <trkpt lat="45.95622" lon="6.88247">
        <ele>2064</ele>
        <time>2022-08-28T09:15:28Z</time>
      </trkpt>
      <trkpt lat="45.95621" lon="6.88249">
        <ele>2064</ele>
        <time>2022-08-28T09:15:29Z</time>
      </trkpt>
      <trkpt lat="45.9562" lon="6.88251">
        <ele>2064</ele>
        <time>2022-08-28T09:15:30Z</time>
      </trkpt>
      <trkpt lat="45.95619" lon="6.88253">
        <ele>2064</ele>
        <time>2022-08-28T09:15:31Z</time>
      </trkpt>
      <trkpt lat="45.95618" lon="6.88255">
        <ele>2063</ele>
        <time>2022-08-28T09:15:33Z</time>
      </trkpt>
      <trkpt lat="45.95616" lon="6.88257">
        <ele>2063</ele>
        <time>2022-08-28T09:15:34Z</time>
      </trkpt>
      <trkpt lat="45.95616" lon="6.88259">
        <ele>2063</ele>
        <time>2022-08-28T09:15:35Z</time>
      </trkpt>
      <trkpt lat="45.95615" lon="6.88261">
        <ele>2062</ele>
        <time>2022-08-28T09:15:36Z</time>
      </trkpt>
      <trkpt lat="45.95614" lon="6.88263">
        <ele>2062</ele>
        <time>2022-08-28T09:15:37Z</time>
      </trkpt>
      <trkpt lat="45.95613" lon="6.88264">
        <ele>2062</ele>
        <time>2022-08-28T09:15:38Z</time>
      </trkpt>
      <trkpt lat="45.95613" lon="6.88266">
        <ele>2062</ele>
        <time>2022-08-28T09:15:39Z</time>
      </trkpt>
      <trkpt lat="45.95612" lon="6.88268">
        <ele>2062</ele>
        <time>2022-08-28T09:15:40Z</time>
      </trkpt>
      <trkpt lat="45.95611" lon="6.88273">
        <ele>2062</ele>
        <time>2022-08-28T09:15:41Z</time>
      </trkpt>
      <trkpt lat="45.9561" lon="6.88274">
        <ele>2062</ele>
        <time>2022-08-28T09:15:42Z</time>
      </trkpt>
      <trkpt lat="45.95609" lon="6.88276">
        <ele>2062</ele>
        <time>2022-08-28T09:15:43Z</time>
      </trkpt>
      <trkpt lat="45.95608" lon="6.88277">
        <ele>2062</ele>
        <time>2022-08-28T09:15:44Z</time>
      </trkpt>
      <trkpt lat="45.95608" lon="6.88278">
        <ele>2061</ele>
        <time>2022-08-28T09:15:45Z</time>
      </trkpt>
      <trkpt lat="45.95606" lon="6.88282">
        <ele>2061</ele>
        <time>2022-08-28T09:15:46Z</time>
      </trkpt>
      <trkpt lat="45.95603" lon="6.88295">
        <ele>2060</ele>
        <time>2022-08-28T09:15:53Z</time>
      </trkpt>
      <trkpt lat="45.95602" lon="6.88297">
        <ele>2060</ele>
        <time>2022-08-28T09:15:55Z</time>
      </trkpt>
      <trkpt lat="45.95602" lon="6.88301">
        <ele>2060</ele>
        <time>2022-08-28T09:15:59Z</time>
      </trkpt>
      <trkpt lat="45.95602" lon="6.88304">
        <ele>2059</ele>
        <time>2022-08-28T09:16:01Z</time>
      </trkpt>
      <trkpt lat="45.95602" lon="6.88306">
        <ele>2058</ele>
        <time>2022-08-28T09:16:03Z</time>
      </trkpt>
      <trkpt lat="45.95603" lon="6.88308">
        <ele>2058</ele>
        <time>2022-08-28T09:16:04Z</time>
      </trkpt>
      <trkpt lat="45.95603" lon="6.88309">
        <ele>2058</ele>
        <time>2022-08-28T09:16:05Z</time>
      </trkpt>
      <trkpt lat="45.95603" lon="6.88311">
        <ele>2058</ele>
        <time>2022-08-28T09:16:06Z</time>
      </trkpt>
      <trkpt lat="45.95604" lon="6.88312">
        <ele>2058</ele>
        <time>2022-08-28T09:16:07Z</time>
      </trkpt>
      <trkpt lat="45.95604" lon="6.88314">
        <ele>2057</ele>
        <time>2022-08-28T09:16:08Z</time>
      </trkpt>
      <trkpt lat="45.95605" lon="6.88317">
        <ele>2057</ele>
        <time>2022-08-28T09:16:09Z</time>
      </trkpt>
      <trkpt lat="45.95605" lon="6.88319">
        <ele>2056</ele>
        <time>2022-08-28T09:16:10Z</time>
      </trkpt>
      <trkpt lat="45.95605" lon="6.88321">
        <ele>2056</ele>
        <time>2022-08-28T09:16:11Z</time>
      </trkpt>
      <trkpt lat="45.95605" lon="6.88324">
        <ele>2057</ele>
        <time>2022-08-28T09:16:12Z</time>
      </trkpt>
      <trkpt lat="45.95604" lon="6.88329">
        <ele>2056</ele>
        <time>2022-08-28T09:16:14Z</time>
      </trkpt>
      <trkpt lat="45.95604" lon="6.88331">
        <ele>2056</ele>
        <time>2022-08-28T09:16:16Z</time>
      </trkpt>
      <trkpt lat="45.95604" lon="6.88332">
        <ele>2056</ele>
        <time>2022-08-28T09:16:17Z</time>
      </trkpt>
      <trkpt lat="45.95604" lon="6.88334">
        <ele>2056</ele>
        <time>2022-08-28T09:16:18Z</time>
      </trkpt>
      <trkpt lat="45.95602" lon="6.88339">
        <ele>2055</ele>
        <time>2022-08-28T09:16:22Z</time>
      </trkpt>
      <trkpt lat="45.95603" lon="6.88342">
        <ele>2055</ele>
        <time>2022-08-28T09:16:24Z</time>
      </trkpt>
      <trkpt lat="45.95603" lon="6.88344">
        <ele>2054</ele>
        <time>2022-08-28T09:16:26Z</time>
      </trkpt>
      <trkpt lat="45.95602" lon="6.88346">
        <ele>2054</ele>
        <time>2022-08-28T09:16:27Z</time>
      </trkpt>
      <trkpt lat="45.95602" lon="6.88348">
        <ele>2054</ele>
        <time>2022-08-28T09:16:28Z</time>
      </trkpt>
      <trkpt lat="45.95602" lon="6.8835">
        <ele>2054</ele>
        <time>2022-08-28T09:16:29Z</time>
      </trkpt>
      <trkpt lat="45.95602" lon="6.88352">
        <ele>2054</ele>
        <time>2022-08-28T09:16:30Z</time>
      </trkpt>
      <trkpt lat="45.95602" lon="6.88355">
        <ele>2054</ele>
        <time>2022-08-28T09:16:31Z</time>
      </trkpt>
      <trkpt lat="45.95603" lon="6.88357">
        <ele>2053</ele>
        <time>2022-08-28T09:16:32Z</time>
      </trkpt>
      <trkpt lat="45.95603" lon="6.88359">
        <ele>2052</ele>
        <time>2022-08-28T09:16:33Z</time>
      </trkpt>
      <trkpt lat="45.95604" lon="6.88361">
        <ele>2052</ele>
        <time>2022-08-28T09:16:34Z</time>
      </trkpt>
      <trkpt lat="45.95604" lon="6.88363">
        <ele>2052</ele>
        <time>2022-08-28T09:16:36Z</time>
      </trkpt>
      <trkpt lat="45.95605" lon="6.88365">
        <ele>2052</ele>
        <time>2022-08-28T09:16:38Z</time>
      </trkpt>
      <trkpt lat="45.95605" lon="6.88368">
        <ele>2051</ele>
        <time>2022-08-28T09:16:39Z</time>
      </trkpt>
      <trkpt lat="45.95605" lon="6.8837">
        <ele>2051</ele>
        <time>2022-08-28T09:16:40Z</time>
      </trkpt>
      <trkpt lat="45.95606" lon="6.88372">
        <ele>2051</ele>
        <time>2022-08-28T09:16:41Z</time>
      </trkpt>
      <trkpt lat="45.95606" lon="6.88374">
        <ele>2051</ele>
        <time>2022-08-28T09:16:43Z</time>
      </trkpt>
      <trkpt lat="45.95607" lon="6.88376">
        <ele>2051</ele>
        <time>2022-08-28T09:16:44Z</time>
      </trkpt>
      <trkpt lat="45.95607" lon="6.88378">
        <ele>2050</ele>
        <time>2022-08-28T09:16:45Z</time>
      </trkpt>
      <trkpt lat="45.95608" lon="6.88381">
        <ele>2050</ele>
        <time>2022-08-28T09:16:46Z</time>
      </trkpt>
      <trkpt lat="45.95609" lon="6.88385">
        <ele>2050</ele>
        <time>2022-08-28T09:16:47Z</time>
      </trkpt>
      <trkpt lat="45.9561" lon="6.88389">
        <ele>2050</ele>
        <time>2022-08-28T09:16:50Z</time>
      </trkpt>
      <trkpt lat="45.9561" lon="6.88393">
        <ele>2049</ele>
        <time>2022-08-28T09:16:52Z</time>
      </trkpt>
      <trkpt lat="45.95609" lon="6.88397">
        <ele>2048</ele>
        <time>2022-08-28T09:16:54Z</time>
      </trkpt>
      <trkpt lat="45.95608" lon="6.884">
        <ele>2048</ele>
        <time>2022-08-28T09:16:56Z</time>
      </trkpt>
      <trkpt lat="45.95607" lon="6.88403">
        <ele>2048</ele>
        <time>2022-08-28T09:16:58Z</time>
      </trkpt>
      <trkpt lat="45.95608" lon="6.88406">
        <ele>2048</ele>
        <time>2022-08-28T09:17:00Z</time>
      </trkpt>
      <trkpt lat="45.95607" lon="6.88409">
        <ele>2048</ele>
        <time>2022-08-28T09:17:03Z</time>
      </trkpt>
      <trkpt lat="45.95608" lon="6.88411">
        <ele>2047</ele>
        <time>2022-08-28T09:17:06Z</time>
      </trkpt>
      <trkpt lat="45.95609" lon="6.88415">
        <ele>2047</ele>
        <time>2022-08-28T09:17:08Z</time>
      </trkpt>
      <trkpt lat="45.9561" lon="6.88417">
        <ele>2047</ele>
        <time>2022-08-28T09:17:10Z</time>
      </trkpt>
      <trkpt lat="45.95611" lon="6.88421">
        <ele>2045</ele>
        <time>2022-08-28T09:17:12Z</time>
      </trkpt>
      <trkpt lat="45.95612" lon="6.88423">
        <ele>2045</ele>
        <time>2022-08-28T09:17:13Z</time>
      </trkpt>
      <trkpt lat="45.95614" lon="6.88426">
        <ele>2045</ele>
        <time>2022-08-28T09:17:15Z</time>
      </trkpt>
      <trkpt lat="45.95614" lon="6.8843">
        <ele>2045</ele>
        <time>2022-08-28T09:17:17Z</time>
      </trkpt>
      <trkpt lat="45.95615" lon="6.88434">
        <ele>2044</ele>
        <time>2022-08-28T09:17:19Z</time>
      </trkpt>
      <trkpt lat="45.95616" lon="6.8844">
        <ele>2043</ele>
        <time>2022-08-28T09:17:21Z</time>
      </trkpt>
      <trkpt lat="45.95617" lon="6.88442">
        <ele>2043</ele>
        <time>2022-08-28T09:17:22Z</time>
      </trkpt>
      <trkpt lat="45.95617" lon="6.88444">
        <ele>2043</ele>
        <time>2022-08-28T09:17:23Z</time>
      </trkpt>
      <trkpt lat="45.95618" lon="6.88445">
        <ele>2043</ele>
        <time>2022-08-28T09:17:24Z</time>
      </trkpt>
      <trkpt lat="45.95619" lon="6.88447">
        <ele>2043</ele>
        <time>2022-08-28T09:17:26Z</time>
      </trkpt>
      <trkpt lat="45.95619" lon="6.88449">
        <ele>2043</ele>
        <time>2022-08-28T09:17:27Z</time>
      </trkpt>
      <trkpt lat="45.9562" lon="6.88451">
        <ele>2043</ele>
        <time>2022-08-28T09:17:28Z</time>
      </trkpt>
      <trkpt lat="45.95625" lon="6.88462">
        <ele>2042</ele>
        <time>2022-08-28T09:17:33Z</time>
      </trkpt>
      <trkpt lat="45.95625" lon="6.88465">
        <ele>2042</ele>
        <time>2022-08-28T09:17:35Z</time>
      </trkpt>
      <trkpt lat="45.95626" lon="6.88469">
        <ele>2042</ele>
        <time>2022-08-28T09:17:37Z</time>
      </trkpt>
      <trkpt lat="45.95627" lon="6.88471">
        <ele>2042</ele>
        <time>2022-08-28T09:17:38Z</time>
      </trkpt>
      <trkpt lat="45.95626" lon="6.88476">
        <ele>2040</ele>
        <time>2022-08-28T09:17:42Z</time>
      </trkpt>
      <trkpt lat="45.95628" lon="6.88478">
        <ele>2040</ele>
        <time>2022-08-28T09:17:45Z</time>
      </trkpt>
      <trkpt lat="45.95629" lon="6.88481">
        <ele>2038</ele>
        <time>2022-08-28T09:17:47Z</time>
      </trkpt>
      <trkpt lat="45.9563" lon="6.88483">
        <ele>2038</ele>
        <time>2022-08-28T09:17:48Z</time>
      </trkpt>
      <trkpt lat="45.95631" lon="6.88485">
        <ele>2038</ele>
        <time>2022-08-28T09:17:49Z</time>
      </trkpt>
      <trkpt lat="45.95632" lon="6.88488">
        <ele>2037</ele>
        <time>2022-08-28T09:17:51Z</time>
      </trkpt>
      <trkpt lat="45.95633" lon="6.8849">
        <ele>2037</ele>
        <time>2022-08-28T09:17:52Z</time>
      </trkpt>
      <trkpt lat="45.95633" lon="6.88491">
        <ele>2037</ele>
        <time>2022-08-28T09:17:53Z</time>
      </trkpt>
      <trkpt lat="45.95633" lon="6.88492">
        <ele>2037</ele>
        <time>2022-08-28T09:17:54Z</time>
      </trkpt>
      <trkpt lat="45.95633" lon="6.88492">
        <ele>2037</ele>
        <time>2022-08-28T09:17:56Z</time>
      </trkpt>
      <trkpt lat="45.95634" lon="6.88493">
        <ele>2037</ele>
        <time>2022-08-28T09:17:57Z</time>
      </trkpt>
      <trkpt lat="45.95634" lon="6.88494">
        <ele>2037</ele>
        <time>2022-08-28T09:17:58Z</time>
      </trkpt>
      <trkpt lat="45.95634" lon="6.88495">
        <ele>2037</ele>
        <time>2022-08-28T09:17:59Z</time>
      </trkpt>
      <trkpt lat="45.95637" lon="6.88506">
        <ele>2036</ele>
        <time>2022-08-28T09:18:01Z</time>
      </trkpt>
      <trkpt lat="45.95638" lon="6.88508">
        <ele>2036</ele>
        <time>2022-08-28T09:18:03Z</time>
      </trkpt>
      <trkpt lat="45.95639" lon="6.8851">
        <ele>2036</ele>
        <time>2022-08-28T09:18:04Z</time>
      </trkpt>
      <trkpt lat="45.95639" lon="6.88515">
        <ele>2036</ele>
        <time>2022-08-28T09:18:06Z</time>
      </trkpt>
      <trkpt lat="45.9564" lon="6.8852">
        <ele>2034</ele>
        <time>2022-08-28T09:18:09Z</time>
      </trkpt>
      <trkpt lat="45.95642" lon="6.88523">
        <ele>2034</ele>
        <time>2022-08-28T09:18:11Z</time>
      </trkpt>
      <trkpt lat="45.95643" lon="6.88526">
        <ele>2034</ele>
        <time>2022-08-28T09:18:12Z</time>
      </trkpt>
      <trkpt lat="45.95644" lon="6.88528">
        <ele>2034</ele>
        <time>2022-08-28T09:18:13Z</time>
      </trkpt>
      <trkpt lat="45.95644" lon="6.88529">
        <ele>2034</ele>
        <time>2022-08-28T09:18:15Z</time>
      </trkpt>
      <trkpt lat="45.95645" lon="6.88531">
        <ele>2034</ele>
        <time>2022-08-28T09:18:16Z</time>
      </trkpt>
      <trkpt lat="45.95645" lon="6.88533">
        <ele>2034</ele>
        <time>2022-08-28T09:18:17Z</time>
      </trkpt>
      <trkpt lat="45.95646" lon="6.88535">
        <ele>2033</ele>
        <time>2022-08-28T09:18:18Z</time>
      </trkpt>
      <trkpt lat="45.95647" lon="6.88537">
        <ele>2033</ele>
        <time>2022-08-28T09:18:20Z</time>
      </trkpt>
      <trkpt lat="45.95647" lon="6.88538">
        <ele>2033</ele>
        <time>2022-08-28T09:18:21Z</time>
      </trkpt>
      <trkpt lat="45.95649" lon="6.8854">
        <ele>2032</ele>
        <time>2022-08-28T09:18:24Z</time>
      </trkpt>
      <trkpt lat="45.9565" lon="6.88543">
        <ele>2031</ele>
        <time>2022-08-28T09:18:28Z</time>
      </trkpt>
      <trkpt lat="45.95651" lon="6.88545">
        <ele>2031</ele>
        <time>2022-08-28T09:18:29Z</time>
      </trkpt>
      <trkpt lat="45.95651" lon="6.88547">
        <ele>2031</ele>
        <time>2022-08-28T09:18:30Z</time>
      </trkpt>
      <trkpt lat="45.95652" lon="6.88548">
        <ele>2031</ele>
        <time>2022-08-28T09:18:32Z</time>
      </trkpt>
      <trkpt lat="45.95653" lon="6.8855">
        <ele>2030</ele>
        <time>2022-08-28T09:18:33Z</time>
      </trkpt>
      <trkpt lat="45.95653" lon="6.88552">
        <ele>2030</ele>
        <time>2022-08-28T09:18:34Z</time>
      </trkpt>
      <trkpt lat="45.95653" lon="6.88554">
        <ele>2030</ele>
        <time>2022-08-28T09:18:35Z</time>
      </trkpt>
      <trkpt lat="45.95653" lon="6.88556">
        <ele>2029</ele>
        <time>2022-08-28T09:18:37Z</time>
      </trkpt>
      <trkpt lat="45.95653" lon="6.88558">
        <ele>2029</ele>
        <time>2022-08-28T09:18:38Z</time>
      </trkpt>
      <trkpt lat="45.95654" lon="6.88559">
        <ele>2029</ele>
        <time>2022-08-28T09:18:39Z</time>
      </trkpt>
      <trkpt lat="45.95654" lon="6.88561">
        <ele>2029</ele>
        <time>2022-08-28T09:18:40Z</time>
      </trkpt>
      <trkpt lat="45.95654" lon="6.88563">
        <ele>2029</ele>
        <time>2022-08-28T09:18:41Z</time>
      </trkpt>
      <trkpt lat="45.95654" lon="6.88565">
        <ele>2028</ele>
        <time>2022-08-28T09:18:42Z</time>
      </trkpt>
      <trkpt lat="45.95654" lon="6.88567">
        <ele>2028</ele>
        <time>2022-08-28T09:18:44Z</time>
      </trkpt>
      <trkpt lat="45.95653" lon="6.8857">
        <ele>2028</ele>
        <time>2022-08-28T09:18:45Z</time>
      </trkpt>
      <trkpt lat="45.95653" lon="6.88572">
        <ele>2028</ele>
        <time>2022-08-28T09:18:46Z</time>
      </trkpt>
      <trkpt lat="45.95653" lon="6.88574">
        <ele>2028</ele>
        <time>2022-08-28T09:18:48Z</time>
      </trkpt>
      <trkpt lat="45.95653" lon="6.88576">
        <ele>2027</ele>
        <time>2022-08-28T09:18:49Z</time>
      </trkpt>
      <trkpt lat="45.95653" lon="6.88578">
        <ele>2026</ele>
        <time>2022-08-28T09:18:50Z</time>
      </trkpt>
      <trkpt lat="45.95652" lon="6.88581">
        <ele>2026</ele>
        <time>2022-08-28T09:18:51Z</time>
      </trkpt>
      <trkpt lat="45.95652" lon="6.88583">
        <ele>2026</ele>
        <time>2022-08-28T09:18:52Z</time>
      </trkpt>
      <trkpt lat="45.95652" lon="6.88586">
        <ele>2026</ele>
        <time>2022-08-28T09:18:54Z</time>
      </trkpt>
      <trkpt lat="45.95652" lon="6.88588">
        <ele>2026</ele>
        <time>2022-08-28T09:18:55Z</time>
      </trkpt>
      <trkpt lat="45.95651" lon="6.88591">
        <ele>2026</ele>
        <time>2022-08-28T09:18:56Z</time>
      </trkpt>
      <trkpt lat="45.95649" lon="6.88605">
        <ele>2024</ele>
        <time>2022-08-28T09:19:03Z</time>
      </trkpt>
      <trkpt lat="45.95648" lon="6.88605">
        <ele>2023</ele>
        <time>2022-08-28T09:19:05Z</time>
      </trkpt>
      <trkpt lat="45.95646" lon="6.88605">
        <ele>2023</ele>
        <time>2022-08-28T09:19:06Z</time>
      </trkpt>
      <trkpt lat="45.95645" lon="6.88606">
        <ele>2023</ele>
        <time>2022-08-28T09:19:07Z</time>
      </trkpt>
      <trkpt lat="45.95644" lon="6.88606">
        <ele>2023</ele>
        <time>2022-08-28T09:19:08Z</time>
      </trkpt>
      <trkpt lat="45.95642" lon="6.88606">
        <ele>2023</ele>
        <time>2022-08-28T09:19:10Z</time>
      </trkpt>
      <trkpt lat="45.95641" lon="6.88606">
        <ele>2023</ele>
        <time>2022-08-28T09:19:11Z</time>
      </trkpt>
      <trkpt lat="45.9564" lon="6.88606">
        <ele>2022</ele>
        <time>2022-08-28T09:19:12Z</time>
      </trkpt>
      <trkpt lat="45.95639" lon="6.88604">
        <ele>2022</ele>
        <time>2022-08-28T09:19:13Z</time>
      </trkpt>
      <trkpt lat="45.95639" lon="6.88601">
        <ele>2022</ele>
        <time>2022-08-28T09:19:15Z</time>
      </trkpt>
      <trkpt lat="45.95639" lon="6.88597">
        <ele>2021</ele>
        <time>2022-08-28T09:19:18Z</time>
      </trkpt>
      <trkpt lat="45.95639" lon="6.88595">
        <ele>2020</ele>
        <time>2022-08-28T09:19:20Z</time>
      </trkpt>
      <trkpt lat="45.95637" lon="6.88593">
        <ele>2019</ele>
        <time>2022-08-28T09:19:22Z</time>
      </trkpt>
      <trkpt lat="45.95637" lon="6.8859">
        <ele>2018</ele>
        <time>2022-08-28T09:19:24Z</time>
      </trkpt>
      <trkpt lat="45.95636" lon="6.88586">
        <ele>2018</ele>
        <time>2022-08-28T09:19:26Z</time>
      </trkpt>
      <trkpt lat="45.95635" lon="6.88584">
        <ele>2018</ele>
        <time>2022-08-28T09:19:29Z</time>
      </trkpt>
      <trkpt lat="45.95633" lon="6.88581">
        <ele>2018</ele>
        <time>2022-08-28T09:19:32Z</time>
      </trkpt>
      <trkpt lat="45.95631" lon="6.8858">
        <ele>2018</ele>
        <time>2022-08-28T09:19:34Z</time>
      </trkpt>
      <trkpt lat="45.9563" lon="6.88578">
        <ele>2017</ele>
        <time>2022-08-28T09:19:38Z</time>
      </trkpt>
      <trkpt lat="45.95628" lon="6.88576">
        <ele>2017</ele>
        <time>2022-08-28T09:19:40Z</time>
      </trkpt>
      <trkpt lat="45.95626" lon="6.88575">
        <ele>2016</ele>
        <time>2022-08-28T09:19:42Z</time>
      </trkpt>
      <trkpt lat="45.95624" lon="6.88573">
        <ele>2016</ele>
        <time>2022-08-28T09:19:44Z</time>
      </trkpt>
      <trkpt lat="45.95622" lon="6.88571">
        <ele>2016</ele>
        <time>2022-08-28T09:19:46Z</time>
      </trkpt>
      <trkpt lat="45.95621" lon="6.8857">
        <ele>2015</ele>
        <time>2022-08-28T09:19:48Z</time>
      </trkpt>
      <trkpt lat="45.95619" lon="6.88568">
        <ele>2015</ele>
        <time>2022-08-28T09:19:50Z</time>
      </trkpt>
      <trkpt lat="45.95617" lon="6.88566">
        <ele>2014</ele>
        <time>2022-08-28T09:19:53Z</time>
      </trkpt>
      <trkpt lat="45.95615" lon="6.88564">
        <ele>2014</ele>
        <time>2022-08-28T09:19:54Z</time>
      </trkpt>
      <trkpt lat="45.95613" lon="6.88562">
        <ele>2012</ele>
        <time>2022-08-28T09:19:55Z</time>
      </trkpt>
      <trkpt lat="45.9561" lon="6.8856">
        <ele>2011</ele>
        <time>2022-08-28T09:19:57Z</time>
      </trkpt>
      <trkpt lat="45.95609" lon="6.88556">
        <ele>2011</ele>
        <time>2022-08-28T09:19:59Z</time>
      </trkpt>
      <trkpt lat="45.95607" lon="6.88554">
        <ele>2011</ele>
        <time>2022-08-28T09:20:01Z</time>
      </trkpt>
      <trkpt lat="45.95605" lon="6.88552">
        <ele>2010</ele>
        <time>2022-08-28T09:20:03Z</time>
      </trkpt>
      <trkpt lat="45.95604" lon="6.88548">
        <ele>2010</ele>
        <time>2022-08-28T09:20:06Z</time>
      </trkpt>
      <trkpt lat="45.95601" lon="6.88545">
        <ele>2010</ele>
        <time>2022-08-28T09:20:08Z</time>
      </trkpt>
      <trkpt lat="45.95599" lon="6.88544">
        <ele>2008</ele>
        <time>2022-08-28T09:20:10Z</time>
      </trkpt>
      <trkpt lat="45.95597" lon="6.8854">
        <ele>2008</ele>
        <time>2022-08-28T09:20:12Z</time>
      </trkpt>
      <trkpt lat="45.95596" lon="6.88538">
        <ele>2008</ele>
        <time>2022-08-28T09:20:14Z</time>
      </trkpt>
      <trkpt lat="45.95595" lon="6.88536">
        <ele>2008</ele>
        <time>2022-08-28T09:20:15Z</time>
      </trkpt>
      <trkpt lat="45.95594" lon="6.88534">
        <ele>2007</ele>
        <time>2022-08-28T09:20:16Z</time>
      </trkpt>
      <trkpt lat="45.95594" lon="6.88532">
        <ele>2007</ele>
        <time>2022-08-28T09:20:18Z</time>
      </trkpt>
      <trkpt lat="45.95593" lon="6.88529">
        <ele>2007</ele>
        <time>2022-08-28T09:20:19Z</time>
      </trkpt>
      <trkpt lat="45.95593" lon="6.88527">
        <ele>2007</ele>
        <time>2022-08-28T09:20:20Z</time>
      </trkpt>
      <trkpt lat="45.95593" lon="6.88525">
        <ele>2007</ele>
        <time>2022-08-28T09:20:21Z</time>
      </trkpt>
      <trkpt lat="45.95593" lon="6.88521">
        <ele>2006</ele>
        <time>2022-08-28T09:20:23Z</time>
      </trkpt>
      <trkpt lat="45.95592" lon="6.88518">
        <ele>2006</ele>
        <time>2022-08-28T09:20:25Z</time>
      </trkpt>
      <trkpt lat="45.95591" lon="6.88515">
        <ele>2006</ele>
        <time>2022-08-28T09:20:26Z</time>
      </trkpt>
      <trkpt lat="45.95589" lon="6.88511">
        <ele>2006</ele>
        <time>2022-08-28T09:20:28Z</time>
      </trkpt>
      <trkpt lat="45.95588" lon="6.88508">
        <ele>2005</ele>
        <time>2022-08-28T09:20:30Z</time>
      </trkpt>
      <trkpt lat="45.95586" lon="6.88506">
        <ele>2005</ele>
        <time>2022-08-28T09:20:32Z</time>
      </trkpt>
      <trkpt lat="45.95585" lon="6.88504">
        <ele>2005</ele>
        <time>2022-08-28T09:20:34Z</time>
      </trkpt>
      <trkpt lat="45.95584" lon="6.88502">
        <ele>2005</ele>
        <time>2022-08-28T09:20:35Z</time>
      </trkpt>
      <trkpt lat="45.95584" lon="6.885">
        <ele>2005</ele>
        <time>2022-08-28T09:20:36Z</time>
      </trkpt>
      <trkpt lat="45.95583" lon="6.88497">
        <ele>2004</ele>
        <time>2022-08-28T09:20:39Z</time>
      </trkpt>
      <trkpt lat="45.95581" lon="6.88502">
        <ele>2002</ele>
        <time>2022-08-28T09:20:52Z</time>
      </trkpt>
      <trkpt lat="45.95582" lon="6.88504">
        <ele>2002</ele>
        <time>2022-08-28T09:20:54Z</time>
      </trkpt>
      <trkpt lat="45.95582" lon="6.88507">
        <ele>2002</ele>
        <time>2022-08-28T09:20:55Z</time>
      </trkpt>
      <trkpt lat="45.95582" lon="6.8851">
        <ele>2002</ele>
        <time>2022-08-28T09:20:57Z</time>
      </trkpt>
      <trkpt lat="45.95583" lon="6.88513">
        <ele>2000</ele>
        <time>2022-08-28T09:20:59Z</time>
      </trkpt>
      <trkpt lat="45.95583" lon="6.88516">
        <ele>2000</ele>
        <time>2022-08-28T09:21:00Z</time>
      </trkpt>
      <trkpt lat="45.95583" lon="6.88518">
        <ele>2000</ele>
        <time>2022-08-28T09:21:01Z</time>
      </trkpt>
      <trkpt lat="45.95583" lon="6.88521">
        <ele>2000</ele>
        <time>2022-08-28T09:21:02Z</time>
      </trkpt>
      <trkpt lat="45.95584" lon="6.88523">
        <ele>1999</ele>
        <time>2022-08-28T09:21:04Z</time>
      </trkpt>
      <trkpt lat="45.95584" lon="6.88525">
        <ele>1999</ele>
        <time>2022-08-28T09:21:05Z</time>
      </trkpt>
      <trkpt lat="45.95584" lon="6.88527">
        <ele>1999</ele>
        <time>2022-08-28T09:21:06Z</time>
      </trkpt>
      <trkpt lat="45.95585" lon="6.88529">
        <ele>1999</ele>
        <time>2022-08-28T09:21:07Z</time>
      </trkpt>
      <trkpt lat="45.95585" lon="6.88531">
        <ele>1998</ele>
        <time>2022-08-28T09:21:08Z</time>
      </trkpt>
      <trkpt lat="45.95586" lon="6.88533">
        <ele>1998</ele>
        <time>2022-08-28T09:21:09Z</time>
      </trkpt>
      <trkpt lat="45.95587" lon="6.88535">
        <ele>1998</ele>
        <time>2022-08-28T09:21:10Z</time>
      </trkpt>
      <trkpt lat="45.95587" lon="6.88536">
        <ele>1998</ele>
        <time>2022-08-28T09:21:11Z</time>
      </trkpt>
      <trkpt lat="45.95587" lon="6.88543">
        <ele>1997</ele>
        <time>2022-08-28T09:21:16Z</time>
      </trkpt>
      <trkpt lat="45.9559" lon="6.88546">
        <ele>1996</ele>
        <time>2022-08-28T09:21:19Z</time>
      </trkpt>
      <trkpt lat="45.9559" lon="6.88547">
        <ele>1995</ele>
        <time>2022-08-28T09:21:21Z</time>
      </trkpt>
      <trkpt lat="45.95591" lon="6.88549">
        <ele>1995</ele>
        <time>2022-08-28T09:21:22Z</time>
      </trkpt>
      <trkpt lat="45.95592" lon="6.8855">
        <ele>1995</ele>
        <time>2022-08-28T09:21:23Z</time>
      </trkpt>
      <trkpt lat="45.95592" lon="6.88551">
        <ele>1995</ele>
        <time>2022-08-28T09:21:25Z</time>
      </trkpt>
      <trkpt lat="45.95593" lon="6.88552">
        <ele>1994</ele>
        <time>2022-08-28T09:21:26Z</time>
      </trkpt>
      <trkpt lat="45.95594" lon="6.88553">
        <ele>1994</ele>
        <time>2022-08-28T09:21:27Z</time>
      </trkpt>
      <trkpt lat="45.95594" lon="6.88554">
        <ele>1994</ele>
        <time>2022-08-28T09:21:28Z</time>
      </trkpt>
      <trkpt lat="45.95595" lon="6.88555">
        <ele>1994</ele>
        <time>2022-08-28T09:21:29Z</time>
      </trkpt>
      <trkpt lat="45.95596" lon="6.88556">
        <ele>1994</ele>
        <time>2022-08-28T09:21:30Z</time>
      </trkpt>
      <trkpt lat="45.95595" lon="6.88558">
        <ele>1994</ele>
        <time>2022-08-28T09:21:31Z</time>
      </trkpt>
      <trkpt lat="45.95594" lon="6.8856">
        <ele>1993</ele>
        <time>2022-08-28T09:21:32Z</time>
      </trkpt>
      <trkpt lat="45.95594" lon="6.88561">
        <ele>1993</ele>
        <time>2022-08-28T09:21:33Z</time>
      </trkpt>
      <trkpt lat="45.95593" lon="6.88563">
        <ele>1993</ele>
        <time>2022-08-28T09:21:35Z</time>
      </trkpt>
      <trkpt lat="45.95592" lon="6.88564">
        <ele>1992</ele>
        <time>2022-08-28T09:21:37Z</time>
      </trkpt>
      <trkpt lat="45.95591" lon="6.88566">
        <ele>1992</ele>
        <time>2022-08-28T09:21:38Z</time>
      </trkpt>
      <trkpt lat="45.95591" lon="6.88568">
        <ele>1991</ele>
        <time>2022-08-28T09:21:39Z</time>
      </trkpt>
      <trkpt lat="45.95588" lon="6.88568">
        <ele>1991</ele>
        <time>2022-08-28T09:21:41Z</time>
      </trkpt>
      <trkpt lat="45.95585" lon="6.88567">
        <ele>1991</ele>
        <time>2022-08-28T09:21:43Z</time>
      </trkpt>
      <trkpt lat="45.95584" lon="6.88566">
        <ele>1990</ele>
        <time>2022-08-28T09:21:45Z</time>
      </trkpt>
      <trkpt lat="45.95583" lon="6.88566">
        <ele>1989</ele>
        <time>2022-08-28T09:21:46Z</time>
      </trkpt>
      <trkpt lat="45.95582" lon="6.88565">
        <ele>1989</ele>
        <time>2022-08-28T09:21:47Z</time>
      </trkpt>
      <trkpt lat="45.95581" lon="6.88565">
        <ele>1989</ele>
        <time>2022-08-28T09:21:49Z</time>
      </trkpt>
      <trkpt lat="45.9558" lon="6.88564">
        <ele>1989</ele>
        <time>2022-08-28T09:21:50Z</time>
      </trkpt>
      <trkpt lat="45.95578" lon="6.88563">
        <ele>1989</ele>
        <time>2022-08-28T09:21:51Z</time>
      </trkpt>
      <trkpt lat="45.95577" lon="6.88563">
        <ele>1988</ele>
        <time>2022-08-28T09:21:52Z</time>
      </trkpt>
      <trkpt lat="45.95575" lon="6.88563">
        <ele>1988</ele>
        <time>2022-08-28T09:21:53Z</time>
      </trkpt>
      <trkpt lat="45.95573" lon="6.88562">
        <ele>1988</ele>
        <time>2022-08-28T09:21:55Z</time>
      </trkpt>
      <trkpt lat="45.95571" lon="6.88562">
        <ele>1985</ele>
        <time>2022-08-28T09:21:57Z</time>
      </trkpt>
      <trkpt lat="45.95568" lon="6.88561">
        <ele>1985</ele>
        <time>2022-08-28T09:21:59Z</time>
      </trkpt>
      <trkpt lat="45.95566" lon="6.88561">
        <ele>1984</ele>
        <time>2022-08-28T09:22:03Z</time>
      </trkpt>
      <trkpt lat="45.95563" lon="6.8856">
        <ele>1984</ele>
        <time>2022-08-28T09:22:05Z</time>
      </trkpt>
      <trkpt lat="45.95562" lon="6.88557">
        <ele>1983</ele>
        <time>2022-08-28T09:22:09Z</time>
      </trkpt>
      <trkpt lat="45.9556" lon="6.88554">
        <ele>1983</ele>
        <time>2022-08-28T09:22:11Z</time>
      </trkpt>
      <trkpt lat="45.95559" lon="6.8855">
        <ele>1983</ele>
        <time>2022-08-28T09:22:13Z</time>
      </trkpt>
      <trkpt lat="45.95559" lon="6.88544">
        <ele>1982</ele>
        <time>2022-08-28T09:22:15Z</time>
      </trkpt>
      <trkpt lat="45.95559" lon="6.88542">
        <ele>1982</ele>
        <time>2022-08-28T09:22:16Z</time>
      </trkpt>
      <trkpt lat="45.95559" lon="6.8854">
        <ele>1982</ele>
        <time>2022-08-28T09:22:17Z</time>
      </trkpt>
      <trkpt lat="45.95559" lon="6.88537">
        <ele>1981</ele>
        <time>2022-08-28T09:22:18Z</time>
      </trkpt>
      <trkpt lat="45.95559" lon="6.88535">
        <ele>1981</ele>
        <time>2022-08-28T09:22:20Z</time>
      </trkpt>
      <trkpt lat="45.95559" lon="6.88532">
        <ele>1981</ele>
        <time>2022-08-28T09:22:21Z</time>
      </trkpt>
      <trkpt lat="45.95559" lon="6.8853">
        <ele>1981</ele>
        <time>2022-08-28T09:22:22Z</time>
      </trkpt>
      <trkpt lat="45.95558" lon="6.88526">
        <ele>1981</ele>
        <time>2022-08-28T09:22:24Z</time>
      </trkpt>
      <trkpt lat="45.95558" lon="6.88521">
        <ele>1979</ele>
        <time>2022-08-28T09:22:26Z</time>
      </trkpt>
      <trkpt lat="45.95559" lon="6.88518">
        <ele>1979</ele>
        <time>2022-08-28T09:22:28Z</time>
      </trkpt>
      <trkpt lat="45.95558" lon="6.88515">
        <ele>1979</ele>
        <time>2022-08-28T09:22:30Z</time>
      </trkpt>
      <trkpt lat="45.95558" lon="6.88512">
        <ele>1979</ele>
        <time>2022-08-28T09:22:32Z</time>
      </trkpt>
      <trkpt lat="45.95556" lon="6.8851">
        <ele>1979</ele>
        <time>2022-08-28T09:22:34Z</time>
      </trkpt>
      <trkpt lat="45.95555" lon="6.88508">
        <ele>1978</ele>
        <time>2022-08-28T09:22:36Z</time>
      </trkpt>
      <trkpt lat="45.95554" lon="6.88505">
        <ele>1978</ele>
        <time>2022-08-28T09:22:38Z</time>
      </trkpt>
      <trkpt lat="45.95553" lon="6.88501">
        <ele>1977</ele>
        <time>2022-08-28T09:22:40Z</time>
      </trkpt>
      <trkpt lat="45.95551" lon="6.88498">
        <ele>1977</ele>
        <time>2022-08-28T09:22:43Z</time>
      </trkpt>
      <trkpt lat="45.9555" lon="6.88494">
        <ele>1977</ele>
        <time>2022-08-28T09:22:45Z</time>
      </trkpt>
      <trkpt lat="45.9555" lon="6.88491">
        <ele>1976</ele>
        <time>2022-08-28T09:22:47Z</time>
      </trkpt>
      <trkpt lat="45.95549" lon="6.88488">
        <ele>1976</ele>
        <time>2022-08-28T09:22:50Z</time>
      </trkpt>
      <trkpt lat="45.95547" lon="6.88485">
        <ele>1975</ele>
        <time>2022-08-28T09:22:52Z</time>
      </trkpt>
      <trkpt lat="45.95546" lon="6.88483">
        <ele>1974</ele>
        <time>2022-08-28T09:22:54Z</time>
      </trkpt>
      <trkpt lat="45.95544" lon="6.8848">
        <ele>1973</ele>
        <time>2022-08-28T09:22:56Z</time>
      </trkpt>
      <trkpt lat="45.95542" lon="6.88477">
        <ele>1973</ele>
        <time>2022-08-28T09:22:59Z</time>
      </trkpt>
      <trkpt lat="45.95541" lon="6.88475">
        <ele>1972</ele>
        <time>2022-08-28T09:23:01Z</time>
      </trkpt>
      <trkpt lat="45.9554" lon="6.88473">
        <ele>1972</ele>
        <time>2022-08-28T09:23:04Z</time>
      </trkpt>
      <trkpt lat="45.9554" lon="6.88473">
        <ele>1968</ele>
        <time>2022-08-28T09:23:22Z</time>
      </trkpt>
      <trkpt lat="45.95539" lon="6.88486">
        <ele>1968</ele>
        <time>2022-08-28T09:23:24Z</time>
      </trkpt>
      <trkpt lat="45.95539" lon="6.88488">
        <ele>1968</ele>
        <time>2022-08-28T09:23:26Z</time>
      </trkpt>
      <trkpt lat="45.95539" lon="6.8849">
        <ele>1967</ele>
        <time>2022-08-28T09:23:27Z</time>
      </trkpt>
      <trkpt lat="45.95539" lon="6.88492">
        <ele>1967</ele>
        <time>2022-08-28T09:23:29Z</time>
      </trkpt>
      <trkpt lat="45.95539" lon="6.88494">
        <ele>1967</ele>
        <time>2022-08-28T09:23:30Z</time>
      </trkpt>
      <trkpt lat="45.95536" lon="6.88507">
        <ele>1966</ele>
        <time>2022-08-28T09:23:37Z</time>
      </trkpt>
      <trkpt lat="45.95534" lon="6.88511">
        <ele>1965</ele>
        <time>2022-08-28T09:23:40Z</time>
      </trkpt>
      <trkpt lat="45.95535" lon="6.88513">
        <ele>1965</ele>
        <time>2022-08-28T09:23:44Z</time>
      </trkpt>
      <trkpt lat="45.95535" lon="6.88516">
        <ele>1965</ele>
        <time>2022-08-28T09:23:47Z</time>
      </trkpt>
      <trkpt lat="45.95534" lon="6.88522">
        <ele>1965</ele>
        <time>2022-08-28T09:23:49Z</time>
      </trkpt>
      <trkpt lat="45.95532" lon="6.88524">
        <ele>1964</ele>
        <time>2022-08-28T09:23:52Z</time>
      </trkpt>
      <trkpt lat="45.95531" lon="6.88527">
        <ele>1964</ele>
        <time>2022-08-28T09:23:54Z</time>
      </trkpt>
      <trkpt lat="45.9553" lon="6.88529">
        <ele>1964</ele>
        <time>2022-08-28T09:23:57Z</time>
      </trkpt>
      <trkpt lat="45.95529" lon="6.88526">
        <ele>1960</ele>
        <time>2022-08-28T09:24:03Z</time>
      </trkpt>
      <trkpt lat="45.95529" lon="6.88522">
        <ele>1959</ele>
        <time>2022-08-28T09:24:05Z</time>
      </trkpt>
      <trkpt lat="45.9553" lon="6.88519">
        <ele>1959</ele>
        <time>2022-08-28T09:24:07Z</time>
      </trkpt>
      <trkpt lat="45.9553" lon="6.88516">
        <ele>1958</ele>
        <time>2022-08-28T09:24:09Z</time>
      </trkpt>
      <trkpt lat="45.9553" lon="6.88513">
        <ele>1958</ele>
        <time>2022-08-28T09:24:11Z</time>
      </trkpt>
      <trkpt lat="45.95531" lon="6.8851">
        <ele>1958</ele>
        <time>2022-08-28T09:24:13Z</time>
      </trkpt>
      <trkpt lat="45.95531" lon="6.88507">
        <ele>1957</ele>
        <time>2022-08-28T09:24:15Z</time>
      </trkpt>
      <trkpt lat="45.9553" lon="6.88504">
        <ele>1956</ele>
        <time>2022-08-28T09:24:17Z</time>
      </trkpt>
      <trkpt lat="45.9553" lon="6.88501">
        <ele>1956</ele>
        <time>2022-08-28T09:24:20Z</time>
      </trkpt>
      <trkpt lat="45.95529" lon="6.88498">
        <ele>1956</ele>
        <time>2022-08-28T09:24:25Z</time>
      </trkpt>
      <trkpt lat="45.95527" lon="6.88496">
        <ele>1954</ele>
        <time>2022-08-28T09:24:28Z</time>
      </trkpt>
      <trkpt lat="45.95526" lon="6.88491">
        <ele>1954</ele>
        <time>2022-08-28T09:24:32Z</time>
      </trkpt>
      <trkpt lat="45.95525" lon="6.88488">
        <ele>1953</ele>
        <time>2022-08-28T09:24:34Z</time>
      </trkpt>
      <trkpt lat="45.95523" lon="6.88486">
        <ele>1952</ele>
        <time>2022-08-28T09:24:36Z</time>
      </trkpt>
      <trkpt lat="45.95521" lon="6.88483">
        <ele>1952</ele>
        <time>2022-08-28T09:24:38Z</time>
      </trkpt>
      <trkpt lat="45.9552" lon="6.88481">
        <ele>1952</ele>
        <time>2022-08-28T09:24:40Z</time>
      </trkpt>
      <trkpt lat="45.95518" lon="6.88479">
        <ele>1951</ele>
        <time>2022-08-28T09:24:43Z</time>
      </trkpt>
      <trkpt lat="45.95517" lon="6.88477">
        <ele>1951</ele>
        <time>2022-08-28T09:24:45Z</time>
      </trkpt>
      <trkpt lat="45.95515" lon="6.88476">
        <ele>1949</ele>
        <time>2022-08-28T09:24:47Z</time>
      </trkpt>
      <trkpt lat="45.95513" lon="6.88474">
        <ele>1949</ele>
        <time>2022-08-28T09:24:49Z</time>
      </trkpt>
      <trkpt lat="45.95512" lon="6.88471">
        <ele>1949</ele>
        <time>2022-08-28T09:24:51Z</time>
      </trkpt>
      <trkpt lat="45.9551" lon="6.88469">
        <ele>1949</ele>
        <time>2022-08-28T09:24:53Z</time>
      </trkpt>
      <trkpt lat="45.95508" lon="6.88468">
        <ele>1949</ele>
        <time>2022-08-28T09:24:55Z</time>
      </trkpt>
      <trkpt lat="45.95506" lon="6.88467">
        <ele>1948</ele>
        <time>2022-08-28T09:24:58Z</time>
      </trkpt>
      <trkpt lat="45.95504" lon="6.88464">
        <ele>1947</ele>
        <time>2022-08-28T09:25:00Z</time>
      </trkpt>
      <trkpt lat="45.95504" lon="6.88461">
        <ele>1947</ele>
        <time>2022-08-28T09:25:03Z</time>
      </trkpt>
      <trkpt lat="45.95502" lon="6.88457">
        <ele>1946</ele>
        <time>2022-08-28T09:25:06Z</time>
      </trkpt>
      <trkpt lat="45.95501" lon="6.88453">
        <ele>1945</ele>
        <time>2022-08-28T09:25:08Z</time>
      </trkpt>
      <trkpt lat="45.95499" lon="6.88449">
        <ele>1945</ele>
        <time>2022-08-28T09:25:10Z</time>
      </trkpt>
      <trkpt lat="45.95498" lon="6.88445">
        <ele>1945</ele>
        <time>2022-08-28T09:25:12Z</time>
      </trkpt>
      <trkpt lat="45.95497" lon="6.88442">
        <ele>1945</ele>
        <time>2022-08-28T09:25:14Z</time>
      </trkpt>
      <trkpt lat="45.95496" lon="6.88439">
        <ele>1944</ele>
        <time>2022-08-28T09:25:16Z</time>
      </trkpt>
      <trkpt lat="45.95496" lon="6.88436">
        <ele>1944</ele>
        <time>2022-08-28T09:25:18Z</time>
      </trkpt>
      <trkpt lat="45.95495" lon="6.88433">
        <ele>1944</ele>
        <time>2022-08-28T09:25:21Z</time>
      </trkpt>
      <trkpt lat="45.95494" lon="6.88431">
        <ele>1943</ele>
        <time>2022-08-28T09:25:24Z</time>
      </trkpt>
      <trkpt lat="45.95492" lon="6.88429">
        <ele>1941</ele>
        <time>2022-08-28T09:25:28Z</time>
      </trkpt>
      <trkpt lat="45.9549" lon="6.88425">
        <ele>1941</ele>
        <time>2022-08-28T09:25:30Z</time>
      </trkpt>
      <trkpt lat="45.95489" lon="6.88421">
        <ele>1941</ele>
        <time>2022-08-28T09:25:32Z</time>
      </trkpt>
      <trkpt lat="45.95487" lon="6.88417">
        <ele>1941</ele>
        <time>2022-08-28T09:25:35Z</time>
      </trkpt>
      <trkpt lat="45.95486" lon="6.88414">
        <ele>1940</ele>
        <time>2022-08-28T09:25:37Z</time>
      </trkpt>
      <trkpt lat="45.95485" lon="6.88411">
        <ele>1940</ele>
        <time>2022-08-28T09:25:38Z</time>
      </trkpt>
      <trkpt lat="45.95484" lon="6.88409">
        <ele>1940</ele>
        <time>2022-08-28T09:25:40Z</time>
      </trkpt>
      <trkpt lat="45.95484" lon="6.88405">
        <ele>1940</ele>
        <time>2022-08-28T09:25:43Z</time>
      </trkpt>
      <trkpt lat="45.95483" lon="6.88402">
        <ele>1938</ele>
        <time>2022-08-28T09:25:46Z</time>
      </trkpt>
      <trkpt lat="45.95482" lon="6.884">
        <ele>1938</ele>
        <time>2022-08-28T09:25:48Z</time>
      </trkpt>
      <trkpt lat="45.9548" lon="6.88396">
        <ele>1937</ele>
        <time>2022-08-28T09:25:51Z</time>
      </trkpt>
      <trkpt lat="45.95481" lon="6.88399">
        <ele>1936</ele>
        <time>2022-08-28T09:25:56Z</time>
      </trkpt>
      <trkpt lat="45.95479" lon="6.88401">
        <ele>1935</ele>
        <time>2022-08-28T09:26:00Z</time>
      </trkpt>
      <trkpt lat="45.95479" lon="6.88405">
        <ele>1934</ele>
        <time>2022-08-28T09:26:03Z</time>
      </trkpt>
      <trkpt lat="45.95478" lon="6.88407">
        <ele>1934</ele>
        <time>2022-08-28T09:26:05Z</time>
      </trkpt>
      <trkpt lat="45.95478" lon="6.88408">
        <ele>1934</ele>
        <time>2022-08-28T09:26:06Z</time>
      </trkpt>
      <trkpt lat="45.95478" lon="6.88409">
        <ele>1934</ele>
        <time>2022-08-28T09:26:07Z</time>
      </trkpt>
      <trkpt lat="45.95477" lon="6.88411">
        <ele>1934</ele>
        <time>2022-08-28T09:26:08Z</time>
      </trkpt>
      <trkpt lat="45.95477" lon="6.88412">
        <ele>1933</ele>
        <time>2022-08-28T09:26:09Z</time>
      </trkpt>
      <trkpt lat="45.95477" lon="6.88416">
        <ele>1933</ele>
        <time>2022-08-28T09:26:11Z</time>
      </trkpt>
      <trkpt lat="45.95477" lon="6.88419">
        <ele>1933</ele>
        <time>2022-08-28T09:26:13Z</time>
      </trkpt>
      <trkpt lat="45.95477" lon="6.88423">
        <ele>1933</ele>
        <time>2022-08-28T09:26:15Z</time>
      </trkpt>
      <trkpt lat="45.95477" lon="6.88428">
        <ele>1932</ele>
        <time>2022-08-28T09:26:18Z</time>
      </trkpt>
      <trkpt lat="45.95478" lon="6.88431">
        <ele>1932</ele>
        <time>2022-08-28T09:26:20Z</time>
      </trkpt>
      <trkpt lat="45.95477" lon="6.88435">
        <ele>1931</ele>
        <time>2022-08-28T09:26:22Z</time>
      </trkpt>
      <trkpt lat="45.95477" lon="6.88439">
        <ele>1931</ele>
        <time>2022-08-28T09:26:24Z</time>
      </trkpt>
      <trkpt lat="45.95481" lon="6.88451">
        <ele>1931</ele>
        <time>2022-08-28T09:26:29Z</time>
      </trkpt>
      <trkpt lat="45.95481" lon="6.88453">
        <ele>1931</ele>
        <time>2022-08-28T09:26:30Z</time>
      </trkpt>
      <trkpt lat="45.95482" lon="6.88456">
        <ele>1930</ele>
        <time>2022-08-28T09:26:31Z</time>
      </trkpt>
      <trkpt lat="45.95483" lon="6.88458">
        <ele>1930</ele>
        <time>2022-08-28T09:26:32Z</time>
      </trkpt>
      <trkpt lat="45.95483" lon="6.8846">
        <ele>1929</ele>
        <time>2022-08-28T09:26:34Z</time>
      </trkpt>
      <trkpt lat="45.95484" lon="6.88462">
        <ele>1929</ele>
        <time>2022-08-28T09:26:36Z</time>
      </trkpt>
      <trkpt lat="45.95484" lon="6.88464">
        <ele>1929</ele>
        <time>2022-08-28T09:26:37Z</time>
      </trkpt>
      <trkpt lat="45.95486" lon="6.88466">
        <ele>1928</ele>
        <time>2022-08-28T09:26:39Z</time>
      </trkpt>
      <trkpt lat="45.95487" lon="6.88468">
        <ele>1927</ele>
        <time>2022-08-28T09:26:41Z</time>
      </trkpt>
      <trkpt lat="45.95489" lon="6.8847">
        <ele>1927</ele>
        <time>2022-08-28T09:26:42Z</time>
      </trkpt>
      <trkpt lat="45.9549" lon="6.88472">
        <ele>1927</ele>
        <time>2022-08-28T09:26:43Z</time>
      </trkpt>
      <trkpt lat="45.95491" lon="6.88474">
        <ele>1927</ele>
        <time>2022-08-28T09:26:44Z</time>
      </trkpt>
      <trkpt lat="45.95493" lon="6.88476">
        <ele>1927</ele>
        <time>2022-08-28T09:26:46Z</time>
      </trkpt>
      <trkpt lat="45.95494" lon="6.88478">
        <ele>1927</ele>
        <time>2022-08-28T09:26:48Z</time>
      </trkpt>
      <trkpt lat="45.95495" lon="6.8848">
        <ele>1927</ele>
        <time>2022-08-28T09:26:49Z</time>
      </trkpt>
      <trkpt lat="45.95496" lon="6.88482">
        <ele>1927</ele>
        <time>2022-08-28T09:26:50Z</time>
      </trkpt>
      <trkpt lat="45.95497" lon="6.88484">
        <ele>1926</ele>
        <time>2022-08-28T09:26:51Z</time>
      </trkpt>
      <trkpt lat="45.95497" lon="6.88486">
        <ele>1926</ele>
        <time>2022-08-28T09:26:52Z</time>
      </trkpt>
      <trkpt lat="45.95497" lon="6.88489">
        <ele>1926</ele>
        <time>2022-08-28T09:26:53Z</time>
      </trkpt>
      <trkpt lat="45.95497" lon="6.88491">
        <ele>1926</ele>
        <time>2022-08-28T09:26:54Z</time>
      </trkpt>
      <trkpt lat="45.95497" lon="6.88494">
        <ele>1925</ele>
        <time>2022-08-28T09:26:56Z</time>
      </trkpt>
      <trkpt lat="45.95497" lon="6.88496">
        <ele>1925</ele>
        <time>2022-08-28T09:26:57Z</time>
      </trkpt>
      <trkpt lat="45.95497" lon="6.88498">
        <ele>1925</ele>
        <time>2022-08-28T09:26:58Z</time>
      </trkpt>
      <trkpt lat="45.95498" lon="6.88503">
        <ele>1924</ele>
        <time>2022-08-28T09:27:00Z</time>
      </trkpt>
      <trkpt lat="45.955" lon="6.88507">
        <ele>1924</ele>
        <time>2022-08-28T09:27:02Z</time>
      </trkpt>
      <trkpt lat="45.95501" lon="6.88512">
        <ele>1924</ele>
        <time>2022-08-28T09:27:03Z</time>
      </trkpt>
      <trkpt lat="45.95501" lon="6.88515">
        <ele>1924</ele>
        <time>2022-08-28T09:27:04Z</time>
      </trkpt>
      <trkpt lat="45.955" lon="6.88517">
        <ele>1924</ele>
        <time>2022-08-28T09:27:05Z</time>
      </trkpt>
      <trkpt lat="45.955" lon="6.8852">
        <ele>1924</ele>
        <time>2022-08-28T09:27:07Z</time>
      </trkpt>
      <trkpt lat="45.955" lon="6.88523">
        <ele>1924</ele>
        <time>2022-08-28T09:27:08Z</time>
      </trkpt>
      <trkpt lat="45.955" lon="6.88526">
        <ele>1924</ele>
        <time>2022-08-28T09:27:09Z</time>
      </trkpt>
      <trkpt lat="45.955" lon="6.88527">
        <ele>1924</ele>
        <time>2022-08-28T09:27:10Z</time>
      </trkpt>
      <trkpt lat="45.955" lon="6.88529">
        <ele>1923</ele>
        <time>2022-08-28T09:27:12Z</time>
      </trkpt>
      <trkpt lat="45.955" lon="6.8853">
        <ele>1923</ele>
        <time>2022-08-28T09:27:13Z</time>
      </trkpt>
      <trkpt lat="45.955" lon="6.88532">
        <ele>1923</ele>
        <time>2022-08-28T09:27:14Z</time>
      </trkpt>
      <trkpt lat="45.955" lon="6.88534">
        <ele>1923</ele>
        <time>2022-08-28T09:27:15Z</time>
      </trkpt>
      <trkpt lat="45.95499" lon="6.88535">
        <ele>1923</ele>
        <time>2022-08-28T09:27:17Z</time>
      </trkpt>
      <trkpt lat="45.95499" lon="6.88537">
        <ele>1923</ele>
        <time>2022-08-28T09:27:18Z</time>
      </trkpt>
      <trkpt lat="45.95498" lon="6.88538">
        <ele>1922</ele>
        <time>2022-08-28T09:27:19Z</time>
      </trkpt>
      <trkpt lat="45.95498" lon="6.8854">
        <ele>1922</ele>
        <time>2022-08-28T09:27:21Z</time>
      </trkpt>
      <trkpt lat="45.95497" lon="6.88541">
        <ele>1922</ele>
        <time>2022-08-28T09:27:22Z</time>
      </trkpt>
      <trkpt lat="45.95496" lon="6.88543">
        <ele>1922</ele>
        <time>2022-08-28T09:27:23Z</time>
      </trkpt>
      <trkpt lat="45.95497" lon="6.88544">
        <ele>1920</ele>
        <time>2022-08-28T09:27:25Z</time>
      </trkpt>
      <trkpt lat="45.95497" lon="6.88546">
        <ele>1920</ele>
        <time>2022-08-28T09:27:26Z</time>
      </trkpt>
      <trkpt lat="45.95497" lon="6.88548">
        <ele>1920</ele>
        <time>2022-08-28T09:27:27Z</time>
      </trkpt>
      <trkpt lat="45.95497" lon="6.88549">
        <ele>1920</ele>
        <time>2022-08-28T09:27:28Z</time>
      </trkpt>
      <trkpt lat="45.95497" lon="6.88551">
        <ele>1920</ele>
        <time>2022-08-28T09:27:30Z</time>
      </trkpt>
      <trkpt lat="45.95497" lon="6.88553">
        <ele>1920</ele>
        <time>2022-08-28T09:27:31Z</time>
      </trkpt>
      <trkpt lat="45.95497" lon="6.88554">
        <ele>1919</ele>
        <time>2022-08-28T09:27:32Z</time>
      </trkpt>
      <trkpt lat="45.95497" lon="6.88558">
        <ele>1919</ele>
        <time>2022-08-28T09:27:34Z</time>
      </trkpt>
      <trkpt lat="45.95497" lon="6.88561">
        <ele>1918</ele>
        <time>2022-08-28T09:27:36Z</time>
      </trkpt>
      <trkpt lat="45.95497" lon="6.88563">
        <ele>1917</ele>
        <time>2022-08-28T09:27:38Z</time>
      </trkpt>
      <trkpt lat="45.95497" lon="6.88568">
        <ele>1917</ele>
        <time>2022-08-28T09:27:41Z</time>
      </trkpt>
      <trkpt lat="45.95498" lon="6.88571">
        <ele>1917</ele>
        <time>2022-08-28T09:27:43Z</time>
      </trkpt>
      <trkpt lat="45.95498" lon="6.88575">
        <ele>1916</ele>
        <time>2022-08-28T09:27:46Z</time>
      </trkpt>
      <trkpt lat="45.95497" lon="6.88579">
        <ele>1916</ele>
        <time>2022-08-28T09:27:48Z</time>
      </trkpt>
      <trkpt lat="45.95497" lon="6.88582">
        <ele>1915</ele>
        <time>2022-08-28T09:27:50Z</time>
      </trkpt>
      <trkpt lat="45.95496" lon="6.88584">
        <ele>1914</ele>
        <time>2022-08-28T09:27:52Z</time>
      </trkpt>
      <trkpt lat="45.95497" lon="6.88588">
        <ele>1914</ele>
        <time>2022-08-28T09:27:54Z</time>
      </trkpt>
      <trkpt lat="45.95499" lon="6.88604">
        <ele>1913</ele>
        <time>2022-08-28T09:28:00Z</time>
      </trkpt>
      <trkpt lat="45.95499" lon="6.88606">
        <ele>1913</ele>
        <time>2022-08-28T09:28:01Z</time>
      </trkpt>
      <trkpt lat="45.955" lon="6.88609">
        <ele>1913</ele>
        <time>2022-08-28T09:28:02Z</time>
      </trkpt>
      <trkpt lat="45.955" lon="6.88611">
        <ele>1913</ele>
        <time>2022-08-28T09:28:03Z</time>
      </trkpt>
      <trkpt lat="45.955" lon="6.88614">
        <ele>1913</ele>
        <time>2022-08-28T09:28:05Z</time>
      </trkpt>
      <trkpt lat="45.95501" lon="6.88616">
        <ele>1912</ele>
        <time>2022-08-28T09:28:06Z</time>
      </trkpt>
      <trkpt lat="45.955" lon="6.88626">
        <ele>1911</ele>
        <time>2022-08-28T09:28:11Z</time>
      </trkpt>
      <trkpt lat="45.95499" lon="6.8863">
        <ele>1910</ele>
        <time>2022-08-28T09:28:13Z</time>
      </trkpt>
      <trkpt lat="45.95497" lon="6.88631">
        <ele>1910</ele>
        <time>2022-08-28T09:28:15Z</time>
      </trkpt>
      <trkpt lat="45.95495" lon="6.8863">
        <ele>1909</ele>
        <time>2022-08-28T09:28:17Z</time>
      </trkpt>
      <trkpt lat="45.95493" lon="6.88628">
        <ele>1909</ele>
        <time>2022-08-28T09:28:19Z</time>
      </trkpt>
      <trkpt lat="45.95492" lon="6.88626">
        <ele>1908</ele>
        <time>2022-08-28T09:28:21Z</time>
      </trkpt>
      <trkpt lat="45.9549" lon="6.88622">
        <ele>1908</ele>
        <time>2022-08-28T09:28:23Z</time>
      </trkpt>
      <trkpt lat="45.9549" lon="6.88618">
        <ele>1907</ele>
        <time>2022-08-28T09:28:25Z</time>
      </trkpt>
      <trkpt lat="45.95489" lon="6.88613">
        <ele>1907</ele>
        <time>2022-08-28T09:28:27Z</time>
      </trkpt>
      <trkpt lat="45.95489" lon="6.88609">
        <ele>1907</ele>
        <time>2022-08-28T09:28:29Z</time>
      </trkpt>
      <trkpt lat="45.95488" lon="6.88605">
        <ele>1906</ele>
        <time>2022-08-28T09:28:31Z</time>
      </trkpt>
      <trkpt lat="45.95487" lon="6.88601">
        <ele>1906</ele>
        <time>2022-08-28T09:28:33Z</time>
      </trkpt>
      <trkpt lat="45.95485" lon="6.88598">
        <ele>1905</ele>
        <time>2022-08-28T09:28:35Z</time>
      </trkpt>
      <trkpt lat="45.95484" lon="6.88595">
        <ele>1905</ele>
        <time>2022-08-28T09:28:37Z</time>
      </trkpt>
      <trkpt lat="45.95484" lon="6.88592">
        <ele>1904</ele>
        <time>2022-08-28T09:28:39Z</time>
      </trkpt>
      <trkpt lat="45.95483" lon="6.88589">
        <ele>1902</ele>
        <time>2022-08-28T09:28:43Z</time>
      </trkpt>
      <trkpt lat="45.95481" lon="6.88586">
        <ele>1902</ele>
        <time>2022-08-28T09:28:46Z</time>
      </trkpt>
      <trkpt lat="45.95479" lon="6.88585">
        <ele>1902</ele>
        <time>2022-08-28T09:28:48Z</time>
      </trkpt>
      <trkpt lat="45.95477" lon="6.88582">
        <ele>1902</ele>
        <time>2022-08-28T09:28:50Z</time>
      </trkpt>
      <trkpt lat="45.95476" lon="6.88578">
        <ele>1902</ele>
        <time>2022-08-28T09:28:52Z</time>
      </trkpt>
      <trkpt lat="45.95474" lon="6.88575">
        <ele>1900</ele>
        <time>2022-08-28T09:28:54Z</time>
      </trkpt>
      <trkpt lat="45.95473" lon="6.88573">
        <ele>1900</ele>
        <time>2022-08-28T09:28:56Z</time>
      </trkpt>
      <trkpt lat="45.95472" lon="6.8857">
        <ele>1900</ele>
        <time>2022-08-28T09:28:58Z</time>
      </trkpt>
      <trkpt lat="45.9547" lon="6.88568">
        <ele>1900</ele>
        <time>2022-08-28T09:29:00Z</time>
      </trkpt>
      <trkpt lat="45.95469" lon="6.88565">
        <ele>1899</ele>
        <time>2022-08-28T09:29:02Z</time>
      </trkpt>
      <trkpt lat="45.95467" lon="6.8856">
        <ele>1899</ele>
        <time>2022-08-28T09:29:04Z</time>
      </trkpt>
      <trkpt lat="45.95467" lon="6.88557">
        <ele>1899</ele>
        <time>2022-08-28T09:29:06Z</time>
      </trkpt>
      <trkpt lat="45.95467" lon="6.88554">
        <ele>1899</ele>
        <time>2022-08-28T09:29:08Z</time>
      </trkpt>
      <trkpt lat="45.95466" lon="6.8855">
        <ele>1898</ele>
        <time>2022-08-28T09:29:10Z</time>
      </trkpt>
      <trkpt lat="45.95465" lon="6.88547">
        <ele>1897</ele>
        <time>2022-08-28T09:29:12Z</time>
      </trkpt>
      <trkpt lat="45.95464" lon="6.88542">
        <ele>1896</ele>
        <time>2022-08-28T09:29:14Z</time>
      </trkpt>
      <trkpt lat="45.95463" lon="6.88539">
        <ele>1896</ele>
        <time>2022-08-28T09:29:16Z</time>
      </trkpt>
      <trkpt lat="45.95462" lon="6.88536">
        <ele>1896</ele>
        <time>2022-08-28T09:29:18Z</time>
      </trkpt>
      <trkpt lat="45.95461" lon="6.88534">
        <ele>1895</ele>
        <time>2022-08-28T09:29:21Z</time>
      </trkpt>
      <trkpt lat="45.95459" lon="6.88532">
        <ele>1895</ele>
        <time>2022-08-28T09:29:24Z</time>
      </trkpt>
      <trkpt lat="45.95457" lon="6.8853">
        <ele>1894</ele>
        <time>2022-08-28T09:29:26Z</time>
      </trkpt>
      <trkpt lat="45.95455" lon="6.88527">
        <ele>1894</ele>
        <time>2022-08-28T09:29:28Z</time>
      </trkpt>
      <trkpt lat="45.95453" lon="6.88526">
        <ele>1894</ele>
        <time>2022-08-28T09:29:30Z</time>
      </trkpt>
      <trkpt lat="45.95451" lon="6.88525">
        <ele>1894</ele>
        <time>2022-08-28T09:29:32Z</time>
      </trkpt>
      <trkpt lat="45.95448" lon="6.88524">
        <ele>1893</ele>
        <time>2022-08-28T09:29:34Z</time>
      </trkpt>
      <trkpt lat="45.95446" lon="6.88522">
        <ele>1892</ele>
        <time>2022-08-28T09:29:36Z</time>
      </trkpt>
      <trkpt lat="45.95444" lon="6.88521">
        <ele>1892</ele>
        <time>2022-08-28T09:29:37Z</time>
      </trkpt>
      <trkpt lat="45.95442" lon="6.88519">
        <ele>1892</ele>
        <time>2022-08-28T09:29:38Z</time>
      </trkpt>
      <trkpt lat="45.95441" lon="6.88518">
        <ele>1891</ele>
        <time>2022-08-28T09:29:39Z</time>
      </trkpt>
      <trkpt lat="45.95439" lon="6.88516">
        <ele>1891</ele>
        <time>2022-08-28T09:29:40Z</time>
      </trkpt>
      <trkpt lat="45.95437" lon="6.88515">
        <ele>1891</ele>
        <time>2022-08-28T09:29:41Z</time>
      </trkpt>
      <trkpt lat="45.95436" lon="6.88513">
        <ele>1890</ele>
        <time>2022-08-28T09:29:42Z</time>
      </trkpt>
      <trkpt lat="45.95434" lon="6.88509">
        <ele>1890</ele>
        <time>2022-08-28T09:29:43Z</time>
      </trkpt>
      <trkpt lat="45.95433" lon="6.88508">
        <ele>1890</ele>
        <time>2022-08-28T09:29:44Z</time>
      </trkpt>
      <trkpt lat="45.95432" lon="6.88506">
        <ele>1890</ele>
        <time>2022-08-28T09:29:45Z</time>
      </trkpt>
      <trkpt lat="45.95431" lon="6.88504">
        <ele>1890</ele>
        <time>2022-08-28T09:29:46Z</time>
      </trkpt>
      <trkpt lat="45.95429" lon="6.88502">
        <ele>1890</ele>
        <time>2022-08-28T09:29:47Z</time>
      </trkpt>
      <trkpt lat="45.95428" lon="6.88499">
        <ele>1890</ele>
        <time>2022-08-28T09:29:49Z</time>
      </trkpt>
      <trkpt lat="45.95427" lon="6.88497">
        <ele>1889</ele>
        <time>2022-08-28T09:29:50Z</time>
      </trkpt>
      <trkpt lat="45.95427" lon="6.88494">
        <ele>1888</ele>
        <time>2022-08-28T09:29:51Z</time>
      </trkpt>
      <trkpt lat="45.95426" lon="6.88491">
        <ele>1888</ele>
        <time>2022-08-28T09:29:53Z</time>
      </trkpt>
      <trkpt lat="45.95424" lon="6.88488">
        <ele>1887</ele>
        <time>2022-08-28T09:29:55Z</time>
      </trkpt>
      <trkpt lat="45.95424" lon="6.88486">
        <ele>1886</ele>
        <time>2022-08-28T09:29:56Z</time>
      </trkpt>
      <trkpt lat="45.95423" lon="6.88485">
        <ele>1886</ele>
        <time>2022-08-28T09:29:57Z</time>
      </trkpt>
      <trkpt lat="45.95423" lon="6.88483">
        <ele>1886</ele>
        <time>2022-08-28T09:29:58Z</time>
      </trkpt>
      <trkpt lat="45.95422" lon="6.88482">
        <ele>1886</ele>
        <time>2022-08-28T09:29:59Z</time>
      </trkpt>
      <trkpt lat="45.9542" lon="6.8848">
        <ele>1886</ele>
        <time>2022-08-28T09:30:00Z</time>
      </trkpt>
      <trkpt lat="45.95417" lon="6.88477">
        <ele>1886</ele>
        <time>2022-08-28T09:30:03Z</time>
      </trkpt>
      <trkpt lat="45.95416" lon="6.88474">
        <ele>1884</ele>
        <time>2022-08-28T09:30:06Z</time>
      </trkpt>
      <trkpt lat="45.95415" lon="6.88469">
        <ele>1884</ele>
        <time>2022-08-28T09:30:09Z</time>
      </trkpt>
      <trkpt lat="45.95413" lon="6.88467">
        <ele>1883</ele>
        <time>2022-08-28T09:30:11Z</time>
      </trkpt>
      <trkpt lat="45.95412" lon="6.88464">
        <ele>1883</ele>
        <time>2022-08-28T09:30:13Z</time>
      </trkpt>
      <trkpt lat="45.95411" lon="6.8846">
        <ele>1883</ele>
        <time>2022-08-28T09:30:15Z</time>
      </trkpt>
      <trkpt lat="45.95411" lon="6.88458">
        <ele>1883</ele>
        <time>2022-08-28T09:30:17Z</time>
      </trkpt>
      <trkpt lat="45.9541" lon="6.88455">
        <ele>1882</ele>
        <time>2022-08-28T09:30:19Z</time>
      </trkpt>
      <trkpt lat="45.95408" lon="6.8845">
        <ele>1882</ele>
        <time>2022-08-28T09:30:22Z</time>
      </trkpt>
      <trkpt lat="45.95407" lon="6.88447">
        <ele>1881</ele>
        <time>2022-08-28T09:30:24Z</time>
      </trkpt>
      <trkpt lat="45.95405" lon="6.88443">
        <ele>1880</ele>
        <time>2022-08-28T09:30:26Z</time>
      </trkpt>
      <trkpt lat="45.95404" lon="6.88441">
        <ele>1880</ele>
        <time>2022-08-28T09:30:28Z</time>
      </trkpt>
      <trkpt lat="45.95401" lon="6.88438">
        <ele>1878</ele>
        <time>2022-08-28T09:30:30Z</time>
      </trkpt>
      <trkpt lat="45.95398" lon="6.88437">
        <ele>1878</ele>
        <time>2022-08-28T09:30:32Z</time>
      </trkpt>
      <trkpt lat="45.95396" lon="6.88437">
        <ele>1878</ele>
        <time>2022-08-28T09:30:34Z</time>
      </trkpt>
      <trkpt lat="45.95394" lon="6.88436">
        <ele>1878</ele>
        <time>2022-08-28T09:30:37Z</time>
      </trkpt>
      <trkpt lat="45.95392" lon="6.88434">
        <ele>1878</ele>
        <time>2022-08-28T09:30:40Z</time>
      </trkpt>
      <trkpt lat="45.9539" lon="6.88432">
        <ele>1878</ele>
        <time>2022-08-28T09:30:42Z</time>
      </trkpt>
      <trkpt lat="45.95388" lon="6.8843">
        <ele>1878</ele>
        <time>2022-08-28T09:30:44Z</time>
      </trkpt>
      <trkpt lat="45.95385" lon="6.88428">
        <ele>1878</ele>
        <time>2022-08-28T09:30:47Z</time>
      </trkpt>
      <trkpt lat="45.95383" lon="6.88426">
        <ele>1877</ele>
        <time>2022-08-28T09:30:49Z</time>
      </trkpt>
      <trkpt lat="45.95382" lon="6.88423">
        <ele>1876</ele>
        <time>2022-08-28T09:30:51Z</time>
      </trkpt>
      <trkpt lat="45.95381" lon="6.8842">
        <ele>1876</ele>
        <time>2022-08-28T09:30:52Z</time>
      </trkpt>
      <trkpt lat="45.9538" lon="6.88418">
        <ele>1875</ele>
        <time>2022-08-28T09:30:53Z</time>
      </trkpt>
      <trkpt lat="45.95379" lon="6.88415">
        <ele>1875</ele>
        <time>2022-08-28T09:30:55Z</time>
      </trkpt>
      <trkpt lat="45.95378" lon="6.88413">
        <ele>1875</ele>
        <time>2022-08-28T09:30:56Z</time>
      </trkpt>
      <trkpt lat="45.95378" lon="6.8841">
        <ele>1875</ele>
        <time>2022-08-28T09:30:57Z</time>
      </trkpt>
      <trkpt lat="45.95376" lon="6.88408">
        <ele>1875</ele>
        <time>2022-08-28T09:31:00Z</time>
      </trkpt>
      <trkpt lat="45.95374" lon="6.88408">
        <ele>1873</ele>
        <time>2022-08-28T09:31:10Z</time>
      </trkpt>
      <trkpt lat="45.95371" lon="6.88403">
        <ele>1872</ele>
        <time>2022-08-28T09:31:14Z</time>
      </trkpt>
      <trkpt lat="45.9537" lon="6.88401">
        <ele>1872</ele>
        <time>2022-08-28T09:31:16Z</time>
      </trkpt>
      <trkpt lat="45.95368" lon="6.88401">
        <ele>1870</ele>
        <time>2022-08-28T09:31:19Z</time>
      </trkpt>
      <trkpt lat="45.95366" lon="6.88402">
        <ele>1870</ele>
        <time>2022-08-28T09:31:21Z</time>
      </trkpt>
      <trkpt lat="45.95366" lon="6.88407">
        <ele>1868</ele>
        <time>2022-08-28T09:31:29Z</time>
      </trkpt>
      <trkpt lat="45.95367" lon="6.8841">
        <ele>1867</ele>
        <time>2022-08-28T09:31:31Z</time>
      </trkpt>
      <trkpt lat="45.95368" lon="6.88414">
        <ele>1867</ele>
        <time>2022-08-28T09:31:33Z</time>
      </trkpt>
      <trkpt lat="45.95368" lon="6.88418">
        <ele>1866</ele>
        <time>2022-08-28T09:31:35Z</time>
      </trkpt>
      <trkpt lat="45.95366" lon="6.88419">
        <ele>1866</ele>
        <time>2022-08-28T09:31:38Z</time>
      </trkpt>
      <trkpt lat="45.95364" lon="6.88418">
        <ele>1865</ele>
        <time>2022-08-28T09:31:40Z</time>
      </trkpt>
      <trkpt lat="45.95361" lon="6.88415">
        <ele>1862</ele>
        <time>2022-08-28T09:31:45Z</time>
      </trkpt>
      <trkpt lat="45.95358" lon="6.88415">
        <ele>1862</ele>
        <time>2022-08-28T09:31:48Z</time>
      </trkpt>
      <trkpt lat="45.95357" lon="6.88413">
        <ele>1862</ele>
        <time>2022-08-28T09:31:51Z</time>
      </trkpt>
      <trkpt lat="45.95355" lon="6.88409">
        <ele>1861</ele>
        <time>2022-08-28T09:31:54Z</time>
      </trkpt>
      <trkpt lat="45.95355" lon="6.88405">
        <ele>1860</ele>
        <time>2022-08-28T09:31:58Z</time>
      </trkpt>
      <trkpt lat="45.95354" lon="6.88403">
        <ele>1860</ele>
        <time>2022-08-28T09:32:02Z</time>
      </trkpt>
      <trkpt lat="45.95353" lon="6.88405">
        <ele>1858</ele>
        <time>2022-08-28T09:32:08Z</time>
      </trkpt>
      <trkpt lat="45.95352" lon="6.88407">
        <ele>1858</ele>
        <time>2022-08-28T09:32:11Z</time>
      </trkpt>
      <trkpt lat="45.9535" lon="6.88409">
        <ele>1857</ele>
        <time>2022-08-28T09:32:14Z</time>
      </trkpt>
      <trkpt lat="45.95349" lon="6.88411">
        <ele>1857</ele>
        <time>2022-08-28T09:32:16Z</time>
      </trkpt>
      <trkpt lat="45.95348" lon="6.88414">
        <ele>1855</ele>
        <time>2022-08-28T09:32:23Z</time>
      </trkpt>
      <trkpt lat="45.95347" lon="6.88417">
        <ele>1855</ele>
        <time>2022-08-28T09:32:26Z</time>
      </trkpt>
      <trkpt lat="45.95348" lon="6.88421">
        <ele>1854</ele>
        <time>2022-08-28T09:32:29Z</time>
      </trkpt>
      <trkpt lat="45.95347" lon="6.88424">
        <ele>1853</ele>
        <time>2022-08-28T09:32:32Z</time>
      </trkpt>
      <trkpt lat="45.95346" lon="6.88427">
        <ele>1853</ele>
        <time>2022-08-28T09:32:35Z</time>
      </trkpt>
      <trkpt lat="45.95344" lon="6.88427">
        <ele>1851</ele>
        <time>2022-08-28T09:32:38Z</time>
      </trkpt>
      <trkpt lat="45.95341" lon="6.88425">
        <ele>1850</ele>
        <time>2022-08-28T09:32:41Z</time>
      </trkpt>
      <trkpt lat="45.9534" lon="6.88424">
        <ele>1850</ele>
        <time>2022-08-28T09:32:43Z</time>
      </trkpt>
      <trkpt lat="45.95338" lon="6.88422">
        <ele>1850</ele>
        <time>2022-08-28T09:32:46Z</time>
      </trkpt>
      <trkpt lat="45.95337" lon="6.88419">
        <ele>1849</ele>
        <time>2022-08-28T09:32:49Z</time>
      </trkpt>
      <trkpt lat="45.95336" lon="6.88416">
        <ele>1849</ele>
        <time>2022-08-28T09:32:51Z</time>
      </trkpt>
      <trkpt lat="45.95336" lon="6.88412">
        <ele>1847</ele>
        <time>2022-08-28T09:32:53Z</time>
      </trkpt>
      <trkpt lat="45.95335" lon="6.8841">
        <ele>1847</ele>
        <time>2022-08-28T09:32:55Z</time>
      </trkpt>
      <trkpt lat="45.95334" lon="6.88412">
        <ele>1847</ele>
        <time>2022-08-28T09:32:59Z</time>
      </trkpt>
      <trkpt lat="45.95333" lon="6.88414">
        <ele>1845</ele>
        <time>2022-08-28T09:33:02Z</time>
      </trkpt>
      <trkpt lat="45.95332" lon="6.88417">
        <ele>1844</ele>
        <time>2022-08-28T09:33:04Z</time>
      </trkpt>
      <trkpt lat="45.9533" lon="6.8842">
        <ele>1844</ele>
        <time>2022-08-28T09:33:07Z</time>
      </trkpt>
      <trkpt lat="45.95328" lon="6.88418">
        <ele>1844</ele>
        <time>2022-08-28T09:33:09Z</time>
      </trkpt>
      <trkpt lat="45.95327" lon="6.88414">
        <ele>1843</ele>
        <time>2022-08-28T09:33:12Z</time>
      </trkpt>
      <trkpt lat="45.95327" lon="6.88408">
        <ele>1842</ele>
        <time>2022-08-28T09:33:14Z</time>
      </trkpt>
      <trkpt lat="45.95325" lon="6.88405">
        <ele>1841</ele>
        <time>2022-08-28T09:33:16Z</time>
      </trkpt>
      <trkpt lat="45.95325" lon="6.88406">
        <ele>1841</ele>
        <time>2022-08-28T09:33:18Z</time>
      </trkpt>
      <trkpt lat="45.95324" lon="6.88408">
        <ele>1840</ele>
        <time>2022-08-28T09:33:20Z</time>
      </trkpt>
      <trkpt lat="45.95324" lon="6.8841">
        <ele>1839</ele>
        <time>2022-08-28T09:33:21Z</time>
      </trkpt>
      <trkpt lat="45.95323" lon="6.88412">
        <ele>1839</ele>
        <time>2022-08-28T09:33:22Z</time>
      </trkpt>
      <trkpt lat="45.95323" lon="6.88414">
        <ele>1838</ele>
        <time>2022-08-28T09:33:23Z</time>
      </trkpt>
      <trkpt lat="45.95322" lon="6.88416">
        <ele>1838</ele>
        <time>2022-08-28T09:33:24Z</time>
      </trkpt>
      <trkpt lat="45.95322" lon="6.88418">
        <ele>1837</ele>
        <time>2022-08-28T09:33:25Z</time>
      </trkpt>
      <trkpt lat="45.95322" lon="6.8842">
        <ele>1837</ele>
        <time>2022-08-28T09:33:26Z</time>
      </trkpt>
      <trkpt lat="45.95322" lon="6.88421">
        <ele>1837</ele>
        <time>2022-08-28T09:33:27Z</time>
      </trkpt>
      <trkpt lat="45.95322" lon="6.88423">
        <ele>1837</ele>
        <time>2022-08-28T09:33:28Z</time>
      </trkpt>
      <trkpt lat="45.95325" lon="6.88427">
        <ele>1837</ele>
        <time>2022-08-28T09:33:34Z</time>
      </trkpt>
      <trkpt lat="45.95325" lon="6.88428">
        <ele>1837</ele>
        <time>2022-08-28T09:33:35Z</time>
      </trkpt>
      <trkpt lat="45.95325" lon="6.8843">
        <ele>1836</ele>
        <time>2022-08-28T09:33:37Z</time>
      </trkpt>
      <trkpt lat="45.95325" lon="6.88431">
        <ele>1836</ele>
        <time>2022-08-28T09:33:38Z</time>
      </trkpt>
      <trkpt lat="45.95325" lon="6.88432">
        <ele>1835</ele>
        <time>2022-08-28T09:33:39Z</time>
      </trkpt>
      <trkpt lat="45.95325" lon="6.88433">
        <ele>1835</ele>
        <time>2022-08-28T09:33:40Z</time>
      </trkpt>
      <trkpt lat="45.95324" lon="6.88434">
        <ele>1835</ele>
        <time>2022-08-28T09:33:42Z</time>
      </trkpt>
      <trkpt lat="45.95324" lon="6.88435">
        <ele>1835</ele>
        <time>2022-08-28T09:33:44Z</time>
      </trkpt>
      <trkpt lat="45.95324" lon="6.88436">
        <ele>1835</ele>
        <time>2022-08-28T09:33:45Z</time>
      </trkpt>
      <trkpt lat="45.95324" lon="6.88437">
        <ele>1835</ele>
        <time>2022-08-28T09:33:46Z</time>
      </trkpt>
      <trkpt lat="45.95324" lon="6.88438">
        <ele>1835</ele>
        <time>2022-08-28T09:33:47Z</time>
      </trkpt>
      <trkpt lat="45.95324" lon="6.88439">
        <ele>1835</ele>
        <time>2022-08-28T09:33:49Z</time>
      </trkpt>
      <trkpt lat="45.95324" lon="6.8844">
        <ele>1835</ele>
        <time>2022-08-28T09:33:50Z</time>
      </trkpt>
      <trkpt lat="45.95324" lon="6.88441">
        <ele>1835</ele>
        <time>2022-08-28T09:33:51Z</time>
      </trkpt>
      <trkpt lat="45.95324" lon="6.88442">
        <ele>1835</ele>
        <time>2022-08-28T09:33:53Z</time>
      </trkpt>
      <trkpt lat="45.95324" lon="6.88443">
        <ele>1835</ele>
        <time>2022-08-28T09:33:54Z</time>
      </trkpt>
      <trkpt lat="45.95322" lon="6.8844">
        <ele>1835</ele>
        <time>2022-08-28T09:33:57Z</time>
      </trkpt>
      <trkpt lat="45.95321" lon="6.88438">
        <ele>1834</ele>
        <time>2022-08-28T09:33:59Z</time>
      </trkpt>
      <trkpt lat="45.95319" lon="6.88436">
        <ele>1832</ele>
        <time>2022-08-28T09:34:02Z</time>
      </trkpt>
      <trkpt lat="45.95317" lon="6.88437">
        <ele>1831</ele>
        <time>2022-08-28T09:34:06Z</time>
      </trkpt>
      <trkpt lat="45.95317" lon="6.8844">
        <ele>1831</ele>
        <time>2022-08-28T09:34:10Z</time>
      </trkpt>
      <trkpt lat="45.95317" lon="6.88444">
        <ele>1831</ele>
        <time>2022-08-28T09:34:12Z</time>
      </trkpt>
      <trkpt lat="45.95317" lon="6.88447">
        <ele>1830</ele>
        <time>2022-08-28T09:34:13Z</time>
      </trkpt>
      <trkpt lat="45.95317" lon="6.88449">
        <ele>1830</ele>
        <time>2022-08-28T09:34:14Z</time>
      </trkpt>
      <trkpt lat="45.95317" lon="6.88452">
        <ele>1830</ele>
        <time>2022-08-28T09:34:15Z</time>
      </trkpt>
      <trkpt lat="45.95314" lon="6.88451">
        <ele>1829</ele>
        <time>2022-08-28T09:34:17Z</time>
      </trkpt>
      <trkpt lat="45.95313" lon="6.88449">
        <ele>1829</ele>
        <time>2022-08-28T09:34:18Z</time>
      </trkpt>
      <trkpt lat="45.95311" lon="6.88448">
        <ele>1828</ele>
        <time>2022-08-28T09:34:19Z</time>
      </trkpt>
      <trkpt lat="45.95309" lon="6.88448">
        <ele>1827</ele>
        <time>2022-08-28T09:34:21Z</time>
      </trkpt>
      <trkpt lat="45.95309" lon="6.88453">
        <ele>1826</ele>
        <time>2022-08-28T09:34:24Z</time>
      </trkpt>
      <trkpt lat="45.95308" lon="6.88454">
        <ele>1826</ele>
        <time>2022-08-28T09:34:25Z</time>
      </trkpt>
      <trkpt lat="45.95308" lon="6.88455">
        <ele>1824</ele>
        <time>2022-08-28T09:34:27Z</time>
      </trkpt>
      <trkpt lat="45.95308" lon="6.88457">
        <ele>1824</ele>
        <time>2022-08-28T09:34:28Z</time>
      </trkpt>
      <trkpt lat="45.95308" lon="6.88458">
        <ele>1824</ele>
        <time>2022-08-28T09:34:29Z</time>
      </trkpt>
      <trkpt lat="45.95307" lon="6.88459">
        <ele>1824</ele>
        <time>2022-08-28T09:34:30Z</time>
      </trkpt>
      <trkpt lat="45.95307" lon="6.88461">
        <ele>1824</ele>
        <time>2022-08-28T09:34:31Z</time>
      </trkpt>
      <trkpt lat="45.95306" lon="6.88469">
        <ele>1824</ele>
        <time>2022-08-28T09:34:32Z</time>
      </trkpt>
      <trkpt lat="45.95304" lon="6.8847">
        <ele>1823</ele>
        <time>2022-08-28T09:34:33Z</time>
      </trkpt>
      <trkpt lat="45.95302" lon="6.88473">
        <ele>1822</ele>
        <time>2022-08-28T09:34:35Z</time>
      </trkpt>
      <trkpt lat="45.95302" lon="6.88477">
        <ele>1821</ele>
        <time>2022-08-28T09:34:37Z</time>
      </trkpt>
      <trkpt lat="45.95301" lon="6.88478">
        <ele>1819</ele>
        <time>2022-08-28T09:34:39Z</time>
      </trkpt>
      <trkpt lat="45.953" lon="6.88479">
        <ele>1819</ele>
        <time>2022-08-28T09:34:40Z</time>
      </trkpt>
      <trkpt lat="45.95298" lon="6.8848">
        <ele>1818</ele>
        <time>2022-08-28T09:34:41Z</time>
      </trkpt>
      <trkpt lat="45.95297" lon="6.88481">
        <ele>1818</ele>
        <time>2022-08-28T09:34:42Z</time>
      </trkpt>
      <trkpt lat="45.95296" lon="6.88482">
        <ele>1818</ele>
        <time>2022-08-28T09:34:43Z</time>
      </trkpt>
      <trkpt lat="45.95296" lon="6.88487">
        <ele>1818</ele>
        <time>2022-08-28T09:34:45Z</time>
      </trkpt>
      <trkpt lat="45.95296" lon="6.88491">
        <ele>1817</ele>
        <time>2022-08-28T09:34:47Z</time>
      </trkpt>
      <trkpt lat="45.95296" lon="6.88493">
        <ele>1816</ele>
        <time>2022-08-28T09:34:49Z</time>
      </trkpt>
      <trkpt lat="45.95295" lon="6.88494">
        <ele>1815</ele>
        <time>2022-08-28T09:34:50Z</time>
      </trkpt>
      <trkpt lat="45.95295" lon="6.88495">
        <ele>1815</ele>
        <time>2022-08-28T09:34:51Z</time>
      </trkpt>
      <trkpt lat="45.95294" lon="6.88497">
        <ele>1815</ele>
        <time>2022-08-28T09:34:53Z</time>
      </trkpt>
      <trkpt lat="45.95294" lon="6.88498">
        <ele>1814</ele>
        <time>2022-08-28T09:34:55Z</time>
      </trkpt>
      <trkpt lat="45.95293" lon="6.88499">
        <ele>1814</ele>
        <time>2022-08-28T09:34:56Z</time>
      </trkpt>
      <trkpt lat="45.95293" lon="6.885">
        <ele>1814</ele>
        <time>2022-08-28T09:34:57Z</time>
      </trkpt>
      <trkpt lat="45.9529" lon="6.88499">
        <ele>1813</ele>
        <time>2022-08-28T09:34:59Z</time>
      </trkpt>
      <trkpt lat="45.95288" lon="6.88497">
        <ele>1812</ele>
        <time>2022-08-28T09:35:01Z</time>
      </trkpt>
      <trkpt lat="45.95286" lon="6.88495">
        <ele>1811</ele>
        <time>2022-08-28T09:35:03Z</time>
      </trkpt>
      <trkpt lat="45.95283" lon="6.88492">
        <ele>1810</ele>
        <time>2022-08-28T09:35:05Z</time>
      </trkpt>
      <trkpt lat="45.95283" lon="6.88489">
        <ele>1810</ele>
        <time>2022-08-28T09:35:07Z</time>
      </trkpt>
      <trkpt lat="45.95282" lon="6.88486">
        <ele>1810</ele>
        <time>2022-08-28T09:35:09Z</time>
      </trkpt>
      <trkpt lat="45.95282" lon="6.88482">
        <ele>1808</ele>
        <time>2022-08-28T09:35:11Z</time>
      </trkpt>
      <trkpt lat="45.95282" lon="6.88479">
        <ele>1808</ele>
        <time>2022-08-28T09:35:13Z</time>
      </trkpt>
      <trkpt lat="45.95278" lon="6.88465">
        <ele>1806</ele>
        <time>2022-08-28T09:35:19Z</time>
      </trkpt>
      <trkpt lat="45.95278" lon="6.88465">
        <ele>1806</ele>
        <time>2022-08-28T09:35:20Z</time>
      </trkpt>
      <trkpt lat="45.95277" lon="6.88466">
        <ele>1806</ele>
        <time>2022-08-28T09:35:21Z</time>
      </trkpt>
      <trkpt lat="45.95277" lon="6.88467">
        <ele>1805</ele>
        <time>2022-08-28T09:35:22Z</time>
      </trkpt>
      <trkpt lat="45.95276" lon="6.88467">
        <ele>1804</ele>
        <time>2022-08-28T09:35:24Z</time>
      </trkpt>
      <trkpt lat="45.95276" lon="6.88468">
        <ele>1804</ele>
        <time>2022-08-28T09:35:26Z</time>
      </trkpt>
      <trkpt lat="45.95275" lon="6.88468">
        <ele>1803</ele>
        <time>2022-08-28T09:35:27Z</time>
      </trkpt>
      <trkpt lat="45.95275" lon="6.88469">
        <ele>1803</ele>
        <time>2022-08-28T09:35:28Z</time>
      </trkpt>
      <trkpt lat="45.95275" lon="6.88469">
        <ele>1802</ele>
        <time>2022-08-28T09:35:29Z</time>
      </trkpt>
      <trkpt lat="45.95274" lon="6.8847">
        <ele>1802</ele>
        <time>2022-08-28T09:35:31Z</time>
      </trkpt>
      <trkpt lat="45.95274" lon="6.8847">
        <ele>1801</ele>
        <time>2022-08-28T09:35:33Z</time>
      </trkpt>
      <trkpt lat="45.95273" lon="6.88471">
        <ele>1801</ele>
        <time>2022-08-28T09:35:34Z</time>
      </trkpt>
      <trkpt lat="45.95273" lon="6.88472">
        <ele>1801</ele>
        <time>2022-08-28T09:35:36Z</time>
      </trkpt>
      <trkpt lat="45.95272" lon="6.88472">
        <ele>1800</ele>
        <time>2022-08-28T09:35:38Z</time>
      </trkpt>
      <trkpt lat="45.95272" lon="6.88473">
        <ele>1800</ele>
        <time>2022-08-28T09:35:39Z</time>
      </trkpt>
      <trkpt lat="45.95271" lon="6.88473">
        <ele>1799</ele>
        <time>2022-08-28T09:35:40Z</time>
      </trkpt>
      <trkpt lat="45.9527" lon="6.88473">
        <ele>1799</ele>
        <time>2022-08-28T09:35:41Z</time>
      </trkpt>
      <trkpt lat="45.95269" lon="6.88472">
        <ele>1798</ele>
        <time>2022-08-28T09:35:43Z</time>
      </trkpt>
      <trkpt lat="45.95268" lon="6.88472">
        <ele>1798</ele>
        <time>2022-08-28T09:35:44Z</time>
      </trkpt>
      <trkpt lat="45.95267" lon="6.88471">
        <ele>1797</ele>
        <time>2022-08-28T09:35:45Z</time>
      </trkpt>
      <trkpt lat="45.95266" lon="6.88471">
        <ele>1796</ele>
        <time>2022-08-28T09:35:46Z</time>
      </trkpt>
      <trkpt lat="45.95264" lon="6.8847">
        <ele>1795</ele>
        <time>2022-08-28T09:35:48Z</time>
      </trkpt>
      <trkpt lat="45.95263" lon="6.8847">
        <ele>1795</ele>
        <time>2022-08-28T09:35:49Z</time>
      </trkpt>
      <trkpt lat="45.95262" lon="6.8847">
        <ele>1795</ele>
        <time>2022-08-28T09:35:50Z</time>
      </trkpt>
      <trkpt lat="45.9526" lon="6.88467">
        <ele>1795</ele>
        <time>2022-08-28T09:35:51Z</time>
      </trkpt>
      <trkpt lat="45.95257" lon="6.88465">
        <ele>1793</ele>
        <time>2022-08-28T09:35:53Z</time>
      </trkpt>
      <trkpt lat="45.95256" lon="6.88462">
        <ele>1793</ele>
        <time>2022-08-28T09:35:55Z</time>
      </trkpt>
      <trkpt lat="45.95255" lon="6.88459">
        <ele>1792</ele>
        <time>2022-08-28T09:35:57Z</time>
      </trkpt>
      <trkpt lat="45.95254" lon="6.88455">
        <ele>1792</ele>
        <time>2022-08-28T09:35:59Z</time>
      </trkpt>
      <trkpt lat="45.95253" lon="6.88453">
        <ele>1791</ele>
        <time>2022-08-28T09:36:01Z</time>
      </trkpt>
      <trkpt lat="45.95251" lon="6.88451">
        <ele>1790</ele>
        <time>2022-08-28T09:36:04Z</time>
      </trkpt>
      <trkpt lat="45.95249" lon="6.88451">
        <ele>1789</ele>
        <time>2022-08-28T09:36:06Z</time>
      </trkpt>
      <trkpt lat="45.95246" lon="6.88454">
        <ele>1789</ele>
        <time>2022-08-28T09:36:10Z</time>
      </trkpt>
      <trkpt lat="45.95245" lon="6.88457">
        <ele>1788</ele>
        <time>2022-08-28T09:36:13Z</time>
      </trkpt>
      <trkpt lat="45.95246" lon="6.88459">
        <ele>1788</ele>
        <time>2022-08-28T09:36:14Z</time>
      </trkpt>
      <trkpt lat="45.95246" lon="6.88461">
        <ele>1787</ele>
        <time>2022-08-28T09:36:16Z</time>
      </trkpt>
      <trkpt lat="45.95246" lon="6.88463">
        <ele>1786</ele>
        <time>2022-08-28T09:36:17Z</time>
      </trkpt>
      <trkpt lat="45.95247" lon="6.88466">
        <ele>1786</ele>
        <time>2022-08-28T09:36:18Z</time>
      </trkpt>
      <trkpt lat="45.95247" lon="6.88468">
        <ele>1785</ele>
        <time>2022-08-28T09:36:19Z</time>
      </trkpt>
      <trkpt lat="45.95247" lon="6.8847">
        <ele>1785</ele>
        <time>2022-08-28T09:36:21Z</time>
      </trkpt>
      <trkpt lat="45.95247" lon="6.88472">
        <ele>1784</ele>
        <time>2022-08-28T09:36:22Z</time>
      </trkpt>
      <trkpt lat="45.95248" lon="6.88475">
        <ele>1784</ele>
        <time>2022-08-28T09:36:23Z</time>
      </trkpt>
      <trkpt lat="45.95246" lon="6.88479">
        <ele>1783</ele>
        <time>2022-08-28T09:36:26Z</time>
      </trkpt>
      <trkpt lat="45.95244" lon="6.88481">
        <ele>1782</ele>
        <time>2022-08-28T09:36:28Z</time>
      </trkpt>
      <trkpt lat="45.95241" lon="6.88481">
        <ele>1780</ele>
        <time>2022-08-28T09:36:30Z</time>
      </trkpt>
      <trkpt lat="45.95238" lon="6.88481">
        <ele>1780</ele>
        <time>2022-08-28T09:36:32Z</time>
      </trkpt>
      <trkpt lat="45.95236" lon="6.88481">
        <ele>1779</ele>
        <time>2022-08-28T09:36:34Z</time>
      </trkpt>
      <trkpt lat="45.95234" lon="6.88482">
        <ele>1778</ele>
        <time>2022-08-28T09:36:36Z</time>
      </trkpt>
      <trkpt lat="45.95231" lon="6.88482">
        <ele>1778</ele>
        <time>2022-08-28T09:36:38Z</time>
      </trkpt>
      <trkpt lat="45.95229" lon="6.88481">
        <ele>1777</ele>
        <time>2022-08-28T09:36:40Z</time>
      </trkpt>
      <trkpt lat="45.95226" lon="6.88478">
        <ele>1777</ele>
        <time>2022-08-28T09:36:42Z</time>
      </trkpt>
      <trkpt lat="45.95224" lon="6.88477">
        <ele>1776</ele>
        <time>2022-08-28T09:36:44Z</time>
      </trkpt>
      <trkpt lat="45.95221" lon="6.88476">
        <ele>1776</ele>
        <time>2022-08-28T09:36:46Z</time>
      </trkpt>
      <trkpt lat="45.95219" lon="6.88478">
        <ele>1776</ele>
        <time>2022-08-28T09:36:48Z</time>
      </trkpt>
      <trkpt lat="45.95217" lon="6.8848">
        <ele>1774</ele>
        <time>2022-08-28T09:36:50Z</time>
      </trkpt>
      <trkpt lat="45.9522" lon="6.88481">
        <ele>1774</ele>
        <time>2022-08-28T09:36:53Z</time>
      </trkpt>
      <trkpt lat="45.95221" lon="6.88483">
        <ele>1774</ele>
        <time>2022-08-28T09:36:56Z</time>
      </trkpt>
      <trkpt lat="45.95223" lon="6.88485">
        <ele>1773</ele>
        <time>2022-08-28T09:36:58Z</time>
      </trkpt>
      <trkpt lat="45.95219" lon="6.88486">
        <ele>1771</ele>
        <time>2022-08-28T09:37:02Z</time>
      </trkpt>
      <trkpt lat="45.95216" lon="6.88486">
        <ele>1769</ele>
        <time>2022-08-28T09:37:04Z</time>
      </trkpt>
      <trkpt lat="45.95214" lon="6.88487">
        <ele>1769</ele>
        <time>2022-08-28T09:37:06Z</time>
      </trkpt>
      <trkpt lat="45.95213" lon="6.88488">
        <ele>1767</ele>
        <time>2022-08-28T09:37:08Z</time>
      </trkpt>
      <trkpt lat="45.95209" lon="6.8849">
        <ele>1767</ele>
        <time>2022-08-28T09:37:10Z</time>
      </trkpt>
      <trkpt lat="45.95207" lon="6.88489">
        <ele>1767</ele>
        <time>2022-08-28T09:37:12Z</time>
      </trkpt>
      <trkpt lat="45.95205" lon="6.88486">
        <ele>1765</ele>
        <time>2022-08-28T09:37:14Z</time>
      </trkpt>
      <trkpt lat="45.95204" lon="6.88482">
        <ele>1765</ele>
        <time>2022-08-28T09:37:16Z</time>
      </trkpt>
      <trkpt lat="45.95204" lon="6.88479">
        <ele>1764</ele>
        <time>2022-08-28T09:37:18Z</time>
      </trkpt>
      <trkpt lat="45.95202" lon="6.88475">
        <ele>1764</ele>
        <time>2022-08-28T09:37:20Z</time>
      </trkpt>
      <trkpt lat="45.95202" lon="6.88471">
        <ele>1764</ele>
        <time>2022-08-28T09:37:21Z</time>
      </trkpt>
      <trkpt lat="45.95203" lon="6.88468">
        <ele>1763</ele>
        <time>2022-08-28T09:37:22Z</time>
      </trkpt>
      <trkpt lat="45.95203" lon="6.88464">
        <ele>1763</ele>
        <time>2022-08-28T09:37:23Z</time>
      </trkpt>
      <trkpt lat="45.95204" lon="6.88461">
        <ele>1763</ele>
        <time>2022-08-28T09:37:25Z</time>
      </trkpt>
      <trkpt lat="45.95205" lon="6.88458">
        <ele>1763</ele>
        <time>2022-08-28T09:37:27Z</time>
      </trkpt>
      <trkpt lat="45.95206" lon="6.88455">
        <ele>1762</ele>
        <time>2022-08-28T09:37:28Z</time>
      </trkpt>
      <trkpt lat="45.95206" lon="6.88453">
        <ele>1762</ele>
        <time>2022-08-28T09:37:29Z</time>
      </trkpt>
      <trkpt lat="45.95206" lon="6.8845">
        <ele>1762</ele>
        <time>2022-08-28T09:37:30Z</time>
      </trkpt>
      <trkpt lat="45.95206" lon="6.88448">
        <ele>1761</ele>
        <time>2022-08-28T09:37:31Z</time>
      </trkpt>
      <trkpt lat="45.95206" lon="6.88444">
        <ele>1761</ele>
        <time>2022-08-28T09:37:33Z</time>
      </trkpt>
      <trkpt lat="45.95206" lon="6.88441">
        <ele>1761</ele>
        <time>2022-08-28T09:37:35Z</time>
      </trkpt>
      <trkpt lat="45.95207" lon="6.88437">
        <ele>1761</ele>
        <time>2022-08-28T09:37:37Z</time>
      </trkpt>
      <trkpt lat="45.95208" lon="6.88434">
        <ele>1761</ele>
        <time>2022-08-28T09:37:39Z</time>
      </trkpt>
      <trkpt lat="45.95207" lon="6.8843">
        <ele>1760</ele>
        <time>2022-08-28T09:37:41Z</time>
      </trkpt>
      <trkpt lat="45.95206" lon="6.88426">
        <ele>1760</ele>
        <time>2022-08-28T09:37:43Z</time>
      </trkpt>
      <trkpt lat="45.95206" lon="6.88423">
        <ele>1759</ele>
        <time>2022-08-28T09:37:45Z</time>
      </trkpt>
      <trkpt lat="45.95204" lon="6.88421">
        <ele>1758</ele>
        <time>2022-08-28T09:37:47Z</time>
      </trkpt>
      <trkpt lat="45.95202" lon="6.88419">
        <ele>1758</ele>
        <time>2022-08-28T09:37:51Z</time>
      </trkpt>
      <trkpt lat="45.952" lon="6.88417">
        <ele>1757</ele>
        <time>2022-08-28T09:37:54Z</time>
      </trkpt>
      <trkpt lat="45.95198" lon="6.88415">
        <ele>1757</ele>
        <time>2022-08-28T09:37:56Z</time>
      </trkpt>
      <trkpt lat="45.95196" lon="6.88413">
        <ele>1757</ele>
        <time>2022-08-28T09:37:59Z</time>
      </trkpt>
      <trkpt lat="45.95193" lon="6.88411">
        <ele>1757</ele>
        <time>2022-08-28T09:38:01Z</time>
      </trkpt>
      <trkpt lat="45.95191" lon="6.88408">
        <ele>1757</ele>
        <time>2022-08-28T09:38:03Z</time>
      </trkpt>
      <trkpt lat="45.95188" lon="6.88406">
        <ele>1755</ele>
        <time>2022-08-28T09:38:05Z</time>
      </trkpt>
      <trkpt lat="45.95185" lon="6.88404">
        <ele>1755</ele>
        <time>2022-08-28T09:38:07Z</time>
      </trkpt>
      <trkpt lat="45.95182" lon="6.88402">
        <ele>1755</ele>
        <time>2022-08-28T09:38:09Z</time>
      </trkpt>
      <trkpt lat="45.9518" lon="6.88398">
        <ele>1755</ele>
        <time>2022-08-28T09:38:11Z</time>
      </trkpt>
      <trkpt lat="45.95177" lon="6.88396">
        <ele>1754</ele>
        <time>2022-08-28T09:38:13Z</time>
      </trkpt>
      <trkpt lat="45.95176" lon="6.88394">
        <ele>1753</ele>
        <time>2022-08-28T09:38:14Z</time>
      </trkpt>
      <trkpt lat="45.95174" lon="6.88392">
        <ele>1753</ele>
        <time>2022-08-28T09:38:15Z</time>
      </trkpt>
      <trkpt lat="45.95173" lon="6.8839">
        <ele>1753</ele>
        <time>2022-08-28T09:38:16Z</time>
      </trkpt>
      <trkpt lat="45.95171" lon="6.88387">
        <ele>1753</ele>
        <time>2022-08-28T09:38:17Z</time>
      </trkpt>
      <trkpt lat="45.9517" lon="6.88386">
        <ele>1753</ele>
        <time>2022-08-28T09:38:18Z</time>
      </trkpt>
      <trkpt lat="45.95168" lon="6.88384">
        <ele>1753</ele>
        <time>2022-08-28T09:38:19Z</time>
      </trkpt>
      <trkpt lat="45.95167" lon="6.88382">
        <ele>1753</ele>
        <time>2022-08-28T09:38:20Z</time>
      </trkpt>
      <trkpt lat="45.95166" lon="6.8838">
        <ele>1753</ele>
        <time>2022-08-28T09:38:21Z</time>
      </trkpt>
      <trkpt lat="45.95165" lon="6.88378">
        <ele>1753</ele>
        <time>2022-08-28T09:38:22Z</time>
      </trkpt>
      <trkpt lat="45.95165" lon="6.88374">
        <ele>1753</ele>
        <time>2022-08-28T09:38:23Z</time>
      </trkpt>
      <trkpt lat="45.95165" lon="6.88372">
        <ele>1753</ele>
        <time>2022-08-28T09:38:24Z</time>
      </trkpt>
      <trkpt lat="45.95164" lon="6.88367">
        <ele>1753</ele>
        <time>2022-08-28T09:38:25Z</time>
      </trkpt>
      <trkpt lat="45.95164" lon="6.88365">
        <ele>1752</ele>
        <time>2022-08-28T09:38:26Z</time>
      </trkpt>
      <trkpt lat="45.95164" lon="6.88362">
        <ele>1751</ele>
        <time>2022-08-28T09:38:27Z</time>
      </trkpt>
      <trkpt lat="45.95164" lon="6.8836">
        <ele>1751</ele>
        <time>2022-08-28T09:38:28Z</time>
      </trkpt>
      <trkpt lat="45.95163" lon="6.88356">
        <ele>1751</ele>
        <time>2022-08-28T09:38:30Z</time>
      </trkpt>
      <trkpt lat="45.95162" lon="6.88352">
        <ele>1750</ele>
        <time>2022-08-28T09:38:32Z</time>
      </trkpt>
      <trkpt lat="45.95161" lon="6.88348">
        <ele>1750</ele>
        <time>2022-08-28T09:38:33Z</time>
      </trkpt>
      <trkpt lat="45.95161" lon="6.88346">
        <ele>1750</ele>
        <time>2022-08-28T09:38:34Z</time>
      </trkpt>
      <trkpt lat="45.9516" lon="6.88342">
        <ele>1750</ele>
        <time>2022-08-28T09:38:36Z</time>
      </trkpt>
      <trkpt lat="45.95159" lon="6.88337">
        <ele>1750</ele>
        <time>2022-08-28T09:38:38Z</time>
      </trkpt>
      <trkpt lat="45.9516" lon="6.88334">
        <ele>1750</ele>
        <time>2022-08-28T09:38:40Z</time>
      </trkpt>
      <trkpt lat="45.9516" lon="6.8833">
        <ele>1749</ele>
        <time>2022-08-28T09:38:42Z</time>
      </trkpt>
      <trkpt lat="45.9516" lon="6.88324">
        <ele>1748</ele>
        <time>2022-08-28T09:38:44Z</time>
      </trkpt>
      <trkpt lat="45.9516" lon="6.88323">
        <ele>1747</ele>
        <time>2022-08-28T09:38:45Z</time>
      </trkpt>
      <trkpt lat="45.95159" lon="6.8832">
        <ele>1747</ele>
        <time>2022-08-28T09:38:46Z</time>
      </trkpt>
      <trkpt lat="45.95157" lon="6.8831">
        <ele>1746</ele>
        <time>2022-08-28T09:38:50Z</time>
      </trkpt>
      <trkpt lat="45.95156" lon="6.88308">
        <ele>1746</ele>
        <time>2022-08-28T09:38:51Z</time>
      </trkpt>
      <trkpt lat="45.95155" lon="6.88305">
        <ele>1746</ele>
        <time>2022-08-28T09:38:52Z</time>
      </trkpt>
      <trkpt lat="45.95154" lon="6.88303">
        <ele>1746</ele>
        <time>2022-08-28T09:38:53Z</time>
      </trkpt>
      <trkpt lat="45.95153" lon="6.883">
        <ele>1746</ele>
        <time>2022-08-28T09:38:55Z</time>
      </trkpt>
      <trkpt lat="45.95152" lon="6.88298">
        <ele>1746</ele>
        <time>2022-08-28T09:38:56Z</time>
      </trkpt>
      <trkpt lat="45.95152" lon="6.88295">
        <ele>1746</ele>
        <time>2022-08-28T09:38:57Z</time>
      </trkpt>
      <trkpt lat="45.9515" lon="6.88291">
        <ele>1746</ele>
        <time>2022-08-28T09:38:59Z</time>
      </trkpt>
      <trkpt lat="45.95149" lon="6.88287">
        <ele>1746</ele>
        <time>2022-08-28T09:39:01Z</time>
      </trkpt>
      <trkpt lat="45.95148" lon="6.88285">
        <ele>1744</ele>
        <time>2022-08-28T09:39:03Z</time>
      </trkpt>
      <trkpt lat="45.95148" lon="6.88282">
        <ele>1745</ele>
        <time>2022-08-28T09:39:04Z</time>
      </trkpt>
      <trkpt lat="45.95148" lon="6.88279">
        <ele>1745</ele>
        <time>2022-08-28T09:39:05Z</time>
      </trkpt>
      <trkpt lat="45.95147" lon="6.88277">
        <ele>1745</ele>
        <time>2022-08-28T09:39:06Z</time>
      </trkpt>
      <trkpt lat="45.95147" lon="6.88274">
        <ele>1745</ele>
        <time>2022-08-28T09:39:07Z</time>
      </trkpt>
      <trkpt lat="45.95149" lon="6.88261">
        <ele>1744</ele>
        <time>2022-08-28T09:39:10Z</time>
      </trkpt>
      <trkpt lat="45.9515" lon="6.88259">
        <ele>1744</ele>
        <time>2022-08-28T09:39:11Z</time>
      </trkpt>
      <trkpt lat="45.9515" lon="6.88256">
        <ele>1744</ele>
        <time>2022-08-28T09:39:12Z</time>
      </trkpt>
      <trkpt lat="45.9515" lon="6.88254">
        <ele>1743</ele>
        <time>2022-08-28T09:39:13Z</time>
      </trkpt>
      <trkpt lat="45.9515" lon="6.88252">
        <ele>1743</ele>
        <time>2022-08-28T09:39:15Z</time>
      </trkpt>
      <trkpt lat="45.9515" lon="6.88249">
        <ele>1743</ele>
        <time>2022-08-28T09:39:16Z</time>
      </trkpt>
      <trkpt lat="45.9515" lon="6.88247">
        <ele>1743</ele>
        <time>2022-08-28T09:39:17Z</time>
      </trkpt>
      <trkpt lat="45.9515" lon="6.88245">
        <ele>1743</ele>
        <time>2022-08-28T09:39:19Z</time>
      </trkpt>
      <trkpt lat="45.9515" lon="6.88242">
        <ele>1743</ele>
        <time>2022-08-28T09:39:20Z</time>
      </trkpt>
      <trkpt lat="45.95149" lon="6.8824">
        <ele>1743</ele>
        <time>2022-08-28T09:39:21Z</time>
      </trkpt>
      <trkpt lat="45.95149" lon="6.88237">
        <ele>1743</ele>
        <time>2022-08-28T09:39:23Z</time>
      </trkpt>
      <trkpt lat="45.95148" lon="6.88234">
        <ele>1743</ele>
        <time>2022-08-28T09:39:24Z</time>
      </trkpt>
      <trkpt lat="45.95148" lon="6.88232">
        <ele>1743</ele>
        <time>2022-08-28T09:39:25Z</time>
      </trkpt>
      <trkpt lat="45.95147" lon="6.88229">
        <ele>1742</ele>
        <time>2022-08-28T09:39:26Z</time>
      </trkpt>
      <trkpt lat="45.95147" lon="6.88226">
        <ele>1742</ele>
        <time>2022-08-28T09:39:27Z</time>
      </trkpt>
      <trkpt lat="45.95147" lon="6.88224">
        <ele>1742</ele>
        <time>2022-08-28T09:39:28Z</time>
      </trkpt>
      <trkpt lat="45.95146" lon="6.88222">
        <ele>1741</ele>
        <time>2022-08-28T09:39:29Z</time>
      </trkpt>
      <trkpt lat="45.95146" lon="6.88218">
        <ele>1741</ele>
        <time>2022-08-28T09:39:30Z</time>
      </trkpt>
      <trkpt lat="45.95146" lon="6.88215">
        <ele>1741</ele>
        <time>2022-08-28T09:39:31Z</time>
      </trkpt>
      <trkpt lat="45.95145" lon="6.88213">
        <ele>1741</ele>
        <time>2022-08-28T09:39:32Z</time>
      </trkpt>
      <trkpt lat="45.95145" lon="6.8821">
        <ele>1741</ele>
        <time>2022-08-28T09:39:33Z</time>
      </trkpt>
      <trkpt lat="45.95144" lon="6.88208">
        <ele>1741</ele>
        <time>2022-08-28T09:39:34Z</time>
      </trkpt>
      <trkpt lat="45.95144" lon="6.88206">
        <ele>1741</ele>
        <time>2022-08-28T09:39:35Z</time>
      </trkpt>
      <trkpt lat="45.95144" lon="6.88203">
        <ele>1740</ele>
        <time>2022-08-28T09:39:36Z</time>
      </trkpt>
      <trkpt lat="45.95143" lon="6.88201">
        <ele>1740</ele>
        <time>2022-08-28T09:39:38Z</time>
      </trkpt>
      <trkpt lat="45.95143" lon="6.88199">
        <ele>1740</ele>
        <time>2022-08-28T09:39:39Z</time>
      </trkpt>
      <trkpt lat="45.95143" lon="6.88197">
        <ele>1740</ele>
        <time>2022-08-28T09:39:40Z</time>
      </trkpt>
      <trkpt lat="45.95142" lon="6.88192">
        <ele>1739</ele>
        <time>2022-08-28T09:39:41Z</time>
      </trkpt>
      <trkpt lat="45.95141" lon="6.88187">
        <ele>1739</ele>
        <time>2022-08-28T09:39:43Z</time>
      </trkpt>
      <trkpt lat="45.95141" lon="6.88182">
        <ele>1738</ele>
        <time>2022-08-28T09:39:44Z</time>
      </trkpt>
      <trkpt lat="45.9514" lon="6.8818">
        <ele>1738</ele>
        <time>2022-08-28T09:39:45Z</time>
      </trkpt>
      <trkpt lat="45.9514" lon="6.88178">
        <ele>1738</ele>
        <time>2022-08-28T09:39:46Z</time>
      </trkpt>
      <trkpt lat="45.95139" lon="6.88176">
        <ele>1738</ele>
        <time>2022-08-28T09:39:47Z</time>
      </trkpt>
      <trkpt lat="45.95139" lon="6.88174">
        <ele>1739</ele>
        <time>2022-08-28T09:39:48Z</time>
      </trkpt>
      <trkpt lat="45.95138" lon="6.88172">
        <ele>1739</ele>
        <time>2022-08-28T09:39:49Z</time>
      </trkpt>
      <trkpt lat="45.95138" lon="6.8817">
        <ele>1738</ele>
        <time>2022-08-28T09:39:50Z</time>
      </trkpt>
      <trkpt lat="45.95131" lon="6.8816">
        <ele>1736</ele>
        <time>2022-08-28T09:39:57Z</time>
      </trkpt>
      <trkpt lat="45.9513" lon="6.88158">
        <ele>1734</ele>
        <time>2022-08-28T09:39:59Z</time>
      </trkpt>
      <trkpt lat="45.9513" lon="6.88156">
        <ele>1734</ele>
        <time>2022-08-28T09:40:00Z</time>
      </trkpt>
      <trkpt lat="45.9513" lon="6.88155">
        <ele>1734</ele>
        <time>2022-08-28T09:40:01Z</time>
      </trkpt>
      <trkpt lat="45.95129" lon="6.88153">
        <ele>1734</ele>
        <time>2022-08-28T09:40:02Z</time>
      </trkpt>
      <trkpt lat="45.95129" lon="6.88151">
        <ele>1734</ele>
        <time>2022-08-28T09:40:04Z</time>
      </trkpt>
      <trkpt lat="45.95128" lon="6.88149">
        <ele>1733</ele>
        <time>2022-08-28T09:40:05Z</time>
      </trkpt>
      <trkpt lat="45.95128" lon="6.88148">
        <ele>1733</ele>
        <time>2022-08-28T09:40:06Z</time>
      </trkpt>
      <trkpt lat="45.95129" lon="6.88144">
        <ele>1732</ele>
        <time>2022-08-28T09:40:08Z</time>
      </trkpt>
      <trkpt lat="45.95128" lon="6.88141">
        <ele>1731</ele>
        <time>2022-08-28T09:40:10Z</time>
      </trkpt>
      <trkpt lat="45.95128" lon="6.88138">
        <ele>1730</ele>
        <time>2022-08-28T09:40:11Z</time>
      </trkpt>
      <trkpt lat="45.95128" lon="6.88135">
        <ele>1730</ele>
        <time>2022-08-28T09:40:12Z</time>
      </trkpt>
      <trkpt lat="45.95128" lon="6.88133">
        <ele>1730</ele>
        <time>2022-08-28T09:40:13Z</time>
      </trkpt>
      <trkpt lat="45.95127" lon="6.8813">
        <ele>1730</ele>
        <time>2022-08-28T09:40:14Z</time>
      </trkpt>
      <trkpt lat="45.95126" lon="6.88122">
        <ele>1730</ele>
        <time>2022-08-28T09:40:15Z</time>
      </trkpt>
      <trkpt lat="45.95126" lon="6.8812">
        <ele>1730</ele>
        <time>2022-08-28T09:40:16Z</time>
      </trkpt>
      <trkpt lat="45.95125" lon="6.88115">
        <ele>1729</ele>
        <time>2022-08-28T09:40:18Z</time>
      </trkpt>
      <trkpt lat="45.95125" lon="6.8811">
        <ele>1729</ele>
        <time>2022-08-28T09:40:19Z</time>
      </trkpt>
      <trkpt lat="45.95125" lon="6.88109">
        <ele>1728</ele>
        <time>2022-08-28T09:40:20Z</time>
      </trkpt>
      <trkpt lat="45.95126" lon="6.88105">
        <ele>1728</ele>
        <time>2022-08-28T09:40:22Z</time>
      </trkpt>
      <trkpt lat="45.95127" lon="6.88101">
        <ele>1728</ele>
        <time>2022-08-28T09:40:24Z</time>
      </trkpt>
      <trkpt lat="45.95126" lon="6.88097">
        <ele>1728</ele>
        <time>2022-08-28T09:40:26Z</time>
      </trkpt>
      <trkpt lat="45.95125" lon="6.88092">
        <ele>1728</ele>
        <time>2022-08-28T09:40:28Z</time>
      </trkpt>
      <trkpt lat="45.95124" lon="6.88089">
        <ele>1728</ele>
        <time>2022-08-28T09:40:29Z</time>
      </trkpt>
      <trkpt lat="45.95123" lon="6.88086">
        <ele>1728</ele>
        <time>2022-08-28T09:40:31Z</time>
      </trkpt>
      <trkpt lat="45.95123" lon="6.88083">
        <ele>1728</ele>
        <time>2022-08-28T09:40:32Z</time>
      </trkpt>
      <trkpt lat="45.95124" lon="6.8808">
        <ele>1728</ele>
        <time>2022-08-28T09:40:33Z</time>
      </trkpt>
      <trkpt lat="45.95123" lon="6.88077">
        <ele>1728</ele>
        <time>2022-08-28T09:40:35Z</time>
      </trkpt>
      <trkpt lat="45.95123" lon="6.88075">
        <ele>1727</ele>
        <time>2022-08-28T09:40:38Z</time>
      </trkpt>
      <trkpt lat="45.95122" lon="6.88072">
        <ele>1726</ele>
        <time>2022-08-28T09:40:40Z</time>
      </trkpt>
      <trkpt lat="45.95121" lon="6.8807">
        <ele>1726</ele>
        <time>2022-08-28T09:40:42Z</time>
      </trkpt>
      <trkpt lat="45.95119" lon="6.88067">
        <ele>1726</ele>
        <time>2022-08-28T09:40:44Z</time>
      </trkpt>
      <trkpt lat="45.95116" lon="6.88065">
        <ele>1726</ele>
        <time>2022-08-28T09:40:47Z</time>
      </trkpt>
      <trkpt lat="45.95114" lon="6.88065">
        <ele>1726</ele>
        <time>2022-08-28T09:40:51Z</time>
      </trkpt>
      <trkpt lat="45.95112" lon="6.88067">
        <ele>1726</ele>
        <time>2022-08-28T09:40:54Z</time>
      </trkpt>
      <trkpt lat="45.95109" lon="6.88067">
        <ele>1726</ele>
        <time>2022-08-28T09:40:56Z</time>
      </trkpt>
      <trkpt lat="45.95107" lon="6.88063">
        <ele>1725</ele>
        <time>2022-08-28T09:40:58Z</time>
      </trkpt>
      <trkpt lat="45.95104" lon="6.88061">
        <ele>1725</ele>
        <time>2022-08-28T09:41:00Z</time>
      </trkpt>
      <trkpt lat="45.95103" lon="6.88058">
        <ele>1724</ele>
        <time>2022-08-28T09:41:02Z</time>
      </trkpt>
      <trkpt lat="45.951" lon="6.88056">
        <ele>1724</ele>
        <time>2022-08-28T09:41:04Z</time>
      </trkpt>
      <trkpt lat="45.95098" lon="6.88054">
        <ele>1724</ele>
        <time>2022-08-28T09:41:07Z</time>
      </trkpt>
      <trkpt lat="45.95095" lon="6.88053">
        <ele>1724</ele>
        <time>2022-08-28T09:41:09Z</time>
      </trkpt>
      <trkpt lat="45.95092" lon="6.88051">
        <ele>1724</ele>
        <time>2022-08-28T09:41:11Z</time>
      </trkpt>
      <trkpt lat="45.9509" lon="6.88049">
        <ele>1723</ele>
        <time>2022-08-28T09:41:13Z</time>
      </trkpt>
      <trkpt lat="45.95087" lon="6.88047">
        <ele>1723</ele>
        <time>2022-08-28T09:41:15Z</time>
      </trkpt>
      <trkpt lat="45.95085" lon="6.88046">
        <ele>1723</ele>
        <time>2022-08-28T09:41:17Z</time>
      </trkpt>
      <trkpt lat="45.95083" lon="6.88047">
        <ele>1722</ele>
        <time>2022-08-28T09:41:19Z</time>
      </trkpt>
      <trkpt lat="45.9508" lon="6.88045">
        <ele>1722</ele>
        <time>2022-08-28T09:41:21Z</time>
      </trkpt>
      <trkpt lat="45.95077" lon="6.88043">
        <ele>1722</ele>
        <time>2022-08-28T09:41:23Z</time>
      </trkpt>
      <trkpt lat="45.95075" lon="6.8804">
        <ele>1721</ele>
        <time>2022-08-28T09:41:25Z</time>
      </trkpt>
      <trkpt lat="45.95072" lon="6.88038">
        <ele>1721</ele>
        <time>2022-08-28T09:41:27Z</time>
      </trkpt>
      <trkpt lat="45.95069" lon="6.88035">
        <ele>1720</ele>
        <time>2022-08-28T09:41:29Z</time>
      </trkpt>
      <trkpt lat="45.95066" lon="6.88033">
        <ele>1720</ele>
        <time>2022-08-28T09:41:31Z</time>
      </trkpt>
      <trkpt lat="45.95063" lon="6.88031">
        <ele>1720</ele>
        <time>2022-08-28T09:41:33Z</time>
      </trkpt>
      <trkpt lat="45.95061" lon="6.88031">
        <ele>1720</ele>
        <time>2022-08-28T09:41:36Z</time>
      </trkpt>
      <trkpt lat="45.95058" lon="6.88031">
        <ele>1720</ele>
        <time>2022-08-28T09:41:38Z</time>
      </trkpt>
      <trkpt lat="45.95056" lon="6.8803">
        <ele>1719</ele>
        <time>2022-08-28T09:41:39Z</time>
      </trkpt>
      <trkpt lat="45.95055" lon="6.88029">
        <ele>1719</ele>
        <time>2022-08-28T09:41:40Z</time>
      </trkpt>
      <trkpt lat="45.95053" lon="6.88028">
        <ele>1719</ele>
        <time>2022-08-28T09:41:41Z</time>
      </trkpt>
      <trkpt lat="45.95051" lon="6.88027">
        <ele>1719</ele>
        <time>2022-08-28T09:41:42Z</time>
      </trkpt>
      <trkpt lat="45.95049" lon="6.88025">
        <ele>1718</ele>
        <time>2022-08-28T09:41:44Z</time>
      </trkpt>
      <trkpt lat="45.95047" lon="6.88023">
        <ele>1717</ele>
        <time>2022-08-28T09:41:46Z</time>
      </trkpt>
      <trkpt lat="45.95045" lon="6.88023">
        <ele>1717</ele>
        <time>2022-08-28T09:41:47Z</time>
      </trkpt>
      <trkpt lat="45.95043" lon="6.88022">
        <ele>1717</ele>
        <time>2022-08-28T09:41:48Z</time>
      </trkpt>
      <trkpt lat="45.95042" lon="6.88021">
        <ele>1718</ele>
        <time>2022-08-28T09:41:49Z</time>
      </trkpt>
      <trkpt lat="45.95038" lon="6.88021">
        <ele>1718</ele>
        <time>2022-08-28T09:41:51Z</time>
      </trkpt>
      <trkpt lat="45.95035" lon="6.88022">
        <ele>1717</ele>
        <time>2022-08-28T09:41:53Z</time>
      </trkpt>
      <trkpt lat="45.95032" lon="6.88023">
        <ele>1717</ele>
        <time>2022-08-28T09:41:55Z</time>
      </trkpt>
      <trkpt lat="45.9503" lon="6.88024">
        <ele>1717</ele>
        <time>2022-08-28T09:41:57Z</time>
      </trkpt>
      <trkpt lat="45.95028" lon="6.88025">
        <ele>1716</ele>
        <time>2022-08-28T09:41:58Z</time>
      </trkpt>
      <trkpt lat="45.95027" lon="6.88026">
        <ele>1715</ele>
        <time>2022-08-28T09:41:59Z</time>
      </trkpt>
      <trkpt lat="45.95025" lon="6.88027">
        <ele>1715</ele>
        <time>2022-08-28T09:42:01Z</time>
      </trkpt>
      <trkpt lat="45.95023" lon="6.88028">
        <ele>1715</ele>
        <time>2022-08-28T09:42:02Z</time>
      </trkpt>
      <trkpt lat="45.95021" lon="6.88028">
        <ele>1715</ele>
        <time>2022-08-28T09:42:03Z</time>
      </trkpt>
      <trkpt lat="45.95015" lon="6.88033">
        <ele>1715</ele>
        <time>2022-08-28T09:42:08Z</time>
      </trkpt>
      <trkpt lat="45.95011" lon="6.88036">
        <ele>1714</ele>
        <time>2022-08-28T09:42:10Z</time>
      </trkpt>
      <trkpt lat="45.9501" lon="6.88037">
        <ele>1713</ele>
        <time>2022-08-28T09:42:11Z</time>
      </trkpt>
      <trkpt lat="45.95009" lon="6.88038">
        <ele>1712</ele>
        <time>2022-08-28T09:42:12Z</time>
      </trkpt>
      <trkpt lat="45.95007" lon="6.88039">
        <ele>1712</ele>
        <time>2022-08-28T09:42:14Z</time>
      </trkpt>
      <trkpt lat="45.95006" lon="6.88041">
        <ele>1712</ele>
        <time>2022-08-28T09:42:15Z</time>
      </trkpt>
      <trkpt lat="45.95005" lon="6.88042">
        <ele>1712</ele>
        <time>2022-08-28T09:42:16Z</time>
      </trkpt>
      <trkpt lat="45.95004" lon="6.88043">
        <ele>1712</ele>
        <time>2022-08-28T09:42:17Z</time>
      </trkpt>
      <trkpt lat="45.95003" lon="6.88044">
        <ele>1712</ele>
        <time>2022-08-28T09:42:18Z</time>
      </trkpt>
      <trkpt lat="45.95002" lon="6.88045">
        <ele>1712</ele>
        <time>2022-08-28T09:42:19Z</time>
      </trkpt>
      <trkpt lat="45.94999" lon="6.88047">
        <ele>1711</ele>
        <time>2022-08-28T09:42:20Z</time>
      </trkpt>
      <trkpt lat="45.94997" lon="6.88049">
        <ele>1711</ele>
        <time>2022-08-28T09:42:22Z</time>
      </trkpt>
      <trkpt lat="45.94994" lon="6.88051">
        <ele>1711</ele>
        <time>2022-08-28T09:42:25Z</time>
      </trkpt>
      <trkpt lat="45.94991" lon="6.88053">
        <ele>1711</ele>
        <time>2022-08-28T09:42:27Z</time>
      </trkpt>
      <trkpt lat="45.94988" lon="6.88055">
        <ele>1711</ele>
        <time>2022-08-28T09:42:28Z</time>
      </trkpt>
      <trkpt lat="45.94986" lon="6.88055">
        <ele>1711</ele>
        <time>2022-08-28T09:42:29Z</time>
      </trkpt>
      <trkpt lat="45.94984" lon="6.88056">
        <ele>1711</ele>
        <time>2022-08-28T09:42:30Z</time>
      </trkpt>
      <trkpt lat="45.94983" lon="6.88056">
        <ele>1710</ele>
        <time>2022-08-28T09:42:31Z</time>
      </trkpt>
      <trkpt lat="45.94981" lon="6.88057">
        <ele>1710</ele>
        <time>2022-08-28T09:42:32Z</time>
      </trkpt>
      <trkpt lat="45.94979" lon="6.88057">
        <ele>1710</ele>
        <time>2022-08-28T09:42:33Z</time>
      </trkpt>
      <trkpt lat="45.94978" lon="6.88059">
        <ele>1710</ele>
        <time>2022-08-28T09:42:34Z</time>
      </trkpt>
      <trkpt lat="45.94976" lon="6.8806">
        <ele>1710</ele>
        <time>2022-08-28T09:42:35Z</time>
      </trkpt>
      <trkpt lat="45.94975" lon="6.88062">
        <ele>1709</ele>
        <time>2022-08-28T09:42:36Z</time>
      </trkpt>
      <trkpt lat="45.94973" lon="6.88063">
        <ele>1709</ele>
        <time>2022-08-28T09:42:38Z</time>
      </trkpt>
      <trkpt lat="45.94972" lon="6.88065">
        <ele>1709</ele>
        <time>2022-08-28T09:42:39Z</time>
      </trkpt>
      <trkpt lat="45.94971" lon="6.88066">
        <ele>1709</ele>
        <time>2022-08-28T09:42:40Z</time>
      </trkpt>
      <trkpt lat="45.9497" lon="6.88068">
        <ele>1709</ele>
        <time>2022-08-28T09:42:41Z</time>
      </trkpt>
      <trkpt lat="45.94969" lon="6.88069">
        <ele>1709</ele>
        <time>2022-08-28T09:42:42Z</time>
      </trkpt>
      <trkpt lat="45.94967" lon="6.88071">
        <ele>1709</ele>
        <time>2022-08-28T09:42:43Z</time>
      </trkpt>
      <trkpt lat="45.9496" lon="6.88082">
        <ele>1708</ele>
        <time>2022-08-28T09:42:48Z</time>
      </trkpt>
      <trkpt lat="45.94956" lon="6.88094">
        <ele>1707</ele>
        <time>2022-08-28T09:42:55Z</time>
      </trkpt>
      <trkpt lat="45.94955" lon="6.88095">
        <ele>1707</ele>
        <time>2022-08-28T09:42:56Z</time>
      </trkpt>
      <trkpt lat="45.94954" lon="6.88097">
        <ele>1707</ele>
        <time>2022-08-28T09:42:57Z</time>
      </trkpt>
      <trkpt lat="45.94953" lon="6.88098">
        <ele>1707</ele>
        <time>2022-08-28T09:42:58Z</time>
      </trkpt>
      <trkpt lat="45.94952" lon="6.881">
        <ele>1707</ele>
        <time>2022-08-28T09:43:00Z</time>
      </trkpt>
      <trkpt lat="45.94951" lon="6.88101">
        <ele>1707</ele>
        <time>2022-08-28T09:43:01Z</time>
      </trkpt>
      <trkpt lat="45.94949" lon="6.88103">
        <ele>1707</ele>
        <time>2022-08-28T09:43:02Z</time>
      </trkpt>
      <trkpt lat="45.94947" lon="6.88104">
        <ele>1707</ele>
        <time>2022-08-28T09:43:03Z</time>
      </trkpt>
      <trkpt lat="45.94945" lon="6.88105">
        <ele>1708</ele>
        <time>2022-08-28T09:43:05Z</time>
      </trkpt>
      <trkpt lat="45.94942" lon="6.88107">
        <ele>1708</ele>
        <time>2022-08-28T09:43:06Z</time>
      </trkpt>
      <trkpt lat="45.9494" lon="6.88108">
        <ele>1708</ele>
        <time>2022-08-28T09:43:07Z</time>
      </trkpt>
      <trkpt lat="45.94937" lon="6.8811">
        <ele>1706</ele>
        <time>2022-08-28T09:43:09Z</time>
      </trkpt>
      <trkpt lat="45.94934" lon="6.88111">
        <ele>1706</ele>
        <time>2022-08-28T09:43:11Z</time>
      </trkpt>
      <trkpt lat="45.9493" lon="6.88113">
        <ele>1706</ele>
        <time>2022-08-28T09:43:12Z</time>
      </trkpt>
      <trkpt lat="45.9493" lon="6.88113">
        <ele>1706</ele>
        <time>2022-08-28T09:43:13Z</time>
      </trkpt>
      <trkpt lat="45.94929" lon="6.88114">
        <ele>1706</ele>
        <time>2022-08-28T09:43:14Z</time>
      </trkpt>
      <trkpt lat="45.94928" lon="6.88115">
        <ele>1706</ele>
        <time>2022-08-28T09:43:16Z</time>
      </trkpt>
      <trkpt lat="45.94927" lon="6.88116">
        <ele>1706</ele>
        <time>2022-08-28T09:43:17Z</time>
      </trkpt>
      <trkpt lat="45.94926" lon="6.88116">
        <ele>1706</ele>
        <time>2022-08-28T09:43:18Z</time>
      </trkpt>
      <trkpt lat="45.9492" lon="6.8812">
        <ele>1706</ele>
        <time>2022-08-28T09:43:19Z</time>
      </trkpt>
      <trkpt lat="45.94918" lon="6.88121">
        <ele>1706</ele>
        <time>2022-08-28T09:43:21Z</time>
      </trkpt>
      <trkpt lat="45.94915" lon="6.88121">
        <ele>1706</ele>
        <time>2022-08-28T09:43:22Z</time>
      </trkpt>
      <trkpt lat="45.94913" lon="6.88121">
        <ele>1706</ele>
        <time>2022-08-28T09:43:24Z</time>
      </trkpt>
      <trkpt lat="45.94909" lon="6.88119">
        <ele>1706</ele>
        <time>2022-08-28T09:43:26Z</time>
      </trkpt>
      <trkpt lat="45.94907" lon="6.88119">
        <ele>1705</ele>
        <time>2022-08-28T09:43:28Z</time>
      </trkpt>
      <trkpt lat="45.94905" lon="6.88118">
        <ele>1705</ele>
        <time>2022-08-28T09:43:29Z</time>
      </trkpt>
      <trkpt lat="45.94903" lon="6.88117">
        <ele>1705</ele>
        <time>2022-08-28T09:43:30Z</time>
      </trkpt>
      <trkpt lat="45.94902" lon="6.88117">
        <ele>1705</ele>
        <time>2022-08-28T09:43:31Z</time>
      </trkpt>
      <trkpt lat="45.94899" lon="6.88115">
        <ele>1705</ele>
        <time>2022-08-28T09:43:33Z</time>
      </trkpt>
      <trkpt lat="45.94896" lon="6.88115">
        <ele>1705</ele>
        <time>2022-08-28T09:43:34Z</time>
      </trkpt>
      <trkpt lat="45.94894" lon="6.88114">
        <ele>1704</ele>
        <time>2022-08-28T09:43:36Z</time>
      </trkpt>
      <trkpt lat="45.94891" lon="6.88114">
        <ele>1704</ele>
        <time>2022-08-28T09:43:37Z</time>
      </trkpt>
      <trkpt lat="45.94889" lon="6.88114">
        <ele>1704</ele>
        <time>2022-08-28T09:43:38Z</time>
      </trkpt>
      <trkpt lat="45.9488" lon="6.8811">
        <ele>1703</ele>
        <time>2022-08-28T09:43:45Z</time>
      </trkpt>
      <trkpt lat="45.94879" lon="6.88109">
        <ele>1703</ele>
        <time>2022-08-28T09:43:46Z</time>
      </trkpt>
      <trkpt lat="45.94879" lon="6.88108">
        <ele>1702</ele>
        <time>2022-08-28T09:43:48Z</time>
      </trkpt>
      <trkpt lat="45.94879" lon="6.88107">
        <ele>1702</ele>
        <time>2022-08-28T09:43:49Z</time>
      </trkpt>
      <trkpt lat="45.94878" lon="6.88106">
        <ele>1702</ele>
        <time>2022-08-28T09:43:50Z</time>
      </trkpt>
      <trkpt lat="45.94878" lon="6.88106">
        <ele>1702</ele>
        <time>2022-08-28T09:43:51Z</time>
      </trkpt>
      <trkpt lat="45.94874" lon="6.88095">
        <ele>1702</ele>
        <time>2022-08-28T09:43:53Z</time>
      </trkpt>
      <trkpt lat="45.94873" lon="6.88093">
        <ele>1702</ele>
        <time>2022-08-28T09:43:54Z</time>
      </trkpt>
      <trkpt lat="45.94873" lon="6.88091">
        <ele>1702</ele>
        <time>2022-08-28T09:43:55Z</time>
      </trkpt>
      <trkpt lat="45.94872" lon="6.88089">
        <ele>1702</ele>
        <time>2022-08-28T09:43:56Z</time>
      </trkpt>
      <trkpt lat="45.94872" lon="6.88087">
        <ele>1702</ele>
        <time>2022-08-28T09:43:58Z</time>
      </trkpt>
      <trkpt lat="45.94871" lon="6.88085">
        <ele>1702</ele>
        <time>2022-08-28T09:43:59Z</time>
      </trkpt>
      <trkpt lat="45.94871" lon="6.88083">
        <ele>1702</ele>
        <time>2022-08-28T09:44:00Z</time>
      </trkpt>
      <trkpt lat="45.9487" lon="6.88082">
        <ele>1702</ele>
        <time>2022-08-28T09:44:01Z</time>
      </trkpt>
      <trkpt lat="45.94868" lon="6.88081">
        <ele>1702</ele>
        <time>2022-08-28T09:44:03Z</time>
      </trkpt>
      <trkpt lat="45.94867" lon="6.8808">
        <ele>1702</ele>
        <time>2022-08-28T09:44:04Z</time>
      </trkpt>
      <trkpt lat="45.94866" lon="6.88079">
        <ele>1702</ele>
        <time>2022-08-28T09:44:05Z</time>
      </trkpt>
      <trkpt lat="45.94864" lon="6.88079">
        <ele>1702</ele>
        <time>2022-08-28T09:44:06Z</time>
      </trkpt>
      <trkpt lat="45.94863" lon="6.88078">
        <ele>1702</ele>
        <time>2022-08-28T09:44:07Z</time>
      </trkpt>
      <trkpt lat="45.94862" lon="6.88077">
        <ele>1702</ele>
        <time>2022-08-28T09:44:08Z</time>
      </trkpt>
      <trkpt lat="45.94861" lon="6.88075">
        <ele>1701</ele>
        <time>2022-08-28T09:44:09Z</time>
      </trkpt>
      <trkpt lat="45.94861" lon="6.88073">
        <ele>1701</ele>
        <time>2022-08-28T09:44:11Z</time>
      </trkpt>
      <trkpt lat="45.94861" lon="6.88071">
        <ele>1700</ele>
        <time>2022-08-28T09:44:12Z</time>
      </trkpt>
      <trkpt lat="45.94861" lon="6.88069">
        <ele>1700</ele>
        <time>2022-08-28T09:44:13Z</time>
      </trkpt>
      <trkpt lat="45.94859" lon="6.88059">
        <ele>1700</ele>
        <time>2022-08-28T09:44:14Z</time>
      </trkpt>
      <trkpt lat="45.94858" lon="6.88056">
        <ele>1700</ele>
        <time>2022-08-28T09:44:16Z</time>
      </trkpt>
      <trkpt lat="45.94858" lon="6.88053">
        <ele>1700</ele>
        <time>2022-08-28T09:44:17Z</time>
      </trkpt>
      <trkpt lat="45.94857" lon="6.8805">
        <ele>1700</ele>
        <time>2022-08-28T09:44:18Z</time>
      </trkpt>
      <trkpt lat="45.94857" lon="6.88048">
        <ele>1700</ele>
        <time>2022-08-28T09:44:19Z</time>
      </trkpt>
      <trkpt lat="45.94854" lon="6.88045">
        <ele>1699</ele>
        <time>2022-08-28T09:44:21Z</time>
      </trkpt>
      <trkpt lat="45.94851" lon="6.88042">
        <ele>1699</ele>
        <time>2022-08-28T09:44:23Z</time>
      </trkpt>
      <trkpt lat="45.94849" lon="6.8804">
        <ele>1698</ele>
        <time>2022-08-28T09:44:24Z</time>
      </trkpt>
      <trkpt lat="45.94847" lon="6.88038">
        <ele>1698</ele>
        <time>2022-08-28T09:44:25Z</time>
      </trkpt>
      <trkpt lat="45.94846" lon="6.88036">
        <ele>1698</ele>
        <time>2022-08-28T09:44:26Z</time>
      </trkpt>
      <trkpt lat="45.94844" lon="6.88035">
        <ele>1698</ele>
        <time>2022-08-28T09:44:28Z</time>
      </trkpt>
      <trkpt lat="45.94843" lon="6.88033">
        <ele>1697</ele>
        <time>2022-08-28T09:44:29Z</time>
      </trkpt>
      <trkpt lat="45.94841" lon="6.88031">
        <ele>1697</ele>
        <time>2022-08-28T09:44:30Z</time>
      </trkpt>
      <trkpt lat="45.9484" lon="6.88031">
        <ele>1697</ele>
        <time>2022-08-28T09:44:31Z</time>
      </trkpt>
      <trkpt lat="45.94838" lon="6.8803">
        <ele>1697</ele>
        <time>2022-08-28T09:44:32Z</time>
      </trkpt>
      <trkpt lat="45.94837" lon="6.88029">
        <ele>1697</ele>
        <time>2022-08-28T09:44:33Z</time>
      </trkpt>
      <trkpt lat="45.94834" lon="6.8803">
        <ele>1697</ele>
        <time>2022-08-28T09:44:35Z</time>
      </trkpt>
      <trkpt lat="45.94832" lon="6.88029">
        <ele>1697</ele>
        <time>2022-08-28T09:44:37Z</time>
      </trkpt>
      <trkpt lat="45.94826" lon="6.88025">
        <ele>1696</ele>
        <time>2022-08-28T09:44:42Z</time>
      </trkpt>
      <trkpt lat="45.94822" lon="6.88023">
        <ele>1696</ele>
        <time>2022-08-28T09:44:44Z</time>
      </trkpt>
      <trkpt lat="45.9482" lon="6.88023">
        <ele>1695</ele>
        <time>2022-08-28T09:44:46Z</time>
      </trkpt>
      <trkpt lat="45.94819" lon="6.88022">
        <ele>1695</ele>
        <time>2022-08-28T09:44:47Z</time>
      </trkpt>
      <trkpt lat="45.94818" lon="6.88022">
        <ele>1695</ele>
        <time>2022-08-28T09:44:48Z</time>
      </trkpt>
      <trkpt lat="45.94814" lon="6.88022">
        <ele>1695</ele>
        <time>2022-08-28T09:44:50Z</time>
      </trkpt>
      <trkpt lat="45.94811" lon="6.88019">
        <ele>1694</ele>
        <time>2022-08-28T09:44:52Z</time>
      </trkpt>
      <trkpt lat="45.9481" lon="6.88017">
        <ele>1694</ele>
        <time>2022-08-28T09:44:53Z</time>
      </trkpt>
      <trkpt lat="45.94809" lon="6.88015">
        <ele>1694</ele>
        <time>2022-08-28T09:44:54Z</time>
      </trkpt>
      <trkpt lat="45.94807" lon="6.88013">
        <ele>1694</ele>
        <time>2022-08-28T09:44:56Z</time>
      </trkpt>
      <trkpt lat="45.94806" lon="6.88011">
        <ele>1694</ele>
        <time>2022-08-28T09:44:57Z</time>
      </trkpt>
      <trkpt lat="45.94805" lon="6.88009">
        <ele>1693</ele>
        <time>2022-08-28T09:44:58Z</time>
      </trkpt>
      <trkpt lat="45.94803" lon="6.88007">
        <ele>1692</ele>
        <time>2022-08-28T09:44:59Z</time>
      </trkpt>
      <trkpt lat="45.94801" lon="6.88004">
        <ele>1692</ele>
        <time>2022-08-28T09:45:01Z</time>
      </trkpt>
      <trkpt lat="45.94799" lon="6.88001">
        <ele>1692</ele>
        <time>2022-08-28T09:45:03Z</time>
      </trkpt>
      <trkpt lat="45.94797" lon="6.87999">
        <ele>1692</ele>
        <time>2022-08-28T09:45:04Z</time>
      </trkpt>
      <trkpt lat="45.94796" lon="6.87998">
        <ele>1692</ele>
        <time>2022-08-28T09:45:05Z</time>
      </trkpt>
      <trkpt lat="45.94796" lon="6.87996">
        <ele>1691</ele>
        <time>2022-08-28T09:45:06Z</time>
      </trkpt>
      <trkpt lat="45.94795" lon="6.87995">
        <ele>1691</ele>
        <time>2022-08-28T09:45:07Z</time>
      </trkpt>
      <trkpt lat="45.94794" lon="6.87994">
        <ele>1691</ele>
        <time>2022-08-28T09:45:08Z</time>
      </trkpt>
      <trkpt lat="45.94793" lon="6.87992">
        <ele>1691</ele>
        <time>2022-08-28T09:45:09Z</time>
      </trkpt>
      <trkpt lat="45.94792" lon="6.8799">
        <ele>1691</ele>
        <time>2022-08-28T09:45:11Z</time>
      </trkpt>
      <trkpt lat="45.9479" lon="6.87987">
        <ele>1691</ele>
        <time>2022-08-28T09:45:12Z</time>
      </trkpt>
      <trkpt lat="45.94789" lon="6.87984">
        <ele>1691</ele>
        <time>2022-08-28T09:45:13Z</time>
      </trkpt>
      <trkpt lat="45.94787" lon="6.87981">
        <ele>1691</ele>
        <time>2022-08-28T09:45:14Z</time>
      </trkpt>
      <trkpt lat="45.94786" lon="6.87979">
        <ele>1690</ele>
        <time>2022-08-28T09:45:16Z</time>
      </trkpt>
      <trkpt lat="45.94785" lon="6.87977">
        <ele>1690</ele>
        <time>2022-08-28T09:45:17Z</time>
      </trkpt>
      <trkpt lat="45.94784" lon="6.87974">
        <ele>1689</ele>
        <time>2022-08-28T09:45:18Z</time>
      </trkpt>
      <trkpt lat="45.94782" lon="6.87972">
        <ele>1689</ele>
        <time>2022-08-28T09:45:19Z</time>
      </trkpt>
      <trkpt lat="45.94781" lon="6.8797">
        <ele>1688</ele>
        <time>2022-08-28T09:45:20Z</time>
      </trkpt>
      <trkpt lat="45.94778" lon="6.87955">
        <ele>1688</ele>
        <time>2022-08-28T09:45:24Z</time>
      </trkpt>
      <trkpt lat="45.94778" lon="6.87952">
        <ele>1688</ele>
        <time>2022-08-28T09:45:25Z</time>
      </trkpt>
      <trkpt lat="45.94778" lon="6.8795">
        <ele>1688</ele>
        <time>2022-08-28T09:45:26Z</time>
      </trkpt>
      <trkpt lat="45.94778" lon="6.87947">
        <ele>1688</ele>
        <time>2022-08-28T09:45:27Z</time>
      </trkpt>
      <trkpt lat="45.94778" lon="6.87944">
        <ele>1688</ele>
        <time>2022-08-28T09:45:29Z</time>
      </trkpt>
      <trkpt lat="45.94778" lon="6.87942">
        <ele>1688</ele>
        <time>2022-08-28T09:45:30Z</time>
      </trkpt>
      <trkpt lat="45.94778" lon="6.87939">
        <ele>1687</ele>
        <time>2022-08-28T09:45:31Z</time>
      </trkpt>
      <trkpt lat="45.94778" lon="6.87936">
        <ele>1687</ele>
        <time>2022-08-28T09:45:32Z</time>
      </trkpt>
      <trkpt lat="45.94778" lon="6.87934">
        <ele>1687</ele>
        <time>2022-08-28T09:45:34Z</time>
      </trkpt>
      <trkpt lat="45.94779" lon="6.87931">
        <ele>1687</ele>
        <time>2022-08-28T09:45:35Z</time>
      </trkpt>
      <trkpt lat="45.94779" lon="6.87928">
        <ele>1686</ele>
        <time>2022-08-28T09:45:36Z</time>
      </trkpt>
      <trkpt lat="45.94778" lon="6.87925">
        <ele>1686</ele>
        <time>2022-08-28T09:45:37Z</time>
      </trkpt>
      <trkpt lat="45.94778" lon="6.87922">
        <ele>1686</ele>
        <time>2022-08-28T09:45:39Z</time>
      </trkpt>
      <trkpt lat="45.94777" lon="6.87918">
        <ele>1686</ele>
        <time>2022-08-28T09:45:40Z</time>
      </trkpt>
      <trkpt lat="45.94777" lon="6.87915">
        <ele>1686</ele>
        <time>2022-08-28T09:45:41Z</time>
      </trkpt>
      <trkpt lat="45.94775" lon="6.87915">
        <ele>1685</ele>
        <time>2022-08-28T09:45:43Z</time>
      </trkpt>
      <trkpt lat="45.94774" lon="6.87915">
        <ele>1685</ele>
        <time>2022-08-28T09:45:44Z</time>
      </trkpt>
      <trkpt lat="45.94772" lon="6.87915">
        <ele>1685</ele>
        <time>2022-08-28T09:45:45Z</time>
      </trkpt>
      <trkpt lat="45.94771" lon="6.87915">
        <ele>1685</ele>
        <time>2022-08-28T09:45:46Z</time>
      </trkpt>
      <trkpt lat="45.94769" lon="6.87915">
        <ele>1685</ele>
        <time>2022-08-28T09:45:47Z</time>
      </trkpt>
      <trkpt lat="45.94768" lon="6.87915">
        <ele>1685</ele>
        <time>2022-08-28T09:45:48Z</time>
      </trkpt>
      <trkpt lat="45.94766" lon="6.87915">
        <ele>1685</ele>
        <time>2022-08-28T09:45:49Z</time>
      </trkpt>
      <trkpt lat="45.94765" lon="6.87915">
        <ele>1685</ele>
        <time>2022-08-28T09:45:50Z</time>
      </trkpt>
      <trkpt lat="45.94763" lon="6.87916">
        <ele>1684</ele>
        <time>2022-08-28T09:45:51Z</time>
      </trkpt>
      <trkpt lat="45.94761" lon="6.87916">
        <ele>1684</ele>
        <time>2022-08-28T09:45:53Z</time>
      </trkpt>
      <trkpt lat="45.9476" lon="6.87916">
        <ele>1684</ele>
        <time>2022-08-28T09:45:54Z</time>
      </trkpt>
      <trkpt lat="45.94758" lon="6.87917">
        <ele>1683</ele>
        <time>2022-08-28T09:45:55Z</time>
      </trkpt>
      <trkpt lat="45.94756" lon="6.87915">
        <ele>1683</ele>
        <time>2022-08-28T09:45:56Z</time>
      </trkpt>
      <trkpt lat="45.94754" lon="6.87914">
        <ele>1683</ele>
        <time>2022-08-28T09:45:58Z</time>
      </trkpt>
      <trkpt lat="45.94752" lon="6.87912">
        <ele>1683</ele>
        <time>2022-08-28T09:46:00Z</time>
      </trkpt>
      <trkpt lat="45.94749" lon="6.8791">
        <ele>1683</ele>
        <time>2022-08-28T09:46:01Z</time>
      </trkpt>
      <trkpt lat="45.94748" lon="6.87909">
        <ele>1683</ele>
        <time>2022-08-28T09:46:02Z</time>
      </trkpt>
      <trkpt lat="45.94746" lon="6.87907">
        <ele>1682</ele>
        <time>2022-08-28T09:46:03Z</time>
      </trkpt>
      <trkpt lat="45.94745" lon="6.87905">
        <ele>1682</ele>
        <time>2022-08-28T09:46:05Z</time>
      </trkpt>
      <trkpt lat="45.94743" lon="6.87903">
        <ele>1682</ele>
        <time>2022-08-28T09:46:06Z</time>
      </trkpt>
      <trkpt lat="45.94742" lon="6.87902">
        <ele>1682</ele>
        <time>2022-08-28T09:46:07Z</time>
      </trkpt>
      <trkpt lat="45.9474" lon="6.879">
        <ele>1682</ele>
        <time>2022-08-28T09:46:08Z</time>
      </trkpt>
      <trkpt lat="45.94738" lon="6.87899">
        <ele>1682</ele>
        <time>2022-08-28T09:46:09Z</time>
      </trkpt>
      <trkpt lat="45.94736" lon="6.87898">
        <ele>1682</ele>
        <time>2022-08-28T09:46:10Z</time>
      </trkpt>
      <trkpt lat="45.94735" lon="6.87898">
        <ele>1682</ele>
        <time>2022-08-28T09:46:11Z</time>
      </trkpt>
      <trkpt lat="45.94733" lon="6.87897">
        <ele>1682</ele>
        <time>2022-08-28T09:46:13Z</time>
      </trkpt>
      <trkpt lat="45.94731" lon="6.87896">
        <ele>1682</ele>
        <time>2022-08-28T09:46:14Z</time>
      </trkpt>
      <trkpt lat="45.9473" lon="6.87895">
        <ele>1682</ele>
        <time>2022-08-28T09:46:15Z</time>
      </trkpt>
      <trkpt lat="45.94728" lon="6.87895">
        <ele>1682</ele>
        <time>2022-08-28T09:46:16Z</time>
      </trkpt>
      <trkpt lat="45.94726" lon="6.87894">
        <ele>1681</ele>
        <time>2022-08-28T09:46:17Z</time>
      </trkpt>
      <trkpt lat="45.94724" lon="6.87893">
        <ele>1680</ele>
        <time>2022-08-28T09:46:19Z</time>
      </trkpt>
      <trkpt lat="45.94722" lon="6.87891">
        <ele>1680</ele>
        <time>2022-08-28T09:46:21Z</time>
      </trkpt>
      <trkpt lat="45.94719" lon="6.8789">
        <ele>1680</ele>
        <time>2022-08-28T09:46:22Z</time>
      </trkpt>
      <trkpt lat="45.94717" lon="6.87888">
        <ele>1680</ele>
        <time>2022-08-28T09:46:23Z</time>
      </trkpt>
      <trkpt lat="45.94716" lon="6.87888">
        <ele>1680</ele>
        <time>2022-08-28T09:46:24Z</time>
      </trkpt>
      <trkpt lat="45.94716" lon="6.87887">
        <ele>1680</ele>
        <time>2022-08-28T09:46:26Z</time>
      </trkpt>
      <trkpt lat="45.94715" lon="6.87886">
        <ele>1680</ele>
        <time>2022-08-28T09:46:27Z</time>
      </trkpt>
      <trkpt lat="45.94715" lon="6.87886">
        <ele>1680</ele>
        <time>2022-08-28T09:46:28Z</time>
      </trkpt>
      <trkpt lat="45.94714" lon="6.87885">
        <ele>1680</ele>
        <time>2022-08-28T09:46:29Z</time>
      </trkpt>
      <trkpt lat="45.94708" lon="6.87876">
        <ele>1680</ele>
        <time>2022-08-28T09:46:31Z</time>
      </trkpt>
      <trkpt lat="45.94707" lon="6.87874">
        <ele>1680</ele>
        <time>2022-08-28T09:46:32Z</time>
      </trkpt>
      <trkpt lat="45.94706" lon="6.87872">
        <ele>1679</ele>
        <time>2022-08-28T09:46:33Z</time>
      </trkpt>
      <trkpt lat="45.94706" lon="6.8787">
        <ele>1679</ele>
        <time>2022-08-28T09:46:34Z</time>
      </trkpt>
      <trkpt lat="45.94705" lon="6.87868">
        <ele>1679</ele>
        <time>2022-08-28T09:46:35Z</time>
      </trkpt>
      <trkpt lat="45.94704" lon="6.87866">
        <ele>1679</ele>
        <time>2022-08-28T09:46:36Z</time>
      </trkpt>
      <trkpt lat="45.94703" lon="6.87865">
        <ele>1679</ele>
        <time>2022-08-28T09:46:37Z</time>
      </trkpt>
      <trkpt lat="45.94702" lon="6.87864">
        <ele>1678</ele>
        <time>2022-08-28T09:46:39Z</time>
      </trkpt>
      <trkpt lat="45.94701" lon="6.87862">
        <ele>1678</ele>
        <time>2022-08-28T09:46:40Z</time>
      </trkpt>
      <trkpt lat="45.947" lon="6.87861">
        <ele>1678</ele>
        <time>2022-08-28T09:46:41Z</time>
      </trkpt>
      <trkpt lat="45.94699" lon="6.8786">
        <ele>1678</ele>
        <time>2022-08-28T09:46:42Z</time>
      </trkpt>
      <trkpt lat="45.94698" lon="6.87859">
        <ele>1678</ele>
        <time>2022-08-28T09:46:43Z</time>
      </trkpt>
      <trkpt lat="45.94697" lon="6.87857">
        <ele>1678</ele>
        <time>2022-08-28T09:46:44Z</time>
      </trkpt>
      <trkpt lat="45.94695" lon="6.87858">
        <ele>1678</ele>
        <time>2022-08-28T09:46:45Z</time>
      </trkpt>
      <trkpt lat="45.94694" lon="6.87858">
        <ele>1677</ele>
        <time>2022-08-28T09:46:46Z</time>
      </trkpt>
      <trkpt lat="45.94692" lon="6.87858">
        <ele>1677</ele>
        <time>2022-08-28T09:46:47Z</time>
      </trkpt>
      <trkpt lat="45.9469" lon="6.87859">
        <ele>1677</ele>
        <time>2022-08-28T09:46:49Z</time>
      </trkpt>
      <trkpt lat="45.94689" lon="6.87859">
        <ele>1677</ele>
        <time>2022-08-28T09:46:50Z</time>
      </trkpt>
      <trkpt lat="45.94687" lon="6.8786">
        <ele>1677</ele>
        <time>2022-08-28T09:46:51Z</time>
      </trkpt>
      <trkpt lat="45.94685" lon="6.8786">
        <ele>1677</ele>
        <time>2022-08-28T09:46:52Z</time>
      </trkpt>
      <trkpt lat="45.94683" lon="6.87861">
        <ele>1677</ele>
        <time>2022-08-28T09:46:54Z</time>
      </trkpt>
      <trkpt lat="45.94681" lon="6.87862">
        <ele>1677</ele>
        <time>2022-08-28T09:46:55Z</time>
      </trkpt>
      <trkpt lat="45.94679" lon="6.87862">
        <ele>1677</ele>
        <time>2022-08-28T09:46:56Z</time>
      </trkpt>
      <trkpt lat="45.94676" lon="6.87862">
        <ele>1677</ele>
        <time>2022-08-28T09:46:57Z</time>
      </trkpt>
      <trkpt lat="45.94674" lon="6.87863">
        <ele>1677</ele>
        <time>2022-08-28T09:46:59Z</time>
      </trkpt>
      <trkpt lat="45.94671" lon="6.87863">
        <ele>1677</ele>
        <time>2022-08-28T09:47:00Z</time>
      </trkpt>
      <trkpt lat="45.94669" lon="6.87863">
        <ele>1677</ele>
        <time>2022-08-28T09:47:01Z</time>
      </trkpt>
      <trkpt lat="45.94668" lon="6.87861">
        <ele>1677</ele>
        <time>2022-08-28T09:47:02Z</time>
      </trkpt>
      <trkpt lat="45.94667" lon="6.8786">
        <ele>1677</ele>
        <time>2022-08-28T09:47:04Z</time>
      </trkpt>
      <trkpt lat="45.94666" lon="6.87859">
        <ele>1676</ele>
        <time>2022-08-28T09:47:05Z</time>
      </trkpt>
      <trkpt lat="45.94666" lon="6.87857">
        <ele>1676</ele>
        <time>2022-08-28T09:47:06Z</time>
      </trkpt>
      <trkpt lat="45.94661" lon="6.87849">
        <ele>1676</ele>
        <time>2022-08-28T09:47:07Z</time>
      </trkpt>
      <trkpt lat="45.9466" lon="6.87846">
        <ele>1675</ele>
        <time>2022-08-28T09:47:09Z</time>
      </trkpt>
      <trkpt lat="45.94659" lon="6.87844">
        <ele>1675</ele>
        <time>2022-08-28T09:47:11Z</time>
      </trkpt>
      <trkpt lat="45.94659" lon="6.87841">
        <ele>1675</ele>
        <time>2022-08-28T09:47:12Z</time>
      </trkpt>
      <trkpt lat="45.94658" lon="6.87839">
        <ele>1675</ele>
        <time>2022-08-28T09:47:13Z</time>
      </trkpt>
      <trkpt lat="45.94656" lon="6.87837">
        <ele>1675</ele>
        <time>2022-08-28T09:47:14Z</time>
      </trkpt>
      <trkpt lat="45.94655" lon="6.87836">
        <ele>1674</ele>
        <time>2022-08-28T09:47:15Z</time>
      </trkpt>
      <trkpt lat="45.94654" lon="6.87834">
        <ele>1674</ele>
        <time>2022-08-28T09:47:16Z</time>
      </trkpt>
      <trkpt lat="45.94652" lon="6.87833">
        <ele>1673</ele>
        <time>2022-08-28T09:47:17Z</time>
      </trkpt>
      <trkpt lat="45.94651" lon="6.87831">
        <ele>1673</ele>
        <time>2022-08-28T09:47:18Z</time>
      </trkpt>
      <trkpt lat="45.9465" lon="6.8783">
        <ele>1673</ele>
        <time>2022-08-28T09:47:19Z</time>
      </trkpt>
      <trkpt lat="45.94648" lon="6.87829">
        <ele>1673</ele>
        <time>2022-08-28T09:47:21Z</time>
      </trkpt>
      <trkpt lat="45.94645" lon="6.87828">
        <ele>1673</ele>
        <time>2022-08-28T09:47:22Z</time>
      </trkpt>
      <trkpt lat="45.94643" lon="6.87827">
        <ele>1673</ele>
        <time>2022-08-28T09:47:23Z</time>
      </trkpt>
      <trkpt lat="45.94641" lon="6.87826">
        <ele>1673</ele>
        <time>2022-08-28T09:47:24Z</time>
      </trkpt>
      <trkpt lat="45.94638" lon="6.87825">
        <ele>1673</ele>
        <time>2022-08-28T09:47:26Z</time>
      </trkpt>
      <trkpt lat="45.94636" lon="6.87824">
        <ele>1673</ele>
        <time>2022-08-28T09:47:27Z</time>
      </trkpt>
      <trkpt lat="45.94634" lon="6.87823">
        <ele>1673</ele>
        <time>2022-08-28T09:47:28Z</time>
      </trkpt>
      <trkpt lat="45.94631" lon="6.87822">
        <ele>1672</ele>
        <time>2022-08-28T09:47:29Z</time>
      </trkpt>
      <trkpt lat="45.94626" lon="6.87818">
        <ele>1672</ele>
        <time>2022-08-28T09:47:33Z</time>
      </trkpt>
      <trkpt lat="45.94623" lon="6.87816">
        <ele>1671</ele>
        <time>2022-08-28T09:47:35Z</time>
      </trkpt>
      <trkpt lat="45.94622" lon="6.87815">
        <ele>1671</ele>
        <time>2022-08-28T09:47:37Z</time>
      </trkpt>
      <trkpt lat="45.94621" lon="6.87814">
        <ele>1671</ele>
        <time>2022-08-28T09:47:38Z</time>
      </trkpt>
      <trkpt lat="45.9462" lon="6.87813">
        <ele>1671</ele>
        <time>2022-08-28T09:47:39Z</time>
      </trkpt>
      <trkpt lat="45.9462" lon="6.87812">
        <ele>1671</ele>
        <time>2022-08-28T09:47:40Z</time>
      </trkpt>
      <trkpt lat="45.94619" lon="6.87811">
        <ele>1671</ele>
        <time>2022-08-28T09:47:41Z</time>
      </trkpt>
      <trkpt lat="45.94617" lon="6.87808">
        <ele>1671</ele>
        <time>2022-08-28T09:47:42Z</time>
      </trkpt>
      <trkpt lat="45.94616" lon="6.87806">
        <ele>1670</ele>
        <time>2022-08-28T09:47:43Z</time>
      </trkpt>
      <trkpt lat="45.94614" lon="6.87805">
        <ele>1670</ele>
        <time>2022-08-28T09:47:44Z</time>
      </trkpt>
      <trkpt lat="45.94613" lon="6.87803">
        <ele>1670</ele>
        <time>2022-08-28T09:47:45Z</time>
      </trkpt>
      <trkpt lat="45.94612" lon="6.87801">
        <ele>1670</ele>
        <time>2022-08-28T09:47:46Z</time>
      </trkpt>
      <trkpt lat="45.9461" lon="6.878">
        <ele>1670</ele>
        <time>2022-08-28T09:47:47Z</time>
      </trkpt>
      <trkpt lat="45.94608" lon="6.87798">
        <ele>1670</ele>
        <time>2022-08-28T09:47:48Z</time>
      </trkpt>
      <trkpt lat="45.94607" lon="6.87797">
        <ele>1669</ele>
        <time>2022-08-28T09:47:49Z</time>
      </trkpt>
      <trkpt lat="45.94605" lon="6.87796">
        <ele>1669</ele>
        <time>2022-08-28T09:47:50Z</time>
      </trkpt>
      <trkpt lat="45.94602" lon="6.87794">
        <ele>1669</ele>
        <time>2022-08-28T09:47:52Z</time>
      </trkpt>
      <trkpt lat="45.94599" lon="6.87791">
        <ele>1669</ele>
        <time>2022-08-28T09:47:54Z</time>
      </trkpt>
      <trkpt lat="45.94596" lon="6.87789">
        <ele>1669</ele>
        <time>2022-08-28T09:47:56Z</time>
      </trkpt>
      <trkpt lat="45.94595" lon="6.87784">
        <ele>1669</ele>
        <time>2022-08-28T09:47:58Z</time>
      </trkpt>
      <trkpt lat="45.94595" lon="6.87782">
        <ele>1669</ele>
        <time>2022-08-28T09:47:59Z</time>
      </trkpt>
      <trkpt lat="45.94595" lon="6.87779">
        <ele>1669</ele>
        <time>2022-08-28T09:48:00Z</time>
      </trkpt>
      <trkpt lat="45.94595" lon="6.87776">
        <ele>1669</ele>
        <time>2022-08-28T09:48:01Z</time>
      </trkpt>
      <trkpt lat="45.94596" lon="6.87772">
        <ele>1669</ele>
        <time>2022-08-28T09:48:03Z</time>
      </trkpt>
      <trkpt lat="45.94596" lon="6.8777">
        <ele>1669</ele>
        <time>2022-08-28T09:48:05Z</time>
      </trkpt>
      <trkpt lat="45.94596" lon="6.87767">
        <ele>1668</ele>
        <time>2022-08-28T09:48:07Z</time>
      </trkpt>
      <trkpt lat="45.94596" lon="6.87764">
        <ele>1668</ele>
        <time>2022-08-28T09:48:08Z</time>
      </trkpt>
      <trkpt lat="45.94596" lon="6.87761">
        <ele>1667</ele>
        <time>2022-08-28T09:48:09Z</time>
      </trkpt>
      <trkpt lat="45.94596" lon="6.87758">
        <ele>1667</ele>
        <time>2022-08-28T09:48:11Z</time>
      </trkpt>
      <trkpt lat="45.94596" lon="6.87755">
        <ele>1667</ele>
        <time>2022-08-28T09:48:12Z</time>
      </trkpt>
      <trkpt lat="45.94595" lon="6.87752">
        <ele>1667</ele>
        <time>2022-08-28T09:48:13Z</time>
      </trkpt>
      <trkpt lat="45.94595" lon="6.8775">
        <ele>1667</ele>
        <time>2022-08-28T09:48:14Z</time>
      </trkpt>
      <trkpt lat="45.94594" lon="6.87747">
        <ele>1667</ele>
        <time>2022-08-28T09:48:15Z</time>
      </trkpt>
      <trkpt lat="45.94594" lon="6.87745">
        <ele>1667</ele>
        <time>2022-08-28T09:48:16Z</time>
      </trkpt>
      <trkpt lat="45.94593" lon="6.87742">
        <ele>1666</ele>
        <time>2022-08-28T09:48:17Z</time>
      </trkpt>
      <trkpt lat="45.94593" lon="6.87741">
        <ele>1666</ele>
        <time>2022-08-28T09:48:19Z</time>
      </trkpt>
      <trkpt lat="45.94592" lon="6.8774">
        <ele>1666</ele>
        <time>2022-08-28T09:48:20Z</time>
      </trkpt>
      <trkpt lat="45.94592" lon="6.87739">
        <ele>1666</ele>
        <time>2022-08-28T09:48:21Z</time>
      </trkpt>
      <trkpt lat="45.94591" lon="6.87738">
        <ele>1666</ele>
        <time>2022-08-28T09:48:22Z</time>
      </trkpt>
      <trkpt lat="45.94586" lon="6.87727">
        <ele>1665</ele>
        <time>2022-08-28T09:48:24Z</time>
      </trkpt>
      <trkpt lat="45.94585" lon="6.87725">
        <ele>1665</ele>
        <time>2022-08-28T09:48:25Z</time>
      </trkpt>
      <trkpt lat="45.94584" lon="6.87724">
        <ele>1664</ele>
        <time>2022-08-28T09:48:26Z</time>
      </trkpt>
      <trkpt lat="45.94582" lon="6.87722">
        <ele>1663</ele>
        <time>2022-08-28T09:48:27Z</time>
      </trkpt>
      <trkpt lat="45.94581" lon="6.8772">
        <ele>1663</ele>
        <time>2022-08-28T09:48:29Z</time>
      </trkpt>
      <trkpt lat="45.9458" lon="6.87719">
        <ele>1663</ele>
        <time>2022-08-28T09:48:30Z</time>
      </trkpt>
      <trkpt lat="45.94569" lon="6.87716">
        <ele>1662</ele>
        <time>2022-08-28T09:48:34Z</time>
      </trkpt>
      <trkpt lat="45.94567" lon="6.87717">
        <ele>1662</ele>
        <time>2022-08-28T09:48:35Z</time>
      </trkpt>
      <trkpt lat="45.94566" lon="6.87718">
        <ele>1662</ele>
        <time>2022-08-28T09:48:36Z</time>
      </trkpt>
      <trkpt lat="45.94564" lon="6.87719">
        <ele>1662</ele>
        <time>2022-08-28T09:48:37Z</time>
      </trkpt>
      <trkpt lat="45.94562" lon="6.8772">
        <ele>1661</ele>
        <time>2022-08-28T09:48:39Z</time>
      </trkpt>
      <trkpt lat="45.94561" lon="6.87721">
        <ele>1661</ele>
        <time>2022-08-28T09:48:40Z</time>
      </trkpt>
      <trkpt lat="45.9455" lon="6.87722">
        <ele>1659</ele>
        <time>2022-08-28T09:48:45Z</time>
      </trkpt>
      <trkpt lat="45.94547" lon="6.87722">
        <ele>1659</ele>
        <time>2022-08-28T09:48:47Z</time>
      </trkpt>
      <trkpt lat="45.94544" lon="6.87722">
        <ele>1658</ele>
        <time>2022-08-28T09:48:49Z</time>
      </trkpt>
      <trkpt lat="45.94541" lon="6.87722">
        <ele>1657</ele>
        <time>2022-08-28T09:48:50Z</time>
      </trkpt>
      <trkpt lat="45.94539" lon="6.87721">
        <ele>1657</ele>
        <time>2022-08-28T09:48:51Z</time>
      </trkpt>
      <trkpt lat="45.94537" lon="6.8772">
        <ele>1656</ele>
        <time>2022-08-28T09:48:53Z</time>
      </trkpt>
      <trkpt lat="45.94535" lon="6.87719">
        <ele>1656</ele>
        <time>2022-08-28T09:48:54Z</time>
      </trkpt>
      <trkpt lat="45.94533" lon="6.87718">
        <ele>1656</ele>
        <time>2022-08-28T09:48:55Z</time>
      </trkpt>
      <trkpt lat="45.94531" lon="6.87717">
        <ele>1655</ele>
        <time>2022-08-28T09:48:56Z</time>
      </trkpt>
      <trkpt lat="45.94524" lon="6.87708">
        <ele>1652</ele>
        <time>2022-08-28T09:49:03Z</time>
      </trkpt>
      <trkpt lat="45.94522" lon="6.87707">
        <ele>1652</ele>
        <time>2022-08-28T09:49:05Z</time>
      </trkpt>
      <trkpt lat="45.94519" lon="6.87706">
        <ele>1652</ele>
        <time>2022-08-28T09:49:06Z</time>
      </trkpt>
      <trkpt lat="45.94518" lon="6.87706">
        <ele>1652</ele>
        <time>2022-08-28T09:49:08Z</time>
      </trkpt>
      <trkpt lat="45.94516" lon="6.87706">
        <ele>1652</ele>
        <time>2022-08-28T09:49:09Z</time>
      </trkpt>
      <trkpt lat="45.94514" lon="6.87707">
        <ele>1651</ele>
        <time>2022-08-28T09:49:10Z</time>
      </trkpt>
      <trkpt lat="45.94512" lon="6.87708">
        <ele>1651</ele>
        <time>2022-08-28T09:49:11Z</time>
      </trkpt>
      <trkpt lat="45.94509" lon="6.87708">
        <ele>1650</ele>
        <time>2022-08-28T09:49:13Z</time>
      </trkpt>
      <trkpt lat="45.94508" lon="6.87707">
        <ele>1650</ele>
        <time>2022-08-28T09:49:14Z</time>
      </trkpt>
      <trkpt lat="45.94507" lon="6.87706">
        <ele>1649</ele>
        <time>2022-08-28T09:49:15Z</time>
      </trkpt>
      <trkpt lat="45.94506" lon="6.87706">
        <ele>1648</ele>
        <time>2022-08-28T09:49:16Z</time>
      </trkpt>
      <trkpt lat="45.94505" lon="6.87705">
        <ele>1648</ele>
        <time>2022-08-28T09:49:17Z</time>
      </trkpt>
      <trkpt lat="45.94503" lon="6.87704">
        <ele>1648</ele>
        <time>2022-08-28T09:49:18Z</time>
      </trkpt>
      <trkpt lat="45.94502" lon="6.87703">
        <ele>1648</ele>
        <time>2022-08-28T09:49:19Z</time>
      </trkpt>
      <trkpt lat="45.94501" lon="6.87703">
        <ele>1647</ele>
        <time>2022-08-28T09:49:20Z</time>
      </trkpt>
      <trkpt lat="45.94491" lon="6.877">
        <ele>1645</ele>
        <time>2022-08-28T09:49:25Z</time>
      </trkpt>
      <trkpt lat="45.94482" lon="6.87695">
        <ele>1644</ele>
        <time>2022-08-28T09:49:31Z</time>
      </trkpt>
      <trkpt lat="45.94481" lon="6.87694">
        <ele>1643</ele>
        <time>2022-08-28T09:49:32Z</time>
      </trkpt>
      <trkpt lat="45.94479" lon="6.87692">
        <ele>1643</ele>
        <time>2022-08-28T09:49:33Z</time>
      </trkpt>
      <trkpt lat="45.94478" lon="6.87691">
        <ele>1643</ele>
        <time>2022-08-28T09:49:34Z</time>
      </trkpt>
      <trkpt lat="45.94477" lon="6.87689">
        <ele>1642</ele>
        <time>2022-08-28T09:49:36Z</time>
      </trkpt>
      <trkpt lat="45.94475" lon="6.87688">
        <ele>1642</ele>
        <time>2022-08-28T09:49:37Z</time>
      </trkpt>
      <trkpt lat="45.94474" lon="6.87687">
        <ele>1641</ele>
        <time>2022-08-28T09:49:38Z</time>
      </trkpt>
      <trkpt lat="45.94472" lon="6.87686">
        <ele>1641</ele>
        <time>2022-08-28T09:49:39Z</time>
      </trkpt>
      <trkpt lat="45.9447" lon="6.87685">
        <ele>1641</ele>
        <time>2022-08-28T09:49:40Z</time>
      </trkpt>
      <trkpt lat="45.94469" lon="6.87685">
        <ele>1640</ele>
        <time>2022-08-28T09:49:41Z</time>
      </trkpt>
      <trkpt lat="45.94465" lon="6.87684">
        <ele>1639</ele>
        <time>2022-08-28T09:49:43Z</time>
      </trkpt>
      <trkpt lat="45.94464" lon="6.87684">
        <ele>1639</ele>
        <time>2022-08-28T09:49:44Z</time>
      </trkpt>
      <trkpt lat="45.94463" lon="6.87684">
        <ele>1639</ele>
        <time>2022-08-28T09:49:46Z</time>
      </trkpt>
      <trkpt lat="45.94461" lon="6.87683">
        <ele>1637</ele>
        <time>2022-08-28T09:49:47Z</time>
      </trkpt>
      <trkpt lat="45.9446" lon="6.87683">
        <ele>1637</ele>
        <time>2022-08-28T09:49:48Z</time>
      </trkpt>
      <trkpt lat="45.94459" lon="6.87683">
        <ele>1637</ele>
        <time>2022-08-28T09:49:49Z</time>
      </trkpt>
      <trkpt lat="45.94457" lon="6.87683">
        <ele>1637</ele>
        <time>2022-08-28T09:49:50Z</time>
      </trkpt>
      <trkpt lat="45.94456" lon="6.87683">
        <ele>1637</ele>
        <time>2022-08-28T09:49:51Z</time>
      </trkpt>
      <trkpt lat="45.94454" lon="6.87682">
        <ele>1636</ele>
        <time>2022-08-28T09:49:53Z</time>
      </trkpt>
      <trkpt lat="45.94452" lon="6.87681">
        <ele>1634</ele>
        <time>2022-08-28T09:49:54Z</time>
      </trkpt>
      <trkpt lat="45.9445" lon="6.8768">
        <ele>1633</ele>
        <time>2022-08-28T09:49:55Z</time>
      </trkpt>
      <trkpt lat="45.94447" lon="6.8768">
        <ele>1633</ele>
        <time>2022-08-28T09:49:56Z</time>
      </trkpt>
      <trkpt lat="45.94445" lon="6.87679">
        <ele>1633</ele>
        <time>2022-08-28T09:49:58Z</time>
      </trkpt>
      <trkpt lat="45.94443" lon="6.87679">
        <ele>1633</ele>
        <time>2022-08-28T09:50:00Z</time>
      </trkpt>
      <trkpt lat="45.94441" lon="6.87678">
        <ele>1632</ele>
        <time>2022-08-28T09:50:01Z</time>
      </trkpt>
      <trkpt lat="45.94439" lon="6.87678">
        <ele>1632</ele>
        <time>2022-08-28T09:50:02Z</time>
      </trkpt>
      <trkpt lat="45.94437" lon="6.87678">
        <ele>1632</ele>
        <time>2022-08-28T09:50:03Z</time>
      </trkpt>
      <trkpt lat="45.94427" lon="6.87673">
        <ele>1631</ele>
        <time>2022-08-28T09:50:10Z</time>
      </trkpt>
      <trkpt lat="45.94426" lon="6.87672">
        <ele>1630</ele>
        <time>2022-08-28T09:50:11Z</time>
      </trkpt>
      <trkpt lat="45.94425" lon="6.87672">
        <ele>1630</ele>
        <time>2022-08-28T09:50:12Z</time>
      </trkpt>
      <trkpt lat="45.94423" lon="6.87671">
        <ele>1630</ele>
        <time>2022-08-28T09:50:13Z</time>
      </trkpt>
      <trkpt lat="45.94422" lon="6.87671">
        <ele>1629</ele>
        <time>2022-08-28T09:50:15Z</time>
      </trkpt>
      <trkpt lat="45.94421" lon="6.8767">
        <ele>1629</ele>
        <time>2022-08-28T09:50:16Z</time>
      </trkpt>
      <trkpt lat="45.94419" lon="6.8767">
        <ele>1629</ele>
        <time>2022-08-28T09:50:17Z</time>
      </trkpt>
      <trkpt lat="45.94418" lon="6.87669">
        <ele>1628</ele>
        <time>2022-08-28T09:50:18Z</time>
      </trkpt>
      <trkpt lat="45.94416" lon="6.87668">
        <ele>1627</ele>
        <time>2022-08-28T09:50:19Z</time>
      </trkpt>
      <trkpt lat="45.94414" lon="6.87667">
        <ele>1627</ele>
        <time>2022-08-28T09:50:20Z</time>
      </trkpt>
      <trkpt lat="45.94412" lon="6.87666">
        <ele>1627</ele>
        <time>2022-08-28T09:50:21Z</time>
      </trkpt>
      <trkpt lat="45.94411" lon="6.87665">
        <ele>1627</ele>
        <time>2022-08-28T09:50:23Z</time>
      </trkpt>
      <trkpt lat="45.94409" lon="6.87664">
        <ele>1626</ele>
        <time>2022-08-28T09:50:24Z</time>
      </trkpt>
      <trkpt lat="45.94407" lon="6.87663">
        <ele>1626</ele>
        <time>2022-08-28T09:50:25Z</time>
      </trkpt>
      <trkpt lat="45.94404" lon="6.87662">
        <ele>1625</ele>
        <time>2022-08-28T09:50:26Z</time>
      </trkpt>
      <trkpt lat="45.94402" lon="6.87661">
        <ele>1624</ele>
        <time>2022-08-28T09:50:28Z</time>
      </trkpt>
      <trkpt lat="45.944" lon="6.8766">
        <ele>1624</ele>
        <time>2022-08-28T09:50:29Z</time>
      </trkpt>
      <trkpt lat="45.94398" lon="6.87659">
        <ele>1623</ele>
        <time>2022-08-28T09:50:30Z</time>
      </trkpt>
      <trkpt lat="45.94396" lon="6.87658">
        <ele>1623</ele>
        <time>2022-08-28T09:50:31Z</time>
      </trkpt>
      <trkpt lat="45.94395" lon="6.87658">
        <ele>1623</ele>
        <time>2022-08-28T09:50:33Z</time>
      </trkpt>
      <trkpt lat="45.94393" lon="6.87657">
        <ele>1622</ele>
        <time>2022-08-28T09:50:34Z</time>
      </trkpt>
      <trkpt lat="45.94392" lon="6.87656">
        <ele>1622</ele>
        <time>2022-08-28T09:50:35Z</time>
      </trkpt>
      <trkpt lat="45.9439" lon="6.87655">
        <ele>1622</ele>
        <time>2022-08-28T09:50:36Z</time>
      </trkpt>
      <trkpt lat="45.9438" lon="6.87653">
        <ele>1621</ele>
        <time>2022-08-28T09:50:43Z</time>
      </trkpt>
      <trkpt lat="45.94379" lon="6.87651">
        <ele>1620</ele>
        <time>2022-08-28T09:50:44Z</time>
      </trkpt>
      <trkpt lat="45.94377" lon="6.8765">
        <ele>1619</ele>
        <time>2022-08-28T09:50:46Z</time>
      </trkpt>
      <trkpt lat="45.94376" lon="6.87649">
        <ele>1618</ele>
        <time>2022-08-28T09:50:48Z</time>
      </trkpt>
      <trkpt lat="45.94374" lon="6.87648">
        <ele>1618</ele>
        <time>2022-08-28T09:50:49Z</time>
      </trkpt>
      <trkpt lat="45.94373" lon="6.87647">
        <ele>1618</ele>
        <time>2022-08-28T09:50:50Z</time>
      </trkpt>
      <trkpt lat="45.94371" lon="6.87645">
        <ele>1617</ele>
        <time>2022-08-28T09:50:51Z</time>
      </trkpt>
      <trkpt lat="45.9437" lon="6.87644">
        <ele>1616</ele>
        <time>2022-08-28T09:50:52Z</time>
      </trkpt>
      <trkpt lat="45.94368" lon="6.87642">
        <ele>1616</ele>
        <time>2022-08-28T09:50:53Z</time>
      </trkpt>
      <trkpt lat="45.94367" lon="6.8764">
        <ele>1615</ele>
        <time>2022-08-28T09:50:54Z</time>
      </trkpt>
      <trkpt lat="45.94366" lon="6.87639">
        <ele>1615</ele>
        <time>2022-08-28T09:50:55Z</time>
      </trkpt>
      <trkpt lat="45.94364" lon="6.87637">
        <ele>1614</ele>
        <time>2022-08-28T09:50:56Z</time>
      </trkpt>
      <trkpt lat="45.94363" lon="6.87635">
        <ele>1614</ele>
        <time>2022-08-28T09:50:57Z</time>
      </trkpt>
      <trkpt lat="45.94361" lon="6.87633">
        <ele>1614</ele>
        <time>2022-08-28T09:50:58Z</time>
      </trkpt>
      <trkpt lat="45.9436" lon="6.87631">
        <ele>1614</ele>
        <time>2022-08-28T09:50:59Z</time>
      </trkpt>
      <trkpt lat="45.94358" lon="6.87629">
        <ele>1613</ele>
        <time>2022-08-28T09:51:01Z</time>
      </trkpt>
      <trkpt lat="45.94357" lon="6.87627">
        <ele>1613</ele>
        <time>2022-08-28T09:51:02Z</time>
      </trkpt>
      <trkpt lat="45.94355" lon="6.87627">
        <ele>1613</ele>
        <time>2022-08-28T09:51:03Z</time>
      </trkpt>
      <trkpt lat="45.94353" lon="6.87626">
        <ele>1613</ele>
        <time>2022-08-28T09:51:04Z</time>
      </trkpt>
      <trkpt lat="45.94351" lon="6.87625">
        <ele>1613</ele>
        <time>2022-08-28T09:51:06Z</time>
      </trkpt>
      <trkpt lat="45.9435" lon="6.87624">
        <ele>1612</ele>
        <time>2022-08-28T09:51:07Z</time>
      </trkpt>
      <trkpt lat="45.94348" lon="6.87623">
        <ele>1611</ele>
        <time>2022-08-28T09:51:08Z</time>
      </trkpt>
      <trkpt lat="45.94346" lon="6.87623">
        <ele>1611</ele>
        <time>2022-08-28T09:51:09Z</time>
      </trkpt>
      <trkpt lat="45.94345" lon="6.87622">
        <ele>1610</ele>
        <time>2022-08-28T09:51:11Z</time>
      </trkpt>
      <trkpt lat="45.94344" lon="6.87622">
        <ele>1610</ele>
        <time>2022-08-28T09:51:12Z</time>
      </trkpt>
      <trkpt lat="45.94342" lon="6.87621">
        <ele>1609</ele>
        <time>2022-08-28T09:51:13Z</time>
      </trkpt>
      <trkpt lat="45.94341" lon="6.87621">
        <ele>1609</ele>
        <time>2022-08-28T09:51:14Z</time>
      </trkpt>
      <trkpt lat="45.94339" lon="6.8762">
        <ele>1609</ele>
        <time>2022-08-28T09:51:15Z</time>
      </trkpt>
      <trkpt lat="45.94338" lon="6.8762">
        <ele>1609</ele>
        <time>2022-08-28T09:51:16Z</time>
      </trkpt>
      <trkpt lat="45.94336" lon="6.87618">
        <ele>1608</ele>
        <time>2022-08-28T09:51:18Z</time>
      </trkpt>
      <trkpt lat="45.94333" lon="6.87617">
        <ele>1608</ele>
        <time>2022-08-28T09:51:19Z</time>
      </trkpt>
      <trkpt lat="45.94331" lon="6.87616">
        <ele>1607</ele>
        <time>2022-08-28T09:51:21Z</time>
      </trkpt>
      <trkpt lat="45.94329" lon="6.87614">
        <ele>1607</ele>
        <time>2022-08-28T09:51:22Z</time>
      </trkpt>
      <trkpt lat="45.94328" lon="6.87614">
        <ele>1606</ele>
        <time>2022-08-28T09:51:23Z</time>
      </trkpt>
      <trkpt lat="45.94326" lon="6.87613">
        <ele>1606</ele>
        <time>2022-08-28T09:51:24Z</time>
      </trkpt>
      <trkpt lat="45.94325" lon="6.87612">
        <ele>1606</ele>
        <time>2022-08-28T09:51:25Z</time>
      </trkpt>
      <trkpt lat="45.94323" lon="6.87612">
        <ele>1606</ele>
        <time>2022-08-28T09:51:27Z</time>
      </trkpt>
      <trkpt lat="45.94322" lon="6.87611">
        <ele>1605</ele>
        <time>2022-08-28T09:51:29Z</time>
      </trkpt>
      <trkpt lat="45.9432" lon="6.8761">
        <ele>1605</ele>
        <time>2022-08-28T09:51:30Z</time>
      </trkpt>
      <trkpt lat="45.94318" lon="6.8761">
        <ele>1604</ele>
        <time>2022-08-28T09:51:31Z</time>
      </trkpt>
      <trkpt lat="45.94317" lon="6.87609">
        <ele>1603</ele>
        <time>2022-08-28T09:51:32Z</time>
      </trkpt>
      <trkpt lat="45.94315" lon="6.87609">
        <ele>1603</ele>
        <time>2022-08-28T09:51:34Z</time>
      </trkpt>
      <trkpt lat="45.94313" lon="6.87608">
        <ele>1603</ele>
        <time>2022-08-28T09:51:35Z</time>
      </trkpt>
      <trkpt lat="45.94311" lon="6.87607">
        <ele>1603</ele>
        <time>2022-08-28T09:51:36Z</time>
      </trkpt>
      <trkpt lat="45.9431" lon="6.87607">
        <ele>1602</ele>
        <time>2022-08-28T09:51:37Z</time>
      </trkpt>
      <trkpt lat="45.94308" lon="6.87607">
        <ele>1602</ele>
        <time>2022-08-28T09:51:39Z</time>
      </trkpt>
      <trkpt lat="45.94307" lon="6.87607">
        <ele>1602</ele>
        <time>2022-08-28T09:51:40Z</time>
      </trkpt>
      <trkpt lat="45.94305" lon="6.87606">
        <ele>1601</ele>
        <time>2022-08-28T09:51:42Z</time>
      </trkpt>
      <trkpt lat="45.94302" lon="6.87605">
        <ele>1601</ele>
        <time>2022-08-28T09:51:44Z</time>
      </trkpt>
      <trkpt lat="45.943" lon="6.87603">
        <ele>1601</ele>
        <time>2022-08-28T09:51:45Z</time>
      </trkpt>
      <trkpt lat="45.94298" lon="6.87602">
        <ele>1601</ele>
        <time>2022-08-28T09:51:46Z</time>
      </trkpt>
      <trkpt lat="45.94297" lon="6.87602">
        <ele>1600</ele>
        <time>2022-08-28T09:51:47Z</time>
      </trkpt>
      <trkpt lat="45.94295" lon="6.87601">
        <ele>1599</ele>
        <time>2022-08-28T09:51:49Z</time>
      </trkpt>
      <trkpt lat="45.94294" lon="6.87601">
        <ele>1599</ele>
        <time>2022-08-28T09:51:50Z</time>
      </trkpt>
      <trkpt lat="45.94293" lon="6.87601">
        <ele>1598</ele>
        <time>2022-08-28T09:51:51Z</time>
      </trkpt>
      <trkpt lat="45.94291" lon="6.876">
        <ele>1598</ele>
        <time>2022-08-28T09:51:52Z</time>
      </trkpt>
      <trkpt lat="45.9429" lon="6.876">
        <ele>1598</ele>
        <time>2022-08-28T09:51:53Z</time>
      </trkpt>
      <trkpt lat="45.94288" lon="6.876">
        <ele>1597</ele>
        <time>2022-08-28T09:51:54Z</time>
      </trkpt>
      <trkpt lat="45.94287" lon="6.87599">
        <ele>1596</ele>
        <time>2022-08-28T09:51:55Z</time>
      </trkpt>
      <trkpt lat="45.94285" lon="6.87598">
        <ele>1596</ele>
        <time>2022-08-28T09:51:56Z</time>
      </trkpt>
      <trkpt lat="45.94283" lon="6.87598">
        <ele>1596</ele>
        <time>2022-08-28T09:51:57Z</time>
      </trkpt>
      <trkpt lat="45.94281" lon="6.87597">
        <ele>1596</ele>
        <time>2022-08-28T09:51:58Z</time>
      </trkpt>
      <trkpt lat="45.94279" lon="6.87596">
        <ele>1595</ele>
        <time>2022-08-28T09:51:59Z</time>
      </trkpt>
      <trkpt lat="45.94278" lon="6.87596">
        <ele>1594</ele>
        <time>2022-08-28T09:52:00Z</time>
      </trkpt>
      <trkpt lat="45.94276" lon="6.87596">
        <ele>1593</ele>
        <time>2022-08-28T09:52:01Z</time>
      </trkpt>
      <trkpt lat="45.94275" lon="6.87597">
        <ele>1593</ele>
        <time>2022-08-28T09:52:02Z</time>
      </trkpt>
      <trkpt lat="45.94273" lon="6.87597">
        <ele>1593</ele>
        <time>2022-08-28T09:52:03Z</time>
      </trkpt>
      <trkpt lat="45.94271" lon="6.87597">
        <ele>1593</ele>
        <time>2022-08-28T09:52:04Z</time>
      </trkpt>
      <trkpt lat="45.9427" lon="6.87597">
        <ele>1593</ele>
        <time>2022-08-28T09:52:05Z</time>
      </trkpt>
      <trkpt lat="45.94267" lon="6.87597">
        <ele>1593</ele>
        <time>2022-08-28T09:52:07Z</time>
      </trkpt>
      <trkpt lat="45.94264" lon="6.87597">
        <ele>1592</ele>
        <time>2022-08-28T09:52:09Z</time>
      </trkpt>
      <trkpt lat="45.94262" lon="6.87596">
        <ele>1591</ele>
        <time>2022-08-28T09:52:11Z</time>
      </trkpt>
      <trkpt lat="45.9426" lon="6.87592">
        <ele>1590</ele>
        <time>2022-08-28T09:52:13Z</time>
      </trkpt>
      <trkpt lat="45.94259" lon="6.87587">
        <ele>1590</ele>
        <time>2022-08-28T09:52:15Z</time>
      </trkpt>
      <trkpt lat="45.94258" lon="6.87584">
        <ele>1589</ele>
        <time>2022-08-28T09:52:16Z</time>
      </trkpt>
      <trkpt lat="45.94258" lon="6.87581">
        <ele>1589</ele>
        <time>2022-08-28T09:52:18Z</time>
      </trkpt>
      <trkpt lat="45.94257" lon="6.87578">
        <ele>1588</ele>
        <time>2022-08-28T09:52:19Z</time>
      </trkpt>
      <trkpt lat="45.94257" lon="6.87575">
        <ele>1587</ele>
        <time>2022-08-28T09:52:20Z</time>
      </trkpt>
      <trkpt lat="45.94256" lon="6.87572">
        <ele>1587</ele>
        <time>2022-08-28T09:52:21Z</time>
      </trkpt>
      <trkpt lat="45.94256" lon="6.8757">
        <ele>1587</ele>
        <time>2022-08-28T09:52:22Z</time>
      </trkpt>
      <trkpt lat="45.94256" lon="6.87568">
        <ele>1587</ele>
        <time>2022-08-28T09:52:24Z</time>
      </trkpt>
      <trkpt lat="45.94256" lon="6.87565">
        <ele>1586</ele>
        <time>2022-08-28T09:52:25Z</time>
      </trkpt>
      <trkpt lat="45.94256" lon="6.87563">
        <ele>1586</ele>
        <time>2022-08-28T09:52:26Z</time>
      </trkpt>
      <trkpt lat="45.94256" lon="6.87561">
        <ele>1586</ele>
        <time>2022-08-28T09:52:27Z</time>
      </trkpt>
      <trkpt lat="45.94256" lon="6.87558">
        <ele>1586</ele>
        <time>2022-08-28T09:52:28Z</time>
      </trkpt>
      <trkpt lat="45.94256" lon="6.87556">
        <ele>1585</ele>
        <time>2022-08-28T09:52:29Z</time>
      </trkpt>
      <trkpt lat="45.94256" lon="6.87553">
        <ele>1585</ele>
        <time>2022-08-28T09:52:30Z</time>
      </trkpt>
      <trkpt lat="45.94256" lon="6.8755">
        <ele>1584</ele>
        <time>2022-08-28T09:52:31Z</time>
      </trkpt>
      <trkpt lat="45.94256" lon="6.87548">
        <ele>1584</ele>
        <time>2022-08-28T09:52:32Z</time>
      </trkpt>
      <trkpt lat="45.94256" lon="6.87545">
        <ele>1584</ele>
        <time>2022-08-28T09:52:33Z</time>
      </trkpt>
      <trkpt lat="45.94256" lon="6.87543">
        <ele>1582</ele>
        <time>2022-08-28T09:52:35Z</time>
      </trkpt>
      <trkpt lat="45.94255" lon="6.8754">
        <ele>1582</ele>
        <time>2022-08-28T09:52:37Z</time>
      </trkpt>
      <trkpt lat="45.94255" lon="6.87537">
        <ele>1582</ele>
        <time>2022-08-28T09:52:38Z</time>
      </trkpt>
      <trkpt lat="45.94254" lon="6.87526">
        <ele>1582</ele>
        <time>2022-08-28T09:52:39Z</time>
      </trkpt>
      <trkpt lat="45.94254" lon="6.87522">
        <ele>1582</ele>
        <time>2022-08-28T09:52:40Z</time>
      </trkpt>
      <trkpt lat="45.94254" lon="6.87519">
        <ele>1581</ele>
        <time>2022-08-28T09:52:42Z</time>
      </trkpt>
      <trkpt lat="45.94254" lon="6.87515">
        <ele>1581</ele>
        <time>2022-08-28T09:52:43Z</time>
      </trkpt>
      <trkpt lat="45.94254" lon="6.87513">
        <ele>1581</ele>
        <time>2022-08-28T09:52:44Z</time>
      </trkpt>
      <trkpt lat="45.94253" lon="6.87512">
        <ele>1581</ele>
        <time>2022-08-28T09:52:45Z</time>
      </trkpt>
      <trkpt lat="45.94252" lon="6.8751">
        <ele>1580</ele>
        <time>2022-08-28T09:52:47Z</time>
      </trkpt>
      <trkpt lat="45.94252" lon="6.87508">
        <ele>1580</ele>
        <time>2022-08-28T09:52:48Z</time>
      </trkpt>
      <trkpt lat="45.94251" lon="6.87507">
        <ele>1579</ele>
        <time>2022-08-28T09:52:49Z</time>
      </trkpt>
      <trkpt lat="45.94251" lon="6.87505">
        <ele>1578</ele>
        <time>2022-08-28T09:52:50Z</time>
      </trkpt>
      <trkpt lat="45.9425" lon="6.87503">
        <ele>1578</ele>
        <time>2022-08-28T09:52:51Z</time>
      </trkpt>
      <trkpt lat="45.94249" lon="6.87502">
        <ele>1578</ele>
        <time>2022-08-28T09:52:52Z</time>
      </trkpt>
      <trkpt lat="45.94248" lon="6.875">
        <ele>1577</ele>
        <time>2022-08-28T09:52:54Z</time>
      </trkpt>
      <trkpt lat="45.94246" lon="6.87498">
        <ele>1576</ele>
        <time>2022-08-28T09:52:56Z</time>
      </trkpt>
      <trkpt lat="45.94245" lon="6.87496">
        <ele>1577</ele>
        <time>2022-08-28T09:52:57Z</time>
      </trkpt>
      <trkpt lat="45.94243" lon="6.87494">
        <ele>1577</ele>
        <time>2022-08-28T09:52:58Z</time>
      </trkpt>
      <trkpt lat="45.94242" lon="6.87493">
        <ele>1577</ele>
        <time>2022-08-28T09:52:59Z</time>
      </trkpt>
      <trkpt lat="45.9424" lon="6.87493">
        <ele>1576</ele>
        <time>2022-08-28T09:53:00Z</time>
      </trkpt>
      <trkpt lat="45.94238" lon="6.87493">
        <ele>1576</ele>
        <time>2022-08-28T09:53:01Z</time>
      </trkpt>
      <trkpt lat="45.94237" lon="6.87493">
        <ele>1576</ele>
        <time>2022-08-28T09:53:02Z</time>
      </trkpt>
      <trkpt lat="45.94235" lon="6.87493">
        <ele>1576</ele>
        <time>2022-08-28T09:53:03Z</time>
      </trkpt>
      <trkpt lat="45.94233" lon="6.87493">
        <ele>1575</ele>
        <time>2022-08-28T09:53:04Z</time>
      </trkpt>
      <trkpt lat="45.94231" lon="6.87493">
        <ele>1575</ele>
        <time>2022-08-28T09:53:05Z</time>
      </trkpt>
      <trkpt lat="45.9423" lon="6.87494">
        <ele>1574</ele>
        <time>2022-08-28T09:53:07Z</time>
      </trkpt>
      <trkpt lat="45.94229" lon="6.87494">
        <ele>1573</ele>
        <time>2022-08-28T09:53:08Z</time>
      </trkpt>
      <trkpt lat="45.94228" lon="6.87495">
        <ele>1573</ele>
        <time>2022-08-28T09:53:09Z</time>
      </trkpt>
      <trkpt lat="45.94227" lon="6.87496">
        <ele>1573</ele>
        <time>2022-08-28T09:53:11Z</time>
      </trkpt>
      <trkpt lat="45.94225" lon="6.87496">
        <ele>1572</ele>
        <time>2022-08-28T09:53:12Z</time>
      </trkpt>
      <trkpt lat="45.94224" lon="6.87497">
        <ele>1572</ele>
        <time>2022-08-28T09:53:13Z</time>
      </trkpt>
      <trkpt lat="45.94223" lon="6.87498">
        <ele>1572</ele>
        <time>2022-08-28T09:53:14Z</time>
      </trkpt>
      <trkpt lat="45.94222" lon="6.87498">
        <ele>1571</ele>
        <time>2022-08-28T09:53:15Z</time>
      </trkpt>
      <trkpt lat="45.94219" lon="6.875">
        <ele>1571</ele>
        <time>2022-08-28T09:53:17Z</time>
      </trkpt>
      <trkpt lat="45.94216" lon="6.87502">
        <ele>1571</ele>
        <time>2022-08-28T09:53:19Z</time>
      </trkpt>
      <trkpt lat="45.94214" lon="6.87505">
        <ele>1571</ele>
        <time>2022-08-28T09:53:20Z</time>
      </trkpt>
      <trkpt lat="45.94212" lon="6.87505">
        <ele>1570</ele>
        <time>2022-08-28T09:53:21Z</time>
      </trkpt>
      <trkpt lat="45.94211" lon="6.87506">
        <ele>1569</ele>
        <time>2022-08-28T09:53:22Z</time>
      </trkpt>
      <trkpt lat="45.9421" lon="6.87506">
        <ele>1569</ele>
        <time>2022-08-28T09:53:23Z</time>
      </trkpt>
      <trkpt lat="45.94208" lon="6.87507">
        <ele>1569</ele>
        <time>2022-08-28T09:53:24Z</time>
      </trkpt>
      <trkpt lat="45.94201" lon="6.8751">
        <ele>1568</ele>
        <time>2022-08-28T09:53:25Z</time>
      </trkpt>
      <trkpt lat="45.942" lon="6.8751">
        <ele>1568</ele>
        <time>2022-08-28T09:53:26Z</time>
      </trkpt>
      <trkpt lat="45.94198" lon="6.87511">
        <ele>1567</ele>
        <time>2022-08-28T09:53:27Z</time>
      </trkpt>
      <trkpt lat="45.94197" lon="6.87511">
        <ele>1567</ele>
        <time>2022-08-28T09:53:29Z</time>
      </trkpt>
      <trkpt lat="45.94195" lon="6.87512">
        <ele>1567</ele>
        <time>2022-08-28T09:53:30Z</time>
      </trkpt>
      <trkpt lat="45.94194" lon="6.87513">
        <ele>1566</ele>
        <time>2022-08-28T09:53:31Z</time>
      </trkpt>
      <trkpt lat="45.94192" lon="6.87513">
        <ele>1565</ele>
        <time>2022-08-28T09:53:32Z</time>
      </trkpt>
      <trkpt lat="45.9419" lon="6.87513">
        <ele>1564</ele>
        <time>2022-08-28T09:53:34Z</time>
      </trkpt>
      <trkpt lat="45.94189" lon="6.87514">
        <ele>1564</ele>
        <time>2022-08-28T09:53:35Z</time>
      </trkpt>
      <trkpt lat="45.94187" lon="6.87514">
        <ele>1564</ele>
        <time>2022-08-28T09:53:36Z</time>
      </trkpt>
      <trkpt lat="45.94185" lon="6.87515">
        <ele>1564</ele>
        <time>2022-08-28T09:53:37Z</time>
      </trkpt>
      <trkpt lat="45.94183" lon="6.87515">
        <ele>1563</ele>
        <time>2022-08-28T09:53:39Z</time>
      </trkpt>
      <trkpt lat="45.9418" lon="6.87516">
        <ele>1563</ele>
        <time>2022-08-28T09:53:40Z</time>
      </trkpt>
      <trkpt lat="45.94177" lon="6.87517">
        <ele>1563</ele>
        <time>2022-08-28T09:53:42Z</time>
      </trkpt>
      <trkpt lat="45.94174" lon="6.87518">
        <ele>1561</ele>
        <time>2022-08-28T09:53:44Z</time>
      </trkpt>
      <trkpt lat="45.94172" lon="6.87519">
        <ele>1560</ele>
        <time>2022-08-28T09:53:45Z</time>
      </trkpt>
      <trkpt lat="45.9417" lon="6.8752">
        <ele>1560</ele>
        <time>2022-08-28T09:53:46Z</time>
      </trkpt>
      <trkpt lat="45.94168" lon="6.87521">
        <ele>1560</ele>
        <time>2022-08-28T09:53:47Z</time>
      </trkpt>
      <trkpt lat="45.94167" lon="6.87522">
        <ele>1559</ele>
        <time>2022-08-28T09:53:49Z</time>
      </trkpt>
      <trkpt lat="45.94165" lon="6.87523">
        <ele>1559</ele>
        <time>2022-08-28T09:53:50Z</time>
      </trkpt>
      <trkpt lat="45.94164" lon="6.87524">
        <ele>1559</ele>
        <time>2022-08-28T09:53:51Z</time>
      </trkpt>
      <trkpt lat="45.94163" lon="6.87526">
        <ele>1558</ele>
        <time>2022-08-28T09:53:53Z</time>
      </trkpt>
      <trkpt lat="45.94161" lon="6.87527">
        <ele>1558</ele>
        <time>2022-08-28T09:53:54Z</time>
      </trkpt>
      <trkpt lat="45.9416" lon="6.87528">
        <ele>1558</ele>
        <time>2022-08-28T09:53:55Z</time>
      </trkpt>
      <trkpt lat="45.94159" lon="6.87528">
        <ele>1557</ele>
        <time>2022-08-28T09:53:56Z</time>
      </trkpt>
      <trkpt lat="45.94158" lon="6.87527">
        <ele>1557</ele>
        <time>2022-08-28T09:53:57Z</time>
      </trkpt>
      <trkpt lat="45.94157" lon="6.87527">
        <ele>1557</ele>
        <time>2022-08-28T09:53:58Z</time>
      </trkpt>
      <trkpt lat="45.94156" lon="6.87526">
        <ele>1556</ele>
        <time>2022-08-28T09:54:00Z</time>
      </trkpt>
      <trkpt lat="45.94155" lon="6.87526">
        <ele>1556</ele>
        <time>2022-08-28T09:54:01Z</time>
      </trkpt>
      <trkpt lat="45.94149" lon="6.87523">
        <ele>1555</ele>
        <time>2022-08-28T09:54:02Z</time>
      </trkpt>
      <trkpt lat="45.94147" lon="6.87522">
        <ele>1555</ele>
        <time>2022-08-28T09:54:03Z</time>
      </trkpt>
      <trkpt lat="45.94146" lon="6.87521">
        <ele>1554</ele>
        <time>2022-08-28T09:54:05Z</time>
      </trkpt>
      <trkpt lat="45.94145" lon="6.8752">
        <ele>1554</ele>
        <time>2022-08-28T09:54:06Z</time>
      </trkpt>
      <trkpt lat="45.94144" lon="6.87519">
        <ele>1554</ele>
        <time>2022-08-28T09:54:07Z</time>
      </trkpt>
      <trkpt lat="45.94143" lon="6.87518">
        <ele>1554</ele>
        <time>2022-08-28T09:54:08Z</time>
      </trkpt>
      <trkpt lat="45.94142" lon="6.87517">
        <ele>1553</ele>
        <time>2022-08-28T09:54:09Z</time>
      </trkpt>
      <trkpt lat="45.9414" lon="6.87516">
        <ele>1552</ele>
        <time>2022-08-28T09:54:10Z</time>
      </trkpt>
      <trkpt lat="45.94138" lon="6.87515">
        <ele>1552</ele>
        <time>2022-08-28T09:54:12Z</time>
      </trkpt>
      <trkpt lat="45.94137" lon="6.87514">
        <ele>1552</ele>
        <time>2022-08-28T09:54:13Z</time>
      </trkpt>
      <trkpt lat="45.94135" lon="6.87513">
        <ele>1551</ele>
        <time>2022-08-28T09:54:14Z</time>
      </trkpt>
      <trkpt lat="45.94134" lon="6.87512">
        <ele>1551</ele>
        <time>2022-08-28T09:54:15Z</time>
      </trkpt>
      <trkpt lat="45.94132" lon="6.87511">
        <ele>1550</ele>
        <time>2022-08-28T09:54:16Z</time>
      </trkpt>
      <trkpt lat="45.9413" lon="6.8751">
        <ele>1549</ele>
        <time>2022-08-28T09:54:17Z</time>
      </trkpt>
      <trkpt lat="45.94128" lon="6.8751">
        <ele>1549</ele>
        <time>2022-08-28T09:54:18Z</time>
      </trkpt>
      <trkpt lat="45.94127" lon="6.87509">
        <ele>1549</ele>
        <time>2022-08-28T09:54:19Z</time>
      </trkpt>
      <trkpt lat="45.94125" lon="6.87508">
        <ele>1549</ele>
        <time>2022-08-28T09:54:20Z</time>
      </trkpt>
      <trkpt lat="45.94123" lon="6.87508">
        <ele>1548</ele>
        <time>2022-08-28T09:54:21Z</time>
      </trkpt>
      <trkpt lat="45.94113" lon="6.87503">
        <ele>1546</ele>
        <time>2022-08-28T09:54:26Z</time>
      </trkpt>
      <trkpt lat="45.94105" lon="6.87498">
        <ele>1544</ele>
        <time>2022-08-28T09:54:31Z</time>
      </trkpt>
      <trkpt lat="45.94103" lon="6.87495">
        <ele>1544</ele>
        <time>2022-08-28T09:54:32Z</time>
      </trkpt>
      <trkpt lat="45.94102" lon="6.87493">
        <ele>1544</ele>
        <time>2022-08-28T09:54:33Z</time>
      </trkpt>
      <trkpt lat="45.94101" lon="6.8749">
        <ele>1544</ele>
        <time>2022-08-28T09:54:34Z</time>
      </trkpt>
      <trkpt lat="45.94099" lon="6.87488">
        <ele>1544</ele>
        <time>2022-08-28T09:54:36Z</time>
      </trkpt>
      <trkpt lat="45.94098" lon="6.87486">
        <ele>1543</ele>
        <time>2022-08-28T09:54:37Z</time>
      </trkpt>
      <trkpt lat="45.94097" lon="6.87483">
        <ele>1543</ele>
        <time>2022-08-28T09:54:38Z</time>
      </trkpt>
      <trkpt lat="45.94096" lon="6.87481">
        <ele>1543</ele>
        <time>2022-08-28T09:54:39Z</time>
      </trkpt>
      <trkpt lat="45.94094" lon="6.87479">
        <ele>1542</ele>
        <time>2022-08-28T09:54:40Z</time>
      </trkpt>
      <trkpt lat="45.94093" lon="6.87477">
        <ele>1542</ele>
        <time>2022-08-28T09:54:41Z</time>
      </trkpt>
      <trkpt lat="45.94092" lon="6.87475">
        <ele>1541</ele>
        <time>2022-08-28T09:54:42Z</time>
      </trkpt>
      <trkpt lat="45.9409" lon="6.87475">
        <ele>1540</ele>
        <time>2022-08-28T09:54:44Z</time>
      </trkpt>
      <trkpt lat="45.94089" lon="6.87474">
        <ele>1540</ele>
        <time>2022-08-28T09:54:45Z</time>
      </trkpt>
      <trkpt lat="45.94087" lon="6.87473">
        <ele>1539</ele>
        <time>2022-08-28T09:54:46Z</time>
      </trkpt>
      <trkpt lat="45.94086" lon="6.87473">
        <ele>1539</ele>
        <time>2022-08-28T09:54:47Z</time>
      </trkpt>
      <trkpt lat="45.94084" lon="6.87472">
        <ele>1539</ele>
        <time>2022-08-28T09:54:48Z</time>
      </trkpt>
      <trkpt lat="45.94083" lon="6.87472">
        <ele>1539</ele>
        <time>2022-08-28T09:54:49Z</time>
      </trkpt>
      <trkpt lat="45.94074" lon="6.87463">
        <ele>1537</ele>
        <time>2022-08-28T09:54:54Z</time>
      </trkpt>
      <trkpt lat="45.94065" lon="6.8746">
        <ele>1535</ele>
        <time>2022-08-28T09:54:59Z</time>
      </trkpt>
      <trkpt lat="45.94064" lon="6.87459">
        <ele>1535</ele>
        <time>2022-08-28T09:55:00Z</time>
      </trkpt>
      <trkpt lat="45.94062" lon="6.87458">
        <ele>1534</ele>
        <time>2022-08-28T09:55:01Z</time>
      </trkpt>
      <trkpt lat="45.94061" lon="6.87457">
        <ele>1534</ele>
        <time>2022-08-28T09:55:02Z</time>
      </trkpt>
      <trkpt lat="45.94059" lon="6.87456">
        <ele>1534</ele>
        <time>2022-08-28T09:55:04Z</time>
      </trkpt>
      <trkpt lat="45.94058" lon="6.87455">
        <ele>1534</ele>
        <time>2022-08-28T09:55:05Z</time>
      </trkpt>
      <trkpt lat="45.94056" lon="6.87454">
        <ele>1533</ele>
        <time>2022-08-28T09:55:06Z</time>
      </trkpt>
      <trkpt lat="45.94054" lon="6.87451">
        <ele>1533</ele>
        <time>2022-08-28T09:55:07Z</time>
      </trkpt>
      <trkpt lat="45.94052" lon="6.87448">
        <ele>1533</ele>
        <time>2022-08-28T09:55:09Z</time>
      </trkpt>
      <trkpt lat="45.94049" lon="6.87445">
        <ele>1532</ele>
        <time>2022-08-28T09:55:10Z</time>
      </trkpt>
      <trkpt lat="45.94048" lon="6.87444">
        <ele>1532</ele>
        <time>2022-08-28T09:55:11Z</time>
      </trkpt>
      <trkpt lat="45.94046" lon="6.87443">
        <ele>1532</ele>
        <time>2022-08-28T09:55:13Z</time>
      </trkpt>
      <trkpt lat="45.94044" lon="6.87442">
        <ele>1532</ele>
        <time>2022-08-28T09:55:14Z</time>
      </trkpt>
      <trkpt lat="45.94042" lon="6.8744">
        <ele>1532</ele>
        <time>2022-08-28T09:55:15Z</time>
      </trkpt>
      <trkpt lat="45.94041" lon="6.87439">
        <ele>1531</ele>
        <time>2022-08-28T09:55:16Z</time>
      </trkpt>
      <trkpt lat="45.94039" lon="6.87438">
        <ele>1531</ele>
        <time>2022-08-28T09:55:18Z</time>
      </trkpt>
      <trkpt lat="45.94037" lon="6.87437">
        <ele>1531</ele>
        <time>2022-08-28T09:55:19Z</time>
      </trkpt>
      <trkpt lat="45.94036" lon="6.87436">
        <ele>1531</ele>
        <time>2022-08-28T09:55:20Z</time>
      </trkpt>
      <trkpt lat="45.94034" lon="6.87435">
        <ele>1531</ele>
        <time>2022-08-28T09:55:21Z</time>
      </trkpt>
      <trkpt lat="45.94033" lon="6.87435">
        <ele>1531</ele>
        <time>2022-08-28T09:55:22Z</time>
      </trkpt>
      <trkpt lat="45.94031" lon="6.87434">
        <ele>1531</ele>
        <time>2022-08-28T09:55:23Z</time>
      </trkpt>
      <trkpt lat="45.94022" lon="6.87433">
        <ele>1531</ele>
        <time>2022-08-28T09:55:28Z</time>
      </trkpt>
      <trkpt lat="45.94019" lon="6.87432">
        <ele>1531</ele>
        <time>2022-08-28T09:55:30Z</time>
      </trkpt>
      <trkpt lat="45.94017" lon="6.87432">
        <ele>1530</ele>
        <time>2022-08-28T09:55:31Z</time>
      </trkpt>
      <trkpt lat="45.94015" lon="6.87431">
        <ele>1530</ele>
        <time>2022-08-28T09:55:32Z</time>
      </trkpt>
      <trkpt lat="45.94013" lon="6.8743">
        <ele>1530</ele>
        <time>2022-08-28T09:55:33Z</time>
      </trkpt>
      <trkpt lat="45.94011" lon="6.87429">
        <ele>1530</ele>
        <time>2022-08-28T09:55:34Z</time>
      </trkpt>
      <trkpt lat="45.94009" lon="6.87426">
        <ele>1530</ele>
        <time>2022-08-28T09:55:35Z</time>
      </trkpt>
      <trkpt lat="45.94007" lon="6.87424">
        <ele>1530</ele>
        <time>2022-08-28T09:55:36Z</time>
      </trkpt>
      <trkpt lat="45.94005" lon="6.87422">
        <ele>1530</ele>
        <time>2022-08-28T09:55:38Z</time>
      </trkpt>
      <trkpt lat="45.94004" lon="6.87419">
        <ele>1530</ele>
        <time>2022-08-28T09:55:39Z</time>
      </trkpt>
      <trkpt lat="45.94002" lon="6.87418">
        <ele>1530</ele>
        <time>2022-08-28T09:55:40Z</time>
      </trkpt>
      <trkpt lat="45.94001" lon="6.87417">
        <ele>1530</ele>
        <time>2022-08-28T09:55:41Z</time>
      </trkpt>
      <trkpt lat="45.94" lon="6.87416">
        <ele>1530</ele>
        <time>2022-08-28T09:55:43Z</time>
      </trkpt>
      <trkpt lat="45.93999" lon="6.87415">
        <ele>1530</ele>
        <time>2022-08-28T09:55:44Z</time>
      </trkpt>
      <trkpt lat="45.93995" lon="6.87411">
        <ele>1530</ele>
        <time>2022-08-28T09:55:45Z</time>
      </trkpt>
      <trkpt lat="45.93988" lon="6.87401">
        <ele>1530</ele>
        <time>2022-08-28T09:55:49Z</time>
      </trkpt>
      <trkpt lat="45.93981" lon="6.87392">
        <ele>1529</ele>
        <time>2022-08-28T09:55:56Z</time>
      </trkpt>
      <trkpt lat="45.9398" lon="6.8739">
        <ele>1529</ele>
        <time>2022-08-28T09:55:57Z</time>
      </trkpt>
      <trkpt lat="45.93979" lon="6.87389">
        <ele>1529</ele>
        <time>2022-08-28T09:55:58Z</time>
      </trkpt>
      <trkpt lat="45.93977" lon="6.87388">
        <ele>1529</ele>
        <time>2022-08-28T09:55:59Z</time>
      </trkpt>
      <trkpt lat="45.93976" lon="6.87386">
        <ele>1529</ele>
        <time>2022-08-28T09:56:01Z</time>
      </trkpt>
      <trkpt lat="45.93975" lon="6.87385">
        <ele>1529</ele>
        <time>2022-08-28T09:56:02Z</time>
      </trkpt>
      <trkpt lat="45.93974" lon="6.87384">
        <ele>1529</ele>
        <time>2022-08-28T09:56:03Z</time>
      </trkpt>
      <trkpt lat="45.93973" lon="6.87382">
        <ele>1529</ele>
        <time>2022-08-28T09:56:04Z</time>
      </trkpt>
      <trkpt lat="45.93972" lon="6.87381">
        <ele>1529</ele>
        <time>2022-08-28T09:56:06Z</time>
      </trkpt>
      <trkpt lat="45.93972" lon="6.8738">
        <ele>1529</ele>
        <time>2022-08-28T09:56:07Z</time>
      </trkpt>
      <trkpt lat="45.93971" lon="6.87379">
        <ele>1529</ele>
        <time>2022-08-28T09:56:08Z</time>
      </trkpt>
      <trkpt lat="45.9397" lon="6.87377">
        <ele>1529</ele>
        <time>2022-08-28T09:56:10Z</time>
      </trkpt>
      <trkpt lat="45.9397" lon="6.87376">
        <ele>1529</ele>
        <time>2022-08-28T09:56:11Z</time>
      </trkpt>
      <trkpt lat="45.93965" lon="6.87368">
        <ele>1529</ele>
        <time>2022-08-28T09:56:12Z</time>
      </trkpt>
      <trkpt lat="45.93964" lon="6.87366">
        <ele>1529</ele>
        <time>2022-08-28T09:56:13Z</time>
      </trkpt>
      <trkpt lat="45.93963" lon="6.87365">
        <ele>1529</ele>
        <time>2022-08-28T09:56:15Z</time>
      </trkpt>
      <trkpt lat="45.93962" lon="6.87363">
        <ele>1529</ele>
        <time>2022-08-28T09:56:16Z</time>
      </trkpt>
      <trkpt lat="45.93961" lon="6.87362">
        <ele>1529</ele>
        <time>2022-08-28T09:56:17Z</time>
      </trkpt>
      <trkpt lat="45.9396" lon="6.8736">
        <ele>1529</ele>
        <time>2022-08-28T09:56:18Z</time>
      </trkpt>
      <trkpt lat="45.93952" lon="6.87351">
        <ele>1529</ele>
        <time>2022-08-28T09:56:25Z</time>
      </trkpt>
      <trkpt lat="45.93949" lon="6.87348">
        <ele>1529</ele>
        <time>2022-08-28T09:56:28Z</time>
      </trkpt>
      <trkpt lat="45.93947" lon="6.87344">
        <ele>1529</ele>
        <time>2022-08-28T09:56:31Z</time>
      </trkpt>
      <trkpt lat="45.93946" lon="6.87342">
        <ele>1529</ele>
        <time>2022-08-28T09:56:33Z</time>
      </trkpt>
      <trkpt lat="45.93946" lon="6.8734">
        <ele>1530</ele>
        <time>2022-08-28T09:56:34Z</time>
      </trkpt>
      <trkpt lat="45.93945" lon="6.87338">
        <ele>1530</ele>
        <time>2022-08-28T09:56:35Z</time>
      </trkpt>
      <trkpt lat="45.93944" lon="6.87336">
        <ele>1530</ele>
        <time>2022-08-28T09:56:37Z</time>
      </trkpt>
      <trkpt lat="45.93943" lon="6.87334">
        <ele>1530</ele>
        <time>2022-08-28T09:56:39Z</time>
      </trkpt>
      <trkpt lat="45.93942" lon="6.87333">
        <ele>1530</ele>
        <time>2022-08-28T09:56:40Z</time>
      </trkpt>
      <trkpt lat="45.9394" lon="6.87331">
        <ele>1530</ele>
        <time>2022-08-28T09:56:41Z</time>
      </trkpt>
      <trkpt lat="45.93939" lon="6.87329">
        <ele>1530</ele>
        <time>2022-08-28T09:56:42Z</time>
      </trkpt>
      <trkpt lat="45.93937" lon="6.87328">
        <ele>1530</ele>
        <time>2022-08-28T09:56:44Z</time>
      </trkpt>
      <trkpt lat="45.93936" lon="6.87326">
        <ele>1530</ele>
        <time>2022-08-28T09:56:45Z</time>
      </trkpt>
      <trkpt lat="45.93934" lon="6.87325">
        <ele>1530</ele>
        <time>2022-08-28T09:56:46Z</time>
      </trkpt>
      <trkpt lat="45.93927" lon="6.87315">
        <ele>1530</ele>
        <time>2022-08-28T09:56:53Z</time>
      </trkpt>
      <trkpt lat="45.93925" lon="6.87313">
        <ele>1530</ele>
        <time>2022-08-28T09:56:54Z</time>
      </trkpt>
      <trkpt lat="45.93924" lon="6.87311">
        <ele>1530</ele>
        <time>2022-08-28T09:56:55Z</time>
      </trkpt>
      <trkpt lat="45.93923" lon="6.87308">
        <ele>1530</ele>
        <time>2022-08-28T09:56:56Z</time>
      </trkpt>
      <trkpt lat="45.93921" lon="6.87306">
        <ele>1530</ele>
        <time>2022-08-28T09:56:58Z</time>
      </trkpt>
      <trkpt lat="45.9392" lon="6.87304">
        <ele>1530</ele>
        <time>2022-08-28T09:56:59Z</time>
      </trkpt>
      <trkpt lat="45.93919" lon="6.87302">
        <ele>1530</ele>
        <time>2022-08-28T09:57:00Z</time>
      </trkpt>
      <trkpt lat="45.93918" lon="6.873">
        <ele>1530</ele>
        <time>2022-08-28T09:57:01Z</time>
      </trkpt>
      <trkpt lat="45.93917" lon="6.87298">
        <ele>1530</ele>
        <time>2022-08-28T09:57:03Z</time>
      </trkpt>
      <trkpt lat="45.93916" lon="6.87297">
        <ele>1531</ele>
        <time>2022-08-28T09:57:04Z</time>
      </trkpt>
      <trkpt lat="45.93914" lon="6.87295">
        <ele>1531</ele>
        <time>2022-08-28T09:57:05Z</time>
      </trkpt>
      <trkpt lat="45.93913" lon="6.87293">
        <ele>1531</ele>
        <time>2022-08-28T09:57:06Z</time>
      </trkpt>
      <trkpt lat="45.93913" lon="6.87291">
        <ele>1531</ele>
        <time>2022-08-28T09:57:08Z</time>
      </trkpt>
      <trkpt lat="45.93912" lon="6.8729">
        <ele>1531</ele>
        <time>2022-08-28T09:57:09Z</time>
      </trkpt>
      <trkpt lat="45.93911" lon="6.87288">
        <ele>1531</ele>
        <time>2022-08-28T09:57:10Z</time>
      </trkpt>
      <trkpt lat="45.9391" lon="6.87286">
        <ele>1531</ele>
        <time>2022-08-28T09:57:11Z</time>
      </trkpt>
      <trkpt lat="45.9391" lon="6.87285">
        <ele>1531</ele>
        <time>2022-08-28T09:57:12Z</time>
      </trkpt>
      <trkpt lat="45.93909" lon="6.87283">
        <ele>1531</ele>
        <time>2022-08-28T09:57:13Z</time>
      </trkpt>
      <trkpt lat="45.93909" lon="6.87282">
        <ele>1531</ele>
        <time>2022-08-28T09:57:14Z</time>
      </trkpt>
      <trkpt lat="45.93907" lon="6.87279">
        <ele>1531</ele>
        <time>2022-08-28T09:57:15Z</time>
      </trkpt>
      <trkpt lat="45.93906" lon="6.87279">
        <ele>1531</ele>
        <time>2022-08-28T09:57:16Z</time>
      </trkpt>
      <trkpt lat="45.93905" lon="6.87278">
        <ele>1531</ele>
        <time>2022-08-28T09:57:17Z</time>
      </trkpt>
      <trkpt lat="45.93904" lon="6.87277">
        <ele>1531</ele>
        <time>2022-08-28T09:57:18Z</time>
      </trkpt>
      <trkpt lat="45.93903" lon="6.87276">
        <ele>1531</ele>
        <time>2022-08-28T09:57:19Z</time>
      </trkpt>
      <trkpt lat="45.939" lon="6.87273">
        <ele>1531</ele>
        <time>2022-08-28T09:57:20Z</time>
      </trkpt>
      <trkpt lat="45.93899" lon="6.87272">
        <ele>1531</ele>
        <time>2022-08-28T09:57:22Z</time>
      </trkpt>
      <trkpt lat="45.93897" lon="6.8727">
        <ele>1531</ele>
        <time>2022-08-28T09:57:23Z</time>
      </trkpt>
      <trkpt lat="45.93895" lon="6.87268">
        <ele>1531</ele>
        <time>2022-08-28T09:57:24Z</time>
      </trkpt>
      <trkpt lat="45.93894" lon="6.87266">
        <ele>1531</ele>
        <time>2022-08-28T09:57:25Z</time>
      </trkpt>
      <trkpt lat="45.9389" lon="6.87264">
        <ele>1531</ele>
        <time>2022-08-28T09:57:27Z</time>
      </trkpt>
      <trkpt lat="45.93887" lon="6.87261">
        <ele>1531</ele>
        <time>2022-08-28T09:57:29Z</time>
      </trkpt>
      <trkpt lat="45.93884" lon="6.87259">
        <ele>1530</ele>
        <time>2022-08-28T09:57:31Z</time>
      </trkpt>
      <trkpt lat="45.93881" lon="6.87255">
        <ele>1530</ele>
        <time>2022-08-28T09:57:33Z</time>
      </trkpt>
      <trkpt lat="45.9388" lon="6.87254">
        <ele>1530</ele>
        <time>2022-08-28T09:57:34Z</time>
      </trkpt>
      <trkpt lat="45.93878" lon="6.87252">
        <ele>1530</ele>
        <time>2022-08-28T09:57:35Z</time>
      </trkpt>
      <trkpt lat="45.93877" lon="6.87251">
        <ele>1530</ele>
        <time>2022-08-28T09:57:36Z</time>
      </trkpt>
      <trkpt lat="45.93875" lon="6.87249">
        <ele>1529</ele>
        <time>2022-08-28T09:57:37Z</time>
      </trkpt>
      <trkpt lat="45.93874" lon="6.87248">
        <ele>1529</ele>
        <time>2022-08-28T09:57:38Z</time>
      </trkpt>
      <trkpt lat="45.93872" lon="6.87247">
        <ele>1529</ele>
        <time>2022-08-28T09:57:39Z</time>
      </trkpt>
      <trkpt lat="45.9387" lon="6.87245">
        <ele>1529</ele>
        <time>2022-08-28T09:57:41Z</time>
      </trkpt>
      <trkpt lat="45.93869" lon="6.87242">
        <ele>1528</ele>
        <time>2022-08-28T09:57:42Z</time>
      </trkpt>
      <trkpt lat="45.93867" lon="6.8724">
        <ele>1528</ele>
        <time>2022-08-28T09:57:43Z</time>
      </trkpt>
      <trkpt lat="45.93866" lon="6.87238">
        <ele>1528</ele>
        <time>2022-08-28T09:57:44Z</time>
      </trkpt>
      <trkpt lat="45.93864" lon="6.87235">
        <ele>1528</ele>
        <time>2022-08-28T09:57:45Z</time>
      </trkpt>
      <trkpt lat="45.93863" lon="6.87233">
        <ele>1528</ele>
        <time>2022-08-28T09:57:46Z</time>
      </trkpt>
      <trkpt lat="45.9386" lon="6.87231">
        <ele>1528</ele>
        <time>2022-08-28T09:57:47Z</time>
      </trkpt>
      <trkpt lat="45.9386" lon="6.8723">
        <ele>1528</ele>
        <time>2022-08-28T09:57:48Z</time>
      </trkpt>
      <trkpt lat="45.93858" lon="6.87228">
        <ele>1527</ele>
        <time>2022-08-28T09:57:49Z</time>
      </trkpt>
      <trkpt lat="45.93856" lon="6.87226">
        <ele>1526</ele>
        <time>2022-08-28T09:57:50Z</time>
      </trkpt>
      <trkpt lat="45.93855" lon="6.87224">
        <ele>1526</ele>
        <time>2022-08-28T09:57:51Z</time>
      </trkpt>
      <trkpt lat="45.93853" lon="6.87223">
        <ele>1526</ele>
        <time>2022-08-28T09:57:52Z</time>
      </trkpt>
      <trkpt lat="45.93852" lon="6.8722">
        <ele>1526</ele>
        <time>2022-08-28T09:57:53Z</time>
      </trkpt>
      <trkpt lat="45.9385" lon="6.87218">
        <ele>1525</ele>
        <time>2022-08-28T09:57:54Z</time>
      </trkpt>
      <trkpt lat="45.93848" lon="6.87217">
        <ele>1525</ele>
        <time>2022-08-28T09:57:55Z</time>
      </trkpt>
      <trkpt lat="45.93847" lon="6.87216">
        <ele>1524</ele>
        <time>2022-08-28T09:57:56Z</time>
      </trkpt>
      <trkpt lat="45.93845" lon="6.87214">
        <ele>1524</ele>
        <time>2022-08-28T09:57:57Z</time>
      </trkpt>
      <trkpt lat="45.93844" lon="6.87212">
        <ele>1523</ele>
        <time>2022-08-28T09:57:58Z</time>
      </trkpt>
      <trkpt lat="45.93842" lon="6.87211">
        <ele>1523</ele>
        <time>2022-08-28T09:58:00Z</time>
      </trkpt>
      <trkpt lat="45.9384" lon="6.8721">
        <ele>1523</ele>
        <time>2022-08-28T09:58:01Z</time>
      </trkpt>
      <trkpt lat="45.93839" lon="6.87209">
        <ele>1523</ele>
        <time>2022-08-28T09:58:02Z</time>
      </trkpt>
      <trkpt lat="45.93837" lon="6.87208">
        <ele>1523</ele>
        <time>2022-08-28T09:58:03Z</time>
      </trkpt>
      <trkpt lat="45.93836" lon="6.87206">
        <ele>1522</ele>
        <time>2022-08-28T09:58:04Z</time>
      </trkpt>
      <trkpt lat="45.93833" lon="6.87206">
        <ele>1521</ele>
        <time>2022-08-28T09:58:05Z</time>
      </trkpt>
      <trkpt lat="45.9383" lon="6.87205">
        <ele>1521</ele>
        <time>2022-08-28T09:58:06Z</time>
      </trkpt>
      <trkpt lat="45.93827" lon="6.87204">
        <ele>1521</ele>
        <time>2022-08-28T09:58:07Z</time>
      </trkpt>
      <trkpt lat="45.93825" lon="6.87204">
        <ele>1521</ele>
        <time>2022-08-28T09:58:08Z</time>
      </trkpt>
      <trkpt lat="45.93823" lon="6.87204">
        <ele>1521</ele>
        <time>2022-08-28T09:58:09Z</time>
      </trkpt>
      <trkpt lat="45.93821" lon="6.87203">
        <ele>1520</ele>
        <time>2022-08-28T09:58:10Z</time>
      </trkpt>
      <trkpt lat="45.93819" lon="6.87203">
        <ele>1520</ele>
        <time>2022-08-28T09:58:12Z</time>
      </trkpt>
      <trkpt lat="45.93817" lon="6.87202">
        <ele>1519</ele>
        <time>2022-08-28T09:58:13Z</time>
      </trkpt>
      <trkpt lat="45.93815" lon="6.87202">
        <ele>1519</ele>
        <time>2022-08-28T09:58:14Z</time>
      </trkpt>
      <trkpt lat="45.93814" lon="6.87202">
        <ele>1519</ele>
        <time>2022-08-28T09:58:15Z</time>
      </trkpt>
      <trkpt lat="45.93812" lon="6.87201">
        <ele>1518</ele>
        <time>2022-08-28T09:58:17Z</time>
      </trkpt>
      <trkpt lat="45.9381" lon="6.87201">
        <ele>1518</ele>
        <time>2022-08-28T09:58:18Z</time>
      </trkpt>
      <trkpt lat="45.93808" lon="6.87201">
        <ele>1518</ele>
        <time>2022-08-28T09:58:19Z</time>
      </trkpt>
      <trkpt lat="45.93798" lon="6.87199">
        <ele>1516</ele>
        <time>2022-08-28T09:58:23Z</time>
      </trkpt>
      <trkpt lat="45.93788" lon="6.87199">
        <ele>1515</ele>
        <time>2022-08-28T09:58:28Z</time>
      </trkpt>
      <trkpt lat="45.93787" lon="6.872">
        <ele>1515</ele>
        <time>2022-08-28T09:58:29Z</time>
      </trkpt>
      <trkpt lat="45.93785" lon="6.872">
        <ele>1515</ele>
        <time>2022-08-28T09:58:30Z</time>
      </trkpt>
      <trkpt lat="45.93784" lon="6.872">
        <ele>1514</ele>
        <time>2022-08-28T09:58:31Z</time>
      </trkpt>
      <trkpt lat="45.93782" lon="6.87201">
        <ele>1514</ele>
        <time>2022-08-28T09:58:33Z</time>
      </trkpt>
      <trkpt lat="45.93781" lon="6.87201">
        <ele>1514</ele>
        <time>2022-08-28T09:58:34Z</time>
      </trkpt>
      <trkpt lat="45.93779" lon="6.87202">
        <ele>1514</ele>
        <time>2022-08-28T09:58:35Z</time>
      </trkpt>
      <trkpt lat="45.93778" lon="6.87203">
        <ele>1513</ele>
        <time>2022-08-28T09:58:36Z</time>
      </trkpt>
      <trkpt lat="45.93777" lon="6.87203">
        <ele>1513</ele>
        <time>2022-08-28T09:58:38Z</time>
      </trkpt>
      <trkpt lat="45.93775" lon="6.87204">
        <ele>1513</ele>
        <time>2022-08-28T09:58:39Z</time>
      </trkpt>
      <trkpt lat="45.93774" lon="6.87205">
        <ele>1511</ele>
        <time>2022-08-28T09:58:40Z</time>
      </trkpt>
      <trkpt lat="45.93765" lon="6.87211">
        <ele>1511</ele>
        <time>2022-08-28T09:58:45Z</time>
      </trkpt>
      <trkpt lat="45.93763" lon="6.87212">
        <ele>1511</ele>
        <time>2022-08-28T09:58:47Z</time>
      </trkpt>
      <trkpt lat="45.93761" lon="6.87213">
        <ele>1510</ele>
        <time>2022-08-28T09:58:48Z</time>
      </trkpt>
      <trkpt lat="45.93759" lon="6.87215">
        <ele>1509</ele>
        <time>2022-08-28T09:58:50Z</time>
      </trkpt>
      <trkpt lat="45.93757" lon="6.87216">
        <ele>1509</ele>
        <time>2022-08-28T09:58:51Z</time>
      </trkpt>
      <trkpt lat="45.93755" lon="6.87217">
        <ele>1509</ele>
        <time>2022-08-28T09:58:52Z</time>
      </trkpt>
      <trkpt lat="45.93746" lon="6.87218">
        <ele>1508</ele>
        <time>2022-08-28T09:58:57Z</time>
      </trkpt>
      <trkpt lat="45.93744" lon="6.87218">
        <ele>1508</ele>
        <time>2022-08-28T09:58:58Z</time>
      </trkpt>
      <trkpt lat="45.93742" lon="6.87218">
        <ele>1507</ele>
        <time>2022-08-28T09:58:59Z</time>
      </trkpt>
      <trkpt lat="45.9374" lon="6.87218">
        <ele>1507</ele>
        <time>2022-08-28T09:59:00Z</time>
      </trkpt>
      <trkpt lat="45.93738" lon="6.87218">
        <ele>1506</ele>
        <time>2022-08-28T09:59:02Z</time>
      </trkpt>
      <trkpt lat="45.93737" lon="6.87218">
        <ele>1506</ele>
        <time>2022-08-28T09:59:03Z</time>
      </trkpt>
      <trkpt lat="45.93735" lon="6.87218">
        <ele>1506</ele>
        <time>2022-08-28T09:59:04Z</time>
      </trkpt>
      <trkpt lat="45.93733" lon="6.87217">
        <ele>1505</ele>
        <time>2022-08-28T09:59:05Z</time>
      </trkpt>
      <trkpt lat="45.93731" lon="6.87217">
        <ele>1505</ele>
        <time>2022-08-28T09:59:06Z</time>
      </trkpt>
      <trkpt lat="45.93729" lon="6.87216">
        <ele>1505</ele>
        <time>2022-08-28T09:59:07Z</time>
      </trkpt>
      <trkpt lat="45.93727" lon="6.87216">
        <ele>1505</ele>
        <time>2022-08-28T09:59:08Z</time>
      </trkpt>
      <trkpt lat="45.93725" lon="6.87216">
        <ele>1505</ele>
        <time>2022-08-28T09:59:09Z</time>
      </trkpt>
      <trkpt lat="45.93722" lon="6.87216">
        <ele>1504</ele>
        <time>2022-08-28T09:59:10Z</time>
      </trkpt>
      <trkpt lat="45.9372" lon="6.87217">
        <ele>1504</ele>
        <time>2022-08-28T09:59:11Z</time>
      </trkpt>
      <trkpt lat="45.93718" lon="6.87221">
        <ele>1504</ele>
        <time>2022-08-28T09:59:13Z</time>
      </trkpt>
      <trkpt lat="45.9372" lon="6.87222">
        <ele>1503</ele>
        <time>2022-08-28T09:59:14Z</time>
      </trkpt>
      <trkpt lat="45.93721" lon="6.87224">
        <ele>1503</ele>
        <time>2022-08-28T09:59:16Z</time>
      </trkpt>
      <trkpt lat="45.93722" lon="6.87226">
        <ele>1503</ele>
        <time>2022-08-28T09:59:17Z</time>
      </trkpt>
      <trkpt lat="45.93723" lon="6.87227">
        <ele>1502</ele>
        <time>2022-08-28T09:59:18Z</time>
      </trkpt>
      <trkpt lat="45.93724" lon="6.87229">
        <ele>1502</ele>
        <time>2022-08-28T09:59:20Z</time>
      </trkpt>
      <trkpt lat="45.93726" lon="6.8723">
        <ele>1501</ele>
        <time>2022-08-28T09:59:21Z</time>
      </trkpt>
      <trkpt lat="45.93727" lon="6.87232">
        <ele>1501</ele>
        <time>2022-08-28T09:59:22Z</time>
      </trkpt>
      <trkpt lat="45.93728" lon="6.87233">
        <ele>1501</ele>
        <time>2022-08-28T09:59:23Z</time>
      </trkpt>
      <trkpt lat="45.93729" lon="6.87234">
        <ele>1500</ele>
        <time>2022-08-28T09:59:25Z</time>
      </trkpt>
      <trkpt lat="45.9373" lon="6.87235">
        <ele>1500</ele>
        <time>2022-08-28T09:59:26Z</time>
      </trkpt>
      <trkpt lat="45.93731" lon="6.87236">
        <ele>1500</ele>
        <time>2022-08-28T09:59:27Z</time>
      </trkpt>
      <trkpt lat="45.93732" lon="6.87237">
        <ele>1499</ele>
        <time>2022-08-28T09:59:28Z</time>
      </trkpt>
      <trkpt lat="45.93733" lon="6.87238">
        <ele>1499</ele>
        <time>2022-08-28T09:59:29Z</time>
      </trkpt>
      <trkpt lat="45.93734" lon="6.87239">
        <ele>1498</ele>
        <time>2022-08-28T09:59:30Z</time>
      </trkpt>
      <trkpt lat="45.93735" lon="6.87241">
        <ele>1498</ele>
        <time>2022-08-28T09:59:31Z</time>
      </trkpt>
      <trkpt lat="45.93737" lon="6.87243">
        <ele>1498</ele>
        <time>2022-08-28T09:59:32Z</time>
      </trkpt>
      <trkpt lat="45.93739" lon="6.87244">
        <ele>1497</ele>
        <time>2022-08-28T09:59:33Z</time>
      </trkpt>
      <trkpt lat="45.9374" lon="6.87246">
        <ele>1497</ele>
        <time>2022-08-28T09:59:34Z</time>
      </trkpt>
      <trkpt lat="45.93742" lon="6.87248">
        <ele>1497</ele>
        <time>2022-08-28T09:59:35Z</time>
      </trkpt>
      <trkpt lat="45.93744" lon="6.8725">
        <ele>1496</ele>
        <time>2022-08-28T09:59:37Z</time>
      </trkpt>
      <trkpt lat="45.93746" lon="6.87252">
        <ele>1495</ele>
        <time>2022-08-28T09:59:38Z</time>
      </trkpt>
      <trkpt lat="45.93748" lon="6.87255">
        <ele>1495</ele>
        <time>2022-08-28T09:59:39Z</time>
      </trkpt>
      <trkpt lat="45.9375" lon="6.87257">
        <ele>1495</ele>
        <time>2022-08-28T09:59:40Z</time>
      </trkpt>
      <trkpt lat="45.93751" lon="6.8727">
        <ele>1494</ele>
        <time>2022-08-28T09:59:45Z</time>
      </trkpt>
      <trkpt lat="45.9375" lon="6.87271">
        <ele>1494</ele>
        <time>2022-08-28T09:59:46Z</time>
      </trkpt>
      <trkpt lat="45.93748" lon="6.87272">
        <ele>1493</ele>
        <time>2022-08-28T09:59:47Z</time>
      </trkpt>
      <trkpt lat="45.93747" lon="6.87273">
        <ele>1492</ele>
        <time>2022-08-28T09:59:48Z</time>
      </trkpt>
      <trkpt lat="45.93745" lon="6.87274">
        <ele>1492</ele>
        <time>2022-08-28T09:59:50Z</time>
      </trkpt>
      <trkpt lat="45.93744" lon="6.87275">
        <ele>1492</ele>
        <time>2022-08-28T09:59:51Z</time>
      </trkpt>
      <trkpt lat="45.93743" lon="6.87276">
        <ele>1491</ele>
        <time>2022-08-28T09:59:52Z</time>
      </trkpt>
      <trkpt lat="45.93733" lon="6.87277">
        <ele>1490</ele>
        <time>2022-08-28T09:59:58Z</time>
      </trkpt>
      <trkpt lat="45.93725" lon="6.87279">
        <ele>1489</ele>
        <time>2022-08-28T10:00:03Z</time>
      </trkpt>
      <trkpt lat="45.93723" lon="6.87279">
        <ele>1488</ele>
        <time>2022-08-28T10:00:04Z</time>
      </trkpt>
      <trkpt lat="45.93722" lon="6.8728">
        <ele>1487</ele>
        <time>2022-08-28T10:00:05Z</time>
      </trkpt>
      <trkpt lat="45.9372" lon="6.8728">
        <ele>1487</ele>
        <time>2022-08-28T10:00:07Z</time>
      </trkpt>
      <trkpt lat="45.93718" lon="6.8728">
        <ele>1487</ele>
        <time>2022-08-28T10:00:08Z</time>
      </trkpt>
      <trkpt lat="45.93716" lon="6.87281">
        <ele>1487</ele>
        <time>2022-08-28T10:00:09Z</time>
      </trkpt>
      <trkpt lat="45.93715" lon="6.87281">
        <ele>1487</ele>
        <time>2022-08-28T10:00:10Z</time>
      </trkpt>
      <trkpt lat="45.93713" lon="6.87281">
        <ele>1487</ele>
        <time>2022-08-28T10:00:11Z</time>
      </trkpt>
      <trkpt lat="45.9371" lon="6.87282">
        <ele>1487</ele>
        <time>2022-08-28T10:00:13Z</time>
      </trkpt>
      <trkpt lat="45.93708" lon="6.87281">
        <ele>1486</ele>
        <time>2022-08-28T10:00:14Z</time>
      </trkpt>
      <trkpt lat="45.93706" lon="6.87281">
        <ele>1485</ele>
        <time>2022-08-28T10:00:15Z</time>
      </trkpt>
      <trkpt lat="45.93704" lon="6.8728">
        <ele>1485</ele>
        <time>2022-08-28T10:00:17Z</time>
      </trkpt>
      <trkpt lat="45.93702" lon="6.8728">
        <ele>1485</ele>
        <time>2022-08-28T10:00:18Z</time>
      </trkpt>
      <trkpt lat="45.937" lon="6.87279">
        <ele>1485</ele>
        <time>2022-08-28T10:00:19Z</time>
      </trkpt>
      <trkpt lat="45.93698" lon="6.87279">
        <ele>1485</ele>
        <time>2022-08-28T10:00:20Z</time>
      </trkpt>
      <trkpt lat="45.93696" lon="6.87279">
        <ele>1484</ele>
        <time>2022-08-28T10:00:22Z</time>
      </trkpt>
      <trkpt lat="45.93694" lon="6.87278">
        <ele>1484</ele>
        <time>2022-08-28T10:00:23Z</time>
      </trkpt>
      <trkpt lat="45.93693" lon="6.87278">
        <ele>1484</ele>
        <time>2022-08-28T10:00:24Z</time>
      </trkpt>
      <trkpt lat="45.93691" lon="6.87277">
        <ele>1483</ele>
        <time>2022-08-28T10:00:25Z</time>
      </trkpt>
      <trkpt lat="45.93687" lon="6.87276">
        <ele>1483</ele>
        <time>2022-08-28T10:00:28Z</time>
      </trkpt>
      <trkpt lat="45.93685" lon="6.87277">
        <ele>1483</ele>
        <time>2022-08-28T10:00:29Z</time>
      </trkpt>
      <trkpt lat="45.93684" lon="6.87277">
        <ele>1483</ele>
        <time>2022-08-28T10:00:30Z</time>
      </trkpt>
      <trkpt lat="45.93683" lon="6.87277">
        <ele>1483</ele>
        <time>2022-08-28T10:00:31Z</time>
      </trkpt>
      <trkpt lat="45.93681" lon="6.87277">
        <ele>1483</ele>
        <time>2022-08-28T10:00:32Z</time>
      </trkpt>
      <trkpt lat="45.93679" lon="6.87276">
        <ele>1483</ele>
        <time>2022-08-28T10:00:33Z</time>
      </trkpt>
      <trkpt lat="45.93677" lon="6.87275">
        <ele>1480</ele>
        <time>2022-08-28T10:00:35Z</time>
      </trkpt>
      <trkpt lat="45.93675" lon="6.87274">
        <ele>1480</ele>
        <time>2022-08-28T10:00:36Z</time>
      </trkpt>
      <trkpt lat="45.93673" lon="6.87273">
        <ele>1480</ele>
        <time>2022-08-28T10:00:37Z</time>
      </trkpt>
      <trkpt lat="45.93671" lon="6.87271">
        <ele>1480</ele>
        <time>2022-08-28T10:00:39Z</time>
      </trkpt>
      <trkpt lat="45.9367" lon="6.87269">
        <ele>1480</ele>
        <time>2022-08-28T10:00:41Z</time>
      </trkpt>
      <trkpt lat="45.93667" lon="6.87267">
        <ele>1480</ele>
        <time>2022-08-28T10:00:44Z</time>
      </trkpt>
      <trkpt lat="45.93665" lon="6.87266">
        <ele>1480</ele>
        <time>2022-08-28T10:00:47Z</time>
      </trkpt>
      <trkpt lat="45.93663" lon="6.87265">
        <ele>1480</ele>
        <time>2022-08-28T10:00:49Z</time>
      </trkpt>
      <trkpt lat="45.9366" lon="6.87263">
        <ele>1480</ele>
        <time>2022-08-28T10:00:51Z</time>
      </trkpt>
      <trkpt lat="45.93658" lon="6.87261">
        <ele>1480</ele>
        <time>2022-08-28T10:00:53Z</time>
      </trkpt>
      <trkpt lat="45.93656" lon="6.87259">
        <ele>1479</ele>
        <time>2022-08-28T10:00:55Z</time>
      </trkpt>
      <trkpt lat="45.93654" lon="6.87258">
        <ele>1479</ele>
        <time>2022-08-28T10:00:57Z</time>
      </trkpt>
      <trkpt lat="45.93652" lon="6.87257">
        <ele>1478</ele>
        <time>2022-08-28T10:00:58Z</time>
      </trkpt>
      <trkpt lat="45.9365" lon="6.87256">
        <ele>1478</ele>
        <time>2022-08-28T10:01:00Z</time>
      </trkpt>
      <trkpt lat="45.93649" lon="6.87256">
        <ele>1478</ele>
        <time>2022-08-28T10:01:01Z</time>
      </trkpt>
      <trkpt lat="45.93647" lon="6.87255">
        <ele>1478</ele>
        <time>2022-08-28T10:01:02Z</time>
      </trkpt>
      <trkpt lat="45.93646" lon="6.87255">
        <ele>1477</ele>
        <time>2022-08-28T10:01:03Z</time>
      </trkpt>
      <trkpt lat="45.93644" lon="6.87254">
        <ele>1477</ele>
        <time>2022-08-28T10:01:04Z</time>
      </trkpt>
      <trkpt lat="45.93642" lon="6.87254">
        <ele>1477</ele>
        <time>2022-08-28T10:01:05Z</time>
      </trkpt>
      <trkpt lat="45.93641" lon="6.87252">
        <ele>1477</ele>
        <time>2022-08-28T10:01:06Z</time>
      </trkpt>
      <trkpt lat="45.9364" lon="6.8725">
        <ele>1476</ele>
        <time>2022-08-28T10:01:07Z</time>
      </trkpt>
      <trkpt lat="45.93638" lon="6.87249">
        <ele>1476</ele>
        <time>2022-08-28T10:01:08Z</time>
      </trkpt>
      <trkpt lat="45.93637" lon="6.87247">
        <ele>1476</ele>
        <time>2022-08-28T10:01:09Z</time>
      </trkpt>
      <trkpt lat="45.93635" lon="6.87245">
        <ele>1476</ele>
        <time>2022-08-28T10:01:10Z</time>
      </trkpt>
      <trkpt lat="45.93633" lon="6.87244">
        <ele>1475</ele>
        <time>2022-08-28T10:01:12Z</time>
      </trkpt>
      <trkpt lat="45.93631" lon="6.87242">
        <ele>1475</ele>
        <time>2022-08-28T10:01:13Z</time>
      </trkpt>
      <trkpt lat="45.93629" lon="6.87241">
        <ele>1475</ele>
        <time>2022-08-28T10:01:14Z</time>
      </trkpt>
      <trkpt lat="45.93627" lon="6.87239">
        <ele>1474</ele>
        <time>2022-08-28T10:01:15Z</time>
      </trkpt>
      <trkpt lat="45.93626" lon="6.87238">
        <ele>1474</ele>
        <time>2022-08-28T10:01:17Z</time>
      </trkpt>
      <trkpt lat="45.93624" lon="6.87237">
        <ele>1474</ele>
        <time>2022-08-28T10:01:18Z</time>
      </trkpt>
      <trkpt lat="45.93622" lon="6.87236">
        <ele>1473</ele>
        <time>2022-08-28T10:01:19Z</time>
      </trkpt>
      <trkpt lat="45.93621" lon="6.87235">
        <ele>1473</ele>
        <time>2022-08-28T10:01:20Z</time>
      </trkpt>
      <trkpt lat="45.93619" lon="6.87235">
        <ele>1473</ele>
        <time>2022-08-28T10:01:21Z</time>
      </trkpt>
      <trkpt lat="45.93618" lon="6.87234">
        <ele>1473</ele>
        <time>2022-08-28T10:01:22Z</time>
      </trkpt>
      <trkpt lat="45.93616" lon="6.87232">
        <ele>1472</ele>
        <time>2022-08-28T10:01:24Z</time>
      </trkpt>
      <trkpt lat="45.93615" lon="6.8723">
        <ele>1472</ele>
        <time>2022-08-28T10:01:25Z</time>
      </trkpt>
      <trkpt lat="45.93614" lon="6.87228">
        <ele>1471</ele>
        <time>2022-08-28T10:01:26Z</time>
      </trkpt>
      <trkpt lat="45.9361" lon="6.87223">
        <ele>1471</ele>
        <time>2022-08-28T10:01:27Z</time>
      </trkpt>
      <trkpt lat="45.93602" lon="6.87215">
        <ele>1470</ele>
        <time>2022-08-28T10:01:31Z</time>
      </trkpt>
      <trkpt lat="45.93601" lon="6.87213">
        <ele>1470</ele>
        <time>2022-08-28T10:01:32Z</time>
      </trkpt>
      <trkpt lat="45.936" lon="6.87211">
        <ele>1469</ele>
        <time>2022-08-28T10:01:33Z</time>
      </trkpt>
      <trkpt lat="45.93599" lon="6.87209">
        <ele>1469</ele>
        <time>2022-08-28T10:01:34Z</time>
      </trkpt>
      <trkpt lat="45.93598" lon="6.87208">
        <ele>1469</ele>
        <time>2022-08-28T10:01:35Z</time>
      </trkpt>
      <trkpt lat="45.93597" lon="6.87206">
        <ele>1469</ele>
        <time>2022-08-28T10:01:36Z</time>
      </trkpt>
      <trkpt lat="45.93594" lon="6.87201">
        <ele>1469</ele>
        <time>2022-08-28T10:01:37Z</time>
      </trkpt>
      <trkpt lat="45.93592" lon="6.87199">
        <ele>1469</ele>
        <time>2022-08-28T10:01:38Z</time>
      </trkpt>
      <trkpt lat="45.93591" lon="6.87197">
        <ele>1468</ele>
        <time>2022-08-28T10:01:39Z</time>
      </trkpt>
      <trkpt lat="45.9359" lon="6.87195">
        <ele>1468</ele>
        <time>2022-08-28T10:01:40Z</time>
      </trkpt>
      <trkpt lat="45.93587" lon="6.87192">
        <ele>1468</ele>
        <time>2022-08-28T10:01:42Z</time>
      </trkpt>
      <trkpt lat="45.93585" lon="6.87188">
        <ele>1468</ele>
        <time>2022-08-28T10:01:44Z</time>
      </trkpt>
      <trkpt lat="45.93584" lon="6.87185">
        <ele>1468</ele>
        <time>2022-08-28T10:01:45Z</time>
      </trkpt>
      <trkpt lat="45.93583" lon="6.87183">
        <ele>1467</ele>
        <time>2022-08-28T10:01:46Z</time>
      </trkpt>
      <trkpt lat="45.9358" lon="6.8718">
        <ele>1467</ele>
        <time>2022-08-28T10:01:48Z</time>
      </trkpt>
      <trkpt lat="45.93579" lon="6.87178">
        <ele>1467</ele>
        <time>2022-08-28T10:01:49Z</time>
      </trkpt>
      <trkpt lat="45.93578" lon="6.87176">
        <ele>1465</ele>
        <time>2022-08-28T10:01:51Z</time>
      </trkpt>
      <trkpt lat="45.93576" lon="6.87175">
        <ele>1465</ele>
        <time>2022-08-28T10:01:52Z</time>
      </trkpt>
      <trkpt lat="45.93575" lon="6.87173">
        <ele>1465</ele>
        <time>2022-08-28T10:01:53Z</time>
      </trkpt>
      <trkpt lat="45.93574" lon="6.87171">
        <ele>1465</ele>
        <time>2022-08-28T10:01:54Z</time>
      </trkpt>
      <trkpt lat="45.93572" lon="6.87169">
        <ele>1464</ele>
        <time>2022-08-28T10:01:55Z</time>
      </trkpt>
      <trkpt lat="45.93569" lon="6.87167">
        <ele>1464</ele>
        <time>2022-08-28T10:01:56Z</time>
      </trkpt>
      <trkpt lat="45.93566" lon="6.87166">
        <ele>1463</ele>
        <time>2022-08-28T10:01:57Z</time>
      </trkpt>
      <trkpt lat="45.93563" lon="6.87165">
        <ele>1463</ele>
        <time>2022-08-28T10:01:58Z</time>
      </trkpt>
      <trkpt lat="45.93563" lon="6.87164">
        <ele>1463</ele>
        <time>2022-08-28T10:02:00Z</time>
      </trkpt>
      <trkpt lat="45.93562" lon="6.87164">
        <ele>1463</ele>
        <time>2022-08-28T10:02:01Z</time>
      </trkpt>
      <trkpt lat="45.93561" lon="6.87164">
        <ele>1462</ele>
        <time>2022-08-28T10:02:02Z</time>
      </trkpt>
      <trkpt lat="45.9356" lon="6.87164">
        <ele>1462</ele>
        <time>2022-08-28T10:02:03Z</time>
      </trkpt>
      <trkpt lat="45.93551" lon="6.87161">
        <ele>1462</ele>
        <time>2022-08-28T10:02:05Z</time>
      </trkpt>
      <trkpt lat="45.93549" lon="6.87159">
        <ele>1461</ele>
        <time>2022-08-28T10:02:07Z</time>
      </trkpt>
      <trkpt lat="45.93546" lon="6.87158">
        <ele>1461</ele>
        <time>2022-08-28T10:02:08Z</time>
      </trkpt>
      <trkpt lat="45.93544" lon="6.87157">
        <ele>1461</ele>
        <time>2022-08-28T10:02:09Z</time>
      </trkpt>
      <trkpt lat="45.93542" lon="6.87156">
        <ele>1461</ele>
        <time>2022-08-28T10:02:10Z</time>
      </trkpt>
      <trkpt lat="45.93541" lon="6.87154">
        <ele>1461</ele>
        <time>2022-08-28T10:02:11Z</time>
      </trkpt>
      <trkpt lat="45.93539" lon="6.87153">
        <ele>1461</ele>
        <time>2022-08-28T10:02:12Z</time>
      </trkpt>
      <trkpt lat="45.93537" lon="6.87152">
        <ele>1461</ele>
        <time>2022-08-28T10:02:13Z</time>
      </trkpt>
      <trkpt lat="45.93535" lon="6.87151">
        <ele>1461</ele>
        <time>2022-08-28T10:02:14Z</time>
      </trkpt>
      <trkpt lat="45.93527" lon="6.87142">
        <ele>1459</ele>
        <time>2022-08-28T10:02:19Z</time>
      </trkpt>
      <trkpt lat="45.93526" lon="6.87142">
        <ele>1459</ele>
        <time>2022-08-28T10:02:21Z</time>
      </trkpt>
      <trkpt lat="45.93525" lon="6.87142">
        <ele>1458</ele>
        <time>2022-08-28T10:02:22Z</time>
      </trkpt>
      <trkpt lat="45.93524" lon="6.87141">
        <ele>1458</ele>
        <time>2022-08-28T10:02:23Z</time>
      </trkpt>
      <trkpt lat="45.93523" lon="6.87141">
        <ele>1458</ele>
        <time>2022-08-28T10:02:24Z</time>
      </trkpt>
      <trkpt lat="45.93514" lon="6.87137">
        <ele>1458</ele>
        <time>2022-08-28T10:02:26Z</time>
      </trkpt>
      <trkpt lat="45.93513" lon="6.87136">
        <ele>1457</ele>
        <time>2022-08-28T10:02:27Z</time>
      </trkpt>
      <trkpt lat="45.93511" lon="6.87135">
        <ele>1456</ele>
        <time>2022-08-28T10:02:28Z</time>
      </trkpt>
      <trkpt lat="45.93509" lon="6.87134">
        <ele>1457</ele>
        <time>2022-08-28T10:02:29Z</time>
      </trkpt>
      <trkpt lat="45.93508" lon="6.87133">
        <ele>1457</ele>
        <time>2022-08-28T10:02:30Z</time>
      </trkpt>
      <trkpt lat="45.93506" lon="6.87132">
        <ele>1457</ele>
        <time>2022-08-28T10:02:31Z</time>
      </trkpt>
      <trkpt lat="45.93505" lon="6.87131">
        <ele>1456</ele>
        <time>2022-08-28T10:02:32Z</time>
      </trkpt>
      <trkpt lat="45.93503" lon="6.8713">
        <ele>1456</ele>
        <time>2022-08-28T10:02:33Z</time>
      </trkpt>
      <trkpt lat="45.93502" lon="6.87129">
        <ele>1456</ele>
        <time>2022-08-28T10:02:34Z</time>
      </trkpt>
      <trkpt lat="45.935" lon="6.87128">
        <ele>1456</ele>
        <time>2022-08-28T10:02:35Z</time>
      </trkpt>
      <trkpt lat="45.93499" lon="6.87128">
        <ele>1456</ele>
        <time>2022-08-28T10:02:36Z</time>
      </trkpt>
      <trkpt lat="45.93498" lon="6.87127">
        <ele>1456</ele>
        <time>2022-08-28T10:02:37Z</time>
      </trkpt>
      <trkpt lat="45.93495" lon="6.87123">
        <ele>1456</ele>
        <time>2022-08-28T10:02:40Z</time>
      </trkpt>
      <trkpt lat="45.93493" lon="6.87121">
        <ele>1456</ele>
        <time>2022-08-28T10:02:43Z</time>
      </trkpt>
      <trkpt lat="45.9349" lon="6.87119">
        <ele>1455</ele>
        <time>2022-08-28T10:02:46Z</time>
      </trkpt>
      <trkpt lat="45.93487" lon="6.87117">
        <ele>1455</ele>
        <time>2022-08-28T10:02:48Z</time>
      </trkpt>
      <trkpt lat="45.93484" lon="6.87115">
        <ele>1455</ele>
        <time>2022-08-28T10:02:50Z</time>
      </trkpt>
      <trkpt lat="45.93482" lon="6.87114">
        <ele>1455</ele>
        <time>2022-08-28T10:02:51Z</time>
      </trkpt>
      <trkpt lat="45.9348" lon="6.87113">
        <ele>1455</ele>
        <time>2022-08-28T10:02:52Z</time>
      </trkpt>
      <trkpt lat="45.93479" lon="6.87112">
        <ele>1455</ele>
        <time>2022-08-28T10:02:53Z</time>
      </trkpt>
      <trkpt lat="45.93476" lon="6.8711">
        <ele>1455</ele>
        <time>2022-08-28T10:02:55Z</time>
      </trkpt>
      <trkpt lat="45.93474" lon="6.87109">
        <ele>1455</ele>
        <time>2022-08-28T10:02:56Z</time>
      </trkpt>
      <trkpt lat="45.93472" lon="6.87108">
        <ele>1454</ele>
        <time>2022-08-28T10:02:57Z</time>
      </trkpt>
      <trkpt lat="45.93469" lon="6.87106">
        <ele>1454</ele>
        <time>2022-08-28T10:02:59Z</time>
      </trkpt>
      <trkpt lat="45.93461" lon="6.87098">
        <ele>1453</ele>
        <time>2022-08-28T10:03:04Z</time>
      </trkpt>
      <trkpt lat="45.93459" lon="6.87097">
        <ele>1453</ele>
        <time>2022-08-28T10:03:05Z</time>
      </trkpt>
      <trkpt lat="45.93457" lon="6.87096">
        <ele>1453</ele>
        <time>2022-08-28T10:03:06Z</time>
      </trkpt>
      <trkpt lat="45.93456" lon="6.87095">
        <ele>1453</ele>
        <time>2022-08-28T10:03:08Z</time>
      </trkpt>
      <trkpt lat="45.93454" lon="6.87094">
        <ele>1453</ele>
        <time>2022-08-28T10:03:09Z</time>
      </trkpt>
      <trkpt lat="45.93452" lon="6.87093">
        <ele>1453</ele>
        <time>2022-08-28T10:03:10Z</time>
      </trkpt>
      <trkpt lat="45.9345" lon="6.87092">
        <ele>1453</ele>
        <time>2022-08-28T10:03:11Z</time>
      </trkpt>
      <trkpt lat="45.93447" lon="6.87091">
        <ele>1452</ele>
        <time>2022-08-28T10:03:12Z</time>
      </trkpt>
      <trkpt lat="45.93445" lon="6.8709">
        <ele>1452</ele>
        <time>2022-08-28T10:03:13Z</time>
      </trkpt>
      <trkpt lat="45.93443" lon="6.8709">
        <ele>1452</ele>
        <time>2022-08-28T10:03:14Z</time>
      </trkpt>
      <trkpt lat="45.93441" lon="6.87089">
        <ele>1452</ele>
        <time>2022-08-28T10:03:15Z</time>
      </trkpt>
      <trkpt lat="45.93439" lon="6.87088">
        <ele>1452</ele>
        <time>2022-08-28T10:03:16Z</time>
      </trkpt>
      <trkpt lat="45.93437" lon="6.87087">
        <ele>1452</ele>
        <time>2022-08-28T10:03:18Z</time>
      </trkpt>
      <trkpt lat="45.93435" lon="6.87087">
        <ele>1452</ele>
        <time>2022-08-28T10:03:19Z</time>
      </trkpt>
      <trkpt lat="45.93433" lon="6.87087">
        <ele>1451</ele>
        <time>2022-08-28T10:03:20Z</time>
      </trkpt>
      <trkpt lat="45.93431" lon="6.87087">
        <ele>1451</ele>
        <time>2022-08-28T10:03:21Z</time>
      </trkpt>
      <trkpt lat="45.93429" lon="6.87086">
        <ele>1451</ele>
        <time>2022-08-28T10:03:22Z</time>
      </trkpt>
      <trkpt lat="45.93418" lon="6.87085">
        <ele>1451</ele>
        <time>2022-08-28T10:03:27Z</time>
      </trkpt>
      <trkpt lat="45.93416" lon="6.87085">
        <ele>1451</ele>
        <time>2022-08-28T10:03:28Z</time>
      </trkpt>
      <trkpt lat="45.93414" lon="6.87085">
        <ele>1451</ele>
        <time>2022-08-28T10:03:29Z</time>
      </trkpt>
      <trkpt lat="45.93412" lon="6.87085">
        <ele>1450</ele>
        <time>2022-08-28T10:03:30Z</time>
      </trkpt>
      <trkpt lat="45.9341" lon="6.87086">
        <ele>1450</ele>
        <time>2022-08-28T10:03:32Z</time>
      </trkpt>
      <trkpt lat="45.93408" lon="6.87086">
        <ele>1450</ele>
        <time>2022-08-28T10:03:33Z</time>
      </trkpt>
      <trkpt lat="45.93406" lon="6.87086">
        <ele>1450</ele>
        <time>2022-08-28T10:03:34Z</time>
      </trkpt>
      <trkpt lat="45.93404" lon="6.87086">
        <ele>1450</ele>
        <time>2022-08-28T10:03:35Z</time>
      </trkpt>
      <trkpt lat="45.93402" lon="6.87085">
        <ele>1450</ele>
        <time>2022-08-28T10:03:36Z</time>
      </trkpt>
      <trkpt lat="45.934" lon="6.87085">
        <ele>1450</ele>
        <time>2022-08-28T10:03:37Z</time>
      </trkpt>
      <trkpt lat="45.93398" lon="6.87085">
        <ele>1450</ele>
        <time>2022-08-28T10:03:38Z</time>
      </trkpt>
      <trkpt lat="45.93395" lon="6.87085">
        <ele>1449</ele>
        <time>2022-08-28T10:03:40Z</time>
      </trkpt>
      <trkpt lat="45.93392" lon="6.87084">
        <ele>1449</ele>
        <time>2022-08-28T10:03:42Z</time>
      </trkpt>
      <trkpt lat="45.93388" lon="6.87084">
        <ele>1449</ele>
        <time>2022-08-28T10:03:43Z</time>
      </trkpt>
      <trkpt lat="45.93385" lon="6.87083">
        <ele>1449</ele>
        <time>2022-08-28T10:03:44Z</time>
      </trkpt>
      <trkpt lat="45.93382" lon="6.87083">
        <ele>1449</ele>
        <time>2022-08-28T10:03:46Z</time>
      </trkpt>
      <trkpt lat="45.93379" lon="6.87082">
        <ele>1448</ele>
        <time>2022-08-28T10:03:47Z</time>
      </trkpt>
      <trkpt lat="45.93378" lon="6.87082">
        <ele>1448</ele>
        <time>2022-08-28T10:03:48Z</time>
      </trkpt>
      <trkpt lat="45.93376" lon="6.87083">
        <ele>1448</ele>
        <time>2022-08-28T10:03:49Z</time>
      </trkpt>
      <trkpt lat="45.93375" lon="6.87083">
        <ele>1448</ele>
        <time>2022-08-28T10:03:51Z</time>
      </trkpt>
      <trkpt lat="45.93374" lon="6.87083">
        <ele>1448</ele>
        <time>2022-08-28T10:03:52Z</time>
      </trkpt>
      <trkpt lat="45.93366" lon="6.87084">
        <ele>1448</ele>
        <time>2022-08-28T10:03:53Z</time>
      </trkpt>
      <trkpt lat="45.93363" lon="6.87084">
        <ele>1448</ele>
        <time>2022-08-28T10:03:54Z</time>
      </trkpt>
      <trkpt lat="45.93361" lon="6.87085">
        <ele>1448</ele>
        <time>2022-08-28T10:03:56Z</time>
      </trkpt>
      <trkpt lat="45.93359" lon="6.87085">
        <ele>1448</ele>
        <time>2022-08-28T10:03:57Z</time>
      </trkpt>
      <trkpt lat="45.93357" lon="6.87085">
        <ele>1448</ele>
        <time>2022-08-28T10:03:58Z</time>
      </trkpt>
      <trkpt lat="45.93356" lon="6.87086">
        <ele>1448</ele>
        <time>2022-08-28T10:03:59Z</time>
      </trkpt>
      <trkpt lat="45.93354" lon="6.87086">
        <ele>1448</ele>
        <time>2022-08-28T10:04:00Z</time>
      </trkpt>
      <trkpt lat="45.93352" lon="6.87086">
        <ele>1448</ele>
        <time>2022-08-28T10:04:01Z</time>
      </trkpt>
      <trkpt lat="45.93348" lon="6.87087">
        <ele>1448</ele>
        <time>2022-08-28T10:04:02Z</time>
      </trkpt>
      <trkpt lat="45.93344" lon="6.87087">
        <ele>1447</ele>
        <time>2022-08-28T10:04:04Z</time>
      </trkpt>
      <trkpt lat="45.93342" lon="6.87087">
        <ele>1447</ele>
        <time>2022-08-28T10:04:05Z</time>
      </trkpt>
      <trkpt lat="45.9334" lon="6.87087">
        <ele>1447</ele>
        <time>2022-08-28T10:04:06Z</time>
      </trkpt>
      <trkpt lat="45.93338" lon="6.87087">
        <ele>1447</ele>
        <time>2022-08-28T10:04:08Z</time>
      </trkpt>
      <trkpt lat="45.93336" lon="6.87086">
        <ele>1447</ele>
        <time>2022-08-28T10:04:09Z</time>
      </trkpt>
      <trkpt lat="45.93334" lon="6.87086">
        <ele>1447</ele>
        <time>2022-08-28T10:04:10Z</time>
      </trkpt>
      <trkpt lat="45.93331" lon="6.87085">
        <ele>1447</ele>
        <time>2022-08-28T10:04:11Z</time>
      </trkpt>
      <trkpt lat="45.93329" lon="6.87085">
        <ele>1447</ele>
        <time>2022-08-28T10:04:13Z</time>
      </trkpt>
      <trkpt lat="45.93327" lon="6.87085">
        <ele>1447</ele>
        <time>2022-08-28T10:04:14Z</time>
      </trkpt>
      <trkpt lat="45.93325" lon="6.87084">
        <ele>1446</ele>
        <time>2022-08-28T10:04:15Z</time>
      </trkpt>
      <trkpt lat="45.93322" lon="6.87084">
        <ele>1446</ele>
        <time>2022-08-28T10:04:16Z</time>
      </trkpt>
      <trkpt lat="45.93319" lon="6.87084">
        <ele>1445</ele>
        <time>2022-08-28T10:04:18Z</time>
      </trkpt>
      <trkpt lat="45.93315" lon="6.87084">
        <ele>1446</ele>
        <time>2022-08-28T10:04:20Z</time>
      </trkpt>
      <trkpt lat="45.93312" lon="6.87084">
        <ele>1446</ele>
        <time>2022-08-28T10:04:21Z</time>
      </trkpt>
      <trkpt lat="45.9331" lon="6.87085">
        <ele>1445</ele>
        <time>2022-08-28T10:04:22Z</time>
      </trkpt>
      <trkpt lat="45.93309" lon="6.87085">
        <ele>1445</ele>
        <time>2022-08-28T10:04:23Z</time>
      </trkpt>
      <trkpt lat="45.93307" lon="6.87085">
        <ele>1445</ele>
        <time>2022-08-28T10:04:25Z</time>
      </trkpt>
      <trkpt lat="45.93305" lon="6.87085">
        <ele>1445</ele>
        <time>2022-08-28T10:04:26Z</time>
      </trkpt>
      <trkpt lat="45.93303" lon="6.87085">
        <ele>1445</ele>
        <time>2022-08-28T10:04:27Z</time>
      </trkpt>
      <trkpt lat="45.93302" lon="6.87085">
        <ele>1445</ele>
        <time>2022-08-28T10:04:28Z</time>
      </trkpt>
      <trkpt lat="45.933" lon="6.87085">
        <ele>1445</ele>
        <time>2022-08-28T10:04:29Z</time>
      </trkpt>
      <trkpt lat="45.93298" lon="6.87084">
        <ele>1445</ele>
        <time>2022-08-28T10:04:30Z</time>
      </trkpt>
      <trkpt lat="45.93296" lon="6.87084">
        <ele>1444</ele>
        <time>2022-08-28T10:04:31Z</time>
      </trkpt>
      <trkpt lat="45.93294" lon="6.87084">
        <ele>1444</ele>
        <time>2022-08-28T10:04:32Z</time>
      </trkpt>
      <trkpt lat="45.93292" lon="6.87084">
        <ele>1444</ele>
        <time>2022-08-28T10:04:33Z</time>
      </trkpt>
      <trkpt lat="45.93288" lon="6.87083">
        <ele>1444</ele>
        <time>2022-08-28T10:04:35Z</time>
      </trkpt>
      <trkpt lat="45.93285" lon="6.87083">
        <ele>1443</ele>
        <time>2022-08-28T10:04:36Z</time>
      </trkpt>
      <trkpt lat="45.93282" lon="6.87083">
        <ele>1442</ele>
        <time>2022-08-28T10:04:37Z</time>
      </trkpt>
      <trkpt lat="45.93272" lon="6.87083">
        <ele>1441</ele>
        <time>2022-08-28T10:04:43Z</time>
      </trkpt>
      <trkpt lat="45.93263" lon="6.87085">
        <ele>1439</ele>
        <time>2022-08-28T10:04:48Z</time>
      </trkpt>
      <trkpt lat="45.93261" lon="6.87085">
        <ele>1438</ele>
        <time>2022-08-28T10:04:49Z</time>
      </trkpt>
      <trkpt lat="45.9326" lon="6.87085">
        <ele>1437</ele>
        <time>2022-08-28T10:04:50Z</time>
      </trkpt>
      <trkpt lat="45.93258" lon="6.87085">
        <ele>1437</ele>
        <time>2022-08-28T10:04:51Z</time>
      </trkpt>
      <trkpt lat="45.93257" lon="6.87085">
        <ele>1437</ele>
        <time>2022-08-28T10:04:52Z</time>
      </trkpt>
      <trkpt lat="45.93255" lon="6.87086">
        <ele>1437</ele>
        <time>2022-08-28T10:04:53Z</time>
      </trkpt>
      <trkpt lat="45.93253" lon="6.87086">
        <ele>1435</ele>
        <time>2022-08-28T10:04:54Z</time>
      </trkpt>
      <trkpt lat="45.93251" lon="6.87086">
        <ele>1435</ele>
        <time>2022-08-28T10:04:56Z</time>
      </trkpt>
      <trkpt lat="45.93248" lon="6.87087">
        <ele>1435</ele>
        <time>2022-08-28T10:04:57Z</time>
      </trkpt>
      <trkpt lat="45.93246" lon="6.87087">
        <ele>1435</ele>
        <time>2022-08-28T10:04:58Z</time>
      </trkpt>
      <trkpt lat="45.93244" lon="6.87087">
        <ele>1435</ele>
        <time>2022-08-28T10:04:59Z</time>
      </trkpt>
      <trkpt lat="45.93242" lon="6.87087">
        <ele>1435</ele>
        <time>2022-08-28T10:05:00Z</time>
      </trkpt>
      <trkpt lat="45.9324" lon="6.87087">
        <ele>1434</ele>
        <time>2022-08-28T10:05:02Z</time>
      </trkpt>
      <trkpt lat="45.93239" lon="6.87088">
        <ele>1433</ele>
        <time>2022-08-28T10:05:03Z</time>
      </trkpt>
      <trkpt lat="45.93237" lon="6.87088">
        <ele>1433</ele>
        <time>2022-08-28T10:05:04Z</time>
      </trkpt>
      <trkpt lat="45.93235" lon="6.87088">
        <ele>1433</ele>
        <time>2022-08-28T10:05:05Z</time>
      </trkpt>
      <trkpt lat="45.93233" lon="6.87088">
        <ele>1432</ele>
        <time>2022-08-28T10:05:07Z</time>
      </trkpt>
      <trkpt lat="45.93231" lon="6.87088">
        <ele>1431</ele>
        <time>2022-08-28T10:05:08Z</time>
      </trkpt>
      <trkpt lat="45.93229" lon="6.87089">
        <ele>1431</ele>
        <time>2022-08-28T10:05:09Z</time>
      </trkpt>
      <trkpt lat="45.93227" lon="6.87089">
        <ele>1430</ele>
        <time>2022-08-28T10:05:10Z</time>
      </trkpt>
      <trkpt lat="45.93226" lon="6.87089">
        <ele>1430</ele>
        <time>2022-08-28T10:05:12Z</time>
      </trkpt>
      <trkpt lat="45.93224" lon="6.87089">
        <ele>1430</ele>
        <time>2022-08-28T10:05:13Z</time>
      </trkpt>
      <trkpt lat="45.93222" lon="6.87089">
        <ele>1430</ele>
        <time>2022-08-28T10:05:14Z</time>
      </trkpt>
      <trkpt lat="45.93221" lon="6.87089">
        <ele>1429</ele>
        <time>2022-08-28T10:05:15Z</time>
      </trkpt>
      <trkpt lat="45.93219" lon="6.87089">
        <ele>1429</ele>
        <time>2022-08-28T10:05:16Z</time>
      </trkpt>
      <trkpt lat="45.93218" lon="6.87089">
        <ele>1429</ele>
        <time>2022-08-28T10:05:17Z</time>
      </trkpt>
      <trkpt lat="45.93215" lon="6.8709">
        <ele>1428</ele>
        <time>2022-08-28T10:05:19Z</time>
      </trkpt>
      <trkpt lat="45.93213" lon="6.87091">
        <ele>1428</ele>
        <time>2022-08-28T10:05:20Z</time>
      </trkpt>
      <trkpt lat="45.9321" lon="6.87092">
        <ele>1428</ele>
        <time>2022-08-28T10:05:21Z</time>
      </trkpt>
      <trkpt lat="45.93208" lon="6.87093">
        <ele>1427</ele>
        <time>2022-08-28T10:05:22Z</time>
      </trkpt>
      <trkpt lat="45.93206" lon="6.87094">
        <ele>1427</ele>
        <time>2022-08-28T10:05:23Z</time>
      </trkpt>
      <trkpt lat="45.93204" lon="6.87094">
        <ele>1427</ele>
        <time>2022-08-28T10:05:24Z</time>
      </trkpt>
      <trkpt lat="45.93202" lon="6.87095">
        <ele>1427</ele>
        <time>2022-08-28T10:05:25Z</time>
      </trkpt>
      <trkpt lat="45.932" lon="6.87095">
        <ele>1427</ele>
        <time>2022-08-28T10:05:26Z</time>
      </trkpt>
      <trkpt lat="45.93198" lon="6.87096">
        <ele>1425</ele>
        <time>2022-08-28T10:05:27Z</time>
      </trkpt>
      <trkpt lat="45.93188" lon="6.87098">
        <ele>1423</ele>
        <time>2022-08-28T10:05:32Z</time>
      </trkpt>
      <trkpt lat="45.93186" lon="6.87097">
        <ele>1422</ele>
        <time>2022-08-28T10:05:34Z</time>
      </trkpt>
      <trkpt lat="45.93184" lon="6.87097">
        <ele>1422</ele>
        <time>2022-08-28T10:05:36Z</time>
      </trkpt>
      <trkpt lat="45.93183" lon="6.87097">
        <ele>1422</ele>
        <time>2022-08-28T10:05:37Z</time>
      </trkpt>
      <trkpt lat="45.93181" lon="6.87097">
        <ele>1421</ele>
        <time>2022-08-28T10:05:38Z</time>
      </trkpt>
      <trkpt lat="45.93179" lon="6.87096">
        <ele>1421</ele>
        <time>2022-08-28T10:05:39Z</time>
      </trkpt>
      <trkpt lat="45.93177" lon="6.87096">
        <ele>1420</ele>
        <time>2022-08-28T10:05:40Z</time>
      </trkpt>
      <trkpt lat="45.93175" lon="6.87096">
        <ele>1420</ele>
        <time>2022-08-28T10:05:41Z</time>
      </trkpt>
      <trkpt lat="45.93173" lon="6.87096">
        <ele>1420</ele>
        <time>2022-08-28T10:05:42Z</time>
      </trkpt>
      <trkpt lat="45.93171" lon="6.87096">
        <ele>1419</ele>
        <time>2022-08-28T10:05:43Z</time>
      </trkpt>
      <trkpt lat="45.93169" lon="6.87096">
        <ele>1419</ele>
        <time>2022-08-28T10:05:45Z</time>
      </trkpt>
      <trkpt lat="45.93167" lon="6.87096">
        <ele>1419</ele>
        <time>2022-08-28T10:05:46Z</time>
      </trkpt>
      <trkpt lat="45.93166" lon="6.87096">
        <ele>1418</ele>
        <time>2022-08-28T10:05:47Z</time>
      </trkpt>
      <trkpt lat="45.93164" lon="6.87097">
        <ele>1418</ele>
        <time>2022-08-28T10:05:48Z</time>
      </trkpt>
      <trkpt lat="45.93163" lon="6.87097">
        <ele>1417</ele>
        <time>2022-08-28T10:05:50Z</time>
      </trkpt>
      <trkpt lat="45.93161" lon="6.87098">
        <ele>1417</ele>
        <time>2022-08-28T10:05:51Z</time>
      </trkpt>
      <trkpt lat="45.93159" lon="6.87098">
        <ele>1417</ele>
        <time>2022-08-28T10:05:52Z</time>
      </trkpt>
      <trkpt lat="45.93158" lon="6.87098">
        <ele>1416</ele>
        <time>2022-08-28T10:05:53Z</time>
      </trkpt>
      <trkpt lat="45.93148" lon="6.871">
        <ele>1415</ele>
        <time>2022-08-28T10:05:57Z</time>
      </trkpt>
      <trkpt lat="45.93147" lon="6.87101">
        <ele>1414</ele>
        <time>2022-08-28T10:05:59Z</time>
      </trkpt>
      <trkpt lat="45.93145" lon="6.87101">
        <ele>1414</ele>
        <time>2022-08-28T10:06:00Z</time>
      </trkpt>
      <trkpt lat="45.93143" lon="6.87101">
        <ele>1413</ele>
        <time>2022-08-28T10:06:01Z</time>
      </trkpt>
      <trkpt lat="45.93142" lon="6.87102">
        <ele>1412</ele>
        <time>2022-08-28T10:06:02Z</time>
      </trkpt>
      <trkpt lat="45.9314" lon="6.87102">
        <ele>1412</ele>
        <time>2022-08-28T10:06:03Z</time>
      </trkpt>
      <trkpt lat="45.93138" lon="6.87102">
        <ele>1412</ele>
        <time>2022-08-28T10:06:04Z</time>
      </trkpt>
      <trkpt lat="45.93136" lon="6.87102">
        <ele>1412</ele>
        <time>2022-08-28T10:06:05Z</time>
      </trkpt>
      <trkpt lat="45.93135" lon="6.87102">
        <ele>1411</ele>
        <time>2022-08-28T10:06:06Z</time>
      </trkpt>
      <trkpt lat="45.93133" lon="6.87102">
        <ele>1411</ele>
        <time>2022-08-28T10:06:07Z</time>
      </trkpt>
      <trkpt lat="45.93131" lon="6.87102">
        <ele>1411</ele>
        <time>2022-08-28T10:06:08Z</time>
      </trkpt>
      <trkpt lat="45.93129" lon="6.87102">
        <ele>1409</ele>
        <time>2022-08-28T10:06:09Z</time>
      </trkpt>
      <trkpt lat="45.93127" lon="6.87101">
        <ele>1409</ele>
        <time>2022-08-28T10:06:10Z</time>
      </trkpt>
      <trkpt lat="45.93124" lon="6.87101">
        <ele>1409</ele>
        <time>2022-08-28T10:06:11Z</time>
      </trkpt>
      <trkpt lat="45.9312" lon="6.87099">
        <ele>1409</ele>
        <time>2022-08-28T10:06:14Z</time>
      </trkpt>
      <trkpt lat="45.93117" lon="6.87098">
        <ele>1408</ele>
        <time>2022-08-28T10:06:16Z</time>
      </trkpt>
      <trkpt lat="45.93113" lon="6.87096">
        <ele>1407</ele>
        <time>2022-08-28T10:06:18Z</time>
      </trkpt>
      <trkpt lat="45.93112" lon="6.87096">
        <ele>1406</ele>
        <time>2022-08-28T10:06:19Z</time>
      </trkpt>
      <trkpt lat="45.93111" lon="6.87095">
        <ele>1406</ele>
        <time>2022-08-28T10:06:20Z</time>
      </trkpt>
      <trkpt lat="45.9311" lon="6.87095">
        <ele>1405</ele>
        <time>2022-08-28T10:06:21Z</time>
      </trkpt>
      <trkpt lat="45.93106" lon="6.87095">
        <ele>1405</ele>
        <time>2022-08-28T10:06:22Z</time>
      </trkpt>
      <trkpt lat="45.93104" lon="6.87095">
        <ele>1405</ele>
        <time>2022-08-28T10:06:23Z</time>
      </trkpt>
      <trkpt lat="45.93106" lon="6.8711">
        <ele>1403</ele>
        <time>2022-08-28T10:06:31Z</time>
      </trkpt>
      <trkpt lat="45.93107" lon="6.87112">
        <ele>1403</ele>
        <time>2022-08-28T10:06:33Z</time>
      </trkpt>
      <trkpt lat="45.93108" lon="6.87115">
        <ele>1403</ele>
        <time>2022-08-28T10:06:34Z</time>
      </trkpt>
      <trkpt lat="45.9311" lon="6.87118">
        <ele>1403</ele>
        <time>2022-08-28T10:06:35Z</time>
      </trkpt>
      <trkpt lat="45.93111" lon="6.87121">
        <ele>1403</ele>
        <time>2022-08-28T10:06:36Z</time>
      </trkpt>
      <trkpt lat="45.93112" lon="6.87123">
        <ele>1402</ele>
        <time>2022-08-28T10:06:38Z</time>
      </trkpt>
      <trkpt lat="45.93113" lon="6.87125">
        <ele>1402</ele>
        <time>2022-08-28T10:06:39Z</time>
      </trkpt>
      <trkpt lat="45.93113" lon="6.87128">
        <ele>1402</ele>
        <time>2022-08-28T10:06:40Z</time>
      </trkpt>
      <trkpt lat="45.93114" lon="6.8713">
        <ele>1402</ele>
        <time>2022-08-28T10:06:41Z</time>
      </trkpt>
      <trkpt lat="45.93115" lon="6.87132">
        <ele>1402</ele>
        <time>2022-08-28T10:06:42Z</time>
      </trkpt>
      <trkpt lat="45.93116" lon="6.87134">
        <ele>1402</ele>
        <time>2022-08-28T10:06:43Z</time>
      </trkpt>
      <trkpt lat="45.93116" lon="6.87137">
        <ele>1402</ele>
        <time>2022-08-28T10:06:44Z</time>
      </trkpt>
      <trkpt lat="45.93115" lon="6.8714">
        <ele>1402</ele>
        <time>2022-08-28T10:06:45Z</time>
      </trkpt>
      <trkpt lat="45.93115" lon="6.87143">
        <ele>1402</ele>
        <time>2022-08-28T10:06:46Z</time>
      </trkpt>
      <trkpt lat="45.93112" lon="6.87146">
        <ele>1402</ele>
        <time>2022-08-28T10:06:48Z</time>
      </trkpt>
      <trkpt lat="45.9311" lon="6.87145">
        <ele>1401</ele>
        <time>2022-08-28T10:06:50Z</time>
      </trkpt>
      <trkpt lat="45.93108" lon="6.87145">
        <ele>1401</ele>
        <time>2022-08-28T10:06:52Z</time>
      </trkpt>
      <trkpt lat="45.93106" lon="6.87145">
        <ele>1400</ele>
        <time>2022-08-28T10:06:53Z</time>
      </trkpt>
      <trkpt lat="45.93104" lon="6.87145">
        <ele>1400</ele>
        <time>2022-08-28T10:06:54Z</time>
      </trkpt>
      <trkpt lat="45.93102" lon="6.87145">
        <ele>1400</ele>
        <time>2022-08-28T10:06:55Z</time>
      </trkpt>
      <trkpt lat="45.93099" lon="6.87147">
        <ele>1400</ele>
        <time>2022-08-28T10:06:56Z</time>
      </trkpt>
      <trkpt lat="45.93097" lon="6.8715">
        <ele>1398</ele>
        <time>2022-08-28T10:06:58Z</time>
      </trkpt>
      <trkpt lat="45.93096" lon="6.87155">
        <ele>1397</ele>
        <time>2022-08-28T10:07:00Z</time>
      </trkpt>
      <trkpt lat="45.93096" lon="6.87158">
        <ele>1397</ele>
        <time>2022-08-28T10:07:01Z</time>
      </trkpt>
      <trkpt lat="45.93095" lon="6.87163">
        <ele>1396</ele>
        <time>2022-08-28T10:07:03Z</time>
      </trkpt>
      <trkpt lat="45.93094" lon="6.87164">
        <ele>1396</ele>
        <time>2022-08-28T10:07:04Z</time>
      </trkpt>
      <trkpt lat="45.93093" lon="6.87166">
        <ele>1395</ele>
        <time>2022-08-28T10:07:06Z</time>
      </trkpt>
      <trkpt lat="45.93093" lon="6.87168">
        <ele>1395</ele>
        <time>2022-08-28T10:07:08Z</time>
      </trkpt>
      <trkpt lat="45.93092" lon="6.8717">
        <ele>1394</ele>
        <time>2022-08-28T10:07:09Z</time>
      </trkpt>
      <trkpt lat="45.93091" lon="6.87171">
        <ele>1394</ele>
        <time>2022-08-28T10:07:10Z</time>
      </trkpt>
      <trkpt lat="45.93088" lon="6.87176">
        <ele>1394</ele>
        <time>2022-08-28T10:07:12Z</time>
      </trkpt>
      <trkpt lat="45.93087" lon="6.87181">
        <ele>1392</ele>
        <time>2022-08-28T10:07:14Z</time>
      </trkpt>
      <trkpt lat="45.93086" lon="6.87183">
        <ele>1392</ele>
        <time>2022-08-28T10:07:15Z</time>
      </trkpt>
      <trkpt lat="45.93084" lon="6.87185">
        <ele>1391</ele>
        <time>2022-08-28T10:07:16Z</time>
      </trkpt>
      <trkpt lat="45.93083" lon="6.87187">
        <ele>1390</ele>
        <time>2022-08-28T10:07:18Z</time>
      </trkpt>
      <trkpt lat="45.93081" lon="6.8719">
        <ele>1390</ele>
        <time>2022-08-28T10:07:19Z</time>
      </trkpt>
      <trkpt lat="45.9308" lon="6.87192">
        <ele>1390</ele>
        <time>2022-08-28T10:07:20Z</time>
      </trkpt>
      <trkpt lat="45.93079" lon="6.87195">
        <ele>1390</ele>
        <time>2022-08-28T10:07:22Z</time>
      </trkpt>
      <trkpt lat="45.93078" lon="6.87199">
        <ele>1389</ele>
        <time>2022-08-28T10:07:24Z</time>
      </trkpt>
      <trkpt lat="45.93078" lon="6.87201">
        <ele>1389</ele>
        <time>2022-08-28T10:07:25Z</time>
      </trkpt>
      <trkpt lat="45.93078" lon="6.87204">
        <ele>1389</ele>
        <time>2022-08-28T10:07:26Z</time>
      </trkpt>
      <trkpt lat="45.93078" lon="6.87207">
        <ele>1389</ele>
        <time>2022-08-28T10:07:28Z</time>
      </trkpt>
      <trkpt lat="45.93078" lon="6.87209">
        <ele>1388</ele>
        <time>2022-08-28T10:07:30Z</time>
      </trkpt>
      <trkpt lat="45.93078" lon="6.87212">
        <ele>1388</ele>
        <time>2022-08-28T10:07:31Z</time>
      </trkpt>
      <trkpt lat="45.93071" lon="6.87222">
        <ele>1386</ele>
        <time>2022-08-28T10:07:39Z</time>
      </trkpt>
      <trkpt lat="45.93072" lon="6.87237">
        <ele>1384</ele>
        <time>2022-08-28T10:07:44Z</time>
      </trkpt>
      <trkpt lat="45.93073" lon="6.87251">
        <ele>1384</ele>
        <time>2022-08-28T10:07:49Z</time>
      </trkpt>
      <trkpt lat="45.9307" lon="6.87249">
        <ele>1385</ele>
        <time>2022-08-28T10:08:08Z</time>
      </trkpt>
      <trkpt lat="45.9307" lon="6.87249">
        <ele>1386</ele>
        <time>2022-08-28T10:08:10Z</time>
      </trkpt>
      <trkpt lat="45.93072" lon="6.8725">
        <ele>1386</ele>
        <time>2022-08-28T10:08:12Z</time>
      </trkpt>
      <trkpt lat="45.93074" lon="6.87252">
        <ele>1387</ele>
        <time>2022-08-28T10:08:16Z</time>
      </trkpt>
      <trkpt lat="45.93073" lon="6.87256">
        <ele>1388</ele>
        <time>2022-08-28T10:08:19Z</time>
      </trkpt>
      <trkpt lat="45.93071" lon="6.87259">
        <ele>1388</ele>
        <time>2022-08-28T10:08:21Z</time>
      </trkpt>
      <trkpt lat="45.9307" lon="6.87261">
        <ele>1388</ele>
        <time>2022-08-28T10:08:23Z</time>
      </trkpt>
      <trkpt lat="45.93069" lon="6.87264">
        <ele>1388</ele>
        <time>2022-08-28T10:08:25Z</time>
      </trkpt>
      <trkpt lat="45.93067" lon="6.87264">
        <ele>1388</ele>
        <time>2022-08-28T10:08:28Z</time>
      </trkpt>
      <trkpt lat="45.93065" lon="6.87262">
        <ele>1387</ele>
        <time>2022-08-28T10:08:32Z</time>
      </trkpt>
      <trkpt lat="45.93066" lon="6.87264">
        <ele>1385</ele>
        <time>2022-08-28T10:08:39Z</time>
      </trkpt>
      <trkpt lat="45.93064" lon="6.87264">
        <ele>1384</ele>
        <time>2022-08-28T10:08:45Z</time>
      </trkpt>
      <trkpt lat="45.93062" lon="6.87262">
        <ele>1383</ele>
        <time>2022-08-28T10:08:48Z</time>
      </trkpt>
      <trkpt lat="45.9306" lon="6.87262">
        <ele>1383</ele>
        <time>2022-08-28T10:08:49Z</time>
      </trkpt>
      <trkpt lat="45.93058" lon="6.87262">
        <ele>1383</ele>
        <time>2022-08-28T10:08:50Z</time>
      </trkpt>
      <trkpt lat="45.93056" lon="6.87262">
        <ele>1383</ele>
        <time>2022-08-28T10:08:51Z</time>
      </trkpt>
      <trkpt lat="45.93054" lon="6.87261">
        <ele>1382</ele>
        <time>2022-08-28T10:08:52Z</time>
      </trkpt>
      <trkpt lat="45.93051" lon="6.8726">
        <ele>1382</ele>
        <time>2022-08-28T10:08:54Z</time>
      </trkpt>
      <trkpt lat="45.9305" lon="6.87259">
        <ele>1382</ele>
        <time>2022-08-28T10:08:55Z</time>
      </trkpt>
      <trkpt lat="45.93048" lon="6.87257">
        <ele>1381</ele>
        <time>2022-08-28T10:08:56Z</time>
      </trkpt>
      <trkpt lat="45.93046" lon="6.87256">
        <ele>1381</ele>
        <time>2022-08-28T10:08:57Z</time>
      </trkpt>
      <trkpt lat="45.93044" lon="6.87254">
        <ele>1381</ele>
        <time>2022-08-28T10:08:58Z</time>
      </trkpt>
      <trkpt lat="45.93043" lon="6.87252">
        <ele>1381</ele>
        <time>2022-08-28T10:08:59Z</time>
      </trkpt>
      <trkpt lat="45.93041" lon="6.87251">
        <ele>1381</ele>
        <time>2022-08-28T10:09:00Z</time>
      </trkpt>
      <trkpt lat="45.9304" lon="6.8725">
        <ele>1380</ele>
        <time>2022-08-28T10:09:01Z</time>
      </trkpt>
      <trkpt lat="45.93037" lon="6.87249">
        <ele>1380</ele>
        <time>2022-08-28T10:09:02Z</time>
      </trkpt>
      <trkpt lat="45.93035" lon="6.87248">
        <ele>1378</ele>
        <time>2022-08-28T10:09:03Z</time>
      </trkpt>
      <trkpt lat="45.93033" lon="6.87247">
        <ele>1378</ele>
        <time>2022-08-28T10:09:05Z</time>
      </trkpt>
      <trkpt lat="45.93031" lon="6.87246">
        <ele>1378</ele>
        <time>2022-08-28T10:09:06Z</time>
      </trkpt>
      <trkpt lat="45.93029" lon="6.87246">
        <ele>1378</ele>
        <time>2022-08-28T10:09:07Z</time>
      </trkpt>
      <trkpt lat="45.93027" lon="6.87245">
        <ele>1378</ele>
        <time>2022-08-28T10:09:08Z</time>
      </trkpt>
      <trkpt lat="45.93026" lon="6.87244">
        <ele>1378</ele>
        <time>2022-08-28T10:09:09Z</time>
      </trkpt>
      <trkpt lat="45.93024" lon="6.87243">
        <ele>1378</ele>
        <time>2022-08-28T10:09:10Z</time>
      </trkpt>
      <trkpt lat="45.93023" lon="6.87242">
        <ele>1378</ele>
        <time>2022-08-28T10:09:11Z</time>
      </trkpt>
      <trkpt lat="45.93021" lon="6.87241">
        <ele>1378</ele>
        <time>2022-08-28T10:09:12Z</time>
      </trkpt>
      <trkpt lat="45.9302" lon="6.8724">
        <ele>1377</ele>
        <time>2022-08-28T10:09:13Z</time>
      </trkpt>
      <trkpt lat="45.93018" lon="6.87239">
        <ele>1377</ele>
        <time>2022-08-28T10:09:14Z</time>
      </trkpt>
      <trkpt lat="45.93016" lon="6.87239">
        <ele>1377</ele>
        <time>2022-08-28T10:09:15Z</time>
      </trkpt>
      <trkpt lat="45.93014" lon="6.87238">
        <ele>1377</ele>
        <time>2022-08-28T10:09:16Z</time>
      </trkpt>
      <trkpt lat="45.93012" lon="6.87237">
        <ele>1377</ele>
        <time>2022-08-28T10:09:17Z</time>
      </trkpt>
      <trkpt lat="45.93011" lon="6.87237">
        <ele>1376</ele>
        <time>2022-08-28T10:09:18Z</time>
      </trkpt>
      <trkpt lat="45.93008" lon="6.87237">
        <ele>1376</ele>
        <time>2022-08-28T10:09:20Z</time>
      </trkpt>
      <trkpt lat="45.93006" lon="6.87238">
        <ele>1376</ele>
        <time>2022-08-28T10:09:21Z</time>
      </trkpt>
      <trkpt lat="45.92997" lon="6.87239">
        <ele>1376</ele>
        <time>2022-08-28T10:09:22Z</time>
      </trkpt>
      <trkpt lat="45.92994" lon="6.87238">
        <ele>1376</ele>
        <time>2022-08-28T10:09:24Z</time>
      </trkpt>
      <trkpt lat="45.92991" lon="6.87237">
        <ele>1376</ele>
        <time>2022-08-28T10:09:25Z</time>
      </trkpt>
      <trkpt lat="45.92989" lon="6.87237">
        <ele>1376</ele>
        <time>2022-08-28T10:09:26Z</time>
      </trkpt>
      <trkpt lat="45.92986" lon="6.87236">
        <ele>1375</ele>
        <time>2022-08-28T10:09:28Z</time>
      </trkpt>
      <trkpt lat="45.92984" lon="6.87235">
        <ele>1375</ele>
        <time>2022-08-28T10:09:29Z</time>
      </trkpt>
      <trkpt lat="45.92981" lon="6.87235">
        <ele>1375</ele>
        <time>2022-08-28T10:09:30Z</time>
      </trkpt>
      <trkpt lat="45.92979" lon="6.87234">
        <ele>1375</ele>
        <time>2022-08-28T10:09:31Z</time>
      </trkpt>
      <trkpt lat="45.92976" lon="6.87233">
        <ele>1375</ele>
        <time>2022-08-28T10:09:32Z</time>
      </trkpt>
      <trkpt lat="45.92973" lon="6.87232">
        <ele>1375</ele>
        <time>2022-08-28T10:09:33Z</time>
      </trkpt>
      <trkpt lat="45.92972" lon="6.87233">
        <ele>1375</ele>
        <time>2022-08-28T10:09:34Z</time>
      </trkpt>
      <trkpt lat="45.9297" lon="6.87234">
        <ele>1375</ele>
        <time>2022-08-28T10:09:35Z</time>
      </trkpt>
      <trkpt lat="45.92969" lon="6.87236">
        <ele>1375</ele>
        <time>2022-08-28T10:09:36Z</time>
      </trkpt>
      <trkpt lat="45.92969" lon="6.87236">
        <ele>1375</ele>
        <time>2022-08-28T10:09:37Z</time>
      </trkpt>
      <trkpt lat="45.92968" lon="6.87237">
        <ele>1376</ele>
        <time>2022-08-28T10:09:38Z</time>
      </trkpt>
      <trkpt lat="45.92968" lon="6.87238">
        <ele>1376</ele>
        <time>2022-08-28T10:09:39Z</time>
      </trkpt>
      <trkpt lat="45.92968" lon="6.87239">
        <ele>1376</ele>
        <time>2022-08-28T10:09:40Z</time>
      </trkpt>
      <trkpt lat="45.92968" lon="6.8724">
        <ele>1376</ele>
        <time>2022-08-28T10:09:41Z</time>
      </trkpt>
      <trkpt lat="45.92965" lon="6.87253">
        <ele>1376</ele>
        <time>2022-08-28T10:09:43Z</time>
      </trkpt>
      <trkpt lat="45.92964" lon="6.87256">
        <ele>1376</ele>
        <time>2022-08-28T10:09:44Z</time>
      </trkpt>
      <trkpt lat="45.92963" lon="6.8726">
        <ele>1376</ele>
        <time>2022-08-28T10:09:45Z</time>
      </trkpt>
      <trkpt lat="45.92963" lon="6.87263">
        <ele>1376</ele>
        <time>2022-08-28T10:09:46Z</time>
      </trkpt>
      <trkpt lat="45.92961" lon="6.87266">
        <ele>1376</ele>
        <time>2022-08-28T10:09:48Z</time>
      </trkpt>
      <trkpt lat="45.92961" lon="6.87269">
        <ele>1375</ele>
        <time>2022-08-28T10:09:49Z</time>
      </trkpt>
      <trkpt lat="45.92957" lon="6.8727">
        <ele>1375</ele>
        <time>2022-08-28T10:09:51Z</time>
      </trkpt>
      <trkpt lat="45.92955" lon="6.87269">
        <ele>1375</ele>
        <time>2022-08-28T10:09:52Z</time>
      </trkpt>
      <trkpt lat="45.92953" lon="6.87269">
        <ele>1375</ele>
        <time>2022-08-28T10:09:53Z</time>
      </trkpt>
      <trkpt lat="45.92951" lon="6.87268">
        <ele>1374</ele>
        <time>2022-08-28T10:09:54Z</time>
      </trkpt>
      <trkpt lat="45.92949" lon="6.87267">
        <ele>1374</ele>
        <time>2022-08-28T10:09:55Z</time>
      </trkpt>
      <trkpt lat="45.92947" lon="6.87266">
        <ele>1374</ele>
        <time>2022-08-28T10:09:56Z</time>
      </trkpt>
      <trkpt lat="45.92945" lon="6.87265">
        <ele>1375</ele>
        <time>2022-08-28T10:09:57Z</time>
      </trkpt>
      <trkpt lat="45.92942" lon="6.87264">
        <ele>1375</ele>
        <time>2022-08-28T10:09:58Z</time>
      </trkpt>
      <trkpt lat="45.92941" lon="6.87264">
        <ele>1375</ele>
        <time>2022-08-28T10:09:59Z</time>
      </trkpt>
      <trkpt lat="45.92939" lon="6.87263">
        <ele>1375</ele>
        <time>2022-08-28T10:10:00Z</time>
      </trkpt>
      <trkpt lat="45.92934" lon="6.87262">
        <ele>1375</ele>
        <time>2022-08-28T10:10:02Z</time>
      </trkpt>
      <trkpt lat="45.92932" lon="6.87261">
        <ele>1375</ele>
        <time>2022-08-28T10:10:03Z</time>
      </trkpt>
      <trkpt lat="45.92929" lon="6.8726">
        <ele>1375</ele>
        <time>2022-08-28T10:10:04Z</time>
      </trkpt>
      <trkpt lat="45.92927" lon="6.87259">
        <ele>1374</ele>
        <time>2022-08-28T10:10:06Z</time>
      </trkpt>
      <trkpt lat="45.92925" lon="6.87258">
        <ele>1374</ele>
        <time>2022-08-28T10:10:07Z</time>
      </trkpt>
      <trkpt lat="45.92917" lon="6.87256">
        <ele>1374</ele>
        <time>2022-08-28T10:10:11Z</time>
      </trkpt>
      <trkpt lat="45.92915" lon="6.87255">
        <ele>1374</ele>
        <time>2022-08-28T10:10:12Z</time>
      </trkpt>
      <trkpt lat="45.92913" lon="6.87255">
        <ele>1374</ele>
        <time>2022-08-28T10:10:13Z</time>
      </trkpt>
      <trkpt lat="45.9291" lon="6.87254">
        <ele>1373</ele>
        <time>2022-08-28T10:10:14Z</time>
      </trkpt>
      <trkpt lat="45.92908" lon="6.87253">
        <ele>1373</ele>
        <time>2022-08-28T10:10:16Z</time>
      </trkpt>
      <trkpt lat="45.92906" lon="6.87252">
        <ele>1373</ele>
        <time>2022-08-28T10:10:18Z</time>
      </trkpt>
      <trkpt lat="45.92904" lon="6.87251">
        <ele>1373</ele>
        <time>2022-08-28T10:10:19Z</time>
      </trkpt>
      <trkpt lat="45.92895" lon="6.87248">
        <ele>1374</ele>
        <time>2022-08-28T10:10:23Z</time>
      </trkpt>
      <trkpt lat="45.92893" lon="6.87247">
        <ele>1374</ele>
        <time>2022-08-28T10:10:24Z</time>
      </trkpt>
      <trkpt lat="45.92892" lon="6.87246">
        <ele>1373</ele>
        <time>2022-08-28T10:10:25Z</time>
      </trkpt>
      <trkpt lat="45.9289" lon="6.87245">
        <ele>1373</ele>
        <time>2022-08-28T10:10:26Z</time>
      </trkpt>
      <trkpt lat="45.92888" lon="6.87244">
        <ele>1373</ele>
        <time>2022-08-28T10:10:28Z</time>
      </trkpt>
      <trkpt lat="45.92886" lon="6.87242">
        <ele>1373</ele>
        <time>2022-08-28T10:10:29Z</time>
      </trkpt>
      <trkpt lat="45.92884" lon="6.87241">
        <ele>1374</ele>
        <time>2022-08-28T10:10:30Z</time>
      </trkpt>
      <trkpt lat="45.92884" lon="6.87241">
        <ele>1374</ele>
        <time>2022-08-28T10:10:31Z</time>
      </trkpt>
      <trkpt lat="45.92883" lon="6.87241">
        <ele>1374</ele>
        <time>2022-08-28T10:10:33Z</time>
      </trkpt>
      <trkpt lat="45.92882" lon="6.87241">
        <ele>1373</ele>
        <time>2022-08-28T10:10:34Z</time>
      </trkpt>
      <trkpt lat="45.92881" lon="6.8724">
        <ele>1373</ele>
        <time>2022-08-28T10:10:35Z</time>
      </trkpt>
      <trkpt lat="45.92881" lon="6.8724">
        <ele>1373</ele>
        <time>2022-08-28T10:10:36Z</time>
      </trkpt>
      <trkpt lat="45.92872" lon="6.87238">
        <ele>1373</ele>
        <time>2022-08-28T10:10:38Z</time>
      </trkpt>
      <trkpt lat="45.9287" lon="6.87238">
        <ele>1373</ele>
        <time>2022-08-28T10:10:40Z</time>
      </trkpt>
      <trkpt lat="45.92868" lon="6.87238">
        <ele>1373</ele>
        <time>2022-08-28T10:10:41Z</time>
      </trkpt>
      <trkpt lat="45.92859" lon="6.87237">
        <ele>1373</ele>
        <time>2022-08-28T10:10:42Z</time>
      </trkpt>
      <trkpt lat="45.92857" lon="6.87236">
        <ele>1374</ele>
        <time>2022-08-28T10:10:43Z</time>
      </trkpt>
      <trkpt lat="45.92854" lon="6.87236">
        <ele>1374</ele>
        <time>2022-08-28T10:10:45Z</time>
      </trkpt>
      <trkpt lat="45.92851" lon="6.87235">
        <ele>1374</ele>
        <time>2022-08-28T10:10:46Z</time>
      </trkpt>
      <trkpt lat="45.92849" lon="6.87234">
        <ele>1374</ele>
        <time>2022-08-28T10:10:47Z</time>
      </trkpt>
      <trkpt lat="45.92847" lon="6.87233">
        <ele>1374</ele>
        <time>2022-08-28T10:10:48Z</time>
      </trkpt>
      <trkpt lat="45.92845" lon="6.87232">
        <ele>1374</ele>
        <time>2022-08-28T10:10:49Z</time>
      </trkpt>
      <trkpt lat="45.92842" lon="6.8723">
        <ele>1374</ele>
        <time>2022-08-28T10:10:50Z</time>
      </trkpt>
      <trkpt lat="45.92841" lon="6.8723">
        <ele>1373</ele>
        <time>2022-08-28T10:10:51Z</time>
      </trkpt>
      <trkpt lat="45.92839" lon="6.87229">
        <ele>1372</ele>
        <time>2022-08-28T10:10:52Z</time>
      </trkpt>
      <trkpt lat="45.92837" lon="6.87227">
        <ele>1372</ele>
        <time>2022-08-28T10:10:53Z</time>
      </trkpt>
      <trkpt lat="45.92835" lon="6.87226">
        <ele>1372</ele>
        <time>2022-08-28T10:10:54Z</time>
      </trkpt>
      <trkpt lat="45.92833" lon="6.87224">
        <ele>1372</ele>
        <time>2022-08-28T10:10:55Z</time>
      </trkpt>
      <trkpt lat="45.92832" lon="6.87224">
        <ele>1372</ele>
        <time>2022-08-28T10:10:56Z</time>
      </trkpt>
      <trkpt lat="45.9283" lon="6.87223">
        <ele>1372</ele>
        <time>2022-08-28T10:10:57Z</time>
      </trkpt>
      <trkpt lat="45.92828" lon="6.87222">
        <ele>1372</ele>
        <time>2022-08-28T10:10:58Z</time>
      </trkpt>
      <trkpt lat="45.92826" lon="6.87221">
        <ele>1373</ele>
        <time>2022-08-28T10:10:59Z</time>
      </trkpt>
      <trkpt lat="45.92823" lon="6.8722">
        <ele>1373</ele>
        <time>2022-08-28T10:11:00Z</time>
      </trkpt>
      <trkpt lat="45.92822" lon="6.8722">
        <ele>1372</ele>
        <time>2022-08-28T10:11:01Z</time>
      </trkpt>
      <trkpt lat="45.9282" lon="6.8722">
        <ele>1372</ele>
        <time>2022-08-28T10:11:02Z</time>
      </trkpt>
      <trkpt lat="45.92818" lon="6.8722">
        <ele>1372</ele>
        <time>2022-08-28T10:11:03Z</time>
      </trkpt>
      <trkpt lat="45.92816" lon="6.87219">
        <ele>1372</ele>
        <time>2022-08-28T10:11:04Z</time>
      </trkpt>
      <trkpt lat="45.92814" lon="6.87218">
        <ele>1372</ele>
        <time>2022-08-28T10:11:05Z</time>
      </trkpt>
      <trkpt lat="45.92812" lon="6.87217">
        <ele>1372</ele>
        <time>2022-08-28T10:11:06Z</time>
      </trkpt>
      <trkpt lat="45.92809" lon="6.87216">
        <ele>1372</ele>
        <time>2022-08-28T10:11:07Z</time>
      </trkpt>
      <trkpt lat="45.92808" lon="6.87215">
        <ele>1372</ele>
        <time>2022-08-28T10:11:08Z</time>
      </trkpt>
      <trkpt lat="45.92806" lon="6.87214">
        <ele>1372</ele>
        <time>2022-08-28T10:11:09Z</time>
      </trkpt>
      <trkpt lat="45.92805" lon="6.87213">
        <ele>1373</ele>
        <time>2022-08-28T10:11:10Z</time>
      </trkpt>
      <trkpt lat="45.92802" lon="6.87211">
        <ele>1373</ele>
        <time>2022-08-28T10:11:12Z</time>
      </trkpt>
      <trkpt lat="45.92798" lon="6.87209">
        <ele>1373</ele>
        <time>2022-08-28T10:11:14Z</time>
      </trkpt>
      <trkpt lat="45.92796" lon="6.87208">
        <ele>1373</ele>
        <time>2022-08-28T10:11:15Z</time>
      </trkpt>
      <trkpt lat="45.92795" lon="6.87207">
        <ele>1373</ele>
        <time>2022-08-28T10:11:16Z</time>
      </trkpt>
      <trkpt lat="45.92793" lon="6.87207">
        <ele>1373</ele>
        <time>2022-08-28T10:11:17Z</time>
      </trkpt>
      <trkpt lat="45.92791" lon="6.87206">
        <ele>1373</ele>
        <time>2022-08-28T10:11:18Z</time>
      </trkpt>
      <trkpt lat="45.92789" lon="6.87205">
        <ele>1374</ele>
        <time>2022-08-28T10:11:20Z</time>
      </trkpt>
      <trkpt lat="45.92786" lon="6.87203">
        <ele>1374</ele>
        <time>2022-08-28T10:11:21Z</time>
      </trkpt>
      <trkpt lat="45.92784" lon="6.87202">
        <ele>1374</ele>
        <time>2022-08-28T10:11:22Z</time>
      </trkpt>
      <trkpt lat="45.92781" lon="6.87201">
        <ele>1374</ele>
        <time>2022-08-28T10:11:23Z</time>
      </trkpt>
      <trkpt lat="45.92779" lon="6.87199">
        <ele>1374</ele>
        <time>2022-08-28T10:11:25Z</time>
      </trkpt>
      <trkpt lat="45.92778" lon="6.87198">
        <ele>1374</ele>
        <time>2022-08-28T10:11:27Z</time>
      </trkpt>
      <trkpt lat="45.92776" lon="6.87197">
        <ele>1374</ele>
        <time>2022-08-28T10:11:28Z</time>
      </trkpt>
      <trkpt lat="45.9277" lon="6.87193">
        <ele>1374</ele>
        <time>2022-08-28T10:11:29Z</time>
      </trkpt>
      <trkpt lat="45.92768" lon="6.87192">
        <ele>1374</ele>
        <time>2022-08-28T10:11:30Z</time>
      </trkpt>
      <trkpt lat="45.92765" lon="6.87191">
        <ele>1374</ele>
        <time>2022-08-28T10:11:32Z</time>
      </trkpt>
      <trkpt lat="45.92763" lon="6.8719">
        <ele>1374</ele>
        <time>2022-08-28T10:11:33Z</time>
      </trkpt>
      <trkpt lat="45.92761" lon="6.87189">
        <ele>1373</ele>
        <time>2022-08-28T10:11:34Z</time>
      </trkpt>
      <trkpt lat="45.92759" lon="6.87189">
        <ele>1373</ele>
        <time>2022-08-28T10:11:35Z</time>
      </trkpt>
      <trkpt lat="45.92757" lon="6.87189">
        <ele>1373</ele>
        <time>2022-08-28T10:11:36Z</time>
      </trkpt>
      <trkpt lat="45.92755" lon="6.87188">
        <ele>1373</ele>
        <time>2022-08-28T10:11:37Z</time>
      </trkpt>
      <trkpt lat="45.92752" lon="6.87187">
        <ele>1373</ele>
        <time>2022-08-28T10:11:38Z</time>
      </trkpt>
      <trkpt lat="45.92751" lon="6.87186">
        <ele>1373</ele>
        <time>2022-08-28T10:11:39Z</time>
      </trkpt>
      <trkpt lat="45.92749" lon="6.87186">
        <ele>1373</ele>
        <time>2022-08-28T10:11:40Z</time>
      </trkpt>
      <trkpt lat="45.92747" lon="6.87185">
        <ele>1373</ele>
        <time>2022-08-28T10:11:41Z</time>
      </trkpt>
      <trkpt lat="45.92745" lon="6.87185">
        <ele>1373</ele>
        <time>2022-08-28T10:11:42Z</time>
      </trkpt>
      <trkpt lat="45.92742" lon="6.87184">
        <ele>1373</ele>
        <time>2022-08-28T10:11:43Z</time>
      </trkpt>
      <trkpt lat="45.9274" lon="6.87184">
        <ele>1373</ele>
        <time>2022-08-28T10:11:44Z</time>
      </trkpt>
      <trkpt lat="45.92737" lon="6.87183">
        <ele>1373</ele>
        <time>2022-08-28T10:11:45Z</time>
      </trkpt>
      <trkpt lat="45.92736" lon="6.87183">
        <ele>1373</ele>
        <time>2022-08-28T10:11:46Z</time>
      </trkpt>
      <trkpt lat="45.92734" lon="6.87182">
        <ele>1372</ele>
        <time>2022-08-28T10:11:47Z</time>
      </trkpt>
      <trkpt lat="45.92732" lon="6.87181">
        <ele>1372</ele>
        <time>2022-08-28T10:11:48Z</time>
      </trkpt>
      <trkpt lat="45.9273" lon="6.8718">
        <ele>1372</ele>
        <time>2022-08-28T10:11:49Z</time>
      </trkpt>
      <trkpt lat="45.92728" lon="6.87179">
        <ele>1372</ele>
        <time>2022-08-28T10:11:50Z</time>
      </trkpt>
      <trkpt lat="45.92726" lon="6.87179">
        <ele>1372</ele>
        <time>2022-08-28T10:11:51Z</time>
      </trkpt>
      <trkpt lat="45.92724" lon="6.87178">
        <ele>1372</ele>
        <time>2022-08-28T10:11:52Z</time>
      </trkpt>
      <trkpt lat="45.92722" lon="6.87177">
        <ele>1373</ele>
        <time>2022-08-28T10:11:53Z</time>
      </trkpt>
      <trkpt lat="45.9272" lon="6.87177">
        <ele>1373</ele>
        <time>2022-08-28T10:11:54Z</time>
      </trkpt>
      <trkpt lat="45.92717" lon="6.87176">
        <ele>1373</ele>
        <time>2022-08-28T10:11:55Z</time>
      </trkpt>
      <trkpt lat="45.92716" lon="6.87176">
        <ele>1373</ele>
        <time>2022-08-28T10:11:56Z</time>
      </trkpt>
      <trkpt lat="45.92713" lon="6.87175">
        <ele>1373</ele>
        <time>2022-08-28T10:11:57Z</time>
      </trkpt>
      <trkpt lat="45.92712" lon="6.87174">
        <ele>1372</ele>
        <time>2022-08-28T10:11:58Z</time>
      </trkpt>
      <trkpt lat="45.9271" lon="6.87174">
        <ele>1372</ele>
        <time>2022-08-28T10:11:59Z</time>
      </trkpt>
      <trkpt lat="45.92708" lon="6.87173">
        <ele>1372</ele>
        <time>2022-08-28T10:12:00Z</time>
      </trkpt>
      <trkpt lat="45.92706" lon="6.87173">
        <ele>1372</ele>
        <time>2022-08-28T10:12:01Z</time>
      </trkpt>
      <trkpt lat="45.92704" lon="6.87172">
        <ele>1372</ele>
        <time>2022-08-28T10:12:02Z</time>
      </trkpt>
      <trkpt lat="45.92701" lon="6.87171">
        <ele>1372</ele>
        <time>2022-08-28T10:12:03Z</time>
      </trkpt>
      <trkpt lat="45.92699" lon="6.8717">
        <ele>1372</ele>
        <time>2022-08-28T10:12:04Z</time>
      </trkpt>
      <trkpt lat="45.92697" lon="6.87169">
        <ele>1372</ele>
        <time>2022-08-28T10:12:05Z</time>
      </trkpt>
      <trkpt lat="45.92696" lon="6.87168">
        <ele>1372</ele>
        <time>2022-08-28T10:12:06Z</time>
      </trkpt>
      <trkpt lat="45.92694" lon="6.87168">
        <ele>1372</ele>
        <time>2022-08-28T10:12:07Z</time>
      </trkpt>
      <trkpt lat="45.92692" lon="6.87167">
        <ele>1372</ele>
        <time>2022-08-28T10:12:08Z</time>
      </trkpt>
      <trkpt lat="45.9269" lon="6.87167">
        <ele>1372</ele>
        <time>2022-08-28T10:12:09Z</time>
      </trkpt>
      <trkpt lat="45.92688" lon="6.87166">
        <ele>1372</ele>
        <time>2022-08-28T10:12:10Z</time>
      </trkpt>
      <trkpt lat="45.92686" lon="6.87166">
        <ele>1372</ele>
        <time>2022-08-28T10:12:11Z</time>
      </trkpt>
      <trkpt lat="45.92683" lon="6.87165">
        <ele>1372</ele>
        <time>2022-08-28T10:12:12Z</time>
      </trkpt>
      <trkpt lat="45.92682" lon="6.87165">
        <ele>1372</ele>
        <time>2022-08-28T10:12:13Z</time>
      </trkpt>
      <trkpt lat="45.92678" lon="6.87164">
        <ele>1372</ele>
        <time>2022-08-28T10:12:14Z</time>
      </trkpt>
      <trkpt lat="45.92677" lon="6.87164">
        <ele>1372</ele>
        <time>2022-08-28T10:12:15Z</time>
      </trkpt>
      <trkpt lat="45.92675" lon="6.87163">
        <ele>1372</ele>
        <time>2022-08-28T10:12:16Z</time>
      </trkpt>
      <trkpt lat="45.92673" lon="6.87162">
        <ele>1372</ele>
        <time>2022-08-28T10:12:17Z</time>
      </trkpt>
      <trkpt lat="45.9267" lon="6.87161">
        <ele>1372</ele>
        <time>2022-08-28T10:12:18Z</time>
      </trkpt>
      <trkpt lat="45.92669" lon="6.87161">
        <ele>1372</ele>
        <time>2022-08-28T10:12:19Z</time>
      </trkpt>
      <trkpt lat="45.92668" lon="6.8716">
        <ele>1372</ele>
        <time>2022-08-28T10:12:20Z</time>
      </trkpt>
      <trkpt lat="45.92666" lon="6.8716">
        <ele>1372</ele>
        <time>2022-08-28T10:12:21Z</time>
      </trkpt>
      <trkpt lat="45.92664" lon="6.87159">
        <ele>1372</ele>
        <time>2022-08-28T10:12:22Z</time>
      </trkpt>
      <trkpt lat="45.92662" lon="6.87158">
        <ele>1372</ele>
        <time>2022-08-28T10:12:23Z</time>
      </trkpt>
      <trkpt lat="45.92659" lon="6.87157">
        <ele>1372</ele>
        <time>2022-08-28T10:12:24Z</time>
      </trkpt>
      <trkpt lat="45.92657" lon="6.87157">
        <ele>1372</ele>
        <time>2022-08-28T10:12:25Z</time>
      </trkpt>
      <trkpt lat="45.92655" lon="6.87156">
        <ele>1372</ele>
        <time>2022-08-28T10:12:26Z</time>
      </trkpt>
      <trkpt lat="45.92653" lon="6.87155">
        <ele>1372</ele>
        <time>2022-08-28T10:12:27Z</time>
      </trkpt>
      <trkpt lat="45.92651" lon="6.87155">
        <ele>1372</ele>
        <time>2022-08-28T10:12:28Z</time>
      </trkpt>
      <trkpt lat="45.92649" lon="6.87155">
        <ele>1372</ele>
        <time>2022-08-28T10:12:29Z</time>
      </trkpt>
      <trkpt lat="45.92647" lon="6.87154">
        <ele>1372</ele>
        <time>2022-08-28T10:12:30Z</time>
      </trkpt>
      <trkpt lat="45.92644" lon="6.87153">
        <ele>1372</ele>
        <time>2022-08-28T10:12:31Z</time>
      </trkpt>
      <trkpt lat="45.92643" lon="6.87153">
        <ele>1372</ele>
        <time>2022-08-28T10:12:32Z</time>
      </trkpt>
      <trkpt lat="45.9264" lon="6.87152">
        <ele>1372</ele>
        <time>2022-08-28T10:12:33Z</time>
      </trkpt>
      <trkpt lat="45.92638" lon="6.87152">
        <ele>1372</ele>
        <time>2022-08-28T10:12:34Z</time>
      </trkpt>
      <trkpt lat="45.92636" lon="6.87152">
        <ele>1372</ele>
        <time>2022-08-28T10:12:35Z</time>
      </trkpt>
      <trkpt lat="45.92634" lon="6.87151">
        <ele>1372</ele>
        <time>2022-08-28T10:12:36Z</time>
      </trkpt>
      <trkpt lat="45.92632" lon="6.87151">
        <ele>1372</ele>
        <time>2022-08-28T10:12:37Z</time>
      </trkpt>
      <trkpt lat="45.92629" lon="6.8715">
        <ele>1372</ele>
        <time>2022-08-28T10:12:38Z</time>
      </trkpt>
      <trkpt lat="45.92628" lon="6.87149">
        <ele>1372</ele>
        <time>2022-08-28T10:12:39Z</time>
      </trkpt>
      <trkpt lat="45.92625" lon="6.87148">
        <ele>1372</ele>
        <time>2022-08-28T10:12:40Z</time>
      </trkpt>
      <trkpt lat="45.92623" lon="6.87148">
        <ele>1372</ele>
        <time>2022-08-28T10:12:41Z</time>
      </trkpt>
      <trkpt lat="45.92621" lon="6.87147">
        <ele>1372</ele>
        <time>2022-08-28T10:12:42Z</time>
      </trkpt>
      <trkpt lat="45.92619" lon="6.87146">
        <ele>1372</ele>
        <time>2022-08-28T10:12:43Z</time>
      </trkpt>
      <trkpt lat="45.92617" lon="6.87146">
        <ele>1372</ele>
        <time>2022-08-28T10:12:44Z</time>
      </trkpt>
      <trkpt lat="45.92615" lon="6.87145">
        <ele>1372</ele>
        <time>2022-08-28T10:12:45Z</time>
      </trkpt>
      <trkpt lat="45.92613" lon="6.87145">
        <ele>1372</ele>
        <time>2022-08-28T10:12:46Z</time>
      </trkpt>
      <trkpt lat="45.92611" lon="6.87144">
        <ele>1372</ele>
        <time>2022-08-28T10:12:47Z</time>
      </trkpt>
      <trkpt lat="45.92609" lon="6.87143">
        <ele>1372</ele>
        <time>2022-08-28T10:12:48Z</time>
      </trkpt>
      <trkpt lat="45.92607" lon="6.87143">
        <ele>1372</ele>
        <time>2022-08-28T10:12:49Z</time>
      </trkpt>
      <trkpt lat="45.92605" lon="6.87143">
        <ele>1372</ele>
        <time>2022-08-28T10:12:50Z</time>
      </trkpt>
      <trkpt lat="45.92603" lon="6.87142">
        <ele>1372</ele>
        <time>2022-08-28T10:12:51Z</time>
      </trkpt>
      <trkpt lat="45.926" lon="6.87142">
        <ele>1372</ele>
        <time>2022-08-28T10:12:52Z</time>
      </trkpt>
      <trkpt lat="45.92599" lon="6.87142">
        <ele>1372</ele>
        <time>2022-08-28T10:12:53Z</time>
      </trkpt>
      <trkpt lat="45.92597" lon="6.87142">
        <ele>1372</ele>
        <time>2022-08-28T10:12:54Z</time>
      </trkpt>
      <trkpt lat="45.92595" lon="6.87141">
        <ele>1372</ele>
        <time>2022-08-28T10:12:55Z</time>
      </trkpt>
      <trkpt lat="45.92593" lon="6.87141">
        <ele>1372</ele>
        <time>2022-08-28T10:12:56Z</time>
      </trkpt>
      <trkpt lat="45.92591" lon="6.8714">
        <ele>1372</ele>
        <time>2022-08-28T10:12:57Z</time>
      </trkpt>
      <trkpt lat="45.92589" lon="6.87139">
        <ele>1372</ele>
        <time>2022-08-28T10:12:58Z</time>
      </trkpt>
      <trkpt lat="45.92587" lon="6.87139">
        <ele>1372</ele>
        <time>2022-08-28T10:12:59Z</time>
      </trkpt>
      <trkpt lat="45.92585" lon="6.87138">
        <ele>1372</ele>
        <time>2022-08-28T10:13:00Z</time>
      </trkpt>
      <trkpt lat="45.92582" lon="6.87137">
        <ele>1372</ele>
        <time>2022-08-28T10:13:01Z</time>
      </trkpt>
      <trkpt lat="45.92582" lon="6.87136">
        <ele>1372</ele>
        <time>2022-08-28T10:13:02Z</time>
      </trkpt>
      <trkpt lat="45.9258" lon="6.87136">
        <ele>1372</ele>
        <time>2022-08-28T10:13:03Z</time>
      </trkpt>
      <trkpt lat="45.92578" lon="6.87135">
        <ele>1372</ele>
        <time>2022-08-28T10:13:04Z</time>
      </trkpt>
      <trkpt lat="45.92576" lon="6.87135">
        <ele>1372</ele>
        <time>2022-08-28T10:13:05Z</time>
      </trkpt>
      <trkpt lat="45.92574" lon="6.87135">
        <ele>1372</ele>
        <time>2022-08-28T10:13:06Z</time>
      </trkpt>
      <trkpt lat="45.92572" lon="6.87135">
        <ele>1372</ele>
        <time>2022-08-28T10:13:07Z</time>
      </trkpt>
      <trkpt lat="45.92569" lon="6.87134">
        <ele>1372</ele>
        <time>2022-08-28T10:13:09Z</time>
      </trkpt>
      <trkpt lat="45.92568" lon="6.87133">
        <ele>1372</ele>
        <time>2022-08-28T10:13:10Z</time>
      </trkpt>
      <trkpt lat="45.92566" lon="6.87133">
        <ele>1372</ele>
        <time>2022-08-28T10:13:11Z</time>
      </trkpt>
      <trkpt lat="45.92564" lon="6.87132">
        <ele>1373</ele>
        <time>2022-08-28T10:13:14Z</time>
      </trkpt>
      <trkpt lat="45.92563" lon="6.87131">
        <ele>1372</ele>
        <time>2022-08-28T10:13:16Z</time>
      </trkpt>
      <trkpt lat="45.92561" lon="6.8713">
        <ele>1372</ele>
        <time>2022-08-28T10:13:17Z</time>
      </trkpt>
      <trkpt lat="45.92556" lon="6.87127">
        <ele>1372</ele>
        <time>2022-08-28T10:13:18Z</time>
      </trkpt>
      <trkpt lat="45.92547" lon="6.87124">
        <ele>1373</ele>
        <time>2022-08-28T10:13:21Z</time>
      </trkpt>
      <trkpt lat="45.92537" lon="6.87121">
        <ele>1372</ele>
        <time>2022-08-28T10:13:26Z</time>
      </trkpt>
      <trkpt lat="45.92535" lon="6.87121">
        <ele>1373</ele>
        <time>2022-08-28T10:13:27Z</time>
      </trkpt>
      <trkpt lat="45.92533" lon="6.8712">
        <ele>1373</ele>
        <time>2022-08-28T10:13:28Z</time>
      </trkpt>
      <trkpt lat="45.9253" lon="6.87119">
        <ele>1373</ele>
        <time>2022-08-28T10:13:29Z</time>
      </trkpt>
      <trkpt lat="45.92527" lon="6.87118">
        <ele>1373</ele>
        <time>2022-08-28T10:13:30Z</time>
      </trkpt>
      <trkpt lat="45.92526" lon="6.87118">
        <ele>1373</ele>
        <time>2022-08-28T10:13:31Z</time>
      </trkpt>
      <trkpt lat="45.92523" lon="6.87117">
        <ele>1373</ele>
        <time>2022-08-28T10:13:32Z</time>
      </trkpt>
      <trkpt lat="45.92522" lon="6.87117">
        <ele>1373</ele>
        <time>2022-08-28T10:13:33Z</time>
      </trkpt>
      <trkpt lat="45.9252" lon="6.87117">
        <ele>1373</ele>
        <time>2022-08-28T10:13:34Z</time>
      </trkpt>
      <trkpt lat="45.92518" lon="6.87116">
        <ele>1373</ele>
        <time>2022-08-28T10:13:35Z</time>
      </trkpt>
      <trkpt lat="45.92516" lon="6.87116">
        <ele>1373</ele>
        <time>2022-08-28T10:13:36Z</time>
      </trkpt>
      <trkpt lat="45.92513" lon="6.87114">
        <ele>1372</ele>
        <time>2022-08-28T10:13:38Z</time>
      </trkpt>
      <trkpt lat="45.9251" lon="6.87113">
        <ele>1372</ele>
        <time>2022-08-28T10:13:39Z</time>
      </trkpt>
      <trkpt lat="45.92509" lon="6.87112">
        <ele>1372</ele>
        <time>2022-08-28T10:13:40Z</time>
      </trkpt>
      <trkpt lat="45.92507" lon="6.87111">
        <ele>1372</ele>
        <time>2022-08-28T10:13:41Z</time>
      </trkpt>
      <trkpt lat="45.92504" lon="6.87108">
        <ele>1373</ele>
        <time>2022-08-28T10:13:43Z</time>
      </trkpt>
      <trkpt lat="45.92504" lon="6.87105">
        <ele>1373</ele>
        <time>2022-08-28T10:13:44Z</time>
      </trkpt>
      <trkpt lat="45.92504" lon="6.87102">
        <ele>1372</ele>
        <time>2022-08-28T10:13:45Z</time>
      </trkpt>
      <trkpt lat="45.92504" lon="6.87099">
        <ele>1372</ele>
        <time>2022-08-28T10:13:47Z</time>
      </trkpt>
      <trkpt lat="45.92504" lon="6.87096">
        <ele>1372</ele>
        <time>2022-08-28T10:13:48Z</time>
      </trkpt>
      <trkpt lat="45.92506" lon="6.87082">
        <ele>1373</ele>
        <time>2022-08-28T10:13:54Z</time>
      </trkpt>
      <trkpt lat="45.9251" lon="6.87068">
        <ele>1373</ele>
        <time>2022-08-28T10:13:59Z</time>
      </trkpt>
      <trkpt lat="45.9251" lon="6.87065">
        <ele>1372</ele>
        <time>2022-08-28T10:14:00Z</time>
      </trkpt>
      <trkpt lat="45.92511" lon="6.87062">
        <ele>1372</ele>
        <time>2022-08-28T10:14:01Z</time>
      </trkpt>
      <trkpt lat="45.92511" lon="6.87059">
        <ele>1372</ele>
        <time>2022-08-28T10:14:02Z</time>
      </trkpt>
      <trkpt lat="45.92511" lon="6.87056">
        <ele>1372</ele>
        <time>2022-08-28T10:14:04Z</time>
      </trkpt>
      <trkpt lat="45.92512" lon="6.87054">
        <ele>1373</ele>
        <time>2022-08-28T10:14:05Z</time>
      </trkpt>
      <trkpt lat="45.92516" lon="6.87041">
        <ele>1373</ele>
        <time>2022-08-28T10:14:09Z</time>
      </trkpt>
      <trkpt lat="45.92517" lon="6.87037">
        <ele>1373</ele>
        <time>2022-08-28T10:14:10Z</time>
      </trkpt>
      <trkpt lat="45.92518" lon="6.87034">
        <ele>1373</ele>
        <time>2022-08-28T10:14:11Z</time>
      </trkpt>
      <trkpt lat="45.92518" lon="6.8703">
        <ele>1373</ele>
        <time>2022-08-28T10:14:13Z</time>
      </trkpt>
      <trkpt lat="45.92519" lon="6.87027">
        <ele>1373</ele>
        <time>2022-08-28T10:14:14Z</time>
      </trkpt>
      <trkpt lat="45.92519" lon="6.87023">
        <ele>1373</ele>
        <time>2022-08-28T10:14:15Z</time>
      </trkpt>
      <trkpt lat="45.9252" lon="6.8702">
        <ele>1373</ele>
        <time>2022-08-28T10:14:16Z</time>
      </trkpt>
      <trkpt lat="45.9252" lon="6.87016">
        <ele>1374</ele>
        <time>2022-08-28T10:14:18Z</time>
      </trkpt>
      <trkpt lat="45.9252" lon="6.87013">
        <ele>1374</ele>
        <time>2022-08-28T10:14:19Z</time>
      </trkpt>
      <trkpt lat="45.92521" lon="6.8701">
        <ele>1374</ele>
        <time>2022-08-28T10:14:20Z</time>
      </trkpt>
      <trkpt lat="45.92521" lon="6.87008">
        <ele>1374</ele>
        <time>2022-08-28T10:14:21Z</time>
      </trkpt>
      <trkpt lat="45.92521" lon="6.87005">
        <ele>1374</ele>
        <time>2022-08-28T10:14:23Z</time>
      </trkpt>
      <trkpt lat="45.92522" lon="6.87003">
        <ele>1374</ele>
        <time>2022-08-28T10:14:24Z</time>
      </trkpt>
      <trkpt lat="45.92522" lon="6.87">
        <ele>1375</ele>
        <time>2022-08-28T10:14:25Z</time>
      </trkpt>
      <trkpt lat="45.92523" lon="6.86997">
        <ele>1375</ele>
        <time>2022-08-28T10:14:26Z</time>
      </trkpt>
      <trkpt lat="45.92524" lon="6.86993">
        <ele>1375</ele>
        <time>2022-08-28T10:14:28Z</time>
      </trkpt>
      <trkpt lat="45.92525" lon="6.8699">
        <ele>1375</ele>
        <time>2022-08-28T10:14:29Z</time>
      </trkpt>
      <trkpt lat="45.92525" lon="6.86986">
        <ele>1374</ele>
        <time>2022-08-28T10:14:30Z</time>
      </trkpt>
      <trkpt lat="45.92523" lon="6.86984">
        <ele>1374</ele>
        <time>2022-08-28T10:14:31Z</time>
      </trkpt>
      <trkpt lat="45.92522" lon="6.86982">
        <ele>1374</ele>
        <time>2022-08-28T10:14:33Z</time>
      </trkpt>
      <trkpt lat="45.9252" lon="6.8698">
        <ele>1374</ele>
        <time>2022-08-28T10:14:34Z</time>
      </trkpt>
      <trkpt lat="45.92518" lon="6.86979">
        <ele>1374</ele>
        <time>2022-08-28T10:14:35Z</time>
      </trkpt>
      <trkpt lat="45.92515" lon="6.86978">
        <ele>1374</ele>
        <time>2022-08-28T10:14:36Z</time>
      </trkpt>
      <trkpt lat="45.92512" lon="6.86978">
        <ele>1374</ele>
        <time>2022-08-28T10:14:38Z</time>
      </trkpt>
      <trkpt lat="45.92509" lon="6.86978">
        <ele>1375</ele>
        <time>2022-08-28T10:14:39Z</time>
      </trkpt>
      <trkpt lat="45.92507" lon="6.86978">
        <ele>1375</ele>
        <time>2022-08-28T10:14:40Z</time>
      </trkpt>
      <trkpt lat="45.92506" lon="6.86978">
        <ele>1375</ele>
        <time>2022-08-28T10:14:41Z</time>
      </trkpt>
      <trkpt lat="45.92505" lon="6.86978">
        <ele>1375</ele>
        <time>2022-08-28T10:14:43Z</time>
      </trkpt>
      <trkpt lat="45.92503" lon="6.86978">
        <ele>1375</ele>
        <time>2022-08-28T10:14:44Z</time>
      </trkpt>
      <trkpt lat="45.92495" lon="6.86978">
        <ele>1375</ele>
        <time>2022-08-28T10:14:45Z</time>
      </trkpt>
      <trkpt lat="45.92493" lon="6.86979">
        <ele>1375</ele>
        <time>2022-08-28T10:14:47Z</time>
      </trkpt>
      <trkpt lat="45.9249" lon="6.86979">
        <ele>1375</ele>
        <time>2022-08-28T10:14:48Z</time>
      </trkpt>
      <trkpt lat="45.92488" lon="6.86979">
        <ele>1375</ele>
        <time>2022-08-28T10:14:49Z</time>
      </trkpt>
      <trkpt lat="45.92486" lon="6.86979">
        <ele>1374</ele>
        <time>2022-08-28T10:14:51Z</time>
      </trkpt>
      <trkpt lat="45.92484" lon="6.8698">
        <ele>1374</ele>
        <time>2022-08-28T10:14:52Z</time>
      </trkpt>
      <trkpt lat="45.92482" lon="6.8698">
        <ele>1374</ele>
        <time>2022-08-28T10:14:53Z</time>
      </trkpt>
      <trkpt lat="45.9248" lon="6.8698">
        <ele>1374</ele>
        <time>2022-08-28T10:14:54Z</time>
      </trkpt>
      <trkpt lat="45.92478" lon="6.8698">
        <ele>1374</ele>
        <time>2022-08-28T10:14:55Z</time>
      </trkpt>
      <trkpt lat="45.92476" lon="6.8698">
        <ele>1374</ele>
        <time>2022-08-28T10:14:56Z</time>
      </trkpt>
      <trkpt lat="45.92474" lon="6.8698">
        <ele>1374</ele>
        <time>2022-08-28T10:14:57Z</time>
      </trkpt>
      <trkpt lat="45.92472" lon="6.8698">
        <ele>1374</ele>
        <time>2022-08-28T10:14:58Z</time>
      </trkpt>
      <trkpt lat="45.9247" lon="6.86981">
        <ele>1374</ele>
        <time>2022-08-28T10:14:59Z</time>
      </trkpt>
      <trkpt lat="45.92468" lon="6.86981">
        <ele>1374</ele>
        <time>2022-08-28T10:15:00Z</time>
      </trkpt>
      <trkpt lat="45.92463" lon="6.86981">
        <ele>1374</ele>
        <time>2022-08-28T10:15:02Z</time>
      </trkpt>
      <trkpt lat="45.92459" lon="6.86981">
        <ele>1374</ele>
        <time>2022-08-28T10:15:03Z</time>
      </trkpt>
      <trkpt lat="45.92456" lon="6.86981">
        <ele>1374</ele>
        <time>2022-08-28T10:15:04Z</time>
      </trkpt>
      <trkpt lat="45.92453" lon="6.86981">
        <ele>1374</ele>
        <time>2022-08-28T10:15:06Z</time>
      </trkpt>
      <trkpt lat="45.9245" lon="6.86981">
        <ele>1374</ele>
        <time>2022-08-28T10:15:07Z</time>
      </trkpt>
      <trkpt lat="45.92447" lon="6.86981">
        <ele>1373</ele>
        <time>2022-08-28T10:15:08Z</time>
      </trkpt>
      <trkpt lat="45.92444" lon="6.86981">
        <ele>1373</ele>
        <time>2022-08-28T10:15:10Z</time>
      </trkpt>
      <trkpt lat="45.9244" lon="6.86981">
        <ele>1373</ele>
        <time>2022-08-28T10:15:11Z</time>
      </trkpt>
      <trkpt lat="45.92438" lon="6.86982">
        <ele>1373</ele>
        <time>2022-08-28T10:15:12Z</time>
      </trkpt>
      <trkpt lat="45.92436" lon="6.86983">
        <ele>1373</ele>
        <time>2022-08-28T10:15:13Z</time>
      </trkpt>
      <trkpt lat="45.92434" lon="6.86984">
        <ele>1372</ele>
        <time>2022-08-28T10:15:15Z</time>
      </trkpt>
      <trkpt lat="45.92432" lon="6.86985">
        <ele>1372</ele>
        <time>2022-08-28T10:15:16Z</time>
      </trkpt>
      <trkpt lat="45.9243" lon="6.86986">
        <ele>1372</ele>
        <time>2022-08-28T10:15:17Z</time>
      </trkpt>
      <trkpt lat="45.92428" lon="6.86986">
        <ele>1372</ele>
        <time>2022-08-28T10:15:18Z</time>
      </trkpt>
      <trkpt lat="45.92425" lon="6.86987">
        <ele>1372</ele>
        <time>2022-08-28T10:15:19Z</time>
      </trkpt>
      <trkpt lat="45.92423" lon="6.86987">
        <ele>1372</ele>
        <time>2022-08-28T10:15:20Z</time>
      </trkpt>
      <trkpt lat="45.9242" lon="6.86988">
        <ele>1372</ele>
        <time>2022-08-28T10:15:21Z</time>
      </trkpt>
      <trkpt lat="45.92418" lon="6.86988">
        <ele>1372</ele>
        <time>2022-08-28T10:15:22Z</time>
      </trkpt>
      <trkpt lat="45.92415" lon="6.8699">
        <ele>1372</ele>
        <time>2022-08-28T10:15:23Z</time>
      </trkpt>
      <trkpt lat="45.92414" lon="6.8699">
        <ele>1372</ele>
        <time>2022-08-28T10:15:24Z</time>
      </trkpt>
      <trkpt lat="45.92404" lon="6.86987">
        <ele>1372</ele>
        <time>2022-08-28T10:15:29Z</time>
      </trkpt>
      <trkpt lat="45.92393" lon="6.86984">
        <ele>1372</ele>
        <time>2022-08-28T10:15:34Z</time>
      </trkpt>
      <trkpt lat="45.92391" lon="6.86984">
        <ele>1372</ele>
        <time>2022-08-28T10:15:35Z</time>
      </trkpt>
      <trkpt lat="45.92389" lon="6.86984">
        <ele>1372</ele>
        <time>2022-08-28T10:15:36Z</time>
      </trkpt>
      <trkpt lat="45.92387" lon="6.86984">
        <ele>1372</ele>
        <time>2022-08-28T10:15:37Z</time>
      </trkpt>
      <trkpt lat="45.92384" lon="6.86983">
        <ele>1372</ele>
        <time>2022-08-28T10:15:39Z</time>
      </trkpt>
      <trkpt lat="45.92382" lon="6.86983">
        <ele>1372</ele>
        <time>2022-08-28T10:15:40Z</time>
      </trkpt>
      <trkpt lat="45.9238" lon="6.86985">
        <ele>1372</ele>
        <time>2022-08-28T10:15:41Z</time>
      </trkpt>
      <trkpt lat="45.92378" lon="6.86986">
        <ele>1372</ele>
        <time>2022-08-28T10:15:42Z</time>
      </trkpt>
      <trkpt lat="45.92376" lon="6.86987">
        <ele>1372</ele>
        <time>2022-08-28T10:15:44Z</time>
      </trkpt>
      <trkpt lat="45.92374" lon="6.86989">
        <ele>1372</ele>
        <time>2022-08-28T10:15:45Z</time>
      </trkpt>
      <trkpt lat="45.92372" lon="6.86991">
        <ele>1372</ele>
        <time>2022-08-28T10:15:46Z</time>
      </trkpt>
      <trkpt lat="45.92371" lon="6.86994">
        <ele>1371</ele>
        <time>2022-08-28T10:15:48Z</time>
      </trkpt>
      <trkpt lat="45.92369" lon="6.86997">
        <ele>1371</ele>
        <time>2022-08-28T10:15:49Z</time>
      </trkpt>
      <trkpt lat="45.92368" lon="6.86999">
        <ele>1371</ele>
        <time>2022-08-28T10:15:50Z</time>
      </trkpt>
      <trkpt lat="45.92366" lon="6.87003">
        <ele>1370</ele>
        <time>2022-08-28T10:15:51Z</time>
      </trkpt>
      <trkpt lat="45.92365" lon="6.87007">
        <ele>1371</ele>
        <time>2022-08-28T10:15:53Z</time>
      </trkpt>
      <trkpt lat="45.92363" lon="6.8701">
        <ele>1371</ele>
        <time>2022-08-28T10:15:54Z</time>
      </trkpt>
      <trkpt lat="45.92362" lon="6.87013">
        <ele>1371</ele>
        <time>2022-08-28T10:15:55Z</time>
      </trkpt>
      <trkpt lat="45.92361" lon="6.87016">
        <ele>1371</ele>
        <time>2022-08-28T10:15:56Z</time>
      </trkpt>
      <trkpt lat="45.9236" lon="6.87018">
        <ele>1371</ele>
        <time>2022-08-28T10:15:58Z</time>
      </trkpt>
      <trkpt lat="45.92359" lon="6.87021">
        <ele>1371</ele>
        <time>2022-08-28T10:15:59Z</time>
      </trkpt>
      <trkpt lat="45.92358" lon="6.87024">
        <ele>1371</ele>
        <time>2022-08-28T10:16:00Z</time>
      </trkpt>
      <trkpt lat="45.92358" lon="6.87027">
        <ele>1372</ele>
        <time>2022-08-28T10:16:01Z</time>
      </trkpt>
      <trkpt lat="45.92357" lon="6.8703">
        <ele>1372</ele>
        <time>2022-08-28T10:16:03Z</time>
      </trkpt>
      <trkpt lat="45.92357" lon="6.87034">
        <ele>1371</ele>
        <time>2022-08-28T10:16:05Z</time>
      </trkpt>
      <trkpt lat="45.92357" lon="6.87037">
        <ele>1371</ele>
        <time>2022-08-28T10:16:06Z</time>
      </trkpt>
      <trkpt lat="45.92356" lon="6.87039">
        <ele>1372</ele>
        <time>2022-08-28T10:16:07Z</time>
      </trkpt>
      <trkpt lat="45.92355" lon="6.87042">
        <ele>1372</ele>
        <time>2022-08-28T10:16:08Z</time>
      </trkpt>
      <trkpt lat="45.92354" lon="6.87044">
        <ele>1371</ele>
        <time>2022-08-28T10:16:09Z</time>
      </trkpt>
      <trkpt lat="45.92352" lon="6.87046">
        <ele>1371</ele>
        <time>2022-08-28T10:16:10Z</time>
      </trkpt>
      <trkpt lat="45.92351" lon="6.87048">
        <ele>1371</ele>
        <time>2022-08-28T10:16:11Z</time>
      </trkpt>
      <trkpt lat="45.92348" lon="6.87048">
        <ele>1371</ele>
        <time>2022-08-28T10:16:13Z</time>
      </trkpt>
      <trkpt lat="45.92345" lon="6.87047">
        <ele>1371</ele>
        <time>2022-08-28T10:16:14Z</time>
      </trkpt>
      <trkpt lat="45.92337" lon="6.87045">
        <ele>1371</ele>
        <time>2022-08-28T10:16:15Z</time>
      </trkpt>
      <trkpt lat="45.92335" lon="6.87044">
        <ele>1371</ele>
        <time>2022-08-28T10:16:16Z</time>
      </trkpt>
      <trkpt lat="45.92333" lon="6.87043">
        <ele>1371</ele>
        <time>2022-08-28T10:16:17Z</time>
      </trkpt>
      <trkpt lat="45.92331" lon="6.87042">
        <ele>1371</ele>
        <time>2022-08-28T10:16:18Z</time>
      </trkpt>
      <trkpt lat="45.92329" lon="6.8704">
        <ele>1370</ele>
        <time>2022-08-28T10:16:19Z</time>
      </trkpt>
      <trkpt lat="45.92327" lon="6.87039">
        <ele>1370</ele>
        <time>2022-08-28T10:16:20Z</time>
      </trkpt>
      <trkpt lat="45.92326" lon="6.87038">
        <ele>1370</ele>
        <time>2022-08-28T10:16:21Z</time>
      </trkpt>
      <trkpt lat="45.92324" lon="6.87037">
        <ele>1370</ele>
        <time>2022-08-28T10:16:22Z</time>
      </trkpt>
      <trkpt lat="45.92322" lon="6.87035">
        <ele>1370</ele>
        <time>2022-08-28T10:16:23Z</time>
      </trkpt>
      <trkpt lat="45.92321" lon="6.87033">
        <ele>1370</ele>
        <time>2022-08-28T10:16:24Z</time>
      </trkpt>
      <trkpt lat="45.92318" lon="6.87031">
        <ele>1370</ele>
        <time>2022-08-28T10:16:25Z</time>
      </trkpt>
      <trkpt lat="45.92317" lon="6.8703">
        <ele>1370</ele>
        <time>2022-08-28T10:16:26Z</time>
      </trkpt>
      <trkpt lat="45.92316" lon="6.87028">
        <ele>1370</ele>
        <time>2022-08-28T10:16:27Z</time>
      </trkpt>
      <trkpt lat="45.92314" lon="6.87027">
        <ele>1370</ele>
        <time>2022-08-28T10:16:28Z</time>
      </trkpt>
      <trkpt lat="45.92312" lon="6.87026">
        <ele>1370</ele>
        <time>2022-08-28T10:16:29Z</time>
      </trkpt>
      <trkpt lat="45.92312" lon="6.87023">
        <ele>1370</ele>
        <time>2022-08-28T10:16:30Z</time>
      </trkpt>
      <trkpt lat="45.92312" lon="6.87021">
        <ele>1370</ele>
        <time>2022-08-28T10:16:31Z</time>
      </trkpt>
      <trkpt lat="45.92311" lon="6.87018">
        <ele>1370</ele>
        <time>2022-08-28T10:16:32Z</time>
      </trkpt>
      <trkpt lat="45.92312" lon="6.87014">
        <ele>1370</ele>
        <time>2022-08-28T10:16:34Z</time>
      </trkpt>
      <trkpt lat="45.92313" lon="6.87009">
        <ele>1370</ele>
        <time>2022-08-28T10:16:36Z</time>
      </trkpt>
      <trkpt lat="45.92313" lon="6.87005">
        <ele>1370</ele>
        <time>2022-08-28T10:16:38Z</time>
      </trkpt>
      <trkpt lat="45.92314" lon="6.87">
        <ele>1370</ele>
        <time>2022-08-28T10:16:39Z</time>
      </trkpt>
      <trkpt lat="45.92314" lon="6.86997">
        <ele>1370</ele>
        <time>2022-08-28T10:16:40Z</time>
      </trkpt>
      <trkpt lat="45.92316" lon="6.86991">
        <ele>1370</ele>
        <time>2022-08-28T10:16:43Z</time>
      </trkpt>
      <trkpt lat="45.92318" lon="6.86986">
        <ele>1370</ele>
        <time>2022-08-28T10:16:44Z</time>
      </trkpt>
      <trkpt lat="45.9232" lon="6.86981">
        <ele>1370</ele>
        <time>2022-08-28T10:16:45Z</time>
      </trkpt>
      <trkpt lat="45.92321" lon="6.86978">
        <ele>1370</ele>
        <time>2022-08-28T10:16:46Z</time>
      </trkpt>
      <trkpt lat="45.92323" lon="6.86976">
        <ele>1370</ele>
        <time>2022-08-28T10:16:47Z</time>
      </trkpt>
      <trkpt lat="45.92325" lon="6.86974">
        <ele>1370</ele>
        <time>2022-08-28T10:16:48Z</time>
      </trkpt>
      <trkpt lat="45.92327" lon="6.86973">
        <ele>1370</ele>
        <time>2022-08-28T10:16:49Z</time>
      </trkpt>
      <trkpt lat="45.92332" lon="6.86971">
        <ele>1370</ele>
        <time>2022-08-28T10:16:51Z</time>
      </trkpt>
      <trkpt lat="45.92333" lon="6.86971">
        <ele>1370</ele>
        <time>2022-08-28T10:16:52Z</time>
      </trkpt>
      <trkpt lat="45.92335" lon="6.8697">
        <ele>1371</ele>
        <time>2022-08-28T10:16:53Z</time>
      </trkpt>
      <trkpt lat="45.92339" lon="6.86967">
        <ele>1371</ele>
        <time>2022-08-28T10:16:55Z</time>
      </trkpt>
      <trkpt lat="45.92341" lon="6.86966">
        <ele>1371</ele>
        <time>2022-08-28T10:16:56Z</time>
      </trkpt>
      <trkpt lat="45.92343" lon="6.86963">
        <ele>1371</ele>
        <time>2022-08-28T10:16:58Z</time>
      </trkpt>
      <trkpt lat="45.92346" lon="6.8696">
        <ele>1371</ele>
        <time>2022-08-28T10:17:00Z</time>
      </trkpt>
      <trkpt lat="45.92349" lon="6.86957">
        <ele>1371</ele>
        <time>2022-08-28T10:17:01Z</time>
      </trkpt>
      <trkpt lat="45.9235" lon="6.86955">
        <ele>1371</ele>
        <time>2022-08-28T10:17:02Z</time>
      </trkpt>
      <trkpt lat="45.9235" lon="6.86952">
        <ele>1371</ele>
        <time>2022-08-28T10:17:04Z</time>
      </trkpt>
      <trkpt lat="45.92351" lon="6.8695">
        <ele>1371</ele>
        <time>2022-08-28T10:17:05Z</time>
      </trkpt>
      <trkpt lat="45.92353" lon="6.86943">
        <ele>1371</ele>
        <time>2022-08-28T10:17:06Z</time>
      </trkpt>
      <trkpt lat="45.92358" lon="6.8693">
        <ele>1371</ele>
        <time>2022-08-28T10:17:09Z</time>
      </trkpt>
      <trkpt lat="45.92359" lon="6.86927">
        <ele>1371</ele>
        <time>2022-08-28T10:17:10Z</time>
      </trkpt>
      <trkpt lat="45.92359" lon="6.86924">
        <ele>1371</ele>
        <time>2022-08-28T10:17:11Z</time>
      </trkpt>
      <trkpt lat="45.9236" lon="6.86922">
        <ele>1371</ele>
        <time>2022-08-28T10:17:12Z</time>
      </trkpt>
      <trkpt lat="45.92361" lon="6.86919">
        <ele>1371</ele>
        <time>2022-08-28T10:17:13Z</time>
      </trkpt>
      <trkpt lat="45.92362" lon="6.86916">
        <ele>1371</ele>
        <time>2022-08-28T10:17:14Z</time>
      </trkpt>
      <trkpt lat="45.92362" lon="6.86915">
        <ele>1371</ele>
        <time>2022-08-28T10:17:15Z</time>
      </trkpt>
      <trkpt lat="45.92362" lon="6.86913">
        <ele>1371</ele>
        <time>2022-08-28T10:17:16Z</time>
      </trkpt>
      <trkpt lat="45.92363" lon="6.86911">
        <ele>1371</ele>
        <time>2022-08-28T10:17:17Z</time>
        <extensions>
          <visugpx:TrkExtension xmlns:visugpx="https://www.visugpx.com/editgpx/">
            <visugpx:node>1</visugpx:node>
            </visugpx:TrkExtension>
        </extensions>
      </trkpt>
    </trkseg>
  </trk>
</gpx>